<?xml version='1.0' encoding='UTF-8'?><gpx version="1.1" creator="JPX - https://github.com/jenetics/jpx" xmlns="http://www.topografix.com/GPX/1/1"><trk><trkseg><trkpt lat="43.21053" lon="2.319405"><ele>118.00000000000001</ele><time>2026-04-26T02:58:09.727Z</time></trkpt><trkpt lat="43.2105267" lon="2.31931"><ele>118.0</ele><time>2026-04-26T03:11:14.728Z</time></trkpt><trkpt lat="43.2105483" lon="2.3193917"><ele>118.0</ele><time>2026-04-26T03:11:22.729Z</time></trkpt><trkpt lat="43.210505" lon="2.319475"><ele>118.0</ele><time>2026-04-26T03:11:49.73Z</time></trkpt><trkpt lat="43.210545" lon="2.3195833"><ele>118.00000000000001</ele><time>2026-04-26T03:11:52.731Z</time></trkpt><trkpt lat="43.2104833" lon="2.3196633"><ele>118.0</ele><time>2026-04-26T03:11:55.728Z</time></trkpt><trkpt lat="43.210375" lon="2.3196983"><ele>118.0</ele><time>2026-04-26T03:11:57.728Z</time></trkpt><trkpt lat="43.2103117" lon="2.319705"><ele>118.0</ele><time>2026-04-26T03:11:58.728Z</time></trkpt><trkpt lat="43.2102467" lon="2.3197117"><ele>118.0</ele><time>2026-04-26T03:11:59.728Z</time></trkpt><trkpt lat="43.21018" lon="2.3197133"><ele>118.0</ele><time>2026-04-26T03:12:00.728Z</time></trkpt><trkpt lat="43.2101117" lon="2.3197167"><ele>118.0</ele><time>2026-04-26T03:12:01.729Z</time></trkpt><trkpt lat="43.21004" lon="2.31972"><ele>118.0</ele><time>2026-04-26T03:12:02.729Z</time></trkpt><trkpt lat="43.2099617" lon="2.31972"><ele>118.0</ele><time>2026-04-26T03:12:03.728Z</time></trkpt><trkpt lat="43.2098817" lon="2.3197183"><ele>117.66666666666667</ele><time>2026-04-26T03:12:04.729Z</time></trkpt><trkpt lat="43.2098" lon="2.319715"><ele>117.33333333333334</ele><time>2026-04-26T03:12:05.728Z</time></trkpt><trkpt lat="43.2097133" lon="2.3197117"><ele>117.0</ele><time>2026-04-26T03:12:06.73Z</time></trkpt><trkpt lat="43.2096233" lon="2.31971"><ele>116.66666666666666</ele><time>2026-04-26T03:12:07.729Z</time></trkpt><trkpt lat="43.20953" lon="2.3197067"><ele>116.33333333333333</ele><time>2026-04-26T03:12:08.729Z</time></trkpt><trkpt lat="43.209435" lon="2.3197033"><ele>116.0</ele><time>2026-04-26T03:12:09.73Z</time></trkpt><trkpt lat="43.2093383" lon="2.3196967"><ele>116.0</ele><time>2026-04-26T03:12:10.729Z</time></trkpt><trkpt lat="43.2092417" lon="2.3196883"><ele>116.0</ele><time>2026-04-26T03:12:11.728Z</time></trkpt><trkpt lat="43.2091383" lon="2.3196833"><ele>116.0</ele><time>2026-04-26T03:12:12.729Z</time></trkpt><trkpt lat="43.209035" lon="2.3196783"><ele>116.0</ele><time>2026-04-26T03:12:13.729Z</time></trkpt><trkpt lat="43.20893" lon="2.3196717"><ele>116.0</ele><time>2026-04-26T03:12:14.729Z</time></trkpt><trkpt lat="43.2088267" lon="2.31967"><ele>116.19999999999999</ele><time>2026-04-26T03:12:15.728Z</time></trkpt><trkpt lat="43.208725" lon="2.31968"><ele>116.39999999999999</ele><time>2026-04-26T03:12:16.728Z</time></trkpt><trkpt lat="43.2086283" lon="2.3197083"><ele>116.6</ele><time>2026-04-26T03:12:17.73Z</time></trkpt><trkpt lat="43.2085383" lon="2.31975"><ele>116.8</ele><time>2026-04-26T03:12:18.73Z</time></trkpt><trkpt lat="43.2084583" lon="2.3197883"><ele>117.0</ele><time>2026-04-26T03:12:19.729Z</time></trkpt><trkpt lat="43.20838" lon="2.3198083"><ele>117.0</ele><time>2026-04-26T03:12:20.729Z</time></trkpt><trkpt lat="43.208305" lon="2.31979"><ele>117.0</ele><time>2026-04-26T03:12:21.729Z</time></trkpt><trkpt lat="43.2082283" lon="2.31974"><ele>117.0</ele><time>2026-04-26T03:12:22.729Z</time></trkpt><trkpt lat="43.2081617" lon="2.3196633"><ele>117.0</ele><time>2026-04-26T03:12:23.729Z</time></trkpt><trkpt lat="43.2081083" lon="2.31956"><ele>117.0</ele><time>2026-04-26T03:12:24.73Z</time></trkpt><trkpt lat="43.208065" lon="2.319445"><ele>117.0</ele><time>2026-04-26T03:12:25.728Z</time></trkpt><trkpt lat="43.20803" lon="2.3193133"><ele>117.0</ele><time>2026-04-26T03:12:26.73Z</time></trkpt><trkpt lat="43.207995" lon="2.31918"><ele>116.99999999999999</ele><time>2026-04-26T03:12:27.73Z</time></trkpt><trkpt lat="43.2079517" lon="2.3190433"><ele>116.99999999999999</ele><time>2026-04-26T03:12:28.729Z</time></trkpt><trkpt lat="43.2079067" lon="2.3189117"><ele>117.0</ele><time>2026-04-26T03:12:29.731Z</time></trkpt><trkpt lat="43.207865" lon="2.3187867"><ele>117.0</ele><time>2026-04-26T03:12:30.729Z</time></trkpt><trkpt lat="43.2078267" lon="2.318665"><ele>116.66666666666667</ele><time>2026-04-26T03:12:31.73Z</time></trkpt><trkpt lat="43.2077817" lon="2.3185433"><ele>116.33333333333334</ele><time>2026-04-26T03:12:32.73Z</time></trkpt><trkpt lat="43.2077417" lon="2.3184317"><ele>116.0</ele><time>2026-04-26T03:12:33.728Z</time></trkpt><trkpt lat="43.2077133" lon="2.3183267"><ele>115.66666666666667</ele><time>2026-04-26T03:12:34.73Z</time></trkpt><trkpt lat="43.2076867" lon="2.3182233"><ele>115.33333333333334</ele><time>2026-04-26T03:12:35.729Z</time></trkpt><trkpt lat="43.2076517" lon="2.31814"><ele>115.0</ele><time>2026-04-26T03:12:36.727Z</time></trkpt><trkpt lat="43.2076" lon="2.31808"><ele>115.00000000000001</ele><time>2026-04-26T03:12:37.728Z</time></trkpt><trkpt lat="43.2075267" lon="2.31807"><ele>115.0</ele><time>2026-04-26T03:12:38.729Z</time></trkpt><trkpt lat="43.2074467" lon="2.3180917"><ele>115.0</ele><time>2026-04-26T03:12:39.727Z</time></trkpt><trkpt lat="43.2073633" lon="2.31812"><ele>115.0</ele><time>2026-04-26T03:12:40.728Z</time></trkpt><trkpt lat="43.2072717" lon="2.3181017"><ele>115.00000000000001</ele><time>2026-04-26T03:12:41.728Z</time></trkpt><trkpt lat="43.2071833" lon="2.3180467"><ele>115.0</ele><time>2026-04-26T03:12:42.728Z</time></trkpt><trkpt lat="43.2070783" lon="2.3180167"><ele>115.0</ele><time>2026-04-26T03:12:43.727Z</time></trkpt><trkpt lat="43.2069633" lon="2.3179967"><ele>115.0</ele><time>2026-04-26T03:12:44.727Z</time></trkpt><trkpt lat="43.2068517" lon="2.3179817"><ele>115.0</ele><time>2026-04-26T03:12:45.728Z</time></trkpt><trkpt lat="43.20674" lon="2.31797"><ele>115.0</ele><time>2026-04-26T03:12:46.73Z</time></trkpt><trkpt lat="43.2066233" lon="2.3179567"><ele>115.0</ele><time>2026-04-26T03:12:47.728Z</time></trkpt><trkpt lat="43.2065067" lon="2.3179383"><ele>115.0</ele><time>2026-04-26T03:12:48.729Z</time></trkpt><trkpt lat="43.2063883" lon="2.31793"><ele>115.0</ele><time>2026-04-26T03:12:49.727Z</time></trkpt><trkpt lat="43.2062717" lon="2.3179133"><ele>115.0</ele><time>2026-04-26T03:12:50.731Z</time></trkpt><trkpt lat="43.2061467" lon="2.3179033"><ele>115.25</ele><time>2026-04-26T03:12:51.728Z</time></trkpt><trkpt lat="43.2060167" lon="2.3178917"><ele>115.5</ele><time>2026-04-26T03:12:52.727Z</time></trkpt><trkpt lat="43.2058917" lon="2.3178817"><ele>115.75</ele><time>2026-04-26T03:12:53.727Z</time></trkpt><trkpt lat="43.2057633" lon="2.317875"><ele>116.0</ele><time>2026-04-26T03:12:54.728Z</time></trkpt><trkpt lat="43.2056367" lon="2.317865"><ele>116.25</ele><time>2026-04-26T03:12:55.728Z</time></trkpt><trkpt lat="43.20551" lon="2.3178533"><ele>116.5</ele><time>2026-04-26T03:12:56.729Z</time></trkpt><trkpt lat="43.2053817" lon="2.3178367"><ele>116.75</ele><time>2026-04-26T03:12:57.728Z</time></trkpt><trkpt lat="43.2052567" lon="2.3178217"><ele>117.0</ele><time>2026-04-26T03:12:58.728Z</time></trkpt><trkpt lat="43.2051283" lon="2.3178067"><ele>117.0</ele><time>2026-04-26T03:12:59.729Z</time></trkpt><trkpt lat="43.2049967" lon="2.3177917"><ele>117.0</ele><time>2026-04-26T03:13:00.727Z</time></trkpt><trkpt lat="43.204865" lon="2.3177767"><ele>117.0</ele><time>2026-04-26T03:13:01.728Z</time></trkpt><trkpt lat="43.2047267" lon="2.3177683"><ele>117.0</ele><time>2026-04-26T03:13:02.728Z</time></trkpt><trkpt lat="43.204605" lon="2.31775"><ele>116.8</ele><time>2026-04-26T03:13:03.728Z</time></trkpt><trkpt lat="43.2044933" lon="2.317725"><ele>116.6</ele><time>2026-04-26T03:13:04.73Z</time></trkpt><trkpt lat="43.2043933" lon="2.31771"><ele>116.39999999999999</ele><time>2026-04-26T03:13:05.728Z</time></trkpt><trkpt lat="43.2042967" lon="2.31771"><ele>116.19999999999999</ele><time>2026-04-26T03:13:06.728Z</time></trkpt><trkpt lat="43.2042083" lon="2.3177467"><ele>116.0</ele><time>2026-04-26T03:13:07.728Z</time></trkpt><trkpt lat="43.2041283" lon="2.317815"><ele>116.0</ele><time>2026-04-26T03:13:08.728Z</time></trkpt><trkpt lat="43.20407" lon="2.3179083"><ele>116.0</ele><time>2026-04-26T03:13:09.733Z</time></trkpt><trkpt lat="43.2040483" lon="2.3180417"><ele>116.0</ele><time>2026-04-26T03:13:10.729Z</time></trkpt><trkpt lat="43.2040583" lon="2.3181817"><ele>116.0</ele><time>2026-04-26T03:13:11.728Z</time></trkpt><trkpt lat="43.2040917" lon="2.31833"><ele>116.0</ele><time>2026-04-26T03:13:12.727Z</time></trkpt><trkpt lat="43.20413" lon="2.318485"><ele>116.25</ele><time>2026-04-26T03:13:13.727Z</time></trkpt><trkpt lat="43.2041633" lon="2.3186483"><ele>116.5</ele><time>2026-04-26T03:13:14.728Z</time></trkpt><trkpt lat="43.2041933" lon="2.3188133"><ele>116.75</ele><time>2026-04-26T03:13:15.727Z</time></trkpt><trkpt lat="43.2042233" lon="2.3189767"><ele>117.0</ele><time>2026-04-26T03:13:16.728Z</time></trkpt><trkpt lat="43.2042517" lon="2.31913"><ele>117.0</ele><time>2026-04-26T03:13:17.728Z</time></trkpt><trkpt lat="43.20428" lon="2.31927"><ele>116.99999999999999</ele><time>2026-04-26T03:13:18.729Z</time></trkpt><trkpt lat="43.204305" lon="2.3194017"><ele>116.99999999999999</ele><time>2026-04-26T03:13:19.727Z</time></trkpt><trkpt lat="43.2043233" lon="2.3195233"><ele>117.0</ele><time>2026-04-26T03:13:20.728Z</time></trkpt><trkpt lat="43.20433" lon="2.3196467"><ele>117.0</ele><time>2026-04-26T03:13:21.728Z</time></trkpt><trkpt lat="43.2043183" lon="2.31977"><ele>117.0</ele><time>2026-04-26T03:13:22.732Z</time></trkpt><trkpt lat="43.2042883" lon="2.3198917"><ele>116.99999999999999</ele><time>2026-04-26T03:13:23.729Z</time></trkpt><trkpt lat="43.20424" lon="2.3200133"><ele>116.99999999999999</ele><time>2026-04-26T03:13:24.728Z</time></trkpt><trkpt lat="43.20419" lon="2.3201417"><ele>117.0</ele><time>2026-04-26T03:13:25.728Z</time></trkpt><trkpt lat="43.2041433" lon="2.3202783"><ele>117.0</ele><time>2026-04-26T03:13:26.73Z</time></trkpt><trkpt lat="43.204105" lon="2.3204217"><ele>117.0</ele><time>2026-04-26T03:13:27.727Z</time></trkpt><trkpt lat="43.2040817" lon="2.320565"><ele>116.99999999999999</ele><time>2026-04-26T03:13:28.73Z</time></trkpt><trkpt lat="43.2040717" lon="2.3207067"><ele>116.99999999999999</ele><time>2026-04-26T03:13:29.727Z</time></trkpt><trkpt lat="43.2040683" lon="2.3208533"><ele>117.0</ele><time>2026-04-26T03:13:30.729Z</time></trkpt><trkpt lat="43.2040683" lon="2.3210117"><ele>117.0</ele><time>2026-04-26T03:13:31.729Z</time></trkpt><trkpt lat="43.20407" lon="2.32118"><ele>117.0</ele><time>2026-04-26T03:13:32.728Z</time></trkpt><trkpt lat="43.2040733" lon="2.3213567"><ele>117.0</ele><time>2026-04-26T03:13:33.727Z</time></trkpt><trkpt lat="43.2040667" lon="2.32154"><ele>117.0</ele><time>2026-04-26T03:13:34.727Z</time></trkpt><trkpt lat="43.2040517" lon="2.3217267"><ele>117.0</ele><time>2026-04-26T03:13:35.727Z</time></trkpt><trkpt lat="43.20403" lon="2.3219083"><ele>117.5</ele><time>2026-04-26T03:13:36.727Z</time></trkpt><trkpt lat="43.204005" lon="2.32209"><ele>118.0</ele><time>2026-04-26T03:13:37.727Z</time></trkpt><trkpt lat="43.2039833" lon="2.3222733"><ele>118.5</ele><time>2026-04-26T03:13:38.728Z</time></trkpt><trkpt lat="43.2039583" lon="2.32246"><ele>119.0</ele><time>2026-04-26T03:13:39.731Z</time></trkpt><trkpt lat="43.2039317" lon="2.3226483"><ele>120.5</ele><time>2026-04-26T03:13:40.727Z</time></trkpt><trkpt lat="43.2039067" lon="2.3228333"><ele>122.0</ele><time>2026-04-26T03:13:41.728Z</time></trkpt><trkpt lat="43.2038833" lon="2.32302"><ele>123.5</ele><time>2026-04-26T03:13:42.726Z</time></trkpt><trkpt lat="43.2038583" lon="2.3232067"><ele>125.0</ele><time>2026-04-26T03:13:43.728Z</time></trkpt><trkpt lat="43.2038333" lon="2.3233933"><ele>125.25</ele><time>2026-04-26T03:13:44.728Z</time></trkpt><trkpt lat="43.20381" lon="2.3235833"><ele>125.5</ele><time>2026-04-26T03:13:45.726Z</time></trkpt><trkpt lat="43.2037883" lon="2.3237717"><ele>125.75</ele><time>2026-04-26T03:13:46.726Z</time></trkpt><trkpt lat="43.2037667" lon="2.32395"><ele>126.0</ele><time>2026-04-26T03:13:47.728Z</time></trkpt><trkpt lat="43.2037483" lon="2.324135"><ele>126.0</ele><time>2026-04-26T03:13:48.727Z</time></trkpt><trkpt lat="43.2037183" lon="2.3243133"><ele>126.0</ele><time>2026-04-26T03:13:49.727Z</time></trkpt><trkpt lat="43.203675" lon="2.32448"><ele>126.0</ele><time>2026-04-26T03:13:50.728Z</time></trkpt><trkpt lat="43.2036183" lon="2.3246467"><ele>126.0</ele><time>2026-04-26T03:13:51.728Z</time></trkpt><trkpt lat="43.203595" lon="2.3248033"><ele>125.5</ele><time>2026-04-26T03:13:52.726Z</time></trkpt><trkpt lat="43.2036017" lon="2.3249733"><ele>125.0</ele><time>2026-04-26T03:13:53.73Z</time></trkpt><trkpt lat="43.2036067" lon="2.3251517"><ele>124.5</ele><time>2026-04-26T03:13:54.728Z</time></trkpt><trkpt lat="43.2035867" lon="2.3253367"><ele>124.0</ele><time>2026-04-26T03:13:55.729Z</time></trkpt><trkpt lat="43.2035617" lon="2.325525"><ele>123.0</ele><time>2026-04-26T03:13:56.728Z</time></trkpt><trkpt lat="43.2035367" lon="2.3257083"><ele>122.0</ele><time>2026-04-26T03:13:57.729Z</time></trkpt><trkpt lat="43.2035167" lon="2.3258833"><ele>121.0</ele><time>2026-04-26T03:13:58.726Z</time></trkpt><trkpt lat="43.2034983" lon="2.3260533"><ele>120.0</ele><time>2026-04-26T03:13:59.729Z</time></trkpt><trkpt lat="43.2034617" lon="2.326225"><ele>119.0</ele><time>2026-04-26T03:14:00.729Z</time></trkpt><trkpt lat="43.2034367" lon="2.3264033"><ele>118.0</ele><time>2026-04-26T03:14:01.73Z</time></trkpt><trkpt lat="43.2034233" lon="2.3265867"><ele>117.0</ele><time>2026-04-26T03:14:02.728Z</time></trkpt><trkpt lat="43.20341" lon="2.32678"><ele>116.0</ele><time>2026-04-26T03:14:03.728Z</time></trkpt><trkpt lat="43.2033867" lon="2.3269767"><ele>116.0</ele><time>2026-04-26T03:14:04.727Z</time></trkpt><trkpt lat="43.203355" lon="2.3271733"><ele>116.0</ele><time>2026-04-26T03:14:05.727Z</time></trkpt><trkpt lat="43.20332" lon="2.3273733"><ele>116.0</ele><time>2026-04-26T03:14:06.728Z</time></trkpt><trkpt lat="43.2032733" lon="2.3275717"><ele>116.0</ele><time>2026-04-26T03:14:07.729Z</time></trkpt><trkpt lat="43.2032167" lon="2.3277683"><ele>115.75</ele><time>2026-04-26T03:14:08.728Z</time></trkpt><trkpt lat="43.2031667" lon="2.32796"><ele>115.5</ele><time>2026-04-26T03:14:09.729Z</time></trkpt><trkpt lat="43.2031167" lon="2.328135"><ele>115.25</ele><time>2026-04-26T03:14:10.728Z</time></trkpt><trkpt lat="43.20307" lon="2.3282983"><ele>115.0</ele><time>2026-04-26T03:14:11.728Z</time></trkpt><trkpt lat="43.2030233" lon="2.3284533"><ele>115.2</ele><time>2026-04-26T03:14:12.727Z</time></trkpt><trkpt lat="43.20297" lon="2.328595"><ele>115.4</ele><time>2026-04-26T03:14:13.73Z</time></trkpt><trkpt lat="43.20291" lon="2.328715"><ele>115.6</ele><time>2026-04-26T03:14:14.731Z</time></trkpt><trkpt lat="43.20285" lon="2.3288217"><ele>115.8</ele><time>2026-04-26T03:14:15.728Z</time></trkpt><trkpt lat="43.202785" lon="2.3288983"><ele>116.0</ele><time>2026-04-26T03:14:16.728Z</time></trkpt><trkpt lat="43.2027467" lon="2.328985"><ele>116.0</ele><time>2026-04-26T03:14:17.728Z</time></trkpt><trkpt lat="43.2027417" lon="2.3290767"><ele>116.0</ele><time>2026-04-26T03:14:18.727Z</time></trkpt><trkpt lat="43.202775" lon="2.329175"><ele>116.0</ele><time>2026-04-26T03:14:19.727Z</time></trkpt><trkpt lat="43.2028617" lon="2.3292283"><ele>116.0</ele><time>2026-04-26T03:14:20.728Z</time></trkpt><trkpt lat="43.2029583" lon="2.3292717"><ele>116.0</ele><time>2026-04-26T03:14:21.728Z</time></trkpt><trkpt lat="43.2030583" lon="2.329325"><ele>116.0</ele><time>2026-04-26T03:14:22.728Z</time></trkpt><trkpt lat="43.203165" lon="2.32941"><ele>116.0</ele><time>2026-04-26T03:14:23.728Z</time></trkpt><trkpt lat="43.2032667" lon="2.3295033"><ele>116.0</ele><time>2026-04-26T03:14:24.729Z</time></trkpt><trkpt lat="43.2033683" lon="2.3295967"><ele>116.0</ele><time>2026-04-26T03:14:25.727Z</time></trkpt><trkpt lat="43.2034833" lon="2.329685"><ele>115.5</ele><time>2026-04-26T03:14:26.728Z</time></trkpt><trkpt lat="43.2036033" lon="2.3297683"><ele>115.0</ele><time>2026-04-26T03:14:27.728Z</time></trkpt><trkpt lat="43.2037283" lon="2.32985"><ele>114.5</ele><time>2026-04-26T03:14:28.729Z</time></trkpt><trkpt lat="43.2038533" lon="2.3299317"><ele>114.0</ele><time>2026-04-26T03:14:29.728Z</time></trkpt><trkpt lat="43.2039783" lon="2.330015"><ele>114.0</ele><time>2026-04-26T03:14:30.728Z</time></trkpt><trkpt lat="43.2041033" lon="2.3300967"><ele>114.0</ele><time>2026-04-26T03:14:31.728Z</time></trkpt><trkpt lat="43.2042283" lon="2.3301767"><ele>114.0</ele><time>2026-04-26T03:14:32.728Z</time></trkpt><trkpt lat="43.2043533" lon="2.33026"><ele>114.0</ele><time>2026-04-26T03:14:33.728Z</time></trkpt><trkpt lat="43.2044783" lon="2.330345"><ele>114.0</ele><time>2026-04-26T03:14:34.727Z</time></trkpt><trkpt lat="43.2045917" lon="2.33042"><ele>114.0</ele><time>2026-04-26T03:14:35.726Z</time></trkpt><trkpt lat="43.2046967" lon="2.3304867"><ele>114.0</ele><time>2026-04-26T03:14:36.729Z</time></trkpt><trkpt lat="43.2047933" lon="2.3305517"><ele>114.0</ele><time>2026-04-26T03:14:37.728Z</time></trkpt><trkpt lat="43.2048833" lon="2.3306117"><ele>114.0</ele><time>2026-04-26T03:14:38.729Z</time></trkpt><trkpt lat="43.2049583" lon="2.330685"><ele>114.0</ele><time>2026-04-26T03:14:39.728Z</time></trkpt><trkpt lat="43.2050183" lon="2.3307833"><ele>114.0</ele><time>2026-04-26T03:14:40.727Z</time></trkpt><trkpt lat="43.2050517" lon="2.3309083"><ele>114.0</ele><time>2026-04-26T03:14:41.728Z</time></trkpt><trkpt lat="43.205055" lon="2.3310567"><ele>114.0</ele><time>2026-04-26T03:14:42.728Z</time></trkpt><trkpt lat="43.20503" lon="2.3312083"><ele>114.0</ele><time>2026-04-26T03:14:43.727Z</time></trkpt><trkpt lat="43.20499" lon="2.3313683"><ele>114.0</ele><time>2026-04-26T03:14:44.728Z</time></trkpt><trkpt lat="43.2049467" lon="2.331535"><ele>114.0</ele><time>2026-04-26T03:14:45.728Z</time></trkpt><trkpt lat="43.2049067" lon="2.3317017"><ele>114.0</ele><time>2026-04-26T03:14:46.728Z</time></trkpt><trkpt lat="43.204865" lon="2.3318667"><ele>114.0</ele><time>2026-04-26T03:14:47.727Z</time></trkpt><trkpt lat="43.20483" lon="2.3320267"><ele>113.75</ele><time>2026-04-26T03:14:48.729Z</time></trkpt><trkpt lat="43.204795" lon="2.3321767"><ele>113.5</ele><time>2026-04-26T03:14:49.728Z</time></trkpt><trkpt lat="43.2047467" lon="2.332315"><ele>113.25</ele><time>2026-04-26T03:14:50.728Z</time></trkpt><trkpt lat="43.2046733" lon="2.33243"><ele>113.0</ele><time>2026-04-26T03:14:51.728Z</time></trkpt><trkpt lat="43.2045817" lon="2.3325217"><ele>113.0</ele><time>2026-04-26T03:14:52.729Z</time></trkpt><trkpt lat="43.20449" lon="2.33262"><ele>113.0</ele><time>2026-04-26T03:14:53.728Z</time></trkpt><trkpt lat="43.2044183" lon="2.3327483"><ele>113.0</ele><time>2026-04-26T03:14:54.727Z</time></trkpt><trkpt lat="43.2043733" lon="2.3329"><ele>113.0</ele><time>2026-04-26T03:14:55.727Z</time></trkpt><trkpt lat="43.20434" lon="2.33307"><ele>111.75</ele><time>2026-04-26T03:14:56.727Z</time></trkpt><trkpt lat="43.2042983" lon="2.33324"><ele>110.5</ele><time>2026-04-26T03:14:57.727Z</time></trkpt><trkpt lat="43.2042267" lon="2.3333933"><ele>109.25</ele><time>2026-04-26T03:14:58.729Z</time></trkpt><trkpt lat="43.2041317" lon="2.33353"><ele>108.0</ele><time>2026-04-26T03:14:59.728Z</time></trkpt><trkpt lat="43.2040267" lon="2.3336583"><ele>108.25</ele><time>2026-04-26T03:15:00.728Z</time></trkpt><trkpt lat="43.2039233" lon="2.3337817"><ele>108.5</ele><time>2026-04-26T03:15:01.728Z</time></trkpt><trkpt lat="43.2038167" lon="2.3339"><ele>108.75</ele><time>2026-04-26T03:15:02.728Z</time></trkpt><trkpt lat="43.2037067" lon="2.3340217"><ele>109.0</ele><time>2026-04-26T03:15:03.729Z</time></trkpt><trkpt lat="43.203595" lon="2.3341533"><ele>109.0</ele><time>2026-04-26T03:15:04.728Z</time></trkpt><trkpt lat="43.2034783" lon="2.334295"><ele>109.0</ele><time>2026-04-26T03:15:05.728Z</time></trkpt><trkpt lat="43.2033583" lon="2.334435"><ele>109.0</ele><time>2026-04-26T03:15:06.728Z</time></trkpt><trkpt lat="43.203235" lon="2.334575"><ele>109.0</ele><time>2026-04-26T03:15:07.728Z</time></trkpt><trkpt lat="43.2031083" lon="2.33472"><ele>109.0</ele><time>2026-04-26T03:15:08.729Z</time></trkpt><trkpt lat="43.20298" lon="2.334865"><ele>109.0</ele><time>2026-04-26T03:15:09.728Z</time></trkpt><trkpt lat="43.20285" lon="2.33501"><ele>109.0</ele><time>2026-04-26T03:15:10.728Z</time></trkpt><trkpt lat="43.2027233" lon="2.3351583"><ele>109.0</ele><time>2026-04-26T03:15:11.728Z</time></trkpt><trkpt lat="43.2025933" lon="2.33531"><ele>109.0</ele><time>2026-04-26T03:15:12.728Z</time></trkpt><trkpt lat="43.202465" lon="2.33546"><ele>109.33333333333334</ele><time>2026-04-26T03:15:13.727Z</time></trkpt><trkpt lat="43.2023317" lon="2.3356117"><ele>109.66666666666666</ele><time>2026-04-26T03:15:14.728Z</time></trkpt><trkpt lat="43.2022" lon="2.3357617"><ele>110.0</ele><time>2026-04-26T03:15:15.727Z</time></trkpt><trkpt lat="43.2020633" lon="2.33591"><ele>110.0</ele><time>2026-04-26T03:15:16.728Z</time></trkpt><trkpt lat="43.201925" lon="2.336055"><ele>110.0</ele><time>2026-04-26T03:15:17.729Z</time></trkpt><trkpt lat="43.201785" lon="2.33619"><ele>110.0</ele><time>2026-04-26T03:15:18.73Z</time></trkpt><trkpt lat="43.20164" lon="2.3363217"><ele>109.66666666666666</ele><time>2026-04-26T03:15:19.729Z</time></trkpt><trkpt lat="43.2014933" lon="2.33645"><ele>109.33333333333334</ele><time>2026-04-26T03:15:20.73Z</time></trkpt><trkpt lat="43.2013433" lon="2.336575"><ele>109.0</ele><time>2026-04-26T03:15:21.729Z</time></trkpt><trkpt lat="43.20119" lon="2.3366883"><ele>109.0</ele><time>2026-04-26T03:15:22.73Z</time></trkpt><trkpt lat="43.20103" lon="2.3367867"><ele>109.0</ele><time>2026-04-26T03:15:23.729Z</time></trkpt><trkpt lat="43.2008683" lon="2.3368733"><ele>109.0</ele><time>2026-04-26T03:15:24.729Z</time></trkpt><trkpt lat="43.20072" lon="2.33695"><ele>109.25</ele><time>2026-04-26T03:15:25.729Z</time></trkpt><trkpt lat="43.2005783" lon="2.3370183"><ele>109.5</ele><time>2026-04-26T03:15:26.73Z</time></trkpt><trkpt lat="43.2004417" lon="2.3370833"><ele>109.75</ele><time>2026-04-26T03:15:27.729Z</time></trkpt><trkpt lat="43.2003067" lon="2.3371383"><ele>110.0</ele><time>2026-04-26T03:15:28.73Z</time></trkpt><trkpt lat="43.2001817" lon="2.3371633"><ele>110.0</ele><time>2026-04-26T03:15:29.727Z</time></trkpt><trkpt lat="43.2000517" lon="2.3371667"><ele>110.0</ele><time>2026-04-26T03:15:30.728Z</time></trkpt><trkpt lat="43.1999217" lon="2.3371683"><ele>110.0</ele><time>2026-04-26T03:15:31.727Z</time></trkpt><trkpt lat="43.19979" lon="2.337195"><ele>110.0</ele><time>2026-04-26T03:15:32.728Z</time></trkpt><trkpt lat="43.1996567" lon="2.3372333"><ele>112.75</ele><time>2026-04-26T03:15:33.728Z</time></trkpt><trkpt lat="43.1995183" lon="2.337265"><ele>115.5</ele><time>2026-04-26T03:15:34.729Z</time></trkpt><trkpt lat="43.199375" lon="2.3372867"><ele>118.25</ele><time>2026-04-26T03:15:35.728Z</time></trkpt><trkpt lat="43.1992233" lon="2.3373017"><ele>121.0</ele><time>2026-04-26T03:15:36.729Z</time></trkpt><trkpt lat="43.1990683" lon="2.33731"><ele>122.0</ele><time>2026-04-26T03:15:37.728Z</time></trkpt><trkpt lat="43.1989117" lon="2.33732"><ele>123.0</ele><time>2026-04-26T03:15:38.728Z</time></trkpt><trkpt lat="43.1987567" lon="2.337335"><ele>124.0</ele><time>2026-04-26T03:15:39.728Z</time></trkpt><trkpt lat="43.1985967" lon="2.3373517"><ele>124.0</ele><time>2026-04-26T03:15:40.727Z</time></trkpt><trkpt lat="43.198435" lon="2.3373567"><ele>124.0</ele><time>2026-04-26T03:15:41.735Z</time></trkpt><trkpt lat="43.1982717" lon="2.3373533"><ele>124.0</ele><time>2026-04-26T03:15:42.728Z</time></trkpt><trkpt lat="43.1981067" lon="2.3373433"><ele>124.33333333333334</ele><time>2026-04-26T03:15:43.727Z</time></trkpt><trkpt lat="43.19794" lon="2.337325"><ele>124.66666666666666</ele><time>2026-04-26T03:15:44.729Z</time></trkpt><trkpt lat="43.1977717" lon="2.3373"><ele>125.0</ele><time>2026-04-26T03:15:45.727Z</time></trkpt><trkpt lat="43.1976067" lon="2.33726"><ele>123.66666666666666</ele><time>2026-04-26T03:15:46.727Z</time></trkpt><trkpt lat="43.1974433" lon="2.3372"><ele>122.33333333333334</ele><time>2026-04-26T03:15:47.727Z</time></trkpt><trkpt lat="43.1972867" lon="2.3371333"><ele>121.0</ele><time>2026-04-26T03:15:48.729Z</time></trkpt><trkpt lat="43.1971267" lon="2.3370617"><ele>121.0</ele><time>2026-04-26T03:15:49.729Z</time></trkpt><trkpt lat="43.1969633" lon="2.3369783"><ele>121.0</ele><time>2026-04-26T03:15:50.728Z</time></trkpt><trkpt lat="43.1968033" lon="2.336895"><ele>121.0</ele><time>2026-04-26T03:15:51.727Z</time></trkpt><trkpt lat="43.1966417" lon="2.33681"><ele>123.33333333333334</ele><time>2026-04-26T03:15:52.728Z</time></trkpt><trkpt lat="43.1964783" lon="2.336735"><ele>125.66666666666666</ele><time>2026-04-26T03:15:53.727Z</time></trkpt><trkpt lat="43.1963117" lon="2.3366717"><ele>128.0</ele><time>2026-04-26T03:15:54.728Z</time></trkpt><trkpt lat="43.1961433" lon="2.3366167"><ele>128.0</ele><time>2026-04-26T03:15:55.728Z</time></trkpt><trkpt lat="43.1959717" lon="2.336575"><ele>128.0</ele><time>2026-04-26T03:15:56.728Z</time></trkpt><trkpt lat="43.1958" lon="2.3365433"><ele>128.0</ele><time>2026-04-26T03:15:57.728Z</time></trkpt><trkpt lat="43.195625" lon="2.3365167"><ele>128.66666666666666</ele><time>2026-04-26T03:15:58.728Z</time></trkpt><trkpt lat="43.1954533" lon="2.3364883"><ele>129.33333333333334</ele><time>2026-04-26T03:15:59.728Z</time></trkpt><trkpt lat="43.19528" lon="2.3364617"><ele>130.0</ele><time>2026-04-26T03:16:00.729Z</time></trkpt><trkpt lat="43.1951033" lon="2.3364367"><ele>130.0</ele><time>2026-04-26T03:16:01.728Z</time></trkpt><trkpt lat="43.19493" lon="2.336405"><ele>130.0</ele><time>2026-04-26T03:16:02.729Z</time></trkpt><trkpt lat="43.194755" lon="2.3363783"><ele>130.0</ele><time>2026-04-26T03:16:03.728Z</time></trkpt><trkpt lat="43.1945817" lon="2.336345"><ele>126.66666666666667</ele><time>2026-04-26T03:16:04.728Z</time></trkpt><trkpt lat="43.194445" lon="2.3362983"><ele>123.33333333333334</ele><time>2026-04-26T03:16:05.732Z</time></trkpt><trkpt lat="43.1942717" lon="2.33627"><ele>120.0</ele><time>2026-04-26T03:16:06.729Z</time></trkpt><trkpt lat="43.1941083" lon="2.3362633"><ele>119.33333333333334</ele><time>2026-04-26T03:16:07.729Z</time></trkpt><trkpt lat="43.1939317" lon="2.3362733"><ele>118.66666666666667</ele><time>2026-04-26T03:16:08.728Z</time></trkpt><trkpt lat="43.1937683" lon="2.3362633"><ele>118.0</ele><time>2026-04-26T03:16:09.73Z</time></trkpt><trkpt lat="43.1936" lon="2.336255"><ele>118.0</ele><time>2026-04-26T03:16:10.728Z</time></trkpt><trkpt lat="43.193435" lon="2.3362233"><ele>118.0</ele><time>2026-04-26T03:16:11.728Z</time></trkpt><trkpt lat="43.19327" lon="2.3361717"><ele>118.0</ele><time>2026-04-26T03:16:12.727Z</time></trkpt><trkpt lat="43.19311" lon="2.336095"><ele>119.0</ele><time>2026-04-26T03:16:13.727Z</time></trkpt><trkpt lat="43.192955" lon="2.3359933"><ele>120.0</ele><time>2026-04-26T03:16:14.728Z</time></trkpt><trkpt lat="43.1928083" lon="2.3358667"><ele>121.0</ele><time>2026-04-26T03:16:15.727Z</time></trkpt><trkpt lat="43.19267" lon="2.33573"><ele>121.0</ele><time>2026-04-26T03:16:16.728Z</time></trkpt><trkpt lat="43.192535" lon="2.3355833"><ele>121.0</ele><time>2026-04-26T03:16:17.728Z</time></trkpt><trkpt lat="43.192405" lon="2.3354333"><ele>121.0</ele><time>2026-04-26T03:16:18.729Z</time></trkpt><trkpt lat="43.1922817" lon="2.3352717"><ele>120.0</ele><time>2026-04-26T03:16:19.729Z</time></trkpt><trkpt lat="43.1921667" lon="2.3351033"><ele>119.0</ele><time>2026-04-26T03:16:20.732Z</time></trkpt><trkpt lat="43.1920633" lon="2.3349217"><ele>118.0</ele><time>2026-04-26T03:16:21.731Z</time></trkpt><trkpt lat="43.1919683" lon="2.3347317"><ele>117.66666666666667</ele><time>2026-04-26T03:16:22.731Z</time></trkpt><trkpt lat="43.1918833" lon="2.3345317"><ele>117.33333333333334</ele><time>2026-04-26T03:16:23.73Z</time></trkpt><trkpt lat="43.19181" lon="2.3343233"><ele>117.0</ele><time>2026-04-26T03:16:24.729Z</time></trkpt><trkpt lat="43.1917483" lon="2.33411"><ele>118.66666666666666</ele><time>2026-04-26T03:16:25.73Z</time></trkpt><trkpt lat="43.1917133" lon="2.333885"><ele>120.33333333333333</ele><time>2026-04-26T03:16:26.728Z</time></trkpt><trkpt lat="43.1916967" lon="2.3336567"><ele>122.0</ele><time>2026-04-26T03:16:27.728Z</time></trkpt><trkpt lat="43.1916933" lon="2.3334217"><ele>122.0</ele><time>2026-04-26T03:16:28.73Z</time></trkpt><trkpt lat="43.1916933" lon="2.3331917"><ele>122.0</ele><time>2026-04-26T03:16:29.728Z</time></trkpt><trkpt lat="43.191685" lon="2.3329667"><ele>122.0</ele><time>2026-04-26T03:16:30.729Z</time></trkpt><trkpt lat="43.1916583" lon="2.33274"><ele>121.0</ele><time>2026-04-26T03:16:31.729Z</time></trkpt><trkpt lat="43.1916133" lon="2.3325183"><ele>120.0</ele><time>2026-04-26T03:16:32.733Z</time></trkpt><trkpt lat="43.191545" lon="2.3323067"><ele>119.0</ele><time>2026-04-26T03:16:33.728Z</time></trkpt><trkpt lat="43.1914383" lon="2.3321233"><ele>117.33333333333333</ele><time>2026-04-26T03:16:34.73Z</time></trkpt><trkpt lat="43.1913133" lon="2.33197"><ele>115.66666666666666</ele><time>2026-04-26T03:16:35.728Z</time></trkpt><trkpt lat="43.1911633" lon="2.331855"><ele>114.0</ele><time>2026-04-26T03:16:36.731Z</time></trkpt><trkpt lat="43.191" lon="2.3317867"><ele>114.0</ele><time>2026-04-26T03:16:37.729Z</time></trkpt><trkpt lat="43.1908233" lon="2.3317567"><ele>114.0</ele><time>2026-04-26T03:16:38.728Z</time></trkpt><trkpt lat="43.1906433" lon="2.3317767"><ele>114.0</ele><time>2026-04-26T03:16:39.727Z</time></trkpt><trkpt lat="43.1904767" lon="2.3318317"><ele>114.33333333333334</ele><time>2026-04-26T03:16:40.728Z</time></trkpt><trkpt lat="43.1903167" lon="2.3319217"><ele>114.66666666666667</ele><time>2026-04-26T03:16:41.729Z</time></trkpt><trkpt lat="43.1901567" lon="2.3320233"><ele>115.0</ele><time>2026-04-26T03:16:42.727Z</time></trkpt><trkpt lat="43.19" lon="2.3321233"><ele>116.0</ele><time>2026-04-26T03:16:43.727Z</time></trkpt><trkpt lat="43.1898417" lon="2.3322067"><ele>117.0</ele><time>2026-04-26T03:16:44.729Z</time></trkpt><trkpt lat="43.1896783" lon="2.33227"><ele>118.0</ele><time>2026-04-26T03:16:45.727Z</time></trkpt><trkpt lat="43.1895117" lon="2.332315"><ele>120.0</ele><time>2026-04-26T03:16:46.727Z</time></trkpt><trkpt lat="43.189345" lon="2.3323283"><ele>122.0</ele><time>2026-04-26T03:16:47.728Z</time></trkpt><trkpt lat="43.1891783" lon="2.33231"><ele>124.0</ele><time>2026-04-26T03:16:48.728Z</time></trkpt><trkpt lat="43.1890117" lon="2.3322567"><ele>122.33333333333334</ele><time>2026-04-26T03:16:49.727Z</time></trkpt><trkpt lat="43.18885" lon="2.332175"><ele>120.66666666666666</ele><time>2026-04-26T03:16:50.728Z</time></trkpt><trkpt lat="43.188695" lon="2.3320683"><ele>119.0</ele><time>2026-04-26T03:16:51.728Z</time></trkpt><trkpt lat="43.188545" lon="2.33196"><ele>119.0</ele><time>2026-04-26T03:16:52.727Z</time></trkpt><trkpt lat="43.1883917" lon="2.3318567"><ele>119.0</ele><time>2026-04-26T03:16:53.729Z</time></trkpt><trkpt lat="43.18824" lon="2.3317467"><ele>119.0</ele><time>2026-04-26T03:16:54.728Z</time></trkpt><trkpt lat="43.1880933" lon="2.3316317"><ele>117.66666666666666</ele><time>2026-04-26T03:16:55.727Z</time></trkpt><trkpt lat="43.1879433" lon="2.3315167"><ele>116.33333333333334</ele><time>2026-04-26T03:16:56.73Z</time></trkpt><trkpt lat="43.1877917" lon="2.3314067"><ele>115.0</ele><time>2026-04-26T03:16:57.729Z</time></trkpt><trkpt lat="43.1876417" lon="2.3312783"><ele>115.0</ele><time>2026-04-26T03:16:58.728Z</time></trkpt><trkpt lat="43.1874867" lon="2.331165"><ele>115.0</ele><time>2026-04-26T03:16:59.727Z</time></trkpt><trkpt lat="43.1873483" lon="2.3310483"><ele>115.0</ele><time>2026-04-26T03:17:00.729Z</time></trkpt><trkpt lat="43.1872083" lon="2.3309167"><ele>115.0</ele><time>2026-04-26T03:17:01.729Z</time></trkpt><trkpt lat="43.1870667" lon="2.330775"><ele>115.0</ele><time>2026-04-26T03:17:02.73Z</time></trkpt><trkpt lat="43.1869317" lon="2.3306517"><ele>115.0</ele><time>2026-04-26T03:17:03.728Z</time></trkpt><trkpt lat="43.1867983" lon="2.3305017"><ele>115.0</ele><time>2026-04-26T03:17:04.728Z</time></trkpt><trkpt lat="43.1866667" lon="2.3303583"><ele>115.0</ele><time>2026-04-26T03:17:05.726Z</time></trkpt><trkpt lat="43.18652" lon="2.3302067"><ele>115.0</ele><time>2026-04-26T03:17:06.727Z</time></trkpt><trkpt lat="43.1863817" lon="2.3300617"><ele>114.33333333333334</ele><time>2026-04-26T03:17:07.727Z</time></trkpt><trkpt lat="43.1862433" lon="2.3299233"><ele>113.66666666666666</ele><time>2026-04-26T03:17:08.728Z</time></trkpt><trkpt lat="43.1861067" lon="2.3297917"><ele>113.0</ele><time>2026-04-26T03:17:09.728Z</time></trkpt><trkpt lat="43.1859617" lon="2.3296717"><ele>113.0</ele><time>2026-04-26T03:17:10.728Z</time></trkpt><trkpt lat="43.185815" lon="2.3295567"><ele>113.0</ele><time>2026-04-26T03:17:11.727Z</time></trkpt><trkpt lat="43.1856617" lon="2.3294383"><ele>113.0</ele><time>2026-04-26T03:17:12.727Z</time></trkpt><trkpt lat="43.18551" lon="2.3293233"><ele>113.66666666666666</ele><time>2026-04-26T03:17:13.728Z</time></trkpt><trkpt lat="43.18536" lon="2.3292033"><ele>114.33333333333334</ele><time>2026-04-26T03:17:14.728Z</time></trkpt><trkpt lat="43.1852067" lon="2.3290783"><ele>115.0</ele><time>2026-04-26T03:17:15.726Z</time></trkpt><trkpt lat="43.1850567" lon="2.3289567"><ele>115.0</ele><time>2026-04-26T03:17:16.728Z</time></trkpt><trkpt lat="43.1849033" lon="2.3288467"><ele>115.0</ele><time>2026-04-26T03:17:17.728Z</time></trkpt><trkpt lat="43.1847467" lon="2.3287417"><ele>115.0</ele><time>2026-04-26T03:17:18.731Z</time></trkpt><trkpt lat="43.1845883" lon="2.32864"><ele>115.0</ele><time>2026-04-26T03:17:19.728Z</time></trkpt><trkpt lat="43.18443" lon="2.3285417"><ele>115.0</ele><time>2026-04-26T03:17:20.729Z</time></trkpt><trkpt lat="43.1842733" lon="2.3284483"><ele>115.0</ele><time>2026-04-26T03:17:21.728Z</time></trkpt><trkpt lat="43.1841183" lon="2.3283633"><ele>115.33333333333334</ele><time>2026-04-26T03:17:22.728Z</time></trkpt><trkpt lat="43.18396" lon="2.3282767"><ele>115.66666666666666</ele><time>2026-04-26T03:17:23.729Z</time></trkpt><trkpt lat="43.1838067" lon="2.328195"><ele>116.0</ele><time>2026-04-26T03:17:24.731Z</time></trkpt><trkpt lat="43.1836567" lon="2.3281133"><ele>115.33333333333333</ele><time>2026-04-26T03:17:25.731Z</time></trkpt><trkpt lat="43.183505" lon="2.3280317"><ele>114.66666666666666</ele><time>2026-04-26T03:17:26.729Z</time></trkpt><trkpt lat="43.18335" lon="2.3279483"><ele>114.0</ele><time>2026-04-26T03:17:27.728Z</time></trkpt><trkpt lat="43.1831933" lon="2.3278667"><ele>115.0</ele><time>2026-04-26T03:17:28.729Z</time></trkpt><trkpt lat="43.1830367" lon="2.327785"><ele>116.0</ele><time>2026-04-26T03:17:29.727Z</time></trkpt><trkpt lat="43.18288" lon="2.3277"><ele>117.0</ele><time>2026-04-26T03:17:30.727Z</time></trkpt><trkpt lat="43.1827233" lon="2.327615"><ele>117.0</ele><time>2026-04-26T03:17:31.728Z</time></trkpt><trkpt lat="43.182565" lon="2.32753"><ele>117.0</ele><time>2026-04-26T03:17:32.732Z</time></trkpt><trkpt lat="43.1824083" lon="2.3274433"><ele>117.0</ele><time>2026-04-26T03:17:33.731Z</time></trkpt><trkpt lat="43.1822517" lon="2.3273533"><ele>117.66666666666666</ele><time>2026-04-26T03:17:34.729Z</time></trkpt><trkpt lat="43.1820967" lon="2.32727"><ele>118.33333333333333</ele><time>2026-04-26T03:17:35.727Z</time></trkpt><trkpt lat="43.1819367" lon="2.3271867"><ele>119.0</ele><time>2026-04-26T03:17:36.729Z</time></trkpt><trkpt lat="43.1817783" lon="2.3271083"><ele>119.0</ele><time>2026-04-26T03:17:37.727Z</time></trkpt><trkpt lat="43.1816217" lon="2.3270267"><ele>119.0</ele><time>2026-04-26T03:17:38.728Z</time></trkpt><trkpt lat="43.18147" lon="2.326945"><ele>119.0</ele><time>2026-04-26T03:17:39.728Z</time></trkpt><trkpt lat="43.1813217" lon="2.3268633"><ele>119.0</ele><time>2026-04-26T03:17:40.728Z</time></trkpt><trkpt lat="43.1811817" lon="2.3267833"><ele>119.0</ele><time>2026-04-26T03:17:41.728Z</time></trkpt><trkpt lat="43.1810483" lon="2.3267067"><ele>119.0</ele><time>2026-04-26T03:17:42.729Z</time></trkpt><trkpt lat="43.180925" lon="2.32664"><ele>119.0</ele><time>2026-04-26T03:17:43.727Z</time></trkpt><trkpt lat="43.1808133" lon="2.32658"><ele>118.99999999999999</ele><time>2026-04-26T03:17:44.728Z</time></trkpt><trkpt lat="43.180715" lon="2.3265283"><ele>119.0</ele><time>2026-04-26T03:17:45.728Z</time></trkpt><trkpt lat="43.18063" lon="2.3264833"><ele>119.0</ele><time>2026-04-26T03:17:46.729Z</time></trkpt><trkpt lat="43.1805567" lon="2.326445"><ele>119.0</ele><time>2026-04-26T03:17:47.735Z</time></trkpt><trkpt lat="43.1804917" lon="2.3264283"><ele>118.99999999999999</ele><time>2026-04-26T03:17:48.731Z</time></trkpt><trkpt lat="43.1804067" lon="2.3264767"><ele>119.0</ele><time>2026-04-26T03:17:50.728Z</time></trkpt><trkpt lat="43.1803567" lon="2.32653"><ele>120.2</ele><time>2026-04-26T03:17:52.728Z</time></trkpt><trkpt lat="43.1803217" lon="2.3266267"><ele>121.4</ele><time>2026-04-26T03:18:34.726Z</time></trkpt><trkpt lat="43.1803033" lon="2.3267733"><ele>122.6</ele><time>2026-04-26T03:18:36.728Z</time></trkpt><trkpt lat="43.1803183" lon="2.32696"><ele>123.8</ele><time>2026-04-26T03:18:38.728Z</time></trkpt><trkpt lat="43.1803317" lon="2.3270617"><ele>125.0</ele><time>2026-04-26T03:18:39.729Z</time></trkpt><trkpt lat="43.18037" lon="2.3271633"><ele>125.4</ele><time>2026-04-26T03:18:40.727Z</time></trkpt><trkpt lat="43.1804233" lon="2.3272567"><ele>125.8</ele><time>2026-04-26T03:18:41.727Z</time></trkpt><trkpt lat="43.18048" lon="2.32735"><ele>126.19999999999999</ele><time>2026-04-26T03:18:42.728Z</time></trkpt><trkpt lat="43.18054" lon="2.327445"><ele>126.6</ele><time>2026-04-26T03:18:43.729Z</time></trkpt><trkpt lat="43.1806033" lon="2.3275467"><ele>127.0</ele><time>2026-04-26T03:18:44.727Z</time></trkpt><trkpt lat="43.1806617" lon="2.3276517"><ele>126.0</ele><time>2026-04-26T03:18:45.728Z</time></trkpt><trkpt lat="43.180715" lon="2.3277633"><ele>124.99999999999999</ele><time>2026-04-26T03:18:46.728Z</time></trkpt><trkpt lat="43.1807633" lon="2.3278767"><ele>123.99999999999999</ele><time>2026-04-26T03:18:47.728Z</time></trkpt><trkpt lat="43.1808133" lon="2.3279983"><ele>123.0</ele><time>2026-04-26T03:18:48.728Z</time></trkpt><trkpt lat="43.1808617" lon="2.3281317"><ele>122.0</ele><time>2026-04-26T03:18:49.728Z</time></trkpt><trkpt lat="43.1809133" lon="2.32827"><ele>122.0</ele><time>2026-04-26T03:18:50.73Z</time></trkpt><trkpt lat="43.180955" lon="2.3284117"><ele>122.0</ele><time>2026-04-26T03:18:51.728Z</time></trkpt><trkpt lat="43.1809933" lon="2.328555"><ele>122.0</ele><time>2026-04-26T03:18:52.728Z</time></trkpt><trkpt lat="43.1810367" lon="2.328705"><ele>122.0</ele><time>2026-04-26T03:18:53.727Z</time></trkpt><trkpt lat="43.1810833" lon="2.32885"><ele>121.66666666666666</ele><time>2026-04-26T03:18:54.73Z</time></trkpt><trkpt lat="43.18113" lon="2.32898"><ele>121.33333333333333</ele><time>2026-04-26T03:18:55.727Z</time></trkpt><trkpt lat="43.1811667" lon="2.3290983"><ele>121.0</ele><time>2026-04-26T03:18:56.728Z</time></trkpt><trkpt lat="43.1812" lon="2.3292017"><ele>120.66666666666666</ele><time>2026-04-26T03:18:57.728Z</time></trkpt><trkpt lat="43.1812317" lon="2.329295"><ele>120.33333333333333</ele><time>2026-04-26T03:18:58.727Z</time></trkpt><trkpt lat="43.181265" lon="2.3293867"><ele>120.0</ele><time>2026-04-26T03:18:59.728Z</time></trkpt><trkpt lat="43.1812983" lon="2.3294883"><ele>120.0</ele><time>2026-04-26T03:19:00.728Z</time></trkpt><trkpt lat="43.1813317" lon="2.3295983"><ele>120.0</ele><time>2026-04-26T03:19:01.729Z</time></trkpt><trkpt lat="43.18137" lon="2.3297033"><ele>120.0</ele><time>2026-04-26T03:19:02.727Z</time></trkpt><trkpt lat="43.1814133" lon="2.3297933"><ele>120.0</ele><time>2026-04-26T03:19:03.728Z</time></trkpt><trkpt lat="43.181455" lon="2.3298767"><ele>120.0</ele><time>2026-04-26T03:19:04.729Z</time></trkpt><trkpt lat="43.1814867" lon="2.32996"><ele>120.0</ele><time>2026-04-26T03:19:05.728Z</time></trkpt><trkpt lat="43.1815117" lon="2.330095"><ele>119.66666666666667</ele><time>2026-04-26T03:19:07.727Z</time></trkpt><trkpt lat="43.181455" lon="2.3301683"><ele>119.33333333333334</ele><time>2026-04-26T03:19:10.728Z</time></trkpt><trkpt lat="43.181395" lon="2.3301383"><ele>119.0</ele><time>2026-04-26T03:19:21.727Z</time></trkpt><trkpt lat="43.181295" lon="2.3301117"><ele>118.66666666666667</ele><time>2026-04-26T03:19:23.728Z</time></trkpt><trkpt lat="43.18122" lon="2.3300883"><ele>118.33333333333334</ele><time>2026-04-26T03:19:24.729Z</time></trkpt><trkpt lat="43.18114" lon="2.3300633"><ele>118.0</ele><time>2026-04-26T03:19:25.727Z</time></trkpt><trkpt lat="43.1810483" lon="2.3300383"><ele>118.0</ele><time>2026-04-26T03:19:26.728Z</time></trkpt><trkpt lat="43.1809483" lon="2.33001"><ele>118.00000000000001</ele><time>2026-04-26T03:19:27.726Z</time></trkpt><trkpt lat="43.1808433" lon="2.32998"><ele>118.00000000000001</ele><time>2026-04-26T03:19:28.728Z</time></trkpt><trkpt lat="43.1807333" lon="2.3299483"><ele>118.0</ele><time>2026-04-26T03:19:29.729Z</time></trkpt><trkpt lat="43.1806233" lon="2.3299167"><ele>118.0</ele><time>2026-04-26T03:19:30.729Z</time></trkpt><trkpt lat="43.180515" lon="2.329885"><ele>118.4</ele><time>2026-04-26T03:19:31.732Z</time></trkpt><trkpt lat="43.1804067" lon="2.329855"><ele>118.80000000000001</ele><time>2026-04-26T03:19:32.731Z</time></trkpt><trkpt lat="43.1802983" lon="2.329825"><ele>119.2</ele><time>2026-04-26T03:19:33.729Z</time></trkpt><trkpt lat="43.18019" lon="2.32979"><ele>119.6</ele><time>2026-04-26T03:19:34.727Z</time></trkpt><trkpt lat="43.1800867" lon="2.3297467"><ele>120.0</ele><time>2026-04-26T03:19:35.727Z</time></trkpt><trkpt lat="43.1799883" lon="2.3296983"><ele>120.8</ele><time>2026-04-26T03:19:36.728Z</time></trkpt><trkpt lat="43.17989" lon="2.3296467"><ele>121.6</ele><time>2026-04-26T03:19:37.73Z</time></trkpt><trkpt lat="43.179795" lon="2.3295933"><ele>122.4</ele><time>2026-04-26T03:19:38.728Z</time></trkpt><trkpt lat="43.1797017" lon="2.3295367"><ele>123.2</ele><time>2026-04-26T03:19:39.728Z</time></trkpt><trkpt lat="43.1796083" lon="2.3294767"><ele>124.0</ele><time>2026-04-26T03:19:40.73Z</time></trkpt><trkpt lat="43.1795183" lon="2.3294133"><ele>124.83333333333334</ele><time>2026-04-26T03:19:41.728Z</time></trkpt><trkpt lat="43.1794333" lon="2.3293517"><ele>125.66666666666667</ele><time>2026-04-26T03:19:42.73Z</time></trkpt><trkpt lat="43.17935" lon="2.32929"><ele>126.5</ele><time>2026-04-26T03:19:43.729Z</time></trkpt><trkpt lat="43.1792683" lon="2.32924"><ele>127.33333333333334</ele><time>2026-04-26T03:19:44.729Z</time></trkpt><trkpt lat="43.17919" lon="2.3292033"><ele>128.16666666666666</ele><time>2026-04-26T03:19:45.728Z</time></trkpt><trkpt lat="43.1791183" lon="2.3291767"><ele>129.0</ele><time>2026-04-26T03:19:46.728Z</time></trkpt><trkpt lat="43.1790517" lon="2.3291517"><ele>130.16666666666666</ele><time>2026-04-26T03:19:47.727Z</time></trkpt><trkpt lat="43.1789783" lon="2.32912"><ele>131.33333333333334</ele><time>2026-04-26T03:19:48.727Z</time></trkpt><trkpt lat="43.1788967" lon="2.3290767"><ele>132.5</ele><time>2026-04-26T03:19:49.729Z</time></trkpt><trkpt lat="43.1788117" lon="2.3290283"><ele>133.66666666666669</ele><time>2026-04-26T03:19:50.73Z</time></trkpt><trkpt lat="43.1787267" lon="2.3289817"><ele>134.83333333333334</ele><time>2026-04-26T03:19:51.728Z</time></trkpt><trkpt lat="43.1786467" lon="2.3289417"><ele>136.0</ele><time>2026-04-26T03:19:52.728Z</time></trkpt><trkpt lat="43.178565" lon="2.3289117"><ele>135.83333333333334</ele><time>2026-04-26T03:19:53.728Z</time></trkpt><trkpt lat="43.178485" lon="2.3288883"><ele>135.66666666666669</ele><time>2026-04-26T03:19:54.728Z</time></trkpt><trkpt lat="43.1784133" lon="2.32887"><ele>135.5</ele><time>2026-04-26T03:19:55.727Z</time></trkpt><trkpt lat="43.17834" lon="2.3288567"><ele>135.33333333333334</ele><time>2026-04-26T03:19:56.728Z</time></trkpt><trkpt lat="43.17826" lon="2.3288383"><ele>135.16666666666666</ele><time>2026-04-26T03:19:57.727Z</time></trkpt><trkpt lat="43.1781717" lon="2.3288117"><ele>135.0</ele><time>2026-04-26T03:19:58.727Z</time></trkpt><trkpt lat="43.17808" lon="2.32878"><ele>135.6</ele><time>2026-04-26T03:19:59.727Z</time></trkpt><trkpt lat="43.1779917" lon="2.3287417"><ele>136.2</ele><time>2026-04-26T03:20:00.727Z</time></trkpt><trkpt lat="43.1779033" lon="2.3287033"><ele>136.8</ele><time>2026-04-26T03:20:01.728Z</time></trkpt><trkpt lat="43.1778133" lon="2.328665"><ele>137.4</ele><time>2026-04-26T03:20:02.729Z</time></trkpt><trkpt lat="43.1777233" lon="2.3286233"><ele>138.0</ele><time>2026-04-26T03:20:03.726Z</time></trkpt><trkpt lat="43.1776367" lon="2.328585"><ele>138.0</ele><time>2026-04-26T03:20:04.728Z</time></trkpt><trkpt lat="43.1775617" lon="2.3285517"><ele>138.0</ele><time>2026-04-26T03:20:05.727Z</time></trkpt><trkpt lat="43.1774933" lon="2.3285217"><ele>138.0</ele><time>2026-04-26T03:20:06.728Z</time></trkpt><trkpt lat="43.17743" lon="2.3284917"><ele>138.0</ele><time>2026-04-26T03:20:07.73Z</time></trkpt><trkpt lat="43.17733" lon="2.3284467"><ele>138.0</ele><time>2026-04-26T03:20:09.727Z</time></trkpt><trkpt lat="43.1772633" lon="2.3284667"><ele>138.0</ele><time>2026-04-26T03:20:11.726Z</time></trkpt><trkpt lat="43.1772167" lon="2.3285717"><ele>137.8</ele><time>2026-04-26T03:20:13.728Z</time></trkpt><trkpt lat="43.1772067" lon="2.3286733"><ele>137.60000000000002</ele><time>2026-04-26T03:20:14.728Z</time></trkpt><trkpt lat="43.177195" lon="2.32879"><ele>137.39999999999998</ele><time>2026-04-26T03:20:15.731Z</time></trkpt><trkpt lat="43.17718" lon="2.3289133"><ele>137.2</ele><time>2026-04-26T03:20:16.727Z</time></trkpt><trkpt lat="43.1771533" lon="2.32905"><ele>137.0</ele><time>2026-04-26T03:20:17.726Z</time></trkpt><trkpt lat="43.177125" lon="2.3291917"><ele>137.5</ele><time>2026-04-26T03:20:18.728Z</time></trkpt><trkpt lat="43.1770933" lon="2.3293467"><ele>138.0</ele><time>2026-04-26T03:20:19.727Z</time></trkpt><trkpt lat="43.1770633" lon="2.3295017"><ele>138.5</ele><time>2026-04-26T03:20:20.728Z</time></trkpt><trkpt lat="43.177035" lon="2.329655"><ele>139.0</ele><time>2026-04-26T03:20:21.727Z</time></trkpt><trkpt lat="43.177005" lon="2.3298133"><ele>139.25</ele><time>2026-04-26T03:20:22.728Z</time></trkpt><trkpt lat="43.176975" lon="2.3299767"><ele>139.5</ele><time>2026-04-26T03:20:23.728Z</time></trkpt><trkpt lat="43.1769467" lon="2.3301417"><ele>139.75</ele><time>2026-04-26T03:20:24.73Z</time></trkpt><trkpt lat="43.1769183" lon="2.330305"><ele>140.0</ele><time>2026-04-26T03:20:25.727Z</time></trkpt><trkpt lat="43.1768867" lon="2.33047"><ele>140.5</ele><time>2026-04-26T03:20:26.728Z</time></trkpt><trkpt lat="43.1768567" lon="2.3306367"><ele>141.0</ele><time>2026-04-26T03:20:27.727Z</time></trkpt><trkpt lat="43.1768267" lon="2.3308067"><ele>141.5</ele><time>2026-04-26T03:20:28.727Z</time></trkpt><trkpt lat="43.1767967" lon="2.330975"><ele>142.0</ele><time>2026-04-26T03:20:29.727Z</time></trkpt><trkpt lat="43.1767667" lon="2.331145"><ele>142.0</ele><time>2026-04-26T03:20:30.728Z</time></trkpt><trkpt lat="43.176735" lon="2.331315"><ele>142.0</ele><time>2026-04-26T03:20:31.727Z</time></trkpt><trkpt lat="43.176705" lon="2.3314883"><ele>142.0</ele><time>2026-04-26T03:20:32.731Z</time></trkpt><trkpt lat="43.1766733" lon="2.331665"><ele>142.0</ele><time>2026-04-26T03:20:33.727Z</time></trkpt><trkpt lat="43.1766467" lon="2.331845"><ele>142.5</ele><time>2026-04-26T03:20:34.728Z</time></trkpt><trkpt lat="43.1766183" lon="2.33203"><ele>143.0</ele><time>2026-04-26T03:20:35.727Z</time></trkpt><trkpt lat="43.1765917" lon="2.3322117"><ele>143.5</ele><time>2026-04-26T03:20:36.727Z</time></trkpt><trkpt lat="43.1765717" lon="2.3323817"><ele>144.0</ele><time>2026-04-26T03:20:37.728Z</time></trkpt><trkpt lat="43.176555" lon="2.3325383"><ele>144.5</ele><time>2026-04-26T03:20:38.728Z</time></trkpt><trkpt lat="43.17654" lon="2.3326717"><ele>145.0</ele><time>2026-04-26T03:20:39.728Z</time></trkpt><trkpt lat="43.1765267" lon="2.332785"><ele>145.5</ele><time>2026-04-26T03:20:40.729Z</time></trkpt><trkpt lat="43.1765067" lon="2.3328833"><ele>146.0</ele><time>2026-04-26T03:20:41.727Z</time></trkpt><trkpt lat="43.17648" lon="2.33298"><ele>146.5</ele><time>2026-04-26T03:20:42.729Z</time></trkpt><trkpt lat="43.17645" lon="2.3330817"><ele>147.0</ele><time>2026-04-26T03:20:43.727Z</time></trkpt><trkpt lat="43.1764167" lon="2.3331983"><ele>147.6</ele><time>2026-04-26T03:20:44.729Z</time></trkpt><trkpt lat="43.1763833" lon="2.3333183"><ele>148.2</ele><time>2026-04-26T03:20:45.732Z</time></trkpt><trkpt lat="43.1763467" lon="2.333445"><ele>148.8</ele><time>2026-04-26T03:20:46.73Z</time></trkpt><trkpt lat="43.1763067" lon="2.3335817"><ele>149.4</ele><time>2026-04-26T03:20:47.727Z</time></trkpt><trkpt lat="43.17626" lon="2.3337333"><ele>150.0</ele><time>2026-04-26T03:20:48.728Z</time></trkpt><trkpt lat="43.1762133" lon="2.33388"><ele>150.2</ele><time>2026-04-26T03:20:49.726Z</time></trkpt><trkpt lat="43.1761683" lon="2.334015"><ele>150.4</ele><time>2026-04-26T03:20:50.729Z</time></trkpt><trkpt lat="43.1761267" lon="2.33414"><ele>150.6</ele><time>2026-04-26T03:20:51.726Z</time></trkpt><trkpt lat="43.1760867" lon="2.3342583"><ele>150.8</ele><time>2026-04-26T03:20:52.727Z</time></trkpt><trkpt lat="43.1760467" lon="2.334375"><ele>151.0</ele><time>2026-04-26T03:20:53.728Z</time></trkpt><trkpt lat="43.1760033" lon="2.3344917"><ele>151.0</ele><time>2026-04-26T03:20:54.728Z</time></trkpt><trkpt lat="43.1759617" lon="2.33461"><ele>151.0</ele><time>2026-04-26T03:20:55.73Z</time></trkpt><trkpt lat="43.17592" lon="2.33472"><ele>151.0</ele><time>2026-04-26T03:20:56.73Z</time></trkpt><trkpt lat="43.17588" lon="2.3348183"><ele>151.0</ele><time>2026-04-26T03:20:57.728Z</time></trkpt><trkpt lat="43.1758383" lon="2.33491"><ele>151.0</ele><time>2026-04-26T03:20:58.728Z</time></trkpt><trkpt lat="43.1757983" lon="2.3350033"><ele>151.0</ele><time>2026-04-26T03:20:59.727Z</time></trkpt><trkpt lat="43.17576" lon="2.3351017"><ele>151.0</ele><time>2026-04-26T03:21:00.727Z</time></trkpt><trkpt lat="43.175725" lon="2.3352"><ele>151.0</ele><time>2026-04-26T03:21:01.729Z</time></trkpt><trkpt lat="43.1756917" lon="2.33528"><ele>151.0</ele><time>2026-04-26T03:21:02.728Z</time></trkpt><trkpt lat="43.1756383" lon="2.3354067"><ele>151.0</ele><time>2026-04-26T03:21:04.728Z</time></trkpt><trkpt lat="43.1756467" lon="2.3355233"><ele>151.0</ele><time>2026-04-26T03:21:06.728Z</time></trkpt><trkpt lat="43.175685" lon="2.335645"><ele>151.0</ele><time>2026-04-26T03:21:08.73Z</time></trkpt><trkpt lat="43.17568" lon="2.3358217"><ele>151.66666666666669</ele><time>2026-04-26T03:21:10.727Z</time></trkpt><trkpt lat="43.1756583" lon="2.3359317"><ele>152.33333333333334</ele><time>2026-04-26T03:21:12.727Z</time></trkpt><trkpt lat="43.1755883" lon="2.3359533"><ele>153.0</ele><time>2026-04-26T03:21:14.729Z</time></trkpt><trkpt lat="43.17552" lon="2.3359133"><ele>153.66666666666666</ele><time>2026-04-26T03:21:15.727Z</time></trkpt><trkpt lat="43.1754433" lon="2.335845"><ele>154.33333333333331</ele><time>2026-04-26T03:21:16.728Z</time></trkpt><trkpt lat="43.1753567" lon="2.3357667"><ele>155.0</ele><time>2026-04-26T03:21:17.728Z</time></trkpt><trkpt lat="43.1752667" lon="2.3356883"><ele>155.0</ele><time>2026-04-26T03:21:18.728Z</time></trkpt><trkpt lat="43.175175" lon="2.3356117"><ele>155.0</ele><time>2026-04-26T03:21:19.731Z</time></trkpt><trkpt lat="43.1750867" lon="2.3355383"><ele>155.0</ele><time>2026-04-26T03:21:20.727Z</time></trkpt><trkpt lat="43.175" lon="2.3354683"><ele>155.0</ele><time>2026-04-26T03:21:21.728Z</time></trkpt><trkpt lat="43.174915" lon="2.3353933"><ele>155.0</ele><time>2026-04-26T03:21:22.727Z</time></trkpt><trkpt lat="43.1748267" lon="2.3353117"><ele>153.5</ele><time>2026-04-26T03:21:23.728Z</time></trkpt><trkpt lat="43.1747333" lon="2.3352217"><ele>152.0</ele><time>2026-04-26T03:21:24.728Z</time></trkpt><trkpt lat="43.174635" lon="2.3351283"><ele>150.5</ele><time>2026-04-26T03:21:25.728Z</time></trkpt><trkpt lat="43.174535" lon="2.33504"><ele>149.0</ele><time>2026-04-26T03:21:26.727Z</time></trkpt><trkpt lat="43.17444" lon="2.3349483"><ele>149.0</ele><time>2026-04-26T03:21:27.729Z</time></trkpt><trkpt lat="43.174345" lon="2.3348567"><ele>149.0</ele><time>2026-04-26T03:21:28.732Z</time></trkpt><trkpt lat="43.1742533" lon="2.33477"><ele>149.0</ele><time>2026-04-26T03:21:29.728Z</time></trkpt><trkpt lat="43.17416" lon="2.3346883"><ele>149.0</ele><time>2026-04-26T03:21:30.727Z</time></trkpt><trkpt lat="43.1740583" lon="2.334615"><ele>149.0</ele><time>2026-04-26T03:21:31.729Z</time></trkpt><trkpt lat="43.1739517" lon="2.3345533"><ele>149.0</ele><time>2026-04-26T03:21:32.73Z</time></trkpt><trkpt lat="43.1738467" lon="2.3345017"><ele>149.0</ele><time>2026-04-26T03:21:33.727Z</time></trkpt><trkpt lat="43.17376" lon="2.3344683"><ele>149.0</ele><time>2026-04-26T03:21:34.727Z</time></trkpt><trkpt lat="43.1736617" lon="2.3344517"><ele>149.0</ele><time>2026-04-26T03:21:35.727Z</time></trkpt><trkpt lat="43.1735617" lon="2.3344217"><ele>149.0</ele><time>2026-04-26T03:21:36.727Z</time></trkpt><trkpt lat="43.173455" lon="2.334385"><ele>149.0</ele><time>2026-04-26T03:21:37.727Z</time></trkpt><trkpt lat="43.1733483" lon="2.33434"><ele>149.0</ele><time>2026-04-26T03:21:38.729Z</time></trkpt><trkpt lat="43.1732433" lon="2.3342967"><ele>149.0</ele><time>2026-04-26T03:21:39.727Z</time></trkpt><trkpt lat="43.173145" lon="2.3342367"><ele>149.0</ele><time>2026-04-26T03:21:40.728Z</time></trkpt><trkpt lat="43.1730467" lon="2.334175"><ele>149.4</ele><time>2026-04-26T03:21:41.73Z</time></trkpt><trkpt lat="43.17296" lon="2.33411"><ele>149.8</ele><time>2026-04-26T03:21:42.727Z</time></trkpt><trkpt lat="43.1728717" lon="2.3340467"><ele>150.2</ele><time>2026-04-26T03:21:43.728Z</time></trkpt><trkpt lat="43.1727783" lon="2.33397"><ele>150.6</ele><time>2026-04-26T03:21:44.728Z</time></trkpt><trkpt lat="43.1726917" lon="2.33388"><ele>151.0</ele><time>2026-04-26T03:21:45.727Z</time></trkpt><trkpt lat="43.1726067" lon="2.3337833"><ele>151.0</ele><time>2026-04-26T03:21:46.728Z</time></trkpt><trkpt lat="43.1725233" lon="2.3336767"><ele>151.0</ele><time>2026-04-26T03:21:47.727Z</time></trkpt><trkpt lat="43.1724333" lon="2.3335617"><ele>151.0</ele><time>2026-04-26T03:21:48.729Z</time></trkpt><trkpt lat="43.172345" lon="2.3334433"><ele>151.0</ele><time>2026-04-26T03:21:49.732Z</time></trkpt><trkpt lat="43.1722567" lon="2.33333"><ele>152.4</ele><time>2026-04-26T03:21:50.727Z</time></trkpt><trkpt lat="43.17217" lon="2.333225"><ele>153.8</ele><time>2026-04-26T03:21:51.729Z</time></trkpt><trkpt lat="43.172095" lon="2.3331317"><ele>155.20000000000002</ele><time>2026-04-26T03:21:52.728Z</time></trkpt><trkpt lat="43.17203" lon="2.3330483"><ele>156.6</ele><time>2026-04-26T03:21:53.727Z</time></trkpt><trkpt lat="43.17198" lon="2.33298"><ele>158.0</ele><time>2026-04-26T03:21:54.728Z</time></trkpt><trkpt lat="43.1719083" lon="2.3329067"><ele>158.0</ele><time>2026-04-26T03:21:56.728Z</time></trkpt><trkpt lat="43.1718383" lon="2.3330083"><ele>158.0</ele><time>2026-04-26T03:21:59.729Z</time></trkpt><trkpt lat="43.17182" lon="2.3331183"><ele>158.0</ele><time>2026-04-26T03:22:00.728Z</time></trkpt><trkpt lat="43.1717883" lon="2.3332317"><ele>158.0</ele><time>2026-04-26T03:22:01.729Z</time></trkpt><trkpt lat="43.171765" lon="2.333365"><ele>158.0</ele><time>2026-04-26T03:22:02.728Z</time></trkpt><trkpt lat="43.1717417" lon="2.3335133"><ele>158.0</ele><time>2026-04-26T03:22:03.728Z</time></trkpt><trkpt lat="43.1717117" lon="2.3336633"><ele>158.0</ele><time>2026-04-26T03:22:04.728Z</time></trkpt><trkpt lat="43.1716833" lon="2.3338267"><ele>158.0</ele><time>2026-04-26T03:22:05.728Z</time></trkpt><trkpt lat="43.1716567" lon="2.3340017"><ele>158.0</ele><time>2026-04-26T03:22:06.728Z</time></trkpt><trkpt lat="43.17164" lon="2.33418"><ele>157.25</ele><time>2026-04-26T03:22:07.728Z</time></trkpt><trkpt lat="43.1716217" lon="2.3343683"><ele>156.5</ele><time>2026-04-26T03:22:08.729Z</time></trkpt><trkpt lat="43.1715983" lon="2.334565"><ele>155.75</ele><time>2026-04-26T03:22:09.729Z</time></trkpt><trkpt lat="43.17157" lon="2.334765"><ele>155.0</ele><time>2026-04-26T03:22:10.727Z</time></trkpt><trkpt lat="43.1715383" lon="2.334955"><ele>154.0</ele><time>2026-04-26T03:22:11.731Z</time></trkpt><trkpt lat="43.1715083" lon="2.3351517"><ele>153.0</ele><time>2026-04-26T03:22:12.728Z</time></trkpt><trkpt lat="43.171475" lon="2.3353433"><ele>152.0</ele><time>2026-04-26T03:22:13.728Z</time></trkpt><trkpt lat="43.1714483" lon="2.3355317"><ele>151.0</ele><time>2026-04-26T03:22:14.729Z</time></trkpt><trkpt lat="43.1714167" lon="2.335715"><ele>150.75</ele><time>2026-04-26T03:22:15.728Z</time></trkpt><trkpt lat="43.17138" lon="2.3358917"><ele>150.5</ele><time>2026-04-26T03:22:16.727Z</time></trkpt><trkpt lat="43.171345" lon="2.336065"><ele>150.25</ele><time>2026-04-26T03:22:17.731Z</time></trkpt><trkpt lat="43.1713117" lon="2.3362367"><ele>150.0</ele><time>2026-04-26T03:22:18.73Z</time></trkpt><trkpt lat="43.1712867" lon="2.3364117"><ele>150.0</ele><time>2026-04-26T03:22:19.731Z</time></trkpt><trkpt lat="43.1712717" lon="2.336585"><ele>150.0</ele><time>2026-04-26T03:22:20.731Z</time></trkpt><trkpt lat="43.1712617" lon="2.3367567"><ele>150.0</ele><time>2026-04-26T03:22:21.728Z</time></trkpt><trkpt lat="43.1712667" lon="2.336935"><ele>150.0</ele><time>2026-04-26T03:22:22.728Z</time></trkpt><trkpt lat="43.1712783" lon="2.3371033"><ele>150.25</ele><time>2026-04-26T03:22:23.729Z</time></trkpt><trkpt lat="43.1712883" lon="2.337265"><ele>150.5</ele><time>2026-04-26T03:22:24.728Z</time></trkpt><trkpt lat="43.17129" lon="2.3374283"><ele>150.75</ele><time>2026-04-26T03:22:25.727Z</time></trkpt><trkpt lat="43.1712783" lon="2.3376"><ele>151.0</ele><time>2026-04-26T03:22:26.728Z</time></trkpt><trkpt lat="43.171265" lon="2.3377817"><ele>151.0</ele><time>2026-04-26T03:22:27.729Z</time></trkpt><trkpt lat="43.1712517" lon="2.337965"><ele>151.0</ele><time>2026-04-26T03:22:28.728Z</time></trkpt><trkpt lat="43.1712367" lon="2.3381383"><ele>151.0</ele><time>2026-04-26T03:22:29.726Z</time></trkpt><trkpt lat="43.1712267" lon="2.338305"><ele>151.0</ele><time>2026-04-26T03:22:30.729Z</time></trkpt><trkpt lat="43.1712217" lon="2.3384633"><ele>151.33333333333334</ele><time>2026-04-26T03:22:31.727Z</time></trkpt><trkpt lat="43.171215" lon="2.33861"><ele>151.66666666666669</ele><time>2026-04-26T03:22:32.728Z</time></trkpt><trkpt lat="43.171205" lon="2.3387433"><ele>152.0</ele><time>2026-04-26T03:22:33.727Z</time></trkpt><trkpt lat="43.1711967" lon="2.3388683"><ele>152.33333333333334</ele><time>2026-04-26T03:22:34.728Z</time></trkpt><trkpt lat="43.1711917" lon="2.3389783"><ele>152.66666666666666</ele><time>2026-04-26T03:22:35.73Z</time></trkpt><trkpt lat="43.1711883" lon="2.3390767"><ele>153.0</ele><time>2026-04-26T03:22:36.728Z</time></trkpt><trkpt lat="43.1711683" lon="2.3392317"><ele>152.6</ele><time>2026-04-26T03:22:38.728Z</time></trkpt><trkpt lat="43.1710733" lon="2.3392867"><ele>152.20000000000002</ele><time>2026-04-26T03:22:40.729Z</time></trkpt><trkpt lat="43.17099" lon="2.3392967"><ele>151.8</ele><time>2026-04-26T03:22:41.727Z</time></trkpt><trkpt lat="43.1708967" lon="2.3393183"><ele>151.4</ele><time>2026-04-26T03:22:42.729Z</time></trkpt><trkpt lat="43.17079" lon="2.3393483"><ele>151.0</ele><time>2026-04-26T03:22:43.73Z</time></trkpt><trkpt lat="43.17068" lon="2.3393767"><ele>151.0</ele><time>2026-04-26T03:22:44.728Z</time></trkpt><trkpt lat="43.17057" lon="2.339415"><ele>151.0</ele><time>2026-04-26T03:22:45.727Z</time></trkpt><trkpt lat="43.170465" lon="2.3394533"><ele>151.0</ele><time>2026-04-26T03:22:46.729Z</time></trkpt><trkpt lat="43.1703633" lon="2.3394833"><ele>151.0</ele><time>2026-04-26T03:22:47.731Z</time></trkpt><trkpt lat="43.1702683" lon="2.33951"><ele>151.0</ele><time>2026-04-26T03:22:48.73Z</time></trkpt><trkpt lat="43.1701717" lon="2.3395317"><ele>151.0</ele><time>2026-04-26T03:22:49.73Z</time></trkpt><trkpt lat="43.1700733" lon="2.3395517"><ele>151.0</ele><time>2026-04-26T03:22:50.729Z</time></trkpt><trkpt lat="43.16998" lon="2.3395833"><ele>151.0</ele><time>2026-04-26T03:22:51.729Z</time></trkpt><trkpt lat="43.16989" lon="2.3396183"><ele>151.0</ele><time>2026-04-26T03:22:52.729Z</time></trkpt><trkpt lat="43.1698033" lon="2.3396617"><ele>151.0</ele><time>2026-04-26T03:22:53.73Z</time></trkpt><trkpt lat="43.169725" lon="2.33973"><ele>150.8</ele><time>2026-04-26T03:22:54.728Z</time></trkpt><trkpt lat="43.169655" lon="2.33983"><ele>150.6</ele><time>2026-04-26T03:22:55.727Z</time></trkpt><trkpt lat="43.1695883" lon="2.339945"><ele>150.4</ele><time>2026-04-26T03:22:56.729Z</time></trkpt><trkpt lat="43.16952" lon="2.340065"><ele>150.2</ele><time>2026-04-26T03:22:57.727Z</time></trkpt><trkpt lat="43.169455" lon="2.34019"><ele>150.0</ele><time>2026-04-26T03:22:58.728Z</time></trkpt><trkpt lat="43.1694033" lon="2.340325"><ele>150.0</ele><time>2026-04-26T03:22:59.728Z</time></trkpt><trkpt lat="43.1693617" lon="2.34047"><ele>150.0</ele><time>2026-04-26T03:23:00.727Z</time></trkpt><trkpt lat="43.1693283" lon="2.3406217"><ele>150.0</ele><time>2026-04-26T03:23:01.727Z</time></trkpt><trkpt lat="43.1692967" lon="2.3407817"><ele>150.0</ele><time>2026-04-26T03:23:02.728Z</time></trkpt><trkpt lat="43.16927" lon="2.340945"><ele>151.0</ele><time>2026-04-26T03:23:03.728Z</time></trkpt><trkpt lat="43.1692483" lon="2.3411117"><ele>152.0</ele><time>2026-04-26T03:23:04.728Z</time></trkpt><trkpt lat="43.1692317" lon="2.3412767"><ele>153.0</ele><time>2026-04-26T03:23:05.727Z</time></trkpt><trkpt lat="43.16921" lon="2.3414433"><ele>154.0</ele><time>2026-04-26T03:23:06.729Z</time></trkpt><trkpt lat="43.16918" lon="2.3416083"><ele>155.25</ele><time>2026-04-26T03:23:07.727Z</time></trkpt><trkpt lat="43.1691467" lon="2.3417733"><ele>156.5</ele><time>2026-04-26T03:23:08.728Z</time></trkpt><trkpt lat="43.169115" lon="2.3419317"><ele>157.75</ele><time>2026-04-26T03:23:09.727Z</time></trkpt><trkpt lat="43.16909" lon="2.3420817"><ele>159.0</ele><time>2026-04-26T03:23:10.727Z</time></trkpt><trkpt lat="43.16907" lon="2.34223"><ele>159.75</ele><time>2026-04-26T03:23:11.731Z</time></trkpt><trkpt lat="43.169055" lon="2.3423833"><ele>160.5</ele><time>2026-04-26T03:23:12.727Z</time></trkpt><trkpt lat="43.16904" lon="2.3425417"><ele>161.25</ele><time>2026-04-26T03:23:13.728Z</time></trkpt><trkpt lat="43.1690183" lon="2.3427083"><ele>162.0</ele><time>2026-04-26T03:23:14.73Z</time></trkpt><trkpt lat="43.16899" lon="2.3428617"><ele>160.0</ele><time>2026-04-26T03:23:15.727Z</time></trkpt><trkpt lat="43.1689567" lon="2.3430083"><ele>158.0</ele><time>2026-04-26T03:23:16.727Z</time></trkpt><trkpt lat="43.16892" lon="2.3431567"><ele>156.0</ele><time>2026-04-26T03:23:17.728Z</time></trkpt><trkpt lat="43.1688733" lon="2.3433033"><ele>154.0</ele><time>2026-04-26T03:23:18.731Z</time></trkpt><trkpt lat="43.1688217" lon="2.343455"><ele>154.0</ele><time>2026-04-26T03:23:19.73Z</time></trkpt><trkpt lat="43.1687717" lon="2.3436183"><ele>154.0</ele><time>2026-04-26T03:23:20.727Z</time></trkpt><trkpt lat="43.16872" lon="2.3437817"><ele>154.0</ele><time>2026-04-26T03:23:21.729Z</time></trkpt><trkpt lat="43.1686667" lon="2.3439467"><ele>154.0</ele><time>2026-04-26T03:23:22.728Z</time></trkpt><trkpt lat="43.1686217" lon="2.344105"><ele>154.8</ele><time>2026-04-26T03:23:23.733Z</time></trkpt><trkpt lat="43.1685783" lon="2.3442417"><ele>155.60000000000002</ele><time>2026-04-26T03:23:24.729Z</time></trkpt><trkpt lat="43.16853" lon="2.3443667"><ele>156.4</ele><time>2026-04-26T03:23:25.728Z</time></trkpt><trkpt lat="43.1684733" lon="2.3444883"><ele>157.20000000000002</ele><time>2026-04-26T03:23:26.729Z</time></trkpt><trkpt lat="43.16841" lon="2.3446083"><ele>158.0</ele><time>2026-04-26T03:23:27.728Z</time></trkpt><trkpt lat="43.1683533" lon="2.34473"><ele>158.0</ele><time>2026-04-26T03:23:28.73Z</time></trkpt><trkpt lat="43.1683067" lon="2.3448483"><ele>158.0</ele><time>2026-04-26T03:23:29.73Z</time></trkpt><trkpt lat="43.1682633" lon="2.34497"><ele>158.0</ele><time>2026-04-26T03:23:30.728Z</time></trkpt><trkpt lat="43.1682167" lon="2.3450867"><ele>158.0</ele><time>2026-04-26T03:23:31.727Z</time></trkpt><trkpt lat="43.168165" lon="2.3452033"><ele>158.0</ele><time>2026-04-26T03:23:32.728Z</time></trkpt><trkpt lat="43.1681167" lon="2.34532"><ele>158.0</ele><time>2026-04-26T03:23:33.727Z</time></trkpt><trkpt lat="43.168075" lon="2.3454417"><ele>158.0</ele><time>2026-04-26T03:23:34.728Z</time></trkpt><trkpt lat="43.168045" lon="2.3455783"><ele>158.0</ele><time>2026-04-26T03:23:35.729Z</time></trkpt><trkpt lat="43.16802" lon="2.345725"><ele>158.0</ele><time>2026-04-26T03:23:36.729Z</time></trkpt><trkpt lat="43.1679933" lon="2.34588"><ele>158.0</ele><time>2026-04-26T03:23:37.728Z</time></trkpt><trkpt lat="43.1679667" lon="2.3460417"><ele>158.25</ele><time>2026-04-26T03:23:38.729Z</time></trkpt><trkpt lat="43.1679417" lon="2.346205"><ele>158.5</ele><time>2026-04-26T03:23:39.728Z</time></trkpt><trkpt lat="43.1679117" lon="2.3463583"><ele>158.75</ele><time>2026-04-26T03:23:40.728Z</time></trkpt><trkpt lat="43.1678783" lon="2.346505"><ele>159.0</ele><time>2026-04-26T03:23:41.731Z</time></trkpt><trkpt lat="43.16785" lon="2.34665"><ele>159.25</ele><time>2026-04-26T03:23:42.727Z</time></trkpt><trkpt lat="43.1678167" lon="2.3468"><ele>159.5</ele><time>2026-04-26T03:23:43.731Z</time></trkpt><trkpt lat="43.1677833" lon="2.3469583"><ele>159.75</ele><time>2026-04-26T03:23:44.727Z</time></trkpt><trkpt lat="43.167745" lon="2.3471183"><ele>160.0</ele><time>2026-04-26T03:23:45.727Z</time></trkpt><trkpt lat="43.167705" lon="2.34728"><ele>160.6</ele><time>2026-04-26T03:23:46.728Z</time></trkpt><trkpt lat="43.1676683" lon="2.3474467"><ele>161.2</ele><time>2026-04-26T03:23:47.73Z</time></trkpt><trkpt lat="43.1676417" lon="2.3476017"><ele>161.8</ele><time>2026-04-26T03:23:48.729Z</time></trkpt><trkpt lat="43.1676267" lon="2.3477467"><ele>162.4</ele><time>2026-04-26T03:23:49.73Z</time></trkpt><trkpt lat="43.1676217" lon="2.347875"><ele>163.0</ele><time>2026-04-26T03:23:50.73Z</time></trkpt><trkpt lat="43.167615" lon="2.347995"><ele>163.5</ele><time>2026-04-26T03:23:51.729Z</time></trkpt><trkpt lat="43.167605" lon="2.3481167"><ele>164.0</ele><time>2026-04-26T03:23:52.729Z</time></trkpt><trkpt lat="43.1675917" lon="2.3482317"><ele>164.5</ele><time>2026-04-26T03:23:53.73Z</time></trkpt><trkpt lat="43.1675717" lon="2.3483367"><ele>165.0</ele><time>2026-04-26T03:23:54.728Z</time></trkpt><trkpt lat="43.16754" lon="2.3484333"><ele>165.5</ele><time>2026-04-26T03:23:55.728Z</time></trkpt><trkpt lat="43.1675033" lon="2.34852"><ele>166.0</ele><time>2026-04-26T03:23:56.732Z</time></trkpt><trkpt lat="43.167435" lon="2.348645"><ele>165.66666666666669</ele><time>2026-04-26T03:23:58.727Z</time></trkpt><trkpt lat="43.1673417" lon="2.3486933"><ele>165.33333333333334</ele><time>2026-04-26T03:24:00.728Z</time></trkpt><trkpt lat="43.167275" lon="2.3486967"><ele>165.0</ele><time>2026-04-26T03:24:01.728Z</time></trkpt><trkpt lat="43.1671967" lon="2.3486867"><ele>164.66666666666666</ele><time>2026-04-26T03:24:02.729Z</time></trkpt><trkpt lat="43.1671067" lon="2.3486683"><ele>164.33333333333331</ele><time>2026-04-26T03:24:03.727Z</time></trkpt><trkpt lat="43.1669983" lon="2.3486417"><ele>164.0</ele><time>2026-04-26T03:24:04.729Z</time></trkpt><trkpt lat="43.1668883" lon="2.34861"><ele>164.0</ele><time>2026-04-26T03:24:05.727Z</time></trkpt><trkpt lat="43.1667817" lon="2.3485917"><ele>164.0</ele><time>2026-04-26T03:24:06.728Z</time></trkpt><trkpt lat="43.1666767" lon="2.3485867"><ele>164.0</ele><time>2026-04-26T03:24:07.727Z</time></trkpt><trkpt lat="43.16657" lon="2.3485817"><ele>164.0</ele><time>2026-04-26T03:24:08.728Z</time></trkpt><trkpt lat="43.1664717" lon="2.348565"><ele>164.0</ele><time>2026-04-26T03:24:09.727Z</time></trkpt><trkpt lat="43.166375" lon="2.3485267"><ele>165.79999999999998</ele><time>2026-04-26T03:24:10.729Z</time></trkpt><trkpt lat="43.1662767" lon="2.3484733"><ele>167.6</ele><time>2026-04-26T03:24:11.728Z</time></trkpt><trkpt lat="43.1661783" lon="2.3484033"><ele>169.4</ele><time>2026-04-26T03:24:12.728Z</time></trkpt><trkpt lat="43.1660867" lon="2.3483283"><ele>171.2</ele><time>2026-04-26T03:24:13.728Z</time></trkpt><trkpt lat="43.166" lon="2.3482467"><ele>173.0</ele><time>2026-04-26T03:24:14.729Z</time></trkpt><trkpt lat="43.16592" lon="2.3481533"><ele>173.0</ele><time>2026-04-26T03:24:15.727Z</time></trkpt><trkpt lat="43.165835" lon="2.348065"><ele>173.0</ele><time>2026-04-26T03:24:16.728Z</time></trkpt><trkpt lat="43.165745" lon="2.3479967"><ele>173.0</ele><time>2026-04-26T03:24:17.733Z</time></trkpt><trkpt lat="43.1656633" lon="2.3479533"><ele>173.0</ele><time>2026-04-26T03:24:18.727Z</time></trkpt><trkpt lat="43.1655817" lon="2.3479233"><ele>173.0</ele><time>2026-04-26T03:24:19.727Z</time></trkpt><trkpt lat="43.1654967" lon="2.34792"><ele>175.0</ele><time>2026-04-26T03:24:20.729Z</time></trkpt><trkpt lat="43.16541" lon="2.3479367"><ele>177.0</ele><time>2026-04-26T03:24:21.728Z</time></trkpt><trkpt lat="43.1653217" lon="2.34796"><ele>179.0</ele><time>2026-04-26T03:24:22.73Z</time></trkpt><trkpt lat="43.1652333" lon="2.3479967"><ele>181.0</ele><time>2026-04-26T03:24:23.729Z</time></trkpt><trkpt lat="43.1651417" lon="2.34806"><ele>183.0</ele><time>2026-04-26T03:24:24.727Z</time></trkpt><trkpt lat="43.1650467" lon="2.34812"><ele>183.0</ele><time>2026-04-26T03:24:25.728Z</time></trkpt><trkpt lat="43.16494" lon="2.3481883"><ele>183.0</ele><time>2026-04-26T03:24:26.728Z</time></trkpt><trkpt lat="43.1648317" lon="2.3482583"><ele>183.0</ele><time>2026-04-26T03:24:27.728Z</time></trkpt><trkpt lat="43.16472" lon="2.3483217"><ele>183.0</ele><time>2026-04-26T03:24:28.728Z</time></trkpt><trkpt lat="43.1646033" lon="2.348385"><ele>183.8</ele><time>2026-04-26T03:24:29.728Z</time></trkpt><trkpt lat="43.164485" lon="2.3484517"><ele>184.60000000000002</ele><time>2026-04-26T03:24:30.727Z</time></trkpt><trkpt lat="43.1643733" lon="2.34851"><ele>185.39999999999998</ele><time>2026-04-26T03:24:31.733Z</time></trkpt><trkpt lat="43.1642767" lon="2.3485583"><ele>186.2</ele><time>2026-04-26T03:24:32.729Z</time></trkpt><trkpt lat="43.1641883" lon="2.3485883"><ele>187.0</ele><time>2026-04-26T03:24:33.728Z</time></trkpt><trkpt lat="43.1641017" lon="2.3486"><ele>188.2</ele><time>2026-04-26T03:24:34.729Z</time></trkpt><trkpt lat="43.16402" lon="2.3485917"><ele>189.39999999999998</ele><time>2026-04-26T03:24:35.728Z</time></trkpt><trkpt lat="43.1639433" lon="2.3485533"><ele>190.60000000000002</ele><time>2026-04-26T03:24:36.73Z</time></trkpt><trkpt lat="43.1638633" lon="2.3484817"><ele>191.8</ele><time>2026-04-26T03:24:37.729Z</time></trkpt><trkpt lat="43.16378" lon="2.3484033"><ele>193.0</ele><time>2026-04-26T03:24:38.727Z</time></trkpt><trkpt lat="43.1636933" lon="2.3483217"><ele>193.0</ele><time>2026-04-26T03:24:39.728Z</time></trkpt><trkpt lat="43.16361" lon="2.3482383"><ele>193.0</ele><time>2026-04-26T03:24:40.727Z</time></trkpt><trkpt lat="43.1635317" lon="2.3481567"><ele>193.0</ele><time>2026-04-26T03:24:41.729Z</time></trkpt><trkpt lat="43.1634533" lon="2.3480783"><ele>193.0</ele><time>2026-04-26T03:24:42.727Z</time></trkpt><trkpt lat="43.1633717" lon="2.34801"><ele>193.0</ele><time>2026-04-26T03:24:43.729Z</time></trkpt><trkpt lat="43.1632833" lon="2.34795"><ele>190.8</ele><time>2026-04-26T03:24:44.728Z</time></trkpt><trkpt lat="43.1631833" lon="2.3479117"><ele>188.60000000000002</ele><time>2026-04-26T03:24:45.729Z</time></trkpt><trkpt lat="43.163085" lon="2.34789"><ele>186.39999999999998</ele><time>2026-04-26T03:24:46.73Z</time></trkpt><trkpt lat="43.1629917" lon="2.3478817"><ele>184.2</ele><time>2026-04-26T03:24:47.73Z</time></trkpt><trkpt lat="43.1629033" lon="2.3478767"><ele>182.0</ele><time>2026-04-26T03:24:48.731Z</time></trkpt><trkpt lat="43.16282" lon="2.34786"><ele>182.0</ele><time>2026-04-26T03:24:49.729Z</time></trkpt><trkpt lat="43.16274" lon="2.347825"><ele>182.0</ele><time>2026-04-26T03:24:50.73Z</time></trkpt><trkpt lat="43.162665" lon="2.347765"><ele>182.0</ele><time>2026-04-26T03:24:51.736Z</time></trkpt><trkpt lat="43.16259" lon="2.347695"><ele>182.0</ele><time>2026-04-26T03:24:52.729Z</time></trkpt><trkpt lat="43.16252" lon="2.3476267"><ele>182.0</ele><time>2026-04-26T03:24:53.729Z</time></trkpt><trkpt lat="43.162455" lon="2.3475417"><ele>182.0</ele><time>2026-04-26T03:24:54.73Z</time></trkpt><trkpt lat="43.1624" lon="2.347435"><ele>180.0</ele><time>2026-04-26T03:24:55.728Z</time></trkpt><trkpt lat="43.1623533" lon="2.3472983"><ele>178.0</ele><time>2026-04-26T03:24:56.728Z</time></trkpt><trkpt lat="43.16231" lon="2.347155"><ele>176.0</ele><time>2026-04-26T03:24:57.728Z</time></trkpt><trkpt lat="43.1622633" lon="2.34702"><ele>174.0</ele><time>2026-04-26T03:24:58.728Z</time></trkpt><trkpt lat="43.1622067" lon="2.3468883"><ele>172.0</ele><time>2026-04-26T03:24:59.731Z</time></trkpt><trkpt lat="43.162155" lon="2.3467633"><ele>171.66666666666669</ele><time>2026-04-26T03:25:00.728Z</time></trkpt><trkpt lat="43.1620983" lon="2.3466467"><ele>171.33333333333334</ele><time>2026-04-26T03:25:01.732Z</time></trkpt><trkpt lat="43.1620433" lon="2.3465367"><ele>171.0</ele><time>2026-04-26T03:25:02.729Z</time></trkpt><trkpt lat="43.16199" lon="2.3464383"><ele>170.66666666666666</ele><time>2026-04-26T03:25:03.728Z</time></trkpt><trkpt lat="43.1619367" lon="2.3463633"><ele>170.33333333333331</ele><time>2026-04-26T03:25:04.728Z</time></trkpt><trkpt lat="43.1618867" lon="2.3463017"><ele>170.0</ele><time>2026-04-26T03:25:05.727Z</time></trkpt><trkpt lat="43.1617733" lon="2.34622"><ele>169.2</ele><time>2026-04-26T03:25:07.728Z</time></trkpt><trkpt lat="43.1616967" lon="2.346195"><ele>168.4</ele><time>2026-04-26T03:25:08.728Z</time></trkpt><trkpt lat="43.1616067" lon="2.3461733"><ele>167.60000000000002</ele><time>2026-04-26T03:25:09.727Z</time></trkpt><trkpt lat="43.1615017" lon="2.3461533"><ele>166.8</ele><time>2026-04-26T03:25:10.728Z</time></trkpt><trkpt lat="43.16139" lon="2.3461317"><ele>166.0</ele><time>2026-04-26T03:25:11.728Z</time></trkpt><trkpt lat="43.161275" lon="2.34611"><ele>165.4</ele><time>2026-04-26T03:25:12.729Z</time></trkpt><trkpt lat="43.1611633" lon="2.346085"><ele>164.8</ele><time>2026-04-26T03:25:13.728Z</time></trkpt><trkpt lat="43.161055" lon="2.3460633"><ele>164.20000000000002</ele><time>2026-04-26T03:25:14.731Z</time></trkpt><trkpt lat="43.1609483" lon="2.34604"><ele>163.60000000000002</ele><time>2026-04-26T03:25:15.727Z</time></trkpt><trkpt lat="43.160845" lon="2.3460217"><ele>163.0</ele><time>2026-04-26T03:25:16.728Z</time></trkpt><trkpt lat="43.16074" lon="2.34601"><ele>163.60000000000002</ele><time>2026-04-26T03:25:17.727Z</time></trkpt><trkpt lat="43.1606317" lon="2.346005"><ele>164.20000000000002</ele><time>2026-04-26T03:25:18.729Z</time></trkpt><trkpt lat="43.1605217" lon="2.3460067"><ele>164.8</ele><time>2026-04-26T03:25:19.728Z</time></trkpt><trkpt lat="43.1604183" lon="2.3460117"><ele>165.4</ele><time>2026-04-26T03:25:20.73Z</time></trkpt><trkpt lat="43.1603267" lon="2.3460183"><ele>166.0</ele><time>2026-04-26T03:25:21.731Z</time></trkpt><trkpt lat="43.1602467" lon="2.346025"><ele>166.0</ele><time>2026-04-26T03:25:22.729Z</time></trkpt><trkpt lat="43.1601767" lon="2.3460317"><ele>166.0</ele><time>2026-04-26T03:25:23.728Z</time></trkpt><trkpt lat="43.16011" lon="2.3460217"><ele>166.0</ele><time>2026-04-26T03:25:24.73Z</time></trkpt><trkpt lat="43.16004" lon="2.34599"><ele>166.0</ele><time>2026-04-26T03:25:25.728Z</time></trkpt><trkpt lat="43.1599833" lon="2.3459233"><ele>166.0</ele><time>2026-04-26T03:25:26.729Z</time></trkpt><trkpt lat="43.1599267" lon="2.3458"><ele>166.0</ele><time>2026-04-26T03:25:28.728Z</time></trkpt><trkpt lat="43.1599133" lon="2.3457133"><ele>166.0</ele><time>2026-04-26T03:25:30.729Z</time></trkpt><trkpt lat="43.15998" lon="2.3455717"><ele>166.0</ele><time>2026-04-26T03:25:32.73Z</time></trkpt><trkpt lat="43.1600317" lon="2.3454733"><ele>166.0</ele><time>2026-04-26T03:25:33.729Z</time></trkpt><trkpt lat="43.1600817" lon="2.3453567"><ele>166.0</ele><time>2026-04-26T03:25:34.73Z</time></trkpt><trkpt lat="43.16013" lon="2.34523"><ele>166.0</ele><time>2026-04-26T03:25:35.729Z</time></trkpt><trkpt lat="43.160165" lon="2.3450917"><ele>164.8</ele><time>2026-04-26T03:25:36.731Z</time></trkpt><trkpt lat="43.16019" lon="2.3449533"><ele>163.60000000000002</ele><time>2026-04-26T03:25:37.729Z</time></trkpt><trkpt lat="43.16021" lon="2.344815"><ele>162.4</ele><time>2026-04-26T03:25:38.73Z</time></trkpt><trkpt lat="43.16023" lon="2.34468"><ele>161.2</ele><time>2026-04-26T03:25:39.729Z</time></trkpt><trkpt lat="43.1602533" lon="2.3445583"><ele>160.0</ele><time>2026-04-26T03:25:40.731Z</time></trkpt><trkpt lat="43.160285" lon="2.3444483"><ele>160.0</ele><time>2026-04-26T03:25:41.732Z</time></trkpt><trkpt lat="43.1603183" lon="2.34434"><ele>160.0</ele><time>2026-04-26T03:25:42.729Z</time></trkpt><trkpt lat="43.1603617" lon="2.344245"><ele>160.0</ele><time>2026-04-26T03:25:43.729Z</time></trkpt><trkpt lat="43.1604083" lon="2.344165"><ele>160.0</ele><time>2026-04-26T03:25:44.729Z</time></trkpt><trkpt lat="43.1604583" lon="2.3441017"><ele>160.0</ele><time>2026-04-26T03:25:45.728Z</time></trkpt><trkpt lat="43.1605117" lon="2.34405"><ele>160.0</ele><time>2026-04-26T03:25:46.728Z</time></trkpt><trkpt lat="43.1606367" lon="2.344"><ele>160.0</ele><time>2026-04-26T03:25:48.729Z</time></trkpt><trkpt lat="43.1607117" lon="2.3439933"><ele>160.0</ele><time>2026-04-26T03:25:49.729Z</time></trkpt><trkpt lat="43.160785" lon="2.34398"><ele>160.0</ele><time>2026-04-26T03:25:50.731Z</time></trkpt><trkpt lat="43.1608567" lon="2.3439517"><ele>160.0</ele><time>2026-04-26T03:25:51.729Z</time></trkpt><trkpt lat="43.1609483" lon="2.3438633"><ele>160.0</ele><time>2026-04-26T03:25:53.728Z</time></trkpt><trkpt lat="43.160985" lon="2.3437883"><ele>160.0</ele><time>2026-04-26T03:25:55.73Z</time></trkpt><trkpt lat="43.1609333" lon="2.3437233"><ele>160.0</ele><time>2026-04-26T03:25:58.729Z</time></trkpt><trkpt lat="43.1608633" lon="2.3438083"><ele>160.0</ele><time>2026-04-26T03:26:00.732Z</time></trkpt><trkpt lat="43.1607567" lon="2.3438483"><ele>160.0</ele><time>2026-04-26T03:26:02.728Z</time></trkpt><trkpt lat="43.1606917" lon="2.3438283"><ele>160.0</ele><time>2026-04-26T03:26:03.73Z</time></trkpt><trkpt lat="43.1606083" lon="2.3438083"><ele>160.0</ele><time>2026-04-26T03:26:04.728Z</time></trkpt><trkpt lat="43.1605217" lon="2.343825"><ele>160.0</ele><time>2026-04-26T03:26:05.727Z</time></trkpt><trkpt lat="43.16045" lon="2.34384"><ele>161.2</ele><time>2026-04-26T03:26:06.729Z</time></trkpt><trkpt lat="43.1603383" lon="2.3438317"><ele>162.4</ele><time>2026-04-26T03:26:08.73Z</time></trkpt><trkpt lat="43.16026" lon="2.3437217"><ele>163.60000000000002</ele><time>2026-04-26T03:26:10.73Z</time></trkpt><trkpt lat="43.1602233" lon="2.343625"><ele>164.8</ele><time>2026-04-26T03:26:11.728Z</time></trkpt><trkpt lat="43.16019" lon="2.343515"><ele>166.0</ele><time>2026-04-26T03:26:12.73Z</time></trkpt><trkpt lat="43.1601517" lon="2.3433983"><ele>166.0</ele><time>2026-04-26T03:26:13.736Z</time></trkpt><trkpt lat="43.1600867" lon="2.3432883"><ele>166.0</ele><time>2026-04-26T03:26:14.728Z</time></trkpt><trkpt lat="43.1599917" lon="2.34317"><ele>166.0</ele><time>2026-04-26T03:26:15.728Z</time></trkpt><trkpt lat="43.1599167" lon="2.34306"><ele>166.0</ele><time>2026-04-26T03:26:16.728Z</time></trkpt><trkpt lat="43.159835" lon="2.3429567"><ele>168.20000000000002</ele><time>2026-04-26T03:26:17.729Z</time></trkpt><trkpt lat="43.1597617" lon="2.3428533"><ele>170.4</ele><time>2026-04-26T03:26:18.728Z</time></trkpt><trkpt lat="43.1597167" lon="2.34274"><ele>172.6</ele><time>2026-04-26T03:26:19.728Z</time></trkpt><trkpt lat="43.1596767" lon="2.3426233"><ele>174.8</ele><time>2026-04-26T03:26:20.728Z</time></trkpt><trkpt lat="43.1596317" lon="2.3425083"><ele>177.0</ele><time>2026-04-26T03:26:21.728Z</time></trkpt><trkpt lat="43.1595767" lon="2.3424133"><ele>177.0</ele><time>2026-04-26T03:26:22.729Z</time></trkpt><trkpt lat="43.15952" lon="2.3423383"><ele>177.0</ele><time>2026-04-26T03:26:23.728Z</time></trkpt><trkpt lat="43.159445" lon="2.3422767"><ele>177.0</ele><time>2026-04-26T03:26:24.728Z</time></trkpt><trkpt lat="43.159355" lon="2.3422117"><ele>177.0</ele><time>2026-04-26T03:26:25.729Z</time></trkpt><trkpt lat="43.1592567" lon="2.3421267"><ele>177.0</ele><time>2026-04-26T03:26:26.73Z</time></trkpt><trkpt lat="43.15917" lon="2.3420333"><ele>177.0</ele><time>2026-04-26T03:26:27.728Z</time></trkpt><trkpt lat="43.1590833" lon="2.341945"><ele>177.0</ele><time>2026-04-26T03:26:28.728Z</time></trkpt><trkpt lat="43.1589967" lon="2.3418833"><ele>177.0</ele><time>2026-04-26T03:26:29.728Z</time></trkpt><trkpt lat="43.1589083" lon="2.3418333"><ele>177.0</ele><time>2026-04-26T03:26:30.729Z</time></trkpt><trkpt lat="43.1588283" lon="2.34178"><ele>177.0</ele><time>2026-04-26T03:26:31.729Z</time></trkpt><trkpt lat="43.1587517" lon="2.3417117"><ele>178.6</ele><time>2026-04-26T03:26:32.73Z</time></trkpt><trkpt lat="43.1586767" lon="2.3416233"><ele>180.2</ele><time>2026-04-26T03:26:33.729Z</time></trkpt><trkpt lat="43.1586" lon="2.341525"><ele>181.8</ele><time>2026-04-26T03:26:34.728Z</time></trkpt><trkpt lat="43.1585267" lon="2.3414317"><ele>183.4</ele><time>2026-04-26T03:26:35.728Z</time></trkpt><trkpt lat="43.1584567" lon="2.341345"><ele>185.0</ele><time>2026-04-26T03:26:36.729Z</time></trkpt><trkpt lat="43.1583917" lon="2.3412583"><ele>185.0</ele><time>2026-04-26T03:26:37.727Z</time></trkpt><trkpt lat="43.1583317" lon="2.341165"><ele>185.0</ele><time>2026-04-26T03:26:38.73Z</time></trkpt><trkpt lat="43.1582717" lon="2.3410733"><ele>185.0</ele><time>2026-04-26T03:26:39.73Z</time></trkpt><trkpt lat="43.1582033" lon="2.3409817"><ele>185.0</ele><time>2026-04-26T03:26:40.728Z</time></trkpt><trkpt lat="43.1581283" lon="2.340895"><ele>185.0</ele><time>2026-04-26T03:26:41.728Z</time></trkpt><trkpt lat="43.1580467" lon="2.3408233"><ele>186.6</ele><time>2026-04-26T03:26:42.728Z</time></trkpt><trkpt lat="43.157955" lon="2.3407517"><ele>188.2</ele><time>2026-04-26T03:26:43.729Z</time></trkpt><trkpt lat="43.1578633" lon="2.3406767"><ele>189.8</ele><time>2026-04-26T03:26:44.729Z</time></trkpt><trkpt lat="43.1577683" lon="2.3406033"><ele>191.4</ele><time>2026-04-26T03:26:45.734Z</time></trkpt><trkpt lat="43.1576767" lon="2.340535"><ele>193.0</ele><time>2026-04-26T03:26:46.728Z</time></trkpt><trkpt lat="43.1575967" lon="2.3404767"><ele>193.0</ele><time>2026-04-26T03:26:47.728Z</time></trkpt><trkpt lat="43.1575117" lon="2.3404283"><ele>193.0</ele><time>2026-04-26T03:26:48.728Z</time></trkpt><trkpt lat="43.1574183" lon="2.3403883"><ele>193.0</ele><time>2026-04-26T03:26:49.73Z</time></trkpt><trkpt lat="43.15732" lon="2.340355"><ele>193.0</ele><time>2026-04-26T03:26:50.73Z</time></trkpt><trkpt lat="43.1572117" lon="2.34032"><ele>193.0</ele><time>2026-04-26T03:26:51.729Z</time></trkpt><trkpt lat="43.1571067" lon="2.3402783"><ele>194.8</ele><time>2026-04-26T03:26:52.728Z</time></trkpt><trkpt lat="43.1570117" lon="2.3402317"><ele>196.60000000000002</ele><time>2026-04-26T03:26:53.728Z</time></trkpt><trkpt lat="43.1569267" lon="2.3401817"><ele>198.39999999999998</ele><time>2026-04-26T03:26:54.729Z</time></trkpt><trkpt lat="43.1568467" lon="2.34012"><ele>200.2</ele><time>2026-04-26T03:26:55.728Z</time></trkpt><trkpt lat="43.1567683" lon="2.3400483"><ele>202.0</ele><time>2026-04-26T03:26:56.73Z</time></trkpt><trkpt lat="43.1566917" lon="2.3399717"><ele>202.0</ele><time>2026-04-26T03:26:57.729Z</time></trkpt><trkpt lat="43.156615" lon="2.3398917"><ele>202.0</ele><time>2026-04-26T03:26:58.729Z</time></trkpt><trkpt lat="43.1565367" lon="2.3398067"><ele>202.0</ele><time>2026-04-26T03:26:59.729Z</time></trkpt><trkpt lat="43.1564583" lon="2.3397167"><ele>202.0</ele><time>2026-04-26T03:27:00.729Z</time></trkpt><trkpt lat="43.1563817" lon="2.339615"><ele>202.0</ele><time>2026-04-26T03:27:01.731Z</time></trkpt><trkpt lat="43.15631" lon="2.339505"><ele>203.0</ele><time>2026-04-26T03:27:02.729Z</time></trkpt><trkpt lat="43.156245" lon="2.3394"><ele>204.0</ele><time>2026-04-26T03:27:03.727Z</time></trkpt><trkpt lat="43.1561867" lon="2.339295"><ele>205.0</ele><time>2026-04-26T03:27:04.728Z</time></trkpt><trkpt lat="43.15613" lon="2.3391767"><ele>206.0</ele><time>2026-04-26T03:27:05.729Z</time></trkpt><trkpt lat="43.156075" lon="2.3390517"><ele>207.0</ele><time>2026-04-26T03:27:06.729Z</time></trkpt><trkpt lat="43.15602" lon="2.338925"><ele>206.6</ele><time>2026-04-26T03:27:07.735Z</time></trkpt><trkpt lat="43.1559733" lon="2.338805"><ele>206.2</ele><time>2026-04-26T03:27:08.731Z</time></trkpt><trkpt lat="43.1559283" lon="2.3386867"><ele>205.8</ele><time>2026-04-26T03:27:09.73Z</time></trkpt><trkpt lat="43.15589" lon="2.33858"><ele>205.4</ele><time>2026-04-26T03:27:10.728Z</time></trkpt><trkpt lat="43.1558267" lon="2.338475"><ele>205.0</ele><time>2026-04-26T03:27:11.73Z</time></trkpt><trkpt lat="43.1557533" lon="2.3383583"><ele>204.6</ele><time>2026-04-26T03:27:12.729Z</time></trkpt><trkpt lat="43.1556817" lon="2.338245"><ele>204.2</ele><time>2026-04-26T03:27:13.729Z</time></trkpt><trkpt lat="43.1556083" lon="2.3381383"><ele>203.8</ele><time>2026-04-26T03:27:14.732Z</time></trkpt><trkpt lat="43.15554" lon="2.338025"><ele>203.4</ele><time>2026-04-26T03:27:15.729Z</time></trkpt><trkpt lat="43.1554733" lon="2.3379067"><ele>203.0</ele><time>2026-04-26T03:27:16.729Z</time></trkpt><trkpt lat="43.1554117" lon="2.3377917"><ele>201.8</ele><time>2026-04-26T03:27:17.729Z</time></trkpt><trkpt lat="43.1553567" lon="2.3376833"><ele>200.60000000000002</ele><time>2026-04-26T03:27:18.73Z</time></trkpt><trkpt lat="43.1553033" lon="2.3375767"><ele>199.39999999999998</ele><time>2026-04-26T03:27:19.73Z</time></trkpt><trkpt lat="43.1552533" lon="2.3374683"><ele>198.2</ele><time>2026-04-26T03:27:20.73Z</time></trkpt><trkpt lat="43.1552017" lon="2.337355"><ele>197.0</ele><time>2026-04-26T03:27:21.731Z</time></trkpt><trkpt lat="43.155155" lon="2.3372533"><ele>196.33333333333334</ele><time>2026-04-26T03:27:22.73Z</time></trkpt><trkpt lat="43.155115" lon="2.3371633"><ele>195.66666666666669</ele><time>2026-04-26T03:27:23.73Z</time></trkpt><trkpt lat="43.15508" lon="2.3370783"><ele>195.0</ele><time>2026-04-26T03:27:24.729Z</time></trkpt><trkpt lat="43.1550317" lon="2.33694"><ele>194.33333333333331</ele><time>2026-04-26T03:27:26.73Z</time></trkpt><trkpt lat="43.1550483" lon="2.3368433"><ele>193.66666666666666</ele><time>2026-04-26T03:27:29.731Z</time></trkpt><trkpt lat="43.1551383" lon="2.336795"><ele>193.0</ele><time>2026-04-26T03:27:31.73Z</time></trkpt><trkpt lat="43.1552017" lon="2.3367333"><ele>192.99999999999997</ele><time>2026-04-26T03:27:32.729Z</time></trkpt><trkpt lat="43.1552683" lon="2.3366467"><ele>193.0</ele><time>2026-04-26T03:27:33.729Z</time></trkpt><trkpt lat="43.1553367" lon="2.3365617"><ele>193.0</ele><time>2026-04-26T03:27:34.73Z</time></trkpt><trkpt lat="43.155405" lon="2.3364833"><ele>193.0</ele><time>2026-04-26T03:27:35.728Z</time></trkpt><trkpt lat="43.15547" lon="2.3364033"><ele>192.99999999999997</ele><time>2026-04-26T03:27:36.729Z</time></trkpt><trkpt lat="43.15553" lon="2.3363183"><ele>193.0</ele><time>2026-04-26T03:27:37.73Z</time></trkpt><trkpt lat="43.1555783" lon="2.3362167"><ele>192.8</ele><time>2026-04-26T03:27:38.73Z</time></trkpt><trkpt lat="43.15562" lon="2.336095"><ele>192.60000000000002</ele><time>2026-04-26T03:27:39.728Z</time></trkpt><trkpt lat="43.1556583" lon="2.3359617"><ele>192.39999999999998</ele><time>2026-04-26T03:27:40.73Z</time></trkpt><trkpt lat="43.15569" lon="2.3358183"><ele>192.2</ele><time>2026-04-26T03:27:41.729Z</time></trkpt><trkpt lat="43.1557167" lon="2.3356617"><ele>192.0</ele><time>2026-04-26T03:27:42.73Z</time></trkpt><trkpt lat="43.1557417" lon="2.3355"><ele>189.75</ele><time>2026-04-26T03:27:43.728Z</time></trkpt><trkpt lat="43.155765" lon="2.3353367"><ele>187.5</ele><time>2026-04-26T03:27:44.73Z</time></trkpt><trkpt lat="43.1557883" lon="2.3351817"><ele>185.25</ele><time>2026-04-26T03:27:45.728Z</time></trkpt><trkpt lat="43.1558083" lon="2.3350367"><ele>183.0</ele><time>2026-04-26T03:27:46.729Z</time></trkpt><trkpt lat="43.1558217" lon="2.3348933"><ele>183.0</ele><time>2026-04-26T03:27:47.73Z</time></trkpt><trkpt lat="43.15583" lon="2.3347467"><ele>183.0</ele><time>2026-04-26T03:27:48.728Z</time></trkpt><trkpt lat="43.155835" lon="2.3345917"><ele>183.0</ele><time>2026-04-26T03:27:49.731Z</time></trkpt><trkpt lat="43.1558367" lon="2.334435"><ele>183.0</ele><time>2026-04-26T03:27:50.729Z</time></trkpt><trkpt lat="43.1558383" lon="2.3342833"><ele>183.0</ele><time>2026-04-26T03:27:51.728Z</time></trkpt><trkpt lat="43.15585" lon="2.3341417"><ele>182.2</ele><time>2026-04-26T03:27:52.731Z</time></trkpt><trkpt lat="43.1558683" lon="2.3340083"><ele>181.4</ele><time>2026-04-26T03:27:53.729Z</time></trkpt><trkpt lat="43.155895" lon="2.3338817"><ele>180.6</ele><time>2026-04-26T03:27:54.73Z</time></trkpt><trkpt lat="43.1559267" lon="2.3337583"><ele>179.79999999999998</ele><time>2026-04-26T03:27:55.728Z</time></trkpt><trkpt lat="43.15596" lon="2.3336317"><ele>179.0</ele><time>2026-04-26T03:27:56.73Z</time></trkpt><trkpt lat="43.15599" lon="2.3335067"><ele>178.0</ele><time>2026-04-26T03:27:57.73Z</time></trkpt><trkpt lat="43.1560217" lon="2.3333633"><ele>177.0</ele><time>2026-04-26T03:27:58.729Z</time></trkpt><trkpt lat="43.1560483" lon="2.3332167"><ele>176.0</ele><time>2026-04-26T03:27:59.728Z</time></trkpt><trkpt lat="43.1560767" lon="2.333065"><ele>175.0</ele><time>2026-04-26T03:28:00.729Z</time></trkpt><trkpt lat="43.1561083" lon="2.3329067"><ele>174.25</ele><time>2026-04-26T03:28:01.729Z</time></trkpt><trkpt lat="43.1561433" lon="2.3327433"><ele>173.5</ele><time>2026-04-26T03:28:02.73Z</time></trkpt><trkpt lat="43.15618" lon="2.3325833"><ele>172.75</ele><time>2026-04-26T03:28:03.73Z</time></trkpt><trkpt lat="43.15622" lon="2.3324383"><ele>172.0</ele><time>2026-04-26T03:28:04.731Z</time></trkpt><trkpt lat="43.156255" lon="2.3323017"><ele>171.0</ele><time>2026-04-26T03:28:05.729Z</time></trkpt><trkpt lat="43.1562817" lon="2.3321683"><ele>170.0</ele><time>2026-04-26T03:28:06.73Z</time></trkpt><trkpt lat="43.156295" lon="2.3320383"><ele>169.0</ele><time>2026-04-26T03:28:07.73Z</time></trkpt><trkpt lat="43.1563017" lon="2.3319067"><ele>168.0</ele><time>2026-04-26T03:28:08.734Z</time></trkpt><trkpt lat="43.1563067" lon="2.331785"><ele>167.0</ele><time>2026-04-26T03:28:09.729Z</time></trkpt><trkpt lat="43.1563117" lon="2.3316717"><ele>167.0</ele><time>2026-04-26T03:28:10.728Z</time></trkpt><trkpt lat="43.15632" lon="2.3315833"><ele>167.0</ele><time>2026-04-26T03:28:11.729Z</time></trkpt><trkpt lat="43.1563333" lon="2.3314467"><ele>167.0</ele><time>2026-04-26T03:28:13.729Z</time></trkpt><trkpt lat="43.1563117" lon="2.3313583"><ele>167.0</ele><time>2026-04-26T03:28:15.729Z</time></trkpt><trkpt lat="43.15624" lon="2.3312617"><ele>167.0</ele><time>2026-04-26T03:28:17.729Z</time></trkpt><trkpt lat="43.1561933" lon="2.3312017"><ele>167.0</ele><time>2026-04-26T03:28:18.821Z</time></trkpt><trkpt lat="43.1561517" lon="2.3310433"><ele>166.39999999999998</ele><time>2026-04-26T03:28:20.732Z</time></trkpt><trkpt lat="43.1561433" lon="2.3309133"><ele>165.79999999999998</ele><time>2026-04-26T03:28:21.728Z</time></trkpt><trkpt lat="43.1561517" lon="2.33078"><ele>165.2</ele><time>2026-04-26T03:28:22.732Z</time></trkpt><trkpt lat="43.1561517" lon="2.3306267"><ele>164.6</ele><time>2026-04-26T03:28:23.73Z</time></trkpt><trkpt lat="43.156145" lon="2.33047"><ele>164.0</ele><time>2026-04-26T03:28:24.729Z</time></trkpt><trkpt lat="43.1561317" lon="2.3302983"><ele>163.25</ele><time>2026-04-26T03:28:25.729Z</time></trkpt><trkpt lat="43.156105" lon="2.3301383"><ele>162.5</ele><time>2026-04-26T03:28:26.731Z</time></trkpt><trkpt lat="43.156085" lon="2.329995"><ele>161.75</ele><time>2026-04-26T03:28:27.729Z</time></trkpt><trkpt lat="43.1560833" lon="2.3298467"><ele>161.0</ele><time>2026-04-26T03:28:28.73Z</time></trkpt><trkpt lat="43.1560867" lon="2.3296833"><ele>160.25</ele><time>2026-04-26T03:28:29.728Z</time></trkpt><trkpt lat="43.1560867" lon="2.329525"><ele>159.5</ele><time>2026-04-26T03:28:30.731Z</time></trkpt><trkpt lat="43.1560667" lon="2.3293567"><ele>158.75</ele><time>2026-04-26T03:28:31.729Z</time></trkpt><trkpt lat="43.15605" lon="2.3291833"><ele>158.0</ele><time>2026-04-26T03:28:32.733Z</time></trkpt><trkpt lat="43.1560417" lon="2.3289983"><ele>157.25</ele><time>2026-04-26T03:28:33.729Z</time></trkpt><trkpt lat="43.15604" lon="2.3288067"><ele>156.5</ele><time>2026-04-26T03:28:34.731Z</time></trkpt><trkpt lat="43.1560417" lon="2.3286167"><ele>155.75</ele><time>2026-04-26T03:28:35.729Z</time></trkpt><trkpt lat="43.1560433" lon="2.32842"><ele>155.0</ele><time>2026-04-26T03:28:36.728Z</time></trkpt><trkpt lat="43.1560483" lon="2.3282417"><ele>155.0</ele><time>2026-04-26T03:28:37.728Z</time></trkpt><trkpt lat="43.156065" lon="2.32807"><ele>155.0</ele><time>2026-04-26T03:28:38.73Z</time></trkpt><trkpt lat="43.1560917" lon="2.327905"><ele>155.0</ele><time>2026-04-26T03:28:39.729Z</time></trkpt><trkpt lat="43.1561183" lon="2.32774"><ele>155.0</ele><time>2026-04-26T03:28:40.73Z</time></trkpt><trkpt lat="43.1561467" lon="2.32757"><ele>154.0</ele><time>2026-04-26T03:28:41.729Z</time></trkpt><trkpt lat="43.1561783" lon="2.3273983"><ele>153.0</ele><time>2026-04-26T03:28:42.729Z</time></trkpt><trkpt lat="43.1562133" lon="2.32723"><ele>152.0</ele><time>2026-04-26T03:28:43.728Z</time></trkpt><trkpt lat="43.1562383" lon="2.3270683"><ele>151.0</ele><time>2026-04-26T03:28:44.729Z</time></trkpt><trkpt lat="43.156245" lon="2.3269133"><ele>150.75</ele><time>2026-04-26T03:28:45.729Z</time></trkpt><trkpt lat="43.1562317" lon="2.3267617"><ele>150.5</ele><time>2026-04-26T03:28:46.73Z</time></trkpt><trkpt lat="43.156205" lon="2.326605"><ele>150.25</ele><time>2026-04-26T03:28:47.729Z</time></trkpt><trkpt lat="43.1561817" lon="2.3264317"><ele>150.0</ele><time>2026-04-26T03:28:48.731Z</time></trkpt><trkpt lat="43.1561633" lon="2.3262517"><ele>149.75</ele><time>2026-04-26T03:28:49.729Z</time></trkpt><trkpt lat="43.1561417" lon="2.3260617"><ele>149.5</ele><time>2026-04-26T03:28:50.729Z</time></trkpt><trkpt lat="43.156115" lon="2.3258717"><ele>149.25</ele><time>2026-04-26T03:28:51.73Z</time></trkpt><trkpt lat="43.1560833" lon="2.3256817"><ele>149.0</ele><time>2026-04-26T03:28:52.729Z</time></trkpt><trkpt lat="43.1560417" lon="2.3254967"><ele>148.0</ele><time>2026-04-26T03:28:53.729Z</time></trkpt><trkpt lat="43.155985" lon="2.3253183"><ele>147.0</ele><time>2026-04-26T03:28:54.729Z</time></trkpt><trkpt lat="43.1559233" lon="2.3251483"><ele>146.0</ele><time>2026-04-26T03:28:55.729Z</time></trkpt><trkpt lat="43.1558567" lon="2.3249767"><ele>145.0</ele><time>2026-04-26T03:28:56.731Z</time></trkpt><trkpt lat="43.15579" lon="2.324805"><ele>145.0</ele><time>2026-04-26T03:28:57.729Z</time></trkpt><trkpt lat="43.1557233" lon="2.3246367"><ele>145.0</ele><time>2026-04-26T03:28:58.73Z</time></trkpt><trkpt lat="43.1556567" lon="2.3244783"><ele>145.0</ele><time>2026-04-26T03:28:59.729Z</time></trkpt><trkpt lat="43.15559" lon="2.3243217"><ele>145.0</ele><time>2026-04-26T03:29:00.731Z</time></trkpt><trkpt lat="43.1555233" lon="2.32417"><ele>145.0</ele><time>2026-04-26T03:29:01.729Z</time></trkpt><trkpt lat="43.1554583" lon="2.32402"><ele>145.0</ele><time>2026-04-26T03:29:02.729Z</time></trkpt><trkpt lat="43.1553917" lon="2.3238817"><ele>145.0</ele><time>2026-04-26T03:29:03.729Z</time></trkpt><trkpt lat="43.1553267" lon="2.3237567"><ele>145.0</ele><time>2026-04-26T03:29:04.729Z</time></trkpt><trkpt lat="43.155265" lon="2.32364"><ele>145.0</ele><time>2026-04-26T03:29:05.728Z</time></trkpt><trkpt lat="43.1552133" lon="2.323515"><ele>145.0</ele><time>2026-04-26T03:29:06.73Z</time></trkpt><trkpt lat="43.15518" lon="2.323375"><ele>145.0</ele><time>2026-04-26T03:29:07.728Z</time></trkpt><trkpt lat="43.1551567" lon="2.32322"><ele>145.0</ele><time>2026-04-26T03:29:08.73Z</time></trkpt><trkpt lat="43.15514" lon="2.3230617"><ele>145.0</ele><time>2026-04-26T03:29:09.727Z</time></trkpt><trkpt lat="43.155135" lon="2.3229033"><ele>144.75</ele><time>2026-04-26T03:29:10.728Z</time></trkpt><trkpt lat="43.155135" lon="2.3227383"><ele>144.5</ele><time>2026-04-26T03:29:11.731Z</time></trkpt><trkpt lat="43.1551317" lon="2.32257"><ele>144.25</ele><time>2026-04-26T03:29:12.728Z</time></trkpt><trkpt lat="43.1551167" lon="2.3223967"><ele>144.0</ele><time>2026-04-26T03:29:13.735Z</time></trkpt><trkpt lat="43.1550983" lon="2.3222267"><ele>143.25</ele><time>2026-04-26T03:29:14.73Z</time></trkpt><trkpt lat="43.1550867" lon="2.3220683"><ele>142.5</ele><time>2026-04-26T03:29:15.728Z</time></trkpt><trkpt lat="43.15507" lon="2.3219133"><ele>141.75</ele><time>2026-04-26T03:29:16.729Z</time></trkpt><trkpt lat="43.15505" lon="2.32176"><ele>141.0</ele><time>2026-04-26T03:29:17.73Z</time></trkpt><trkpt lat="43.155025" lon="2.3216067"><ele>141.0</ele><time>2026-04-26T03:29:18.73Z</time></trkpt><trkpt lat="43.154995" lon="2.3214583"><ele>141.0</ele><time>2026-04-26T03:29:19.73Z</time></trkpt><trkpt lat="43.15496" lon="2.32132"><ele>141.0</ele><time>2026-04-26T03:29:20.73Z</time></trkpt><trkpt lat="43.15493" lon="2.3211867"><ele>141.0</ele><time>2026-04-26T03:29:21.73Z</time></trkpt><trkpt lat="43.1549017" lon="2.3210533"><ele>141.0</ele><time>2026-04-26T03:29:22.738Z</time></trkpt><trkpt lat="43.1548833" lon="2.3209183"><ele>140.6</ele><time>2026-04-26T03:29:23.73Z</time></trkpt><trkpt lat="43.1548783" lon="2.3207883"><ele>140.2</ele><time>2026-04-26T03:29:24.73Z</time></trkpt><trkpt lat="43.15489" lon="2.3206533"><ele>139.8</ele><time>2026-04-26T03:29:25.728Z</time></trkpt><trkpt lat="43.1549183" lon="2.3205067"><ele>139.4</ele><time>2026-04-26T03:29:26.73Z</time></trkpt><trkpt lat="43.1549517" lon="2.32035"><ele>139.0</ele><time>2026-04-26T03:29:27.729Z</time></trkpt><trkpt lat="43.1549833" lon="2.32019"><ele>138.5</ele><time>2026-04-26T03:29:28.729Z</time></trkpt><trkpt lat="43.1550117" lon="2.3200333"><ele>138.0</ele><time>2026-04-26T03:29:29.728Z</time></trkpt><trkpt lat="43.15503" lon="2.319875"><ele>137.5</ele><time>2026-04-26T03:29:30.729Z</time></trkpt><trkpt lat="43.15505" lon="2.3197167"><ele>137.0</ele><time>2026-04-26T03:29:31.729Z</time></trkpt><trkpt lat="43.15506" lon="2.319555"><ele>136.6</ele><time>2026-04-26T03:29:32.729Z</time></trkpt><trkpt lat="43.1550633" lon="2.3194"><ele>136.2</ele><time>2026-04-26T03:29:33.729Z</time></trkpt><trkpt lat="43.1550583" lon="2.319255"><ele>135.8</ele><time>2026-04-26T03:29:34.728Z</time></trkpt><trkpt lat="43.155045" lon="2.3191217"><ele>135.4</ele><time>2026-04-26T03:29:35.729Z</time></trkpt><trkpt lat="43.1550233" lon="2.318995"><ele>135.0</ele><time>2026-04-26T03:29:36.728Z</time></trkpt><trkpt lat="43.155" lon="2.318885"><ele>134.5</ele><time>2026-04-26T03:29:37.73Z</time></trkpt><trkpt lat="43.154975" lon="2.3187933"><ele>134.0</ele><time>2026-04-26T03:29:38.729Z</time></trkpt><trkpt lat="43.154915" lon="2.3186883"><ele>133.5</ele><time>2026-04-26T03:29:40.731Z</time></trkpt><trkpt lat="43.1548167" lon="2.3186467"><ele>133.0</ele><time>2026-04-26T03:29:42.729Z</time></trkpt><trkpt lat="43.154745" lon="2.3186367"><ele>132.5</ele><time>2026-04-26T03:29:43.731Z</time></trkpt><trkpt lat="43.154655" lon="2.318645"><ele>132.0</ele><time>2026-04-26T03:29:44.73Z</time></trkpt><trkpt lat="43.154555" lon="2.3186867"><ele>132.0</ele><time>2026-04-26T03:29:45.728Z</time></trkpt><trkpt lat="43.1544517" lon="2.3187733"><ele>132.0</ele><time>2026-04-26T03:29:46.728Z</time></trkpt><trkpt lat="43.1543467" lon="2.318885"><ele>132.0</ele><time>2026-04-26T03:29:47.73Z</time></trkpt><trkpt lat="43.15424" lon="2.3190067"><ele>132.0</ele><time>2026-04-26T03:29:48.732Z</time></trkpt><trkpt lat="43.15413" lon="2.319125"><ele>131.33333333333334</ele><time>2026-04-26T03:29:49.729Z</time></trkpt><trkpt lat="43.1540117" lon="2.3192483"><ele>130.66666666666669</ele><time>2026-04-26T03:29:50.73Z</time></trkpt><trkpt lat="43.153885" lon="2.3193683"><ele>130.0</ele><time>2026-04-26T03:29:51.728Z</time></trkpt><trkpt lat="43.1537517" lon="2.319485"><ele>130.0</ele><time>2026-04-26T03:29:52.731Z</time></trkpt><trkpt lat="43.153615" lon="2.3195967"><ele>130.0</ele><time>2026-04-26T03:29:53.729Z</time></trkpt><trkpt lat="43.15347" lon="2.3197"><ele>130.0</ele><time>2026-04-26T03:29:54.728Z</time></trkpt><trkpt lat="43.15332" lon="2.3197967"><ele>130.0</ele><time>2026-04-26T03:29:55.731Z</time></trkpt><trkpt lat="43.1531633" lon="2.3198917"><ele>130.0</ele><time>2026-04-26T03:29:56.728Z</time></trkpt><trkpt lat="43.1530017" lon="2.31998"><ele>130.0</ele><time>2026-04-26T03:29:57.728Z</time></trkpt><trkpt lat="43.1528383" lon="2.32006"><ele>130.0</ele><time>2026-04-26T03:29:58.728Z</time></trkpt><trkpt lat="43.1526717" lon="2.3201333"><ele>130.0</ele><time>2026-04-26T03:29:59.728Z</time></trkpt><trkpt lat="43.1525033" lon="2.3202017"><ele>130.0</ele><time>2026-04-26T03:30:00.728Z</time></trkpt><trkpt lat="43.1523317" lon="2.3202617"><ele>130.0</ele><time>2026-04-26T03:30:01.735Z</time></trkpt><trkpt lat="43.1521567" lon="2.3203117"><ele>130.0</ele><time>2026-04-26T03:30:02.73Z</time></trkpt><trkpt lat="43.1519817" lon="2.3203517"><ele>130.0</ele><time>2026-04-26T03:30:03.729Z</time></trkpt><trkpt lat="43.1518033" lon="2.3203783"><ele>130.0</ele><time>2026-04-26T03:30:04.729Z</time></trkpt><trkpt lat="43.1516267" lon="2.3203967"><ele>130.0</ele><time>2026-04-26T03:30:05.729Z</time></trkpt><trkpt lat="43.1514517" lon="2.3204083"><ele>130.0</ele><time>2026-04-26T03:30:06.73Z</time></trkpt><trkpt lat="43.1512817" lon="2.3204133"><ele>130.66666666666669</ele><time>2026-04-26T03:30:07.729Z</time></trkpt><trkpt lat="43.1511133" lon="2.3204067"><ele>131.33333333333334</ele><time>2026-04-26T03:30:08.731Z</time></trkpt><trkpt lat="43.1509517" lon="2.3203883"><ele>132.0</ele><time>2026-04-26T03:30:09.731Z</time></trkpt><trkpt lat="43.150795" lon="2.320365"><ele>131.75</ele><time>2026-04-26T03:30:10.732Z</time></trkpt><trkpt lat="43.15065" lon="2.3203367"><ele>131.5</ele><time>2026-04-26T03:30:11.728Z</time></trkpt><trkpt lat="43.1505133" lon="2.3203067"><ele>131.25</ele><time>2026-04-26T03:30:12.729Z</time></trkpt><trkpt lat="43.15038" lon="2.3202733"><ele>131.0</ele><time>2026-04-26T03:30:13.727Z</time></trkpt><trkpt lat="43.1502517" lon="2.32024"><ele>131.0</ele><time>2026-04-26T03:30:14.73Z</time></trkpt><trkpt lat="43.150125" lon="2.3202083"><ele>131.0</ele><time>2026-04-26T03:30:15.728Z</time></trkpt><trkpt lat="43.1500017" lon="2.3201733"><ele>131.0</ele><time>2026-04-26T03:30:16.729Z</time></trkpt><trkpt lat="43.149875" lon="2.32015"><ele>131.0</ele><time>2026-04-26T03:30:17.728Z</time></trkpt><trkpt lat="43.1497467" lon="2.320145"><ele>131.0</ele><time>2026-04-26T03:30:18.729Z</time></trkpt><trkpt lat="43.1496133" lon="2.3201633"><ele>131.0</ele><time>2026-04-26T03:30:19.728Z</time></trkpt><trkpt lat="43.1494783" lon="2.320205"><ele>131.0</ele><time>2026-04-26T03:30:20.728Z</time></trkpt><trkpt lat="43.1493483" lon="2.3202667"><ele>131.0</ele><time>2026-04-26T03:30:21.728Z</time></trkpt><trkpt lat="43.14923" lon="2.3203483"><ele>131.0</ele><time>2026-04-26T03:30:22.729Z</time></trkpt><trkpt lat="43.149125" lon="2.3204567"><ele>131.0</ele><time>2026-04-26T03:30:23.727Z</time></trkpt><trkpt lat="43.149035" lon="2.3205967"><ele>131.0</ele><time>2026-04-26T03:30:24.728Z</time></trkpt><trkpt lat="43.1489617" lon="2.32076"><ele>131.0</ele><time>2026-04-26T03:30:25.727Z</time></trkpt><trkpt lat="43.1489083" lon="2.32094"><ele>131.0</ele><time>2026-04-26T03:30:26.729Z</time></trkpt><trkpt lat="43.148855" lon="2.3211167"><ele>131.0</ele><time>2026-04-26T03:30:27.727Z</time></trkpt><trkpt lat="43.1487967" lon="2.3212817"><ele>131.0</ele><time>2026-04-26T03:30:28.729Z</time></trkpt><trkpt lat="43.14873" lon="2.321435"><ele>131.0</ele><time>2026-04-26T03:30:29.731Z</time></trkpt><trkpt lat="43.14866" lon="2.3215867"><ele>132.0</ele><time>2026-04-26T03:30:30.73Z</time></trkpt><trkpt lat="43.14859" lon="2.321735"><ele>133.0</ele><time>2026-04-26T03:30:31.73Z</time></trkpt><trkpt lat="43.1485217" lon="2.3218717"><ele>134.0</ele><time>2026-04-26T03:30:32.731Z</time></trkpt><trkpt lat="43.1484433" lon="2.3219883"><ele>135.0</ele><time>2026-04-26T03:30:33.73Z</time></trkpt><trkpt lat="43.148355" lon="2.3220883"><ele>135.0</ele><time>2026-04-26T03:30:34.729Z</time></trkpt><trkpt lat="43.1482533" lon="2.3221683"><ele>135.0</ele><time>2026-04-26T03:30:35.73Z</time></trkpt><trkpt lat="43.14814" lon="2.32223"><ele>135.0</ele><time>2026-04-26T03:30:36.732Z</time></trkpt><trkpt lat="43.1480283" lon="2.322275"><ele>135.0</ele><time>2026-04-26T03:30:37.731Z</time></trkpt><trkpt lat="43.1479133" lon="2.322315"><ele>135.75</ele><time>2026-04-26T03:30:38.731Z</time></trkpt><trkpt lat="43.1478" lon="2.322355"><ele>136.5</ele><time>2026-04-26T03:30:39.731Z</time></trkpt><trkpt lat="43.1476883" lon="2.3223983"><ele>137.25</ele><time>2026-04-26T03:30:40.73Z</time></trkpt><trkpt lat="43.147575" lon="2.3224417"><ele>138.0</ele><time>2026-04-26T03:30:41.731Z</time></trkpt><trkpt lat="43.147465" lon="2.32248"><ele>137.4</ele><time>2026-04-26T03:30:42.729Z</time></trkpt><trkpt lat="43.1473567" lon="2.32249"><ele>136.8</ele><time>2026-04-26T03:30:43.729Z</time></trkpt><trkpt lat="43.14725" lon="2.3224717"><ele>136.2</ele><time>2026-04-26T03:30:44.734Z</time></trkpt><trkpt lat="43.1471533" lon="2.32244"><ele>135.6</ele><time>2026-04-26T03:30:45.728Z</time></trkpt><trkpt lat="43.14706" lon="2.3224167"><ele>135.0</ele><time>2026-04-26T03:30:46.729Z</time></trkpt><trkpt lat="43.146965" lon="2.3224067"><ele>135.0</ele><time>2026-04-26T03:30:47.728Z</time></trkpt><trkpt lat="43.14687" lon="2.322405"><ele>135.0</ele><time>2026-04-26T03:30:48.728Z</time></trkpt><trkpt lat="43.1467883" lon="2.3224633"><ele>135.0</ele><time>2026-04-26T03:30:49.731Z</time></trkpt><trkpt lat="43.1467067" lon="2.3225383"><ele>135.0</ele><time>2026-04-26T03:30:50.732Z</time></trkpt><trkpt lat="43.1466233" lon="2.322625"><ele>135.0</ele><time>2026-04-26T03:30:51.728Z</time></trkpt><trkpt lat="43.14654" lon="2.3227183"><ele>135.2</ele><time>2026-04-26T03:30:52.728Z</time></trkpt><trkpt lat="43.14645" lon="2.32281"><ele>135.4</ele><time>2026-04-26T03:30:53.729Z</time></trkpt><trkpt lat="43.14635" lon="2.3228733"><ele>135.6</ele><time>2026-04-26T03:30:54.729Z</time></trkpt><trkpt lat="43.1462833" lon="2.3229667"><ele>135.8</ele><time>2026-04-26T03:30:55.728Z</time></trkpt><trkpt lat="43.1462033" lon="2.3230633"><ele>136.0</ele><time>2026-04-26T03:30:56.729Z</time></trkpt><trkpt lat="43.1461183" lon="2.3231583"><ele>136.0</ele><time>2026-04-26T03:30:57.728Z</time></trkpt><trkpt lat="43.1460167" lon="2.323265"><ele>136.0</ele><time>2026-04-26T03:30:58.731Z</time></trkpt><trkpt lat="43.1459383" lon="2.32338"><ele>136.0</ele><time>2026-04-26T03:30:59.729Z</time></trkpt><trkpt lat="43.1458667" lon="2.32346"><ele>136.0</ele><time>2026-04-26T03:31:00.732Z</time></trkpt><trkpt lat="43.1458" lon="2.3235417"><ele>136.0</ele><time>2026-04-26T03:31:01.729Z</time></trkpt><trkpt lat="43.1457233" lon="2.3236167"><ele>135.33333333333334</ele><time>2026-04-26T03:31:02.73Z</time></trkpt><trkpt lat="43.1456517" lon="2.3236783"><ele>134.66666666666669</ele><time>2026-04-26T03:31:03.729Z</time></trkpt><trkpt lat="43.14559" lon="2.32374"><ele>134.0</ele><time>2026-04-26T03:31:04.729Z</time></trkpt><trkpt lat="43.1454917" lon="2.32379"><ele>133.33333333333334</ele><time>2026-04-26T03:31:06.731Z</time></trkpt><trkpt lat="43.1454083" lon="2.3236983"><ele>132.66666666666666</ele><time>2026-04-26T03:31:08.729Z</time></trkpt><trkpt lat="43.1453767" lon="2.3236067"><ele>132.0</ele><time>2026-04-26T03:31:09.729Z</time></trkpt><trkpt lat="43.1453217" lon="2.3235183"><ele>132.0</ele><time>2026-04-26T03:31:10.729Z</time></trkpt><trkpt lat="43.1452733" lon="2.3234283"><ele>132.0</ele><time>2026-04-26T03:31:11.732Z</time></trkpt><trkpt lat="43.1452083" lon="2.3233333"><ele>132.0</ele><time>2026-04-26T03:31:12.729Z</time></trkpt><trkpt lat="43.1451433" lon="2.323235"><ele>132.0</ele><time>2026-04-26T03:31:13.73Z</time></trkpt><trkpt lat="43.1450767" lon="2.32313"><ele>132.0</ele><time>2026-04-26T03:31:14.728Z</time></trkpt><trkpt lat="43.14502" lon="2.32303"><ele>131.79999999999998</ele><time>2026-04-26T03:31:15.728Z</time></trkpt><trkpt lat="43.1449667" lon="2.3229417"><ele>131.6</ele><time>2026-04-26T03:31:16.729Z</time></trkpt><trkpt lat="43.1449117" lon="2.32287"><ele>131.39999999999998</ele><time>2026-04-26T03:31:17.728Z</time></trkpt><trkpt lat="43.1448367" lon="2.3228233"><ele>131.2</ele><time>2026-04-26T03:31:18.729Z</time></trkpt><trkpt lat="43.1447383" lon="2.32281"><ele>131.0</ele><time>2026-04-26T03:31:19.729Z</time></trkpt><trkpt lat="43.1446283" lon="2.3228067"><ele>131.0</ele><time>2026-04-26T03:31:20.731Z</time></trkpt><trkpt lat="43.1445133" lon="2.3228017"><ele>131.0</ele><time>2026-04-26T03:31:21.729Z</time></trkpt><trkpt lat="43.144395" lon="2.32279"><ele>131.0</ele><time>2026-04-26T03:31:22.729Z</time></trkpt><trkpt lat="43.14427" lon="2.32278"><ele>131.0</ele><time>2026-04-26T03:31:23.729Z</time></trkpt><trkpt lat="43.14414" lon="2.3227733"><ele>131.5</ele><time>2026-04-26T03:31:24.729Z</time></trkpt><trkpt lat="43.1440033" lon="2.3227617"><ele>132.0</ele><time>2026-04-26T03:31:25.729Z</time></trkpt><trkpt lat="43.143865" lon="2.3227533"><ele>132.5</ele><time>2026-04-26T03:31:26.728Z</time></trkpt><trkpt lat="43.1437267" lon="2.322745"><ele>133.0</ele><time>2026-04-26T03:31:27.729Z</time></trkpt><trkpt lat="43.14359" lon="2.322735"><ele>133.0</ele><time>2026-04-26T03:31:28.728Z</time></trkpt><trkpt lat="43.1434617" lon="2.322725"><ele>133.0</ele><time>2026-04-26T03:31:29.728Z</time></trkpt><trkpt lat="43.14334" lon="2.3227117"><ele>133.0</ele><time>2026-04-26T03:31:30.729Z</time></trkpt><trkpt lat="43.143225" lon="2.3226983"><ele>133.0</ele><time>2026-04-26T03:31:31.728Z</time></trkpt><trkpt lat="43.1431117" lon="2.3226883"><ele>133.4</ele><time>2026-04-26T03:31:32.728Z</time></trkpt><trkpt lat="43.1430033" lon="2.3226817"><ele>133.8</ele><time>2026-04-26T03:31:33.732Z</time></trkpt><trkpt lat="43.1429083" lon="2.3226733"><ele>134.2</ele><time>2026-04-26T03:31:34.728Z</time></trkpt><trkpt lat="43.142825" lon="2.3226667"><ele>134.6</ele><time>2026-04-26T03:31:35.729Z</time></trkpt><trkpt lat="43.1427533" lon="2.3226567"><ele>135.0</ele><time>2026-04-26T03:31:36.731Z</time></trkpt><trkpt lat="43.142655" lon="2.3225883"><ele>135.0</ele><time>2026-04-26T03:31:38.733Z</time></trkpt><trkpt lat="43.1426617" lon="2.3224317"><ele>135.0</ele><time>2026-04-26T03:31:40.731Z</time></trkpt><trkpt lat="43.1426867" lon="2.3222783"><ele>135.0</ele><time>2026-04-26T03:31:42.728Z</time></trkpt><trkpt lat="43.1426583" lon="2.3221633"><ele>135.0</ele><time>2026-04-26T03:31:44.731Z</time></trkpt><trkpt lat="43.1426167" lon="2.322095"><ele>135.0</ele><time>2026-04-26T03:31:46.731Z</time></trkpt><trkpt lat="43.142565" lon="2.321995"><ele>135.66666666666666</ele><time>2026-04-26T03:31:55.729Z</time></trkpt><trkpt lat="43.142485" lon="2.3219517"><ele>136.33333333333334</ele><time>2026-04-26T03:31:57.729Z</time></trkpt><trkpt lat="43.14242" lon="2.3219683"><ele>137.0</ele><time>2026-04-26T03:31:58.728Z</time></trkpt><trkpt lat="43.142355" lon="2.3220067"><ele>137.66666666666669</ele><time>2026-04-26T03:31:59.729Z</time></trkpt><trkpt lat="43.1422833" lon="2.32205"><ele>138.33333333333334</ele><time>2026-04-26T03:32:00.729Z</time></trkpt><trkpt lat="43.142205" lon="2.322095"><ele>139.0</ele><time>2026-04-26T03:32:01.729Z</time></trkpt><trkpt lat="43.1421183" lon="2.322155"><ele>138.4</ele><time>2026-04-26T03:32:02.731Z</time></trkpt><trkpt lat="43.1420333" lon="2.3222183"><ele>137.8</ele><time>2026-04-26T03:32:03.73Z</time></trkpt><trkpt lat="43.1419483" lon="2.3222783"><ele>137.2</ele><time>2026-04-26T03:32:04.731Z</time></trkpt><trkpt lat="43.1418567" lon="2.3223333"><ele>136.6</ele><time>2026-04-26T03:32:05.729Z</time></trkpt><trkpt lat="43.1417567" lon="2.32239"><ele>136.0</ele><time>2026-04-26T03:32:06.729Z</time></trkpt><trkpt lat="43.1416433" lon="2.322445"><ele>136.0</ele><time>2026-04-26T03:32:07.731Z</time></trkpt><trkpt lat="43.141525" lon="2.3225083"><ele>136.0</ele><time>2026-04-26T03:32:08.731Z</time></trkpt><trkpt lat="43.1413983" lon="2.322565"><ele>136.0</ele><time>2026-04-26T03:32:09.728Z</time></trkpt><trkpt lat="43.1412733" lon="2.3226133"><ele>136.0</ele><time>2026-04-26T03:32:10.728Z</time></trkpt><trkpt lat="43.1411533" lon="2.3226533"><ele>136.0</ele><time>2026-04-26T03:32:11.729Z</time></trkpt><trkpt lat="43.1410367" lon="2.3226833"><ele>136.0</ele><time>2026-04-26T03:32:12.73Z</time></trkpt><trkpt lat="43.14092" lon="2.3227033"><ele>136.0</ele><time>2026-04-26T03:32:13.729Z</time></trkpt><trkpt lat="43.1407967" lon="2.3227183"><ele>136.0</ele><time>2026-04-26T03:32:14.729Z</time></trkpt><trkpt lat="43.1406667" lon="2.32272"><ele>135.75</ele><time>2026-04-26T03:32:15.728Z</time></trkpt><trkpt lat="43.1405317" lon="2.32271"><ele>135.5</ele><time>2026-04-26T03:32:16.728Z</time></trkpt><trkpt lat="43.1403917" lon="2.3226867"><ele>135.25</ele><time>2026-04-26T03:32:17.728Z</time></trkpt><trkpt lat="43.1402467" lon="2.3226633"><ele>135.0</ele><time>2026-04-26T03:32:18.729Z</time></trkpt><trkpt lat="43.1400983" lon="2.3226383"><ele>135.0</ele><time>2026-04-26T03:32:19.73Z</time></trkpt><trkpt lat="43.13995" lon="2.3226033"><ele>135.0</ele><time>2026-04-26T03:32:20.732Z</time></trkpt><trkpt lat="43.1398" lon="2.3225533"><ele>135.0</ele><time>2026-04-26T03:32:21.73Z</time></trkpt><trkpt lat="43.1396483" lon="2.3224933"><ele>134.66666666666666</ele><time>2026-04-26T03:32:22.73Z</time></trkpt><trkpt lat="43.1394967" lon="2.3224267"><ele>134.33333333333331</ele><time>2026-04-26T03:32:23.728Z</time></trkpt><trkpt lat="43.139345" lon="2.3223533"><ele>134.0</ele><time>2026-04-26T03:32:24.731Z</time></trkpt><trkpt lat="43.1391933" lon="2.322275"><ele>135.0</ele><time>2026-04-26T03:32:25.728Z</time></trkpt><trkpt lat="43.1390417" lon="2.3221967"><ele>136.0</ele><time>2026-04-26T03:32:26.729Z</time></trkpt><trkpt lat="43.138895" lon="2.322115"><ele>137.0</ele><time>2026-04-26T03:32:27.728Z</time></trkpt><trkpt lat="43.13875" lon="2.3220333"><ele>137.0</ele><time>2026-04-26T03:32:28.728Z</time></trkpt><trkpt lat="43.1386033" lon="2.3219567"><ele>137.0</ele><time>2026-04-26T03:32:29.729Z</time></trkpt><trkpt lat="43.1384517" lon="2.3218783"><ele>137.0</ele><time>2026-04-26T03:32:30.73Z</time></trkpt><trkpt lat="43.1382967" lon="2.3217967"><ele>137.0</ele><time>2026-04-26T03:32:31.729Z</time></trkpt><trkpt lat="43.1381417" lon="2.3217133"><ele>137.0</ele><time>2026-04-26T03:32:32.729Z</time></trkpt><trkpt lat="43.137985" lon="2.32163"><ele>137.0</ele><time>2026-04-26T03:32:33.731Z</time></trkpt><trkpt lat="43.1378283" lon="2.3215467"><ele>137.0</ele><time>2026-04-26T03:32:34.73Z</time></trkpt><trkpt lat="43.1376733" lon="2.3214633"><ele>137.0</ele><time>2026-04-26T03:32:35.729Z</time></trkpt><trkpt lat="43.13752" lon="2.3213783"><ele>137.0</ele><time>2026-04-26T03:32:36.729Z</time></trkpt><trkpt lat="43.1373717" lon="2.321295"><ele>138.33333333333331</ele><time>2026-04-26T03:32:37.729Z</time></trkpt><trkpt lat="43.1372267" lon="2.3212167"><ele>139.66666666666666</ele><time>2026-04-26T03:32:38.729Z</time></trkpt><trkpt lat="43.137085" lon="2.3211417"><ele>141.0</ele><time>2026-04-26T03:32:39.728Z</time></trkpt><trkpt lat="43.1369417" lon="2.3210667"><ele>141.0</ele><time>2026-04-26T03:32:40.729Z</time></trkpt><trkpt lat="43.1367967" lon="2.32099"><ele>141.0</ele><time>2026-04-26T03:32:41.727Z</time></trkpt><trkpt lat="43.1366467" lon="2.3209117"><ele>141.0</ele><time>2026-04-26T03:32:42.729Z</time></trkpt><trkpt lat="43.136495" lon="2.3208317"><ele>139.0</ele><time>2026-04-26T03:32:43.727Z</time></trkpt><trkpt lat="43.1363417" lon="2.3207533"><ele>137.0</ele><time>2026-04-26T03:32:44.73Z</time></trkpt><trkpt lat="43.136195" lon="2.320675"><ele>135.0</ele><time>2026-04-26T03:32:45.728Z</time></trkpt><trkpt lat="43.1360567" lon="2.3206033"><ele>136.25</ele><time>2026-04-26T03:32:46.728Z</time></trkpt><trkpt lat="43.1359183" lon="2.3205383"><ele>137.5</ele><time>2026-04-26T03:32:47.728Z</time></trkpt><trkpt lat="43.1357933" lon="2.3204733"><ele>138.75</ele><time>2026-04-26T03:32:48.73Z</time></trkpt><trkpt lat="43.1356767" lon="2.3204033"><ele>140.0</ele><time>2026-04-26T03:32:49.728Z</time></trkpt><trkpt lat="43.135555" lon="2.32033"><ele>140.0</ele><time>2026-04-26T03:32:50.728Z</time></trkpt><trkpt lat="43.1354233" lon="2.32027"><ele>140.0</ele><time>2026-04-26T03:32:51.729Z</time></trkpt><trkpt lat="43.135285" lon="2.3202083"><ele>140.0</ele><time>2026-04-26T03:32:52.729Z</time></trkpt><trkpt lat="43.1351483" lon="2.3201533"><ele>140.0</ele><time>2026-04-26T03:32:53.73Z</time></trkpt><trkpt lat="43.1350117" lon="2.320105"><ele>143.0</ele><time>2026-04-26T03:32:54.729Z</time></trkpt><trkpt lat="43.1348767" lon="2.3200783"><ele>146.0</ele><time>2026-04-26T03:32:55.729Z</time></trkpt><trkpt lat="43.1347367" lon="2.3200733"><ele>149.0</ele><time>2026-04-26T03:32:56.728Z</time></trkpt><trkpt lat="43.1345917" lon="2.3200817"><ele>152.0</ele><time>2026-04-26T03:32:57.728Z</time></trkpt><trkpt lat="43.1344433" lon="2.3201"><ele>152.0</ele><time>2026-04-26T03:32:58.729Z</time></trkpt><trkpt lat="43.1342967" lon="2.320125"><ele>152.0</ele><time>2026-04-26T03:32:59.727Z</time></trkpt><trkpt lat="43.1341567" lon="2.3201483"><ele>152.0</ele><time>2026-04-26T03:33:00.729Z</time></trkpt><trkpt lat="43.134025" lon="2.3201717"><ele>152.0</ele><time>2026-04-26T03:33:01.733Z</time></trkpt><trkpt lat="43.1339" lon="2.3202033"><ele>153.0</ele><time>2026-04-26T03:33:02.73Z</time></trkpt><trkpt lat="43.1337733" lon="2.32024"><ele>154.0</ele><time>2026-04-26T03:33:03.729Z</time></trkpt><trkpt lat="43.1336467" lon="2.3202733"><ele>155.0</ele><time>2026-04-26T03:33:04.729Z</time></trkpt><trkpt lat="43.13352" lon="2.32032"><ele>156.0</ele><time>2026-04-26T03:33:05.729Z</time></trkpt><trkpt lat="43.13339" lon="2.32037"><ele>156.0</ele><time>2026-04-26T03:33:06.732Z</time></trkpt><trkpt lat="43.133255" lon="2.32042"><ele>156.0</ele><time>2026-04-26T03:33:07.731Z</time></trkpt><trkpt lat="43.1331133" lon="2.3204517"><ele>156.0</ele><time>2026-04-26T03:33:08.73Z</time></trkpt><trkpt lat="43.1329617" lon="2.320475"><ele>156.0</ele><time>2026-04-26T03:33:09.731Z</time></trkpt><trkpt lat="43.1328017" lon="2.320505"><ele>153.33333333333334</ele><time>2026-04-26T03:33:10.73Z</time></trkpt><trkpt lat="43.1326433" lon="2.3205217"><ele>150.66666666666669</ele><time>2026-04-26T03:33:11.729Z</time></trkpt><trkpt lat="43.1324833" lon="2.320545"><ele>148.0</ele><time>2026-04-26T03:33:12.73Z</time></trkpt><trkpt lat="43.13232" lon="2.3205733"><ele>145.33333333333334</ele><time>2026-04-26T03:33:13.729Z</time></trkpt><trkpt lat="43.1321533" lon="2.3206067"><ele>142.66666666666666</ele><time>2026-04-26T03:33:14.729Z</time></trkpt><trkpt lat="43.1319833" lon="2.320645"><ele>140.0</ele><time>2026-04-26T03:33:15.729Z</time></trkpt><trkpt lat="43.1318117" lon="2.3206933"><ele>140.0</ele><time>2026-04-26T03:33:16.729Z</time></trkpt><trkpt lat="43.131635" lon="2.3207433"><ele>140.0</ele><time>2026-04-26T03:33:17.728Z</time></trkpt><trkpt lat="43.1314617" lon="2.3207917"><ele>140.0</ele><time>2026-04-26T03:33:18.729Z</time></trkpt><trkpt lat="43.1312883" lon="2.32084"><ele>140.33333333333331</ele><time>2026-04-26T03:33:19.731Z</time></trkpt><trkpt lat="43.1311167" lon="2.3208867"><ele>140.66666666666666</ele><time>2026-04-26T03:33:20.729Z</time></trkpt><trkpt lat="43.1309483" lon="2.3209283"><ele>141.0</ele><time>2026-04-26T03:33:21.728Z</time></trkpt><trkpt lat="43.1307867" lon="2.3209683"><ele>141.5</ele><time>2026-04-26T03:33:22.73Z</time></trkpt><trkpt lat="43.1306333" lon="2.3210033"><ele>142.0</ele><time>2026-04-26T03:33:23.728Z</time></trkpt><trkpt lat="43.1304867" lon="2.3210383"><ele>142.5</ele><time>2026-04-26T03:33:24.728Z</time></trkpt><trkpt lat="43.130345" lon="2.3210767"><ele>143.0</ele><time>2026-04-26T03:33:25.728Z</time></trkpt><trkpt lat="43.1302017" lon="2.32112"><ele>143.0</ele><time>2026-04-26T03:33:26.729Z</time></trkpt><trkpt lat="43.1300567" lon="2.3211667"><ele>143.0</ele><time>2026-04-26T03:33:27.728Z</time></trkpt><trkpt lat="43.1299083" lon="2.3212217"><ele>143.0</ele><time>2026-04-26T03:33:28.73Z</time></trkpt><trkpt lat="43.12976" lon="2.3212817"><ele>143.75</ele><time>2026-04-26T03:33:29.729Z</time></trkpt><trkpt lat="43.129615" lon="2.3213367"><ele>144.5</ele><time>2026-04-26T03:33:30.729Z</time></trkpt><trkpt lat="43.1294767" lon="2.32139"><ele>145.25</ele><time>2026-04-26T03:33:31.729Z</time></trkpt><trkpt lat="43.129345" lon="2.32144"><ele>146.0</ele><time>2026-04-26T03:33:32.729Z</time></trkpt><trkpt lat="43.1292133" lon="2.32149"><ele>144.75</ele><time>2026-04-26T03:33:33.729Z</time></trkpt><trkpt lat="43.12908" lon="2.3215367"><ele>143.5</ele><time>2026-04-26T03:33:34.732Z</time></trkpt><trkpt lat="43.128945" lon="2.3215767"><ele>142.25</ele><time>2026-04-26T03:33:35.729Z</time></trkpt><trkpt lat="43.12881" lon="2.3216083"><ele>141.0</ele><time>2026-04-26T03:33:36.729Z</time></trkpt><trkpt lat="43.1286833" lon="2.321625"><ele>141.0</ele><time>2026-04-26T03:33:37.729Z</time></trkpt><trkpt lat="43.1285667" lon="2.3216267"><ele>141.0</ele><time>2026-04-26T03:33:38.729Z</time></trkpt><trkpt lat="43.1284567" lon="2.32162"><ele>141.0</ele><time>2026-04-26T03:33:39.728Z</time></trkpt><trkpt lat="43.1283533" lon="2.321605"><ele>141.0</ele><time>2026-04-26T03:33:40.728Z</time></trkpt><trkpt lat="43.1282567" lon="2.32158"><ele>141.0</ele><time>2026-04-26T03:33:41.728Z</time></trkpt><trkpt lat="43.12816" lon="2.3215517"><ele>141.0</ele><time>2026-04-26T03:33:42.729Z</time></trkpt><trkpt lat="43.1280683" lon="2.3215167"><ele>141.0</ele><time>2026-04-26T03:33:43.727Z</time></trkpt><trkpt lat="43.127985" lon="2.3214733"><ele>141.0</ele><time>2026-04-26T03:33:44.729Z</time></trkpt><trkpt lat="43.1279" lon="2.32143"><ele>141.0</ele><time>2026-04-26T03:33:45.729Z</time></trkpt><trkpt lat="43.1278117" lon="2.32139"><ele>141.0</ele><time>2026-04-26T03:33:46.73Z</time></trkpt><trkpt lat="43.1277183" lon="2.32135"><ele>141.6</ele><time>2026-04-26T03:33:47.728Z</time></trkpt><trkpt lat="43.1276333" lon="2.3213167"><ele>142.2</ele><time>2026-04-26T03:33:48.729Z</time></trkpt><trkpt lat="43.12755" lon="2.3212833"><ele>142.8</ele><time>2026-04-26T03:33:49.729Z</time></trkpt><trkpt lat="43.1274633" lon="2.3212467"><ele>143.4</ele><time>2026-04-26T03:33:50.728Z</time></trkpt><trkpt lat="43.1273667" lon="2.3212033"><ele>144.0</ele><time>2026-04-26T03:33:51.729Z</time></trkpt><trkpt lat="43.1272667" lon="2.32116"><ele>144.0</ele><time>2026-04-26T03:33:52.728Z</time></trkpt><trkpt lat="43.127175" lon="2.321105"><ele>144.0</ele><time>2026-04-26T03:33:53.728Z</time></trkpt><trkpt lat="43.1270817" lon="2.3210667"><ele>144.0</ele><time>2026-04-26T03:33:54.729Z</time></trkpt><trkpt lat="43.1269917" lon="2.321025"><ele>144.0</ele><time>2026-04-26T03:33:55.731Z</time></trkpt><trkpt lat="43.1269083" lon="2.3209783"><ele>144.0</ele><time>2026-04-26T03:33:56.728Z</time></trkpt><trkpt lat="43.1268083" lon="2.3209383"><ele>144.0</ele><time>2026-04-26T03:33:57.731Z</time></trkpt><trkpt lat="43.1267167" lon="2.320905"><ele>144.0</ele><time>2026-04-26T03:33:58.73Z</time></trkpt><trkpt lat="43.12663" lon="2.3208733"><ele>144.0</ele><time>2026-04-26T03:33:59.73Z</time></trkpt><trkpt lat="43.1265483" lon="2.32084"><ele>144.0</ele><time>2026-04-26T03:34:00.728Z</time></trkpt><trkpt lat="43.1264767" lon="2.32081"><ele>144.0</ele><time>2026-04-26T03:34:01.728Z</time></trkpt><trkpt lat="43.1264017" lon="2.32078"><ele>144.0</ele><time>2026-04-26T03:34:02.731Z</time></trkpt><trkpt lat="43.1263267" lon="2.3207433"><ele>143.85714285714286</ele><time>2026-04-26T03:34:03.728Z</time></trkpt><trkpt lat="43.12625" lon="2.3207083"><ele>143.71428571428572</ele><time>2026-04-26T03:34:04.728Z</time></trkpt><trkpt lat="43.1261733" lon="2.3206817"><ele>143.57142857142856</ele><time>2026-04-26T03:34:05.728Z</time></trkpt><trkpt lat="43.1261" lon="2.3206533"><ele>143.42857142857144</ele><time>2026-04-26T03:34:06.729Z</time></trkpt><trkpt lat="43.126025" lon="2.320625"><ele>143.28571428571428</ele><time>2026-04-26T03:34:07.728Z</time></trkpt><trkpt lat="43.1259583" lon="2.3206067"><ele>143.14285714285714</ele><time>2026-04-26T03:34:08.729Z</time></trkpt><trkpt lat="43.1258967" lon="2.3205883"><ele>143.0</ele><time>2026-04-26T03:34:09.728Z</time></trkpt><trkpt lat="43.1258167" lon="2.3205267"><ele>142.85714285714283</ele><time>2026-04-26T03:34:11.728Z</time></trkpt><trkpt lat="43.1257583" lon="2.3204917"><ele>142.71428571428572</ele><time>2026-04-26T03:34:13.728Z</time></trkpt><trkpt lat="43.1256983" lon="2.3205267"><ele>142.57142857142856</ele><time>2026-04-26T03:34:17.729Z</time></trkpt><trkpt lat="43.1256633" lon="2.3206117"><ele>142.42857142857142</ele><time>2026-04-26T03:34:21.73Z</time></trkpt><trkpt lat="43.1255983" lon="2.3206233"><ele>142.28571428571428</ele><time>2026-04-26T03:34:23.73Z</time></trkpt><trkpt lat="43.1255283" lon="2.3206117"><ele>142.14285714285714</ele><time>2026-04-26T03:34:25.73Z</time></trkpt><trkpt lat="43.12545" lon="2.3205933"><ele>142.0</ele><time>2026-04-26T03:34:27.728Z</time></trkpt><trkpt lat="43.125315" lon="2.3205783"><ele>142.0</ele><time>2026-04-26T03:34:29.729Z</time></trkpt><trkpt lat="43.1252333" lon="2.3205883"><ele>142.0</ele><time>2026-04-26T03:34:30.728Z</time></trkpt><trkpt lat="43.125165" lon="2.3205983"><ele>142.0</ele><time>2026-04-26T03:34:31.727Z</time></trkpt><trkpt lat="43.1250967" lon="2.32061"><ele>142.0</ele><time>2026-04-26T03:34:32.73Z</time></trkpt><trkpt lat="43.1250317" lon="2.3206183"><ele>142.0</ele><time>2026-04-26T03:34:33.729Z</time></trkpt><trkpt lat="43.1249583" lon="2.3206217"><ele>142.0</ele><time>2026-04-26T03:34:34.729Z</time></trkpt><trkpt lat="43.1248733" lon="2.320625"><ele>142.0</ele><time>2026-04-26T03:34:35.728Z</time></trkpt><trkpt lat="43.1247867" lon="2.320625"><ele>141.83333333333334</ele><time>2026-04-26T03:34:36.728Z</time></trkpt><trkpt lat="43.1247017" lon="2.3206267"><ele>141.66666666666669</ele><time>2026-04-26T03:34:37.729Z</time></trkpt><trkpt lat="43.1246217" lon="2.3206267"><ele>141.5</ele><time>2026-04-26T03:34:38.729Z</time></trkpt><trkpt lat="43.1245467" lon="2.3206367"><ele>141.33333333333334</ele><time>2026-04-26T03:34:39.729Z</time></trkpt><trkpt lat="43.1244733" lon="2.3206467"><ele>141.16666666666666</ele><time>2026-04-26T03:34:40.728Z</time></trkpt><trkpt lat="43.12439" lon="2.3206517"><ele>141.0</ele><time>2026-04-26T03:34:41.729Z</time></trkpt><trkpt lat="43.1243017" lon="2.3206517"><ele>141.0</ele><time>2026-04-26T03:34:42.728Z</time></trkpt><trkpt lat="43.1242167" lon="2.3206483"><ele>141.0</ele><time>2026-04-26T03:34:43.729Z</time></trkpt><trkpt lat="43.124135" lon="2.320635"><ele>141.0</ele><time>2026-04-26T03:34:44.73Z</time></trkpt><trkpt lat="43.1240567" lon="2.3206067"><ele>141.0</ele><time>2026-04-26T03:34:45.729Z</time></trkpt><trkpt lat="43.12398" lon="2.3205667"><ele>141.0</ele><time>2026-04-26T03:34:46.73Z</time></trkpt><trkpt lat="43.1239083" lon="2.32052"><ele>141.0</ele><time>2026-04-26T03:34:47.728Z</time></trkpt><trkpt lat="43.123855" lon="2.3204667"><ele>141.33333333333334</ele><time>2026-04-26T03:34:48.729Z</time></trkpt><trkpt lat="43.123775" lon="2.3204"><ele>141.66666666666666</ele><time>2026-04-26T03:34:50.73Z</time></trkpt><trkpt lat="43.1236717" lon="2.3203817"><ele>142.0</ele><time>2026-04-26T03:34:52.729Z</time></trkpt><trkpt lat="43.1236117" lon="2.3203533"><ele>142.33333333333331</ele><time>2026-04-26T03:34:53.729Z</time></trkpt><trkpt lat="43.1235417" lon="2.320295"><ele>142.66666666666666</ele><time>2026-04-26T03:34:54.728Z</time></trkpt><trkpt lat="43.123465" lon="2.3202083"><ele>143.0</ele><time>2026-04-26T03:34:55.727Z</time></trkpt><trkpt lat="43.123385" lon="2.3201117"><ele>143.0</ele><time>2026-04-26T03:34:56.729Z</time></trkpt><trkpt lat="43.1233083" lon="2.3200183"><ele>143.0</ele><time>2026-04-26T03:34:57.733Z</time></trkpt><trkpt lat="43.1232417" lon="2.3199183"><ele>143.0</ele><time>2026-04-26T03:34:58.728Z</time></trkpt><trkpt lat="43.12318" lon="2.3198067"><ele>143.0</ele><time>2026-04-26T03:34:59.728Z</time></trkpt><trkpt lat="43.1231183" lon="2.3196933"><ele>143.0</ele><time>2026-04-26T03:35:00.729Z</time></trkpt><trkpt lat="43.1230617" lon="2.3195717"><ele>143.25</ele><time>2026-04-26T03:35:01.729Z</time></trkpt><trkpt lat="43.12301" lon="2.3194433"><ele>143.5</ele><time>2026-04-26T03:35:02.73Z</time></trkpt><trkpt lat="43.122965" lon="2.3193033"><ele>143.75</ele><time>2026-04-26T03:35:03.728Z</time></trkpt><trkpt lat="43.1229217" lon="2.3191533"><ele>144.0</ele><time>2026-04-26T03:35:04.728Z</time></trkpt><trkpt lat="43.12289" lon="2.3189883"><ele>143.75</ele><time>2026-04-26T03:35:05.727Z</time></trkpt><trkpt lat="43.122865" lon="2.3188183"><ele>143.5</ele><time>2026-04-26T03:35:06.729Z</time></trkpt><trkpt lat="43.1228383" lon="2.3186483"><ele>143.25</ele><time>2026-04-26T03:35:07.73Z</time></trkpt><trkpt lat="43.1228117" lon="2.3184783"><ele>143.0</ele><time>2026-04-26T03:35:08.731Z</time></trkpt><trkpt lat="43.1228" lon="2.3183317"><ele>143.0</ele><time>2026-04-26T03:35:09.729Z</time></trkpt><trkpt lat="43.1227667" lon="2.318165"><ele>143.0</ele><time>2026-04-26T03:35:10.728Z</time></trkpt><trkpt lat="43.12273" lon="2.3179967"><ele>143.0</ele><time>2026-04-26T03:35:11.733Z</time></trkpt><trkpt lat="43.122695" lon="2.3178283"><ele>143.0</ele><time>2026-04-26T03:35:12.731Z</time></trkpt><trkpt lat="43.1226617" lon="2.317645"><ele>142.75</ele><time>2026-04-26T03:35:13.73Z</time></trkpt><trkpt lat="43.122635" lon="2.3174633"><ele>142.5</ele><time>2026-04-26T03:35:14.731Z</time></trkpt><trkpt lat="43.1226067" lon="2.317285"><ele>142.25</ele><time>2026-04-26T03:35:15.727Z</time></trkpt><trkpt lat="43.1225817" lon="2.3171083"><ele>142.0</ele><time>2026-04-26T03:35:16.728Z</time></trkpt><trkpt lat="43.122555" lon="2.3169283"><ele>142.0</ele><time>2026-04-26T03:35:17.729Z</time></trkpt><trkpt lat="43.122525" lon="2.3167417"><ele>142.0</ele><time>2026-04-26T03:35:18.729Z</time></trkpt><trkpt lat="43.1224933" lon="2.3165533"><ele>142.0</ele><time>2026-04-26T03:35:19.728Z</time></trkpt><trkpt lat="43.1224617" lon="2.316365"><ele>142.0</ele><time>2026-04-26T03:35:20.729Z</time></trkpt><trkpt lat="43.12243" lon="2.3161767"><ele>142.0</ele><time>2026-04-26T03:35:21.728Z</time></trkpt><trkpt lat="43.1224033" lon="2.31598"><ele>142.0</ele><time>2026-04-26T03:35:22.729Z</time></trkpt><trkpt lat="43.1223767" lon="2.315775"><ele>142.0</ele><time>2026-04-26T03:35:23.73Z</time></trkpt><trkpt lat="43.122345" lon="2.315565"><ele>143.0</ele><time>2026-04-26T03:35:24.728Z</time></trkpt><trkpt lat="43.12231" lon="2.31536"><ele>144.0</ele><time>2026-04-26T03:35:25.729Z</time></trkpt><trkpt lat="43.122275" lon="2.3151483"><ele>145.0</ele><time>2026-04-26T03:35:26.729Z</time></trkpt><trkpt lat="43.1222367" lon="2.31494"><ele>144.66666666666669</ele><time>2026-04-26T03:35:27.729Z</time></trkpt><trkpt lat="43.1221983" lon="2.3147283"><ele>144.33333333333334</ele><time>2026-04-26T03:35:28.729Z</time></trkpt><trkpt lat="43.1221567" lon="2.3145133"><ele>144.0</ele><time>2026-04-26T03:35:29.729Z</time></trkpt><trkpt lat="43.12212" lon="2.31431"><ele>144.0</ele><time>2026-04-26T03:35:30.729Z</time></trkpt><trkpt lat="43.1220817" lon="2.3141183"><ele>144.0</ele><time>2026-04-26T03:35:31.729Z</time></trkpt><trkpt lat="43.1220433" lon="2.31393"><ele>144.0</ele><time>2026-04-26T03:35:32.729Z</time></trkpt><trkpt lat="43.122005" lon="2.31375"><ele>144.0</ele><time>2026-04-26T03:35:33.728Z</time></trkpt><trkpt lat="43.1219733" lon="2.31358"><ele>144.0</ele><time>2026-04-26T03:35:34.728Z</time></trkpt><trkpt lat="43.12195" lon="2.31341"><ele>144.0</ele><time>2026-04-26T03:35:35.73Z</time></trkpt><trkpt lat="43.121945" lon="2.313245"><ele>144.0</ele><time>2026-04-26T03:35:36.73Z</time></trkpt><trkpt lat="43.1219567" lon="2.3130817"><ele>144.0</ele><time>2026-04-26T03:35:37.729Z</time></trkpt><trkpt lat="43.121965" lon="2.312915"><ele>144.2</ele><time>2026-04-26T03:35:38.731Z</time></trkpt><trkpt lat="43.12196" lon="2.3127467"><ele>144.4</ele><time>2026-04-26T03:35:39.729Z</time></trkpt><trkpt lat="43.12195" lon="2.31259"><ele>144.6</ele><time>2026-04-26T03:35:40.732Z</time></trkpt><trkpt lat="43.121935" lon="2.3124517"><ele>144.8</ele><time>2026-04-26T03:35:41.729Z</time></trkpt><trkpt lat="43.1219167" lon="2.312335"><ele>145.0</ele><time>2026-04-26T03:35:42.728Z</time></trkpt><trkpt lat="43.121895" lon="2.3122233"><ele>145.6</ele><time>2026-04-26T03:35:43.728Z</time></trkpt><trkpt lat="43.1218733" lon="2.312105"><ele>146.2</ele><time>2026-04-26T03:35:44.731Z</time></trkpt><trkpt lat="43.121865" lon="2.31197"><ele>146.8</ele><time>2026-04-26T03:35:45.728Z</time></trkpt><trkpt lat="43.1218633" lon="2.3118283"><ele>147.4</ele><time>2026-04-26T03:35:46.729Z</time></trkpt><trkpt lat="43.12186" lon="2.3116917"><ele>148.0</ele><time>2026-04-26T03:35:47.73Z</time></trkpt><trkpt lat="43.12185" lon="2.3115683"><ele>148.0</ele><time>2026-04-26T03:35:48.73Z</time></trkpt><trkpt lat="43.1218333" lon="2.3114583"><ele>148.0</ele><time>2026-04-26T03:35:49.728Z</time></trkpt><trkpt lat="43.1218083" lon="2.3113433"><ele>148.0</ele><time>2026-04-26T03:35:50.729Z</time></trkpt><trkpt lat="43.121775" lon="2.3112233"><ele>148.0</ele><time>2026-04-26T03:35:51.731Z</time></trkpt><trkpt lat="43.1217367" lon="2.3110967"><ele>148.0</ele><time>2026-04-26T03:35:52.729Z</time></trkpt><trkpt lat="43.1216933" lon="2.3109733"><ele>148.20000000000002</ele><time>2026-04-26T03:35:53.729Z</time></trkpt><trkpt lat="43.1216433" lon="2.3108517"><ele>148.4</ele><time>2026-04-26T03:35:54.731Z</time></trkpt><trkpt lat="43.1215783" lon="2.31073"><ele>148.60000000000002</ele><time>2026-04-26T03:35:55.73Z</time></trkpt><trkpt lat="43.121495" lon="2.3106117"><ele>148.8</ele><time>2026-04-26T03:35:56.728Z</time></trkpt><trkpt lat="43.12141" lon="2.3105067"><ele>149.0</ele><time>2026-04-26T03:35:57.728Z</time></trkpt><trkpt lat="43.1213317" lon="2.31042"><ele>150.83333333333331</ele><time>2026-04-26T03:35:58.729Z</time></trkpt><trkpt lat="43.1212633" lon="2.3103567"><ele>152.66666666666666</ele><time>2026-04-26T03:35:59.728Z</time></trkpt><trkpt lat="43.121195" lon="2.310325"><ele>154.5</ele><time>2026-04-26T03:36:00.729Z</time></trkpt><trkpt lat="43.121125" lon="2.310305"><ele>156.33333333333334</ele><time>2026-04-26T03:36:01.729Z</time></trkpt><trkpt lat="43.1210367" lon="2.3103583"><ele>158.16666666666669</ele><time>2026-04-26T03:36:02.728Z</time></trkpt><trkpt lat="43.1209467" lon="2.310445"><ele>160.0</ele><time>2026-04-26T03:36:03.728Z</time></trkpt><trkpt lat="43.1208483" lon="2.310545"><ele>157.25</ele><time>2026-04-26T03:36:04.729Z</time></trkpt><trkpt lat="43.12074" lon="2.3106467"><ele>154.5</ele><time>2026-04-26T03:36:05.729Z</time></trkpt><trkpt lat="43.1206233" lon="2.31075"><ele>151.75</ele><time>2026-04-26T03:36:06.728Z</time></trkpt><trkpt lat="43.1205017" lon="2.31085"><ele>149.0</ele><time>2026-04-26T03:36:07.728Z</time></trkpt><trkpt lat="43.1203783" lon="2.3109383"><ele>148.75</ele><time>2026-04-26T03:36:08.729Z</time></trkpt><trkpt lat="43.1202583" lon="2.3110183"><ele>148.5</ele><time>2026-04-26T03:36:09.727Z</time></trkpt><trkpt lat="43.120145" lon="2.31109"><ele>148.25</ele><time>2026-04-26T03:36:10.728Z</time></trkpt><trkpt lat="43.1200417" lon="2.3111567"><ele>148.0</ele><time>2026-04-26T03:36:11.729Z</time></trkpt><trkpt lat="43.119945" lon="2.3112183"><ele>147.4</ele><time>2026-04-26T03:36:12.729Z</time></trkpt><trkpt lat="43.1198533" lon="2.31127"><ele>146.8</ele><time>2026-04-26T03:36:13.728Z</time></trkpt><trkpt lat="43.11976" lon="2.3113167"><ele>146.2</ele><time>2026-04-26T03:36:14.733Z</time></trkpt><trkpt lat="43.1196583" lon="2.3113583"><ele>145.6</ele><time>2026-04-26T03:36:15.728Z</time></trkpt><trkpt lat="43.1195517" lon="2.311395"><ele>145.0</ele><time>2026-04-26T03:36:16.728Z</time></trkpt><trkpt lat="43.1194433" lon="2.31142"><ele>145.0</ele><time>2026-04-26T03:36:17.73Z</time></trkpt><trkpt lat="43.11934" lon="2.31142"><ele>145.0</ele><time>2026-04-26T03:36:18.729Z</time></trkpt><trkpt lat="43.11924" lon="2.3114067"><ele>145.0</ele><time>2026-04-26T03:36:19.731Z</time></trkpt><trkpt lat="43.1191433" lon="2.311395"><ele>145.0</ele><time>2026-04-26T03:36:20.729Z</time></trkpt><trkpt lat="43.1190467" lon="2.3114117"><ele>145.0</ele><time>2026-04-26T03:36:21.73Z</time></trkpt><trkpt lat="43.1189483" lon="2.31146"><ele>147.6</ele><time>2026-04-26T03:36:22.731Z</time></trkpt><trkpt lat="43.1188483" lon="2.311535"><ele>150.2</ele><time>2026-04-26T03:36:23.73Z</time></trkpt><trkpt lat="43.1187567" lon="2.3116167"><ele>152.8</ele><time>2026-04-26T03:36:24.73Z</time></trkpt><trkpt lat="43.1186717" lon="2.3117083"><ele>155.4</ele><time>2026-04-26T03:36:25.728Z</time></trkpt><trkpt lat="43.1185933" lon="2.3118117"><ele>158.0</ele><time>2026-04-26T03:36:26.729Z</time></trkpt><trkpt lat="43.118525" lon="2.311915"><ele>158.0</ele><time>2026-04-26T03:36:27.727Z</time></trkpt><trkpt lat="43.1184667" lon="2.3120133"><ele>158.0</ele><time>2026-04-26T03:36:28.729Z</time></trkpt><trkpt lat="43.118415" lon="2.3121133"><ele>158.0</ele><time>2026-04-26T03:36:29.729Z</time></trkpt><trkpt lat="43.1183767" lon="2.3122233"><ele>158.0</ele><time>2026-04-26T03:36:30.728Z</time></trkpt><trkpt lat="43.11835" lon="2.3123433"><ele>158.0</ele><time>2026-04-26T03:36:31.727Z</time></trkpt><trkpt lat="43.11832" lon="2.312475"><ele>159.0</ele><time>2026-04-26T03:36:32.728Z</time></trkpt><trkpt lat="43.1182783" lon="2.3126133"><ele>160.0</ele><time>2026-04-26T03:36:33.729Z</time></trkpt><trkpt lat="43.1182317" lon="2.3127633"><ele>161.0</ele><time>2026-04-26T03:36:34.728Z</time></trkpt><trkpt lat="43.118185" lon="2.3129083"><ele>162.0</ele><time>2026-04-26T03:36:35.727Z</time></trkpt><trkpt lat="43.1181383" lon="2.3130367"><ele>163.0</ele><time>2026-04-26T03:36:36.727Z</time></trkpt><trkpt lat="43.1180917" lon="2.3131533"><ele>160.4</ele><time>2026-04-26T03:36:37.729Z</time></trkpt><trkpt lat="43.1180383" lon="2.3132533"><ele>157.8</ele><time>2026-04-26T03:36:38.732Z</time></trkpt><trkpt lat="43.11798" lon="2.313335"><ele>155.2</ele><time>2026-04-26T03:36:39.729Z</time></trkpt><trkpt lat="43.117905" lon="2.3134017"><ele>152.6</ele><time>2026-04-26T03:36:40.729Z</time></trkpt><trkpt lat="43.1178083" lon="2.31349"><ele>150.0</ele><time>2026-04-26T03:36:41.729Z</time></trkpt><trkpt lat="43.1177067" lon="2.3135917"><ele>150.0</ele><time>2026-04-26T03:36:42.729Z</time></trkpt><trkpt lat="43.117605" lon="2.3136933"><ele>150.0</ele><time>2026-04-26T03:36:43.729Z</time></trkpt><trkpt lat="43.1175033" lon="2.3137917"><ele>150.0</ele><time>2026-04-26T03:36:44.729Z</time></trkpt><trkpt lat="43.1174033" lon="2.3138933"><ele>150.0</ele><time>2026-04-26T03:36:45.728Z</time></trkpt><trkpt lat="43.1172983" lon="2.3139967"><ele>151.5</ele><time>2026-04-26T03:36:46.729Z</time></trkpt><trkpt lat="43.1171867" lon="2.3141017"><ele>153.0</ele><time>2026-04-26T03:36:47.728Z</time></trkpt><trkpt lat="43.1170783" lon="2.3142083"><ele>154.5</ele><time>2026-04-26T03:36:48.728Z</time></trkpt><trkpt lat="43.1169783" lon="2.3143067"><ele>156.0</ele><time>2026-04-26T03:36:49.729Z</time></trkpt><trkpt lat="43.116885" lon="2.3144017"><ele>156.0</ele><time>2026-04-26T03:36:50.732Z</time></trkpt><trkpt lat="43.1168033" lon="2.3145067"><ele>156.0</ele><time>2026-04-26T03:36:51.73Z</time></trkpt><trkpt lat="43.1167233" lon="2.3146317"><ele>156.0</ele><time>2026-04-26T03:36:52.729Z</time></trkpt><trkpt lat="43.1166483" lon="2.3147567"><ele>156.0</ele><time>2026-04-26T03:36:53.728Z</time></trkpt><trkpt lat="43.116595" lon="2.314875"><ele>155.5</ele><time>2026-04-26T03:36:54.73Z</time></trkpt><trkpt lat="43.1165533" lon="2.31498"><ele>155.0</ele><time>2026-04-26T03:36:55.728Z</time></trkpt><trkpt lat="43.116515" lon="2.3150583"><ele>154.5</ele><time>2026-04-26T03:36:56.729Z</time></trkpt><trkpt lat="43.1164567" lon="2.31513"><ele>154.0</ele><time>2026-04-26T03:36:57.727Z</time></trkpt><trkpt lat="43.1163833" lon="2.3152"><ele>153.5</ele><time>2026-04-26T03:36:58.728Z</time></trkpt><trkpt lat="43.116295" lon="2.3152767"><ele>153.0</ele><time>2026-04-26T03:36:59.729Z</time></trkpt><trkpt lat="43.1162133" lon="2.315345"><ele>153.0</ele><time>2026-04-26T03:37:00.729Z</time></trkpt><trkpt lat="43.1161383" lon="2.3153933"><ele>153.0</ele><time>2026-04-26T03:37:01.728Z</time></trkpt><trkpt lat="43.1160667" lon="2.31542"><ele>153.0</ele><time>2026-04-26T03:37:02.728Z</time></trkpt><trkpt lat="43.1159933" lon="2.315415"><ele>153.0</ele><time>2026-04-26T03:37:03.728Z</time></trkpt><trkpt lat="43.1159217" lon="2.3154017"><ele>153.0</ele><time>2026-04-26T03:37:04.729Z</time></trkpt><trkpt lat="43.1158567" lon="2.3153533"><ele>153.0</ele><time>2026-04-26T03:37:05.729Z</time></trkpt><trkpt lat="43.1157883" lon="2.3152617"><ele>152.4</ele><time>2026-04-26T03:37:06.728Z</time></trkpt><trkpt lat="43.1157167" lon="2.31516"><ele>151.8</ele><time>2026-04-26T03:37:07.728Z</time></trkpt><trkpt lat="43.1156417" lon="2.3150467"><ele>151.2</ele><time>2026-04-26T03:37:08.73Z</time></trkpt><trkpt lat="43.1155717" lon="2.31496"><ele>150.6</ele><time>2026-04-26T03:37:09.729Z</time></trkpt><trkpt lat="43.1155067" lon="2.314885"><ele>150.0</ele><time>2026-04-26T03:37:10.728Z</time></trkpt><trkpt lat="43.1154383" lon="2.31482"><ele>150.0</ele><time>2026-04-26T03:37:11.728Z</time></trkpt><trkpt lat="43.1153517" lon="2.314775"><ele>150.0</ele><time>2026-04-26T03:37:12.727Z</time></trkpt><trkpt lat="43.11525" lon="2.31474"><ele>150.0</ele><time>2026-04-26T03:37:13.729Z</time></trkpt><trkpt lat="43.1151433" lon="2.314725"><ele>150.0</ele><time>2026-04-26T03:37:14.729Z</time></trkpt><trkpt lat="43.1150333" lon="2.3147167"><ele>150.0</ele><time>2026-04-26T03:37:15.73Z</time></trkpt><trkpt lat="43.11494" lon="2.3147383"><ele>150.0</ele><time>2026-04-26T03:37:16.728Z</time></trkpt><trkpt lat="43.1148483" lon="2.3147567"><ele>150.0</ele><time>2026-04-26T03:37:17.728Z</time></trkpt><trkpt lat="43.114755" lon="2.3147817"><ele>150.0</ele><time>2026-04-26T03:37:18.729Z</time></trkpt><trkpt lat="43.1146483" lon="2.3148067"><ele>150.0</ele><time>2026-04-26T03:37:19.728Z</time></trkpt><trkpt lat="43.11454" lon="2.3148367"><ele>150.0</ele><time>2026-04-26T03:37:20.729Z</time></trkpt><trkpt lat="43.1144233" lon="2.3148717"><ele>150.0</ele><time>2026-04-26T03:37:21.729Z</time></trkpt><trkpt lat="43.1142933" lon="2.314915"><ele>150.0</ele><time>2026-04-26T03:37:22.73Z</time></trkpt><trkpt lat="43.11416" lon="2.3149617"><ele>150.0</ele><time>2026-04-26T03:37:23.729Z</time></trkpt><trkpt lat="43.1140267" lon="2.3150167"><ele>150.0</ele><time>2026-04-26T03:37:24.727Z</time></trkpt><trkpt lat="43.1138983" lon="2.315065"><ele>150.0</ele><time>2026-04-26T03:37:25.728Z</time></trkpt><trkpt lat="43.1137783" lon="2.3151117"><ele>150.0</ele><time>2026-04-26T03:37:26.731Z</time></trkpt><trkpt lat="43.1136583" lon="2.31515"><ele>150.0</ele><time>2026-04-26T03:37:27.728Z</time></trkpt><trkpt lat="43.1135567" lon="2.315185"><ele>150.0</ele><time>2026-04-26T03:37:28.729Z</time></trkpt><trkpt lat="43.1134633" lon="2.315215"><ele>150.0</ele><time>2026-04-26T03:37:29.728Z</time></trkpt><trkpt lat="43.1133717" lon="2.3152533"><ele>150.0</ele><time>2026-04-26T03:37:30.729Z</time></trkpt><trkpt lat="43.1132817" lon="2.31531"><ele>150.0</ele><time>2026-04-26T03:37:31.727Z</time></trkpt><trkpt lat="43.1131933" lon="2.3153817"><ele>150.0</ele><time>2026-04-26T03:37:32.728Z</time></trkpt><trkpt lat="43.113105" lon="2.3154467"><ele>150.0</ele><time>2026-04-26T03:37:33.729Z</time></trkpt><trkpt lat="43.1130167" lon="2.3154983"><ele>150.0</ele><time>2026-04-26T03:37:34.728Z</time></trkpt><trkpt lat="43.112915" lon="2.315525"><ele>150.2</ele><time>2026-04-26T03:37:35.727Z</time></trkpt><trkpt lat="43.112805" lon="2.3155367"><ele>150.4</ele><time>2026-04-26T03:37:36.728Z</time></trkpt><trkpt lat="43.1126917" lon="2.3155433"><ele>150.6</ele><time>2026-04-26T03:37:37.728Z</time></trkpt><trkpt lat="43.112585" lon="2.31553"><ele>150.8</ele><time>2026-04-26T03:37:38.728Z</time></trkpt><trkpt lat="43.1124817" lon="2.3154917"><ele>151.0</ele><time>2026-04-26T03:37:39.729Z</time></trkpt><trkpt lat="43.11238" lon="2.3154283"><ele>151.0</ele><time>2026-04-26T03:37:40.728Z</time></trkpt><trkpt lat="43.1122817" lon="2.315355"><ele>151.0</ele><time>2026-04-26T03:37:41.729Z</time></trkpt><trkpt lat="43.1121867" lon="2.3152933"><ele>151.0</ele><time>2026-04-26T03:37:42.728Z</time></trkpt><trkpt lat="43.1120817" lon="2.31525"><ele>151.0</ele><time>2026-04-26T03:37:43.73Z</time></trkpt><trkpt lat="43.1119667" lon="2.3152333"><ele>151.0</ele><time>2026-04-26T03:37:44.731Z</time></trkpt><trkpt lat="43.1118483" lon="2.31524"><ele>151.0</ele><time>2026-04-26T03:37:45.728Z</time></trkpt><trkpt lat="43.111725" lon="2.3152583"><ele>151.0</ele><time>2026-04-26T03:37:46.729Z</time></trkpt><trkpt lat="43.1116" lon="2.3152867"><ele>151.0</ele><time>2026-04-26T03:37:47.73Z</time></trkpt><trkpt lat="43.1114767" lon="2.3153183"><ele>151.0</ele><time>2026-04-26T03:37:48.728Z</time></trkpt><trkpt lat="43.1113533" lon="2.31534"><ele>151.0</ele><time>2026-04-26T03:37:49.728Z</time></trkpt><trkpt lat="43.1112233" lon="2.3153433"><ele>151.0</ele><time>2026-04-26T03:37:50.73Z</time></trkpt><trkpt lat="43.1110867" lon="2.3153283"><ele>151.0</ele><time>2026-04-26T03:37:51.728Z</time></trkpt><trkpt lat="43.1109467" lon="2.3153017"><ele>151.0</ele><time>2026-04-26T03:37:52.728Z</time></trkpt><trkpt lat="43.1108083" lon="2.315275"><ele>151.75</ele><time>2026-04-26T03:37:53.729Z</time></trkpt><trkpt lat="43.1106717" lon="2.315255"><ele>152.5</ele><time>2026-04-26T03:37:54.728Z</time></trkpt><trkpt lat="43.1105417" lon="2.315245"><ele>153.25</ele><time>2026-04-26T03:37:55.728Z</time></trkpt><trkpt lat="43.110415" lon="2.3152467"><ele>154.0</ele><time>2026-04-26T03:37:56.73Z</time></trkpt><trkpt lat="43.110285" lon="2.3152583"><ele>154.0</ele><time>2026-04-26T03:37:57.73Z</time></trkpt><trkpt lat="43.11015" lon="2.31528"><ele>154.0</ele><time>2026-04-26T03:37:58.729Z</time></trkpt><trkpt lat="43.1100133" lon="2.31532"><ele>154.0</ele><time>2026-04-26T03:37:59.729Z</time></trkpt><trkpt lat="43.1098833" lon="2.315365"><ele>154.0</ele><time>2026-04-26T03:38:00.729Z</time></trkpt><trkpt lat="43.1097567" lon="2.3154133"><ele>153.75</ele><time>2026-04-26T03:38:01.729Z</time></trkpt><trkpt lat="43.1096367" lon="2.315475"><ele>153.5</ele><time>2026-04-26T03:38:02.73Z</time></trkpt><trkpt lat="43.109525" lon="2.3155517"><ele>153.25</ele><time>2026-04-26T03:38:03.729Z</time></trkpt><trkpt lat="43.1094233" lon="2.3156283"><ele>153.0</ele><time>2026-04-26T03:38:04.729Z</time></trkpt><trkpt lat="43.1093183" lon="2.3157"><ele>153.0</ele><time>2026-04-26T03:38:05.729Z</time></trkpt><trkpt lat="43.1092" lon="2.31577"><ele>153.0</ele><time>2026-04-26T03:38:06.729Z</time></trkpt><trkpt lat="43.109075" lon="2.315835"><ele>153.0</ele><time>2026-04-26T03:38:07.729Z</time></trkpt><trkpt lat="43.1089567" lon="2.3159017"><ele>153.0</ele><time>2026-04-26T03:38:08.731Z</time></trkpt><trkpt lat="43.10884" lon="2.315965"><ele>153.5</ele><time>2026-04-26T03:38:09.728Z</time></trkpt><trkpt lat="43.10872" lon="2.31602"><ele>154.0</ele><time>2026-04-26T03:38:10.73Z</time></trkpt><trkpt lat="43.1085967" lon="2.316055"><ele>154.5</ele><time>2026-04-26T03:38:11.729Z</time></trkpt><trkpt lat="43.1084667" lon="2.316075"><ele>155.0</ele><time>2026-04-26T03:38:12.728Z</time></trkpt><trkpt lat="43.1083433" lon="2.3160883"><ele>155.2</ele><time>2026-04-26T03:38:13.728Z</time></trkpt><trkpt lat="43.10823" lon="2.31611"><ele>155.4</ele><time>2026-04-26T03:38:14.729Z</time></trkpt><trkpt lat="43.108125" lon="2.3161433"><ele>155.6</ele><time>2026-04-26T03:38:15.728Z</time></trkpt><trkpt lat="43.1080233" lon="2.3161733"><ele>155.8</ele><time>2026-04-26T03:38:16.728Z</time></trkpt><trkpt lat="43.107935" lon="2.3161917"><ele>156.0</ele><time>2026-04-26T03:38:17.728Z</time></trkpt><trkpt lat="43.1078483" lon="2.3161933"><ele>156.0</ele><time>2026-04-26T03:38:18.729Z</time></trkpt><trkpt lat="43.1077517" lon="2.3161767"><ele>156.0</ele><time>2026-04-26T03:38:19.729Z</time></trkpt><trkpt lat="43.1076417" lon="2.3161417"><ele>156.0</ele><time>2026-04-26T03:38:20.73Z</time></trkpt><trkpt lat="43.1075217" lon="2.3161017"><ele>156.0</ele><time>2026-04-26T03:38:21.728Z</time></trkpt><trkpt lat="43.1074017" lon="2.3160683"><ele>155.8</ele><time>2026-04-26T03:38:22.727Z</time></trkpt><trkpt lat="43.1072867" lon="2.3160367"><ele>155.6</ele><time>2026-04-26T03:38:23.728Z</time></trkpt><trkpt lat="43.107185" lon="2.31601"><ele>155.4</ele><time>2026-04-26T03:38:24.728Z</time></trkpt><trkpt lat="43.10709" lon="2.3159817"><ele>155.2</ele><time>2026-04-26T03:38:25.729Z</time></trkpt><trkpt lat="43.107005" lon="2.315945"><ele>155.0</ele><time>2026-04-26T03:38:26.729Z</time></trkpt><trkpt lat="43.1069233" lon="2.315895"><ele>155.0</ele><time>2026-04-26T03:38:27.731Z</time></trkpt><trkpt lat="43.1068567" lon="2.3158433"><ele>155.0</ele><time>2026-04-26T03:38:28.73Z</time></trkpt><trkpt lat="43.1067333" lon="2.315785"><ele>155.0</ele><time>2026-04-26T03:38:30.728Z</time></trkpt><trkpt lat="43.1066517" lon="2.3157867"><ele>155.0</ele><time>2026-04-26T03:38:31.728Z</time></trkpt><trkpt lat="43.1065467" lon="2.3157967"><ele>155.0</ele><time>2026-04-26T03:38:32.728Z</time></trkpt><trkpt lat="43.1064283" lon="2.3158017"><ele>154.8</ele><time>2026-04-26T03:38:33.729Z</time></trkpt><trkpt lat="43.1063117" lon="2.3158"><ele>154.6</ele><time>2026-04-26T03:38:34.728Z</time></trkpt><trkpt lat="43.1061967" lon="2.3157917"><ele>154.4</ele><time>2026-04-26T03:38:35.728Z</time></trkpt><trkpt lat="43.1060917" lon="2.3157733"><ele>154.2</ele><time>2026-04-26T03:38:36.73Z</time></trkpt><trkpt lat="43.1059967" lon="2.3157433"><ele>154.0</ele><time>2026-04-26T03:38:37.728Z</time></trkpt><trkpt lat="43.1059017" lon="2.3157"><ele>154.0</ele><time>2026-04-26T03:38:38.728Z</time></trkpt><trkpt lat="43.10581" lon="2.3156417"><ele>154.0</ele><time>2026-04-26T03:38:39.73Z</time></trkpt><trkpt lat="43.1057183" lon="2.31557"><ele>154.0</ele><time>2026-04-26T03:38:40.73Z</time></trkpt><trkpt lat="43.1056183" lon="2.3154967"><ele>154.0</ele><time>2026-04-26T03:38:41.728Z</time></trkpt><trkpt lat="43.1055083" lon="2.3154233"><ele>154.0</ele><time>2026-04-26T03:38:42.728Z</time></trkpt><trkpt lat="43.1053967" lon="2.3153517"><ele>154.2</ele><time>2026-04-26T03:38:43.731Z</time></trkpt><trkpt lat="43.10529" lon="2.31528"><ele>154.4</ele><time>2026-04-26T03:38:44.731Z</time></trkpt><trkpt lat="43.1051867" lon="2.3152033"><ele>154.6</ele><time>2026-04-26T03:38:45.727Z</time></trkpt><trkpt lat="43.10509" lon="2.315125"><ele>154.8</ele><time>2026-04-26T03:38:46.728Z</time></trkpt><trkpt lat="43.1050083" lon="2.3150467"><ele>155.0</ele><time>2026-04-26T03:38:47.729Z</time></trkpt><trkpt lat="43.1049367" lon="2.314965"><ele>155.0</ele><time>2026-04-26T03:38:48.728Z</time></trkpt><trkpt lat="43.1048717" lon="2.3148833"><ele>155.0</ele><time>2026-04-26T03:38:49.731Z</time></trkpt><trkpt lat="43.1048167" lon="2.314795"><ele>155.0</ele><time>2026-04-26T03:38:50.731Z</time></trkpt><trkpt lat="43.1047767" lon="2.3147"><ele>155.0</ele><time>2026-04-26T03:38:51.729Z</time></trkpt><trkpt lat="43.1047533" lon="2.3145883"><ele>155.0</ele><time>2026-04-26T03:38:52.729Z</time></trkpt><trkpt lat="43.10474" lon="2.31446"><ele>155.0</ele><time>2026-04-26T03:38:53.729Z</time></trkpt><trkpt lat="43.1047367" lon="2.3143117"><ele>155.0</ele><time>2026-04-26T03:38:54.729Z</time></trkpt><trkpt lat="43.104725" lon="2.31416"><ele>155.0</ele><time>2026-04-26T03:38:55.729Z</time></trkpt><trkpt lat="43.1046983" lon="2.314005"><ele>155.0</ele><time>2026-04-26T03:38:56.73Z</time></trkpt><trkpt lat="43.1046617" lon="2.313865"><ele>155.0</ele><time>2026-04-26T03:38:57.729Z</time></trkpt><trkpt lat="43.1046167" lon="2.3137417"><ele>155.0</ele><time>2026-04-26T03:38:58.729Z</time></trkpt><trkpt lat="43.10456" lon="2.313635"><ele>155.0</ele><time>2026-04-26T03:38:59.73Z</time></trkpt><trkpt lat="43.1044883" lon="2.31354"><ele>155.0</ele><time>2026-04-26T03:39:00.728Z</time></trkpt><trkpt lat="43.1044117" lon="2.313445"><ele>155.0</ele><time>2026-04-26T03:39:01.728Z</time></trkpt><trkpt lat="43.104325" lon="2.31336"><ele>155.0</ele><time>2026-04-26T03:39:02.728Z</time></trkpt><trkpt lat="43.1042283" lon="2.3132933"><ele>155.0</ele><time>2026-04-26T03:39:03.729Z</time></trkpt><trkpt lat="43.1041217" lon="2.313245"><ele>155.0</ele><time>2026-04-26T03:39:04.729Z</time></trkpt><trkpt lat="43.104" lon="2.3132117"><ele>155.0</ele><time>2026-04-26T03:39:05.729Z</time></trkpt><trkpt lat="43.1038733" lon="2.313185"><ele>155.0</ele><time>2026-04-26T03:39:06.729Z</time></trkpt><trkpt lat="43.1037433" lon="2.3131633"><ele>155.0</ele><time>2026-04-26T03:39:07.727Z</time></trkpt><trkpt lat="43.1036133" lon="2.3131517"><ele>155.0</ele><time>2026-04-26T03:39:08.73Z</time></trkpt><trkpt lat="43.1034883" lon="2.3131517"><ele>155.0</ele><time>2026-04-26T03:39:09.728Z</time></trkpt><trkpt lat="43.1033617" lon="2.3131533"><ele>155.0</ele><time>2026-04-26T03:39:10.729Z</time></trkpt><trkpt lat="43.10324" lon="2.31316"><ele>155.0</ele><time>2026-04-26T03:39:11.73Z</time></trkpt><trkpt lat="43.1031183" lon="2.31317"><ele>155.75</ele><time>2026-04-26T03:39:12.728Z</time></trkpt><trkpt lat="43.1029967" lon="2.3131783"><ele>156.5</ele><time>2026-04-26T03:39:13.728Z</time></trkpt><trkpt lat="43.1028767" lon="2.3131833"><ele>157.25</ele><time>2026-04-26T03:39:14.73Z</time></trkpt><trkpt lat="43.1027617" lon="2.313185"><ele>158.0</ele><time>2026-04-26T03:39:15.729Z</time></trkpt><trkpt lat="43.1026483" lon="2.31318"><ele>158.0</ele><time>2026-04-26T03:39:16.729Z</time></trkpt><trkpt lat="43.1025417" lon="2.313165"><ele>158.0</ele><time>2026-04-26T03:39:17.731Z</time></trkpt><trkpt lat="43.1024417" lon="2.3131433"><ele>158.0</ele><time>2026-04-26T03:39:18.73Z</time></trkpt><trkpt lat="43.102345" lon="2.3131117"><ele>158.0</ele><time>2026-04-26T03:39:19.73Z</time></trkpt><trkpt lat="43.1022483" lon="2.31306"><ele>158.0</ele><time>2026-04-26T03:39:20.73Z</time></trkpt><trkpt lat="43.102155" lon="2.3129967"><ele>157.8</ele><time>2026-04-26T03:39:21.728Z</time></trkpt><trkpt lat="43.1020683" lon="2.31293"><ele>157.60000000000002</ele><time>2026-04-26T03:39:22.73Z</time></trkpt><trkpt lat="43.1019983" lon="2.31286"><ele>157.39999999999998</ele><time>2026-04-26T03:39:23.729Z</time></trkpt><trkpt lat="43.10194" lon="2.3127767"><ele>157.2</ele><time>2026-04-26T03:39:24.729Z</time></trkpt><trkpt lat="43.1018833" lon="2.3126767"><ele>157.0</ele><time>2026-04-26T03:39:25.729Z</time></trkpt><trkpt lat="43.1018283" lon="2.3125617"><ele>157.0</ele><time>2026-04-26T03:39:26.729Z</time></trkpt><trkpt lat="43.1017733" lon="2.3124433"><ele>157.0</ele><time>2026-04-26T03:39:27.729Z</time></trkpt><trkpt lat="43.1017133" lon="2.31233"><ele>157.0</ele><time>2026-04-26T03:39:28.729Z</time></trkpt><trkpt lat="43.101655" lon="2.3122317"><ele>157.0</ele><time>2026-04-26T03:39:29.728Z</time></trkpt><trkpt lat="43.1015933" lon="2.3121417"><ele>157.0</ele><time>2026-04-26T03:39:30.729Z</time></trkpt><trkpt lat="43.1015317" lon="2.3120483"><ele>157.16666666666669</ele><time>2026-04-26T03:39:31.729Z</time></trkpt><trkpt lat="43.1014783" lon="2.3119467"><ele>157.33333333333334</ele><time>2026-04-26T03:39:32.73Z</time></trkpt><trkpt lat="43.10143" lon="2.3118333"><ele>157.5</ele><time>2026-04-26T03:39:33.729Z</time></trkpt><trkpt lat="43.1013833" lon="2.3117233"><ele>157.66666666666666</ele><time>2026-04-26T03:39:34.729Z</time></trkpt><trkpt lat="43.10135" lon="2.3116217"><ele>157.83333333333331</ele><time>2026-04-26T03:39:35.728Z</time></trkpt><trkpt lat="43.1013283" lon="2.311515"><ele>158.0</ele><time>2026-04-26T03:39:36.727Z</time></trkpt><trkpt lat="43.10132" lon="2.3114"><ele>158.0</ele><time>2026-04-26T03:39:37.727Z</time></trkpt><trkpt lat="43.1013133" lon="2.31128"><ele>158.0</ele><time>2026-04-26T03:39:38.728Z</time></trkpt><trkpt lat="43.101295" lon="2.3111717"><ele>158.0</ele><time>2026-04-26T03:39:39.727Z</time></trkpt><trkpt lat="43.1012667" lon="2.3110833"><ele>158.0</ele><time>2026-04-26T03:39:40.727Z</time></trkpt><trkpt lat="43.1011717" lon="2.311035"><ele>158.0</ele><time>2026-04-26T03:39:42.728Z</time></trkpt><trkpt lat="43.1011083" lon="2.311065"><ele>158.0</ele><time>2026-04-26T03:39:43.728Z</time></trkpt><trkpt lat="43.101045" lon="2.3110833"><ele>158.0</ele><time>2026-04-26T03:39:44.729Z</time></trkpt><trkpt lat="43.1009767" lon="2.3110817"><ele>158.0</ele><time>2026-04-26T03:39:45.728Z</time></trkpt><trkpt lat="43.10091" lon="2.3110483"><ele>158.0</ele><time>2026-04-26T03:39:46.728Z</time></trkpt><trkpt lat="43.1008417" lon="2.31098"><ele>158.0</ele><time>2026-04-26T03:39:47.729Z</time></trkpt><trkpt lat="43.1007567" lon="2.3109033"><ele>158.0</ele><time>2026-04-26T03:39:48.73Z</time></trkpt><trkpt lat="43.1006767" lon="2.3108433"><ele>158.0</ele><time>2026-04-26T03:39:49.729Z</time></trkpt><trkpt lat="43.1005983" lon="2.3108017"><ele>158.8</ele><time>2026-04-26T03:39:50.732Z</time></trkpt><trkpt lat="43.10052" lon="2.3107467"><ele>159.60000000000002</ele><time>2026-04-26T03:39:51.729Z</time></trkpt><trkpt lat="43.10044" lon="2.3106733"><ele>160.39999999999998</ele><time>2026-04-26T03:39:52.728Z</time></trkpt><trkpt lat="43.1003617" lon="2.3105967"><ele>161.2</ele><time>2026-04-26T03:39:53.729Z</time></trkpt><trkpt lat="43.1002783" lon="2.3105283"><ele>162.0</ele><time>2026-04-26T03:39:54.728Z</time></trkpt><trkpt lat="43.10019" lon="2.3104683"><ele>162.0</ele><time>2026-04-26T03:39:55.728Z</time></trkpt><trkpt lat="43.1000817" lon="2.310425"><ele>162.0</ele><time>2026-04-26T03:39:56.73Z</time></trkpt><trkpt lat="43.0999617" lon="2.3104017"><ele>162.0</ele><time>2026-04-26T03:39:57.729Z</time></trkpt><trkpt lat="43.0998383" lon="2.3103867"><ele>162.0</ele><time>2026-04-26T03:39:58.728Z</time></trkpt><trkpt lat="43.0997117" lon="2.310375"><ele>162.75</ele><time>2026-04-26T03:39:59.728Z</time></trkpt><trkpt lat="43.0995817" lon="2.3103667"><ele>163.5</ele><time>2026-04-26T03:40:00.728Z</time></trkpt><trkpt lat="43.0994533" lon="2.3103633"><ele>164.25</ele><time>2026-04-26T03:40:01.735Z</time></trkpt><trkpt lat="43.0993233" lon="2.310365"><ele>165.0</ele><time>2026-04-26T03:40:02.729Z</time></trkpt><trkpt lat="43.0991983" lon="2.3103617"><ele>166.0</ele><time>2026-04-26T03:40:03.728Z</time></trkpt><trkpt lat="43.0990767" lon="2.3103583"><ele>167.0</ele><time>2026-04-26T03:40:04.728Z</time></trkpt><trkpt lat="43.0989517" lon="2.3103533"><ele>168.0</ele><time>2026-04-26T03:40:05.727Z</time></trkpt><trkpt lat="43.0988283" lon="2.310335"><ele>169.0</ele><time>2026-04-26T03:40:06.727Z</time></trkpt><trkpt lat="43.098705" lon="2.3103083"><ele>169.0</ele><time>2026-04-26T03:40:07.728Z</time></trkpt><trkpt lat="43.0985833" lon="2.3102717"><ele>169.0</ele><time>2026-04-26T03:40:08.73Z</time></trkpt><trkpt lat="43.0984633" lon="2.3102267"><ele>169.0</ele><time>2026-04-26T03:40:09.729Z</time></trkpt><trkpt lat="43.0983417" lon="2.3101817"><ele>169.0</ele><time>2026-04-26T03:40:10.73Z</time></trkpt><trkpt lat="43.0982183" lon="2.310135"><ele>170.0</ele><time>2026-04-26T03:40:11.727Z</time></trkpt><trkpt lat="43.0980967" lon="2.310085"><ele>171.0</ele><time>2026-04-26T03:40:12.727Z</time></trkpt><trkpt lat="43.0979767" lon="2.3100317"><ele>172.0</ele><time>2026-04-26T03:40:13.727Z</time></trkpt><trkpt lat="43.0978583" lon="2.3099733"><ele>173.0</ele><time>2026-04-26T03:40:14.729Z</time></trkpt><trkpt lat="43.0977383" lon="2.30991"><ele>173.0</ele><time>2026-04-26T03:40:15.727Z</time></trkpt><trkpt lat="43.0976183" lon="2.3098417"><ele>173.0</ele><time>2026-04-26T03:40:16.728Z</time></trkpt><trkpt lat="43.0975" lon="2.3097683"><ele>173.0</ele><time>2026-04-26T03:40:17.729Z</time></trkpt><trkpt lat="43.0973783" lon="2.3096983"><ele>173.0</ele><time>2026-04-26T03:40:18.73Z</time></trkpt><trkpt lat="43.0972517" lon="2.3096433"><ele>171.25</ele><time>2026-04-26T03:40:19.73Z</time></trkpt><trkpt lat="43.0971233" lon="2.309605"><ele>169.5</ele><time>2026-04-26T03:40:20.73Z</time></trkpt><trkpt lat="43.0969883" lon="2.30958"><ele>167.75</ele><time>2026-04-26T03:40:21.729Z</time></trkpt><trkpt lat="43.0968483" lon="2.3095667"><ele>166.0</ele><time>2026-04-26T03:40:22.73Z</time></trkpt><trkpt lat="43.096715" lon="2.3095633"><ele>166.0</ele><time>2026-04-26T03:40:23.73Z</time></trkpt><trkpt lat="43.0965833" lon="2.3095717"><ele>166.0</ele><time>2026-04-26T03:40:24.729Z</time></trkpt><trkpt lat="43.0964533" lon="2.3095833"><ele>166.0</ele><time>2026-04-26T03:40:25.729Z</time></trkpt><trkpt lat="43.0963217" lon="2.3095933"><ele>166.0</ele><time>2026-04-26T03:40:26.73Z</time></trkpt><trkpt lat="43.0961883" lon="2.30959"><ele>166.0</ele><time>2026-04-26T03:40:27.729Z</time></trkpt><trkpt lat="43.0960567" lon="2.3095733"><ele>166.0</ele><time>2026-04-26T03:40:28.731Z</time></trkpt><trkpt lat="43.0959267" lon="2.3095533"><ele>166.0</ele><time>2026-04-26T03:40:29.728Z</time></trkpt><trkpt lat="43.0958" lon="2.30953"><ele>166.0</ele><time>2026-04-26T03:40:30.732Z</time></trkpt><trkpt lat="43.09568" lon="2.3095"><ele>165.0</ele><time>2026-04-26T03:40:31.728Z</time></trkpt><trkpt lat="43.0955633" lon="2.3094733"><ele>164.0</ele><time>2026-04-26T03:40:32.73Z</time></trkpt><trkpt lat="43.095445" lon="2.3094483"><ele>163.0</ele><time>2026-04-26T03:40:33.729Z</time></trkpt><trkpt lat="43.095325" lon="2.309425"><ele>162.0</ele><time>2026-04-26T03:40:34.729Z</time></trkpt><trkpt lat="43.0952033" lon="2.309395"><ele>162.0</ele><time>2026-04-26T03:40:35.728Z</time></trkpt><trkpt lat="43.0950817" lon="2.30936"><ele>162.0</ele><time>2026-04-26T03:40:36.73Z</time></trkpt><trkpt lat="43.0949533" lon="2.3093267"><ele>162.0</ele><time>2026-04-26T03:40:37.728Z</time></trkpt><trkpt lat="43.0948217" lon="2.3092967"><ele>162.0</ele><time>2026-04-26T03:40:38.731Z</time></trkpt><trkpt lat="43.0946967" lon="2.3092683"><ele>163.5</ele><time>2026-04-26T03:40:39.729Z</time></trkpt><trkpt lat="43.0945817" lon="2.30924"><ele>165.0</ele><time>2026-04-26T03:40:40.729Z</time></trkpt><trkpt lat="43.0944667" lon="2.30921"><ele>166.5</ele><time>2026-04-26T03:40:41.728Z</time></trkpt><trkpt lat="43.09435" lon="2.3091717"><ele>168.0</ele><time>2026-04-26T03:40:42.728Z</time></trkpt><trkpt lat="43.0942317" lon="2.3091333"><ele>168.0</ele><time>2026-04-26T03:40:43.73Z</time></trkpt><trkpt lat="43.0941117" lon="2.3090933"><ele>168.0</ele><time>2026-04-26T03:40:44.728Z</time></trkpt><trkpt lat="43.0939967" lon="2.30905"><ele>168.0</ele><time>2026-04-26T03:40:45.729Z</time></trkpt><trkpt lat="43.0938883" lon="2.3090083"><ele>168.0</ele><time>2026-04-26T03:40:46.729Z</time></trkpt><trkpt lat="43.0937883" lon="2.30897"><ele>168.66666666666666</ele><time>2026-04-26T03:40:47.728Z</time></trkpt><trkpt lat="43.093695" lon="2.30894"><ele>169.33333333333334</ele><time>2026-04-26T03:40:48.729Z</time></trkpt><trkpt lat="43.09361" lon="2.3089133"><ele>170.0</ele><time>2026-04-26T03:40:49.729Z</time></trkpt><trkpt lat="43.0935367" lon="2.3088967"><ele>170.66666666666669</ele><time>2026-04-26T03:40:50.729Z</time></trkpt><trkpt lat="43.0934717" lon="2.3088783"><ele>171.33333333333334</ele><time>2026-04-26T03:40:51.731Z</time></trkpt><trkpt lat="43.093375" lon="2.30881"><ele>172.0</ele><time>2026-04-26T03:40:53.729Z</time></trkpt><trkpt lat="43.0933417" lon="2.308685"><ele>172.66666666666669</ele><time>2026-04-26T03:40:55.728Z</time></trkpt><trkpt lat="43.0933683" lon="2.3085933"><ele>173.33333333333334</ele><time>2026-04-26T03:40:56.729Z</time></trkpt><trkpt lat="43.093395" lon="2.3084883"><ele>174.0</ele><time>2026-04-26T03:40:57.73Z</time></trkpt><trkpt lat="43.0934217" lon="2.3083783"><ele>174.66666666666666</ele><time>2026-04-26T03:40:58.728Z</time></trkpt><trkpt lat="43.0934383" lon="2.3082667"><ele>175.33333333333331</ele><time>2026-04-26T03:40:59.728Z</time></trkpt><trkpt lat="43.0934483" lon="2.3081583"><ele>176.0</ele><time>2026-04-26T03:41:00.729Z</time></trkpt><trkpt lat="43.09344" lon="2.3080383"><ele>176.20000000000002</ele><time>2026-04-26T03:41:01.729Z</time></trkpt><trkpt lat="43.0934267" lon="2.3079083"><ele>176.4</ele><time>2026-04-26T03:41:02.729Z</time></trkpt><trkpt lat="43.0934183" lon="2.307775"><ele>176.6</ele><time>2026-04-26T03:41:03.734Z</time></trkpt><trkpt lat="43.0933967" lon="2.3076433"><ele>176.8</ele><time>2026-04-26T03:41:04.729Z</time></trkpt><trkpt lat="43.0933717" lon="2.3075083"><ele>177.0</ele><time>2026-04-26T03:41:05.729Z</time></trkpt><trkpt lat="43.0933333" lon="2.3073867"><ele>177.0</ele><time>2026-04-26T03:41:06.729Z</time></trkpt><trkpt lat="43.093285" lon="2.3072717"><ele>177.0</ele><time>2026-04-26T03:41:07.729Z</time></trkpt><trkpt lat="43.0932283" lon="2.3071767"><ele>177.0</ele><time>2026-04-26T03:41:08.729Z</time></trkpt><trkpt lat="43.0931667" lon="2.30711"><ele>177.0</ele><time>2026-04-26T03:41:09.729Z</time></trkpt><trkpt lat="43.0931" lon="2.30705"><ele>177.0</ele><time>2026-04-26T03:41:10.73Z</time></trkpt><trkpt lat="43.0930233" lon="2.306985"><ele>177.0</ele><time>2026-04-26T03:41:11.731Z</time></trkpt><trkpt lat="43.0929517" lon="2.30692"><ele>179.39999999999998</ele><time>2026-04-26T03:41:12.728Z</time></trkpt><trkpt lat="43.0928833" lon="2.306855"><ele>181.79999999999998</ele><time>2026-04-26T03:41:13.729Z</time></trkpt><trkpt lat="43.0928283" lon="2.3068117"><ele>184.2</ele><time>2026-04-26T03:41:14.729Z</time></trkpt><trkpt lat="43.0927317" lon="2.3067683"><ele>186.6</ele><time>2026-04-26T03:41:16.729Z</time></trkpt><trkpt lat="43.0926383" lon="2.3068467"><ele>189.0</ele><time>2026-04-26T03:41:18.73Z</time></trkpt><trkpt lat="43.0925267" lon="2.3068183"><ele>189.0</ele><time>2026-04-26T03:41:20.73Z</time></trkpt><trkpt lat="43.09245" lon="2.3066983"><ele>189.0</ele><time>2026-04-26T03:41:22.729Z</time></trkpt><trkpt lat="43.0924517" lon="2.3065883"><ele>189.0</ele><time>2026-04-26T03:41:23.73Z</time></trkpt><trkpt lat="43.0924367" lon="2.3064817"><ele>189.0</ele><time>2026-04-26T03:41:24.729Z</time></trkpt><trkpt lat="43.0924117" lon="2.30637"><ele>189.0</ele><time>2026-04-26T03:41:25.728Z</time></trkpt><trkpt lat="43.0923567" lon="2.306265"><ele>190.25</ele><time>2026-04-26T03:41:26.728Z</time></trkpt><trkpt lat="43.0922683" lon="2.306165"><ele>191.5</ele><time>2026-04-26T03:41:27.728Z</time></trkpt><trkpt lat="43.0921717" lon="2.30606"><ele>192.75</ele><time>2026-04-26T03:41:28.728Z</time></trkpt><trkpt lat="43.092065" lon="2.30595"><ele>194.0</ele><time>2026-04-26T03:41:29.729Z</time></trkpt><trkpt lat="43.0919617" lon="2.3058383"><ele>194.0</ele><time>2026-04-26T03:41:30.729Z</time></trkpt><trkpt lat="43.09186" lon="2.3057283"><ele>194.0</ele><time>2026-04-26T03:41:31.728Z</time></trkpt><trkpt lat="43.09176" lon="2.3056167"><ele>194.0</ele><time>2026-04-26T03:41:32.728Z</time></trkpt><trkpt lat="43.0916683" lon="2.3054967"><ele>194.0</ele><time>2026-04-26T03:41:33.728Z</time></trkpt><trkpt lat="43.09158" lon="2.3053817"><ele>197.39999999999998</ele><time>2026-04-26T03:41:34.729Z</time></trkpt><trkpt lat="43.091485" lon="2.3052933"><ele>200.8</ele><time>2026-04-26T03:41:35.727Z</time></trkpt><trkpt lat="43.0913867" lon="2.30524"><ele>204.2</ele><time>2026-04-26T03:41:36.729Z</time></trkpt><trkpt lat="43.09129" lon="2.305195"><ele>207.60000000000002</ele><time>2026-04-26T03:41:37.728Z</time></trkpt><trkpt lat="43.091195" lon="2.305135"><ele>211.0</ele><time>2026-04-26T03:41:38.729Z</time></trkpt><trkpt lat="43.0911" lon="2.30506"><ele>211.0</ele><time>2026-04-26T03:41:39.727Z</time></trkpt><trkpt lat="43.090995" lon="2.30499"><ele>211.0</ele><time>2026-04-26T03:41:40.729Z</time></trkpt><trkpt lat="43.09089" lon="2.3049483"><ele>211.0</ele><time>2026-04-26T03:41:41.727Z</time></trkpt><trkpt lat="43.090785" lon="2.3049183"><ele>211.0</ele><time>2026-04-26T03:41:42.729Z</time></trkpt><trkpt lat="43.0906817" lon="2.3048817"><ele>211.0</ele><time>2026-04-26T03:41:43.727Z</time></trkpt><trkpt lat="43.0905733" lon="2.304845"><ele>213.0</ele><time>2026-04-26T03:41:44.727Z</time></trkpt><trkpt lat="43.0904617" lon="2.3048017"><ele>215.0</ele><time>2026-04-26T03:41:45.732Z</time></trkpt><trkpt lat="43.0903517" lon="2.3047417"><ele>217.0</ele><time>2026-04-26T03:41:46.727Z</time></trkpt><trkpt lat="43.09025" lon="2.3046717"><ele>219.0</ele><time>2026-04-26T03:41:47.728Z</time></trkpt><trkpt lat="43.0901567" lon="2.30459"><ele>220.75</ele><time>2026-04-26T03:41:48.729Z</time></trkpt><trkpt lat="43.09006" lon="2.3045033"><ele>222.5</ele><time>2026-04-26T03:41:49.729Z</time></trkpt><trkpt lat="43.08996" lon="2.3044267"><ele>224.25</ele><time>2026-04-26T03:41:50.729Z</time></trkpt><trkpt lat="43.08985" lon="2.3043667"><ele>226.0</ele><time>2026-04-26T03:41:51.728Z</time></trkpt><trkpt lat="43.0897333" lon="2.304315"><ele>226.25</ele><time>2026-04-26T03:41:52.728Z</time></trkpt><trkpt lat="43.0896083" lon="2.304265"><ele>226.5</ele><time>2026-04-26T03:41:53.73Z</time></trkpt><trkpt lat="43.0894783" lon="2.30421"><ele>226.75</ele><time>2026-04-26T03:41:54.729Z</time></trkpt><trkpt lat="43.0893517" lon="2.3041583"><ele>227.0</ele><time>2026-04-26T03:41:55.735Z</time></trkpt><trkpt lat="43.0892367" lon="2.30411"><ele>227.0</ele><time>2026-04-26T03:41:56.73Z</time></trkpt><trkpt lat="43.089135" lon="2.3040617"><ele>227.0</ele><time>2026-04-26T03:41:57.729Z</time></trkpt><trkpt lat="43.089045" lon="2.304"><ele>227.0</ele><time>2026-04-26T03:41:58.728Z</time></trkpt><trkpt lat="43.0889683" lon="2.303915"><ele>227.0</ele><time>2026-04-26T03:41:59.728Z</time></trkpt><trkpt lat="43.0889067" lon="2.303815"><ele>227.0</ele><time>2026-04-26T03:42:00.729Z</time></trkpt><trkpt lat="43.0888467" lon="2.30371"><ele>228.5</ele><time>2026-04-26T03:42:01.728Z</time></trkpt><trkpt lat="43.0887783" lon="2.3035967"><ele>230.0</ele><time>2026-04-26T03:42:02.728Z</time></trkpt><trkpt lat="43.0887" lon="2.3034783"><ele>231.5</ele><time>2026-04-26T03:42:03.729Z</time></trkpt><trkpt lat="43.0886167" lon="2.3033617"><ele>233.0</ele><time>2026-04-26T03:42:04.73Z</time></trkpt><trkpt lat="43.0885367" lon="2.3032433"><ele>233.0</ele><time>2026-04-26T03:42:05.73Z</time></trkpt><trkpt lat="43.088465" lon="2.3031133"><ele>233.0</ele><time>2026-04-26T03:42:06.729Z</time></trkpt><trkpt lat="43.0884067" lon="2.302985"><ele>233.0</ele><time>2026-04-26T03:42:07.73Z</time></trkpt><trkpt lat="43.0883583" lon="2.302865"><ele>233.0</ele><time>2026-04-26T03:42:08.728Z</time></trkpt><trkpt lat="43.088305" lon="2.3027633"><ele>233.0</ele><time>2026-04-26T03:42:09.731Z</time></trkpt><trkpt lat="43.08823" lon="2.3026767"><ele>232.0</ele><time>2026-04-26T03:42:10.728Z</time></trkpt><trkpt lat="43.0881367" lon="2.3026"><ele>231.0</ele><time>2026-04-26T03:42:11.729Z</time></trkpt><trkpt lat="43.0880317" lon="2.3025167"><ele>230.0</ele><time>2026-04-26T03:42:12.729Z</time></trkpt><trkpt lat="43.0879233" lon="2.3024217"><ele>229.0</ele><time>2026-04-26T03:42:13.728Z</time></trkpt><trkpt lat="43.087805" lon="2.3023167"><ele>230.0</ele><time>2026-04-26T03:42:14.728Z</time></trkpt><trkpt lat="43.0876767" lon="2.30221"><ele>231.0</ele><time>2026-04-26T03:42:15.729Z</time></trkpt><trkpt lat="43.0875417" lon="2.3021117"><ele>232.0</ele><time>2026-04-26T03:42:16.732Z</time></trkpt><trkpt lat="43.087415" lon="2.3020233"><ele>233.0</ele><time>2026-04-26T03:42:17.729Z</time></trkpt><trkpt lat="43.0872983" lon="2.3019333"><ele>233.0</ele><time>2026-04-26T03:42:18.728Z</time></trkpt><trkpt lat="43.0871883" lon="2.3018433"><ele>233.0</ele><time>2026-04-26T03:42:19.728Z</time></trkpt><trkpt lat="43.0870817" lon="2.301765"><ele>233.0</ele><time>2026-04-26T03:42:20.73Z</time></trkpt><trkpt lat="43.0869683" lon="2.3017083"><ele>233.0</ele><time>2026-04-26T03:42:21.727Z</time></trkpt><trkpt lat="43.08685" lon="2.30166"><ele>233.0</ele><time>2026-04-26T03:42:22.73Z</time></trkpt><trkpt lat="43.086725" lon="2.3016167"><ele>233.0</ele><time>2026-04-26T03:42:23.729Z</time></trkpt><trkpt lat="43.0865917" lon="2.3015933"><ele>233.0</ele><time>2026-04-26T03:42:24.73Z</time></trkpt><trkpt lat="43.0864583" lon="2.30159"><ele>233.0</ele><time>2026-04-26T03:42:25.727Z</time></trkpt><trkpt lat="43.0863367" lon="2.3016"><ele>234.60000000000002</ele><time>2026-04-26T03:42:26.728Z</time></trkpt><trkpt lat="43.0862333" lon="2.3016"><ele>236.20000000000002</ele><time>2026-04-26T03:42:27.727Z</time></trkpt><trkpt lat="43.0861367" lon="2.3015933"><ele>237.8</ele><time>2026-04-26T03:42:28.728Z</time></trkpt><trkpt lat="43.08603" lon="2.3015683"><ele>239.4</ele><time>2026-04-26T03:42:29.731Z</time></trkpt><trkpt lat="43.0859167" lon="2.3015367"><ele>241.0</ele><time>2026-04-26T03:42:30.727Z</time></trkpt><trkpt lat="43.0857967" lon="2.3015"><ele>243.0</ele><time>2026-04-26T03:42:31.729Z</time></trkpt><trkpt lat="43.085675" lon="2.301465"><ele>245.0</ele><time>2026-04-26T03:42:32.729Z</time></trkpt><trkpt lat="43.08556" lon="2.3014233"><ele>247.0</ele><time>2026-04-26T03:42:33.728Z</time></trkpt><trkpt lat="43.0854483" lon="2.301365"><ele>249.0</ele><time>2026-04-26T03:42:34.729Z</time></trkpt><trkpt lat="43.0853433" lon="2.3013067"><ele>249.0</ele><time>2026-04-26T03:42:35.729Z</time></trkpt><trkpt lat="43.085245" lon="2.3012517"><ele>248.99999999999997</ele><time>2026-04-26T03:42:36.728Z</time></trkpt><trkpt lat="43.0851433" lon="2.3012117"><ele>248.99999999999997</ele><time>2026-04-26T03:42:37.728Z</time></trkpt><trkpt lat="43.0850417" lon="2.301185"><ele>249.0</ele><time>2026-04-26T03:42:38.728Z</time></trkpt><trkpt lat="43.084935" lon="2.3011833"><ele>249.0</ele><time>2026-04-26T03:42:39.728Z</time></trkpt><trkpt lat="43.0848283" lon="2.30121"><ele>251.6</ele><time>2026-04-26T03:42:40.729Z</time></trkpt><trkpt lat="43.0847217" lon="2.3012383"><ele>254.2</ele><time>2026-04-26T03:42:41.729Z</time></trkpt><trkpt lat="43.08462" lon="2.3012733"><ele>256.79999999999995</ele><time>2026-04-26T03:42:42.728Z</time></trkpt><trkpt lat="43.08453" lon="2.30131"><ele>259.4</ele><time>2026-04-26T03:42:43.727Z</time></trkpt><trkpt lat="43.08446" lon="2.3013383"><ele>262.0</ele><time>2026-04-26T03:42:44.73Z</time></trkpt><trkpt lat="43.0843533" lon="2.3013583"><ele>262.0</ele><time>2026-04-26T03:42:46.728Z</time></trkpt><trkpt lat="43.0842483" lon="2.3013067"><ele>262.0</ele><time>2026-04-26T03:42:48.729Z</time></trkpt><trkpt lat="43.0841783" lon="2.301245"><ele>262.0</ele><time>2026-04-26T03:42:50.73Z</time></trkpt><trkpt lat="43.0841567" lon="2.3013467"><ele>262.0</ele><time>2026-04-26T03:42:52.728Z</time></trkpt><trkpt lat="43.0841767" lon="2.3015117"><ele>262.0</ele><time>2026-04-26T03:42:54.728Z</time></trkpt><trkpt lat="43.0840667" lon="2.3016367"><ele>262.75</ele><time>2026-04-26T03:42:56.729Z</time></trkpt><trkpt lat="43.083965" lon="2.3016633"><ele>263.5</ele><time>2026-04-26T03:42:57.727Z</time></trkpt><trkpt lat="43.08385" lon="2.30167"><ele>264.25</ele><time>2026-04-26T03:42:58.73Z</time></trkpt><trkpt lat="43.0837317" lon="2.30166"><ele>265.0</ele><time>2026-04-26T03:42:59.73Z</time></trkpt><trkpt lat="43.0836117" lon="2.3016333"><ele>265.0</ele><time>2026-04-26T03:43:00.727Z</time></trkpt><trkpt lat="43.0834917" lon="2.30161"><ele>265.0</ele><time>2026-04-26T03:43:01.727Z</time></trkpt><trkpt lat="43.0833717" lon="2.30161"><ele>265.0</ele><time>2026-04-26T03:43:02.729Z</time></trkpt><trkpt lat="43.0832567" lon="2.3016533"><ele>265.0</ele><time>2026-04-26T03:43:03.729Z</time></trkpt><trkpt lat="43.083155" lon="2.3017467"><ele>267.5</ele><time>2026-04-26T03:43:04.728Z</time></trkpt><trkpt lat="43.0830667" lon="2.30187"><ele>270.0</ele><time>2026-04-26T03:43:05.728Z</time></trkpt><trkpt lat="43.0829817" lon="2.3020067"><ele>272.5</ele><time>2026-04-26T03:43:06.728Z</time></trkpt><trkpt lat="43.0829" lon="2.30213"><ele>275.0</ele><time>2026-04-26T03:43:07.729Z</time></trkpt><trkpt lat="43.082825" lon="2.3022383"><ele>273.1666666666667</ele><time>2026-04-26T03:43:08.729Z</time></trkpt><trkpt lat="43.082755" lon="2.3023317"><ele>271.33333333333337</ele><time>2026-04-26T03:43:09.729Z</time></trkpt><trkpt lat="43.0826883" lon="2.3024033"><ele>269.5</ele><time>2026-04-26T03:43:10.727Z</time></trkpt><trkpt lat="43.082615" lon="2.302445"><ele>267.6666666666667</ele><time>2026-04-26T03:43:11.732Z</time></trkpt><trkpt lat="43.082535" lon="2.30245"><ele>265.8333333333333</ele><time>2026-04-26T03:43:12.729Z</time></trkpt><trkpt lat="43.082445" lon="2.3024017"><ele>264.0</ele><time>2026-04-26T03:43:13.728Z</time></trkpt><trkpt lat="43.0823433" lon="2.3023483"><ele>263.0</ele><time>2026-04-26T03:43:14.728Z</time></trkpt><trkpt lat="43.0822367" lon="2.3023117"><ele>262.0</ele><time>2026-04-26T03:43:15.729Z</time></trkpt><trkpt lat="43.082115" lon="2.302315"><ele>261.0</ele><time>2026-04-26T03:43:16.729Z</time></trkpt><trkpt lat="43.0819967" lon="2.30236"><ele>260.0</ele><time>2026-04-26T03:43:17.728Z</time></trkpt><trkpt lat="43.08189" lon="2.3024033"><ele>260.0</ele><time>2026-04-26T03:43:18.727Z</time></trkpt><trkpt lat="43.0817883" lon="2.3024233"><ele>260.0</ele><time>2026-04-26T03:43:19.727Z</time></trkpt><trkpt lat="43.08169" lon="2.3023967"><ele>260.0</ele><time>2026-04-26T03:43:20.73Z</time></trkpt><trkpt lat="43.0815833" lon="2.3023483"><ele>260.0</ele><time>2026-04-26T03:43:21.729Z</time></trkpt><trkpt lat="43.0814767" lon="2.3022683"><ele>260.0</ele><time>2026-04-26T03:43:22.73Z</time></trkpt><trkpt lat="43.0813667" lon="2.3022317"><ele>260.0</ele><time>2026-04-26T03:43:23.728Z</time></trkpt><trkpt lat="43.0812367" lon="2.3022133"><ele>260.0</ele><time>2026-04-26T03:43:24.729Z</time></trkpt><trkpt lat="43.0810883" lon="2.30224"><ele>260.0</ele><time>2026-04-26T03:43:25.729Z</time></trkpt><trkpt lat="43.0809533" lon="2.3022683"><ele>260.0</ele><time>2026-04-26T03:43:26.732Z</time></trkpt><trkpt lat="43.0808433" lon="2.302275"><ele>257.0</ele><time>2026-04-26T03:43:27.729Z</time></trkpt><trkpt lat="43.08075" lon="2.3022467"><ele>254.0</ele><time>2026-04-26T03:43:28.729Z</time></trkpt><trkpt lat="43.0806767" lon="2.3021933"><ele>251.0</ele><time>2026-04-26T03:43:29.727Z</time></trkpt><trkpt lat="43.080625" lon="2.30208"><ele>248.0</ele><time>2026-04-26T03:43:30.727Z</time></trkpt><trkpt lat="43.0805833" lon="2.3019333"><ele>245.0</ele><time>2026-04-26T03:43:31.73Z</time></trkpt><trkpt lat="43.080535" lon="2.3017683"><ele>245.0</ele><time>2026-04-26T03:43:32.728Z</time></trkpt><trkpt lat="43.0804817" lon="2.3016"><ele>245.0</ele><time>2026-04-26T03:43:33.727Z</time></trkpt><trkpt lat="43.0804267" lon="2.3014333"><ele>245.0</ele><time>2026-04-26T03:43:34.728Z</time></trkpt><trkpt lat="43.0803717" lon="2.301255"><ele>245.0</ele><time>2026-04-26T03:43:35.729Z</time></trkpt><trkpt lat="43.0803167" lon="2.301075"><ele>245.75</ele><time>2026-04-26T03:43:36.729Z</time></trkpt><trkpt lat="43.08026" lon="2.3009033"><ele>246.5</ele><time>2026-04-26T03:43:37.729Z</time></trkpt><trkpt lat="43.0801983" lon="2.300735"><ele>247.25</ele><time>2026-04-26T03:43:38.729Z</time></trkpt><trkpt lat="43.0801217" lon="2.300575"><ele>248.0</ele><time>2026-04-26T03:43:39.728Z</time></trkpt><trkpt lat="43.0800417" lon="2.3004283"><ele>248.25</ele><time>2026-04-26T03:43:40.729Z</time></trkpt><trkpt lat="43.0799683" lon="2.300275"><ele>248.5</ele><time>2026-04-26T03:43:41.727Z</time></trkpt><trkpt lat="43.0799033" lon="2.3001133"><ele>248.75</ele><time>2026-04-26T03:43:42.728Z</time></trkpt><trkpt lat="43.0798467" lon="2.299945"><ele>249.0</ele><time>2026-04-26T03:43:43.727Z</time></trkpt><trkpt lat="43.079795" lon="2.2997783"><ele>245.5</ele><time>2026-04-26T03:43:44.728Z</time></trkpt><trkpt lat="43.0797533" lon="2.2996167"><ele>242.0</ele><time>2026-04-26T03:43:45.727Z</time></trkpt><trkpt lat="43.0797017" lon="2.2994617"><ele>238.5</ele><time>2026-04-26T03:43:46.728Z</time></trkpt><trkpt lat="43.0796317" lon="2.2993117"><ele>235.0</ele><time>2026-04-26T03:43:47.728Z</time></trkpt><trkpt lat="43.0795383" lon="2.299175"><ele>235.0</ele><time>2026-04-26T03:43:48.728Z</time></trkpt><trkpt lat="43.07942" lon="2.2990583"><ele>235.0</ele><time>2026-04-26T03:43:49.733Z</time></trkpt><trkpt lat="43.07929" lon="2.2989517"><ele>235.0</ele><time>2026-04-26T03:43:50.729Z</time></trkpt><trkpt lat="43.0791617" lon="2.298835"><ele>236.0</ele><time>2026-04-26T03:43:51.727Z</time></trkpt><trkpt lat="43.0790333" lon="2.2987117"><ele>237.0</ele><time>2026-04-26T03:43:52.729Z</time></trkpt><trkpt lat="43.0789017" lon="2.2985867"><ele>238.0</ele><time>2026-04-26T03:43:53.728Z</time></trkpt><trkpt lat="43.0787667" lon="2.298465"><ele>238.0</ele><time>2026-04-26T03:43:54.728Z</time></trkpt><trkpt lat="43.0786267" lon="2.2983483"><ele>238.0</ele><time>2026-04-26T03:43:55.728Z</time></trkpt><trkpt lat="43.0784833" lon="2.29824"><ele>238.0</ele><time>2026-04-26T03:43:56.729Z</time></trkpt><trkpt lat="43.07834" lon="2.2981417"><ele>239.25</ele><time>2026-04-26T03:43:57.73Z</time></trkpt><trkpt lat="43.078205" lon="2.2980683"><ele>240.5</ele><time>2026-04-26T03:43:58.729Z</time></trkpt><trkpt lat="43.0780733" lon="2.2980233"><ele>241.75</ele><time>2026-04-26T03:43:59.727Z</time></trkpt><trkpt lat="43.077945" lon="2.2980083"><ele>243.0</ele><time>2026-04-26T03:44:00.728Z</time></trkpt><trkpt lat="43.0778217" lon="2.2980033"><ele>243.0</ele><time>2026-04-26T03:44:01.728Z</time></trkpt><trkpt lat="43.0777083" lon="2.297985"><ele>243.0</ele><time>2026-04-26T03:44:02.728Z</time></trkpt><trkpt lat="43.0776017" lon="2.2979367"><ele>243.0</ele><time>2026-04-26T03:44:03.729Z</time></trkpt><trkpt lat="43.0775033" lon="2.2978667"><ele>243.0</ele><time>2026-04-26T03:44:04.728Z</time></trkpt><trkpt lat="43.0774067" lon="2.2977783"><ele>241.0</ele><time>2026-04-26T03:44:05.728Z</time></trkpt><trkpt lat="43.077305" lon="2.29769"><ele>239.0</ele><time>2026-04-26T03:44:06.728Z</time></trkpt><trkpt lat="43.0771967" lon="2.2976117"><ele>237.0</ele><time>2026-04-26T03:44:07.731Z</time></trkpt><trkpt lat="43.0770817" lon="2.2975417"><ele>235.0</ele><time>2026-04-26T03:44:08.729Z</time></trkpt><trkpt lat="43.0769667" lon="2.29747"><ele>235.0</ele><time>2026-04-26T03:44:09.728Z</time></trkpt><trkpt lat="43.0768517" lon="2.29739"><ele>235.0</ele><time>2026-04-26T03:44:10.729Z</time></trkpt><trkpt lat="43.0767417" lon="2.2972967"><ele>235.0</ele><time>2026-04-26T03:44:11.731Z</time></trkpt><trkpt lat="43.0766367" lon="2.297195"><ele>235.0</ele><time>2026-04-26T03:44:12.728Z</time></trkpt><trkpt lat="43.0765283" lon="2.2970883"><ele>236.5</ele><time>2026-04-26T03:44:13.729Z</time></trkpt><trkpt lat="43.0764167" lon="2.2969817"><ele>238.0</ele><time>2026-04-26T03:44:14.731Z</time></trkpt><trkpt lat="43.07631" lon="2.296885"><ele>239.5</ele><time>2026-04-26T03:44:15.728Z</time></trkpt><trkpt lat="43.0762083" lon="2.2968117"><ele>241.0</ele><time>2026-04-26T03:44:16.728Z</time></trkpt><trkpt lat="43.0761067" lon="2.296765"><ele>241.0</ele><time>2026-04-26T03:44:17.73Z</time></trkpt><trkpt lat="43.0760017" lon="2.2967467"><ele>241.00000000000003</ele><time>2026-04-26T03:44:18.728Z</time></trkpt><trkpt lat="43.0758983" lon="2.296775"><ele>241.00000000000003</ele><time>2026-04-26T03:44:19.728Z</time></trkpt><trkpt lat="43.0758033" lon="2.2968433"><ele>241.0</ele><time>2026-04-26T03:44:20.73Z</time></trkpt><trkpt lat="43.0757183" lon="2.29693"><ele>241.0</ele><time>2026-04-26T03:44:21.729Z</time></trkpt><trkpt lat="43.0756433" lon="2.2970167"><ele>240.49999999999997</ele><time>2026-04-26T03:44:22.728Z</time></trkpt><trkpt lat="43.0755733" lon="2.2971017"><ele>240.0</ele><time>2026-04-26T03:44:23.73Z</time></trkpt><trkpt lat="43.0755133" lon="2.2971817"><ele>239.5</ele><time>2026-04-26T03:44:24.727Z</time></trkpt><trkpt lat="43.0754633" lon="2.2972483"><ele>239.0</ele><time>2026-04-26T03:44:25.729Z</time></trkpt><trkpt lat="43.0753817" lon="2.29732"><ele>238.49999999999997</ele><time>2026-04-26T03:44:27.729Z</time></trkpt><trkpt lat="43.0753283" lon="2.2972317"><ele>238.0</ele><time>2026-04-26T03:44:30.73Z</time></trkpt><trkpt lat="43.0753433" lon="2.2971367"><ele>237.99999999999997</ele><time>2026-04-26T03:44:31.729Z</time></trkpt><trkpt lat="43.075355" lon="2.2970433"><ele>238.0</ele><time>2026-04-26T03:44:32.729Z</time></trkpt><trkpt lat="43.0753617" lon="2.2969417"><ele>238.0</ele><time>2026-04-26T03:44:33.729Z</time></trkpt><trkpt lat="43.0753667" lon="2.29683"><ele>238.0</ele><time>2026-04-26T03:44:34.729Z</time></trkpt><trkpt lat="43.0753617" lon="2.2967133"><ele>237.99999999999997</ele><time>2026-04-26T03:44:35.73Z</time></trkpt><trkpt lat="43.075335" lon="2.2965967"><ele>238.0</ele><time>2026-04-26T03:44:36.73Z</time></trkpt><trkpt lat="43.07529" lon="2.2964833"><ele>239.4</ele><time>2026-04-26T03:44:37.728Z</time></trkpt><trkpt lat="43.075235" lon="2.2963733"><ele>240.8</ele><time>2026-04-26T03:44:38.73Z</time></trkpt><trkpt lat="43.075175" lon="2.2962583"><ele>242.2</ele><time>2026-04-26T03:44:39.729Z</time></trkpt><trkpt lat="43.0751133" lon="2.2961383"><ele>243.6</ele><time>2026-04-26T03:44:40.728Z</time></trkpt><trkpt lat="43.07505" lon="2.2960083"><ele>245.0</ele><time>2026-04-26T03:44:41.735Z</time></trkpt><trkpt lat="43.0749767" lon="2.2958767"><ele>245.0</ele><time>2026-04-26T03:44:42.729Z</time></trkpt><trkpt lat="43.07489" lon="2.2957517"><ele>245.0</ele><time>2026-04-26T03:44:43.73Z</time></trkpt><trkpt lat="43.0747917" lon="2.2956433"><ele>245.0</ele><time>2026-04-26T03:44:44.73Z</time></trkpt><trkpt lat="43.074695" lon="2.29555"><ele>245.0</ele><time>2026-04-26T03:44:45.729Z</time></trkpt><trkpt lat="43.0746033" lon="2.2954667"><ele>245.0</ele><time>2026-04-26T03:44:46.729Z</time></trkpt><trkpt lat="43.07452" lon="2.295375"><ele>245.0</ele><time>2026-04-26T03:44:47.727Z</time></trkpt><trkpt lat="43.0744467" lon="2.2952583"><ele>245.0</ele><time>2026-04-26T03:44:48.728Z</time></trkpt><trkpt lat="43.0743783" lon="2.29512"><ele>245.0</ele><time>2026-04-26T03:44:49.728Z</time></trkpt><trkpt lat="43.07432" lon="2.29497"><ele>245.0</ele><time>2026-04-26T03:44:50.729Z</time></trkpt><trkpt lat="43.0742767" lon="2.2948167"><ele>245.0</ele><time>2026-04-26T03:44:51.728Z</time></trkpt><trkpt lat="43.0742483" lon="2.2946567"><ele>245.0</ele><time>2026-04-26T03:44:52.728Z</time></trkpt><trkpt lat="43.07422" lon="2.29449"><ele>245.0</ele><time>2026-04-26T03:44:53.732Z</time></trkpt><trkpt lat="43.0741833" lon="2.2943183"><ele>245.25</ele><time>2026-04-26T03:44:54.728Z</time></trkpt><trkpt lat="43.0741233" lon="2.29416"><ele>245.5</ele><time>2026-04-26T03:44:55.733Z</time></trkpt><trkpt lat="43.0740433" lon="2.2940217"><ele>245.75</ele><time>2026-04-26T03:44:56.729Z</time></trkpt><trkpt lat="43.0739517" lon="2.2939"><ele>246.0</ele><time>2026-04-26T03:44:57.727Z</time></trkpt><trkpt lat="43.0738583" lon="2.2937917"><ele>246.0</ele><time>2026-04-26T03:44:58.729Z</time></trkpt><trkpt lat="43.0737767" lon="2.29368"><ele>246.0</ele><time>2026-04-26T03:44:59.728Z</time></trkpt><trkpt lat="43.0737083" lon="2.29355"><ele>246.0</ele><time>2026-04-26T03:45:00.729Z</time></trkpt><trkpt lat="43.0736483" lon="2.2934"><ele>246.0</ele><time>2026-04-26T03:45:01.727Z</time></trkpt><trkpt lat="43.0735933" lon="2.293235"><ele>247.5</ele><time>2026-04-26T03:45:02.729Z</time></trkpt><trkpt lat="43.0735417" lon="2.2930583"><ele>249.0</ele><time>2026-04-26T03:45:03.729Z</time></trkpt><trkpt lat="43.0734933" lon="2.2928783"><ele>250.5</ele><time>2026-04-26T03:45:04.728Z</time></trkpt><trkpt lat="43.073445" lon="2.2926983"><ele>252.0</ele><time>2026-04-26T03:45:05.727Z</time></trkpt><trkpt lat="43.0733917" lon="2.2925233"><ele>252.0</ele><time>2026-04-26T03:45:06.728Z</time></trkpt><trkpt lat="43.07333" lon="2.2923483"><ele>252.0</ele><time>2026-04-26T03:45:07.727Z</time></trkpt><trkpt lat="43.0732583" lon="2.29218"><ele>252.0</ele><time>2026-04-26T03:45:08.729Z</time></trkpt><trkpt lat="43.07318" lon="2.2920233"><ele>252.0</ele><time>2026-04-26T03:45:09.729Z</time></trkpt><trkpt lat="43.0730983" lon="2.2918783"><ele>252.75</ele><time>2026-04-26T03:45:10.729Z</time></trkpt><trkpt lat="43.0730067" lon="2.29174"><ele>253.5</ele><time>2026-04-26T03:45:11.73Z</time></trkpt><trkpt lat="43.072905" lon="2.291605"><ele>254.25</ele><time>2026-04-26T03:45:12.728Z</time></trkpt><trkpt lat="43.072805" lon="2.2914667"><ele>255.0</ele><time>2026-04-26T03:45:13.727Z</time></trkpt><trkpt lat="43.072705" lon="2.291315"><ele>256.0</ele><time>2026-04-26T03:45:14.729Z</time></trkpt><trkpt lat="43.07261" lon="2.2911533"><ele>257.0</ele><time>2026-04-26T03:45:15.728Z</time></trkpt><trkpt lat="43.0725267" lon="2.2909883"><ele>258.0</ele><time>2026-04-26T03:45:16.729Z</time></trkpt><trkpt lat="43.0724567" lon="2.2908333"><ele>259.0</ele><time>2026-04-26T03:45:17.731Z</time></trkpt><trkpt lat="43.072405" lon="2.29068"><ele>260.25</ele><time>2026-04-26T03:45:18.727Z</time></trkpt><trkpt lat="43.0723617" lon="2.2905167"><ele>261.5</ele><time>2026-04-26T03:45:19.729Z</time></trkpt><trkpt lat="43.0723067" lon="2.29035"><ele>262.75</ele><time>2026-04-26T03:45:20.73Z</time></trkpt><trkpt lat="43.0722367" lon="2.29019"><ele>264.0</ele><time>2026-04-26T03:45:21.728Z</time></trkpt><trkpt lat="43.0721583" lon="2.2900367"><ele>264.0</ele><time>2026-04-26T03:45:22.729Z</time></trkpt><trkpt lat="43.0720783" lon="2.2898817"><ele>264.0</ele><time>2026-04-26T03:45:23.728Z</time></trkpt><trkpt lat="43.071995" lon="2.2897317"><ele>264.0</ele><time>2026-04-26T03:45:24.728Z</time></trkpt><trkpt lat="43.0719033" lon="2.289595"><ele>264.0</ele><time>2026-04-26T03:45:25.727Z</time></trkpt><trkpt lat="43.0718017" lon="2.2894733"><ele>266.0</ele><time>2026-04-26T03:45:26.728Z</time></trkpt><trkpt lat="43.0716967" lon="2.2893733"><ele>268.0</ele><time>2026-04-26T03:45:27.729Z</time></trkpt><trkpt lat="43.071595" lon="2.2893017"><ele>270.0</ele><time>2026-04-26T03:45:28.728Z</time></trkpt><trkpt lat="43.0714917" lon="2.2892517"><ele>272.0</ele><time>2026-04-26T03:45:29.73Z</time></trkpt><trkpt lat="43.0713917" lon="2.2892167"><ele>274.2</ele><time>2026-04-26T03:45:30.727Z</time></trkpt><trkpt lat="43.0712983" lon="2.2891683"><ele>276.4</ele><time>2026-04-26T03:45:31.73Z</time></trkpt><trkpt lat="43.071225" lon="2.2890833"><ele>278.6</ele><time>2026-04-26T03:45:32.729Z</time></trkpt><trkpt lat="43.071175" lon="2.28896"><ele>280.8</ele><time>2026-04-26T03:45:33.73Z</time></trkpt><trkpt lat="43.0711517" lon="2.2888167"><ele>283.0</ele><time>2026-04-26T03:45:34.728Z</time></trkpt><trkpt lat="43.071155" lon="2.2886667"><ele>283.2</ele><time>2026-04-26T03:45:35.73Z</time></trkpt><trkpt lat="43.071185" lon="2.288515"><ele>283.4</ele><time>2026-04-26T03:45:36.729Z</time></trkpt><trkpt lat="43.0712283" lon="2.2883667"><ele>283.59999999999997</ele><time>2026-04-26T03:45:37.73Z</time></trkpt><trkpt lat="43.0712767" lon="2.2882317"><ele>283.8</ele><time>2026-04-26T03:45:38.73Z</time></trkpt><trkpt lat="43.0713167" lon="2.2881183"><ele>284.0</ele><time>2026-04-26T03:45:39.728Z</time></trkpt><trkpt lat="43.0713433" lon="2.2880233"><ele>284.0</ele><time>2026-04-26T03:45:40.729Z</time></trkpt><trkpt lat="43.071345" lon="2.2879"><ele>284.0</ele><time>2026-04-26T03:45:42.728Z</time></trkpt><trkpt lat="43.0712517" lon="2.2879133"><ele>284.0</ele><time>2026-04-26T03:45:44.728Z</time></trkpt><trkpt lat="43.07119" lon="2.2879867"><ele>284.0</ele><time>2026-04-26T03:45:45.729Z</time></trkpt><trkpt lat="43.0711517" lon="2.28811"><ele>284.0</ele><time>2026-04-26T03:45:46.728Z</time></trkpt><trkpt lat="43.0711233" lon="2.2882383"><ele>284.0</ele><time>2026-04-26T03:45:47.727Z</time></trkpt><trkpt lat="43.071095" lon="2.288365"><ele>284.0</ele><time>2026-04-26T03:45:48.728Z</time></trkpt><trkpt lat="43.07105" lon="2.2884767"><ele>284.0</ele><time>2026-04-26T03:45:49.728Z</time></trkpt><trkpt lat="43.0709867" lon="2.2885533"><ele>284.0</ele><time>2026-04-26T03:45:50.731Z</time></trkpt><trkpt lat="43.0709217" lon="2.28861"><ele>284.0</ele><time>2026-04-26T03:45:51.729Z</time></trkpt><trkpt lat="43.0708583" lon="2.2886367"><ele>284.0</ele><time>2026-04-26T03:45:52.727Z</time></trkpt><trkpt lat="43.070785" lon="2.2886033"><ele>285.2</ele><time>2026-04-26T03:45:53.728Z</time></trkpt><trkpt lat="43.070715" lon="2.2885383"><ele>286.4</ele><time>2026-04-26T03:45:54.73Z</time></trkpt><trkpt lat="43.07064" lon="2.28844"><ele>287.6</ele><time>2026-04-26T03:45:55.727Z</time></trkpt><trkpt lat="43.07056" lon="2.2883317"><ele>288.8</ele><time>2026-04-26T03:45:56.727Z</time></trkpt><trkpt lat="43.070475" lon="2.2882167"><ele>290.0</ele><time>2026-04-26T03:45:57.728Z</time></trkpt><trkpt lat="43.0703833" lon="2.2881017"><ele>288.75</ele><time>2026-04-26T03:45:58.727Z</time></trkpt><trkpt lat="43.070285" lon="2.2879983"><ele>287.5</ele><time>2026-04-26T03:45:59.727Z</time></trkpt><trkpt lat="43.0701833" lon="2.2879183"><ele>286.25</ele><time>2026-04-26T03:46:00.729Z</time></trkpt><trkpt lat="43.0700817" lon="2.287865"><ele>285.0</ele><time>2026-04-26T03:46:01.729Z</time></trkpt><trkpt lat="43.0699817" lon="2.287835"><ele>286.25</ele><time>2026-04-26T03:46:02.731Z</time></trkpt><trkpt lat="43.0698733" lon="2.2878183"><ele>287.5</ele><time>2026-04-26T03:46:03.728Z</time></trkpt><trkpt lat="43.069755" lon="2.2878083"><ele>288.75</ele><time>2026-04-26T03:46:04.728Z</time></trkpt><trkpt lat="43.0696267" lon="2.2877883"><ele>290.0</ele><time>2026-04-26T03:46:05.727Z</time></trkpt><trkpt lat="43.069495" lon="2.2877617"><ele>290.0</ele><time>2026-04-26T03:46:06.729Z</time></trkpt><trkpt lat="43.0693567" lon="2.2877283"><ele>290.0</ele><time>2026-04-26T03:46:07.727Z</time></trkpt><trkpt lat="43.0692133" lon="2.2877"><ele>290.0</ele><time>2026-04-26T03:46:08.728Z</time></trkpt><trkpt lat="43.0690717" lon="2.2876783"><ele>290.0</ele><time>2026-04-26T03:46:09.728Z</time></trkpt><trkpt lat="43.0689367" lon="2.287665"><ele>291.0</ele><time>2026-04-26T03:46:10.727Z</time></trkpt><trkpt lat="43.0688083" lon="2.2876517"><ele>292.0</ele><time>2026-04-26T03:46:11.728Z</time></trkpt><trkpt lat="43.0686867" lon="2.287625"><ele>293.0</ele><time>2026-04-26T03:46:12.729Z</time></trkpt><trkpt lat="43.0685683" lon="2.287595"><ele>294.0</ele><time>2026-04-26T03:46:13.728Z</time></trkpt><trkpt lat="43.06845" lon="2.287555"><ele>294.0</ele><time>2026-04-26T03:46:14.728Z</time></trkpt><trkpt lat="43.0683317" lon="2.2875033"><ele>294.0</ele><time>2026-04-26T03:46:15.728Z</time></trkpt><trkpt lat="43.0682083" lon="2.2874383"><ele>294.0</ele><time>2026-04-26T03:46:16.728Z</time></trkpt><trkpt lat="43.0680833" lon="2.2873683"><ele>294.0</ele><time>2026-04-26T03:46:17.728Z</time></trkpt><trkpt lat="43.0679583" lon="2.2872983"><ele>296.25</ele><time>2026-04-26T03:46:18.731Z</time></trkpt><trkpt lat="43.06784" lon="2.287225"><ele>298.5</ele><time>2026-04-26T03:46:19.727Z</time></trkpt><trkpt lat="43.0677267" lon="2.287155"><ele>300.75</ele><time>2026-04-26T03:46:20.728Z</time></trkpt><trkpt lat="43.067615" lon="2.2870883"><ele>303.0</ele><time>2026-04-26T03:46:21.73Z</time></trkpt><trkpt lat="43.067505" lon="2.2870217"><ele>305.0</ele><time>2026-04-26T03:46:22.728Z</time></trkpt><trkpt lat="43.0673933" lon="2.2869567"><ele>307.0</ele><time>2026-04-26T03:46:23.728Z</time></trkpt><trkpt lat="43.0672767" lon="2.2868917"><ele>309.0</ele><time>2026-04-26T03:46:24.728Z</time></trkpt><trkpt lat="43.067155" lon="2.2868267"><ele>311.0</ele><time>2026-04-26T03:46:25.729Z</time></trkpt><trkpt lat="43.0670333" lon="2.2867617"><ele>311.0</ele><time>2026-04-26T03:46:26.728Z</time></trkpt><trkpt lat="43.0669117" lon="2.2866983"><ele>311.0</ele><time>2026-04-26T03:46:27.728Z</time></trkpt><trkpt lat="43.0667883" lon="2.28663"><ele>311.0</ele><time>2026-04-26T03:46:28.728Z</time></trkpt><trkpt lat="43.066665" lon="2.2865583"><ele>311.0</ele><time>2026-04-26T03:46:29.729Z</time></trkpt><trkpt lat="43.0665383" lon="2.286485"><ele>312.75</ele><time>2026-04-26T03:46:30.728Z</time></trkpt><trkpt lat="43.06641" lon="2.2864067"><ele>314.5</ele><time>2026-04-26T03:46:31.728Z</time></trkpt><trkpt lat="43.0662883" lon="2.286325"><ele>316.25</ele><time>2026-04-26T03:46:32.728Z</time></trkpt><trkpt lat="43.0661817" lon="2.28624"><ele>318.0</ele><time>2026-04-26T03:46:33.728Z</time></trkpt><trkpt lat="43.06608" lon="2.28616"><ele>318.0</ele><time>2026-04-26T03:46:34.727Z</time></trkpt><trkpt lat="43.065975" lon="2.2860883"><ele>318.0</ele><time>2026-04-26T03:46:35.728Z</time></trkpt><trkpt lat="43.06587" lon="2.2860317"><ele>318.0</ele><time>2026-04-26T03:46:36.727Z</time></trkpt><trkpt lat="43.0657733" lon="2.2859917"><ele>318.0</ele><time>2026-04-26T03:46:37.729Z</time></trkpt><trkpt lat="43.0656983" lon="2.2859817"><ele>318.0</ele><time>2026-04-26T03:46:38.728Z</time></trkpt><trkpt lat="43.0656217" lon="2.2859583"><ele>317.2</ele><time>2026-04-26T03:46:39.728Z</time></trkpt><trkpt lat="43.065555" lon="2.2859"><ele>316.4</ele><time>2026-04-26T03:46:40.727Z</time></trkpt><trkpt lat="43.0654933" lon="2.2858117"><ele>315.59999999999997</ele><time>2026-04-26T03:46:41.728Z</time></trkpt><trkpt lat="43.0654283" lon="2.2857267"><ele>314.8</ele><time>2026-04-26T03:46:42.727Z</time></trkpt><trkpt lat="43.065335" lon="2.2856383"><ele>314.0</ele><time>2026-04-26T03:46:43.729Z</time></trkpt><trkpt lat="43.0652217" lon="2.2855483"><ele>315.0</ele><time>2026-04-26T03:46:44.727Z</time></trkpt><trkpt lat="43.06513" lon="2.2854567"><ele>316.0</ele><time>2026-04-26T03:46:45.727Z</time></trkpt><trkpt lat="43.065045" lon="2.2853783"><ele>317.0</ele><time>2026-04-26T03:46:46.728Z</time></trkpt><trkpt lat="43.0649667" lon="2.285315"><ele>318.0</ele><time>2026-04-26T03:46:47.729Z</time></trkpt><trkpt lat="43.0648967" lon="2.2852517"><ele>319.0</ele><time>2026-04-26T03:46:48.73Z</time></trkpt><trkpt lat="43.0648317" lon="2.2852017"><ele>319.0</ele><time>2026-04-26T03:46:49.729Z</time></trkpt><trkpt lat="43.0647633" lon="2.2851833"><ele>319.0</ele><time>2026-04-26T03:46:50.731Z</time></trkpt><trkpt lat="43.0646883" lon="2.2851733"><ele>319.0</ele><time>2026-04-26T03:46:51.73Z</time></trkpt><trkpt lat="43.0645883" lon="2.2851917"><ele>319.0</ele><time>2026-04-26T03:46:52.729Z</time></trkpt><trkpt lat="43.06448" lon="2.2852083"><ele>319.0</ele><time>2026-04-26T03:46:53.73Z</time></trkpt><trkpt lat="43.0643683" lon="2.2852267"><ele>319.0</ele><time>2026-04-26T03:46:54.731Z</time></trkpt><trkpt lat="43.0642567" lon="2.2852417"><ele>319.0</ele><time>2026-04-26T03:46:55.728Z</time></trkpt><trkpt lat="43.0641467" lon="2.2852517"><ele>319.0</ele><time>2026-04-26T03:46:56.73Z</time></trkpt><trkpt lat="43.0640367" lon="2.2852633"><ele>319.0</ele><time>2026-04-26T03:46:57.728Z</time></trkpt><trkpt lat="43.0639333" lon="2.285285"><ele>319.0</ele><time>2026-04-26T03:46:58.73Z</time></trkpt><trkpt lat="43.0638467" lon="2.2853167"><ele>316.8</ele><time>2026-04-26T03:46:59.727Z</time></trkpt><trkpt lat="43.06377" lon="2.2853433"><ele>314.59999999999997</ele><time>2026-04-26T03:47:00.729Z</time></trkpt><trkpt lat="43.063665" lon="2.285315"><ele>312.4</ele><time>2026-04-26T03:47:02.728Z</time></trkpt><trkpt lat="43.0636133" lon="2.2851767"><ele>310.2</ele><time>2026-04-26T03:47:04.732Z</time></trkpt><trkpt lat="43.0636117" lon="2.285065"><ele>308.0</ele><time>2026-04-26T03:47:05.728Z</time></trkpt><trkpt lat="43.0636017" lon="2.28496"><ele>308.0</ele><time>2026-04-26T03:47:06.729Z</time></trkpt><trkpt lat="43.0635783" lon="2.2848767"><ele>308.0</ele><time>2026-04-26T03:47:07.727Z</time></trkpt><trkpt lat="43.06349" lon="2.2847467"><ele>308.0</ele><time>2026-04-26T03:47:09.729Z</time></trkpt><trkpt lat="43.063415" lon="2.2846783"><ele>308.0</ele><time>2026-04-26T03:47:10.728Z</time></trkpt><trkpt lat="43.0633333" lon="2.2845933"><ele>308.0</ele><time>2026-04-26T03:47:11.727Z</time></trkpt><trkpt lat="43.0632483" lon="2.2844933"><ele>307.4</ele><time>2026-04-26T03:47:12.727Z</time></trkpt><trkpt lat="43.06317" lon="2.2843933"><ele>306.8</ele><time>2026-04-26T03:47:13.727Z</time></trkpt><trkpt lat="43.0630983" lon="2.2843033"><ele>306.2</ele><time>2026-04-26T03:47:14.729Z</time></trkpt><trkpt lat="43.063035" lon="2.28422"><ele>305.6</ele><time>2026-04-26T03:47:15.728Z</time></trkpt><trkpt lat="43.0629783" lon="2.2841417"><ele>305.0</ele><time>2026-04-26T03:47:16.727Z</time></trkpt><trkpt lat="43.0629283" lon="2.2840583"><ele>305.0</ele><time>2026-04-26T03:47:17.727Z</time></trkpt><trkpt lat="43.062885" lon="2.2839633"><ele>305.0</ele><time>2026-04-26T03:47:18.728Z</time></trkpt><trkpt lat="43.0628383" lon="2.283865"><ele>305.0</ele><time>2026-04-26T03:47:19.729Z</time></trkpt><trkpt lat="43.0627783" lon="2.283775"><ele>305.0</ele><time>2026-04-26T03:47:20.73Z</time></trkpt><trkpt lat="43.0627133" lon="2.2836917"><ele>305.0</ele><time>2026-04-26T03:47:21.728Z</time></trkpt><trkpt lat="43.0626383" lon="2.2836"><ele>305.0</ele><time>2026-04-26T03:47:22.728Z</time></trkpt><trkpt lat="43.062555" lon="2.2834983"><ele>305.6</ele><time>2026-04-26T03:47:23.73Z</time></trkpt><trkpt lat="43.06247" lon="2.2833983"><ele>306.2</ele><time>2026-04-26T03:47:24.729Z</time></trkpt><trkpt lat="43.062395" lon="2.28331"><ele>306.8</ele><time>2026-04-26T03:47:25.729Z</time></trkpt><trkpt lat="43.0623283" lon="2.2832167"><ele>307.4</ele><time>2026-04-26T03:47:26.728Z</time></trkpt><trkpt lat="43.06227" lon="2.2831067"><ele>308.0</ele><time>2026-04-26T03:47:27.728Z</time></trkpt><trkpt lat="43.0622133" lon="2.282985"><ele>309.2</ele><time>2026-04-26T03:47:28.728Z</time></trkpt><trkpt lat="43.062155" lon="2.2828583"><ele>310.4</ele><time>2026-04-26T03:47:29.729Z</time></trkpt><trkpt lat="43.0620983" lon="2.2827367"><ele>311.59999999999997</ele><time>2026-04-26T03:47:30.73Z</time></trkpt><trkpt lat="43.062045" lon="2.2826217"><ele>312.8</ele><time>2026-04-26T03:47:31.727Z</time></trkpt><trkpt lat="43.0619933" lon="2.28252"><ele>314.0</ele><time>2026-04-26T03:47:32.727Z</time></trkpt><trkpt lat="43.061955" lon="2.2824283"><ele>314.0</ele><time>2026-04-26T03:47:33.727Z</time></trkpt><trkpt lat="43.06193" lon="2.282345"><ele>314.0</ele><time>2026-04-26T03:47:34.728Z</time></trkpt><trkpt lat="43.0619133" lon="2.2822533"><ele>314.0</ele><time>2026-04-26T03:47:35.727Z</time></trkpt><trkpt lat="43.0618967" lon="2.2821617"><ele>314.0</ele><time>2026-04-26T03:47:36.727Z</time></trkpt><trkpt lat="43.061885" lon="2.2820733"><ele>314.0</ele><time>2026-04-26T03:47:37.73Z</time></trkpt><trkpt lat="43.0618633" lon="2.2819283"><ele>314.0</ele><time>2026-04-26T03:47:39.728Z</time></trkpt><trkpt lat="43.0618317" lon="2.2817583"><ele>315.83333333333337</ele><time>2026-04-26T03:47:41.729Z</time></trkpt><trkpt lat="43.061815" lon="2.281655"><ele>317.6666666666667</ele><time>2026-04-26T03:47:42.727Z</time></trkpt><trkpt lat="43.061795" lon="2.2815533"><ele>319.5</ele><time>2026-04-26T03:47:43.728Z</time></trkpt><trkpt lat="43.061765" lon="2.2814517"><ele>321.3333333333333</ele><time>2026-04-26T03:47:44.728Z</time></trkpt><trkpt lat="43.0617583" lon="2.28134"><ele>323.16666666666663</ele><time>2026-04-26T03:47:45.727Z</time></trkpt><trkpt lat="43.061735" lon="2.2812267"><ele>325.0</ele><time>2026-04-26T03:47:46.728Z</time></trkpt><trkpt lat="43.0617167" lon="2.2811067"><ele>326.8333333333333</ele><time>2026-04-26T03:47:47.73Z</time></trkpt><trkpt lat="43.061705" lon="2.2809883"><ele>328.66666666666663</ele><time>2026-04-26T03:47:48.734Z</time></trkpt><trkpt lat="43.0616817" lon="2.280875"><ele>330.5</ele><time>2026-04-26T03:47:49.73Z</time></trkpt><trkpt lat="43.0616517" lon="2.28078"><ele>332.3333333333333</ele><time>2026-04-26T03:47:50.729Z</time></trkpt><trkpt lat="43.06161" lon="2.28069"><ele>334.1666666666667</ele><time>2026-04-26T03:47:51.736Z</time></trkpt><trkpt lat="43.06158" lon="2.2806033"><ele>336.0</ele><time>2026-04-26T03:47:52.731Z</time></trkpt><trkpt lat="43.06152" lon="2.2805267"><ele>339.1666666666667</ele><time>2026-04-26T03:47:53.729Z</time></trkpt><trkpt lat="43.0614567" lon="2.2804433"><ele>342.3333333333333</ele><time>2026-04-26T03:47:54.731Z</time></trkpt><trkpt lat="43.0613883" lon="2.2803583"><ele>345.5</ele><time>2026-04-26T03:47:55.729Z</time></trkpt><trkpt lat="43.0613217" lon="2.2802783"><ele>348.66666666666663</ele><time>2026-04-26T03:47:56.728Z</time></trkpt><trkpt lat="43.0612567" lon="2.2802"><ele>351.8333333333333</ele><time>2026-04-26T03:47:57.732Z</time></trkpt><trkpt lat="43.0611767" lon="2.2801333"><ele>355.0</ele><time>2026-04-26T03:47:58.728Z</time></trkpt><trkpt lat="43.0610983" lon="2.2800733"><ele>355.0</ele><time>2026-04-26T03:47:59.729Z</time></trkpt><trkpt lat="43.0610367" lon="2.280005"><ele>355.0</ele><time>2026-04-26T03:48:00.727Z</time></trkpt><trkpt lat="43.06098" lon="2.2799367"><ele>355.0</ele><time>2026-04-26T03:48:01.729Z</time></trkpt><trkpt lat="43.0609233" lon="2.279865"><ele>355.0</ele><time>2026-04-26T03:48:02.729Z</time></trkpt><trkpt lat="43.0608733" lon="2.27979"><ele>355.0</ele><time>2026-04-26T03:48:03.729Z</time></trkpt><trkpt lat="43.0608233" lon="2.2797167"><ele>355.0</ele><time>2026-04-26T03:48:04.729Z</time></trkpt><trkpt lat="43.0607817" lon="2.27964"><ele>355.0</ele><time>2026-04-26T03:48:05.73Z</time></trkpt><trkpt lat="43.0607267" lon="2.27956"><ele>356.8</ele><time>2026-04-26T03:48:06.732Z</time></trkpt><trkpt lat="43.0606583" lon="2.2794817"><ele>358.6</ele><time>2026-04-26T03:48:07.728Z</time></trkpt><trkpt lat="43.0605867" lon="2.2794033"><ele>360.4</ele><time>2026-04-26T03:48:08.729Z</time></trkpt><trkpt lat="43.0605117" lon="2.2793333"><ele>362.2</ele><time>2026-04-26T03:48:09.728Z</time></trkpt><trkpt lat="43.060435" lon="2.279265"><ele>364.0</ele><time>2026-04-26T03:48:10.728Z</time></trkpt><trkpt lat="43.0603617" lon="2.2791967"><ele>364.0</ele><time>2026-04-26T03:48:11.733Z</time></trkpt><trkpt lat="43.0602917" lon="2.2791333"><ele>364.0</ele><time>2026-04-26T03:48:12.732Z</time></trkpt><trkpt lat="43.06022" lon="2.2790667"><ele>364.0</ele><time>2026-04-26T03:48:13.727Z</time></trkpt><trkpt lat="43.0601433" lon="2.27901"><ele>364.0</ele><time>2026-04-26T03:48:14.729Z</time></trkpt><trkpt lat="43.0600733" lon="2.27896"><ele>364.0</ele><time>2026-04-26T03:48:15.728Z</time></trkpt><trkpt lat="43.059975" lon="2.2788817"><ele>364.85714285714283</ele><time>2026-04-26T03:48:17.727Z</time></trkpt><trkpt lat="43.0599417" lon="2.2787883"><ele>365.7142857142857</ele><time>2026-04-26T03:48:19.727Z</time></trkpt><trkpt lat="43.059925" lon="2.2787033"><ele>366.57142857142856</ele><time>2026-04-26T03:48:20.73Z</time></trkpt><trkpt lat="43.0599017" lon="2.2786217"><ele>367.42857142857144</ele><time>2026-04-26T03:48:21.729Z</time></trkpt><trkpt lat="43.0598733" lon="2.2785383"><ele>368.2857142857143</ele><time>2026-04-26T03:48:22.728Z</time></trkpt><trkpt lat="43.0598367" lon="2.2784483"><ele>369.1428571428571</ele><time>2026-04-26T03:48:23.73Z</time></trkpt><trkpt lat="43.059795" lon="2.2783567"><ele>370.0</ele><time>2026-04-26T03:48:24.73Z</time></trkpt><trkpt lat="43.0597617" lon="2.2782683"><ele>370.0</ele><time>2026-04-26T03:48:25.727Z</time></trkpt><trkpt lat="43.0596933" lon="2.2781383"><ele>370.0</ele><time>2026-04-26T03:48:27.727Z</time></trkpt><trkpt lat="43.059605" lon="2.2780233"><ele>370.0</ele><time>2026-04-26T03:48:29.731Z</time></trkpt><trkpt lat="43.0595483" lon="2.2779583"><ele>370.0</ele><time>2026-04-26T03:48:30.728Z</time></trkpt><trkpt lat="43.0594883" lon="2.2779"><ele>370.0</ele><time>2026-04-26T03:48:31.728Z</time></trkpt><trkpt lat="43.059435" lon="2.2778483"><ele>370.66666666666663</ele><time>2026-04-26T03:48:32.728Z</time></trkpt><trkpt lat="43.0593683" lon="2.277805"><ele>371.3333333333333</ele><time>2026-04-26T03:48:33.729Z</time></trkpt><trkpt lat="43.0592883" lon="2.2777683"><ele>372.0</ele><time>2026-04-26T03:48:34.729Z</time></trkpt><trkpt lat="43.0592033" lon="2.2777383"><ele>372.6666666666667</ele><time>2026-04-26T03:48:35.73Z</time></trkpt><trkpt lat="43.0591233" lon="2.277715"><ele>373.33333333333337</ele><time>2026-04-26T03:48:36.727Z</time></trkpt><trkpt lat="43.0590533" lon="2.27769"><ele>374.0</ele><time>2026-04-26T03:48:37.728Z</time></trkpt><trkpt lat="43.05895" lon="2.277625"><ele>374.0</ele><time>2026-04-26T03:48:39.728Z</time></trkpt><trkpt lat="43.0588717" lon="2.277555"><ele>374.0</ele><time>2026-04-26T03:48:41.728Z</time></trkpt><trkpt lat="43.05878" lon="2.2774433"><ele>374.0</ele><time>2026-04-26T03:48:43.73Z</time></trkpt><trkpt lat="43.05872" lon="2.2773533"><ele>374.0</ele><time>2026-04-26T03:48:44.729Z</time></trkpt><trkpt lat="43.0586667" lon="2.2772683"><ele>374.0</ele><time>2026-04-26T03:48:45.731Z</time></trkpt><trkpt lat="43.0586067" lon="2.277175"><ele>373.0</ele><time>2026-04-26T03:48:46.728Z</time></trkpt><trkpt lat="43.0585467" lon="2.2770933"><ele>372.0</ele><time>2026-04-26T03:48:47.729Z</time></trkpt><trkpt lat="43.058485" lon="2.2770167"><ele>371.0</ele><time>2026-04-26T03:48:48.73Z</time></trkpt><trkpt lat="43.0584283" lon="2.2769433"><ele>370.0</ele><time>2026-04-26T03:48:49.729Z</time></trkpt><trkpt lat="43.05834" lon="2.276815"><ele>369.0</ele><time>2026-04-26T03:48:51.728Z</time></trkpt><trkpt lat="43.058285" lon="2.27676"><ele>368.0</ele><time>2026-04-26T03:48:52.728Z</time></trkpt><trkpt lat="43.0582033" lon="2.2767117"><ele>368.0</ele><time>2026-04-26T03:48:54.729Z</time></trkpt><trkpt lat="43.0581417" lon="2.27675"><ele>368.0</ele><time>2026-04-26T03:48:56.728Z</time></trkpt><trkpt lat="43.0581617" lon="2.2768333"><ele>368.0</ele><time>2026-04-26T03:48:58.729Z</time></trkpt><trkpt lat="43.0581917" lon="2.2769517"><ele>368.0</ele><time>2026-04-26T03:49:00.728Z</time></trkpt><trkpt lat="43.0581617" lon="2.2770933"><ele>368.0</ele><time>2026-04-26T03:49:02.731Z</time></trkpt><trkpt lat="43.058115" lon="2.27717"><ele>368.0</ele><time>2026-04-26T03:49:03.728Z</time></trkpt><trkpt lat="43.0580483" lon="2.2772583"><ele>368.0</ele><time>2026-04-26T03:49:04.731Z</time></trkpt><trkpt lat="43.0579683" lon="2.2773467"><ele>368.0</ele><time>2026-04-26T03:49:05.73Z</time></trkpt><trkpt lat="43.0578833" lon="2.27742"><ele>368.0</ele><time>2026-04-26T03:49:06.729Z</time></trkpt><trkpt lat="43.057805" lon="2.2774933"><ele>368.0</ele><time>2026-04-26T03:49:07.728Z</time></trkpt><trkpt lat="43.05773" lon="2.2775533"><ele>368.0</ele><time>2026-04-26T03:49:08.73Z</time></trkpt><trkpt lat="43.0576583" lon="2.2776"><ele>368.0</ele><time>2026-04-26T03:49:09.729Z</time></trkpt><trkpt lat="43.0575917" lon="2.277635"><ele>368.0</ele><time>2026-04-26T03:49:10.728Z</time></trkpt><trkpt lat="43.057525" lon="2.27766"><ele>368.0</ele><time>2026-04-26T03:49:11.728Z</time></trkpt><trkpt lat="43.0574633" lon="2.2777083"><ele>368.0</ele><time>2026-04-26T03:49:12.727Z</time></trkpt><trkpt lat="43.0574033" lon="2.2777683"><ele>368.0</ele><time>2026-04-26T03:49:13.729Z</time></trkpt><trkpt lat="43.0573567" lon="2.277845"><ele>368.0</ele><time>2026-04-26T03:49:14.729Z</time></trkpt><trkpt lat="43.0573167" lon="2.27794"><ele>368.0</ele><time>2026-04-26T03:49:15.727Z</time></trkpt><trkpt lat="43.0572767" lon="2.2780383"><ele>366.33333333333337</ele><time>2026-04-26T03:49:16.729Z</time></trkpt><trkpt lat="43.0572317" lon="2.2781367"><ele>364.6666666666667</ele><time>2026-04-26T03:49:17.727Z</time></trkpt><trkpt lat="43.0571817" lon="2.2782283"><ele>363.0</ele><time>2026-04-26T03:49:18.729Z</time></trkpt><trkpt lat="43.0571267" lon="2.2783183"><ele>361.3333333333333</ele><time>2026-04-26T03:49:19.729Z</time></trkpt><trkpt lat="43.05707" lon="2.2784183"><ele>359.66666666666663</ele><time>2026-04-26T03:49:20.731Z</time></trkpt><trkpt lat="43.0570183" lon="2.2785167"><ele>358.0</ele><time>2026-04-26T03:49:21.727Z</time></trkpt><trkpt lat="43.0569717" lon="2.2786183"><ele>358.0</ele><time>2026-04-26T03:49:22.728Z</time></trkpt><trkpt lat="43.056915" lon="2.278725"><ele>358.0</ele><time>2026-04-26T03:49:23.728Z</time></trkpt><trkpt lat="43.05686" lon="2.278835"><ele>358.0</ele><time>2026-04-26T03:49:24.729Z</time></trkpt><trkpt lat="43.0568117" lon="2.2789333"><ele>358.0</ele><time>2026-04-26T03:49:25.727Z</time></trkpt><trkpt lat="43.0567633" lon="2.2790183"><ele>358.0</ele><time>2026-04-26T03:49:26.729Z</time></trkpt><trkpt lat="43.05671" lon="2.27909"><ele>358.0</ele><time>2026-04-26T03:49:27.727Z</time></trkpt><trkpt lat="43.0566483" lon="2.2791367"><ele>353.0</ele><time>2026-04-26T03:49:28.728Z</time></trkpt><trkpt lat="43.056545" lon="2.2791983"><ele>348.0</ele><time>2026-04-26T03:49:30.728Z</time></trkpt><trkpt lat="43.0564567" lon="2.279275"><ele>343.0</ele><time>2026-04-26T03:49:32.728Z</time></trkpt><trkpt lat="43.0563783" lon="2.2794067"><ele>338.0</ele><time>2026-04-26T03:49:34.729Z</time></trkpt><trkpt lat="43.0563217" lon="2.2795383"><ele>338.0</ele><time>2026-04-26T03:49:36.727Z</time></trkpt><trkpt lat="43.0562983" lon="2.2797067"><ele>338.0</ele><time>2026-04-26T03:49:38.729Z</time></trkpt><trkpt lat="43.056295" lon="2.2798133"><ele>338.0</ele><time>2026-04-26T03:49:39.727Z</time></trkpt><trkpt lat="43.0562967" lon="2.279925"><ele>338.0</ele><time>2026-04-26T03:49:40.728Z</time></trkpt><trkpt lat="43.0562983" lon="2.280035"><ele>338.0</ele><time>2026-04-26T03:49:41.726Z</time></trkpt><trkpt lat="43.0562967" lon="2.28014"><ele>338.0</ele><time>2026-04-26T03:49:42.727Z</time></trkpt><trkpt lat="43.0562933" lon="2.2802367"><ele>336.33333333333337</ele><time>2026-04-26T03:49:43.727Z</time></trkpt><trkpt lat="43.0562933" lon="2.2803383"><ele>334.6666666666667</ele><time>2026-04-26T03:49:44.728Z</time></trkpt><trkpt lat="43.0563067" lon="2.280435"><ele>333.0</ele><time>2026-04-26T03:49:45.727Z</time></trkpt><trkpt lat="43.0563283" lon="2.2805567"><ele>331.3333333333333</ele><time>2026-04-26T03:49:46.728Z</time></trkpt><trkpt lat="43.05635" lon="2.2806683"><ele>329.66666666666663</ele><time>2026-04-26T03:49:47.728Z</time></trkpt><trkpt lat="43.0563633" lon="2.2807717"><ele>328.0</ele><time>2026-04-26T03:49:48.731Z</time></trkpt><trkpt lat="43.0563667" lon="2.2808667"><ele>326.71428571428567</ele><time>2026-04-26T03:49:49.728Z</time></trkpt><trkpt lat="43.0563733" lon="2.280955"><ele>325.42857142857144</ele><time>2026-04-26T03:49:50.728Z</time></trkpt><trkpt lat="43.0563867" lon="2.2810517"><ele>324.1428571428571</ele><time>2026-04-26T03:49:51.729Z</time></trkpt><trkpt lat="43.05641" lon="2.28115"><ele>322.85714285714283</ele><time>2026-04-26T03:49:52.728Z</time></trkpt><trkpt lat="43.056425" lon="2.2812433"><ele>321.57142857142856</ele><time>2026-04-26T03:49:53.728Z</time></trkpt><trkpt lat="43.0564367" lon="2.281335"><ele>320.2857142857143</ele><time>2026-04-26T03:49:54.73Z</time></trkpt><trkpt lat="43.0564283" lon="2.2814317"><ele>319.0</ele><time>2026-04-26T03:49:55.729Z</time></trkpt><trkpt lat="43.0564133" lon="2.2815267"><ele>318.3333333333333</ele><time>2026-04-26T03:49:56.728Z</time></trkpt><trkpt lat="43.056395" lon="2.281625"><ele>317.66666666666663</ele><time>2026-04-26T03:49:57.728Z</time></trkpt><trkpt lat="43.0563783" lon="2.2817267"><ele>317.0</ele><time>2026-04-26T03:49:58.729Z</time></trkpt><trkpt lat="43.0563633" lon="2.281825"><ele>316.3333333333333</ele><time>2026-04-26T03:49:59.73Z</time></trkpt><trkpt lat="43.0563533" lon="2.2819267"><ele>315.6666666666667</ele><time>2026-04-26T03:50:00.728Z</time></trkpt><trkpt lat="43.0563533" lon="2.28202"><ele>315.0</ele><time>2026-04-26T03:50:01.729Z</time></trkpt><trkpt lat="43.0563633" lon="2.2821767"><ele>314.8333333333333</ele><time>2026-04-26T03:50:03.729Z</time></trkpt><trkpt lat="43.0563767" lon="2.28234"><ele>314.6666666666667</ele><time>2026-04-26T03:50:05.729Z</time></trkpt><trkpt lat="43.0563883" lon="2.2824367"><ele>314.5</ele><time>2026-04-26T03:50:06.73Z</time></trkpt><trkpt lat="43.0564" lon="2.2825367"><ele>314.33333333333337</ele><time>2026-04-26T03:50:07.729Z</time></trkpt><trkpt lat="43.0564067" lon="2.282635"><ele>314.1666666666667</ele><time>2026-04-26T03:50:08.73Z</time></trkpt><trkpt lat="43.0564133" lon="2.2827383"><ele>314.0</ele><time>2026-04-26T03:50:09.728Z</time></trkpt><trkpt lat="43.056425" lon="2.28284"><ele>314.0</ele><time>2026-04-26T03:50:10.729Z</time></trkpt><trkpt lat="43.056435" lon="2.2829317"><ele>314.0</ele><time>2026-04-26T03:50:11.729Z</time></trkpt><trkpt lat="43.0564167" lon="2.2830867"><ele>314.0</ele><time>2026-04-26T03:50:13.73Z</time></trkpt><trkpt lat="43.0563867" lon="2.28317"><ele>314.0</ele><time>2026-04-26T03:50:14.729Z</time></trkpt><trkpt lat="43.05635" lon="2.2832567"><ele>314.0</ele><time>2026-04-26T03:50:15.729Z</time></trkpt><trkpt lat="43.056305" lon="2.2833467"><ele>314.0</ele><time>2026-04-26T03:50:16.728Z</time></trkpt><trkpt lat="43.0562633" lon="2.2834267"><ele>313.1666666666667</ele><time>2026-04-26T03:50:17.728Z</time></trkpt><trkpt lat="43.056225" lon="2.2834967"><ele>312.33333333333337</ele><time>2026-04-26T03:50:18.73Z</time></trkpt><trkpt lat="43.05615" lon="2.2835617"><ele>311.5</ele><time>2026-04-26T03:50:20.729Z</time></trkpt><trkpt lat="43.05608" lon="2.2835017"><ele>310.6666666666667</ele><time>2026-04-26T03:50:22.728Z</time></trkpt><trkpt lat="43.0560617" lon="2.2833533"><ele>309.8333333333333</ele><time>2026-04-26T03:50:24.729Z</time></trkpt><trkpt lat="43.0560633" lon="2.283265"><ele>309.0</ele><time>2026-04-26T03:50:25.729Z</time></trkpt><trkpt lat="43.05606" lon="2.2831683"><ele>310.0</ele><time>2026-04-26T03:50:26.729Z</time></trkpt><trkpt lat="43.0560183" lon="2.28302"><ele>311.0</ele><time>2026-04-26T03:50:28.729Z</time></trkpt><trkpt lat="43.0559267" lon="2.282955"><ele>312.0</ele><time>2026-04-26T03:50:30.729Z</time></trkpt><trkpt lat="43.05586" lon="2.28297"><ele>313.0</ele><time>2026-04-26T03:50:31.728Z</time></trkpt><trkpt lat="43.0557783" lon="2.283"><ele>314.0</ele><time>2026-04-26T03:50:32.73Z</time></trkpt><trkpt lat="43.0556867" lon="2.2830283"><ele>311.59999999999997</ele><time>2026-04-26T03:50:33.73Z</time></trkpt><trkpt lat="43.05559" lon="2.28305"><ele>309.2</ele><time>2026-04-26T03:50:34.731Z</time></trkpt><trkpt lat="43.0554983" lon="2.283075"><ele>306.79999999999995</ele><time>2026-04-26T03:50:35.73Z</time></trkpt><trkpt lat="43.055405" lon="2.2830983"><ele>304.4</ele><time>2026-04-26T03:50:36.732Z</time></trkpt><trkpt lat="43.055315" lon="2.2831267"><ele>302.0</ele><time>2026-04-26T03:50:37.73Z</time></trkpt><trkpt lat="43.0552333" lon="2.2831733"><ele>302.0</ele><time>2026-04-26T03:50:38.733Z</time></trkpt><trkpt lat="43.05516" lon="2.2832283"><ele>302.0</ele><time>2026-04-26T03:50:39.73Z</time></trkpt><trkpt lat="43.0550933" lon="2.2833"><ele>302.0</ele><time>2026-04-26T03:50:40.729Z</time></trkpt><trkpt lat="43.0550267" lon="2.2833867"><ele>302.0</ele><time>2026-04-26T03:50:41.728Z</time></trkpt><trkpt lat="43.0549533" lon="2.283485"><ele>302.0</ele><time>2026-04-26T03:50:42.73Z</time></trkpt><trkpt lat="43.054885" lon="2.283585"><ele>300.83333333333337</ele><time>2026-04-26T03:50:43.729Z</time></trkpt><trkpt lat="43.054815" lon="2.2836783"><ele>299.6666666666667</ele><time>2026-04-26T03:50:44.728Z</time></trkpt><trkpt lat="43.05475" lon="2.2837683"><ele>298.5</ele><time>2026-04-26T03:50:45.729Z</time></trkpt><trkpt lat="43.054695" lon="2.2838533"><ele>297.3333333333333</ele><time>2026-04-26T03:50:46.729Z</time></trkpt><trkpt lat="43.054645" lon="2.28393"><ele>296.16666666666663</ele><time>2026-04-26T03:50:47.728Z</time></trkpt><trkpt lat="43.0546" lon="2.28401"><ele>295.0</ele><time>2026-04-26T03:50:48.728Z</time></trkpt><trkpt lat="43.054555" lon="2.2840917"><ele>295.0</ele><time>2026-04-26T03:50:49.728Z</time></trkpt><trkpt lat="43.0545083" lon="2.2841717"><ele>295.0</ele><time>2026-04-26T03:50:50.728Z</time></trkpt><trkpt lat="43.05445" lon="2.28425"><ele>295.0</ele><time>2026-04-26T03:50:51.728Z</time></trkpt><trkpt lat="43.05438" lon="2.28433"><ele>295.0</ele><time>2026-04-26T03:50:52.73Z</time></trkpt><trkpt lat="43.0542917" lon="2.2844117"><ele>295.0</ele><time>2026-04-26T03:50:53.728Z</time></trkpt><trkpt lat="43.0541883" lon="2.284505"><ele>293.0</ele><time>2026-04-26T03:50:54.728Z</time></trkpt><trkpt lat="43.0540733" lon="2.2846"><ele>291.0</ele><time>2026-04-26T03:50:55.73Z</time></trkpt><trkpt lat="43.0539533" lon="2.2847083"><ele>289.0</ele><time>2026-04-26T03:50:56.728Z</time></trkpt><trkpt lat="43.0538417" lon="2.2848267"><ele>287.0</ele><time>2026-04-26T03:50:57.728Z</time></trkpt><trkpt lat="43.0537383" lon="2.2849517"><ele>287.0</ele><time>2026-04-26T03:50:58.728Z</time></trkpt><trkpt lat="43.0536483" lon="2.2850817"><ele>287.0</ele><time>2026-04-26T03:50:59.736Z</time></trkpt><trkpt lat="43.0535717" lon="2.28522"><ele>287.0</ele><time>2026-04-26T03:51:00.729Z</time></trkpt><trkpt lat="43.0535067" lon="2.2853583"><ele>287.0</ele><time>2026-04-26T03:51:01.729Z</time></trkpt><trkpt lat="43.0534483" lon="2.285505"><ele>287.4</ele><time>2026-04-26T03:51:02.728Z</time></trkpt><trkpt lat="43.0534017" lon="2.28565"><ele>287.79999999999995</ele><time>2026-04-26T03:51:03.729Z</time></trkpt><trkpt lat="43.0533633" lon="2.2857867"><ele>288.2</ele><time>2026-04-26T03:51:04.731Z</time></trkpt><trkpt lat="43.0533317" lon="2.2859033"><ele>288.59999999999997</ele><time>2026-04-26T03:51:05.729Z</time></trkpt><trkpt lat="43.0532933" lon="2.2860033"><ele>289.0</ele><time>2026-04-26T03:51:06.729Z</time></trkpt><trkpt lat="43.0532383" lon="2.286085"><ele>289.2</ele><time>2026-04-26T03:51:07.729Z</time></trkpt><trkpt lat="43.0531667" lon="2.2861517"><ele>289.4</ele><time>2026-04-26T03:51:08.729Z</time></trkpt><trkpt lat="43.0530817" lon="2.2862133"><ele>289.6</ele><time>2026-04-26T03:51:09.728Z</time></trkpt><trkpt lat="43.0529883" lon="2.2862717"><ele>289.8</ele><time>2026-04-26T03:51:10.728Z</time></trkpt><trkpt lat="43.05289" lon="2.2863517"><ele>290.0</ele><time>2026-04-26T03:51:11.729Z</time></trkpt><trkpt lat="43.052785" lon="2.2864333"><ele>290.0</ele><time>2026-04-26T03:51:12.729Z</time></trkpt><trkpt lat="43.0526733" lon="2.2865067"><ele>290.0</ele><time>2026-04-26T03:51:13.729Z</time></trkpt><trkpt lat="43.0525583" lon="2.2865667"><ele>290.0</ele><time>2026-04-26T03:51:14.728Z</time></trkpt><trkpt lat="43.0524433" lon="2.286625"><ele>290.0</ele><time>2026-04-26T03:51:15.731Z</time></trkpt><trkpt lat="43.0523383" lon="2.2867033"><ele>290.25</ele><time>2026-04-26T03:51:16.731Z</time></trkpt><trkpt lat="43.0522433" lon="2.28681"><ele>290.5</ele><time>2026-04-26T03:51:17.729Z</time></trkpt><trkpt lat="43.0521567" lon="2.286925"><ele>290.75</ele><time>2026-04-26T03:51:18.729Z</time></trkpt><trkpt lat="43.0520783" lon="2.2870333"><ele>291.0</ele><time>2026-04-26T03:51:19.729Z</time></trkpt><trkpt lat="43.0520033" lon="2.2871333"><ele>291.0</ele><time>2026-04-26T03:51:20.729Z</time></trkpt><trkpt lat="43.0519267" lon="2.28723"><ele>291.0</ele><time>2026-04-26T03:51:21.73Z</time></trkpt><trkpt lat="43.0518483" lon="2.28733"><ele>291.0</ele><time>2026-04-26T03:51:22.73Z</time></trkpt><trkpt lat="43.0517633" lon="2.2874317"><ele>291.0</ele><time>2026-04-26T03:51:23.729Z</time></trkpt><trkpt lat="43.05167" lon="2.2875217"><ele>291.0</ele><time>2026-04-26T03:51:24.731Z</time></trkpt><trkpt lat="43.0515683" lon="2.2876017"><ele>288.0</ele><time>2026-04-26T03:51:25.729Z</time></trkpt><trkpt lat="43.05146" lon="2.28767"><ele>285.0</ele><time>2026-04-26T03:51:26.729Z</time></trkpt><trkpt lat="43.05135" lon="2.2877317"><ele>282.0</ele><time>2026-04-26T03:51:27.729Z</time></trkpt><trkpt lat="43.0512367" lon="2.287805"><ele>279.0</ele><time>2026-04-26T03:51:28.729Z</time></trkpt><trkpt lat="43.0511233" lon="2.2878967"><ele>279.0</ele><time>2026-04-26T03:51:29.73Z</time></trkpt><trkpt lat="43.0510083" lon="2.2880017"><ele>279.0</ele><time>2026-04-26T03:51:30.729Z</time></trkpt><trkpt lat="43.0508933" lon="2.2881183"><ele>279.0</ele><time>2026-04-26T03:51:31.728Z</time></trkpt><trkpt lat="43.05078" lon="2.2882433"><ele>279.0</ele><time>2026-04-26T03:51:32.73Z</time></trkpt><trkpt lat="43.0506717" lon="2.2883767"><ele>280.25</ele><time>2026-04-26T03:51:33.733Z</time></trkpt><trkpt lat="43.05057" lon="2.2885133"><ele>281.5</ele><time>2026-04-26T03:51:34.729Z</time></trkpt><trkpt lat="43.0504767" lon="2.2886517"><ele>282.75</ele><time>2026-04-26T03:51:35.729Z</time></trkpt><trkpt lat="43.0503983" lon="2.2887933"><ele>284.0</ele><time>2026-04-26T03:51:36.728Z</time></trkpt><trkpt lat="43.0503333" lon="2.2889433"><ele>284.25</ele><time>2026-04-26T03:51:37.728Z</time></trkpt><trkpt lat="43.0502733" lon="2.2890967"><ele>284.5</ele><time>2026-04-26T03:51:38.729Z</time></trkpt><trkpt lat="43.0502167" lon="2.2892467"><ele>284.75</ele><time>2026-04-26T03:51:39.729Z</time></trkpt><trkpt lat="43.0501633" lon="2.28939"><ele>285.0</ele><time>2026-04-26T03:51:40.731Z</time></trkpt><trkpt lat="43.0501117" lon="2.28953"><ele>285.0</ele><time>2026-04-26T03:51:41.728Z</time></trkpt><trkpt lat="43.0500633" lon="2.2896733"><ele>285.0</ele><time>2026-04-26T03:51:42.728Z</time></trkpt><trkpt lat="43.05002" lon="2.2898233"><ele>285.0</ele><time>2026-04-26T03:51:43.729Z</time></trkpt><trkpt lat="43.0499917" lon="2.2899833"><ele>285.0</ele><time>2026-04-26T03:51:44.729Z</time></trkpt><trkpt lat="43.0499767" lon="2.2901467"><ele>285.2</ele><time>2026-04-26T03:51:45.728Z</time></trkpt><trkpt lat="43.0499717" lon="2.2903067"><ele>285.4</ele><time>2026-04-26T03:51:46.728Z</time></trkpt><trkpt lat="43.049975" lon="2.2904567"><ele>285.6</ele><time>2026-04-26T03:51:47.733Z</time></trkpt><trkpt lat="43.0499767" lon="2.290595"><ele>285.8</ele><time>2026-04-26T03:51:48.728Z</time></trkpt><trkpt lat="43.0499667" lon="2.29072"><ele>286.0</ele><time>2026-04-26T03:51:49.729Z</time></trkpt><trkpt lat="43.0499417" lon="2.29083"><ele>285.16666666666663</ele><time>2026-04-26T03:51:50.733Z</time></trkpt><trkpt lat="43.0499033" lon="2.290935"><ele>284.3333333333333</ele><time>2026-04-26T03:51:51.731Z</time></trkpt><trkpt lat="43.0498667" lon="2.291025"><ele>283.5</ele><time>2026-04-26T03:51:52.731Z</time></trkpt><trkpt lat="43.0498417" lon="2.2911133"><ele>282.6666666666667</ele><time>2026-04-26T03:51:53.728Z</time></trkpt><trkpt lat="43.0498367" lon="2.2912167"><ele>281.83333333333337</ele><time>2026-04-26T03:51:54.731Z</time></trkpt><trkpt lat="43.0498583" lon="2.2913317"><ele>281.0</ele><time>2026-04-26T03:51:55.728Z</time></trkpt><trkpt lat="43.0499017" lon="2.2914633"><ele>281.0</ele><time>2026-04-26T03:51:56.731Z</time></trkpt><trkpt lat="43.0499417" lon="2.2916017"><ele>281.0</ele><time>2026-04-26T03:51:57.73Z</time></trkpt><trkpt lat="43.0499733" lon="2.2917467"><ele>281.0</ele><time>2026-04-26T03:51:58.729Z</time></trkpt><trkpt lat="43.0499883" lon="2.2918983"><ele>281.0</ele><time>2026-04-26T03:51:59.733Z</time></trkpt><trkpt lat="43.0499917" lon="2.29206"><ele>281.0</ele><time>2026-04-26T03:52:00.73Z</time></trkpt><trkpt lat="43.049985" lon="2.2922283"><ele>281.2</ele><time>2026-04-26T03:52:01.73Z</time></trkpt><trkpt lat="43.0499683" lon="2.2923933"><ele>281.40000000000003</ele><time>2026-04-26T03:52:02.728Z</time></trkpt><trkpt lat="43.0499517" lon="2.29254"><ele>281.6</ele><time>2026-04-26T03:52:03.73Z</time></trkpt><trkpt lat="43.0499367" lon="2.2926717"><ele>281.8</ele><time>2026-04-26T03:52:04.731Z</time></trkpt><trkpt lat="43.04993" lon="2.2927783"><ele>282.0</ele><time>2026-04-26T03:52:05.735Z</time></trkpt><trkpt lat="43.0499333" lon="2.29291"><ele>282.0</ele><time>2026-04-26T03:52:07.734Z</time></trkpt><trkpt lat="43.04987" lon="2.2929683"><ele>282.0</ele><time>2026-04-26T03:52:10.728Z</time></trkpt><trkpt lat="43.0497633" lon="2.2930383"><ele>282.0</ele><time>2026-04-26T03:52:12.729Z</time></trkpt><trkpt lat="43.0496933" lon="2.2930683"><ele>282.0</ele><time>2026-04-26T03:52:13.733Z</time></trkpt><trkpt lat="43.0496167" lon="2.29308"><ele>282.0</ele><time>2026-04-26T03:52:14.73Z</time></trkpt><trkpt lat="43.04954" lon="2.293065"><ele>282.0</ele><time>2026-04-26T03:52:15.73Z</time></trkpt><trkpt lat="43.0494683" lon="2.2930283"><ele>282.0</ele><time>2026-04-26T03:52:16.73Z</time></trkpt><trkpt lat="43.0493983" lon="2.2929767"><ele>282.0</ele><time>2026-04-26T03:52:17.728Z</time></trkpt><trkpt lat="43.04933" lon="2.2929283"><ele>282.0</ele><time>2026-04-26T03:52:18.73Z</time></trkpt><trkpt lat="43.0492583" lon="2.2928767"><ele>282.0</ele><time>2026-04-26T03:52:19.73Z</time></trkpt><trkpt lat="43.0491767" lon="2.2928283"><ele>282.0</ele><time>2026-04-26T03:52:20.729Z</time></trkpt><trkpt lat="43.049085" lon="2.292795"><ele>282.0</ele><time>2026-04-26T03:52:21.728Z</time></trkpt><trkpt lat="43.0489933" lon="2.2927767"><ele>281.5</ele><time>2026-04-26T03:52:22.732Z</time></trkpt><trkpt lat="43.0489033" lon="2.2927617"><ele>281.0</ele><time>2026-04-26T03:52:23.73Z</time></trkpt><trkpt lat="43.0488233" lon="2.292735"><ele>280.5</ele><time>2026-04-26T03:52:24.728Z</time></trkpt><trkpt lat="43.0487467" lon="2.2926867"><ele>280.0</ele><time>2026-04-26T03:52:25.728Z</time></trkpt><trkpt lat="43.04868" lon="2.2926333"><ele>279.5</ele><time>2026-04-26T03:52:26.73Z</time></trkpt><trkpt lat="43.0486083" lon="2.2925767"><ele>279.0</ele><time>2026-04-26T03:52:27.729Z</time></trkpt><trkpt lat="43.048535" lon="2.292515"><ele>279.0</ele><time>2026-04-26T03:52:28.73Z</time></trkpt><trkpt lat="43.0484667" lon="2.29247"><ele>279.0</ele><time>2026-04-26T03:52:29.728Z</time></trkpt><trkpt lat="43.0483567" lon="2.292435"><ele>279.0</ele><time>2026-04-26T03:52:31.728Z</time></trkpt><trkpt lat="43.0482433" lon="2.292435"><ele>279.0</ele><time>2026-04-26T03:52:33.728Z</time></trkpt><trkpt lat="43.0481633" lon="2.292425"><ele>279.0</ele><time>2026-04-26T03:52:34.729Z</time></trkpt><trkpt lat="43.0480783" lon="2.292415"><ele>278.8</ele><time>2026-04-26T03:52:35.729Z</time></trkpt><trkpt lat="43.0479817" lon="2.2924167"><ele>278.59999999999997</ele><time>2026-04-26T03:52:36.729Z</time></trkpt><trkpt lat="43.0478867" lon="2.2924217"><ele>278.4</ele><time>2026-04-26T03:52:37.728Z</time></trkpt><trkpt lat="43.0477833" lon="2.292405"><ele>278.2</ele><time>2026-04-26T03:52:38.73Z</time></trkpt><trkpt lat="43.04768" lon="2.292375"><ele>278.0</ele><time>2026-04-26T03:52:39.728Z</time></trkpt><trkpt lat="43.0475667" lon="2.292335"><ele>278.0</ele><time>2026-04-26T03:52:40.728Z</time></trkpt><trkpt lat="43.0474583" lon="2.292295"><ele>278.0</ele><time>2026-04-26T03:52:41.728Z</time></trkpt><trkpt lat="43.047345" lon="2.292255"><ele>278.0</ele><time>2026-04-26T03:52:42.728Z</time></trkpt><trkpt lat="43.047225" lon="2.2922217"><ele>278.0</ele><time>2026-04-26T03:52:43.729Z</time></trkpt><trkpt lat="43.0470933" lon="2.2921933"><ele>278.0</ele><time>2026-04-26T03:52:44.731Z</time></trkpt><trkpt lat="43.0469567" lon="2.292165"><ele>278.0</ele><time>2026-04-26T03:52:45.729Z</time></trkpt><trkpt lat="43.0468267" lon="2.2921433"><ele>278.0</ele><time>2026-04-26T03:52:46.729Z</time></trkpt><trkpt lat="43.04671" lon="2.2921233"><ele>278.0</ele><time>2026-04-26T03:52:47.729Z</time></trkpt><trkpt lat="43.0466033" lon="2.292105"><ele>277.6</ele><time>2026-04-26T03:52:48.73Z</time></trkpt><trkpt lat="43.0465083" lon="2.292085"><ele>277.20000000000005</ele><time>2026-04-26T03:52:49.73Z</time></trkpt><trkpt lat="43.0464183" lon="2.292055"><ele>276.8</ele><time>2026-04-26T03:52:50.73Z</time></trkpt><trkpt lat="43.046325" lon="2.292005"><ele>276.40000000000003</ele><time>2026-04-26T03:52:51.729Z</time></trkpt><trkpt lat="43.04623" lon="2.29194"><ele>276.0</ele><time>2026-04-26T03:52:52.729Z</time></trkpt><trkpt lat="43.0461367" lon="2.2918733"><ele>276.0</ele><time>2026-04-26T03:52:53.73Z</time></trkpt><trkpt lat="43.0460383" lon="2.2918133"><ele>276.0</ele><time>2026-04-26T03:52:54.73Z</time></trkpt><trkpt lat="43.0459333" lon="2.2917667"><ele>276.0</ele><time>2026-04-26T03:52:55.732Z</time></trkpt><trkpt lat="43.0458233" lon="2.2917233"><ele>276.0</ele><time>2026-04-26T03:52:56.733Z</time></trkpt><trkpt lat="43.0457183" lon="2.2916717"><ele>276.0</ele><time>2026-04-26T03:52:57.73Z</time></trkpt><trkpt lat="43.0456167" lon="2.2916183"><ele>275.8</ele><time>2026-04-26T03:52:58.729Z</time></trkpt><trkpt lat="43.0455433" lon="2.2915517"><ele>275.6</ele><time>2026-04-26T03:52:59.728Z</time></trkpt><trkpt lat="43.0454817" lon="2.291475"><ele>275.4</ele><time>2026-04-26T03:53:00.732Z</time></trkpt><trkpt lat="43.04543" lon="2.2913833"><ele>275.2</ele><time>2026-04-26T03:53:01.728Z</time></trkpt><trkpt lat="43.0453767" lon="2.2912717"><ele>275.0</ele><time>2026-04-26T03:53:02.729Z</time></trkpt><trkpt lat="43.04532" lon="2.2911583"><ele>275.0</ele><time>2026-04-26T03:53:03.729Z</time></trkpt><trkpt lat="43.045265" lon="2.2910517"><ele>275.0</ele><time>2026-04-26T03:53:04.73Z</time></trkpt><trkpt lat="43.04521" lon="2.29096"><ele>275.0</ele><time>2026-04-26T03:53:05.73Z</time></trkpt><trkpt lat="43.04516" lon="2.2908833"><ele>275.0</ele><time>2026-04-26T03:53:06.729Z</time></trkpt><trkpt lat="43.0451167" lon="2.2908167"><ele>275.0</ele><time>2026-04-26T03:53:07.73Z</time></trkpt><trkpt lat="43.0450483" lon="2.2907133"><ele>275.0</ele><time>2026-04-26T03:53:09.729Z</time></trkpt><trkpt lat="43.04497" lon="2.2906317"><ele>275.6</ele><time>2026-04-26T03:53:11.73Z</time></trkpt><trkpt lat="43.0448683" lon="2.2905867"><ele>276.2</ele><time>2026-04-26T03:53:13.728Z</time></trkpt><trkpt lat="43.044775" lon="2.2905583"><ele>276.8</ele><time>2026-04-26T03:53:15.729Z</time></trkpt><trkpt lat="43.04467" lon="2.2905183"><ele>277.4</ele><time>2026-04-26T03:53:17.731Z</time></trkpt><trkpt lat="43.0445667" lon="2.2904583"><ele>278.0</ele><time>2026-04-26T03:53:19.73Z</time></trkpt><trkpt lat="43.0445067" lon="2.29041"><ele>278.0</ele><time>2026-04-26T03:53:20.73Z</time></trkpt><trkpt lat="43.0444467" lon="2.2903733"><ele>278.0</ele><time>2026-04-26T03:53:21.729Z</time></trkpt><trkpt lat="43.0443383" lon="2.2903167"><ele>278.0</ele><time>2026-04-26T03:53:23.73Z</time></trkpt><trkpt lat="43.0442467" lon="2.29028"><ele>278.0</ele><time>2026-04-26T03:53:25.73Z</time></trkpt><trkpt lat="43.044155" lon="2.2902583"><ele>278.0</ele><time>2026-04-26T03:53:27.727Z</time></trkpt><trkpt lat="43.0440533" lon="2.2902533"><ele>277.2</ele><time>2026-04-26T03:53:29.727Z</time></trkpt><trkpt lat="43.0439433" lon="2.2902583"><ele>276.4</ele><time>2026-04-26T03:53:31.729Z</time></trkpt><trkpt lat="43.04388" lon="2.2902683"><ele>275.59999999999997</ele><time>2026-04-26T03:53:32.728Z</time></trkpt><trkpt lat="43.0438167" lon="2.2902767"><ele>274.8</ele><time>2026-04-26T03:53:33.73Z</time></trkpt><trkpt lat="43.043705" lon="2.2902867"><ele>274.0</ele><time>2026-04-26T03:53:35.729Z</time></trkpt><trkpt lat="43.0436" lon="2.2902883"><ele>274.0</ele><time>2026-04-26T03:53:37.729Z</time></trkpt><trkpt lat="43.0434767" lon="2.290265"><ele>274.0</ele><time>2026-04-26T03:53:39.729Z</time></trkpt><trkpt lat="43.043405" lon="2.29023"><ele>274.0</ele><time>2026-04-26T03:53:40.729Z</time></trkpt><trkpt lat="43.0433433" lon="2.2901917"><ele>274.0</ele><time>2026-04-26T03:53:41.728Z</time></trkpt><trkpt lat="43.0432867" lon="2.2901533"><ele>274.0</ele><time>2026-04-26T03:53:42.728Z</time></trkpt><trkpt lat="43.0432283" lon="2.2901133"><ele>274.0</ele><time>2026-04-26T03:53:43.736Z</time></trkpt><trkpt lat="43.04312" lon="2.2900433"><ele>271.0</ele><time>2026-04-26T03:53:45.727Z</time></trkpt><trkpt lat="43.043005" lon="2.2900067"><ele>268.0</ele><time>2026-04-26T03:53:47.729Z</time></trkpt><trkpt lat="43.0428933" lon="2.2900067"><ele>265.0</ele><time>2026-04-26T03:53:49.728Z</time></trkpt><trkpt lat="43.042825" lon="2.290015"><ele>262.0</ele><time>2026-04-26T03:53:50.73Z</time></trkpt><trkpt lat="43.042755" lon="2.2900267"><ele>259.0</ele><time>2026-04-26T03:53:51.729Z</time></trkpt><trkpt lat="43.04269" lon="2.2900467"><ele>256.0</ele><time>2026-04-26T03:53:52.73Z</time></trkpt><trkpt lat="43.0425833" lon="2.29009"><ele>256.0</ele><time>2026-04-26T03:53:54.729Z</time></trkpt><trkpt lat="43.042495" lon="2.2901233"><ele>256.0</ele><time>2026-04-26T03:53:56.729Z</time></trkpt><trkpt lat="43.0424067" lon="2.2900633"><ele>256.0</ele><time>2026-04-26T03:53:58.728Z</time></trkpt><trkpt lat="43.04236" lon="2.28991"><ele>256.0</ele><time>2026-04-26T03:54:00.728Z</time></trkpt><trkpt lat="43.0423017" lon="2.2897533"><ele>256.0</ele><time>2026-04-26T03:54:02.73Z</time></trkpt><trkpt lat="43.0422667" lon="2.2896633"><ele>252.33333333333331</ele><time>2026-04-26T03:54:03.73Z</time></trkpt><trkpt lat="43.0422283" lon="2.2895583"><ele>248.66666666666666</ele><time>2026-04-26T03:54:04.729Z</time></trkpt><trkpt lat="43.0421933" lon="2.2894517"><ele>245.0</ele><time>2026-04-26T03:54:05.728Z</time></trkpt><trkpt lat="43.04216" lon="2.28934"><ele>241.33333333333331</ele><time>2026-04-26T03:54:06.728Z</time></trkpt><trkpt lat="43.04213" lon="2.289225"><ele>237.66666666666666</ele><time>2026-04-26T03:54:07.727Z</time></trkpt><trkpt lat="43.0421017" lon="2.2891117"><ele>234.0</ele><time>2026-04-26T03:54:08.728Z</time></trkpt><trkpt lat="43.042075" lon="2.2890017"><ele>234.83333333333334</ele><time>2026-04-26T03:54:09.73Z</time></trkpt><trkpt lat="43.042055" lon="2.288905"><ele>235.66666666666669</ele><time>2026-04-26T03:54:10.729Z</time></trkpt><trkpt lat="43.04204" lon="2.2888183"><ele>236.5</ele><time>2026-04-26T03:54:11.733Z</time></trkpt><trkpt lat="43.0420083" lon="2.2886817"><ele>237.33333333333334</ele><time>2026-04-26T03:54:13.728Z</time></trkpt><trkpt lat="43.0419483" lon="2.2886367"><ele>238.16666666666669</ele><time>2026-04-26T03:54:16.729Z</time></trkpt><trkpt lat="43.04194" lon="2.2887433"><ele>239.0</ele><time>2026-04-26T03:54:18.729Z</time></trkpt><trkpt lat="43.0419083" lon="2.2889117"><ele>238.16666666666669</ele><time>2026-04-26T03:54:20.729Z</time></trkpt><trkpt lat="43.0418783" lon="2.2889967"><ele>237.33333333333334</ele><time>2026-04-26T03:54:21.731Z</time></trkpt><trkpt lat="43.0418233" lon="2.2891517"><ele>236.5</ele><time>2026-04-26T03:54:23.728Z</time></trkpt><trkpt lat="43.0417833" lon="2.289225"><ele>235.66666666666669</ele><time>2026-04-26T03:54:24.728Z</time></trkpt><trkpt lat="43.0417317" lon="2.2892883"><ele>234.83333333333334</ele><time>2026-04-26T03:54:25.728Z</time></trkpt><trkpt lat="43.041675" lon="2.2893417"><ele>234.0</ele><time>2026-04-26T03:54:26.731Z</time></trkpt><trkpt lat="43.0416133" lon="2.2893867"><ele>233.0</ele><time>2026-04-26T03:54:27.729Z</time></trkpt><trkpt lat="43.0415117" lon="2.28946"><ele>232.0</ele><time>2026-04-26T03:54:29.729Z</time></trkpt><trkpt lat="43.0414367" lon="2.289505"><ele>231.0</ele><time>2026-04-26T03:54:31.728Z</time></trkpt><trkpt lat="43.0413517" lon="2.289515"><ele>230.0</ele><time>2026-04-26T03:54:35.728Z</time></trkpt><trkpt lat="43.0412717" lon="2.2895183"><ele>229.0</ele><time>2026-04-26T03:54:37.731Z</time></trkpt><trkpt lat="43.041205" lon="2.28952"><ele>228.0</ele><time>2026-04-26T03:54:38.728Z</time></trkpt><trkpt lat="43.041125" lon="2.289515"><ele>228.0</ele><time>2026-04-26T03:54:39.729Z</time></trkpt><trkpt lat="43.0410367" lon="2.2894983"><ele>228.0</ele><time>2026-04-26T03:54:40.728Z</time></trkpt><trkpt lat="43.0409383" lon="2.2894867"><ele>228.0</ele><time>2026-04-26T03:54:41.728Z</time></trkpt><trkpt lat="43.040835" lon="2.2894883"><ele>228.0</ele><time>2026-04-26T03:54:42.729Z</time></trkpt><trkpt lat="43.0407333" lon="2.289495"><ele>228.0</ele><time>2026-04-26T03:54:43.73Z</time></trkpt><trkpt lat="43.040635" lon="2.2895067"><ele>228.4</ele><time>2026-04-26T03:54:44.73Z</time></trkpt><trkpt lat="43.0405333" lon="2.28953"><ele>228.8</ele><time>2026-04-26T03:54:45.728Z</time></trkpt><trkpt lat="43.0404383" lon="2.2895583"><ele>229.2</ele><time>2026-04-26T03:54:46.728Z</time></trkpt><trkpt lat="43.0403517" lon="2.2895883"><ele>229.6</ele><time>2026-04-26T03:54:47.727Z</time></trkpt><trkpt lat="43.0402767" lon="2.28962"><ele>230.0</ele><time>2026-04-26T03:54:48.727Z</time></trkpt><trkpt lat="43.04017" lon="2.28966"><ele>230.00000000000003</ele><time>2026-04-26T03:54:50.729Z</time></trkpt><trkpt lat="43.0400983" lon="2.2896733"><ele>230.0</ele><time>2026-04-26T03:54:52.728Z</time></trkpt><trkpt lat="43.04004" lon="2.28971"><ele>230.0</ele><time>2026-04-26T03:54:54.729Z</time></trkpt><trkpt lat="43.03995" lon="2.2897317"><ele>230.0</ele><time>2026-04-26T03:54:57.73Z</time></trkpt><trkpt lat="43.0399233" lon="2.2898333"><ele>230.00000000000003</ele><time>2026-04-26T03:54:59.727Z</time></trkpt><trkpt lat="43.03989" lon="2.2899667"><ele>230.0</ele><time>2026-04-26T03:55:01.727Z</time></trkpt><trkpt lat="43.0398517" lon="2.2901083"><ele>233.6</ele><time>2026-04-26T03:55:03.729Z</time></trkpt><trkpt lat="43.039825" lon="2.2902467"><ele>237.2</ele><time>2026-04-26T03:55:05.728Z</time></trkpt><trkpt lat="43.03979" lon="2.290375"><ele>240.8</ele><time>2026-04-26T03:55:07.727Z</time></trkpt><trkpt lat="43.0397533" lon="2.2905167"><ele>244.4</ele><time>2026-04-26T03:55:09.729Z</time></trkpt><trkpt lat="43.0397067" lon="2.2906433"><ele>248.0</ele><time>2026-04-26T03:55:11.727Z</time></trkpt><trkpt lat="43.0396433" lon="2.2907633"><ele>248.14285714285717</ele><time>2026-04-26T03:55:13.729Z</time></trkpt><trkpt lat="43.0395983" lon="2.2908333"><ele>248.2857142857143</ele><time>2026-04-26T03:55:14.729Z</time></trkpt><trkpt lat="43.0395467" lon="2.2908967"><ele>248.42857142857144</ele><time>2026-04-26T03:55:15.733Z</time></trkpt><trkpt lat="43.0394967" lon="2.2909533"><ele>248.57142857142856</ele><time>2026-04-26T03:55:16.729Z</time></trkpt><trkpt lat="43.0394433" lon="2.2910083"><ele>248.7142857142857</ele><time>2026-04-26T03:55:17.729Z</time></trkpt><trkpt lat="43.0393883" lon="2.2910633"><ele>248.85714285714283</ele><time>2026-04-26T03:55:18.73Z</time></trkpt><trkpt lat="43.03933" lon="2.29112"><ele>249.0</ele><time>2026-04-26T03:55:19.728Z</time></trkpt><trkpt lat="43.0392733" lon="2.2911717"><ele>249.0</ele><time>2026-04-26T03:55:20.731Z</time></trkpt><trkpt lat="43.039215" lon="2.29122"><ele>249.0</ele><time>2026-04-26T03:55:21.728Z</time></trkpt><trkpt lat="43.0391517" lon="2.29126"><ele>249.0</ele><time>2026-04-26T03:55:22.729Z</time></trkpt><trkpt lat="43.0390817" lon="2.2912917"><ele>249.0</ele><time>2026-04-26T03:55:23.728Z</time></trkpt><trkpt lat="43.0390133" lon="2.29132"><ele>249.0</ele><time>2026-04-26T03:55:24.727Z</time></trkpt><trkpt lat="43.0389017" lon="2.2913683"><ele>249.0</ele><time>2026-04-26T03:55:26.729Z</time></trkpt><trkpt lat="43.0388" lon="2.2914483"><ele>250.6</ele><time>2026-04-26T03:55:28.728Z</time></trkpt><trkpt lat="43.038755" lon="2.29151"><ele>252.2</ele><time>2026-04-26T03:55:29.727Z</time></trkpt><trkpt lat="43.0386933" lon="2.2916317"><ele>253.79999999999998</ele><time>2026-04-26T03:55:31.727Z</time></trkpt><trkpt lat="43.038625" lon="2.29175"><ele>255.39999999999998</ele><time>2026-04-26T03:55:33.729Z</time></trkpt><trkpt lat="43.0385783" lon="2.291815"><ele>257.0</ele><time>2026-04-26T03:55:34.728Z</time></trkpt><trkpt lat="43.0384883" lon="2.2919267"><ele>257.0</ele><time>2026-04-26T03:55:36.728Z</time></trkpt><trkpt lat="43.0384033" lon="2.2919733"><ele>257.0</ele><time>2026-04-26T03:55:38.732Z</time></trkpt><trkpt lat="43.0382883" lon="2.2919617"><ele>257.0</ele><time>2026-04-26T03:55:40.728Z</time></trkpt><trkpt lat="43.0382133" lon="2.2919483"><ele>257.0</ele><time>2026-04-26T03:55:41.729Z</time></trkpt><trkpt lat="43.0381283" lon="2.29193"><ele>257.0</ele><time>2026-04-26T03:55:42.729Z</time></trkpt><trkpt lat="43.038035" lon="2.2919083"><ele>258.0</ele><time>2026-04-26T03:55:43.735Z</time></trkpt><trkpt lat="43.037935" lon="2.2918817"><ele>259.0</ele><time>2026-04-26T03:55:44.729Z</time></trkpt><trkpt lat="43.037835" lon="2.291855"><ele>260.0</ele><time>2026-04-26T03:55:45.727Z</time></trkpt><trkpt lat="43.0377283" lon="2.2918283"><ele>261.0</ele><time>2026-04-26T03:55:46.727Z</time></trkpt><trkpt lat="43.0376267" lon="2.291805"><ele>262.0</ele><time>2026-04-26T03:55:47.728Z</time></trkpt><trkpt lat="43.0375317" lon="2.29178"><ele>260.8333333333333</ele><time>2026-04-26T03:55:48.728Z</time></trkpt><trkpt lat="43.0374467" lon="2.291755"><ele>259.66666666666663</ele><time>2026-04-26T03:55:49.728Z</time></trkpt><trkpt lat="43.0373767" lon="2.29173"><ele>258.5</ele><time>2026-04-26T03:55:50.73Z</time></trkpt><trkpt lat="43.03727" lon="2.2916733"><ele>257.3333333333333</ele><time>2026-04-26T03:55:52.73Z</time></trkpt><trkpt lat="43.0371817" lon="2.2916483"><ele>256.1666666666667</ele><time>2026-04-26T03:55:54.732Z</time></trkpt><trkpt lat="43.0371067" lon="2.2917"><ele>255.0</ele><time>2026-04-26T03:55:56.734Z</time></trkpt><trkpt lat="43.0370617" lon="2.291835"><ele>255.0</ele><time>2026-04-26T03:55:58.729Z</time></trkpt><trkpt lat="43.03704" lon="2.2919317"><ele>255.0</ele><time>2026-04-26T03:55:59.729Z</time></trkpt><trkpt lat="43.0370167" lon="2.2920283"><ele>255.0</ele><time>2026-04-26T03:56:00.728Z</time></trkpt><trkpt lat="43.0369833" lon="2.292115"><ele>255.0</ele><time>2026-04-26T03:56:01.729Z</time></trkpt><trkpt lat="43.0369433" lon="2.292195"><ele>255.0</ele><time>2026-04-26T03:56:02.728Z</time></trkpt><trkpt lat="43.0369" lon="2.2922717"><ele>255.0</ele><time>2026-04-26T03:56:03.729Z</time></trkpt><trkpt lat="43.0368167" lon="2.2923383"><ele>255.16666666666666</ele><time>2026-04-26T03:56:05.728Z</time></trkpt><trkpt lat="43.0366967" lon="2.2923017"><ele>255.33333333333331</ele><time>2026-04-26T03:56:07.729Z</time></trkpt><trkpt lat="43.0366167" lon="2.292275"><ele>255.5</ele><time>2026-04-26T03:56:08.731Z</time></trkpt><trkpt lat="43.0365417" lon="2.292255"><ele>255.66666666666666</ele><time>2026-04-26T03:56:09.73Z</time></trkpt><trkpt lat="43.0364783" lon="2.2922417"><ele>255.83333333333331</ele><time>2026-04-26T03:56:10.728Z</time></trkpt><trkpt lat="43.0363883" lon="2.2922283"><ele>256.0</ele><time>2026-04-26T03:56:12.729Z</time></trkpt><trkpt lat="43.0363033" lon="2.2922733"><ele>256.0</ele><time>2026-04-26T03:56:15.728Z</time></trkpt><trkpt lat="43.0362317" lon="2.29236"><ele>255.99999999999997</ele><time>2026-04-26T03:56:17.728Z</time></trkpt><trkpt lat="43.0361817" lon="2.2924167"><ele>256.0</ele><time>2026-04-26T03:56:18.729Z</time></trkpt><trkpt lat="43.0361283" lon="2.2924783"><ele>256.0</ele><time>2026-04-26T03:56:19.734Z</time></trkpt><trkpt lat="43.0360833" lon="2.2925483"><ele>255.99999999999997</ele><time>2026-04-26T03:56:20.728Z</time></trkpt><trkpt lat="43.03605" lon="2.292625"><ele>256.0</ele><time>2026-04-26T03:56:21.728Z</time></trkpt><trkpt lat="43.0360233" lon="2.2927067"><ele>256.0</ele><time>2026-04-26T03:56:22.729Z</time></trkpt><trkpt lat="43.0359717" lon="2.292845"><ele>256.0</ele><time>2026-04-26T03:56:24.728Z</time></trkpt><trkpt lat="43.0359617" lon="2.2929767"><ele>256.0</ele><time>2026-04-26T03:56:26.728Z</time></trkpt><trkpt lat="43.0359617" lon="2.2931483"><ele>256.0</ele><time>2026-04-26T03:56:28.728Z</time></trkpt><trkpt lat="43.0359533" lon="2.2932433"><ele>256.0</ele><time>2026-04-26T03:56:29.727Z</time></trkpt><trkpt lat="43.0359367" lon="2.29335"><ele>256.0</ele><time>2026-04-26T03:56:30.728Z</time></trkpt><trkpt lat="43.035915" lon="2.29346"><ele>255.99999999999997</ele><time>2026-04-26T03:56:31.727Z</time></trkpt><trkpt lat="43.0358883" lon="2.293575"><ele>256.0</ele><time>2026-04-26T03:56:32.729Z</time></trkpt><trkpt lat="43.0358617" lon="2.2936883"><ele>256.0</ele><time>2026-04-26T03:56:33.728Z</time></trkpt><trkpt lat="43.0358367" lon="2.293795"><ele>256.0</ele><time>2026-04-26T03:56:34.728Z</time></trkpt><trkpt lat="43.0358167" lon="2.293895"><ele>255.99999999999997</ele><time>2026-04-26T03:56:35.727Z</time></trkpt><trkpt lat="43.0358" lon="2.293995"><ele>256.0</ele><time>2026-04-26T03:56:36.729Z</time></trkpt><trkpt lat="43.0357817" lon="2.2940983"><ele>256.0</ele><time>2026-04-26T03:56:37.728Z</time></trkpt><trkpt lat="43.0357667" lon="2.2942067"><ele>255.99999999999997</ele><time>2026-04-26T03:56:38.729Z</time></trkpt><trkpt lat="43.03575" lon="2.2943033"><ele>256.0</ele><time>2026-04-26T03:56:39.73Z</time></trkpt><trkpt lat="43.03573" lon="2.29439"><ele>256.0</ele><time>2026-04-26T03:56:40.728Z</time></trkpt><trkpt lat="43.0357133" lon="2.29448"><ele>255.99999999999997</ele><time>2026-04-26T03:56:41.728Z</time></trkpt><trkpt lat="43.0356983" lon="2.2945817"><ele>256.0</ele><time>2026-04-26T03:56:42.73Z</time></trkpt><trkpt lat="43.0356833" lon="2.2946867"><ele>256.0</ele><time>2026-04-26T03:56:43.728Z</time></trkpt><trkpt lat="43.035665" lon="2.294795"><ele>256.85714285714283</ele><time>2026-04-26T03:56:44.727Z</time></trkpt><trkpt lat="43.0356483" lon="2.2948983"><ele>257.71428571428567</ele><time>2026-04-26T03:56:45.727Z</time></trkpt><trkpt lat="43.0356317" lon="2.2950017"><ele>258.57142857142856</ele><time>2026-04-26T03:56:46.728Z</time></trkpt><trkpt lat="43.03562" lon="2.2951033"><ele>259.42857142857144</ele><time>2026-04-26T03:56:47.727Z</time></trkpt><trkpt lat="43.03561" lon="2.2952033"><ele>260.28571428571433</ele><time>2026-04-26T03:56:48.727Z</time></trkpt><trkpt lat="43.035595" lon="2.2953"><ele>261.14285714285717</ele><time>2026-04-26T03:56:49.729Z</time></trkpt><trkpt lat="43.03558" lon="2.2953917"><ele>262.0</ele><time>2026-04-26T03:56:50.728Z</time></trkpt><trkpt lat="43.0355617" lon="2.2954833"><ele>262.0</ele><time>2026-04-26T03:56:51.728Z</time></trkpt><trkpt lat="43.03554" lon="2.2955833"><ele>262.0</ele><time>2026-04-26T03:56:52.729Z</time></trkpt><trkpt lat="43.0355183" lon="2.2956883"><ele>262.0</ele><time>2026-04-26T03:56:53.727Z</time></trkpt><trkpt lat="43.0355033" lon="2.2957933"><ele>262.0</ele><time>2026-04-26T03:56:54.728Z</time></trkpt><trkpt lat="43.0354883" lon="2.295905"><ele>262.0</ele><time>2026-04-26T03:56:55.728Z</time></trkpt><trkpt lat="43.0354783" lon="2.2960133"><ele>262.0</ele><time>2026-04-26T03:56:56.729Z</time></trkpt><trkpt lat="43.035465" lon="2.296115"><ele>263.16666666666663</ele><time>2026-04-26T03:56:57.728Z</time></trkpt><trkpt lat="43.03545" lon="2.29621"><ele>264.3333333333333</ele><time>2026-04-26T03:56:58.729Z</time></trkpt><trkpt lat="43.0354383" lon="2.2963683"><ele>265.5</ele><time>2026-04-26T03:57:00.729Z</time></trkpt><trkpt lat="43.0354267" lon="2.2964583"><ele>266.6666666666667</ele><time>2026-04-26T03:57:01.729Z</time></trkpt><trkpt lat="43.0354133" lon="2.2965533"><ele>267.83333333333337</ele><time>2026-04-26T03:57:02.73Z</time></trkpt><trkpt lat="43.03541" lon="2.2966617"><ele>269.0</ele><time>2026-04-26T03:57:03.729Z</time></trkpt><trkpt lat="43.03541" lon="2.296775"><ele>270.0</ele><time>2026-04-26T03:57:04.731Z</time></trkpt><trkpt lat="43.03541" lon="2.2968983"><ele>271.0</ele><time>2026-04-26T03:57:05.728Z</time></trkpt><trkpt lat="43.0354083" lon="2.297025"><ele>272.0</ele><time>2026-04-26T03:57:06.732Z</time></trkpt><trkpt lat="43.0354133" lon="2.29714"><ele>273.0</ele><time>2026-04-26T03:57:07.729Z</time></trkpt><trkpt lat="43.0354133" lon="2.2972383"><ele>274.0</ele><time>2026-04-26T03:57:08.73Z</time></trkpt><trkpt lat="43.035415" lon="2.29733"><ele>275.0</ele><time>2026-04-26T03:57:09.729Z</time></trkpt><trkpt lat="43.0354233" lon="2.2974283"><ele>275.1666666666667</ele><time>2026-04-26T03:57:10.731Z</time></trkpt><trkpt lat="43.0354367" lon="2.2975433"><ele>275.33333333333337</ele><time>2026-04-26T03:57:11.73Z</time></trkpt><trkpt lat="43.03545" lon="2.2976533"><ele>275.5</ele><time>2026-04-26T03:57:12.731Z</time></trkpt><trkpt lat="43.035465" lon="2.2977617"><ele>275.6666666666667</ele><time>2026-04-26T03:57:13.73Z</time></trkpt><trkpt lat="43.0354767" lon="2.2978767"><ele>275.8333333333333</ele><time>2026-04-26T03:57:14.732Z</time></trkpt><trkpt lat="43.03548" lon="2.297995"><ele>276.0</ele><time>2026-04-26T03:57:15.728Z</time></trkpt><trkpt lat="43.0354733" lon="2.298115"><ele>276.5</ele><time>2026-04-26T03:57:16.73Z</time></trkpt><trkpt lat="43.0354533" lon="2.2982267"><ele>277.0</ele><time>2026-04-26T03:57:17.728Z</time></trkpt><trkpt lat="43.03544" lon="2.2983433"><ele>277.5</ele><time>2026-04-26T03:57:18.731Z</time></trkpt><trkpt lat="43.0354383" lon="2.29847"><ele>278.0</ele><time>2026-04-26T03:57:19.728Z</time></trkpt><trkpt lat="43.03543" lon="2.2985933"><ele>278.5</ele><time>2026-04-26T03:57:20.73Z</time></trkpt><trkpt lat="43.0354217" lon="2.2987133"><ele>279.0</ele><time>2026-04-26T03:57:21.728Z</time></trkpt><trkpt lat="43.035415" lon="2.2988283"><ele>280.0</ele><time>2026-04-26T03:57:22.728Z</time></trkpt><trkpt lat="43.0354083" lon="2.2989417"><ele>281.0</ele><time>2026-04-26T03:57:23.729Z</time></trkpt><trkpt lat="43.0354017" lon="2.2990483"><ele>282.0</ele><time>2026-04-26T03:57:24.731Z</time></trkpt><trkpt lat="43.0354" lon="2.2991467"><ele>283.0</ele><time>2026-04-26T03:57:25.73Z</time></trkpt><trkpt lat="43.035405" lon="2.29925"><ele>284.0</ele><time>2026-04-26T03:57:26.728Z</time></trkpt><trkpt lat="43.0354167" lon="2.2993667"><ele>285.0</ele><time>2026-04-26T03:57:27.728Z</time></trkpt><trkpt lat="43.0354333" lon="2.2994833"><ele>285.0</ele><time>2026-04-26T03:57:28.728Z</time></trkpt><trkpt lat="43.0354517" lon="2.2995983"><ele>285.0</ele><time>2026-04-26T03:57:29.728Z</time></trkpt><trkpt lat="43.03546" lon="2.299705"><ele>285.0</ele><time>2026-04-26T03:57:30.727Z</time></trkpt><trkpt lat="43.0354617" lon="2.2998083"><ele>285.0</ele><time>2026-04-26T03:57:31.731Z</time></trkpt><trkpt lat="43.0354617" lon="2.299915"><ele>285.0</ele><time>2026-04-26T03:57:32.729Z</time></trkpt><trkpt lat="43.0354583" lon="2.3000233"><ele>285.0</ele><time>2026-04-26T03:57:33.73Z</time></trkpt><trkpt lat="43.0354583" lon="2.3001367"><ele>285.1666666666667</ele><time>2026-04-26T03:57:34.728Z</time></trkpt><trkpt lat="43.0354583" lon="2.30025"><ele>285.3333333333333</ele><time>2026-04-26T03:57:35.728Z</time></trkpt><trkpt lat="43.0354583" lon="2.3003567"><ele>285.5</ele><time>2026-04-26T03:57:36.728Z</time></trkpt><trkpt lat="43.03546" lon="2.300465"><ele>285.66666666666663</ele><time>2026-04-26T03:57:37.729Z</time></trkpt><trkpt lat="43.0354667" lon="2.3005683"><ele>285.8333333333333</ele><time>2026-04-26T03:57:38.728Z</time></trkpt><trkpt lat="43.0354783" lon="2.3006833"><ele>286.0</ele><time>2026-04-26T03:57:39.727Z</time></trkpt><trkpt lat="43.0354867" lon="2.3008017"><ele>286.0</ele><time>2026-04-26T03:57:40.73Z</time></trkpt><trkpt lat="43.0355033" lon="2.3009233"><ele>286.0</ele><time>2026-04-26T03:57:41.727Z</time></trkpt><trkpt lat="43.03552" lon="2.301025"><ele>286.0</ele><time>2026-04-26T03:57:42.73Z</time></trkpt><trkpt lat="43.035545" lon="2.3011767"><ele>286.0</ele><time>2026-04-26T03:57:44.73Z</time></trkpt><trkpt lat="43.03558" lon="2.301265"><ele>286.0</ele><time>2026-04-26T03:57:46.728Z</time></trkpt><trkpt lat="43.0356333" lon="2.3013267"><ele>286.0</ele><time>2026-04-26T03:57:48.729Z</time></trkpt><trkpt lat="43.0356233" lon="2.3014233"><ele>286.5</ele><time>2026-04-26T03:57:51.73Z</time></trkpt><trkpt lat="43.0355933" lon="2.3015083"><ele>287.0</ele><time>2026-04-26T03:57:53.729Z</time></trkpt><trkpt lat="43.03558" lon="2.3015983"><ele>287.5</ele><time>2026-04-26T03:57:55.73Z</time></trkpt><trkpt lat="43.03557" lon="2.3017283"><ele>288.0</ele><time>2026-04-26T03:57:58.729Z</time></trkpt><trkpt lat="43.0355733" lon="2.3018433"><ele>288.5</ele><time>2026-04-26T03:58:00.729Z</time></trkpt><trkpt lat="43.035595" lon="2.3019417"><ele>289.0</ele><time>2026-04-26T03:58:02.73Z</time></trkpt><trkpt lat="43.0356267" lon="2.302055"><ele>289.0</ele><time>2026-04-26T03:58:04.728Z</time></trkpt><trkpt lat="43.035625" lon="2.30216"><ele>289.0</ele><time>2026-04-26T03:58:06.73Z</time></trkpt><trkpt lat="43.03558" lon="2.3022467"><ele>289.0</ele><time>2026-04-26T03:58:08.73Z</time></trkpt><trkpt lat="43.0355517" lon="2.3023333"><ele>289.0</ele><time>2026-04-26T03:58:10.728Z</time></trkpt><trkpt lat="43.0355367" lon="2.3024533"><ele>289.0</ele><time>2026-04-26T03:58:12.73Z</time></trkpt><trkpt lat="43.035525" lon="2.302645"><ele>290.2</ele><time>2026-04-26T03:58:14.729Z</time></trkpt><trkpt lat="43.0355233" lon="2.3027683"><ele>291.4</ele><time>2026-04-26T03:58:15.729Z</time></trkpt><trkpt lat="43.0355133" lon="2.3028967"><ele>292.6</ele><time>2026-04-26T03:58:16.728Z</time></trkpt><trkpt lat="43.0354883" lon="2.3030183"><ele>293.8</ele><time>2026-04-26T03:58:17.729Z</time></trkpt><trkpt lat="43.0354517" lon="2.3031417"><ele>295.0</ele><time>2026-04-26T03:58:18.728Z</time></trkpt><trkpt lat="43.0353933" lon="2.3032667"><ele>296.8</ele><time>2026-04-26T03:58:19.729Z</time></trkpt><trkpt lat="43.035325" lon="2.3033933"><ele>298.6</ele><time>2026-04-26T03:58:20.73Z</time></trkpt><trkpt lat="43.0352583" lon="2.3035183"><ele>300.4</ele><time>2026-04-26T03:58:21.73Z</time></trkpt><trkpt lat="43.0352017" lon="2.3036417"><ele>302.2</ele><time>2026-04-26T03:58:22.728Z</time></trkpt><trkpt lat="43.03515" lon="2.303765"><ele>304.0</ele><time>2026-04-26T03:58:23.729Z</time></trkpt><trkpt lat="43.0351" lon="2.3039017"><ele>306.0</ele><time>2026-04-26T03:58:24.727Z</time></trkpt><trkpt lat="43.035055" lon="2.3040483"><ele>308.0</ele><time>2026-04-26T03:58:25.729Z</time></trkpt><trkpt lat="43.0350233" lon="2.3042117"><ele>310.0</ele><time>2026-04-26T03:58:26.73Z</time></trkpt><trkpt lat="43.03499" lon="2.304385"><ele>312.0</ele><time>2026-04-26T03:58:27.729Z</time></trkpt><trkpt lat="43.0349483" lon="2.304565"><ele>312.0</ele><time>2026-04-26T03:58:28.727Z</time></trkpt><trkpt lat="43.034895" lon="2.30474"><ele>312.0</ele><time>2026-04-26T03:58:29.727Z</time></trkpt><trkpt lat="43.0348383" lon="2.3049033"><ele>312.0</ele><time>2026-04-26T03:58:30.729Z</time></trkpt><trkpt lat="43.034775" lon="2.3050633"><ele>312.0</ele><time>2026-04-26T03:58:31.728Z</time></trkpt><trkpt lat="43.0347083" lon="2.3052167"><ele>312.75</ele><time>2026-04-26T03:58:32.73Z</time></trkpt><trkpt lat="43.0346433" lon="2.30537"><ele>313.5</ele><time>2026-04-26T03:58:33.728Z</time></trkpt><trkpt lat="43.0345783" lon="2.305515"><ele>314.25</ele><time>2026-04-26T03:58:34.727Z</time></trkpt><trkpt lat="43.0345067" lon="2.305655"><ele>315.0</ele><time>2026-04-26T03:58:35.729Z</time></trkpt><trkpt lat="43.0344267" lon="2.30579"><ele>317.25</ele><time>2026-04-26T03:58:36.728Z</time></trkpt><trkpt lat="43.0343417" lon="2.3059283"><ele>319.5</ele><time>2026-04-26T03:58:37.729Z</time></trkpt><trkpt lat="43.0342533" lon="2.306065"><ele>321.75</ele><time>2026-04-26T03:58:38.729Z</time></trkpt><trkpt lat="43.0341583" lon="2.306195"><ele>324.0</ele><time>2026-04-26T03:58:39.729Z</time></trkpt><trkpt lat="43.0340567" lon="2.3063167"><ele>327.0</ele><time>2026-04-26T03:58:40.73Z</time></trkpt><trkpt lat="43.0339533" lon="2.30643"><ele>330.0</ele><time>2026-04-26T03:58:41.731Z</time></trkpt><trkpt lat="43.0338517" lon="2.3065433"><ele>333.0</ele><time>2026-04-26T03:58:42.73Z</time></trkpt><trkpt lat="43.03376" lon="2.3066683"><ele>336.0</ele><time>2026-04-26T03:58:43.729Z</time></trkpt><trkpt lat="43.033675" lon="2.3068133"><ele>336.0</ele><time>2026-04-26T03:58:44.73Z</time></trkpt><trkpt lat="43.0335917" lon="2.3069683"><ele>336.0</ele><time>2026-04-26T03:58:45.729Z</time></trkpt><trkpt lat="43.0334983" lon="2.3071233"><ele>336.0</ele><time>2026-04-26T03:58:46.727Z</time></trkpt><trkpt lat="43.0334017" lon="2.30727"><ele>336.0</ele><time>2026-04-26T03:58:47.728Z</time></trkpt><trkpt lat="43.033305" lon="2.3074167"><ele>338.5</ele><time>2026-04-26T03:58:48.728Z</time></trkpt><trkpt lat="43.0332067" lon="2.3075617"><ele>341.0</ele><time>2026-04-26T03:58:49.728Z</time></trkpt><trkpt lat="43.0331033" lon="2.3077033"><ele>343.5</ele><time>2026-04-26T03:58:50.729Z</time></trkpt><trkpt lat="43.0330033" lon="2.3078533"><ele>346.0</ele><time>2026-04-26T03:58:51.728Z</time></trkpt><trkpt lat="43.0329117" lon="2.3080083"><ele>346.25</ele><time>2026-04-26T03:58:52.727Z</time></trkpt><trkpt lat="43.032835" lon="2.3081567"><ele>346.5</ele><time>2026-04-26T03:58:53.728Z</time></trkpt><trkpt lat="43.03278" lon="2.3083067"><ele>346.75</ele><time>2026-04-26T03:58:54.728Z</time></trkpt><trkpt lat="43.0327283" lon="2.308455"><ele>347.0</ele><time>2026-04-26T03:58:55.728Z</time></trkpt><trkpt lat="43.03268" lon="2.308595"><ele>347.0</ele><time>2026-04-26T03:58:56.729Z</time></trkpt><trkpt lat="43.0326283" lon="2.3087183"><ele>347.0</ele><time>2026-04-26T03:58:57.728Z</time></trkpt><trkpt lat="43.0325717" lon="2.30882"><ele>347.0</ele><time>2026-04-26T03:58:58.729Z</time></trkpt><trkpt lat="43.0325033" lon="2.3088983"><ele>347.0</ele><time>2026-04-26T03:58:59.728Z</time></trkpt><trkpt lat="43.032425" lon="2.3089583"><ele>347.0</ele><time>2026-04-26T03:59:00.728Z</time></trkpt><trkpt lat="43.03233" lon="2.3090017"><ele>349.6</ele><time>2026-04-26T03:59:01.727Z</time></trkpt><trkpt lat="43.0322417" lon="2.3090367"><ele>352.20000000000005</ele><time>2026-04-26T03:59:02.728Z</time></trkpt><trkpt lat="43.0321617" lon="2.3090667"><ele>354.8</ele><time>2026-04-26T03:59:03.73Z</time></trkpt><trkpt lat="43.0320983" lon="2.3090883"><ele>357.4</ele><time>2026-04-26T03:59:04.729Z</time></trkpt><trkpt lat="43.0320033" lon="2.30905"><ele>360.0</ele><time>2026-04-26T03:59:06.73Z</time></trkpt><trkpt lat="43.0319733" lon="2.30889"><ele>360.4</ele><time>2026-04-26T03:59:08.729Z</time></trkpt><trkpt lat="43.031975" lon="2.3087733"><ele>360.8</ele><time>2026-04-26T03:59:09.728Z</time></trkpt><trkpt lat="43.0319783" lon="2.308645"><ele>361.20000000000005</ele><time>2026-04-26T03:59:10.728Z</time></trkpt><trkpt lat="43.0319883" lon="2.3085033"><ele>361.6</ele><time>2026-04-26T03:59:11.73Z</time></trkpt><trkpt lat="43.032005" lon="2.308355"><ele>362.0</ele><time>2026-04-26T03:59:12.73Z</time></trkpt><trkpt lat="43.0320267" lon="2.3082"><ele>361.75</ele><time>2026-04-26T03:59:13.729Z</time></trkpt><trkpt lat="43.0320417" lon="2.308045"><ele>361.5</ele><time>2026-04-26T03:59:14.729Z</time></trkpt><trkpt lat="43.0320433" lon="2.307885"><ele>361.25</ele><time>2026-04-26T03:59:15.73Z</time></trkpt><trkpt lat="43.0320467" lon="2.30772"><ele>361.0</ele><time>2026-04-26T03:59:16.727Z</time></trkpt><trkpt lat="43.032045" lon="2.3075567"><ele>361.0</ele><time>2026-04-26T03:59:17.73Z</time></trkpt><trkpt lat="43.0320367" lon="2.307405"><ele>361.0</ele><time>2026-04-26T03:59:18.73Z</time></trkpt><trkpt lat="43.03203" lon="2.3072783"><ele>361.0</ele><time>2026-04-26T03:59:19.731Z</time></trkpt><trkpt lat="43.0320183" lon="2.3071633"><ele>361.0</ele><time>2026-04-26T03:59:20.729Z</time></trkpt><trkpt lat="43.03199" lon="2.307065"><ele>361.0</ele><time>2026-04-26T03:59:21.728Z</time></trkpt><trkpt lat="43.0319633" lon="2.30698"><ele>361.0</ele><time>2026-04-26T03:59:22.728Z</time></trkpt><trkpt lat="43.0318717" lon="2.3069167"><ele>361.16666666666663</ele><time>2026-04-26T03:59:24.729Z</time></trkpt><trkpt lat="43.031745" lon="2.3069617"><ele>361.3333333333333</ele><time>2026-04-26T03:59:26.73Z</time></trkpt><trkpt lat="43.0316667" lon="2.3070067"><ele>361.5</ele><time>2026-04-26T03:59:27.728Z</time></trkpt><trkpt lat="43.03159" lon="2.30705"><ele>361.6666666666667</ele><time>2026-04-26T03:59:28.73Z</time></trkpt><trkpt lat="43.0315233" lon="2.3070817"><ele>361.83333333333337</ele><time>2026-04-26T03:59:29.729Z</time></trkpt><trkpt lat="43.0314633" lon="2.3071117"><ele>362.0</ele><time>2026-04-26T03:59:30.729Z</time></trkpt><trkpt lat="43.0313567" lon="2.30718"><ele>364.42857142857144</ele><time>2026-04-26T03:59:32.729Z</time></trkpt><trkpt lat="43.03131" lon="2.3072433"><ele>366.85714285714283</ele><time>2026-04-26T03:59:33.728Z</time></trkpt><trkpt lat="43.0312717" lon="2.3073167"><ele>369.28571428571433</ele><time>2026-04-26T03:59:34.73Z</time></trkpt><trkpt lat="43.03126" lon="2.30742"><ele>371.7142857142857</ele><time>2026-04-26T03:59:35.728Z</time></trkpt><trkpt lat="43.0312567" lon="2.3075217"><ele>374.14285714285717</ele><time>2026-04-26T03:59:36.728Z</time></trkpt><trkpt lat="43.0312533" lon="2.307615"><ele>376.5714285714286</ele><time>2026-04-26T03:59:37.729Z</time></trkpt><trkpt lat="43.0312483" lon="2.307705"><ele>379.0</ele><time>2026-04-26T03:59:38.728Z</time></trkpt><trkpt lat="43.0312483" lon="2.3078017"><ele>379.3333333333333</ele><time>2026-04-26T03:59:39.729Z</time></trkpt><trkpt lat="43.0312517" lon="2.3079033"><ele>379.66666666666663</ele><time>2026-04-26T03:59:40.727Z</time></trkpt><trkpt lat="43.0312417" lon="2.30801"><ele>380.0</ele><time>2026-04-26T03:59:41.727Z</time></trkpt><trkpt lat="43.03123" lon="2.30811"><ele>380.3333333333333</ele><time>2026-04-26T03:59:42.732Z</time></trkpt><trkpt lat="43.0312183" lon="2.3082017"><ele>380.6666666666667</ele><time>2026-04-26T03:59:43.729Z</time></trkpt><trkpt lat="43.0312133" lon="2.3083517"><ele>381.0</ele><time>2026-04-26T03:59:45.728Z</time></trkpt><trkpt lat="43.031185" lon="2.30844"><ele>381.0</ele><time>2026-04-26T03:59:47.731Z</time></trkpt><trkpt lat="43.0310983" lon="2.3083867"><ele>381.0</ele><time>2026-04-26T03:59:50.729Z</time></trkpt><trkpt lat="43.0310617" lon="2.3082967"><ele>381.0</ele><time>2026-04-26T03:59:51.729Z</time></trkpt><trkpt lat="43.0310133" lon="2.3081967"><ele>381.0</ele><time>2026-04-26T03:59:52.731Z</time></trkpt><trkpt lat="43.0309667" lon="2.3080317"><ele>381.0</ele><time>2026-04-26T03:59:54.731Z</time></trkpt><trkpt lat="43.0309483" lon="2.3079333"><ele>381.1666666666667</ele><time>2026-04-26T03:59:55.728Z</time></trkpt><trkpt lat="43.030935" lon="2.30782"><ele>381.3333333333333</ele><time>2026-04-26T03:59:56.73Z</time></trkpt><trkpt lat="43.030935" lon="2.3077017"><ele>381.5</ele><time>2026-04-26T03:59:57.73Z</time></trkpt><trkpt lat="43.0309417" lon="2.3075783"><ele>381.66666666666663</ele><time>2026-04-26T03:59:58.728Z</time></trkpt><trkpt lat="43.030935" lon="2.3074683"><ele>381.8333333333333</ele><time>2026-04-26T03:59:59.73Z</time></trkpt><trkpt lat="43.0309183" lon="2.3073617"><ele>382.0</ele><time>2026-04-26T04:00:00.729Z</time></trkpt><trkpt lat="43.0308883" lon="2.30727"><ele>381.5</ele><time>2026-04-26T04:00:01.728Z</time></trkpt><trkpt lat="43.0308483" lon="2.30717"><ele>381.0</ele><time>2026-04-26T04:00:02.728Z</time></trkpt><trkpt lat="43.0308067" lon="2.3070817"><ele>380.5</ele><time>2026-04-26T04:00:03.728Z</time></trkpt><trkpt lat="43.0307583" lon="2.3070083"><ele>380.0</ele><time>2026-04-26T04:00:04.728Z</time></trkpt><trkpt lat="43.0307133" lon="2.3069417"><ele>379.5</ele><time>2026-04-26T04:00:05.727Z</time></trkpt><trkpt lat="43.0306517" lon="2.3068433"><ele>379.0</ele><time>2026-04-26T04:00:07.73Z</time></trkpt><trkpt lat="43.0305883" lon="2.3067517"><ele>384.5</ele><time>2026-04-26T04:00:09.727Z</time></trkpt><trkpt lat="43.0305117" lon="2.3066367"><ele>390.0</ele><time>2026-04-26T04:00:11.727Z</time></trkpt><trkpt lat="43.0304383" lon="2.3065383"><ele>395.5</ele><time>2026-04-26T04:00:13.727Z</time></trkpt><trkpt lat="43.030325" lon="2.30649"><ele>401.0</ele><time>2026-04-26T04:00:15.728Z</time></trkpt><trkpt lat="43.03021" lon="2.3064683"><ele>401.0</ele><time>2026-04-26T04:00:17.729Z</time></trkpt><trkpt lat="43.030095" lon="2.3064483"><ele>401.0</ele><time>2026-04-26T04:00:19.729Z</time></trkpt><trkpt lat="43.02998" lon="2.30643"><ele>401.0</ele><time>2026-04-26T04:00:21.729Z</time></trkpt><trkpt lat="43.02986" lon="2.3063983"><ele>401.0</ele><time>2026-04-26T04:00:23.729Z</time></trkpt><trkpt lat="43.02973" lon="2.3063567"><ele>401.8571428571429</ele><time>2026-04-26T04:00:25.728Z</time></trkpt><trkpt lat="43.0296583" lon="2.3063267"><ele>402.7142857142857</ele><time>2026-04-26T04:00:26.73Z</time></trkpt><trkpt lat="43.0295883" lon="2.306295"><ele>403.57142857142856</ele><time>2026-04-26T04:00:27.728Z</time></trkpt><trkpt lat="43.0295183" lon="2.306265"><ele>404.42857142857144</ele><time>2026-04-26T04:00:28.729Z</time></trkpt><trkpt lat="43.0294483" lon="2.3062417"><ele>405.2857142857143</ele><time>2026-04-26T04:00:29.729Z</time></trkpt><trkpt lat="43.0293783" lon="2.3062283"><ele>406.14285714285717</ele><time>2026-04-26T04:00:30.728Z</time></trkpt><trkpt lat="43.0293133" lon="2.3062217"><ele>407.0</ele><time>2026-04-26T04:00:31.729Z</time></trkpt><trkpt lat="43.0292433" lon="2.3062217"><ele>406.99999999999994</ele><time>2026-04-26T04:00:32.73Z</time></trkpt><trkpt lat="43.0291733" lon="2.30622"><ele>407.0</ele><time>2026-04-26T04:00:33.73Z</time></trkpt><trkpt lat="43.0291067" lon="2.306215"><ele>407.0</ele><time>2026-04-26T04:00:34.73Z</time></trkpt><trkpt lat="43.0290417" lon="2.3062167"><ele>407.0</ele><time>2026-04-26T04:00:35.728Z</time></trkpt><trkpt lat="43.0289317" lon="2.3062333"><ele>406.99999999999994</ele><time>2026-04-26T04:00:37.731Z</time></trkpt><trkpt lat="43.028835" lon="2.306225"><ele>407.0</ele><time>2026-04-26T04:00:39.73Z</time></trkpt><trkpt lat="43.0287267" lon="2.30616"><ele>411.0</ele><time>2026-04-26T04:00:41.732Z</time></trkpt><trkpt lat="43.02868" lon="2.3061"><ele>415.0</ele><time>2026-04-26T04:00:42.729Z</time></trkpt><trkpt lat="43.0286267" lon="2.30595"><ele>419.00000000000006</ele><time>2026-04-26T04:00:44.731Z</time></trkpt><trkpt lat="43.0285933" lon="2.305805"><ele>423.0</ele><time>2026-04-26T04:00:46.73Z</time></trkpt><trkpt lat="43.0285267" lon="2.30568"><ele>427.0</ele><time>2026-04-26T04:00:48.729Z</time></trkpt><trkpt lat="43.0284133" lon="2.305615"><ele>426.33333333333337</ele><time>2026-04-26T04:00:50.732Z</time></trkpt><trkpt lat="43.02834" lon="2.305575"><ele>425.6666666666667</ele><time>2026-04-26T04:00:51.73Z</time></trkpt><trkpt lat="43.028275" lon="2.30552"><ele>425.0</ele><time>2026-04-26T04:00:52.729Z</time></trkpt><trkpt lat="43.02822" lon="2.3054583"><ele>424.33333333333337</ele><time>2026-04-26T04:00:53.729Z</time></trkpt><trkpt lat="43.0281267" lon="2.305355"><ele>423.6666666666667</ele><time>2026-04-26T04:00:55.73Z</time></trkpt><trkpt lat="43.028065" lon="2.3053167"><ele>423.0</ele><time>2026-04-26T04:00:56.732Z</time></trkpt><trkpt lat="43.0279433" lon="2.30526"><ele>425.1428571428571</ele><time>2026-04-26T04:00:58.728Z</time></trkpt><trkpt lat="43.027885" lon="2.3052233"><ele>427.28571428571433</ele><time>2026-04-26T04:00:59.728Z</time></trkpt><trkpt lat="43.0278267" lon="2.30517"><ele>429.42857142857144</ele><time>2026-04-26T04:01:00.731Z</time></trkpt><trkpt lat="43.027775" lon="2.3051133"><ele>431.57142857142856</ele><time>2026-04-26T04:01:01.728Z</time></trkpt><trkpt lat="43.0277283" lon="2.30505"><ele>433.71428571428567</ele><time>2026-04-26T04:01:02.728Z</time></trkpt><trkpt lat="43.0276683" lon="2.3049933"><ele>435.8571428571429</ele><time>2026-04-26T04:01:03.729Z</time></trkpt><trkpt lat="43.0276033" lon="2.3049467"><ele>438.0</ele><time>2026-04-26T04:01:04.728Z</time></trkpt><trkpt lat="43.0274767" lon="2.3048867"><ele>440.3333333333333</ele><time>2026-04-26T04:01:06.73Z</time></trkpt><trkpt lat="43.0274083" lon="2.3048567"><ele>442.66666666666663</ele><time>2026-04-26T04:01:07.728Z</time></trkpt><trkpt lat="43.0273483" lon="2.3048233"><ele>445.0</ele><time>2026-04-26T04:01:08.728Z</time></trkpt><trkpt lat="43.0272533" lon="2.3047067"><ele>447.3333333333333</ele><time>2026-04-26T04:01:10.727Z</time></trkpt><trkpt lat="43.0272083" lon="2.3046417"><ele>449.66666666666663</ele><time>2026-04-26T04:01:11.728Z</time></trkpt><trkpt lat="43.0271633" lon="2.3045767"><ele>452.0</ele><time>2026-04-26T04:01:12.729Z</time></trkpt><trkpt lat="43.02708" lon="2.3044783"><ele>451.99999999999994</ele><time>2026-04-26T04:01:14.731Z</time></trkpt><trkpt lat="43.0269867" lon="2.3043967"><ele>452.0</ele><time>2026-04-26T04:01:16.729Z</time></trkpt><trkpt lat="43.0268883" lon="2.3042933"><ele>452.0</ele><time>2026-04-26T04:01:18.729Z</time></trkpt><trkpt lat="43.0268367" lon="2.3042367"><ele>452.0</ele><time>2026-04-26T04:01:19.728Z</time></trkpt><trkpt lat="43.0267817" lon="2.304175"><ele>451.99999999999994</ele><time>2026-04-26T04:01:20.729Z</time></trkpt><trkpt lat="43.0267233" lon="2.30411"><ele>452.0</ele><time>2026-04-26T04:01:21.728Z</time></trkpt><trkpt lat="43.02667" lon="2.3040383"><ele>454.66666666666663</ele><time>2026-04-26T04:01:22.728Z</time></trkpt><trkpt lat="43.0266183" lon="2.3039567"><ele>457.3333333333333</ele><time>2026-04-26T04:01:23.73Z</time></trkpt><trkpt lat="43.0265683" lon="2.3038567"><ele>460.0</ele><time>2026-04-26T04:01:24.729Z</time></trkpt><trkpt lat="43.02652" lon="2.3037633"><ele>462.66666666666663</ele><time>2026-04-26T04:01:25.728Z</time></trkpt><trkpt lat="43.0264967" lon="2.3036617"><ele>465.3333333333333</ele><time>2026-04-26T04:01:26.729Z</time></trkpt><trkpt lat="43.0264583" lon="2.30357"><ele>468.0</ele><time>2026-04-26T04:01:27.729Z</time></trkpt><trkpt lat="43.026415" lon="2.3034783"><ele>468.0</ele><time>2026-04-26T04:01:28.729Z</time></trkpt><trkpt lat="43.0263717" lon="2.303405"><ele>468.00000000000006</ele><time>2026-04-26T04:01:29.727Z</time></trkpt><trkpt lat="43.0263167" lon="2.3033367"><ele>468.0</ele><time>2026-04-26T04:01:30.729Z</time></trkpt><trkpt lat="43.026255" lon="2.3032867"><ele>468.0</ele><time>2026-04-26T04:01:31.727Z</time></trkpt><trkpt lat="43.02619" lon="2.30325"><ele>468.00000000000006</ele><time>2026-04-26T04:01:32.729Z</time></trkpt><trkpt lat="43.0261217" lon="2.30324"><ele>468.0</ele><time>2026-04-26T04:01:33.729Z</time></trkpt><trkpt lat="43.0260433" lon="2.303215"><ele>468.0</ele><time>2026-04-26T04:01:34.728Z</time></trkpt><trkpt lat="43.025965" lon="2.3031933"><ele>468.0</ele><time>2026-04-26T04:01:35.729Z</time></trkpt><trkpt lat="43.02589" lon="2.3031617"><ele>468.00000000000006</ele><time>2026-04-26T04:01:36.728Z</time></trkpt><trkpt lat="43.0258217" lon="2.30313"><ele>468.0</ele><time>2026-04-26T04:01:37.729Z</time></trkpt><trkpt lat="43.025755" lon="2.3030983"><ele>468.0</ele><time>2026-04-26T04:01:38.729Z</time></trkpt><trkpt lat="43.0256917" lon="2.3030767"><ele>468.00000000000006</ele><time>2026-04-26T04:01:39.729Z</time></trkpt><trkpt lat="43.0256" lon="2.30305"><ele>468.0</ele><time>2026-04-26T04:01:41.729Z</time></trkpt><trkpt lat="43.025555" lon="2.3031133"><ele>468.0</ele><time>2026-04-26T04:01:45.727Z</time></trkpt><trkpt lat="43.0256333" lon="2.30318"><ele>468.0</ele><time>2026-04-26T04:01:47.729Z</time></trkpt><trkpt lat="43.025685" lon="2.303235"><ele>468.0</ele><time>2026-04-26T04:01:48.729Z</time></trkpt><trkpt lat="43.0257317" lon="2.3033017"><ele>468.0</ele><time>2026-04-26T04:01:49.728Z</time></trkpt><trkpt lat="43.025785" lon="2.3033517"><ele>468.0</ele><time>2026-04-26T04:01:50.728Z</time></trkpt><trkpt lat="43.0258767" lon="2.3034533"><ele>468.0</ele><time>2026-04-26T04:01:52.728Z</time></trkpt><trkpt lat="43.025935" lon="2.303595"><ele>468.0</ele><time>2026-04-26T04:01:54.728Z</time></trkpt><trkpt lat="43.0259567" lon="2.3036867"><ele>468.0</ele><time>2026-04-26T04:01:55.731Z</time></trkpt><trkpt lat="43.025975" lon="2.3037883"><ele>468.00000000000006</ele><time>2026-04-26T04:01:56.731Z</time></trkpt><trkpt lat="43.025995" lon="2.3039"><ele>468.0</ele><time>2026-04-26T04:01:57.728Z</time></trkpt><trkpt lat="43.026015" lon="2.3040083"><ele>468.0</ele><time>2026-04-26T04:01:58.727Z</time></trkpt><trkpt lat="43.026035" lon="2.3041067"><ele>468.00000000000006</ele><time>2026-04-26T04:01:59.729Z</time></trkpt><trkpt lat="43.0260467" lon="2.3041917"><ele>468.0</ele><time>2026-04-26T04:02:00.73Z</time></trkpt><trkpt lat="43.0260467" lon="2.3042783"><ele>468.0</ele><time>2026-04-26T04:02:01.728Z</time></trkpt><trkpt lat="43.0260367" lon="2.304375"><ele>470.8333333333333</ele><time>2026-04-26T04:02:02.729Z</time></trkpt><trkpt lat="43.0260267" lon="2.3044817"><ele>473.66666666666663</ele><time>2026-04-26T04:02:03.732Z</time></trkpt><trkpt lat="43.0260033" lon="2.304595"><ele>476.5</ele><time>2026-04-26T04:02:04.73Z</time></trkpt><trkpt lat="43.0259917" lon="2.304715"><ele>479.3333333333333</ele><time>2026-04-26T04:02:05.729Z</time></trkpt><trkpt lat="43.0259817" lon="2.3048383"><ele>482.16666666666663</ele><time>2026-04-26T04:02:06.731Z</time></trkpt><trkpt lat="43.0259817" lon="2.3049617"><ele>485.0</ele><time>2026-04-26T04:02:07.729Z</time></trkpt><trkpt lat="43.0259867" lon="2.3050933"><ele>486.49999999999994</ele><time>2026-04-26T04:02:08.73Z</time></trkpt><trkpt lat="43.0259917" lon="2.30522"><ele>488.0</ele><time>2026-04-26T04:02:09.728Z</time></trkpt><trkpt lat="43.0259833" lon="2.3053467"><ele>489.5</ele><time>2026-04-26T04:02:10.728Z</time></trkpt><trkpt lat="43.0259883" lon="2.305475"><ele>491.0</ele><time>2026-04-26T04:02:11.728Z</time></trkpt><trkpt lat="43.0259933" lon="2.3055933"><ele>492.49999999999994</ele><time>2026-04-26T04:02:12.729Z</time></trkpt><trkpt lat="43.0260233" lon="2.3056967"><ele>494.0</ele><time>2026-04-26T04:02:13.729Z</time></trkpt><trkpt lat="43.0260483" lon="2.3058183"><ele>493.99999999999994</ele><time>2026-04-26T04:02:15.728Z</time></trkpt><trkpt lat="43.025985" lon="2.3057033"><ele>494.0</ele><time>2026-04-26T04:02:21.727Z</time></trkpt><trkpt lat="43.0259533" lon="2.30562"><ele>494.0</ele><time>2026-04-26T04:02:22.729Z</time></trkpt><trkpt lat="43.0259117" lon="2.3055133"><ele>494.0</ele><time>2026-04-26T04:02:23.729Z</time></trkpt><trkpt lat="43.0258817" lon="2.3054117"><ele>493.99999999999994</ele><time>2026-04-26T04:02:24.728Z</time></trkpt><trkpt lat="43.02585" lon="2.305305"><ele>494.0</ele><time>2026-04-26T04:02:25.728Z</time></trkpt><trkpt lat="43.02583" lon="2.3052083"><ele>498.42857142857144</ele><time>2026-04-26T04:02:26.728Z</time></trkpt><trkpt lat="43.0258033" lon="2.30512"><ele>502.85714285714283</ele><time>2026-04-26T04:02:27.729Z</time></trkpt><trkpt lat="43.0257683" lon="2.3050317"><ele>507.2857142857143</ele><time>2026-04-26T04:02:28.729Z</time></trkpt><trkpt lat="43.0257417" lon="2.304945"><ele>511.7142857142857</ele><time>2026-04-26T04:02:29.728Z</time></trkpt><trkpt lat="43.0257167" lon="2.3048567"><ele>516.1428571428571</ele><time>2026-04-26T04:02:30.728Z</time></trkpt><trkpt lat="43.025685" lon="2.30476"><ele>520.5714285714286</ele><time>2026-04-26T04:02:31.727Z</time></trkpt><trkpt lat="43.0256517" lon="2.304665"><ele>525.0</ele><time>2026-04-26T04:02:32.728Z</time></trkpt><trkpt lat="43.025625" lon="2.30458"><ele>525.0</ele><time>2026-04-26T04:02:33.728Z</time></trkpt><trkpt lat="43.0255967" lon="2.3045017"><ele>525.0</ele><time>2026-04-26T04:02:34.727Z</time></trkpt><trkpt lat="43.0255667" lon="2.30442"><ele>525.0</ele><time>2026-04-26T04:02:36.728Z</time></trkpt><trkpt lat="43.0255383" lon="2.304515"><ele>525.0</ele><time>2026-04-26T04:02:39.728Z</time></trkpt><trkpt lat="43.0255467" lon="2.3046667"><ele>525.0</ele><time>2026-04-26T04:02:41.728Z</time></trkpt><trkpt lat="43.0255483" lon="2.3047633"><ele>525.0</ele><time>2026-04-26T04:02:42.727Z</time></trkpt><trkpt lat="43.0255433" lon="2.3048717"><ele>528.5</ele><time>2026-04-26T04:02:43.727Z</time></trkpt><trkpt lat="43.02553" lon="2.304985"><ele>532.0</ele><time>2026-04-26T04:02:44.728Z</time></trkpt><trkpt lat="43.0255183" lon="2.3051083"><ele>535.5</ele><time>2026-04-26T04:02:45.727Z</time></trkpt><trkpt lat="43.0255083" lon="2.30523"><ele>539.0</ele><time>2026-04-26T04:02:46.728Z</time></trkpt><trkpt lat="43.025515" lon="2.3053383"><ele>542.5</ele><time>2026-04-26T04:02:47.728Z</time></trkpt><trkpt lat="43.0255167" lon="2.3054417"><ele>546.0</ele><time>2026-04-26T04:02:48.728Z</time></trkpt><trkpt lat="43.0255167" lon="2.30554"><ele>546.8333333333334</ele><time>2026-04-26T04:02:49.808Z</time></trkpt><trkpt lat="43.02553" lon="2.3056283"><ele>547.6666666666666</ele><time>2026-04-26T04:02:50.728Z</time></trkpt><trkpt lat="43.025545" lon="2.3057833"><ele>548.5</ele><time>2026-04-26T04:02:52.727Z</time></trkpt><trkpt lat="43.02554" lon="2.305875"><ele>549.3333333333333</ele><time>2026-04-26T04:02:53.729Z</time></trkpt><trkpt lat="43.0255417" lon="2.3059767"><ele>550.1666666666666</ele><time>2026-04-26T04:02:54.728Z</time></trkpt><trkpt lat="43.0255467" lon="2.3060717"><ele>551.0</ele><time>2026-04-26T04:02:55.727Z</time></trkpt><trkpt lat="43.0255433" lon="2.3061683"><ele>551.0</ele><time>2026-04-26T04:02:56.731Z</time></trkpt><trkpt lat="43.02554" lon="2.306255"><ele>551.0</ele><time>2026-04-26T04:02:57.728Z</time></trkpt><trkpt lat="43.0255467" lon="2.3064233"><ele>551.0</ele><time>2026-04-26T04:02:59.729Z</time></trkpt><trkpt lat="43.0255517" lon="2.3065133"><ele>551.0</ele><time>2026-04-26T04:03:00.728Z</time></trkpt><trkpt lat="43.025555" lon="2.3066183"><ele>551.0</ele><time>2026-04-26T04:03:01.729Z</time></trkpt><trkpt lat="43.025555" lon="2.30673"><ele>551.0</ele><time>2026-04-26T04:03:02.729Z</time></trkpt><trkpt lat="43.025555" lon="2.30684"><ele>552.0</ele><time>2026-04-26T04:03:03.729Z</time></trkpt><trkpt lat="43.0255583" lon="2.3069483"><ele>553.0</ele><time>2026-04-26T04:03:04.727Z</time></trkpt><trkpt lat="43.02557" lon="2.307035"><ele>554.0</ele><time>2026-04-26T04:03:05.729Z</time></trkpt><trkpt lat="43.025555" lon="2.30714"><ele>555.0</ele><time>2026-04-26T04:03:06.731Z</time></trkpt><trkpt lat="43.02552" lon="2.3072433"><ele>556.0</ele><time>2026-04-26T04:03:07.729Z</time></trkpt><trkpt lat="43.0254883" lon="2.3073483"><ele>557.0</ele><time>2026-04-26T04:03:08.729Z</time></trkpt><trkpt lat="43.025475" lon="2.3074333"><ele>557.4</ele><time>2026-04-26T04:03:09.728Z</time></trkpt><trkpt lat="43.0254433" lon="2.3075167"><ele>557.8000000000001</ele><time>2026-04-26T04:03:10.728Z</time></trkpt><trkpt lat="43.0254283" lon="2.3076267"><ele>558.2</ele><time>2026-04-26T04:03:12.728Z</time></trkpt><trkpt lat="43.0253833" lon="2.3077417"><ele>558.6</ele><time>2026-04-26T04:03:15.728Z</time></trkpt><trkpt lat="43.0254083" lon="2.3078567"><ele>559.0</ele><time>2026-04-26T04:03:17.728Z</time></trkpt><trkpt lat="43.0254867" lon="2.3079933"><ele>559.3333333333334</ele><time>2026-04-26T04:03:19.729Z</time></trkpt><trkpt lat="43.0255367" lon="2.3080817"><ele>559.6666666666667</ele><time>2026-04-26T04:03:20.729Z</time></trkpt><trkpt lat="43.0255783" lon="2.30818"><ele>560.0</ele><time>2026-04-26T04:03:21.73Z</time></trkpt><trkpt lat="43.0256167" lon="2.3082817"><ele>560.3333333333334</ele><time>2026-04-26T04:03:22.729Z</time></trkpt><trkpt lat="43.0256433" lon="2.3084"><ele>560.6666666666666</ele><time>2026-04-26T04:03:23.728Z</time></trkpt><trkpt lat="43.0256583" lon="2.3085383"><ele>561.0</ele><time>2026-04-26T04:03:24.73Z</time></trkpt><trkpt lat="43.0256733" lon="2.308675"><ele>561.0</ele><time>2026-04-26T04:03:25.727Z</time></trkpt><trkpt lat="43.0256833" lon="2.3088183"><ele>561.0</ele><time>2026-04-26T04:03:26.728Z</time></trkpt><trkpt lat="43.02569" lon="2.3089633"><ele>561.0</ele><time>2026-04-26T04:03:27.732Z</time></trkpt><trkpt lat="43.0257083" lon="2.3091067"><ele>561.0</ele><time>2026-04-26T04:03:28.73Z</time></trkpt><trkpt lat="43.0257283" lon="2.3092383"><ele>561.0</ele><time>2026-04-26T04:03:29.728Z</time></trkpt><trkpt lat="43.0257517" lon="2.3093417"><ele>562.5</ele><time>2026-04-26T04:03:30.728Z</time></trkpt><trkpt lat="43.0257717" lon="2.309435"><ele>564.0</ele><time>2026-04-26T04:03:31.727Z</time></trkpt><trkpt lat="43.0258017" lon="2.309575"><ele>565.5</ele><time>2026-04-26T04:03:33.728Z</time></trkpt><trkpt lat="43.0257933" lon="2.3097183"><ele>567.0</ele><time>2026-04-26T04:03:59.728Z</time></trkpt><trkpt lat="43.025825" lon="2.309795"><ele>568.5</ele><time>2026-04-26T04:04:00.73Z</time></trkpt><trkpt lat="43.0258617" lon="2.3098883"><ele>570.0</ele><time>2026-04-26T04:04:01.729Z</time></trkpt><trkpt lat="43.025885" lon="2.3099817"><ele>567.4285714285714</ele><time>2026-04-26T04:04:02.728Z</time></trkpt><trkpt lat="43.0259067" lon="2.310065"><ele>564.8571428571429</ele><time>2026-04-26T04:04:03.73Z</time></trkpt><trkpt lat="43.0259367" lon="2.3101533"><ele>562.2857142857143</ele><time>2026-04-26T04:04:04.728Z</time></trkpt><trkpt lat="43.025965" lon="2.3102483"><ele>559.7142857142858</ele><time>2026-04-26T04:04:05.73Z</time></trkpt><trkpt lat="43.02599" lon="2.31035"><ele>557.1428571428572</ele><time>2026-04-26T04:04:06.729Z</time></trkpt><trkpt lat="43.0260067" lon="2.31045"><ele>554.5714285714286</ele><time>2026-04-26T04:04:07.733Z</time></trkpt><trkpt lat="43.0260183" lon="2.3105517"><ele>552.0</ele><time>2026-04-26T04:04:08.729Z</time></trkpt><trkpt lat="43.0260283" lon="2.3106533"><ele>552.0</ele><time>2026-04-26T04:04:09.729Z</time></trkpt><trkpt lat="43.026045" lon="2.3107583"><ele>552.0</ele><time>2026-04-26T04:04:10.73Z</time></trkpt><trkpt lat="43.026055" lon="2.3108567"><ele>552.0</ele><time>2026-04-26T04:04:11.728Z</time></trkpt><trkpt lat="43.0260617" lon="2.3109433"><ele>552.0</ele><time>2026-04-26T04:04:12.728Z</time></trkpt><trkpt lat="43.026045" lon="2.3110733"><ele>552.0</ele><time>2026-04-26T04:04:14.728Z</time></trkpt><trkpt lat="43.02595" lon="2.3111667"><ele>552.0</ele><time>2026-04-26T04:04:16.727Z</time></trkpt><trkpt lat="43.0258483" lon="2.3112333"><ele>557.0</ele><time>2026-04-26T04:04:18.729Z</time></trkpt><trkpt lat="43.0257417" lon="2.3113133"><ele>562.0</ele><time>2026-04-26T04:04:20.729Z</time></trkpt><trkpt lat="43.02564" lon="2.3114017"><ele>567.0</ele><time>2026-04-26T04:04:22.729Z</time></trkpt><trkpt lat="43.0255483" lon="2.311495"><ele>572.0</ele><time>2026-04-26T04:04:24.731Z</time></trkpt><trkpt lat="43.0254967" lon="2.3115667"><ele>577.0</ele><time>2026-04-26T04:04:26.729Z</time></trkpt><trkpt lat="43.0254367" lon="2.3116383"><ele>577.0</ele><time>2026-04-26T04:04:28.73Z</time></trkpt><trkpt lat="43.025365" lon="2.31174"><ele>577.0</ele><time>2026-04-26T04:04:30.728Z</time></trkpt><trkpt lat="43.025285" lon="2.3118533"><ele>577.0</ele><time>2026-04-26T04:04:32.73Z</time></trkpt><trkpt lat="43.0252383" lon="2.3119233"><ele>577.0</ele><time>2026-04-26T04:04:33.728Z</time></trkpt><trkpt lat="43.0251917" lon="2.3119933"><ele>577.0</ele><time>2026-04-26T04:04:34.73Z</time></trkpt><trkpt lat="43.0251417" lon="2.3120683"><ele>577.0</ele><time>2026-04-26T04:04:35.73Z</time></trkpt><trkpt lat="43.0250967" lon="2.3121483"><ele>577.0</ele><time>2026-04-26T04:04:36.733Z</time></trkpt><trkpt lat="43.0250417" lon="2.31222"><ele>577.0</ele><time>2026-04-26T04:04:37.728Z</time></trkpt><trkpt lat="43.0249967" lon="2.3123067"><ele>577.0</ele><time>2026-04-26T04:04:38.73Z</time></trkpt><trkpt lat="43.0249483" lon="2.31239"><ele>577.0</ele><time>2026-04-26T04:04:39.729Z</time></trkpt><trkpt lat="43.024905" lon="2.3124633"><ele>577.0</ele><time>2026-04-26T04:04:40.731Z</time></trkpt><trkpt lat="43.0248633" lon="2.3125483"><ele>577.0</ele><time>2026-04-26T04:04:41.728Z</time></trkpt><trkpt lat="43.0248133" lon="2.31263"><ele>579.5</ele><time>2026-04-26T04:04:42.73Z</time></trkpt><trkpt lat="43.02477" lon="2.3127133"><ele>582.0</ele><time>2026-04-26T04:04:43.729Z</time></trkpt><trkpt lat="43.0247283" lon="2.3127983"><ele>584.5</ele><time>2026-04-26T04:04:44.729Z</time></trkpt><trkpt lat="43.02469" lon="2.3128767"><ele>587.0</ele><time>2026-04-26T04:04:45.731Z</time></trkpt><trkpt lat="43.0246083" lon="2.31299"><ele>589.5</ele><time>2026-04-26T04:04:47.728Z</time></trkpt><trkpt lat="43.0245317" lon="2.31309"><ele>592.0</ele><time>2026-04-26T04:04:49.73Z</time></trkpt><trkpt lat="43.02446" lon="2.3132033"><ele>592.0</ele><time>2026-04-26T04:04:51.73Z</time></trkpt><trkpt lat="43.024395" lon="2.3132833"><ele>592.0</ele><time>2026-04-26T04:04:53.73Z</time></trkpt><trkpt lat="43.0243567" lon="2.31337"><ele>592.0</ele><time>2026-04-26T04:04:56.73Z</time></trkpt><trkpt lat="43.0243967" lon="2.3134583"><ele>592.0</ele><time>2026-04-26T04:04:58.729Z</time></trkpt><trkpt lat="43.0244717" lon="2.3135783"><ele>592.0</ele><time>2026-04-26T04:05:00.728Z</time></trkpt><trkpt lat="43.0245183" lon="2.313645"><ele>592.0</ele><time>2026-04-26T04:05:01.73Z</time></trkpt><trkpt lat="43.0245783" lon="2.31371"><ele>592.0</ele><time>2026-04-26T04:05:02.73Z</time></trkpt><trkpt lat="43.02465" lon="2.3137567"><ele>592.0</ele><time>2026-04-26T04:05:03.73Z</time></trkpt><trkpt lat="43.0247367" lon="2.3137783"><ele>592.0</ele><time>2026-04-26T04:05:04.729Z</time></trkpt><trkpt lat="43.0248333" lon="2.3137933"><ele>592.0</ele><time>2026-04-26T04:05:05.729Z</time></trkpt><trkpt lat="43.02492" lon="2.3138117"><ele>592.0</ele><time>2026-04-26T04:05:06.73Z</time></trkpt><trkpt lat="43.0250017" lon="2.3138133"><ele>592.0</ele><time>2026-04-26T04:05:07.729Z</time></trkpt><trkpt lat="43.0250817" lon="2.3138117"><ele>586.7142857142858</ele><time>2026-04-26T04:05:08.731Z</time></trkpt><trkpt lat="43.0251583" lon="2.31381"><ele>581.4285714285714</ele><time>2026-04-26T04:05:09.728Z</time></trkpt><trkpt lat="43.0252333" lon="2.313815"><ele>576.1428571428571</ele><time>2026-04-26T04:05:10.729Z</time></trkpt><trkpt lat="43.0253067" lon="2.31382"><ele>570.8571428571429</ele><time>2026-04-26T04:05:11.73Z</time></trkpt><trkpt lat="43.0253783" lon="2.31383"><ele>565.5714285714286</ele><time>2026-04-26T04:05:12.73Z</time></trkpt><trkpt lat="43.02545" lon="2.31385"><ele>560.2857142857143</ele><time>2026-04-26T04:05:13.73Z</time></trkpt><trkpt lat="43.0255233" lon="2.3138733"><ele>555.0</ele><time>2026-04-26T04:05:14.73Z</time></trkpt><trkpt lat="43.0255917" lon="2.3139017"><ele>554.5714285714287</ele><time>2026-04-26T04:05:15.729Z</time></trkpt><trkpt lat="43.0256567" lon="2.31393"><ele>554.1428571428571</ele><time>2026-04-26T04:05:16.73Z</time></trkpt><trkpt lat="43.0257167" lon="2.3139567"><ele>553.7142857142858</ele><time>2026-04-26T04:05:17.73Z</time></trkpt><trkpt lat="43.02578" lon="2.3139817"><ele>553.2857142857143</ele><time>2026-04-26T04:05:18.731Z</time></trkpt><trkpt lat="43.0258433" lon="2.3140117"><ele>552.8571428571429</ele><time>2026-04-26T04:05:19.73Z</time></trkpt><trkpt lat="43.0259117" lon="2.314045"><ele>552.4285714285714</ele><time>2026-04-26T04:05:20.732Z</time></trkpt><trkpt lat="43.0259683" lon="2.3141133"><ele>552.0</ele><time>2026-04-26T04:05:22.731Z</time></trkpt><trkpt lat="43.0259083" lon="2.3142217"><ele>552.0</ele><time>2026-04-26T04:05:29.73Z</time></trkpt><trkpt lat="43.0258467" lon="2.3142467"><ele>552.0</ele><time>2026-04-26T04:05:31.729Z</time></trkpt><trkpt lat="43.02577" lon="2.3142983"><ele>552.0</ele><time>2026-04-26T04:05:33.73Z</time></trkpt><trkpt lat="43.0256933" lon="2.31433"><ele>552.0</ele><time>2026-04-26T04:05:35.73Z</time></trkpt><trkpt lat="43.025585" lon="2.3143467"><ele>552.0</ele><time>2026-04-26T04:05:37.73Z</time></trkpt><trkpt lat="43.0254617" lon="2.3143917"><ele>556.2</ele><time>2026-04-26T04:05:39.731Z</time></trkpt><trkpt lat="43.0253567" lon="2.3144533"><ele>560.4000000000001</ele><time>2026-04-26T04:05:41.729Z</time></trkpt><trkpt lat="43.0252633" lon="2.3144767"><ele>564.5999999999999</ele><time>2026-04-26T04:05:43.729Z</time></trkpt><trkpt lat="43.0251783" lon="2.3145233"><ele>568.8</ele><time>2026-04-26T04:05:45.729Z</time></trkpt><trkpt lat="43.0251217" lon="2.314585"><ele>573.0</ele><time>2026-04-26T04:05:47.73Z</time></trkpt><trkpt lat="43.0251067" lon="2.3144817"><ele>573.0</ele><time>2026-04-26T04:05:52.729Z</time></trkpt><trkpt lat="43.0251433" lon="2.3143733"><ele>573.0</ele><time>2026-04-26T04:05:54.73Z</time></trkpt><trkpt lat="43.0251433" lon="2.3142783"><ele>573.0</ele><time>2026-04-26T04:05:56.73Z</time></trkpt><trkpt lat="43.0250883" lon="2.31422"><ele>573.0</ele><time>2026-04-26T04:05:58.731Z</time></trkpt><trkpt lat="43.0250117" lon="2.3142333"><ele>573.0</ele><time>2026-04-26T04:06:00.731Z</time></trkpt><trkpt lat="43.0249383" lon="2.314265"><ele>573.0</ele><time>2026-04-26T04:06:02.73Z</time></trkpt><trkpt lat="43.02486" lon="2.3142783"><ele>578.4</ele><time>2026-04-26T04:06:04.729Z</time></trkpt><trkpt lat="43.0247617" lon="2.3142633"><ele>583.8</ele><time>2026-04-26T04:06:06.733Z</time></trkpt><trkpt lat="43.0246467" lon="2.3142567"><ele>589.2</ele><time>2026-04-26T04:06:08.73Z</time></trkpt><trkpt lat="43.0245483" lon="2.3142733"><ele>594.6</ele><time>2026-04-26T04:06:10.73Z</time></trkpt><trkpt lat="43.0244567" lon="2.3142533"><ele>600.0</ele><time>2026-04-26T04:06:12.73Z</time></trkpt><trkpt lat="43.0243767" lon="2.3142483"><ele>600.0</ele><time>2026-04-26T04:06:14.73Z</time></trkpt><trkpt lat="43.02435" lon="2.3143417"><ele>600.0</ele><time>2026-04-26T04:06:17.729Z</time></trkpt><trkpt lat="43.024405" lon="2.314395"><ele>600.0</ele><time>2026-04-26T04:06:19.728Z</time></trkpt><trkpt lat="43.0244633" lon="2.31449"><ele>600.0</ele><time>2026-04-26T04:06:21.728Z</time></trkpt><trkpt lat="43.02447" lon="2.3146233"><ele>600.0</ele><time>2026-04-26T04:06:23.728Z</time></trkpt><trkpt lat="43.0244417" lon="2.3147517"><ele>600.0</ele><time>2026-04-26T04:06:25.73Z</time></trkpt><trkpt lat="43.0243933" lon="2.314825"><ele>600.0</ele><time>2026-04-26T04:06:27.729Z</time></trkpt><trkpt lat="43.0243117" lon="2.314805"><ele>600.0</ele><time>2026-04-26T04:06:30.731Z</time></trkpt><trkpt lat="43.0242867" lon="2.3147017"><ele>600.0</ele><time>2026-04-26T04:06:32.731Z</time></trkpt><trkpt lat="43.0242083" lon="2.314585"><ele>600.0</ele><time>2026-04-26T04:06:34.729Z</time></trkpt><trkpt lat="43.0241517" lon="2.3145333"><ele>600.0</ele><time>2026-04-26T04:06:35.731Z</time></trkpt><trkpt lat="43.0240517" lon="2.314445"><ele>607.6</ele><time>2026-04-26T04:06:37.729Z</time></trkpt><trkpt lat="43.0239567" lon="2.3143617"><ele>615.2</ele><time>2026-04-26T04:06:39.731Z</time></trkpt><trkpt lat="43.02386" lon="2.3142867"><ele>622.8</ele><time>2026-04-26T04:06:41.731Z</time></trkpt><trkpt lat="43.02378" lon="2.3141917"><ele>630.4</ele><time>2026-04-26T04:06:43.729Z</time></trkpt><trkpt lat="43.0237117" lon="2.31406"><ele>638.0</ele><time>2026-04-26T04:06:45.729Z</time></trkpt><trkpt lat="43.0236467" lon="2.3139717"><ele>638.0</ele><time>2026-04-26T04:06:47.731Z</time></trkpt><trkpt lat="43.02359" lon="2.3139133"><ele>638.0</ele><time>2026-04-26T04:06:50.73Z</time></trkpt><trkpt lat="43.023595" lon="2.314035"><ele>638.0</ele><time>2026-04-26T04:06:55.729Z</time></trkpt><trkpt lat="43.0236283" lon="2.3141783"><ele>638.0</ele><time>2026-04-26T04:06:57.73Z</time></trkpt><trkpt lat="43.023645" lon="2.3143167"><ele>638.0</ele><time>2026-04-26T04:06:59.73Z</time></trkpt><trkpt lat="43.0236583" lon="2.3144583"><ele>638.0</ele><time>2026-04-26T04:07:01.73Z</time></trkpt><trkpt lat="43.0236767" lon="2.3146183"><ele>638.0</ele><time>2026-04-26T04:07:03.729Z</time></trkpt><trkpt lat="43.0236833" lon="2.314715"><ele>638.0</ele><time>2026-04-26T04:07:04.729Z</time></trkpt><trkpt lat="43.0236817" lon="2.3148167"><ele>638.0</ele><time>2026-04-26T04:07:05.729Z</time></trkpt><trkpt lat="43.02367" lon="2.3149233"><ele>638.0</ele><time>2026-04-26T04:07:06.729Z</time></trkpt><trkpt lat="43.0236517" lon="2.3150267"><ele>638.0</ele><time>2026-04-26T04:07:07.73Z</time></trkpt><trkpt lat="43.0236233" lon="2.3151317"><ele>639.1666666666666</ele><time>2026-04-26T04:07:08.731Z</time></trkpt><trkpt lat="43.0235767" lon="2.31523"><ele>640.3333333333333</ele><time>2026-04-26T04:07:09.731Z</time></trkpt><trkpt lat="43.0235283" lon="2.315325"><ele>641.5</ele><time>2026-04-26T04:07:10.729Z</time></trkpt><trkpt lat="43.0234917" lon="2.3154133"><ele>642.6666666666666</ele><time>2026-04-26T04:07:11.731Z</time></trkpt><trkpt lat="43.0234133" lon="2.3155017"><ele>643.8333333333334</ele><time>2026-04-26T04:07:13.728Z</time></trkpt><trkpt lat="43.0233317" lon="2.3154867"><ele>645.0</ele><time>2026-04-26T04:07:15.729Z</time></trkpt><trkpt lat="43.0232967" lon="2.3154083"><ele>651.0</ele><time>2026-04-26T04:07:16.729Z</time></trkpt><trkpt lat="43.0232617" lon="2.3152667"><ele>657.0</ele><time>2026-04-26T04:07:18.728Z</time></trkpt><trkpt lat="43.02319" lon="2.3151233"><ele>663.0</ele><time>2026-04-26T04:07:20.728Z</time></trkpt><trkpt lat="43.0231317" lon="2.315055"><ele>669.0</ele><time>2026-04-26T04:07:21.727Z</time></trkpt><trkpt lat="43.02305" lon="2.314925"><ele>675.0</ele><time>2026-04-26T04:07:23.727Z</time></trkpt><trkpt lat="43.0230167" lon="2.314845"><ele>675.0</ele><time>2026-04-26T04:07:24.73Z</time></trkpt><trkpt lat="43.02297" lon="2.31476"><ele>675.0</ele><time>2026-04-26T04:07:25.729Z</time></trkpt><trkpt lat="43.0229117" lon="2.3146817"><ele>675.0</ele><time>2026-04-26T04:07:26.73Z</time></trkpt><trkpt lat="43.0228383" lon="2.3146083"><ele>675.0</ele><time>2026-04-26T04:07:27.731Z</time></trkpt><trkpt lat="43.0227567" lon="2.31456"><ele>675.0</ele><time>2026-04-26T04:07:28.73Z</time></trkpt><trkpt lat="43.0226633" lon="2.31452"><ele>675.0</ele><time>2026-04-26T04:07:29.729Z</time></trkpt><trkpt lat="43.0225633" lon="2.3144733"><ele>679.2</ele><time>2026-04-26T04:07:30.731Z</time></trkpt><trkpt lat="43.0224567" lon="2.3144433"><ele>683.4</ele><time>2026-04-26T04:07:31.73Z</time></trkpt><trkpt lat="43.0223483" lon="2.314415"><ele>687.5999999999999</ele><time>2026-04-26T04:07:32.73Z</time></trkpt><trkpt lat="43.0222433" lon="2.3143917"><ele>691.8</ele><time>2026-04-26T04:07:33.73Z</time></trkpt><trkpt lat="43.0221467" lon="2.3143683"><ele>696.0</ele><time>2026-04-26T04:07:34.729Z</time></trkpt><trkpt lat="43.0220483" lon="2.3143383"><ele>696.0</ele><time>2026-04-26T04:07:35.732Z</time></trkpt><trkpt lat="43.0219567" lon="2.3143067"><ele>696.0</ele><time>2026-04-26T04:07:36.729Z</time></trkpt><trkpt lat="43.0218683" lon="2.3142933"><ele>696.0</ele><time>2026-04-26T04:07:37.73Z</time></trkpt><trkpt lat="43.0217833" lon="2.3142867"><ele>696.0</ele><time>2026-04-26T04:07:38.729Z</time></trkpt><trkpt lat="43.0217083" lon="2.3142817"><ele>696.0</ele><time>2026-04-26T04:07:39.729Z</time></trkpt><trkpt lat="43.02164" lon="2.3143"><ele>696.0</ele><time>2026-04-26T04:07:40.729Z</time></trkpt><trkpt lat="43.0215617" lon="2.3143233"><ele>698.8</ele><time>2026-04-26T04:07:41.73Z</time></trkpt><trkpt lat="43.0215133" lon="2.31446"><ele>701.5999999999999</ele><time>2026-04-26T04:07:43.73Z</time></trkpt><trkpt lat="43.0215867" lon="2.3145483"><ele>704.4</ele><time>2026-04-26T04:07:44.731Z</time></trkpt><trkpt lat="43.0216417" lon="2.314645"><ele>707.2</ele><time>2026-04-26T04:07:45.729Z</time></trkpt><trkpt lat="43.0217" lon="2.31474"><ele>710.0</ele><time>2026-04-26T04:07:46.73Z</time></trkpt><trkpt lat="43.0217583" lon="2.31486"><ele>710.0</ele><time>2026-04-26T04:07:47.728Z</time></trkpt><trkpt lat="43.0218017" lon="2.31498"><ele>710.0</ele><time>2026-04-26T04:07:48.731Z</time></trkpt><trkpt lat="43.0218317" lon="2.315105"><ele>710.0</ele><time>2026-04-26T04:07:49.729Z</time></trkpt><trkpt lat="43.0218383" lon="2.31523"><ele>710.0</ele><time>2026-04-26T04:07:50.729Z</time></trkpt><trkpt lat="43.0218267" lon="2.31536"><ele>710.0</ele><time>2026-04-26T04:07:51.73Z</time></trkpt><trkpt lat="43.0218067" lon="2.3154933"><ele>711.0</ele><time>2026-04-26T04:07:52.73Z</time></trkpt><trkpt lat="43.021785" lon="2.31563"><ele>712.0</ele><time>2026-04-26T04:07:53.728Z</time></trkpt><trkpt lat="43.0217683" lon="2.3157533"><ele>713.0</ele><time>2026-04-26T04:07:54.728Z</time></trkpt><trkpt lat="43.0217467" lon="2.31587"><ele>714.0</ele><time>2026-04-26T04:07:55.728Z</time></trkpt><trkpt lat="43.02171" lon="2.315985"><ele>715.0</ele><time>2026-04-26T04:07:56.73Z</time></trkpt><trkpt lat="43.0216767" lon="2.3161017"><ele>718.5</ele><time>2026-04-26T04:07:57.732Z</time></trkpt><trkpt lat="43.0216417" lon="2.31622"><ele>722.0</ele><time>2026-04-26T04:07:58.729Z</time></trkpt><trkpt lat="43.0216067" lon="2.3163267"><ele>725.5</ele><time>2026-04-26T04:07:59.73Z</time></trkpt><trkpt lat="43.0215733" lon="2.3164317"><ele>729.0</ele><time>2026-04-26T04:08:00.73Z</time></trkpt><trkpt lat="43.0215367" lon="2.3165383"><ele>732.5</ele><time>2026-04-26T04:08:01.729Z</time></trkpt><trkpt lat="43.0215" lon="2.316635"><ele>736.0</ele><time>2026-04-26T04:08:02.732Z</time></trkpt><trkpt lat="43.02147" lon="2.3167317"><ele>736.8333333333334</ele><time>2026-04-26T04:08:03.731Z</time></trkpt><trkpt lat="43.021435" lon="2.31684"><ele>737.6666666666667</ele><time>2026-04-26T04:08:04.729Z</time></trkpt><trkpt lat="43.0214067" lon="2.3169517"><ele>738.5</ele><time>2026-04-26T04:08:05.733Z</time></trkpt><trkpt lat="43.0213733" lon="2.3170617"><ele>739.3333333333334</ele><time>2026-04-26T04:08:06.732Z</time></trkpt><trkpt lat="43.0213383" lon="2.3171783"><ele>740.1666666666666</ele><time>2026-04-26T04:08:07.728Z</time></trkpt><trkpt lat="43.02131" lon="2.3173"><ele>741.0</ele><time>2026-04-26T04:08:08.729Z</time></trkpt><trkpt lat="43.02127" lon="2.31741"><ele>741.8</ele><time>2026-04-26T04:08:09.728Z</time></trkpt><trkpt lat="43.0212417" lon="2.31753"><ele>742.5999999999999</ele><time>2026-04-26T04:08:10.729Z</time></trkpt><trkpt lat="43.0212033" lon="2.31765"><ele>743.4</ele><time>2026-04-26T04:08:11.727Z</time></trkpt><trkpt lat="43.0211583" lon="2.3177717"><ele>744.2</ele><time>2026-04-26T04:08:12.73Z</time></trkpt><trkpt lat="43.021125" lon="2.31789"><ele>745.0</ele><time>2026-04-26T04:08:13.729Z</time></trkpt><trkpt lat="43.0210867" lon="2.3180067"><ele>744.6</ele><time>2026-04-26T04:08:14.728Z</time></trkpt><trkpt lat="43.0210467" lon="2.3181233"><ele>744.2</ele><time>2026-04-26T04:08:15.729Z</time></trkpt><trkpt lat="43.0210033" lon="2.3182383"><ele>743.8</ele><time>2026-04-26T04:08:16.729Z</time></trkpt><trkpt lat="43.0209533" lon="2.31836"><ele>743.4</ele><time>2026-04-26T04:08:17.728Z</time></trkpt><trkpt lat="43.020905" lon="2.3184883"><ele>743.0</ele><time>2026-04-26T04:08:18.728Z</time></trkpt><trkpt lat="43.0208517" lon="2.3186083"><ele>744.6666666666666</ele><time>2026-04-26T04:08:19.729Z</time></trkpt><trkpt lat="43.0208083" lon="2.318715"><ele>746.3333333333333</ele><time>2026-04-26T04:08:20.73Z</time></trkpt><trkpt lat="43.0207717" lon="2.31881"><ele>748.0</ele><time>2026-04-26T04:08:21.728Z</time></trkpt><trkpt lat="43.0207367" lon="2.3189033"><ele>749.6666666666666</ele><time>2026-04-26T04:08:22.729Z</time></trkpt><trkpt lat="43.0207033" lon="2.3189967"><ele>751.3333333333334</ele><time>2026-04-26T04:08:23.727Z</time></trkpt><trkpt lat="43.020665" lon="2.3190933"><ele>753.0</ele><time>2026-04-26T04:08:24.729Z</time></trkpt><trkpt lat="43.0206233" lon="2.3192"><ele>753.1666666666666</ele><time>2026-04-26T04:08:25.727Z</time></trkpt><trkpt lat="43.0205817" lon="2.3192983"><ele>753.3333333333334</ele><time>2026-04-26T04:08:26.729Z</time></trkpt><trkpt lat="43.0205367" lon="2.3193917"><ele>753.5</ele><time>2026-04-26T04:08:27.73Z</time></trkpt><trkpt lat="43.0204833" lon="2.3194717"><ele>753.6666666666667</ele><time>2026-04-26T04:08:28.728Z</time></trkpt><trkpt lat="43.020425" lon="2.3195417"><ele>753.8333333333334</ele><time>2026-04-26T04:08:29.729Z</time></trkpt><trkpt lat="43.020355" lon="2.3196133"><ele>754.0</ele><time>2026-04-26T04:08:30.731Z</time></trkpt><trkpt lat="43.0202833" lon="2.3196783"><ele>754.0</ele><time>2026-04-26T04:08:31.732Z</time></trkpt><trkpt lat="43.020225" lon="2.3197317"><ele>754.0</ele><time>2026-04-26T04:08:32.73Z</time></trkpt><trkpt lat="43.0201717" lon="2.3197867"><ele>754.0</ele><time>2026-04-26T04:08:33.729Z</time></trkpt><trkpt lat="43.0200883" lon="2.3198583"><ele>754.0</ele><time>2026-04-26T04:08:35.73Z</time></trkpt><trkpt lat="43.019985" lon="2.31992"><ele>754.0</ele><time>2026-04-26T04:09:03.738Z</time></trkpt><trkpt lat="43.0198567" lon="2.31998"><ele>752.8000000000001</ele><time>2026-04-26T04:09:05.729Z</time></trkpt><trkpt lat="43.0197783" lon="2.32002"><ele>751.6</ele><time>2026-04-26T04:09:06.729Z</time></trkpt><trkpt lat="43.01969" lon="2.3200683"><ele>750.4</ele><time>2026-04-26T04:09:07.73Z</time></trkpt><trkpt lat="43.0195967" lon="2.3201217"><ele>749.2</ele><time>2026-04-26T04:09:08.729Z</time></trkpt><trkpt lat="43.0195" lon="2.3201767"><ele>748.0</ele><time>2026-04-26T04:09:09.73Z</time></trkpt><trkpt lat="43.0194017" lon="2.320235"><ele>748.0</ele><time>2026-04-26T04:09:10.728Z</time></trkpt><trkpt lat="43.0193033" lon="2.3202967"><ele>748.0</ele><time>2026-04-26T04:09:11.74Z</time></trkpt><trkpt lat="43.0192067" lon="2.3203617"><ele>748.0</ele><time>2026-04-26T04:09:12.73Z</time></trkpt><trkpt lat="43.0191133" lon="2.320435"><ele>748.0</ele><time>2026-04-26T04:09:13.728Z</time></trkpt><trkpt lat="43.0190217" lon="2.3205183"><ele>748.0</ele><time>2026-04-26T04:09:14.73Z</time></trkpt><trkpt lat="43.0189217" lon="2.3206067"><ele>746.5</ele><time>2026-04-26T04:09:15.728Z</time></trkpt><trkpt lat="43.01881" lon="2.320695"><ele>745.0</ele><time>2026-04-26T04:09:16.728Z</time></trkpt><trkpt lat="43.0187033" lon="2.3207833"><ele>743.5</ele><time>2026-04-26T04:09:17.728Z</time></trkpt><trkpt lat="43.018595" lon="2.32086"><ele>742.0</ele><time>2026-04-26T04:09:18.732Z</time></trkpt><trkpt lat="43.0184833" lon="2.3209283"><ele>742.0</ele><time>2026-04-26T04:09:19.73Z</time></trkpt><trkpt lat="43.018365" lon="2.32099"><ele>742.0</ele><time>2026-04-26T04:09:20.73Z</time></trkpt><trkpt lat="43.0182533" lon="2.32104"><ele>742.0</ele><time>2026-04-26T04:09:21.728Z</time></trkpt><trkpt lat="43.018145" lon="2.3210767"><ele>742.0</ele><time>2026-04-26T04:09:22.729Z</time></trkpt><trkpt lat="43.01804" lon="2.3211083"><ele>740.2</ele><time>2026-04-26T04:09:23.728Z</time></trkpt><trkpt lat="43.0179417" lon="2.32113"><ele>738.4000000000001</ele><time>2026-04-26T04:09:24.728Z</time></trkpt><trkpt lat="43.01784" lon="2.32116"><ele>736.5999999999999</ele><time>2026-04-26T04:09:25.734Z</time></trkpt><trkpt lat="43.0177317" lon="2.3212"><ele>734.8</ele><time>2026-04-26T04:09:26.729Z</time></trkpt><trkpt lat="43.0176233" lon="2.3212367"><ele>733.0</ele><time>2026-04-26T04:09:27.729Z</time></trkpt><trkpt lat="43.01751" lon="2.321285"><ele>731.8</ele><time>2026-04-26T04:09:28.73Z</time></trkpt><trkpt lat="43.017405" lon="2.32134"><ele>730.5999999999999</ele><time>2026-04-26T04:09:29.729Z</time></trkpt><trkpt lat="43.017315" lon="2.3214167"><ele>729.4000000000001</ele><time>2026-04-26T04:09:30.729Z</time></trkpt><trkpt lat="43.0172383" lon="2.32152"><ele>728.2</ele><time>2026-04-26T04:09:31.734Z</time></trkpt><trkpt lat="43.01718" lon="2.3216517"><ele>727.0</ele><time>2026-04-26T04:09:32.73Z</time></trkpt><trkpt lat="43.0171367" lon="2.3217917"><ele>727.0</ele><time>2026-04-26T04:09:33.729Z</time></trkpt><trkpt lat="43.0171133" lon="2.3219417"><ele>727.0</ele><time>2026-04-26T04:09:34.729Z</time></trkpt><trkpt lat="43.0171167" lon="2.3221"><ele>727.0</ele><time>2026-04-26T04:09:35.728Z</time></trkpt><trkpt lat="43.0171367" lon="2.3222467"><ele>727.0</ele><time>2026-04-26T04:09:36.731Z</time></trkpt><trkpt lat="43.0171767" lon="2.322365"><ele>727.0</ele><time>2026-04-26T04:09:37.728Z</time></trkpt><trkpt lat="43.017235" lon="2.32247"><ele>728.75</ele><time>2026-04-26T04:09:38.73Z</time></trkpt><trkpt lat="43.0173083" lon="2.3225683"><ele>730.5</ele><time>2026-04-26T04:09:39.728Z</time></trkpt><trkpt lat="43.0173983" lon="2.3226717"><ele>732.25</ele><time>2026-04-26T04:09:40.728Z</time></trkpt><trkpt lat="43.0174917" lon="2.3227867"><ele>734.0</ele><time>2026-04-26T04:09:41.73Z</time></trkpt><trkpt lat="43.0175767" lon="2.3229133"><ele>734.0</ele><time>2026-04-26T04:09:42.729Z</time></trkpt><trkpt lat="43.0176583" lon="2.3230383"><ele>734.0</ele><time>2026-04-26T04:09:43.73Z</time></trkpt><trkpt lat="43.01774" lon="2.323155"><ele>734.0</ele><time>2026-04-26T04:09:44.728Z</time></trkpt><trkpt lat="43.0178133" lon="2.3232617"><ele>734.0</ele><time>2026-04-26T04:09:45.728Z</time></trkpt><trkpt lat="43.0178617" lon="2.3233767"><ele>734.0</ele><time>2026-04-26T04:09:46.73Z</time></trkpt><trkpt lat="43.017885" lon="2.323505"><ele>735.25</ele><time>2026-04-26T04:09:47.729Z</time></trkpt><trkpt lat="43.0178933" lon="2.3236517"><ele>736.5</ele><time>2026-04-26T04:09:48.729Z</time></trkpt><trkpt lat="43.0178917" lon="2.3238083"><ele>737.75</ele><time>2026-04-26T04:09:49.728Z</time></trkpt><trkpt lat="43.0178817" lon="2.32397"><ele>739.0</ele><time>2026-04-26T04:09:50.729Z</time></trkpt><trkpt lat="43.0178767" lon="2.32413"><ele>740.6</ele><time>2026-04-26T04:09:51.728Z</time></trkpt><trkpt lat="43.017895" lon="2.3242817"><ele>742.2</ele><time>2026-04-26T04:09:52.728Z</time></trkpt><trkpt lat="43.0179233" lon="2.32442"><ele>743.8000000000001</ele><time>2026-04-26T04:09:53.73Z</time></trkpt><trkpt lat="43.0179717" lon="2.3245517"><ele>745.4000000000001</ele><time>2026-04-26T04:09:54.729Z</time></trkpt><trkpt lat="43.018045" lon="2.324665"><ele>747.0</ele><time>2026-04-26T04:09:55.729Z</time></trkpt><trkpt lat="43.018115" lon="2.3247667"><ele>747.5</ele><time>2026-04-26T04:09:56.728Z</time></trkpt><trkpt lat="43.0181683" lon="2.3248683"><ele>748.0</ele><time>2026-04-26T04:09:57.729Z</time></trkpt><trkpt lat="43.0182" lon="2.3249817"><ele>748.5</ele><time>2026-04-26T04:09:58.728Z</time></trkpt><trkpt lat="43.0182067" lon="2.3251"><ele>749.0</ele><time>2026-04-26T04:09:59.729Z</time></trkpt><trkpt lat="43.0181867" lon="2.32521"><ele>749.5</ele><time>2026-04-26T04:10:00.73Z</time></trkpt><trkpt lat="43.018135" lon="2.3253133"><ele>750.0</ele><time>2026-04-26T04:10:01.729Z</time></trkpt><trkpt lat="43.0180683" lon="2.3254067"><ele>750.0</ele><time>2026-04-26T04:10:02.73Z</time></trkpt><trkpt lat="43.0179933" lon="2.3254933"><ele>750.0</ele><time>2026-04-26T04:10:03.729Z</time></trkpt><trkpt lat="43.0179133" lon="2.3255733"><ele>750.0</ele><time>2026-04-26T04:10:04.73Z</time></trkpt><trkpt lat="43.0178283" lon="2.325645"><ele>750.0</ele><time>2026-04-26T04:10:05.729Z</time></trkpt><trkpt lat="43.017735" lon="2.3257067"><ele>750.0</ele><time>2026-04-26T04:10:06.729Z</time></trkpt><trkpt lat="43.0176367" lon="2.3257667"><ele>751.0</ele><time>2026-04-26T04:10:07.731Z</time></trkpt><trkpt lat="43.0175383" lon="2.3258233"><ele>752.0</ele><time>2026-04-26T04:10:08.729Z</time></trkpt><trkpt lat="43.0174383" lon="2.3258717"><ele>753.0</ele><time>2026-04-26T04:10:09.73Z</time></trkpt><trkpt lat="43.017335" lon="2.325915"><ele>754.0</ele><time>2026-04-26T04:10:10.728Z</time></trkpt><trkpt lat="43.01723" lon="2.325945"><ele>755.0</ele><time>2026-04-26T04:10:11.729Z</time></trkpt><trkpt lat="43.0171317" lon="2.32595"><ele>757.4</ele><time>2026-04-26T04:10:12.73Z</time></trkpt><trkpt lat="43.0170267" lon="2.3259367"><ele>759.8</ele><time>2026-04-26T04:10:13.729Z</time></trkpt><trkpt lat="43.0169183" lon="2.3259017"><ele>762.2</ele><time>2026-04-26T04:10:14.729Z</time></trkpt><trkpt lat="43.01681" lon="2.3258717"><ele>764.6</ele><time>2026-04-26T04:10:15.729Z</time></trkpt><trkpt lat="43.0167067" lon="2.3258467"><ele>767.0</ele><time>2026-04-26T04:10:16.727Z</time></trkpt><trkpt lat="43.0166033" lon="2.3258267"><ele>770.2</ele><time>2026-04-26T04:10:17.729Z</time></trkpt><trkpt lat="43.0164967" lon="2.32581"><ele>773.4000000000001</ele><time>2026-04-26T04:10:18.733Z</time></trkpt><trkpt lat="43.0163867" lon="2.3258017"><ele>776.5999999999999</ele><time>2026-04-26T04:10:19.729Z</time></trkpt><trkpt lat="43.0162733" lon="2.3257967"><ele>779.8</ele><time>2026-04-26T04:10:20.728Z</time></trkpt><trkpt lat="43.016165" lon="2.3257983"><ele>783.0</ele><time>2026-04-26T04:10:21.729Z</time></trkpt><trkpt lat="43.0160717" lon="2.325795"><ele>783.0</ele><time>2026-04-26T04:10:22.73Z</time></trkpt><trkpt lat="43.0159867" lon="2.32578"><ele>783.0</ele><time>2026-04-26T04:10:23.73Z</time></trkpt><trkpt lat="43.0159083" lon="2.3257467"><ele>783.0</ele><time>2026-04-26T04:10:24.728Z</time></trkpt><trkpt lat="43.0158333" lon="2.3256967"><ele>783.0</ele><time>2026-04-26T04:10:25.728Z</time></trkpt><trkpt lat="43.0157767" lon="2.3256083"><ele>783.0</ele><time>2026-04-26T04:10:26.729Z</time></trkpt><trkpt lat="43.0157333" lon="2.3254933"><ele>783.0</ele><time>2026-04-26T04:10:27.729Z</time></trkpt><trkpt lat="43.0157033" lon="2.3253533"><ele>784.5999999999999</ele><time>2026-04-26T04:10:28.728Z</time></trkpt><trkpt lat="43.0156767" lon="2.32522"><ele>786.1999999999999</ele><time>2026-04-26T04:10:29.729Z</time></trkpt><trkpt lat="43.0156433" lon="2.3250933"><ele>787.8</ele><time>2026-04-26T04:10:30.729Z</time></trkpt><trkpt lat="43.0155933" lon="2.3249867"><ele>789.4</ele><time>2026-04-26T04:10:31.728Z</time></trkpt><trkpt lat="43.0155283" lon="2.3249017"><ele>791.0</ele><time>2026-04-26T04:10:32.73Z</time></trkpt><trkpt lat="43.0154483" lon="2.32484"><ele>791.0</ele><time>2026-04-26T04:10:33.732Z</time></trkpt><trkpt lat="43.0153567" lon="2.3247917"><ele>791.0</ele><time>2026-04-26T04:10:34.728Z</time></trkpt><trkpt lat="43.015255" lon="2.32475"><ele>791.0</ele><time>2026-04-26T04:10:35.73Z</time></trkpt><trkpt lat="43.015155" lon="2.3247"><ele>791.0</ele><time>2026-04-26T04:10:36.729Z</time></trkpt><trkpt lat="43.0150567" lon="2.32464"><ele>791.0</ele><time>2026-04-26T04:10:37.728Z</time></trkpt><trkpt lat="43.0149583" lon="2.3245783"><ele>791.8</ele><time>2026-04-26T04:10:38.732Z</time></trkpt><trkpt lat="43.0148583" lon="2.32452"><ele>792.5999999999999</ele><time>2026-04-26T04:10:39.729Z</time></trkpt><trkpt lat="43.0147583" lon="2.3244683"><ele>793.4</ele><time>2026-04-26T04:10:40.728Z</time></trkpt><trkpt lat="43.0146567" lon="2.3244233"><ele>794.2</ele><time>2026-04-26T04:10:41.729Z</time></trkpt><trkpt lat="43.0145517" lon="2.324385"><ele>795.0</ele><time>2026-04-26T04:10:42.731Z</time></trkpt><trkpt lat="43.014445" lon="2.32435"><ele>795.0</ele><time>2026-04-26T04:10:43.73Z</time></trkpt><trkpt lat="43.0143383" lon="2.3243183"><ele>795.0</ele><time>2026-04-26T04:10:44.73Z</time></trkpt><trkpt lat="43.0142317" lon="2.3242933"><ele>795.0</ele><time>2026-04-26T04:10:45.729Z</time></trkpt><trkpt lat="43.0141333" lon="2.324285"><ele>795.0</ele><time>2026-04-26T04:10:46.728Z</time></trkpt><trkpt lat="43.0140383" lon="2.3243017"><ele>795.0</ele><time>2026-04-26T04:10:47.729Z</time></trkpt><trkpt lat="43.01395" lon="2.3243483"><ele>795.0</ele><time>2026-04-26T04:10:48.73Z</time></trkpt><trkpt lat="43.0138717" lon="2.3244217"><ele>795.0</ele><time>2026-04-26T04:10:49.728Z</time></trkpt><trkpt lat="43.0137983" lon="2.32451"><ele>795.0</ele><time>2026-04-26T04:10:50.729Z</time></trkpt><trkpt lat="43.0137283" lon="2.3246017"><ele>795.0</ele><time>2026-04-26T04:10:51.729Z</time></trkpt><trkpt lat="43.0136617" lon="2.3246967"><ele>795.0</ele><time>2026-04-26T04:10:52.728Z</time></trkpt><trkpt lat="43.0136" lon="2.3247983"><ele>795.8333333333334</ele><time>2026-04-26T04:10:53.729Z</time></trkpt><trkpt lat="43.0135467" lon="2.324905"><ele>796.6666666666667</ele><time>2026-04-26T04:10:54.728Z</time></trkpt><trkpt lat="43.0135167" lon="2.3249983"><ele>797.5</ele><time>2026-04-26T04:10:55.728Z</time></trkpt><trkpt lat="43.0135017" lon="2.3250867"><ele>798.3333333333334</ele><time>2026-04-26T04:10:56.729Z</time></trkpt><trkpt lat="43.013535" lon="2.32525"><ele>799.1666666666667</ele><time>2026-04-26T04:10:58.728Z</time></trkpt><trkpt lat="43.01358" lon="2.3253333"><ele>800.0</ele><time>2026-04-26T04:10:59.729Z</time></trkpt><trkpt lat="43.01364" lon="2.3254217"><ele>800.0</ele><time>2026-04-26T04:11:00.728Z</time></trkpt><trkpt lat="43.0137067" lon="2.32551"><ele>800.0</ele><time>2026-04-26T04:11:01.731Z</time></trkpt><trkpt lat="43.0137783" lon="2.325595"><ele>800.0</ele><time>2026-04-26T04:11:02.73Z</time></trkpt><trkpt lat="43.01385" lon="2.3256767"><ele>800.0</ele><time>2026-04-26T04:11:03.728Z</time></trkpt><trkpt lat="43.01392" lon="2.3257567"><ele>800.0</ele><time>2026-04-26T04:11:04.728Z</time></trkpt><trkpt lat="43.0139883" lon="2.3258383"><ele>800.6</ele><time>2026-04-26T04:11:05.729Z</time></trkpt><trkpt lat="43.0140583" lon="2.3259283"><ele>801.2</ele><time>2026-04-26T04:11:06.728Z</time></trkpt><trkpt lat="43.0141317" lon="2.3260217"><ele>801.8</ele><time>2026-04-26T04:11:07.729Z</time></trkpt><trkpt lat="43.0142117" lon="2.3261117"><ele>802.4</ele><time>2026-04-26T04:11:08.729Z</time></trkpt><trkpt lat="43.0142983" lon="2.3261967"><ele>803.0</ele><time>2026-04-26T04:11:09.73Z</time></trkpt><trkpt lat="43.0143883" lon="2.3262733"><ele>803.0</ele><time>2026-04-26T04:11:10.729Z</time></trkpt><trkpt lat="43.01448" lon="2.3263467"><ele>803.0</ele><time>2026-04-26T04:11:11.729Z</time></trkpt><trkpt lat="43.0145667" lon="2.32642"><ele>803.0</ele><time>2026-04-26T04:11:12.731Z</time></trkpt><trkpt lat="43.0146517" lon="2.3264933"><ele>803.0</ele><time>2026-04-26T04:11:13.73Z</time></trkpt><trkpt lat="43.014735" lon="2.3265683"><ele>803.0</ele><time>2026-04-26T04:11:14.73Z</time></trkpt><trkpt lat="43.0148167" lon="2.3266433"><ele>802.8</ele><time>2026-04-26T04:11:15.728Z</time></trkpt><trkpt lat="43.0149" lon="2.3267267"><ele>802.5999999999999</ele><time>2026-04-26T04:11:16.729Z</time></trkpt><trkpt lat="43.0149817" lon="2.3268233"><ele>802.4000000000001</ele><time>2026-04-26T04:11:17.73Z</time></trkpt><trkpt lat="43.0150583" lon="2.3269267"><ele>802.2</ele><time>2026-04-26T04:11:18.729Z</time></trkpt><trkpt lat="43.015125" lon="2.3270383"><ele>802.0</ele><time>2026-04-26T04:11:19.729Z</time></trkpt><trkpt lat="43.0151783" lon="2.3271517"><ele>802.8</ele><time>2026-04-26T04:11:20.731Z</time></trkpt><trkpt lat="43.0152133" lon="2.32727"><ele>803.6</ele><time>2026-04-26T04:11:21.732Z</time></trkpt><trkpt lat="43.0152267" lon="2.3273933"><ele>804.4</ele><time>2026-04-26T04:11:22.728Z</time></trkpt><trkpt lat="43.0152267" lon="2.32752"><ele>805.1999999999999</ele><time>2026-04-26T04:11:23.728Z</time></trkpt><trkpt lat="43.0152033" lon="2.327655"><ele>806.0</ele><time>2026-04-26T04:11:24.731Z</time></trkpt><trkpt lat="43.0151717" lon="2.3277917"><ele>806.0</ele><time>2026-04-26T04:11:25.73Z</time></trkpt><trkpt lat="43.015145" lon="2.3279333"><ele>806.0</ele><time>2026-04-26T04:11:26.729Z</time></trkpt><trkpt lat="43.0151283" lon="2.3280817"><ele>806.0</ele><time>2026-04-26T04:11:27.732Z</time></trkpt><trkpt lat="43.0151233" lon="2.3282367"><ele>806.0</ele><time>2026-04-26T04:11:28.731Z</time></trkpt><trkpt lat="43.0151267" lon="2.3283933"><ele>806.0</ele><time>2026-04-26T04:11:29.728Z</time></trkpt><trkpt lat="43.015135" lon="2.3285467"><ele>805.0</ele><time>2026-04-26T04:11:30.728Z</time></trkpt><trkpt lat="43.0151467" lon="2.3286983"><ele>804.0</ele><time>2026-04-26T04:11:31.729Z</time></trkpt><trkpt lat="43.0151617" lon="2.3288533"><ele>803.0</ele><time>2026-04-26T04:11:32.732Z</time></trkpt><trkpt lat="43.01518" lon="2.329005"><ele>802.0</ele><time>2026-04-26T04:11:33.73Z</time></trkpt><trkpt lat="43.0151983" lon="2.3291567"><ele>800.0</ele><time>2026-04-26T04:11:34.732Z</time></trkpt><trkpt lat="43.0152183" lon="2.32931"><ele>798.0</ele><time>2026-04-26T04:11:35.73Z</time></trkpt><trkpt lat="43.0152367" lon="2.329465"><ele>796.0</ele><time>2026-04-26T04:11:36.732Z</time></trkpt><trkpt lat="43.0152533" lon="2.3296217"><ele>794.0</ele><time>2026-04-26T04:11:37.729Z</time></trkpt><trkpt lat="43.0152633" lon="2.3297733"><ele>792.5</ele><time>2026-04-26T04:11:38.73Z</time></trkpt><trkpt lat="43.0152633" lon="2.3299217"><ele>791.0</ele><time>2026-04-26T04:11:39.73Z</time></trkpt><trkpt lat="43.0152583" lon="2.330075"><ele>789.5</ele><time>2026-04-26T04:11:40.731Z</time></trkpt><trkpt lat="43.0152483" lon="2.33024"><ele>788.0</ele><time>2026-04-26T04:11:41.727Z</time></trkpt><trkpt lat="43.015235" lon="2.3304083"><ele>786.0</ele><time>2026-04-26T04:11:42.728Z</time></trkpt><trkpt lat="43.0152233" lon="2.3305767"><ele>784.0</ele><time>2026-04-26T04:11:43.729Z</time></trkpt><trkpt lat="43.0152167" lon="2.330735"><ele>782.0</ele><time>2026-04-26T04:11:44.728Z</time></trkpt><trkpt lat="43.0152217" lon="2.3308833"><ele>780.0</ele><time>2026-04-26T04:11:45.734Z</time></trkpt><trkpt lat="43.0152383" lon="2.33103"><ele>780.0</ele><time>2026-04-26T04:11:46.728Z</time></trkpt><trkpt lat="43.0152817" lon="2.3311683"><ele>780.0</ele><time>2026-04-26T04:11:47.731Z</time></trkpt><trkpt lat="43.01533" lon="2.3313017"><ele>780.0</ele><time>2026-04-26T04:11:48.73Z</time></trkpt><trkpt lat="43.0153817" lon="2.331435"><ele>780.0</ele><time>2026-04-26T04:11:49.733Z</time></trkpt><trkpt lat="43.0154267" lon="2.33158"><ele>780.0</ele><time>2026-04-26T04:11:50.728Z</time></trkpt><trkpt lat="43.015465" lon="2.33173"><ele>776.5</ele><time>2026-04-26T04:11:51.729Z</time></trkpt><trkpt lat="43.015485" lon="2.3318967"><ele>773.0</ele><time>2026-04-26T04:11:52.73Z</time></trkpt><trkpt lat="43.0154833" lon="2.33207"><ele>769.5</ele><time>2026-04-26T04:11:53.729Z</time></trkpt><trkpt lat="43.015475" lon="2.332255"><ele>766.0</ele><time>2026-04-26T04:11:54.73Z</time></trkpt><trkpt lat="43.0154667" lon="2.3324483"><ele>764.25</ele><time>2026-04-26T04:11:55.727Z</time></trkpt><trkpt lat="43.015455" lon="2.332645"><ele>762.5</ele><time>2026-04-26T04:11:56.729Z</time></trkpt><trkpt lat="43.0154433" lon="2.3328367"><ele>760.75</ele><time>2026-04-26T04:11:57.728Z</time></trkpt><trkpt lat="43.0154317" lon="2.3330183"><ele>759.0</ele><time>2026-04-26T04:11:58.73Z</time></trkpt><trkpt lat="43.0154183" lon="2.3331767"><ele>758.6</ele><time>2026-04-26T04:11:59.729Z</time></trkpt><trkpt lat="43.0154267" lon="2.3333217"><ele>758.2</ele><time>2026-04-26T04:12:00.729Z</time></trkpt><trkpt lat="43.015455" lon="2.3334533"><ele>757.8000000000001</ele><time>2026-04-26T04:12:01.728Z</time></trkpt><trkpt lat="43.0155017" lon="2.3335717"><ele>757.4000000000001</ele><time>2026-04-26T04:12:02.732Z</time></trkpt><trkpt lat="43.0155617" lon="2.333675"><ele>757.0</ele><time>2026-04-26T04:12:03.729Z</time></trkpt><trkpt lat="43.0156267" lon="2.3337783"><ele>756.5</ele><time>2026-04-26T04:12:04.73Z</time></trkpt><trkpt lat="43.015685" lon="2.3338967"><ele>756.0</ele><time>2026-04-26T04:12:05.73Z</time></trkpt><trkpt lat="43.0157333" lon="2.33403"><ele>755.5</ele><time>2026-04-26T04:12:06.73Z</time></trkpt><trkpt lat="43.0157683" lon="2.334185"><ele>755.0</ele><time>2026-04-26T04:12:07.729Z</time></trkpt><trkpt lat="43.01578" lon="2.3343517"><ele>755.0</ele><time>2026-04-26T04:12:08.731Z</time></trkpt><trkpt lat="43.01577" lon="2.33452"><ele>755.0</ele><time>2026-04-26T04:12:09.729Z</time></trkpt><trkpt lat="43.0157417" lon="2.3346983"><ele>755.0</ele><time>2026-04-26T04:12:10.73Z</time></trkpt><trkpt lat="43.015695" lon="2.3348783"><ele>755.0</ele><time>2026-04-26T04:12:11.729Z</time></trkpt><trkpt lat="43.0156433" lon="2.3350633"><ele>755.0</ele><time>2026-04-26T04:12:12.728Z</time></trkpt><trkpt lat="43.01558" lon="2.33524"><ele>755.0</ele><time>2026-04-26T04:12:13.73Z</time></trkpt><trkpt lat="43.0155283" lon="2.3354117"><ele>755.0</ele><time>2026-04-26T04:12:14.728Z</time></trkpt><trkpt lat="43.01548" lon="2.3355733"><ele>755.0</ele><time>2026-04-26T04:12:15.729Z</time></trkpt><trkpt lat="43.0154283" lon="2.3357283"><ele>755.0</ele><time>2026-04-26T04:12:16.729Z</time></trkpt><trkpt lat="43.015385" lon="2.33588"><ele>755.0</ele><time>2026-04-26T04:12:17.73Z</time></trkpt><trkpt lat="43.0153467" lon="2.3360283"><ele>755.0</ele><time>2026-04-26T04:12:18.728Z</time></trkpt><trkpt lat="43.01532" lon="2.336175"><ele>755.0</ele><time>2026-04-26T04:12:19.728Z</time></trkpt><trkpt lat="43.015305" lon="2.336325"><ele>753.5</ele><time>2026-04-26T04:12:20.73Z</time></trkpt><trkpt lat="43.0153083" lon="2.3364833"><ele>752.0</ele><time>2026-04-26T04:12:21.73Z</time></trkpt><trkpt lat="43.0153317" lon="2.3366417"><ele>750.5</ele><time>2026-04-26T04:12:22.728Z</time></trkpt><trkpt lat="43.015365" lon="2.336805"><ele>749.0</ele><time>2026-04-26T04:12:23.731Z</time></trkpt><trkpt lat="43.0154067" lon="2.3369717"><ele>749.0</ele><time>2026-04-26T04:12:24.727Z</time></trkpt><trkpt lat="43.01545" lon="2.337145"><ele>749.0</ele><time>2026-04-26T04:12:25.729Z</time></trkpt><trkpt lat="43.0154933" lon="2.3373167"><ele>749.0</ele><time>2026-04-26T04:12:26.73Z</time></trkpt><trkpt lat="43.0155333" lon="2.33749"><ele>749.0</ele><time>2026-04-26T04:12:27.73Z</time></trkpt><trkpt lat="43.01557" lon="2.3376617"><ele>746.0</ele><time>2026-04-26T04:12:28.729Z</time></trkpt><trkpt lat="43.015605" lon="2.3378283"><ele>743.0</ele><time>2026-04-26T04:12:29.73Z</time></trkpt><trkpt lat="43.0156367" lon="2.3379983"><ele>740.0</ele><time>2026-04-26T04:12:30.728Z</time></trkpt><trkpt lat="43.0156633" lon="2.3381683"><ele>737.0</ele><time>2026-04-26T04:12:31.729Z</time></trkpt><trkpt lat="43.0156917" lon="2.338335"><ele>736.25</ele><time>2026-04-26T04:12:32.73Z</time></trkpt><trkpt lat="43.0157183" lon="2.3384983"><ele>735.5</ele><time>2026-04-26T04:12:33.729Z</time></trkpt><trkpt lat="43.0157367" lon="2.3386617"><ele>734.75</ele><time>2026-04-26T04:12:34.728Z</time></trkpt><trkpt lat="43.0157533" lon="2.3388233"><ele>734.0</ele><time>2026-04-26T04:12:35.731Z</time></trkpt><trkpt lat="43.0157633" lon="2.3389867"><ele>734.0</ele><time>2026-04-26T04:12:36.728Z</time></trkpt><trkpt lat="43.01576" lon="2.3391517"><ele>734.0</ele><time>2026-04-26T04:12:37.728Z</time></trkpt><trkpt lat="43.0157467" lon="2.3393183"><ele>734.0</ele><time>2026-04-26T04:12:38.73Z</time></trkpt><trkpt lat="43.0157183" lon="2.3394833"><ele>734.0</ele><time>2026-04-26T04:12:39.728Z</time></trkpt><trkpt lat="43.0156833" lon="2.3396467"><ele>732.8000000000001</ele><time>2026-04-26T04:12:40.727Z</time></trkpt><trkpt lat="43.0156467" lon="2.3398067"><ele>731.6</ele><time>2026-04-26T04:12:41.729Z</time></trkpt><trkpt lat="43.0156017" lon="2.3399517"><ele>730.4</ele><time>2026-04-26T04:12:42.729Z</time></trkpt><trkpt lat="43.0155567" lon="2.34008"><ele>729.2</ele><time>2026-04-26T04:12:43.736Z</time></trkpt><trkpt lat="43.0155033" lon="2.34019"><ele>728.0</ele><time>2026-04-26T04:12:44.729Z</time></trkpt><trkpt lat="43.015435" lon="2.3402817"><ele>728.0</ele><time>2026-04-26T04:12:45.728Z</time></trkpt><trkpt lat="43.015355" lon="2.34035"><ele>728.0</ele><time>2026-04-26T04:12:46.729Z</time></trkpt><trkpt lat="43.0152633" lon="2.34039"><ele>728.0</ele><time>2026-04-26T04:12:47.729Z</time></trkpt><trkpt lat="43.015165" lon="2.3404083"><ele>728.0</ele><time>2026-04-26T04:12:48.729Z</time></trkpt><trkpt lat="43.0150483" lon="2.3403733"><ele>728.0</ele><time>2026-04-26T04:12:49.73Z</time></trkpt><trkpt lat="43.0149333" lon="2.3403417"><ele>725.2</ele><time>2026-04-26T04:12:50.731Z</time></trkpt><trkpt lat="43.0148217" lon="2.3403333"><ele>722.4</ele><time>2026-04-26T04:12:51.728Z</time></trkpt><trkpt lat="43.01472" lon="2.3403617"><ele>719.6</ele><time>2026-04-26T04:12:52.727Z</time></trkpt><trkpt lat="43.0146233" lon="2.3404217"><ele>716.8000000000001</ele><time>2026-04-26T04:12:53.729Z</time></trkpt><trkpt lat="43.0145533" lon="2.3405317"><ele>714.0</ele><time>2026-04-26T04:12:54.727Z</time></trkpt><trkpt lat="43.0145033" lon="2.34067"><ele>714.0</ele><time>2026-04-26T04:12:55.728Z</time></trkpt><trkpt lat="43.0144717" lon="2.3408317"><ele>714.0</ele><time>2026-04-26T04:12:56.731Z</time></trkpt><trkpt lat="43.014445" lon="2.3410017"><ele>714.0</ele><time>2026-04-26T04:12:57.727Z</time></trkpt><trkpt lat="43.0144267" lon="2.3411783"><ele>714.0</ele><time>2026-04-26T04:12:58.728Z</time></trkpt><trkpt lat="43.01441" lon="2.3413683"><ele>713.0</ele><time>2026-04-26T04:12:59.727Z</time></trkpt><trkpt lat="43.0144" lon="2.3415667"><ele>712.0</ele><time>2026-04-26T04:13:00.729Z</time></trkpt><trkpt lat="43.0143883" lon="2.3417733"><ele>711.0</ele><time>2026-04-26T04:13:01.732Z</time></trkpt><trkpt lat="43.0143767" lon="2.3419867"><ele>711.0</ele><time>2026-04-26T04:13:02.729Z</time></trkpt><trkpt lat="43.0143683" lon="2.34221"><ele>711.0</ele><time>2026-04-26T04:13:03.735Z</time></trkpt><trkpt lat="43.0143583" lon="2.3424333"><ele>711.0</ele><time>2026-04-26T04:13:04.728Z</time></trkpt><trkpt lat="43.0143483" lon="2.3426467"><ele>709.5</ele><time>2026-04-26T04:13:05.729Z</time></trkpt><trkpt lat="43.0143383" lon="2.3428517"><ele>708.0</ele><time>2026-04-26T04:13:06.731Z</time></trkpt><trkpt lat="43.014325" lon="2.3430533"><ele>706.5</ele><time>2026-04-26T04:13:07.729Z</time></trkpt><trkpt lat="43.0143067" lon="2.3432567"><ele>705.0</ele><time>2026-04-26T04:13:08.729Z</time></trkpt><trkpt lat="43.0142917" lon="2.3434617"><ele>704.0</ele><time>2026-04-26T04:13:09.729Z</time></trkpt><trkpt lat="43.0142883" lon="2.3436633"><ele>703.0</ele><time>2026-04-26T04:13:10.728Z</time></trkpt><trkpt lat="43.0142883" lon="2.3438583"><ele>702.0</ele><time>2026-04-26T04:13:11.728Z</time></trkpt><trkpt lat="43.0142867" lon="2.3440517"><ele>701.0</ele><time>2026-04-26T04:13:12.728Z</time></trkpt><trkpt lat="43.0142717" lon="2.34425"><ele>699.6666666666666</ele><time>2026-04-26T04:13:13.727Z</time></trkpt><trkpt lat="43.0142383" lon="2.3444533"><ele>698.3333333333334</ele><time>2026-04-26T04:13:14.729Z</time></trkpt><trkpt lat="43.01419" lon="2.3446583"><ele>697.0</ele><time>2026-04-26T04:13:15.728Z</time></trkpt><trkpt lat="43.0141367" lon="2.3448667"><ele>692.3333333333334</ele><time>2026-04-26T04:13:16.729Z</time></trkpt><trkpt lat="43.0140767" lon="2.3450783"><ele>687.6666666666666</ele><time>2026-04-26T04:13:17.728Z</time></trkpt><trkpt lat="43.0140117" lon="2.3452933"><ele>683.0</ele><time>2026-04-26T04:13:18.728Z</time></trkpt><trkpt lat="43.0139483" lon="2.3455117"><ele>684.3333333333333</ele><time>2026-04-26T04:13:19.728Z</time></trkpt><trkpt lat="43.0138783" lon="2.3457317"><ele>685.6666666666666</ele><time>2026-04-26T04:13:20.728Z</time></trkpt><trkpt lat="43.013805" lon="2.345955"><ele>687.0</ele><time>2026-04-26T04:13:21.729Z</time></trkpt><trkpt lat="43.0137317" lon="2.3461767"><ele>688.3333333333334</ele><time>2026-04-26T04:13:22.728Z</time></trkpt><trkpt lat="43.013655" lon="2.3463983"><ele>689.6666666666667</ele><time>2026-04-26T04:13:23.728Z</time></trkpt><trkpt lat="43.0135783" lon="2.34662"><ele>691.0</ele><time>2026-04-26T04:13:24.728Z</time></trkpt><trkpt lat="43.0135017" lon="2.34684"><ele>691.0</ele><time>2026-04-26T04:13:25.728Z</time></trkpt><trkpt lat="43.0134217" lon="2.3470583"><ele>691.0</ele><time>2026-04-26T04:13:26.729Z</time></trkpt><trkpt lat="43.013345" lon="2.3472733"><ele>691.0</ele><time>2026-04-26T04:13:27.732Z</time></trkpt><trkpt lat="43.0132667" lon="2.3474817"><ele>692.0</ele><time>2026-04-26T04:13:28.73Z</time></trkpt><trkpt lat="43.0131933" lon="2.3476817"><ele>693.0</ele><time>2026-04-26T04:13:29.728Z</time></trkpt><trkpt lat="43.0131217" lon="2.3478767"><ele>694.0</ele><time>2026-04-26T04:13:30.729Z</time></trkpt><trkpt lat="43.0130483" lon="2.3480583"><ele>694.3333333333334</ele><time>2026-04-26T04:13:31.727Z</time></trkpt><trkpt lat="43.0129667" lon="2.3482367"><ele>694.6666666666666</ele><time>2026-04-26T04:13:32.729Z</time></trkpt><trkpt lat="43.0128783" lon="2.3484133"><ele>695.0</ele><time>2026-04-26T04:13:33.728Z</time></trkpt><trkpt lat="43.0127917" lon="2.3485867"><ele>695.0</ele><time>2026-04-26T04:13:34.727Z</time></trkpt><trkpt lat="43.0127083" lon="2.3487583"><ele>695.0</ele><time>2026-04-26T04:13:35.728Z</time></trkpt><trkpt lat="43.012635" lon="2.3489333"><ele>695.0</ele><time>2026-04-26T04:13:36.729Z</time></trkpt><trkpt lat="43.0125833" lon="2.3491233"><ele>695.0</ele><time>2026-04-26T04:13:37.73Z</time></trkpt><trkpt lat="43.0125417" lon="2.3493267"><ele>695.6666666666666</ele><time>2026-04-26T04:13:38.729Z</time></trkpt><trkpt lat="43.0125017" lon="2.349535"><ele>696.3333333333334</ele><time>2026-04-26T04:13:39.729Z</time></trkpt><trkpt lat="43.0124567" lon="2.34974"><ele>697.0</ele><time>2026-04-26T04:13:40.728Z</time></trkpt><trkpt lat="43.0123933" lon="2.3499417"><ele>694.3333333333334</ele><time>2026-04-26T04:13:41.728Z</time></trkpt><trkpt lat="43.01232" lon="2.3501317"><ele>691.6666666666666</ele><time>2026-04-26T04:13:42.728Z</time></trkpt><trkpt lat="43.0122383" lon="2.3503133"><ele>689.0</ele><time>2026-04-26T04:13:43.73Z</time></trkpt><trkpt lat="43.0121467" lon="2.3504883"><ele>690.6666666666666</ele><time>2026-04-26T04:13:44.729Z</time></trkpt><trkpt lat="43.0120433" lon="2.35066"><ele>692.3333333333334</ele><time>2026-04-26T04:13:45.729Z</time></trkpt><trkpt lat="43.0119317" lon="2.3508317"><ele>694.0</ele><time>2026-04-26T04:13:46.729Z</time></trkpt><trkpt lat="43.0118083" lon="2.3509983"><ele>694.0</ele><time>2026-04-26T04:13:47.729Z</time></trkpt><trkpt lat="43.0116833" lon="2.3511667"><ele>694.0</ele><time>2026-04-26T04:13:48.728Z</time></trkpt><trkpt lat="43.01156" lon="2.35134"><ele>694.0</ele><time>2026-04-26T04:13:49.732Z</time></trkpt><trkpt lat="43.0114417" lon="2.3515167"><ele>694.0</ele><time>2026-04-26T04:13:50.728Z</time></trkpt><trkpt lat="43.0113283" lon="2.351695"><ele>694.0</ele><time>2026-04-26T04:13:51.728Z</time></trkpt><trkpt lat="43.011215" lon="2.35186"><ele>694.0</ele><time>2026-04-26T04:13:52.729Z</time></trkpt><trkpt lat="43.011105" lon="2.352015"><ele>694.0</ele><time>2026-04-26T04:13:53.728Z</time></trkpt><trkpt lat="43.0109917" lon="2.3521667"><ele>694.0</ele><time>2026-04-26T04:13:54.728Z</time></trkpt><trkpt lat="43.01087" lon="2.3523033"><ele>694.0</ele><time>2026-04-26T04:13:55.729Z</time></trkpt><trkpt lat="43.0107333" lon="2.35242"><ele>697.6666666666667</ele><time>2026-04-26T04:13:56.728Z</time></trkpt><trkpt lat="43.0105817" lon="2.352515"><ele>701.3333333333334</ele><time>2026-04-26T04:13:57.729Z</time></trkpt><trkpt lat="43.0104267" lon="2.3526017"><ele>705.0</ele><time>2026-04-26T04:13:58.731Z</time></trkpt><trkpt lat="43.01027" lon="2.3526967"><ele>705.0</ele><time>2026-04-26T04:13:59.728Z</time></trkpt><trkpt lat="43.01011" lon="2.3527867"><ele>705.0</ele><time>2026-04-26T04:14:00.728Z</time></trkpt><trkpt lat="43.009945" lon="2.352865"><ele>705.0</ele><time>2026-04-26T04:14:01.73Z</time></trkpt><trkpt lat="43.0097783" lon="2.3529433"><ele>704.0</ele><time>2026-04-26T04:14:02.728Z</time></trkpt><trkpt lat="43.0096033" lon="2.35301"><ele>703.0</ele><time>2026-04-26T04:14:03.727Z</time></trkpt><trkpt lat="43.0094383" lon="2.35308"><ele>702.0</ele><time>2026-04-26T04:14:04.73Z</time></trkpt><trkpt lat="43.0092733" lon="2.3531367"><ele>708.0</ele><time>2026-04-26T04:14:05.728Z</time></trkpt><trkpt lat="43.00911" lon="2.3531933"><ele>714.0</ele><time>2026-04-26T04:14:06.728Z</time></trkpt><trkpt lat="43.0089483" lon="2.3532583"><ele>720.0</ele><time>2026-04-26T04:14:07.729Z</time></trkpt><trkpt lat="43.0087833" lon="2.353325"><ele>720.0</ele><time>2026-04-26T04:14:08.729Z</time></trkpt><trkpt lat="43.0086167" lon="2.3533783"><ele>720.0</ele><time>2026-04-26T04:14:09.73Z</time></trkpt><trkpt lat="43.0084467" lon="2.3534217"><ele>720.0</ele><time>2026-04-26T04:14:10.73Z</time></trkpt><trkpt lat="43.00827" lon="2.3534733"><ele>720.6666666666666</ele><time>2026-04-26T04:14:11.728Z</time></trkpt><trkpt lat="43.0080967" lon="2.35351"><ele>721.3333333333333</ele><time>2026-04-26T04:14:12.729Z</time></trkpt><trkpt lat="43.0079183" lon="2.3535567"><ele>722.0</ele><time>2026-04-26T04:14:13.729Z</time></trkpt><trkpt lat="43.0077467" lon="2.35361"><ele>722.0</ele><time>2026-04-26T04:14:14.732Z</time></trkpt><trkpt lat="43.00757" lon="2.3536633"><ele>722.0</ele><time>2026-04-26T04:14:15.728Z</time></trkpt><trkpt lat="43.0074017" lon="2.3537117"><ele>722.0</ele><time>2026-04-26T04:14:16.728Z</time></trkpt><trkpt lat="43.00723" lon="2.3537517"><ele>723.3333333333333</ele><time>2026-04-26T04:14:17.727Z</time></trkpt><trkpt lat="43.0070633" lon="2.35379"><ele>724.6666666666666</ele><time>2026-04-26T04:14:18.728Z</time></trkpt><trkpt lat="43.0069" lon="2.3538133"><ele>726.0</ele><time>2026-04-26T04:14:19.728Z</time></trkpt><trkpt lat="43.0067317" lon="2.3538267"><ele>726.6666666666666</ele><time>2026-04-26T04:14:20.729Z</time></trkpt><trkpt lat="43.0065667" lon="2.3538283"><ele>727.3333333333333</ele><time>2026-04-26T04:14:21.728Z</time></trkpt><trkpt lat="43.0064" lon="2.3538067"><ele>728.0</ele><time>2026-04-26T04:14:22.73Z</time></trkpt><trkpt lat="43.0062383" lon="2.353805"><ele>728.0</ele><time>2026-04-26T04:14:23.728Z</time></trkpt><trkpt lat="43.0060733" lon="2.3538067"><ele>728.0</ele><time>2026-04-26T04:14:24.729Z</time></trkpt><trkpt lat="43.005905" lon="2.3538067"><ele>728.0</ele><time>2026-04-26T04:14:25.729Z</time></trkpt><trkpt lat="43.0057317" lon="2.353815"><ele>728.3333333333333</ele><time>2026-04-26T04:14:26.731Z</time></trkpt><trkpt lat="43.0055567" lon="2.3538267"><ele>728.6666666666666</ele><time>2026-04-26T04:14:27.727Z</time></trkpt><trkpt lat="43.0053817" lon="2.35385"><ele>729.0</ele><time>2026-04-26T04:14:28.727Z</time></trkpt><trkpt lat="43.0052117" lon="2.35387"><ele>732.3333333333334</ele><time>2026-04-26T04:14:29.73Z</time></trkpt><trkpt lat="43.00505" lon="2.3538983"><ele>735.6666666666667</ele><time>2026-04-26T04:14:30.729Z</time></trkpt><trkpt lat="43.0048983" lon="2.3539383"><ele>739.0</ele><time>2026-04-26T04:14:31.734Z</time></trkpt><trkpt lat="43.004765" lon="2.35399"><ele>739.0</ele><time>2026-04-26T04:14:32.728Z</time></trkpt><trkpt lat="43.004645" lon="2.35407"><ele>739.0</ele><time>2026-04-26T04:14:33.728Z</time></trkpt><trkpt lat="43.0045283" lon="2.3541683"><ele>739.0</ele><time>2026-04-26T04:14:34.728Z</time></trkpt><trkpt lat="43.004415" lon="2.3542817"><ele>739.0</ele><time>2026-04-26T04:14:35.727Z</time></trkpt><trkpt lat="43.0042967" lon="2.3544017"><ele>739.0</ele><time>2026-04-26T04:14:36.728Z</time></trkpt><trkpt lat="43.0041867" lon="2.3545233"><ele>739.0</ele><time>2026-04-26T04:14:37.728Z</time></trkpt><trkpt lat="43.0040833" lon="2.35465"><ele>739.0</ele><time>2026-04-26T04:14:38.729Z</time></trkpt><trkpt lat="43.0039883" lon="2.3547733"><ele>739.0</ele><time>2026-04-26T04:14:39.728Z</time></trkpt><trkpt lat="43.0038983" lon="2.3548933"><ele>736.0</ele><time>2026-04-26T04:14:40.727Z</time></trkpt><trkpt lat="43.0038133" lon="2.3550217"><ele>733.0</ele><time>2026-04-26T04:14:41.728Z</time></trkpt><trkpt lat="43.0037033" lon="2.35513"><ele>730.0</ele><time>2026-04-26T04:14:42.729Z</time></trkpt><trkpt lat="43.00358" lon="2.3552283"><ele>727.0</ele><time>2026-04-26T04:14:43.728Z</time></trkpt><trkpt lat="43.0034417" lon="2.355315"><ele>727.0</ele><time>2026-04-26T04:14:44.727Z</time></trkpt><trkpt lat="43.00329" lon="2.3554033"><ele>727.0</ele><time>2026-04-26T04:14:45.727Z</time></trkpt><trkpt lat="43.00313" lon="2.3555"><ele>727.0</ele><time>2026-04-26T04:14:46.729Z</time></trkpt><trkpt lat="43.00297" lon="2.3555967"><ele>727.0</ele><time>2026-04-26T04:14:47.728Z</time></trkpt><trkpt lat="43.0028133" lon="2.3556833"><ele>727.0</ele><time>2026-04-26T04:14:48.728Z</time></trkpt><trkpt lat="43.0026583" lon="2.3557633"><ele>727.0</ele><time>2026-04-26T04:14:49.729Z</time></trkpt><trkpt lat="43.00251" lon="2.3558283"><ele>723.5</ele><time>2026-04-26T04:14:50.728Z</time></trkpt><trkpt lat="43.002375" lon="2.3558967"><ele>720.0</ele><time>2026-04-26T04:14:51.728Z</time></trkpt><trkpt lat="43.0022517" lon="2.3559867"><ele>716.5</ele><time>2026-04-26T04:14:52.727Z</time></trkpt><trkpt lat="43.00214" lon="2.3561083"><ele>713.0</ele><time>2026-04-26T04:14:53.73Z</time></trkpt><trkpt lat="43.0020333" lon="2.3562467"><ele>713.0</ele><time>2026-04-26T04:14:54.727Z</time></trkpt><trkpt lat="43.0019267" lon="2.3563867"><ele>713.0</ele><time>2026-04-26T04:14:55.727Z</time></trkpt><trkpt lat="43.0018217" lon="2.3565183"><ele>713.0</ele><time>2026-04-26T04:14:56.727Z</time></trkpt><trkpt lat="43.0017183" lon="2.356635"><ele>713.0</ele><time>2026-04-26T04:14:57.732Z</time></trkpt><trkpt lat="43.0016133" lon="2.3567317"><ele>713.0</ele><time>2026-04-26T04:14:58.729Z</time></trkpt><trkpt lat="43.0015017" lon="2.3568"><ele>713.0</ele><time>2026-04-26T04:14:59.728Z</time></trkpt><trkpt lat="43.0013817" lon="2.3568467"><ele>713.0</ele><time>2026-04-26T04:15:00.728Z</time></trkpt><trkpt lat="43.001255" lon="2.356875"><ele>713.0</ele><time>2026-04-26T04:15:01.728Z</time></trkpt><trkpt lat="43.0011217" lon="2.3568967"><ele>713.0</ele><time>2026-04-26T04:15:02.728Z</time></trkpt><trkpt lat="43.000985" lon="2.3569133"><ele>713.0</ele><time>2026-04-26T04:15:03.729Z</time></trkpt><trkpt lat="43.0008417" lon="2.3569233"><ele>713.0</ele><time>2026-04-26T04:15:04.728Z</time></trkpt><trkpt lat="43.0006933" lon="2.3569183"><ele>713.0</ele><time>2026-04-26T04:15:05.729Z</time></trkpt><trkpt lat="43.0005433" lon="2.35691"><ele>713.75</ele><time>2026-04-26T04:15:06.728Z</time></trkpt><trkpt lat="43.0003917" lon="2.3569"><ele>714.5</ele><time>2026-04-26T04:15:07.728Z</time></trkpt><trkpt lat="43.0002433" lon="2.35689"><ele>715.25</ele><time>2026-04-26T04:15:08.728Z</time></trkpt><trkpt lat="43.0001017" lon="2.3568783"><ele>716.0</ele><time>2026-04-26T04:15:09.729Z</time></trkpt><trkpt lat="42.999965" lon="2.356865"><ele>716.0</ele><time>2026-04-26T04:15:10.73Z</time></trkpt><trkpt lat="42.999835" lon="2.35685"><ele>716.0</ele><time>2026-04-26T04:15:11.728Z</time></trkpt><trkpt lat="42.99971" lon="2.3568333"><ele>716.0</ele><time>2026-04-26T04:15:12.727Z</time></trkpt><trkpt lat="42.9995933" lon="2.3568183"><ele>716.0</ele><time>2026-04-26T04:15:13.729Z</time></trkpt><trkpt lat="42.999485" lon="2.3568"><ele>716.0</ele><time>2026-04-26T04:15:14.729Z</time></trkpt><trkpt lat="42.9993833" lon="2.3567783"><ele>716.0</ele><time>2026-04-26T04:15:15.727Z</time></trkpt><trkpt lat="42.9992817" lon="2.3567567"><ele>716.0</ele><time>2026-04-26T04:15:16.728Z</time></trkpt><trkpt lat="42.9991833" lon="2.356745"><ele>716.0</ele><time>2026-04-26T04:15:17.73Z</time></trkpt><trkpt lat="42.9990917" lon="2.3567433"><ele>716.0</ele><time>2026-04-26T04:15:18.73Z</time></trkpt><trkpt lat="42.999005" lon="2.3567383"><ele>716.4</ele><time>2026-04-26T04:15:19.729Z</time></trkpt><trkpt lat="42.9989317" lon="2.3566967"><ele>716.8</ele><time>2026-04-26T04:15:20.728Z</time></trkpt><trkpt lat="42.9988667" lon="2.3566183"><ele>717.1999999999999</ele><time>2026-04-26T04:15:21.727Z</time></trkpt><trkpt lat="42.9988033" lon="2.3565033"><ele>717.5999999999999</ele><time>2026-04-26T04:15:22.729Z</time></trkpt><trkpt lat="42.99874" lon="2.35637"><ele>718.0</ele><time>2026-04-26T04:15:23.729Z</time></trkpt><trkpt lat="42.998675" lon="2.3562167"><ele>719.0</ele><time>2026-04-26T04:15:24.728Z</time></trkpt><trkpt lat="42.9986067" lon="2.3560633"><ele>720.0</ele><time>2026-04-26T04:15:25.736Z</time></trkpt><trkpt lat="42.998535" lon="2.3559083"><ele>721.0</ele><time>2026-04-26T04:15:26.729Z</time></trkpt><trkpt lat="42.9984617" lon="2.35576"><ele>722.0</ele><time>2026-04-26T04:15:27.728Z</time></trkpt><trkpt lat="42.998385" lon="2.3556233"><ele>721.75</ele><time>2026-04-26T04:15:28.729Z</time></trkpt><trkpt lat="42.998305" lon="2.3555"><ele>721.5</ele><time>2026-04-26T04:15:29.729Z</time></trkpt><trkpt lat="42.9982183" lon="2.3553933"><ele>721.25</ele><time>2026-04-26T04:15:30.728Z</time></trkpt><trkpt lat="42.9981217" lon="2.35531"><ele>721.0</ele><time>2026-04-26T04:15:31.727Z</time></trkpt><trkpt lat="42.9980167" lon="2.3552583"><ele>721.0</ele><time>2026-04-26T04:15:32.731Z</time></trkpt><trkpt lat="42.9979067" lon="2.35523"><ele>721.0</ele><time>2026-04-26T04:15:33.728Z</time></trkpt><trkpt lat="42.9977933" lon="2.35522"><ele>721.0</ele><time>2026-04-26T04:15:34.728Z</time></trkpt><trkpt lat="42.9976783" lon="2.3552267"><ele>721.0</ele><time>2026-04-26T04:15:35.729Z</time></trkpt><trkpt lat="42.9975583" lon="2.35525"><ele>723.5</ele><time>2026-04-26T04:15:36.728Z</time></trkpt><trkpt lat="42.9974333" lon="2.3552933"><ele>726.0</ele><time>2026-04-26T04:15:37.728Z</time></trkpt><trkpt lat="42.9973117" lon="2.3553483"><ele>728.5</ele><time>2026-04-26T04:15:38.729Z</time></trkpt><trkpt lat="42.997195" lon="2.3554233"><ele>731.0</ele><time>2026-04-26T04:15:39.729Z</time></trkpt><trkpt lat="42.9970767" lon="2.3555217"><ele>732.5</ele><time>2026-04-26T04:15:40.727Z</time></trkpt><trkpt lat="42.99696" lon="2.3556217"><ele>734.0</ele><time>2026-04-26T04:15:41.728Z</time></trkpt><trkpt lat="42.9968417" lon="2.355705"><ele>735.5</ele><time>2026-04-26T04:15:42.727Z</time></trkpt><trkpt lat="42.996725" lon="2.355765"><ele>737.0</ele><time>2026-04-26T04:15:43.727Z</time></trkpt><trkpt lat="42.9966067" lon="2.3558017"><ele>737.75</ele><time>2026-04-26T04:15:44.729Z</time></trkpt><trkpt lat="42.9964833" lon="2.3558067"><ele>738.5</ele><time>2026-04-26T04:15:45.726Z</time></trkpt><trkpt lat="42.9963583" lon="2.355795"><ele>739.25</ele><time>2026-04-26T04:15:46.728Z</time></trkpt><trkpt lat="42.9962333" lon="2.3557567"><ele>740.0</ele><time>2026-04-26T04:15:47.728Z</time></trkpt><trkpt lat="42.9961083" lon="2.3557017"><ele>740.0</ele><time>2026-04-26T04:15:48.728Z</time></trkpt><trkpt lat="42.9959867" lon="2.355635"><ele>740.0</ele><time>2026-04-26T04:15:49.729Z</time></trkpt><trkpt lat="42.9958667" lon="2.355555"><ele>740.0</ele><time>2026-04-26T04:15:50.729Z</time></trkpt><trkpt lat="42.9957517" lon="2.3554617"><ele>740.0</ele><time>2026-04-26T04:15:51.728Z</time></trkpt><trkpt lat="42.9956467" lon="2.3553667"><ele>739.4</ele><time>2026-04-26T04:15:52.727Z</time></trkpt><trkpt lat="42.9955483" lon="2.355285"><ele>738.8</ele><time>2026-04-26T04:15:53.732Z</time></trkpt><trkpt lat="42.99545" lon="2.35522"><ele>738.2</ele><time>2026-04-26T04:15:54.728Z</time></trkpt><trkpt lat="42.99535" lon="2.355175"><ele>737.6</ele><time>2026-04-26T04:15:55.73Z</time></trkpt><trkpt lat="42.99525" lon="2.35515"><ele>737.0</ele><time>2026-04-26T04:15:56.73Z</time></trkpt><trkpt lat="42.9951467" lon="2.3551517"><ele>737.0</ele><time>2026-04-26T04:15:57.728Z</time></trkpt><trkpt lat="42.99504" lon="2.35517"><ele>737.0</ele><time>2026-04-26T04:15:58.728Z</time></trkpt><trkpt lat="42.9949233" lon="2.35522"><ele>737.0</ele><time>2026-04-26T04:15:59.727Z</time></trkpt><trkpt lat="42.994805" lon="2.3552883"><ele>737.0</ele><time>2026-04-26T04:16:00.727Z</time></trkpt><trkpt lat="42.99469" lon="2.3553633"><ele>737.8333333333333</ele><time>2026-04-26T04:16:01.728Z</time></trkpt><trkpt lat="42.99459" lon="2.3554383"><ele>738.6666666666666</ele><time>2026-04-26T04:16:02.73Z</time></trkpt><trkpt lat="42.9945033" lon="2.3555017"><ele>739.5</ele><time>2026-04-26T04:16:03.728Z</time></trkpt><trkpt lat="42.9944267" lon="2.355545"><ele>740.3333333333334</ele><time>2026-04-26T04:16:04.727Z</time></trkpt><trkpt lat="42.9943583" lon="2.3555633"><ele>741.1666666666667</ele><time>2026-04-26T04:16:05.728Z</time></trkpt><trkpt lat="42.9942933" lon="2.3555633"><ele>742.0</ele><time>2026-04-26T04:16:06.729Z</time></trkpt><trkpt lat="42.994225" lon="2.3555417"><ele>742.4000000000001</ele><time>2026-04-26T04:16:07.729Z</time></trkpt><trkpt lat="42.994165" lon="2.3554883"><ele>742.8000000000001</ele><time>2026-04-26T04:16:08.729Z</time></trkpt><trkpt lat="42.99409" lon="2.355385"><ele>743.2</ele><time>2026-04-26T04:16:09.727Z</time></trkpt><trkpt lat="42.9940017" lon="2.35527"><ele>743.6</ele><time>2026-04-26T04:16:10.727Z</time></trkpt><trkpt lat="42.9939067" lon="2.355145"><ele>744.0</ele><time>2026-04-26T04:16:11.728Z</time></trkpt><trkpt lat="42.9938083" lon="2.3550233"><ele>744.0</ele><time>2026-04-26T04:16:12.728Z</time></trkpt><trkpt lat="42.993705" lon="2.3549017"><ele>744.0</ele><time>2026-04-26T04:16:13.731Z</time></trkpt><trkpt lat="42.9936" lon="2.3547767"><ele>744.0</ele><time>2026-04-26T04:16:14.729Z</time></trkpt><trkpt lat="42.993495" lon="2.35465"><ele>744.0</ele><time>2026-04-26T04:16:15.727Z</time></trkpt><trkpt lat="42.9934017" lon="2.354525"><ele>746.0</ele><time>2026-04-26T04:16:16.728Z</time></trkpt><trkpt lat="42.9933317" lon="2.3544017"><ele>748.0</ele><time>2026-04-26T04:16:17.73Z</time></trkpt><trkpt lat="42.9932783" lon="2.3542717"><ele>750.0</ele><time>2026-04-26T04:16:18.729Z</time></trkpt><trkpt lat="42.99325" lon="2.35412"><ele>752.0</ele><time>2026-04-26T04:16:19.728Z</time></trkpt><trkpt lat="42.9932367" lon="2.3539467"><ele>752.75</ele><time>2026-04-26T04:16:20.729Z</time></trkpt><trkpt lat="42.993235" lon="2.3537567"><ele>753.5</ele><time>2026-04-26T04:16:21.729Z</time></trkpt><trkpt lat="42.9932367" lon="2.35356"><ele>754.25</ele><time>2026-04-26T04:16:22.729Z</time></trkpt><trkpt lat="42.9932433" lon="2.3533567"><ele>755.0</ele><time>2026-04-26T04:16:23.738Z</time></trkpt><trkpt lat="42.99325" lon="2.35315"><ele>755.6666666666666</ele><time>2026-04-26T04:16:24.73Z</time></trkpt><trkpt lat="42.9932533" lon="2.3529433"><ele>756.3333333333334</ele><time>2026-04-26T04:16:25.729Z</time></trkpt><trkpt lat="42.99324" lon="2.35273"><ele>757.0</ele><time>2026-04-26T04:16:26.73Z</time></trkpt><trkpt lat="42.9932133" lon="2.3525133"><ele>757.0</ele><time>2026-04-26T04:16:27.73Z</time></trkpt><trkpt lat="42.9931883" lon="2.3523017"><ele>757.0</ele><time>2026-04-26T04:16:28.731Z</time></trkpt><trkpt lat="42.9931667" lon="2.35209"><ele>757.0</ele><time>2026-04-26T04:16:29.729Z</time></trkpt><trkpt lat="42.9931483" lon="2.35187"><ele>758.6666666666667</ele><time>2026-04-26T04:16:30.73Z</time></trkpt><trkpt lat="42.9931283" lon="2.351655"><ele>760.3333333333334</ele><time>2026-04-26T04:16:31.729Z</time></trkpt><trkpt lat="42.9931183" lon="2.3514383"><ele>762.0</ele><time>2026-04-26T04:16:32.73Z</time></trkpt><trkpt lat="42.9931067" lon="2.3512267"><ele>763.0</ele><time>2026-04-26T04:16:33.731Z</time></trkpt><trkpt lat="42.9930867" lon="2.3510217"><ele>764.0</ele><time>2026-04-26T04:16:34.728Z</time></trkpt><trkpt lat="42.99307" lon="2.350825"><ele>765.0</ele><time>2026-04-26T04:16:35.73Z</time></trkpt><trkpt lat="42.9930383" lon="2.350615"><ele>763.5</ele><time>2026-04-26T04:16:36.731Z</time></trkpt><trkpt lat="42.9930033" lon="2.3504217"><ele>762.0</ele><time>2026-04-26T04:16:37.728Z</time></trkpt><trkpt lat="42.992955" lon="2.35023"><ele>760.5</ele><time>2026-04-26T04:16:38.729Z</time></trkpt><trkpt lat="42.9929017" lon="2.350035"><ele>759.0</ele><time>2026-04-26T04:16:39.728Z</time></trkpt><trkpt lat="42.9928583" lon="2.3498333"><ele>758.5</ele><time>2026-04-26T04:16:40.729Z</time></trkpt><trkpt lat="42.99283" lon="2.3496417"><ele>758.0</ele><time>2026-04-26T04:16:41.729Z</time></trkpt><trkpt lat="42.992805" lon="2.3494517"><ele>757.5</ele><time>2026-04-26T04:16:42.728Z</time></trkpt><trkpt lat="42.992785" lon="2.3492733"><ele>757.0</ele><time>2026-04-26T04:16:43.733Z</time></trkpt><trkpt lat="42.992765" lon="2.3491083"><ele>757.0</ele><time>2026-04-26T04:16:44.731Z</time></trkpt><trkpt lat="42.9927283" lon="2.3489483"><ele>757.0</ele><time>2026-04-26T04:16:45.73Z</time></trkpt><trkpt lat="42.9926683" lon="2.3488"><ele>757.0</ele><time>2026-04-26T04:16:46.729Z</time></trkpt><trkpt lat="42.9925983" lon="2.3486617"><ele>757.0</ele><time>2026-04-26T04:16:47.729Z</time></trkpt><trkpt lat="42.99252" lon="2.3485317"><ele>756.75</ele><time>2026-04-26T04:16:48.729Z</time></trkpt><trkpt lat="42.9924317" lon="2.3484"><ele>756.5</ele><time>2026-04-26T04:16:49.729Z</time></trkpt><trkpt lat="42.9923367" lon="2.3482633"><ele>756.25</ele><time>2026-04-26T04:16:50.729Z</time></trkpt><trkpt lat="42.9922483" lon="2.3481117"><ele>756.0</ele><time>2026-04-26T04:16:51.729Z</time></trkpt><trkpt lat="42.9921683" lon="2.34792"><ele>756.0</ele><time>2026-04-26T04:16:52.729Z</time></trkpt><trkpt lat="42.99209" lon="2.3477283"><ele>756.0</ele><time>2026-04-26T04:16:53.735Z</time></trkpt><trkpt lat="42.9920133" lon="2.3475383"><ele>756.0</ele><time>2026-04-26T04:16:54.732Z</time></trkpt><trkpt lat="42.9919383" lon="2.3473483"><ele>753.0</ele><time>2026-04-26T04:16:55.728Z</time></trkpt><trkpt lat="42.99188" lon="2.347185"><ele>750.0</ele><time>2026-04-26T04:16:56.731Z</time></trkpt><trkpt lat="42.991815" lon="2.3470133"><ele>747.0</ele><time>2026-04-26T04:16:57.73Z</time></trkpt><trkpt lat="42.9917583" lon="2.346845"><ele>744.0</ele><time>2026-04-26T04:16:58.73Z</time></trkpt><trkpt lat="42.9917167" lon="2.346685"><ele>744.0</ele><time>2026-04-26T04:16:59.733Z</time></trkpt><trkpt lat="42.991675" lon="2.3465167"><ele>744.0</ele><time>2026-04-26T04:17:00.731Z</time></trkpt><trkpt lat="42.9916467" lon="2.3463383"><ele>744.0</ele><time>2026-04-26T04:17:01.729Z</time></trkpt><trkpt lat="42.9916383" lon="2.346175"><ele>744.0</ele><time>2026-04-26T04:17:02.731Z</time></trkpt><trkpt lat="42.991645" lon="2.34601"><ele>744.75</ele><time>2026-04-26T04:17:03.731Z</time></trkpt><trkpt lat="42.991665" lon="2.3458417"><ele>745.5</ele><time>2026-04-26T04:17:04.731Z</time></trkpt><trkpt lat="42.9917067" lon="2.3456917"><ele>746.25</ele><time>2026-04-26T04:17:05.73Z</time></trkpt><trkpt lat="42.9917683" lon="2.34555"><ele>747.0</ele><time>2026-04-26T04:17:06.729Z</time></trkpt><trkpt lat="42.9918483" lon="2.34542"><ele>747.0</ele><time>2026-04-26T04:17:07.729Z</time></trkpt><trkpt lat="42.9919417" lon="2.3453017"><ele>747.0</ele><time>2026-04-26T04:17:08.73Z</time></trkpt><trkpt lat="42.9920433" lon="2.3452017"><ele>747.0</ele><time>2026-04-26T04:17:09.729Z</time></trkpt><trkpt lat="42.9921533" lon="2.3451233"><ele>747.0</ele><time>2026-04-26T04:17:10.731Z</time></trkpt><trkpt lat="42.9922417" lon="2.345055"><ele>747.0</ele><time>2026-04-26T04:17:11.729Z</time></trkpt><trkpt lat="42.992325" lon="2.3449783"><ele>747.0</ele><time>2026-04-26T04:17:12.731Z</time></trkpt><trkpt lat="42.9923817" lon="2.3448783"><ele>747.0</ele><time>2026-04-26T04:17:13.73Z</time></trkpt><trkpt lat="42.9924233" lon="2.3447433"><ele>747.0</ele><time>2026-04-26T04:17:14.73Z</time></trkpt><trkpt lat="42.9924433" lon="2.3445967"><ele>747.0</ele><time>2026-04-26T04:17:15.728Z</time></trkpt><trkpt lat="42.9924317" lon="2.3444383"><ele>747.25</ele><time>2026-04-26T04:17:16.73Z</time></trkpt><trkpt lat="42.9924183" lon="2.3442867"><ele>747.5</ele><time>2026-04-26T04:17:17.731Z</time></trkpt><trkpt lat="42.99242" lon="2.3441283"><ele>747.75</ele><time>2026-04-26T04:17:18.731Z</time></trkpt><trkpt lat="42.992445" lon="2.343965"><ele>748.0</ele><time>2026-04-26T04:17:19.731Z</time></trkpt><trkpt lat="42.9924833" lon="2.3437933"><ele>743.25</ele><time>2026-04-26T04:17:20.73Z</time></trkpt><trkpt lat="42.9925533" lon="2.3436417"><ele>738.5</ele><time>2026-04-26T04:17:21.732Z</time></trkpt><trkpt lat="42.9926133" lon="2.3434933"><ele>733.75</ele><time>2026-04-26T04:17:22.731Z</time></trkpt><trkpt lat="42.9926817" lon="2.3433383"><ele>729.0</ele><time>2026-04-26T04:17:23.729Z</time></trkpt><trkpt lat="42.9927517" lon="2.343185"><ele>730.5</ele><time>2026-04-26T04:17:24.73Z</time></trkpt><trkpt lat="42.992815" lon="2.3430383"><ele>732.0</ele><time>2026-04-26T04:17:25.73Z</time></trkpt><trkpt lat="42.9928817" lon="2.3428883"><ele>733.5</ele><time>2026-04-26T04:17:26.73Z</time></trkpt><trkpt lat="42.9929317" lon="2.3427283"><ele>735.0</ele><time>2026-04-26T04:17:27.73Z</time></trkpt><trkpt lat="42.99297" lon="2.342575"><ele>735.0</ele><time>2026-04-26T04:17:28.73Z</time></trkpt><trkpt lat="42.99302" lon="2.3424317"><ele>735.0</ele><time>2026-04-26T04:17:29.731Z</time></trkpt><trkpt lat="42.9930917" lon="2.3422833"><ele>735.0</ele><time>2026-04-26T04:17:30.73Z</time></trkpt><trkpt lat="42.9931417" lon="2.34213"><ele>735.0</ele><time>2026-04-26T04:17:31.73Z</time></trkpt><trkpt lat="42.9932" lon="2.34195"><ele>735.0</ele><time>2026-04-26T04:17:32.731Z</time></trkpt><trkpt lat="42.99325" lon="2.3417783"><ele>735.0</ele><time>2026-04-26T04:17:33.733Z</time></trkpt><trkpt lat="42.9933083" lon="2.3416117"><ele>735.0</ele><time>2026-04-26T04:17:34.73Z</time></trkpt><trkpt lat="42.993365" lon="2.3414367"><ele>735.0</ele><time>2026-04-26T04:17:35.73Z</time></trkpt><trkpt lat="42.9934217" lon="2.3412717"><ele>735.5</ele><time>2026-04-26T04:17:36.729Z</time></trkpt><trkpt lat="42.99348" lon="2.3411017"><ele>736.0</ele><time>2026-04-26T04:17:37.729Z</time></trkpt><trkpt lat="42.99355" lon="2.340925"><ele>736.5</ele><time>2026-04-26T04:17:38.73Z</time></trkpt><trkpt lat="42.9935967" lon="2.34075"><ele>737.0</ele><time>2026-04-26T04:17:39.73Z</time></trkpt><trkpt lat="42.9936483" lon="2.34058"><ele>734.75</ele><time>2026-04-26T04:17:40.728Z</time></trkpt><trkpt lat="42.9936917" lon="2.340405"><ele>732.5</ele><time>2026-04-26T04:17:41.729Z</time></trkpt><trkpt lat="42.993745" lon="2.34022"><ele>730.25</ele><time>2026-04-26T04:17:42.728Z</time></trkpt><trkpt lat="42.9938067" lon="2.3400417"><ele>728.0</ele><time>2026-04-26T04:17:43.729Z</time></trkpt><trkpt lat="42.9938783" lon="2.3398533"><ele>725.3333333333333</ele><time>2026-04-26T04:17:44.734Z</time></trkpt><trkpt lat="42.9939433" lon="2.339655"><ele>722.6666666666666</ele><time>2026-04-26T04:17:45.728Z</time></trkpt><trkpt lat="42.994005" lon="2.3394483"><ele>720.0</ele><time>2026-04-26T04:17:46.727Z</time></trkpt><trkpt lat="42.9940667" lon="2.339255"><ele>720.0</ele><time>2026-04-26T04:17:47.732Z</time></trkpt><trkpt lat="42.994125" lon="2.3390683"><ele>720.0</ele><time>2026-04-26T04:17:48.731Z</time></trkpt><trkpt lat="42.994175" lon="2.33889"><ele>720.0</ele><time>2026-04-26T04:17:49.73Z</time></trkpt><trkpt lat="42.99422" lon="2.3387233"><ele>720.0</ele><time>2026-04-26T04:17:50.731Z</time></trkpt><trkpt lat="42.99427" lon="2.338575"><ele>719.0</ele><time>2026-04-26T04:17:51.729Z</time></trkpt><trkpt lat="42.9943167" lon="2.3384283"><ele>718.0</ele><time>2026-04-26T04:17:52.73Z</time></trkpt><trkpt lat="42.9943617" lon="2.3382867"><ele>717.0</ele><time>2026-04-26T04:17:53.73Z</time></trkpt><trkpt lat="42.9944083" lon="2.338135"><ele>716.0</ele><time>2026-04-26T04:17:54.73Z</time></trkpt><trkpt lat="42.9944483" lon="2.3379733"><ele>713.5</ele><time>2026-04-26T04:17:55.729Z</time></trkpt><trkpt lat="42.9944733" lon="2.3377983"><ele>711.0</ele><time>2026-04-26T04:17:56.729Z</time></trkpt><trkpt lat="42.9944883" lon="2.337615"><ele>708.5</ele><time>2026-04-26T04:17:57.728Z</time></trkpt><trkpt lat="42.9944967" lon="2.337425"><ele>706.0</ele><time>2026-04-26T04:17:58.728Z</time></trkpt><trkpt lat="42.9945117" lon="2.3372417"><ele>705.25</ele><time>2026-04-26T04:17:59.728Z</time></trkpt><trkpt lat="42.994535" lon="2.3370733"><ele>704.5</ele><time>2026-04-26T04:18:00.729Z</time></trkpt><trkpt lat="42.9945533" lon="2.3369117"><ele>703.75</ele><time>2026-04-26T04:18:01.729Z</time></trkpt><trkpt lat="42.9945583" lon="2.33675"><ele>703.0</ele><time>2026-04-26T04:18:02.729Z</time></trkpt><trkpt lat="42.99455" lon="2.336585"><ele>703.0</ele><time>2026-04-26T04:18:03.728Z</time></trkpt><trkpt lat="42.9945283" lon="2.3364267"><ele>703.0</ele><time>2026-04-26T04:18:04.729Z</time></trkpt><trkpt lat="42.9945067" lon="2.3362717"><ele>703.0</ele><time>2026-04-26T04:18:05.73Z</time></trkpt><trkpt lat="42.9945" lon="2.336115"><ele>703.0</ele><time>2026-04-26T04:18:06.73Z</time></trkpt><trkpt lat="42.994515" lon="2.33595"><ele>702.5</ele><time>2026-04-26T04:18:07.728Z</time></trkpt><trkpt lat="42.9945583" lon="2.3357867"><ele>702.0</ele><time>2026-04-26T04:18:08.729Z</time></trkpt><trkpt lat="42.9946167" lon="2.3356267"><ele>701.5</ele><time>2026-04-26T04:18:09.728Z</time></trkpt><trkpt lat="42.9946817" lon="2.3354617"><ele>701.0</ele><time>2026-04-26T04:18:10.729Z</time></trkpt><trkpt lat="42.994755" lon="2.33529"><ele>701.0</ele><time>2026-04-26T04:18:11.729Z</time></trkpt><trkpt lat="42.9948267" lon="2.335125"><ele>701.0</ele><time>2026-04-26T04:18:12.731Z</time></trkpt><trkpt lat="42.994885" lon="2.33497"><ele>701.0</ele><time>2026-04-26T04:18:13.728Z</time></trkpt><trkpt lat="42.9949267" lon="2.3348167"><ele>701.0</ele><time>2026-04-26T04:18:14.73Z</time></trkpt><trkpt lat="42.994955" lon="2.3346733"><ele>700.75</ele><time>2026-04-26T04:18:15.727Z</time></trkpt><trkpt lat="42.9949767" lon="2.3345333"><ele>700.5</ele><time>2026-04-26T04:18:16.728Z</time></trkpt><trkpt lat="42.9950067" lon="2.334385"><ele>700.25</ele><time>2026-04-26T04:18:17.728Z</time></trkpt><trkpt lat="42.9950483" lon="2.3342333"><ele>700.0</ele><time>2026-04-26T04:18:18.729Z</time></trkpt><trkpt lat="42.9951067" lon="2.334085"><ele>702.5</ele><time>2026-04-26T04:18:19.728Z</time></trkpt><trkpt lat="42.99516" lon="2.3339217"><ele>705.0</ele><time>2026-04-26T04:18:20.729Z</time></trkpt><trkpt lat="42.9952033" lon="2.3337517"><ele>707.5</ele><time>2026-04-26T04:18:21.729Z</time></trkpt><trkpt lat="42.99523" lon="2.3335933"><ele>710.0</ele><time>2026-04-26T04:18:22.73Z</time></trkpt><trkpt lat="42.9952483" lon="2.3334633"><ele>710.4</ele><time>2026-04-26T04:18:23.735Z</time></trkpt><trkpt lat="42.9952533" lon="2.333335"><ele>710.8</ele><time>2026-04-26T04:18:24.729Z</time></trkpt><trkpt lat="42.9952417" lon="2.3332083"><ele>711.2</ele><time>2026-04-26T04:18:25.729Z</time></trkpt><trkpt lat="42.995215" lon="2.3330883"><ele>711.6</ele><time>2026-04-26T04:18:26.732Z</time></trkpt><trkpt lat="42.995175" lon="2.33297"><ele>712.0</ele><time>2026-04-26T04:18:27.728Z</time></trkpt><trkpt lat="42.9951333" lon="2.332865"><ele>712.2</ele><time>2026-04-26T04:18:28.728Z</time></trkpt><trkpt lat="42.9950883" lon="2.3327567"><ele>712.4000000000001</ele><time>2026-04-26T04:18:29.729Z</time></trkpt><trkpt lat="42.99506" lon="2.3326467"><ele>712.5999999999999</ele><time>2026-04-26T04:18:30.728Z</time></trkpt><trkpt lat="42.9950533" lon="2.3325117"><ele>712.8</ele><time>2026-04-26T04:18:31.728Z</time></trkpt><trkpt lat="42.9950533" lon="2.3323667"><ele>713.0</ele><time>2026-04-26T04:18:32.73Z</time></trkpt><trkpt lat="42.9950583" lon="2.332225"><ele>710.5999999999999</ele><time>2026-04-26T04:18:33.728Z</time></trkpt><trkpt lat="42.9950683" lon="2.3320817"><ele>708.1999999999999</ele><time>2026-04-26T04:18:34.728Z</time></trkpt><trkpt lat="42.9950867" lon="2.3319383"><ele>705.8</ele><time>2026-04-26T04:18:35.727Z</time></trkpt><trkpt lat="42.9951167" lon="2.3317967"><ele>703.4</ele><time>2026-04-26T04:18:36.729Z</time></trkpt><trkpt lat="42.9951533" lon="2.3316483"><ele>701.0</ele><time>2026-04-26T04:18:37.728Z</time></trkpt><trkpt lat="42.9951967" lon="2.3315033"><ele>699.0</ele><time>2026-04-26T04:18:38.731Z</time></trkpt><trkpt lat="42.9952433" lon="2.3313617"><ele>697.0</ele><time>2026-04-26T04:18:39.731Z</time></trkpt><trkpt lat="42.9952767" lon="2.3312133"><ele>695.0</ele><time>2026-04-26T04:18:40.729Z</time></trkpt><trkpt lat="42.9952983" lon="2.3310717"><ele>693.0</ele><time>2026-04-26T04:18:41.735Z</time></trkpt><trkpt lat="42.995315" lon="2.3309417"><ele>691.0</ele><time>2026-04-26T04:18:42.729Z</time></trkpt><trkpt lat="42.995315" lon="2.3308233"><ele>691.0</ele><time>2026-04-26T04:18:43.73Z</time></trkpt><trkpt lat="42.9952883" lon="2.330695"><ele>691.0</ele><time>2026-04-26T04:18:45.727Z</time></trkpt><trkpt lat="42.9952333" lon="2.33058"><ele>691.0</ele><time>2026-04-26T04:18:47.729Z</time></trkpt><trkpt lat="42.9951933" lon="2.3304933"><ele>691.0</ele><time>2026-04-26T04:18:48.731Z</time></trkpt><trkpt lat="42.995145" lon="2.3303933"><ele>691.0</ele><time>2026-04-26T04:18:49.729Z</time></trkpt><trkpt lat="42.9950967" lon="2.3302867"><ele>690.8333333333334</ele><time>2026-04-26T04:18:50.733Z</time></trkpt><trkpt lat="42.9950467" lon="2.3301817"><ele>690.6666666666667</ele><time>2026-04-26T04:18:51.727Z</time></trkpt><trkpt lat="42.994995" lon="2.3300867"><ele>690.5</ele><time>2026-04-26T04:18:52.731Z</time></trkpt><trkpt lat="42.9949417" lon="2.3300017"><ele>690.3333333333334</ele><time>2026-04-26T04:18:53.729Z</time></trkpt><trkpt lat="42.9948717" lon="2.329905"><ele>690.1666666666666</ele><time>2026-04-26T04:18:54.728Z</time></trkpt><trkpt lat="42.9948033" lon="2.32984"><ele>690.0</ele><time>2026-04-26T04:18:55.728Z</time></trkpt><trkpt lat="42.9947467" lon="2.32978"><ele>691.2</ele><time>2026-04-26T04:18:56.729Z</time></trkpt><trkpt lat="42.9946983" lon="2.3297233"><ele>692.4</ele><time>2026-04-26T04:18:57.729Z</time></trkpt><trkpt lat="42.99462" lon="2.3295833"><ele>693.5999999999999</ele><time>2026-04-26T04:18:59.731Z</time></trkpt><trkpt lat="42.9945867" lon="2.329485"><ele>694.8</ele><time>2026-04-26T04:19:00.731Z</time></trkpt><trkpt lat="42.99456" lon="2.32936"><ele>696.0</ele><time>2026-04-26T04:19:01.728Z</time></trkpt><trkpt lat="42.9945433" lon="2.3292233"><ele>696.0</ele><time>2026-04-26T04:19:02.732Z</time></trkpt><trkpt lat="42.9945283" lon="2.329085"><ele>696.0</ele><time>2026-04-26T04:19:03.729Z</time></trkpt><trkpt lat="42.9945183" lon="2.3289533"><ele>696.0</ele><time>2026-04-26T04:19:04.729Z</time></trkpt><trkpt lat="42.9945117" lon="2.3288267"><ele>696.0</ele><time>2026-04-26T04:19:05.728Z</time></trkpt><trkpt lat="42.9945117" lon="2.3287133"><ele>696.0</ele><time>2026-04-26T04:19:06.728Z</time></trkpt><trkpt lat="42.9945017" lon="2.3286033"><ele>696.6666666666666</ele><time>2026-04-26T04:19:07.729Z</time></trkpt><trkpt lat="42.9944667" lon="2.3285033"><ele>697.3333333333334</ele><time>2026-04-26T04:19:08.729Z</time></trkpt><trkpt lat="42.994415" lon="2.3284217"><ele>698.0</ele><time>2026-04-26T04:19:09.729Z</time></trkpt><trkpt lat="42.9943517" lon="2.3283717"><ele>698.6666666666667</ele><time>2026-04-26T04:19:10.728Z</time></trkpt><trkpt lat="42.99428" lon="2.32834"><ele>699.3333333333334</ele><time>2026-04-26T04:19:11.728Z</time></trkpt><trkpt lat="42.9942183" lon="2.3282967"><ele>700.0</ele><time>2026-04-26T04:19:12.728Z</time></trkpt><trkpt lat="42.9941617" lon="2.3282267"><ele>694.8</ele><time>2026-04-26T04:19:13.727Z</time></trkpt><trkpt lat="42.9941083" lon="2.328125"><ele>689.6</ele><time>2026-04-26T04:19:14.729Z</time></trkpt><trkpt lat="42.99406" lon="2.3280033"><ele>684.4000000000001</ele><time>2026-04-26T04:19:15.733Z</time></trkpt><trkpt lat="42.994015" lon="2.3278833"><ele>679.2</ele><time>2026-04-26T04:19:16.728Z</time></trkpt><trkpt lat="42.9939617" lon="2.327775"><ele>674.0</ele><time>2026-04-26T04:19:17.729Z</time></trkpt><trkpt lat="42.9938983" lon="2.3276817"><ele>674.0</ele><time>2026-04-26T04:19:18.728Z</time></trkpt><trkpt lat="42.99383" lon="2.3276033"><ele>674.0</ele><time>2026-04-26T04:19:19.729Z</time></trkpt><trkpt lat="42.9937567" lon="2.32755"><ele>674.0</ele><time>2026-04-26T04:19:20.73Z</time></trkpt><trkpt lat="42.993675" lon="2.32752"><ele>674.0</ele><time>2026-04-26T04:19:21.727Z</time></trkpt><trkpt lat="42.9935983" lon="2.3275067"><ele>674.0</ele><time>2026-04-26T04:19:22.728Z</time></trkpt><trkpt lat="42.9935283" lon="2.3275133"><ele>674.0</ele><time>2026-04-26T04:19:23.727Z</time></trkpt><trkpt lat="42.9934367" lon="2.3276217"><ele>674.0</ele><time>2026-04-26T04:19:25.729Z</time></trkpt><trkpt lat="42.9934133" lon="2.3277033"><ele>674.0</ele><time>2026-04-26T04:19:26.73Z</time></trkpt><trkpt lat="42.993425" lon="2.32785"><ele>674.0</ele><time>2026-04-26T04:19:28.733Z</time></trkpt><trkpt lat="42.9934667" lon="2.32792"><ele>674.0</ele><time>2026-04-26T04:19:29.727Z</time></trkpt><trkpt lat="42.9935167" lon="2.32798"><ele>674.0</ele><time>2026-04-26T04:19:30.728Z</time></trkpt><trkpt lat="42.9935717" lon="2.3280367"><ele>674.0</ele><time>2026-04-26T04:19:31.728Z</time></trkpt><trkpt lat="42.9936233" lon="2.3281133"><ele>673.0</ele><time>2026-04-26T04:19:32.732Z</time></trkpt><trkpt lat="42.9936583" lon="2.3282083"><ele>672.0</ele><time>2026-04-26T04:19:33.727Z</time></trkpt><trkpt lat="42.9936817" lon="2.3283167"><ele>671.0</ele><time>2026-04-26T04:19:34.728Z</time></trkpt><trkpt lat="42.9937017" lon="2.328425"><ele>670.0</ele><time>2026-04-26T04:19:35.728Z</time></trkpt><trkpt lat="42.993715" lon="2.3285367"><ele>669.0</ele><time>2026-04-26T04:19:36.729Z</time></trkpt><trkpt lat="42.99375" lon="2.32864"><ele>668.0</ele><time>2026-04-26T04:19:37.729Z</time></trkpt><trkpt lat="42.993795" lon="2.3287217"><ele>668.0</ele><time>2026-04-26T04:19:38.728Z</time></trkpt><trkpt lat="42.9938517" lon="2.3287883"><ele>668.0</ele><time>2026-04-26T04:19:39.729Z</time></trkpt><trkpt lat="42.9938983" lon="2.328855"><ele>668.0</ele><time>2026-04-26T04:19:40.728Z</time></trkpt><trkpt lat="42.9939367" lon="2.32893"><ele>668.0</ele><time>2026-04-26T04:19:41.727Z</time></trkpt><trkpt lat="42.99397" lon="2.3290283"><ele>668.0</ele><time>2026-04-26T04:19:42.728Z</time></trkpt><trkpt lat="42.9939717" lon="2.32914"><ele>668.0</ele><time>2026-04-26T04:19:43.734Z</time></trkpt><trkpt lat="42.9939733" lon="2.3292533"><ele>666.1666666666666</ele><time>2026-04-26T04:19:44.73Z</time></trkpt><trkpt lat="42.9939733" lon="2.3293683"><ele>664.3333333333333</ele><time>2026-04-26T04:19:45.729Z</time></trkpt><trkpt lat="42.993985" lon="2.3294867"><ele>662.5</ele><time>2026-04-26T04:19:46.727Z</time></trkpt><trkpt lat="42.994005" lon="2.3296067"><ele>660.6666666666666</ele><time>2026-04-26T04:19:47.728Z</time></trkpt><trkpt lat="42.9940283" lon="2.3297133"><ele>658.8333333333334</ele><time>2026-04-26T04:19:48.727Z</time></trkpt><trkpt lat="42.9940433" lon="2.3298167"><ele>657.0</ele><time>2026-04-26T04:19:49.732Z</time></trkpt><trkpt lat="42.9940433" lon="2.3299167"><ele>655.8571428571428</ele><time>2026-04-26T04:19:50.728Z</time></trkpt><trkpt lat="42.9940317" lon="2.3300083"><ele>654.7142857142858</ele><time>2026-04-26T04:19:51.729Z</time></trkpt><trkpt lat="42.99402" lon="2.3300967"><ele>653.5714285714286</ele><time>2026-04-26T04:19:52.731Z</time></trkpt><trkpt lat="42.99402" lon="2.3301917"><ele>652.4285714285713</ele><time>2026-04-26T04:19:53.729Z</time></trkpt><trkpt lat="42.99403" lon="2.3302883"><ele>651.2857142857142</ele><time>2026-04-26T04:19:54.728Z</time></trkpt><trkpt lat="42.9940433" lon="2.330385"><ele>650.1428571428571</ele><time>2026-04-26T04:19:55.728Z</time></trkpt><trkpt lat="42.994055" lon="2.3304883"><ele>649.0</ele><time>2026-04-26T04:19:56.729Z</time></trkpt><trkpt lat="42.9940667" lon="2.330595"><ele>648.2</ele><time>2026-04-26T04:19:57.729Z</time></trkpt><trkpt lat="42.9940617" lon="2.330685"><ele>647.4000000000001</ele><time>2026-04-26T04:19:58.729Z</time></trkpt><trkpt lat="42.994045" lon="2.330775"><ele>646.6</ele><time>2026-04-26T04:19:59.728Z</time></trkpt><trkpt lat="42.9939733" lon="2.330945"><ele>645.8</ele><time>2026-04-26T04:20:01.728Z</time></trkpt><trkpt lat="42.9939467" lon="2.3310483"><ele>645.0</ele><time>2026-04-26T04:20:02.729Z</time></trkpt><trkpt lat="42.9939183" lon="2.3311683"><ele>645.0</ele><time>2026-04-26T04:20:03.727Z</time></trkpt><trkpt lat="42.99389" lon="2.331295"><ele>645.0</ele><time>2026-04-26T04:20:04.729Z</time></trkpt><trkpt lat="42.99386" lon="2.3314183"><ele>645.0</ele><time>2026-04-26T04:20:05.728Z</time></trkpt><trkpt lat="42.9938283" lon="2.3315283"><ele>645.0</ele><time>2026-04-26T04:20:06.729Z</time></trkpt><trkpt lat="42.9937883" lon="2.3316167"><ele>645.0</ele><time>2026-04-26T04:20:07.729Z</time></trkpt><trkpt lat="42.99374" lon="2.331675"><ele>645.0</ele><time>2026-04-26T04:20:08.732Z</time></trkpt><trkpt lat="42.993645" lon="2.33164"><ele>645.0</ele><time>2026-04-26T04:20:10.729Z</time></trkpt><trkpt lat="42.9936067" lon="2.3315683"><ele>645.0</ele><time>2026-04-26T04:20:11.729Z</time></trkpt><trkpt lat="42.9935667" lon="2.3314683"><ele>645.0</ele><time>2026-04-26T04:20:12.73Z</time></trkpt><trkpt lat="42.9935233" lon="2.3313683"><ele>645.0</ele><time>2026-04-26T04:20:13.728Z</time></trkpt><trkpt lat="42.9934667" lon="2.3312867"><ele>645.0</ele><time>2026-04-26T04:20:14.73Z</time></trkpt><trkpt lat="42.9934067" lon="2.331215"><ele>645.0</ele><time>2026-04-26T04:20:15.729Z</time></trkpt><trkpt lat="42.99333" lon="2.3311533"><ele>637.6</ele><time>2026-04-26T04:20:16.731Z</time></trkpt><trkpt lat="42.9932467" lon="2.331105"><ele>630.2</ele><time>2026-04-26T04:20:17.728Z</time></trkpt><trkpt lat="42.993155" lon="2.331065"><ele>622.8</ele><time>2026-04-26T04:20:18.73Z</time></trkpt><trkpt lat="42.993065" lon="2.3310417"><ele>615.4</ele><time>2026-04-26T04:20:19.729Z</time></trkpt><trkpt lat="42.99297" lon="2.3310467"><ele>608.0</ele><time>2026-04-26T04:20:20.73Z</time></trkpt><trkpt lat="42.99288" lon="2.3310683"><ele>608.0</ele><time>2026-04-26T04:20:21.73Z</time></trkpt><trkpt lat="42.9927883" lon="2.3311083"><ele>608.0</ele><time>2026-04-26T04:20:22.729Z</time></trkpt><trkpt lat="42.9927017" lon="2.3311483"><ele>608.0</ele><time>2026-04-26T04:20:23.73Z</time></trkpt><trkpt lat="42.992625" lon="2.3311567"><ele>608.0</ele><time>2026-04-26T04:20:24.729Z</time></trkpt><trkpt lat="42.992545" lon="2.331135"><ele>608.0</ele><time>2026-04-26T04:20:25.73Z</time></trkpt><trkpt lat="42.9924583" lon="2.331115"><ele>608.0</ele><time>2026-04-26T04:20:26.729Z</time></trkpt><trkpt lat="42.9923717" lon="2.3311117"><ele>604.1999999999999</ele><time>2026-04-26T04:20:27.728Z</time></trkpt><trkpt lat="42.9922783" lon="2.3311383"><ele>600.4</ele><time>2026-04-26T04:20:28.729Z</time></trkpt><trkpt lat="42.9921883" lon="2.331175"><ele>596.5999999999999</ele><time>2026-04-26T04:20:29.73Z</time></trkpt><trkpt lat="42.9921" lon="2.3312183"><ele>592.8</ele><time>2026-04-26T04:20:30.73Z</time></trkpt><trkpt lat="42.9920117" lon="2.33126"><ele>589.0</ele><time>2026-04-26T04:20:31.734Z</time></trkpt><trkpt lat="42.99192" lon="2.3313017"><ele>589.0</ele><time>2026-04-26T04:20:32.729Z</time></trkpt><trkpt lat="42.9918233" lon="2.3313133"><ele>589.0</ele><time>2026-04-26T04:20:33.729Z</time></trkpt><trkpt lat="42.9917133" lon="2.3313117"><ele>589.0</ele><time>2026-04-26T04:20:34.728Z</time></trkpt><trkpt lat="42.9916067" lon="2.331295"><ele>589.0</ele><time>2026-04-26T04:20:35.731Z</time></trkpt><trkpt lat="42.9915" lon="2.33128"><ele>589.0</ele><time>2026-04-26T04:20:36.732Z</time></trkpt><trkpt lat="42.9913933" lon="2.3312667"><ele>586.0</ele><time>2026-04-26T04:20:37.73Z</time></trkpt><trkpt lat="42.9912833" lon="2.3312433"><ele>583.0</ele><time>2026-04-26T04:20:38.729Z</time></trkpt><trkpt lat="42.9911767" lon="2.3312033"><ele>580.0</ele><time>2026-04-26T04:20:39.729Z</time></trkpt><trkpt lat="42.99107" lon="2.3311567"><ele>577.0</ele><time>2026-04-26T04:20:40.728Z</time></trkpt><trkpt lat="42.9909667" lon="2.3310967"><ele>574.0</ele><time>2026-04-26T04:20:41.729Z</time></trkpt><trkpt lat="42.990865" lon="2.3310283"><ele>575.75</ele><time>2026-04-26T04:20:42.729Z</time></trkpt><trkpt lat="42.990765" lon="2.3309483"><ele>577.5</ele><time>2026-04-26T04:20:43.73Z</time></trkpt><trkpt lat="42.9906683" lon="2.33086"><ele>579.25</ele><time>2026-04-26T04:20:44.73Z</time></trkpt><trkpt lat="42.9905733" lon="2.330775"><ele>581.0</ele><time>2026-04-26T04:20:45.73Z</time></trkpt><trkpt lat="42.99048" lon="2.3307"><ele>581.0</ele><time>2026-04-26T04:20:46.729Z</time></trkpt><trkpt lat="42.9903767" lon="2.33064"><ele>581.0</ele><time>2026-04-26T04:20:47.729Z</time></trkpt><trkpt lat="42.9902717" lon="2.33058"><ele>581.0</ele><time>2026-04-26T04:20:48.728Z</time></trkpt><trkpt lat="42.9901783" lon="2.33054"><ele>581.0</ele><time>2026-04-26T04:20:49.731Z</time></trkpt><trkpt lat="42.9900933" lon="2.3305033"><ele>581.0</ele><time>2026-04-26T04:20:50.729Z</time></trkpt><trkpt lat="42.99001" lon="2.33049"><ele>580.0</ele><time>2026-04-26T04:20:51.729Z</time></trkpt><trkpt lat="42.9899367" lon="2.330495"><ele>579.0</ele><time>2026-04-26T04:20:52.73Z</time></trkpt><trkpt lat="42.9898667" lon="2.3305333"><ele>578.0</ele><time>2026-04-26T04:20:53.733Z</time></trkpt><trkpt lat="42.98979" lon="2.3306"><ele>577.0</ele><time>2026-04-26T04:20:54.729Z</time></trkpt><trkpt lat="42.98972" lon="2.3306817"><ele>576.0</ele><time>2026-04-26T04:20:55.729Z</time></trkpt><trkpt lat="42.98965" lon="2.330795"><ele>575.0</ele><time>2026-04-26T04:20:56.729Z</time></trkpt><trkpt lat="42.98958" lon="2.330925"><ele>575.0</ele><time>2026-04-26T04:20:57.73Z</time></trkpt><trkpt lat="42.9895117" lon="2.3310417"><ele>575.0</ele><time>2026-04-26T04:20:58.731Z</time></trkpt><trkpt lat="42.989435" lon="2.33115"><ele>575.0</ele><time>2026-04-26T04:20:59.732Z</time></trkpt><trkpt lat="42.98936" lon="2.331255"><ele>575.0</ele><time>2026-04-26T04:21:00.729Z</time></trkpt><trkpt lat="42.989285" lon="2.3313533"><ele>575.0</ele><time>2026-04-26T04:21:01.734Z</time></trkpt><trkpt lat="42.98921" lon="2.331445"><ele>571.4</ele><time>2026-04-26T04:21:02.731Z</time></trkpt><trkpt lat="42.9891417" lon="2.3315417"><ele>567.8</ele><time>2026-04-26T04:21:03.732Z</time></trkpt><trkpt lat="42.9890817" lon="2.3316483"><ele>564.2</ele><time>2026-04-26T04:21:04.731Z</time></trkpt><trkpt lat="42.9890317" lon="2.3317683"><ele>560.6</ele><time>2026-04-26T04:21:05.732Z</time></trkpt><trkpt lat="42.988985" lon="2.3318883"><ele>557.0</ele><time>2026-04-26T04:21:06.727Z</time></trkpt><trkpt lat="42.98895" lon="2.33201"><ele>557.0</ele><time>2026-04-26T04:21:07.729Z</time></trkpt><trkpt lat="42.98892" lon="2.3321367"><ele>557.0</ele><time>2026-04-26T04:21:08.73Z</time></trkpt><trkpt lat="42.9888917" lon="2.332265"><ele>557.0</ele><time>2026-04-26T04:21:09.73Z</time></trkpt><trkpt lat="42.9888483" lon="2.3323833"><ele>557.0</ele><time>2026-04-26T04:21:10.729Z</time></trkpt><trkpt lat="42.9887933" lon="2.3324933"><ele>557.0</ele><time>2026-04-26T04:21:11.73Z</time></trkpt><trkpt lat="42.9887333" lon="2.3325967"><ele>558.1666666666666</ele><time>2026-04-26T04:21:12.73Z</time></trkpt><trkpt lat="42.98868" lon="2.3326883"><ele>559.3333333333333</ele><time>2026-04-26T04:21:13.729Z</time></trkpt><trkpt lat="42.988645" lon="2.3327733"><ele>560.5</ele><time>2026-04-26T04:21:14.731Z</time></trkpt><trkpt lat="42.9886317" lon="2.3328617"><ele>561.6666666666666</ele><time>2026-04-26T04:21:15.729Z</time></trkpt><trkpt lat="42.988645" lon="2.332995"><ele>562.8333333333334</ele><time>2026-04-26T04:21:17.73Z</time></trkpt><trkpt lat="42.988605" lon="2.333065"><ele>564.0</ele><time>2026-04-26T04:21:21.728Z</time></trkpt><trkpt lat="42.98858" lon="2.3329683"><ele>564.5</ele><time>2026-04-26T04:21:23.729Z</time></trkpt><trkpt lat="42.9885733" lon="2.3328783"><ele>565.0</ele><time>2026-04-26T04:21:24.728Z</time></trkpt><trkpt lat="42.9885683" lon="2.3327633"><ele>565.5</ele><time>2026-04-26T04:21:25.735Z</time></trkpt><trkpt lat="42.9885717" lon="2.3326383"><ele>566.0</ele><time>2026-04-26T04:21:26.729Z</time></trkpt><trkpt lat="42.9886017" lon="2.3325167"><ele>566.5</ele><time>2026-04-26T04:21:27.728Z</time></trkpt><trkpt lat="42.9886483" lon="2.3323867"><ele>567.0</ele><time>2026-04-26T04:21:28.729Z</time></trkpt><trkpt lat="42.9886883" lon="2.332235"><ele>564.5</ele><time>2026-04-26T04:21:29.73Z</time></trkpt><trkpt lat="42.988725" lon="2.3320783"><ele>562.0</ele><time>2026-04-26T04:21:30.729Z</time></trkpt><trkpt lat="42.9887533" lon="2.33192"><ele>559.5</ele><time>2026-04-26T04:21:31.728Z</time></trkpt><trkpt lat="42.9887817" lon="2.331755"><ele>557.0</ele><time>2026-04-26T04:21:32.729Z</time></trkpt><trkpt lat="42.988815" lon="2.3315883"><ele>557.0</ele><time>2026-04-26T04:21:33.728Z</time></trkpt><trkpt lat="42.9888583" lon="2.3314233"><ele>557.0</ele><time>2026-04-26T04:21:34.729Z</time></trkpt><trkpt lat="42.9889133" lon="2.3312633"><ele>557.0</ele><time>2026-04-26T04:21:35.728Z</time></trkpt><trkpt lat="42.98898" lon="2.3311067"><ele>557.0</ele><time>2026-04-26T04:21:36.728Z</time></trkpt><trkpt lat="42.9890533" lon="2.3309467"><ele>553.5</ele><time>2026-04-26T04:21:37.728Z</time></trkpt><trkpt lat="42.9891233" lon="2.3307783"><ele>550.0</ele><time>2026-04-26T04:21:38.73Z</time></trkpt><trkpt lat="42.9891883" lon="2.3306083"><ele>546.5</ele><time>2026-04-26T04:21:39.728Z</time></trkpt><trkpt lat="42.9892483" lon="2.3304433"><ele>543.0</ele><time>2026-04-26T04:21:40.728Z</time></trkpt><trkpt lat="42.9893083" lon="2.3302783"><ele>543.0</ele><time>2026-04-26T04:21:41.729Z</time></trkpt><trkpt lat="42.9893717" lon="2.3301133"><ele>543.0</ele><time>2026-04-26T04:21:42.728Z</time></trkpt><trkpt lat="42.9894483" lon="2.3299583"><ele>543.0</ele><time>2026-04-26T04:21:43.729Z</time></trkpt><trkpt lat="42.9895333" lon="2.32981"><ele>543.0</ele><time>2026-04-26T04:21:44.728Z</time></trkpt><trkpt lat="42.9896233" lon="2.3296767"><ele>540.0</ele><time>2026-04-26T04:21:45.729Z</time></trkpt><trkpt lat="42.9897167" lon="2.3295633"><ele>537.0</ele><time>2026-04-26T04:21:46.728Z</time></trkpt><trkpt lat="42.9898" lon="2.3294667"><ele>534.0</ele><time>2026-04-26T04:21:47.727Z</time></trkpt><trkpt lat="42.9898667" lon="2.329365"><ele>531.0</ele><time>2026-04-26T04:21:48.729Z</time></trkpt><trkpt lat="42.9899167" lon="2.329245"><ele>528.0</ele><time>2026-04-26T04:21:49.727Z</time></trkpt><trkpt lat="42.9899367" lon="2.3290967"><ele>528.0</ele><time>2026-04-26T04:21:50.728Z</time></trkpt><trkpt lat="42.9899433" lon="2.32894"><ele>528.0</ele><time>2026-04-26T04:21:51.728Z</time></trkpt><trkpt lat="42.989945" lon="2.3287783"><ele>528.0</ele><time>2026-04-26T04:21:52.729Z</time></trkpt><trkpt lat="42.9899317" lon="2.328615"><ele>528.0</ele><time>2026-04-26T04:21:53.727Z</time></trkpt><trkpt lat="42.9899017" lon="2.3284517"><ele>529.0</ele><time>2026-04-26T04:21:54.729Z</time></trkpt><trkpt lat="42.9898583" lon="2.3282817"><ele>530.0</ele><time>2026-04-26T04:21:55.729Z</time></trkpt><trkpt lat="42.989805" lon="2.3281083"><ele>531.0</ele><time>2026-04-26T04:21:56.728Z</time></trkpt><trkpt lat="42.9897517" lon="2.3279367"><ele>532.0</ele><time>2026-04-26T04:21:57.727Z</time></trkpt><trkpt lat="42.9897" lon="2.3277667"><ele>531.75</ele><time>2026-04-26T04:21:58.727Z</time></trkpt><trkpt lat="42.9896483" lon="2.3276017"><ele>531.5</ele><time>2026-04-26T04:21:59.727Z</time></trkpt><trkpt lat="42.9895967" lon="2.3274417"><ele>531.25</ele><time>2026-04-26T04:22:00.728Z</time></trkpt><trkpt lat="42.9895383" lon="2.32728"><ele>531.0</ele><time>2026-04-26T04:22:01.729Z</time></trkpt><trkpt lat="42.9894867" lon="2.3271283"><ele>531.0</ele><time>2026-04-26T04:22:02.732Z</time></trkpt><trkpt lat="42.9894567" lon="2.32698"><ele>531.0</ele><time>2026-04-26T04:22:03.729Z</time></trkpt><trkpt lat="42.9894567" lon="2.3268383"><ele>531.0</ele><time>2026-04-26T04:22:04.73Z</time></trkpt><trkpt lat="42.98949" lon="2.3266933"><ele>531.0</ele><time>2026-04-26T04:22:05.729Z</time></trkpt><trkpt lat="42.989545" lon="2.3265467"><ele>531.0</ele><time>2026-04-26T04:22:06.729Z</time></trkpt><trkpt lat="42.98962" lon="2.3264083"><ele>525.5</ele><time>2026-04-26T04:22:07.729Z</time></trkpt><trkpt lat="42.9897033" lon="2.3262683"><ele>520.0</ele><time>2026-04-26T04:22:08.73Z</time></trkpt><trkpt lat="42.9897867" lon="2.3261183"><ele>514.5</ele><time>2026-04-26T04:22:09.729Z</time></trkpt><trkpt lat="42.9898683" lon="2.3259733"><ele>509.0</ele><time>2026-04-26T04:22:10.73Z</time></trkpt><trkpt lat="42.9899483" lon="2.325835"><ele>513.75</ele><time>2026-04-26T04:22:11.728Z</time></trkpt><trkpt lat="42.9900233" lon="2.3257017"><ele>518.5</ele><time>2026-04-26T04:22:12.731Z</time></trkpt><trkpt lat="42.9900983" lon="2.32557"><ele>523.25</ele><time>2026-04-26T04:22:13.731Z</time></trkpt><trkpt lat="42.9901717" lon="2.3254417"><ele>528.0</ele><time>2026-04-26T04:22:14.729Z</time></trkpt><trkpt lat="42.9902417" lon="2.32531"><ele>528.0</ele><time>2026-04-26T04:22:15.73Z</time></trkpt><trkpt lat="42.990295" lon="2.3251633"><ele>528.0</ele><time>2026-04-26T04:22:16.728Z</time></trkpt><trkpt lat="42.9903333" lon="2.3250017"><ele>528.0</ele><time>2026-04-26T04:22:17.733Z</time></trkpt><trkpt lat="42.99036" lon="2.3248333"><ele>528.0</ele><time>2026-04-26T04:22:18.728Z</time></trkpt><trkpt lat="42.9903883" lon="2.3246717"><ele>526.5</ele><time>2026-04-26T04:22:19.728Z</time></trkpt><trkpt lat="42.9904167" lon="2.3245117"><ele>525.0</ele><time>2026-04-26T04:22:20.729Z</time></trkpt><trkpt lat="42.99044" lon="2.32435"><ele>523.5</ele><time>2026-04-26T04:22:21.729Z</time></trkpt><trkpt lat="42.990445" lon="2.32418"><ele>522.0</ele><time>2026-04-26T04:22:22.729Z</time></trkpt><trkpt lat="42.990415" lon="2.324005"><ele>525.5</ele><time>2026-04-26T04:22:23.728Z</time></trkpt><trkpt lat="42.9903667" lon="2.323835"><ele>529.0</ele><time>2026-04-26T04:22:24.729Z</time></trkpt><trkpt lat="42.9902983" lon="2.3236667"><ele>532.5</ele><time>2026-04-26T04:22:25.729Z</time></trkpt><trkpt lat="42.9902233" lon="2.3234983"><ele>536.0</ele><time>2026-04-26T04:22:26.729Z</time></trkpt><trkpt lat="42.99015" lon="2.3233317"><ele>536.0</ele><time>2026-04-26T04:22:27.729Z</time></trkpt><trkpt lat="42.99008" lon="2.3231683"><ele>536.0</ele><time>2026-04-26T04:22:28.73Z</time></trkpt><trkpt lat="42.99002" lon="2.32301"><ele>536.0</ele><time>2026-04-26T04:22:29.729Z</time></trkpt><trkpt lat="42.9899667" lon="2.3228467"><ele>536.0</ele><time>2026-04-26T04:22:30.729Z</time></trkpt><trkpt lat="42.9899217" lon="2.3226733"><ele>529.25</ele><time>2026-04-26T04:22:31.728Z</time></trkpt><trkpt lat="42.9898817" lon="2.3224917"><ele>522.5</ele><time>2026-04-26T04:22:32.729Z</time></trkpt><trkpt lat="42.9898517" lon="2.3223067"><ele>515.75</ele><time>2026-04-26T04:22:33.729Z</time></trkpt><trkpt lat="42.9898267" lon="2.3221267"><ele>509.0</ele><time>2026-04-26T04:22:34.728Z</time></trkpt><trkpt lat="42.989805" lon="2.321955"><ele>509.0</ele><time>2026-04-26T04:22:35.733Z</time></trkpt><trkpt lat="42.9897817" lon="2.3217867"><ele>509.0</ele><time>2026-04-26T04:22:36.73Z</time></trkpt><trkpt lat="42.9897583" lon="2.3216233"><ele>509.0</ele><time>2026-04-26T04:22:37.73Z</time></trkpt><trkpt lat="42.989735" lon="2.3214633"><ele>509.0</ele><time>2026-04-26T04:22:38.73Z</time></trkpt><trkpt lat="42.9897017" lon="2.321305"><ele>511.5</ele><time>2026-04-26T04:22:39.731Z</time></trkpt><trkpt lat="42.9896583" lon="2.3211483"><ele>514.0</ele><time>2026-04-26T04:22:40.732Z</time></trkpt><trkpt lat="42.9896" lon="2.3209983"><ele>516.5</ele><time>2026-04-26T04:22:41.728Z</time></trkpt><trkpt lat="42.9895267" lon="2.320855"><ele>519.0</ele><time>2026-04-26T04:22:42.728Z</time></trkpt><trkpt lat="42.9894317" lon="2.320725"><ele>519.0</ele><time>2026-04-26T04:22:43.729Z</time></trkpt><trkpt lat="42.989325" lon="2.3206133"><ele>519.0</ele><time>2026-04-26T04:22:44.729Z</time></trkpt><trkpt lat="42.9892033" lon="2.3205183"><ele>519.0</ele><time>2026-04-26T04:22:45.733Z</time></trkpt><trkpt lat="42.9890717" lon="2.3204483"><ele>519.0</ele><time>2026-04-26T04:22:46.73Z</time></trkpt><trkpt lat="42.98894" lon="2.3203967"><ele>518.0</ele><time>2026-04-26T04:22:47.728Z</time></trkpt><trkpt lat="42.988805" lon="2.3203683"><ele>517.0</ele><time>2026-04-26T04:22:48.728Z</time></trkpt><trkpt lat="42.9886667" lon="2.3203617"><ele>516.0</ele><time>2026-04-26T04:22:49.728Z</time></trkpt><trkpt lat="42.988525" lon="2.320365"><ele>515.0</ele><time>2026-04-26T04:22:50.729Z</time></trkpt><trkpt lat="42.9883883" lon="2.3203633"><ele>509.75</ele><time>2026-04-26T04:22:51.729Z</time></trkpt><trkpt lat="42.98826" lon="2.32036"><ele>504.5</ele><time>2026-04-26T04:22:52.728Z</time></trkpt><trkpt lat="42.9881433" lon="2.3203433"><ele>499.25</ele><time>2026-04-26T04:22:53.728Z</time></trkpt><trkpt lat="42.9880383" lon="2.320295"><ele>494.0</ele><time>2026-04-26T04:22:54.727Z</time></trkpt><trkpt lat="42.9879383" lon="2.32023"><ele>494.0</ele><time>2026-04-26T04:22:55.728Z</time></trkpt><trkpt lat="42.987835" lon="2.3201533"><ele>494.0</ele><time>2026-04-26T04:22:56.728Z</time></trkpt><trkpt lat="42.9877183" lon="2.3201083"><ele>494.0</ele><time>2026-04-26T04:22:57.729Z</time></trkpt><trkpt lat="42.9875917" lon="2.32008"><ele>494.0</ele><time>2026-04-26T04:22:58.728Z</time></trkpt><trkpt lat="42.987455" lon="2.3200633"><ele>491.0</ele><time>2026-04-26T04:22:59.734Z</time></trkpt><trkpt lat="42.9873133" lon="2.320065"><ele>488.0</ele><time>2026-04-26T04:23:00.73Z</time></trkpt><trkpt lat="42.98717" lon="2.3200583"><ele>485.0</ele><time>2026-04-26T04:23:01.728Z</time></trkpt><trkpt lat="42.9870267" lon="2.3200517"><ele>482.0</ele><time>2026-04-26T04:23:02.73Z</time></trkpt><trkpt lat="42.9868883" lon="2.32005"><ele>482.0</ele><time>2026-04-26T04:23:03.727Z</time></trkpt><trkpt lat="42.9867567" lon="2.32005"><ele>482.0</ele><time>2026-04-26T04:23:04.728Z</time></trkpt><trkpt lat="42.9866367" lon="2.3200517"><ele>482.0</ele><time>2026-04-26T04:23:05.728Z</time></trkpt><trkpt lat="42.9865267" lon="2.32005"><ele>482.0</ele><time>2026-04-26T04:23:06.728Z</time></trkpt><trkpt lat="42.986425" lon="2.3200383"><ele>483.0</ele><time>2026-04-26T04:23:07.727Z</time></trkpt><trkpt lat="42.986335" lon="2.3200017"><ele>484.00000000000006</ele><time>2026-04-26T04:23:08.728Z</time></trkpt><trkpt lat="42.9862633" lon="2.31992"><ele>485.00000000000006</ele><time>2026-04-26T04:23:09.737Z</time></trkpt><trkpt lat="42.986215" lon="2.3197967"><ele>486.0</ele><time>2026-04-26T04:23:10.727Z</time></trkpt><trkpt lat="42.9861883" lon="2.319645"><ele>487.0</ele><time>2026-04-26T04:23:11.728Z</time></trkpt><trkpt lat="42.986175" lon="2.3194733"><ele>487.0</ele><time>2026-04-26T04:23:12.727Z</time></trkpt><trkpt lat="42.9861783" lon="2.3192917"><ele>487.0</ele><time>2026-04-26T04:23:13.727Z</time></trkpt><trkpt lat="42.9861867" lon="2.3191117"><ele>487.0</ele><time>2026-04-26T04:23:14.73Z</time></trkpt><trkpt lat="42.9861983" lon="2.31893"><ele>487.0</ele><time>2026-04-26T04:23:15.728Z</time></trkpt><trkpt lat="42.98621" lon="2.3187467"><ele>488.0</ele><time>2026-04-26T04:23:16.727Z</time></trkpt><trkpt lat="42.98622" lon="2.3185583"><ele>489.0</ele><time>2026-04-26T04:23:17.728Z</time></trkpt><trkpt lat="42.9862233" lon="2.3183683"><ele>490.0</ele><time>2026-04-26T04:23:18.729Z</time></trkpt><trkpt lat="42.986215" lon="2.3181767"><ele>491.0</ele><time>2026-04-26T04:23:19.728Z</time></trkpt><trkpt lat="42.9861967" lon="2.317985"><ele>491.25</ele><time>2026-04-26T04:23:20.73Z</time></trkpt><trkpt lat="42.986175" lon="2.3177933"><ele>491.5</ele><time>2026-04-26T04:23:21.727Z</time></trkpt><trkpt lat="42.986145" lon="2.3176017"><ele>491.75</ele><time>2026-04-26T04:23:22.729Z</time></trkpt><trkpt lat="42.9860983" lon="2.3174167"><ele>492.0</ele><time>2026-04-26T04:23:23.729Z</time></trkpt><trkpt lat="42.9860417" lon="2.3172383"><ele>490.25</ele><time>2026-04-26T04:23:24.728Z</time></trkpt><trkpt lat="42.985975" lon="2.3170667"><ele>488.5</ele><time>2026-04-26T04:23:25.731Z</time></trkpt><trkpt lat="42.9859083" lon="2.3169"><ele>486.75</ele><time>2026-04-26T04:23:26.728Z</time></trkpt><trkpt lat="42.9858417" lon="2.3167383"><ele>485.0</ele><time>2026-04-26T04:23:27.728Z</time></trkpt><trkpt lat="42.9857633" lon="2.3165917"><ele>476.75</ele><time>2026-04-26T04:23:28.727Z</time></trkpt><trkpt lat="42.9856817" lon="2.3164567"><ele>468.5</ele><time>2026-04-26T04:23:29.731Z</time></trkpt><trkpt lat="42.9856033" lon="2.3163267"><ele>460.25</ele><time>2026-04-26T04:23:30.73Z</time></trkpt><trkpt lat="42.9855317" lon="2.3162083"><ele>452.0</ele><time>2026-04-26T04:23:31.728Z</time></trkpt><trkpt lat="42.9854767" lon="2.316095"><ele>450.6</ele><time>2026-04-26T04:23:32.728Z</time></trkpt><trkpt lat="42.9854433" lon="2.31598"><ele>449.20000000000005</ele><time>2026-04-26T04:23:33.728Z</time></trkpt><trkpt lat="42.98544" lon="2.31586"><ele>447.8</ele><time>2026-04-26T04:23:34.728Z</time></trkpt><trkpt lat="42.9854683" lon="2.3157383"><ele>446.4</ele><time>2026-04-26T04:23:35.729Z</time></trkpt><trkpt lat="42.98554" lon="2.3156517"><ele>445.0</ele><time>2026-04-26T04:23:36.73Z</time></trkpt><trkpt lat="42.98562" lon="2.3155867"><ele>442.5</ele><time>2026-04-26T04:23:37.729Z</time></trkpt><trkpt lat="42.9857333" lon="2.315555"><ele>440.0</ele><time>2026-04-26T04:23:38.729Z</time></trkpt><trkpt lat="42.9858633" lon="2.31554"><ele>437.5</ele><time>2026-04-26T04:23:39.729Z</time></trkpt><trkpt lat="42.9859933" lon="2.315525"><ele>435.0</ele><time>2026-04-26T04:23:40.728Z</time></trkpt><trkpt lat="42.9861217" lon="2.3155167"><ele>439.6</ele><time>2026-04-26T04:23:41.727Z</time></trkpt><trkpt lat="42.986245" lon="2.3155133"><ele>444.2</ele><time>2026-04-26T04:23:42.728Z</time></trkpt><trkpt lat="42.9863533" lon="2.3155017"><ele>448.79999999999995</ele><time>2026-04-26T04:23:43.729Z</time></trkpt><trkpt lat="42.9864517" lon="2.315475"><ele>453.4</ele><time>2026-04-26T04:23:44.73Z</time></trkpt><trkpt lat="42.98653" lon="2.315425"><ele>458.0</ele><time>2026-04-26T04:23:45.728Z</time></trkpt><trkpt lat="42.9865933" lon="2.31535"><ele>458.0</ele><time>2026-04-26T04:23:46.728Z</time></trkpt><trkpt lat="42.9865917" lon="2.315225"><ele>457.99999999999994</ele><time>2026-04-26T04:23:47.73Z</time></trkpt><trkpt lat="42.9865617" lon="2.31511"><ele>457.99999999999994</ele><time>2026-04-26T04:23:48.73Z</time></trkpt><trkpt lat="42.9864983" lon="2.3150017"><ele>458.0</ele><time>2026-04-26T04:23:49.728Z</time></trkpt><trkpt lat="42.9864" lon="2.31491"><ele>458.0</ele><time>2026-04-26T04:23:50.728Z</time></trkpt><trkpt lat="42.986285" lon="2.3148367"><ele>458.0</ele><time>2026-04-26T04:23:51.728Z</time></trkpt><trkpt lat="42.9861633" lon="2.3147917"><ele>458.0</ele><time>2026-04-26T04:23:52.727Z</time></trkpt><trkpt lat="42.9860467" lon="2.3147617"><ele>458.0</ele><time>2026-04-26T04:23:53.728Z</time></trkpt><trkpt lat="42.985935" lon="2.3147467"><ele>458.0</ele><time>2026-04-26T04:23:54.728Z</time></trkpt><trkpt lat="42.9858333" lon="2.314725"><ele>454.8333333333333</ele><time>2026-04-26T04:23:55.727Z</time></trkpt><trkpt lat="42.9857433" lon="2.3146933"><ele>451.66666666666663</ele><time>2026-04-26T04:23:56.728Z</time></trkpt><trkpt lat="42.9856667" lon="2.314635"><ele>448.5</ele><time>2026-04-26T04:23:57.727Z</time></trkpt><trkpt lat="42.985635" lon="2.3145333"><ele>445.33333333333337</ele><time>2026-04-26T04:23:58.73Z</time></trkpt><trkpt lat="42.9856317" lon="2.3144183"><ele>442.1666666666667</ele><time>2026-04-26T04:23:59.727Z</time></trkpt><trkpt lat="42.9856733" lon="2.3143067"><ele>439.0</ele><time>2026-04-26T04:24:00.728Z</time></trkpt><trkpt lat="42.9857333" lon="2.314195"><ele>439.00000000000006</ele><time>2026-04-26T04:24:01.729Z</time></trkpt><trkpt lat="42.9857933" lon="2.3140883"><ele>439.0</ele><time>2026-04-26T04:24:02.728Z</time></trkpt><trkpt lat="42.9858367" lon="2.3139783"><ele>439.0</ele><time>2026-04-26T04:24:03.728Z</time></trkpt><trkpt lat="42.98586" lon="2.3138683"><ele>439.0</ele><time>2026-04-26T04:24:04.729Z</time></trkpt><trkpt lat="42.9858667" lon="2.31376"><ele>439.00000000000006</ele><time>2026-04-26T04:24:05.729Z</time></trkpt><trkpt lat="42.9858483" lon="2.3136567"><ele>439.0</ele><time>2026-04-26T04:24:06.728Z</time></trkpt><trkpt lat="42.9857533" lon="2.3136283"><ele>442.0</ele><time>2026-04-26T04:24:07.733Z</time></trkpt><trkpt lat="42.98566" lon="2.31362"><ele>445.0</ele><time>2026-04-26T04:24:08.729Z</time></trkpt><trkpt lat="42.9855717" lon="2.313615"><ele>448.0</ele><time>2026-04-26T04:24:09.729Z</time></trkpt><trkpt lat="42.98548" lon="2.3135767"><ele>451.0</ele><time>2026-04-26T04:24:10.728Z</time></trkpt><trkpt lat="42.98539" lon="2.3135017"><ele>454.0</ele><time>2026-04-26T04:24:11.729Z</time></trkpt><trkpt lat="42.9853033" lon="2.3134117"><ele>454.0</ele><time>2026-04-26T04:24:12.728Z</time></trkpt><trkpt lat="42.9852233" lon="2.3133167"><ele>454.0</ele><time>2026-04-26T04:24:13.729Z</time></trkpt><trkpt lat="42.9851633" lon="2.31321"><ele>454.0</ele><time>2026-04-26T04:24:14.729Z</time></trkpt><trkpt lat="42.9851067" lon="2.3130883"><ele>454.0</ele><time>2026-04-26T04:24:15.731Z</time></trkpt><trkpt lat="42.98507" lon="2.3129433"><ele>454.0</ele><time>2026-04-26T04:24:16.728Z</time></trkpt><trkpt lat="42.9850383" lon="2.3127867"><ele>452.25</ele><time>2026-04-26T04:24:17.728Z</time></trkpt><trkpt lat="42.9850083" lon="2.3126167"><ele>450.5</ele><time>2026-04-26T04:24:18.728Z</time></trkpt><trkpt lat="42.9849783" lon="2.3124383"><ele>448.75</ele><time>2026-04-26T04:24:19.727Z</time></trkpt><trkpt lat="42.984945" lon="2.312255"><ele>447.0</ele><time>2026-04-26T04:24:20.729Z</time></trkpt><trkpt lat="42.9849083" lon="2.3120667"><ele>447.0</ele><time>2026-04-26T04:24:21.729Z</time></trkpt><trkpt lat="42.9848633" lon="2.31188"><ele>447.0</ele><time>2026-04-26T04:24:22.727Z</time></trkpt><trkpt lat="42.9848133" lon="2.311695"><ele>447.0</ele><time>2026-04-26T04:24:23.729Z</time></trkpt><trkpt lat="42.98475" lon="2.3115217"><ele>447.0</ele><time>2026-04-26T04:24:24.728Z</time></trkpt><trkpt lat="42.9846683" lon="2.3113583"><ele>448.25</ele><time>2026-04-26T04:24:25.728Z</time></trkpt><trkpt lat="42.98458" lon="2.3112"><ele>449.5</ele><time>2026-04-26T04:24:26.729Z</time></trkpt><trkpt lat="42.9845" lon="2.311035"><ele>450.75</ele><time>2026-04-26T04:24:27.729Z</time></trkpt><trkpt lat="42.9844267" lon="2.310875"><ele>452.0</ele><time>2026-04-26T04:24:28.728Z</time></trkpt><trkpt lat="42.984355" lon="2.3107183"><ele>449.5</ele><time>2026-04-26T04:24:29.731Z</time></trkpt><trkpt lat="42.98429" lon="2.3105617"><ele>447.0</ele><time>2026-04-26T04:24:30.728Z</time></trkpt><trkpt lat="42.9842367" lon="2.3104067"><ele>444.5</ele><time>2026-04-26T04:24:31.729Z</time></trkpt><trkpt lat="42.984195" lon="2.3102667"><ele>442.0</ele><time>2026-04-26T04:24:32.729Z</time></trkpt><trkpt lat="42.9841733" lon="2.3101433"><ele>442.00000000000006</ele><time>2026-04-26T04:24:33.728Z</time></trkpt><trkpt lat="42.9841767" lon="2.310025"><ele>442.0</ele><time>2026-04-26T04:24:34.73Z</time></trkpt><trkpt lat="42.9842033" lon="2.30992"><ele>442.0</ele><time>2026-04-26T04:24:35.729Z</time></trkpt><trkpt lat="42.9842633" lon="2.3098533"><ele>442.0</ele><time>2026-04-26T04:24:36.731Z</time></trkpt><trkpt lat="42.9843317" lon="2.30981"><ele>442.00000000000006</ele><time>2026-04-26T04:24:37.729Z</time></trkpt><trkpt lat="42.9843967" lon="2.3097617"><ele>442.0</ele><time>2026-04-26T04:24:38.73Z</time></trkpt><trkpt lat="42.9844433" lon="2.3096883"><ele>442.00000000000006</ele><time>2026-04-26T04:24:39.729Z</time></trkpt><trkpt lat="42.9844367" lon="2.309595"><ele>442.0</ele><time>2026-04-26T04:24:40.729Z</time></trkpt><trkpt lat="42.9843917" lon="2.3095167"><ele>442.0</ele><time>2026-04-26T04:24:41.729Z</time></trkpt><trkpt lat="42.984325" lon="2.3094583"><ele>442.0</ele><time>2026-04-26T04:24:42.731Z</time></trkpt><trkpt lat="42.9842367" lon="2.30943"><ele>442.00000000000006</ele><time>2026-04-26T04:24:43.73Z</time></trkpt><trkpt lat="42.9841383" lon="2.3094433"><ele>442.0</ele><time>2026-04-26T04:24:44.73Z</time></trkpt><trkpt lat="42.9840533" lon="2.3094367"><ele>439.1666666666667</ele><time>2026-04-26T04:24:45.735Z</time></trkpt><trkpt lat="42.983975" lon="2.309405"><ele>436.33333333333337</ele><time>2026-04-26T04:24:46.729Z</time></trkpt><trkpt lat="42.9839367" lon="2.309305"><ele>433.5</ele><time>2026-04-26T04:24:47.729Z</time></trkpt><trkpt lat="42.983915" lon="2.30918"><ele>430.66666666666663</ele><time>2026-04-26T04:24:48.728Z</time></trkpt><trkpt lat="42.9839033" lon="2.3090467"><ele>427.8333333333333</ele><time>2026-04-26T04:24:49.728Z</time></trkpt><trkpt lat="42.9838967" lon="2.30892"><ele>425.0</ele><time>2026-04-26T04:24:50.731Z</time></trkpt><trkpt lat="42.9838983" lon="2.3087983"><ele>424.8333333333333</ele><time>2026-04-26T04:24:51.728Z</time></trkpt><trkpt lat="42.9839133" lon="2.3086867"><ele>424.66666666666663</ele><time>2026-04-26T04:24:52.73Z</time></trkpt><trkpt lat="42.9839583" lon="2.3086"><ele>424.5</ele><time>2026-04-26T04:24:53.729Z</time></trkpt><trkpt lat="42.9840183" lon="2.3085417"><ele>424.33333333333337</ele><time>2026-04-26T04:24:54.728Z</time></trkpt><trkpt lat="42.9840883" lon="2.3085017"><ele>424.1666666666667</ele><time>2026-04-26T04:24:55.735Z</time></trkpt><trkpt lat="42.984155" lon="2.30845"><ele>424.0</ele><time>2026-04-26T04:24:56.731Z</time></trkpt><trkpt lat="42.9842083" lon="2.3083717"><ele>424.00000000000006</ele><time>2026-04-26T04:24:57.728Z</time></trkpt><trkpt lat="42.9842367" lon="2.3082733"><ele>424.0</ele><time>2026-04-26T04:24:58.728Z</time></trkpt><trkpt lat="42.9842183" lon="2.3081783"><ele>424.0</ele><time>2026-04-26T04:24:59.729Z</time></trkpt><trkpt lat="42.9841667" lon="2.308105"><ele>424.0</ele><time>2026-04-26T04:25:00.732Z</time></trkpt><trkpt lat="42.9840867" lon="2.3080633"><ele>424.00000000000006</ele><time>2026-04-26T04:25:01.728Z</time></trkpt><trkpt lat="42.9839867" lon="2.3080583"><ele>424.0</ele><time>2026-04-26T04:25:02.73Z</time></trkpt><trkpt lat="42.983885" lon="2.3080617"><ele>425.0</ele><time>2026-04-26T04:25:03.728Z</time></trkpt><trkpt lat="42.9837883" lon="2.308045"><ele>426.0</ele><time>2026-04-26T04:25:04.729Z</time></trkpt><trkpt lat="42.9837033" lon="2.3079983"><ele>427.0</ele><time>2026-04-26T04:25:05.727Z</time></trkpt><trkpt lat="42.98363" lon="2.3079167"><ele>428.0</ele><time>2026-04-26T04:25:06.729Z</time></trkpt><trkpt lat="42.9835717" lon="2.3078067"><ele>429.0</ele><time>2026-04-26T04:25:07.728Z</time></trkpt><trkpt lat="42.9835267" lon="2.3076617"><ele>429.0</ele><time>2026-04-26T04:25:08.729Z</time></trkpt><trkpt lat="42.9834617" lon="2.30754"><ele>429.0</ele><time>2026-04-26T04:25:09.727Z</time></trkpt><trkpt lat="42.9833717" lon="2.30745"><ele>429.0</ele><time>2026-04-26T04:25:10.728Z</time></trkpt><trkpt lat="42.9832683" lon="2.3073883"><ele>429.0</ele><time>2026-04-26T04:25:11.728Z</time></trkpt><trkpt lat="42.98317" lon="2.3073233"><ele>429.0</ele><time>2026-04-26T04:25:12.728Z</time></trkpt><trkpt lat="42.9830933" lon="2.307235"><ele>428.0</ele><time>2026-04-26T04:25:13.728Z</time></trkpt><trkpt lat="42.9830333" lon="2.3071217"><ele>427.0</ele><time>2026-04-26T04:25:14.729Z</time></trkpt><trkpt lat="42.9829783" lon="2.3069983"><ele>426.0</ele><time>2026-04-26T04:25:15.728Z</time></trkpt><trkpt lat="42.982915" lon="2.3068817"><ele>425.0</ele><time>2026-04-26T04:25:16.731Z</time></trkpt><trkpt lat="42.982845" lon="2.3067733"><ele>424.0</ele><time>2026-04-26T04:25:17.728Z</time></trkpt><trkpt lat="42.98277" lon="2.306675"><ele>424.00000000000006</ele><time>2026-04-26T04:25:18.729Z</time></trkpt><trkpt lat="42.9826933" lon="2.3065867"><ele>424.0</ele><time>2026-04-26T04:25:19.729Z</time></trkpt><trkpt lat="42.9826183" lon="2.3065033"><ele>424.0</ele><time>2026-04-26T04:25:20.729Z</time></trkpt><trkpt lat="42.982555" lon="2.30642"><ele>424.0</ele><time>2026-04-26T04:25:21.729Z</time></trkpt><trkpt lat="42.9825033" lon="2.3063333"><ele>424.00000000000006</ele><time>2026-04-26T04:25:22.728Z</time></trkpt><trkpt lat="42.9824567" lon="2.30624"><ele>424.0</ele><time>2026-04-26T04:25:23.731Z</time></trkpt><trkpt lat="42.982415" lon="2.30614"><ele>421.00000000000006</ele><time>2026-04-26T04:25:24.73Z</time></trkpt><trkpt lat="42.98241" lon="2.3060167"><ele>418.0</ele><time>2026-04-26T04:25:25.73Z</time></trkpt><trkpt lat="42.9824217" lon="2.3058917"><ele>415.0</ele><time>2026-04-26T04:25:26.729Z</time></trkpt><trkpt lat="42.9824617" lon="2.3057867"><ele>412.0</ele><time>2026-04-26T04:25:27.732Z</time></trkpt><trkpt lat="42.9824933" lon="2.30571"><ele>409.00000000000006</ele><time>2026-04-26T04:25:28.728Z</time></trkpt><trkpt lat="42.9825117" lon="2.3056083"><ele>406.0</ele><time>2026-04-26T04:25:30.729Z</time></trkpt><trkpt lat="42.9824183" lon="2.3056167"><ele>406.0</ele><time>2026-04-26T04:25:33.728Z</time></trkpt><trkpt lat="42.9823517" lon="2.305715"><ele>406.0</ele><time>2026-04-26T04:25:35.729Z</time></trkpt><trkpt lat="42.9823367" lon="2.3058083"><ele>406.0</ele><time>2026-04-26T04:25:36.729Z</time></trkpt><trkpt lat="42.982295" lon="2.305965"><ele>406.0</ele><time>2026-04-26T04:25:38.729Z</time></trkpt><trkpt lat="42.9822367" lon="2.3060767"><ele>406.0</ele><time>2026-04-26T04:25:39.728Z</time></trkpt><trkpt lat="42.98217" lon="2.30618"><ele>406.00000000000006</ele><time>2026-04-26T04:25:40.729Z</time></trkpt><trkpt lat="42.9821067" lon="2.3062667"><ele>406.0</ele><time>2026-04-26T04:25:41.728Z</time></trkpt><trkpt lat="42.9820467" lon="2.3063483"><ele>406.0</ele><time>2026-04-26T04:25:42.73Z</time></trkpt><trkpt lat="42.9820033" lon="2.3064417"><ele>406.0</ele><time>2026-04-26T04:25:43.729Z</time></trkpt><trkpt lat="42.98197" lon="2.3065317"><ele>406.00000000000006</ele><time>2026-04-26T04:25:44.731Z</time></trkpt><trkpt lat="42.9819367" lon="2.306625"><ele>406.0</ele><time>2026-04-26T04:25:45.729Z</time></trkpt><trkpt lat="42.9818567" lon="2.3067417"><ele>406.00000000000006</ele><time>2026-04-26T04:25:47.728Z</time></trkpt><trkpt lat="42.9817517" lon="2.3067383"><ele>406.0</ele><time>2026-04-26T04:25:49.729Z</time></trkpt><trkpt lat="42.9816883" lon="2.306605"><ele>406.0</ele><time>2026-04-26T04:25:51.728Z</time></trkpt><trkpt lat="42.9816833" lon="2.3065117"><ele>406.0</ele><time>2026-04-26T04:25:52.732Z</time></trkpt><trkpt lat="42.9816817" lon="2.3064117"><ele>406.00000000000006</ele><time>2026-04-26T04:25:53.73Z</time></trkpt><trkpt lat="42.9816767" lon="2.3063167"><ele>406.0</ele><time>2026-04-26T04:25:54.729Z</time></trkpt><trkpt lat="42.9816783" lon="2.3062283"><ele>403.50000000000006</ele><time>2026-04-26T04:25:55.729Z</time></trkpt><trkpt lat="42.9816767" lon="2.3061367"><ele>401.0</ele><time>2026-04-26T04:25:56.729Z</time></trkpt><trkpt lat="42.981645" lon="2.30601"><ele>398.5</ele><time>2026-04-26T04:25:58.731Z</time></trkpt><trkpt lat="42.9815633" lon="2.3060383"><ele>396.0</ele><time>2026-04-26T04:26:00.731Z</time></trkpt><trkpt lat="42.9815083" lon="2.3061933"><ele>393.50000000000006</ele><time>2026-04-26T04:26:02.73Z</time></trkpt><trkpt lat="42.98149" lon="2.3062867"><ele>391.0</ele><time>2026-04-26T04:26:03.728Z</time></trkpt><trkpt lat="42.9814483" lon="2.3064417"><ele>391.00000000000006</ele><time>2026-04-26T04:26:05.728Z</time></trkpt><trkpt lat="42.98137" lon="2.30646"><ele>391.0</ele><time>2026-04-26T04:26:07.73Z</time></trkpt><trkpt lat="42.9812417" lon="2.30643"><ele>391.0</ele><time>2026-04-26T04:26:09.728Z</time></trkpt><trkpt lat="42.9811717" lon="2.3064383"><ele>391.0</ele><time>2026-04-26T04:26:10.729Z</time></trkpt><trkpt lat="42.9811083" lon="2.30647"><ele>391.00000000000006</ele><time>2026-04-26T04:26:11.727Z</time></trkpt><trkpt lat="42.9810483" lon="2.3065133"><ele>391.0</ele><time>2026-04-26T04:26:12.729Z</time></trkpt><trkpt lat="42.98099" lon="2.3065833"><ele>391.00000000000006</ele><time>2026-04-26T04:26:13.729Z</time></trkpt><trkpt lat="42.98093" lon="2.30665"><ele>391.0</ele><time>2026-04-26T04:26:14.728Z</time></trkpt><trkpt lat="42.9808633" lon="2.3066983"><ele>391.0</ele><time>2026-04-26T04:26:15.728Z</time></trkpt><trkpt lat="42.980795" lon="2.306735"><ele>391.0</ele><time>2026-04-26T04:26:16.728Z</time></trkpt><trkpt lat="42.9807317" lon="2.3067533"><ele>391.00000000000006</ele><time>2026-04-26T04:26:17.728Z</time></trkpt><trkpt lat="42.9806083" lon="2.3067733"><ele>391.0</ele><time>2026-04-26T04:26:19.728Z</time></trkpt><trkpt lat="42.98053" lon="2.306895"><ele>391.1666666666667</ele><time>2026-04-26T04:26:21.728Z</time></trkpt><trkpt lat="42.9805033" lon="2.306995"><ele>391.33333333333337</ele><time>2026-04-26T04:26:22.73Z</time></trkpt><trkpt lat="42.9804717" lon="2.3070883"><ele>391.5</ele><time>2026-04-26T04:26:23.73Z</time></trkpt><trkpt lat="42.9804317" lon="2.3071667"><ele>391.66666666666663</ele><time>2026-04-26T04:26:24.728Z</time></trkpt><trkpt lat="42.9803383" lon="2.3072533"><ele>391.8333333333333</ele><time>2026-04-26T04:26:26.729Z</time></trkpt><trkpt lat="42.9802633" lon="2.3072917"><ele>392.0</ele><time>2026-04-26T04:26:27.729Z</time></trkpt><trkpt lat="42.9801667" lon="2.3073383"><ele>394.16666666666663</ele><time>2026-04-26T04:26:28.73Z</time></trkpt><trkpt lat="42.980085" lon="2.3073883"><ele>396.3333333333333</ele><time>2026-04-26T04:26:29.727Z</time></trkpt><trkpt lat="42.9800083" lon="2.3074417"><ele>398.5</ele><time>2026-04-26T04:26:30.729Z</time></trkpt><trkpt lat="42.9799433" lon="2.30751"><ele>400.66666666666663</ele><time>2026-04-26T04:26:31.728Z</time></trkpt><trkpt lat="42.9798933" lon="2.3075867"><ele>402.8333333333333</ele><time>2026-04-26T04:26:32.729Z</time></trkpt><trkpt lat="42.97984" lon="2.307675"><ele>405.0</ele><time>2026-04-26T04:26:33.728Z</time></trkpt><trkpt lat="42.97979" lon="2.3077617"><ele>404.99999999999994</ele><time>2026-04-26T04:26:34.728Z</time></trkpt><trkpt lat="42.979745" lon="2.307835"><ele>405.0</ele><time>2026-04-26T04:26:35.727Z</time></trkpt><trkpt lat="42.9797" lon="2.3078967"><ele>405.0</ele><time>2026-04-26T04:26:36.728Z</time></trkpt><trkpt lat="42.97965" lon="2.30796"><ele>405.0</ele><time>2026-04-26T04:26:37.729Z</time></trkpt><trkpt lat="42.979585" lon="2.3080217"><ele>405.0</ele><time>2026-04-26T04:26:38.729Z</time></trkpt><trkpt lat="42.9795133" lon="2.308085"><ele>404.99999999999994</ele><time>2026-04-26T04:26:39.729Z</time></trkpt><trkpt lat="42.97944" lon="2.3081383"><ele>405.0</ele><time>2026-04-26T04:26:40.729Z</time></trkpt><trkpt lat="42.9793717" lon="2.308195"><ele>406.1666666666667</ele><time>2026-04-26T04:26:41.732Z</time></trkpt><trkpt lat="42.9793033" lon="2.3082533"><ele>407.33333333333337</ele><time>2026-04-26T04:26:42.729Z</time></trkpt><trkpt lat="42.9792417" lon="2.3083283"><ele>408.5</ele><time>2026-04-26T04:26:43.728Z</time></trkpt><trkpt lat="42.9791767" lon="2.308405"><ele>409.6666666666667</ele><time>2026-04-26T04:26:44.728Z</time></trkpt><trkpt lat="42.9791083" lon="2.3084817"><ele>410.83333333333337</ele><time>2026-04-26T04:26:45.729Z</time></trkpt><trkpt lat="42.9790317" lon="2.3085783"><ele>412.0</ele><time>2026-04-26T04:26:46.731Z</time></trkpt><trkpt lat="42.9789733" lon="2.30865"><ele>412.0</ele><time>2026-04-26T04:26:47.731Z</time></trkpt><trkpt lat="42.978895" lon="2.308725"><ele>412.0</ele><time>2026-04-26T04:26:48.728Z</time></trkpt><trkpt lat="42.9788" lon="2.3087817"><ele>412.0</ele><time>2026-04-26T04:26:49.736Z</time></trkpt><trkpt lat="42.9787183" lon="2.3088233"><ele>412.0</ele><time>2026-04-26T04:26:50.729Z</time></trkpt><trkpt lat="42.9786317" lon="2.3088533"><ele>412.0</ele><time>2026-04-26T04:26:51.73Z</time></trkpt><trkpt lat="42.9785417" lon="2.308865"><ele>412.00000000000006</ele><time>2026-04-26T04:26:52.729Z</time></trkpt><trkpt lat="42.97845" lon="2.3088767"><ele>412.0</ele><time>2026-04-26T04:26:53.732Z</time></trkpt><trkpt lat="42.9783683" lon="2.3088933"><ele>412.0</ele><time>2026-04-26T04:26:54.729Z</time></trkpt><trkpt lat="42.9782867" lon="2.308925"><ele>412.0</ele><time>2026-04-26T04:26:55.729Z</time></trkpt><trkpt lat="42.97821" lon="2.30897"><ele>412.00000000000006</ele><time>2026-04-26T04:26:56.73Z</time></trkpt><trkpt lat="42.97812" lon="2.30903"><ele>412.0</ele><time>2026-04-26T04:26:57.729Z</time></trkpt><trkpt lat="42.97803" lon="2.3090983"><ele>413.8</ele><time>2026-04-26T04:26:58.727Z</time></trkpt><trkpt lat="42.9779383" lon="2.3091633"><ele>415.6</ele><time>2026-04-26T04:26:59.733Z</time></trkpt><trkpt lat="42.977855" lon="2.3092233"><ele>417.40000000000003</ele><time>2026-04-26T04:27:00.728Z</time></trkpt><trkpt lat="42.9777833" lon="2.3092933"><ele>419.20000000000005</ele><time>2026-04-26T04:27:01.729Z</time></trkpt><trkpt lat="42.9777117" lon="2.3093633"><ele>421.0</ele><time>2026-04-26T04:27:02.729Z</time></trkpt><trkpt lat="42.9776433" lon="2.309445"><ele>421.00000000000006</ele><time>2026-04-26T04:27:03.729Z</time></trkpt><trkpt lat="42.977585" lon="2.3095317"><ele>421.0</ele><time>2026-04-26T04:27:04.728Z</time></trkpt><trkpt lat="42.977535" lon="2.3096183"><ele>421.0</ele><time>2026-04-26T04:27:05.729Z</time></trkpt><trkpt lat="42.9774717" lon="2.30969"><ele>421.0</ele><time>2026-04-26T04:27:06.73Z</time></trkpt><trkpt lat="42.9774033" lon="2.3097583"><ele>421.00000000000006</ele><time>2026-04-26T04:27:07.729Z</time></trkpt><trkpt lat="42.9773333" lon="2.30982"><ele>421.0</ele><time>2026-04-26T04:27:08.73Z</time></trkpt><trkpt lat="42.9772583" lon="2.3098717"><ele>422.6</ele><time>2026-04-26T04:27:09.729Z</time></trkpt><trkpt lat="42.9771867" lon="2.3099417"><ele>424.20000000000005</ele><time>2026-04-26T04:27:10.728Z</time></trkpt><trkpt lat="42.97712" lon="2.3100217"><ele>425.79999999999995</ele><time>2026-04-26T04:27:11.736Z</time></trkpt><trkpt lat="42.9770683" lon="2.3101517"><ele>427.4</ele><time>2026-04-26T04:27:13.731Z</time></trkpt><trkpt lat="42.97703" lon="2.3102233"><ele>429.0</ele><time>2026-04-26T04:27:14.73Z</time></trkpt><trkpt lat="42.9769367" lon="2.3103333"><ele>429.0</ele><time>2026-04-26T04:27:16.729Z</time></trkpt><trkpt lat="42.97686" lon="2.3103533"><ele>429.0</ele><time>2026-04-26T04:27:18.733Z</time></trkpt><trkpt lat="42.9767817" lon="2.3103383"><ele>429.0</ele><time>2026-04-26T04:27:20.728Z</time></trkpt><trkpt lat="42.97669" lon="2.310325"><ele>429.0</ele><time>2026-04-26T04:27:22.728Z</time></trkpt><trkpt lat="42.9766117" lon="2.3103317"><ele>429.0</ele><time>2026-04-26T04:27:23.73Z</time></trkpt><trkpt lat="42.9765067" lon="2.31034"><ele>429.0</ele><time>2026-04-26T04:27:24.731Z</time></trkpt><trkpt lat="42.9763883" lon="2.310365"><ele>429.25</ele><time>2026-04-26T04:27:25.728Z</time></trkpt><trkpt lat="42.97627" lon="2.3103933"><ele>429.5</ele><time>2026-04-26T04:27:26.73Z</time></trkpt><trkpt lat="42.976145" lon="2.3104383"><ele>429.75</ele><time>2026-04-26T04:27:27.728Z</time></trkpt><trkpt lat="42.97603" lon="2.3104933"><ele>430.0</ele><time>2026-04-26T04:27:28.73Z</time></trkpt><trkpt lat="42.975935" lon="2.310545"><ele>431.6666666666667</ele><time>2026-04-26T04:27:29.729Z</time></trkpt><trkpt lat="42.9758583" lon="2.3105933"><ele>433.33333333333337</ele><time>2026-04-26T04:27:30.729Z</time></trkpt><trkpt lat="42.9757883" lon="2.310655"><ele>435.0</ele><time>2026-04-26T04:27:31.728Z</time></trkpt><trkpt lat="42.9757433" lon="2.3107283"><ele>436.66666666666663</ele><time>2026-04-26T04:27:32.73Z</time></trkpt><trkpt lat="42.9757033" lon="2.3108117"><ele>438.3333333333333</ele><time>2026-04-26T04:27:33.728Z</time></trkpt><trkpt lat="42.9756683" lon="2.3109033"><ele>440.0</ele><time>2026-04-26T04:27:34.728Z</time></trkpt><trkpt lat="42.975625" lon="2.3109883"><ele>439.99999999999994</ele><time>2026-04-26T04:27:35.728Z</time></trkpt><trkpt lat="42.9755667" lon="2.3110667"><ele>440.0</ele><time>2026-04-26T04:27:36.729Z</time></trkpt><trkpt lat="42.9755017" lon="2.31114"><ele>440.0</ele><time>2026-04-26T04:27:37.728Z</time></trkpt><trkpt lat="42.9754333" lon="2.3112217"><ele>440.0</ele><time>2026-04-26T04:27:38.729Z</time></trkpt><trkpt lat="42.9753617" lon="2.31131"><ele>439.99999999999994</ele><time>2026-04-26T04:27:39.728Z</time></trkpt><trkpt lat="42.97529" lon="2.311395"><ele>440.0</ele><time>2026-04-26T04:27:40.728Z</time></trkpt><trkpt lat="42.9752217" lon="2.3114833"><ele>441.2</ele><time>2026-04-26T04:27:41.73Z</time></trkpt><trkpt lat="42.9751533" lon="2.3115767"><ele>442.4</ele><time>2026-04-26T04:27:42.728Z</time></trkpt><trkpt lat="42.9750867" lon="2.31168"><ele>443.6</ele><time>2026-04-26T04:27:43.728Z</time></trkpt><trkpt lat="42.9750333" lon="2.3117817"><ele>444.8</ele><time>2026-04-26T04:27:44.729Z</time></trkpt><trkpt lat="42.974985" lon="2.3118967"><ele>446.0</ele><time>2026-04-26T04:27:45.728Z</time></trkpt><trkpt lat="42.97494" lon="2.312"><ele>446.0</ele><time>2026-04-26T04:27:46.728Z</time></trkpt><trkpt lat="42.9749083" lon="2.31212"><ele>446.0</ele><time>2026-04-26T04:27:47.728Z</time></trkpt><trkpt lat="42.9748917" lon="2.3122433"><ele>446.0</ele><time>2026-04-26T04:27:48.729Z</time></trkpt><trkpt lat="42.974865" lon="2.3123733"><ele>446.0</ele><time>2026-04-26T04:27:49.728Z</time></trkpt><trkpt lat="42.9748317" lon="2.3124983"><ele>446.0</ele><time>2026-04-26T04:27:50.728Z</time></trkpt><trkpt lat="42.974835" lon="2.312645"><ele>447.6</ele><time>2026-04-26T04:27:51.729Z</time></trkpt><trkpt lat="42.9748417" lon="2.3127783"><ele>449.20000000000005</ele><time>2026-04-26T04:27:52.728Z</time></trkpt><trkpt lat="42.9748517" lon="2.312895"><ele>450.79999999999995</ele><time>2026-04-26T04:27:53.73Z</time></trkpt><trkpt lat="42.9748667" lon="2.31301"><ele>452.4</ele><time>2026-04-26T04:27:54.728Z</time></trkpt><trkpt lat="42.97491" lon="2.3131167"><ele>454.0</ele><time>2026-04-26T04:27:55.732Z</time></trkpt><trkpt lat="42.974965" lon="2.3132333"><ele>456.50000000000006</ele><time>2026-04-26T04:27:56.728Z</time></trkpt><trkpt lat="42.9750383" lon="2.3133383"><ele>459.0</ele><time>2026-04-26T04:27:57.727Z</time></trkpt><trkpt lat="42.9751" lon="2.3134233"><ele>461.5</ele><time>2026-04-26T04:27:58.729Z</time></trkpt><trkpt lat="42.9751717" lon="2.3135017"><ele>464.0</ele><time>2026-04-26T04:27:59.729Z</time></trkpt><trkpt lat="42.975225" lon="2.313555"><ele>466.50000000000006</ele><time>2026-04-26T04:28:00.729Z</time></trkpt><trkpt lat="42.9752667" lon="2.3136317"><ele>469.0</ele><time>2026-04-26T04:28:01.729Z</time></trkpt><trkpt lat="42.9752767" lon="2.3137283"><ele>469.0</ele><time>2026-04-26T04:28:02.729Z</time></trkpt><trkpt lat="42.9752817" lon="2.3138433"><ele>469.0</ele><time>2026-04-26T04:28:03.728Z</time></trkpt><trkpt lat="42.9752783" lon="2.3139783"><ele>469.0</ele><time>2026-04-26T04:28:04.729Z</time></trkpt><trkpt lat="42.9752717" lon="2.314145"><ele>469.0</ele><time>2026-04-26T04:28:05.729Z</time></trkpt><trkpt lat="42.9752683" lon="2.314315"><ele>469.0</ele><time>2026-04-26T04:28:06.73Z</time></trkpt><trkpt lat="42.9752583" lon="2.3144783"><ele>470.2</ele><time>2026-04-26T04:28:07.728Z</time></trkpt><trkpt lat="42.9752483" lon="2.314625"><ele>471.4</ele><time>2026-04-26T04:28:08.728Z</time></trkpt><trkpt lat="42.9752483" lon="2.3147583"><ele>472.6</ele><time>2026-04-26T04:28:09.732Z</time></trkpt><trkpt lat="42.9752583" lon="2.3148767"><ele>473.8</ele><time>2026-04-26T04:28:10.729Z</time></trkpt><trkpt lat="42.9752633" lon="2.3150067"><ele>475.0</ele><time>2026-04-26T04:28:11.731Z</time></trkpt><trkpt lat="42.9752817" lon="2.3151383"><ele>475.6666666666667</ele><time>2026-04-26T04:28:12.729Z</time></trkpt><trkpt lat="42.9753" lon="2.3152517"><ele>476.33333333333337</ele><time>2026-04-26T04:28:13.734Z</time></trkpt><trkpt lat="42.9753333" lon="2.315365"><ele>477.0</ele><time>2026-04-26T04:28:14.729Z</time></trkpt><trkpt lat="42.97537" lon="2.3154783"><ele>477.66666666666663</ele><time>2026-04-26T04:28:15.73Z</time></trkpt><trkpt lat="42.9754167" lon="2.3155783"><ele>478.3333333333333</ele><time>2026-04-26T04:28:16.728Z</time></trkpt><trkpt lat="42.9754583" lon="2.315675"><ele>479.0</ele><time>2026-04-26T04:28:17.727Z</time></trkpt><trkpt lat="42.97549" lon="2.3157667"><ele>479.49999999999994</ele><time>2026-04-26T04:28:18.729Z</time></trkpt><trkpt lat="42.9755067" lon="2.3158633"><ele>480.0</ele><time>2026-04-26T04:28:19.73Z</time></trkpt><trkpt lat="42.975515" lon="2.3159717"><ele>480.5</ele><time>2026-04-26T04:28:20.729Z</time></trkpt><trkpt lat="42.9755217" lon="2.3160783"><ele>481.0</ele><time>2026-04-26T04:28:21.734Z</time></trkpt><trkpt lat="42.975535" lon="2.3161817"><ele>481.49999999999994</ele><time>2026-04-26T04:28:22.729Z</time></trkpt><trkpt lat="42.9755567" lon="2.3162867"><ele>482.0</ele><time>2026-04-26T04:28:23.729Z</time></trkpt><trkpt lat="42.975575" lon="2.316395"><ele>482.66666666666663</ele><time>2026-04-26T04:28:24.73Z</time></trkpt><trkpt lat="42.9755983" lon="2.3164967"><ele>483.3333333333333</ele><time>2026-04-26T04:28:25.728Z</time></trkpt><trkpt lat="42.97562" lon="2.316605"><ele>484.0</ele><time>2026-04-26T04:28:26.729Z</time></trkpt><trkpt lat="42.975625" lon="2.3167333"><ele>484.66666666666663</ele><time>2026-04-26T04:28:27.728Z</time></trkpt><trkpt lat="42.9756283" lon="2.3168583"><ele>485.3333333333333</ele><time>2026-04-26T04:28:28.728Z</time></trkpt><trkpt lat="42.9756383" lon="2.3169767"><ele>486.0</ele><time>2026-04-26T04:28:29.728Z</time></trkpt><trkpt lat="42.9756667" lon="2.3170933"><ele>486.0</ele><time>2026-04-26T04:28:30.728Z</time></trkpt><trkpt lat="42.9757033" lon="2.3172133"><ele>486.0</ele><time>2026-04-26T04:28:31.728Z</time></trkpt><trkpt lat="42.9757333" lon="2.3173283"><ele>486.0</ele><time>2026-04-26T04:28:32.729Z</time></trkpt><trkpt lat="42.9757617" lon="2.317435"><ele>486.0</ele><time>2026-04-26T04:28:33.729Z</time></trkpt><trkpt lat="42.9757883" lon="2.3175383"><ele>486.0</ele><time>2026-04-26T04:28:34.728Z</time></trkpt><trkpt lat="42.9758083" lon="2.3176367"><ele>486.0</ele><time>2026-04-26T04:28:35.727Z</time></trkpt><trkpt lat="42.975825" lon="2.3177267"><ele>486.1428571428571</ele><time>2026-04-26T04:28:36.731Z</time></trkpt><trkpt lat="42.9758433" lon="2.3178167"><ele>486.28571428571433</ele><time>2026-04-26T04:28:37.733Z</time></trkpt><trkpt lat="42.9758567" lon="2.317915"><ele>486.42857142857144</ele><time>2026-04-26T04:28:38.728Z</time></trkpt><trkpt lat="42.975865" lon="2.3180217"><ele>486.57142857142856</ele><time>2026-04-26T04:28:39.728Z</time></trkpt><trkpt lat="42.97587" lon="2.31813"><ele>486.71428571428567</ele><time>2026-04-26T04:28:40.731Z</time></trkpt><trkpt lat="42.97587" lon="2.3182317"><ele>486.8571428571429</ele><time>2026-04-26T04:28:41.728Z</time></trkpt><trkpt lat="42.9758667" lon="2.318325"><ele>487.0</ele><time>2026-04-26T04:28:42.729Z</time></trkpt><trkpt lat="42.9758233" lon="2.31845"><ele>488.20000000000005</ele><time>2026-04-26T04:28:44.731Z</time></trkpt><trkpt lat="42.975715" lon="2.318445"><ele>489.40000000000003</ele><time>2026-04-26T04:28:46.729Z</time></trkpt><trkpt lat="42.9756267" lon="2.3183983"><ele>490.59999999999997</ele><time>2026-04-26T04:28:47.727Z</time></trkpt><trkpt lat="42.9755283" lon="2.3183417"><ele>491.79999999999995</ele><time>2026-04-26T04:28:48.728Z</time></trkpt><trkpt lat="42.97542" lon="2.3182867"><ele>493.0</ele><time>2026-04-26T04:28:49.727Z</time></trkpt><trkpt lat="42.9753167" lon="2.318225"><ele>493.00000000000006</ele><time>2026-04-26T04:28:50.728Z</time></trkpt><trkpt lat="42.9752283" lon="2.3181783"><ele>493.0</ele><time>2026-04-26T04:28:51.728Z</time></trkpt><trkpt lat="42.9751467" lon="2.31814"><ele>493.0</ele><time>2026-04-26T04:28:52.729Z</time></trkpt><trkpt lat="42.975075" lon="2.3181333"><ele>493.0</ele><time>2026-04-26T04:28:53.73Z</time></trkpt><trkpt lat="42.9750067" lon="2.3181767"><ele>493.00000000000006</ele><time>2026-04-26T04:28:54.728Z</time></trkpt><trkpt lat="42.9749333" lon="2.3182433"><ele>493.0</ele><time>2026-04-26T04:28:55.728Z</time></trkpt><trkpt lat="42.9748483" lon="2.3183183"><ele>493.4</ele><time>2026-04-26T04:28:56.728Z</time></trkpt><trkpt lat="42.9747567" lon="2.3183867"><ele>493.79999999999995</ele><time>2026-04-26T04:28:57.728Z</time></trkpt><trkpt lat="42.9746733" lon="2.3184517"><ele>494.2</ele><time>2026-04-26T04:28:58.733Z</time></trkpt><trkpt lat="42.9745917" lon="2.318505"><ele>494.6</ele><time>2026-04-26T04:28:59.729Z</time></trkpt><trkpt lat="42.9745117" lon="2.3185367"><ele>495.0</ele><time>2026-04-26T04:29:00.729Z</time></trkpt><trkpt lat="42.9744333" lon="2.3185467"><ele>495.0</ele><time>2026-04-26T04:29:01.728Z</time></trkpt><trkpt lat="42.974385" lon="2.3184383"><ele>495.0</ele><time>2026-04-26T04:29:02.729Z</time></trkpt><trkpt lat="42.9743217" lon="2.318335"><ele>495.0</ele><time>2026-04-26T04:29:03.728Z</time></trkpt><trkpt lat="42.974245" lon="2.3182283"><ele>495.0</ele><time>2026-04-26T04:29:04.728Z</time></trkpt><trkpt lat="42.97416" lon="2.3181217"><ele>495.0</ele><time>2026-04-26T04:29:05.733Z</time></trkpt><trkpt lat="42.974065" lon="2.3180217"><ele>494.8</ele><time>2026-04-26T04:29:06.728Z</time></trkpt><trkpt lat="42.97397" lon="2.3179267"><ele>494.6</ele><time>2026-04-26T04:29:07.728Z</time></trkpt><trkpt lat="42.97389" lon="2.317845"><ele>494.4</ele><time>2026-04-26T04:29:08.729Z</time></trkpt><trkpt lat="42.9738067" lon="2.3177483"><ele>494.2</ele><time>2026-04-26T04:29:09.728Z</time></trkpt><trkpt lat="42.97373" lon="2.3176483"><ele>494.0</ele><time>2026-04-26T04:29:10.728Z</time></trkpt><trkpt lat="42.9736633" lon="2.3175383"><ele>493.99999999999994</ele><time>2026-04-26T04:29:11.729Z</time></trkpt><trkpt lat="42.97361" lon="2.3174183"><ele>494.0</ele><time>2026-04-26T04:29:12.729Z</time></trkpt><trkpt lat="42.973555" lon="2.3173017"><ele>494.0</ele><time>2026-04-26T04:29:13.735Z</time></trkpt><trkpt lat="42.9735" lon="2.3172083"><ele>494.0</ele><time>2026-04-26T04:29:14.729Z</time></trkpt><trkpt lat="42.9734383" lon="2.3171467"><ele>493.99999999999994</ele><time>2026-04-26T04:29:15.729Z</time></trkpt><trkpt lat="42.9733783" lon="2.3171183"><ele>494.0</ele><time>2026-04-26T04:29:16.727Z</time></trkpt><trkpt lat="42.9733067" lon="2.31713"><ele>494.79999999999995</ele><time>2026-04-26T04:29:17.729Z</time></trkpt><trkpt lat="42.9732333" lon="2.3171917"><ele>495.59999999999997</ele><time>2026-04-26T04:29:18.729Z</time></trkpt><trkpt lat="42.9731667" lon="2.3172983"><ele>496.4</ele><time>2026-04-26T04:29:19.73Z</time></trkpt><trkpt lat="42.9731033" lon="2.3174367"><ele>497.2</ele><time>2026-04-26T04:29:20.73Z</time></trkpt><trkpt lat="42.9730333" lon="2.3176017"><ele>498.0</ele><time>2026-04-26T04:29:21.736Z</time></trkpt><trkpt lat="42.9729683" lon="2.3177733"><ele>499.79999999999995</ele><time>2026-04-26T04:29:22.728Z</time></trkpt><trkpt lat="42.9729083" lon="2.3179333"><ele>501.59999999999997</ele><time>2026-04-26T04:29:23.73Z</time></trkpt><trkpt lat="42.9728617" lon="2.3180833"><ele>503.40000000000003</ele><time>2026-04-26T04:29:24.728Z</time></trkpt><trkpt lat="42.9728183" lon="2.318215"><ele>505.20000000000005</ele><time>2026-04-26T04:29:25.729Z</time></trkpt><trkpt lat="42.97278" lon="2.3183283"><ele>507.0</ele><time>2026-04-26T04:29:26.73Z</time></trkpt><trkpt lat="42.972735" lon="2.31841"><ele>508.6666666666667</ele><time>2026-04-26T04:29:27.73Z</time></trkpt><trkpt lat="42.9726867" lon="2.3184683"><ele>510.33333333333337</ele><time>2026-04-26T04:29:28.728Z</time></trkpt><trkpt lat="42.9726167" lon="2.318505"><ele>512.0</ele><time>2026-04-26T04:29:29.729Z</time></trkpt><trkpt lat="42.9725417" lon="2.3185317"><ele>513.6666666666667</ele><time>2026-04-26T04:29:30.73Z</time></trkpt><trkpt lat="42.9724617" lon="2.31857"><ele>515.3333333333334</ele><time>2026-04-26T04:29:31.729Z</time></trkpt><trkpt lat="42.9723833" lon="2.3186283"><ele>517.0</ele><time>2026-04-26T04:29:32.731Z</time></trkpt><trkpt lat="42.97231" lon="2.3187017"><ele>517.0</ele><time>2026-04-26T04:29:33.729Z</time></trkpt><trkpt lat="42.9722533" lon="2.31883"><ele>517.0</ele><time>2026-04-26T04:29:34.729Z</time></trkpt><trkpt lat="42.972205" lon="2.31895"><ele>517.0</ele><time>2026-04-26T04:29:35.729Z</time></trkpt><trkpt lat="42.9721617" lon="2.3190617"><ele>517.0</ele><time>2026-04-26T04:29:36.731Z</time></trkpt><trkpt lat="42.9721067" lon="2.3191617"><ele>517.0</ele><time>2026-04-26T04:29:37.729Z</time></trkpt><trkpt lat="42.9720417" lon="2.3192417"><ele>519.0</ele><time>2026-04-26T04:29:38.727Z</time></trkpt><trkpt lat="42.9719683" lon="2.3193067"><ele>521.0</ele><time>2026-04-26T04:29:39.727Z</time></trkpt><trkpt lat="42.9719033" lon="2.319345"><ele>523.0</ele><time>2026-04-26T04:29:40.727Z</time></trkpt><trkpt lat="42.971835" lon="2.319415"><ele>525.0</ele><time>2026-04-26T04:29:42.728Z</time></trkpt><trkpt lat="42.971915" lon="2.319505"><ele>527.0</ele><time>2026-04-26T04:29:45.728Z</time></trkpt><trkpt lat="42.9719883" lon="2.3194933"><ele>529.0</ele><time>2026-04-26T04:29:46.727Z</time></trkpt><trkpt lat="42.9720633" lon="2.31948"><ele>529.0</ele><time>2026-04-26T04:29:47.728Z</time></trkpt><trkpt lat="42.972155" lon="2.31946"><ele>529.0</ele><time>2026-04-26T04:29:48.729Z</time></trkpt><trkpt lat="42.9722617" lon="2.3194383"><ele>529.0</ele><time>2026-04-26T04:29:49.731Z</time></trkpt><trkpt lat="42.9723667" lon="2.3194083"><ele>529.0</ele><time>2026-04-26T04:29:50.729Z</time></trkpt><trkpt lat="42.972475" lon="2.319385"><ele>529.0</ele><time>2026-04-26T04:29:51.728Z</time></trkpt><trkpt lat="42.9725817" lon="2.31939"><ele>529.2</ele><time>2026-04-26T04:29:52.729Z</time></trkpt><trkpt lat="42.9726733" lon="2.3194167"><ele>529.4</ele><time>2026-04-26T04:29:53.734Z</time></trkpt><trkpt lat="42.9727883" lon="2.3194483"><ele>529.6</ele><time>2026-04-26T04:29:54.729Z</time></trkpt><trkpt lat="42.9728983" lon="2.319475"><ele>529.8</ele><time>2026-04-26T04:29:55.73Z</time></trkpt><trkpt lat="42.9729983" lon="2.31951"><ele>530.0</ele><time>2026-04-26T04:29:56.728Z</time></trkpt><trkpt lat="42.9730767" lon="2.319565"><ele>530.0</ele><time>2026-04-26T04:29:57.728Z</time></trkpt><trkpt lat="42.9731417" lon="2.3196383"><ele>530.0</ele><time>2026-04-26T04:29:58.728Z</time></trkpt><trkpt lat="42.97319" lon="2.3197317"><ele>530.0</ele><time>2026-04-26T04:29:59.727Z</time></trkpt><trkpt lat="42.973225" lon="2.319835"><ele>530.0</ele><time>2026-04-26T04:30:00.73Z</time></trkpt><trkpt lat="42.9732633" lon="2.3199567"><ele>530.0</ele><time>2026-04-26T04:30:01.728Z</time></trkpt><trkpt lat="42.9732317" lon="2.32009"><ele>531.5</ele><time>2026-04-26T04:30:02.73Z</time></trkpt><trkpt lat="42.9732033" lon="2.3202217"><ele>533.0</ele><time>2026-04-26T04:30:03.729Z</time></trkpt><trkpt lat="42.9731633" lon="2.3203783"><ele>534.5</ele><time>2026-04-26T04:30:04.727Z</time></trkpt><trkpt lat="42.9731133" lon="2.3205617"><ele>536.0</ele><time>2026-04-26T04:30:05.729Z</time></trkpt><trkpt lat="42.9730667" lon="2.3207517"><ele>538.0</ele><time>2026-04-26T04:30:06.729Z</time></trkpt><trkpt lat="42.9730183" lon="2.3209283"><ele>540.0</ele><time>2026-04-26T04:30:07.728Z</time></trkpt><trkpt lat="42.9729767" lon="2.321105"><ele>542.0</ele><time>2026-04-26T04:30:08.73Z</time></trkpt><trkpt lat="42.9729483" lon="2.3212667"><ele>544.0</ele><time>2026-04-26T04:30:09.727Z</time></trkpt><trkpt lat="42.9729333" lon="2.3214267"><ele>546.2</ele><time>2026-04-26T04:30:10.729Z</time></trkpt><trkpt lat="42.972945" lon="2.3215867"><ele>548.4</ele><time>2026-04-26T04:30:11.728Z</time></trkpt><trkpt lat="42.9729683" lon="2.3217317"><ele>550.6</ele><time>2026-04-26T04:30:12.727Z</time></trkpt><trkpt lat="42.9730133" lon="2.3218517"><ele>552.8</ele><time>2026-04-26T04:30:13.728Z</time></trkpt><trkpt lat="42.97307" lon="2.32195"><ele>555.0</ele><time>2026-04-26T04:30:14.73Z</time></trkpt><trkpt lat="42.9731383" lon="2.322025"><ele>555.0</ele><time>2026-04-26T04:30:15.727Z</time></trkpt><trkpt lat="42.9732183" lon="2.322065"><ele>555.0</ele><time>2026-04-26T04:30:16.729Z</time></trkpt><trkpt lat="42.973315" lon="2.3220917"><ele>555.0</ele><time>2026-04-26T04:30:17.727Z</time></trkpt><trkpt lat="42.9734167" lon="2.32212"><ele>555.0</ele><time>2026-04-26T04:30:18.732Z</time></trkpt><trkpt lat="42.9735133" lon="2.3221433"><ele>555.0</ele><time>2026-04-26T04:30:19.728Z</time></trkpt><trkpt lat="42.9736" lon="2.3221633"><ele>555.6666666666666</ele><time>2026-04-26T04:30:20.728Z</time></trkpt><trkpt lat="42.9736783" lon="2.322165"><ele>556.3333333333334</ele><time>2026-04-26T04:30:21.727Z</time></trkpt><trkpt lat="42.9737567" lon="2.32216"><ele>557.0</ele><time>2026-04-26T04:30:22.728Z</time></trkpt><trkpt lat="42.9738267" lon="2.3221333"><ele>557.6666666666667</ele><time>2026-04-26T04:30:23.733Z</time></trkpt><trkpt lat="42.973895" lon="2.3220833"><ele>558.3333333333334</ele><time>2026-04-26T04:30:24.728Z</time></trkpt><trkpt lat="42.97395" lon="2.322"><ele>559.0</ele><time>2026-04-26T04:30:25.728Z</time></trkpt><trkpt lat="42.9740183" lon="2.3219467"><ele>559.0</ele><time>2026-04-26T04:30:26.728Z</time></trkpt><trkpt lat="42.9740933" lon="2.3219133"><ele>559.0</ele><time>2026-04-26T04:30:27.729Z</time></trkpt><trkpt lat="42.9741667" lon="2.3218883"><ele>559.0</ele><time>2026-04-26T04:30:28.728Z</time></trkpt><trkpt lat="42.97425" lon="2.3218983"><ele>559.0</ele><time>2026-04-26T04:30:29.728Z</time></trkpt><trkpt lat="42.9743517" lon="2.3219333"><ele>559.0</ele><time>2026-04-26T04:30:30.73Z</time></trkpt><trkpt lat="42.97447" lon="2.321995"><ele>559.6</ele><time>2026-04-26T04:30:31.729Z</time></trkpt><trkpt lat="42.97458" lon="2.3220567"><ele>560.2</ele><time>2026-04-26T04:30:32.728Z</time></trkpt><trkpt lat="42.9746817" lon="2.3221067"><ele>560.8000000000001</ele><time>2026-04-26T04:30:33.727Z</time></trkpt><trkpt lat="42.9747833" lon="2.3221417"><ele>561.4</ele><time>2026-04-26T04:30:34.727Z</time></trkpt><trkpt lat="42.97488" lon="2.32216"><ele>562.0</ele><time>2026-04-26T04:30:35.73Z</time></trkpt><trkpt lat="42.9749617" lon="2.3221883"><ele>563.3333333333334</ele><time>2026-04-26T04:30:36.728Z</time></trkpt><trkpt lat="42.97504" lon="2.32224"><ele>564.6666666666667</ele><time>2026-04-26T04:30:37.729Z</time></trkpt><trkpt lat="42.975095" lon="2.32232"><ele>566.0</ele><time>2026-04-26T04:30:38.73Z</time></trkpt><trkpt lat="42.975145" lon="2.32241"><ele>567.3333333333334</ele><time>2026-04-26T04:30:39.728Z</time></trkpt><trkpt lat="42.97519" lon="2.3225"><ele>568.6666666666666</ele><time>2026-04-26T04:30:40.73Z</time></trkpt><trkpt lat="42.9752717" lon="2.322595"><ele>570.0</ele><time>2026-04-26T04:30:42.729Z</time></trkpt><trkpt lat="42.975395" lon="2.3226283"><ele>570.0</ele><time>2026-04-26T04:30:44.728Z</time></trkpt><trkpt lat="42.9754683" lon="2.322645"><ele>570.0</ele><time>2026-04-26T04:30:45.728Z</time></trkpt><trkpt lat="42.97554" lon="2.322675"><ele>570.0</ele><time>2026-04-26T04:30:46.728Z</time></trkpt><trkpt lat="42.9756233" lon="2.3227267"><ele>570.0</ele><time>2026-04-26T04:30:47.728Z</time></trkpt><trkpt lat="42.9756967" lon="2.322825"><ele>570.0</ele><time>2026-04-26T04:30:48.729Z</time></trkpt><trkpt lat="42.9757533" lon="2.3229733"><ele>570.8333333333334</ele><time>2026-04-26T04:30:49.727Z</time></trkpt><trkpt lat="42.9757917" lon="2.3231067"><ele>571.6666666666666</ele><time>2026-04-26T04:30:50.729Z</time></trkpt><trkpt lat="42.9758283" lon="2.3232217"><ele>572.5</ele><time>2026-04-26T04:30:51.729Z</time></trkpt><trkpt lat="42.9758717" lon="2.3233167"><ele>573.3333333333333</ele><time>2026-04-26T04:30:52.727Z</time></trkpt><trkpt lat="42.9759217" lon="2.3234033"><ele>574.1666666666666</ele><time>2026-04-26T04:30:53.729Z</time></trkpt><trkpt lat="42.97599" lon="2.3234817"><ele>575.0</ele><time>2026-04-26T04:30:54.728Z</time></trkpt><trkpt lat="42.9760667" lon="2.3235483"><ele>575.0</ele><time>2026-04-26T04:30:55.727Z</time></trkpt><trkpt lat="42.976155" lon="2.3236333"><ele>575.0</ele><time>2026-04-26T04:30:56.728Z</time></trkpt><trkpt lat="42.9762517" lon="2.32373"><ele>575.0</ele><time>2026-04-26T04:30:57.728Z</time></trkpt><trkpt lat="42.9763383" lon="2.323835"><ele>575.0</ele><time>2026-04-26T04:30:58.729Z</time></trkpt><trkpt lat="42.9764133" lon="2.3239417"><ele>577.2</ele><time>2026-04-26T04:30:59.729Z</time></trkpt><trkpt lat="42.976475" lon="2.3240517"><ele>579.4</ele><time>2026-04-26T04:31:00.729Z</time></trkpt><trkpt lat="42.9765267" lon="2.3241717"><ele>581.6</ele><time>2026-04-26T04:31:01.728Z</time></trkpt><trkpt lat="42.9765733" lon="2.3243033"><ele>583.8</ele><time>2026-04-26T04:31:02.728Z</time></trkpt><trkpt lat="42.97662" lon="2.32444"><ele>586.0</ele><time>2026-04-26T04:31:03.727Z</time></trkpt><trkpt lat="42.9766717" lon="2.324565"><ele>586.3333333333334</ele><time>2026-04-26T04:31:04.728Z</time></trkpt><trkpt lat="42.9767133" lon="2.32469"><ele>586.6666666666667</ele><time>2026-04-26T04:31:05.729Z</time></trkpt><trkpt lat="42.9767483" lon="2.3248117"><ele>587.0</ele><time>2026-04-26T04:31:06.728Z</time></trkpt><trkpt lat="42.976775" lon="2.3249217"><ele>587.3333333333334</ele><time>2026-04-26T04:31:07.727Z</time></trkpt><trkpt lat="42.9767933" lon="2.3250217"><ele>587.6666666666666</ele><time>2026-04-26T04:31:08.729Z</time></trkpt><trkpt lat="42.9768183" lon="2.3251033"><ele>588.0</ele><time>2026-04-26T04:31:09.729Z</time></trkpt><trkpt lat="42.97687" lon="2.3252117"><ele>590.1999999999999</ele><time>2026-04-26T04:31:11.728Z</time></trkpt><trkpt lat="42.9769283" lon="2.3252533"><ele>592.4</ele><time>2026-04-26T04:31:12.728Z</time></trkpt><trkpt lat="42.9770367" lon="2.3252017"><ele>594.5999999999999</ele><time>2026-04-26T04:31:14.728Z</time></trkpt><trkpt lat="42.9770983" lon="2.3250667"><ele>596.8</ele><time>2026-04-26T04:31:15.728Z</time></trkpt><trkpt lat="42.977155" lon="2.3249533"><ele>599.0</ele><time>2026-04-26T04:31:16.728Z</time></trkpt><trkpt lat="42.9772083" lon="2.3248533"><ele>599.0</ele><time>2026-04-26T04:31:17.728Z</time></trkpt><trkpt lat="42.9772683" lon="2.3247783"><ele>599.0</ele><time>2026-04-26T04:31:18.727Z</time></trkpt><trkpt lat="42.9773467" lon="2.3247267"><ele>599.0</ele><time>2026-04-26T04:31:19.728Z</time></trkpt><trkpt lat="42.97743" lon="2.324685"><ele>599.0</ele><time>2026-04-26T04:31:20.729Z</time></trkpt><trkpt lat="42.97752" lon="2.3246417"><ele>599.0</ele><time>2026-04-26T04:31:21.728Z</time></trkpt><trkpt lat="42.9776167" lon="2.324595"><ele>599.0</ele><time>2026-04-26T04:31:22.729Z</time></trkpt><trkpt lat="42.9777317" lon="2.3245417"><ele>599.0</ele><time>2026-04-26T04:31:23.729Z</time></trkpt><trkpt lat="42.9778483" lon="2.324485"><ele>599.0</ele><time>2026-04-26T04:31:24.729Z</time></trkpt><trkpt lat="42.977965" lon="2.32441"><ele>599.0</ele><time>2026-04-26T04:31:25.729Z</time></trkpt><trkpt lat="42.9781017" lon="2.3243367"><ele>599.0</ele><time>2026-04-26T04:31:26.73Z</time></trkpt><trkpt lat="42.9782417" lon="2.3242633"><ele>599.0</ele><time>2026-04-26T04:31:27.73Z</time></trkpt><trkpt lat="42.9783633" lon="2.3241883"><ele>599.0</ele><time>2026-04-26T04:31:28.728Z</time></trkpt><trkpt lat="42.9784917" lon="2.3240933"><ele>599.0</ele><time>2026-04-26T04:31:29.729Z</time></trkpt><trkpt lat="42.978625" lon="2.3239967"><ele>599.25</ele><time>2026-04-26T04:31:30.733Z</time></trkpt><trkpt lat="42.9787633" lon="2.3239017"><ele>599.5</ele><time>2026-04-26T04:31:31.729Z</time></trkpt><trkpt lat="42.9788883" lon="2.3238067"><ele>599.75</ele><time>2026-04-26T04:31:32.73Z</time></trkpt><trkpt lat="42.9790167" lon="2.3237283"><ele>600.0</ele><time>2026-04-26T04:31:33.729Z</time></trkpt><trkpt lat="42.9791467" lon="2.3236633"><ele>599.6</ele><time>2026-04-26T04:31:34.734Z</time></trkpt><trkpt lat="42.9792717" lon="2.323615"><ele>599.2</ele><time>2026-04-26T04:31:35.73Z</time></trkpt><trkpt lat="42.9793833" lon="2.3235917"><ele>598.8</ele><time>2026-04-26T04:31:36.729Z</time></trkpt><trkpt lat="42.979475" lon="2.3235817"><ele>598.4</ele><time>2026-04-26T04:31:37.73Z</time></trkpt><trkpt lat="42.979565" lon="2.3235967"><ele>598.0</ele><time>2026-04-26T04:31:38.729Z</time></trkpt><trkpt lat="42.9796367" lon="2.3236217"><ele>598.0</ele><time>2026-04-26T04:31:39.731Z</time></trkpt><trkpt lat="42.9797" lon="2.3236617"><ele>598.0</ele><time>2026-04-26T04:31:40.729Z</time></trkpt><trkpt lat="42.9797667" lon="2.3237383"><ele>598.0</ele><time>2026-04-26T04:31:41.735Z</time></trkpt><trkpt lat="42.9798333" lon="2.3238433"><ele>598.0</ele><time>2026-04-26T04:31:42.729Z</time></trkpt><trkpt lat="42.9798867" lon="2.3239517"><ele>598.0</ele><time>2026-04-26T04:31:43.728Z</time></trkpt><trkpt lat="42.979935" lon="2.32406"><ele>598.0</ele><time>2026-04-26T04:31:44.728Z</time></trkpt><trkpt lat="42.979955" lon="2.3241733"><ele>600.0</ele><time>2026-04-26T04:31:45.728Z</time></trkpt><trkpt lat="42.9799567" lon="2.324295"><ele>602.0</ele><time>2026-04-26T04:31:46.728Z</time></trkpt><trkpt lat="42.9799267" lon="2.3244367"><ele>604.0</ele><time>2026-04-26T04:31:47.728Z</time></trkpt><trkpt lat="42.9798867" lon="2.3245883"><ele>606.0</ele><time>2026-04-26T04:31:48.728Z</time></trkpt><trkpt lat="42.9798233" lon="2.3247467"><ele>608.0</ele><time>2026-04-26T04:31:49.727Z</time></trkpt><trkpt lat="42.9797483" lon="2.3249117"><ele>608.6666666666666</ele><time>2026-04-26T04:31:50.731Z</time></trkpt><trkpt lat="42.9796667" lon="2.3250833"><ele>609.3333333333334</ele><time>2026-04-26T04:31:51.731Z</time></trkpt><trkpt lat="42.97958" lon="2.325265"><ele>610.0</ele><time>2026-04-26T04:31:52.728Z</time></trkpt><trkpt lat="42.9794917" lon="2.3254217"><ele>612.5</ele><time>2026-04-26T04:31:53.733Z</time></trkpt><trkpt lat="42.9793983" lon="2.3255633"><ele>615.0</ele><time>2026-04-26T04:31:54.728Z</time></trkpt><trkpt lat="42.979305" lon="2.3257067"><ele>617.5</ele><time>2026-04-26T04:31:55.728Z</time></trkpt><trkpt lat="42.9792183" lon="2.3258583"><ele>620.0</ele><time>2026-04-26T04:31:56.729Z</time></trkpt><trkpt lat="42.979135" lon="2.3260183"><ele>620.0</ele><time>2026-04-26T04:31:57.727Z</time></trkpt><trkpt lat="42.97905" lon="2.32621"><ele>620.0</ele><time>2026-04-26T04:31:58.728Z</time></trkpt><trkpt lat="42.9789617" lon="2.3264"><ele>620.0</ele><time>2026-04-26T04:31:59.729Z</time></trkpt><trkpt lat="42.97888" lon="2.3265933"><ele>618.3333333333333</ele><time>2026-04-26T04:32:00.729Z</time></trkpt><trkpt lat="42.978795" lon="2.3267867"><ele>616.6666666666666</ele><time>2026-04-26T04:32:01.728Z</time></trkpt><trkpt lat="42.978705" lon="2.32697"><ele>615.0</ele><time>2026-04-26T04:32:02.729Z</time></trkpt><trkpt lat="42.9786217" lon="2.3271583"><ele>614.5</ele><time>2026-04-26T04:32:03.728Z</time></trkpt><trkpt lat="42.9785483" lon="2.3273433"><ele>614.0</ele><time>2026-04-26T04:32:04.728Z</time></trkpt><trkpt lat="42.97848" lon="2.3275167"><ele>613.5</ele><time>2026-04-26T04:32:05.728Z</time></trkpt><trkpt lat="42.97842" lon="2.3276917"><ele>613.0</ele><time>2026-04-26T04:32:06.727Z</time></trkpt><trkpt lat="42.9783617" lon="2.3278717"><ele>617.75</ele><time>2026-04-26T04:32:07.729Z</time></trkpt><trkpt lat="42.9783083" lon="2.3280583"><ele>622.5</ele><time>2026-04-26T04:32:08.729Z</time></trkpt><trkpt lat="42.9782567" lon="2.3282383"><ele>627.25</ele><time>2026-04-26T04:32:09.728Z</time></trkpt><trkpt lat="42.978215" lon="2.3284383"><ele>632.0</ele><time>2026-04-26T04:32:10.73Z</time></trkpt><trkpt lat="42.9781933" lon="2.3286283"><ele>632.0</ele><time>2026-04-26T04:32:11.727Z</time></trkpt><trkpt lat="42.9781917" lon="2.3288067"><ele>632.0</ele><time>2026-04-26T04:32:12.73Z</time></trkpt><trkpt lat="42.9782017" lon="2.3289983"><ele>632.0</ele><time>2026-04-26T04:32:13.727Z</time></trkpt><trkpt lat="42.9782233" lon="2.3292"><ele>632.0</ele><time>2026-04-26T04:32:14.729Z</time></trkpt><trkpt lat="42.97825" lon="2.3293933"><ele>632.0</ele><time>2026-04-26T04:32:15.73Z</time></trkpt><trkpt lat="42.978295" lon="2.3295917"><ele>632.0</ele><time>2026-04-26T04:32:16.728Z</time></trkpt><trkpt lat="42.9783583" lon="2.3297867"><ele>632.0</ele><time>2026-04-26T04:32:17.729Z</time></trkpt><trkpt lat="42.9784333" lon="2.32998"><ele>628.6666666666666</ele><time>2026-04-26T04:32:18.731Z</time></trkpt><trkpt lat="42.9785" lon="2.330165"><ele>625.3333333333334</ele><time>2026-04-26T04:32:19.729Z</time></trkpt><trkpt lat="42.9785717" lon="2.3303717"><ele>622.0</ele><time>2026-04-26T04:32:20.729Z</time></trkpt><trkpt lat="42.9786283" lon="2.33058"><ele>622.0</ele><time>2026-04-26T04:32:21.729Z</time></trkpt><trkpt lat="42.9786833" lon="2.3308"><ele>622.0</ele><time>2026-04-26T04:32:22.729Z</time></trkpt><trkpt lat="42.97874" lon="2.3310117"><ele>622.0</ele><time>2026-04-26T04:32:23.728Z</time></trkpt><trkpt lat="42.9787917" lon="2.3312383"><ele>623.3333333333334</ele><time>2026-04-26T04:32:24.729Z</time></trkpt><trkpt lat="42.9788383" lon="2.3314933"><ele>624.6666666666666</ele><time>2026-04-26T04:32:25.728Z</time></trkpt><trkpt lat="42.9788883" lon="2.331765"><ele>626.0</ele><time>2026-04-26T04:32:26.728Z</time></trkpt><trkpt lat="42.9789417" lon="2.3320483"><ele>627.0</ele><time>2026-04-26T04:32:27.728Z</time></trkpt><trkpt lat="42.9789967" lon="2.33234"><ele>628.0</ele><time>2026-04-26T04:32:28.729Z</time></trkpt><trkpt lat="42.9790467" lon="2.3326217"><ele>629.0</ele><time>2026-04-26T04:32:29.728Z</time></trkpt><trkpt lat="42.97911" lon="2.3328833"><ele>631.6666666666666</ele><time>2026-04-26T04:32:30.728Z</time></trkpt><trkpt lat="42.9791583" lon="2.3331233"><ele>634.3333333333334</ele><time>2026-04-26T04:32:31.729Z</time></trkpt><trkpt lat="42.979205" lon="2.3333767"><ele>637.0</ele><time>2026-04-26T04:32:32.729Z</time></trkpt><trkpt lat="42.9792517" lon="2.3336233"><ele>633.6666666666667</ele><time>2026-04-26T04:32:33.728Z</time></trkpt><trkpt lat="42.979305" lon="2.3338683"><ele>630.3333333333334</ele><time>2026-04-26T04:32:34.728Z</time></trkpt><trkpt lat="42.97936" lon="2.3340967"><ele>627.0</ele><time>2026-04-26T04:32:35.729Z</time></trkpt><trkpt lat="42.9794217" lon="2.3343217"><ele>627.0</ele><time>2026-04-26T04:32:36.73Z</time></trkpt><trkpt lat="42.9794867" lon="2.3345067"><ele>627.0</ele><time>2026-04-26T04:32:37.729Z</time></trkpt><trkpt lat="42.9795417" lon="2.3346783"><ele>627.0</ele><time>2026-04-26T04:32:38.73Z</time></trkpt><trkpt lat="42.979605" lon="2.334835"><ele>627.0</ele><time>2026-04-26T04:32:39.732Z</time></trkpt><trkpt lat="42.9796733" lon="2.334965"><ele>627.0</ele><time>2026-04-26T04:32:40.728Z</time></trkpt><trkpt lat="42.9797317" lon="2.33507"><ele>627.0</ele><time>2026-04-26T04:32:41.73Z</time></trkpt><trkpt lat="42.9797983" lon="2.3351283"><ele>627.0</ele><time>2026-04-26T04:32:42.728Z</time></trkpt><trkpt lat="42.97986" lon="2.33517"><ele>627.0</ele><time>2026-04-26T04:32:43.729Z</time></trkpt><trkpt lat="42.9799833" lon="2.33515"><ele>627.0</ele><time>2026-04-26T04:32:45.728Z</time></trkpt><trkpt lat="42.9800333" lon="2.3350933"><ele>627.0</ele><time>2026-04-26T04:32:46.728Z</time></trkpt><trkpt lat="42.9801467" lon="2.3350533"><ele>627.0</ele><time>2026-04-26T04:32:48.729Z</time></trkpt><trkpt lat="42.9802167" lon="2.3351467"><ele>627.0</ele><time>2026-04-26T04:32:50.729Z</time></trkpt><trkpt lat="42.9801867" lon="2.3353283"><ele>627.0</ele><time>2026-04-26T04:32:52.727Z</time></trkpt><trkpt lat="42.980135" lon="2.3354533"><ele>627.0</ele><time>2026-04-26T04:32:53.731Z</time></trkpt><trkpt lat="42.980065" lon="2.3356133"><ele>629.0</ele><time>2026-04-26T04:32:54.729Z</time></trkpt><trkpt lat="42.980005" lon="2.335775"><ele>631.0</ele><time>2026-04-26T04:32:55.727Z</time></trkpt><trkpt lat="42.9799617" lon="2.33595"><ele>633.0</ele><time>2026-04-26T04:32:56.731Z</time></trkpt><trkpt lat="42.9799383" lon="2.3361333"><ele>635.0</ele><time>2026-04-26T04:32:57.729Z</time></trkpt><trkpt lat="42.9799367" lon="2.3363133"><ele>635.0</ele><time>2026-04-26T04:32:58.729Z</time></trkpt><trkpt lat="42.979955" lon="2.336475"><ele>635.0</ele><time>2026-04-26T04:32:59.728Z</time></trkpt><trkpt lat="42.979985" lon="2.3366317"><ele>635.0</ele><time>2026-04-26T04:33:00.727Z</time></trkpt><trkpt lat="42.98001" lon="2.336795"><ele>635.0</ele><time>2026-04-26T04:33:01.729Z</time></trkpt><trkpt lat="42.9800267" lon="2.3369783"><ele>635.25</ele><time>2026-04-26T04:33:02.729Z</time></trkpt><trkpt lat="42.9800333" lon="2.33717"><ele>635.5</ele><time>2026-04-26T04:33:03.727Z</time></trkpt><trkpt lat="42.9800283" lon="2.3373567"><ele>635.75</ele><time>2026-04-26T04:33:04.728Z</time></trkpt><trkpt lat="42.9800167" lon="2.337535"><ele>636.0</ele><time>2026-04-26T04:33:05.729Z</time></trkpt><trkpt lat="42.9800067" lon="2.3377017"><ele>636.0</ele><time>2026-04-26T04:33:06.728Z</time></trkpt><trkpt lat="42.9800017" lon="2.3378633"><ele>636.0</ele><time>2026-04-26T04:33:07.727Z</time></trkpt><trkpt lat="42.980005" lon="2.3380183"><ele>636.0</ele><time>2026-04-26T04:33:08.728Z</time></trkpt><trkpt lat="42.9800267" lon="2.3381617"><ele>636.0</ele><time>2026-04-26T04:33:09.727Z</time></trkpt><trkpt lat="42.9800667" lon="2.3382933"><ele>636.0</ele><time>2026-04-26T04:33:10.729Z</time></trkpt><trkpt lat="42.9801183" lon="2.3384083"><ele>634.5</ele><time>2026-04-26T04:33:11.728Z</time></trkpt><trkpt lat="42.98019" lon="2.338505"><ele>633.0</ele><time>2026-04-26T04:33:12.727Z</time></trkpt><trkpt lat="42.980285" lon="2.3385667"><ele>631.5</ele><time>2026-04-26T04:33:13.729Z</time></trkpt><trkpt lat="42.9804067" lon="2.3386067"><ele>630.0</ele><time>2026-04-26T04:33:14.728Z</time></trkpt><trkpt lat="42.9805367" lon="2.3386433"><ele>630.0</ele><time>2026-04-26T04:33:15.733Z</time></trkpt><trkpt lat="42.980675" lon="2.3386917"><ele>630.0</ele><time>2026-04-26T04:33:16.728Z</time></trkpt><trkpt lat="42.9808117" lon="2.33875"><ele>630.0</ele><time>2026-04-26T04:33:17.727Z</time></trkpt><trkpt lat="42.9809433" lon="2.338805"><ele>630.0</ele><time>2026-04-26T04:33:18.728Z</time></trkpt><trkpt lat="42.9810633" lon="2.3388583"><ele>630.0</ele><time>2026-04-26T04:33:19.728Z</time></trkpt><trkpt lat="42.9811833" lon="2.3389017"><ele>630.0</ele><time>2026-04-26T04:33:20.727Z</time></trkpt><trkpt lat="42.9813" lon="2.3389183"><ele>630.0</ele><time>2026-04-26T04:33:21.728Z</time></trkpt><trkpt lat="42.9814017" lon="2.33892"><ele>630.0</ele><time>2026-04-26T04:33:22.729Z</time></trkpt><trkpt lat="42.9814883" lon="2.3389233"><ele>630.0</ele><time>2026-04-26T04:33:23.727Z</time></trkpt><trkpt lat="42.98157" lon="2.3389333"><ele>630.0</ele><time>2026-04-26T04:33:24.728Z</time></trkpt><trkpt lat="42.9816433" lon="2.3389633"><ele>630.0</ele><time>2026-04-26T04:33:25.727Z</time></trkpt><trkpt lat="42.981705" lon="2.339025"><ele>630.0</ele><time>2026-04-26T04:33:26.728Z</time></trkpt><trkpt lat="42.9817533" lon="2.3391233"><ele>630.0</ele><time>2026-04-26T04:33:27.728Z</time></trkpt><trkpt lat="42.9817867" lon="2.3392567"><ele>630.0</ele><time>2026-04-26T04:33:28.728Z</time></trkpt><trkpt lat="42.9817767" lon="2.3394333"><ele>630.75</ele><time>2026-04-26T04:33:29.728Z</time></trkpt><trkpt lat="42.9817583" lon="2.33961"><ele>631.5</ele><time>2026-04-26T04:33:30.729Z</time></trkpt><trkpt lat="42.9817183" lon="2.3398017"><ele>632.25</ele><time>2026-04-26T04:33:31.73Z</time></trkpt><trkpt lat="42.9816617" lon="2.3399933"><ele>633.0</ele><time>2026-04-26T04:33:32.729Z</time></trkpt><trkpt lat="42.9816" lon="2.3401717"><ele>633.0</ele><time>2026-04-26T04:33:33.729Z</time></trkpt><trkpt lat="42.9815417" lon="2.3403467"><ele>633.0</ele><time>2026-04-26T04:33:34.73Z</time></trkpt><trkpt lat="42.981485" lon="2.3405217"><ele>633.0</ele><time>2026-04-26T04:33:35.73Z</time></trkpt><trkpt lat="42.9814233" lon="2.34069"><ele>633.0</ele><time>2026-04-26T04:33:36.73Z</time></trkpt><trkpt lat="42.9813583" lon="2.3408383"><ele>630.0</ele><time>2026-04-26T04:33:37.732Z</time></trkpt><trkpt lat="42.9812983" lon="2.3409917"><ele>627.0</ele><time>2026-04-26T04:33:38.73Z</time></trkpt><trkpt lat="42.9812383" lon="2.3411717"><ele>624.0</ele><time>2026-04-26T04:33:39.728Z</time></trkpt><trkpt lat="42.9811917" lon="2.341355"><ele>621.0</ele><time>2026-04-26T04:33:40.73Z</time></trkpt><trkpt lat="42.9811517" lon="2.3415467"><ele>618.5</ele><time>2026-04-26T04:33:41.729Z</time></trkpt><trkpt lat="42.9811183" lon="2.3417467"><ele>616.0</ele><time>2026-04-26T04:33:42.728Z</time></trkpt><trkpt lat="42.9810933" lon="2.34195"><ele>613.5</ele><time>2026-04-26T04:33:43.728Z</time></trkpt><trkpt lat="42.981075" lon="2.3421467"><ele>611.0</ele><time>2026-04-26T04:33:44.729Z</time></trkpt><trkpt lat="42.981055" lon="2.3423317"><ele>609.8</ele><time>2026-04-26T04:33:45.729Z</time></trkpt><trkpt lat="42.981025" lon="2.34249"><ele>608.6</ele><time>2026-04-26T04:33:46.729Z</time></trkpt><trkpt lat="42.98098" lon="2.3426183"><ele>607.4</ele><time>2026-04-26T04:33:47.732Z</time></trkpt><trkpt lat="42.9809283" lon="2.3427133"><ele>606.2</ele><time>2026-04-26T04:33:48.731Z</time></trkpt><trkpt lat="42.980855" lon="2.3427817"><ele>605.0</ele><time>2026-04-26T04:33:49.73Z</time></trkpt><trkpt lat="42.98078" lon="2.3428183"><ele>607.0</ele><time>2026-04-26T04:33:50.733Z</time></trkpt><trkpt lat="42.9807017" lon="2.342855"><ele>609.0</ele><time>2026-04-26T04:33:51.728Z</time></trkpt><trkpt lat="42.9806267" lon="2.3429067"><ele>611.0</ele><time>2026-04-26T04:33:52.73Z</time></trkpt><trkpt lat="42.9805467" lon="2.3429783"><ele>613.0</ele><time>2026-04-26T04:33:53.729Z</time></trkpt><trkpt lat="42.9804817" lon="2.3430867"><ele>615.0</ele><time>2026-04-26T04:33:54.728Z</time></trkpt><trkpt lat="42.9804283" lon="2.343215"><ele>615.0</ele><time>2026-04-26T04:33:55.73Z</time></trkpt><trkpt lat="42.9803767" lon="2.3433633"><ele>615.0</ele><time>2026-04-26T04:33:56.73Z</time></trkpt><trkpt lat="42.980335" lon="2.34352"><ele>615.0</ele><time>2026-04-26T04:33:57.729Z</time></trkpt><trkpt lat="42.9803067" lon="2.343685"><ele>615.0</ele><time>2026-04-26T04:33:58.729Z</time></trkpt><trkpt lat="42.9802917" lon="2.3438683"><ele>613.25</ele><time>2026-04-26T04:33:59.73Z</time></trkpt><trkpt lat="42.9802867" lon="2.3440583"><ele>611.5</ele><time>2026-04-26T04:34:00.73Z</time></trkpt><trkpt lat="42.980285" lon="2.3442383"><ele>609.75</ele><time>2026-04-26T04:34:01.732Z</time></trkpt><trkpt lat="42.9802817" lon="2.3443983"><ele>608.0</ele><time>2026-04-26T04:34:02.732Z</time></trkpt><trkpt lat="42.98028" lon="2.3445417"><ele>608.0</ele><time>2026-04-26T04:34:03.73Z</time></trkpt><trkpt lat="42.9802833" lon="2.3446683"><ele>608.0</ele><time>2026-04-26T04:34:04.731Z</time></trkpt><trkpt lat="42.9802867" lon="2.3447817"><ele>608.0</ele><time>2026-04-26T04:34:05.73Z</time></trkpt><trkpt lat="42.980285" lon="2.3448817"><ele>608.0</ele><time>2026-04-26T04:34:06.73Z</time></trkpt><trkpt lat="42.9802867" lon="2.34497"><ele>608.0</ele><time>2026-04-26T04:34:07.729Z</time></trkpt><trkpt lat="42.9802883" lon="2.3451167"><ele>608.0</ele><time>2026-04-26T04:34:09.729Z</time></trkpt><trkpt lat="42.9802933" lon="2.34526"><ele>608.0</ele><time>2026-04-26T04:34:11.73Z</time></trkpt><trkpt lat="42.980315" lon="2.3454317"><ele>608.0</ele><time>2026-04-26T04:34:13.73Z</time></trkpt><trkpt lat="42.9803217" lon="2.345535"><ele>608.0</ele><time>2026-04-26T04:34:14.73Z</time></trkpt><trkpt lat="42.980325" lon="2.3456533"><ele>608.0</ele><time>2026-04-26T04:34:15.728Z</time></trkpt><trkpt lat="42.9803283" lon="2.3457933"><ele>608.0</ele><time>2026-04-26T04:34:16.728Z</time></trkpt><trkpt lat="42.98033" lon="2.3459433"><ele>609.5</ele><time>2026-04-26T04:34:17.729Z</time></trkpt><trkpt lat="42.980335" lon="2.3461"><ele>611.0</ele><time>2026-04-26T04:34:18.729Z</time></trkpt><trkpt lat="42.9803467" lon="2.3462667"><ele>612.5</ele><time>2026-04-26T04:34:19.728Z</time></trkpt><trkpt lat="42.98037" lon="2.34644"><ele>614.0</ele><time>2026-04-26T04:34:20.729Z</time></trkpt><trkpt lat="42.9804083" lon="2.3466083"><ele>614.75</ele><time>2026-04-26T04:34:21.729Z</time></trkpt><trkpt lat="42.9804633" lon="2.3467717"><ele>615.5</ele><time>2026-04-26T04:34:22.728Z</time></trkpt><trkpt lat="42.9805383" lon="2.3469317"><ele>616.25</ele><time>2026-04-26T04:34:23.728Z</time></trkpt><trkpt lat="42.980625" lon="2.347075"><ele>617.0</ele><time>2026-04-26T04:34:24.729Z</time></trkpt><trkpt lat="42.98071" lon="2.3472033"><ele>617.0</ele><time>2026-04-26T04:34:25.73Z</time></trkpt><trkpt lat="42.9807867" lon="2.3473233"><ele>617.0</ele><time>2026-04-26T04:34:26.729Z</time></trkpt><trkpt lat="42.98085" lon="2.347445"><ele>617.0</ele><time>2026-04-26T04:34:27.728Z</time></trkpt><trkpt lat="42.980895" lon="2.3475733"><ele>617.0</ele><time>2026-04-26T04:34:28.733Z</time></trkpt><trkpt lat="42.980915" lon="2.3477083"><ele>617.0</ele><time>2026-04-26T04:34:29.728Z</time></trkpt><trkpt lat="42.9809183" lon="2.3478617"><ele>616.0</ele><time>2026-04-26T04:34:30.729Z</time></trkpt><trkpt lat="42.9809083" lon="2.3480367"><ele>615.0</ele><time>2026-04-26T04:34:31.729Z</time></trkpt><trkpt lat="42.9808933" lon="2.348225"><ele>614.0</ele><time>2026-04-26T04:34:32.73Z</time></trkpt><trkpt lat="42.9808867" lon="2.3484233"><ele>613.0</ele><time>2026-04-26T04:34:33.731Z</time></trkpt><trkpt lat="42.9808967" lon="2.3486317"><ele>613.0</ele><time>2026-04-26T04:34:34.729Z</time></trkpt><trkpt lat="42.9809217" lon="2.3488333"><ele>613.0</ele><time>2026-04-26T04:34:35.73Z</time></trkpt><trkpt lat="42.980955" lon="2.349035"><ele>613.0</ele><time>2026-04-26T04:34:36.729Z</time></trkpt><trkpt lat="42.9809817" lon="2.34924"><ele>614.3333333333334</ele><time>2026-04-26T04:34:37.733Z</time></trkpt><trkpt lat="42.9809917" lon="2.349455"><ele>615.6666666666666</ele><time>2026-04-26T04:34:38.73Z</time></trkpt><trkpt lat="42.9809917" lon="2.3496833"><ele>617.0</ele><time>2026-04-26T04:34:39.729Z</time></trkpt><trkpt lat="42.9809867" lon="2.3499167"><ele>618.3333333333333</ele><time>2026-04-26T04:34:40.73Z</time></trkpt><trkpt lat="42.9809817" lon="2.3501483"><ele>619.6666666666666</ele><time>2026-04-26T04:34:41.729Z</time></trkpt><trkpt lat="42.9809783" lon="2.35037"><ele>621.0</ele><time>2026-04-26T04:34:42.73Z</time></trkpt><trkpt lat="42.98098" lon="2.350585"><ele>622.5</ele><time>2026-04-26T04:34:43.729Z</time></trkpt><trkpt lat="42.9809867" lon="2.3507883"><ele>624.0</ele><time>2026-04-26T04:34:44.73Z</time></trkpt><trkpt lat="42.9809933" lon="2.3509817"><ele>625.5</ele><time>2026-04-26T04:34:45.728Z</time></trkpt><trkpt lat="42.981005" lon="2.351165"><ele>627.0</ele><time>2026-04-26T04:34:46.728Z</time></trkpt><trkpt lat="42.9810233" lon="2.351345"><ele>628.5</ele><time>2026-04-26T04:34:47.731Z</time></trkpt><trkpt lat="42.9810483" lon="2.3515133"><ele>630.0</ele><time>2026-04-26T04:34:48.729Z</time></trkpt><trkpt lat="42.9810783" lon="2.3516683"><ele>631.5</ele><time>2026-04-26T04:34:49.73Z</time></trkpt><trkpt lat="42.9811167" lon="2.3518083"><ele>633.0</ele><time>2026-04-26T04:34:50.73Z</time></trkpt><trkpt lat="42.9811633" lon="2.3519317"><ele>633.0</ele><time>2026-04-26T04:34:51.732Z</time></trkpt><trkpt lat="42.981225" lon="2.35204"><ele>633.0</ele><time>2026-04-26T04:34:52.73Z</time></trkpt><trkpt lat="42.981305" lon="2.3521417"><ele>633.0</ele><time>2026-04-26T04:34:53.73Z</time></trkpt><trkpt lat="42.9814017" lon="2.3522383"><ele>633.0</ele><time>2026-04-26T04:34:54.729Z</time></trkpt><trkpt lat="42.9815033" lon="2.3523333"><ele>632.8</ele><time>2026-04-26T04:34:55.733Z</time></trkpt><trkpt lat="42.9815983" lon="2.35243"><ele>632.5999999999999</ele><time>2026-04-26T04:34:56.731Z</time></trkpt><trkpt lat="42.981685" lon="2.3525283"><ele>632.4000000000001</ele><time>2026-04-26T04:34:57.73Z</time></trkpt><trkpt lat="42.98176" lon="2.35263"><ele>632.2</ele><time>2026-04-26T04:34:58.733Z</time></trkpt><trkpt lat="42.9818317" lon="2.3527233"><ele>632.0</ele><time>2026-04-26T04:34:59.73Z</time></trkpt><trkpt lat="42.981895" lon="2.3527917"><ele>634.4000000000001</ele><time>2026-04-26T04:35:00.731Z</time></trkpt><trkpt lat="42.98195" lon="2.352845"><ele>636.8000000000001</ele><time>2026-04-26T04:35:01.731Z</time></trkpt><trkpt lat="42.9820367" lon="2.35295"><ele>639.2</ele><time>2026-04-26T04:35:03.73Z</time></trkpt><trkpt lat="42.9820883" lon="2.3531033"><ele>641.6</ele><time>2026-04-26T04:35:05.73Z</time></trkpt><trkpt lat="42.9820933" lon="2.3532167"><ele>644.0</ele><time>2026-04-26T04:35:06.731Z</time></trkpt><trkpt lat="42.98209" lon="2.3533367"><ele>644.2</ele><time>2026-04-26T04:35:07.732Z</time></trkpt><trkpt lat="42.982095" lon="2.3534617"><ele>644.4000000000001</ele><time>2026-04-26T04:35:08.729Z</time></trkpt><trkpt lat="42.982115" lon="2.35359"><ele>644.6</ele><time>2026-04-26T04:35:09.73Z</time></trkpt><trkpt lat="42.9821467" lon="2.3537217"><ele>644.8</ele><time>2026-04-26T04:35:10.731Z</time></trkpt><trkpt lat="42.9821933" lon="2.3538567"><ele>645.0</ele><time>2026-04-26T04:35:11.731Z</time></trkpt><trkpt lat="42.9822467" lon="2.3539667"><ele>646.3333333333334</ele><time>2026-04-26T04:35:12.73Z</time></trkpt><trkpt lat="42.9822917" lon="2.3540567"><ele>647.6666666666666</ele><time>2026-04-26T04:35:13.73Z</time></trkpt><trkpt lat="42.9823217" lon="2.3541467"><ele>649.0</ele><time>2026-04-26T04:35:14.73Z</time></trkpt><trkpt lat="42.9823283" lon="2.3542383"><ele>650.3333333333333</ele><time>2026-04-26T04:35:15.728Z</time></trkpt><trkpt lat="42.9823217" lon="2.3543433"><ele>651.6666666666666</ele><time>2026-04-26T04:35:16.728Z</time></trkpt><trkpt lat="42.98231" lon="2.3544633"><ele>653.0</ele><time>2026-04-26T04:35:17.73Z</time></trkpt><trkpt lat="42.982315" lon="2.3545933"><ele>654.4</ele><time>2026-04-26T04:35:18.73Z</time></trkpt><trkpt lat="42.9823333" lon="2.3547267"><ele>655.8</ele><time>2026-04-26T04:35:19.733Z</time></trkpt><trkpt lat="42.98236" lon="2.354865"><ele>657.2</ele><time>2026-04-26T04:35:20.729Z</time></trkpt><trkpt lat="42.9823883" lon="2.3550183"><ele>658.6</ele><time>2026-04-26T04:35:21.728Z</time></trkpt><trkpt lat="42.9824183" lon="2.3551833"><ele>660.0</ele><time>2026-04-26T04:35:22.729Z</time></trkpt><trkpt lat="42.9824483" lon="2.3553533"><ele>660.0</ele><time>2026-04-26T04:35:23.728Z</time></trkpt><trkpt lat="42.9824767" lon="2.3555267"><ele>660.0</ele><time>2026-04-26T04:35:24.728Z</time></trkpt><trkpt lat="42.9825067" lon="2.355705"><ele>660.0</ele><time>2026-04-26T04:35:25.73Z</time></trkpt><trkpt lat="42.982535" lon="2.3558817"><ele>660.0</ele><time>2026-04-26T04:35:26.728Z</time></trkpt><trkpt lat="42.9825683" lon="2.35605"><ele>664.4</ele><time>2026-04-26T04:35:27.731Z</time></trkpt><trkpt lat="42.9826183" lon="2.356195"><ele>668.8</ele><time>2026-04-26T04:35:28.728Z</time></trkpt><trkpt lat="42.9826817" lon="2.35633"><ele>673.2</ele><time>2026-04-26T04:35:29.728Z</time></trkpt><trkpt lat="42.98275" lon="2.35645"><ele>677.6</ele><time>2026-04-26T04:35:30.73Z</time></trkpt><trkpt lat="42.9828083" lon="2.3565617"><ele>682.0</ele><time>2026-04-26T04:35:31.729Z</time></trkpt><trkpt lat="42.9828517" lon="2.3566833"><ele>682.0</ele><time>2026-04-26T04:35:32.729Z</time></trkpt><trkpt lat="42.982885" lon="2.3568183"><ele>682.0</ele><time>2026-04-26T04:35:33.729Z</time></trkpt><trkpt lat="42.98292" lon="2.3569583"><ele>682.0</ele><time>2026-04-26T04:35:34.729Z</time></trkpt><trkpt lat="42.982945" lon="2.3571"><ele>682.0</ele><time>2026-04-26T04:35:35.73Z</time></trkpt><trkpt lat="42.9829633" lon="2.3572417"><ele>682.0</ele><time>2026-04-26T04:35:36.728Z</time></trkpt><trkpt lat="42.98298" lon="2.357375"><ele>682.0</ele><time>2026-04-26T04:35:37.728Z</time></trkpt><trkpt lat="42.9830067" lon="2.3574933"><ele>682.0</ele><time>2026-04-26T04:35:38.73Z</time></trkpt><trkpt lat="42.9830467" lon="2.3575917"><ele>682.0</ele><time>2026-04-26T04:35:39.733Z</time></trkpt><trkpt lat="42.9830983" lon="2.35765"><ele>682.0</ele><time>2026-04-26T04:35:40.729Z</time></trkpt><trkpt lat="42.9831633" lon="2.3576783"><ele>682.0</ele><time>2026-04-26T04:35:41.729Z</time></trkpt><trkpt lat="42.9832333" lon="2.3577"><ele>682.0</ele><time>2026-04-26T04:35:42.728Z</time></trkpt><trkpt lat="42.9833433" lon="2.357745"><ele>681.2</ele><time>2026-04-26T04:35:44.729Z</time></trkpt><trkpt lat="42.9833867" lon="2.35788"><ele>680.4000000000001</ele><time>2026-04-26T04:35:46.728Z</time></trkpt><trkpt lat="42.9833867" lon="2.358"><ele>679.5999999999999</ele><time>2026-04-26T04:35:47.73Z</time></trkpt><trkpt lat="42.9833883" lon="2.35814"><ele>678.8</ele><time>2026-04-26T04:35:48.729Z</time></trkpt><trkpt lat="42.98339" lon="2.358295"><ele>678.0</ele><time>2026-04-26T04:35:49.732Z</time></trkpt><trkpt lat="42.9833833" lon="2.35846"><ele>678.5</ele><time>2026-04-26T04:35:50.732Z</time></trkpt><trkpt lat="42.9833683" lon="2.358635"><ele>679.0</ele><time>2026-04-26T04:35:51.73Z</time></trkpt><trkpt lat="42.9833467" lon="2.358815"><ele>679.5</ele><time>2026-04-26T04:35:52.73Z</time></trkpt><trkpt lat="42.9833267" lon="2.3589967"><ele>680.0</ele><time>2026-04-26T04:35:53.73Z</time></trkpt><trkpt lat="42.9833083" lon="2.359175"><ele>681.0</ele><time>2026-04-26T04:35:54.73Z</time></trkpt><trkpt lat="42.983295" lon="2.3593483"><ele>682.0</ele><time>2026-04-26T04:35:55.73Z</time></trkpt><trkpt lat="42.983275" lon="2.3595267"><ele>683.0</ele><time>2026-04-26T04:35:56.73Z</time></trkpt><trkpt lat="42.983255" lon="2.3597083"><ele>684.0</ele><time>2026-04-26T04:35:57.729Z</time></trkpt><trkpt lat="42.983235" lon="2.3598917"><ele>685.25</ele><time>2026-04-26T04:35:58.729Z</time></trkpt><trkpt lat="42.9832133" lon="2.360075"><ele>686.5</ele><time>2026-04-26T04:35:59.729Z</time></trkpt><trkpt lat="42.983195" lon="2.360255"><ele>687.75</ele><time>2026-04-26T04:36:00.73Z</time></trkpt><trkpt lat="42.9831783" lon="2.3604183"><ele>689.0</ele><time>2026-04-26T04:36:01.729Z</time></trkpt><trkpt lat="42.9831633" lon="2.3605683"><ele>690.0</ele><time>2026-04-26T04:36:02.73Z</time></trkpt><trkpt lat="42.9831383" lon="2.3607133"><ele>691.0</ele><time>2026-04-26T04:36:03.729Z</time></trkpt><trkpt lat="42.9831017" lon="2.360855"><ele>692.0</ele><time>2026-04-26T04:36:04.728Z</time></trkpt><trkpt lat="42.983055" lon="2.3609967"><ele>693.0</ele><time>2026-04-26T04:36:05.729Z</time></trkpt><trkpt lat="42.9830083" lon="2.3611383"><ele>694.0</ele><time>2026-04-26T04:36:06.73Z</time></trkpt><trkpt lat="42.9829567" lon="2.3612917"><ele>696.0</ele><time>2026-04-26T04:36:07.73Z</time></trkpt><trkpt lat="42.9829033" lon="2.3614483"><ele>698.0</ele><time>2026-04-26T04:36:08.729Z</time></trkpt><trkpt lat="42.9828533" lon="2.3616033"><ele>700.0</ele><time>2026-04-26T04:36:09.729Z</time></trkpt><trkpt lat="42.9828033" lon="2.3617683"><ele>702.0</ele><time>2026-04-26T04:36:10.73Z</time></trkpt><trkpt lat="42.9827533" lon="2.3619317"><ele>702.0</ele><time>2026-04-26T04:36:11.728Z</time></trkpt><trkpt lat="42.9827083" lon="2.3620833"><ele>702.0</ele><time>2026-04-26T04:36:12.729Z</time></trkpt><trkpt lat="42.9826683" lon="2.3622217"><ele>702.0</ele><time>2026-04-26T04:36:13.728Z</time></trkpt><trkpt lat="42.9826317" lon="2.36236"><ele>702.0</ele><time>2026-04-26T04:36:14.729Z</time></trkpt><trkpt lat="42.9825967" lon="2.3624967"><ele>702.0</ele><time>2026-04-26T04:36:15.728Z</time></trkpt><trkpt lat="42.9825617" lon="2.362635"><ele>701.3333333333334</ele><time>2026-04-26T04:36:16.728Z</time></trkpt><trkpt lat="42.9825333" lon="2.3627633"><ele>700.6666666666666</ele><time>2026-04-26T04:36:17.729Z</time></trkpt><trkpt lat="42.9825133" lon="2.362885"><ele>700.0</ele><time>2026-04-26T04:36:18.729Z</time></trkpt><trkpt lat="42.9825083" lon="2.3629933"><ele>699.3333333333333</ele><time>2026-04-26T04:36:19.736Z</time></trkpt><trkpt lat="42.982515" lon="2.3630867"><ele>698.6666666666666</ele><time>2026-04-26T04:36:20.729Z</time></trkpt><trkpt lat="42.98253" lon="2.36318"><ele>698.0</ele><time>2026-04-26T04:36:21.73Z</time></trkpt><trkpt lat="42.9825517" lon="2.3633"><ele>700.8</ele><time>2026-04-26T04:36:22.729Z</time></trkpt><trkpt lat="42.982575" lon="2.3634333"><ele>703.5999999999999</ele><time>2026-04-26T04:36:23.728Z</time></trkpt><trkpt lat="42.9826" lon="2.3635717"><ele>706.4000000000001</ele><time>2026-04-26T04:36:24.728Z</time></trkpt><trkpt lat="42.9826067" lon="2.3636967"><ele>709.2</ele><time>2026-04-26T04:36:25.729Z</time></trkpt><trkpt lat="42.9825983" lon="2.3638217"><ele>712.0</ele><time>2026-04-26T04:36:26.731Z</time></trkpt><trkpt lat="42.98258" lon="2.36394"><ele>712.1666666666667</ele><time>2026-04-26T04:36:27.728Z</time></trkpt><trkpt lat="42.982565" lon="2.3640483"><ele>712.3333333333334</ele><time>2026-04-26T04:36:28.73Z</time></trkpt><trkpt lat="42.982555" lon="2.364155"><ele>712.5</ele><time>2026-04-26T04:36:29.73Z</time></trkpt><trkpt lat="42.9825367" lon="2.3642667"><ele>712.6666666666666</ele><time>2026-04-26T04:36:30.731Z</time></trkpt><trkpt lat="42.98252" lon="2.3643833"><ele>712.8333333333333</ele><time>2026-04-26T04:36:31.728Z</time></trkpt><trkpt lat="42.9824983" lon="2.3644967"><ele>713.0</ele><time>2026-04-26T04:36:32.73Z</time></trkpt><trkpt lat="42.9824367" lon="2.36459"><ele>709.4</ele><time>2026-04-26T04:36:33.73Z</time></trkpt><trkpt lat="42.9823533" lon="2.36466"><ele>705.8</ele><time>2026-04-26T04:36:34.729Z</time></trkpt><trkpt lat="42.9822667" lon="2.36472"><ele>702.2</ele><time>2026-04-26T04:36:35.734Z</time></trkpt><trkpt lat="42.9821733" lon="2.3647683"><ele>698.6</ele><time>2026-04-26T04:36:36.73Z</time></trkpt><trkpt lat="42.9820683" lon="2.3648183"><ele>695.0</ele><time>2026-04-26T04:36:37.729Z</time></trkpt><trkpt lat="42.9819567" lon="2.3648783"><ele>695.0</ele><time>2026-04-26T04:36:38.732Z</time></trkpt><trkpt lat="42.98184" lon="2.3649383"><ele>695.0</ele><time>2026-04-26T04:36:39.729Z</time></trkpt><trkpt lat="42.9817283" lon="2.3649967"><ele>695.0</ele><time>2026-04-26T04:36:40.733Z</time></trkpt><trkpt lat="42.9816267" lon="2.3650533"><ele>695.0</ele><time>2026-04-26T04:36:41.728Z</time></trkpt><trkpt lat="42.9815317" lon="2.3651"><ele>694.6</ele><time>2026-04-26T04:36:42.728Z</time></trkpt><trkpt lat="42.9814417" lon="2.3651533"><ele>694.2</ele><time>2026-04-26T04:36:43.727Z</time></trkpt><trkpt lat="42.981365" lon="2.3652317"><ele>693.8</ele><time>2026-04-26T04:36:44.728Z</time></trkpt><trkpt lat="42.9812983" lon="2.36533"><ele>693.4</ele><time>2026-04-26T04:36:45.727Z</time></trkpt><trkpt lat="42.9812367" lon="2.3654433"><ele>693.0</ele><time>2026-04-26T04:36:46.729Z</time></trkpt><trkpt lat="42.9811667" lon="2.365555"><ele>693.0</ele><time>2026-04-26T04:36:47.73Z</time></trkpt><trkpt lat="42.9810967" lon="2.3656617"><ele>693.0</ele><time>2026-04-26T04:36:48.729Z</time></trkpt><trkpt lat="42.9810283" lon="2.365755"><ele>693.0</ele><time>2026-04-26T04:36:49.728Z</time></trkpt><trkpt lat="42.9809583" lon="2.3658367"><ele>693.0</ele><time>2026-04-26T04:36:50.729Z</time></trkpt><trkpt lat="42.9808717" lon="2.3659017"><ele>693.0</ele><time>2026-04-26T04:36:51.729Z</time></trkpt><trkpt lat="42.9807833" lon="2.3659583"><ele>691.5</ele><time>2026-04-26T04:36:52.729Z</time></trkpt><trkpt lat="42.98069" lon="2.3660283"><ele>690.0</ele><time>2026-04-26T04:36:53.73Z</time></trkpt><trkpt lat="42.9806" lon="2.36614"><ele>688.5</ele><time>2026-04-26T04:36:54.728Z</time></trkpt><trkpt lat="42.9805083" lon="2.3662767"><ele>687.0</ele><time>2026-04-26T04:36:55.729Z</time></trkpt><trkpt lat="42.9804133" lon="2.36643"><ele>687.0</ele><time>2026-04-26T04:36:56.728Z</time></trkpt><trkpt lat="42.9803133" lon="2.3665867"><ele>687.0</ele><time>2026-04-26T04:36:57.729Z</time></trkpt><trkpt lat="42.980205" lon="2.3667467"><ele>687.0</ele><time>2026-04-26T04:36:58.73Z</time></trkpt><trkpt lat="42.9800933" lon="2.3669083"><ele>686.6666666666666</ele><time>2026-04-26T04:36:59.73Z</time></trkpt><trkpt lat="42.9799783" lon="2.367065"><ele>686.3333333333333</ele><time>2026-04-26T04:37:00.73Z</time></trkpt><trkpt lat="42.979865" lon="2.3672133"><ele>686.0</ele><time>2026-04-26T04:37:01.73Z</time></trkpt><trkpt lat="42.9797517" lon="2.3673583"><ele>686.0</ele><time>2026-04-26T04:37:02.732Z</time></trkpt><trkpt lat="42.9796433" lon="2.3674983"><ele>686.0</ele><time>2026-04-26T04:37:03.73Z</time></trkpt><trkpt lat="42.9795333" lon="2.3676183"><ele>686.0</ele><time>2026-04-26T04:37:04.729Z</time></trkpt><trkpt lat="42.9794167" lon="2.3677333"><ele>686.0</ele><time>2026-04-26T04:37:05.731Z</time></trkpt><trkpt lat="42.9793067" lon="2.36785"><ele>686.0</ele><time>2026-04-26T04:37:06.729Z</time></trkpt><trkpt lat="42.9792067" lon="2.36796"><ele>686.0</ele><time>2026-04-26T04:37:07.73Z</time></trkpt><trkpt lat="42.97911" lon="2.3680617"><ele>686.0</ele><time>2026-04-26T04:37:08.73Z</time></trkpt><trkpt lat="42.9790233" lon="2.36816"><ele>686.0</ele><time>2026-04-26T04:37:09.73Z</time></trkpt><trkpt lat="42.97895" lon="2.3682683"><ele>687.5</ele><time>2026-04-26T04:37:10.729Z</time></trkpt><trkpt lat="42.9788783" lon="2.368395"><ele>689.0</ele><time>2026-04-26T04:37:11.728Z</time></trkpt><trkpt lat="42.9788083" lon="2.36853"><ele>690.5</ele><time>2026-04-26T04:37:12.728Z</time></trkpt><trkpt lat="42.9787367" lon="2.3686583"><ele>692.0</ele><time>2026-04-26T04:37:13.73Z</time></trkpt><trkpt lat="42.9786617" lon="2.3687833"><ele>693.75</ele><time>2026-04-26T04:37:14.729Z</time></trkpt><trkpt lat="42.9785917" lon="2.3689133"><ele>695.5</ele><time>2026-04-26T04:37:15.728Z</time></trkpt><trkpt lat="42.97852" lon="2.3690533"><ele>697.25</ele><time>2026-04-26T04:37:16.729Z</time></trkpt><trkpt lat="42.97844" lon="2.369205"><ele>699.0</ele><time>2026-04-26T04:37:17.73Z</time></trkpt><trkpt lat="42.9783567" lon="2.3693483"><ele>699.5</ele><time>2026-04-26T04:37:18.729Z</time></trkpt><trkpt lat="42.9782683" lon="2.3694917"><ele>700.0</ele><time>2026-04-26T04:37:19.729Z</time></trkpt><trkpt lat="42.97818" lon="2.3696417"><ele>700.5</ele><time>2026-04-26T04:37:20.729Z</time></trkpt><trkpt lat="42.9780967" lon="2.369805"><ele>701.0</ele><time>2026-04-26T04:37:21.728Z</time></trkpt><trkpt lat="42.9780167" lon="2.36998"><ele>701.0</ele><time>2026-04-26T04:37:22.731Z</time></trkpt><trkpt lat="42.9779417" lon="2.3701433"><ele>701.0</ele><time>2026-04-26T04:37:23.728Z</time></trkpt><trkpt lat="42.9778717" lon="2.3702883"><ele>701.0</ele><time>2026-04-26T04:37:24.729Z</time></trkpt><trkpt lat="42.9778067" lon="2.3704267"><ele>701.0</ele><time>2026-04-26T04:37:25.735Z</time></trkpt><trkpt lat="42.977745" lon="2.37058"><ele>702.6666666666666</ele><time>2026-04-26T04:37:26.728Z</time></trkpt><trkpt lat="42.977675" lon="2.3707517"><ele>704.3333333333334</ele><time>2026-04-26T04:37:27.73Z</time></trkpt><trkpt lat="42.9776017" lon="2.3709333"><ele>706.0</ele><time>2026-04-26T04:37:28.731Z</time></trkpt><trkpt lat="42.977525" lon="2.3711283"><ele>702.3333333333334</ele><time>2026-04-26T04:37:29.731Z</time></trkpt><trkpt lat="42.977445" lon="2.371335"><ele>698.6666666666666</ele><time>2026-04-26T04:37:30.73Z</time></trkpt><trkpt lat="42.97737" lon="2.3715467"><ele>695.0</ele><time>2026-04-26T04:37:31.73Z</time></trkpt><trkpt lat="42.9772933" lon="2.3717667"><ele>695.0</ele><time>2026-04-26T04:37:32.73Z</time></trkpt><trkpt lat="42.9772167" lon="2.3719867"><ele>695.0</ele><time>2026-04-26T04:37:33.729Z</time></trkpt><trkpt lat="42.9771417" lon="2.3721933"><ele>695.0</ele><time>2026-04-26T04:37:34.731Z</time></trkpt><trkpt lat="42.9770683" lon="2.372395"><ele>694.0</ele><time>2026-04-26T04:37:35.73Z</time></trkpt><trkpt lat="42.976995" lon="2.3725933"><ele>693.0</ele><time>2026-04-26T04:37:36.73Z</time></trkpt><trkpt lat="42.976925" lon="2.37278"><ele>692.0</ele><time>2026-04-26T04:37:37.729Z</time></trkpt><trkpt lat="42.9768633" lon="2.3729567"><ele>692.5</ele><time>2026-04-26T04:37:38.73Z</time></trkpt><trkpt lat="42.9768117" lon="2.3731217"><ele>693.0</ele><time>2026-04-26T04:37:39.73Z</time></trkpt><trkpt lat="42.9767767" lon="2.3732867"><ele>693.5</ele><time>2026-04-26T04:37:40.729Z</time></trkpt><trkpt lat="42.9767683" lon="2.3734633"><ele>694.0</ele><time>2026-04-26T04:37:41.729Z</time></trkpt><trkpt lat="42.9767833" lon="2.37364"><ele>694.0</ele><time>2026-04-26T04:37:42.731Z</time></trkpt><trkpt lat="42.97681" lon="2.373825"><ele>694.0</ele><time>2026-04-26T04:37:43.73Z</time></trkpt><trkpt lat="42.9768417" lon="2.374015"><ele>694.0</ele><time>2026-04-26T04:37:44.73Z</time></trkpt><trkpt lat="42.97687" lon="2.3741833"><ele>694.0</ele><time>2026-04-26T04:37:45.727Z</time></trkpt><trkpt lat="42.9769" lon="2.3743417"><ele>694.4000000000001</ele><time>2026-04-26T04:37:46.729Z</time></trkpt><trkpt lat="42.9769267" lon="2.3744783"><ele>694.8</ele><time>2026-04-26T04:37:47.728Z</time></trkpt><trkpt lat="42.97695" lon="2.3745983"><ele>695.2</ele><time>2026-04-26T04:37:48.729Z</time></trkpt><trkpt lat="42.9769583" lon="2.3747067"><ele>695.5999999999999</ele><time>2026-04-26T04:37:49.728Z</time></trkpt><trkpt lat="42.9769533" lon="2.37482"><ele>696.0</ele><time>2026-04-26T04:37:50.729Z</time></trkpt><trkpt lat="42.9769217" lon="2.3749533"><ele>696.25</ele><time>2026-04-26T04:37:51.727Z</time></trkpt><trkpt lat="42.9768667" lon="2.375105"><ele>696.5</ele><time>2026-04-26T04:37:52.728Z</time></trkpt><trkpt lat="42.9768067" lon="2.3752733"><ele>696.75</ele><time>2026-04-26T04:37:53.733Z</time></trkpt><trkpt lat="42.9767417" lon="2.3754417"><ele>697.0</ele><time>2026-04-26T04:37:54.729Z</time></trkpt><trkpt lat="42.9766767" lon="2.3756017"><ele>699.75</ele><time>2026-04-26T04:37:55.728Z</time></trkpt><trkpt lat="42.97662" lon="2.375765"><ele>702.5</ele><time>2026-04-26T04:37:56.727Z</time></trkpt><trkpt lat="42.97657" lon="2.3759417"><ele>705.25</ele><time>2026-04-26T04:37:57.728Z</time></trkpt><trkpt lat="42.9765267" lon="2.3761383"><ele>708.0</ele><time>2026-04-26T04:37:58.729Z</time></trkpt><trkpt lat="42.9764867" lon="2.3763433"><ele>709.0</ele><time>2026-04-26T04:37:59.729Z</time></trkpt><trkpt lat="42.9764483" lon="2.37656"><ele>710.0</ele><time>2026-04-26T04:38:00.728Z</time></trkpt><trkpt lat="42.97641" lon="2.3767817"><ele>711.0</ele><time>2026-04-26T04:38:01.729Z</time></trkpt><trkpt lat="42.9763733" lon="2.37701"><ele>710.6666666666666</ele><time>2026-04-26T04:38:02.734Z</time></trkpt><trkpt lat="42.9763333" lon="2.3772383"><ele>710.3333333333333</ele><time>2026-04-26T04:38:03.729Z</time></trkpt><trkpt lat="42.976295" lon="2.3774617"><ele>710.0</ele><time>2026-04-26T04:38:04.729Z</time></trkpt><trkpt lat="42.9762683" lon="2.3776767"><ele>710.0</ele><time>2026-04-26T04:38:05.728Z</time></trkpt><trkpt lat="42.976245" lon="2.37788"><ele>710.0</ele><time>2026-04-26T04:38:06.73Z</time></trkpt><trkpt lat="42.97622" lon="2.378065"><ele>710.0</ele><time>2026-04-26T04:38:07.728Z</time></trkpt><trkpt lat="42.9762" lon="2.378245"><ele>710.0</ele><time>2026-04-26T04:38:08.729Z</time></trkpt><trkpt lat="42.9761833" lon="2.378405"><ele>709.25</ele><time>2026-04-26T04:38:09.73Z</time></trkpt><trkpt lat="42.9761567" lon="2.3785583"><ele>708.5</ele><time>2026-04-26T04:38:10.728Z</time></trkpt><trkpt lat="42.9761117" lon="2.3787117"><ele>707.75</ele><time>2026-04-26T04:38:11.729Z</time></trkpt><trkpt lat="42.9760533" lon="2.37886"><ele>707.0</ele><time>2026-04-26T04:38:12.729Z</time></trkpt><trkpt lat="42.9759867" lon="2.3790033"><ele>706.4000000000001</ele><time>2026-04-26T04:38:13.727Z</time></trkpt><trkpt lat="42.9759317" lon="2.3791367"><ele>705.8000000000001</ele><time>2026-04-26T04:38:14.728Z</time></trkpt><trkpt lat="42.9758817" lon="2.3792583"><ele>705.2</ele><time>2026-04-26T04:38:15.728Z</time></trkpt><trkpt lat="42.9758383" lon="2.3793633"><ele>704.6</ele><time>2026-04-26T04:38:16.729Z</time></trkpt><trkpt lat="42.9758033" lon="2.379455"><ele>704.0</ele><time>2026-04-26T04:38:17.728Z</time></trkpt><trkpt lat="42.9757617" lon="2.3795717"><ele>704.0</ele><time>2026-04-26T04:38:19.728Z</time></trkpt><trkpt lat="42.9757083" lon="2.37963"><ele>704.0</ele><time>2026-04-26T04:38:21.732Z</time></trkpt><trkpt lat="42.9755833" lon="2.3796467"><ele>704.0</ele><time>2026-04-26T04:38:23.727Z</time></trkpt><trkpt lat="42.97549" lon="2.3796467"><ele>704.0</ele><time>2026-04-26T04:38:24.729Z</time></trkpt><trkpt lat="42.9753967" lon="2.379675"><ele>704.0</ele><time>2026-04-26T04:38:25.729Z</time></trkpt><trkpt lat="42.9752967" lon="2.3797417"><ele>704.0</ele><time>2026-04-26T04:38:26.729Z</time></trkpt><trkpt lat="42.9751967" lon="2.3798383"><ele>704.0</ele><time>2026-04-26T04:38:27.729Z</time></trkpt><trkpt lat="42.9750967" lon="2.3799467"><ele>704.0</ele><time>2026-04-26T04:38:28.729Z</time></trkpt><trkpt lat="42.9749933" lon="2.380055"><ele>704.0</ele><time>2026-04-26T04:38:29.729Z</time></trkpt><trkpt lat="42.9748833" lon="2.3801567"><ele>702.0</ele><time>2026-04-26T04:38:30.728Z</time></trkpt><trkpt lat="42.9747567" lon="2.3802383"><ele>700.0</ele><time>2026-04-26T04:38:31.728Z</time></trkpt><trkpt lat="42.9746217" lon="2.3803033"><ele>698.0</ele><time>2026-04-26T04:38:32.73Z</time></trkpt><trkpt lat="42.9744833" lon="2.3803483"><ele>696.0</ele><time>2026-04-26T04:38:33.729Z</time></trkpt><trkpt lat="42.9743467" lon="2.3803833"><ele>696.0</ele><time>2026-04-26T04:38:34.729Z</time></trkpt><trkpt lat="42.97421" lon="2.3804317"><ele>696.0</ele><time>2026-04-26T04:38:35.728Z</time></trkpt><trkpt lat="42.9740733" lon="2.38051"><ele>696.0</ele><time>2026-04-26T04:38:36.729Z</time></trkpt><trkpt lat="42.9739417" lon="2.3806183"><ele>696.0</ele><time>2026-04-26T04:38:37.729Z</time></trkpt><trkpt lat="42.9738167" lon="2.3807483"><ele>696.0</ele><time>2026-04-26T04:38:38.728Z</time></trkpt><trkpt lat="42.973695" lon="2.3808917"><ele>696.0</ele><time>2026-04-26T04:38:39.728Z</time></trkpt><trkpt lat="42.9735833" lon="2.3810483"><ele>696.0</ele><time>2026-04-26T04:38:40.728Z</time></trkpt><trkpt lat="42.9734833" lon="2.3812283"><ele>700.0</ele><time>2026-04-26T04:38:41.735Z</time></trkpt><trkpt lat="42.9733867" lon="2.381425"><ele>704.0</ele><time>2026-04-26T04:38:42.73Z</time></trkpt><trkpt lat="42.9732917" lon="2.3816267"><ele>708.0</ele><time>2026-04-26T04:38:43.728Z</time></trkpt><trkpt lat="42.9731983" lon="2.38183"><ele>702.3333333333334</ele><time>2026-04-26T04:38:44.728Z</time></trkpt><trkpt lat="42.9731017" lon="2.3820333"><ele>696.6666666666667</ele><time>2026-04-26T04:38:45.729Z</time></trkpt><trkpt lat="42.973005" lon="2.3822317"><ele>691.0</ele><time>2026-04-26T04:38:46.731Z</time></trkpt><trkpt lat="42.972915" lon="2.3824317"><ele>691.0</ele><time>2026-04-26T04:38:47.728Z</time></trkpt><trkpt lat="42.9728267" lon="2.382625"><ele>691.0</ele><time>2026-04-26T04:38:48.729Z</time></trkpt><trkpt lat="42.9727383" lon="2.38281"><ele>691.0</ele><time>2026-04-26T04:38:49.727Z</time></trkpt><trkpt lat="42.9726567" lon="2.382995"><ele>692.3333333333334</ele><time>2026-04-26T04:38:50.728Z</time></trkpt><trkpt lat="42.9725717" lon="2.3831733"><ele>693.6666666666666</ele><time>2026-04-26T04:38:51.728Z</time></trkpt><trkpt lat="42.9724867" lon="2.3833417"><ele>695.0</ele><time>2026-04-26T04:38:52.729Z</time></trkpt><trkpt lat="42.9724067" lon="2.3835083"><ele>690.0</ele><time>2026-04-26T04:38:53.728Z</time></trkpt><trkpt lat="42.972335" lon="2.3836717"><ele>685.0</ele><time>2026-04-26T04:38:54.729Z</time></trkpt><trkpt lat="42.9722767" lon="2.383825"><ele>680.0</ele><time>2026-04-26T04:38:55.729Z</time></trkpt><trkpt lat="42.9722283" lon="2.383975"><ele>675.0</ele><time>2026-04-26T04:38:56.729Z</time></trkpt><trkpt lat="42.9722133" lon="2.3841233"><ele>675.0</ele><time>2026-04-26T04:38:57.728Z</time></trkpt><trkpt lat="42.9722367" lon="2.3842683"><ele>675.0</ele><time>2026-04-26T04:38:58.728Z</time></trkpt><trkpt lat="42.9722833" lon="2.38442"><ele>675.0</ele><time>2026-04-26T04:38:59.728Z</time></trkpt><trkpt lat="42.9723283" lon="2.384585"><ele>675.0</ele><time>2026-04-26T04:39:00.729Z</time></trkpt><trkpt lat="42.9723517" lon="2.3847617"><ele>675.75</ele><time>2026-04-26T04:39:01.728Z</time></trkpt><trkpt lat="42.9723517" lon="2.3849433"><ele>676.5</ele><time>2026-04-26T04:39:02.729Z</time></trkpt><trkpt lat="42.9723317" lon="2.3851267"><ele>677.25</ele><time>2026-04-26T04:39:03.727Z</time></trkpt><trkpt lat="42.9722917" lon="2.3853083"><ele>678.0</ele><time>2026-04-26T04:39:04.728Z</time></trkpt><trkpt lat="42.97223" lon="2.3854767"><ele>679.25</ele><time>2026-04-26T04:39:05.729Z</time></trkpt><trkpt lat="42.972155" lon="2.3856283"><ele>680.5</ele><time>2026-04-26T04:39:06.729Z</time></trkpt><trkpt lat="42.9720667" lon="2.3857567"><ele>681.75</ele><time>2026-04-26T04:39:07.728Z</time></trkpt><trkpt lat="42.9719633" lon="2.385845"><ele>683.0</ele><time>2026-04-26T04:39:08.729Z</time></trkpt><trkpt lat="42.9718583" lon="2.3859017"><ele>683.0</ele><time>2026-04-26T04:39:09.727Z</time></trkpt><trkpt lat="42.9717717" lon="2.3859667"><ele>683.0</ele><time>2026-04-26T04:39:10.729Z</time></trkpt><trkpt lat="42.971705" lon="2.3860433"><ele>683.0</ele><time>2026-04-26T04:39:11.727Z</time></trkpt><trkpt lat="42.9717017" lon="2.3861517"><ele>683.0</ele><time>2026-04-26T04:39:12.729Z</time></trkpt><trkpt lat="42.971725" lon="2.3862633"><ele>683.0</ele><time>2026-04-26T04:39:13.727Z</time></trkpt><trkpt lat="42.9717717" lon="2.3863783"><ele>683.0</ele><time>2026-04-26T04:39:14.728Z</time></trkpt><trkpt lat="42.9718517" lon="2.3864917"><ele>681.0</ele><time>2026-04-26T04:39:15.727Z</time></trkpt><trkpt lat="42.971925" lon="2.3865933"><ele>679.0</ele><time>2026-04-26T04:39:16.727Z</time></trkpt><trkpt lat="42.9719867" lon="2.3866933"><ele>677.0</ele><time>2026-04-26T04:39:17.728Z</time></trkpt><trkpt lat="42.9720333" lon="2.386815"><ele>675.0</ele><time>2026-04-26T04:39:18.729Z</time></trkpt><trkpt lat="42.9720483" lon="2.3869533"><ele>673.0</ele><time>2026-04-26T04:39:19.731Z</time></trkpt><trkpt lat="42.972025" lon="2.3871033"><ele>672.75</ele><time>2026-04-26T04:39:20.73Z</time></trkpt><trkpt lat="42.9719683" lon="2.3872533"><ele>672.5</ele><time>2026-04-26T04:39:21.73Z</time></trkpt><trkpt lat="42.9718817" lon="2.38739"><ele>672.25</ele><time>2026-04-26T04:39:22.729Z</time></trkpt><trkpt lat="42.9717833" lon="2.38753"><ele>672.0</ele><time>2026-04-26T04:39:23.729Z</time></trkpt><trkpt lat="42.97169" lon="2.3876867"><ele>663.3333333333334</ele><time>2026-04-26T04:39:24.729Z</time></trkpt><trkpt lat="42.9715967" lon="2.3878517"><ele>654.6666666666667</ele><time>2026-04-26T04:39:25.729Z</time></trkpt><trkpt lat="42.9715217" lon="2.3880317"><ele>646.0</ele><time>2026-04-26T04:39:26.729Z</time></trkpt><trkpt lat="42.9714667" lon="2.3882317"><ele>646.0</ele><time>2026-04-26T04:39:27.73Z</time></trkpt><trkpt lat="42.971415" lon="2.388435"><ele>646.0</ele><time>2026-04-26T04:39:28.728Z</time></trkpt><trkpt lat="42.9713733" lon="2.3886483"><ele>646.0</ele><time>2026-04-26T04:39:29.727Z</time></trkpt><trkpt lat="42.9713433" lon="2.38887"><ele>646.3333333333334</ele><time>2026-04-26T04:39:30.727Z</time></trkpt><trkpt lat="42.971315" lon="2.3890967"><ele>646.6666666666666</ele><time>2026-04-26T04:39:31.73Z</time></trkpt><trkpt lat="42.9712933" lon="2.389325"><ele>647.0</ele><time>2026-04-26T04:39:32.729Z</time></trkpt><trkpt lat="42.97128" lon="2.389545"><ele>647.0</ele><time>2026-04-26T04:39:33.728Z</time></trkpt><trkpt lat="42.9712633" lon="2.38976"><ele>647.0</ele><time>2026-04-26T04:39:34.727Z</time></trkpt><trkpt lat="42.9712367" lon="2.3899617"><ele>647.0</ele><time>2026-04-26T04:39:35.727Z</time></trkpt><trkpt lat="42.9712117" lon="2.3901667"><ele>647.0</ele><time>2026-04-26T04:39:36.731Z</time></trkpt><trkpt lat="42.971195" lon="2.39037"><ele>647.0</ele><time>2026-04-26T04:39:37.729Z</time></trkpt><trkpt lat="42.9711917" lon="2.3905617"><ele>647.0</ele><time>2026-04-26T04:39:38.73Z</time></trkpt><trkpt lat="42.9711867" lon="2.39075"><ele>647.0</ele><time>2026-04-26T04:39:39.729Z</time></trkpt><trkpt lat="42.97118" lon="2.3909367"><ele>645.25</ele><time>2026-04-26T04:39:40.728Z</time></trkpt><trkpt lat="42.9711683" lon="2.3911183"><ele>643.5</ele><time>2026-04-26T04:39:41.728Z</time></trkpt><trkpt lat="42.971165" lon="2.3912883"><ele>641.75</ele><time>2026-04-26T04:39:42.729Z</time></trkpt><trkpt lat="42.9711667" lon="2.391435"><ele>640.0</ele><time>2026-04-26T04:39:43.728Z</time></trkpt><trkpt lat="42.971185" lon="2.39155"><ele>637.8333333333334</ele><time>2026-04-26T04:39:44.729Z</time></trkpt><trkpt lat="42.9712267" lon="2.391635"><ele>635.6666666666667</ele><time>2026-04-26T04:39:45.728Z</time></trkpt><trkpt lat="42.9712983" lon="2.391695"><ele>633.5</ele><time>2026-04-26T04:39:46.729Z</time></trkpt><trkpt lat="42.9713917" lon="2.3917333"><ele>631.3333333333334</ele><time>2026-04-26T04:39:47.727Z</time></trkpt><trkpt lat="42.97147" lon="2.3917883"><ele>629.1666666666666</ele><time>2026-04-26T04:39:48.728Z</time></trkpt><trkpt lat="42.9715117" lon="2.3918917"><ele>627.0</ele><time>2026-04-26T04:39:49.728Z</time></trkpt><trkpt lat="42.9714983" lon="2.3920167"><ele>627.0</ele><time>2026-04-26T04:39:50.728Z</time></trkpt><trkpt lat="42.9714583" lon="2.3921317"><ele>627.0</ele><time>2026-04-26T04:39:51.728Z</time></trkpt><trkpt lat="42.9713983" lon="2.3922317"><ele>627.0</ele><time>2026-04-26T04:39:52.727Z</time></trkpt><trkpt lat="42.9713283" lon="2.3923317"><ele>627.0</ele><time>2026-04-26T04:39:53.728Z</time></trkpt><trkpt lat="42.9712717" lon="2.39245"><ele>627.0</ele><time>2026-04-26T04:39:54.728Z</time></trkpt><trkpt lat="42.97124" lon="2.392595"><ele>627.25</ele><time>2026-04-26T04:39:55.727Z</time></trkpt><trkpt lat="42.97124" lon="2.3927583"><ele>627.5</ele><time>2026-04-26T04:39:56.729Z</time></trkpt><trkpt lat="42.9712733" lon="2.392925"><ele>627.75</ele><time>2026-04-26T04:39:57.728Z</time></trkpt><trkpt lat="42.9713317" lon="2.3930833"><ele>628.0</ele><time>2026-04-26T04:39:58.728Z</time></trkpt><trkpt lat="42.9714083" lon="2.3932317"><ele>627.5</ele><time>2026-04-26T04:39:59.729Z</time></trkpt><trkpt lat="42.9714983" lon="2.3933717"><ele>627.0</ele><time>2026-04-26T04:40:00.729Z</time></trkpt><trkpt lat="42.9715917" lon="2.3935067"><ele>626.5</ele><time>2026-04-26T04:40:01.728Z</time></trkpt><trkpt lat="42.971685" lon="2.3936433"><ele>626.0</ele><time>2026-04-26T04:40:02.728Z</time></trkpt><trkpt lat="42.9717717" lon="2.393775"><ele>630.0</ele><time>2026-04-26T04:40:03.727Z</time></trkpt><trkpt lat="42.9718483" lon="2.3938933"><ele>634.0</ele><time>2026-04-26T04:40:04.728Z</time></trkpt><trkpt lat="42.9719117" lon="2.3940083"><ele>638.0</ele><time>2026-04-26T04:40:05.727Z</time></trkpt><trkpt lat="42.97195" lon="2.3941333"><ele>642.0</ele><time>2026-04-26T04:40:06.728Z</time></trkpt><trkpt lat="42.9719533" lon="2.3942717"><ele>646.0</ele><time>2026-04-26T04:40:07.727Z</time></trkpt><trkpt lat="42.971915" lon="2.3944067"><ele>646.0</ele><time>2026-04-26T04:40:08.73Z</time></trkpt><trkpt lat="42.9718367" lon="2.3945133"><ele>646.0</ele><time>2026-04-26T04:40:09.729Z</time></trkpt><trkpt lat="42.9717283" lon="2.394585"><ele>646.0</ele><time>2026-04-26T04:40:10.729Z</time></trkpt><trkpt lat="42.97162" lon="2.3946417"><ele>646.0</ele><time>2026-04-26T04:40:11.731Z</time></trkpt><trkpt lat="42.9715233" lon="2.3947167"><ele>642.0</ele><time>2026-04-26T04:40:12.73Z</time></trkpt><trkpt lat="42.97145" lon="2.39483"><ele>638.0</ele><time>2026-04-26T04:40:13.728Z</time></trkpt><trkpt lat="42.9714133" lon="2.39498"><ele>634.0</ele><time>2026-04-26T04:40:14.728Z</time></trkpt><trkpt lat="42.9714033" lon="2.3951533"><ele>630.0</ele><time>2026-04-26T04:40:15.727Z</time></trkpt><trkpt lat="42.9714033" lon="2.3953367"><ele>631.25</ele><time>2026-04-26T04:40:16.729Z</time></trkpt><trkpt lat="42.971405" lon="2.3955217"><ele>632.5</ele><time>2026-04-26T04:40:17.729Z</time></trkpt><trkpt lat="42.9714167" lon="2.3957117"><ele>633.75</ele><time>2026-04-26T04:40:18.728Z</time></trkpt><trkpt lat="42.9714533" lon="2.3959067"><ele>635.0</ele><time>2026-04-26T04:40:19.729Z</time></trkpt><trkpt lat="42.9715117" lon="2.3961017"><ele>635.0</ele><time>2026-04-26T04:40:20.73Z</time></trkpt><trkpt lat="42.9715783" lon="2.3962933"><ele>635.0</ele><time>2026-04-26T04:40:21.728Z</time></trkpt><trkpt lat="42.9716483" lon="2.3964833"><ele>635.0</ele><time>2026-04-26T04:40:22.729Z</time></trkpt><trkpt lat="42.9717217" lon="2.396675"><ele>636.25</ele><time>2026-04-26T04:40:23.728Z</time></trkpt><trkpt lat="42.971795" lon="2.39686"><ele>637.5</ele><time>2026-04-26T04:40:24.728Z</time></trkpt><trkpt lat="42.9718733" lon="2.3970383"><ele>638.75</ele><time>2026-04-26T04:40:25.729Z</time></trkpt><trkpt lat="42.9719467" lon="2.397205"><ele>640.0</ele><time>2026-04-26T04:40:26.728Z</time></trkpt><trkpt lat="42.972015" lon="2.3973583"><ele>640.0</ele><time>2026-04-26T04:40:27.73Z</time></trkpt><trkpt lat="42.972095" lon="2.39749"><ele>640.0</ele><time>2026-04-26T04:40:28.728Z</time></trkpt><trkpt lat="42.9721917" lon="2.3975783"><ele>640.0</ele><time>2026-04-26T04:40:29.734Z</time></trkpt><trkpt lat="42.9723017" lon="2.3976217"><ele>640.0</ele><time>2026-04-26T04:40:30.729Z</time></trkpt><trkpt lat="42.97242" lon="2.3976233"><ele>644.6</ele><time>2026-04-26T04:40:31.728Z</time></trkpt><trkpt lat="42.972535" lon="2.39761"><ele>649.2</ele><time>2026-04-26T04:40:32.727Z</time></trkpt><trkpt lat="42.9726367" lon="2.3976067"><ele>653.8</ele><time>2026-04-26T04:40:33.728Z</time></trkpt><trkpt lat="42.97273" lon="2.3976383"><ele>658.4</ele><time>2026-04-26T04:40:34.73Z</time></trkpt><trkpt lat="42.9728083" lon="2.39772"><ele>663.0</ele><time>2026-04-26T04:40:35.727Z</time></trkpt><trkpt lat="42.972855" lon="2.3978583"><ele>660.75</ele><time>2026-04-26T04:40:36.729Z</time></trkpt><trkpt lat="42.97287" lon="2.398025"><ele>658.5</ele><time>2026-04-26T04:40:37.728Z</time></trkpt><trkpt lat="42.9728717" lon="2.3982017"><ele>656.25</ele><time>2026-04-26T04:40:38.728Z</time></trkpt><trkpt lat="42.97288" lon="2.398375"><ele>654.0</ele><time>2026-04-26T04:40:39.728Z</time></trkpt><trkpt lat="42.9728933" lon="2.3985367"><ele>654.0</ele><time>2026-04-26T04:40:40.728Z</time></trkpt><trkpt lat="42.97292" lon="2.39868"><ele>654.0</ele><time>2026-04-26T04:40:41.727Z</time></trkpt><trkpt lat="42.97297" lon="2.3987933"><ele>654.0</ele><time>2026-04-26T04:40:42.728Z</time></trkpt><trkpt lat="42.9730517" lon="2.398865"><ele>654.0</ele><time>2026-04-26T04:40:43.728Z</time></trkpt><trkpt lat="42.97315" lon="2.3988883"><ele>654.0</ele><time>2026-04-26T04:40:44.728Z</time></trkpt><trkpt lat="42.973255" lon="2.3988817"><ele>656.0</ele><time>2026-04-26T04:40:45.728Z</time></trkpt><trkpt lat="42.973385" lon="2.398845"><ele>658.0</ele><time>2026-04-26T04:40:46.728Z</time></trkpt><trkpt lat="42.9735117" lon="2.3988067"><ele>660.0</ele><time>2026-04-26T04:40:47.728Z</time></trkpt><trkpt lat="42.9736383" lon="2.39877"><ele>662.0</ele><time>2026-04-26T04:40:48.729Z</time></trkpt><trkpt lat="42.97376" lon="2.3987483"><ele>662.0</ele><time>2026-04-26T04:40:49.728Z</time></trkpt><trkpt lat="42.97386" lon="2.3987617"><ele>662.0</ele><time>2026-04-26T04:40:50.729Z</time></trkpt><trkpt lat="42.9739417" lon="2.3988083"><ele>662.0</ele><time>2026-04-26T04:40:51.727Z</time></trkpt><trkpt lat="42.97399" lon="2.3988967"><ele>662.0</ele><time>2026-04-26T04:40:52.729Z</time></trkpt><trkpt lat="42.9739833" lon="2.3990167"><ele>662.0</ele><time>2026-04-26T04:40:53.727Z</time></trkpt><trkpt lat="42.97395" lon="2.3991517"><ele>662.0</ele><time>2026-04-26T04:40:54.729Z</time></trkpt><trkpt lat="42.9739083" lon="2.399305"><ele>662.0</ele><time>2026-04-26T04:40:55.727Z</time></trkpt><trkpt lat="42.9738633" lon="2.3994717"><ele>662.0</ele><time>2026-04-26T04:40:56.727Z</time></trkpt><trkpt lat="42.973825" lon="2.3996483"><ele>662.0</ele><time>2026-04-26T04:40:57.728Z</time></trkpt><trkpt lat="42.9737867" lon="2.3998383"><ele>664.0</ele><time>2026-04-26T04:40:58.727Z</time></trkpt><trkpt lat="42.9737517" lon="2.400035"><ele>666.0</ele><time>2026-04-26T04:40:59.729Z</time></trkpt><trkpt lat="42.9737167" lon="2.400235"><ele>668.0</ele><time>2026-04-26T04:41:00.728Z</time></trkpt><trkpt lat="42.9736867" lon="2.40044"><ele>669.3333333333333</ele><time>2026-04-26T04:41:01.729Z</time></trkpt><trkpt lat="42.9736567" lon="2.4006483"><ele>670.6666666666666</ele><time>2026-04-26T04:41:02.727Z</time></trkpt><trkpt lat="42.9736233" lon="2.4008617"><ele>672.0</ele><time>2026-04-26T04:41:03.734Z</time></trkpt><trkpt lat="42.97359" lon="2.4010733"><ele>672.0</ele><time>2026-04-26T04:41:04.73Z</time></trkpt><trkpt lat="42.973565" lon="2.4012783"><ele>672.0</ele><time>2026-04-26T04:41:05.727Z</time></trkpt><trkpt lat="42.9735483" lon="2.4014767"><ele>672.0</ele><time>2026-04-26T04:41:06.728Z</time></trkpt><trkpt lat="42.973535" lon="2.4016567"><ele>672.0</ele><time>2026-04-26T04:41:07.729Z</time></trkpt><trkpt lat="42.9735317" lon="2.4018133"><ele>671.0</ele><time>2026-04-26T04:41:08.729Z</time></trkpt><trkpt lat="42.9735517" lon="2.4019367"><ele>670.0</ele><time>2026-04-26T04:41:09.727Z</time></trkpt><trkpt lat="42.973585" lon="2.4020367"><ele>669.0</ele><time>2026-04-26T04:41:10.728Z</time></trkpt><trkpt lat="42.9736683" lon="2.4020733"><ele>668.0</ele><time>2026-04-26T04:41:11.727Z</time></trkpt><trkpt lat="42.9737483" lon="2.4021"><ele>667.0</ele><time>2026-04-26T04:41:12.728Z</time></trkpt><trkpt lat="42.9738517" lon="2.402105"><ele>666.0</ele><time>2026-04-26T04:41:13.727Z</time></trkpt><trkpt lat="42.9739717" lon="2.40211"><ele>666.0</ele><time>2026-04-26T04:41:14.728Z</time></trkpt><trkpt lat="42.9740967" lon="2.4021367"><ele>666.0</ele><time>2026-04-26T04:41:15.728Z</time></trkpt><trkpt lat="42.9742117" lon="2.4021983"><ele>666.0</ele><time>2026-04-26T04:41:16.726Z</time></trkpt><trkpt lat="42.9743117" lon="2.40229"><ele>666.0</ele><time>2026-04-26T04:41:17.727Z</time></trkpt><trkpt lat="42.974395" lon="2.4023883"><ele>666.8</ele><time>2026-04-26T04:41:18.728Z</time></trkpt><trkpt lat="42.9744717" lon="2.4024767"><ele>667.5999999999999</ele><time>2026-04-26T04:41:19.727Z</time></trkpt><trkpt lat="42.9745567" lon="2.4025183"><ele>668.4</ele><time>2026-04-26T04:41:20.728Z</time></trkpt><trkpt lat="42.97465" lon="2.4025"><ele>669.2</ele><time>2026-04-26T04:41:21.729Z</time></trkpt><trkpt lat="42.9747317" lon="2.4024267"><ele>670.0</ele><time>2026-04-26T04:41:22.729Z</time></trkpt><trkpt lat="42.9747983" lon="2.40234"><ele>670.0</ele><time>2026-04-26T04:41:23.734Z</time></trkpt><trkpt lat="42.97487" lon="2.4022633"><ele>670.0</ele><time>2026-04-26T04:41:24.73Z</time></trkpt><trkpt lat="42.9749433" lon="2.40221"><ele>670.0</ele><time>2026-04-26T04:41:25.729Z</time></trkpt><trkpt lat="42.975005" lon="2.4022467"><ele>670.0</ele><time>2026-04-26T04:41:26.73Z</time></trkpt><trkpt lat="42.9750533" lon="2.40235"><ele>670.0</ele><time>2026-04-26T04:41:27.729Z</time></trkpt><trkpt lat="42.9750767" lon="2.4024767"><ele>670.0</ele><time>2026-04-26T04:41:28.729Z</time></trkpt><trkpt lat="42.9750633" lon="2.4026133"><ele>670.0</ele><time>2026-04-26T04:41:29.729Z</time></trkpt><trkpt lat="42.975005" lon="2.4027633"><ele>670.0</ele><time>2026-04-26T04:41:30.729Z</time></trkpt><trkpt lat="42.9749267" lon="2.402915"><ele>670.0</ele><time>2026-04-26T04:41:31.728Z</time></trkpt><trkpt lat="42.974835" lon="2.4030583"><ele>670.0</ele><time>2026-04-26T04:41:32.731Z</time></trkpt><trkpt lat="42.97474" lon="2.4031967"><ele>671.75</ele><time>2026-04-26T04:41:33.729Z</time></trkpt><trkpt lat="42.9746433" lon="2.40334"><ele>673.5</ele><time>2026-04-26T04:41:34.728Z</time></trkpt><trkpt lat="42.97455" lon="2.4034967"><ele>675.25</ele><time>2026-04-26T04:41:35.728Z</time></trkpt><trkpt lat="42.9744683" lon="2.40367"><ele>677.0</ele><time>2026-04-26T04:41:36.728Z</time></trkpt><trkpt lat="42.9744" lon="2.4038483"><ele>677.25</ele><time>2026-04-26T04:41:37.732Z</time></trkpt><trkpt lat="42.974335" lon="2.40401"><ele>677.5</ele><time>2026-04-26T04:41:38.728Z</time></trkpt><trkpt lat="42.9742733" lon="2.4041533"><ele>677.75</ele><time>2026-04-26T04:41:39.733Z</time></trkpt><trkpt lat="42.97422" lon="2.4042833"><ele>678.0</ele><time>2026-04-26T04:41:40.729Z</time></trkpt><trkpt lat="42.9741933" lon="2.40441"><ele>678.0</ele><time>2026-04-26T04:41:41.729Z</time></trkpt><trkpt lat="42.9742117" lon="2.4045367"><ele>678.0</ele><time>2026-04-26T04:41:42.729Z</time></trkpt><trkpt lat="42.974275" lon="2.4046417"><ele>678.0</ele><time>2026-04-26T04:41:43.728Z</time></trkpt><trkpt lat="42.9743667" lon="2.4047067"><ele>678.0</ele><time>2026-04-26T04:41:44.73Z</time></trkpt><trkpt lat="42.9744783" lon="2.404725"><ele>678.0</ele><time>2026-04-26T04:41:45.728Z</time></trkpt><trkpt lat="42.9746" lon="2.4047117"><ele>678.0</ele><time>2026-04-26T04:41:46.728Z</time></trkpt><trkpt lat="42.9747267" lon="2.4046783"><ele>678.0</ele><time>2026-04-26T04:41:47.729Z</time></trkpt><trkpt lat="42.9748567" lon="2.40464"><ele>678.0</ele><time>2026-04-26T04:41:48.731Z</time></trkpt><trkpt lat="42.974985" lon="2.4046017"><ele>678.0</ele><time>2026-04-26T04:41:49.729Z</time></trkpt><trkpt lat="42.97511" lon="2.4045667"><ele>679.4</ele><time>2026-04-26T04:41:50.73Z</time></trkpt><trkpt lat="42.9752267" lon="2.404535"><ele>680.8</ele><time>2026-04-26T04:41:51.729Z</time></trkpt><trkpt lat="42.9753317" lon="2.4045217"><ele>682.2</ele><time>2026-04-26T04:41:52.729Z</time></trkpt><trkpt lat="42.9754233" lon="2.404545"><ele>683.6</ele><time>2026-04-26T04:41:53.732Z</time></trkpt><trkpt lat="42.975495" lon="2.404615"><ele>685.0</ele><time>2026-04-26T04:41:54.728Z</time></trkpt><trkpt lat="42.975525" lon="2.4047283"><ele>685.0</ele><time>2026-04-26T04:41:55.734Z</time></trkpt><trkpt lat="42.975505" lon="2.4048567"><ele>685.0</ele><time>2026-04-26T04:41:56.729Z</time></trkpt><trkpt lat="42.97547" lon="2.40498"><ele>685.0</ele><time>2026-04-26T04:41:57.727Z</time></trkpt><trkpt lat="42.9754567" lon="2.4051033"><ele>685.0</ele><time>2026-04-26T04:41:58.728Z</time></trkpt><trkpt lat="42.9754833" lon="2.4052183"><ele>685.0</ele><time>2026-04-26T04:41:59.728Z</time></trkpt><trkpt lat="42.97556" lon="2.40531"><ele>685.0</ele><time>2026-04-26T04:42:00.731Z</time></trkpt><trkpt lat="42.975665" lon="2.40539"><ele>685.0</ele><time>2026-04-26T04:42:01.73Z</time></trkpt><trkpt lat="42.975765" lon="2.405485"><ele>685.0</ele><time>2026-04-26T04:42:02.729Z</time></trkpt><trkpt lat="42.9758333" lon="2.4056217"><ele>685.0</ele><time>2026-04-26T04:42:03.729Z</time></trkpt><trkpt lat="42.9758517" lon="2.40579"><ele>685.0</ele><time>2026-04-26T04:42:04.729Z</time></trkpt><trkpt lat="42.9758367" lon="2.40597"><ele>685.0</ele><time>2026-04-26T04:42:05.728Z</time></trkpt><trkpt lat="42.97582" lon="2.4061533"><ele>685.0</ele><time>2026-04-26T04:42:06.729Z</time></trkpt><trkpt lat="42.9758233" lon="2.4063417"><ele>685.0</ele><time>2026-04-26T04:42:07.729Z</time></trkpt><trkpt lat="42.9758567" lon="2.40652"><ele>685.0</ele><time>2026-04-26T04:42:08.73Z</time></trkpt><trkpt lat="42.9759217" lon="2.4066783"><ele>685.0</ele><time>2026-04-26T04:42:09.728Z</time></trkpt><trkpt lat="42.9760183" lon="2.4068117"><ele>685.0</ele><time>2026-04-26T04:42:10.729Z</time></trkpt><trkpt lat="42.9761333" lon="2.4069217"><ele>685.0</ele><time>2026-04-26T04:42:11.729Z</time></trkpt><trkpt lat="42.97626" lon="2.4070017"><ele>685.0</ele><time>2026-04-26T04:42:12.729Z</time></trkpt><trkpt lat="42.9763967" lon="2.407035"><ele>685.0</ele><time>2026-04-26T04:42:13.728Z</time></trkpt><trkpt lat="42.9765417" lon="2.4070233"><ele>685.0</ele><time>2026-04-26T04:42:14.729Z</time></trkpt><trkpt lat="42.9766867" lon="2.4069817"><ele>685.0</ele><time>2026-04-26T04:42:15.727Z</time></trkpt><trkpt lat="42.9768267" lon="2.406915"><ele>684.0</ele><time>2026-04-26T04:42:16.728Z</time></trkpt><trkpt lat="42.976955" lon="2.4068233"><ele>683.0</ele><time>2026-04-26T04:42:17.728Z</time></trkpt><trkpt lat="42.9770717" lon="2.4067017"><ele>682.0</ele><time>2026-04-26T04:42:18.728Z</time></trkpt><trkpt lat="42.9771683" lon="2.40655"><ele>681.0</ele><time>2026-04-26T04:42:19.73Z</time></trkpt><trkpt lat="42.9772483" lon="2.40637"><ele>684.6666666666666</ele><time>2026-04-26T04:42:20.729Z</time></trkpt><trkpt lat="42.9773183" lon="2.4061783"><ele>688.3333333333333</ele><time>2026-04-26T04:42:21.728Z</time></trkpt><trkpt lat="42.97739" lon="2.4059817"><ele>692.0</ele><time>2026-04-26T04:42:22.728Z</time></trkpt><trkpt lat="42.9774583" lon="2.405785"><ele>692.0</ele><time>2026-04-26T04:42:23.728Z</time></trkpt><trkpt lat="42.97752" lon="2.4055883"><ele>692.0</ele><time>2026-04-26T04:42:24.73Z</time></trkpt><trkpt lat="42.9775717" lon="2.40539"><ele>692.0</ele><time>2026-04-26T04:42:25.729Z</time></trkpt><trkpt lat="42.9776233" lon="2.4051917"><ele>693.25</ele><time>2026-04-26T04:42:26.73Z</time></trkpt><trkpt lat="42.9776717" lon="2.4049967"><ele>694.5</ele><time>2026-04-26T04:42:27.729Z</time></trkpt><trkpt lat="42.9777183" lon="2.4048083"><ele>695.75</ele><time>2026-04-26T04:42:28.73Z</time></trkpt><trkpt lat="42.9777617" lon="2.40463"><ele>697.0</ele><time>2026-04-26T04:42:29.729Z</time></trkpt><trkpt lat="42.9778017" lon="2.4044617"><ele>698.0</ele><time>2026-04-26T04:42:30.728Z</time></trkpt><trkpt lat="42.9778417" lon="2.4043117"><ele>699.0</ele><time>2026-04-26T04:42:31.735Z</time></trkpt><trkpt lat="42.9778883" lon="2.4041683"><ele>700.0</ele><time>2026-04-26T04:42:32.732Z</time></trkpt><trkpt lat="42.9779483" lon="2.4040533"><ele>701.0</ele><time>2026-04-26T04:42:33.729Z</time></trkpt><trkpt lat="42.9780183" lon="2.403965"><ele>702.0</ele><time>2026-04-26T04:42:34.729Z</time></trkpt><trkpt lat="42.9780983" lon="2.4039033"><ele>702.0</ele><time>2026-04-26T04:42:35.728Z</time></trkpt><trkpt lat="42.978185" lon="2.403855"><ele>702.0</ele><time>2026-04-26T04:42:36.729Z</time></trkpt><trkpt lat="42.97828" lon="2.4038567"><ele>702.0</ele><time>2026-04-26T04:42:37.728Z</time></trkpt><trkpt lat="42.978365" lon="2.40389"><ele>702.0</ele><time>2026-04-26T04:42:38.729Z</time></trkpt><trkpt lat="42.978445" lon="2.4039567"><ele>702.0</ele><time>2026-04-26T04:42:39.728Z</time></trkpt><trkpt lat="42.9785233" lon="2.4040433"><ele>705.6</ele><time>2026-04-26T04:42:40.731Z</time></trkpt><trkpt lat="42.9785933" lon="2.404145"><ele>709.2</ele><time>2026-04-26T04:42:41.731Z</time></trkpt><trkpt lat="42.9786633" lon="2.4042533"><ele>712.8</ele><time>2026-04-26T04:42:42.729Z</time></trkpt><trkpt lat="42.9787133" lon="2.4043683"><ele>716.4</ele><time>2026-04-26T04:42:43.728Z</time></trkpt><trkpt lat="42.978745" lon="2.40449"><ele>720.0</ele><time>2026-04-26T04:42:44.729Z</time></trkpt><trkpt lat="42.978755" lon="2.40462"><ele>719.2</ele><time>2026-04-26T04:42:45.729Z</time></trkpt><trkpt lat="42.978745" lon="2.4047517"><ele>718.4</ele><time>2026-04-26T04:42:46.728Z</time></trkpt><trkpt lat="42.97873" lon="2.4048917"><ele>717.5999999999999</ele><time>2026-04-26T04:42:47.728Z</time></trkpt><trkpt lat="42.978715" lon="2.4050317"><ele>716.8</ele><time>2026-04-26T04:42:48.728Z</time></trkpt><trkpt lat="42.9787233" lon="2.4051833"><ele>716.0</ele><time>2026-04-26T04:42:49.728Z</time></trkpt><trkpt lat="42.9787467" lon="2.405335"><ele>716.0</ele><time>2026-04-26T04:42:50.732Z</time></trkpt><trkpt lat="42.9787767" lon="2.40549"><ele>716.0</ele><time>2026-04-26T04:42:51.73Z</time></trkpt><trkpt lat="42.97881" lon="2.4056483"><ele>716.0</ele><time>2026-04-26T04:42:52.728Z</time></trkpt><trkpt lat="42.9788567" lon="2.405805"><ele>716.0</ele><time>2026-04-26T04:42:53.728Z</time></trkpt><trkpt lat="42.978925" lon="2.40595"><ele>714.75</ele><time>2026-04-26T04:42:54.728Z</time></trkpt><trkpt lat="42.97902" lon="2.4060467"><ele>713.5</ele><time>2026-04-26T04:42:55.73Z</time></trkpt><trkpt lat="42.979135" lon="2.4061083"><ele>712.25</ele><time>2026-04-26T04:42:56.73Z</time></trkpt><trkpt lat="42.9792617" lon="2.4061583"><ele>711.0</ele><time>2026-04-26T04:42:57.73Z</time></trkpt><trkpt lat="42.9793733" lon="2.4062217"><ele>715.0</ele><time>2026-04-26T04:42:58.729Z</time></trkpt><trkpt lat="42.97946" lon="2.40631"><ele>719.0</ele><time>2026-04-26T04:42:59.728Z</time></trkpt><trkpt lat="42.979515" lon="2.4064117"><ele>723.0</ele><time>2026-04-26T04:43:00.729Z</time></trkpt><trkpt lat="42.97954" lon="2.4065317"><ele>727.0</ele><time>2026-04-26T04:43:01.728Z</time></trkpt><trkpt lat="42.97952" lon="2.4066733"><ele>731.0</ele><time>2026-04-26T04:43:02.729Z</time></trkpt><trkpt lat="42.979475" lon="2.4068183"><ele>731.0</ele><time>2026-04-26T04:43:03.729Z</time></trkpt><trkpt lat="42.979445" lon="2.4069717"><ele>731.0</ele><time>2026-04-26T04:43:04.728Z</time></trkpt><trkpt lat="42.9794383" lon="2.407135"><ele>731.0</ele><time>2026-04-26T04:43:05.729Z</time></trkpt><trkpt lat="42.97944" lon="2.4073"><ele>731.0</ele><time>2026-04-26T04:43:06.73Z</time></trkpt><trkpt lat="42.9794467" lon="2.407465"><ele>731.8</ele><time>2026-04-26T04:43:07.729Z</time></trkpt><trkpt lat="42.9794433" lon="2.4076267"><ele>732.5999999999999</ele><time>2026-04-26T04:43:08.729Z</time></trkpt><trkpt lat="42.9794117" lon="2.4077733"><ele>733.4</ele><time>2026-04-26T04:43:09.728Z</time></trkpt><trkpt lat="42.9793483" lon="2.4078883"><ele>734.2</ele><time>2026-04-26T04:43:10.731Z</time></trkpt><trkpt lat="42.9792533" lon="2.40795"><ele>735.0</ele><time>2026-04-26T04:43:11.729Z</time></trkpt><trkpt lat="42.979145" lon="2.4079483"><ele>728.75</ele><time>2026-04-26T04:43:12.728Z</time></trkpt><trkpt lat="42.9790333" lon="2.4079083"><ele>722.5</ele><time>2026-04-26T04:43:13.728Z</time></trkpt><trkpt lat="42.9789217" lon="2.407865"><ele>716.25</ele><time>2026-04-26T04:43:14.729Z</time></trkpt><trkpt lat="42.9788083" lon="2.4078433"><ele>710.0</ele><time>2026-04-26T04:43:15.728Z</time></trkpt><trkpt lat="42.9786967" lon="2.407875"><ele>710.0</ele><time>2026-04-26T04:43:16.728Z</time></trkpt><trkpt lat="42.9785883" lon="2.40795"><ele>710.0</ele><time>2026-04-26T04:43:17.728Z</time></trkpt><trkpt lat="42.9784917" lon="2.408065"><ele>710.0</ele><time>2026-04-26T04:43:18.728Z</time></trkpt><trkpt lat="42.978405" lon="2.408205"><ele>710.0</ele><time>2026-04-26T04:43:19.728Z</time></trkpt><trkpt lat="42.97833" lon="2.408365"><ele>709.5</ele><time>2026-04-26T04:43:20.729Z</time></trkpt><trkpt lat="42.9782717" lon="2.4085367"><ele>709.0</ele><time>2026-04-26T04:43:21.728Z</time></trkpt><trkpt lat="42.9782383" lon="2.40872"><ele>708.5</ele><time>2026-04-26T04:43:22.729Z</time></trkpt><trkpt lat="42.9782333" lon="2.408915"><ele>708.0</ele><time>2026-04-26T04:43:23.728Z</time></trkpt><trkpt lat="42.978255" lon="2.409105"><ele>707.75</ele><time>2026-04-26T04:43:24.728Z</time></trkpt><trkpt lat="42.978305" lon="2.4092817"><ele>707.5</ele><time>2026-04-26T04:43:25.731Z</time></trkpt><trkpt lat="42.9783817" lon="2.4094217"><ele>707.25</ele><time>2026-04-26T04:43:26.728Z</time></trkpt><trkpt lat="42.9784767" lon="2.409515"><ele>707.0</ele><time>2026-04-26T04:43:27.729Z</time></trkpt><trkpt lat="42.97858" lon="2.4095567"><ele>709.75</ele><time>2026-04-26T04:43:28.728Z</time></trkpt><trkpt lat="42.9786933" lon="2.4095383"><ele>712.5</ele><time>2026-04-26T04:43:29.728Z</time></trkpt><trkpt lat="42.9788117" lon="2.4095133"><ele>715.25</ele><time>2026-04-26T04:43:30.732Z</time></trkpt><trkpt lat="42.97893" lon="2.4095283"><ele>718.0</ele><time>2026-04-26T04:43:31.728Z</time></trkpt><trkpt lat="42.9790467" lon="2.4095867"><ele>718.0</ele><time>2026-04-26T04:43:32.728Z</time></trkpt><trkpt lat="42.9791683" lon="2.4096333"><ele>718.0</ele><time>2026-04-26T04:43:33.728Z</time></trkpt><trkpt lat="42.9792967" lon="2.4096367"><ele>718.0</ele><time>2026-04-26T04:43:34.728Z</time></trkpt><trkpt lat="42.9794267" lon="2.4095983"><ele>718.0</ele><time>2026-04-26T04:43:35.731Z</time></trkpt><trkpt lat="42.979555" lon="2.4095283"><ele>719.25</ele><time>2026-04-26T04:43:36.728Z</time></trkpt><trkpt lat="42.9796767" lon="2.4094367"><ele>720.5</ele><time>2026-04-26T04:43:37.733Z</time></trkpt><trkpt lat="42.9797983" lon="2.4093467"><ele>721.75</ele><time>2026-04-26T04:43:38.729Z</time></trkpt><trkpt lat="42.97993" lon="2.4092783"><ele>723.0</ele><time>2026-04-26T04:43:39.729Z</time></trkpt><trkpt lat="42.98007" lon="2.409235"><ele>726.75</ele><time>2026-04-26T04:43:40.729Z</time></trkpt><trkpt lat="42.9802083" lon="2.4092067"><ele>730.5</ele><time>2026-04-26T04:43:41.732Z</time></trkpt><trkpt lat="42.9803383" lon="2.4092067"><ele>734.25</ele><time>2026-04-26T04:43:42.729Z</time></trkpt><trkpt lat="42.9804633" lon="2.4092383"><ele>738.0</ele><time>2026-04-26T04:43:43.727Z</time></trkpt><trkpt lat="42.9805783" lon="2.4092983"><ele>738.0</ele><time>2026-04-26T04:43:44.728Z</time></trkpt><trkpt lat="42.9806767" lon="2.4093867"><ele>738.0</ele><time>2026-04-26T04:43:45.729Z</time></trkpt><trkpt lat="42.98074" lon="2.409505"><ele>738.0</ele><time>2026-04-26T04:43:46.727Z</time></trkpt><trkpt lat="42.98076" lon="2.4096567"><ele>738.0</ele><time>2026-04-26T04:43:47.728Z</time></trkpt><trkpt lat="42.9807417" lon="2.4098167"><ele>736.0</ele><time>2026-04-26T04:43:48.728Z</time></trkpt><trkpt lat="42.980695" lon="2.4099767"><ele>734.0</ele><time>2026-04-26T04:43:49.732Z</time></trkpt><trkpt lat="42.9806233" lon="2.4101317"><ele>732.0</ele><time>2026-04-26T04:43:50.731Z</time></trkpt><trkpt lat="42.98053" lon="2.4102817"><ele>730.0</ele><time>2026-04-26T04:43:51.729Z</time></trkpt><trkpt lat="42.9804217" lon="2.41043"><ele>730.6666666666667</ele><time>2026-04-26T04:43:52.728Z</time></trkpt><trkpt lat="42.980305" lon="2.410565"><ele>731.3333333333334</ele><time>2026-04-26T04:43:53.728Z</time></trkpt><trkpt lat="42.98018" lon="2.4106883"><ele>732.0</ele><time>2026-04-26T04:43:54.73Z</time></trkpt><trkpt lat="42.98005" lon="2.4108033"><ele>726.6666666666666</ele><time>2026-04-26T04:43:55.729Z</time></trkpt><trkpt lat="42.97992" lon="2.4109183"><ele>721.3333333333333</ele><time>2026-04-26T04:43:56.73Z</time></trkpt><trkpt lat="42.979795" lon="2.411035"><ele>716.0</ele><time>2026-04-26T04:43:57.728Z</time></trkpt><trkpt lat="42.9796783" lon="2.4111517"><ele>716.0</ele><time>2026-04-26T04:43:58.727Z</time></trkpt><trkpt lat="42.97957" lon="2.4112817"><ele>716.0</ele><time>2026-04-26T04:43:59.728Z</time></trkpt><trkpt lat="42.979475" lon="2.4114283"><ele>716.0</ele><time>2026-04-26T04:44:00.729Z</time></trkpt><trkpt lat="42.9794" lon="2.411585"><ele>716.0</ele><time>2026-04-26T04:44:01.73Z</time></trkpt><trkpt lat="42.979345" lon="2.4117367"><ele>715.1999999999999</ele><time>2026-04-26T04:44:02.73Z</time></trkpt><trkpt lat="42.9793167" lon="2.4118883"><ele>714.4</ele><time>2026-04-26T04:44:03.729Z</time></trkpt><trkpt lat="42.9793183" lon="2.412035"><ele>713.6</ele><time>2026-04-26T04:44:04.728Z</time></trkpt><trkpt lat="42.9793483" lon="2.4121683"><ele>712.8</ele><time>2026-04-26T04:44:05.73Z</time></trkpt><trkpt lat="42.9794117" lon="2.4122883"><ele>712.0</ele><time>2026-04-26T04:44:06.728Z</time></trkpt><trkpt lat="42.9795033" lon="2.4123833"><ele>712.0</ele><time>2026-04-26T04:44:07.728Z</time></trkpt><trkpt lat="42.9796167" lon="2.4124417"><ele>712.0</ele><time>2026-04-26T04:44:08.728Z</time></trkpt><trkpt lat="42.9797467" lon="2.4124633"><ele>712.0</ele><time>2026-04-26T04:44:09.729Z</time></trkpt><trkpt lat="42.9798867" lon="2.412455"><ele>712.0</ele><time>2026-04-26T04:44:10.728Z</time></trkpt><trkpt lat="42.9800317" lon="2.41243"><ele>710.25</ele><time>2026-04-26T04:44:11.728Z</time></trkpt><trkpt lat="42.9801767" lon="2.4124017"><ele>708.5</ele><time>2026-04-26T04:44:12.728Z</time></trkpt><trkpt lat="42.9803167" lon="2.412375"><ele>706.75</ele><time>2026-04-26T04:44:13.729Z</time></trkpt><trkpt lat="42.9804517" lon="2.4123217"><ele>705.0</ele><time>2026-04-26T04:44:14.728Z</time></trkpt><trkpt lat="42.9805833" lon="2.41223"><ele>709.0</ele><time>2026-04-26T04:44:15.731Z</time></trkpt><trkpt lat="42.9807" lon="2.4121033"><ele>713.0</ele><time>2026-04-26T04:44:16.729Z</time></trkpt><trkpt lat="42.9808067" lon="2.4119783"><ele>717.0</ele><time>2026-04-26T04:44:17.731Z</time></trkpt><trkpt lat="42.980915" lon="2.41187"><ele>721.0</ele><time>2026-04-26T04:44:18.728Z</time></trkpt><trkpt lat="42.981025" lon="2.4117733"><ele>722.0</ele><time>2026-04-26T04:44:19.728Z</time></trkpt><trkpt lat="42.9811367" lon="2.4116967"><ele>723.0</ele><time>2026-04-26T04:44:20.728Z</time></trkpt><trkpt lat="42.9812483" lon="2.4116467"><ele>724.0</ele><time>2026-04-26T04:44:21.729Z</time></trkpt><trkpt lat="42.9813583" lon="2.4116217"><ele>725.0</ele><time>2026-04-26T04:44:22.728Z</time></trkpt><trkpt lat="42.9814633" lon="2.4116217"><ele>725.0</ele><time>2026-04-26T04:44:23.727Z</time></trkpt><trkpt lat="42.98156" lon="2.4116433"><ele>725.0</ele><time>2026-04-26T04:44:24.728Z</time></trkpt><trkpt lat="42.9816417" lon="2.411685"><ele>725.0</ele><time>2026-04-26T04:44:25.727Z</time></trkpt><trkpt lat="42.9817033" lon="2.411745"><ele>725.0</ele><time>2026-04-26T04:44:26.73Z</time></trkpt><trkpt lat="42.98174" lon="2.4118367"><ele>725.0</ele><time>2026-04-26T04:44:27.729Z</time></trkpt><trkpt lat="42.9817533" lon="2.4119467"><ele>725.0</ele><time>2026-04-26T04:44:28.728Z</time></trkpt><trkpt lat="42.9817517" lon="2.412075"><ele>724.0</ele><time>2026-04-26T04:44:29.731Z</time></trkpt><trkpt lat="42.9817317" lon="2.4122283"><ele>723.0</ele><time>2026-04-26T04:44:30.729Z</time></trkpt><trkpt lat="42.981705" lon="2.41239"><ele>722.0</ele><time>2026-04-26T04:44:31.728Z</time></trkpt><trkpt lat="42.9816767" lon="2.4125483"><ele>721.0</ele><time>2026-04-26T04:44:32.729Z</time></trkpt><trkpt lat="42.9816333" lon="2.4127017"><ele>721.0</ele><time>2026-04-26T04:44:33.729Z</time></trkpt><trkpt lat="42.9815867" lon="2.41285"><ele>721.0</ele><time>2026-04-26T04:44:34.729Z</time></trkpt><trkpt lat="42.98155" lon="2.413005"><ele>721.0</ele><time>2026-04-26T04:44:35.729Z</time></trkpt><trkpt lat="42.9815333" lon="2.4131767"><ele>721.0</ele><time>2026-04-26T04:44:36.729Z</time></trkpt><trkpt lat="42.9815467" lon="2.4133617"><ele>721.5</ele><time>2026-04-26T04:44:37.729Z</time></trkpt><trkpt lat="42.9815867" lon="2.413555"><ele>722.0</ele><time>2026-04-26T04:44:38.729Z</time></trkpt><trkpt lat="42.9816283" lon="2.41374"><ele>722.5</ele><time>2026-04-26T04:44:39.728Z</time></trkpt><trkpt lat="42.9816583" lon="2.4139267"><ele>723.0</ele><time>2026-04-26T04:44:40.729Z</time></trkpt><trkpt lat="42.9816733" lon="2.4141117"><ele>723.25</ele><time>2026-04-26T04:44:41.733Z</time></trkpt><trkpt lat="42.9816533" lon="2.41429"><ele>723.5</ele><time>2026-04-26T04:44:42.728Z</time></trkpt><trkpt lat="42.9816083" lon="2.41444"><ele>723.75</ele><time>2026-04-26T04:44:43.728Z</time></trkpt><trkpt lat="42.9815633" lon="2.4145717"><ele>724.0</ele><time>2026-04-26T04:44:44.728Z</time></trkpt><trkpt lat="42.9815417" lon="2.4146983"><ele>723.6</ele><time>2026-04-26T04:44:45.728Z</time></trkpt><trkpt lat="42.9815617" lon="2.4148017"><ele>723.2</ele><time>2026-04-26T04:44:46.728Z</time></trkpt><trkpt lat="42.9816" lon="2.4148767"><ele>722.8000000000001</ele><time>2026-04-26T04:44:47.729Z</time></trkpt><trkpt lat="42.981645" lon="2.4150117"><ele>722.4000000000001</ele><time>2026-04-26T04:44:49.728Z</time></trkpt><trkpt lat="42.981585" lon="2.41518"><ele>722.0</ele><time>2026-04-26T04:44:51.73Z</time></trkpt><trkpt lat="42.98154" lon="2.4152783"><ele>722.0</ele><time>2026-04-26T04:44:52.728Z</time></trkpt><trkpt lat="42.9814733" lon="2.415395"><ele>722.0</ele><time>2026-04-26T04:44:53.732Z</time></trkpt><trkpt lat="42.9813933" lon="2.4155267"><ele>722.0</ele><time>2026-04-26T04:44:54.732Z</time></trkpt><trkpt lat="42.9813133" lon="2.4156567"><ele>722.0</ele><time>2026-04-26T04:44:55.73Z</time></trkpt><trkpt lat="42.9812383" lon="2.41578"><ele>719.8</ele><time>2026-04-26T04:44:56.728Z</time></trkpt><trkpt lat="42.9811683" lon="2.4158817"><ele>717.6</ele><time>2026-04-26T04:44:57.73Z</time></trkpt><trkpt lat="42.9811" lon="2.4159567"><ele>715.4</ele><time>2026-04-26T04:44:58.729Z</time></trkpt><trkpt lat="42.9810183" lon="2.4160117"><ele>713.1999999999999</ele><time>2026-04-26T04:44:59.727Z</time></trkpt><trkpt lat="42.9809383" lon="2.4160583"><ele>711.0</ele><time>2026-04-26T04:45:00.731Z</time></trkpt><trkpt lat="42.9808517" lon="2.4161033"><ele>711.0</ele><time>2026-04-26T04:45:01.727Z</time></trkpt><trkpt lat="42.980765" lon="2.41616"><ele>711.0</ele><time>2026-04-26T04:45:02.729Z</time></trkpt><trkpt lat="42.9806783" lon="2.4162483"><ele>711.0</ele><time>2026-04-26T04:45:03.728Z</time></trkpt><trkpt lat="42.9805817" lon="2.41637"><ele>711.0</ele><time>2026-04-26T04:45:04.727Z</time></trkpt><trkpt lat="42.9804867" lon="2.4165017"><ele>711.0</ele><time>2026-04-26T04:45:05.729Z</time></trkpt><trkpt lat="42.9803917" lon="2.41665"><ele>711.0</ele><time>2026-04-26T04:45:06.727Z</time></trkpt><trkpt lat="42.9803017" lon="2.4167917"><ele>711.0</ele><time>2026-04-26T04:45:07.728Z</time></trkpt><trkpt lat="42.9802217" lon="2.4169217"><ele>711.0</ele><time>2026-04-26T04:45:08.73Z</time></trkpt><trkpt lat="42.980145" lon="2.4170333"><ele>711.0</ele><time>2026-04-26T04:45:09.728Z</time></trkpt><trkpt lat="42.9800583" lon="2.417135"><ele>711.0</ele><time>2026-04-26T04:45:10.73Z</time></trkpt><trkpt lat="42.979965" lon="2.417235"><ele>711.0</ele><time>2026-04-26T04:45:11.728Z</time></trkpt><trkpt lat="42.9798717" lon="2.4173417"><ele>711.0</ele><time>2026-04-26T04:45:12.729Z</time></trkpt><trkpt lat="42.979785" lon="2.417455"><ele>710.5</ele><time>2026-04-26T04:45:13.728Z</time></trkpt><trkpt lat="42.9797" lon="2.4175883"><ele>710.0</ele><time>2026-04-26T04:45:14.728Z</time></trkpt><trkpt lat="42.97961" lon="2.4177267"><ele>709.5</ele><time>2026-04-26T04:45:15.728Z</time></trkpt><trkpt lat="42.9795167" lon="2.4178667"><ele>709.0</ele><time>2026-04-26T04:45:16.728Z</time></trkpt><trkpt lat="42.9794217" lon="2.4180133"><ele>709.0</ele><time>2026-04-26T04:45:17.729Z</time></trkpt><trkpt lat="42.979325" lon="2.4181617"><ele>709.0</ele><time>2026-04-26T04:45:18.728Z</time></trkpt><trkpt lat="42.9792167" lon="2.4183067"><ele>709.0</ele><time>2026-04-26T04:45:19.728Z</time></trkpt><trkpt lat="42.9791033" lon="2.4184783"><ele>708.6666666666667</ele><time>2026-04-26T04:45:20.728Z</time></trkpt><trkpt lat="42.9789917" lon="2.4186383"><ele>708.3333333333334</ele><time>2026-04-26T04:45:21.729Z</time></trkpt><trkpt lat="42.9788833" lon="2.41879"><ele>708.0</ele><time>2026-04-26T04:45:22.73Z</time></trkpt><trkpt lat="42.9787767" lon="2.4189333"><ele>707.75</ele><time>2026-04-26T04:45:23.727Z</time></trkpt><trkpt lat="42.9786717" lon="2.4190667"><ele>707.5</ele><time>2026-04-26T04:45:24.729Z</time></trkpt><trkpt lat="42.9785683" lon="2.4191867"><ele>707.25</ele><time>2026-04-26T04:45:25.728Z</time></trkpt><trkpt lat="42.9784617" lon="2.4193183"><ele>707.0</ele><time>2026-04-26T04:45:26.729Z</time></trkpt><trkpt lat="42.9783483" lon="2.4194633"><ele>704.6666666666666</ele><time>2026-04-26T04:45:27.728Z</time></trkpt><trkpt lat="42.9782333" lon="2.41961"><ele>702.3333333333334</ele><time>2026-04-26T04:45:28.727Z</time></trkpt><trkpt lat="42.9781133" lon="2.4197533"><ele>700.0</ele><time>2026-04-26T04:45:29.73Z</time></trkpt><trkpt lat="42.9779817" lon="2.4198867"><ele>699.5</ele><time>2026-04-26T04:45:30.728Z</time></trkpt><trkpt lat="42.9778483" lon="2.42"><ele>699.0</ele><time>2026-04-26T04:45:31.729Z</time></trkpt><trkpt lat="42.977725" lon="2.420105"><ele>698.5</ele><time>2026-04-26T04:45:32.729Z</time></trkpt><trkpt lat="42.97762" lon="2.4202117"><ele>698.0</ele><time>2026-04-26T04:45:33.728Z</time></trkpt><trkpt lat="42.977525" lon="2.4203183"><ele>697.75</ele><time>2026-04-26T04:45:34.727Z</time></trkpt><trkpt lat="42.97743" lon="2.4204267"><ele>697.5</ele><time>2026-04-26T04:45:35.728Z</time></trkpt><trkpt lat="42.97732" lon="2.4205383"><ele>697.25</ele><time>2026-04-26T04:45:36.728Z</time></trkpt><trkpt lat="42.9772017" lon="2.4206467"><ele>697.0</ele><time>2026-04-26T04:45:37.728Z</time></trkpt><trkpt lat="42.9770817" lon="2.4207483"><ele>696.25</ele><time>2026-04-26T04:45:38.728Z</time></trkpt><trkpt lat="42.97697" lon="2.4208317"><ele>695.5</ele><time>2026-04-26T04:45:39.729Z</time></trkpt><trkpt lat="42.9768633" lon="2.4208983"><ele>694.75</ele><time>2026-04-26T04:45:40.727Z</time></trkpt><trkpt lat="42.9767583" lon="2.4209517"><ele>694.0</ele><time>2026-04-26T04:45:41.727Z</time></trkpt><trkpt lat="42.97665" lon="2.4209867"><ele>694.0</ele><time>2026-04-26T04:45:42.728Z</time></trkpt><trkpt lat="42.9765317" lon="2.4210133"><ele>694.0</ele><time>2026-04-26T04:45:43.728Z</time></trkpt><trkpt lat="42.976405" lon="2.42103"><ele>694.0</ele><time>2026-04-26T04:45:44.73Z</time></trkpt><trkpt lat="42.976265" lon="2.4210333"><ele>694.0</ele><time>2026-04-26T04:45:45.735Z</time></trkpt><trkpt lat="42.9761233" lon="2.4210283"><ele>694.0</ele><time>2026-04-26T04:45:46.728Z</time></trkpt><trkpt lat="42.9759917" lon="2.4210217"><ele>694.0</ele><time>2026-04-26T04:45:47.73Z</time></trkpt><trkpt lat="42.97587" lon="2.421015"><ele>694.0</ele><time>2026-04-26T04:45:48.729Z</time></trkpt><trkpt lat="42.975755" lon="2.4210267"><ele>694.0</ele><time>2026-04-26T04:45:49.729Z</time></trkpt><trkpt lat="42.9756433" lon="2.4210667"><ele>692.5</ele><time>2026-04-26T04:45:50.73Z</time></trkpt><trkpt lat="42.9755333" lon="2.4211267"><ele>691.0</ele><time>2026-04-26T04:45:51.729Z</time></trkpt><trkpt lat="42.9754267" lon="2.4211983"><ele>689.5</ele><time>2026-04-26T04:45:52.729Z</time></trkpt><trkpt lat="42.9753167" lon="2.42127"><ele>688.0</ele><time>2026-04-26T04:45:53.729Z</time></trkpt><trkpt lat="42.97521" lon="2.4213433"><ele>686.75</ele><time>2026-04-26T04:45:54.729Z</time></trkpt><trkpt lat="42.9751083" lon="2.4214133"><ele>685.5</ele><time>2026-04-26T04:45:55.728Z</time></trkpt><trkpt lat="42.975005" lon="2.42148"><ele>684.25</ele><time>2026-04-26T04:45:56.728Z</time></trkpt><trkpt lat="42.9748933" lon="2.4215417"><ele>683.0</ele><time>2026-04-26T04:45:57.729Z</time></trkpt><trkpt lat="42.9747733" lon="2.42159"><ele>682.5</ele><time>2026-04-26T04:45:58.728Z</time></trkpt><trkpt lat="42.9746483" lon="2.4216367"><ele>682.0</ele><time>2026-04-26T04:45:59.728Z</time></trkpt><trkpt lat="42.974525" lon="2.4216867"><ele>681.5</ele><time>2026-04-26T04:46:00.728Z</time></trkpt><trkpt lat="42.9744067" lon="2.4217433"><ele>681.0</ele><time>2026-04-26T04:46:01.727Z</time></trkpt><trkpt lat="42.97429" lon="2.4218"><ele>679.0</ele><time>2026-04-26T04:46:02.729Z</time></trkpt><trkpt lat="42.9741767" lon="2.4218567"><ele>677.0</ele><time>2026-04-26T04:46:03.727Z</time></trkpt><trkpt lat="42.97406" lon="2.4219117"><ele>675.0</ele><time>2026-04-26T04:46:04.728Z</time></trkpt><trkpt lat="42.973945" lon="2.4219633"><ele>673.0</ele><time>2026-04-26T04:46:05.728Z</time></trkpt><trkpt lat="42.973835" lon="2.4220133"><ele>673.0</ele><time>2026-04-26T04:46:06.729Z</time></trkpt><trkpt lat="42.9737283" lon="2.4220767"><ele>673.0</ele><time>2026-04-26T04:46:07.727Z</time></trkpt><trkpt lat="42.9736217" lon="2.4221467"><ele>673.0</ele><time>2026-04-26T04:46:08.729Z</time></trkpt><trkpt lat="42.9735133" lon="2.4222083"><ele>673.0</ele><time>2026-04-26T04:46:09.729Z</time></trkpt><trkpt lat="42.9734067" lon="2.422255"><ele>671.2</ele><time>2026-04-26T04:46:10.727Z</time></trkpt><trkpt lat="42.973305" lon="2.422285"><ele>669.4</ele><time>2026-04-26T04:46:11.728Z</time></trkpt><trkpt lat="42.973205" lon="2.42228"><ele>667.6</ele><time>2026-04-26T04:46:12.729Z</time></trkpt><trkpt lat="42.973095" lon="2.4222383"><ele>665.8000000000001</ele><time>2026-04-26T04:46:13.728Z</time></trkpt><trkpt lat="42.9729883" lon="2.4221867"><ele>664.0</ele><time>2026-04-26T04:46:14.731Z</time></trkpt><trkpt lat="42.972885" lon="2.4221267"><ele>664.0</ele><time>2026-04-26T04:46:15.728Z</time></trkpt><trkpt lat="42.9727867" lon="2.4220533"><ele>664.0</ele><time>2026-04-26T04:46:16.729Z</time></trkpt><trkpt lat="42.972695" lon="2.4219717"><ele>664.0</ele><time>2026-04-26T04:46:17.727Z</time></trkpt><trkpt lat="42.972605" lon="2.421895"><ele>664.0</ele><time>2026-04-26T04:46:18.727Z</time></trkpt><trkpt lat="42.9725117" lon="2.4218217"><ele>664.0</ele><time>2026-04-26T04:46:19.729Z</time></trkpt><trkpt lat="42.9724183" lon="2.42176"><ele>661.2</ele><time>2026-04-26T04:46:20.731Z</time></trkpt><trkpt lat="42.9723233" lon="2.4217067"><ele>658.4000000000001</ele><time>2026-04-26T04:46:21.729Z</time></trkpt><trkpt lat="42.9722283" lon="2.4216567"><ele>655.6</ele><time>2026-04-26T04:46:22.727Z</time></trkpt><trkpt lat="42.9721283" lon="2.4216083"><ele>652.8</ele><time>2026-04-26T04:46:23.728Z</time></trkpt><trkpt lat="42.9720233" lon="2.4215667"><ele>650.0</ele><time>2026-04-26T04:46:24.727Z</time></trkpt><trkpt lat="42.9719183" lon="2.4215383"><ele>650.0</ele><time>2026-04-26T04:46:25.728Z</time></trkpt><trkpt lat="42.9718167" lon="2.4215117"><ele>650.0</ele><time>2026-04-26T04:46:26.729Z</time></trkpt><trkpt lat="42.9717167" lon="2.4214933"><ele>650.0</ele><time>2026-04-26T04:46:27.727Z</time></trkpt><trkpt lat="42.9716217" lon="2.4214917"><ele>650.0</ele><time>2026-04-26T04:46:28.73Z</time></trkpt><trkpt lat="42.9715333" lon="2.4215083"><ele>650.0</ele><time>2026-04-26T04:46:29.727Z</time></trkpt><trkpt lat="42.9714517" lon="2.4215617"><ele>647.4</ele><time>2026-04-26T04:46:30.729Z</time></trkpt><trkpt lat="42.9713817" lon="2.4216633"><ele>644.8</ele><time>2026-04-26T04:46:31.727Z</time></trkpt><trkpt lat="42.971315" lon="2.4217833"><ele>642.2</ele><time>2026-04-26T04:46:32.732Z</time></trkpt><trkpt lat="42.9712517" lon="2.421905"><ele>639.6</ele><time>2026-04-26T04:46:33.727Z</time></trkpt><trkpt lat="42.9711917" lon="2.4220183"><ele>637.0</ele><time>2026-04-26T04:46:34.728Z</time></trkpt><trkpt lat="42.971135" lon="2.42212"><ele>635.4</ele><time>2026-04-26T04:46:35.727Z</time></trkpt><trkpt lat="42.9710767" lon="2.4222033"><ele>633.8000000000001</ele><time>2026-04-26T04:46:36.727Z</time></trkpt><trkpt lat="42.971015" lon="2.4222817"><ele>632.2</ele><time>2026-04-26T04:46:37.727Z</time></trkpt><trkpt lat="42.9709383" lon="2.42237"><ele>630.6</ele><time>2026-04-26T04:46:38.728Z</time></trkpt><trkpt lat="42.9708483" lon="2.4224717"><ele>629.0</ele><time>2026-04-26T04:46:39.727Z</time></trkpt><trkpt lat="42.9707517" lon="2.4225917"><ele>628.5</ele><time>2026-04-26T04:46:40.729Z</time></trkpt><trkpt lat="42.970655" lon="2.42272"><ele>628.0</ele><time>2026-04-26T04:46:41.727Z</time></trkpt><trkpt lat="42.9705567" lon="2.422825"><ele>627.5</ele><time>2026-04-26T04:46:42.73Z</time></trkpt><trkpt lat="42.9704617" lon="2.422925"><ele>627.0</ele><time>2026-04-26T04:46:43.729Z</time></trkpt><trkpt lat="42.9703683" lon="2.4230217"><ele>627.0</ele><time>2026-04-26T04:46:44.728Z</time></trkpt><trkpt lat="42.970265" lon="2.4231133"><ele>627.0</ele><time>2026-04-26T04:46:45.728Z</time></trkpt><trkpt lat="42.9701517" lon="2.423205"><ele>627.0</ele><time>2026-04-26T04:46:46.728Z</time></trkpt><trkpt lat="42.9700333" lon="2.4232933"><ele>627.0</ele><time>2026-04-26T04:46:47.728Z</time></trkpt><trkpt lat="42.9699067" lon="2.4233667"><ele>627.75</ele><time>2026-04-26T04:46:48.727Z</time></trkpt><trkpt lat="42.9697817" lon="2.4234017"><ele>628.5</ele><time>2026-04-26T04:46:49.729Z</time></trkpt><trkpt lat="42.969655" lon="2.42344"><ele>629.25</ele><time>2026-04-26T04:46:50.728Z</time></trkpt><trkpt lat="42.969525" lon="2.4234783"><ele>630.0</ele><time>2026-04-26T04:46:51.729Z</time></trkpt><trkpt lat="42.96939" lon="2.42353"><ele>630.0</ele><time>2026-04-26T04:46:52.728Z</time></trkpt><trkpt lat="42.969265" lon="2.423595"><ele>630.0</ele><time>2026-04-26T04:46:53.73Z</time></trkpt><trkpt lat="42.9691517" lon="2.4236683"><ele>630.0</ele><time>2026-04-26T04:46:54.728Z</time></trkpt><trkpt lat="42.9690533" lon="2.4237617"><ele>630.0</ele><time>2026-04-26T04:46:55.728Z</time></trkpt><trkpt lat="42.968965" lon="2.4238667"><ele>632.5</ele><time>2026-04-26T04:46:56.727Z</time></trkpt><trkpt lat="42.968875" lon="2.4239617"><ele>635.0</ele><time>2026-04-26T04:46:57.728Z</time></trkpt><trkpt lat="42.9687833" lon="2.4240567"><ele>637.5</ele><time>2026-04-26T04:46:58.73Z</time></trkpt><trkpt lat="42.9686917" lon="2.4241533"><ele>640.0</ele><time>2026-04-26T04:46:59.73Z</time></trkpt><trkpt lat="42.9686033" lon="2.4242433"><ele>640.0</ele><time>2026-04-26T04:47:00.73Z</time></trkpt><trkpt lat="42.9685183" lon="2.4243183"><ele>640.0</ele><time>2026-04-26T04:47:01.73Z</time></trkpt><trkpt lat="42.968425" lon="2.4243717"><ele>640.0</ele><time>2026-04-26T04:47:02.73Z</time></trkpt><trkpt lat="42.968315" lon="2.42441"><ele>640.0</ele><time>2026-04-26T04:47:03.728Z</time></trkpt><trkpt lat="42.9681967" lon="2.4244567"><ele>640.0</ele><time>2026-04-26T04:47:04.728Z</time></trkpt><trkpt lat="42.96807" lon="2.4245217"><ele>640.25</ele><time>2026-04-26T04:47:05.727Z</time></trkpt><trkpt lat="42.9679483" lon="2.42459"><ele>640.5</ele><time>2026-04-26T04:47:06.73Z</time></trkpt><trkpt lat="42.9678267" lon="2.424665"><ele>640.75</ele><time>2026-04-26T04:47:07.73Z</time></trkpt><trkpt lat="42.96772" lon="2.424755"><ele>641.0</ele><time>2026-04-26T04:47:08.729Z</time></trkpt><trkpt lat="42.9676267" lon="2.424875"><ele>641.0</ele><time>2026-04-26T04:47:09.727Z</time></trkpt><trkpt lat="42.967545" lon="2.4250083"><ele>641.0</ele><time>2026-04-26T04:47:10.73Z</time></trkpt><trkpt lat="42.96747" lon="2.4251533"><ele>641.0</ele><time>2026-04-26T04:47:11.729Z</time></trkpt><trkpt lat="42.9674067" lon="2.42531"><ele>641.0</ele><time>2026-04-26T04:47:12.729Z</time></trkpt><trkpt lat="42.9673267" lon="2.4254683"><ele>641.25</ele><time>2026-04-26T04:47:13.729Z</time></trkpt><trkpt lat="42.9672383" lon="2.42563"><ele>641.5</ele><time>2026-04-26T04:47:14.729Z</time></trkpt><trkpt lat="42.967145" lon="2.4257883"><ele>641.75</ele><time>2026-04-26T04:47:15.73Z</time></trkpt><trkpt lat="42.9670533" lon="2.4259517"><ele>642.0</ele><time>2026-04-26T04:47:16.727Z</time></trkpt><trkpt lat="42.966975" lon="2.4260983"><ele>642.0</ele><time>2026-04-26T04:47:17.727Z</time></trkpt><trkpt lat="42.9668917" lon="2.426235"><ele>642.0</ele><time>2026-04-26T04:47:18.729Z</time></trkpt><trkpt lat="42.9667983" lon="2.4263733"><ele>642.0</ele><time>2026-04-26T04:47:19.728Z</time></trkpt><trkpt lat="42.9667017" lon="2.42652"><ele>642.0</ele><time>2026-04-26T04:47:20.728Z</time></trkpt><trkpt lat="42.9666183" lon="2.4266783"><ele>643.25</ele><time>2026-04-26T04:47:21.728Z</time></trkpt><trkpt lat="42.9665517" lon="2.4268533"><ele>644.5</ele><time>2026-04-26T04:47:22.727Z</time></trkpt><trkpt lat="42.9664883" lon="2.4270233"><ele>645.75</ele><time>2026-04-26T04:47:23.729Z</time></trkpt><trkpt lat="42.9664317" lon="2.4271867"><ele>647.0</ele><time>2026-04-26T04:47:24.729Z</time></trkpt><trkpt lat="42.9663683" lon="2.4273433"><ele>647.0</ele><time>2026-04-26T04:47:25.729Z</time></trkpt><trkpt lat="42.9663" lon="2.4275083"><ele>647.0</ele><time>2026-04-26T04:47:26.728Z</time></trkpt><trkpt lat="42.9662233" lon="2.4276683"><ele>647.0</ele><time>2026-04-26T04:47:27.728Z</time></trkpt><trkpt lat="42.9661417" lon="2.42785"><ele>647.0</ele><time>2026-04-26T04:47:28.728Z</time></trkpt><trkpt lat="42.9660617" lon="2.428025"><ele>647.0</ele><time>2026-04-26T04:47:29.734Z</time></trkpt><trkpt lat="42.9659783" lon="2.4282083"><ele>647.0</ele><time>2026-04-26T04:47:30.729Z</time></trkpt><trkpt lat="42.9659" lon="2.42838"><ele>647.0</ele><time>2026-04-26T04:47:31.729Z</time></trkpt><trkpt lat="42.96582" lon="2.42854"><ele>647.0</ele><time>2026-04-26T04:47:32.729Z</time></trkpt><trkpt lat="42.96573" lon="2.42869"><ele>646.3333333333333</ele><time>2026-04-26T04:47:33.729Z</time></trkpt><trkpt lat="42.9656167" lon="2.4288367"><ele>645.6666666666666</ele><time>2026-04-26T04:47:34.729Z</time></trkpt><trkpt lat="42.9655" lon="2.4289767"><ele>645.0</ele><time>2026-04-26T04:47:35.729Z</time></trkpt><trkpt lat="42.9653817" lon="2.4291217"><ele>645.0</ele><time>2026-04-26T04:47:36.728Z</time></trkpt><trkpt lat="42.9652733" lon="2.4292517"><ele>645.0</ele><time>2026-04-26T04:47:37.732Z</time></trkpt><trkpt lat="42.965175" lon="2.429375"><ele>645.0</ele><time>2026-04-26T04:47:38.728Z</time></trkpt><trkpt lat="42.9650833" lon="2.429495"><ele>645.0</ele><time>2026-04-26T04:47:39.727Z</time></trkpt><trkpt lat="42.964985" lon="2.4296233"><ele>645.5</ele><time>2026-04-26T04:47:40.726Z</time></trkpt><trkpt lat="42.96488" lon="2.429735"><ele>646.0</ele><time>2026-04-26T04:47:41.727Z</time></trkpt><trkpt lat="42.9647683" lon="2.4298317"><ele>646.5</ele><time>2026-04-26T04:47:42.73Z</time></trkpt><trkpt lat="42.96465" lon="2.4299217"><ele>647.0</ele><time>2026-04-26T04:47:43.727Z</time></trkpt><trkpt lat="42.9645283" lon="2.4300017"><ele>647.0</ele><time>2026-04-26T04:47:44.728Z</time></trkpt><trkpt lat="42.964405" lon="2.4300633"><ele>647.0</ele><time>2026-04-26T04:47:45.734Z</time></trkpt><trkpt lat="42.9642817" lon="2.4301033"><ele>647.0</ele><time>2026-04-26T04:47:46.727Z</time></trkpt><trkpt lat="42.9641583" lon="2.4301383"><ele>647.0</ele><time>2026-04-26T04:47:47.728Z</time></trkpt><trkpt lat="42.9640317" lon="2.4301883"><ele>645.5</ele><time>2026-04-26T04:47:48.727Z</time></trkpt><trkpt lat="42.96391" lon="2.4302567"><ele>644.0</ele><time>2026-04-26T04:47:49.729Z</time></trkpt><trkpt lat="42.9638017" lon="2.4303317"><ele>642.5</ele><time>2026-04-26T04:47:50.73Z</time></trkpt><trkpt lat="42.9636933" lon="2.4304017"><ele>641.0</ele><time>2026-04-26T04:47:51.728Z</time></trkpt><trkpt lat="42.96358" lon="2.4304533"><ele>641.0</ele><time>2026-04-26T04:47:52.728Z</time></trkpt><trkpt lat="42.96346" lon="2.43047"><ele>641.0</ele><time>2026-04-26T04:47:53.729Z</time></trkpt><trkpt lat="42.9633383" lon="2.430455"><ele>641.0</ele><time>2026-04-26T04:47:54.729Z</time></trkpt><trkpt lat="42.96321" lon="2.4304367"><ele>641.0</ele><time>2026-04-26T04:47:55.734Z</time></trkpt><trkpt lat="42.9630767" lon="2.4304167"><ele>642.0</ele><time>2026-04-26T04:47:56.728Z</time></trkpt><trkpt lat="42.9629433" lon="2.4304067"><ele>643.0</ele><time>2026-04-26T04:47:57.727Z</time></trkpt><trkpt lat="42.96281" lon="2.430415"><ele>644.0</ele><time>2026-04-26T04:47:58.727Z</time></trkpt><trkpt lat="42.9626917" lon="2.4304583"><ele>645.0</ele><time>2026-04-26T04:47:59.727Z</time></trkpt><trkpt lat="42.96257" lon="2.4305333"><ele>648.6666666666666</ele><time>2026-04-26T04:48:00.729Z</time></trkpt><trkpt lat="42.96244" lon="2.4306267"><ele>652.3333333333333</ele><time>2026-04-26T04:48:01.728Z</time></trkpt><trkpt lat="42.9623033" lon="2.43073"><ele>656.0</ele><time>2026-04-26T04:48:02.73Z</time></trkpt><trkpt lat="42.96217" lon="2.4308283"><ele>656.0</ele><time>2026-04-26T04:48:03.73Z</time></trkpt><trkpt lat="42.962035" lon="2.4309233"><ele>656.0</ele><time>2026-04-26T04:48:04.727Z</time></trkpt><trkpt lat="42.9619" lon="2.431005"><ele>656.0</ele><time>2026-04-26T04:48:05.73Z</time></trkpt><trkpt lat="42.9617683" lon="2.4310733"><ele>656.0</ele><time>2026-04-26T04:48:06.727Z</time></trkpt><trkpt lat="42.9616367" lon="2.431115"><ele>656.0</ele><time>2026-04-26T04:48:07.73Z</time></trkpt><trkpt lat="42.9615017" lon="2.4311583"><ele>656.0</ele><time>2026-04-26T04:48:08.729Z</time></trkpt><trkpt lat="42.9613667" lon="2.4312117"><ele>656.0</ele><time>2026-04-26T04:48:09.729Z</time></trkpt><trkpt lat="42.9612367" lon="2.4312833"><ele>656.0</ele><time>2026-04-26T04:48:10.73Z</time></trkpt><trkpt lat="42.96112" lon="2.43136"><ele>656.0</ele><time>2026-04-26T04:48:11.729Z</time></trkpt><trkpt lat="42.9609867" lon="2.4314183"><ele>656.0</ele><time>2026-04-26T04:48:12.727Z</time></trkpt><trkpt lat="42.96084" lon="2.4314583"><ele>656.0</ele><time>2026-04-26T04:48:13.728Z</time></trkpt><trkpt lat="42.960685" lon="2.431485"><ele>656.0</ele><time>2026-04-26T04:48:14.727Z</time></trkpt><trkpt lat="42.9605383" lon="2.4315017"><ele>653.25</ele><time>2026-04-26T04:48:15.729Z</time></trkpt><trkpt lat="42.960395" lon="2.431525"><ele>650.5</ele><time>2026-04-26T04:48:16.729Z</time></trkpt><trkpt lat="42.9602467" lon="2.4315467"><ele>647.75</ele><time>2026-04-26T04:48:17.729Z</time></trkpt><trkpt lat="42.9600917" lon="2.4315683"><ele>645.0</ele><time>2026-04-26T04:48:18.727Z</time></trkpt><trkpt lat="42.9599367" lon="2.4315967"><ele>643.75</ele><time>2026-04-26T04:48:19.729Z</time></trkpt><trkpt lat="42.9597883" lon="2.4316367"><ele>642.5</ele><time>2026-04-26T04:48:20.729Z</time></trkpt><trkpt lat="42.9596517" lon="2.4316917"><ele>641.25</ele><time>2026-04-26T04:48:21.73Z</time></trkpt><trkpt lat="42.9595283" lon="2.431755"><ele>640.0</ele><time>2026-04-26T04:48:22.728Z</time></trkpt><trkpt lat="42.9594183" lon="2.4318467"><ele>640.0</ele><time>2026-04-26T04:48:23.728Z</time></trkpt><trkpt lat="42.9593117" lon="2.4319683"><ele>640.0</ele><time>2026-04-26T04:48:24.729Z</time></trkpt><trkpt lat="42.9591967" lon="2.43211"><ele>640.0</ele><time>2026-04-26T04:48:25.727Z</time></trkpt><trkpt lat="42.9590817" lon="2.432255"><ele>639.0</ele><time>2026-04-26T04:48:26.727Z</time></trkpt><trkpt lat="42.9589667" lon="2.43241"><ele>638.0</ele><time>2026-04-26T04:48:27.729Z</time></trkpt><trkpt lat="42.95885" lon="2.43256"><ele>637.0</ele><time>2026-04-26T04:48:28.729Z</time></trkpt><trkpt lat="42.9587533" lon="2.4327083"><ele>637.0</ele><time>2026-04-26T04:48:29.73Z</time></trkpt><trkpt lat="42.958665" lon="2.4328283"><ele>637.0</ele><time>2026-04-26T04:48:30.73Z</time></trkpt><trkpt lat="42.9585783" lon="2.43291"><ele>637.0</ele><time>2026-04-26T04:48:31.727Z</time></trkpt><trkpt lat="42.9584883" lon="2.4329617"><ele>637.0</ele><time>2026-04-26T04:48:32.728Z</time></trkpt><trkpt lat="42.958405" lon="2.43298"><ele>637.0</ele><time>2026-04-26T04:48:33.727Z</time></trkpt><trkpt lat="42.958335" lon="2.43298"><ele>636.8000000000001</ele><time>2026-04-26T04:48:34.727Z</time></trkpt><trkpt lat="42.958265" lon="2.4329433"><ele>636.6</ele><time>2026-04-26T04:48:35.728Z</time></trkpt><trkpt lat="42.9581967" lon="2.4328283"><ele>636.4000000000001</ele><time>2026-04-26T04:48:36.727Z</time></trkpt><trkpt lat="42.9581183" lon="2.4327133"><ele>636.2</ele><time>2026-04-26T04:48:37.728Z</time></trkpt><trkpt lat="42.958025" lon="2.43261"><ele>636.0</ele><time>2026-04-26T04:48:38.729Z</time></trkpt><trkpt lat="42.9579267" lon="2.43251"><ele>636.0</ele><time>2026-04-26T04:48:39.729Z</time></trkpt><trkpt lat="42.9578117" lon="2.4324217"><ele>636.0</ele><time>2026-04-26T04:48:40.729Z</time></trkpt><trkpt lat="42.957685" lon="2.432335"><ele>636.0</ele><time>2026-04-26T04:48:41.731Z</time></trkpt><trkpt lat="42.9575517" lon="2.4322517"><ele>636.0</ele><time>2026-04-26T04:48:42.729Z</time></trkpt><trkpt lat="42.957415" lon="2.4321767"><ele>636.5</ele><time>2026-04-26T04:48:43.728Z</time></trkpt><trkpt lat="42.95729" lon="2.4320983"><ele>637.0</ele><time>2026-04-26T04:48:44.729Z</time></trkpt><trkpt lat="42.95717" lon="2.4319983"><ele>637.5</ele><time>2026-04-26T04:48:45.728Z</time></trkpt><trkpt lat="42.9570533" lon="2.4318817"><ele>638.0</ele><time>2026-04-26T04:48:46.728Z</time></trkpt><trkpt lat="42.95694" lon="2.4317483"><ele>638.0</ele><time>2026-04-26T04:48:47.728Z</time></trkpt><trkpt lat="42.9568283" lon="2.4316083"><ele>638.0</ele><time>2026-04-26T04:48:48.729Z</time></trkpt><trkpt lat="42.956725" lon="2.43146"><ele>638.0</ele><time>2026-04-26T04:48:49.731Z</time></trkpt><trkpt lat="42.9566283" lon="2.4313133"><ele>638.0</ele><time>2026-04-26T04:48:50.729Z</time></trkpt><trkpt lat="42.9565183" lon="2.4311833"><ele>641.0</ele><time>2026-04-26T04:48:51.73Z</time></trkpt><trkpt lat="42.9563833" lon="2.431065"><ele>644.0</ele><time>2026-04-26T04:48:52.734Z</time></trkpt><trkpt lat="42.9562467" lon="2.4309567"><ele>647.0</ele><time>2026-04-26T04:48:53.728Z</time></trkpt><trkpt lat="42.9561183" lon="2.4308467"><ele>647.0</ele><time>2026-04-26T04:48:54.729Z</time></trkpt><trkpt lat="42.955995" lon="2.4307183"><ele>647.0</ele><time>2026-04-26T04:48:55.729Z</time></trkpt><trkpt lat="42.9558767" lon="2.4305733"><ele>647.0</ele><time>2026-04-26T04:48:56.73Z</time></trkpt><trkpt lat="42.95576" lon="2.4304133"><ele>649.6666666666666</ele><time>2026-04-26T04:48:57.729Z</time></trkpt><trkpt lat="42.9556517" lon="2.4302467"><ele>652.3333333333334</ele><time>2026-04-26T04:48:58.729Z</time></trkpt><trkpt lat="42.955555" lon="2.4300783"><ele>655.0</ele><time>2026-04-26T04:48:59.73Z</time></trkpt><trkpt lat="42.9554617" lon="2.429895"><ele>655.0</ele><time>2026-04-26T04:49:00.73Z</time></trkpt><trkpt lat="42.95537" lon="2.42971"><ele>655.0</ele><time>2026-04-26T04:49:01.729Z</time></trkpt><trkpt lat="42.9552683" lon="2.4295283"><ele>655.0</ele><time>2026-04-26T04:49:02.728Z</time></trkpt><trkpt lat="42.9551717" lon="2.42935"><ele>655.0</ele><time>2026-04-26T04:49:03.734Z</time></trkpt><trkpt lat="42.95508" lon="2.4291667"><ele>655.0</ele><time>2026-04-26T04:49:04.729Z</time></trkpt><trkpt lat="42.9549933" lon="2.4289833"><ele>655.0</ele><time>2026-04-26T04:49:05.729Z</time></trkpt><trkpt lat="42.9549017" lon="2.4288067"><ele>655.0</ele><time>2026-04-26T04:49:06.73Z</time></trkpt><trkpt lat="42.9548083" lon="2.4286483"><ele>655.0</ele><time>2026-04-26T04:49:07.731Z</time></trkpt><trkpt lat="42.9547067" lon="2.4285033"><ele>655.0</ele><time>2026-04-26T04:49:08.732Z</time></trkpt><trkpt lat="42.95459" lon="2.4283833"><ele>655.0</ele><time>2026-04-26T04:49:09.729Z</time></trkpt><trkpt lat="42.95448" lon="2.4282817"><ele>655.0</ele><time>2026-04-26T04:49:10.73Z</time></trkpt><trkpt lat="42.9543667" lon="2.42819"><ele>655.0</ele><time>2026-04-26T04:49:11.731Z</time></trkpt><trkpt lat="42.9542533" lon="2.4281017"><ele>655.0</ele><time>2026-04-26T04:49:12.73Z</time></trkpt><trkpt lat="42.9541367" lon="2.4280267"><ele>655.0</ele><time>2026-04-26T04:49:13.729Z</time></trkpt><trkpt lat="42.9540133" lon="2.4279633"><ele>654.25</ele><time>2026-04-26T04:49:14.732Z</time></trkpt><trkpt lat="42.9538767" lon="2.427915"><ele>653.5</ele><time>2026-04-26T04:49:15.729Z</time></trkpt><trkpt lat="42.9537267" lon="2.4278883"><ele>652.75</ele><time>2026-04-26T04:49:16.728Z</time></trkpt><trkpt lat="42.953575" lon="2.4278833"><ele>652.0</ele><time>2026-04-26T04:49:17.729Z</time></trkpt><trkpt lat="42.953435" lon="2.427885"><ele>651.25</ele><time>2026-04-26T04:49:18.729Z</time></trkpt><trkpt lat="42.9533033" lon="2.4278917"><ele>650.5</ele><time>2026-04-26T04:49:19.729Z</time></trkpt><trkpt lat="42.9531733" lon="2.42792"><ele>649.75</ele><time>2026-04-26T04:49:20.729Z</time></trkpt><trkpt lat="42.95305" lon="2.4279667"><ele>649.0</ele><time>2026-04-26T04:49:21.731Z</time></trkpt><trkpt lat="42.9529367" lon="2.4280367"><ele>649.75</ele><time>2026-04-26T04:49:22.729Z</time></trkpt><trkpt lat="42.95283" lon="2.4281333"><ele>650.5</ele><time>2026-04-26T04:49:23.731Z</time></trkpt><trkpt lat="42.9527317" lon="2.42824"><ele>651.25</ele><time>2026-04-26T04:49:24.732Z</time></trkpt><trkpt lat="42.9526333" lon="2.4283383"><ele>652.0</ele><time>2026-04-26T04:49:25.733Z</time></trkpt><trkpt lat="42.95253" lon="2.428425"><ele>652.0</ele><time>2026-04-26T04:49:26.729Z</time></trkpt><trkpt lat="42.95242" lon="2.4284883"><ele>652.0</ele><time>2026-04-26T04:49:27.728Z</time></trkpt><trkpt lat="42.9523" lon="2.42853"><ele>652.0</ele><time>2026-04-26T04:49:28.728Z</time></trkpt><trkpt lat="42.9521767" lon="2.428545"><ele>652.0</ele><time>2026-04-26T04:49:29.729Z</time></trkpt><trkpt lat="42.9520467" lon="2.4285483"><ele>652.0</ele><time>2026-04-26T04:49:30.731Z</time></trkpt><trkpt lat="42.9519183" lon="2.4285517"><ele>652.0</ele><time>2026-04-26T04:49:31.727Z</time></trkpt><trkpt lat="42.9518" lon="2.428565"><ele>652.0</ele><time>2026-04-26T04:49:32.73Z</time></trkpt><trkpt lat="42.9516767" lon="2.428615"><ele>652.0</ele><time>2026-04-26T04:49:33.728Z</time></trkpt><trkpt lat="42.9515433" lon="2.428695"><ele>651.6666666666667</ele><time>2026-04-26T04:49:34.729Z</time></trkpt><trkpt lat="42.951405" lon="2.4287833"><ele>651.3333333333334</ele><time>2026-04-26T04:49:35.727Z</time></trkpt><trkpt lat="42.9512583" lon="2.428875"><ele>651.0</ele><time>2026-04-26T04:49:36.728Z</time></trkpt><trkpt lat="42.9511033" lon="2.42896"><ele>651.0</ele><time>2026-04-26T04:49:37.727Z</time></trkpt><trkpt lat="42.9509383" lon="2.4290283"><ele>651.0</ele><time>2026-04-26T04:49:38.73Z</time></trkpt><trkpt lat="42.9507633" lon="2.4290817"><ele>651.0</ele><time>2026-04-26T04:49:39.728Z</time></trkpt><trkpt lat="42.95059" lon="2.4291283"><ele>651.0</ele><time>2026-04-26T04:49:40.728Z</time></trkpt><trkpt lat="42.95043" lon="2.4291667"><ele>651.0</ele><time>2026-04-26T04:49:41.729Z</time></trkpt><trkpt lat="42.9502783" lon="2.42921"><ele>651.0</ele><time>2026-04-26T04:49:42.729Z</time></trkpt><trkpt lat="42.9501367" lon="2.4292517"><ele>650.0</ele><time>2026-04-26T04:49:43.728Z</time></trkpt><trkpt lat="42.9500267" lon="2.4292667"><ele>649.0</ele><time>2026-04-26T04:49:44.729Z</time></trkpt><trkpt lat="42.9499433" lon="2.4292767"><ele>648.0</ele><time>2026-04-26T04:49:45.729Z</time></trkpt><trkpt lat="42.94986" lon="2.4293283"><ele>647.0</ele><time>2026-04-26T04:49:47.727Z</time></trkpt><trkpt lat="42.9498467" lon="2.42947"><ele>646.0</ele><time>2026-04-26T04:49:49.729Z</time></trkpt><trkpt lat="42.949845" lon="2.4295617"><ele>645.25</ele><time>2026-04-26T04:49:50.729Z</time></trkpt><trkpt lat="42.9498817" lon="2.42969"><ele>644.5</ele><time>2026-04-26T04:49:51.733Z</time></trkpt><trkpt lat="42.9499283" lon="2.42984"><ele>643.75</ele><time>2026-04-26T04:49:52.73Z</time></trkpt><trkpt lat="42.94996" lon="2.43001"><ele>643.0</ele><time>2026-04-26T04:49:53.727Z</time></trkpt><trkpt lat="42.949975" lon="2.4301617"><ele>643.0</ele><time>2026-04-26T04:49:54.729Z</time></trkpt><trkpt lat="42.94998" lon="2.4303067"><ele>643.0</ele><time>2026-04-26T04:49:55.728Z</time></trkpt><trkpt lat="42.9499683" lon="2.4304533"><ele>643.0</ele><time>2026-04-26T04:49:56.73Z</time></trkpt><trkpt lat="42.9499383" lon="2.4305717"><ele>643.0</ele><time>2026-04-26T04:49:57.727Z</time></trkpt><trkpt lat="42.94988" lon="2.4306633"><ele>643.0</ele><time>2026-04-26T04:49:58.728Z</time></trkpt><trkpt lat="42.9497917" lon="2.4307317"><ele>642.25</ele><time>2026-04-26T04:49:59.728Z</time></trkpt><trkpt lat="42.949675" lon="2.430765"><ele>641.5</ele><time>2026-04-26T04:50:00.727Z</time></trkpt><trkpt lat="42.9495317" lon="2.4307767"><ele>640.75</ele><time>2026-04-26T04:50:01.728Z</time></trkpt><trkpt lat="42.9493983" lon="2.430795"><ele>640.0</ele><time>2026-04-26T04:50:02.73Z</time></trkpt><trkpt lat="42.9492617" lon="2.4308217"><ele>639.0</ele><time>2026-04-26T04:50:03.728Z</time></trkpt><trkpt lat="42.9491567" lon="2.4308683"><ele>638.0</ele><time>2026-04-26T04:50:04.728Z</time></trkpt><trkpt lat="42.9490533" lon="2.430915"><ele>637.0</ele><time>2026-04-26T04:50:05.728Z</time></trkpt><trkpt lat="42.9489467" lon="2.4309667"><ele>636.0</ele><time>2026-04-26T04:50:06.727Z</time></trkpt><trkpt lat="42.9488417" lon="2.4310433"><ele>636.0</ele><time>2026-04-26T04:50:07.729Z</time></trkpt><trkpt lat="42.9487333" lon="2.43112"><ele>636.0</ele><time>2026-04-26T04:50:08.728Z</time></trkpt><trkpt lat="42.9486117" lon="2.4312167"><ele>636.0</ele><time>2026-04-26T04:50:09.727Z</time></trkpt><trkpt lat="42.9484967" lon="2.4313267"><ele>636.0</ele><time>2026-04-26T04:50:10.728Z</time></trkpt><trkpt lat="42.9483883" lon="2.4314367"><ele>636.2</ele><time>2026-04-26T04:50:11.727Z</time></trkpt><trkpt lat="42.9482817" lon="2.431525"><ele>636.4000000000001</ele><time>2026-04-26T04:50:12.728Z</time></trkpt><trkpt lat="42.94818" lon="2.4315967"><ele>636.6</ele><time>2026-04-26T04:50:13.729Z</time></trkpt><trkpt lat="42.9480783" lon="2.431635"><ele>636.8000000000001</ele><time>2026-04-26T04:50:14.73Z</time></trkpt><trkpt lat="42.94798" lon="2.43165"><ele>637.0</ele><time>2026-04-26T04:50:15.73Z</time></trkpt><trkpt lat="42.9478783" lon="2.4316617"><ele>637.0</ele><time>2026-04-26T04:50:16.73Z</time></trkpt><trkpt lat="42.94777" lon="2.4316767"><ele>637.0</ele><time>2026-04-26T04:50:17.729Z</time></trkpt><trkpt lat="42.9476567" lon="2.4316933"><ele>637.0</ele><time>2026-04-26T04:50:18.73Z</time></trkpt><trkpt lat="42.947535" lon="2.4317133"><ele>637.0</ele><time>2026-04-26T04:50:19.731Z</time></trkpt><trkpt lat="42.947405" lon="2.4317383"><ele>637.0</ele><time>2026-04-26T04:50:20.729Z</time></trkpt><trkpt lat="42.9472717" lon="2.4317517"><ele>637.0</ele><time>2026-04-26T04:50:21.728Z</time></trkpt><trkpt lat="42.9471333" lon="2.431745"><ele>637.0</ele><time>2026-04-26T04:50:22.73Z</time></trkpt><trkpt lat="42.94699" lon="2.4317167"><ele>637.0</ele><time>2026-04-26T04:50:23.729Z</time></trkpt><trkpt lat="42.946855" lon="2.4316783"><ele>637.0</ele><time>2026-04-26T04:50:24.728Z</time></trkpt><trkpt lat="42.9467233" lon="2.4316483"><ele>637.0</ele><time>2026-04-26T04:50:25.731Z</time></trkpt><trkpt lat="42.9465883" lon="2.431625"><ele>637.0</ele><time>2026-04-26T04:50:26.731Z</time></trkpt><trkpt lat="42.94644" lon="2.4316067"><ele>637.0</ele><time>2026-04-26T04:50:27.73Z</time></trkpt><trkpt lat="42.94628" lon="2.431605"><ele>638.3333333333334</ele><time>2026-04-26T04:50:28.728Z</time></trkpt><trkpt lat="42.9461167" lon="2.4316233"><ele>639.6666666666666</ele><time>2026-04-26T04:50:29.728Z</time></trkpt><trkpt lat="42.945955" lon="2.4316483"><ele>641.0</ele><time>2026-04-26T04:50:30.729Z</time></trkpt><trkpt lat="42.9457917" lon="2.43167"><ele>641.0</ele><time>2026-04-26T04:50:31.729Z</time></trkpt><trkpt lat="42.9456383" lon="2.4317067"><ele>641.0</ele><time>2026-04-26T04:50:32.728Z</time></trkpt><trkpt lat="42.9454867" lon="2.4317433"><ele>641.0</ele><time>2026-04-26T04:50:33.73Z</time></trkpt><trkpt lat="42.94534" lon="2.4317833"><ele>641.0</ele><time>2026-04-26T04:50:34.731Z</time></trkpt><trkpt lat="42.9452083" lon="2.4318133"><ele>641.0</ele><time>2026-04-26T04:50:35.732Z</time></trkpt><trkpt lat="42.9451017" lon="2.431835"><ele>641.0</ele><time>2026-04-26T04:50:36.728Z</time></trkpt><trkpt lat="42.9450067" lon="2.4318533"><ele>641.0</ele><time>2026-04-26T04:50:37.729Z</time></trkpt><trkpt lat="42.9449217" lon="2.4318633"><ele>641.0</ele><time>2026-04-26T04:50:38.73Z</time></trkpt><trkpt lat="42.94486" lon="2.43184"><ele>640.1999999999999</ele><time>2026-04-26T04:50:39.728Z</time></trkpt><trkpt lat="42.9447583" lon="2.4317333"><ele>639.4</ele><time>2026-04-26T04:50:41.735Z</time></trkpt><trkpt lat="42.944715" lon="2.431635"><ele>638.6</ele><time>2026-04-26T04:50:42.729Z</time></trkpt><trkpt lat="42.9446867" lon="2.4315517"><ele>637.8</ele><time>2026-04-26T04:50:43.729Z</time></trkpt><trkpt lat="42.94466" lon="2.431425"><ele>637.0</ele><time>2026-04-26T04:50:45.729Z</time></trkpt><trkpt lat="42.9446833" lon="2.4312683"><ele>636.2</ele><time>2026-04-26T04:50:47.728Z</time></trkpt><trkpt lat="42.9447067" lon="2.431125"><ele>635.4000000000001</ele><time>2026-04-26T04:50:49.728Z</time></trkpt><trkpt lat="42.9446667" lon="2.4310217"><ele>634.5999999999999</ele><time>2026-04-26T04:50:51.728Z</time></trkpt><trkpt lat="42.9446017" lon="2.430975"><ele>633.8</ele><time>2026-04-26T04:50:52.729Z</time></trkpt><trkpt lat="42.9444883" lon="2.4309233"><ele>633.0</ele><time>2026-04-26T04:50:53.729Z</time></trkpt><trkpt lat="42.9443717" lon="2.4308533"><ele>633.0</ele><time>2026-04-26T04:50:54.728Z</time></trkpt><trkpt lat="42.9442583" lon="2.4307467"><ele>633.0</ele><time>2026-04-26T04:50:55.728Z</time></trkpt><trkpt lat="42.9441483" lon="2.4306467"><ele>633.0</ele><time>2026-04-26T04:50:56.729Z</time></trkpt><trkpt lat="42.94404" lon="2.4305683"><ele>633.0</ele><time>2026-04-26T04:50:57.728Z</time></trkpt><trkpt lat="42.9439233" lon="2.4305217"><ele>634.0</ele><time>2026-04-26T04:50:58.73Z</time></trkpt><trkpt lat="42.9438033" lon="2.43051"><ele>635.0</ele><time>2026-04-26T04:50:59.731Z</time></trkpt><trkpt lat="42.9436767" lon="2.430535"><ele>636.0</ele><time>2026-04-26T04:51:00.729Z</time></trkpt><trkpt lat="42.94355" lon="2.4305717"><ele>637.0</ele><time>2026-04-26T04:51:01.727Z</time></trkpt><trkpt lat="42.94343" lon="2.4305933"><ele>636.8000000000001</ele><time>2026-04-26T04:51:02.728Z</time></trkpt><trkpt lat="42.943325" lon="2.43058"><ele>636.6</ele><time>2026-04-26T04:51:03.727Z</time></trkpt><trkpt lat="42.943235" lon="2.430535"><ele>636.4000000000001</ele><time>2026-04-26T04:51:04.727Z</time></trkpt><trkpt lat="42.9431533" lon="2.430445"><ele>636.2</ele><time>2026-04-26T04:51:05.727Z</time></trkpt><trkpt lat="42.9430683" lon="2.430335"><ele>636.0</ele><time>2026-04-26T04:51:06.729Z</time></trkpt><trkpt lat="42.9429733" lon="2.43023"><ele>636.0</ele><time>2026-04-26T04:51:07.727Z</time></trkpt><trkpt lat="42.942865" lon="2.4301433"><ele>636.0</ele><time>2026-04-26T04:51:08.728Z</time></trkpt><trkpt lat="42.94274" lon="2.4300833"><ele>636.0</ele><time>2026-04-26T04:51:09.727Z</time></trkpt><trkpt lat="42.9426033" lon="2.430035"><ele>636.0</ele><time>2026-04-26T04:51:10.729Z</time></trkpt><trkpt lat="42.9424717" lon="2.429985"><ele>639.0</ele><time>2026-04-26T04:51:11.728Z</time></trkpt><trkpt lat="42.94235" lon="2.4299283"><ele>642.0</ele><time>2026-04-26T04:51:12.729Z</time></trkpt><trkpt lat="42.9422233" lon="2.42986"><ele>645.0</ele><time>2026-04-26T04:51:13.728Z</time></trkpt><trkpt lat="42.9420917" lon="2.4297883"><ele>648.0</ele><time>2026-04-26T04:51:14.731Z</time></trkpt><trkpt lat="42.9419617" lon="2.429735"><ele>648.0</ele><time>2026-04-26T04:51:15.727Z</time></trkpt><trkpt lat="42.9418333" lon="2.429715"><ele>648.0</ele><time>2026-04-26T04:51:16.728Z</time></trkpt><trkpt lat="42.9417117" lon="2.42973"><ele>648.0</ele><time>2026-04-26T04:51:17.729Z</time></trkpt><trkpt lat="42.9415883" lon="2.42978"><ele>648.0</ele><time>2026-04-26T04:51:18.728Z</time></trkpt><trkpt lat="42.941465" lon="2.42986"><ele>649.5</ele><time>2026-04-26T04:51:19.728Z</time></trkpt><trkpt lat="42.9413383" lon="2.42995"><ele>651.0</ele><time>2026-04-26T04:51:20.729Z</time></trkpt><trkpt lat="42.9412083" lon="2.4300233"><ele>652.5</ele><time>2026-04-26T04:51:21.729Z</time></trkpt><trkpt lat="42.9410733" lon="2.4300833"><ele>654.0</ele><time>2026-04-26T04:51:22.731Z</time></trkpt><trkpt lat="42.940935" lon="2.4301383"><ele>655.6666666666666</ele><time>2026-04-26T04:51:23.731Z</time></trkpt><trkpt lat="42.9407883" lon="2.4302067"><ele>657.3333333333333</ele><time>2026-04-26T04:51:24.729Z</time></trkpt><trkpt lat="42.9406383" lon="2.43029"><ele>659.0</ele><time>2026-04-26T04:51:25.729Z</time></trkpt><trkpt lat="42.9404967" lon="2.430375"><ele>659.0</ele><time>2026-04-26T04:51:26.729Z</time></trkpt><trkpt lat="42.9403633" lon="2.4304617"><ele>659.0</ele><time>2026-04-26T04:51:27.729Z</time></trkpt><trkpt lat="42.9402333" lon="2.4305283"><ele>659.0</ele><time>2026-04-26T04:51:28.73Z</time></trkpt><trkpt lat="42.9401017" lon="2.4305783"><ele>659.0</ele><time>2026-04-26T04:51:29.731Z</time></trkpt><trkpt lat="42.93997" lon="2.43062"><ele>662.25</ele><time>2026-04-26T04:51:30.728Z</time></trkpt><trkpt lat="42.9398467" lon="2.4306467"><ele>665.5</ele><time>2026-04-26T04:51:31.729Z</time></trkpt><trkpt lat="42.9397283" lon="2.4306483"><ele>668.75</ele><time>2026-04-26T04:51:32.731Z</time></trkpt><trkpt lat="42.93961" lon="2.43062"><ele>672.0</ele><time>2026-04-26T04:51:33.729Z</time></trkpt><trkpt lat="42.9394933" lon="2.4305567"><ele>670.5</ele><time>2026-04-26T04:51:34.728Z</time></trkpt><trkpt lat="42.9393867" lon="2.430455"><ele>669.0</ele><time>2026-04-26T04:51:35.728Z</time></trkpt><trkpt lat="42.9392967" lon="2.4303217"><ele>667.5</ele><time>2026-04-26T04:51:36.732Z</time></trkpt><trkpt lat="42.9392117" lon="2.4301517"><ele>666.0</ele><time>2026-04-26T04:51:37.73Z</time></trkpt><trkpt lat="42.9391283" lon="2.4299683"><ele>668.3333333333334</ele><time>2026-04-26T04:51:38.731Z</time></trkpt><trkpt lat="42.9390433" lon="2.4297733"><ele>670.6666666666667</ele><time>2026-04-26T04:51:39.727Z</time></trkpt><trkpt lat="42.9389533" lon="2.4295717"><ele>673.0</ele><time>2026-04-26T04:51:40.728Z</time></trkpt><trkpt lat="42.9388683" lon="2.4293733"><ele>673.0</ele><time>2026-04-26T04:51:41.727Z</time></trkpt><trkpt lat="42.9387967" lon="2.4291783"><ele>673.0</ele><time>2026-04-26T04:51:42.728Z</time></trkpt><trkpt lat="42.9387317" lon="2.4289717"><ele>673.0</ele><time>2026-04-26T04:51:43.728Z</time></trkpt><trkpt lat="42.9386683" lon="2.4287617"><ele>669.0</ele><time>2026-04-26T04:51:44.731Z</time></trkpt><trkpt lat="42.9385967" lon="2.4285533"><ele>665.0</ele><time>2026-04-26T04:51:45.729Z</time></trkpt><trkpt lat="42.938515" lon="2.4283433"><ele>661.0</ele><time>2026-04-26T04:51:46.731Z</time></trkpt><trkpt lat="42.9384283" lon="2.4281433"><ele>669.6666666666667</ele><time>2026-04-26T04:51:47.729Z</time></trkpt><trkpt lat="42.93835" lon="2.4279433"><ele>678.3333333333334</ele><time>2026-04-26T04:51:48.729Z</time></trkpt><trkpt lat="42.9382683" lon="2.4277433"><ele>687.0</ele><time>2026-04-26T04:51:49.728Z</time></trkpt><trkpt lat="42.9381883" lon="2.4275467"><ele>687.0</ele><time>2026-04-26T04:51:50.728Z</time></trkpt><trkpt lat="42.9381133" lon="2.42736"><ele>687.0</ele><time>2026-04-26T04:51:51.729Z</time></trkpt><trkpt lat="42.938055" lon="2.4271933"><ele>687.0</ele><time>2026-04-26T04:51:52.728Z</time></trkpt><trkpt lat="42.9379983" lon="2.4270317"><ele>687.0</ele><time>2026-04-26T04:51:53.728Z</time></trkpt><trkpt lat="42.9379467" lon="2.4268817"><ele>686.0</ele><time>2026-04-26T04:51:54.729Z</time></trkpt><trkpt lat="42.937885" lon="2.4267633"><ele>685.0</ele><time>2026-04-26T04:51:55.728Z</time></trkpt><trkpt lat="42.9378283" lon="2.42668"><ele>684.0</ele><time>2026-04-26T04:51:56.728Z</time></trkpt><trkpt lat="42.9377733" lon="2.42662"><ele>683.0</ele><time>2026-04-26T04:51:57.727Z</time></trkpt><trkpt lat="42.9376617" lon="2.4266267"><ele>682.0</ele><time>2026-04-26T04:51:59.729Z</time></trkpt><trkpt lat="42.9376117" lon="2.4268083"><ele>682.0</ele><time>2026-04-26T04:52:01.729Z</time></trkpt><trkpt lat="42.93763" lon="2.4269567"><ele>682.0</ele><time>2026-04-26T04:52:02.729Z</time></trkpt><trkpt lat="42.937665" lon="2.427115"><ele>682.0</ele><time>2026-04-26T04:52:03.728Z</time></trkpt><trkpt lat="42.93771" lon="2.4272783"><ele>682.0</ele><time>2026-04-26T04:52:04.728Z</time></trkpt><trkpt lat="42.9377683" lon="2.4274417"><ele>683.25</ele><time>2026-04-26T04:52:05.727Z</time></trkpt><trkpt lat="42.93783" lon="2.4275883"><ele>684.5</ele><time>2026-04-26T04:52:06.728Z</time></trkpt><trkpt lat="42.9379033" lon="2.427725"><ele>685.75</ele><time>2026-04-26T04:52:07.729Z</time></trkpt><trkpt lat="42.9379867" lon="2.42786"><ele>687.0</ele><time>2026-04-26T04:52:08.728Z</time></trkpt><trkpt lat="42.9380783" lon="2.427985"><ele>688.0</ele><time>2026-04-26T04:52:09.729Z</time></trkpt><trkpt lat="42.93817" lon="2.4280983"><ele>689.0</ele><time>2026-04-26T04:52:10.732Z</time></trkpt><trkpt lat="42.9382517" lon="2.4282167"><ele>690.0</ele><time>2026-04-26T04:52:11.727Z</time></trkpt><trkpt lat="42.9383233" lon="2.42834"><ele>691.0</ele><time>2026-04-26T04:52:12.727Z</time></trkpt><trkpt lat="42.9383833" lon="2.4284717"><ele>686.5</ele><time>2026-04-26T04:52:13.728Z</time></trkpt><trkpt lat="42.93843" lon="2.428615"><ele>682.0</ele><time>2026-04-26T04:52:14.728Z</time></trkpt><trkpt lat="42.93846" lon="2.4287583"><ele>677.5</ele><time>2026-04-26T04:52:15.73Z</time></trkpt><trkpt lat="42.9384767" lon="2.42891"><ele>673.0</ele><time>2026-04-26T04:52:16.727Z</time></trkpt><trkpt lat="42.938475" lon="2.4290683"><ele>673.0</ele><time>2026-04-26T04:52:17.727Z</time></trkpt><trkpt lat="42.9384683" lon="2.42922"><ele>673.0</ele><time>2026-04-26T04:52:18.729Z</time></trkpt><trkpt lat="42.9384583" lon="2.4293633"><ele>673.0</ele><time>2026-04-26T04:52:19.727Z</time></trkpt><trkpt lat="42.938435" lon="2.4294967"><ele>673.0</ele><time>2026-04-26T04:52:20.73Z</time></trkpt><trkpt lat="42.93839" lon="2.42961"><ele>673.0</ele><time>2026-04-26T04:52:21.729Z</time></trkpt><trkpt lat="42.938325" lon="2.429715"><ele>678.75</ele><time>2026-04-26T04:52:22.729Z</time></trkpt><trkpt lat="42.9382283" lon="2.4297983"><ele>684.5</ele><time>2026-04-26T04:52:23.729Z</time></trkpt><trkpt lat="42.9381217" lon="2.42986"><ele>690.25</ele><time>2026-04-26T04:52:24.729Z</time></trkpt><trkpt lat="42.938" lon="2.4299033"><ele>696.0</ele><time>2026-04-26T04:52:25.727Z</time></trkpt><trkpt lat="42.9378833" lon="2.42997"><ele>696.0</ele><time>2026-04-26T04:52:26.73Z</time></trkpt><trkpt lat="42.93776" lon="2.430035"><ele>696.0</ele><time>2026-04-26T04:52:27.729Z</time></trkpt><trkpt lat="42.9376533" lon="2.4301167"><ele>696.0</ele><time>2026-04-26T04:52:28.729Z</time></trkpt><trkpt lat="42.937565" lon="2.4302117"><ele>696.0</ele><time>2026-04-26T04:52:29.729Z</time></trkpt><trkpt lat="42.937485" lon="2.4303117"><ele>694.5999999999999</ele><time>2026-04-26T04:52:30.727Z</time></trkpt><trkpt lat="42.937425" lon="2.4304233"><ele>693.2</ele><time>2026-04-26T04:52:31.729Z</time></trkpt><trkpt lat="42.93739" lon="2.4305633"><ele>691.8</ele><time>2026-04-26T04:52:32.728Z</time></trkpt><trkpt lat="42.9373667" lon="2.43072"><ele>690.4000000000001</ele><time>2026-04-26T04:52:33.729Z</time></trkpt><trkpt lat="42.937335" lon="2.4308783"><ele>689.0</ele><time>2026-04-26T04:52:34.727Z</time></trkpt><trkpt lat="42.937285" lon="2.4310333"><ele>689.0</ele><time>2026-04-26T04:52:35.729Z</time></trkpt><trkpt lat="42.9372417" lon="2.4311917"><ele>689.0</ele><time>2026-04-26T04:52:36.729Z</time></trkpt><trkpt lat="42.9372133" lon="2.431365"><ele>689.0</ele><time>2026-04-26T04:52:37.731Z</time></trkpt><trkpt lat="42.9372" lon="2.4315417"><ele>689.0</ele><time>2026-04-26T04:52:38.73Z</time></trkpt><trkpt lat="42.9372" lon="2.43172"><ele>689.2</ele><time>2026-04-26T04:52:39.728Z</time></trkpt><trkpt lat="42.9372217" lon="2.4318833"><ele>689.4000000000001</ele><time>2026-04-26T04:52:40.729Z</time></trkpt><trkpt lat="42.9372683" lon="2.4320333"><ele>689.6</ele><time>2026-04-26T04:52:41.731Z</time></trkpt><trkpt lat="42.9373167" lon="2.4321683"><ele>689.8</ele><time>2026-04-26T04:52:42.728Z</time></trkpt><trkpt lat="42.937365" lon="2.432285"><ele>690.0</ele><time>2026-04-26T04:52:43.728Z</time></trkpt><trkpt lat="42.937395" lon="2.4324"><ele>689.8</ele><time>2026-04-26T04:52:44.731Z</time></trkpt><trkpt lat="42.9374133" lon="2.43252"><ele>689.6</ele><time>2026-04-26T04:52:45.728Z</time></trkpt><trkpt lat="42.9374033" lon="2.432645"><ele>689.4000000000001</ele><time>2026-04-26T04:52:46.729Z</time></trkpt><trkpt lat="42.9373817" lon="2.4327867"><ele>689.2</ele><time>2026-04-26T04:52:47.728Z</time></trkpt><trkpt lat="42.93736" lon="2.4329383"><ele>689.0</ele><time>2026-04-26T04:52:48.729Z</time></trkpt><trkpt lat="42.9373467" lon="2.4330883"><ele>689.0</ele><time>2026-04-26T04:52:49.733Z</time></trkpt><trkpt lat="42.937345" lon="2.4332283"><ele>689.0</ele><time>2026-04-26T04:52:50.73Z</time></trkpt><trkpt lat="42.9373417" lon="2.4333467"><ele>689.0</ele><time>2026-04-26T04:52:51.731Z</time></trkpt><trkpt lat="42.9373267" lon="2.4334417"><ele>689.0</ele><time>2026-04-26T04:52:52.73Z</time></trkpt><trkpt lat="42.9373" lon="2.4335783"><ele>689.0</ele><time>2026-04-26T04:52:54.728Z</time></trkpt><trkpt lat="42.93718" lon="2.4335167"><ele>689.0</ele><time>2026-04-26T04:52:56.729Z</time></trkpt><trkpt lat="42.9370933" lon="2.4333717"><ele>689.0</ele><time>2026-04-26T04:52:57.729Z</time></trkpt><trkpt lat="42.9369967" lon="2.4332467"><ele>689.0</ele><time>2026-04-26T04:52:58.728Z</time></trkpt><trkpt lat="42.9368883" lon="2.4331267"><ele>689.0</ele><time>2026-04-26T04:52:59.727Z</time></trkpt><trkpt lat="42.9367917" lon="2.4330183"><ele>684.25</ele><time>2026-04-26T04:53:00.729Z</time></trkpt><trkpt lat="42.9366983" lon="2.4329233"><ele>679.5</ele><time>2026-04-26T04:53:01.73Z</time></trkpt><trkpt lat="42.9365983" lon="2.4328533"><ele>674.75</ele><time>2026-04-26T04:53:02.729Z</time></trkpt><trkpt lat="42.936495" lon="2.4328033"><ele>670.0</ele><time>2026-04-26T04:53:03.728Z</time></trkpt><trkpt lat="42.936385" lon="2.4327817"><ele>670.0</ele><time>2026-04-26T04:53:04.728Z</time></trkpt><trkpt lat="42.9362817" lon="2.4327933"><ele>670.0</ele><time>2026-04-26T04:53:05.727Z</time></trkpt><trkpt lat="42.9361833" lon="2.43281"><ele>670.0</ele><time>2026-04-26T04:53:06.729Z</time></trkpt><trkpt lat="42.9360983" lon="2.4328133"><ele>670.0</ele><time>2026-04-26T04:53:07.728Z</time></trkpt><trkpt lat="42.9360183" lon="2.4328067"><ele>670.0</ele><time>2026-04-26T04:53:08.732Z</time></trkpt><trkpt lat="42.9359567" lon="2.4326817"><ele>670.0</ele><time>2026-04-26T04:53:10.728Z</time></trkpt><trkpt lat="42.93598" lon="2.43256"><ele>670.0</ele><time>2026-04-26T04:53:11.727Z</time></trkpt><trkpt lat="42.93601" lon="2.432425"><ele>670.0</ele><time>2026-04-26T04:53:12.729Z</time></trkpt><trkpt lat="42.9360183" lon="2.432285"><ele>670.0</ele><time>2026-04-26T04:53:13.727Z</time></trkpt><trkpt lat="42.9359917" lon="2.4321333"><ele>670.0</ele><time>2026-04-26T04:53:14.732Z</time></trkpt><trkpt lat="42.9359317" lon="2.43198"><ele>671.5</ele><time>2026-04-26T04:53:15.73Z</time></trkpt><trkpt lat="42.9358517" lon="2.431835"><ele>673.0</ele><time>2026-04-26T04:53:16.727Z</time></trkpt><trkpt lat="42.935755" lon="2.4316933"><ele>674.5</ele><time>2026-04-26T04:53:17.73Z</time></trkpt><trkpt lat="42.9356467" lon="2.431565"><ele>676.0</ele><time>2026-04-26T04:53:18.729Z</time></trkpt><trkpt lat="42.9355383" lon="2.4314433"><ele>676.0</ele><time>2026-04-26T04:53:19.727Z</time></trkpt><trkpt lat="42.935445" lon="2.4313083"><ele>676.0</ele><time>2026-04-26T04:53:20.73Z</time></trkpt><trkpt lat="42.9353567" lon="2.431165"><ele>676.0</ele><time>2026-04-26T04:53:21.727Z</time></trkpt><trkpt lat="42.935275" lon="2.4310133"><ele>676.0</ele><time>2026-04-26T04:53:22.729Z</time></trkpt><trkpt lat="42.93519" lon="2.4308767"><ele>677.25</ele><time>2026-04-26T04:53:23.729Z</time></trkpt><trkpt lat="42.93509" lon="2.43076"><ele>678.5</ele><time>2026-04-26T04:53:24.73Z</time></trkpt><trkpt lat="42.9349967" lon="2.4306717"><ele>679.75</ele><time>2026-04-26T04:53:25.727Z</time></trkpt><trkpt lat="42.9348983" lon="2.4306317"><ele>681.0</ele><time>2026-04-26T04:53:26.729Z</time></trkpt><trkpt lat="42.934795" lon="2.4306367"><ele>681.0</ele><time>2026-04-26T04:53:27.734Z</time></trkpt><trkpt lat="42.93469" lon="2.4306783"><ele>681.0</ele><time>2026-04-26T04:53:28.728Z</time></trkpt><trkpt lat="42.9345983" lon="2.43074"><ele>681.0</ele><time>2026-04-26T04:53:29.727Z</time></trkpt><trkpt lat="42.9345067" lon="2.4307917"><ele>681.0</ele><time>2026-04-26T04:53:30.729Z</time></trkpt><trkpt lat="42.93442" lon="2.4308167"><ele>681.0</ele><time>2026-04-26T04:53:31.73Z</time></trkpt><trkpt lat="42.9343383" lon="2.4308283"><ele>681.0</ele><time>2026-04-26T04:53:32.728Z</time></trkpt><trkpt lat="42.934265" lon="2.4307833"><ele>681.0</ele><time>2026-04-26T04:53:33.729Z</time></trkpt><trkpt lat="42.9342067" lon="2.4306667"><ele>681.0</ele><time>2026-04-26T04:53:34.728Z</time></trkpt><trkpt lat="42.9341717" lon="2.4305033"><ele>681.0</ele><time>2026-04-26T04:53:35.732Z</time></trkpt><trkpt lat="42.93414" lon="2.4303267"><ele>681.0</ele><time>2026-04-26T04:53:36.727Z</time></trkpt><trkpt lat="42.9341083" lon="2.430155"><ele>680.8</ele><time>2026-04-26T04:53:37.729Z</time></trkpt><trkpt lat="42.9340833" lon="2.43"><ele>680.5999999999999</ele><time>2026-04-26T04:53:38.729Z</time></trkpt><trkpt lat="42.9340567" lon="2.4298667"><ele>680.4</ele><time>2026-04-26T04:53:39.728Z</time></trkpt><trkpt lat="42.9340117" lon="2.4297583"><ele>680.2</ele><time>2026-04-26T04:53:40.729Z</time></trkpt><trkpt lat="42.933955" lon="2.429675"><ele>680.0</ele><time>2026-04-26T04:53:41.727Z</time></trkpt><trkpt lat="42.93388" lon="2.42962"><ele>680.0</ele><time>2026-04-26T04:53:42.728Z</time></trkpt><trkpt lat="42.9337917" lon="2.42959"><ele>680.0</ele><time>2026-04-26T04:53:43.727Z</time></trkpt><trkpt lat="42.9337133" lon="2.4295433"><ele>680.0</ele><time>2026-04-26T04:53:44.728Z</time></trkpt><trkpt lat="42.93364" lon="2.4294567"><ele>680.0</ele><time>2026-04-26T04:53:45.729Z</time></trkpt><trkpt lat="42.9335867" lon="2.4293267"><ele>680.0</ele><time>2026-04-26T04:53:46.728Z</time></trkpt><trkpt lat="42.9335433" lon="2.42917"><ele>680.0</ele><time>2026-04-26T04:53:47.731Z</time></trkpt><trkpt lat="42.9335017" lon="2.4289933"><ele>680.0</ele><time>2026-04-26T04:53:48.728Z</time></trkpt><trkpt lat="42.9334633" lon="2.4288083"><ele>680.0</ele><time>2026-04-26T04:53:49.728Z</time></trkpt><trkpt lat="42.933415" lon="2.4286233"><ele>680.0</ele><time>2026-04-26T04:53:50.729Z</time></trkpt><trkpt lat="42.9333683" lon="2.4284367"><ele>681.75</ele><time>2026-04-26T04:53:51.729Z</time></trkpt><trkpt lat="42.93332" lon="2.428265"><ele>683.5</ele><time>2026-04-26T04:53:52.73Z</time></trkpt><trkpt lat="42.93326" lon="2.428105"><ele>685.25</ele><time>2026-04-26T04:53:53.728Z</time></trkpt><trkpt lat="42.9331933" lon="2.4279483"><ele>687.0</ele><time>2026-04-26T04:53:54.729Z</time></trkpt><trkpt lat="42.933115" lon="2.4277983"><ele>687.0</ele><time>2026-04-26T04:53:55.73Z</time></trkpt><trkpt lat="42.93302" lon="2.4276533"><ele>687.0</ele><time>2026-04-26T04:53:56.73Z</time></trkpt><trkpt lat="42.9329183" lon="2.4275033"><ele>687.0</ele><time>2026-04-26T04:53:57.728Z</time></trkpt><trkpt lat="42.93282" lon="2.4273533"><ele>687.0</ele><time>2026-04-26T04:53:58.728Z</time></trkpt><trkpt lat="42.932725" lon="2.427205"><ele>690.5</ele><time>2026-04-26T04:53:59.728Z</time></trkpt><trkpt lat="42.93263" lon="2.4270667"><ele>694.0</ele><time>2026-04-26T04:54:00.728Z</time></trkpt><trkpt lat="42.9325383" lon="2.42696"><ele>697.5</ele><time>2026-04-26T04:54:01.73Z</time></trkpt><trkpt lat="42.9324567" lon="2.42687"><ele>701.0</ele><time>2026-04-26T04:54:02.728Z</time></trkpt><trkpt lat="42.932375" lon="2.42682"><ele>701.0</ele><time>2026-04-26T04:54:03.728Z</time></trkpt><trkpt lat="42.93228" lon="2.4268083"><ele>701.0</ele><time>2026-04-26T04:54:04.728Z</time></trkpt><trkpt lat="42.932165" lon="2.4268383"><ele>701.0</ele><time>2026-04-26T04:54:05.73Z</time></trkpt><trkpt lat="42.9320467" lon="2.4268883"><ele>701.0</ele><time>2026-04-26T04:54:06.728Z</time></trkpt><trkpt lat="42.9319117" lon="2.4269533"><ele>701.0</ele><time>2026-04-26T04:54:07.733Z</time></trkpt><trkpt lat="42.9317667" lon="2.4270217"><ele>701.0</ele><time>2026-04-26T04:54:08.733Z</time></trkpt><trkpt lat="42.9316233" lon="2.4270967"><ele>701.0</ele><time>2026-04-26T04:54:09.728Z</time></trkpt><trkpt lat="42.9314833" lon="2.4271767"><ele>703.75</ele><time>2026-04-26T04:54:10.729Z</time></trkpt><trkpt lat="42.9313467" lon="2.42725"><ele>706.5</ele><time>2026-04-26T04:54:11.729Z</time></trkpt><trkpt lat="42.931215" lon="2.4273033"><ele>709.25</ele><time>2026-04-26T04:54:12.727Z</time></trkpt><trkpt lat="42.9310883" lon="2.4273283"><ele>712.0</ele><time>2026-04-26T04:54:13.727Z</time></trkpt><trkpt lat="42.930965" lon="2.42734"><ele>709.25</ele><time>2026-04-26T04:54:14.729Z</time></trkpt><trkpt lat="42.93084" lon="2.4273333"><ele>706.5</ele><time>2026-04-26T04:54:15.734Z</time></trkpt><trkpt lat="42.9307117" lon="2.4273"><ele>703.75</ele><time>2026-04-26T04:54:16.728Z</time></trkpt><trkpt lat="42.9305817" lon="2.4272483"><ele>701.0</ele><time>2026-04-26T04:54:17.728Z</time></trkpt><trkpt lat="42.9304567" lon="2.427165"><ele>701.5</ele><time>2026-04-26T04:54:18.73Z</time></trkpt><trkpt lat="42.9303417" lon="2.42707"><ele>702.0</ele><time>2026-04-26T04:54:19.727Z</time></trkpt><trkpt lat="42.930225" lon="2.4269683"><ele>702.5</ele><time>2026-04-26T04:54:20.728Z</time></trkpt><trkpt lat="42.9301083" lon="2.4268733"><ele>703.0</ele><time>2026-04-26T04:54:21.728Z</time></trkpt><trkpt lat="42.9299817" lon="2.4267967"><ele>703.0</ele><time>2026-04-26T04:54:22.729Z</time></trkpt><trkpt lat="42.9298517" lon="2.4267367"><ele>703.0</ele><time>2026-04-26T04:54:23.727Z</time></trkpt><trkpt lat="42.929735" lon="2.426685"><ele>703.0</ele><time>2026-04-26T04:54:24.728Z</time></trkpt><trkpt lat="42.9296333" lon="2.4266233"><ele>703.0</ele><time>2026-04-26T04:54:25.726Z</time></trkpt><trkpt lat="42.92954" lon="2.4265383"><ele>703.0</ele><time>2026-04-26T04:54:26.731Z</time></trkpt><trkpt lat="42.9294583" lon="2.4264283"><ele>703.0</ele><time>2026-04-26T04:54:27.728Z</time></trkpt><trkpt lat="42.9293867" lon="2.4262933"><ele>703.0</ele><time>2026-04-26T04:54:28.729Z</time></trkpt><trkpt lat="42.9293333" lon="2.4261333"><ele>703.0</ele><time>2026-04-26T04:54:29.729Z</time></trkpt><trkpt lat="42.9292917" lon="2.425965"><ele>701.5999999999999</ele><time>2026-04-26T04:54:30.731Z</time></trkpt><trkpt lat="42.9292633" lon="2.4257867"><ele>700.1999999999999</ele><time>2026-04-26T04:54:31.728Z</time></trkpt><trkpt lat="42.929255" lon="2.4256167"><ele>698.8</ele><time>2026-04-26T04:54:32.73Z</time></trkpt><trkpt lat="42.9292483" lon="2.4254783"><ele>697.4</ele><time>2026-04-26T04:54:33.729Z</time></trkpt><trkpt lat="42.9292367" lon="2.4253633"><ele>696.0</ele><time>2026-04-26T04:54:34.727Z</time></trkpt><trkpt lat="42.9292183" lon="2.4252667"><ele>696.0</ele><time>2026-04-26T04:54:35.73Z</time></trkpt><trkpt lat="42.92916" lon="2.4252233"><ele>696.0</ele><time>2026-04-26T04:54:36.729Z</time></trkpt><trkpt lat="42.9290633" lon="2.42526"><ele>696.0</ele><time>2026-04-26T04:54:37.729Z</time></trkpt><trkpt lat="42.9289633" lon="2.4253233"><ele>696.0</ele><time>2026-04-26T04:54:38.728Z</time></trkpt><trkpt lat="42.9288533" lon="2.42541"><ele>696.0</ele><time>2026-04-26T04:54:39.726Z</time></trkpt><trkpt lat="42.9287367" lon="2.4255067"><ele>700.25</ele><time>2026-04-26T04:54:40.728Z</time></trkpt><trkpt lat="42.9286067" lon="2.425595"><ele>704.5</ele><time>2026-04-26T04:54:41.727Z</time></trkpt><trkpt lat="42.928475" lon="2.4256683"><ele>708.75</ele><time>2026-04-26T04:54:42.729Z</time></trkpt><trkpt lat="42.9283433" lon="2.42572"><ele>713.0</ele><time>2026-04-26T04:54:43.729Z</time></trkpt><trkpt lat="42.9282133" lon="2.4257467"><ele>713.0</ele><time>2026-04-26T04:54:44.729Z</time></trkpt><trkpt lat="42.9280883" lon="2.42576"><ele>713.0</ele><time>2026-04-26T04:54:45.733Z</time></trkpt><trkpt lat="42.9279683" lon="2.4257383"><ele>713.0</ele><time>2026-04-26T04:54:46.727Z</time></trkpt><trkpt lat="42.92786" lon="2.42567"><ele>713.0</ele><time>2026-04-26T04:54:47.731Z</time></trkpt><trkpt lat="42.9277567" lon="2.425575"><ele>705.5</ele><time>2026-04-26T04:54:48.728Z</time></trkpt><trkpt lat="42.9276483" lon="2.4254617"><ele>698.0</ele><time>2026-04-26T04:54:49.73Z</time></trkpt><trkpt lat="42.9275467" lon="2.4253483"><ele>690.5</ele><time>2026-04-26T04:54:50.729Z</time></trkpt><trkpt lat="42.9274517" lon="2.4252383"><ele>683.0</ele><time>2026-04-26T04:54:51.729Z</time></trkpt><trkpt lat="42.9273583" lon="2.4251367"><ele>683.0</ele><time>2026-04-26T04:54:52.728Z</time></trkpt><trkpt lat="42.92726" lon="2.4250567"><ele>683.0</ele><time>2026-04-26T04:54:53.73Z</time></trkpt><trkpt lat="42.9271583" lon="2.4250017"><ele>683.0</ele><time>2026-04-26T04:54:54.73Z</time></trkpt><trkpt lat="42.92704" lon="2.42498"><ele>683.0</ele><time>2026-04-26T04:54:55.729Z</time></trkpt><trkpt lat="42.92692" lon="2.4250017"><ele>683.0</ele><time>2026-04-26T04:54:56.728Z</time></trkpt><trkpt lat="42.9267967" lon="2.4250417"><ele>683.0</ele><time>2026-04-26T04:54:57.727Z</time></trkpt><trkpt lat="42.9266683" lon="2.4251"><ele>683.0</ele><time>2026-04-26T04:54:58.728Z</time></trkpt><trkpt lat="42.9265367" lon="2.4251617"><ele>683.0</ele><time>2026-04-26T04:54:59.727Z</time></trkpt><trkpt lat="42.9264" lon="2.4252183"><ele>684.0</ele><time>2026-04-26T04:55:00.728Z</time></trkpt><trkpt lat="42.9262567" lon="2.4252733"><ele>685.0</ele><time>2026-04-26T04:55:01.727Z</time></trkpt><trkpt lat="42.9261067" lon="2.425335"><ele>686.0</ele><time>2026-04-26T04:55:02.729Z</time></trkpt><trkpt lat="42.9259567" lon="2.4254"><ele>683.6666666666666</ele><time>2026-04-26T04:55:03.726Z</time></trkpt><trkpt lat="42.9258083" lon="2.42547"><ele>681.3333333333334</ele><time>2026-04-26T04:55:04.727Z</time></trkpt><trkpt lat="42.9256533" lon="2.425525"><ele>679.0</ele><time>2026-04-26T04:55:05.728Z</time></trkpt><trkpt lat="42.9255233" lon="2.4255683"><ele>682.75</ele><time>2026-04-26T04:55:06.726Z</time></trkpt><trkpt lat="42.9254033" lon="2.4256267"><ele>686.5</ele><time>2026-04-26T04:55:07.727Z</time></trkpt><trkpt lat="42.9252917" lon="2.42571"><ele>690.25</ele><time>2026-04-26T04:55:08.729Z</time></trkpt><trkpt lat="42.9251767" lon="2.4258217"><ele>694.0</ele><time>2026-04-26T04:55:09.728Z</time></trkpt><trkpt lat="42.9250633" lon="2.42595"><ele>693.25</ele><time>2026-04-26T04:55:10.728Z</time></trkpt><trkpt lat="42.924945" lon="2.4260783"><ele>692.5</ele><time>2026-04-26T04:55:11.728Z</time></trkpt><trkpt lat="42.9248217" lon="2.4261967"><ele>691.75</ele><time>2026-04-26T04:55:12.727Z</time></trkpt><trkpt lat="42.9247033" lon="2.4263083"><ele>691.0</ele><time>2026-04-26T04:55:13.727Z</time></trkpt><trkpt lat="42.9245883" lon="2.4264283"><ele>693.25</ele><time>2026-04-26T04:55:14.728Z</time></trkpt><trkpt lat="42.92448" lon="2.42655"><ele>695.5</ele><time>2026-04-26T04:55:15.727Z</time></trkpt><trkpt lat="42.924375" lon="2.4266667"><ele>697.75</ele><time>2026-04-26T04:55:16.731Z</time></trkpt><trkpt lat="42.924275" lon="2.426765"><ele>700.0</ele><time>2026-04-26T04:55:17.727Z</time></trkpt><trkpt lat="42.9241783" lon="2.4268367"><ele>700.0</ele><time>2026-04-26T04:55:18.729Z</time></trkpt><trkpt lat="42.9240717" lon="2.4268733"><ele>700.0</ele><time>2026-04-26T04:55:19.728Z</time></trkpt><trkpt lat="42.923955" lon="2.4268817"><ele>700.0</ele><time>2026-04-26T04:55:20.73Z</time></trkpt><trkpt lat="42.9238483" lon="2.4268633"><ele>700.0</ele><time>2026-04-26T04:55:21.727Z</time></trkpt><trkpt lat="42.923755" lon="2.4268517"><ele>700.0</ele><time>2026-04-26T04:55:22.729Z</time></trkpt><trkpt lat="42.92367" lon="2.426855"><ele>700.0</ele><time>2026-04-26T04:55:23.727Z</time></trkpt><trkpt lat="42.923585" lon="2.426875"><ele>700.0</ele><time>2026-04-26T04:55:24.727Z</time></trkpt><trkpt lat="42.9235033" lon="2.4269117"><ele>700.0</ele><time>2026-04-26T04:55:25.727Z</time></trkpt><trkpt lat="42.9234283" lon="2.4269717"><ele>700.0</ele><time>2026-04-26T04:55:26.728Z</time></trkpt><trkpt lat="42.9233733" lon="2.427085"><ele>700.0</ele><time>2026-04-26T04:55:27.727Z</time></trkpt><trkpt lat="42.92331" lon="2.427185"><ele>702.2</ele><time>2026-04-26T04:55:28.728Z</time></trkpt><trkpt lat="42.923245" lon="2.4272883"><ele>704.4</ele><time>2026-04-26T04:55:29.729Z</time></trkpt><trkpt lat="42.9231717" lon="2.4274033"><ele>706.5999999999999</ele><time>2026-04-26T04:55:30.729Z</time></trkpt><trkpt lat="42.9230983" lon="2.4275283"><ele>708.8</ele><time>2026-04-26T04:55:31.727Z</time></trkpt><trkpt lat="42.9230117" lon="2.4276133"><ele>711.0</ele><time>2026-04-26T04:55:32.729Z</time></trkpt><trkpt lat="42.9229183" lon="2.4276733"><ele>711.0</ele><time>2026-04-26T04:55:33.727Z</time></trkpt><trkpt lat="42.9228133" lon="2.4277033"><ele>711.0</ele><time>2026-04-26T04:55:34.73Z</time></trkpt><trkpt lat="42.92269" lon="2.4277167"><ele>711.0</ele><time>2026-04-26T04:55:35.727Z</time></trkpt><trkpt lat="42.922565" lon="2.4277267"><ele>711.0</ele><time>2026-04-26T04:55:36.728Z</time></trkpt><trkpt lat="42.9224383" lon="2.42774"><ele>708.0</ele><time>2026-04-26T04:55:37.727Z</time></trkpt><trkpt lat="42.9223183" lon="2.42776"><ele>705.0</ele><time>2026-04-26T04:55:38.728Z</time></trkpt><trkpt lat="42.9222017" lon="2.4277983"><ele>702.0</ele><time>2026-04-26T04:55:39.727Z</time></trkpt><trkpt lat="42.922095" lon="2.4278533"><ele>699.0</ele><time>2026-04-26T04:55:40.728Z</time></trkpt><trkpt lat="42.9219967" lon="2.427945"><ele>700.5</ele><time>2026-04-26T04:55:41.729Z</time></trkpt><trkpt lat="42.9218983" lon="2.428055"><ele>702.0</ele><time>2026-04-26T04:55:42.728Z</time></trkpt><trkpt lat="42.9217983" lon="2.4281667"><ele>703.5</ele><time>2026-04-26T04:55:43.729Z</time></trkpt><trkpt lat="42.9216817" lon="2.4282867"><ele>705.0</ele><time>2026-04-26T04:55:44.728Z</time></trkpt><trkpt lat="42.92155" lon="2.4283883"><ele>705.0</ele><time>2026-04-26T04:55:45.728Z</time></trkpt><trkpt lat="42.9214233" lon="2.4284817"><ele>705.0</ele><time>2026-04-26T04:55:46.729Z</time></trkpt><trkpt lat="42.9213133" lon="2.4285767"><ele>705.0</ele><time>2026-04-26T04:55:47.728Z</time></trkpt><trkpt lat="42.921215" lon="2.4287"><ele>705.0</ele><time>2026-04-26T04:55:48.728Z</time></trkpt><trkpt lat="42.9211183" lon="2.4288433"><ele>704.0</ele><time>2026-04-26T04:55:49.728Z</time></trkpt><trkpt lat="42.921025" lon="2.4289883"><ele>703.0</ele><time>2026-04-26T04:55:50.73Z</time></trkpt><trkpt lat="42.9209317" lon="2.4291267"><ele>702.0</ele><time>2026-04-26T04:55:51.727Z</time></trkpt><trkpt lat="42.9208467" lon="2.429245"><ele>701.0</ele><time>2026-04-26T04:55:52.726Z</time></trkpt><trkpt lat="42.9207683" lon="2.429345"><ele>704.0</ele><time>2026-04-26T04:55:53.728Z</time></trkpt><trkpt lat="42.9206833" lon="2.4294233"><ele>707.0</ele><time>2026-04-26T04:55:54.727Z</time></trkpt><trkpt lat="42.9205867" lon="2.42948"><ele>710.0</ele><time>2026-04-26T04:55:55.728Z</time></trkpt><trkpt lat="42.9204717" lon="2.4295117"><ele>713.0</ele><time>2026-04-26T04:55:56.731Z</time></trkpt><trkpt lat="42.920345" lon="2.429535"><ele>713.0</ele><time>2026-04-26T04:55:57.728Z</time></trkpt><trkpt lat="42.9202133" lon="2.42957"><ele>713.0</ele><time>2026-04-26T04:55:58.727Z</time></trkpt><trkpt lat="42.9200767" lon="2.4296083"><ele>713.0</ele><time>2026-04-26T04:55:59.729Z</time></trkpt><trkpt lat="42.9199367" lon="2.4296483"><ele>713.0</ele><time>2026-04-26T04:56:00.731Z</time></trkpt><trkpt lat="42.9197917" lon="2.4296867"><ele>721.75</ele><time>2026-04-26T04:56:01.73Z</time></trkpt><trkpt lat="42.9196483" lon="2.429725"><ele>730.5</ele><time>2026-04-26T04:56:02.728Z</time></trkpt><trkpt lat="42.9195" lon="2.4297517"><ele>739.25</ele><time>2026-04-26T04:56:03.73Z</time></trkpt><trkpt lat="42.9193467" lon="2.4297567"><ele>748.0</ele><time>2026-04-26T04:56:04.727Z</time></trkpt><trkpt lat="42.9192" lon="2.4297567"><ele>749.0</ele><time>2026-04-26T04:56:05.73Z</time></trkpt><trkpt lat="42.919055" lon="2.429745"><ele>750.0</ele><time>2026-04-26T04:56:06.728Z</time></trkpt><trkpt lat="42.9189117" lon="2.42973"><ele>751.0</ele><time>2026-04-26T04:56:07.728Z</time></trkpt><trkpt lat="42.918775" lon="2.4297217"><ele>752.0</ele><time>2026-04-26T04:56:08.728Z</time></trkpt><trkpt lat="42.918655" lon="2.4297167"><ele>752.0</ele><time>2026-04-26T04:56:09.727Z</time></trkpt><trkpt lat="42.9185567" lon="2.4297217"><ele>752.0</ele><time>2026-04-26T04:56:10.731Z</time></trkpt><trkpt lat="42.9184767" lon="2.4297167"><ele>752.0</ele><time>2026-04-26T04:56:11.729Z</time></trkpt><trkpt lat="42.91841" lon="2.4296967"><ele>752.0</ele><time>2026-04-26T04:56:12.73Z</time></trkpt><trkpt lat="42.9183617" lon="2.4295683"><ele>752.0</ele><time>2026-04-26T04:56:14.73Z</time></trkpt><trkpt lat="42.9184267" lon="2.429435"><ele>745.0</ele><time>2026-04-26T04:56:15.733Z</time></trkpt><trkpt lat="42.918485" lon="2.4292583"><ele>738.0</ele><time>2026-04-26T04:56:16.729Z</time></trkpt><trkpt lat="42.9185267" lon="2.4290833"><ele>731.0</ele><time>2026-04-26T04:56:17.729Z</time></trkpt><trkpt lat="42.9185667" lon="2.4288967"><ele>724.0</ele><time>2026-04-26T04:56:18.73Z</time></trkpt><trkpt lat="42.9185933" lon="2.4287017"><ele>723.75</ele><time>2026-04-26T04:56:19.729Z</time></trkpt><trkpt lat="42.9186083" lon="2.4285067"><ele>723.5</ele><time>2026-04-26T04:56:20.73Z</time></trkpt><trkpt lat="42.9186217" lon="2.4283233"><ele>723.25</ele><time>2026-04-26T04:56:21.729Z</time></trkpt><trkpt lat="42.9186383" lon="2.4281583"><ele>723.0</ele><time>2026-04-26T04:56:22.728Z</time></trkpt><trkpt lat="42.9186583" lon="2.4279883"><ele>723.2</ele><time>2026-04-26T04:56:23.732Z</time></trkpt><trkpt lat="42.9186633" lon="2.42783"><ele>723.4</ele><time>2026-04-26T04:56:24.728Z</time></trkpt><trkpt lat="42.9186483" lon="2.4276883"><ele>723.6</ele><time>2026-04-26T04:56:25.729Z</time></trkpt><trkpt lat="42.9186083" lon="2.427565"><ele>723.8000000000001</ele><time>2026-04-26T04:56:26.729Z</time></trkpt><trkpt lat="42.9185533" lon="2.4274567"><ele>724.0</ele><time>2026-04-26T04:56:27.728Z</time></trkpt><trkpt lat="42.9184783" lon="2.4273533"><ele>731.0</ele><time>2026-04-26T04:56:28.73Z</time></trkpt><trkpt lat="42.918385" lon="2.42725"><ele>738.0</ele><time>2026-04-26T04:56:29.729Z</time></trkpt><trkpt lat="42.9182933" lon="2.427135"><ele>745.0</ele><time>2026-04-26T04:56:30.729Z</time></trkpt><trkpt lat="42.9182117" lon="2.4270217"><ele>752.0</ele><time>2026-04-26T04:56:31.733Z</time></trkpt><trkpt lat="42.91814" lon="2.4268917"><ele>752.0</ele><time>2026-04-26T04:56:32.731Z</time></trkpt><trkpt lat="42.918085" lon="2.4267467"><ele>752.0</ele><time>2026-04-26T04:56:33.727Z</time></trkpt><trkpt lat="42.918045" lon="2.4265883"><ele>752.0</ele><time>2026-04-26T04:56:34.729Z</time></trkpt><trkpt lat="42.918015" lon="2.4264233"><ele>752.0</ele><time>2026-04-26T04:56:35.728Z</time></trkpt><trkpt lat="42.9180117" lon="2.4262583"><ele>753.0</ele><time>2026-04-26T04:56:36.73Z</time></trkpt><trkpt lat="42.9180217" lon="2.4260867"><ele>754.0</ele><time>2026-04-26T04:56:37.729Z</time></trkpt><trkpt lat="42.9180383" lon="2.425915"><ele>755.0</ele><time>2026-04-26T04:56:38.73Z</time></trkpt><trkpt lat="42.91807" lon="2.42575"><ele>756.0</ele><time>2026-04-26T04:56:39.729Z</time></trkpt><trkpt lat="42.918115" lon="2.4255967"><ele>757.5</ele><time>2026-04-26T04:56:40.728Z</time></trkpt><trkpt lat="42.9181583" lon="2.42544"><ele>759.0</ele><time>2026-04-26T04:56:41.728Z</time></trkpt><trkpt lat="42.9182033" lon="2.425285"><ele>760.5</ele><time>2026-04-26T04:56:42.731Z</time></trkpt><trkpt lat="42.91825" lon="2.4251217"><ele>762.0</ele><time>2026-04-26T04:56:43.73Z</time></trkpt><trkpt lat="42.9183" lon="2.424985"><ele>762.0</ele><time>2026-04-26T04:56:44.73Z</time></trkpt><trkpt lat="42.9183417" lon="2.424875"><ele>762.0</ele><time>2026-04-26T04:56:45.728Z</time></trkpt><trkpt lat="42.9183733" lon="2.4247633"><ele>762.0</ele><time>2026-04-26T04:56:46.728Z</time></trkpt><trkpt lat="42.9183917" lon="2.42464"><ele>762.0</ele><time>2026-04-26T04:56:47.73Z</time></trkpt><trkpt lat="42.9183967" lon="2.424515"><ele>762.0</ele><time>2026-04-26T04:56:48.728Z</time></trkpt><trkpt lat="42.9183917" lon="2.424395"><ele>762.2</ele><time>2026-04-26T04:56:49.727Z</time></trkpt><trkpt lat="42.91839" lon="2.4242717"><ele>762.4000000000001</ele><time>2026-04-26T04:56:50.729Z</time></trkpt><trkpt lat="42.9183917" lon="2.4241267"><ele>762.5999999999999</ele><time>2026-04-26T04:56:51.729Z</time></trkpt><trkpt lat="42.9184017" lon="2.4239733"><ele>762.8</ele><time>2026-04-26T04:56:52.728Z</time></trkpt><trkpt lat="42.9184133" lon="2.4238067"><ele>763.0</ele><time>2026-04-26T04:56:53.73Z</time></trkpt><trkpt lat="42.918425" lon="2.4236317"><ele>761.75</ele><time>2026-04-26T04:56:54.728Z</time></trkpt><trkpt lat="42.918435" lon="2.42346"><ele>760.5</ele><time>2026-04-26T04:56:55.728Z</time></trkpt><trkpt lat="42.9184433" lon="2.4233017"><ele>759.25</ele><time>2026-04-26T04:56:56.729Z</time></trkpt><trkpt lat="42.9184533" lon="2.423155"><ele>758.0</ele><time>2026-04-26T04:56:57.729Z</time></trkpt><trkpt lat="42.91846" lon="2.4230167"><ele>757.5999999999999</ele><time>2026-04-26T04:56:58.728Z</time></trkpt><trkpt lat="42.918455" lon="2.4228817"><ele>757.1999999999999</ele><time>2026-04-26T04:56:59.728Z</time></trkpt><trkpt lat="42.9184317" lon="2.422745"><ele>756.8</ele><time>2026-04-26T04:57:00.728Z</time></trkpt><trkpt lat="42.9183817" lon="2.4226033"><ele>756.4</ele><time>2026-04-26T04:57:01.728Z</time></trkpt><trkpt lat="42.9183217" lon="2.4224567"><ele>756.0</ele><time>2026-04-26T04:57:02.73Z</time></trkpt><trkpt lat="42.918255" lon="2.422305"><ele>756.0</ele><time>2026-04-26T04:57:03.728Z</time></trkpt><trkpt lat="42.9181833" lon="2.42215"><ele>756.0</ele><time>2026-04-26T04:57:04.729Z</time></trkpt><trkpt lat="42.9181033" lon="2.4219933"><ele>756.0</ele><time>2026-04-26T04:57:05.727Z</time></trkpt><trkpt lat="42.9180217" lon="2.421835"><ele>756.0</ele><time>2026-04-26T04:57:06.728Z</time></trkpt><trkpt lat="42.9179367" lon="2.42168"><ele>757.0</ele><time>2026-04-26T04:57:07.728Z</time></trkpt><trkpt lat="42.9178483" lon="2.4215383"><ele>758.0</ele><time>2026-04-26T04:57:08.728Z</time></trkpt><trkpt lat="42.9177633" lon="2.4214017"><ele>759.0</ele><time>2026-04-26T04:57:09.729Z</time></trkpt><trkpt lat="42.9176917" lon="2.4212967"><ele>760.0</ele><time>2026-04-26T04:57:10.73Z</time></trkpt><trkpt lat="42.9176283" lon="2.4212133"><ele>760.1666666666667</ele><time>2026-04-26T04:57:11.728Z</time></trkpt><trkpt lat="42.9175617" lon="2.4211567"><ele>760.3333333333334</ele><time>2026-04-26T04:57:12.729Z</time></trkpt><trkpt lat="42.917495" lon="2.421165"><ele>760.5</ele><time>2026-04-26T04:57:13.727Z</time></trkpt><trkpt lat="42.9174283" lon="2.4212033"><ele>760.6666666666666</ele><time>2026-04-26T04:57:14.73Z</time></trkpt><trkpt lat="42.91736" lon="2.4212583"><ele>760.8333333333333</ele><time>2026-04-26T04:57:15.728Z</time></trkpt><trkpt lat="42.917285" lon="2.4213117"><ele>761.0</ele><time>2026-04-26T04:57:16.728Z</time></trkpt><trkpt lat="42.9172083" lon="2.4213517"><ele>761.0</ele><time>2026-04-26T04:57:17.729Z</time></trkpt><trkpt lat="42.9171283" lon="2.421355"><ele>761.0</ele><time>2026-04-26T04:57:18.731Z</time></trkpt><trkpt lat="42.91705" lon="2.4213233"><ele>761.0</ele><time>2026-04-26T04:57:19.732Z</time></trkpt><trkpt lat="42.9169817" lon="2.4212483"><ele>761.0</ele><time>2026-04-26T04:57:20.728Z</time></trkpt><trkpt lat="42.91692" lon="2.4211367"><ele>761.0</ele><time>2026-04-26T04:57:21.728Z</time></trkpt><trkpt lat="42.916865" lon="2.4210017"><ele>761.0</ele><time>2026-04-26T04:57:22.728Z</time></trkpt><trkpt lat="42.9168233" lon="2.420855"><ele>761.0</ele><time>2026-04-26T04:57:23.728Z</time></trkpt><trkpt lat="42.9167833" lon="2.4207"><ele>761.0</ele><time>2026-04-26T04:57:24.728Z</time></trkpt><trkpt lat="42.9167467" lon="2.4205417"><ele>761.0</ele><time>2026-04-26T04:57:25.728Z</time></trkpt><trkpt lat="42.9167133" lon="2.4203883"><ele>760.8</ele><time>2026-04-26T04:57:26.732Z</time></trkpt><trkpt lat="42.9166783" lon="2.4202433"><ele>760.5999999999999</ele><time>2026-04-26T04:57:27.728Z</time></trkpt><trkpt lat="42.9166333" lon="2.4201233"><ele>760.4</ele><time>2026-04-26T04:57:28.728Z</time></trkpt><trkpt lat="42.9165767" lon="2.4200317"><ele>760.2</ele><time>2026-04-26T04:57:29.728Z</time></trkpt><trkpt lat="42.9165117" lon="2.4199617"><ele>760.0</ele><time>2026-04-26T04:57:30.729Z</time></trkpt><trkpt lat="42.916435" lon="2.4199517"><ele>760.0</ele><time>2026-04-26T04:57:31.727Z</time></trkpt><trkpt lat="42.9163483" lon="2.419985"><ele>760.0</ele><time>2026-04-26T04:57:32.73Z</time></trkpt><trkpt lat="42.916255" lon="2.4200617"><ele>760.0</ele><time>2026-04-26T04:57:33.728Z</time></trkpt><trkpt lat="42.9161617" lon="2.4201567"><ele>760.0</ele><time>2026-04-26T04:57:34.728Z</time></trkpt><trkpt lat="42.91606" lon="2.420245"><ele>760.0</ele><time>2026-04-26T04:57:35.728Z</time></trkpt><trkpt lat="42.9159583" lon="2.4203383"><ele>760.0</ele><time>2026-04-26T04:57:36.728Z</time></trkpt><trkpt lat="42.9158533" lon="2.4204383"><ele>760.0</ele><time>2026-04-26T04:57:37.727Z</time></trkpt><trkpt lat="42.9157417" lon="2.42054"><ele>760.0</ele><time>2026-04-26T04:57:38.729Z</time></trkpt><trkpt lat="42.9156267" lon="2.4206217"><ele>760.0</ele><time>2026-04-26T04:57:39.727Z</time></trkpt><trkpt lat="42.91551" lon="2.4206767"><ele>760.0</ele><time>2026-04-26T04:57:40.728Z</time></trkpt><trkpt lat="42.91539" lon="2.420695"><ele>760.0</ele><time>2026-04-26T04:57:41.728Z</time></trkpt><trkpt lat="42.9152667" lon="2.420705"><ele>760.0</ele><time>2026-04-26T04:57:42.728Z</time></trkpt><trkpt lat="42.9151467" lon="2.420715"><ele>760.0</ele><time>2026-04-26T04:57:43.727Z</time></trkpt><trkpt lat="42.9150233" lon="2.4207367"><ele>760.0</ele><time>2026-04-26T04:57:44.728Z</time></trkpt><trkpt lat="42.9148983" lon="2.4207683"><ele>760.0</ele><time>2026-04-26T04:57:45.73Z</time></trkpt><trkpt lat="42.91477" lon="2.4208067"><ele>760.0</ele><time>2026-04-26T04:57:46.729Z</time></trkpt><trkpt lat="42.91465" lon="2.4208533"><ele>760.0</ele><time>2026-04-26T04:57:47.729Z</time></trkpt><trkpt lat="42.9145383" lon="2.4209017"><ele>760.0</ele><time>2026-04-26T04:57:48.73Z</time></trkpt><trkpt lat="42.9144383" lon="2.4209633"><ele>760.0</ele><time>2026-04-26T04:57:49.729Z</time></trkpt><trkpt lat="42.9143533" lon="2.4210333"><ele>760.0</ele><time>2026-04-26T04:57:50.728Z</time></trkpt><trkpt lat="42.91428" lon="2.4211167"><ele>760.0</ele><time>2026-04-26T04:57:51.729Z</time></trkpt><trkpt lat="42.91421" lon="2.4212283"><ele>760.0</ele><time>2026-04-26T04:57:52.728Z</time></trkpt><trkpt lat="42.91414" lon="2.4213567"><ele>761.25</ele><time>2026-04-26T04:57:53.731Z</time></trkpt><trkpt lat="42.914065" lon="2.4215"><ele>762.5</ele><time>2026-04-26T04:57:54.729Z</time></trkpt><trkpt lat="42.9139883" lon="2.4216367"><ele>763.75</ele><time>2026-04-26T04:57:55.729Z</time></trkpt><trkpt lat="42.9139083" lon="2.42178"><ele>765.0</ele><time>2026-04-26T04:57:56.729Z</time></trkpt><trkpt lat="42.9138317" lon="2.4219033"><ele>765.0</ele><time>2026-04-26T04:57:57.73Z</time></trkpt><trkpt lat="42.91375" lon="2.4220433"><ele>765.0</ele><time>2026-04-26T04:57:58.728Z</time></trkpt><trkpt lat="42.91367" lon="2.4221983"><ele>765.0</ele><time>2026-04-26T04:57:59.732Z</time></trkpt><trkpt lat="42.9135883" lon="2.4223567"><ele>765.0</ele><time>2026-04-26T04:58:00.728Z</time></trkpt><trkpt lat="42.913515" lon="2.4225117"><ele>763.5</ele><time>2026-04-26T04:58:01.73Z</time></trkpt><trkpt lat="42.9134433" lon="2.422665"><ele>762.0</ele><time>2026-04-26T04:58:02.732Z</time></trkpt><trkpt lat="42.913375" lon="2.4228117"><ele>760.5</ele><time>2026-04-26T04:58:03.729Z</time></trkpt><trkpt lat="42.9132917" lon="2.4229533"><ele>759.0</ele><time>2026-04-26T04:58:04.732Z</time></trkpt><trkpt lat="42.91321" lon="2.423085"><ele>757.25</ele><time>2026-04-26T04:58:05.729Z</time></trkpt><trkpt lat="42.9131267" lon="2.4232333"><ele>755.5</ele><time>2026-04-26T04:58:06.73Z</time></trkpt><trkpt lat="42.91305" lon="2.42339"><ele>753.75</ele><time>2026-04-26T04:58:07.728Z</time></trkpt><trkpt lat="42.912985" lon="2.4235483"><ele>752.0</ele><time>2026-04-26T04:58:08.73Z</time></trkpt><trkpt lat="42.9129317" lon="2.4237067"><ele>749.5</ele><time>2026-04-26T04:58:09.731Z</time></trkpt><trkpt lat="42.9128717" lon="2.4238583"><ele>747.0</ele><time>2026-04-26T04:58:10.733Z</time></trkpt><trkpt lat="42.9127917" lon="2.4239967"><ele>744.5</ele><time>2026-04-26T04:58:11.728Z</time></trkpt><trkpt lat="42.9127067" lon="2.4241283"><ele>742.0</ele><time>2026-04-26T04:58:12.73Z</time></trkpt><trkpt lat="42.9126167" lon="2.4242633"><ele>743.0</ele><time>2026-04-26T04:58:13.728Z</time></trkpt><trkpt lat="42.9125333" lon="2.4243883"><ele>744.0</ele><time>2026-04-26T04:58:14.731Z</time></trkpt><trkpt lat="42.91246" lon="2.4245083"><ele>745.0</ele><time>2026-04-26T04:58:15.728Z</time></trkpt><trkpt lat="42.9123867" lon="2.42458"><ele>746.0</ele><time>2026-04-26T04:58:16.731Z</time></trkpt><trkpt lat="42.912305" lon="2.4246467"><ele>747.0</ele><time>2026-04-26T04:58:17.728Z</time></trkpt><trkpt lat="42.9122133" lon="2.4247133"><ele>744.0</ele><time>2026-04-26T04:58:18.729Z</time></trkpt><trkpt lat="42.9121067" lon="2.4247883"><ele>741.0</ele><time>2026-04-26T04:58:19.729Z</time></trkpt><trkpt lat="42.9119917" lon="2.4248633"><ele>738.0</ele><time>2026-04-26T04:58:20.729Z</time></trkpt><trkpt lat="42.91187" lon="2.42493"><ele>735.0</ele><time>2026-04-26T04:58:21.731Z</time></trkpt><trkpt lat="42.9117483" lon="2.4250083"><ele>733.5</ele><time>2026-04-26T04:58:22.728Z</time></trkpt><trkpt lat="42.91163" lon="2.4250883"><ele>732.0</ele><time>2026-04-26T04:58:23.729Z</time></trkpt><trkpt lat="42.9115083" lon="2.4251667"><ele>730.5</ele><time>2026-04-26T04:58:24.728Z</time></trkpt><trkpt lat="42.9113783" lon="2.4252433"><ele>729.0</ele><time>2026-04-26T04:58:25.729Z</time></trkpt><trkpt lat="42.911245" lon="2.4253167"><ele>729.0</ele><time>2026-04-26T04:58:26.73Z</time></trkpt><trkpt lat="42.9111133" lon="2.4253817"><ele>729.0</ele><time>2026-04-26T04:58:27.73Z</time></trkpt><trkpt lat="42.9109767" lon="2.4254317"><ele>729.0</ele><time>2026-04-26T04:58:28.728Z</time></trkpt><trkpt lat="42.910845" lon="2.42548"><ele>729.0</ele><time>2026-04-26T04:58:29.728Z</time></trkpt><trkpt lat="42.91071" lon="2.425545"><ele>724.75</ele><time>2026-04-26T04:58:30.729Z</time></trkpt><trkpt lat="42.9105883" lon="2.4256183"><ele>720.5</ele><time>2026-04-26T04:58:31.728Z</time></trkpt><trkpt lat="42.9104867" lon="2.4257"><ele>716.25</ele><time>2026-04-26T04:58:32.729Z</time></trkpt><trkpt lat="42.9104033" lon="2.4258"><ele>712.0</ele><time>2026-04-26T04:58:33.733Z</time></trkpt><trkpt lat="42.9103367" lon="2.4259083"><ele>712.0</ele><time>2026-04-26T04:58:34.729Z</time></trkpt><trkpt lat="42.91029" lon="2.4260383"><ele>712.0</ele><time>2026-04-26T04:58:35.727Z</time></trkpt><trkpt lat="42.9102433" lon="2.426175"><ele>712.0</ele><time>2026-04-26T04:58:36.729Z</time></trkpt><trkpt lat="42.9101933" lon="2.42631"><ele>712.0</ele><time>2026-04-26T04:58:37.727Z</time></trkpt><trkpt lat="42.9101433" lon="2.4264383"><ele>712.0</ele><time>2026-04-26T04:58:38.729Z</time></trkpt><trkpt lat="42.91008" lon="2.426555"><ele>711.1666666666667</ele><time>2026-04-26T04:58:39.729Z</time></trkpt><trkpt lat="42.9100133" lon="2.426665"><ele>710.3333333333334</ele><time>2026-04-26T04:58:40.729Z</time></trkpt><trkpt lat="42.9099433" lon="2.4267617"><ele>709.5</ele><time>2026-04-26T04:58:41.727Z</time></trkpt><trkpt lat="42.9098767" lon="2.426845"><ele>708.6666666666666</ele><time>2026-04-26T04:58:42.728Z</time></trkpt><trkpt lat="42.909815" lon="2.426915"><ele>707.8333333333333</ele><time>2026-04-26T04:58:43.728Z</time></trkpt><trkpt lat="42.9097533" lon="2.4269617"><ele>707.0</ele><time>2026-04-26T04:58:44.728Z</time></trkpt><trkpt lat="42.9096867" lon="2.4269583"><ele>707.0</ele><time>2026-04-26T04:58:45.727Z</time></trkpt><trkpt lat="42.909625" lon="2.4269017"><ele>707.0</ele><time>2026-04-26T04:58:46.728Z</time></trkpt><trkpt lat="42.9095733" lon="2.426825"><ele>707.0</ele><time>2026-04-26T04:58:47.731Z</time></trkpt><trkpt lat="42.9095183" lon="2.4267367"><ele>707.0</ele><time>2026-04-26T04:58:48.729Z</time></trkpt><trkpt lat="42.9094633" lon="2.4266417"><ele>707.0</ele><time>2026-04-26T04:58:49.729Z</time></trkpt><trkpt lat="42.9094083" lon="2.426545"><ele>707.0</ele><time>2026-04-26T04:58:50.73Z</time></trkpt><trkpt lat="42.90935" lon="2.4264517"><ele>707.0</ele><time>2026-04-26T04:58:51.729Z</time></trkpt><trkpt lat="42.909285" lon="2.4263617"><ele>707.0</ele><time>2026-04-26T04:58:52.729Z</time></trkpt><trkpt lat="42.9092133" lon="2.42628"><ele>707.0</ele><time>2026-04-26T04:58:53.731Z</time></trkpt><trkpt lat="42.9091267" lon="2.4262183"><ele>707.0</ele><time>2026-04-26T04:58:54.729Z</time></trkpt><trkpt lat="42.9090333" lon="2.4261683"><ele>707.0</ele><time>2026-04-26T04:58:55.728Z</time></trkpt><trkpt lat="42.9089333" lon="2.42612"><ele>704.2</ele><time>2026-04-26T04:58:56.729Z</time></trkpt><trkpt lat="42.9088317" lon="2.4260617"><ele>701.4000000000001</ele><time>2026-04-26T04:58:57.729Z</time></trkpt><trkpt lat="42.9087267" lon="2.4260117"><ele>698.5999999999999</ele><time>2026-04-26T04:58:58.728Z</time></trkpt><trkpt lat="42.9086233" lon="2.4259633"><ele>695.8</ele><time>2026-04-26T04:58:59.729Z</time></trkpt><trkpt lat="42.9085167" lon="2.42592"><ele>693.0</ele><time>2026-04-26T04:59:00.728Z</time></trkpt><trkpt lat="42.90841" lon="2.4258783"><ele>690.8</ele><time>2026-04-26T04:59:01.728Z</time></trkpt><trkpt lat="42.9083083" lon="2.4258417"><ele>688.5999999999999</ele><time>2026-04-26T04:59:02.728Z</time></trkpt><trkpt lat="42.9082033" lon="2.4258167"><ele>686.4000000000001</ele><time>2026-04-26T04:59:03.728Z</time></trkpt><trkpt lat="42.9081" lon="2.4258133"><ele>684.2</ele><time>2026-04-26T04:59:04.728Z</time></trkpt><trkpt lat="42.908005" lon="2.4258283"><ele>682.0</ele><time>2026-04-26T04:59:05.729Z</time></trkpt><trkpt lat="42.90792" lon="2.425855"><ele>682.0</ele><time>2026-04-26T04:59:06.728Z</time></trkpt><trkpt lat="42.907845" lon="2.4258683"><ele>682.0</ele><time>2026-04-26T04:59:07.727Z</time></trkpt><trkpt lat="42.90778" lon="2.4258617"><ele>682.0</ele><time>2026-04-26T04:59:08.729Z</time></trkpt><trkpt lat="42.9076917" lon="2.425765"><ele>682.0</ele><time>2026-04-26T04:59:10.728Z</time></trkpt><trkpt lat="42.9076633" lon="2.42568"><ele>682.0</ele><time>2026-04-26T04:59:11.729Z</time></trkpt><trkpt lat="42.9076533" lon="2.4255817"><ele>682.0</ele><time>2026-04-26T04:59:12.73Z</time></trkpt><trkpt lat="42.907645" lon="2.425465"><ele>681.2</ele><time>2026-04-26T04:59:13.727Z</time></trkpt><trkpt lat="42.9076317" lon="2.4253333"><ele>680.4000000000001</ele><time>2026-04-26T04:59:14.728Z</time></trkpt><trkpt lat="42.907615" lon="2.4251933"><ele>679.5999999999999</ele><time>2026-04-26T04:59:15.728Z</time></trkpt><trkpt lat="42.9075983" lon="2.4250583"><ele>678.8</ele><time>2026-04-26T04:59:16.73Z</time></trkpt><trkpt lat="42.9075817" lon="2.4249383"><ele>678.0</ele><time>2026-04-26T04:59:17.729Z</time></trkpt><trkpt lat="42.9075733" lon="2.4248367"><ele>678.4</ele><time>2026-04-26T04:59:18.728Z</time></trkpt><trkpt lat="42.907565" lon="2.4247467"><ele>678.8</ele><time>2026-04-26T04:59:19.728Z</time></trkpt><trkpt lat="42.907535" lon="2.4246067"><ele>679.2</ele><time>2026-04-26T04:59:21.728Z</time></trkpt><trkpt lat="42.9074933" lon="2.4244817"><ele>679.6</ele><time>2026-04-26T04:59:23.729Z</time></trkpt><trkpt lat="42.9074433" lon="2.4243633"><ele>680.0</ele><time>2026-04-26T04:59:25.727Z</time></trkpt><trkpt lat="42.9073867" lon="2.4242467"><ele>680.0</ele><time>2026-04-26T04:59:27.727Z</time></trkpt><trkpt lat="42.9073367" lon="2.4241233"><ele>680.0</ele><time>2026-04-26T04:59:29.729Z</time></trkpt><trkpt lat="42.9073" lon="2.4240217"><ele>680.0</ele><time>2026-04-26T04:59:31.729Z</time></trkpt><trkpt lat="42.9072433" lon="2.4239067"><ele>680.0</ele><time>2026-04-26T04:59:33.729Z</time></trkpt><trkpt lat="42.90721" lon="2.423825"><ele>680.0</ele><time>2026-04-26T04:59:34.73Z</time></trkpt><trkpt lat="42.9071717" lon="2.42373"><ele>680.0</ele><time>2026-04-26T04:59:35.73Z</time></trkpt><trkpt lat="42.9071317" lon="2.42363"><ele>681.6</ele><time>2026-04-26T04:59:36.731Z</time></trkpt><trkpt lat="42.9070883" lon="2.4235283"><ele>683.2</ele><time>2026-04-26T04:59:37.729Z</time></trkpt><trkpt lat="42.9070417" lon="2.4234217"><ele>684.8</ele><time>2026-04-26T04:59:38.734Z</time></trkpt><trkpt lat="42.9069967" lon="2.423305"><ele>686.4</ele><time>2026-04-26T04:59:39.73Z</time></trkpt><trkpt lat="42.9069583" lon="2.42317"><ele>688.0</ele><time>2026-04-26T04:59:40.73Z</time></trkpt><trkpt lat="42.9069333" lon="2.4230167"><ele>689.75</ele><time>2026-04-26T04:59:41.73Z</time></trkpt><trkpt lat="42.9069217" lon="2.4228483"><ele>691.5</ele><time>2026-04-26T04:59:42.731Z</time></trkpt><trkpt lat="42.9069117" lon="2.4226717"><ele>693.25</ele><time>2026-04-26T04:59:43.731Z</time></trkpt><trkpt lat="42.9068967" lon="2.422485"><ele>695.0</ele><time>2026-04-26T04:59:44.729Z</time></trkpt><trkpt lat="42.906875" lon="2.4222933"><ele>697.25</ele><time>2026-04-26T04:59:45.728Z</time></trkpt><trkpt lat="42.9068467" lon="2.4221033"><ele>699.5</ele><time>2026-04-26T04:59:46.727Z</time></trkpt><trkpt lat="42.906815" lon="2.4219133"><ele>701.75</ele><time>2026-04-26T04:59:47.73Z</time></trkpt><trkpt lat="42.9067833" lon="2.4217283"><ele>704.0</ele><time>2026-04-26T04:59:48.73Z</time></trkpt><trkpt lat="42.9067617" lon="2.4215433"><ele>702.25</ele><time>2026-04-26T04:59:49.729Z</time></trkpt><trkpt lat="42.9067333" lon="2.4213583"><ele>700.5</ele><time>2026-04-26T04:59:50.731Z</time></trkpt><trkpt lat="42.9066967" lon="2.42118"><ele>698.75</ele><time>2026-04-26T04:59:51.731Z</time></trkpt><trkpt lat="42.9066317" lon="2.4210167"><ele>697.0</ele><time>2026-04-26T04:59:52.729Z</time></trkpt><trkpt lat="42.906545" lon="2.420875"><ele>697.0</ele><time>2026-04-26T04:59:53.73Z</time></trkpt><trkpt lat="42.9064517" lon="2.4207533"><ele>697.0</ele><time>2026-04-26T04:59:54.73Z</time></trkpt><trkpt lat="42.9063617" lon="2.4206417"><ele>697.0</ele><time>2026-04-26T04:59:55.728Z</time></trkpt><trkpt lat="42.9062783" lon="2.4205367"><ele>697.0</ele><time>2026-04-26T04:59:56.731Z</time></trkpt><trkpt lat="42.9062133" lon="2.420425"><ele>699.25</ele><time>2026-04-26T04:59:57.729Z</time></trkpt><trkpt lat="42.9061683" lon="2.4202917"><ele>701.5</ele><time>2026-04-26T04:59:58.73Z</time></trkpt><trkpt lat="42.90614" lon="2.4201417"><ele>703.75</ele><time>2026-04-26T04:59:59.731Z</time></trkpt><trkpt lat="42.9061183" lon="2.4199833"><ele>706.0</ele><time>2026-04-26T05:00:00.729Z</time></trkpt><trkpt lat="42.90611" lon="2.41982"><ele>706.75</ele><time>2026-04-26T05:00:01.73Z</time></trkpt><trkpt lat="42.9061233" lon="2.41965"><ele>707.5</ele><time>2026-04-26T05:00:02.734Z</time></trkpt><trkpt lat="42.90616" lon="2.4194783"><ele>708.25</ele><time>2026-04-26T05:00:03.729Z</time></trkpt><trkpt lat="42.906215" lon="2.41931"><ele>709.0</ele><time>2026-04-26T05:00:04.729Z</time></trkpt><trkpt lat="42.9062767" lon="2.4191467"><ele>709.0</ele><time>2026-04-26T05:00:05.73Z</time></trkpt><trkpt lat="42.906335" lon="2.4189917"><ele>709.0</ele><time>2026-04-26T05:00:06.729Z</time></trkpt><trkpt lat="42.9064" lon="2.4188517"><ele>709.0</ele><time>2026-04-26T05:00:07.731Z</time></trkpt><trkpt lat="42.9064767" lon="2.4187267"><ele>709.0</ele><time>2026-04-26T05:00:08.73Z</time></trkpt><trkpt lat="42.9065767" lon="2.4186383"><ele>709.25</ele><time>2026-04-26T05:00:09.734Z</time></trkpt><trkpt lat="42.906695" lon="2.4185967"><ele>709.5</ele><time>2026-04-26T05:00:10.73Z</time></trkpt><trkpt lat="42.906825" lon="2.418595"><ele>709.75</ele><time>2026-04-26T05:00:11.729Z</time></trkpt><trkpt lat="42.9069567" lon="2.4186083"><ele>710.0</ele><time>2026-04-26T05:00:12.728Z</time></trkpt><trkpt lat="42.9070883" lon="2.4186083"><ele>711.5</ele><time>2026-04-26T05:00:13.729Z</time></trkpt><trkpt lat="42.9072133" lon="2.418555"><ele>713.0</ele><time>2026-04-26T05:00:14.728Z</time></trkpt><trkpt lat="42.907315" lon="2.41844"><ele>714.5</ele><time>2026-04-26T05:00:15.728Z</time></trkpt><trkpt lat="42.9074" lon="2.41829"><ele>716.0</ele><time>2026-04-26T05:00:16.728Z</time></trkpt><trkpt lat="42.9074833" lon="2.4181283"><ele>716.5</ele><time>2026-04-26T05:00:17.73Z</time></trkpt><trkpt lat="42.9075683" lon="2.4179683"><ele>717.0</ele><time>2026-04-26T05:00:18.729Z</time></trkpt><trkpt lat="42.90765" lon="2.4178183"><ele>717.5</ele><time>2026-04-26T05:00:19.728Z</time></trkpt><trkpt lat="42.90772" lon="2.4176717"><ele>718.0</ele><time>2026-04-26T05:00:20.73Z</time></trkpt><trkpt lat="42.9077767" lon="2.4175267"><ele>718.75</ele><time>2026-04-26T05:00:21.728Z</time></trkpt><trkpt lat="42.9078017" lon="2.4173717"><ele>719.5</ele><time>2026-04-26T05:00:22.73Z</time></trkpt><trkpt lat="42.9077833" lon="2.4172183"><ele>720.25</ele><time>2026-04-26T05:00:23.728Z</time></trkpt><trkpt lat="42.907715" lon="2.4170817"><ele>721.0</ele><time>2026-04-26T05:00:24.728Z</time></trkpt><trkpt lat="42.907605" lon="2.4169783"><ele>722.3333333333334</ele><time>2026-04-26T05:00:25.73Z</time></trkpt><trkpt lat="42.907475" lon="2.4168933"><ele>723.6666666666666</ele><time>2026-04-26T05:00:26.729Z</time></trkpt><trkpt lat="42.9073383" lon="2.4168"><ele>725.0</ele><time>2026-04-26T05:00:27.727Z</time></trkpt><trkpt lat="42.9072" lon="2.41669"><ele>725.0</ele><time>2026-04-26T05:00:28.727Z</time></trkpt><trkpt lat="42.907065" lon="2.416575"><ele>725.0</ele><time>2026-04-26T05:00:29.728Z</time></trkpt><trkpt lat="42.9069317" lon="2.4164617"><ele>725.0</ele><time>2026-04-26T05:00:30.73Z</time></trkpt><trkpt lat="42.9067967" lon="2.4163533"><ele>727.0</ele><time>2026-04-26T05:00:31.728Z</time></trkpt><trkpt lat="42.9066517" lon="2.416265"><ele>729.0</ele><time>2026-04-26T05:00:32.728Z</time></trkpt><trkpt lat="42.9065017" lon="2.416215"><ele>731.0</ele><time>2026-04-26T05:00:33.728Z</time></trkpt><trkpt lat="42.90634" lon="2.4162283"><ele>731.0</ele><time>2026-04-26T05:00:34.728Z</time></trkpt><trkpt lat="42.9061817" lon="2.4162617"><ele>731.0</ele><time>2026-04-26T05:00:35.728Z</time></trkpt><trkpt lat="42.90602" lon="2.4163017"><ele>731.0</ele><time>2026-04-26T05:00:36.728Z</time></trkpt><trkpt lat="42.9058617" lon="2.4163383"><ele>728.3333333333333</ele><time>2026-04-26T05:00:37.728Z</time></trkpt><trkpt lat="42.9057067" lon="2.41637"><ele>725.6666666666666</ele><time>2026-04-26T05:00:38.729Z</time></trkpt><trkpt lat="42.9055533" lon="2.41638"><ele>723.0</ele><time>2026-04-26T05:00:39.728Z</time></trkpt><trkpt lat="42.9054067" lon="2.4163733"><ele>723.0</ele><time>2026-04-26T05:00:40.729Z</time></trkpt><trkpt lat="42.9052667" lon="2.416365"><ele>723.0</ele><time>2026-04-26T05:00:41.729Z</time></trkpt><trkpt lat="42.90514" lon="2.4163383"><ele>723.0</ele><time>2026-04-26T05:00:42.728Z</time></trkpt><trkpt lat="42.9050217" lon="2.4162717"><ele>723.0</ele><time>2026-04-26T05:00:43.727Z</time></trkpt><trkpt lat="42.9049117" lon="2.41616"><ele>725.0</ele><time>2026-04-26T05:00:44.73Z</time></trkpt><trkpt lat="42.9048083" lon="2.41603"><ele>727.0</ele><time>2026-04-26T05:00:45.728Z</time></trkpt><trkpt lat="42.90471" lon="2.4158767"><ele>729.0</ele><time>2026-04-26T05:00:46.727Z</time></trkpt><trkpt lat="42.9046017" lon="2.4157317"><ele>731.0</ele><time>2026-04-26T05:00:47.729Z</time></trkpt><trkpt lat="42.9044783" lon="2.41561"><ele>731.0</ele><time>2026-04-26T05:00:48.729Z</time></trkpt><trkpt lat="42.9043417" lon="2.4155217"><ele>731.0</ele><time>2026-04-26T05:00:49.729Z</time></trkpt><trkpt lat="42.9041917" lon="2.4154567"><ele>731.0</ele><time>2026-04-26T05:00:50.729Z</time></trkpt><trkpt lat="42.9040367" lon="2.41542"><ele>733.25</ele><time>2026-04-26T05:00:51.733Z</time></trkpt><trkpt lat="42.9038883" lon="2.4153983"><ele>735.5</ele><time>2026-04-26T05:00:52.73Z</time></trkpt><trkpt lat="42.90375" lon="2.4153667"><ele>737.75</ele><time>2026-04-26T05:00:53.732Z</time></trkpt><trkpt lat="42.9036233" lon="2.415305"><ele>740.0</ele><time>2026-04-26T05:00:54.73Z</time></trkpt><trkpt lat="42.9035083" lon="2.415205"><ele>738.75</ele><time>2026-04-26T05:00:55.729Z</time></trkpt><trkpt lat="42.9033933" lon="2.4150917"><ele>737.5</ele><time>2026-04-26T05:00:56.729Z</time></trkpt><trkpt lat="42.9032667" lon="2.4149833"><ele>736.25</ele><time>2026-04-26T05:00:57.731Z</time></trkpt><trkpt lat="42.90313" lon="2.4148967"><ele>735.0</ele><time>2026-04-26T05:00:58.728Z</time></trkpt><trkpt lat="42.903" lon="2.414825"><ele>735.0</ele><time>2026-04-26T05:00:59.73Z</time></trkpt><trkpt lat="42.902885" lon="2.414755"><ele>735.0</ele><time>2026-04-26T05:01:00.731Z</time></trkpt><trkpt lat="42.90278" lon="2.4146883"><ele>735.0</ele><time>2026-04-26T05:01:01.729Z</time></trkpt><trkpt lat="42.9026867" lon="2.4146283"><ele>735.0</ele><time>2026-04-26T05:01:02.73Z</time></trkpt><trkpt lat="42.902605" lon="2.4145633"><ele>735.0</ele><time>2026-04-26T05:01:03.73Z</time></trkpt><trkpt lat="42.9025333" lon="2.4144933"><ele>736.4</ele><time>2026-04-26T05:01:04.728Z</time></trkpt><trkpt lat="42.902475" lon="2.4144167"><ele>737.8</ele><time>2026-04-26T05:01:05.73Z</time></trkpt><trkpt lat="42.90242" lon="2.414335"><ele>739.2</ele><time>2026-04-26T05:01:06.728Z</time></trkpt><trkpt lat="42.9023583" lon="2.4142483"><ele>740.6</ele><time>2026-04-26T05:01:07.73Z</time></trkpt><trkpt lat="42.9022883" lon="2.414155"><ele>742.0</ele><time>2026-04-26T05:01:08.729Z</time></trkpt><trkpt lat="42.902215" lon="2.41406"><ele>742.0</ele><time>2026-04-26T05:01:09.728Z</time></trkpt><trkpt lat="42.902145" lon="2.4139683"><ele>742.0</ele><time>2026-04-26T05:01:10.73Z</time></trkpt><trkpt lat="42.9020967" lon="2.4138933"><ele>742.0</ele><time>2026-04-26T05:01:11.729Z</time></trkpt><trkpt lat="42.9020533" lon="2.4138217"><ele>742.0</ele><time>2026-04-26T05:01:12.727Z</time></trkpt><trkpt lat="42.902" lon="2.41374"><ele>742.0</ele><time>2026-04-26T05:01:13.728Z</time></trkpt><trkpt lat="42.9019083" lon="2.4136033"><ele>741.6666666666667</ele><time>2026-04-26T05:01:14.729Z</time></trkpt><trkpt lat="42.9017933" lon="2.4134667"><ele>741.3333333333334</ele><time>2026-04-26T05:01:15.73Z</time></trkpt><trkpt lat="42.9016833" lon="2.41333"><ele>741.0</ele><time>2026-04-26T05:01:16.729Z</time></trkpt><trkpt lat="42.9015717" lon="2.4131883"><ele>741.0</ele><time>2026-04-26T05:01:17.729Z</time></trkpt><trkpt lat="42.9014567" lon="2.4130467"><ele>741.0</ele><time>2026-04-26T05:01:18.732Z</time></trkpt><trkpt lat="42.9013333" lon="2.41289"><ele>741.0</ele><time>2026-04-26T05:01:19.728Z</time></trkpt><trkpt lat="42.9011983" lon="2.4127167"><ele>739.3333333333334</ele><time>2026-04-26T05:01:20.729Z</time></trkpt><trkpt lat="42.901085" lon="2.4125483"><ele>737.6666666666667</ele><time>2026-04-26T05:01:21.728Z</time></trkpt><trkpt lat="42.9009733" lon="2.4123817"><ele>736.0</ele><time>2026-04-26T05:01:22.728Z</time></trkpt><trkpt lat="42.9008783" lon="2.412215"><ele>738.25</ele><time>2026-04-26T05:01:23.728Z</time></trkpt><trkpt lat="42.900785" lon="2.412055"><ele>740.5</ele><time>2026-04-26T05:01:24.73Z</time></trkpt><trkpt lat="42.90069" lon="2.4119033"><ele>742.75</ele><time>2026-04-26T05:01:25.729Z</time></trkpt><trkpt lat="42.900605" lon="2.4117767"><ele>745.0</ele><time>2026-04-26T05:01:26.728Z</time></trkpt><trkpt lat="42.90054" lon="2.41166"><ele>745.0</ele><time>2026-04-26T05:01:27.729Z</time></trkpt><trkpt lat="42.9004883" lon="2.41156"><ele>745.0</ele><time>2026-04-26T05:01:28.727Z</time></trkpt><trkpt lat="42.90045" lon="2.411475"><ele>745.0</ele><time>2026-04-26T05:01:29.728Z</time></trkpt><trkpt lat="42.900445" lon="2.4113867"><ele>745.0</ele><time>2026-04-26T05:01:30.728Z</time></trkpt><trkpt lat="42.9005" lon="2.4112417"><ele>745.0</ele><time>2026-04-26T05:01:32.728Z</time></trkpt><trkpt lat="42.9005783" lon="2.4111767"><ele>745.0</ele><time>2026-04-26T05:01:33.728Z</time></trkpt><trkpt lat="42.9006833" lon="2.41111"><ele>746.5</ele><time>2026-04-26T05:01:34.729Z</time></trkpt><trkpt lat="42.9008017" lon="2.41102"><ele>748.0</ele><time>2026-04-26T05:01:35.73Z</time></trkpt><trkpt lat="42.9009217" lon="2.4109517"><ele>749.5</ele><time>2026-04-26T05:01:36.727Z</time></trkpt><trkpt lat="42.9010317" lon="2.41091"><ele>751.0</ele><time>2026-04-26T05:01:37.728Z</time></trkpt><trkpt lat="42.9011283" lon="2.4109067"><ele>753.0</ele><time>2026-04-26T05:01:38.727Z</time></trkpt><trkpt lat="42.9012217" lon="2.4109333"><ele>755.0</ele><time>2026-04-26T05:01:39.727Z</time></trkpt><trkpt lat="42.9012867" lon="2.4110017"><ele>757.0</ele><time>2026-04-26T05:01:40.727Z</time></trkpt><trkpt lat="42.901345" lon="2.4110883"><ele>759.0</ele><time>2026-04-26T05:01:41.727Z</time></trkpt><trkpt lat="42.9013917" lon="2.41117"><ele>761.0</ele><time>2026-04-26T05:01:42.728Z</time></trkpt><trkpt lat="42.9014717" lon="2.4112667"><ele>763.0</ele><time>2026-04-26T05:01:44.73Z</time></trkpt><trkpt lat="42.90154" lon="2.411215"><ele>763.0</ele><time>2026-04-26T05:01:46.728Z</time></trkpt><trkpt lat="42.9015133" lon="2.4110667"><ele>763.0</ele><time>2026-04-26T05:01:48.728Z</time></trkpt><trkpt lat="42.9014817" lon="2.4109733"><ele>763.0</ele><time>2026-04-26T05:01:49.734Z</time></trkpt><trkpt lat="42.9014417" lon="2.4108783"><ele>763.0</ele><time>2026-04-26T05:01:50.727Z</time></trkpt><trkpt lat="42.9013917" lon="2.4107583"><ele>763.0</ele><time>2026-04-26T05:01:51.729Z</time></trkpt><trkpt lat="42.901305" lon="2.410625"><ele>763.0</ele><time>2026-04-26T05:01:52.728Z</time></trkpt><trkpt lat="42.9012217" lon="2.410495"><ele>763.0</ele><time>2026-04-26T05:01:53.73Z</time></trkpt><trkpt lat="42.90112" lon="2.41037"><ele>763.0</ele><time>2026-04-26T05:01:54.729Z</time></trkpt><trkpt lat="42.901015" lon="2.4102717"><ele>763.0</ele><time>2026-04-26T05:01:55.727Z</time></trkpt><trkpt lat="42.90089" lon="2.4101867"><ele>762.75</ele><time>2026-04-26T05:01:56.731Z</time></trkpt><trkpt lat="42.9007617" lon="2.4101233"><ele>762.5</ele><time>2026-04-26T05:01:57.728Z</time></trkpt><trkpt lat="42.9006183" lon="2.4100833"><ele>762.25</ele><time>2026-04-26T05:01:58.728Z</time></trkpt><trkpt lat="42.9004683" lon="2.4100683"><ele>762.0</ele><time>2026-04-26T05:01:59.727Z</time></trkpt><trkpt lat="42.9003217" lon="2.4100617"><ele>762.0</ele><time>2026-04-26T05:02:00.73Z</time></trkpt><trkpt lat="42.900185" lon="2.4100567"><ele>762.0</ele><time>2026-04-26T05:02:01.73Z</time></trkpt><trkpt lat="42.9000633" lon="2.4100433"><ele>762.0</ele><time>2026-04-26T05:02:02.729Z</time></trkpt><trkpt lat="42.8999567" lon="2.4100017"><ele>762.0</ele><time>2026-04-26T05:02:03.729Z</time></trkpt><trkpt lat="42.89986" lon="2.409925"><ele>763.0</ele><time>2026-04-26T05:02:04.728Z</time></trkpt><trkpt lat="42.89977" lon="2.4098183"><ele>764.0</ele><time>2026-04-26T05:02:05.729Z</time></trkpt><trkpt lat="42.89968" lon="2.40971"><ele>765.0</ele><time>2026-04-26T05:02:06.729Z</time></trkpt><trkpt lat="42.899585" lon="2.4096167"><ele>766.0</ele><time>2026-04-26T05:02:07.73Z</time></trkpt><trkpt lat="42.899485" lon="2.40954"><ele>768.5</ele><time>2026-04-26T05:02:08.73Z</time></trkpt><trkpt lat="42.8993683" lon="2.4094983"><ele>771.0</ele><time>2026-04-26T05:02:09.729Z</time></trkpt><trkpt lat="42.8992517" lon="2.40945"><ele>773.5</ele><time>2026-04-26T05:02:10.729Z</time></trkpt><trkpt lat="42.8991383" lon="2.40939"><ele>776.0</ele><time>2026-04-26T05:02:11.729Z</time></trkpt><trkpt lat="42.899025" lon="2.4093333"><ele>776.25</ele><time>2026-04-26T05:02:12.729Z</time></trkpt><trkpt lat="42.8989083" lon="2.4092733"><ele>776.5</ele><time>2026-04-26T05:02:13.731Z</time></trkpt><trkpt lat="42.8987833" lon="2.4092217"><ele>776.75</ele><time>2026-04-26T05:02:14.73Z</time></trkpt><trkpt lat="42.8986617" lon="2.4091933"><ele>777.0</ele><time>2026-04-26T05:02:15.729Z</time></trkpt><trkpt lat="42.8985567" lon="2.4091633"><ele>777.0</ele><time>2026-04-26T05:02:16.728Z</time></trkpt><trkpt lat="42.8984683" lon="2.4091383"><ele>777.0</ele><time>2026-04-26T05:02:17.731Z</time></trkpt><trkpt lat="42.8983933" lon="2.4090983"><ele>777.0</ele><time>2026-04-26T05:02:18.728Z</time></trkpt><trkpt lat="42.8983367" lon="2.40904"><ele>777.0</ele><time>2026-04-26T05:02:19.727Z</time></trkpt><trkpt lat="42.898295" lon="2.4089533"><ele>777.0</ele><time>2026-04-26T05:02:20.728Z</time></trkpt><trkpt lat="42.8982767" lon="2.4088533"><ele>777.0</ele><time>2026-04-26T05:02:21.729Z</time></trkpt><trkpt lat="42.8982883" lon="2.4087083"><ele>778.6</ele><time>2026-04-26T05:02:22.727Z</time></trkpt><trkpt lat="42.89828" lon="2.4085633"><ele>780.2</ele><time>2026-04-26T05:02:23.728Z</time></trkpt><trkpt lat="42.8982817" lon="2.4084217"><ele>781.8</ele><time>2026-04-26T05:02:24.728Z</time></trkpt><trkpt lat="42.8983017" lon="2.4082967"><ele>783.4</ele><time>2026-04-26T05:02:25.729Z</time></trkpt><trkpt lat="42.8983233" lon="2.4081883"><ele>785.0</ele><time>2026-04-26T05:02:26.731Z</time></trkpt><trkpt lat="42.8983433" lon="2.4081"><ele>785.0</ele><time>2026-04-26T05:02:27.728Z</time></trkpt><trkpt lat="42.8983583" lon="2.4079783"><ele>785.0</ele><time>2026-04-26T05:02:29.728Z</time></trkpt><trkpt lat="42.8982717" lon="2.4080133"><ele>785.0</ele><time>2026-04-26T05:02:31.728Z</time></trkpt><trkpt lat="42.898225" lon="2.4080717"><ele>785.0</ele><time>2026-04-26T05:02:32.729Z</time></trkpt><trkpt lat="42.8981833" lon="2.4081733"><ele>785.0</ele><time>2026-04-26T05:02:33.729Z</time></trkpt><trkpt lat="42.8981233" lon="2.4083467"><ele>785.0</ele><time>2026-04-26T05:02:34.729Z</time></trkpt><trkpt lat="42.89805" lon="2.4085383"><ele>785.0</ele><time>2026-04-26T05:02:35.729Z</time></trkpt><trkpt lat="42.8979833" lon="2.4087167"><ele>785.0</ele><time>2026-04-26T05:02:36.728Z</time></trkpt><trkpt lat="42.8979133" lon="2.40889"><ele>784.75</ele><time>2026-04-26T05:02:37.733Z</time></trkpt><trkpt lat="42.8978483" lon="2.4090667"><ele>784.5</ele><time>2026-04-26T05:02:38.728Z</time></trkpt><trkpt lat="42.8977833" lon="2.4092217"><ele>784.25</ele><time>2026-04-26T05:02:39.727Z</time></trkpt><trkpt lat="42.89772" lon="2.40938"><ele>784.0</ele><time>2026-04-26T05:02:40.733Z</time></trkpt><trkpt lat="42.8976817" lon="2.40952"><ele>784.0</ele><time>2026-04-26T05:02:41.729Z</time></trkpt><trkpt lat="42.8976617" lon="2.4096433"><ele>784.0</ele><time>2026-04-26T05:02:42.731Z</time></trkpt><trkpt lat="42.8976583" lon="2.40976"><ele>784.0</ele><time>2026-04-26T05:02:43.728Z</time></trkpt><trkpt lat="42.8976683" lon="2.409885"><ele>784.0</ele><time>2026-04-26T05:02:44.728Z</time></trkpt><trkpt lat="42.8977067" lon="2.4100117"><ele>784.0</ele><time>2026-04-26T05:02:45.727Z</time></trkpt><trkpt lat="42.897755" lon="2.4101533"><ele>784.75</ele><time>2026-04-26T05:02:46.729Z</time></trkpt><trkpt lat="42.8977767" lon="2.41031"><ele>785.5</ele><time>2026-04-26T05:02:47.727Z</time></trkpt><trkpt lat="42.8977783" lon="2.4104783"><ele>786.25</ele><time>2026-04-26T05:02:48.728Z</time></trkpt><trkpt lat="42.89778" lon="2.410655"><ele>787.0</ele><time>2026-04-26T05:02:49.727Z</time></trkpt><trkpt lat="42.89777" lon="2.4108583"><ele>788.0</ele><time>2026-04-26T05:02:50.728Z</time></trkpt><trkpt lat="42.897755" lon="2.4110467"><ele>789.0</ele><time>2026-04-26T05:02:51.727Z</time></trkpt><trkpt lat="42.8977317" lon="2.4112267"><ele>790.0</ele><time>2026-04-26T05:02:52.728Z</time></trkpt><trkpt lat="42.897705" lon="2.4114033"><ele>791.0</ele><time>2026-04-26T05:02:53.727Z</time></trkpt><trkpt lat="42.8976733" lon="2.411585"><ele>791.5</ele><time>2026-04-26T05:02:54.727Z</time></trkpt><trkpt lat="42.8976283" lon="2.41176"><ele>792.0</ele><time>2026-04-26T05:02:55.728Z</time></trkpt><trkpt lat="42.89757" lon="2.4119317"><ele>792.5</ele><time>2026-04-26T05:02:56.728Z</time></trkpt><trkpt lat="42.897515" lon="2.41212"><ele>793.0</ele><time>2026-04-26T05:02:57.727Z</time></trkpt><trkpt lat="42.897455" lon="2.41231"><ele>798.0</ele><time>2026-04-26T05:02:58.727Z</time></trkpt><trkpt lat="42.89739" lon="2.4125"><ele>803.0</ele><time>2026-04-26T05:02:59.728Z</time></trkpt><trkpt lat="42.897325" lon="2.4126833"><ele>808.0</ele><time>2026-04-26T05:03:00.729Z</time></trkpt><trkpt lat="42.8972583" lon="2.4128383"><ele>813.0</ele><time>2026-04-26T05:03:01.733Z</time></trkpt><trkpt lat="42.8971983" lon="2.4129667"><ele>812.5999999999999</ele><time>2026-04-26T05:03:02.73Z</time></trkpt><trkpt lat="42.8971217" lon="2.4130517"><ele>812.1999999999999</ele><time>2026-04-26T05:03:03.728Z</time></trkpt><trkpt lat="42.89704" lon="2.413125"><ele>811.8</ele><time>2026-04-26T05:03:04.73Z</time></trkpt><trkpt lat="42.8969483" lon="2.4131783"><ele>811.4</ele><time>2026-04-26T05:03:05.728Z</time></trkpt><trkpt lat="42.896855" lon="2.4132167"><ele>811.0</ele><time>2026-04-26T05:03:06.729Z</time></trkpt><trkpt lat="42.8967817" lon="2.413255"><ele>813.0</ele><time>2026-04-26T05:03:07.728Z</time></trkpt><trkpt lat="42.896705" lon="2.4132833"><ele>815.0</ele><time>2026-04-26T05:03:08.729Z</time></trkpt><trkpt lat="42.89664" lon="2.4133083"><ele>817.0</ele><time>2026-04-26T05:03:09.73Z</time></trkpt><trkpt lat="42.89657" lon="2.4132917"><ele>819.0</ele><time>2026-04-26T05:03:10.73Z</time></trkpt><trkpt lat="42.8964933" lon="2.413255"><ele>821.0</ele><time>2026-04-26T05:03:11.728Z</time></trkpt><trkpt lat="42.8963933" lon="2.4130933"><ele>823.25</ele><time>2026-04-26T05:03:12.728Z</time></trkpt><trkpt lat="42.8962917" lon="2.41294"><ele>825.5</ele><time>2026-04-26T05:03:13.732Z</time></trkpt><trkpt lat="42.8961883" lon="2.4128017"><ele>827.75</ele><time>2026-04-26T05:03:14.731Z</time></trkpt><trkpt lat="42.896085" lon="2.4126633"><ele>830.0</ele><time>2026-04-26T05:03:15.728Z</time></trkpt><trkpt lat="42.8959817" lon="2.412535"><ele>828.0</ele><time>2026-04-26T05:03:16.729Z</time></trkpt><trkpt lat="42.8958883" lon="2.412425"><ele>826.0</ele><time>2026-04-26T05:03:17.729Z</time></trkpt><trkpt lat="42.89581" lon="2.4123133"><ele>824.0</ele><time>2026-04-26T05:03:18.731Z</time></trkpt><trkpt lat="42.895735" lon="2.4121883"><ele>822.0</ele><time>2026-04-26T05:03:19.73Z</time></trkpt><trkpt lat="42.8956617" lon="2.4120667"><ele>822.0</ele><time>2026-04-26T05:03:20.73Z</time></trkpt><trkpt lat="42.895575" lon="2.4119517"><ele>822.0</ele><time>2026-04-26T05:03:21.729Z</time></trkpt><trkpt lat="42.895485" lon="2.4118283"><ele>822.0</ele><time>2026-04-26T05:03:22.729Z</time></trkpt><trkpt lat="42.8954" lon="2.4116933"><ele>822.0</ele><time>2026-04-26T05:03:23.729Z</time></trkpt><trkpt lat="42.89533" lon="2.4115583"><ele>822.0</ele><time>2026-04-26T05:03:24.73Z</time></trkpt><trkpt lat="42.8952667" lon="2.4114283"><ele>822.0</ele><time>2026-04-26T05:03:25.729Z</time></trkpt><trkpt lat="42.8952033" lon="2.4112983"><ele>822.0</ele><time>2026-04-26T05:03:26.731Z</time></trkpt><trkpt lat="42.8951467" lon="2.4111667"><ele>822.0</ele><time>2026-04-26T05:03:27.73Z</time></trkpt><trkpt lat="42.8951067" lon="2.4110317"><ele>822.0</ele><time>2026-04-26T05:03:28.73Z</time></trkpt><trkpt lat="42.895065" lon="2.4109033"><ele>821.1666666666666</ele><time>2026-04-26T05:03:29.729Z</time></trkpt><trkpt lat="42.8950233" lon="2.4107833"><ele>820.3333333333333</ele><time>2026-04-26T05:03:30.731Z</time></trkpt><trkpt lat="42.8949733" lon="2.410675"><ele>819.5</ele><time>2026-04-26T05:03:31.731Z</time></trkpt><trkpt lat="42.894905" lon="2.4105733"><ele>818.6666666666666</ele><time>2026-04-26T05:03:32.73Z</time></trkpt><trkpt lat="42.8948467" lon="2.4105183"><ele>817.8333333333333</ele><time>2026-04-26T05:03:33.729Z</time></trkpt><trkpt lat="42.89478" lon="2.4104567"><ele>817.0</ele><time>2026-04-26T05:03:34.729Z</time></trkpt><trkpt lat="42.8947067" lon="2.4104133"><ele>815.6</ele><time>2026-04-26T05:03:35.729Z</time></trkpt><trkpt lat="42.8946117" lon="2.4103833"><ele>814.2</ele><time>2026-04-26T05:03:36.729Z</time></trkpt><trkpt lat="42.8945083" lon="2.4103817"><ele>812.8</ele><time>2026-04-26T05:03:37.729Z</time></trkpt><trkpt lat="42.8944067" lon="2.4103617"><ele>811.4</ele><time>2026-04-26T05:03:38.729Z</time></trkpt><trkpt lat="42.8942967" lon="2.4103417"><ele>810.0</ele><time>2026-04-26T05:03:39.73Z</time></trkpt><trkpt lat="42.8941883" lon="2.4103167"><ele>809.6666666666666</ele><time>2026-04-26T05:03:40.73Z</time></trkpt><trkpt lat="42.894085" lon="2.4102867"><ele>809.3333333333333</ele><time>2026-04-26T05:03:41.73Z</time></trkpt><trkpt lat="42.8939917" lon="2.4102667"><ele>809.0</ele><time>2026-04-26T05:03:42.73Z</time></trkpt><trkpt lat="42.8939117" lon="2.4102467"><ele>808.6666666666666</ele><time>2026-04-26T05:03:43.729Z</time></trkpt><trkpt lat="42.8938383" lon="2.410245"><ele>808.3333333333333</ele><time>2026-04-26T05:03:44.73Z</time></trkpt><trkpt lat="42.8937883" lon="2.410325"><ele>808.0</ele><time>2026-04-26T05:03:45.728Z</time></trkpt><trkpt lat="42.8937533" lon="2.410425"><ele>808.4</ele><time>2026-04-26T05:03:46.728Z</time></trkpt><trkpt lat="42.8937117" lon="2.41054"><ele>808.8</ele><time>2026-04-26T05:03:47.733Z</time></trkpt><trkpt lat="42.8936583" lon="2.41067"><ele>809.2</ele><time>2026-04-26T05:03:48.728Z</time></trkpt><trkpt lat="42.8935817" lon="2.4107883"><ele>809.6</ele><time>2026-04-26T05:03:49.728Z</time></trkpt><trkpt lat="42.8934883" lon="2.4108883"><ele>810.0</ele><time>2026-04-26T05:03:50.728Z</time></trkpt><trkpt lat="42.8933783" lon="2.4109683"><ele>808.75</ele><time>2026-04-26T05:03:51.729Z</time></trkpt><trkpt lat="42.89326" lon="2.411045"><ele>807.5</ele><time>2026-04-26T05:03:52.729Z</time></trkpt><trkpt lat="42.8931433" lon="2.41112"><ele>806.25</ele><time>2026-04-26T05:03:53.728Z</time></trkpt><trkpt lat="42.8930417" lon="2.4112"><ele>805.0</ele><time>2026-04-26T05:03:54.728Z</time></trkpt><trkpt lat="42.892965" lon="2.4112933"><ele>804.8</ele><time>2026-04-26T05:03:55.728Z</time></trkpt><trkpt lat="42.8929033" lon="2.4113983"><ele>804.6</ele><time>2026-04-26T05:03:56.728Z</time></trkpt><trkpt lat="42.8928583" lon="2.4115283"><ele>804.4000000000001</ele><time>2026-04-26T05:03:57.731Z</time></trkpt><trkpt lat="42.8928233" lon="2.4116717"><ele>804.2</ele><time>2026-04-26T05:03:58.728Z</time></trkpt><trkpt lat="42.892795" lon="2.41182"><ele>804.0</ele><time>2026-04-26T05:03:59.729Z</time></trkpt><trkpt lat="42.89276" lon="2.4119683"><ele>804.0</ele><time>2026-04-26T05:04:00.73Z</time></trkpt><trkpt lat="42.8927083" lon="2.4121217"><ele>804.0</ele><time>2026-04-26T05:04:01.728Z</time></trkpt><trkpt lat="42.8926633" lon="2.4122833"><ele>804.0</ele><time>2026-04-26T05:04:02.731Z</time></trkpt><trkpt lat="42.892625" lon="2.4124533"><ele>804.0</ele><time>2026-04-26T05:04:03.728Z</time></trkpt><trkpt lat="42.8926" lon="2.4126133"><ele>805.6</ele><time>2026-04-26T05:04:04.729Z</time></trkpt><trkpt lat="42.8925767" lon="2.41277"><ele>807.2</ele><time>2026-04-26T05:04:05.73Z</time></trkpt><trkpt lat="42.8925633" lon="2.412925"><ele>808.8000000000001</ele><time>2026-04-26T05:04:06.73Z</time></trkpt><trkpt lat="42.89255" lon="2.4130567"><ele>810.4000000000001</ele><time>2026-04-26T05:04:07.73Z</time></trkpt><trkpt lat="42.89254" lon="2.4131833"><ele>812.0</ele><time>2026-04-26T05:04:08.731Z</time></trkpt><trkpt lat="42.8925267" lon="2.41331"><ele>812.0</ele><time>2026-04-26T05:04:09.729Z</time></trkpt><trkpt lat="42.892495" lon="2.4134417"><ele>812.0</ele><time>2026-04-26T05:04:10.729Z</time></trkpt><trkpt lat="42.8924417" lon="2.41358"><ele>812.0</ele><time>2026-04-26T05:04:11.729Z</time></trkpt><trkpt lat="42.8923783" lon="2.4137317"><ele>812.0</ele><time>2026-04-26T05:04:12.73Z</time></trkpt><trkpt lat="42.8923117" lon="2.41389"><ele>813.25</ele><time>2026-04-26T05:04:13.727Z</time></trkpt><trkpt lat="42.892245" lon="2.4140583"><ele>814.5</ele><time>2026-04-26T05:04:14.728Z</time></trkpt><trkpt lat="42.892175" lon="2.4142383"><ele>815.75</ele><time>2026-04-26T05:04:15.732Z</time></trkpt><trkpt lat="42.8921017" lon="2.4144133"><ele>817.0</ele><time>2026-04-26T05:04:16.73Z</time></trkpt><trkpt lat="42.8920283" lon="2.414565"><ele>817.8</ele><time>2026-04-26T05:04:17.728Z</time></trkpt><trkpt lat="42.8919467" lon="2.4146967"><ele>818.6</ele><time>2026-04-26T05:04:18.729Z</time></trkpt><trkpt lat="42.8918633" lon="2.4148"><ele>819.4</ele><time>2026-04-26T05:04:19.728Z</time></trkpt><trkpt lat="42.891775" lon="2.414875"><ele>820.1999999999999</ele><time>2026-04-26T05:04:20.732Z</time></trkpt><trkpt lat="42.8916833" lon="2.4149183"><ele>821.0</ele><time>2026-04-26T05:04:21.73Z</time></trkpt><trkpt lat="42.8915817" lon="2.4149367"><ele>821.0</ele><time>2026-04-26T05:04:22.729Z</time></trkpt><trkpt lat="42.8914667" lon="2.4149283"><ele>821.0</ele><time>2026-04-26T05:04:23.729Z</time></trkpt><trkpt lat="42.8913433" lon="2.4149083"><ele>821.0</ele><time>2026-04-26T05:04:24.729Z</time></trkpt><trkpt lat="42.8912267" lon="2.4148583"><ele>821.0</ele><time>2026-04-26T05:04:25.729Z</time></trkpt><trkpt lat="42.8911183" lon="2.4147917"><ele>821.0</ele><time>2026-04-26T05:04:26.729Z</time></trkpt><trkpt lat="42.891015" lon="2.414735"><ele>821.0</ele><time>2026-04-26T05:04:27.73Z</time></trkpt><trkpt lat="42.890905" lon="2.4146917"><ele>821.0</ele><time>2026-04-26T05:04:28.728Z</time></trkpt><trkpt lat="42.8907867" lon="2.4146667"><ele>821.0</ele><time>2026-04-26T05:04:29.728Z</time></trkpt><trkpt lat="42.89067" lon="2.4146617"><ele>820.6666666666667</ele><time>2026-04-26T05:04:30.731Z</time></trkpt><trkpt lat="42.8905717" lon="2.4146483"><ele>820.3333333333334</ele><time>2026-04-26T05:04:31.728Z</time></trkpt><trkpt lat="42.8904867" lon="2.4146517"><ele>820.0</ele><time>2026-04-26T05:04:32.729Z</time></trkpt><trkpt lat="42.8904117" lon="2.4146767"><ele>819.6666666666667</ele><time>2026-04-26T05:04:33.73Z</time></trkpt><trkpt lat="42.89034" lon="2.4147167"><ele>819.3333333333334</ele><time>2026-04-26T05:04:34.728Z</time></trkpt><trkpt lat="42.8902717" lon="2.4147767"><ele>819.0</ele><time>2026-04-26T05:04:35.729Z</time></trkpt><trkpt lat="42.890185" lon="2.4148483"><ele>820.0</ele><time>2026-04-26T05:04:36.729Z</time></trkpt><trkpt lat="42.89008" lon="2.4149267"><ele>821.0</ele><time>2026-04-26T05:04:37.728Z</time></trkpt><trkpt lat="42.8899683" lon="2.4150217"><ele>822.0</ele><time>2026-04-26T05:04:38.729Z</time></trkpt><trkpt lat="42.8898533" lon="2.4151267"><ele>823.0</ele><time>2026-04-26T05:04:39.732Z</time></trkpt><trkpt lat="42.8897317" lon="2.4152367"><ele>823.0</ele><time>2026-04-26T05:04:40.73Z</time></trkpt><trkpt lat="42.8896083" lon="2.41536"><ele>823.0</ele><time>2026-04-26T05:04:41.728Z</time></trkpt><trkpt lat="42.8894983" lon="2.4154933"><ele>823.0</ele><time>2026-04-26T05:04:42.728Z</time></trkpt><trkpt lat="42.8893833" lon="2.41561"><ele>823.0</ele><time>2026-04-26T05:04:43.728Z</time></trkpt><trkpt lat="42.8892617" lon="2.4157217"><ele>822.75</ele><time>2026-04-26T05:04:44.729Z</time></trkpt><trkpt lat="42.88915" lon="2.4158167"><ele>822.5</ele><time>2026-04-26T05:04:45.735Z</time></trkpt><trkpt lat="42.8890633" lon="2.4159217"><ele>822.25</ele><time>2026-04-26T05:04:46.728Z</time></trkpt><trkpt lat="42.88897" lon="2.41602"><ele>822.0</ele><time>2026-04-26T05:04:47.728Z</time></trkpt><trkpt lat="42.88889" lon="2.4161283"><ele>822.0</ele><time>2026-04-26T05:04:48.729Z</time></trkpt><trkpt lat="42.8888217" lon="2.4162333"><ele>822.0</ele><time>2026-04-26T05:04:49.729Z</time></trkpt><trkpt lat="42.888765" lon="2.4163433"><ele>822.0</ele><time>2026-04-26T05:04:50.73Z</time></trkpt><trkpt lat="42.88872" lon="2.4164517"><ele>822.0</ele><time>2026-04-26T05:04:51.729Z</time></trkpt><trkpt lat="42.888695" lon="2.41655"><ele>822.0</ele><time>2026-04-26T05:04:52.73Z</time></trkpt><trkpt lat="42.8886783" lon="2.41667"><ele>822.1666666666666</ele><time>2026-04-26T05:04:53.729Z</time></trkpt><trkpt lat="42.8887017" lon="2.4168117"><ele>822.3333333333333</ele><time>2026-04-26T05:04:54.729Z</time></trkpt><trkpt lat="42.88873" lon="2.4169433"><ele>822.5</ele><time>2026-04-26T05:04:55.728Z</time></trkpt><trkpt lat="42.8887767" lon="2.41704"><ele>822.6666666666666</ele><time>2026-04-26T05:04:56.729Z</time></trkpt><trkpt lat="42.8888133" lon="2.417125"><ele>822.8333333333333</ele><time>2026-04-26T05:04:57.728Z</time></trkpt><trkpt lat="42.8888433" lon="2.4172083"><ele>823.0</ele><time>2026-04-26T05:04:58.728Z</time></trkpt><trkpt lat="42.8888583" lon="2.417295"><ele>822.1666666666666</ele><time>2026-04-26T05:04:59.729Z</time></trkpt><trkpt lat="42.8888433" lon="2.4174283"><ele>821.3333333333333</ele><time>2026-04-26T05:05:01.729Z</time></trkpt><trkpt lat="42.888745" lon="2.41745"><ele>820.5</ele><time>2026-04-26T05:05:03.732Z</time></trkpt><trkpt lat="42.888675" lon="2.4174017"><ele>819.6666666666667</ele><time>2026-04-26T05:05:04.729Z</time></trkpt><trkpt lat="42.8886133" lon="2.4173567"><ele>818.8333333333334</ele><time>2026-04-26T05:05:05.728Z</time></trkpt><trkpt lat="42.8885417" lon="2.417315"><ele>818.0</ele><time>2026-04-26T05:05:06.728Z</time></trkpt><trkpt lat="42.8884383" lon="2.417295"><ele>815.8</ele><time>2026-04-26T05:05:07.73Z</time></trkpt><trkpt lat="42.888325" lon="2.417275"><ele>813.5999999999999</ele><time>2026-04-26T05:05:08.729Z</time></trkpt><trkpt lat="42.8882233" lon="2.4172567"><ele>811.4000000000001</ele><time>2026-04-26T05:05:09.732Z</time></trkpt><trkpt lat="42.8881167" lon="2.417235"><ele>809.2</ele><time>2026-04-26T05:05:10.728Z</time></trkpt><trkpt lat="42.8880117" lon="2.4172217"><ele>807.0</ele><time>2026-04-26T05:05:11.73Z</time></trkpt><trkpt lat="42.8879017" lon="2.417215"><ele>807.0</ele><time>2026-04-26T05:05:12.73Z</time></trkpt><trkpt lat="42.8877867" lon="2.4172217"><ele>807.0</ele><time>2026-04-26T05:05:13.729Z</time></trkpt><trkpt lat="42.8876617" lon="2.4172283"><ele>807.0</ele><time>2026-04-26T05:05:14.728Z</time></trkpt><trkpt lat="42.887535" lon="2.41721"><ele>807.0</ele><time>2026-04-26T05:05:15.728Z</time></trkpt><trkpt lat="42.887395" lon="2.4171833"><ele>808.75</ele><time>2026-04-26T05:05:16.728Z</time></trkpt><trkpt lat="42.8872517" lon="2.41715"><ele>810.5</ele><time>2026-04-26T05:05:17.735Z</time></trkpt><trkpt lat="42.887105" lon="2.4171167"><ele>812.25</ele><time>2026-04-26T05:05:18.731Z</time></trkpt><trkpt lat="42.8869567" lon="2.4170867"><ele>814.0</ele><time>2026-04-26T05:05:19.729Z</time></trkpt><trkpt lat="42.886815" lon="2.417055"><ele>812.5</ele><time>2026-04-26T05:05:20.728Z</time></trkpt><trkpt lat="42.886675" lon="2.4170333"><ele>811.0</ele><time>2026-04-26T05:05:21.73Z</time></trkpt><trkpt lat="42.886545" lon="2.4170217"><ele>809.5</ele><time>2026-04-26T05:05:22.728Z</time></trkpt><trkpt lat="42.8864217" lon="2.417005"><ele>808.0</ele><time>2026-04-26T05:05:23.728Z</time></trkpt><trkpt lat="42.886305" lon="2.4169683"><ele>808.0</ele><time>2026-04-26T05:05:24.729Z</time></trkpt><trkpt lat="42.8861983" lon="2.41691"><ele>808.0</ele><time>2026-04-26T05:05:25.728Z</time></trkpt><trkpt lat="42.8860883" lon="2.4168617"><ele>808.0</ele><time>2026-04-26T05:05:26.73Z</time></trkpt><trkpt lat="42.8859817" lon="2.4168167"><ele>808.0</ele><time>2026-04-26T05:05:27.728Z</time></trkpt><trkpt lat="42.8858883" lon="2.4167783"><ele>808.0</ele><time>2026-04-26T05:05:28.73Z</time></trkpt><trkpt lat="42.8858067" lon="2.4167333"><ele>806.9999999999999</ele><time>2026-04-26T05:05:29.729Z</time></trkpt><trkpt lat="42.8857267" lon="2.4166817"><ele>806.0</ele><time>2026-04-26T05:05:30.728Z</time></trkpt><trkpt lat="42.885665" lon="2.4165983"><ele>805.0</ele><time>2026-04-26T05:05:31.728Z</time></trkpt><trkpt lat="42.885625" lon="2.4164867"><ele>804.0</ele><time>2026-04-26T05:05:32.728Z</time></trkpt><trkpt lat="42.88558" lon="2.41639"><ele>802.9999999999999</ele><time>2026-04-26T05:05:33.731Z</time></trkpt><trkpt lat="42.885565" lon="2.4162567"><ele>802.0</ele><time>2026-04-26T05:05:34.728Z</time></trkpt><trkpt lat="42.8855217" lon="2.4161433"><ele>802.0</ele><time>2026-04-26T05:05:35.729Z</time></trkpt><trkpt lat="42.8854683" lon="2.41605"><ele>802.0</ele><time>2026-04-26T05:05:36.731Z</time></trkpt><trkpt lat="42.8853883" lon="2.4159933"><ele>802.0</ele><time>2026-04-26T05:05:37.728Z</time></trkpt><trkpt lat="42.8852883" lon="2.4159583"><ele>802.0</ele><time>2026-04-26T05:05:38.728Z</time></trkpt><trkpt lat="42.8851783" lon="2.415945"><ele>802.0</ele><time>2026-04-26T05:05:39.728Z</time></trkpt><trkpt lat="42.8850583" lon="2.41594"><ele>800.5</ele><time>2026-04-26T05:05:40.729Z</time></trkpt><trkpt lat="42.884945" lon="2.41593"><ele>799.0</ele><time>2026-04-26T05:05:41.728Z</time></trkpt><trkpt lat="42.88483" lon="2.4159083"><ele>797.5</ele><time>2026-04-26T05:05:42.73Z</time></trkpt><trkpt lat="42.88472" lon="2.4158867"><ele>796.0</ele><time>2026-04-26T05:05:43.728Z</time></trkpt><trkpt lat="42.88461" lon="2.41588"><ele>796.0</ele><time>2026-04-26T05:05:44.732Z</time></trkpt><trkpt lat="42.8844983" lon="2.4158933"><ele>796.0</ele><time>2026-04-26T05:05:45.727Z</time></trkpt><trkpt lat="42.8843833" lon="2.4159367"><ele>796.0</ele><time>2026-04-26T05:05:46.729Z</time></trkpt><trkpt lat="42.88427" lon="2.4160017"><ele>796.0</ele><time>2026-04-26T05:05:47.728Z</time></trkpt><trkpt lat="42.8841583" lon="2.416075"><ele>796.8</ele><time>2026-04-26T05:05:48.731Z</time></trkpt><trkpt lat="42.8840583" lon="2.41612"><ele>797.5999999999999</ele><time>2026-04-26T05:05:49.728Z</time></trkpt><trkpt lat="42.8839533" lon="2.4161583"><ele>798.4</ele><time>2026-04-26T05:05:50.728Z</time></trkpt><trkpt lat="42.88385" lon="2.4161883"><ele>799.2</ele><time>2026-04-26T05:05:51.733Z</time></trkpt><trkpt lat="42.883755" lon="2.4161983"><ele>800.0</ele><time>2026-04-26T05:05:52.729Z</time></trkpt><trkpt lat="42.883675" lon="2.4161733"><ele>800.0</ele><time>2026-04-26T05:05:53.728Z</time></trkpt><trkpt lat="42.88361" lon="2.4161417"><ele>800.0</ele><time>2026-04-26T05:05:54.729Z</time></trkpt><trkpt lat="42.8835517" lon="2.4160733"><ele>800.0</ele><time>2026-04-26T05:05:55.727Z</time></trkpt><trkpt lat="42.8834883" lon="2.415995"><ele>800.0</ele><time>2026-04-26T05:05:56.731Z</time></trkpt><trkpt lat="42.88342" lon="2.4158833"><ele>800.0</ele><time>2026-04-26T05:05:57.728Z</time></trkpt><trkpt lat="42.8833533" lon="2.4157583"><ele>799.75</ele><time>2026-04-26T05:05:58.729Z</time></trkpt><trkpt lat="42.8832833" lon="2.4156217"><ele>799.5</ele><time>2026-04-26T05:05:59.729Z</time></trkpt><trkpt lat="42.8832233" lon="2.4154667"><ele>799.25</ele><time>2026-04-26T05:06:00.73Z</time></trkpt><trkpt lat="42.8831733" lon="2.4153083"><ele>799.0</ele><time>2026-04-26T05:06:01.728Z</time></trkpt><trkpt lat="42.8831417" lon="2.4151517"><ele>799.0</ele><time>2026-04-26T05:06:02.73Z</time></trkpt><trkpt lat="42.88312" lon="2.4150033"><ele>799.0</ele><time>2026-04-26T05:06:03.728Z</time></trkpt><trkpt lat="42.8830517" lon="2.4148817"><ele>799.0</ele><time>2026-04-26T05:06:04.732Z</time></trkpt><trkpt lat="42.8829667" lon="2.4147667"><ele>799.0</ele><time>2026-04-26T05:06:05.728Z</time></trkpt><trkpt lat="42.8828817" lon="2.4146467"><ele>797.25</ele><time>2026-04-26T05:06:06.73Z</time></trkpt><trkpt lat="42.8827867" lon="2.4145117"><ele>795.5</ele><time>2026-04-26T05:06:07.728Z</time></trkpt><trkpt lat="42.8826933" lon="2.414385"><ele>793.75</ele><time>2026-04-26T05:06:08.73Z</time></trkpt><trkpt lat="42.8826033" lon="2.4142633"><ele>792.0</ele><time>2026-04-26T05:06:09.728Z</time></trkpt><trkpt lat="42.882515" lon="2.41413"><ele>792.0</ele><time>2026-04-26T05:06:10.733Z</time></trkpt><trkpt lat="42.8824283" lon="2.4139867"><ele>792.0</ele><time>2026-04-26T05:06:11.733Z</time></trkpt><trkpt lat="42.8823517" lon="2.4138433"><ele>792.0</ele><time>2026-04-26T05:06:12.729Z</time></trkpt><trkpt lat="42.8822817" lon="2.41368"><ele>792.0</ele><time>2026-04-26T05:06:13.728Z</time></trkpt><trkpt lat="42.8822217" lon="2.4135017"><ele>789.0</ele><time>2026-04-26T05:06:14.73Z</time></trkpt><trkpt lat="42.8821683" lon="2.41331"><ele>786.0</ele><time>2026-04-26T05:06:15.729Z</time></trkpt><trkpt lat="42.882115" lon="2.413115"><ele>783.0</ele><time>2026-04-26T05:06:16.729Z</time></trkpt><trkpt lat="42.8820867" lon="2.4129133"><ele>780.0</ele><time>2026-04-26T05:06:17.731Z</time></trkpt><trkpt lat="42.88205" lon="2.41272"><ele>777.0</ele><time>2026-04-26T05:06:18.73Z</time></trkpt><trkpt lat="42.8820133" lon="2.4125267"><ele>774.0</ele><time>2026-04-26T05:06:19.729Z</time></trkpt><trkpt lat="42.881965" lon="2.41233"><ele>771.0</ele><time>2026-04-26T05:06:20.73Z</time></trkpt><trkpt lat="42.8819067" lon="2.4121333"><ele>770.5</ele><time>2026-04-26T05:06:21.728Z</time></trkpt><trkpt lat="42.881855" lon="2.4119433"><ele>770.0</ele><time>2026-04-26T05:06:22.73Z</time></trkpt><trkpt lat="42.8817983" lon="2.4117617"><ele>769.5</ele><time>2026-04-26T05:06:23.728Z</time></trkpt><trkpt lat="42.88177" lon="2.41158"><ele>769.0</ele><time>2026-04-26T05:06:24.729Z</time></trkpt><trkpt lat="42.88173" lon="2.41141"><ele>770.0</ele><time>2026-04-26T05:06:25.728Z</time></trkpt><trkpt lat="42.8817" lon="2.4112517"><ele>771.0</ele><time>2026-04-26T05:06:26.729Z</time></trkpt><trkpt lat="42.88169" lon="2.41109"><ele>772.0</ele><time>2026-04-26T05:06:27.729Z</time></trkpt><trkpt lat="42.881705" lon="2.4109283"><ele>773.0</ele><time>2026-04-26T05:06:28.728Z</time></trkpt><trkpt lat="42.88172" lon="2.4107467"><ele>773.0</ele><time>2026-04-26T05:06:29.733Z</time></trkpt><trkpt lat="42.8817267" lon="2.4105533"><ele>773.0</ele><time>2026-04-26T05:06:30.731Z</time></trkpt><trkpt lat="42.8817367" lon="2.4103667"><ele>773.0</ele><time>2026-04-26T05:06:31.729Z</time></trkpt><trkpt lat="42.8817333" lon="2.4101833"><ele>773.0</ele><time>2026-04-26T05:06:32.731Z</time></trkpt><trkpt lat="42.8817283" lon="2.4099967"><ele>770.75</ele><time>2026-04-26T05:06:33.729Z</time></trkpt><trkpt lat="42.8817283" lon="2.409805"><ele>768.5</ele><time>2026-04-26T05:06:34.73Z</time></trkpt><trkpt lat="42.8817267" lon="2.4096183"><ele>766.25</ele><time>2026-04-26T05:06:35.727Z</time></trkpt><trkpt lat="42.881725" lon="2.4094383"><ele>764.0</ele><time>2026-04-26T05:06:36.731Z</time></trkpt><trkpt lat="42.8817117" lon="2.4092767"><ele>761.75</ele><time>2026-04-26T05:06:37.731Z</time></trkpt><trkpt lat="42.8816933" lon="2.4091167"><ele>759.5</ele><time>2026-04-26T05:06:38.728Z</time></trkpt><trkpt lat="42.8816583" lon="2.4089717"><ele>757.25</ele><time>2026-04-26T05:06:39.733Z</time></trkpt><trkpt lat="42.8816083" lon="2.4088317"><ele>755.0</ele><time>2026-04-26T05:06:40.728Z</time></trkpt><trkpt lat="42.8815417" lon="2.4086917"><ele>752.75</ele><time>2026-04-26T05:06:41.729Z</time></trkpt><trkpt lat="42.8814517" lon="2.4085433"><ele>750.5</ele><time>2026-04-26T05:06:42.729Z</time></trkpt><trkpt lat="42.8813633" lon="2.4083833"><ele>748.25</ele><time>2026-04-26T05:06:43.729Z</time></trkpt><trkpt lat="42.8812733" lon="2.408205"><ele>746.0</ele><time>2026-04-26T05:06:44.731Z</time></trkpt><trkpt lat="42.8811967" lon="2.40802"><ele>743.6666666666666</ele><time>2026-04-26T05:06:45.729Z</time></trkpt><trkpt lat="42.881135" lon="2.4078183"><ele>741.3333333333334</ele><time>2026-04-26T05:06:46.729Z</time></trkpt><trkpt lat="42.88107" lon="2.4076217"><ele>739.0</ele><time>2026-04-26T05:06:47.728Z</time></trkpt><trkpt lat="42.8810033" lon="2.40742"><ele>739.0</ele><time>2026-04-26T05:06:48.729Z</time></trkpt><trkpt lat="42.8809433" lon="2.4072167"><ele>739.0</ele><time>2026-04-26T05:06:49.73Z</time></trkpt><trkpt lat="42.8808833" lon="2.40701"><ele>739.0</ele><time>2026-04-26T05:06:50.728Z</time></trkpt><trkpt lat="42.8808117" lon="2.4067967"><ele>737.0</ele><time>2026-04-26T05:06:51.732Z</time></trkpt><trkpt lat="42.8807467" lon="2.40659"><ele>735.0</ele><time>2026-04-26T05:06:52.729Z</time></trkpt><trkpt lat="42.880685" lon="2.4063917"><ele>733.0</ele><time>2026-04-26T05:06:53.733Z</time></trkpt><trkpt lat="42.880615" lon="2.4062033"><ele>730.0</ele><time>2026-04-26T05:06:54.728Z</time></trkpt><trkpt lat="42.8805467" lon="2.406015"><ele>727.0</ele><time>2026-04-26T05:06:55.73Z</time></trkpt><trkpt lat="42.8804933" lon="2.4058283"><ele>724.0</ele><time>2026-04-26T05:06:56.73Z</time></trkpt><trkpt lat="42.88044" lon="2.4056433"><ele>721.0</ele><time>2026-04-26T05:06:57.729Z</time></trkpt><trkpt lat="42.8804067" lon="2.4054517"><ele>718.75</ele><time>2026-04-26T05:06:58.729Z</time></trkpt><trkpt lat="42.8803983" lon="2.4052617"><ele>716.5</ele><time>2026-04-26T05:06:59.731Z</time></trkpt><trkpt lat="42.880395" lon="2.405075"><ele>714.25</ele><time>2026-04-26T05:07:00.729Z</time></trkpt><trkpt lat="42.8803983" lon="2.4048967"><ele>712.0</ele><time>2026-04-26T05:07:01.727Z</time></trkpt><trkpt lat="42.8804033" lon="2.4047233"><ele>710.0</ele><time>2026-04-26T05:07:02.729Z</time></trkpt><trkpt lat="42.8804267" lon="2.40457"><ele>708.0</ele><time>2026-04-26T05:07:03.728Z</time></trkpt><trkpt lat="42.88045" lon="2.4044183"><ele>706.0</ele><time>2026-04-26T05:07:04.732Z</time></trkpt><trkpt lat="42.88047" lon="2.404265"><ele>704.0</ele><time>2026-04-26T05:07:05.729Z</time></trkpt><trkpt lat="42.8804733" lon="2.4040983"><ele>704.0</ele><time>2026-04-26T05:07:06.73Z</time></trkpt><trkpt lat="42.8804633" lon="2.4039133"><ele>704.0</ele><time>2026-04-26T05:07:07.73Z</time></trkpt><trkpt lat="42.88043" lon="2.4037083"><ele>704.0</ele><time>2026-04-26T05:07:08.729Z</time></trkpt><trkpt lat="42.8803917" lon="2.4034883"><ele>701.6666666666666</ele><time>2026-04-26T05:07:09.727Z</time></trkpt><trkpt lat="42.8803633" lon="2.403265"><ele>699.3333333333334</ele><time>2026-04-26T05:07:10.727Z</time></trkpt><trkpt lat="42.8803283" lon="2.4030567"><ele>697.0</ele><time>2026-04-26T05:07:11.727Z</time></trkpt><trkpt lat="42.880305" lon="2.40286"><ele>696.25</ele><time>2026-04-26T05:07:12.728Z</time></trkpt><trkpt lat="42.8802733" lon="2.40267"><ele>695.5</ele><time>2026-04-26T05:07:13.73Z</time></trkpt><trkpt lat="42.880235" lon="2.4024783"><ele>694.75</ele><time>2026-04-26T05:07:14.729Z</time></trkpt><trkpt lat="42.8802033" lon="2.402305"><ele>694.0</ele><time>2026-04-26T05:07:15.729Z</time></trkpt><trkpt lat="42.880165" lon="2.4021283"><ele>693.75</ele><time>2026-04-26T05:07:16.729Z</time></trkpt><trkpt lat="42.880105" lon="2.401965"><ele>693.5</ele><time>2026-04-26T05:07:17.729Z</time></trkpt><trkpt lat="42.8800467" lon="2.4018083"><ele>693.25</ele><time>2026-04-26T05:07:18.729Z</time></trkpt><trkpt lat="42.8800067" lon="2.4016617"><ele>693.0</ele><time>2026-04-26T05:07:19.729Z</time></trkpt><trkpt lat="42.8799633" lon="2.4015017"><ele>693.75</ele><time>2026-04-26T05:07:20.73Z</time></trkpt><trkpt lat="42.87993" lon="2.401345"><ele>694.5</ele><time>2026-04-26T05:07:21.728Z</time></trkpt><trkpt lat="42.8798683" lon="2.40119"><ele>695.25</ele><time>2026-04-26T05:07:22.728Z</time></trkpt><trkpt lat="42.8798167" lon="2.4010383"><ele>696.0</ele><time>2026-04-26T05:07:23.728Z</time></trkpt><trkpt lat="42.8797483" lon="2.4008783"><ele>693.75</ele><time>2026-04-26T05:07:24.728Z</time></trkpt><trkpt lat="42.8796833" lon="2.4007233"><ele>691.5</ele><time>2026-04-26T05:07:25.729Z</time></trkpt><trkpt lat="42.87962" lon="2.4005667"><ele>689.25</ele><time>2026-04-26T05:07:26.73Z</time></trkpt><trkpt lat="42.8795433" lon="2.4004167"><ele>687.0</ele><time>2026-04-26T05:07:27.735Z</time></trkpt><trkpt lat="42.8794633" lon="2.4002533"><ele>686.25</ele><time>2026-04-26T05:07:28.727Z</time></trkpt><trkpt lat="42.87938" lon="2.4000967"><ele>685.5</ele><time>2026-04-26T05:07:29.729Z</time></trkpt><trkpt lat="42.8792917" lon="2.3999533"><ele>684.75</ele><time>2026-04-26T05:07:30.729Z</time></trkpt><trkpt lat="42.8792" lon="2.3998133"><ele>684.0</ele><time>2026-04-26T05:07:31.728Z</time></trkpt><trkpt lat="42.8791083" lon="2.399665"><ele>681.5</ele><time>2026-04-26T05:07:32.729Z</time></trkpt><trkpt lat="42.8790333" lon="2.3995117"><ele>679.0</ele><time>2026-04-26T05:07:33.728Z</time></trkpt><trkpt lat="42.8789683" lon="2.399365"><ele>676.5</ele><time>2026-04-26T05:07:34.73Z</time></trkpt><trkpt lat="42.8789167" lon="2.39922"><ele>674.0</ele><time>2026-04-26T05:07:35.728Z</time></trkpt><trkpt lat="42.878865" lon="2.3990817"><ele>674.0</ele><time>2026-04-26T05:07:36.727Z</time></trkpt><trkpt lat="42.8788067" lon="2.3989533"><ele>674.0</ele><time>2026-04-26T05:07:37.73Z</time></trkpt><trkpt lat="42.878735" lon="2.3988383"><ele>674.0</ele><time>2026-04-26T05:07:38.729Z</time></trkpt><trkpt lat="42.8786617" lon="2.3987317"><ele>674.0</ele><time>2026-04-26T05:07:39.729Z</time></trkpt><trkpt lat="42.8785967" lon="2.39864"><ele>674.0</ele><time>2026-04-26T05:07:40.729Z</time></trkpt><trkpt lat="42.8785317" lon="2.3985717"><ele>673.0</ele><time>2026-04-26T05:07:41.728Z</time></trkpt><trkpt lat="42.878465" lon="2.3985067"><ele>672.0</ele><time>2026-04-26T05:07:42.728Z</time></trkpt><trkpt lat="42.878405" lon="2.39843"><ele>671.0</ele><time>2026-04-26T05:07:43.728Z</time></trkpt><trkpt lat="42.8783567" lon="2.3983467"><ele>670.0</ele><time>2026-04-26T05:07:44.729Z</time></trkpt><trkpt lat="42.8783233" lon="2.3982583"><ele>669.0</ele><time>2026-04-26T05:07:45.729Z</time></trkpt><trkpt lat="42.878315" lon="2.3981683"><ele>668.0</ele><time>2026-04-26T05:07:46.727Z</time></trkpt><trkpt lat="42.8783267" lon="2.3980667"><ele>667.8</ele><time>2026-04-26T05:07:47.728Z</time></trkpt><trkpt lat="42.87836" lon="2.397975"><ele>667.5999999999999</ele><time>2026-04-26T05:07:48.728Z</time></trkpt><trkpt lat="42.8784167" lon="2.3978783"><ele>667.4000000000001</ele><time>2026-04-26T05:07:49.728Z</time></trkpt><trkpt lat="42.878465" lon="2.3977633"><ele>667.2</ele><time>2026-04-26T05:07:50.728Z</time></trkpt><trkpt lat="42.8784933" lon="2.397625"><ele>667.0</ele><time>2026-04-26T05:07:51.729Z</time></trkpt><trkpt lat="42.8785133" lon="2.3974733"><ele>667.0</ele><time>2026-04-26T05:07:52.727Z</time></trkpt><trkpt lat="42.8785167" lon="2.3973217"><ele>667.0</ele><time>2026-04-26T05:07:53.73Z</time></trkpt><trkpt lat="42.8784983" lon="2.3971733"><ele>667.0</ele><time>2026-04-26T05:07:54.728Z</time></trkpt><trkpt lat="42.87845" lon="2.3970267"><ele>667.0</ele><time>2026-04-26T05:07:55.728Z</time></trkpt><trkpt lat="42.8783917" lon="2.3968783"><ele>663.75</ele><time>2026-04-26T05:07:56.729Z</time></trkpt><trkpt lat="42.878345" lon="2.3967283"><ele>660.5</ele><time>2026-04-26T05:07:57.731Z</time></trkpt><trkpt lat="42.8783267" lon="2.39657"><ele>657.25</ele><time>2026-04-26T05:07:58.728Z</time></trkpt><trkpt lat="42.878345" lon="2.39641"><ele>654.0</ele><time>2026-04-26T05:07:59.729Z</time></trkpt><trkpt lat="42.8783867" lon="2.39625"><ele>654.0</ele><time>2026-04-26T05:08:00.73Z</time></trkpt><trkpt lat="42.8784233" lon="2.3960817"><ele>654.0</ele><time>2026-04-26T05:08:01.73Z</time></trkpt><trkpt lat="42.8784317" lon="2.3958967"><ele>654.0</ele><time>2026-04-26T05:08:02.729Z</time></trkpt><trkpt lat="42.87842" lon="2.3957033"><ele>654.0</ele><time>2026-04-26T05:08:03.73Z</time></trkpt><trkpt lat="42.8784083" lon="2.395515"><ele>654.0</ele><time>2026-04-26T05:08:04.727Z</time></trkpt><trkpt lat="42.878415" lon="2.3953233"><ele>654.0</ele><time>2026-04-26T05:08:05.731Z</time></trkpt><trkpt lat="42.87844" lon="2.39513"><ele>654.0</ele><time>2026-04-26T05:08:06.731Z</time></trkpt><trkpt lat="42.8784717" lon="2.3949367"><ele>654.0</ele><time>2026-04-26T05:08:07.73Z</time></trkpt><trkpt lat="42.8784967" lon="2.3947417"><ele>657.25</ele><time>2026-04-26T05:08:08.729Z</time></trkpt><trkpt lat="42.8785067" lon="2.394545"><ele>660.5</ele><time>2026-04-26T05:08:09.728Z</time></trkpt><trkpt lat="42.878495" lon="2.39435"><ele>663.75</ele><time>2026-04-26T05:08:10.728Z</time></trkpt><trkpt lat="42.8784717" lon="2.3941567"><ele>667.0</ele><time>2026-04-26T05:08:11.727Z</time></trkpt><trkpt lat="42.87844" lon="2.3939683"><ele>664.75</ele><time>2026-04-26T05:08:12.728Z</time></trkpt><trkpt lat="42.87841" lon="2.3937817"><ele>662.5</ele><time>2026-04-26T05:08:13.727Z</time></trkpt><trkpt lat="42.8783833" lon="2.3936017"><ele>660.25</ele><time>2026-04-26T05:08:14.728Z</time></trkpt><trkpt lat="42.87836" lon="2.3934233"><ele>658.0</ele><time>2026-04-26T05:08:15.73Z</time></trkpt><trkpt lat="42.8783317" lon="2.393245"><ele>658.0</ele><time>2026-04-26T05:08:16.729Z</time></trkpt><trkpt lat="42.8783033" lon="2.39307"><ele>658.0</ele><time>2026-04-26T05:08:17.728Z</time></trkpt><trkpt lat="42.8782783" lon="2.3928917"><ele>658.0</ele><time>2026-04-26T05:08:18.73Z</time></trkpt><trkpt lat="42.878265" lon="2.3927067"><ele>658.0</ele><time>2026-04-26T05:08:19.727Z</time></trkpt><trkpt lat="42.87826" lon="2.3925167"><ele>658.75</ele><time>2026-04-26T05:08:20.729Z</time></trkpt><trkpt lat="42.87826" lon="2.39232"><ele>659.5</ele><time>2026-04-26T05:08:21.728Z</time></trkpt><trkpt lat="42.8782633" lon="2.392115"><ele>660.25</ele><time>2026-04-26T05:08:22.728Z</time></trkpt><trkpt lat="42.8782633" lon="2.3919117"><ele>661.0</ele><time>2026-04-26T05:08:23.733Z</time></trkpt><trkpt lat="42.8782533" lon="2.3917083"><ele>662.25</ele><time>2026-04-26T05:08:24.728Z</time></trkpt><trkpt lat="42.878245" lon="2.3915083"><ele>663.5</ele><time>2026-04-26T05:08:25.728Z</time></trkpt><trkpt lat="42.8782367" lon="2.39132"><ele>664.75</ele><time>2026-04-26T05:08:26.73Z</time></trkpt><trkpt lat="42.8782317" lon="2.3911467"><ele>666.0</ele><time>2026-04-26T05:08:27.729Z</time></trkpt><trkpt lat="42.878225" lon="2.3909867"><ele>666.0</ele><time>2026-04-26T05:08:28.729Z</time></trkpt><trkpt lat="42.8782217" lon="2.3908483"><ele>666.0</ele><time>2026-04-26T05:08:29.728Z</time></trkpt><trkpt lat="42.8782183" lon="2.3907283"><ele>666.0</ele><time>2026-04-26T05:08:30.73Z</time></trkpt><trkpt lat="42.8782183" lon="2.3906283"><ele>666.0</ele><time>2026-04-26T05:08:31.728Z</time></trkpt><trkpt lat="42.8782117" lon="2.39054"><ele>666.0</ele><time>2026-04-26T05:08:32.728Z</time></trkpt><trkpt lat="42.8781633" lon="2.3904067"><ele>666.0</ele><time>2026-04-26T05:08:34.728Z</time></trkpt><trkpt lat="42.878105" lon="2.39035"><ele>665.4</ele><time>2026-04-26T05:08:35.737Z</time></trkpt><trkpt lat="42.8780417" lon="2.390275"><ele>664.8</ele><time>2026-04-26T05:08:36.728Z</time></trkpt><trkpt lat="42.8779833" lon="2.3901867"><ele>664.1999999999999</ele><time>2026-04-26T05:08:37.728Z</time></trkpt><trkpt lat="42.8779283" lon="2.39008"><ele>663.5999999999999</ele><time>2026-04-26T05:08:38.728Z</time></trkpt><trkpt lat="42.8778983" lon="2.389935"><ele>663.0</ele><time>2026-04-26T05:08:39.728Z</time></trkpt><trkpt lat="42.87787" lon="2.3897817"><ele>662.25</ele><time>2026-04-26T05:08:40.728Z</time></trkpt><trkpt lat="42.8778483" lon="2.389625"><ele>661.5</ele><time>2026-04-26T05:08:41.733Z</time></trkpt><trkpt lat="42.8778283" lon="2.3894583"><ele>660.75</ele><time>2026-04-26T05:08:42.728Z</time></trkpt><trkpt lat="42.877805" lon="2.3892933"><ele>660.0</ele><time>2026-04-26T05:08:43.728Z</time></trkpt><trkpt lat="42.8777783" lon="2.3891383"><ele>660.0</ele><time>2026-04-26T05:08:44.728Z</time></trkpt><trkpt lat="42.87775" lon="2.3889967"><ele>660.0</ele><time>2026-04-26T05:08:45.727Z</time></trkpt><trkpt lat="42.8777233" lon="2.3888633"><ele>660.0</ele><time>2026-04-26T05:08:46.729Z</time></trkpt><trkpt lat="42.87769" lon="2.3887317"><ele>660.0</ele><time>2026-04-26T05:08:47.728Z</time></trkpt><trkpt lat="42.877655" lon="2.388615"><ele>660.0</ele><time>2026-04-26T05:08:48.73Z</time></trkpt><trkpt lat="42.8776033" lon="2.3885033"><ele>661.5</ele><time>2026-04-26T05:08:49.728Z</time></trkpt><trkpt lat="42.8775467" lon="2.3884033"><ele>663.0</ele><time>2026-04-26T05:08:50.729Z</time></trkpt><trkpt lat="42.87749" lon="2.388325"><ele>664.5</ele><time>2026-04-26T05:08:51.729Z</time></trkpt><trkpt lat="42.8774383" lon="2.3882617"><ele>666.0</ele><time>2026-04-26T05:08:52.729Z</time></trkpt><trkpt lat="42.8773283" lon="2.3882417"><ele>667.5</ele><time>2026-04-26T05:08:54.728Z</time></trkpt><trkpt lat="42.877265" lon="2.38828"><ele>669.0</ele><time>2026-04-26T05:08:55.727Z</time></trkpt><trkpt lat="42.8772017" lon="2.388345"><ele>669.0</ele><time>2026-04-26T05:08:56.729Z</time></trkpt><trkpt lat="42.8771367" lon="2.38844"><ele>669.0</ele><time>2026-04-26T05:08:57.727Z</time></trkpt><trkpt lat="42.8770717" lon="2.38857"><ele>669.0</ele><time>2026-04-26T05:08:58.728Z</time></trkpt><trkpt lat="42.8770033" lon="2.38871"><ele>669.0</ele><time>2026-04-26T05:08:59.729Z</time></trkpt><trkpt lat="42.8769333" lon="2.3888433"><ele>668.25</ele><time>2026-04-26T05:09:00.729Z</time></trkpt><trkpt lat="42.8768583" lon="2.3889683"><ele>667.5</ele><time>2026-04-26T05:09:01.729Z</time></trkpt><trkpt lat="42.8767767" lon="2.3890817"><ele>666.75</ele><time>2026-04-26T05:09:02.729Z</time></trkpt><trkpt lat="42.87668" lon="2.3891833"><ele>666.0</ele><time>2026-04-26T05:09:03.73Z</time></trkpt><trkpt lat="42.876575" lon="2.389275"><ele>666.0</ele><time>2026-04-26T05:09:04.727Z</time></trkpt><trkpt lat="42.8764633" lon="2.3893683"><ele>666.0</ele><time>2026-04-26T05:09:05.73Z</time></trkpt><trkpt lat="42.8763483" lon="2.38947"><ele>666.0</ele><time>2026-04-26T05:09:06.729Z</time></trkpt><trkpt lat="42.87623" lon="2.389575"><ele>666.0</ele><time>2026-04-26T05:09:07.729Z</time></trkpt><trkpt lat="42.87611" lon="2.3896833"><ele>666.25</ele><time>2026-04-26T05:09:08.729Z</time></trkpt><trkpt lat="42.8759967" lon="2.3897883"><ele>666.5</ele><time>2026-04-26T05:09:09.729Z</time></trkpt><trkpt lat="42.8758917" lon="2.389885"><ele>666.75</ele><time>2026-04-26T05:09:10.729Z</time></trkpt><trkpt lat="42.8757917" lon="2.3899767"><ele>667.0</ele><time>2026-04-26T05:09:11.728Z</time></trkpt><trkpt lat="42.8756933" lon="2.39007"><ele>667.0</ele><time>2026-04-26T05:09:12.729Z</time></trkpt><trkpt lat="42.8756033" lon="2.3901633"><ele>667.0</ele><time>2026-04-26T05:09:13.728Z</time></trkpt><trkpt lat="42.8755167" lon="2.3902633"><ele>667.0</ele><time>2026-04-26T05:09:14.731Z</time></trkpt><trkpt lat="42.8754317" lon="2.3903733"><ele>667.0</ele><time>2026-04-26T05:09:15.729Z</time></trkpt><trkpt lat="42.8753467" lon="2.3904917"><ele>667.0</ele><time>2026-04-26T05:09:16.729Z</time></trkpt><trkpt lat="42.8752633" lon="2.3906083"><ele>667.0</ele><time>2026-04-26T05:09:17.728Z</time></trkpt><trkpt lat="42.8751783" lon="2.390715"><ele>667.0</ele><time>2026-04-26T05:09:18.73Z</time></trkpt><trkpt lat="42.8750983" lon="2.3908117"><ele>667.0</ele><time>2026-04-26T05:09:19.728Z</time></trkpt><trkpt lat="42.8750133" lon="2.390905"><ele>667.0</ele><time>2026-04-26T05:09:20.729Z</time></trkpt><trkpt lat="42.8749283" lon="2.390995"><ele>667.0</ele><time>2026-04-26T05:09:21.732Z</time></trkpt><trkpt lat="42.8748467" lon="2.3910767"><ele>667.0</ele><time>2026-04-26T05:09:22.727Z</time></trkpt><trkpt lat="42.8747583" lon="2.391155"><ele>667.0</ele><time>2026-04-26T05:09:23.728Z</time></trkpt><trkpt lat="42.8746633" lon="2.39124"><ele>667.0</ele><time>2026-04-26T05:09:24.727Z</time></trkpt><trkpt lat="42.874565" lon="2.391325"><ele>666.8</ele><time>2026-04-26T05:09:25.727Z</time></trkpt><trkpt lat="42.87447" lon="2.391405"><ele>666.6</ele><time>2026-04-26T05:09:26.728Z</time></trkpt><trkpt lat="42.8743883" lon="2.391485"><ele>666.4</ele><time>2026-04-26T05:09:27.727Z</time></trkpt><trkpt lat="42.8743183" lon="2.391575"><ele>666.1999999999999</ele><time>2026-04-26T05:09:28.729Z</time></trkpt><trkpt lat="42.8742517" lon="2.3916767"><ele>666.0</ele><time>2026-04-26T05:09:29.728Z</time></trkpt><trkpt lat="42.8741783" lon="2.391775"><ele>666.0</ele><time>2026-04-26T05:09:30.729Z</time></trkpt><trkpt lat="42.8741017" lon="2.3918683"><ele>666.0</ele><time>2026-04-26T05:09:31.729Z</time></trkpt><trkpt lat="42.8740217" lon="2.3919483"><ele>666.0</ele><time>2026-04-26T05:09:32.728Z</time></trkpt><trkpt lat="42.8739383" lon="2.39201"><ele>666.0</ele><time>2026-04-26T05:09:33.728Z</time></trkpt><trkpt lat="42.87386" lon="2.392055"><ele>666.0</ele><time>2026-04-26T05:09:34.729Z</time></trkpt><trkpt lat="42.8737883" lon="2.3920883"><ele>666.0</ele><time>2026-04-26T05:09:35.729Z</time></trkpt><trkpt lat="42.8737267" lon="2.3921133"><ele>666.0</ele><time>2026-04-26T05:09:36.728Z</time></trkpt><trkpt lat="42.8736217" lon="2.392185"><ele>666.0</ele><time>2026-04-26T05:09:38.727Z</time></trkpt><trkpt lat="42.8735" lon="2.3922917"><ele>666.0</ele><time>2026-04-26T05:09:40.728Z</time></trkpt><trkpt lat="42.873415" lon="2.39235"><ele>666.0</ele><time>2026-04-26T05:09:41.727Z</time></trkpt><trkpt lat="42.873325" lon="2.392415"><ele>666.6666666666666</ele><time>2026-04-26T05:09:42.729Z</time></trkpt><trkpt lat="42.8732367" lon="2.3924817"><ele>667.3333333333334</ele><time>2026-04-26T05:09:43.728Z</time></trkpt><trkpt lat="42.8731533" lon="2.3925417"><ele>668.0</ele><time>2026-04-26T05:09:44.729Z</time></trkpt><trkpt lat="42.87308" lon="2.3925817"><ele>668.6666666666667</ele><time>2026-04-26T05:09:45.727Z</time></trkpt><trkpt lat="42.8730067" lon="2.3926017"><ele>669.3333333333334</ele><time>2026-04-26T05:09:46.728Z</time></trkpt><trkpt lat="42.8729367" lon="2.3925967"><ele>670.0</ele><time>2026-04-26T05:09:47.728Z</time></trkpt><trkpt lat="42.8728617" lon="2.39255"><ele>670.0</ele><time>2026-04-26T05:09:48.729Z</time></trkpt><trkpt lat="42.8727817" lon="2.3924917"><ele>670.0</ele><time>2026-04-26T05:09:49.733Z</time></trkpt><trkpt lat="42.87269" lon="2.39242"><ele>670.0</ele><time>2026-04-26T05:09:50.729Z</time></trkpt><trkpt lat="42.8726033" lon="2.3923483"><ele>670.0</ele><time>2026-04-26T05:09:51.729Z</time></trkpt><trkpt lat="42.8725217" lon="2.3922817"><ele>670.0</ele><time>2026-04-26T05:09:52.728Z</time></trkpt><trkpt lat="42.8724517" lon="2.3922217"><ele>671.0</ele><time>2026-04-26T05:09:53.729Z</time></trkpt><trkpt lat="42.8723867" lon="2.3921733"><ele>672.0</ele><time>2026-04-26T05:09:54.729Z</time></trkpt><trkpt lat="42.8722867" lon="2.3921917"><ele>673.0</ele><time>2026-04-26T05:09:56.728Z</time></trkpt><trkpt lat="42.8722367" lon="2.392255"><ele>674.0</ele><time>2026-04-26T05:09:57.733Z</time></trkpt><trkpt lat="42.8721867" lon="2.3923383"><ele>675.0</ele><time>2026-04-26T05:09:58.727Z</time></trkpt><trkpt lat="42.8721367" lon="2.3924233"><ele>676.0</ele><time>2026-04-26T05:09:59.728Z</time></trkpt><trkpt lat="42.8720867" lon="2.3925083"><ele>676.0</ele><time>2026-04-26T05:10:00.729Z</time></trkpt><trkpt lat="42.8720383" lon="2.392595"><ele>676.0</ele><time>2026-04-26T05:10:01.728Z</time></trkpt><trkpt lat="42.8720017" lon="2.3926933"><ele>676.0</ele><time>2026-04-26T05:10:02.73Z</time></trkpt><trkpt lat="42.8719617" lon="2.3927917"><ele>676.0</ele><time>2026-04-26T05:10:03.73Z</time></trkpt><trkpt lat="42.87192" lon="2.3928933"><ele>676.0</ele><time>2026-04-26T05:10:04.733Z</time></trkpt><trkpt lat="42.8718717" lon="2.3929967"><ele>676.0</ele><time>2026-04-26T05:10:05.732Z</time></trkpt><trkpt lat="42.871815" lon="2.3931083"><ele>673.8</ele><time>2026-04-26T05:10:06.731Z</time></trkpt><trkpt lat="42.871755" lon="2.3932183"><ele>671.5999999999999</ele><time>2026-04-26T05:10:07.732Z</time></trkpt><trkpt lat="42.8716967" lon="2.3933317"><ele>669.4</ele><time>2026-04-26T05:10:08.73Z</time></trkpt><trkpt lat="42.8716417" lon="2.3934417"><ele>667.2</ele><time>2026-04-26T05:10:09.731Z</time></trkpt><trkpt lat="42.8715867" lon="2.393555"><ele>665.0</ele><time>2026-04-26T05:10:10.728Z</time></trkpt><trkpt lat="42.8715317" lon="2.3936767"><ele>665.0</ele><time>2026-04-26T05:10:11.729Z</time></trkpt><trkpt lat="42.871475" lon="2.3938017"><ele>665.0</ele><time>2026-04-26T05:10:12.729Z</time></trkpt><trkpt lat="42.8714167" lon="2.393925"><ele>665.0</ele><time>2026-04-26T05:10:13.729Z</time></trkpt><trkpt lat="42.8713617" lon="2.3940483"><ele>665.0</ele><time>2026-04-26T05:10:14.729Z</time></trkpt><trkpt lat="42.8713083" lon="2.3941667"><ele>665.0</ele><time>2026-04-26T05:10:15.729Z</time></trkpt><trkpt lat="42.871255" lon="2.39429"><ele>664.6</ele><time>2026-04-26T05:10:16.728Z</time></trkpt><trkpt lat="42.8712017" lon="2.394415"><ele>664.2</ele><time>2026-04-26T05:10:17.73Z</time></trkpt><trkpt lat="42.871155" lon="2.3945367"><ele>663.8</ele><time>2026-04-26T05:10:18.729Z</time></trkpt><trkpt lat="42.871105" lon="2.3946533"><ele>663.4</ele><time>2026-04-26T05:10:19.735Z</time></trkpt><trkpt lat="42.8710533" lon="2.3947683"><ele>663.0</ele><time>2026-04-26T05:10:20.731Z</time></trkpt><trkpt lat="42.8710067" lon="2.3948783"><ele>662.2857142857142</ele><time>2026-04-26T05:10:21.729Z</time></trkpt><trkpt lat="42.8709633" lon="2.3949783"><ele>661.5714285714286</ele><time>2026-04-26T05:10:22.728Z</time></trkpt><trkpt lat="42.87092" lon="2.39507"><ele>660.8571428571429</ele><time>2026-04-26T05:10:23.73Z</time></trkpt><trkpt lat="42.8708767" lon="2.3951533"><ele>660.1428571428571</ele><time>2026-04-26T05:10:24.728Z</time></trkpt><trkpt lat="42.8708417" lon="2.3952333"><ele>659.4285714285714</ele><time>2026-04-26T05:10:25.729Z</time></trkpt><trkpt lat="42.8708133" lon="2.3953167"><ele>658.7142857142857</ele><time>2026-04-26T05:10:26.73Z</time></trkpt><trkpt lat="42.8707917" lon="2.39541"><ele>658.0</ele><time>2026-04-26T05:10:27.729Z</time></trkpt><trkpt lat="42.8707817" lon="2.39551"><ele>655.2857142857143</ele><time>2026-04-26T05:10:28.728Z</time></trkpt><trkpt lat="42.87077" lon="2.3956117"><ele>652.5714285714286</ele><time>2026-04-26T05:10:29.728Z</time></trkpt><trkpt lat="42.87075" lon="2.3957067"><ele>649.8571428571429</ele><time>2026-04-26T05:10:30.73Z</time></trkpt><trkpt lat="42.87071" lon="2.3957817"><ele>647.1428571428571</ele><time>2026-04-26T05:10:31.728Z</time></trkpt><trkpt lat="42.87066" lon="2.3958367"><ele>644.4285714285714</ele><time>2026-04-26T05:10:32.728Z</time></trkpt><trkpt lat="42.8706" lon="2.395875"><ele>641.7142857142858</ele><time>2026-04-26T05:10:33.73Z</time></trkpt><trkpt lat="42.8705333" lon="2.3959083"><ele>639.0</ele><time>2026-04-26T05:10:34.73Z</time></trkpt><trkpt lat="42.87047" lon="2.395945"><ele>639.0</ele><time>2026-04-26T05:10:35.73Z</time></trkpt><trkpt lat="42.870355" lon="2.3959983"><ele>639.0</ele><time>2026-04-26T05:10:37.729Z</time></trkpt><trkpt lat="42.8702417" lon="2.395935"><ele>639.0</ele><time>2026-04-26T05:10:39.728Z</time></trkpt><trkpt lat="42.870185" lon="2.3958567"><ele>639.0</ele><time>2026-04-26T05:10:40.729Z</time></trkpt><trkpt lat="42.8701333" lon="2.3957667"><ele>639.0</ele><time>2026-04-26T05:10:41.729Z</time></trkpt><trkpt lat="42.8700833" lon="2.39567"><ele>636.3333333333334</ele><time>2026-04-26T05:10:42.729Z</time></trkpt><trkpt lat="42.87003" lon="2.39558"><ele>633.6666666666666</ele><time>2026-04-26T05:10:43.728Z</time></trkpt><trkpt lat="42.8699833" lon="2.3954967"><ele>631.0</ele><time>2026-04-26T05:10:44.73Z</time></trkpt><trkpt lat="42.8699317" lon="2.3954167"><ele>628.3333333333333</ele><time>2026-04-26T05:10:45.73Z</time></trkpt><trkpt lat="42.8698867" lon="2.3953367"><ele>625.6666666666666</ele><time>2026-04-26T05:10:46.728Z</time></trkpt><trkpt lat="42.8698417" lon="2.3952567"><ele>623.0</ele><time>2026-04-26T05:10:47.732Z</time></trkpt><trkpt lat="42.8697883" lon="2.39518"><ele>623.0</ele><time>2026-04-26T05:10:48.729Z</time></trkpt><trkpt lat="42.8697267" lon="2.3951117"><ele>623.0</ele><time>2026-04-26T05:10:49.737Z</time></trkpt><trkpt lat="42.8696667" lon="2.3950467"><ele>623.0</ele><time>2026-04-26T05:10:50.73Z</time></trkpt><trkpt lat="42.8696133" lon="2.3949783"><ele>623.0</ele><time>2026-04-26T05:10:51.73Z</time></trkpt><trkpt lat="42.8695583" lon="2.394905"><ele>623.0</ele><time>2026-04-26T05:10:52.73Z</time></trkpt><trkpt lat="42.8695083" lon="2.39482"><ele>623.0</ele><time>2026-04-26T05:10:53.73Z</time></trkpt><trkpt lat="42.8694633" lon="2.3947233"><ele>624.0</ele><time>2026-04-26T05:10:54.728Z</time></trkpt><trkpt lat="42.8694217" lon="2.394625"><ele>625.0</ele><time>2026-04-26T05:10:55.728Z</time></trkpt><trkpt lat="42.869375" lon="2.394535"><ele>626.0</ele><time>2026-04-26T05:10:56.73Z</time></trkpt><trkpt lat="42.86933" lon="2.3944683"><ele>627.0</ele><time>2026-04-26T05:10:57.733Z</time></trkpt><trkpt lat="42.8692267" lon="2.39441"><ele>628.0</ele><time>2026-04-26T05:10:59.729Z</time></trkpt><trkpt lat="42.86916" lon="2.3944217"><ele>629.0</ele><time>2026-04-26T05:11:00.729Z</time></trkpt><trkpt lat="42.869085" lon="2.3944317"><ele>626.6</ele><time>2026-04-26T05:11:01.73Z</time></trkpt><trkpt lat="42.8690017" lon="2.3944367"><ele>624.2</ele><time>2026-04-26T05:11:02.729Z</time></trkpt><trkpt lat="42.868915" lon="2.3944267"><ele>621.8000000000001</ele><time>2026-04-26T05:11:03.728Z</time></trkpt><trkpt lat="42.8688133" lon="2.3944217"><ele>619.4</ele><time>2026-04-26T05:11:04.731Z</time></trkpt><trkpt lat="42.8687167" lon="2.3944017"><ele>617.0</ele><time>2026-04-26T05:11:05.728Z</time></trkpt><trkpt lat="42.8686233" lon="2.39438"><ele>617.0</ele><time>2026-04-26T05:11:06.731Z</time></trkpt><trkpt lat="42.868535" lon="2.3943717"><ele>617.0</ele><time>2026-04-26T05:11:07.729Z</time></trkpt><trkpt lat="42.86845" lon="2.3943733"><ele>617.0</ele><time>2026-04-26T05:11:08.73Z</time></trkpt><trkpt lat="42.868375" lon="2.39438"><ele>617.0</ele><time>2026-04-26T05:11:09.729Z</time></trkpt><trkpt lat="42.86831" lon="2.394385"><ele>617.0</ele><time>2026-04-26T05:11:10.73Z</time></trkpt><trkpt lat="42.8681933" lon="2.3943967"><ele>617.0</ele><time>2026-04-26T05:11:12.728Z</time></trkpt><trkpt lat="42.868095" lon="2.3944383"><ele>617.8000000000001</ele><time>2026-04-26T05:11:14.731Z</time></trkpt><trkpt lat="42.8679983" lon="2.3945033"><ele>618.6</ele><time>2026-04-26T05:11:16.73Z</time></trkpt><trkpt lat="42.8678883" lon="2.39452"><ele>619.4000000000001</ele><time>2026-04-26T05:11:18.732Z</time></trkpt><trkpt lat="42.8677783" lon="2.394455"><ele>620.2</ele><time>2026-04-26T05:11:20.731Z</time></trkpt><trkpt lat="42.8677183" lon="2.3944017"><ele>621.0</ele><time>2026-04-26T05:11:21.73Z</time></trkpt><trkpt lat="42.8676667" lon="2.39434"><ele>621.0</ele><time>2026-04-26T05:11:22.729Z</time></trkpt><trkpt lat="42.8675633" lon="2.3942717"><ele>621.0</ele><time>2026-04-26T05:11:24.73Z</time></trkpt><trkpt lat="42.8674783" lon="2.3943433"><ele>621.0</ele><time>2026-04-26T05:11:26.729Z</time></trkpt><trkpt lat="42.8674917" lon="2.3945433"><ele>621.0</ele><time>2026-04-26T05:12:00.73Z</time></trkpt><trkpt lat="42.8675117" lon="2.3947067"><ele>621.0</ele><time>2026-04-26T05:12:02.731Z</time></trkpt><trkpt lat="42.8675267" lon="2.3948"><ele>621.0</ele><time>2026-04-26T05:12:03.731Z</time></trkpt><trkpt lat="42.867535" lon="2.3949017"><ele>621.0</ele><time>2026-04-26T05:12:04.731Z</time></trkpt><trkpt lat="42.867535" lon="2.395005"><ele>621.0</ele><time>2026-04-26T05:12:05.73Z</time></trkpt><trkpt lat="42.867525" lon="2.39512"><ele>621.0</ele><time>2026-04-26T05:12:06.73Z</time></trkpt><trkpt lat="42.8675083" lon="2.3952583"><ele>621.0</ele><time>2026-04-26T05:12:07.729Z</time></trkpt><trkpt lat="42.8674817" lon="2.395415"><ele>619.75</ele><time>2026-04-26T05:12:08.729Z</time></trkpt><trkpt lat="42.86745" lon="2.3955833"><ele>618.5</ele><time>2026-04-26T05:12:09.73Z</time></trkpt><trkpt lat="42.8674033" lon="2.39575"><ele>617.25</ele><time>2026-04-26T05:12:10.73Z</time></trkpt><trkpt lat="42.8673417" lon="2.3959117"><ele>616.0</ele><time>2026-04-26T05:12:11.73Z</time></trkpt><trkpt lat="42.86727" lon="2.396075"><ele>616.0</ele><time>2026-04-26T05:12:12.731Z</time></trkpt><trkpt lat="42.8671867" lon="2.3962417"><ele>616.0</ele><time>2026-04-26T05:12:13.731Z</time></trkpt><trkpt lat="42.8670967" lon="2.3964183"><ele>616.0</ele><time>2026-04-26T05:12:14.73Z</time></trkpt><trkpt lat="42.8670033" lon="2.396595"><ele>615.6666666666667</ele><time>2026-04-26T05:12:15.728Z</time></trkpt><trkpt lat="42.8669033" lon="2.3967683"><ele>615.3333333333334</ele><time>2026-04-26T05:12:16.73Z</time></trkpt><trkpt lat="42.8667967" lon="2.3969233"><ele>615.0</ele><time>2026-04-26T05:12:17.729Z</time></trkpt><trkpt lat="42.866685" lon="2.3970667"><ele>612.75</ele><time>2026-04-26T05:12:18.731Z</time></trkpt><trkpt lat="42.866575" lon="2.3972"><ele>610.5</ele><time>2026-04-26T05:12:19.728Z</time></trkpt><trkpt lat="42.8664733" lon="2.3973233"><ele>608.25</ele><time>2026-04-26T05:12:20.731Z</time></trkpt><trkpt lat="42.86639" lon="2.3974367"><ele>606.0</ele><time>2026-04-26T05:12:21.729Z</time></trkpt><trkpt lat="42.8663317" lon="2.3975433"><ele>606.0</ele><time>2026-04-26T05:12:22.729Z</time></trkpt><trkpt lat="42.86629" lon="2.397645"><ele>606.0</ele><time>2026-04-26T05:12:23.73Z</time></trkpt><trkpt lat="42.8662533" lon="2.397745"><ele>606.0</ele><time>2026-04-26T05:12:24.728Z</time></trkpt><trkpt lat="42.8662233" lon="2.3978367"><ele>606.0</ele><time>2026-04-26T05:12:25.73Z</time></trkpt><trkpt lat="42.8661983" lon="2.3979183"><ele>606.0</ele><time>2026-04-26T05:12:26.728Z</time></trkpt><trkpt lat="42.8661717" lon="2.3979967"><ele>606.0</ele><time>2026-04-26T05:12:27.729Z</time></trkpt><trkpt lat="42.8661283" lon="2.398105"><ele>604.5</ele><time>2026-04-26T05:12:29.73Z</time></trkpt><trkpt lat="42.8660783" lon="2.3981983"><ele>603.0</ele><time>2026-04-26T05:12:31.73Z</time></trkpt><trkpt lat="42.8660233" lon="2.398255"><ele>601.5</ele><time>2026-04-26T05:12:33.731Z</time></trkpt><trkpt lat="42.8659567" lon="2.3982667"><ele>600.0</ele><time>2026-04-26T05:12:35.729Z</time></trkpt><trkpt lat="42.8658817" lon="2.398255"><ele>598.5</ele><time>2026-04-26T05:12:37.728Z</time></trkpt><trkpt lat="42.8658017" lon="2.39824"><ele>597.0</ele><time>2026-04-26T05:12:39.729Z</time></trkpt><trkpt lat="42.8657117" lon="2.3982483"><ele>597.0</ele><time>2026-04-26T05:12:41.73Z</time></trkpt><trkpt lat="42.865645" lon="2.3982967"><ele>597.0</ele><time>2026-04-26T05:12:43.729Z</time></trkpt><trkpt lat="42.8656183" lon="2.3983833"><ele>597.0</ele><time>2026-04-26T05:12:45.728Z</time></trkpt><trkpt lat="42.865595" lon="2.398475"><ele>597.0</ele><time>2026-04-26T05:12:47.732Z</time></trkpt><trkpt lat="42.8655633" lon="2.3985833"><ele>597.0</ele><time>2026-04-26T05:12:49.732Z</time></trkpt><trkpt lat="42.8655133" lon="2.3987083"><ele>597.0</ele><time>2026-04-26T05:12:51.729Z</time></trkpt><trkpt lat="42.8654467" lon="2.3988133"><ele>596.8333333333334</ele><time>2026-04-26T05:12:53.729Z</time></trkpt><trkpt lat="42.8653783" lon="2.3988917"><ele>596.6666666666666</ele><time>2026-04-26T05:12:55.729Z</time></trkpt><trkpt lat="42.865315" lon="2.39895"><ele>596.5</ele><time>2026-04-26T05:12:57.728Z</time></trkpt><trkpt lat="42.86525" lon="2.3990117"><ele>596.3333333333333</ele><time>2026-04-26T05:12:59.727Z</time></trkpt><trkpt lat="42.8651717" lon="2.39908"><ele>596.1666666666666</ele><time>2026-04-26T05:13:01.728Z</time></trkpt><trkpt lat="42.8651" lon="2.3991417"><ele>596.0</ele><time>2026-04-26T05:13:03.727Z</time></trkpt><trkpt lat="42.8650383" lon="2.3991983"><ele>596.0</ele><time>2026-04-26T05:13:05.729Z</time></trkpt><trkpt lat="42.8649733" lon="2.3992583"><ele>596.0</ele><time>2026-04-26T05:13:07.728Z</time></trkpt><trkpt lat="42.8649333" lon="2.399325"><ele>596.0</ele><time>2026-04-26T05:13:09.727Z</time></trkpt><trkpt lat="42.8648917" lon="2.3994233"><ele>596.0</ele><time>2026-04-26T05:13:12.73Z</time></trkpt><trkpt lat="42.8648633" lon="2.3995083"><ele>596.0</ele><time>2026-04-26T05:13:15.728Z</time></trkpt><trkpt lat="42.864825" lon="2.39958"><ele>596.0</ele><time>2026-04-26T05:13:17.73Z</time></trkpt><trkpt lat="42.864775" lon="2.3996717"><ele>596.0</ele><time>2026-04-26T05:13:19.729Z</time></trkpt><trkpt lat="42.8647367" lon="2.3997517"><ele>594.6666666666666</ele><time>2026-04-26T05:13:21.728Z</time></trkpt><trkpt lat="42.8647033" lon="2.39986"><ele>593.3333333333333</ele><time>2026-04-26T05:13:24.729Z</time></trkpt><trkpt lat="42.8646717" lon="2.399955"><ele>592.0</ele><time>2026-04-26T05:13:27.734Z</time></trkpt><trkpt lat="42.8646283" lon="2.40005"><ele>590.6666666666666</ele><time>2026-04-26T05:13:30.728Z</time></trkpt><trkpt lat="42.8645867" lon="2.4001433"><ele>589.3333333333334</ele><time>2026-04-26T05:13:33.729Z</time></trkpt><trkpt lat="42.8645467" lon="2.4002233"><ele>588.0</ele><time>2026-04-26T05:13:35.728Z</time></trkpt><trkpt lat="42.8644967" lon="2.4002967"><ele>588.0</ele><time>2026-04-26T05:13:37.729Z</time></trkpt><trkpt lat="42.864445" lon="2.4003567"><ele>588.0</ele><time>2026-04-26T05:13:40.732Z</time></trkpt><trkpt lat="42.8643867" lon="2.400425"><ele>588.0</ele><time>2026-04-26T05:13:43.73Z</time></trkpt><trkpt lat="42.8643333" lon="2.400525"><ele>588.0</ele><time>2026-04-26T05:13:46.728Z</time></trkpt><trkpt lat="42.8643067" lon="2.400605"><ele>588.0</ele><time>2026-04-26T05:13:48.727Z</time></trkpt><trkpt lat="42.8642817" lon="2.4007183"><ele>588.0</ele><time>2026-04-26T05:13:51.732Z</time></trkpt><trkpt lat="42.864265" lon="2.4008033"><ele>587.0</ele><time>2026-04-26T05:13:53.728Z</time></trkpt><trkpt lat="42.8642383" lon="2.4008817"><ele>586.0</ele><time>2026-04-26T05:13:56.731Z</time></trkpt><trkpt lat="42.8642267" lon="2.4009683"><ele>585.0</ele><time>2026-04-26T05:13:59.729Z</time></trkpt><trkpt lat="42.8642167" lon="2.4010633"><ele>584.0</ele><time>2026-04-26T05:14:02.728Z</time></trkpt><trkpt lat="42.8641933" lon="2.4011633"><ele>583.0</ele><time>2026-04-26T05:14:05.727Z</time></trkpt><trkpt lat="42.8641733" lon="2.4012483"><ele>582.0</ele><time>2026-04-26T05:14:07.727Z</time></trkpt><trkpt lat="42.8641767" lon="2.4013533"><ele>581.0</ele><time>2026-04-26T05:14:10.728Z</time></trkpt><trkpt lat="42.8641683" lon="2.4014433"><ele>579.8333333333333</ele><time>2026-04-26T05:14:14.729Z</time></trkpt><trkpt lat="42.8641533" lon="2.40155"><ele>578.6666666666666</ele><time>2026-04-26T05:14:18.729Z</time></trkpt><trkpt lat="42.8641467" lon="2.4016467"><ele>577.5</ele><time>2026-04-26T05:14:21.729Z</time></trkpt><trkpt lat="42.8641483" lon="2.4017683"><ele>576.3333333333334</ele><time>2026-04-26T05:14:29.729Z</time></trkpt><trkpt lat="42.86414" lon="2.4018717"><ele>575.1666666666667</ele><time>2026-04-26T05:14:32.727Z</time></trkpt><trkpt lat="42.864125" lon="2.401975"><ele>574.0</ele><time>2026-04-26T05:14:34.728Z</time></trkpt><trkpt lat="42.86411" lon="2.4021067"><ele>572.8</ele><time>2026-04-26T05:14:36.728Z</time></trkpt><trkpt lat="42.864095" lon="2.4022783"><ele>571.5999999999999</ele><time>2026-04-26T05:14:38.731Z</time></trkpt><trkpt lat="42.8640817" lon="2.4023783"><ele>570.4</ele><time>2026-04-26T05:14:39.73Z</time></trkpt><trkpt lat="42.8640633" lon="2.4024883"><ele>569.1999999999999</ele><time>2026-04-26T05:14:40.73Z</time></trkpt><trkpt lat="42.86404" lon="2.40261"><ele>568.0</ele><time>2026-04-26T05:14:41.728Z</time></trkpt><trkpt lat="42.8640183" lon="2.4027417"><ele>568.0</ele><time>2026-04-26T05:14:42.729Z</time></trkpt><trkpt lat="42.8640067" lon="2.4028833"><ele>568.0</ele><time>2026-04-26T05:14:43.729Z</time></trkpt><trkpt lat="42.8639983" lon="2.40303"><ele>568.0</ele><time>2026-04-26T05:14:44.727Z</time></trkpt><trkpt lat="42.8640017" lon="2.4031867"><ele>568.0</ele><time>2026-04-26T05:14:45.727Z</time></trkpt><trkpt lat="42.8640033" lon="2.4033283"><ele>568.0</ele><time>2026-04-26T05:14:46.728Z</time></trkpt><trkpt lat="42.8639967" lon="2.40351"><ele>567.0</ele><time>2026-04-26T05:14:47.73Z</time></trkpt><trkpt lat="42.8639933" lon="2.4036983"><ele>566.0</ele><time>2026-04-26T05:14:48.727Z</time></trkpt><trkpt lat="42.8639967" lon="2.4038867"><ele>565.0</ele><time>2026-04-26T05:14:49.727Z</time></trkpt><trkpt lat="42.8640133" lon="2.4040767"><ele>564.0</ele><time>2026-04-26T05:14:50.729Z</time></trkpt><trkpt lat="42.8640233" lon="2.404275"><ele>561.6666666666666</ele><time>2026-04-26T05:14:51.73Z</time></trkpt><trkpt lat="42.8640167" lon="2.4044817"><ele>559.3333333333333</ele><time>2026-04-26T05:14:52.73Z</time></trkpt><trkpt lat="42.864005" lon="2.4046883"><ele>557.0</ele><time>2026-04-26T05:14:53.728Z</time></trkpt><trkpt lat="42.864" lon="2.4048933"><ele>555.75</ele><time>2026-04-26T05:14:54.728Z</time></trkpt><trkpt lat="42.8639867" lon="2.4050817"><ele>554.5</ele><time>2026-04-26T05:14:55.729Z</time></trkpt><trkpt lat="42.86398" lon="2.4052617"><ele>553.25</ele><time>2026-04-26T05:14:56.729Z</time></trkpt><trkpt lat="42.8639783" lon="2.40543"><ele>552.0</ele><time>2026-04-26T05:14:57.734Z</time></trkpt><trkpt lat="42.8639733" lon="2.4056017"><ele>551.25</ele><time>2026-04-26T05:14:58.729Z</time></trkpt><trkpt lat="42.86397" lon="2.40577"><ele>550.5</ele><time>2026-04-26T05:14:59.728Z</time></trkpt><trkpt lat="42.863965" lon="2.405935"><ele>549.75</ele><time>2026-04-26T05:15:00.729Z</time></trkpt><trkpt lat="42.8639617" lon="2.4061017"><ele>549.0</ele><time>2026-04-26T05:15:01.731Z</time></trkpt><trkpt lat="42.863965" lon="2.40626"><ele>548.0</ele><time>2026-04-26T05:15:02.734Z</time></trkpt><trkpt lat="42.863965" lon="2.4064133"><ele>547.0</ele><time>2026-04-26T05:15:03.729Z</time></trkpt><trkpt lat="42.8639617" lon="2.4065567"><ele>546.0</ele><time>2026-04-26T05:15:04.729Z</time></trkpt><trkpt lat="42.86396" lon="2.4066833"><ele>545.0</ele><time>2026-04-26T05:15:05.728Z</time></trkpt><trkpt lat="42.8639583" lon="2.4067967"><ele>544.0</ele><time>2026-04-26T05:15:06.728Z</time></trkpt><trkpt lat="42.863965" lon="2.406885"><ele>544.0</ele><time>2026-04-26T05:15:07.728Z</time></trkpt><trkpt lat="42.8639767" lon="2.4069933"><ele>544.0</ele><time>2026-04-26T05:15:09.729Z</time></trkpt><trkpt lat="42.8639767" lon="2.4072117"><ele>544.0</ele><time>2026-04-26T05:15:44.727Z</time></trkpt><trkpt lat="42.8639967" lon="2.4073683"><ele>544.0</ele><time>2026-04-26T05:15:46.727Z</time></trkpt><trkpt lat="42.8640067" lon="2.4074533"><ele>544.0</ele><time>2026-04-26T05:15:47.727Z</time></trkpt><trkpt lat="42.864015" lon="2.40754"><ele>543.6666666666667</ele><time>2026-04-26T05:15:48.729Z</time></trkpt><trkpt lat="42.86405" lon="2.407655"><ele>543.3333333333334</ele><time>2026-04-26T05:15:50.729Z</time></trkpt><trkpt lat="42.8640617" lon="2.40778"><ele>543.0</ele><time>2026-04-26T05:15:53.729Z</time></trkpt><trkpt lat="42.8640333" lon="2.4078983"><ele>542.6666666666666</ele><time>2026-04-26T05:15:55.729Z</time></trkpt><trkpt lat="42.864" lon="2.40798"><ele>542.3333333333333</ele><time>2026-04-26T05:15:56.73Z</time></trkpt><trkpt lat="42.86396" lon="2.408065"><ele>542.0</ele><time>2026-04-26T05:15:57.729Z</time></trkpt><trkpt lat="42.8639217" lon="2.40814"><ele>540.6</ele><time>2026-04-26T05:15:58.727Z</time></trkpt><trkpt lat="42.863895" lon="2.4082183"><ele>539.2</ele><time>2026-04-26T05:15:59.727Z</time></trkpt><trkpt lat="42.8639317" lon="2.40838"><ele>537.8</ele><time>2026-04-26T05:16:01.728Z</time></trkpt><trkpt lat="42.8639867" lon="2.4084567"><ele>536.4</ele><time>2026-04-26T05:16:02.729Z</time></trkpt><trkpt lat="42.8640767" lon="2.4085283"><ele>535.0</ele><time>2026-04-26T05:16:03.728Z</time></trkpt><trkpt lat="42.8641717" lon="2.4086017"><ele>535.0</ele><time>2026-04-26T05:16:04.729Z</time></trkpt><trkpt lat="42.8642683" lon="2.408675"><ele>535.0</ele><time>2026-04-26T05:16:05.733Z</time></trkpt><trkpt lat="42.8643617" lon="2.40876"><ele>535.0</ele><time>2026-04-26T05:16:06.732Z</time></trkpt><trkpt lat="42.8644533" lon="2.4088833"><ele>535.0</ele><time>2026-04-26T05:16:07.729Z</time></trkpt><trkpt lat="42.86453" lon="2.4090333"><ele>533.75</ele><time>2026-04-26T05:16:08.728Z</time></trkpt><trkpt lat="42.864595" lon="2.4092"><ele>532.5</ele><time>2026-04-26T05:16:09.728Z</time></trkpt><trkpt lat="42.8646567" lon="2.40937"><ele>531.25</ele><time>2026-04-26T05:16:10.727Z</time></trkpt><trkpt lat="42.8647117" lon="2.4095483"><ele>530.0</ele><time>2026-04-26T05:16:11.728Z</time></trkpt><trkpt lat="42.8647483" lon="2.40974"><ele>529.5</ele><time>2026-04-26T05:16:12.728Z</time></trkpt><trkpt lat="42.86477" lon="2.4099367"><ele>529.0</ele><time>2026-04-26T05:16:13.729Z</time></trkpt><trkpt lat="42.8647917" lon="2.4101367"><ele>528.5</ele><time>2026-04-26T05:16:14.728Z</time></trkpt><trkpt lat="42.8648183" lon="2.41034"><ele>528.0</ele><time>2026-04-26T05:16:15.727Z</time></trkpt><trkpt lat="42.8648517" lon="2.4105417"><ele>528.0</ele><time>2026-04-26T05:16:16.728Z</time></trkpt><trkpt lat="42.864885" lon="2.4107383"><ele>528.0</ele><time>2026-04-26T05:16:17.727Z</time></trkpt><trkpt lat="42.86491" lon="2.4109333"><ele>528.0</ele><time>2026-04-26T05:16:18.73Z</time></trkpt><trkpt lat="42.8649233" lon="2.4111333"><ele>528.0</ele><time>2026-04-26T05:16:19.729Z</time></trkpt><trkpt lat="42.8649233" lon="2.411345"><ele>526.6666666666666</ele><time>2026-04-26T05:16:20.728Z</time></trkpt><trkpt lat="42.8649167" lon="2.4115683"><ele>525.3333333333333</ele><time>2026-04-26T05:16:21.727Z</time></trkpt><trkpt lat="42.8649117" lon="2.411795"><ele>524.0</ele><time>2026-04-26T05:16:22.727Z</time></trkpt><trkpt lat="42.86491" lon="2.412015"><ele>522.6666666666666</ele><time>2026-04-26T05:16:23.728Z</time></trkpt><trkpt lat="42.8649067" lon="2.4122317"><ele>521.3333333333334</ele><time>2026-04-26T05:16:24.729Z</time></trkpt><trkpt lat="42.8648983" lon="2.4124483"><ele>520.0</ele><time>2026-04-26T05:16:25.727Z</time></trkpt><trkpt lat="42.86489" lon="2.4126683"><ele>520.0</ele><time>2026-04-26T05:16:26.73Z</time></trkpt><trkpt lat="42.8648817" lon="2.4128933"><ele>520.0</ele><time>2026-04-26T05:16:27.73Z</time></trkpt><trkpt lat="42.8648767" lon="2.4131217"><ele>520.0</ele><time>2026-04-26T05:16:28.728Z</time></trkpt><trkpt lat="42.8648733" lon="2.413355"><ele>519.6666666666667</ele><time>2026-04-26T05:16:29.729Z</time></trkpt><trkpt lat="42.8648783" lon="2.4135933"><ele>519.3333333333334</ele><time>2026-04-26T05:16:30.728Z</time></trkpt><trkpt lat="42.8648867" lon="2.413835"><ele>519.0</ele><time>2026-04-26T05:16:31.727Z</time></trkpt><trkpt lat="42.8648967" lon="2.4140717"><ele>516.6666666666666</ele><time>2026-04-26T05:16:32.729Z</time></trkpt><trkpt lat="42.8649033" lon="2.41431"><ele>514.3333333333333</ele><time>2026-04-26T05:16:33.728Z</time></trkpt><trkpt lat="42.8649133" lon="2.4145533"><ele>512.0</ele><time>2026-04-26T05:16:34.729Z</time></trkpt><trkpt lat="42.8649167" lon="2.4147983"><ele>510.0</ele><time>2026-04-26T05:16:35.728Z</time></trkpt><trkpt lat="42.8649167" lon="2.41505"><ele>508.0</ele><time>2026-04-26T05:16:36.729Z</time></trkpt><trkpt lat="42.864915" lon="2.4152967"><ele>506.0</ele><time>2026-04-26T05:16:37.733Z</time></trkpt><trkpt lat="42.8649067" lon="2.4155333"><ele>506.0</ele><time>2026-04-26T05:16:38.727Z</time></trkpt><trkpt lat="42.8648933" lon="2.4157583"><ele>506.0</ele><time>2026-04-26T05:16:39.728Z</time></trkpt><trkpt lat="42.8648867" lon="2.4159767"><ele>506.0</ele><time>2026-04-26T05:16:40.727Z</time></trkpt><trkpt lat="42.8648967" lon="2.4161917"><ele>506.5</ele><time>2026-04-26T05:16:41.729Z</time></trkpt><trkpt lat="42.8649267" lon="2.4163967"><ele>507.0</ele><time>2026-04-26T05:16:42.727Z</time></trkpt><trkpt lat="42.864975" lon="2.4165833"><ele>507.5</ele><time>2026-04-26T05:16:43.73Z</time></trkpt><trkpt lat="42.8650117" lon="2.4167783"><ele>508.0</ele><time>2026-04-26T05:16:44.728Z</time></trkpt><trkpt lat="42.865025" lon="2.4169817"><ele>507.6666666666667</ele><time>2026-04-26T05:16:45.727Z</time></trkpt><trkpt lat="42.865015" lon="2.417195"><ele>507.33333333333337</ele><time>2026-04-26T05:16:46.728Z</time></trkpt><trkpt lat="42.8649867" lon="2.4174133"><ele>507.0</ele><time>2026-04-26T05:16:47.731Z</time></trkpt><trkpt lat="42.8649567" lon="2.41764"><ele>507.0</ele><time>2026-04-26T05:16:48.728Z</time></trkpt><trkpt lat="42.864925" lon="2.4178783"><ele>507.0</ele><time>2026-04-26T05:16:49.733Z</time></trkpt><trkpt lat="42.8648917" lon="2.4181133"><ele>507.0</ele><time>2026-04-26T05:16:50.73Z</time></trkpt><trkpt lat="42.86486" lon="2.41834"><ele>507.0</ele><time>2026-04-26T05:16:51.736Z</time></trkpt><trkpt lat="42.8648283" lon="2.418555"><ele>507.0</ele><time>2026-04-26T05:16:52.73Z</time></trkpt><trkpt lat="42.864805" lon="2.4187483"><ele>507.0</ele><time>2026-04-26T05:16:53.73Z</time></trkpt><trkpt lat="42.8648" lon="2.4189317"><ele>507.0</ele><time>2026-04-26T05:16:54.731Z</time></trkpt><trkpt lat="42.8648067" lon="2.4191"><ele>507.0</ele><time>2026-04-26T05:16:55.73Z</time></trkpt><trkpt lat="42.864805" lon="2.4192583"><ele>507.0</ele><time>2026-04-26T05:16:56.731Z</time></trkpt><trkpt lat="42.864775" lon="2.4194133"><ele>507.0</ele><time>2026-04-26T05:16:57.729Z</time></trkpt><trkpt lat="42.864705" lon="2.4195567"><ele>507.0</ele><time>2026-04-26T05:16:58.729Z</time></trkpt><trkpt lat="42.8646167" lon="2.4197067"><ele>505.5</ele><time>2026-04-26T05:16:59.73Z</time></trkpt><trkpt lat="42.8645217" lon="2.4198583"><ele>504.0</ele><time>2026-04-26T05:17:00.728Z</time></trkpt><trkpt lat="42.8644283" lon="2.4200133"><ele>502.5</ele><time>2026-04-26T05:17:01.728Z</time></trkpt><trkpt lat="42.864335" lon="2.42017"><ele>501.0</ele><time>2026-04-26T05:17:02.729Z</time></trkpt><trkpt lat="42.8642367" lon="2.420325"><ele>500.33333333333337</ele><time>2026-04-26T05:17:03.728Z</time></trkpt><trkpt lat="42.8641283" lon="2.4204733"><ele>499.6666666666667</ele><time>2026-04-26T05:17:04.728Z</time></trkpt><trkpt lat="42.8640183" lon="2.4206283"><ele>499.0</ele><time>2026-04-26T05:17:05.727Z</time></trkpt><trkpt lat="42.863905" lon="2.4207933"><ele>499.0</ele><time>2026-04-26T05:17:06.728Z</time></trkpt><trkpt lat="42.8637933" lon="2.4209633"><ele>499.0</ele><time>2026-04-26T05:17:07.727Z</time></trkpt><trkpt lat="42.8636867" lon="2.42114"><ele>499.0</ele><time>2026-04-26T05:17:08.729Z</time></trkpt><trkpt lat="42.8635867" lon="2.4213217"><ele>500.0</ele><time>2026-04-26T05:17:09.728Z</time></trkpt><trkpt lat="42.8634933" lon="2.4215083"><ele>501.0</ele><time>2026-04-26T05:17:10.732Z</time></trkpt><trkpt lat="42.863415" lon="2.4217133"><ele>502.0</ele><time>2026-04-26T05:17:11.727Z</time></trkpt><trkpt lat="42.8633483" lon="2.4219333"><ele>500.33333333333337</ele><time>2026-04-26T05:17:12.727Z</time></trkpt><trkpt lat="42.8632917" lon="2.4221517"><ele>498.66666666666663</ele><time>2026-04-26T05:17:13.728Z</time></trkpt><trkpt lat="42.863245" lon="2.4223683"><ele>497.0</ele><time>2026-04-26T05:17:14.73Z</time></trkpt><trkpt lat="42.863205" lon="2.422585"><ele>497.0</ele><time>2026-04-26T05:17:15.728Z</time></trkpt><trkpt lat="42.8631733" lon="2.422805"><ele>497.0</ele><time>2026-04-26T05:17:16.73Z</time></trkpt><trkpt lat="42.8631483" lon="2.42303"><ele>497.0</ele><time>2026-04-26T05:17:17.729Z</time></trkpt><trkpt lat="42.8631333" lon="2.4232567"><ele>496.66666666666663</ele><time>2026-04-26T05:17:18.729Z</time></trkpt><trkpt lat="42.8631233" lon="2.4234817"><ele>496.33333333333337</ele><time>2026-04-26T05:17:19.734Z</time></trkpt><trkpt lat="42.86311" lon="2.4237033"><ele>496.0</ele><time>2026-04-26T05:17:20.73Z</time></trkpt><trkpt lat="42.8631033" lon="2.423915"><ele>495.6</ele><time>2026-04-26T05:17:21.727Z</time></trkpt><trkpt lat="42.8631" lon="2.42409"><ele>495.20000000000005</ele><time>2026-04-26T05:17:22.728Z</time></trkpt><trkpt lat="42.8631017" lon="2.4242167"><ele>494.79999999999995</ele><time>2026-04-26T05:17:23.728Z</time></trkpt><trkpt lat="42.8630967" lon="2.424405"><ele>494.4</ele><time>2026-04-26T05:17:39.728Z</time></trkpt><trkpt lat="42.863095" lon="2.42452"><ele>494.0</ele><time>2026-04-26T05:17:40.728Z</time></trkpt><trkpt lat="42.8630983" lon="2.424625"><ele>493.7142857142857</ele><time>2026-04-26T05:17:41.729Z</time></trkpt><trkpt lat="42.8631033" lon="2.4247133"><ele>493.42857142857144</ele><time>2026-04-26T05:17:42.729Z</time></trkpt><trkpt lat="42.8631" lon="2.4248"><ele>493.14285714285717</ele><time>2026-04-26T05:17:43.728Z</time></trkpt><trkpt lat="42.8630967" lon="2.4249033"><ele>492.8571428571429</ele><time>2026-04-26T05:17:44.729Z</time></trkpt><trkpt lat="42.863085" lon="2.4250033"><ele>492.57142857142856</ele><time>2026-04-26T05:17:45.729Z</time></trkpt><trkpt lat="42.86307" lon="2.42511"><ele>492.28571428571433</ele><time>2026-04-26T05:17:46.729Z</time></trkpt><trkpt lat="42.8630483" lon="2.4252133"><ele>492.00000000000006</ele><time>2026-04-26T05:17:47.732Z</time></trkpt><trkpt lat="42.863025" lon="2.4253167"><ele>492.0</ele><time>2026-04-26T05:17:48.728Z</time></trkpt><trkpt lat="42.8630033" lon="2.42541"><ele>492.0</ele><time>2026-04-26T05:17:49.729Z</time></trkpt><trkpt lat="42.86295" lon="2.4255267"><ele>492.0</ele><time>2026-04-26T05:17:51.73Z</time></trkpt><trkpt lat="42.8628733" lon="2.42559"><ele>492.0</ele><time>2026-04-26T05:17:54.732Z</time></trkpt><trkpt lat="42.8628283" lon="2.42566"><ele>492.0</ele><time>2026-04-26T05:17:56.729Z</time></trkpt><trkpt lat="42.8627767" lon="2.425725"><ele>492.0</ele><time>2026-04-26T05:17:59.728Z</time></trkpt><trkpt lat="42.8626967" lon="2.4257833"><ele>492.20000000000005</ele><time>2026-04-26T05:18:04.728Z</time></trkpt><trkpt lat="42.8626433" lon="2.4258367"><ele>492.40000000000003</ele><time>2026-04-26T05:18:06.73Z</time></trkpt><trkpt lat="42.862565" lon="2.4259667"><ele>492.59999999999997</ele><time>2026-04-26T05:18:08.727Z</time></trkpt><trkpt lat="42.862515" lon="2.4260567"><ele>492.79999999999995</ele><time>2026-04-26T05:18:09.728Z</time></trkpt><trkpt lat="42.8624483" lon="2.4261667"><ele>493.0</ele><time>2026-04-26T05:18:10.727Z</time></trkpt><trkpt lat="42.8623733" lon="2.426285"><ele>491.5</ele><time>2026-04-26T05:18:11.729Z</time></trkpt><trkpt lat="42.8623083" lon="2.4264233"><ele>490.0</ele><time>2026-04-26T05:18:12.728Z</time></trkpt><trkpt lat="42.862245" lon="2.4265717"><ele>488.5</ele><time>2026-04-26T05:18:13.728Z</time></trkpt><trkpt lat="42.86218" lon="2.42672"><ele>487.0</ele><time>2026-04-26T05:18:14.728Z</time></trkpt><trkpt lat="42.86212" lon="2.426845"><ele>487.0</ele><time>2026-04-26T05:18:15.729Z</time></trkpt><trkpt lat="42.8620567" lon="2.4269517"><ele>487.00000000000006</ele><time>2026-04-26T05:18:16.729Z</time></trkpt><trkpt lat="42.8619833" lon="2.4270317"><ele>487.00000000000006</ele><time>2026-04-26T05:18:17.728Z</time></trkpt><trkpt lat="42.8619017" lon="2.4270767"><ele>487.0</ele><time>2026-04-26T05:18:18.727Z</time></trkpt><trkpt lat="42.8618083" lon="2.4270917"><ele>487.0</ele><time>2026-04-26T05:18:19.728Z</time></trkpt><trkpt lat="42.8617183" lon="2.4270983"><ele>487.6666666666667</ele><time>2026-04-26T05:18:20.729Z</time></trkpt><trkpt lat="42.861645" lon="2.4271117"><ele>488.33333333333337</ele><time>2026-04-26T05:18:21.728Z</time></trkpt><trkpt lat="42.8615517" lon="2.4272"><ele>489.0</ele><time>2026-04-26T05:18:23.728Z</time></trkpt><trkpt lat="42.8615267" lon="2.4272867"><ele>489.66666666666663</ele><time>2026-04-26T05:18:24.729Z</time></trkpt><trkpt lat="42.8615033" lon="2.4273917"><ele>490.3333333333333</ele><time>2026-04-26T05:18:25.727Z</time></trkpt><trkpt lat="42.8614867" lon="2.4275083"><ele>491.0</ele><time>2026-04-26T05:18:26.728Z</time></trkpt><trkpt lat="42.86147" lon="2.42761"><ele>491.0</ele><time>2026-04-26T05:18:27.728Z</time></trkpt><trkpt lat="42.861455" lon="2.4277"><ele>491.0</ele><time>2026-04-26T05:18:28.728Z</time></trkpt><trkpt lat="42.861435" lon="2.4277867"><ele>491.0</ele><time>2026-04-26T05:18:29.726Z</time></trkpt><trkpt lat="42.8614" lon="2.4279283"><ele>491.0</ele><time>2026-04-26T05:18:31.727Z</time></trkpt><trkpt lat="42.8613633" lon="2.4280517"><ele>491.0</ele><time>2026-04-26T05:18:33.728Z</time></trkpt><trkpt lat="42.8613367" lon="2.4281967"><ele>490.4285714285714</ele><time>2026-04-26T05:18:35.728Z</time></trkpt><trkpt lat="42.86132" lon="2.4282833"><ele>489.8571428571428</ele><time>2026-04-26T05:18:36.728Z</time></trkpt><trkpt lat="42.8613" lon="2.4283733"><ele>489.2857142857143</ele><time>2026-04-26T05:18:37.726Z</time></trkpt><trkpt lat="42.8612817" lon="2.4284617"><ele>488.71428571428567</ele><time>2026-04-26T05:18:38.728Z</time></trkpt><trkpt lat="42.8612617" lon="2.4285483"><ele>488.1428571428571</ele><time>2026-04-26T05:18:39.728Z</time></trkpt><trkpt lat="42.86124" lon="2.428635"><ele>487.57142857142856</ele><time>2026-04-26T05:18:40.727Z</time></trkpt><trkpt lat="42.861215" lon="2.42873"><ele>487.0</ele><time>2026-04-26T05:18:41.731Z</time></trkpt><trkpt lat="42.86119" lon="2.4288183"><ele>486.50000000000006</ele><time>2026-04-26T05:18:42.727Z</time></trkpt><trkpt lat="42.8611617" lon="2.4289083"><ele>486.0</ele><time>2026-04-26T05:18:43.728Z</time></trkpt><trkpt lat="42.8611317" lon="2.4290133"><ele>485.5</ele><time>2026-04-26T05:18:44.728Z</time></trkpt><trkpt lat="42.8610983" lon="2.4291233"><ele>485.0</ele><time>2026-04-26T05:18:45.728Z</time></trkpt><trkpt lat="42.8610667" lon="2.4292417"><ele>484.50000000000006</ele><time>2026-04-26T05:18:46.727Z</time></trkpt><trkpt lat="42.8610317" lon="2.4293717"><ele>484.0</ele><time>2026-04-26T05:18:47.728Z</time></trkpt><trkpt lat="42.860995" lon="2.4294983"><ele>484.00000000000006</ele><time>2026-04-26T05:18:48.727Z</time></trkpt><trkpt lat="42.860965" lon="2.429625"><ele>484.0</ele><time>2026-04-26T05:18:49.728Z</time></trkpt><trkpt lat="42.8609367" lon="2.4297367"><ele>484.0</ele><time>2026-04-26T05:18:50.729Z</time></trkpt><trkpt lat="42.8609083" lon="2.4298467"><ele>484.0</ele><time>2026-04-26T05:18:51.728Z</time></trkpt><trkpt lat="42.8608817" lon="2.4299583"><ele>484.00000000000006</ele><time>2026-04-26T05:18:52.729Z</time></trkpt><trkpt lat="42.8608533" lon="2.430065"><ele>484.0</ele><time>2026-04-26T05:18:53.729Z</time></trkpt><trkpt lat="42.8608117" lon="2.430175"><ele>486.79999999999995</ele><time>2026-04-26T05:18:54.728Z</time></trkpt><trkpt lat="42.8607667" lon="2.4302983"><ele>489.59999999999997</ele><time>2026-04-26T05:18:55.728Z</time></trkpt><trkpt lat="42.8607183" lon="2.430425"><ele>492.4</ele><time>2026-04-26T05:18:56.728Z</time></trkpt><trkpt lat="42.8606767" lon="2.4305517"><ele>495.2</ele><time>2026-04-26T05:18:57.728Z</time></trkpt><trkpt lat="42.8606367" lon="2.4306683"><ele>498.0</ele><time>2026-04-26T05:18:58.73Z</time></trkpt><trkpt lat="42.860595" lon="2.4307833"><ele>498.0</ele><time>2026-04-26T05:18:59.729Z</time></trkpt><trkpt lat="42.86055" lon="2.4309033"><ele>497.99999999999994</ele><time>2026-04-26T05:19:00.728Z</time></trkpt><trkpt lat="42.8605067" lon="2.4310317"><ele>497.99999999999994</ele><time>2026-04-26T05:19:01.728Z</time></trkpt><trkpt lat="42.8604633" lon="2.4311667"><ele>498.0</ele><time>2026-04-26T05:19:02.73Z</time></trkpt><trkpt lat="42.8604167" lon="2.43131"><ele>498.0</ele><time>2026-04-26T05:19:03.729Z</time></trkpt><trkpt lat="42.8603667" lon="2.43146"><ele>498.5</ele><time>2026-04-26T05:19:04.728Z</time></trkpt><trkpt lat="42.86031" lon="2.431625"><ele>499.0</ele><time>2026-04-26T05:19:05.729Z</time></trkpt><trkpt lat="42.8602533" lon="2.4317883"><ele>499.5</ele><time>2026-04-26T05:19:06.728Z</time></trkpt><trkpt lat="42.8602033" lon="2.4319467"><ele>500.0</ele><time>2026-04-26T05:19:07.729Z</time></trkpt><trkpt lat="42.8601633" lon="2.432095"><ele>500.6</ele><time>2026-04-26T05:19:08.728Z</time></trkpt><trkpt lat="42.86013" lon="2.4322133"><ele>501.2</ele><time>2026-04-26T05:19:09.73Z</time></trkpt><trkpt lat="42.8600883" lon="2.4323133"><ele>501.79999999999995</ele><time>2026-04-26T05:19:10.728Z</time></trkpt><trkpt lat="42.8600383" lon="2.4323833"><ele>502.4</ele><time>2026-04-26T05:19:11.728Z</time></trkpt><trkpt lat="42.8599433" lon="2.432465"><ele>503.0</ele><time>2026-04-26T05:19:13.729Z</time></trkpt><trkpt lat="42.85984" lon="2.43255"><ele>505.66666666666663</ele><time>2026-04-26T05:19:15.729Z</time></trkpt><trkpt lat="42.8597867" lon="2.4326217"><ele>508.3333333333333</ele><time>2026-04-26T05:19:16.729Z</time></trkpt><trkpt lat="42.859735" lon="2.4327133"><ele>511.0</ele><time>2026-04-26T05:19:17.728Z</time></trkpt><trkpt lat="42.8596883" lon="2.4328033"><ele>513.6666666666666</ele><time>2026-04-26T05:19:18.728Z</time></trkpt><trkpt lat="42.8596617" lon="2.4328817"><ele>516.3333333333334</ele><time>2026-04-26T05:19:19.727Z</time></trkpt><trkpt lat="42.8595883" lon="2.432975"><ele>519.0</ele><time>2026-04-26T05:19:21.734Z</time></trkpt><trkpt lat="42.85948" lon="2.4329917"><ele>518.6666666666666</ele><time>2026-04-26T05:19:23.728Z</time></trkpt><trkpt lat="42.859355" lon="2.4330383"><ele>518.3333333333334</ele><time>2026-04-26T05:19:25.728Z</time></trkpt><trkpt lat="42.8592867" lon="2.4330617"><ele>518.0</ele><time>2026-04-26T05:19:26.73Z</time></trkpt><trkpt lat="42.85922" lon="2.4331133"><ele>517.6666666666667</ele><time>2026-04-26T05:19:27.729Z</time></trkpt><trkpt lat="42.8591517" lon="2.433155"><ele>517.3333333333334</ele><time>2026-04-26T05:19:28.73Z</time></trkpt><trkpt lat="42.8590867" lon="2.43318"><ele>517.0</ele><time>2026-04-26T05:19:29.729Z</time></trkpt><trkpt lat="42.8590267" lon="2.4332233"><ele>517.0</ele><time>2026-04-26T05:19:30.729Z</time></trkpt><trkpt lat="42.8589767" lon="2.433285"><ele>517.0</ele><time>2026-04-26T05:19:31.729Z</time></trkpt><trkpt lat="42.8589467" lon="2.4333717"><ele>517.0</ele><time>2026-04-26T05:19:32.729Z</time></trkpt><trkpt lat="42.8589433" lon="2.43349"><ele>517.0</ele><time>2026-04-26T05:19:33.728Z</time></trkpt><trkpt lat="42.8589467" lon="2.4336267"><ele>517.0</ele><time>2026-04-26T05:19:34.73Z</time></trkpt><trkpt lat="42.8589617" lon="2.433785"><ele>517.0</ele><time>2026-04-26T05:19:35.728Z</time></trkpt><trkpt lat="42.85897" lon="2.4339583"><ele>516.25</ele><time>2026-04-26T05:19:36.728Z</time></trkpt><trkpt lat="42.8589767" lon="2.4341367"><ele>515.5</ele><time>2026-04-26T05:19:37.728Z</time></trkpt><trkpt lat="42.85898" lon="2.4343167"><ele>514.75</ele><time>2026-04-26T05:19:38.729Z</time></trkpt><trkpt lat="42.8589917" lon="2.4345"><ele>514.0</ele><time>2026-04-26T05:19:39.728Z</time></trkpt><trkpt lat="42.859005" lon="2.434675"><ele>512.5</ele><time>2026-04-26T05:19:40.729Z</time></trkpt><trkpt lat="42.859015" lon="2.4348417"><ele>511.0</ele><time>2026-04-26T05:19:41.728Z</time></trkpt><trkpt lat="42.8590217" lon="2.4350033"><ele>509.5</ele><time>2026-04-26T05:19:42.728Z</time></trkpt><trkpt lat="42.859025" lon="2.4351617"><ele>508.0</ele><time>2026-04-26T05:19:43.728Z</time></trkpt><trkpt lat="42.8590233" lon="2.4353"><ele>508.0</ele><time>2026-04-26T05:19:44.73Z</time></trkpt><trkpt lat="42.859035" lon="2.4354183"><ele>507.99999999999994</ele><time>2026-04-26T05:19:45.731Z</time></trkpt><trkpt lat="42.8590733" lon="2.435525"><ele>507.99999999999994</ele><time>2026-04-26T05:19:46.728Z</time></trkpt><trkpt lat="42.859155" lon="2.4355717"><ele>508.0</ele><time>2026-04-26T05:19:47.728Z</time></trkpt><trkpt lat="42.8592617" lon="2.43556"><ele>508.0</ele><time>2026-04-26T05:19:48.729Z</time></trkpt><trkpt lat="42.8593717" lon="2.43553"><ele>506.0</ele><time>2026-04-26T05:19:49.729Z</time></trkpt><trkpt lat="42.8594833" lon="2.4355333"><ele>504.0</ele><time>2026-04-26T05:19:50.729Z</time></trkpt><trkpt lat="42.8595933" lon="2.43559"><ele>502.0</ele><time>2026-04-26T05:19:51.73Z</time></trkpt><trkpt lat="42.8597083" lon="2.4356867"><ele>500.0</ele><time>2026-04-26T05:19:52.729Z</time></trkpt><trkpt lat="42.859825" lon="2.4357883"><ele>500.0</ele><time>2026-04-26T05:19:53.73Z</time></trkpt><trkpt lat="42.8599483" lon="2.435865"><ele>500.0</ele><time>2026-04-26T05:19:54.731Z</time></trkpt><trkpt lat="42.8600717" lon="2.4359317"><ele>500.0</ele><time>2026-04-26T05:19:55.734Z</time></trkpt><trkpt lat="42.8601917" lon="2.4359933"><ele>500.0</ele><time>2026-04-26T05:19:56.728Z</time></trkpt><trkpt lat="42.8603" lon="2.4360483"><ele>497.2</ele><time>2026-04-26T05:19:57.728Z</time></trkpt><trkpt lat="42.8604033" lon="2.4360567"><ele>494.4</ele><time>2026-04-26T05:19:58.727Z</time></trkpt><trkpt lat="42.8605" lon="2.4360133"><ele>491.6</ele><time>2026-04-26T05:19:59.73Z</time></trkpt><trkpt lat="42.8605817" lon="2.4359117"><ele>488.8</ele><time>2026-04-26T05:20:00.729Z</time></trkpt><trkpt lat="42.86066" lon="2.43578"><ele>486.0</ele><time>2026-04-26T05:20:01.732Z</time></trkpt><trkpt lat="42.8607383" lon="2.4356317"><ele>486.0</ele><time>2026-04-26T05:20:02.728Z</time></trkpt><trkpt lat="42.86082" lon="2.43549"><ele>486.0</ele><time>2026-04-26T05:20:03.728Z</time></trkpt><trkpt lat="42.8608967" lon="2.4353517"><ele>486.0</ele><time>2026-04-26T05:20:04.729Z</time></trkpt><trkpt lat="42.860965" lon="2.4352217"><ele>486.0</ele><time>2026-04-26T05:20:05.729Z</time></trkpt><trkpt lat="42.861025" lon="2.4351183"><ele>484.6666666666667</ele><time>2026-04-26T05:20:06.727Z</time></trkpt><trkpt lat="42.8610833" lon="2.4350367"><ele>483.33333333333337</ele><time>2026-04-26T05:20:07.728Z</time></trkpt><trkpt lat="42.86118" lon="2.435055"><ele>482.0</ele><time>2026-04-26T05:20:09.73Z</time></trkpt><trkpt lat="42.8612117" lon="2.4351333"><ele>480.6666666666667</ele><time>2026-04-26T05:20:10.73Z</time></trkpt><trkpt lat="42.8611933" lon="2.4352417"><ele>479.33333333333337</ele><time>2026-04-26T05:20:11.733Z</time></trkpt><trkpt lat="42.8611583" lon="2.435355"><ele>478.0</ele><time>2026-04-26T05:20:12.729Z</time></trkpt><trkpt lat="42.8611133" lon="2.4354833"><ele>477.0</ele><time>2026-04-26T05:20:13.728Z</time></trkpt><trkpt lat="42.861055" lon="2.43564"><ele>476.0</ele><time>2026-04-26T05:20:14.728Z</time></trkpt><trkpt lat="42.8609983" lon="2.4358117"><ele>475.0</ele><time>2026-04-26T05:20:15.728Z</time></trkpt><trkpt lat="42.8609433" lon="2.436"><ele>474.0</ele><time>2026-04-26T05:20:16.729Z</time></trkpt><trkpt lat="42.8608917" lon="2.4361867"><ele>474.75</ele><time>2026-04-26T05:20:17.728Z</time></trkpt><trkpt lat="42.8608517" lon="2.436375"><ele>475.5</ele><time>2026-04-26T05:20:18.728Z</time></trkpt><trkpt lat="42.8608283" lon="2.4365617"><ele>476.25</ele><time>2026-04-26T05:20:19.729Z</time></trkpt><trkpt lat="42.8608183" lon="2.4367383"><ele>477.0</ele><time>2026-04-26T05:20:20.728Z</time></trkpt><trkpt lat="42.8608233" lon="2.436895"><ele>477.0</ele><time>2026-04-26T05:20:21.73Z</time></trkpt><trkpt lat="42.860855" lon="2.437025"><ele>477.00000000000006</ele><time>2026-04-26T05:20:22.728Z</time></trkpt><trkpt lat="42.8609" lon="2.43713"><ele>477.00000000000006</ele><time>2026-04-26T05:20:23.729Z</time></trkpt><trkpt lat="42.860975" lon="2.4372117"><ele>477.0</ele><time>2026-04-26T05:20:24.729Z</time></trkpt><trkpt lat="42.8610933" lon="2.4371967"><ele>477.0</ele><time>2026-04-26T05:20:25.727Z</time></trkpt><trkpt lat="42.8612233" lon="2.4371633"><ele>475.5</ele><time>2026-04-26T05:20:26.728Z</time></trkpt><trkpt lat="42.86135" lon="2.4371617"><ele>474.0</ele><time>2026-04-26T05:20:27.728Z</time></trkpt><trkpt lat="42.86149" lon="2.4371617"><ele>472.5</ele><time>2026-04-26T05:20:28.729Z</time></trkpt><trkpt lat="42.8616083" lon="2.437215"><ele>471.0</ele><time>2026-04-26T05:20:29.728Z</time></trkpt><trkpt lat="42.8616983" lon="2.4373283"><ele>471.0</ele><time>2026-04-26T05:20:30.729Z</time></trkpt><trkpt lat="42.8617633" lon="2.4374567"><ele>471.0</ele><time>2026-04-26T05:20:31.729Z</time></trkpt><trkpt lat="42.8618117" lon="2.43757"><ele>471.0</ele><time>2026-04-26T05:20:32.729Z</time></trkpt><trkpt lat="42.86185" lon="2.437655"><ele>471.0</ele><time>2026-04-26T05:20:33.73Z</time></trkpt><trkpt lat="42.8618983" lon="2.437745"><ele>471.0</ele><time>2026-04-26T05:20:35.728Z</time></trkpt><trkpt lat="42.8619183" lon="2.437865"><ele>474.25</ele><time>2026-04-26T05:20:47.728Z</time></trkpt><trkpt lat="42.86193" lon="2.4379983"><ele>477.5</ele><time>2026-04-26T05:20:48.729Z</time></trkpt><trkpt lat="42.861935" lon="2.4381517"><ele>480.75</ele><time>2026-04-26T05:20:49.728Z</time></trkpt><trkpt lat="42.8619433" lon="2.4383233"><ele>484.0</ele><time>2026-04-26T05:20:50.729Z</time></trkpt><trkpt lat="42.8619567" lon="2.43851"><ele>484.0</ele><time>2026-04-26T05:20:51.728Z</time></trkpt><trkpt lat="42.8619733" lon="2.4387117"><ele>484.0</ele><time>2026-04-26T05:20:52.729Z</time></trkpt><trkpt lat="42.86199" lon="2.4389217"><ele>484.0</ele><time>2026-04-26T05:20:53.727Z</time></trkpt><trkpt lat="42.8620217" lon="2.43914"><ele>483.0</ele><time>2026-04-26T05:20:54.729Z</time></trkpt><trkpt lat="42.8620683" lon="2.4393467"><ele>482.0</ele><time>2026-04-26T05:20:55.728Z</time></trkpt><trkpt lat="42.8621333" lon="2.4395417"><ele>481.0</ele><time>2026-04-26T05:20:56.731Z</time></trkpt><trkpt lat="42.8621983" lon="2.43972"><ele>480.5</ele><time>2026-04-26T05:20:57.729Z</time></trkpt><trkpt lat="42.8622433" lon="2.4398833"><ele>480.0</ele><time>2026-04-26T05:20:58.729Z</time></trkpt><trkpt lat="42.8622533" lon="2.440035"><ele>479.5</ele><time>2026-04-26T05:20:59.733Z</time></trkpt><trkpt lat="42.86222" lon="2.4401717"><ele>479.0</ele><time>2026-04-26T05:21:00.729Z</time></trkpt><trkpt lat="42.8621483" lon="2.440295"><ele>479.0</ele><time>2026-04-26T05:21:01.731Z</time></trkpt><trkpt lat="42.8620533" lon="2.4404167"><ele>479.0</ele><time>2026-04-26T05:21:02.731Z</time></trkpt><trkpt lat="42.861955" lon="2.4405567"><ele>479.0</ele><time>2026-04-26T05:21:03.729Z</time></trkpt><trkpt lat="42.8618717" lon="2.440715"><ele>479.0</ele><time>2026-04-26T05:21:04.727Z</time></trkpt><trkpt lat="42.8618033" lon="2.4408883"><ele>476.3333333333333</ele><time>2026-04-26T05:21:05.729Z</time></trkpt><trkpt lat="42.8617533" lon="2.4410767"><ele>473.66666666666663</ele><time>2026-04-26T05:21:06.729Z</time></trkpt><trkpt lat="42.8617283" lon="2.4412767"><ele>471.0</ele><time>2026-04-26T05:21:07.728Z</time></trkpt><trkpt lat="42.8617233" lon="2.4414933"><ele>471.0</ele><time>2026-04-26T05:21:08.728Z</time></trkpt><trkpt lat="42.8617183" lon="2.44172"><ele>471.0</ele><time>2026-04-26T05:21:09.728Z</time></trkpt><trkpt lat="42.8617167" lon="2.4419467"><ele>471.0</ele><time>2026-04-26T05:21:10.729Z</time></trkpt><trkpt lat="42.86171" lon="2.4421783"><ele>471.33333333333337</ele><time>2026-04-26T05:21:11.728Z</time></trkpt><trkpt lat="42.8617" lon="2.4424133"><ele>471.6666666666667</ele><time>2026-04-26T05:21:12.728Z</time></trkpt><trkpt lat="42.86168" lon="2.44265"><ele>472.0</ele><time>2026-04-26T05:21:13.728Z</time></trkpt><trkpt lat="42.86165" lon="2.4428817"><ele>472.33333333333337</ele><time>2026-04-26T05:21:14.73Z</time></trkpt><trkpt lat="42.8616133" lon="2.4431183"><ele>472.66666666666663</ele><time>2026-04-26T05:21:15.731Z</time></trkpt><trkpt lat="42.8615767" lon="2.4433467"><ele>473.0</ele><time>2026-04-26T05:21:16.729Z</time></trkpt><trkpt lat="42.8615383" lon="2.4435633"><ele>473.0</ele><time>2026-04-26T05:21:17.734Z</time></trkpt><trkpt lat="42.861505" lon="2.44376"><ele>473.0</ele><time>2026-04-26T05:21:18.73Z</time></trkpt><trkpt lat="42.8614867" lon="2.4439383"><ele>473.0</ele><time>2026-04-26T05:21:19.73Z</time></trkpt><trkpt lat="42.861495" lon="2.44409"><ele>473.0</ele><time>2026-04-26T05:21:20.729Z</time></trkpt><trkpt lat="42.8615317" lon="2.4441933"><ele>472.99999999999994</ele><time>2026-04-26T05:21:21.728Z</time></trkpt><trkpt lat="42.8615833" lon="2.44427"><ele>473.0</ele><time>2026-04-26T05:21:22.728Z</time></trkpt><trkpt lat="42.86165" lon="2.44432"><ele>473.0</ele><time>2026-04-26T05:21:23.727Z</time></trkpt><trkpt lat="42.8617083" lon="2.4443683"><ele>473.0</ele><time>2026-04-26T05:21:24.729Z</time></trkpt><trkpt lat="42.861805" lon="2.4443483"><ele>472.99999999999994</ele><time>2026-04-26T05:21:25.729Z</time></trkpt><trkpt lat="42.8619133" lon="2.4443133"><ele>473.0</ele><time>2026-04-26T05:21:26.731Z</time></trkpt><trkpt lat="42.8620367" lon="2.4442867"><ele>473.59999999999997</ele><time>2026-04-26T05:21:27.729Z</time></trkpt><trkpt lat="42.8621567" lon="2.44425"><ele>474.19999999999993</ele><time>2026-04-26T05:21:28.729Z</time></trkpt><trkpt lat="42.8622683" lon="2.44424"><ele>474.8</ele><time>2026-04-26T05:21:29.73Z</time></trkpt><trkpt lat="42.86237" lon="2.4442817"><ele>475.4</ele><time>2026-04-26T05:21:30.728Z</time></trkpt><trkpt lat="42.8624233" lon="2.4444033"><ele>476.0</ele><time>2026-04-26T05:21:31.731Z</time></trkpt><trkpt lat="42.86243" lon="2.4445517"><ele>477.0</ele><time>2026-04-26T05:21:32.729Z</time></trkpt><trkpt lat="42.862385" lon="2.4446933"><ele>478.0</ele><time>2026-04-26T05:21:33.728Z</time></trkpt><trkpt lat="42.8622933" lon="2.4448133"><ele>479.0</ele><time>2026-04-26T05:21:34.73Z</time></trkpt><trkpt lat="42.8621833" lon="2.4449267"><ele>480.0</ele><time>2026-04-26T05:21:35.727Z</time></trkpt><trkpt lat="42.8620717" lon="2.4450383"><ele>480.0</ele><time>2026-04-26T05:21:36.727Z</time></trkpt><trkpt lat="42.8619567" lon="2.4451533"><ele>480.0</ele><time>2026-04-26T05:21:37.727Z</time></trkpt><trkpt lat="42.8618467" lon="2.4452683"><ele>480.0</ele><time>2026-04-26T05:21:38.729Z</time></trkpt><trkpt lat="42.86175" lon="2.4453833"><ele>480.0</ele><time>2026-04-26T05:21:39.73Z</time></trkpt><trkpt lat="42.861675" lon="2.4455117"><ele>480.5</ele><time>2026-04-26T05:21:40.727Z</time></trkpt><trkpt lat="42.8616283" lon="2.4456633"><ele>481.0</ele><time>2026-04-26T05:21:41.729Z</time></trkpt><trkpt lat="42.8616333" lon="2.445825"><ele>481.5</ele><time>2026-04-26T05:21:42.728Z</time></trkpt><trkpt lat="42.8616833" lon="2.4459833"><ele>482.0</ele><time>2026-04-26T05:21:43.727Z</time></trkpt><trkpt lat="42.86177" lon="2.4461233"><ele>483.3333333333333</ele><time>2026-04-26T05:21:44.729Z</time></trkpt><trkpt lat="42.8618833" lon="2.4462567"><ele>484.66666666666663</ele><time>2026-04-26T05:21:45.728Z</time></trkpt><trkpt lat="42.8620133" lon="2.446385"><ele>486.0</ele><time>2026-04-26T05:21:46.728Z</time></trkpt><trkpt lat="42.8621483" lon="2.4465217"><ele>486.0</ele><time>2026-04-26T05:21:47.727Z</time></trkpt><trkpt lat="42.8622833" lon="2.446665"><ele>486.0</ele><time>2026-04-26T05:21:48.728Z</time></trkpt><trkpt lat="42.8624133" lon="2.4468167"><ele>486.0</ele><time>2026-04-26T05:21:49.729Z</time></trkpt><trkpt lat="42.8625433" lon="2.4469667"><ele>488.33333333333337</ele><time>2026-04-26T05:21:50.729Z</time></trkpt><trkpt lat="42.8626667" lon="2.44711"><ele>490.6666666666667</ele><time>2026-04-26T05:21:51.728Z</time></trkpt><trkpt lat="42.86278" lon="2.4472567"><ele>493.0</ele><time>2026-04-26T05:21:52.728Z</time></trkpt><trkpt lat="42.86288" lon="2.4474183"><ele>493.0</ele><time>2026-04-26T05:21:53.735Z</time></trkpt><trkpt lat="42.8629467" lon="2.4476183"><ele>493.0</ele><time>2026-04-26T05:21:54.728Z</time></trkpt><trkpt lat="42.862995" lon="2.4478333"><ele>493.0</ele><time>2026-04-26T05:21:55.728Z</time></trkpt><trkpt lat="42.86303" lon="2.4480583"><ele>493.6666666666667</ele><time>2026-04-26T05:21:56.73Z</time></trkpt><trkpt lat="42.8630617" lon="2.4482883"><ele>494.33333333333337</ele><time>2026-04-26T05:21:57.728Z</time></trkpt><trkpt lat="42.8630967" lon="2.44852"><ele>495.0</ele><time>2026-04-26T05:21:58.728Z</time></trkpt><trkpt lat="42.8631267" lon="2.4487533"><ele>496.0</ele><time>2026-04-26T05:21:59.729Z</time></trkpt><trkpt lat="42.8631533" lon="2.448985"><ele>497.0</ele><time>2026-04-26T05:22:00.729Z</time></trkpt><trkpt lat="42.8631783" lon="2.4492067"><ele>498.0</ele><time>2026-04-26T05:22:01.736Z</time></trkpt><trkpt lat="42.863195" lon="2.4494183"><ele>498.0</ele><time>2026-04-26T05:22:02.728Z</time></trkpt><trkpt lat="42.8632" lon="2.44962"><ele>498.0</ele><time>2026-04-26T05:22:03.73Z</time></trkpt><trkpt lat="42.8632033" lon="2.4498117"><ele>498.0</ele><time>2026-04-26T05:22:04.727Z</time></trkpt><trkpt lat="42.863205" lon="2.4499983"><ele>498.0</ele><time>2026-04-26T05:22:05.729Z</time></trkpt><trkpt lat="42.8632083" lon="2.4501817"><ele>498.5</ele><time>2026-04-26T05:22:06.729Z</time></trkpt><trkpt lat="42.863195" lon="2.4503617"><ele>499.0</ele><time>2026-04-26T05:22:07.73Z</time></trkpt><trkpt lat="42.8631567" lon="2.45054"><ele>499.5</ele><time>2026-04-26T05:22:08.728Z</time></trkpt><trkpt lat="42.8630867" lon="2.4507133"><ele>500.0</ele><time>2026-04-26T05:22:09.73Z</time></trkpt><trkpt lat="42.8629933" lon="2.4508717"><ele>498.0</ele><time>2026-04-26T05:22:10.727Z</time></trkpt><trkpt lat="42.8628783" lon="2.4510067"><ele>496.0</ele><time>2026-04-26T05:22:11.735Z</time></trkpt><trkpt lat="42.8627583" lon="2.4511467"><ele>494.0</ele><time>2026-04-26T05:22:12.728Z</time></trkpt><trkpt lat="42.862635" lon="2.4512917"><ele>491.66666666666663</ele><time>2026-04-26T05:22:13.727Z</time></trkpt><trkpt lat="42.8625133" lon="2.451445"><ele>489.33333333333337</ele><time>2026-04-26T05:22:14.728Z</time></trkpt><trkpt lat="42.8623933" lon="2.4516083"><ele>487.0</ele><time>2026-04-26T05:22:15.73Z</time></trkpt><trkpt lat="42.8622783" lon="2.45177"><ele>487.0</ele><time>2026-04-26T05:22:16.73Z</time></trkpt><trkpt lat="42.8621683" lon="2.4519333"><ele>487.0</ele><time>2026-04-26T05:22:17.728Z</time></trkpt><trkpt lat="42.8620717" lon="2.4521017"><ele>487.0</ele><time>2026-04-26T05:22:18.728Z</time></trkpt><trkpt lat="42.8620083" lon="2.4522817"><ele>483.75</ele><time>2026-04-26T05:22:19.728Z</time></trkpt><trkpt lat="42.861985" lon="2.4524733"><ele>480.5</ele><time>2026-04-26T05:22:20.729Z</time></trkpt><trkpt lat="42.8619983" lon="2.4526683"><ele>477.25</ele><time>2026-04-26T05:22:21.727Z</time></trkpt><trkpt lat="42.8620467" lon="2.4528567"><ele>474.0</ele><time>2026-04-26T05:22:22.728Z</time></trkpt><trkpt lat="42.8620933" lon="2.4530433"><ele>472.0</ele><time>2026-04-26T05:22:23.728Z</time></trkpt><trkpt lat="42.8621217" lon="2.45324"><ele>470.0</ele><time>2026-04-26T05:22:24.734Z</time></trkpt><trkpt lat="42.862125" lon="2.4534433"><ele>468.0</ele><time>2026-04-26T05:22:25.728Z</time></trkpt><trkpt lat="42.8621133" lon="2.4536567"><ele>466.0</ele><time>2026-04-26T05:22:26.728Z</time></trkpt><trkpt lat="42.8620917" lon="2.4538683"><ele>464.0</ele><time>2026-04-26T05:22:27.727Z</time></trkpt><trkpt lat="42.8620783" lon="2.4540767"><ele>462.0</ele><time>2026-04-26T05:22:28.728Z</time></trkpt><trkpt lat="42.8620867" lon="2.45428"><ele>462.0</ele><time>2026-04-26T05:22:29.731Z</time></trkpt><trkpt lat="42.8621217" lon="2.454475"><ele>462.0</ele><time>2026-04-26T05:22:30.728Z</time></trkpt><trkpt lat="42.8621767" lon="2.454655"><ele>462.0</ele><time>2026-04-26T05:22:31.728Z</time></trkpt><trkpt lat="42.8622317" lon="2.4548283"><ele>462.0</ele><time>2026-04-26T05:22:32.729Z</time></trkpt><trkpt lat="42.86226" lon="2.4550183"><ele>462.0</ele><time>2026-04-26T05:22:33.729Z</time></trkpt><trkpt lat="42.862265" lon="2.4552233"><ele>462.0</ele><time>2026-04-26T05:22:34.728Z</time></trkpt><trkpt lat="42.8622617" lon="2.4554383"><ele>462.0</ele><time>2026-04-26T05:22:35.728Z</time></trkpt><trkpt lat="42.8622867" lon="2.4556467"><ele>461.66666666666663</ele><time>2026-04-26T05:22:36.732Z</time></trkpt><trkpt lat="42.8623233" lon="2.4558483"><ele>461.3333333333333</ele><time>2026-04-26T05:22:37.727Z</time></trkpt><trkpt lat="42.86235" lon="2.45605"><ele>461.0</ele><time>2026-04-26T05:22:38.728Z</time></trkpt><trkpt lat="42.8623567" lon="2.4562633"><ele>459.3333333333333</ele><time>2026-04-26T05:22:39.729Z</time></trkpt><trkpt lat="42.86234" lon="2.456485"><ele>457.66666666666663</ele><time>2026-04-26T05:22:40.728Z</time></trkpt><trkpt lat="42.8623033" lon="2.4567067"><ele>456.0</ele><time>2026-04-26T05:22:41.729Z</time></trkpt><trkpt lat="42.8622433" lon="2.4569283"><ele>455.0</ele><time>2026-04-26T05:22:42.728Z</time></trkpt><trkpt lat="42.862165" lon="2.4571433"><ele>454.0</ele><time>2026-04-26T05:22:43.728Z</time></trkpt><trkpt lat="42.8620833" lon="2.4573567"><ele>453.0</ele><time>2026-04-26T05:22:44.729Z</time></trkpt><trkpt lat="42.8620033" lon="2.4575617"><ele>453.0</ele><time>2026-04-26T05:22:45.729Z</time></trkpt><trkpt lat="42.8619267" lon="2.4577583"><ele>453.0</ele><time>2026-04-26T05:22:46.729Z</time></trkpt><trkpt lat="42.8618567" lon="2.4579483"><ele>453.0</ele><time>2026-04-26T05:22:47.728Z</time></trkpt><trkpt lat="42.8617933" lon="2.4581317"><ele>452.75</ele><time>2026-04-26T05:22:48.728Z</time></trkpt><trkpt lat="42.86174" lon="2.4583167"><ele>452.5</ele><time>2026-04-26T05:22:49.728Z</time></trkpt><trkpt lat="42.8617017" lon="2.4585017"><ele>452.25</ele><time>2026-04-26T05:22:50.728Z</time></trkpt><trkpt lat="42.8616767" lon="2.4586783"><ele>452.0</ele><time>2026-04-26T05:22:51.727Z</time></trkpt><trkpt lat="42.8616683" lon="2.45886"><ele>451.0</ele><time>2026-04-26T05:22:52.729Z</time></trkpt><trkpt lat="42.8616917" lon="2.4590417"><ele>450.0</ele><time>2026-04-26T05:22:53.728Z</time></trkpt><trkpt lat="42.8617267" lon="2.45922"><ele>449.0</ele><time>2026-04-26T05:22:54.728Z</time></trkpt><trkpt lat="42.8617683" lon="2.4593883"><ele>448.0</ele><time>2026-04-26T05:22:55.728Z</time></trkpt><trkpt lat="42.861805" lon="2.459545"><ele>448.25</ele><time>2026-04-26T05:22:56.728Z</time></trkpt><trkpt lat="42.86184" lon="2.4597033"><ele>448.5</ele><time>2026-04-26T05:22:57.728Z</time></trkpt><trkpt lat="42.8618717" lon="2.4598583"><ele>448.75</ele><time>2026-04-26T05:22:58.73Z</time></trkpt><trkpt lat="42.8619067" lon="2.4600067"><ele>449.0</ele><time>2026-04-26T05:22:59.728Z</time></trkpt><trkpt lat="42.861945" lon="2.460155"><ele>449.0</ele><time>2026-04-26T05:23:00.729Z</time></trkpt><trkpt lat="42.8619817" lon="2.46031"><ele>449.0</ele><time>2026-04-26T05:23:01.728Z</time></trkpt><trkpt lat="42.86201" lon="2.460465"><ele>449.0</ele><time>2026-04-26T05:23:02.728Z</time></trkpt><trkpt lat="42.862035" lon="2.460625"><ele>449.0</ele><time>2026-04-26T05:23:03.734Z</time></trkpt><trkpt lat="42.8620533" lon="2.4607833"><ele>449.75</ele><time>2026-04-26T05:23:04.727Z</time></trkpt><trkpt lat="42.862055" lon="2.4609467"><ele>450.5</ele><time>2026-04-26T05:23:05.73Z</time></trkpt><trkpt lat="42.8620517" lon="2.4611133"><ele>451.25</ele><time>2026-04-26T05:23:06.729Z</time></trkpt><trkpt lat="42.8620567" lon="2.46127"><ele>452.0</ele><time>2026-04-26T05:23:07.729Z</time></trkpt><trkpt lat="42.86207" lon="2.461425"><ele>452.75</ele><time>2026-04-26T05:23:08.728Z</time></trkpt><trkpt lat="42.862095" lon="2.461575"><ele>453.5</ele><time>2026-04-26T05:23:09.728Z</time></trkpt><trkpt lat="42.8621383" lon="2.46172"><ele>454.25</ele><time>2026-04-26T05:23:10.727Z</time></trkpt><trkpt lat="42.8622033" lon="2.461865"><ele>455.0</ele><time>2026-04-26T05:23:11.728Z</time></trkpt><trkpt lat="42.8622817" lon="2.4620067"><ele>455.5</ele><time>2026-04-26T05:23:12.727Z</time></trkpt><trkpt lat="42.8623633" lon="2.4621483"><ele>456.0</ele><time>2026-04-26T05:23:13.728Z</time></trkpt><trkpt lat="42.862445" lon="2.462275"><ele>456.5</ele><time>2026-04-26T05:23:14.728Z</time></trkpt><trkpt lat="42.8625267" lon="2.4623817"><ele>457.0</ele><time>2026-04-26T05:23:15.73Z</time></trkpt><trkpt lat="42.86261" lon="2.46246"><ele>459.1666666666667</ele><time>2026-04-26T05:23:16.732Z</time></trkpt><trkpt lat="42.8626967" lon="2.4625017"><ele>461.33333333333337</ele><time>2026-04-26T05:23:17.729Z</time></trkpt><trkpt lat="42.8627717" lon="2.4625367"><ele>463.5</ele><time>2026-04-26T05:23:18.729Z</time></trkpt><trkpt lat="42.862835" lon="2.46258"><ele>465.66666666666663</ele><time>2026-04-26T05:23:19.728Z</time></trkpt><trkpt lat="42.8628817" lon="2.462645"><ele>467.8333333333333</ele><time>2026-04-26T05:23:20.728Z</time></trkpt><trkpt lat="42.86292" lon="2.46273"><ele>470.0</ele><time>2026-04-26T05:23:21.729Z</time></trkpt><trkpt lat="42.8629467" lon="2.4628367"><ele>470.2</ele><time>2026-04-26T05:23:22.729Z</time></trkpt><trkpt lat="42.862975" lon="2.4629683"><ele>470.4</ele><time>2026-04-26T05:23:23.728Z</time></trkpt><trkpt lat="42.863" lon="2.4631067"><ele>470.6</ele><time>2026-04-26T05:23:24.727Z</time></trkpt><trkpt lat="42.8630133" lon="2.46326"><ele>470.8</ele><time>2026-04-26T05:23:25.729Z</time></trkpt><trkpt lat="42.8630283" lon="2.4634167"><ele>471.0</ele><time>2026-04-26T05:23:26.729Z</time></trkpt><trkpt lat="42.8630533" lon="2.463575"><ele>471.0</ele><time>2026-04-26T05:23:27.732Z</time></trkpt><trkpt lat="42.86308" lon="2.4637333"><ele>471.0</ele><time>2026-04-26T05:23:28.727Z</time></trkpt><trkpt lat="42.8630983" lon="2.463895"><ele>471.0</ele><time>2026-04-26T05:23:29.733Z</time></trkpt><trkpt lat="42.8631083" lon="2.464065"><ele>471.0</ele><time>2026-04-26T05:23:30.728Z</time></trkpt><trkpt lat="42.86311" lon="2.464245"><ele>471.75</ele><time>2026-04-26T05:23:31.728Z</time></trkpt><trkpt lat="42.8630967" lon="2.464445"><ele>472.5</ele><time>2026-04-26T05:23:32.729Z</time></trkpt><trkpt lat="42.8630867" lon="2.464645"><ele>473.25</ele><time>2026-04-26T05:23:33.729Z</time></trkpt><trkpt lat="42.8630783" lon="2.4648517"><ele>474.0</ele><time>2026-04-26T05:23:34.73Z</time></trkpt><trkpt lat="42.8630817" lon="2.4650617"><ele>474.0</ele><time>2026-04-26T05:23:35.728Z</time></trkpt><trkpt lat="42.8630867" lon="2.46527"><ele>474.0</ele><time>2026-04-26T05:23:36.727Z</time></trkpt><trkpt lat="42.8630933" lon="2.4654767"><ele>474.0</ele><time>2026-04-26T05:23:37.728Z</time></trkpt><trkpt lat="42.8630917" lon="2.46568"><ele>474.25</ele><time>2026-04-26T05:23:38.73Z</time></trkpt><trkpt lat="42.863075" lon="2.465885"><ele>474.5</ele><time>2026-04-26T05:23:39.727Z</time></trkpt><trkpt lat="42.86305" lon="2.4660883"><ele>474.75</ele><time>2026-04-26T05:23:40.728Z</time></trkpt><trkpt lat="42.86304" lon="2.4662783"><ele>475.0</ele><time>2026-04-26T05:23:41.732Z</time></trkpt><trkpt lat="42.8630383" lon="2.466465"><ele>475.0</ele><time>2026-04-26T05:23:42.729Z</time></trkpt><trkpt lat="42.8630367" lon="2.4666683"><ele>475.0</ele><time>2026-04-26T05:23:43.727Z</time></trkpt><trkpt lat="42.86303" lon="2.466875"><ele>475.0</ele><time>2026-04-26T05:23:44.729Z</time></trkpt><trkpt lat="42.8630217" lon="2.46709"><ele>475.6666666666667</ele><time>2026-04-26T05:23:45.728Z</time></trkpt><trkpt lat="42.86302" lon="2.467315"><ele>476.33333333333337</ele><time>2026-04-26T05:23:46.728Z</time></trkpt><trkpt lat="42.863015" lon="2.4675333"><ele>477.0</ele><time>2026-04-26T05:23:47.728Z</time></trkpt><trkpt lat="42.8630133" lon="2.4677367"><ele>477.0</ele><time>2026-04-26T05:23:48.727Z</time></trkpt><trkpt lat="42.8630133" lon="2.4679433"><ele>477.0</ele><time>2026-04-26T05:23:49.731Z</time></trkpt><trkpt lat="42.8630067" lon="2.4681567"><ele>477.0</ele><time>2026-04-26T05:23:50.729Z</time></trkpt><trkpt lat="42.8629933" lon="2.4683767"><ele>477.0</ele><time>2026-04-26T05:23:51.728Z</time></trkpt><trkpt lat="42.862985" lon="2.4685933"><ele>477.0</ele><time>2026-04-26T05:23:52.729Z</time></trkpt><trkpt lat="42.8629783" lon="2.46881"><ele>477.0</ele><time>2026-04-26T05:23:53.728Z</time></trkpt><trkpt lat="42.8629717" lon="2.469025"><ele>477.0</ele><time>2026-04-26T05:23:54.729Z</time></trkpt><trkpt lat="42.862965" lon="2.4692267"><ele>477.0</ele><time>2026-04-26T05:23:55.728Z</time></trkpt><trkpt lat="42.8629533" lon="2.4694233"><ele>477.0</ele><time>2026-04-26T05:23:56.728Z</time></trkpt><trkpt lat="42.8629467" lon="2.4696117"><ele>477.0</ele><time>2026-04-26T05:23:57.728Z</time></trkpt><trkpt lat="42.8629333" lon="2.46979"><ele>477.25</ele><time>2026-04-26T05:23:58.727Z</time></trkpt><trkpt lat="42.8629217" lon="2.4699617"><ele>477.5</ele><time>2026-04-26T05:23:59.729Z</time></trkpt><trkpt lat="42.862905" lon="2.47014"><ele>477.75</ele><time>2026-04-26T05:24:00.727Z</time></trkpt><trkpt lat="42.862895" lon="2.4703233"><ele>478.0</ele><time>2026-04-26T05:24:01.728Z</time></trkpt><trkpt lat="42.8628933" lon="2.470515"><ele>478.25</ele><time>2026-04-26T05:24:02.73Z</time></trkpt><trkpt lat="42.8628917" lon="2.4707117"><ele>478.5</ele><time>2026-04-26T05:24:03.729Z</time></trkpt><trkpt lat="42.8628833" lon="2.47091"><ele>478.75</ele><time>2026-04-26T05:24:04.73Z</time></trkpt><trkpt lat="42.8628783" lon="2.4711183"><ele>479.0</ele><time>2026-04-26T05:24:05.729Z</time></trkpt><trkpt lat="42.8628733" lon="2.471325"><ele>481.0</ele><time>2026-04-26T05:24:06.73Z</time></trkpt><trkpt lat="42.8628683" lon="2.4715317"><ele>483.0</ele><time>2026-04-26T05:24:07.729Z</time></trkpt><trkpt lat="42.8628517" lon="2.471735"><ele>485.0</ele><time>2026-04-26T05:24:08.729Z</time></trkpt><trkpt lat="42.8628267" lon="2.4719367"><ele>486.66666666666663</ele><time>2026-04-26T05:24:09.728Z</time></trkpt><trkpt lat="42.86281" lon="2.4721417"><ele>488.33333333333337</ele><time>2026-04-26T05:24:10.729Z</time></trkpt><trkpt lat="42.8628" lon="2.4723483"><ele>490.0</ele><time>2026-04-26T05:24:11.73Z</time></trkpt><trkpt lat="42.8627917" lon="2.472555"><ele>490.0</ele><time>2026-04-26T05:24:12.727Z</time></trkpt><trkpt lat="42.86278" lon="2.472765"><ele>490.0</ele><time>2026-04-26T05:24:13.73Z</time></trkpt><trkpt lat="42.86277" lon="2.4729833"><ele>490.0</ele><time>2026-04-26T05:24:14.728Z</time></trkpt><trkpt lat="42.862765" lon="2.47321"><ele>491.0</ele><time>2026-04-26T05:24:15.728Z</time></trkpt><trkpt lat="42.86276" lon="2.4734417"><ele>492.0</ele><time>2026-04-26T05:24:16.727Z</time></trkpt><trkpt lat="42.8627517" lon="2.4736783"><ele>493.0</ele><time>2026-04-26T05:24:17.728Z</time></trkpt><trkpt lat="42.8627433" lon="2.4739133"><ele>494.6666666666667</ele><time>2026-04-26T05:24:18.73Z</time></trkpt><trkpt lat="42.862735" lon="2.474145"><ele>496.33333333333337</ele><time>2026-04-26T05:24:19.728Z</time></trkpt><trkpt lat="42.8627233" lon="2.47438"><ele>498.0</ele><time>2026-04-26T05:24:20.73Z</time></trkpt><trkpt lat="42.8627017" lon="2.4746217"><ele>500.0</ele><time>2026-04-26T05:24:21.727Z</time></trkpt><trkpt lat="42.8626783" lon="2.4748617"><ele>502.0</ele><time>2026-04-26T05:24:22.729Z</time></trkpt><trkpt lat="42.8626617" lon="2.4750933"><ele>504.0</ele><time>2026-04-26T05:24:23.729Z</time></trkpt><trkpt lat="42.8626533" lon="2.4753267"><ele>506.66666666666663</ele><time>2026-04-26T05:24:24.73Z</time></trkpt><trkpt lat="42.862645" lon="2.47556"><ele>509.3333333333333</ele><time>2026-04-26T05:24:25.728Z</time></trkpt><trkpt lat="42.8626317" lon="2.4758"><ele>512.0</ele><time>2026-04-26T05:24:26.727Z</time></trkpt><trkpt lat="42.86263" lon="2.476045"><ele>514.3333333333333</ele><time>2026-04-26T05:24:27.728Z</time></trkpt><trkpt lat="42.8626333" lon="2.476295"><ele>516.6666666666666</ele><time>2026-04-26T05:24:28.729Z</time></trkpt><trkpt lat="42.8626367" lon="2.4765417"><ele>519.0</ele><time>2026-04-26T05:24:29.73Z</time></trkpt><trkpt lat="42.86264" lon="2.4767867"><ele>519.0</ele><time>2026-04-26T05:24:30.727Z</time></trkpt><trkpt lat="42.862645" lon="2.4770283"><ele>519.0</ele><time>2026-04-26T05:24:31.729Z</time></trkpt><trkpt lat="42.8626433" lon="2.4772683"><ele>519.0</ele><time>2026-04-26T05:24:32.729Z</time></trkpt><trkpt lat="42.86264" lon="2.47751"><ele>520.6666666666666</ele><time>2026-04-26T05:24:33.73Z</time></trkpt><trkpt lat="42.8626367" lon="2.4777517"><ele>522.3333333333333</ele><time>2026-04-26T05:24:34.729Z</time></trkpt><trkpt lat="42.8626267" lon="2.4779883"><ele>524.0</ele><time>2026-04-26T05:24:35.727Z</time></trkpt><trkpt lat="42.862615" lon="2.47822"><ele>521.0</ele><time>2026-04-26T05:24:36.729Z</time></trkpt><trkpt lat="42.86261" lon="2.4784433"><ele>518.0</ele><time>2026-04-26T05:24:37.728Z</time></trkpt><trkpt lat="42.8626" lon="2.478665"><ele>515.0</ele><time>2026-04-26T05:24:38.729Z</time></trkpt><trkpt lat="42.8625867" lon="2.4788917"><ele>515.0</ele><time>2026-04-26T05:24:39.729Z</time></trkpt><trkpt lat="42.862575" lon="2.47912"><ele>515.0</ele><time>2026-04-26T05:24:40.729Z</time></trkpt><trkpt lat="42.8625683" lon="2.479335"><ele>515.0</ele><time>2026-04-26T05:24:41.729Z</time></trkpt><trkpt lat="42.8625583" lon="2.4795317"><ele>515.0</ele><time>2026-04-26T05:24:42.73Z</time></trkpt><trkpt lat="42.862545" lon="2.4797117"><ele>515.0</ele><time>2026-04-26T05:24:43.731Z</time></trkpt><trkpt lat="42.862535" lon="2.4798683"><ele>515.0</ele><time>2026-04-26T05:24:44.729Z</time></trkpt><trkpt lat="42.862535" lon="2.4800083"><ele>515.0</ele><time>2026-04-26T05:24:45.733Z</time></trkpt><trkpt lat="42.8625483" lon="2.4801317"><ele>515.0</ele><time>2026-04-26T05:24:46.728Z</time></trkpt><trkpt lat="42.862575" lon="2.480245"><ele>515.0</ele><time>2026-04-26T05:24:47.728Z</time></trkpt><trkpt lat="42.8626033" lon="2.4803583"><ele>515.0</ele><time>2026-04-26T05:24:48.729Z</time></trkpt><trkpt lat="42.862635" lon="2.4804767"><ele>515.0</ele><time>2026-04-26T05:24:49.727Z</time></trkpt><trkpt lat="42.8626683" lon="2.4805883"><ele>515.0</ele><time>2026-04-26T05:24:50.73Z</time></trkpt><trkpt lat="42.8627083" lon="2.4806983"><ele>515.0</ele><time>2026-04-26T05:24:51.729Z</time></trkpt><trkpt lat="42.862755" lon="2.480815"><ele>515.0</ele><time>2026-04-26T05:24:52.727Z</time></trkpt><trkpt lat="42.862805" lon="2.4809367"><ele>515.0</ele><time>2026-04-26T05:24:53.729Z</time></trkpt><trkpt lat="42.8628567" lon="2.48106"><ele>515.0</ele><time>2026-04-26T05:24:54.728Z</time></trkpt><trkpt lat="42.8629067" lon="2.48118"><ele>515.0</ele><time>2026-04-26T05:24:55.727Z</time></trkpt><trkpt lat="42.8629567" lon="2.4812917"><ele>515.0</ele><time>2026-04-26T05:24:56.729Z</time></trkpt><trkpt lat="42.863" lon="2.4814"><ele>514.0</ele><time>2026-04-26T05:24:57.727Z</time></trkpt><trkpt lat="42.8630433" lon="2.481515"><ele>513.0</ele><time>2026-04-26T05:24:58.728Z</time></trkpt><trkpt lat="42.863085" lon="2.4816333"><ele>512.0</ele><time>2026-04-26T05:24:59.729Z</time></trkpt><trkpt lat="42.8631333" lon="2.4817633"><ele>511.0</ele><time>2026-04-26T05:25:00.728Z</time></trkpt><trkpt lat="42.8631833" lon="2.4818967"><ele>510.0</ele><time>2026-04-26T05:25:01.729Z</time></trkpt><trkpt lat="42.8632217" lon="2.482035"><ele>509.0</ele><time>2026-04-26T05:25:02.729Z</time></trkpt><trkpt lat="42.8632533" lon="2.4821767"><ele>508.0</ele><time>2026-04-26T05:25:03.728Z</time></trkpt><trkpt lat="42.8632817" lon="2.4823217"><ele>507.0</ele><time>2026-04-26T05:25:04.728Z</time></trkpt><trkpt lat="42.8633167" lon="2.48246"><ele>506.0</ele><time>2026-04-26T05:25:05.728Z</time></trkpt><trkpt lat="42.863355" lon="2.4826067"><ele>505.0</ele><time>2026-04-26T05:25:06.729Z</time></trkpt><trkpt lat="42.8633933" lon="2.4827583"><ele>505.0</ele><time>2026-04-26T05:25:07.729Z</time></trkpt><trkpt lat="42.86343" lon="2.48291"><ele>505.0</ele><time>2026-04-26T05:25:08.729Z</time></trkpt><trkpt lat="42.8634583" lon="2.48306"><ele>505.0</ele><time>2026-04-26T05:25:09.73Z</time></trkpt><trkpt lat="42.863485" lon="2.4832033"><ele>505.0</ele><time>2026-04-26T05:25:10.728Z</time></trkpt><trkpt lat="42.863505" lon="2.48333"><ele>505.0</ele><time>2026-04-26T05:25:11.728Z</time></trkpt><trkpt lat="42.8635283" lon="2.4834417"><ele>504.83333333333337</ele><time>2026-04-26T05:25:12.73Z</time></trkpt><trkpt lat="42.8635567" lon="2.483545"><ele>504.6666666666667</ele><time>2026-04-26T05:25:13.727Z</time></trkpt><trkpt lat="42.863585" lon="2.4836583"><ele>504.5</ele><time>2026-04-26T05:25:14.728Z</time></trkpt><trkpt lat="42.8636067" lon="2.4837783"><ele>504.33333333333337</ele><time>2026-04-26T05:25:15.738Z</time></trkpt><trkpt lat="42.8636217" lon="2.483905"><ele>504.1666666666667</ele><time>2026-04-26T05:25:16.729Z</time></trkpt><trkpt lat="42.8636333" lon="2.4840317"><ele>504.0</ele><time>2026-04-26T05:25:17.728Z</time></trkpt><trkpt lat="42.8636417" lon="2.4841533"><ele>504.3333333333333</ele><time>2026-04-26T05:25:18.73Z</time></trkpt><trkpt lat="42.863655" lon="2.48426"><ele>504.66666666666663</ele><time>2026-04-26T05:25:19.728Z</time></trkpt><trkpt lat="42.8636767" lon="2.48436"><ele>505.0</ele><time>2026-04-26T05:25:20.731Z</time></trkpt><trkpt lat="42.8636983" lon="2.48446"><ele>505.3333333333333</ele><time>2026-04-26T05:25:21.728Z</time></trkpt><trkpt lat="42.8637133" lon="2.4845767"><ele>505.66666666666663</ele><time>2026-04-26T05:25:22.731Z</time></trkpt><trkpt lat="42.863715" lon="2.4847033"><ele>506.0</ele><time>2026-04-26T05:25:23.729Z</time></trkpt><trkpt lat="42.863715" lon="2.4848317"><ele>506.49999999999994</ele><time>2026-04-26T05:25:24.73Z</time></trkpt><trkpt lat="42.8637133" lon="2.4849567"><ele>507.0</ele><time>2026-04-26T05:25:25.728Z</time></trkpt><trkpt lat="42.8637133" lon="2.4850783"><ele>507.5</ele><time>2026-04-26T05:25:26.73Z</time></trkpt><trkpt lat="42.8637183" lon="2.4851933"><ele>508.0</ele><time>2026-04-26T05:25:27.728Z</time></trkpt><trkpt lat="42.863725" lon="2.4853033"><ele>508.49999999999994</ele><time>2026-04-26T05:25:28.728Z</time></trkpt><trkpt lat="42.8637367" lon="2.4854033"><ele>509.0</ele><time>2026-04-26T05:25:29.727Z</time></trkpt><trkpt lat="42.8637483" lon="2.4855017"><ele>508.99999999999994</ele><time>2026-04-26T05:25:30.727Z</time></trkpt><trkpt lat="42.8637617" lon="2.485605"><ele>509.0</ele><time>2026-04-26T05:25:31.73Z</time></trkpt><trkpt lat="42.86377" lon="2.485705"><ele>508.99999999999994</ele><time>2026-04-26T05:25:32.728Z</time></trkpt><trkpt lat="42.8637817" lon="2.4858017"><ele>508.99999999999994</ele><time>2026-04-26T05:25:33.727Z</time></trkpt><trkpt lat="42.8638033" lon="2.4858933"><ele>509.0</ele><time>2026-04-26T05:25:34.727Z</time></trkpt><trkpt lat="42.863835" lon="2.4859833"><ele>508.99999999999994</ele><time>2026-04-26T05:25:35.729Z</time></trkpt><trkpt lat="42.8638667" lon="2.486075"><ele>508.99999999999994</ele><time>2026-04-26T05:25:36.735Z</time></trkpt><trkpt lat="42.8638917" lon="2.48616"><ele>508.99999999999994</ele><time>2026-04-26T05:25:37.729Z</time></trkpt><trkpt lat="42.8639033" lon="2.4862567"><ele>509.0</ele><time>2026-04-26T05:25:38.729Z</time></trkpt><trkpt lat="42.8639083" lon="2.4863617"><ele>509.0</ele><time>2026-04-26T05:25:39.729Z</time></trkpt><trkpt lat="42.8639167" lon="2.486465"><ele>509.0</ele><time>2026-04-26T05:25:40.728Z</time></trkpt><trkpt lat="42.8639317" lon="2.486565"><ele>508.99999999999994</ele><time>2026-04-26T05:25:41.73Z</time></trkpt><trkpt lat="42.863955" lon="2.4866517"><ele>509.0</ele><time>2026-04-26T05:25:42.73Z</time></trkpt><trkpt lat="42.864015" lon="2.4867483"><ele>507.8571428571428</ele><time>2026-04-26T05:25:44.728Z</time></trkpt><trkpt lat="42.864095" lon="2.4868283"><ele>506.71428571428567</ele><time>2026-04-26T05:25:46.729Z</time></trkpt><trkpt lat="42.8641483" lon="2.4868867"><ele>505.57142857142856</ele><time>2026-04-26T05:25:47.728Z</time></trkpt><trkpt lat="42.8641967" lon="2.4869583"><ele>504.4285714285714</ele><time>2026-04-26T05:25:48.727Z</time></trkpt><trkpt lat="42.86424" lon="2.487035"><ele>503.2857142857142</ele><time>2026-04-26T05:25:49.727Z</time></trkpt><trkpt lat="42.8642767" lon="2.4871117"><ele>502.14285714285717</ele><time>2026-04-26T05:25:50.729Z</time></trkpt><trkpt lat="42.8643083" lon="2.4871883"><ele>501.0</ele><time>2026-04-26T05:25:51.727Z</time></trkpt><trkpt lat="42.8643617" lon="2.4873033"><ele>499.0</ele><time>2026-04-26T05:25:53.728Z</time></trkpt><trkpt lat="42.8644133" lon="2.4873883"><ele>497.0</ele><time>2026-04-26T05:25:57.727Z</time></trkpt><trkpt lat="42.86448" lon="2.4874367"><ele>495.0</ele><time>2026-04-26T05:25:59.728Z</time></trkpt><trkpt lat="42.8645667" lon="2.4874983"><ele>493.0</ele><time>2026-04-26T05:26:01.727Z</time></trkpt><trkpt lat="42.8646467" lon="2.4875883"><ele>491.0</ele><time>2026-04-26T05:26:03.727Z</time></trkpt><trkpt lat="42.8647083" lon="2.4876967"><ele>491.0</ele><time>2026-04-26T05:26:05.726Z</time></trkpt><trkpt lat="42.8647467" lon="2.48783"><ele>491.0</ele><time>2026-04-26T05:26:07.726Z</time></trkpt><trkpt lat="42.8647533" lon="2.4879817"><ele>491.0</ele><time>2026-04-26T05:26:09.731Z</time></trkpt><trkpt lat="42.8647833" lon="2.4881467"><ele>491.0</ele><time>2026-04-26T05:26:11.727Z</time></trkpt><trkpt lat="42.8648183" lon="2.4882317"><ele>491.0</ele><time>2026-04-26T05:26:12.728Z</time></trkpt><trkpt lat="42.8648683" lon="2.4883633"><ele>489.49999999999994</ele><time>2026-04-26T05:26:14.728Z</time></trkpt><trkpt lat="42.8648867" lon="2.4884867"><ele>488.0</ele><time>2026-04-26T05:26:16.729Z</time></trkpt><trkpt lat="42.8649233" lon="2.4886033"><ele>486.5</ele><time>2026-04-26T05:26:18.728Z</time></trkpt><trkpt lat="42.8649633" lon="2.4887067"><ele>485.0</ele><time>2026-04-26T05:26:20.728Z</time></trkpt><trkpt lat="42.865015" lon="2.48878"><ele>483.49999999999994</ele><time>2026-04-26T05:26:22.727Z</time></trkpt><trkpt lat="42.865085" lon="2.4888783"><ele>482.0</ele><time>2026-04-26T05:26:24.727Z</time></trkpt><trkpt lat="42.865165" lon="2.4890033"><ele>480.0</ele><time>2026-04-26T05:26:26.727Z</time></trkpt><trkpt lat="42.865205" lon="2.4890717"><ele>478.00000000000006</ele><time>2026-04-26T05:26:27.728Z</time></trkpt><trkpt lat="42.86525" lon="2.4891367"><ele>476.0</ele><time>2026-04-26T05:26:28.727Z</time></trkpt><trkpt lat="42.8652933" lon="2.4892033"><ele>474.0</ele><time>2026-04-26T05:26:29.728Z</time></trkpt><trkpt lat="42.865335" lon="2.4892683"><ele>472.00000000000006</ele><time>2026-04-26T05:26:30.728Z</time></trkpt><trkpt lat="42.8653767" lon="2.4893417"><ele>470.0</ele><time>2026-04-26T05:26:31.728Z</time></trkpt><trkpt lat="42.8654233" lon="2.4894"><ele>468.0</ele><time>2026-04-26T05:26:32.728Z</time></trkpt><trkpt lat="42.86551" lon="2.4895017"><ele>468.0</ele><time>2026-04-26T05:26:34.729Z</time></trkpt><trkpt lat="42.8655883" lon="2.48957"><ele>468.0</ele><time>2026-04-26T05:26:36.73Z</time></trkpt><trkpt lat="42.8656733" lon="2.4896283"><ele>468.0</ele><time>2026-04-26T05:26:38.73Z</time></trkpt><trkpt lat="42.86576" lon="2.4896783"><ele>468.0</ele><time>2026-04-26T05:26:40.73Z</time></trkpt><trkpt lat="42.8658083" lon="2.48975"><ele>468.0</ele><time>2026-04-26T05:26:42.728Z</time></trkpt><trkpt lat="42.86586" lon="2.489825"><ele>468.0</ele><time>2026-04-26T05:26:44.731Z</time></trkpt><trkpt lat="42.8659433" lon="2.4898617"><ele>466.5</ele><time>2026-04-26T05:26:46.73Z</time></trkpt><trkpt lat="42.8660217" lon="2.48989"><ele>465.0</ele><time>2026-04-26T05:26:47.728Z</time></trkpt><trkpt lat="42.8661017" lon="2.4899567"><ele>463.5</ele><time>2026-04-26T05:26:48.728Z</time></trkpt><trkpt lat="42.8661667" lon="2.4900283"><ele>462.0</ele><time>2026-04-26T05:26:49.727Z</time></trkpt><trkpt lat="42.8662283" lon="2.4900833"><ele>460.5</ele><time>2026-04-26T05:26:50.727Z</time></trkpt><trkpt lat="42.8663383" lon="2.4900933"><ele>459.0</ele><time>2026-04-26T05:26:52.727Z</time></trkpt><trkpt lat="42.8664167" lon="2.4900867"><ele>459.0</ele><time>2026-04-26T05:26:53.728Z</time></trkpt><trkpt lat="42.8665033" lon="2.4900717"><ele>459.0</ele><time>2026-04-26T05:26:54.727Z</time></trkpt><trkpt lat="42.8665833" lon="2.4900667"><ele>459.0</ele><time>2026-04-26T05:26:55.727Z</time></trkpt><trkpt lat="42.8666617" lon="2.490065"><ele>459.0</ele><time>2026-04-26T05:26:56.73Z</time></trkpt><trkpt lat="42.8667367" lon="2.4900667"><ele>459.0</ele><time>2026-04-26T05:26:57.729Z</time></trkpt><trkpt lat="42.8668083" lon="2.4900617"><ele>459.0</ele><time>2026-04-26T05:26:58.73Z</time></trkpt><trkpt lat="42.8668867" lon="2.4900683"><ele>454.79999999999995</ele><time>2026-04-26T05:26:59.727Z</time></trkpt><trkpt lat="42.866965" lon="2.49008"><ele>450.59999999999997</ele><time>2026-04-26T05:27:00.726Z</time></trkpt><trkpt lat="42.8670333" lon="2.49012"><ele>446.4</ele><time>2026-04-26T05:27:01.727Z</time></trkpt><trkpt lat="42.867135" lon="2.4902"><ele>442.2</ele><time>2026-04-26T05:27:03.727Z</time></trkpt><trkpt lat="42.8672217" lon="2.4902617"><ele>438.0</ele><time>2026-04-26T05:27:05.728Z</time></trkpt><trkpt lat="42.867295" lon="2.4903933"><ele>438.79999999999995</ele><time>2026-04-26T05:27:07.726Z</time></trkpt><trkpt lat="42.8673683" lon="2.4905167"><ele>439.59999999999997</ele><time>2026-04-26T05:27:09.728Z</time></trkpt><trkpt lat="42.8674233" lon="2.490645"><ele>440.40000000000003</ele><time>2026-04-26T05:27:11.728Z</time></trkpt><trkpt lat="42.8674717" lon="2.4908083"><ele>441.20000000000005</ele><time>2026-04-26T05:27:13.73Z</time></trkpt><trkpt lat="42.8675" lon="2.4908917"><ele>442.0</ele><time>2026-04-26T05:27:14.729Z</time></trkpt><trkpt lat="42.867525" lon="2.4909767"><ele>442.00000000000006</ele><time>2026-04-26T05:27:15.728Z</time></trkpt><trkpt lat="42.8675567" lon="2.49107"><ele>442.0</ele><time>2026-04-26T05:27:16.728Z</time></trkpt><trkpt lat="42.86759" lon="2.491165"><ele>442.0</ele><time>2026-04-26T05:27:17.727Z</time></trkpt><trkpt lat="42.86763" lon="2.4912517"><ele>442.0</ele><time>2026-04-26T05:27:18.729Z</time></trkpt><trkpt lat="42.8676717" lon="2.49133"><ele>442.00000000000006</ele><time>2026-04-26T05:27:19.728Z</time></trkpt><trkpt lat="42.867715" lon="2.4914133"><ele>442.0</ele><time>2026-04-26T05:27:20.729Z</time></trkpt><trkpt lat="42.86775" lon="2.4915067"><ele>437.83333333333337</ele><time>2026-04-26T05:27:21.728Z</time></trkpt><trkpt lat="42.867785" lon="2.491595"><ele>433.6666666666667</ele><time>2026-04-26T05:27:22.728Z</time></trkpt><trkpt lat="42.867815" lon="2.491675"><ele>429.5</ele><time>2026-04-26T05:27:23.729Z</time></trkpt><trkpt lat="42.8678483" lon="2.49175"><ele>425.33333333333337</ele><time>2026-04-26T05:27:24.729Z</time></trkpt><trkpt lat="42.8679167" lon="2.4918717"><ele>421.1666666666667</ele><time>2026-04-26T05:27:26.73Z</time></trkpt><trkpt lat="42.867925" lon="2.4919917"><ele>417.0</ele><time>2026-04-26T05:27:28.729Z</time></trkpt><trkpt lat="42.8679367" lon="2.4920883"><ele>417.0</ele><time>2026-04-26T05:27:32.73Z</time></trkpt><trkpt lat="42.8679883" lon="2.4920033"><ele>417.0</ele><time>2026-04-26T05:27:35.727Z</time></trkpt><trkpt lat="42.86802" lon="2.4919083"><ele>417.0</ele><time>2026-04-26T05:27:37.728Z</time></trkpt><trkpt lat="42.8680467" lon="2.4918267"><ele>417.0</ele><time>2026-04-26T05:27:39.728Z</time></trkpt><trkpt lat="42.8681183" lon="2.4918767"><ele>417.0</ele><time>2026-04-26T05:27:42.729Z</time></trkpt><trkpt lat="42.8681433" lon="2.4919817"><ele>417.0</ele><time>2026-04-26T05:27:44.729Z</time></trkpt><trkpt lat="42.8681517" lon="2.4920983"><ele>417.1666666666667</ele><time>2026-04-26T05:27:46.727Z</time></trkpt><trkpt lat="42.8681617" lon="2.49221"><ele>417.33333333333337</ele><time>2026-04-26T05:27:48.73Z</time></trkpt><trkpt lat="42.86819" lon="2.4923033"><ele>417.5</ele><time>2026-04-26T05:27:50.731Z</time></trkpt><trkpt lat="42.86827" lon="2.4924117"><ele>417.6666666666667</ele><time>2026-04-26T05:27:52.73Z</time></trkpt><trkpt lat="42.8683233" lon="2.49247"><ele>417.83333333333337</ele><time>2026-04-26T05:27:53.73Z</time></trkpt><trkpt lat="42.8683967" lon="2.49252"><ele>418.0</ele><time>2026-04-26T05:27:54.732Z</time></trkpt><trkpt lat="42.8684867" lon="2.4925667"><ele>415.83333333333337</ele><time>2026-04-26T05:27:55.731Z</time></trkpt><trkpt lat="42.8685733" lon="2.4926"><ele>413.6666666666667</ele><time>2026-04-26T05:27:56.732Z</time></trkpt><trkpt lat="42.8686467" lon="2.492625"><ele>411.5</ele><time>2026-04-26T05:27:57.729Z</time></trkpt><trkpt lat="42.8687117" lon="2.4926317"><ele>409.33333333333337</ele><time>2026-04-26T05:27:58.73Z</time></trkpt><trkpt lat="42.868775" lon="2.4926267"><ele>407.1666666666667</ele><time>2026-04-26T05:27:59.728Z</time></trkpt><trkpt lat="42.86888" lon="2.4926083"><ele>405.0</ele><time>2026-04-26T05:28:01.727Z</time></trkpt><trkpt lat="42.8689533" lon="2.4927433"><ele>405.0</ele><time>2026-04-26T05:28:03.728Z</time></trkpt><trkpt lat="42.8689817" lon="2.4928317"><ele>405.0</ele><time>2026-04-26T05:28:04.728Z</time></trkpt><trkpt lat="42.8690033" lon="2.4929217"><ele>405.0</ele><time>2026-04-26T05:28:05.729Z</time></trkpt><trkpt lat="42.8690217" lon="2.4930117"><ele>405.0</ele><time>2026-04-26T05:28:06.729Z</time></trkpt><trkpt lat="42.869025" lon="2.4931133"><ele>405.0</ele><time>2026-04-26T05:28:07.728Z</time></trkpt><trkpt lat="42.8690233" lon="2.4932367"><ele>405.0</ele><time>2026-04-26T05:28:08.73Z</time></trkpt><trkpt lat="42.8690183" lon="2.4933717"><ele>404.8333333333333</ele><time>2026-04-26T05:28:09.728Z</time></trkpt><trkpt lat="42.86901" lon="2.4934983"><ele>404.66666666666663</ele><time>2026-04-26T05:28:10.728Z</time></trkpt><trkpt lat="42.869005" lon="2.4936217"><ele>404.5</ele><time>2026-04-26T05:28:11.727Z</time></trkpt><trkpt lat="42.869005" lon="2.4937383"><ele>404.3333333333333</ele><time>2026-04-26T05:28:12.728Z</time></trkpt><trkpt lat="42.869015" lon="2.49385"><ele>404.16666666666663</ele><time>2026-04-26T05:28:13.728Z</time></trkpt><trkpt lat="42.8690433" lon="2.493975"><ele>404.0</ele><time>2026-04-26T05:28:14.728Z</time></trkpt><trkpt lat="42.86909" lon="2.4941033"><ele>403.5</ele><time>2026-04-26T05:28:15.728Z</time></trkpt><trkpt lat="42.8691533" lon="2.4942433"><ele>403.0</ele><time>2026-04-26T05:28:16.728Z</time></trkpt><trkpt lat="42.8692117" lon="2.49439"><ele>402.5</ele><time>2026-04-26T05:28:17.735Z</time></trkpt><trkpt lat="42.8692683" lon="2.4945283"><ele>402.0</ele><time>2026-04-26T05:28:18.728Z</time></trkpt><trkpt lat="42.869335" lon="2.494655"><ele>400.75</ele><time>2026-04-26T05:28:19.728Z</time></trkpt><trkpt lat="42.8694217" lon="2.4947683"><ele>399.5</ele><time>2026-04-26T05:28:20.729Z</time></trkpt><trkpt lat="42.8695167" lon="2.4948717"><ele>398.25</ele><time>2026-04-26T05:28:21.729Z</time></trkpt><trkpt lat="42.86962" lon="2.4949767"><ele>397.0</ele><time>2026-04-26T05:28:22.729Z</time></trkpt><trkpt lat="42.8697317" lon="2.4950933"><ele>397.0</ele><time>2026-04-26T05:28:23.729Z</time></trkpt><trkpt lat="42.8698467" lon="2.4952183"><ele>397.0</ele><time>2026-04-26T05:28:24.729Z</time></trkpt><trkpt lat="42.8699667" lon="2.4953467"><ele>397.0</ele><time>2026-04-26T05:28:25.729Z</time></trkpt><trkpt lat="42.8700783" lon="2.49547"><ele>397.0</ele><time>2026-04-26T05:28:26.728Z</time></trkpt><trkpt lat="42.8701783" lon="2.4955917"><ele>396.25</ele><time>2026-04-26T05:28:27.729Z</time></trkpt><trkpt lat="42.8702733" lon="2.4957083"><ele>395.5</ele><time>2026-04-26T05:28:28.729Z</time></trkpt><trkpt lat="42.87036" lon="2.4958217"><ele>394.75</ele><time>2026-04-26T05:28:29.736Z</time></trkpt><trkpt lat="42.87045" lon="2.4959283"><ele>394.0</ele><time>2026-04-26T05:28:30.728Z</time></trkpt><trkpt lat="42.8705417" lon="2.496035"><ele>394.0</ele><time>2026-04-26T05:28:31.729Z</time></trkpt><trkpt lat="42.8706367" lon="2.49614"><ele>394.0</ele><time>2026-04-26T05:28:32.729Z</time></trkpt><trkpt lat="42.8707233" lon="2.4962433"><ele>394.0</ele><time>2026-04-26T05:28:33.73Z</time></trkpt><trkpt lat="42.87081" lon="2.4963467"><ele>394.0</ele><time>2026-04-26T05:28:34.729Z</time></trkpt><trkpt lat="42.8708933" lon="2.496445"><ele>394.4</ele><time>2026-04-26T05:28:35.73Z</time></trkpt><trkpt lat="42.8709683" lon="2.49653"><ele>394.79999999999995</ele><time>2026-04-26T05:28:36.729Z</time></trkpt><trkpt lat="42.8710317" lon="2.4966017"><ele>395.20000000000005</ele><time>2026-04-26T05:28:37.733Z</time></trkpt><trkpt lat="42.8711133" lon="2.4966467"><ele>395.6</ele><time>2026-04-26T05:28:39.73Z</time></trkpt><trkpt lat="42.8711683" lon="2.496575"><ele>396.0</ele><time>2026-04-26T05:28:41.73Z</time></trkpt><trkpt lat="42.8712717" lon="2.4964583"><ele>396.0</ele><time>2026-04-26T05:28:43.727Z</time></trkpt><trkpt lat="42.871345" lon="2.4963967"><ele>396.0</ele><time>2026-04-26T05:28:44.73Z</time></trkpt><trkpt lat="42.871425" lon="2.4963483"><ele>396.0</ele><time>2026-04-26T05:28:45.729Z</time></trkpt><trkpt lat="42.8715183" lon="2.496325"><ele>396.0</ele><time>2026-04-26T05:28:46.733Z</time></trkpt><trkpt lat="42.871615" lon="2.4963283"><ele>396.0</ele><time>2026-04-26T05:28:47.73Z</time></trkpt><trkpt lat="42.8717117" lon="2.4963567"><ele>396.4</ele><time>2026-04-26T05:28:48.73Z</time></trkpt><trkpt lat="42.8718033" lon="2.496395"><ele>396.8</ele><time>2026-04-26T05:28:49.731Z</time></trkpt><trkpt lat="42.8718917" lon="2.4964467"><ele>397.2</ele><time>2026-04-26T05:28:50.731Z</time></trkpt><trkpt lat="42.871965" lon="2.4965317"><ele>397.59999999999997</ele><time>2026-04-26T05:28:51.729Z</time></trkpt><trkpt lat="42.87203" lon="2.4966467"><ele>398.0</ele><time>2026-04-26T05:28:52.729Z</time></trkpt><trkpt lat="42.872075" lon="2.4967867"><ele>398.0</ele><time>2026-04-26T05:28:53.73Z</time></trkpt><trkpt lat="42.87212" lon="2.4969467"><ele>398.0</ele><time>2026-04-26T05:28:54.73Z</time></trkpt><trkpt lat="42.8721667" lon="2.4971183"><ele>398.0</ele><time>2026-04-26T05:28:55.734Z</time></trkpt><trkpt lat="42.8722083" lon="2.4973"><ele>398.0</ele><time>2026-04-26T05:28:56.731Z</time></trkpt><trkpt lat="42.8722533" lon="2.4974867"><ele>398.0</ele><time>2026-04-26T05:28:57.73Z</time></trkpt><trkpt lat="42.8723017" lon="2.4976733"><ele>398.0</ele><time>2026-04-26T05:28:58.729Z</time></trkpt><trkpt lat="42.8723517" lon="2.4978533"><ele>398.0</ele><time>2026-04-26T05:28:59.73Z</time></trkpt><trkpt lat="42.8724033" lon="2.4980333"><ele>398.0</ele><time>2026-04-26T05:29:00.73Z</time></trkpt><trkpt lat="42.8724583" lon="2.4982183"><ele>398.0</ele><time>2026-04-26T05:29:01.73Z</time></trkpt><trkpt lat="42.8725133" lon="2.4984083"><ele>398.0</ele><time>2026-04-26T05:29:02.729Z</time></trkpt><trkpt lat="42.8725683" lon="2.4986033"><ele>398.0</ele><time>2026-04-26T05:29:03.735Z</time></trkpt><trkpt lat="42.87262" lon="2.4987967"><ele>399.75</ele><time>2026-04-26T05:29:04.731Z</time></trkpt><trkpt lat="42.8726633" lon="2.4989883"><ele>401.5</ele><time>2026-04-26T05:29:05.73Z</time></trkpt><trkpt lat="42.8726967" lon="2.4991817"><ele>403.25</ele><time>2026-04-26T05:29:06.73Z</time></trkpt><trkpt lat="42.8727217" lon="2.4993683"><ele>405.0</ele><time>2026-04-26T05:29:07.73Z</time></trkpt><trkpt lat="42.8727533" lon="2.4995433"><ele>405.0</ele><time>2026-04-26T05:29:08.73Z</time></trkpt><trkpt lat="42.8728067" lon="2.4996983"><ele>405.0</ele><time>2026-04-26T05:29:09.73Z</time></trkpt><trkpt lat="42.8728867" lon="2.499835"><ele>405.0</ele><time>2026-04-26T05:29:10.729Z</time></trkpt><trkpt lat="42.8729717" lon="2.4999617"><ele>405.0</ele><time>2026-04-26T05:29:11.728Z</time></trkpt><trkpt lat="42.87305" lon="2.500095"><ele>405.0</ele><time>2026-04-26T05:29:12.729Z</time></trkpt><trkpt lat="42.873115" lon="2.5002433"><ele>405.0</ele><time>2026-04-26T05:29:13.728Z</time></trkpt><trkpt lat="42.873165" lon="2.5004133"><ele>405.0</ele><time>2026-04-26T05:29:14.73Z</time></trkpt><trkpt lat="42.87321" lon="2.5005917"><ele>405.0</ele><time>2026-04-26T05:29:15.73Z</time></trkpt><trkpt lat="42.8732583" lon="2.50077"><ele>404.25</ele><time>2026-04-26T05:29:16.729Z</time></trkpt><trkpt lat="42.87331" lon="2.500935"><ele>403.5</ele><time>2026-04-26T05:29:17.731Z</time></trkpt><trkpt lat="42.8733617" lon="2.5010967"><ele>402.75</ele><time>2026-04-26T05:29:18.732Z</time></trkpt><trkpt lat="42.873405" lon="2.50125"><ele>402.0</ele><time>2026-04-26T05:29:19.728Z</time></trkpt><trkpt lat="42.8734417" lon="2.501385"><ele>401.5</ele><time>2026-04-26T05:29:20.731Z</time></trkpt><trkpt lat="42.8734717" lon="2.5014967"><ele>401.0</ele><time>2026-04-26T05:29:21.734Z</time></trkpt><trkpt lat="42.8734983" lon="2.5015867"><ele>400.5</ele><time>2026-04-26T05:29:22.731Z</time></trkpt><trkpt lat="42.8735333" lon="2.501695"><ele>400.0</ele><time>2026-04-26T05:29:24.729Z</time></trkpt><trkpt lat="42.8734667" lon="2.50178"><ele>399.5</ele><time>2026-04-26T05:29:27.728Z</time></trkpt><trkpt lat="42.8734" lon="2.5017883"><ele>399.0</ele><time>2026-04-26T05:29:28.728Z</time></trkpt><trkpt lat="42.873325" lon="2.5017983"><ele>399.0</ele><time>2026-04-26T05:29:29.728Z</time></trkpt><trkpt lat="42.8732383" lon="2.5018233"><ele>399.0</ele><time>2026-04-26T05:29:30.731Z</time></trkpt><trkpt lat="42.8731433" lon="2.501855"><ele>399.0</ele><time>2026-04-26T05:29:31.729Z</time></trkpt><trkpt lat="42.87304" lon="2.5018883"><ele>399.0</ele><time>2026-04-26T05:29:32.728Z</time></trkpt><trkpt lat="42.8729317" lon="2.5019067"><ele>399.0</ele><time>2026-04-26T05:29:33.727Z</time></trkpt><trkpt lat="42.8728083" lon="2.50191"><ele>399.0</ele><time>2026-04-26T05:29:34.728Z</time></trkpt><trkpt lat="42.8726817" lon="2.5019017"><ele>399.0</ele><time>2026-04-26T05:29:35.728Z</time></trkpt><trkpt lat="42.8725567" lon="2.501895"><ele>399.0</ele><time>2026-04-26T05:29:36.728Z</time></trkpt><trkpt lat="42.8724433" lon="2.501875"><ele>399.0</ele><time>2026-04-26T05:29:37.728Z</time></trkpt><trkpt lat="42.872335" lon="2.5018267"><ele>398.4</ele><time>2026-04-26T05:29:38.729Z</time></trkpt><trkpt lat="42.87224" lon="2.5017517"><ele>397.79999999999995</ele><time>2026-04-26T05:29:39.73Z</time></trkpt><trkpt lat="42.8721533" lon="2.50166"><ele>397.20000000000005</ele><time>2026-04-26T05:29:40.728Z</time></trkpt><trkpt lat="42.8720783" lon="2.501555"><ele>396.6</ele><time>2026-04-26T05:29:41.729Z</time></trkpt><trkpt lat="42.8720017" lon="2.501435"><ele>396.0</ele><time>2026-04-26T05:29:42.728Z</time></trkpt><trkpt lat="42.8719217" lon="2.5013183"><ele>396.5</ele><time>2026-04-26T05:29:43.73Z</time></trkpt><trkpt lat="42.87183" lon="2.501215"><ele>397.0</ele><time>2026-04-26T05:29:44.729Z</time></trkpt><trkpt lat="42.871725" lon="2.5011317"><ele>397.5</ele><time>2026-04-26T05:29:45.73Z</time></trkpt><trkpt lat="42.8716067" lon="2.50107"><ele>398.0</ele><time>2026-04-26T05:29:46.729Z</time></trkpt><trkpt lat="42.871485" lon="2.5010283"><ele>396.59999999999997</ele><time>2026-04-26T05:29:47.728Z</time></trkpt><trkpt lat="42.871365" lon="2.5009967"><ele>395.2</ele><time>2026-04-26T05:29:48.728Z</time></trkpt><trkpt lat="42.8712483" lon="2.50097"><ele>393.8</ele><time>2026-04-26T05:29:49.729Z</time></trkpt><trkpt lat="42.8711433" lon="2.500945"><ele>392.4</ele><time>2026-04-26T05:29:50.729Z</time></trkpt><trkpt lat="42.8710483" lon="2.5009333"><ele>391.0</ele><time>2026-04-26T05:29:51.73Z</time></trkpt><trkpt lat="42.8709733" lon="2.50094"><ele>390.6</ele><time>2026-04-26T05:29:52.734Z</time></trkpt><trkpt lat="42.8708667" lon="2.5009717"><ele>390.20000000000005</ele><time>2026-04-26T05:29:54.729Z</time></trkpt><trkpt lat="42.8707733" lon="2.5009983"><ele>389.79999999999995</ele><time>2026-04-26T05:29:56.729Z</time></trkpt><trkpt lat="42.870705" lon="2.5009883"><ele>389.4</ele><time>2026-04-26T05:29:57.729Z</time></trkpt><trkpt lat="42.870625" lon="2.500975"><ele>389.0</ele><time>2026-04-26T05:29:58.729Z</time></trkpt><trkpt lat="42.8705283" lon="2.5009617"><ele>389.0</ele><time>2026-04-26T05:29:59.73Z</time></trkpt><trkpt lat="42.8704233" lon="2.5009483"><ele>389.0</ele><time>2026-04-26T05:30:00.731Z</time></trkpt><trkpt lat="42.8703217" lon="2.5009333"><ele>389.0</ele><time>2026-04-26T05:30:01.73Z</time></trkpt><trkpt lat="42.8702217" lon="2.5009167"><ele>389.0</ele><time>2026-04-26T05:30:02.73Z</time></trkpt><trkpt lat="42.870125" lon="2.500905"><ele>389.0</ele><time>2026-04-26T05:30:03.732Z</time></trkpt><trkpt lat="42.8700317" lon="2.5009"><ele>389.79999999999995</ele><time>2026-04-26T05:30:04.729Z</time></trkpt><trkpt lat="42.8699317" lon="2.5008983"><ele>390.59999999999997</ele><time>2026-04-26T05:30:05.729Z</time></trkpt><trkpt lat="42.8698317" lon="2.5009117"><ele>391.4</ele><time>2026-04-26T05:30:06.73Z</time></trkpt><trkpt lat="42.8697233" lon="2.5009067"><ele>392.2</ele><time>2026-04-26T05:30:07.73Z</time></trkpt><trkpt lat="42.8696133" lon="2.5009067"><ele>393.0</ele><time>2026-04-26T05:30:08.73Z</time></trkpt><trkpt lat="42.86951" lon="2.500915"><ele>393.0</ele><time>2026-04-26T05:30:09.729Z</time></trkpt><trkpt lat="42.8694183" lon="2.500935"><ele>393.0</ele><time>2026-04-26T05:30:10.728Z</time></trkpt><trkpt lat="42.8693317" lon="2.5009567"><ele>393.0</ele><time>2026-04-26T05:30:11.727Z</time></trkpt><trkpt lat="42.869255" lon="2.5009783"><ele>393.0</ele><time>2026-04-26T05:30:12.73Z</time></trkpt><trkpt lat="42.8691833" lon="2.5010067"><ele>393.0</ele><time>2026-04-26T05:30:13.728Z</time></trkpt><trkpt lat="42.8691017" lon="2.5010417"><ele>393.0</ele><time>2026-04-26T05:30:14.729Z</time></trkpt><trkpt lat="42.8690117" lon="2.5010883"><ele>393.59999999999997</ele><time>2026-04-26T05:30:15.731Z</time></trkpt><trkpt lat="42.8689233" lon="2.5011483"><ele>394.2</ele><time>2026-04-26T05:30:16.732Z</time></trkpt><trkpt lat="42.8688367" lon="2.5012167"><ele>394.8</ele><time>2026-04-26T05:30:17.73Z</time></trkpt><trkpt lat="42.868755" lon="2.5012883"><ele>395.4</ele><time>2026-04-26T05:30:18.728Z</time></trkpt><trkpt lat="42.8686833" lon="2.5013483"><ele>396.0</ele><time>2026-04-26T05:30:19.731Z</time></trkpt><trkpt lat="42.8686217" lon="2.5014067"><ele>397.20000000000005</ele><time>2026-04-26T05:30:20.728Z</time></trkpt><trkpt lat="42.8685683" lon="2.501485"><ele>398.40000000000003</ele><time>2026-04-26T05:30:21.728Z</time></trkpt><trkpt lat="42.8685133" lon="2.5015733"><ele>399.6</ele><time>2026-04-26T05:30:22.729Z</time></trkpt><trkpt lat="42.86845" lon="2.5016567"><ele>400.8</ele><time>2026-04-26T05:30:23.729Z</time></trkpt><trkpt lat="42.86837" lon="2.5017433"><ele>402.0</ele><time>2026-04-26T05:30:24.729Z</time></trkpt><trkpt lat="42.8682833" lon="2.5018267"><ele>402.0</ele><time>2026-04-26T05:30:25.732Z</time></trkpt><trkpt lat="42.8681917" lon="2.5019067"><ele>402.0</ele><time>2026-04-26T05:30:26.729Z</time></trkpt><trkpt lat="42.8681033" lon="2.5019833"><ele>402.0</ele><time>2026-04-26T05:30:27.728Z</time></trkpt><trkpt lat="42.8680183" lon="2.50207"><ele>402.0</ele><time>2026-04-26T05:30:28.729Z</time></trkpt><trkpt lat="42.8679433" lon="2.5021533"><ele>402.0</ele><time>2026-04-26T05:30:29.728Z</time></trkpt><trkpt lat="42.8678783" lon="2.5022367"><ele>402.1666666666667</ele><time>2026-04-26T05:30:30.729Z</time></trkpt><trkpt lat="42.8678167" lon="2.502315"><ele>402.33333333333337</ele><time>2026-04-26T05:30:31.73Z</time></trkpt><trkpt lat="42.8677583" lon="2.5023867"><ele>402.5</ele><time>2026-04-26T05:30:32.73Z</time></trkpt><trkpt lat="42.8676967" lon="2.5024483"><ele>402.6666666666667</ele><time>2026-04-26T05:30:33.729Z</time></trkpt><trkpt lat="42.8675933" lon="2.5024817"><ele>402.83333333333337</ele><time>2026-04-26T05:30:35.728Z</time></trkpt><trkpt lat="42.867515" lon="2.5024333"><ele>403.0</ele><time>2026-04-26T05:30:37.728Z</time></trkpt><trkpt lat="42.8675033" lon="2.5023233"><ele>404.79999999999995</ele><time>2026-04-26T05:30:39.729Z</time></trkpt><trkpt lat="42.8675017" lon="2.502195"><ele>406.6</ele><time>2026-04-26T05:30:41.727Z</time></trkpt><trkpt lat="42.867455" lon="2.50205"><ele>408.4</ele><time>2026-04-26T05:30:43.729Z</time></trkpt><trkpt lat="42.8673483" lon="2.5020117"><ele>410.20000000000005</ele><time>2026-04-26T05:30:45.728Z</time></trkpt><trkpt lat="42.8672717" lon="2.5020267"><ele>412.0</ele><time>2026-04-26T05:30:46.729Z</time></trkpt><trkpt lat="42.86719" lon="2.502045"><ele>412.6</ele><time>2026-04-26T05:30:47.729Z</time></trkpt><trkpt lat="42.8671067" lon="2.5020533"><ele>413.20000000000005</ele><time>2026-04-26T05:30:48.727Z</time></trkpt><trkpt lat="42.8670167" lon="2.5020567"><ele>413.8</ele><time>2026-04-26T05:30:49.728Z</time></trkpt><trkpt lat="42.8669233" lon="2.5020517"><ele>414.4</ele><time>2026-04-26T05:30:50.729Z</time></trkpt><trkpt lat="42.86683" lon="2.5020483"><ele>415.0</ele><time>2026-04-26T05:30:51.729Z</time></trkpt><trkpt lat="42.866735" lon="2.5020517"><ele>416.2</ele><time>2026-04-26T05:30:52.729Z</time></trkpt><trkpt lat="42.86664" lon="2.5020533"><ele>417.4</ele><time>2026-04-26T05:30:53.733Z</time></trkpt><trkpt lat="42.8665433" lon="2.5020567"><ele>418.6</ele><time>2026-04-26T05:30:54.728Z</time></trkpt><trkpt lat="42.8664483" lon="2.502065"><ele>419.8</ele><time>2026-04-26T05:30:55.728Z</time></trkpt><trkpt lat="42.86636" lon="2.5020767"><ele>421.0</ele><time>2026-04-26T05:30:56.728Z</time></trkpt><trkpt lat="42.8662833" lon="2.5020967"><ele>421.50000000000006</ele><time>2026-04-26T05:30:57.728Z</time></trkpt><trkpt lat="42.8662133" lon="2.5021217"><ele>422.0</ele><time>2026-04-26T05:30:58.728Z</time></trkpt><trkpt lat="42.8661317" lon="2.5021417"><ele>422.5</ele><time>2026-04-26T05:30:59.73Z</time></trkpt><trkpt lat="42.8660417" lon="2.5021617"><ele>423.0</ele><time>2026-04-26T05:31:00.729Z</time></trkpt><trkpt lat="42.8659533" lon="2.5021817"><ele>423.50000000000006</ele><time>2026-04-26T05:31:01.729Z</time></trkpt><trkpt lat="42.86587" lon="2.5022067"><ele>424.0</ele><time>2026-04-26T05:31:02.733Z</time></trkpt><trkpt lat="42.8658" lon="2.5022017"><ele>425.79999999999995</ele><time>2026-04-26T05:31:03.728Z</time></trkpt><trkpt lat="42.8656983" lon="2.502185"><ele>427.59999999999997</ele><time>2026-04-26T05:31:05.73Z</time></trkpt><trkpt lat="42.8656167" lon="2.5021933"><ele>429.4</ele><time>2026-04-26T05:31:07.73Z</time></trkpt><trkpt lat="42.8655517" lon="2.502265"><ele>431.2</ele><time>2026-04-26T05:31:09.729Z</time></trkpt><trkpt lat="42.865475" lon="2.5024"><ele>433.0</ele><time>2026-04-26T05:31:11.731Z</time></trkpt><trkpt lat="42.8654283" lon="2.5024633"><ele>433.0</ele><time>2026-04-26T05:31:12.728Z</time></trkpt><trkpt lat="42.86538" lon="2.5025217"><ele>432.99999999999994</ele><time>2026-04-26T05:31:13.729Z</time></trkpt><trkpt lat="42.8653317" lon="2.50266"><ele>432.99999999999994</ele><time>2026-04-26T05:31:15.73Z</time></trkpt><trkpt lat="42.8653317" lon="2.5027883"><ele>433.0</ele><time>2026-04-26T05:31:17.732Z</time></trkpt><trkpt lat="42.86535" lon="2.502945"><ele>433.0</ele><time>2026-04-26T05:31:19.728Z</time></trkpt><trkpt lat="42.865325" lon="2.5030933"><ele>433.4</ele><time>2026-04-26T05:31:21.728Z</time></trkpt><trkpt lat="42.8652667" lon="2.50324"><ele>433.79999999999995</ele><time>2026-04-26T05:31:23.728Z</time></trkpt><trkpt lat="42.86517" lon="2.5033283"><ele>434.2</ele><time>2026-04-26T05:31:25.727Z</time></trkpt><trkpt lat="42.86507" lon="2.5033"><ele>434.6</ele><time>2026-04-26T05:31:27.729Z</time></trkpt><trkpt lat="42.8650133" lon="2.50322"><ele>435.0</ele><time>2026-04-26T05:31:29.729Z</time></trkpt><trkpt lat="42.8649633" lon="2.5031233"><ele>436.2</ele><time>2026-04-26T05:31:31.728Z</time></trkpt><trkpt lat="42.8649067" lon="2.503025"><ele>437.4</ele><time>2026-04-26T05:31:33.728Z</time></trkpt><trkpt lat="42.8648517" lon="2.502935"><ele>438.6</ele><time>2026-04-26T05:31:35.731Z</time></trkpt><trkpt lat="42.8647667" lon="2.5028533"><ele>439.8</ele><time>2026-04-26T05:31:37.728Z</time></trkpt><trkpt lat="42.86467" lon="2.5027783"><ele>441.0</ele><time>2026-04-26T05:31:39.729Z</time></trkpt><trkpt lat="42.8646083" lon="2.5027983"><ele>442.0</ele><time>2026-04-26T05:31:41.729Z</time></trkpt><trkpt lat="42.8645817" lon="2.5029167"><ele>443.0</ele><time>2026-04-26T05:31:44.729Z</time></trkpt><trkpt lat="42.86459" lon="2.5030133"><ele>444.0</ele><time>2026-04-26T05:31:46.728Z</time></trkpt><trkpt lat="42.86459" lon="2.50313"><ele>445.0</ele><time>2026-04-26T05:31:48.727Z</time></trkpt><trkpt lat="42.864595" lon="2.5032533"><ele>446.0</ele><time>2026-04-26T05:31:50.728Z</time></trkpt><trkpt lat="42.86458" lon="2.5033917"><ele>447.0</ele><time>2026-04-26T05:31:52.728Z</time></trkpt><trkpt lat="42.8645533" lon="2.5035483"><ele>447.0</ele><time>2026-04-26T05:31:54.728Z</time></trkpt><trkpt lat="42.8645317" lon="2.5036333"><ele>447.0</ele><time>2026-04-26T05:31:55.728Z</time></trkpt><trkpt lat="42.8645033" lon="2.5037117"><ele>447.0</ele><time>2026-04-26T05:31:56.728Z</time></trkpt><trkpt lat="42.8644683" lon="2.5037867"><ele>447.0</ele><time>2026-04-26T05:31:57.728Z</time></trkpt><trkpt lat="42.8644033" lon="2.5039283"><ele>447.0</ele><time>2026-04-26T05:31:59.727Z</time></trkpt><trkpt lat="42.864345" lon="2.50406"><ele>447.0</ele><time>2026-04-26T05:32:01.729Z</time></trkpt><trkpt lat="42.8643117" lon="2.5041583"><ele>447.20000000000005</ele><time>2026-04-26T05:32:03.727Z</time></trkpt><trkpt lat="42.8642867" lon="2.5042483"><ele>447.40000000000003</ele><time>2026-04-26T05:32:05.728Z</time></trkpt><trkpt lat="42.8642567" lon="2.50436"><ele>447.59999999999997</ele><time>2026-04-26T05:32:07.729Z</time></trkpt><trkpt lat="42.8642167" lon="2.5045017"><ele>447.79999999999995</ele><time>2026-04-26T05:32:09.733Z</time></trkpt><trkpt lat="42.8641633" lon="2.5046433"><ele>448.0</ele><time>2026-04-26T05:32:11.729Z</time></trkpt><trkpt lat="42.86413" lon="2.504785"><ele>450.33333333333337</ele><time>2026-04-26T05:32:13.728Z</time></trkpt><trkpt lat="42.864125" lon="2.504875"><ele>452.6666666666667</ele><time>2026-04-26T05:32:14.729Z</time></trkpt><trkpt lat="42.8641217" lon="2.5049717"><ele>455.0</ele><time>2026-04-26T05:32:15.73Z</time></trkpt><trkpt lat="42.8641117" lon="2.50507"><ele>457.33333333333337</ele><time>2026-04-26T05:32:16.729Z</time></trkpt><trkpt lat="42.8640933" lon="2.50517"><ele>459.6666666666667</ele><time>2026-04-26T05:32:17.728Z</time></trkpt><trkpt lat="42.86406" lon="2.5052817"><ele>462.0</ele><time>2026-04-26T05:32:18.728Z</time></trkpt><trkpt lat="42.8640167" lon="2.5054117"><ele>462.3333333333333</ele><time>2026-04-26T05:32:19.729Z</time></trkpt><trkpt lat="42.8639817" lon="2.5055283"><ele>462.66666666666663</ele><time>2026-04-26T05:32:20.728Z</time></trkpt><trkpt lat="42.863955" lon="2.5056383"><ele>463.0</ele><time>2026-04-26T05:32:21.73Z</time></trkpt><trkpt lat="42.86393" lon="2.5057267"><ele>463.3333333333333</ele><time>2026-04-26T05:32:22.73Z</time></trkpt><trkpt lat="42.86387" lon="2.5058683"><ele>463.66666666666663</ele><time>2026-04-26T05:32:24.729Z</time></trkpt><trkpt lat="42.8638317" lon="2.5059417"><ele>464.0</ele><time>2026-04-26T05:32:25.729Z</time></trkpt><trkpt lat="42.8637867" lon="2.5060217"><ele>464.00000000000006</ele><time>2026-04-26T05:32:26.729Z</time></trkpt><trkpt lat="42.86374" lon="2.5060967"><ele>464.0</ele><time>2026-04-26T05:32:27.732Z</time></trkpt><trkpt lat="42.8636983" lon="2.5061733"><ele>464.00000000000006</ele><time>2026-04-26T05:32:28.728Z</time></trkpt><trkpt lat="42.86366" lon="2.50625"><ele>464.00000000000006</ele><time>2026-04-26T05:32:29.728Z</time></trkpt><trkpt lat="42.863615" lon="2.5063317"><ele>464.0</ele><time>2026-04-26T05:32:30.729Z</time></trkpt><trkpt lat="42.8635683" lon="2.5064083"><ele>464.00000000000006</ele><time>2026-04-26T05:32:31.729Z</time></trkpt><trkpt lat="42.863515" lon="2.5064783"><ele>464.00000000000006</ele><time>2026-04-26T05:32:32.728Z</time></trkpt><trkpt lat="42.8634583" lon="2.50655"><ele>461.79999999999995</ele><time>2026-04-26T05:32:33.728Z</time></trkpt><trkpt lat="42.86341" lon="2.506615"><ele>459.59999999999997</ele><time>2026-04-26T05:32:34.729Z</time></trkpt><trkpt lat="42.8633283" lon="2.5066983"><ele>457.4</ele><time>2026-04-26T05:32:36.731Z</time></trkpt><trkpt lat="42.8632" lon="2.5067283"><ele>455.2</ele><time>2026-04-26T05:32:38.728Z</time></trkpt><trkpt lat="42.8631233" lon="2.50673"><ele>453.0</ele><time>2026-04-26T05:32:39.728Z</time></trkpt><trkpt lat="42.8630383" lon="2.5067283"><ele>452.99999999999994</ele><time>2026-04-26T05:32:40.731Z</time></trkpt><trkpt lat="42.8629617" lon="2.5067233"><ele>453.0</ele><time>2026-04-26T05:32:41.73Z</time></trkpt><trkpt lat="42.8628917" lon="2.5067233"><ele>452.99999999999994</ele><time>2026-04-26T05:32:42.727Z</time></trkpt><trkpt lat="42.862825" lon="2.5067283"><ele>452.99999999999994</ele><time>2026-04-26T05:32:43.731Z</time></trkpt><trkpt lat="42.8627583" lon="2.5067367"><ele>453.0</ele><time>2026-04-26T05:32:44.73Z</time></trkpt><trkpt lat="42.862695" lon="2.5067533"><ele>452.99999999999994</ele><time>2026-04-26T05:32:45.727Z</time></trkpt><trkpt lat="42.8626333" lon="2.5067867"><ele>452.99999999999994</ele><time>2026-04-26T05:32:46.728Z</time></trkpt><trkpt lat="42.8625667" lon="2.506835"><ele>452.5</ele><time>2026-04-26T05:32:47.727Z</time></trkpt><trkpt lat="42.86249" lon="2.5068867"><ele>452.0</ele><time>2026-04-26T05:32:48.728Z</time></trkpt><trkpt lat="42.8624083" lon="2.506945"><ele>451.5</ele><time>2026-04-26T05:32:49.727Z</time></trkpt><trkpt lat="42.86233" lon="2.5069967"><ele>451.0</ele><time>2026-04-26T05:32:50.728Z</time></trkpt><trkpt lat="42.8622483" lon="2.507045"><ele>450.5</ele><time>2026-04-26T05:32:51.727Z</time></trkpt><trkpt lat="42.86217" lon="2.5070817"><ele>450.0</ele><time>2026-04-26T05:32:52.728Z</time></trkpt><trkpt lat="42.8620933" lon="2.5071067"><ele>450.0</ele><time>2026-04-26T05:32:53.729Z</time></trkpt><trkpt lat="42.8620183" lon="2.507115"><ele>450.0</ele><time>2026-04-26T05:32:54.729Z</time></trkpt><trkpt lat="42.8619483" lon="2.50711"><ele>450.0</ele><time>2026-04-26T05:32:55.728Z</time></trkpt><trkpt lat="42.861875" lon="2.5070833"><ele>450.0</ele><time>2026-04-26T05:32:56.728Z</time></trkpt><trkpt lat="42.8617917" lon="2.5070333"><ele>450.0</ele><time>2026-04-26T05:32:57.727Z</time></trkpt><trkpt lat="42.8617083" lon="2.5069683"><ele>450.0</ele><time>2026-04-26T05:32:58.728Z</time></trkpt><trkpt lat="42.8616267" lon="2.506895"><ele>452.0</ele><time>2026-04-26T05:32:59.728Z</time></trkpt><trkpt lat="42.8615467" lon="2.5068033"><ele>454.0</ele><time>2026-04-26T05:33:00.73Z</time></trkpt><trkpt lat="42.8614617" lon="2.506705"><ele>456.0</ele><time>2026-04-26T05:33:01.728Z</time></trkpt><trkpt lat="42.8613733" lon="2.5066083"><ele>458.0</ele><time>2026-04-26T05:33:02.729Z</time></trkpt><trkpt lat="42.861285" lon="2.5065117"><ele>460.0</ele><time>2026-04-26T05:33:03.735Z</time></trkpt><trkpt lat="42.8612017" lon="2.5064067"><ele>460.0</ele><time>2026-04-26T05:33:04.732Z</time></trkpt><trkpt lat="42.8611217" lon="2.5062967"><ele>460.0</ele><time>2026-04-26T05:33:05.728Z</time></trkpt><trkpt lat="42.8610483" lon="2.5061783"><ele>460.0</ele><time>2026-04-26T05:33:06.73Z</time></trkpt><trkpt lat="42.8609717" lon="2.506055"><ele>460.0</ele><time>2026-04-26T05:33:07.729Z</time></trkpt><trkpt lat="42.860895" lon="2.50593"><ele>462.0</ele><time>2026-04-26T05:33:08.73Z</time></trkpt><trkpt lat="42.8608083" lon="2.5058033"><ele>464.0</ele><time>2026-04-26T05:33:09.734Z</time></trkpt><trkpt lat="42.8607183" lon="2.5056767"><ele>466.0</ele><time>2026-04-26T05:33:10.73Z</time></trkpt><trkpt lat="42.8606317" lon="2.50555"><ele>468.0</ele><time>2026-04-26T05:33:11.729Z</time></trkpt><trkpt lat="42.8605433" lon="2.5054267"><ele>468.0</ele><time>2026-04-26T05:33:12.728Z</time></trkpt><trkpt lat="42.8604617" lon="2.5053133"><ele>467.99999999999994</ele><time>2026-04-26T05:33:13.727Z</time></trkpt><trkpt lat="42.860395" lon="2.5052083"><ele>467.99999999999994</ele><time>2026-04-26T05:33:14.728Z</time></trkpt><trkpt lat="42.860335" lon="2.5051217"><ele>468.0</ele><time>2026-04-26T05:33:15.727Z</time></trkpt><trkpt lat="42.86028" lon="2.50506"><ele>468.0</ele><time>2026-04-26T05:33:16.729Z</time></trkpt><trkpt lat="42.8601717" lon="2.5050783"><ele>471.4</ele><time>2026-04-26T05:33:18.728Z</time></trkpt><trkpt lat="42.8600883" lon="2.5051033"><ele>474.79999999999995</ele><time>2026-04-26T05:33:19.732Z</time></trkpt><trkpt lat="42.8599933" lon="2.5051083"><ele>478.2</ele><time>2026-04-26T05:33:20.728Z</time></trkpt><trkpt lat="42.8598917" lon="2.5050833"><ele>481.6</ele><time>2026-04-26T05:33:21.728Z</time></trkpt><trkpt lat="42.859785" lon="2.5050433"><ele>485.0</ele><time>2026-04-26T05:33:22.728Z</time></trkpt><trkpt lat="42.8596917" lon="2.505"><ele>484.99999999999994</ele><time>2026-04-26T05:33:23.728Z</time></trkpt><trkpt lat="42.8596117" lon="2.50497"><ele>485.0</ele><time>2026-04-26T05:33:24.729Z</time></trkpt><trkpt lat="42.8595467" lon="2.5049633"><ele>485.0</ele><time>2026-04-26T05:33:25.729Z</time></trkpt><trkpt lat="42.8594833" lon="2.5049633"><ele>485.0</ele><time>2026-04-26T05:33:26.732Z</time></trkpt><trkpt lat="42.8593567" lon="2.504975"><ele>484.99999999999994</ele><time>2026-04-26T05:33:28.728Z</time></trkpt><trkpt lat="42.8592833" lon="2.5049917"><ele>485.0</ele><time>2026-04-26T05:33:29.728Z</time></trkpt><trkpt lat="42.859205" lon="2.5050267"><ele>487.8333333333333</ele><time>2026-04-26T05:33:30.728Z</time></trkpt><trkpt lat="42.8591233" lon="2.5050733"><ele>490.66666666666663</ele><time>2026-04-26T05:33:31.733Z</time></trkpt><trkpt lat="42.8590417" lon="2.50513"><ele>493.5</ele><time>2026-04-26T05:33:32.729Z</time></trkpt><trkpt lat="42.858965" lon="2.505175"><ele>496.33333333333337</ele><time>2026-04-26T05:33:33.729Z</time></trkpt><trkpt lat="42.8588783" lon="2.5052033"><ele>499.1666666666667</ele><time>2026-04-26T05:33:34.73Z</time></trkpt><trkpt lat="42.8587933" lon="2.505225"><ele>502.0</ele><time>2026-04-26T05:33:35.729Z</time></trkpt><trkpt lat="42.85871" lon="2.5052333"><ele>502.00000000000006</ele><time>2026-04-26T05:33:36.729Z</time></trkpt><trkpt lat="42.858635" lon="2.5052333"><ele>502.0</ele><time>2026-04-26T05:33:37.729Z</time></trkpt><trkpt lat="42.85856" lon="2.5052233"><ele>502.0</ele><time>2026-04-26T05:33:38.73Z</time></trkpt><trkpt lat="42.8584783" lon="2.5052133"><ele>502.0</ele><time>2026-04-26T05:33:39.73Z</time></trkpt><trkpt lat="42.8584" lon="2.5052033"><ele>502.00000000000006</ele><time>2026-04-26T05:33:40.73Z</time></trkpt><trkpt lat="42.8583217" lon="2.505185"><ele>502.0</ele><time>2026-04-26T05:33:41.727Z</time></trkpt><trkpt lat="42.8582467" lon="2.505165"><ele>505.8</ele><time>2026-04-26T05:33:42.728Z</time></trkpt><trkpt lat="42.85817" lon="2.50514"><ele>509.6</ele><time>2026-04-26T05:33:43.729Z</time></trkpt><trkpt lat="42.8580983" lon="2.5051167"><ele>513.4000000000001</ele><time>2026-04-26T05:33:44.728Z</time></trkpt><trkpt lat="42.858035" lon="2.505105"><ele>517.2</ele><time>2026-04-26T05:33:45.73Z</time></trkpt><trkpt lat="42.857915" lon="2.5050617"><ele>521.0</ele><time>2026-04-26T05:33:47.728Z</time></trkpt><trkpt lat="42.8578383" lon="2.5049283"><ele>521.0</ele><time>2026-04-26T05:33:49.728Z</time></trkpt><trkpt lat="42.85781" lon="2.504835"><ele>521.0</ele><time>2026-04-26T05:33:50.729Z</time></trkpt><trkpt lat="42.8577917" lon="2.5047467"><ele>521.0</ele><time>2026-04-26T05:33:51.728Z</time></trkpt><trkpt lat="42.8578283" lon="2.504595"><ele>521.0</ele><time>2026-04-26T05:33:53.73Z</time></trkpt><trkpt lat="42.8578633" lon="2.5045217"><ele>521.0</ele><time>2026-04-26T05:33:54.728Z</time></trkpt><trkpt lat="42.8579033" lon="2.5044433"><ele>521.0</ele><time>2026-04-26T05:33:55.729Z</time></trkpt><trkpt lat="42.8579267" lon="2.5043433"><ele>522.0</ele><time>2026-04-26T05:33:56.729Z</time></trkpt><trkpt lat="42.85793" lon="2.50423"><ele>523.0</ele><time>2026-04-26T05:33:57.729Z</time></trkpt><trkpt lat="42.8579267" lon="2.5041067"><ele>524.0</ele><time>2026-04-26T05:33:58.729Z</time></trkpt><trkpt lat="42.8579017" lon="2.503965"><ele>525.0</ele><time>2026-04-26T05:33:59.729Z</time></trkpt><trkpt lat="42.8578667" lon="2.5038233"><ele>526.0</ele><time>2026-04-26T05:34:00.728Z</time></trkpt><trkpt lat="42.85784" lon="2.5036967"><ele>526.1666666666667</ele><time>2026-04-26T05:34:01.728Z</time></trkpt><trkpt lat="42.857815" lon="2.50358"><ele>526.3333333333334</ele><time>2026-04-26T05:34:02.728Z</time></trkpt><trkpt lat="42.8578067" lon="2.5034617"><ele>526.5</ele><time>2026-04-26T05:34:03.728Z</time></trkpt><trkpt lat="42.85781" lon="2.5033417"><ele>526.6666666666666</ele><time>2026-04-26T05:34:04.727Z</time></trkpt><trkpt lat="42.85782" lon="2.5032267"><ele>526.8333333333333</ele><time>2026-04-26T05:34:05.728Z</time></trkpt><trkpt lat="42.857825" lon="2.5031283"><ele>527.0</ele><time>2026-04-26T05:34:06.729Z</time></trkpt><trkpt lat="42.8577983" lon="2.5029983"><ele>527.0</ele><time>2026-04-26T05:34:08.729Z</time></trkpt><trkpt lat="42.85773" lon="2.5029983"><ele>527.0</ele><time>2026-04-26T05:34:11.729Z</time></trkpt><trkpt lat="42.857675" lon="2.5031283"><ele>527.0</ele><time>2026-04-26T05:34:13.729Z</time></trkpt><trkpt lat="42.8576233" lon="2.50323"><ele>527.0</ele><time>2026-04-26T05:34:14.729Z</time></trkpt><trkpt lat="42.8575517" lon="2.5033417"><ele>527.0</ele><time>2026-04-26T05:34:15.727Z</time></trkpt><trkpt lat="42.8574817" lon="2.5034483"><ele>530.0</ele><time>2026-04-26T05:34:16.728Z</time></trkpt><trkpt lat="42.85742" lon="2.5035417"><ele>533.0</ele><time>2026-04-26T05:34:17.727Z</time></trkpt><trkpt lat="42.8573667" lon="2.5036183"><ele>536.0</ele><time>2026-04-26T05:34:18.728Z</time></trkpt><trkpt lat="42.8573133" lon="2.5036817"><ele>539.0</ele><time>2026-04-26T05:34:19.73Z</time></trkpt><trkpt lat="42.85725" lon="2.5037383"><ele>542.0</ele><time>2026-04-26T05:34:20.731Z</time></trkpt><trkpt lat="42.857175" lon="2.50379"><ele>545.0</ele><time>2026-04-26T05:34:21.728Z</time></trkpt><trkpt lat="42.857095" lon="2.5038267"><ele>545.0</ele><time>2026-04-26T05:34:22.731Z</time></trkpt><trkpt lat="42.8570083" lon="2.5038767"><ele>545.0</ele><time>2026-04-26T05:34:23.729Z</time></trkpt><trkpt lat="42.85691" lon="2.503935"><ele>545.0</ele><time>2026-04-26T05:34:24.728Z</time></trkpt><trkpt lat="42.856815" lon="2.5040017"><ele>545.0</ele><time>2026-04-26T05:34:25.727Z</time></trkpt><trkpt lat="42.85672" lon="2.50407"><ele>545.0</ele><time>2026-04-26T05:34:26.728Z</time></trkpt><trkpt lat="42.8566333" lon="2.504155"><ele>551.25</ele><time>2026-04-26T05:34:27.729Z</time></trkpt><trkpt lat="42.8565467" lon="2.50426"><ele>557.5</ele><time>2026-04-26T05:34:28.727Z</time></trkpt><trkpt lat="42.85646" lon="2.5043633"><ele>563.75</ele><time>2026-04-26T05:34:29.728Z</time></trkpt><trkpt lat="42.8563717" lon="2.5044683"><ele>570.0</ele><time>2026-04-26T05:34:30.729Z</time></trkpt><trkpt lat="42.8563017" lon="2.5045717"><ele>569.0</ele><time>2026-04-26T05:34:31.729Z</time></trkpt><trkpt lat="42.85624" lon="2.50468"><ele>568.0</ele><time>2026-04-26T05:34:32.727Z</time></trkpt><trkpt lat="42.856185" lon="2.5047933"><ele>567.0</ele><time>2026-04-26T05:34:33.728Z</time></trkpt><trkpt lat="42.85613" lon="2.5049217"><ele>566.0</ele><time>2026-04-26T05:34:34.729Z</time></trkpt><trkpt lat="42.8560883" lon="2.5050433"><ele>565.0</ele><time>2026-04-26T05:34:35.733Z</time></trkpt><trkpt lat="42.8560517" lon="2.5051733"><ele>565.0</ele><time>2026-04-26T05:34:36.727Z</time></trkpt><trkpt lat="42.856005" lon="2.5052917"><ele>565.0</ele><time>2026-04-26T05:34:37.728Z</time></trkpt><trkpt lat="42.8559633" lon="2.5054217"><ele>565.0</ele><time>2026-04-26T05:34:38.729Z</time></trkpt><trkpt lat="42.8559133" lon="2.5055517"><ele>565.0</ele><time>2026-04-26T05:34:39.728Z</time></trkpt><trkpt lat="42.855855" lon="2.5056767"><ele>565.0</ele><time>2026-04-26T05:34:40.728Z</time></trkpt><trkpt lat="42.8557917" lon="2.5058067"><ele>573.5</ele><time>2026-04-26T05:34:41.727Z</time></trkpt><trkpt lat="42.8557233" lon="2.505945"><ele>582.0</ele><time>2026-04-26T05:34:42.729Z</time></trkpt><trkpt lat="42.8556533" lon="2.5060917"><ele>590.5</ele><time>2026-04-26T05:34:43.729Z</time></trkpt><trkpt lat="42.8555883" lon="2.5062317"><ele>599.0</ele><time>2026-04-26T05:34:44.729Z</time></trkpt><trkpt lat="42.8555183" lon="2.5063667"><ele>599.0</ele><time>2026-04-26T05:34:45.727Z</time></trkpt><trkpt lat="42.8554683" lon="2.5065283"><ele>599.0</ele><time>2026-04-26T05:34:46.73Z</time></trkpt><trkpt lat="42.8554083" lon="2.5066833"><ele>599.0</ele><time>2026-04-26T05:34:47.728Z</time></trkpt><trkpt lat="42.8553467" lon="2.506835"><ele>599.0</ele><time>2026-04-26T05:34:48.73Z</time></trkpt><trkpt lat="42.8552917" lon="2.5069767"><ele>597.8</ele><time>2026-04-26T05:34:49.727Z</time></trkpt><trkpt lat="42.8552383" lon="2.507095"><ele>596.5999999999999</ele><time>2026-04-26T05:34:50.727Z</time></trkpt><trkpt lat="42.8551783" lon="2.5071933"><ele>595.4</ele><time>2026-04-26T05:34:51.729Z</time></trkpt><trkpt lat="42.8551217" lon="2.50728"><ele>594.1999999999999</ele><time>2026-04-26T05:34:52.728Z</time></trkpt><trkpt lat="42.8550583" lon="2.5073783"><ele>593.0</ele><time>2026-04-26T05:34:53.729Z</time></trkpt><trkpt lat="42.8549867" lon="2.5074833"><ele>598.3333333333333</ele><time>2026-04-26T05:34:54.729Z</time></trkpt><trkpt lat="42.8549333" lon="2.5075683"><ele>603.6666666666666</ele><time>2026-04-26T05:34:55.73Z</time></trkpt><trkpt lat="42.8548867" lon="2.50766"><ele>609.0</ele><time>2026-04-26T05:34:56.729Z</time></trkpt><trkpt lat="42.854855" lon="2.5077533"><ele>614.3333333333334</ele><time>2026-04-26T05:34:57.727Z</time></trkpt><trkpt lat="42.8548267" lon="2.5078533"><ele>619.6666666666667</ele><time>2026-04-26T05:34:58.727Z</time></trkpt><trkpt lat="42.8547967" lon="2.5079767"><ele>625.0</ele><time>2026-04-26T05:34:59.728Z</time></trkpt><trkpt lat="42.8547683" lon="2.5081017"><ele>625.0</ele><time>2026-04-26T05:35:00.731Z</time></trkpt><trkpt lat="42.8547467" lon="2.5082317"><ele>625.0</ele><time>2026-04-26T05:35:01.728Z</time></trkpt><trkpt lat="42.8547217" lon="2.5083583"><ele>625.0</ele><time>2026-04-26T05:35:02.728Z</time></trkpt><trkpt lat="42.8546933" lon="2.5084717"><ele>625.0</ele><time>2026-04-26T05:35:03.727Z</time></trkpt><trkpt lat="42.8546667" lon="2.5085883"><ele>625.0</ele><time>2026-04-26T05:35:04.728Z</time></trkpt><trkpt lat="42.854625" lon="2.5086833"><ele>624.0</ele><time>2026-04-26T05:35:05.728Z</time></trkpt><trkpt lat="42.854575" lon="2.508785"><ele>623.0</ele><time>2026-04-26T05:35:06.73Z</time></trkpt><trkpt lat="42.8545167" lon="2.5088817"><ele>622.0</ele><time>2026-04-26T05:35:07.727Z</time></trkpt><trkpt lat="42.85447" lon="2.5090067"><ele>621.0</ele><time>2026-04-26T05:35:08.728Z</time></trkpt><trkpt lat="42.8544383" lon="2.5091317"><ele>620.0</ele><time>2026-04-26T05:35:09.728Z</time></trkpt><trkpt lat="42.8544233" lon="2.5092633"><ele>620.0</ele><time>2026-04-26T05:35:10.728Z</time></trkpt><trkpt lat="42.8544167" lon="2.5093817"><ele>620.0</ele><time>2026-04-26T05:35:11.728Z</time></trkpt><trkpt lat="42.8544017" lon="2.5094983"><ele>620.0</ele><time>2026-04-26T05:35:12.728Z</time></trkpt><trkpt lat="42.8543817" lon="2.5096133"><ele>620.0</ele><time>2026-04-26T05:35:13.728Z</time></trkpt><trkpt lat="42.854355" lon="2.50973"><ele>620.0</ele><time>2026-04-26T05:35:14.727Z</time></trkpt><trkpt lat="42.8543017" lon="2.509845"><ele>623.0</ele><time>2026-04-26T05:35:15.728Z</time></trkpt><trkpt lat="42.854235" lon="2.5099733"><ele>626.0</ele><time>2026-04-26T05:35:16.727Z</time></trkpt><trkpt lat="42.85417" lon="2.5101"><ele>629.0</ele><time>2026-04-26T05:35:17.727Z</time></trkpt><trkpt lat="42.8541" lon="2.5102083"><ele>632.0</ele><time>2026-04-26T05:35:18.729Z</time></trkpt><trkpt lat="42.8540267" lon="2.5103067"><ele>635.0</ele><time>2026-04-26T05:35:19.727Z</time></trkpt><trkpt lat="42.8539683" lon="2.51041"><ele>635.0</ele><time>2026-04-26T05:35:20.73Z</time></trkpt><trkpt lat="42.85392" lon="2.510515"><ele>635.0</ele><time>2026-04-26T05:35:21.728Z</time></trkpt><trkpt lat="42.85388" lon="2.5106483"><ele>635.0</ele><time>2026-04-26T05:35:22.73Z</time></trkpt><trkpt lat="42.8538383" lon="2.5107883"><ele>635.0</ele><time>2026-04-26T05:35:23.728Z</time></trkpt><trkpt lat="42.8537917" lon="2.510945"><ele>635.0</ele><time>2026-04-26T05:35:24.728Z</time></trkpt><trkpt lat="42.8537467" lon="2.51108"><ele>635.0</ele><time>2026-04-26T05:35:25.728Z</time></trkpt><trkpt lat="42.8536967" lon="2.5112083"><ele>635.0</ele><time>2026-04-26T05:35:26.727Z</time></trkpt><trkpt lat="42.853645" lon="2.5113317"><ele>635.0</ele><time>2026-04-26T05:35:27.73Z</time></trkpt><trkpt lat="42.853585" lon="2.5114467"><ele>635.0</ele><time>2026-04-26T05:35:28.727Z</time></trkpt><trkpt lat="42.8535383" lon="2.51157"><ele>635.0</ele><time>2026-04-26T05:35:29.734Z</time></trkpt><trkpt lat="42.8534933" lon="2.5117"><ele>638.0</ele><time>2026-04-26T05:35:30.727Z</time></trkpt><trkpt lat="42.85344" lon="2.51182"><ele>641.0</ele><time>2026-04-26T05:35:31.728Z</time></trkpt><trkpt lat="42.853385" lon="2.5119483"><ele>644.0</ele><time>2026-04-26T05:35:32.728Z</time></trkpt><trkpt lat="42.85334" lon="2.5120783"><ele>647.0</ele><time>2026-04-26T05:35:33.728Z</time></trkpt><trkpt lat="42.8533083" lon="2.5122183"><ele>650.0</ele><time>2026-04-26T05:35:34.728Z</time></trkpt><trkpt lat="42.8532783" lon="2.5123617"><ele>650.0</ele><time>2026-04-26T05:35:35.729Z</time></trkpt><trkpt lat="42.85325" lon="2.512505"><ele>650.0</ele><time>2026-04-26T05:35:36.728Z</time></trkpt><trkpt lat="42.8532117" lon="2.512645"><ele>650.0</ele><time>2026-04-26T05:35:37.733Z</time></trkpt><trkpt lat="42.8531717" lon="2.512785"><ele>650.0</ele><time>2026-04-26T05:35:38.728Z</time></trkpt><trkpt lat="42.8531233" lon="2.512915"><ele>650.0</ele><time>2026-04-26T05:35:39.73Z</time></trkpt><trkpt lat="42.8530733" lon="2.5130433"><ele>646.6</ele><time>2026-04-26T05:35:40.729Z</time></trkpt><trkpt lat="42.8530267" lon="2.5131683"><ele>643.2</ele><time>2026-04-26T05:35:41.727Z</time></trkpt><trkpt lat="42.8529817" lon="2.51329"><ele>639.8</ele><time>2026-04-26T05:35:42.728Z</time></trkpt><trkpt lat="42.8529417" lon="2.513415"><ele>636.4</ele><time>2026-04-26T05:35:43.726Z</time></trkpt><trkpt lat="42.852905" lon="2.513535"><ele>633.0</ele><time>2026-04-26T05:35:44.728Z</time></trkpt><trkpt lat="42.8528717" lon="2.5136617"><ele>629.4</ele><time>2026-04-26T05:35:45.728Z</time></trkpt><trkpt lat="42.852845" lon="2.5137967"><ele>625.8</ele><time>2026-04-26T05:35:46.727Z</time></trkpt><trkpt lat="42.8528183" lon="2.5139267"><ele>622.2</ele><time>2026-04-26T05:35:47.73Z</time></trkpt><trkpt lat="42.8527833" lon="2.5140433"><ele>618.6</ele><time>2026-04-26T05:35:48.728Z</time></trkpt><trkpt lat="42.8527417" lon="2.5141567"><ele>615.0</ele><time>2026-04-26T05:35:49.727Z</time></trkpt><trkpt lat="42.8526983" lon="2.5142967"><ele>615.0</ele><time>2026-04-26T05:35:50.729Z</time></trkpt><trkpt lat="42.85266" lon="2.5144533"><ele>615.0</ele><time>2026-04-26T05:35:51.729Z</time></trkpt><trkpt lat="42.8526217" lon="2.5146117"><ele>615.0</ele><time>2026-04-26T05:35:52.727Z</time></trkpt><trkpt lat="42.8525833" lon="2.5147783"><ele>615.0</ele><time>2026-04-26T05:35:53.73Z</time></trkpt><trkpt lat="42.8525483" lon="2.5149433"><ele>617.25</ele><time>2026-04-26T05:35:54.728Z</time></trkpt><trkpt lat="42.8525083" lon="2.5151"><ele>619.5</ele><time>2026-04-26T05:35:55.727Z</time></trkpt><trkpt lat="42.8524633" lon="2.5152567"><ele>621.75</ele><time>2026-04-26T05:35:56.728Z</time></trkpt><trkpt lat="42.852415" lon="2.5154067"><ele>624.0</ele><time>2026-04-26T05:35:57.727Z</time></trkpt><trkpt lat="42.8523733" lon="2.5155583"><ele>624.0</ele><time>2026-04-26T05:35:58.728Z</time></trkpt><trkpt lat="42.8523317" lon="2.5157117"><ele>624.0</ele><time>2026-04-26T05:35:59.73Z</time></trkpt><trkpt lat="42.8522933" lon="2.515865"><ele>624.0</ele><time>2026-04-26T05:36:00.728Z</time></trkpt><trkpt lat="42.8522683" lon="2.5160167"><ele>624.0</ele><time>2026-04-26T05:36:01.728Z</time></trkpt><trkpt lat="42.852245" lon="2.5161733"><ele>620.25</ele><time>2026-04-26T05:36:02.729Z</time></trkpt><trkpt lat="42.8522133" lon="2.5163217"><ele>616.5</ele><time>2026-04-26T05:36:03.728Z</time></trkpt><trkpt lat="42.8521767" lon="2.516475"><ele>612.75</ele><time>2026-04-26T05:36:04.729Z</time></trkpt><trkpt lat="42.85213" lon="2.5166383"><ele>609.0</ele><time>2026-04-26T05:36:05.729Z</time></trkpt><trkpt lat="42.8520917" lon="2.5168233"><ele>609.0</ele><time>2026-04-26T05:36:06.729Z</time></trkpt><trkpt lat="42.8520567" lon="2.517"><ele>609.0</ele><time>2026-04-26T05:36:07.729Z</time></trkpt><trkpt lat="42.85202" lon="2.5171733"><ele>609.0</ele><time>2026-04-26T05:36:08.728Z</time></trkpt><trkpt lat="42.8519817" lon="2.5173467"><ele>609.0</ele><time>2026-04-26T05:36:09.728Z</time></trkpt><trkpt lat="42.8519583" lon="2.5175117"><ele>605.5</ele><time>2026-04-26T05:36:10.729Z</time></trkpt><trkpt lat="42.8519367" lon="2.51768"><ele>602.0</ele><time>2026-04-26T05:36:11.728Z</time></trkpt><trkpt lat="42.8519117" lon="2.5178467"><ele>598.5</ele><time>2026-04-26T05:36:12.728Z</time></trkpt><trkpt lat="42.851885" lon="2.5180067"><ele>595.0</ele><time>2026-04-26T05:36:13.729Z</time></trkpt><trkpt lat="42.85185" lon="2.5181667"><ele>592.75</ele><time>2026-04-26T05:36:14.728Z</time></trkpt><trkpt lat="42.85182" lon="2.5183217"><ele>590.5</ele><time>2026-04-26T05:36:15.726Z</time></trkpt><trkpt lat="42.8518017" lon="2.5184783"><ele>588.25</ele><time>2026-04-26T05:36:16.727Z</time></trkpt><trkpt lat="42.8517783" lon="2.518635"><ele>586.0</ele><time>2026-04-26T05:36:17.727Z</time></trkpt><trkpt lat="42.8517517" lon="2.5188067"><ele>593.75</ele><time>2026-04-26T05:36:18.728Z</time></trkpt><trkpt lat="42.8517083" lon="2.5189833"><ele>601.5</ele><time>2026-04-26T05:36:19.732Z</time></trkpt><trkpt lat="42.85167" lon="2.51916"><ele>609.25</ele><time>2026-04-26T05:36:20.728Z</time></trkpt><trkpt lat="42.8516283" lon="2.5193333"><ele>617.0</ele><time>2026-04-26T05:36:21.728Z</time></trkpt><trkpt lat="42.8515983" lon="2.519535"><ele>614.0</ele><time>2026-04-26T05:36:22.727Z</time></trkpt><trkpt lat="42.8515783" lon="2.5197267"><ele>611.0</ele><time>2026-04-26T05:36:23.728Z</time></trkpt><trkpt lat="42.85156" lon="2.5199117"><ele>608.0</ele><time>2026-04-26T05:36:24.728Z</time></trkpt><trkpt lat="42.851535" lon="2.520085"><ele>605.0</ele><time>2026-04-26T05:36:25.729Z</time></trkpt><trkpt lat="42.8515317" lon="2.5202667"><ele>604.0</ele><time>2026-04-26T05:36:26.727Z</time></trkpt><trkpt lat="42.8515317" lon="2.5204467"><ele>603.0</ele><time>2026-04-26T05:36:27.728Z</time></trkpt><trkpt lat="42.8515267" lon="2.5206167"><ele>602.0</ele><time>2026-04-26T05:36:28.728Z</time></trkpt><trkpt lat="42.851535" lon="2.5208017"><ele>601.0</ele><time>2026-04-26T05:36:29.729Z</time></trkpt><trkpt lat="42.8515367" lon="2.5209817"><ele>601.0</ele><time>2026-04-26T05:36:30.728Z</time></trkpt><trkpt lat="42.8515333" lon="2.521155"><ele>601.0</ele><time>2026-04-26T05:36:31.727Z</time></trkpt><trkpt lat="42.851525" lon="2.521335"><ele>601.0</ele><time>2026-04-26T05:36:32.727Z</time></trkpt><trkpt lat="42.85152" lon="2.5215"><ele>601.0</ele><time>2026-04-26T05:36:33.734Z</time></trkpt><trkpt lat="42.8515133" lon="2.5216633"><ele>599.5</ele><time>2026-04-26T05:36:34.729Z</time></trkpt><trkpt lat="42.85151" lon="2.521825"><ele>598.0</ele><time>2026-04-26T05:36:35.728Z</time></trkpt><trkpt lat="42.8515217" lon="2.5219867"><ele>596.5</ele><time>2026-04-26T05:36:36.729Z</time></trkpt><trkpt lat="42.8515433" lon="2.5221483"><ele>595.0</ele><time>2026-04-26T05:36:37.73Z</time></trkpt><trkpt lat="42.8515617" lon="2.5223067"><ele>593.5</ele><time>2026-04-26T05:36:38.729Z</time></trkpt><trkpt lat="42.8515617" lon="2.5224667"><ele>592.0</ele><time>2026-04-26T05:36:39.73Z</time></trkpt><trkpt lat="42.85155" lon="2.5226267"><ele>590.5</ele><time>2026-04-26T05:36:40.729Z</time></trkpt><trkpt lat="42.8515333" lon="2.52279"><ele>589.0</ele><time>2026-04-26T05:36:41.727Z</time></trkpt><trkpt lat="42.8515167" lon="2.5229533"><ele>586.25</ele><time>2026-04-26T05:36:42.727Z</time></trkpt><trkpt lat="42.851495" lon="2.523105"><ele>583.5</ele><time>2026-04-26T05:36:43.727Z</time></trkpt><trkpt lat="42.85148" lon="2.52327"><ele>580.75</ele><time>2026-04-26T05:36:44.727Z</time></trkpt><trkpt lat="42.8514567" lon="2.5234183"><ele>578.0</ele><time>2026-04-26T05:36:45.729Z</time></trkpt><trkpt lat="42.8514267" lon="2.5235667"><ele>578.0</ele><time>2026-04-26T05:36:46.729Z</time></trkpt><trkpt lat="42.8513817" lon="2.523705"><ele>578.0</ele><time>2026-04-26T05:36:47.727Z</time></trkpt><trkpt lat="42.851345" lon="2.5238333"><ele>578.0</ele><time>2026-04-26T05:36:48.73Z</time></trkpt><trkpt lat="42.8512933" lon="2.5239617"><ele>578.0</ele><time>2026-04-26T05:36:49.733Z</time></trkpt><trkpt lat="42.8512267" lon="2.52407"><ele>578.0</ele><time>2026-04-26T05:36:50.731Z</time></trkpt><trkpt lat="42.8511567" lon="2.5241633"><ele>577.8</ele><time>2026-04-26T05:36:51.729Z</time></trkpt><trkpt lat="42.85108" lon="2.5242583"><ele>577.5999999999999</ele><time>2026-04-26T05:36:52.728Z</time></trkpt><trkpt lat="42.8509967" lon="2.5243517"><ele>577.4000000000001</ele><time>2026-04-26T05:36:53.729Z</time></trkpt><trkpt lat="42.85091" lon="2.524445"><ele>577.2</ele><time>2026-04-26T05:36:54.729Z</time></trkpt><trkpt lat="42.85084" lon="2.5245217"><ele>577.0</ele><time>2026-04-26T05:36:55.73Z</time></trkpt><trkpt lat="42.8507583" lon="2.5246217"><ele>577.0</ele><time>2026-04-26T05:36:56.728Z</time></trkpt><trkpt lat="42.8506767" lon="2.52474"><ele>577.0</ele><time>2026-04-26T05:36:57.728Z</time></trkpt><trkpt lat="42.8505983" lon="2.5248717"><ele>577.0</ele><time>2026-04-26T05:36:58.727Z</time></trkpt><trkpt lat="42.8505317" lon="2.525015"><ele>577.0</ele><time>2026-04-26T05:36:59.728Z</time></trkpt><trkpt lat="42.850475" lon="2.5251517"><ele>577.0</ele><time>2026-04-26T05:37:00.729Z</time></trkpt><trkpt lat="42.8504217" lon="2.5252767"><ele>577.0</ele><time>2026-04-26T05:37:01.728Z</time></trkpt><trkpt lat="42.8503783" lon="2.5254033"><ele>577.0</ele><time>2026-04-26T05:37:02.729Z</time></trkpt><trkpt lat="42.8503217" lon="2.5255233"><ele>577.0</ele><time>2026-04-26T05:37:03.728Z</time></trkpt><trkpt lat="42.8502667" lon="2.5256383"><ele>577.0</ele><time>2026-04-26T05:37:04.728Z</time></trkpt><trkpt lat="42.8502117" lon="2.5257417"><ele>577.6</ele><time>2026-04-26T05:37:05.727Z</time></trkpt><trkpt lat="42.85016" lon="2.5258383"><ele>578.2</ele><time>2026-04-26T05:37:06.727Z</time></trkpt><trkpt lat="42.8501183" lon="2.52592"><ele>578.8</ele><time>2026-04-26T05:37:07.727Z</time></trkpt><trkpt lat="42.850125" lon="2.5260983"><ele>579.4</ele><time>2026-04-26T05:37:09.731Z</time></trkpt><trkpt lat="42.85015" lon="2.5262033"><ele>580.0</ele><time>2026-04-26T05:37:10.727Z</time></trkpt><trkpt lat="42.8502033" lon="2.526305"><ele>580.0</ele><time>2026-04-26T05:37:11.727Z</time></trkpt><trkpt lat="42.8502733" lon="2.5264"><ele>580.0</ele><time>2026-04-26T05:37:12.728Z</time></trkpt><trkpt lat="42.8503917" lon="2.526475"><ele>580.0</ele><time>2026-04-26T05:37:13.727Z</time></trkpt><trkpt lat="42.8505" lon="2.5265367"><ele>580.0</ele><time>2026-04-26T05:37:14.728Z</time></trkpt><trkpt lat="42.850595" lon="2.5265717"><ele>580.0</ele><time>2026-04-26T05:37:15.727Z</time></trkpt><trkpt lat="42.8507017" lon="2.5265767"><ele>580.0</ele><time>2026-04-26T05:37:16.727Z</time></trkpt><trkpt lat="42.8508033" lon="2.526555"><ele>580.0</ele><time>2026-04-26T05:37:17.728Z</time></trkpt><trkpt lat="42.8508967" lon="2.526525"><ele>580.0</ele><time>2026-04-26T05:37:18.729Z</time></trkpt><trkpt lat="42.85099" lon="2.5265067"><ele>580.0</ele><time>2026-04-26T05:37:19.728Z</time></trkpt><trkpt lat="42.85106" lon="2.5265283"><ele>580.0</ele><time>2026-04-26T05:37:20.729Z</time></trkpt><trkpt lat="42.8511317" lon="2.5265683"><ele>580.0</ele><time>2026-04-26T05:37:21.727Z</time></trkpt><trkpt lat="42.8512017" lon="2.52666"><ele>579.4</ele><time>2026-04-26T05:37:22.728Z</time></trkpt><trkpt lat="42.8512683" lon="2.5267583"><ele>578.8</ele><time>2026-04-26T05:37:23.728Z</time></trkpt><trkpt lat="42.8513267" lon="2.5268667"><ele>578.2</ele><time>2026-04-26T05:37:24.728Z</time></trkpt><trkpt lat="42.851385" lon="2.5269733"><ele>577.6</ele><time>2026-04-26T05:37:25.726Z</time></trkpt><trkpt lat="42.8514233" lon="2.5270967"><ele>577.0</ele><time>2026-04-26T05:37:26.728Z</time></trkpt><trkpt lat="42.851455" lon="2.5272367"><ele>577.0</ele><time>2026-04-26T05:37:27.727Z</time></trkpt><trkpt lat="42.8514933" lon="2.5273817"><ele>577.0</ele><time>2026-04-26T05:37:28.727Z</time></trkpt><trkpt lat="42.85154" lon="2.5275267"><ele>577.0</ele><time>2026-04-26T05:37:29.728Z</time></trkpt><trkpt lat="42.8515933" lon="2.527685"><ele>577.0</ele><time>2026-04-26T05:37:30.728Z</time></trkpt><trkpt lat="42.8516367" lon="2.52785"><ele>573.75</ele><time>2026-04-26T05:37:31.728Z</time></trkpt><trkpt lat="42.8516867" lon="2.5280233"><ele>570.5</ele><time>2026-04-26T05:37:32.729Z</time></trkpt><trkpt lat="42.8517367" lon="2.5281867"><ele>567.25</ele><time>2026-04-26T05:37:33.733Z</time></trkpt><trkpt lat="42.8517917" lon="2.5283283"><ele>564.0</ele><time>2026-04-26T05:37:34.728Z</time></trkpt><trkpt lat="42.8518533" lon="2.5284717"><ele>564.0</ele><time>2026-04-26T05:37:35.73Z</time></trkpt><trkpt lat="42.8519183" lon="2.5286267"><ele>564.0</ele><time>2026-04-26T05:37:36.73Z</time></trkpt><trkpt lat="42.85198" lon="2.5287917"><ele>564.0</ele><time>2026-04-26T05:37:37.731Z</time></trkpt><trkpt lat="42.8520283" lon="2.528965"><ele>564.0</ele><time>2026-04-26T05:37:38.729Z</time></trkpt><trkpt lat="42.8520717" lon="2.52914"><ele>567.25</ele><time>2026-04-26T05:37:39.729Z</time></trkpt><trkpt lat="42.852115" lon="2.5293133"><ele>570.5</ele><time>2026-04-26T05:37:40.729Z</time></trkpt><trkpt lat="42.8521617" lon="2.5294833"><ele>573.75</ele><time>2026-04-26T05:37:41.728Z</time></trkpt><trkpt lat="42.852205" lon="2.5296383"><ele>577.0</ele><time>2026-04-26T05:37:42.728Z</time></trkpt><trkpt lat="42.8522483" lon="2.5297783"><ele>582.75</ele><time>2026-04-26T05:37:43.728Z</time></trkpt><trkpt lat="42.85231" lon="2.5299183"><ele>588.5</ele><time>2026-04-26T05:37:44.728Z</time></trkpt><trkpt lat="42.85238" lon="2.5300483"><ele>594.25</ele><time>2026-04-26T05:37:45.729Z</time></trkpt><trkpt lat="42.85247" lon="2.5301483"><ele>600.0</ele><time>2026-04-26T05:37:46.728Z</time></trkpt><trkpt lat="42.85257" lon="2.53021"><ele>599.6</ele><time>2026-04-26T05:37:47.728Z</time></trkpt><trkpt lat="42.8526567" lon="2.53025"><ele>599.2</ele><time>2026-04-26T05:37:48.729Z</time></trkpt><trkpt lat="42.8527383" lon="2.5302783"><ele>598.8</ele><time>2026-04-26T05:37:49.731Z</time></trkpt><trkpt lat="42.8528167" lon="2.5303417"><ele>598.4</ele><time>2026-04-26T05:37:50.728Z</time></trkpt><trkpt lat="42.8529033" lon="2.530415"><ele>598.0</ele><time>2026-04-26T05:37:51.73Z</time></trkpt><trkpt lat="42.85298" lon="2.5304917"><ele>598.0</ele><time>2026-04-26T05:37:52.728Z</time></trkpt><trkpt lat="42.853075" lon="2.53054"><ele>598.0</ele><time>2026-04-26T05:37:53.729Z</time></trkpt><trkpt lat="42.85316" lon="2.5305667"><ele>598.0</ele><time>2026-04-26T05:37:54.729Z</time></trkpt><trkpt lat="42.8532283" lon="2.5306017"><ele>598.0</ele><time>2026-04-26T05:37:55.728Z</time></trkpt><trkpt lat="42.8532883" lon="2.5307467"><ele>598.0</ele><time>2026-04-26T05:37:57.73Z</time></trkpt><trkpt lat="42.85329" lon="2.5308633"><ele>598.0</ele><time>2026-04-26T05:37:58.729Z</time></trkpt><trkpt lat="42.8532633" lon="2.5309933"><ele>598.0</ele><time>2026-04-26T05:37:59.728Z</time></trkpt><trkpt lat="42.8532083" lon="2.5311233"><ele>598.0</ele><time>2026-04-26T05:38:00.729Z</time></trkpt><trkpt lat="42.85318" lon="2.5312383"><ele>598.0</ele><time>2026-04-26T05:38:01.73Z</time></trkpt><trkpt lat="42.8531767" lon="2.5313583"><ele>598.0</ele><time>2026-04-26T05:38:02.729Z</time></trkpt><trkpt lat="42.8531967" lon="2.531475"><ele>598.6</ele><time>2026-04-26T05:38:03.728Z</time></trkpt><trkpt lat="42.85324" lon="2.531585"><ele>599.1999999999999</ele><time>2026-04-26T05:38:04.729Z</time></trkpt><trkpt lat="42.853295" lon="2.53169"><ele>599.8</ele><time>2026-04-26T05:38:05.728Z</time></trkpt><trkpt lat="42.8533417" lon="2.5318017"><ele>600.4</ele><time>2026-04-26T05:38:06.728Z</time></trkpt><trkpt lat="42.8533783" lon="2.53193"><ele>601.0</ele><time>2026-04-26T05:38:07.729Z</time></trkpt><trkpt lat="42.8534033" lon="2.5320633"><ele>601.0</ele><time>2026-04-26T05:38:08.729Z</time></trkpt><trkpt lat="42.8534217" lon="2.53219"><ele>601.0</ele><time>2026-04-26T05:38:09.729Z</time></trkpt><trkpt lat="42.85344" lon="2.5323017"><ele>601.0</ele><time>2026-04-26T05:38:10.728Z</time></trkpt><trkpt lat="42.85345" lon="2.5323967"><ele>601.0</ele><time>2026-04-26T05:38:11.729Z</time></trkpt><trkpt lat="42.8533767" lon="2.5325117"><ele>601.0</ele><time>2026-04-26T05:38:13.727Z</time></trkpt><trkpt lat="42.8533133" lon="2.5325467"><ele>601.0</ele><time>2026-04-26T05:38:14.728Z</time></trkpt><trkpt lat="42.8532433" lon="2.5325817"><ele>601.0</ele><time>2026-04-26T05:38:15.728Z</time></trkpt><trkpt lat="42.85319" lon="2.53266"><ele>601.0</ele><time>2026-04-26T05:38:16.729Z</time></trkpt><trkpt lat="42.85315" lon="2.5327783"><ele>601.0</ele><time>2026-04-26T05:38:17.728Z</time></trkpt><trkpt lat="42.85311" lon="2.5329233"><ele>601.0</ele><time>2026-04-26T05:38:18.728Z</time></trkpt><trkpt lat="42.853075" lon="2.5330717"><ele>601.0</ele><time>2026-04-26T05:38:19.728Z</time></trkpt><trkpt lat="42.8530433" lon="2.5332067"><ele>601.0</ele><time>2026-04-26T05:38:20.728Z</time></trkpt><trkpt lat="42.8530083" lon="2.5333383"><ele>601.0</ele><time>2026-04-26T05:38:21.729Z</time></trkpt><trkpt lat="42.8529817" lon="2.5334633"><ele>601.0</ele><time>2026-04-26T05:38:22.728Z</time></trkpt><trkpt lat="42.8529717" lon="2.53358"><ele>601.0</ele><time>2026-04-26T05:38:23.729Z</time></trkpt><trkpt lat="42.852995" lon="2.5337167"><ele>601.0</ele><time>2026-04-26T05:38:24.728Z</time></trkpt><trkpt lat="42.8530217" lon="2.5338333"><ele>601.0</ele><time>2026-04-26T05:38:25.728Z</time></trkpt><trkpt lat="42.85306" lon="2.53393"><ele>601.0</ele><time>2026-04-26T05:38:26.73Z</time></trkpt><trkpt lat="42.8531383" lon="2.5339967"><ele>601.0</ele><time>2026-04-26T05:38:27.729Z</time></trkpt><trkpt lat="42.8532267" lon="2.5340467"><ele>601.0</ele><time>2026-04-26T05:38:28.729Z</time></trkpt><trkpt lat="42.8533433" lon="2.534065"><ele>601.0</ele><time>2026-04-26T05:38:29.728Z</time></trkpt><trkpt lat="42.8534433" lon="2.5340617"><ele>595.8333333333334</ele><time>2026-04-26T05:38:30.729Z</time></trkpt><trkpt lat="42.853535" lon="2.5340433"><ele>590.6666666666667</ele><time>2026-04-26T05:38:31.728Z</time></trkpt><trkpt lat="42.8536133" lon="2.5340317"><ele>585.5</ele><time>2026-04-26T05:38:32.729Z</time></trkpt><trkpt lat="42.8536767" lon="2.5340383"><ele>580.3333333333334</ele><time>2026-04-26T05:38:33.729Z</time></trkpt><trkpt lat="42.8537483" lon="2.5341367"><ele>575.1666666666666</ele><time>2026-04-26T05:38:35.727Z</time></trkpt><trkpt lat="42.8537717" lon="2.5342517"><ele>570.0</ele><time>2026-04-26T05:38:36.728Z</time></trkpt><trkpt lat="42.8537933" lon="2.5343767"><ele>570.0</ele><time>2026-04-26T05:38:37.731Z</time></trkpt><trkpt lat="42.8538167" lon="2.5345017"><ele>570.0</ele><time>2026-04-26T05:38:38.731Z</time></trkpt><trkpt lat="42.8538383" lon="2.53463"><ele>570.0</ele><time>2026-04-26T05:38:39.729Z</time></trkpt><trkpt lat="42.8538433" lon="2.5347583"><ele>570.0</ele><time>2026-04-26T05:38:40.728Z</time></trkpt><trkpt lat="42.8538317" lon="2.5348917"><ele>570.0</ele><time>2026-04-26T05:38:41.728Z</time></trkpt><trkpt lat="42.8538217" lon="2.5350317"><ele>571.0</ele><time>2026-04-26T05:38:42.727Z</time></trkpt><trkpt lat="42.8538283" lon="2.5351867"><ele>572.0</ele><time>2026-04-26T05:38:43.728Z</time></trkpt><trkpt lat="42.85384" lon="2.5353417"><ele>573.0</ele><time>2026-04-26T05:38:44.729Z</time></trkpt><trkpt lat="42.8538483" lon="2.5355067"><ele>574.0</ele><time>2026-04-26T05:38:45.73Z</time></trkpt><trkpt lat="42.853845" lon="2.5356783"><ele>574.0</ele><time>2026-04-26T05:38:46.729Z</time></trkpt><trkpt lat="42.8538467" lon="2.53585"><ele>574.0</ele><time>2026-04-26T05:38:47.73Z</time></trkpt><trkpt lat="42.85385" lon="2.5360067"><ele>574.0</ele><time>2026-04-26T05:38:48.728Z</time></trkpt><trkpt lat="42.8538533" lon="2.5361333"><ele>574.0</ele><time>2026-04-26T05:38:49.73Z</time></trkpt><trkpt lat="42.8538483" lon="2.5362467"><ele>574.0</ele><time>2026-04-26T05:38:50.729Z</time></trkpt><trkpt lat="42.853805" lon="2.5363383"><ele>572.2</ele><time>2026-04-26T05:38:51.729Z</time></trkpt><trkpt lat="42.85375" lon="2.53643"><ele>570.4</ele><time>2026-04-26T05:38:52.729Z</time></trkpt><trkpt lat="42.8537" lon="2.5365433"><ele>568.6</ele><time>2026-04-26T05:38:53.729Z</time></trkpt><trkpt lat="42.8536617" lon="2.53667"><ele>566.8</ele><time>2026-04-26T05:38:54.728Z</time></trkpt><trkpt lat="42.8536167" lon="2.5367933"><ele>565.0</ele><time>2026-04-26T05:38:55.729Z</time></trkpt><trkpt lat="42.8535683" lon="2.5369183"><ele>565.0</ele><time>2026-04-26T05:38:56.739Z</time></trkpt><trkpt lat="42.8535283" lon="2.5370467"><ele>565.0</ele><time>2026-04-26T05:38:57.729Z</time></trkpt><trkpt lat="42.853505" lon="2.5371733"><ele>565.0</ele><time>2026-04-26T05:38:58.728Z</time></trkpt><trkpt lat="42.8535033" lon="2.5373217"><ele>565.0</ele><time>2026-04-26T05:38:59.729Z</time></trkpt><trkpt lat="42.853525" lon="2.537465"><ele>565.0</ele><time>2026-04-26T05:39:00.729Z</time></trkpt><trkpt lat="42.85357" lon="2.5375967"><ele>565.5</ele><time>2026-04-26T05:39:01.734Z</time></trkpt><trkpt lat="42.8536333" lon="2.53772"><ele>566.0</ele><time>2026-04-26T05:39:02.728Z</time></trkpt><trkpt lat="42.8537117" lon="2.5378317"><ele>566.5</ele><time>2026-04-26T05:39:03.73Z</time></trkpt><trkpt lat="42.8538083" lon="2.5379217"><ele>567.0</ele><time>2026-04-26T05:39:04.728Z</time></trkpt><trkpt lat="42.8539183" lon="2.5379817"><ele>566.5</ele><time>2026-04-26T05:39:05.729Z</time></trkpt><trkpt lat="42.8540417" lon="2.5380233"><ele>566.0</ele><time>2026-04-26T05:39:06.73Z</time></trkpt><trkpt lat="42.8541633" lon="2.538065"><ele>565.5</ele><time>2026-04-26T05:39:07.728Z</time></trkpt><trkpt lat="42.8542783" lon="2.5381133"><ele>565.0</ele><time>2026-04-26T05:39:08.728Z</time></trkpt><trkpt lat="42.854385" lon="2.5381383"><ele>565.0</ele><time>2026-04-26T05:39:09.728Z</time></trkpt><trkpt lat="42.8544717" lon="2.538135"><ele>565.0</ele><time>2026-04-26T05:39:10.732Z</time></trkpt><trkpt lat="42.8545567" lon="2.53811"><ele>565.0</ele><time>2026-04-26T05:39:11.729Z</time></trkpt><trkpt lat="42.854635" lon="2.5380817"><ele>565.0</ele><time>2026-04-26T05:39:12.728Z</time></trkpt><trkpt lat="42.8547567" lon="2.5381367"><ele>565.0</ele><time>2026-04-26T05:39:14.729Z</time></trkpt><trkpt lat="42.85482" lon="2.53821"><ele>565.0</ele><time>2026-04-26T05:39:15.728Z</time></trkpt><trkpt lat="42.8548683" lon="2.5382967"><ele>565.0</ele><time>2026-04-26T05:39:16.729Z</time></trkpt><trkpt lat="42.854905" lon="2.53839"><ele>565.0</ele><time>2026-04-26T05:39:17.727Z</time></trkpt><trkpt lat="42.8549217" lon="2.5384983"><ele>565.0</ele><time>2026-04-26T05:39:18.728Z</time></trkpt><trkpt lat="42.85494" lon="2.5386133"><ele>565.0</ele><time>2026-04-26T05:39:19.731Z</time></trkpt><trkpt lat="42.8549667" lon="2.5387367"><ele>565.0</ele><time>2026-04-26T05:39:20.729Z</time></trkpt><trkpt lat="42.855" lon="2.5388583"><ele>566.8</ele><time>2026-04-26T05:39:21.729Z</time></trkpt><trkpt lat="42.8550417" lon="2.538995"><ele>568.6</ele><time>2026-04-26T05:39:22.727Z</time></trkpt><trkpt lat="42.8550867" lon="2.5391333"><ele>570.4</ele><time>2026-04-26T05:39:23.73Z</time></trkpt><trkpt lat="42.8551317" lon="2.5392567"><ele>572.2</ele><time>2026-04-26T05:39:24.735Z</time></trkpt><trkpt lat="42.8551917" lon="2.5393617"><ele>574.0</ele><time>2026-04-26T05:39:25.728Z</time></trkpt><trkpt lat="42.8552417" lon="2.53946"><ele>568.4</ele><time>2026-04-26T05:39:26.728Z</time></trkpt><trkpt lat="42.8552717" lon="2.5395583"><ele>562.8</ele><time>2026-04-26T05:39:27.728Z</time></trkpt><trkpt lat="42.8552833" lon="2.5396683"><ele>557.2</ele><time>2026-04-26T05:39:28.731Z</time></trkpt><trkpt lat="42.85528" lon="2.5397967"><ele>551.6</ele><time>2026-04-26T05:39:29.729Z</time></trkpt><trkpt lat="42.8552633" lon="2.5399417"><ele>546.0</ele><time>2026-04-26T05:39:30.73Z</time></trkpt><trkpt lat="42.8552583" lon="2.5400933"><ele>546.0</ele><time>2026-04-26T05:39:31.728Z</time></trkpt><trkpt lat="42.8552567" lon="2.5402417"><ele>546.0</ele><time>2026-04-26T05:39:32.728Z</time></trkpt><trkpt lat="42.85525" lon="2.5403767"><ele>546.0</ele><time>2026-04-26T05:39:33.729Z</time></trkpt><trkpt lat="42.8552217" lon="2.5404983"><ele>546.0</ele><time>2026-04-26T05:39:34.728Z</time></trkpt><trkpt lat="42.85518" lon="2.540605"><ele>546.0</ele><time>2026-04-26T05:39:35.729Z</time></trkpt><trkpt lat="42.8551383" lon="2.5407083"><ele>542.8</ele><time>2026-04-26T05:39:36.729Z</time></trkpt><trkpt lat="42.85511" lon="2.540825"><ele>539.6</ele><time>2026-04-26T05:39:37.733Z</time></trkpt><trkpt lat="42.8551167" lon="2.54096"><ele>536.4</ele><time>2026-04-26T05:39:38.729Z</time></trkpt><trkpt lat="42.8551183" lon="2.5410917"><ele>533.2</ele><time>2026-04-26T05:39:39.729Z</time></trkpt><trkpt lat="42.8551383" lon="2.5412233"><ele>530.0</ele><time>2026-04-26T05:39:40.728Z</time></trkpt><trkpt lat="42.8551533" lon="2.541335"><ele>534.4</ele><time>2026-04-26T05:39:41.729Z</time></trkpt><trkpt lat="42.85512" lon="2.5414967"><ele>538.8</ele><time>2026-04-26T05:39:43.727Z</time></trkpt><trkpt lat="42.85506" lon="2.5415517"><ele>543.2</ele><time>2026-04-26T05:39:44.728Z</time></trkpt><trkpt lat="42.8549683" lon="2.5415917"><ele>547.6</ele><time>2026-04-26T05:39:45.728Z</time></trkpt><trkpt lat="42.854865" lon="2.5416283"><ele>552.0</ele><time>2026-04-26T05:39:46.728Z</time></trkpt><trkpt lat="42.8547517" lon="2.5416833"><ele>552.0</ele><time>2026-04-26T05:39:47.729Z</time></trkpt><trkpt lat="42.854645" lon="2.541755"><ele>552.0</ele><time>2026-04-26T05:39:48.729Z</time></trkpt><trkpt lat="42.8545567" lon="2.541835"><ele>552.0</ele><time>2026-04-26T05:39:49.727Z</time></trkpt><trkpt lat="42.8544817" lon="2.54192"><ele>552.0</ele><time>2026-04-26T05:39:50.729Z</time></trkpt><trkpt lat="42.8544333" lon="2.5420283"><ele>552.0</ele><time>2026-04-26T05:39:51.727Z</time></trkpt><trkpt lat="42.8544117" lon="2.54216"><ele>547.75</ele><time>2026-04-26T05:39:52.728Z</time></trkpt><trkpt lat="42.8544033" lon="2.5423033"><ele>543.5</ele><time>2026-04-26T05:39:53.728Z</time></trkpt><trkpt lat="42.854385" lon="2.5424567"><ele>539.25</ele><time>2026-04-26T05:39:54.729Z</time></trkpt><trkpt lat="42.8543517" lon="2.5426217"><ele>535.0</ele><time>2026-04-26T05:39:55.728Z</time></trkpt><trkpt lat="42.8543117" lon="2.5428"><ele>540.3333333333334</ele><time>2026-04-26T05:39:56.728Z</time></trkpt><trkpt lat="42.8542617" lon="2.542995"><ele>545.6666666666666</ele><time>2026-04-26T05:39:57.729Z</time></trkpt><trkpt lat="42.8542117" lon="2.54319"><ele>551.0</ele><time>2026-04-26T05:39:58.728Z</time></trkpt><trkpt lat="42.8541667" lon="2.5433933"><ele>551.0</ele><time>2026-04-26T05:39:59.73Z</time></trkpt><trkpt lat="42.8541233" lon="2.5436"><ele>551.0</ele><time>2026-04-26T05:40:00.729Z</time></trkpt><trkpt lat="42.8540783" lon="2.5437967"><ele>551.0</ele><time>2026-04-26T05:40:01.728Z</time></trkpt><trkpt lat="42.8540433" lon="2.5439867"><ele>549.5</ele><time>2026-04-26T05:40:02.728Z</time></trkpt><trkpt lat="42.85401" lon="2.5441617"><ele>548.0</ele><time>2026-04-26T05:40:03.734Z</time></trkpt><trkpt lat="42.8539783" lon="2.54434"><ele>546.5</ele><time>2026-04-26T05:40:04.729Z</time></trkpt><trkpt lat="42.8539617" lon="2.5445033"><ele>545.0</ele><time>2026-04-26T05:40:05.729Z</time></trkpt><trkpt lat="42.8539567" lon="2.5446283"><ele>544.0</ele><time>2026-04-26T05:40:06.729Z</time></trkpt><trkpt lat="42.8539733" lon="2.54474"><ele>543.0</ele><time>2026-04-26T05:40:07.728Z</time></trkpt><trkpt lat="42.8539967" lon="2.5448283"><ele>542.0</ele><time>2026-04-26T05:40:08.728Z</time></trkpt><trkpt lat="42.85403" lon="2.5449183"><ele>541.0</ele><time>2026-04-26T05:40:09.73Z</time></trkpt><trkpt lat="42.8540517" lon="2.5450083"><ele>540.0</ele><time>2026-04-26T05:40:10.73Z</time></trkpt><trkpt lat="42.854065" lon="2.5451017"><ele>539.0</ele><time>2026-04-26T05:40:11.729Z</time></trkpt><trkpt lat="42.8540583" lon="2.545205"><ele>538.0</ele><time>2026-04-26T05:40:12.73Z</time></trkpt><trkpt lat="42.854045" lon="2.5453283"><ele>536.25</ele><time>2026-04-26T05:40:13.729Z</time></trkpt><trkpt lat="42.854045" lon="2.5454683"><ele>534.5</ele><time>2026-04-26T05:40:14.728Z</time></trkpt><trkpt lat="42.8540433" lon="2.54562"><ele>532.75</ele><time>2026-04-26T05:40:15.728Z</time></trkpt><trkpt lat="42.8540367" lon="2.54578"><ele>531.0</ele><time>2026-04-26T05:40:16.729Z</time></trkpt><trkpt lat="42.8540133" lon="2.545945"><ele>531.0</ele><time>2026-04-26T05:40:17.728Z</time></trkpt><trkpt lat="42.85398" lon="2.5460967"><ele>531.0</ele><time>2026-04-26T05:40:18.73Z</time></trkpt><trkpt lat="42.853955" lon="2.5462483"><ele>531.0</ele><time>2026-04-26T05:40:19.728Z</time></trkpt><trkpt lat="42.8539433" lon="2.54639"><ele>531.0</ele><time>2026-04-26T05:40:20.731Z</time></trkpt><trkpt lat="42.8539483" lon="2.5465417"><ele>531.0</ele><time>2026-04-26T05:40:21.729Z</time></trkpt><trkpt lat="42.85397" lon="2.5467067"><ele>530.6</ele><time>2026-04-26T05:40:22.727Z</time></trkpt><trkpt lat="42.8539917" lon="2.546865"><ele>530.2</ele><time>2026-04-26T05:40:23.728Z</time></trkpt><trkpt lat="42.8540267" lon="2.5470117"><ele>529.8</ele><time>2026-04-26T05:40:24.729Z</time></trkpt><trkpt lat="42.8540683" lon="2.547145"><ele>529.4</ele><time>2026-04-26T05:40:25.729Z</time></trkpt><trkpt lat="42.8541067" lon="2.5472717"><ele>529.0</ele><time>2026-04-26T05:40:26.729Z</time></trkpt><trkpt lat="42.854125" lon="2.5473917"><ele>528.5</ele><time>2026-04-26T05:40:27.729Z</time></trkpt><trkpt lat="42.8541233" lon="2.547515"><ele>528.0</ele><time>2026-04-26T05:40:28.728Z</time></trkpt><trkpt lat="42.8541117" lon="2.5476317"><ele>527.5</ele><time>2026-04-26T05:40:29.728Z</time></trkpt><trkpt lat="42.8540983" lon="2.547745"><ele>527.0</ele><time>2026-04-26T05:40:30.728Z</time></trkpt><trkpt lat="42.8540667" lon="2.5478583"><ele>526.5</ele><time>2026-04-26T05:40:31.728Z</time></trkpt><trkpt lat="42.8540117" lon="2.54797"><ele>526.0</ele><time>2026-04-26T05:40:32.729Z</time></trkpt><trkpt lat="42.8539517" lon="2.548075"><ele>525.2</ele><time>2026-04-26T05:40:33.728Z</time></trkpt><trkpt lat="42.8539033" lon="2.5481883"><ele>524.4000000000001</ele><time>2026-04-26T05:40:34.728Z</time></trkpt><trkpt lat="42.85387" lon="2.548295"><ele>523.6</ele><time>2026-04-26T05:40:35.73Z</time></trkpt><trkpt lat="42.8538517" lon="2.5484017"><ele>522.8000000000001</ele><time>2026-04-26T05:40:36.732Z</time></trkpt><trkpt lat="42.8538467" lon="2.5485"><ele>522.0</ele><time>2026-04-26T05:40:37.728Z</time></trkpt><trkpt lat="42.8539217" lon="2.5486333"><ele>522.0</ele><time>2026-04-26T05:40:39.728Z</time></trkpt><trkpt lat="42.8539967" lon="2.548655"><ele>522.0</ele><time>2026-04-26T05:40:40.73Z</time></trkpt><trkpt lat="42.8540817" lon="2.54867"><ele>522.0</ele><time>2026-04-26T05:40:41.729Z</time></trkpt><trkpt lat="42.8541617" lon="2.5486983"><ele>522.0</ele><time>2026-04-26T05:40:42.727Z</time></trkpt><trkpt lat="42.85423" lon="2.5487383"><ele>522.0</ele><time>2026-04-26T05:40:43.729Z</time></trkpt><trkpt lat="42.8542817" lon="2.5488067"><ele>522.0</ele><time>2026-04-26T05:40:44.728Z</time></trkpt><trkpt lat="42.8543167" lon="2.5489067"><ele>516.0</ele><time>2026-04-26T05:40:45.728Z</time></trkpt><trkpt lat="42.854325" lon="2.54903"><ele>510.0</ele><time>2026-04-26T05:40:46.728Z</time></trkpt><trkpt lat="42.854335" lon="2.549155"><ele>504.0</ele><time>2026-04-26T05:40:47.728Z</time></trkpt><trkpt lat="42.8543467" lon="2.54928"><ele>498.0</ele><time>2026-04-26T05:40:48.728Z</time></trkpt><trkpt lat="42.85435" lon="2.549395"><ele>492.0</ele><time>2026-04-26T05:40:49.728Z</time></trkpt><trkpt lat="42.8543367" lon="2.5495"><ele>486.0</ele><time>2026-04-26T05:40:50.729Z</time></trkpt><trkpt lat="42.8543033" lon="2.5495967"><ele>489.20000000000005</ele><time>2026-04-26T05:40:51.729Z</time></trkpt><trkpt lat="42.8542683" lon="2.5496867"><ele>492.40000000000003</ele><time>2026-04-26T05:40:52.728Z</time></trkpt><trkpt lat="42.854215" lon="2.5497667"><ele>495.6</ele><time>2026-04-26T05:40:53.73Z</time></trkpt><trkpt lat="42.854135" lon="2.54983"><ele>498.8</ele><time>2026-04-26T05:40:54.728Z</time></trkpt><trkpt lat="42.8540367" lon="2.5498817"><ele>502.0</ele><time>2026-04-26T05:40:55.729Z</time></trkpt><trkpt lat="42.8539333" lon="2.5499133"><ele>502.0</ele><time>2026-04-26T05:40:56.729Z</time></trkpt><trkpt lat="42.8538283" lon="2.5499383"><ele>502.00000000000006</ele><time>2026-04-26T05:40:57.729Z</time></trkpt><trkpt lat="42.8537183" lon="2.5499583"><ele>502.00000000000006</ele><time>2026-04-26T05:40:58.729Z</time></trkpt><trkpt lat="42.85361" lon="2.5499617"><ele>502.0</ele><time>2026-04-26T05:40:59.729Z</time></trkpt><trkpt lat="42.8535033" lon="2.5499633"><ele>502.0</ele><time>2026-04-26T05:41:00.728Z</time></trkpt><trkpt lat="42.8533983" lon="2.5499867"><ele>505.25</ele><time>2026-04-26T05:41:01.727Z</time></trkpt><trkpt lat="42.8532883" lon="2.5500417"><ele>508.5</ele><time>2026-04-26T05:41:02.73Z</time></trkpt><trkpt lat="42.8531767" lon="2.55008"><ele>511.75</ele><time>2026-04-26T05:41:03.729Z</time></trkpt><trkpt lat="42.8530583" lon="2.5501317"><ele>515.0</ele><time>2026-04-26T05:41:04.73Z</time></trkpt><trkpt lat="42.8529433" lon="2.5501667"><ele>515.0</ele><time>2026-04-26T05:41:05.73Z</time></trkpt><trkpt lat="42.85284" lon="2.5501883"><ele>515.0</ele><time>2026-04-26T05:41:06.731Z</time></trkpt><trkpt lat="42.8527433" lon="2.55019"><ele>515.0</ele><time>2026-04-26T05:41:07.73Z</time></trkpt><trkpt lat="42.85265" lon="2.5502067"><ele>515.0</ele><time>2026-04-26T05:41:08.728Z</time></trkpt><trkpt lat="42.8525617" lon="2.5502467"><ele>515.0</ele><time>2026-04-26T05:41:09.728Z</time></trkpt><trkpt lat="42.852475" lon="2.5503217"><ele>511.4</ele><time>2026-04-26T05:41:10.729Z</time></trkpt><trkpt lat="42.8523883" lon="2.5504283"><ele>507.8</ele><time>2026-04-26T05:41:11.728Z</time></trkpt><trkpt lat="42.8523033" lon="2.55053"><ele>504.20000000000005</ele><time>2026-04-26T05:41:12.728Z</time></trkpt><trkpt lat="42.8522267" lon="2.5506133"><ele>500.6</ele><time>2026-04-26T05:41:13.727Z</time></trkpt><trkpt lat="42.85216" lon="2.5507183"><ele>497.0</ele><time>2026-04-26T05:41:14.728Z</time></trkpt><trkpt lat="42.8521083" lon="2.5507833"><ele>497.0</ele><time>2026-04-26T05:41:15.729Z</time></trkpt><trkpt lat="42.852075" lon="2.55089"><ele>497.00000000000006</ele><time>2026-04-26T05:41:16.729Z</time></trkpt><trkpt lat="42.8520717" lon="2.5510133"><ele>497.00000000000006</ele><time>2026-04-26T05:41:17.729Z</time></trkpt><trkpt lat="42.8520783" lon="2.5511383"><ele>497.0</ele><time>2026-04-26T05:41:18.73Z</time></trkpt><trkpt lat="42.8521017" lon="2.5512633"><ele>497.0</ele><time>2026-04-26T05:41:19.732Z</time></trkpt><trkpt lat="42.852115" lon="2.5513833"><ele>493.20000000000005</ele><time>2026-04-26T05:41:20.73Z</time></trkpt><trkpt lat="42.8521033" lon="2.5514917"><ele>489.40000000000003</ele><time>2026-04-26T05:41:21.729Z</time></trkpt><trkpt lat="42.8520767" lon="2.5515867"><ele>485.59999999999997</ele><time>2026-04-26T05:41:22.729Z</time></trkpt><trkpt lat="42.8520433" lon="2.5516667"><ele>481.79999999999995</ele><time>2026-04-26T05:41:23.73Z</time></trkpt><trkpt lat="42.8519433" lon="2.5517433"><ele>478.0</ele><time>2026-04-26T05:41:25.729Z</time></trkpt><trkpt lat="42.8518283" lon="2.551805"><ele>482.2</ele><time>2026-04-26T05:41:27.727Z</time></trkpt><trkpt lat="42.8517667" lon="2.551865"><ele>486.4</ele><time>2026-04-26T05:41:28.729Z</time></trkpt><trkpt lat="42.851715" lon="2.5519517"><ele>490.59999999999997</ele><time>2026-04-26T05:41:29.728Z</time></trkpt><trkpt lat="42.8516733" lon="2.55209"><ele>494.79999999999995</ele><time>2026-04-26T05:41:30.729Z</time></trkpt><trkpt lat="42.85164" lon="2.5522333"><ele>499.0</ele><time>2026-04-26T05:41:31.729Z</time></trkpt><trkpt lat="42.8516083" lon="2.552385"><ele>499.0</ele><time>2026-04-26T05:41:32.727Z</time></trkpt><trkpt lat="42.851585" lon="2.552535"><ele>499.0</ele><time>2026-04-26T05:41:33.728Z</time></trkpt><trkpt lat="42.8515667" lon="2.5526833"><ele>499.0</ele><time>2026-04-26T05:41:34.728Z</time></trkpt><trkpt lat="42.8515517" lon="2.5528283"><ele>499.0</ele><time>2026-04-26T05:41:35.727Z</time></trkpt><trkpt lat="42.8515517" lon="2.5529583"><ele>499.0</ele><time>2026-04-26T05:41:36.729Z</time></trkpt><trkpt lat="42.8515683" lon="2.5530667"><ele>497.83333333333337</ele><time>2026-04-26T05:41:37.728Z</time></trkpt><trkpt lat="42.8516" lon="2.5531617"><ele>496.6666666666667</ele><time>2026-04-26T05:41:38.729Z</time></trkpt><trkpt lat="42.85165" lon="2.5532533"><ele>495.5</ele><time>2026-04-26T05:41:39.727Z</time></trkpt><trkpt lat="42.851725" lon="2.553295"><ele>494.33333333333337</ele><time>2026-04-26T05:41:40.728Z</time></trkpt><trkpt lat="42.8518" lon="2.553275"><ele>493.1666666666667</ele><time>2026-04-26T05:41:41.729Z</time></trkpt><trkpt lat="42.85187" lon="2.553255"><ele>492.0</ele><time>2026-04-26T05:41:42.728Z</time></trkpt><trkpt lat="42.85194" lon="2.5532283"><ele>492.0</ele><time>2026-04-26T05:41:43.727Z</time></trkpt><trkpt lat="42.852045" lon="2.5532533"><ele>492.00000000000006</ele><time>2026-04-26T05:41:45.729Z</time></trkpt><trkpt lat="42.8520617" lon="2.5534067"><ele>492.00000000000006</ele><time>2026-04-26T05:41:47.728Z</time></trkpt><trkpt lat="42.8519517" lon="2.5535167"><ele>492.0</ele><time>2026-04-26T05:41:49.73Z</time></trkpt><trkpt lat="42.8518717" lon="2.5535667"><ele>492.0</ele><time>2026-04-26T05:41:50.731Z</time></trkpt><trkpt lat="42.8517883" lon="2.5536167"><ele>492.0</ele><time>2026-04-26T05:41:51.73Z</time></trkpt><trkpt lat="42.8517083" lon="2.5536933"><ele>492.00000000000006</ele><time>2026-04-26T05:41:52.728Z</time></trkpt><trkpt lat="42.85164" lon="2.5537933"><ele>492.00000000000006</ele><time>2026-04-26T05:41:53.728Z</time></trkpt><trkpt lat="42.8515917" lon="2.55392"><ele>492.0</ele><time>2026-04-26T05:41:54.729Z</time></trkpt><trkpt lat="42.85157" lon="2.55405"><ele>492.0</ele><time>2026-04-26T05:41:55.729Z</time></trkpt><trkpt lat="42.8515683" lon="2.5541833"><ele>490.3333333333333</ele><time>2026-04-26T05:41:56.73Z</time></trkpt><trkpt lat="42.851585" lon="2.5543083"><ele>488.66666666666663</ele><time>2026-04-26T05:41:57.728Z</time></trkpt><trkpt lat="42.8516133" lon="2.5544133"><ele>487.0</ele><time>2026-04-26T05:41:58.728Z</time></trkpt><trkpt lat="42.8516217" lon="2.5545083"><ele>485.3333333333333</ele><time>2026-04-26T05:41:59.727Z</time></trkpt><trkpt lat="42.8516033" lon="2.5546"><ele>483.66666666666663</ele><time>2026-04-26T05:42:00.727Z</time></trkpt><trkpt lat="42.8515467" lon="2.5546817"><ele>482.0</ele><time>2026-04-26T05:42:01.728Z</time></trkpt><trkpt lat="42.85147" lon="2.5547583"><ele>479.40000000000003</ele><time>2026-04-26T05:42:02.728Z</time></trkpt><trkpt lat="42.851395" lon="2.55484"><ele>476.80000000000007</ele><time>2026-04-26T05:42:03.727Z</time></trkpt><trkpt lat="42.8513217" lon="2.5549317"><ele>474.2</ele><time>2026-04-26T05:42:04.728Z</time></trkpt><trkpt lat="42.85126" lon="2.5550333"><ele>471.6</ele><time>2026-04-26T05:42:05.727Z</time></trkpt><trkpt lat="42.8512333" lon="2.5551517"><ele>469.0</ele><time>2026-04-26T05:42:06.727Z</time></trkpt><trkpt lat="42.8512283" lon="2.5552833"><ele>468.00000000000006</ele><time>2026-04-26T05:42:07.727Z</time></trkpt><trkpt lat="42.85123" lon="2.5554083"><ele>467.0</ele><time>2026-04-26T05:42:08.728Z</time></trkpt><trkpt lat="42.8512483" lon="2.555525"><ele>466.0</ele><time>2026-04-26T05:42:09.728Z</time></trkpt><trkpt lat="42.8512783" lon="2.55563"><ele>465.0</ele><time>2026-04-26T05:42:10.728Z</time></trkpt><trkpt lat="42.851305" lon="2.5557167"><ele>464.00000000000006</ele><time>2026-04-26T05:42:11.727Z</time></trkpt><trkpt lat="42.8513133" lon="2.5558617"><ele>463.0</ele><time>2026-04-26T05:42:13.728Z</time></trkpt><trkpt lat="42.8512617" lon="2.5559983"><ele>463.00000000000006</ele><time>2026-04-26T05:42:15.727Z</time></trkpt><trkpt lat="42.851215" lon="2.5560767"><ele>463.0</ele><time>2026-04-26T05:42:16.727Z</time></trkpt><trkpt lat="42.8511733" lon="2.55617"><ele>463.0</ele><time>2026-04-26T05:42:17.73Z</time></trkpt><trkpt lat="42.8511533" lon="2.55628"><ele>463.0</ele><time>2026-04-26T05:42:18.727Z</time></trkpt><trkpt lat="42.8511483" lon="2.556385"><ele>463.00000000000006</ele><time>2026-04-26T05:42:19.809Z</time></trkpt><trkpt lat="42.85116" lon="2.5564817"><ele>463.0</ele><time>2026-04-26T05:42:20.728Z</time></trkpt><trkpt lat="42.8512233" lon="2.5565517"><ele>464.4</ele><time>2026-04-26T05:42:21.728Z</time></trkpt><trkpt lat="42.8513017" lon="2.5565983"><ele>465.79999999999995</ele><time>2026-04-26T05:42:22.728Z</time></trkpt><trkpt lat="42.8514033" lon="2.55662"><ele>467.2</ele><time>2026-04-26T05:42:23.727Z</time></trkpt><trkpt lat="42.85151" lon="2.5566633"><ele>468.6</ele><time>2026-04-26T05:42:24.728Z</time></trkpt><trkpt lat="42.8516033" lon="2.5567333"><ele>470.0</ele><time>2026-04-26T05:42:25.727Z</time></trkpt><trkpt lat="42.851695" lon="2.5568033"><ele>470.0</ele><time>2026-04-26T05:42:26.73Z</time></trkpt><trkpt lat="42.8517883" lon="2.556865"><ele>470.0</ele><time>2026-04-26T05:42:27.729Z</time></trkpt><trkpt lat="42.851885" lon="2.5569183"><ele>470.0</ele><time>2026-04-26T05:42:28.728Z</time></trkpt><trkpt lat="42.8519817" lon="2.556955"><ele>470.0</ele><time>2026-04-26T05:42:29.727Z</time></trkpt><trkpt lat="42.8520717" lon="2.556965"><ele>470.0</ele><time>2026-04-26T05:42:30.728Z</time></trkpt><trkpt lat="42.8521583" lon="2.55695"><ele>469.0</ele><time>2026-04-26T05:42:31.727Z</time></trkpt><trkpt lat="42.8522417" lon="2.5568983"><ele>468.0</ele><time>2026-04-26T05:42:32.727Z</time></trkpt><trkpt lat="42.8523233" lon="2.5568317"><ele>467.0</ele><time>2026-04-26T05:42:33.728Z</time></trkpt><trkpt lat="42.8523983" lon="2.5567617"><ele>466.0</ele><time>2026-04-26T05:42:34.727Z</time></trkpt><trkpt lat="42.8524767" lon="2.5566733"><ele>465.0</ele><time>2026-04-26T05:42:35.728Z</time></trkpt><trkpt lat="42.852555" lon="2.5565833"><ele>461.8333333333333</ele><time>2026-04-26T05:42:36.727Z</time></trkpt><trkpt lat="42.85263" lon="2.5565033"><ele>458.66666666666663</ele><time>2026-04-26T05:42:37.732Z</time></trkpt><trkpt lat="42.8526983" lon="2.55644"><ele>455.5</ele><time>2026-04-26T05:42:38.727Z</time></trkpt><trkpt lat="42.8527683" lon="2.5564"><ele>452.3333333333333</ele><time>2026-04-26T05:42:39.731Z</time></trkpt><trkpt lat="42.8528483" lon="2.5563733"><ele>449.16666666666663</ele><time>2026-04-26T05:42:40.728Z</time></trkpt><trkpt lat="42.8529317" lon="2.556355"><ele>446.0</ele><time>2026-04-26T05:42:41.728Z</time></trkpt><trkpt lat="42.8530017" lon="2.556355"><ele>445.99999999999994</ele><time>2026-04-26T05:42:42.729Z</time></trkpt><trkpt lat="42.853095" lon="2.55642"><ele>446.0</ele><time>2026-04-26T05:42:44.728Z</time></trkpt><trkpt lat="42.8531333" lon="2.556575"><ele>446.0</ele><time>2026-04-26T05:42:46.727Z</time></trkpt><trkpt lat="42.8531583" lon="2.5566667"><ele>446.0</ele><time>2026-04-26T05:42:47.733Z</time></trkpt><trkpt lat="42.853195" lon="2.5567533"><ele>445.99999999999994</ele><time>2026-04-26T05:42:48.729Z</time></trkpt><trkpt lat="42.853225" lon="2.556845"><ele>446.0</ele><time>2026-04-26T05:42:49.729Z</time></trkpt><trkpt lat="42.853245" lon="2.557015"><ele>447.99999999999994</ele><time>2026-04-26T05:42:51.727Z</time></trkpt><trkpt lat="42.85325" lon="2.5571067"><ele>450.0</ele><time>2026-04-26T05:42:52.728Z</time></trkpt><trkpt lat="42.85326" lon="2.5572033"><ele>452.0</ele><time>2026-04-26T05:42:53.727Z</time></trkpt><trkpt lat="42.853295" lon="2.5572833"><ele>454.0</ele><time>2026-04-26T05:42:54.727Z</time></trkpt><trkpt lat="42.8533583" lon="2.557355"><ele>455.99999999999994</ele><time>2026-04-26T05:42:55.728Z</time></trkpt><trkpt lat="42.8534167" lon="2.5574333"><ele>458.0</ele><time>2026-04-26T05:42:56.728Z</time></trkpt><trkpt lat="42.8534633" lon="2.5575317"><ele>457.8333333333333</ele><time>2026-04-26T05:42:57.727Z</time></trkpt><trkpt lat="42.8534883" lon="2.5576417"><ele>457.66666666666663</ele><time>2026-04-26T05:42:58.727Z</time></trkpt><trkpt lat="42.8534933" lon="2.557755"><ele>457.5</ele><time>2026-04-26T05:42:59.727Z</time></trkpt><trkpt lat="42.8534817" lon="2.557865"><ele>457.33333333333337</ele><time>2026-04-26T05:43:00.727Z</time></trkpt><trkpt lat="42.8534567" lon="2.557985"><ele>457.1666666666667</ele><time>2026-04-26T05:43:01.727Z</time></trkpt><trkpt lat="42.8534317" lon="2.5581133"><ele>457.0</ele><time>2026-04-26T05:43:02.727Z</time></trkpt><trkpt lat="42.8534083" lon="2.5582533"><ele>457.0</ele><time>2026-04-26T05:43:03.727Z</time></trkpt><trkpt lat="42.8533967" lon="2.5584117"><ele>457.0</ele><time>2026-04-26T05:43:04.728Z</time></trkpt><trkpt lat="42.8533867" lon="2.5585717"><ele>457.0</ele><time>2026-04-26T05:43:05.727Z</time></trkpt><trkpt lat="42.8533667" lon="2.55873"><ele>457.0</ele><time>2026-04-26T05:43:06.728Z</time></trkpt><trkpt lat="42.8533433" lon="2.5588833"><ele>454.5</ele><time>2026-04-26T05:43:07.729Z</time></trkpt><trkpt lat="42.8533167" lon="2.5590333"><ele>452.0</ele><time>2026-04-26T05:43:08.728Z</time></trkpt><trkpt lat="42.8532883" lon="2.55918"><ele>449.5</ele><time>2026-04-26T05:43:09.728Z</time></trkpt><trkpt lat="42.8532567" lon="2.5593333"><ele>447.0</ele><time>2026-04-26T05:43:10.727Z</time></trkpt><trkpt lat="42.8532267" lon="2.5594883"><ele>445.0</ele><time>2026-04-26T05:43:11.73Z</time></trkpt><trkpt lat="42.8531983" lon="2.5596483"><ele>443.0</ele><time>2026-04-26T05:43:12.729Z</time></trkpt><trkpt lat="42.8531733" lon="2.559805"><ele>441.0</ele><time>2026-04-26T05:43:13.73Z</time></trkpt><trkpt lat="42.8531483" lon="2.55996"><ele>439.0</ele><time>2026-04-26T05:43:14.729Z</time></trkpt><trkpt lat="42.8531217" lon="2.5601033"><ele>439.0</ele><time>2026-04-26T05:43:15.727Z</time></trkpt><trkpt lat="42.8531017" lon="2.5602417"><ele>439.0</ele><time>2026-04-26T05:43:16.727Z</time></trkpt><trkpt lat="42.8530717" lon="2.5603733"><ele>439.0</ele><time>2026-04-26T05:43:17.731Z</time></trkpt><trkpt lat="42.8530317" lon="2.5605017"><ele>439.0</ele><time>2026-04-26T05:43:18.727Z</time></trkpt><trkpt lat="42.8529767" lon="2.56063"><ele>439.0</ele><time>2026-04-26T05:43:19.728Z</time></trkpt><trkpt lat="42.852915" lon="2.5607583"><ele>436.25</ele><time>2026-04-26T05:43:20.729Z</time></trkpt><trkpt lat="42.8528517" lon="2.5608883"><ele>433.5</ele><time>2026-04-26T05:43:21.727Z</time></trkpt><trkpt lat="42.8528" lon="2.5610317"><ele>430.75</ele><time>2026-04-26T05:43:22.727Z</time></trkpt><trkpt lat="42.8527483" lon="2.5611783"><ele>428.0</ele><time>2026-04-26T05:43:23.728Z</time></trkpt><trkpt lat="42.85271" lon="2.5613217"><ele>425.0</ele><time>2026-04-26T05:43:24.728Z</time></trkpt><trkpt lat="42.8526767" lon="2.56147"><ele>421.99999999999994</ele><time>2026-04-26T05:43:25.728Z</time></trkpt><trkpt lat="42.8526417" lon="2.5616183"><ele>419.0</ele><time>2026-04-26T05:43:26.729Z</time></trkpt><trkpt lat="42.852605" lon="2.56176"><ele>416.0</ele><time>2026-04-26T05:43:27.727Z</time></trkpt><trkpt lat="42.8525683" lon="2.5618867"><ele>413.0</ele><time>2026-04-26T05:43:28.732Z</time></trkpt><trkpt lat="42.8525167" lon="2.5619767"><ele>414.8333333333333</ele><time>2026-04-26T05:43:29.727Z</time></trkpt><trkpt lat="42.8524567" lon="2.5620417"><ele>416.66666666666663</ele><time>2026-04-26T05:43:30.728Z</time></trkpt><trkpt lat="42.8523867" lon="2.5620733"><ele>418.5</ele><time>2026-04-26T05:43:31.727Z</time></trkpt><trkpt lat="42.85231" lon="2.56211"><ele>420.33333333333337</ele><time>2026-04-26T05:43:32.727Z</time></trkpt><trkpt lat="42.8522233" lon="2.5621417"><ele>422.1666666666667</ele><time>2026-04-26T05:43:33.726Z</time></trkpt><trkpt lat="42.852135" lon="2.5621533"><ele>424.0</ele><time>2026-04-26T05:43:34.727Z</time></trkpt><trkpt lat="42.8520467" lon="2.5621417"><ele>424.00000000000006</ele><time>2026-04-26T05:43:35.728Z</time></trkpt><trkpt lat="42.8519583" lon="2.562115"><ele>424.0</ele><time>2026-04-26T05:43:36.728Z</time></trkpt><trkpt lat="42.8518833" lon="2.5620667"><ele>424.0</ele><time>2026-04-26T05:43:37.728Z</time></trkpt><trkpt lat="42.8518283" lon="2.5620133"><ele>424.0</ele><time>2026-04-26T05:43:38.727Z</time></trkpt><trkpt lat="42.8517933" lon="2.561925"><ele>424.00000000000006</ele><time>2026-04-26T05:43:39.729Z</time></trkpt><trkpt lat="42.8517717" lon="2.56183"><ele>424.0</ele><time>2026-04-26T05:43:40.727Z</time></trkpt><trkpt lat="42.8517433" lon="2.5617167"><ele>427.6</ele><time>2026-04-26T05:43:41.728Z</time></trkpt><trkpt lat="42.851715" lon="2.5615917"><ele>431.2</ele><time>2026-04-26T05:43:42.729Z</time></trkpt><trkpt lat="42.8516867" lon="2.5614483"><ele>434.80000000000007</ele><time>2026-04-26T05:43:43.728Z</time></trkpt><trkpt lat="42.8516617" lon="2.5612983"><ele>438.40000000000003</ele><time>2026-04-26T05:43:44.727Z</time></trkpt><trkpt lat="42.85164" lon="2.5611533"><ele>442.0</ele><time>2026-04-26T05:43:45.729Z</time></trkpt><trkpt lat="42.8516117" lon="2.5610217"><ele>444.8</ele><time>2026-04-26T05:43:46.729Z</time></trkpt><trkpt lat="42.8515817" lon="2.5609117"><ele>447.6</ele><time>2026-04-26T05:43:47.728Z</time></trkpt><trkpt lat="42.8515483" lon="2.5608267"><ele>450.40000000000003</ele><time>2026-04-26T05:43:48.728Z</time></trkpt><trkpt lat="42.8514883" lon="2.5607767"><ele>453.20000000000005</ele><time>2026-04-26T05:43:49.728Z</time></trkpt><trkpt lat="42.8513483" lon="2.5607917"><ele>456.0</ele><time>2026-04-26T05:43:51.729Z</time></trkpt><trkpt lat="42.8512717" lon="2.5608467"><ele>456.0</ele><time>2026-04-26T05:43:52.728Z</time></trkpt><trkpt lat="42.851205" lon="2.5609167"><ele>456.0</ele><time>2026-04-26T05:43:53.728Z</time></trkpt><trkpt lat="42.85115" lon="2.5610133"><ele>456.0</ele><time>2026-04-26T05:43:54.73Z</time></trkpt><trkpt lat="42.8511117" lon="2.5611217"><ele>456.0</ele><time>2026-04-26T05:43:55.728Z</time></trkpt><trkpt lat="42.8510783" lon="2.5612367"><ele>456.0</ele><time>2026-04-26T05:43:56.729Z</time></trkpt><trkpt lat="42.851045" lon="2.56135"><ele>456.0</ele><time>2026-04-26T05:43:57.731Z</time></trkpt><trkpt lat="42.8510133" lon="2.5614717"><ele>455.4</ele><time>2026-04-26T05:43:58.732Z</time></trkpt><trkpt lat="42.850985" lon="2.5616"><ele>454.8</ele><time>2026-04-26T05:43:59.727Z</time></trkpt><trkpt lat="42.8509633" lon="2.561735"><ele>454.19999999999993</ele><time>2026-04-26T05:44:00.729Z</time></trkpt><trkpt lat="42.8509433" lon="2.5618767"><ele>453.59999999999997</ele><time>2026-04-26T05:44:01.729Z</time></trkpt><trkpt lat="42.8509283" lon="2.562025"><ele>453.0</ele><time>2026-04-26T05:44:02.731Z</time></trkpt><trkpt lat="42.8509167" lon="2.5621817"><ele>452.0</ele><time>2026-04-26T05:44:03.729Z</time></trkpt><trkpt lat="42.8509067" lon="2.5623383"><ele>450.99999999999994</ele><time>2026-04-26T05:44:04.729Z</time></trkpt><trkpt lat="42.8508867" lon="2.562485"><ele>449.99999999999994</ele><time>2026-04-26T05:44:05.729Z</time></trkpt><trkpt lat="42.8508533" lon="2.562625"><ele>449.0</ele><time>2026-04-26T05:44:06.728Z</time></trkpt><trkpt lat="42.8508167" lon="2.56276"><ele>448.0</ele><time>2026-04-26T05:44:07.727Z</time></trkpt><trkpt lat="42.8507967" lon="2.5628933"><ele>447.59999999999997</ele><time>2026-04-26T05:44:08.729Z</time></trkpt><trkpt lat="42.8507967" lon="2.56303"><ele>447.19999999999993</ele><time>2026-04-26T05:44:09.728Z</time></trkpt><trkpt lat="42.85084" lon="2.56317"><ele>446.8</ele><time>2026-04-26T05:44:10.729Z</time></trkpt><trkpt lat="42.8508883" lon="2.5633067"><ele>446.4</ele><time>2026-04-26T05:44:11.729Z</time></trkpt><trkpt lat="42.8509233" lon="2.563435"><ele>446.0</ele><time>2026-04-26T05:44:12.729Z</time></trkpt><trkpt lat="42.8509367" lon="2.5635467"><ele>446.0</ele><time>2026-04-26T05:44:13.728Z</time></trkpt><trkpt lat="42.850935" lon="2.5636383"><ele>446.0</ele><time>2026-04-26T05:44:14.729Z</time></trkpt><trkpt lat="42.850845" lon="2.5637483"><ele>446.0</ele><time>2026-04-26T05:44:16.727Z</time></trkpt><trkpt lat="42.85075" lon="2.563775"><ele>446.0</ele><time>2026-04-26T05:44:17.727Z</time></trkpt><trkpt lat="42.8506383" lon="2.5638067"><ele>446.0</ele><time>2026-04-26T05:44:18.73Z</time></trkpt><trkpt lat="42.8505233" lon="2.5638483"><ele>445.8333333333333</ele><time>2026-04-26T05:44:19.727Z</time></trkpt><trkpt lat="42.8504133" lon="2.5638933"><ele>445.66666666666663</ele><time>2026-04-26T05:44:20.729Z</time></trkpt><trkpt lat="42.850325" lon="2.56395"><ele>445.5</ele><time>2026-04-26T05:44:21.727Z</time></trkpt><trkpt lat="42.85026" lon="2.5640283"><ele>445.33333333333337</ele><time>2026-04-26T05:44:22.729Z</time></trkpt><trkpt lat="42.8502133" lon="2.5641083"><ele>445.1666666666667</ele><time>2026-04-26T05:44:23.728Z</time></trkpt><trkpt lat="42.850215" lon="2.564195"><ele>445.0</ele><time>2026-04-26T05:44:24.727Z</time></trkpt><trkpt lat="42.8502917" lon="2.56434"><ele>445.0</ele><time>2026-04-26T05:44:26.728Z</time></trkpt><trkpt lat="42.8503717" lon="2.5644067"><ele>445.0</ele><time>2026-04-26T05:44:27.728Z</time></trkpt><trkpt lat="42.850485" lon="2.5644733"><ele>445.0</ele><time>2026-04-26T05:44:28.728Z</time></trkpt><trkpt lat="42.850595" lon="2.5645617"><ele>445.0</ele><time>2026-04-26T05:44:29.727Z</time></trkpt><trkpt lat="42.8506983" lon="2.5646567"><ele>448.0</ele><time>2026-04-26T05:44:30.728Z</time></trkpt><trkpt lat="42.8508067" lon="2.564735"><ele>451.0</ele><time>2026-04-26T05:44:31.728Z</time></trkpt><trkpt lat="42.8509217" lon="2.5647967"><ele>454.0</ele><time>2026-04-26T05:44:32.729Z</time></trkpt><trkpt lat="42.85103" lon="2.5648617"><ele>457.0</ele><time>2026-04-26T05:44:33.727Z</time></trkpt><trkpt lat="42.85113" lon="2.5649233"><ele>451.83333333333337</ele><time>2026-04-26T05:44:34.727Z</time></trkpt><trkpt lat="42.8512233" lon="2.56497"><ele>446.6666666666667</ele><time>2026-04-26T05:44:35.727Z</time></trkpt><trkpt lat="42.85131" lon="2.564985"><ele>441.5</ele><time>2026-04-26T05:44:36.728Z</time></trkpt><trkpt lat="42.8513883" lon="2.5649883"><ele>436.33333333333337</ele><time>2026-04-26T05:44:37.727Z</time></trkpt><trkpt lat="42.851455" lon="2.56501"><ele>431.1666666666667</ele><time>2026-04-26T05:44:38.727Z</time></trkpt><trkpt lat="42.8515033" lon="2.5650683"><ele>426.0</ele><time>2026-04-26T05:44:39.727Z</time></trkpt><trkpt lat="42.85153" lon="2.5651567"><ele>426.0</ele><time>2026-04-26T05:44:40.727Z</time></trkpt><trkpt lat="42.8515533" lon="2.5652633"><ele>426.0</ele><time>2026-04-26T05:44:41.727Z</time></trkpt><trkpt lat="42.8515867" lon="2.5653733"><ele>426.0</ele><time>2026-04-26T05:44:42.728Z</time></trkpt><trkpt lat="42.8516317" lon="2.5654633"><ele>426.0</ele><time>2026-04-26T05:44:43.727Z</time></trkpt><trkpt lat="42.8516733" lon="2.56555"><ele>426.0</ele><time>2026-04-26T05:44:44.729Z</time></trkpt><trkpt lat="42.8517033" lon="2.5656533"><ele>426.0</ele><time>2026-04-26T05:44:45.726Z</time></trkpt><trkpt lat="42.8517267" lon="2.5657767"><ele>427.20000000000005</ele><time>2026-04-26T05:44:46.727Z</time></trkpt><trkpt lat="42.8517417" lon="2.5659133"><ele>428.40000000000003</ele><time>2026-04-26T05:44:47.727Z</time></trkpt><trkpt lat="42.8517533" lon="2.5660467"><ele>429.6</ele><time>2026-04-26T05:44:48.729Z</time></trkpt><trkpt lat="42.8517617" lon="2.56617"><ele>430.8</ele><time>2026-04-26T05:44:49.728Z</time></trkpt><trkpt lat="42.851755" lon="2.5662867"><ele>432.0</ele><time>2026-04-26T05:44:50.729Z</time></trkpt><trkpt lat="42.85174" lon="2.566395"><ele>432.0</ele><time>2026-04-26T05:44:51.728Z</time></trkpt><trkpt lat="42.8517117" lon="2.5665083"><ele>432.00000000000006</ele><time>2026-04-26T05:44:52.731Z</time></trkpt><trkpt lat="42.8516783" lon="2.5666317"><ele>432.00000000000006</ele><time>2026-04-26T05:44:53.727Z</time></trkpt><trkpt lat="42.851645" lon="2.5667567"><ele>432.0</ele><time>2026-04-26T05:44:54.727Z</time></trkpt><trkpt lat="42.8516217" lon="2.5668767"><ele>432.0</ele><time>2026-04-26T05:44:55.727Z</time></trkpt><trkpt lat="42.8515967" lon="2.5669783"><ele>432.0</ele><time>2026-04-26T05:44:56.727Z</time></trkpt><trkpt lat="42.8515667" lon="2.5670583"><ele>432.0</ele><time>2026-04-26T05:44:57.727Z</time></trkpt><trkpt lat="42.85156" lon="2.5671767"><ele>432.0</ele><time>2026-04-26T05:44:59.728Z</time></trkpt><trkpt lat="42.8516383" lon="2.5671933"><ele>432.0</ele><time>2026-04-26T05:45:01.727Z</time></trkpt><trkpt lat="42.8516933" lon="2.5670633"><ele>432.0</ele><time>2026-04-26T05:45:03.728Z</time></trkpt><trkpt lat="42.8517" lon="2.56695"><ele>432.0</ele><time>2026-04-26T05:45:04.727Z</time></trkpt><trkpt lat="42.851725" lon="2.56683"><ele>432.0</ele><time>2026-04-26T05:45:05.729Z</time></trkpt><trkpt lat="42.851765" lon="2.5667117"><ele>432.0</ele><time>2026-04-26T05:45:06.727Z</time></trkpt><trkpt lat="42.8518167" lon="2.5666117"><ele>432.0</ele><time>2026-04-26T05:45:07.727Z</time></trkpt><trkpt lat="42.85186" lon="2.5665183"><ele>432.0</ele><time>2026-04-26T05:45:08.729Z</time></trkpt><trkpt lat="42.851885" lon="2.5664283"><ele>432.0</ele><time>2026-04-26T05:45:09.729Z</time></trkpt><trkpt lat="42.8519017" lon="2.566335"><ele>432.0</ele><time>2026-04-26T05:45:10.727Z</time></trkpt><trkpt lat="42.851905" lon="2.5662417"><ele>427.40000000000003</ele><time>2026-04-26T05:45:11.727Z</time></trkpt><trkpt lat="42.851905" lon="2.5661483"><ele>422.80000000000007</ele><time>2026-04-26T05:45:12.728Z</time></trkpt><trkpt lat="42.8519483" lon="2.5660117"><ele>418.2</ele><time>2026-04-26T05:45:14.729Z</time></trkpt><trkpt lat="42.8520567" lon="2.5660733"><ele>413.6</ele><time>2026-04-26T05:45:16.73Z</time></trkpt><trkpt lat="42.852065" lon="2.5661667"><ele>409.0</ele><time>2026-04-26T05:45:17.73Z</time></trkpt><trkpt lat="42.8520583" lon="2.566285"><ele>408.4</ele><time>2026-04-26T05:45:18.728Z</time></trkpt><trkpt lat="42.8520233" lon="2.5664083"><ele>407.79999999999995</ele><time>2026-04-26T05:45:19.729Z</time></trkpt><trkpt lat="42.8519783" lon="2.5665267"><ele>407.20000000000005</ele><time>2026-04-26T05:45:20.727Z</time></trkpt><trkpt lat="42.851945" lon="2.56664"><ele>406.6</ele><time>2026-04-26T05:45:21.727Z</time></trkpt><trkpt lat="42.851925" lon="2.5667617"><ele>406.0</ele><time>2026-04-26T05:45:22.729Z</time></trkpt><trkpt lat="42.8519317" lon="2.56688"><ele>406.0</ele><time>2026-04-26T05:45:23.728Z</time></trkpt><trkpt lat="42.8519683" lon="2.5670033"><ele>406.0</ele><time>2026-04-26T05:45:24.727Z</time></trkpt><trkpt lat="42.851985" lon="2.5671367"><ele>406.0</ele><time>2026-04-26T05:45:25.728Z</time></trkpt><trkpt lat="42.851985" lon="2.5672717"><ele>406.0</ele><time>2026-04-26T05:45:26.727Z</time></trkpt><trkpt lat="42.851975" lon="2.567405"><ele>406.0</ele><time>2026-04-26T05:45:27.728Z</time></trkpt><trkpt lat="42.8519567" lon="2.5675167"><ele>405.2857142857143</ele><time>2026-04-26T05:45:28.727Z</time></trkpt><trkpt lat="42.8519183" lon="2.5676117"><ele>404.57142857142856</ele><time>2026-04-26T05:45:29.728Z</time></trkpt><trkpt lat="42.85187" lon="2.56769"><ele>403.8571428571429</ele><time>2026-04-26T05:45:30.731Z</time></trkpt><trkpt lat="42.8518217" lon="2.5677633"><ele>403.1428571428571</ele><time>2026-04-26T05:45:31.727Z</time></trkpt><trkpt lat="42.8518067" lon="2.5678517"><ele>402.42857142857144</ele><time>2026-04-26T05:45:32.728Z</time></trkpt><trkpt lat="42.8518083" lon="2.5679467"><ele>401.7142857142857</ele><time>2026-04-26T05:45:33.728Z</time></trkpt><trkpt lat="42.8518317" lon="2.5680567"><ele>401.0</ele><time>2026-04-26T05:45:34.729Z</time></trkpt><trkpt lat="42.85189" lon="2.5681817"><ele>400.25</ele><time>2026-04-26T05:45:35.727Z</time></trkpt><trkpt lat="42.851965" lon="2.568325"><ele>399.5</ele><time>2026-04-26T05:45:36.728Z</time></trkpt><trkpt lat="42.85203" lon="2.5684617"><ele>398.75</ele><time>2026-04-26T05:45:37.728Z</time></trkpt><trkpt lat="42.8520933" lon="2.5685917"><ele>398.0</ele><time>2026-04-26T05:45:38.727Z</time></trkpt><trkpt lat="42.8521483" lon="2.5687117"><ele>397.49999999999994</ele><time>2026-04-26T05:45:39.728Z</time></trkpt><trkpt lat="42.85217" lon="2.5688183"><ele>397.0</ele><time>2026-04-26T05:45:40.728Z</time></trkpt><trkpt lat="42.8521783" lon="2.5689217"><ele>396.5</ele><time>2026-04-26T05:45:41.726Z</time></trkpt><trkpt lat="42.852165" lon="2.56902"><ele>396.0</ele><time>2026-04-26T05:45:42.727Z</time></trkpt><trkpt lat="42.85211" lon="2.56911"><ele>395.49999999999994</ele><time>2026-04-26T05:45:43.727Z</time></trkpt><trkpt lat="42.8520517" lon="2.5691933"><ele>395.0</ele><time>2026-04-26T05:45:44.727Z</time></trkpt><trkpt lat="42.8520033" lon="2.5692783"><ele>395.0</ele><time>2026-04-26T05:45:45.727Z</time></trkpt><trkpt lat="42.8519767" lon="2.56938"><ele>395.0</ele><time>2026-04-26T05:45:46.728Z</time></trkpt><trkpt lat="42.851975" lon="2.5694967"><ele>395.0</ele><time>2026-04-26T05:45:47.729Z</time></trkpt><trkpt lat="42.8519683" lon="2.5696217"><ele>395.0</ele><time>2026-04-26T05:45:48.728Z</time></trkpt><trkpt lat="42.8519467" lon="2.5697517"><ele>395.0</ele><time>2026-04-26T05:45:49.729Z</time></trkpt><trkpt lat="42.851895" lon="2.569875"><ele>394.0</ele><time>2026-04-26T05:45:50.728Z</time></trkpt><trkpt lat="42.851825" lon="2.569995"><ele>393.0</ele><time>2026-04-26T05:45:51.729Z</time></trkpt><trkpt lat="42.851745" lon="2.570115"><ele>392.0</ele><time>2026-04-26T05:45:52.727Z</time></trkpt><trkpt lat="42.8516633" lon="2.57024"><ele>391.0</ele><time>2026-04-26T05:45:53.728Z</time></trkpt><trkpt lat="42.8515933" lon="2.5703517"><ele>393.8</ele><time>2026-04-26T05:45:54.727Z</time></trkpt><trkpt lat="42.8515383" lon="2.5704617"><ele>396.6</ele><time>2026-04-26T05:45:55.728Z</time></trkpt><trkpt lat="42.8515083" lon="2.5705783"><ele>399.4</ele><time>2026-04-26T05:45:56.727Z</time></trkpt><trkpt lat="42.8515133" lon="2.5707133"><ele>402.2</ele><time>2026-04-26T05:45:57.727Z</time></trkpt><trkpt lat="42.8515467" lon="2.5708467"><ele>405.0</ele><time>2026-04-26T05:45:58.73Z</time></trkpt><trkpt lat="42.851595" lon="2.57099"><ele>405.0</ele><time>2026-04-26T05:45:59.727Z</time></trkpt><trkpt lat="42.8516583" lon="2.5711433"><ele>405.0</ele><time>2026-04-26T05:46:00.727Z</time></trkpt><trkpt lat="42.8517367" lon="2.5712933"><ele>405.0</ele><time>2026-04-26T05:46:01.729Z</time></trkpt><trkpt lat="42.8518183" lon="2.57143"><ele>405.0</ele><time>2026-04-26T05:46:02.728Z</time></trkpt><trkpt lat="42.8519017" lon="2.5715467"><ele>399.25</ele><time>2026-04-26T05:46:03.727Z</time></trkpt><trkpt lat="42.8519833" lon="2.571665"><ele>393.5</ele><time>2026-04-26T05:46:04.727Z</time></trkpt><trkpt lat="42.8520533" lon="2.5717917"><ele>387.75</ele><time>2026-04-26T05:46:05.727Z</time></trkpt><trkpt lat="42.8521067" lon="2.5719283"><ele>382.0</ele><time>2026-04-26T05:46:06.727Z</time></trkpt><trkpt lat="42.8521467" lon="2.5720683"><ele>381.40000000000003</ele><time>2026-04-26T05:46:07.727Z</time></trkpt><trkpt lat="42.8521733" lon="2.5722067"><ele>380.8</ele><time>2026-04-26T05:46:08.728Z</time></trkpt><trkpt lat="42.8521833" lon="2.5723333"><ele>380.2</ele><time>2026-04-26T05:46:09.728Z</time></trkpt><trkpt lat="42.8521733" lon="2.5724617"><ele>379.6</ele><time>2026-04-26T05:46:10.727Z</time></trkpt><trkpt lat="42.8521517" lon="2.5726017"><ele>379.0</ele><time>2026-04-26T05:46:11.726Z</time></trkpt><trkpt lat="42.852135" lon="2.572755"><ele>378.16666666666663</ele><time>2026-04-26T05:46:12.727Z</time></trkpt><trkpt lat="42.8521183" lon="2.57291"><ele>377.3333333333333</ele><time>2026-04-26T05:46:13.728Z</time></trkpt><trkpt lat="42.85209" lon="2.5730517"><ele>376.5</ele><time>2026-04-26T05:46:14.727Z</time></trkpt><trkpt lat="42.8520583" lon="2.5731583"><ele>375.6666666666667</ele><time>2026-04-26T05:46:15.729Z</time></trkpt><trkpt lat="42.8520267" lon="2.5732367"><ele>374.83333333333337</ele><time>2026-04-26T05:46:16.727Z</time></trkpt><trkpt lat="42.8519817" lon="2.5733017"><ele>374.0</ele><time>2026-04-26T05:46:18.728Z</time></trkpt><trkpt lat="42.8519133" lon="2.57332"><ele>374.0</ele><time>2026-04-26T05:46:21.728Z</time></trkpt><trkpt lat="42.85186" lon="2.57339"><ele>374.0</ele><time>2026-04-26T05:46:24.727Z</time></trkpt><trkpt lat="42.8518083" lon="2.57353"><ele>374.0</ele><time>2026-04-26T05:46:26.73Z</time></trkpt><trkpt lat="42.8517683" lon="2.573615"><ele>374.0</ele><time>2026-04-26T05:46:27.728Z</time></trkpt><trkpt lat="42.85173" lon="2.573705"><ele>374.0</ele><time>2026-04-26T05:46:28.728Z</time></trkpt><trkpt lat="42.8516983" lon="2.5738067"><ele>374.0</ele><time>2026-04-26T05:46:29.728Z</time></trkpt><trkpt lat="42.8516817" lon="2.5739267"><ele>373.0</ele><time>2026-04-26T05:46:30.727Z</time></trkpt><trkpt lat="42.851695" lon="2.574065"><ele>372.0</ele><time>2026-04-26T05:46:31.727Z</time></trkpt><trkpt lat="42.8517333" lon="2.5742"><ele>371.0</ele><time>2026-04-26T05:46:32.728Z</time></trkpt><trkpt lat="42.851775" lon="2.574315"><ele>370.0</ele><time>2026-04-26T05:46:33.727Z</time></trkpt><trkpt lat="42.851825" lon="2.57441"><ele>369.0</ele><time>2026-04-26T05:46:34.729Z</time></trkpt><trkpt lat="42.8518717" lon="2.5744917"><ele>369.1666666666667</ele><time>2026-04-26T05:46:35.727Z</time></trkpt><trkpt lat="42.8519067" lon="2.5746217"><ele>369.3333333333333</ele><time>2026-04-26T05:46:37.727Z</time></trkpt><trkpt lat="42.8519" lon="2.5747083"><ele>369.5</ele><time>2026-04-26T05:46:38.728Z</time></trkpt><trkpt lat="42.8518767" lon="2.5748133"><ele>369.66666666666663</ele><time>2026-04-26T05:46:39.728Z</time></trkpt><trkpt lat="42.851835" lon="2.5749233"><ele>369.8333333333333</ele><time>2026-04-26T05:46:40.728Z</time></trkpt><trkpt lat="42.8517933" lon="2.5750367"><ele>370.0</ele><time>2026-04-26T05:46:41.73Z</time></trkpt><trkpt lat="42.851755" lon="2.57515"><ele>374.8</ele><time>2026-04-26T05:46:42.727Z</time></trkpt><trkpt lat="42.8516933" lon="2.5752383"><ele>379.6</ele><time>2026-04-26T05:46:43.726Z</time></trkpt><trkpt lat="42.8516133" lon="2.575305"><ele>384.4</ele><time>2026-04-26T05:46:44.728Z</time></trkpt><trkpt lat="42.851525" lon="2.5753717"><ele>389.2</ele><time>2026-04-26T05:46:45.728Z</time></trkpt><trkpt lat="42.8514283" lon="2.5754583"><ele>394.0</ele><time>2026-04-26T05:46:46.728Z</time></trkpt><trkpt lat="42.851325" lon="2.575545"><ele>394.0</ele><time>2026-04-26T05:46:47.729Z</time></trkpt><trkpt lat="42.851225" lon="2.57562"><ele>394.0</ele><time>2026-04-26T05:46:48.73Z</time></trkpt><trkpt lat="42.851135" lon="2.5756867"><ele>394.0</ele><time>2026-04-26T05:46:49.727Z</time></trkpt><trkpt lat="42.8510567" lon="2.575755"><ele>394.0</ele><time>2026-04-26T05:46:50.73Z</time></trkpt><trkpt lat="42.851" lon="2.5758317"><ele>394.0</ele><time>2026-04-26T05:46:51.728Z</time></trkpt><trkpt lat="42.8509717" lon="2.5759233"><ele>394.0</ele><time>2026-04-26T05:46:52.727Z</time></trkpt><trkpt lat="42.8509783" lon="2.5760383"><ele>394.0</ele><time>2026-04-26T05:46:53.729Z</time></trkpt><trkpt lat="42.851005" lon="2.57617"><ele>394.0</ele><time>2026-04-26T05:46:54.728Z</time></trkpt><trkpt lat="42.85102" lon="2.5762983"><ele>394.0</ele><time>2026-04-26T05:46:55.727Z</time></trkpt><trkpt lat="42.8510133" lon="2.5764217"><ele>394.0</ele><time>2026-04-26T05:46:56.728Z</time></trkpt><trkpt lat="42.8509883" lon="2.576545"><ele>393.6</ele><time>2026-04-26T05:46:57.728Z</time></trkpt><trkpt lat="42.8509467" lon="2.57667"><ele>393.2</ele><time>2026-04-26T05:46:58.729Z</time></trkpt><trkpt lat="42.8508867" lon="2.5767983"><ele>392.8</ele><time>2026-04-26T05:46:59.728Z</time></trkpt><trkpt lat="42.8508133" lon="2.576915"><ele>392.40000000000003</ele><time>2026-04-26T05:47:00.728Z</time></trkpt><trkpt lat="42.85073" lon="2.5770317"><ele>392.0</ele><time>2026-04-26T05:47:01.727Z</time></trkpt><trkpt lat="42.8506483" lon="2.577145"><ele>391.99999999999994</ele><time>2026-04-26T05:47:02.728Z</time></trkpt><trkpt lat="42.8505767" lon="2.5772517"><ele>392.0</ele><time>2026-04-26T05:47:03.727Z</time></trkpt><trkpt lat="42.85051" lon="2.5773483"><ele>392.0</ele><time>2026-04-26T05:47:04.727Z</time></trkpt><trkpt lat="42.8504417" lon="2.5774283"><ele>392.0</ele><time>2026-04-26T05:47:05.728Z</time></trkpt><trkpt lat="42.850375" lon="2.5774867"><ele>391.99999999999994</ele><time>2026-04-26T05:47:06.727Z</time></trkpt><trkpt lat="42.850305" lon="2.5775167"><ele>392.0</ele><time>2026-04-26T05:47:07.726Z</time></trkpt><trkpt lat="42.8502183" lon="2.57752"><ele>391.99999999999994</ele><time>2026-04-26T05:47:08.727Z</time></trkpt><trkpt lat="42.8501283" lon="2.577535"><ele>392.0</ele><time>2026-04-26T05:47:09.726Z</time></trkpt><trkpt lat="42.85005" lon="2.57758"><ele>392.0</ele><time>2026-04-26T05:47:10.727Z</time></trkpt><trkpt lat="42.8499883" lon="2.577655"><ele>392.0</ele><time>2026-04-26T05:47:11.729Z</time></trkpt><trkpt lat="42.849935" lon="2.5777583"><ele>391.99999999999994</ele><time>2026-04-26T05:47:12.727Z</time></trkpt><trkpt lat="42.849895" lon="2.5778767"><ele>392.0</ele><time>2026-04-26T05:47:13.726Z</time></trkpt><trkpt lat="42.8498383" lon="2.577995"><ele>392.8</ele><time>2026-04-26T05:47:14.728Z</time></trkpt><trkpt lat="42.849775" lon="2.578125"><ele>393.6</ele><time>2026-04-26T05:47:15.728Z</time></trkpt><trkpt lat="42.8497117" lon="2.5782617"><ele>394.40000000000003</ele><time>2026-04-26T05:47:16.728Z</time></trkpt><trkpt lat="42.8496467" lon="2.5783833"><ele>395.20000000000005</ele><time>2026-04-26T05:47:17.728Z</time></trkpt><trkpt lat="42.8495717" lon="2.5784817"><ele>396.0</ele><time>2026-04-26T05:47:18.73Z</time></trkpt><trkpt lat="42.8494983" lon="2.5785733"><ele>396.0</ele><time>2026-04-26T05:47:19.729Z</time></trkpt><trkpt lat="42.84943" lon="2.5786683"><ele>396.0</ele><time>2026-04-26T05:47:20.728Z</time></trkpt><trkpt lat="42.8493783" lon="2.5787783"><ele>396.0</ele><time>2026-04-26T05:47:21.729Z</time></trkpt><trkpt lat="42.8493583" lon="2.5789117"><ele>396.0</ele><time>2026-04-26T05:47:22.728Z</time></trkpt><trkpt lat="42.8493417" lon="2.5790617"><ele>396.0</ele><time>2026-04-26T05:47:23.727Z</time></trkpt><trkpt lat="42.84932" lon="2.5792183"><ele>397.0</ele><time>2026-04-26T05:47:24.727Z</time></trkpt><trkpt lat="42.849295" lon="2.57936"><ele>398.0</ele><time>2026-04-26T05:47:25.727Z</time></trkpt><trkpt lat="42.8492533" lon="2.5794833"><ele>399.0</ele><time>2026-04-26T05:47:26.732Z</time></trkpt><trkpt lat="42.8492017" lon="2.5795983"><ele>400.0</ele><time>2026-04-26T05:47:27.728Z</time></trkpt><trkpt lat="42.849145" lon="2.5797"><ele>401.0</ele><time>2026-04-26T05:47:28.728Z</time></trkpt><trkpt lat="42.8490867" lon="2.5797733"><ele>400.99999999999994</ele><time>2026-04-26T05:47:29.728Z</time></trkpt><trkpt lat="42.8490233" lon="2.5798183"><ele>401.0</ele><time>2026-04-26T05:47:30.728Z</time></trkpt><trkpt lat="42.8489533" lon="2.5798383"><ele>401.0</ele><time>2026-04-26T05:47:31.73Z</time></trkpt><trkpt lat="42.8488617" lon="2.57984"><ele>401.0</ele><time>2026-04-26T05:47:32.727Z</time></trkpt><trkpt lat="42.8487633" lon="2.5798467"><ele>400.99999999999994</ele><time>2026-04-26T05:47:33.726Z</time></trkpt><trkpt lat="42.8486733" lon="2.57986"><ele>401.0</ele><time>2026-04-26T05:47:34.731Z</time></trkpt><trkpt lat="42.84859" lon="2.5798817"><ele>401.0</ele><time>2026-04-26T05:47:35.727Z</time></trkpt><trkpt lat="42.848545" lon="2.5799467"><ele>401.0</ele><time>2026-04-26T05:47:36.73Z</time></trkpt><trkpt lat="42.8485017" lon="2.5801117"><ele>401.0</ele><time>2026-04-26T05:47:38.727Z</time></trkpt><trkpt lat="42.84847" lon="2.5802617"><ele>401.0</ele><time>2026-04-26T05:47:39.73Z</time></trkpt><trkpt lat="42.8484367" lon="2.5804067"><ele>401.0</ele><time>2026-04-26T05:47:40.727Z</time></trkpt><trkpt lat="42.8483933" lon="2.5805683"><ele>403.6</ele><time>2026-04-26T05:47:41.729Z</time></trkpt><trkpt lat="42.84835" lon="2.5807183"><ele>406.20000000000005</ele><time>2026-04-26T05:47:42.728Z</time></trkpt><trkpt lat="42.8483333" lon="2.580835"><ele>408.79999999999995</ele><time>2026-04-26T05:47:43.727Z</time></trkpt><trkpt lat="42.8483683" lon="2.5809483"><ele>411.4</ele><time>2026-04-26T05:47:44.728Z</time></trkpt><trkpt lat="42.848425" lon="2.58106"><ele>414.0</ele><time>2026-04-26T05:47:45.727Z</time></trkpt><trkpt lat="42.848495" lon="2.5811417"><ele>413.1666666666667</ele><time>2026-04-26T05:47:46.727Z</time></trkpt><trkpt lat="42.8485533" lon="2.5812183"><ele>412.33333333333337</ele><time>2026-04-26T05:47:47.728Z</time></trkpt><trkpt lat="42.848595" lon="2.5812967"><ele>411.5</ele><time>2026-04-26T05:47:48.728Z</time></trkpt><trkpt lat="42.8485883" lon="2.5814383"><ele>410.6666666666667</ele><time>2026-04-26T05:47:50.727Z</time></trkpt><trkpt lat="42.84853" lon="2.5815117"><ele>409.83333333333337</ele><time>2026-04-26T05:47:51.729Z</time></trkpt><trkpt lat="42.8484567" lon="2.58159"><ele>409.0</ele><time>2026-04-26T05:47:52.726Z</time></trkpt><trkpt lat="42.8483767" lon="2.5816633"><ele>409.0</ele><time>2026-04-26T05:47:53.727Z</time></trkpt><trkpt lat="42.8482817" lon="2.581725"><ele>409.0</ele><time>2026-04-26T05:47:54.727Z</time></trkpt><trkpt lat="42.8481817" lon="2.5817667"><ele>409.0</ele><time>2026-04-26T05:47:55.727Z</time></trkpt><trkpt lat="42.848085" lon="2.581805"><ele>409.0</ele><time>2026-04-26T05:47:56.728Z</time></trkpt><trkpt lat="42.847995" lon="2.5818583"><ele>409.0</ele><time>2026-04-26T05:47:57.727Z</time></trkpt><trkpt lat="42.8479233" lon="2.5819517"><ele>410.2</ele><time>2026-04-26T05:47:58.726Z</time></trkpt><trkpt lat="42.847865" lon="2.5820717"><ele>411.4</ele><time>2026-04-26T05:47:59.727Z</time></trkpt><trkpt lat="42.847815" lon="2.5822033"><ele>412.6</ele><time>2026-04-26T05:48:00.726Z</time></trkpt><trkpt lat="42.8477517" lon="2.5823317"><ele>413.8</ele><time>2026-04-26T05:48:01.728Z</time></trkpt><trkpt lat="42.8476683" lon="2.58244"><ele>415.0</ele><time>2026-04-26T05:48:02.728Z</time></trkpt><trkpt lat="42.8475683" lon="2.5825317"><ele>415.0</ele><time>2026-04-26T05:48:03.728Z</time></trkpt><trkpt lat="42.84747" lon="2.5825967"><ele>415.0</ele><time>2026-04-26T05:48:04.727Z</time></trkpt><trkpt lat="42.84739" lon="2.58266"><ele>415.0</ele><time>2026-04-26T05:48:05.732Z</time></trkpt><trkpt lat="42.8473267" lon="2.5827367"><ele>415.0</ele><time>2026-04-26T05:48:06.728Z</time></trkpt><trkpt lat="42.8472883" lon="2.5828367"><ele>415.0</ele><time>2026-04-26T05:48:07.727Z</time></trkpt><trkpt lat="42.84728" lon="2.58297"><ele>414.0</ele><time>2026-04-26T05:48:08.729Z</time></trkpt><trkpt lat="42.8472733" lon="2.58313"><ele>413.0</ele><time>2026-04-26T05:48:09.726Z</time></trkpt><trkpt lat="42.84726" lon="2.5832883"><ele>412.0</ele><time>2026-04-26T05:48:10.728Z</time></trkpt><trkpt lat="42.8472433" lon="2.58344"><ele>411.0</ele><time>2026-04-26T05:48:11.727Z</time></trkpt><trkpt lat="42.8472133" lon="2.5835817"><ele>410.8</ele><time>2026-04-26T05:48:12.727Z</time></trkpt><trkpt lat="42.8471717" lon="2.5837133"><ele>410.6</ele><time>2026-04-26T05:48:13.727Z</time></trkpt><trkpt lat="42.84714" lon="2.5838367"><ele>410.4</ele><time>2026-04-26T05:48:14.727Z</time></trkpt><trkpt lat="42.8471167" lon="2.5839583"><ele>410.2</ele><time>2026-04-26T05:48:15.729Z</time></trkpt><trkpt lat="42.8471417" lon="2.5840983"><ele>410.0</ele><time>2026-04-26T05:48:16.727Z</time></trkpt><trkpt lat="42.8471867" lon="2.58424"><ele>410.0</ele><time>2026-04-26T05:48:17.729Z</time></trkpt><trkpt lat="42.8472517" lon="2.5843717"><ele>410.0</ele><time>2026-04-26T05:48:18.727Z</time></trkpt><trkpt lat="42.847335" lon="2.5844917"><ele>410.0</ele><time>2026-04-26T05:48:19.727Z</time></trkpt><trkpt lat="42.847415" lon="2.5845967"><ele>410.0</ele><time>2026-04-26T05:48:20.728Z</time></trkpt><trkpt lat="42.847475" lon="2.5847017"><ele>410.0</ele><time>2026-04-26T05:48:21.728Z</time></trkpt><trkpt lat="42.8475233" lon="2.5848133"><ele>410.66666666666663</ele><time>2026-04-26T05:48:22.73Z</time></trkpt><trkpt lat="42.8475483" lon="2.5849217"><ele>411.3333333333333</ele><time>2026-04-26T05:48:23.727Z</time></trkpt><trkpt lat="42.8475367" lon="2.5850217"><ele>412.0</ele><time>2026-04-26T05:48:24.726Z</time></trkpt><trkpt lat="42.847505" lon="2.5851167"><ele>412.66666666666663</ele><time>2026-04-26T05:48:25.729Z</time></trkpt><trkpt lat="42.8474483" lon="2.5852"><ele>413.3333333333333</ele><time>2026-04-26T05:48:26.727Z</time></trkpt><trkpt lat="42.8473633" lon="2.585275"><ele>414.0</ele><time>2026-04-26T05:48:27.727Z</time></trkpt><trkpt lat="42.8472633" lon="2.5853533"><ele>412.0</ele><time>2026-04-26T05:48:28.727Z</time></trkpt><trkpt lat="42.8471733" lon="2.5854517"><ele>410.0</ele><time>2026-04-26T05:48:29.728Z</time></trkpt><trkpt lat="42.8470983" lon="2.585575"><ele>408.0</ele><time>2026-04-26T05:48:30.727Z</time></trkpt><trkpt lat="42.8470383" lon="2.5856983"><ele>406.0</ele><time>2026-04-26T05:48:31.728Z</time></trkpt><trkpt lat="42.8469783" lon="2.58582"><ele>404.0</ele><time>2026-04-26T05:48:32.727Z</time></trkpt><trkpt lat="42.8468917" lon="2.585915"><ele>409.0</ele><time>2026-04-26T05:48:33.727Z</time></trkpt><trkpt lat="42.846785" lon="2.5859917"><ele>414.0</ele><time>2026-04-26T05:48:34.727Z</time></trkpt><trkpt lat="42.84667" lon="2.5860583"><ele>419.0</ele><time>2026-04-26T05:48:35.727Z</time></trkpt><trkpt lat="42.8465567" lon="2.586105"><ele>424.0</ele><time>2026-04-26T05:48:36.727Z</time></trkpt><trkpt lat="42.8464433" lon="2.5861417"><ele>420.0</ele><time>2026-04-26T05:48:37.727Z</time></trkpt><trkpt lat="42.8463417" lon="2.586195"><ele>416.0</ele><time>2026-04-26T05:48:38.726Z</time></trkpt><trkpt lat="42.8462533" lon="2.5862767"><ele>412.0</ele><time>2026-04-26T05:48:39.728Z</time></trkpt><trkpt lat="42.8461783" lon="2.5863917"><ele>408.0</ele><time>2026-04-26T05:48:40.729Z</time></trkpt><trkpt lat="42.84611" lon="2.5865167"><ele>404.0</ele><time>2026-04-26T05:48:41.728Z</time></trkpt><trkpt lat="42.8460333" lon="2.5866217"><ele>408.75</ele><time>2026-04-26T05:48:42.727Z</time></trkpt><trkpt lat="42.8459417" lon="2.5867133"><ele>413.5</ele><time>2026-04-26T05:48:43.727Z</time></trkpt><trkpt lat="42.8458367" lon="2.5868"><ele>418.25</ele><time>2026-04-26T05:48:44.728Z</time></trkpt><trkpt lat="42.84572" lon="2.5868667"><ele>423.0</ele><time>2026-04-26T05:48:45.728Z</time></trkpt><trkpt lat="42.8455983" lon="2.5869383"><ele>417.75</ele><time>2026-04-26T05:48:46.728Z</time></trkpt><trkpt lat="42.84548" lon="2.587025"><ele>412.5</ele><time>2026-04-26T05:48:47.73Z</time></trkpt><trkpt lat="42.8453667" lon="2.587115"><ele>407.25</ele><time>2026-04-26T05:48:48.731Z</time></trkpt><trkpt lat="42.8452733" lon="2.5872183"><ele>402.0</ele><time>2026-04-26T05:48:49.731Z</time></trkpt><trkpt lat="42.845175" lon="2.5872967"><ele>407.0</ele><time>2026-04-26T05:48:50.732Z</time></trkpt><trkpt lat="42.8450733" lon="2.58737"><ele>412.0</ele><time>2026-04-26T05:48:51.735Z</time></trkpt><trkpt lat="42.84498" lon="2.5874567"><ele>417.0</ele><time>2026-04-26T05:48:52.729Z</time></trkpt><trkpt lat="42.8449067" lon="2.58757"><ele>422.0</ele><time>2026-04-26T05:48:53.731Z</time></trkpt><trkpt lat="42.844855" lon="2.5877067"><ele>418.75</ele><time>2026-04-26T05:48:54.728Z</time></trkpt><trkpt lat="42.8448133" lon="2.58787"><ele>415.5</ele><time>2026-04-26T05:48:55.728Z</time></trkpt><trkpt lat="42.8447683" lon="2.5880417"><ele>412.25</ele><time>2026-04-26T05:48:56.729Z</time></trkpt><trkpt lat="42.8447133" lon="2.5882"><ele>409.0</ele><time>2026-04-26T05:48:57.729Z</time></trkpt><trkpt lat="42.844655" lon="2.5883533"><ele>409.0</ele><time>2026-04-26T05:48:58.729Z</time></trkpt><trkpt lat="42.8446117" lon="2.5885217"><ele>409.0</ele><time>2026-04-26T05:48:59.728Z</time></trkpt><trkpt lat="42.8445983" lon="2.5887"><ele>409.0</ele><time>2026-04-26T05:49:00.728Z</time></trkpt><trkpt lat="42.8445967" lon="2.5888667"><ele>409.0</ele><time>2026-04-26T05:49:01.729Z</time></trkpt><trkpt lat="42.8445933" lon="2.5890183"><ele>407.25</ele><time>2026-04-26T05:49:02.729Z</time></trkpt><trkpt lat="42.844565" lon="2.5891617"><ele>405.5</ele><time>2026-04-26T05:49:03.73Z</time></trkpt><trkpt lat="42.8445217" lon="2.5893117"><ele>403.75</ele><time>2026-04-26T05:49:04.729Z</time></trkpt><trkpt lat="42.8444783" lon="2.5894733"><ele>402.0</ele><time>2026-04-26T05:49:05.73Z</time></trkpt><trkpt lat="42.8444533" lon="2.5896533"><ele>401.25</ele><time>2026-04-26T05:49:06.728Z</time></trkpt><trkpt lat="42.8444417" lon="2.5898333"><ele>400.5</ele><time>2026-04-26T05:49:07.728Z</time></trkpt><trkpt lat="42.844425" lon="2.590005"><ele>399.75</ele><time>2026-04-26T05:49:08.729Z</time></trkpt><trkpt lat="42.8443983" lon="2.5901667"><ele>399.0</ele><time>2026-04-26T05:49:09.728Z</time></trkpt><trkpt lat="42.84438" lon="2.5903167"><ele>398.79999999999995</ele><time>2026-04-26T05:49:10.728Z</time></trkpt><trkpt lat="42.8443683" lon="2.5904567"><ele>398.59999999999997</ele><time>2026-04-26T05:49:11.727Z</time></trkpt><trkpt lat="42.8443567" lon="2.590565"><ele>398.4</ele><time>2026-04-26T05:49:12.728Z</time></trkpt><trkpt lat="42.8443183" lon="2.5907067"><ele>398.2</ele><time>2026-04-26T05:49:14.729Z</time></trkpt><trkpt lat="42.8443" lon="2.5908033"><ele>398.0</ele><time>2026-04-26T05:49:16.731Z</time></trkpt><trkpt lat="42.8443317" lon="2.5906983"><ele>398.0</ele><time>2026-04-26T05:49:24.728Z</time></trkpt><trkpt lat="42.8443833" lon="2.5905167"><ele>398.0</ele><time>2026-04-26T05:49:26.728Z</time></trkpt><trkpt lat="42.844395" lon="2.5903817"><ele>398.0</ele><time>2026-04-26T05:49:27.727Z</time></trkpt><trkpt lat="42.84441" lon="2.5902317"><ele>398.0</ele><time>2026-04-26T05:49:28.73Z</time></trkpt><trkpt lat="42.8444367" lon="2.5900717"><ele>398.25</ele><time>2026-04-26T05:49:29.729Z</time></trkpt><trkpt lat="42.8444583" lon="2.5898933"><ele>398.5</ele><time>2026-04-26T05:49:30.729Z</time></trkpt><trkpt lat="42.8444667" lon="2.5897167"><ele>398.75</ele><time>2026-04-26T05:49:31.729Z</time></trkpt><trkpt lat="42.844475" lon="2.58955"><ele>399.0</ele><time>2026-04-26T05:49:32.729Z</time></trkpt><trkpt lat="42.8444983" lon="2.589395"><ele>399.6</ele><time>2026-04-26T05:49:33.729Z</time></trkpt><trkpt lat="42.8445333" lon="2.5892483"><ele>400.2</ele><time>2026-04-26T05:49:34.729Z</time></trkpt><trkpt lat="42.8445733" lon="2.5891083"><ele>400.8</ele><time>2026-04-26T05:49:35.728Z</time></trkpt><trkpt lat="42.8446033" lon="2.588975"><ele>401.40000000000003</ele><time>2026-04-26T05:49:36.729Z</time></trkpt><trkpt lat="42.8446167" lon="2.588835"><ele>402.0</ele><time>2026-04-26T05:49:37.73Z</time></trkpt><trkpt lat="42.8446233" lon="2.588695"><ele>403.40000000000003</ele><time>2026-04-26T05:49:38.73Z</time></trkpt><trkpt lat="42.8446367" lon="2.5885583"><ele>404.8</ele><time>2026-04-26T05:49:39.729Z</time></trkpt><trkpt lat="42.8446567" lon="2.58842"><ele>406.2</ele><time>2026-04-26T05:49:40.728Z</time></trkpt><trkpt lat="42.8446883" lon="2.5882933"><ele>407.6</ele><time>2026-04-26T05:49:41.728Z</time></trkpt><trkpt lat="42.844725" lon="2.5881717"><ele>409.0</ele><time>2026-04-26T05:49:42.73Z</time></trkpt><trkpt lat="42.8447683" lon="2.5880517"><ele>409.0</ele><time>2026-04-26T05:49:43.729Z</time></trkpt><trkpt lat="42.8448067" lon="2.5879183"><ele>409.0</ele><time>2026-04-26T05:49:44.73Z</time></trkpt><trkpt lat="42.8448417" lon="2.5877883"><ele>409.0</ele><time>2026-04-26T05:49:45.732Z</time></trkpt><trkpt lat="42.8448717" lon="2.5876583"><ele>409.0</ele><time>2026-04-26T05:49:46.73Z</time></trkpt><trkpt lat="42.8449" lon="2.587565"><ele>409.0</ele><time>2026-04-26T05:49:47.728Z</time></trkpt><trkpt lat="42.8449283" lon="2.5874717"><ele>409.00000000000006</ele><time>2026-04-26T05:49:49.728Z</time></trkpt><trkpt lat="42.8448733" lon="2.5875667"><ele>409.0</ele><time>2026-04-26T05:50:04.729Z</time></trkpt><trkpt lat="42.84496" lon="2.58757"><ele>409.0</ele><time>2026-04-26T05:50:09.73Z</time></trkpt><trkpt lat="42.8450367" lon="2.5875333"><ele>409.0</ele><time>2026-04-26T05:50:11.732Z</time></trkpt><trkpt lat="42.8450567" lon="2.58767"><ele>409.00000000000006</ele><time>2026-04-26T05:50:13.729Z</time></trkpt><trkpt lat="42.8450333" lon="2.5877767"><ele>409.0</ele><time>2026-04-26T05:50:14.728Z</time></trkpt><trkpt lat="42.845005" lon="2.5879083"><ele>409.0</ele><time>2026-04-26T05:50:15.729Z</time></trkpt><trkpt lat="42.84498" lon="2.5880583"><ele>409.0</ele><time>2026-04-26T05:50:16.732Z</time></trkpt><trkpt lat="42.8449567" lon="2.58822"><ele>409.0</ele><time>2026-04-26T05:50:17.727Z</time></trkpt><trkpt lat="42.8449417" lon="2.588375"><ele>409.0</ele><time>2026-04-26T05:50:18.729Z</time></trkpt><trkpt lat="42.8449333" lon="2.5885183"><ele>409.0</ele><time>2026-04-26T05:50:19.727Z</time></trkpt><trkpt lat="42.844935" lon="2.58865"><ele>409.0</ele><time>2026-04-26T05:50:20.728Z</time></trkpt><trkpt lat="42.844935" lon="2.5887733"><ele>409.0</ele><time>2026-04-26T05:50:21.729Z</time></trkpt><trkpt lat="42.8449283" lon="2.588895"><ele>409.0</ele><time>2026-04-26T05:50:22.728Z</time></trkpt><trkpt lat="42.8449017" lon="2.589015"><ele>409.0</ele><time>2026-04-26T05:50:23.727Z</time></trkpt><trkpt lat="42.84488" lon="2.589135"><ele>407.83333333333337</ele><time>2026-04-26T05:50:24.728Z</time></trkpt><trkpt lat="42.8448683" lon="2.58925"><ele>406.6666666666667</ele><time>2026-04-26T05:50:25.727Z</time></trkpt><trkpt lat="42.8448717" lon="2.589365"><ele>405.5</ele><time>2026-04-26T05:50:26.729Z</time></trkpt><trkpt lat="42.8448883" lon="2.5894783"><ele>404.33333333333337</ele><time>2026-04-26T05:50:27.729Z</time></trkpt><trkpt lat="42.8449033" lon="2.589585"><ele>403.1666666666667</ele><time>2026-04-26T05:50:28.728Z</time></trkpt><trkpt lat="42.8449233" lon="2.5896717"><ele>402.0</ele><time>2026-04-26T05:50:29.727Z</time></trkpt><trkpt lat="42.8449617" lon="2.589765"><ele>401.5</ele><time>2026-04-26T05:50:31.73Z</time></trkpt><trkpt lat="42.8450333" lon="2.5897133"><ele>401.0</ele><time>2026-04-26T05:50:33.729Z</time></trkpt><trkpt lat="42.8450783" lon="2.5896333"><ele>400.5</ele><time>2026-04-26T05:50:34.729Z</time></trkpt><trkpt lat="42.8451217" lon="2.5895383"><ele>400.0</ele><time>2026-04-26T05:50:35.727Z</time></trkpt><trkpt lat="42.8451633" lon="2.58943"><ele>399.5</ele><time>2026-04-26T05:50:36.728Z</time></trkpt><trkpt lat="42.8452083" lon="2.5893517"><ele>399.0</ele><time>2026-04-26T05:50:37.728Z</time></trkpt><trkpt lat="42.8452583" lon="2.5892983"><ele>394.6</ele><time>2026-04-26T05:50:38.729Z</time></trkpt><trkpt lat="42.8453667" lon="2.5893267"><ele>390.2</ele><time>2026-04-26T05:50:40.729Z</time></trkpt><trkpt lat="42.8454117" lon="2.5894083"><ele>385.8</ele><time>2026-04-26T05:50:41.728Z</time></trkpt><trkpt lat="42.8454483" lon="2.5895067"><ele>381.40000000000003</ele><time>2026-04-26T05:50:42.728Z</time></trkpt><trkpt lat="42.845475" lon="2.5896183"><ele>377.0</ele><time>2026-04-26T05:50:43.728Z</time></trkpt><trkpt lat="42.8454967" lon="2.5897483"><ele>376.40000000000003</ele><time>2026-04-26T05:50:44.728Z</time></trkpt><trkpt lat="42.845515" lon="2.589885"><ele>375.8</ele><time>2026-04-26T05:50:45.727Z</time></trkpt><trkpt lat="42.8455333" lon="2.5900167"><ele>375.2</ele><time>2026-04-26T05:50:46.729Z</time></trkpt><trkpt lat="42.8455583" lon="2.5901517"><ele>374.6</ele><time>2026-04-26T05:50:47.73Z</time></trkpt><trkpt lat="42.845585" lon="2.590295"><ele>374.0</ele><time>2026-04-26T05:50:48.728Z</time></trkpt><trkpt lat="42.845605" lon="2.5904333"><ele>373.0</ele><time>2026-04-26T05:50:49.729Z</time></trkpt><trkpt lat="42.8456283" lon="2.59057"><ele>372.0</ele><time>2026-04-26T05:50:50.732Z</time></trkpt><trkpt lat="42.8456583" lon="2.5907067"><ele>371.0</ele><time>2026-04-26T05:50:51.727Z</time></trkpt><trkpt lat="42.84569" lon="2.5908417"><ele>370.0</ele><time>2026-04-26T05:50:52.727Z</time></trkpt><trkpt lat="42.84572" lon="2.590975"><ele>369.0</ele><time>2026-04-26T05:50:53.728Z</time></trkpt><trkpt lat="42.845745" lon="2.5911083"><ele>368.4</ele><time>2026-04-26T05:50:54.727Z</time></trkpt><trkpt lat="42.8457733" lon="2.5912533"><ele>367.79999999999995</ele><time>2026-04-26T05:50:55.729Z</time></trkpt><trkpt lat="42.8457783" lon="2.5913983"><ele>367.20000000000005</ele><time>2026-04-26T05:50:56.729Z</time></trkpt><trkpt lat="42.8457733" lon="2.5915367"><ele>366.6</ele><time>2026-04-26T05:50:57.729Z</time></trkpt><trkpt lat="42.8457817" lon="2.5916767"><ele>366.0</ele><time>2026-04-26T05:50:58.729Z</time></trkpt><trkpt lat="42.8458067" lon="2.5918067"><ele>366.0</ele><time>2026-04-26T05:50:59.729Z</time></trkpt><trkpt lat="42.845835" lon="2.5919217"><ele>366.0</ele><time>2026-04-26T05:51:00.727Z</time></trkpt><trkpt lat="42.845855" lon="2.592045"><ele>366.0</ele><time>2026-04-26T05:51:01.727Z</time></trkpt><trkpt lat="42.8458533" lon="2.5921783"><ele>366.0</ele><time>2026-04-26T05:51:02.729Z</time></trkpt><trkpt lat="42.8458567" lon="2.5923167"><ele>366.0</ele><time>2026-04-26T05:51:03.728Z</time></trkpt><trkpt lat="42.8458617" lon="2.5924433"><ele>365.4</ele><time>2026-04-26T05:51:04.729Z</time></trkpt><trkpt lat="42.8458683" lon="2.5925583"><ele>364.8</ele><time>2026-04-26T05:51:05.729Z</time></trkpt><trkpt lat="42.84587" lon="2.5926783"><ele>364.2</ele><time>2026-04-26T05:51:06.732Z</time></trkpt><trkpt lat="42.8458533" lon="2.5928083"><ele>363.59999999999997</ele><time>2026-04-26T05:51:07.729Z</time></trkpt><trkpt lat="42.84583" lon="2.5929483"><ele>363.0</ele><time>2026-04-26T05:51:08.73Z</time></trkpt><trkpt lat="42.8457983" lon="2.5930883"><ele>362.2</ele><time>2026-04-26T05:51:09.728Z</time></trkpt><trkpt lat="42.8457667" lon="2.5932167"><ele>361.4</ele><time>2026-04-26T05:51:10.729Z</time></trkpt><trkpt lat="42.84573" lon="2.59334"><ele>360.59999999999997</ele><time>2026-04-26T05:51:11.727Z</time></trkpt><trkpt lat="42.8456683" lon="2.59346"><ele>359.79999999999995</ele><time>2026-04-26T05:51:12.729Z</time></trkpt><trkpt lat="42.84559" lon="2.593575"><ele>359.0</ele><time>2026-04-26T05:51:13.728Z</time></trkpt><trkpt lat="42.8455033" lon="2.5936933"><ele>357.79999999999995</ele><time>2026-04-26T05:51:14.728Z</time></trkpt><trkpt lat="42.84542" lon="2.5938083"><ele>356.59999999999997</ele><time>2026-04-26T05:51:15.732Z</time></trkpt><trkpt lat="42.845345" lon="2.5939117"><ele>355.4</ele><time>2026-04-26T05:51:16.727Z</time></trkpt><trkpt lat="42.84528" lon="2.5939967"><ele>354.2</ele><time>2026-04-26T05:51:17.728Z</time></trkpt><trkpt lat="42.8452317" lon="2.5940667"><ele>353.0</ele><time>2026-04-26T05:51:18.728Z</time></trkpt><trkpt lat="42.8452133" lon="2.594185"><ele>353.0</ele><time>2026-04-26T05:51:20.729Z</time></trkpt><trkpt lat="42.84529" lon="2.5943167"><ele>353.0</ele><time>2026-04-26T05:51:22.728Z</time></trkpt><trkpt lat="42.8453567" lon="2.59437"><ele>353.0</ele><time>2026-04-26T05:51:23.729Z</time></trkpt><trkpt lat="42.845435" lon="2.5943933"><ele>353.0</ele><time>2026-04-26T05:51:24.729Z</time></trkpt><trkpt lat="42.8455033" lon="2.594395"><ele>353.0</ele><time>2026-04-26T05:51:25.734Z</time></trkpt><trkpt lat="42.845605" lon="2.5944"><ele>353.0</ele><time>2026-04-26T05:51:27.731Z</time></trkpt><trkpt lat="42.8456933" lon="2.5944583"><ele>353.0</ele><time>2026-04-26T05:51:29.728Z</time></trkpt><trkpt lat="42.8457517" lon="2.5944983"><ele>353.0</ele><time>2026-04-26T05:51:30.729Z</time></trkpt><trkpt lat="42.8458283" lon="2.594545"><ele>353.0</ele><time>2026-04-26T05:51:31.729Z</time></trkpt><trkpt lat="42.8459183" lon="2.5945867"><ele>353.0</ele><time>2026-04-26T05:51:32.729Z</time></trkpt><trkpt lat="42.8460067" lon="2.5946267"><ele>353.0</ele><time>2026-04-26T05:51:33.73Z</time></trkpt><trkpt lat="42.8460917" lon="2.594675"><ele>350.5</ele><time>2026-04-26T05:51:34.727Z</time></trkpt><trkpt lat="42.8461633" lon="2.59474"><ele>348.0</ele><time>2026-04-26T05:51:35.729Z</time></trkpt><trkpt lat="42.8462217" lon="2.5948133"><ele>345.5</ele><time>2026-04-26T05:51:36.727Z</time></trkpt><trkpt lat="42.8462817" lon="2.5948833"><ele>343.0</ele><time>2026-04-26T05:51:37.729Z</time></trkpt><trkpt lat="42.8463467" lon="2.59493"><ele>340.5</ele><time>2026-04-26T05:51:38.728Z</time></trkpt><trkpt lat="42.8464183" lon="2.594955"><ele>338.0</ele><time>2026-04-26T05:51:39.728Z</time></trkpt><trkpt lat="42.8465083" lon="2.5949533"><ele>338.0</ele><time>2026-04-26T05:51:40.728Z</time></trkpt><trkpt lat="42.8466133" lon="2.5949383"><ele>338.0</ele><time>2026-04-26T05:51:41.731Z</time></trkpt><trkpt lat="42.84672" lon="2.594935"><ele>338.0</ele><time>2026-04-26T05:51:42.729Z</time></trkpt><trkpt lat="42.846825" lon="2.5949267"><ele>338.0</ele><time>2026-04-26T05:51:43.728Z</time></trkpt><trkpt lat="42.8469267" lon="2.5949"><ele>338.0</ele><time>2026-04-26T05:51:44.728Z</time></trkpt><trkpt lat="42.847015" lon="2.59486"><ele>336.0</ele><time>2026-04-26T05:51:45.728Z</time></trkpt><trkpt lat="42.8470883" lon="2.594805"><ele>334.0</ele><time>2026-04-26T05:51:46.728Z</time></trkpt><trkpt lat="42.8471517" lon="2.5947467"><ele>332.0</ele><time>2026-04-26T05:51:47.729Z</time></trkpt><trkpt lat="42.8472133" lon="2.5946983"><ele>330.0</ele><time>2026-04-26T05:51:48.729Z</time></trkpt><trkpt lat="42.8472767" lon="2.5946633"><ele>328.0</ele><time>2026-04-26T05:51:49.729Z</time></trkpt><trkpt lat="42.8473433" lon="2.59464"><ele>326.0</ele><time>2026-04-26T05:51:50.728Z</time></trkpt><trkpt lat="42.8474233" lon="2.5946433"><ele>324.0</ele><time>2026-04-26T05:51:51.732Z</time></trkpt><trkpt lat="42.8475183" lon="2.5946617"><ele>322.59999999999997</ele><time>2026-04-26T05:51:52.728Z</time></trkpt><trkpt lat="42.8476367" lon="2.5946833"><ele>321.2</ele><time>2026-04-26T05:51:53.734Z</time></trkpt><trkpt lat="42.8477483" lon="2.5946983"><ele>319.79999999999995</ele><time>2026-04-26T05:51:54.729Z</time></trkpt><trkpt lat="42.8478533" lon="2.5947233"><ele>318.4</ele><time>2026-04-26T05:51:55.73Z</time></trkpt><trkpt lat="42.847925" lon="2.5947867"><ele>317.0</ele><time>2026-04-26T05:51:56.729Z</time></trkpt><trkpt lat="42.847955" lon="2.59487"><ele>317.0</ele><time>2026-04-26T05:51:57.728Z</time></trkpt><trkpt lat="42.8479683" lon="2.5949817"><ele>317.0</ele><time>2026-04-26T05:51:59.729Z</time></trkpt><trkpt lat="42.8479867" lon="2.5951283"><ele>317.0</ele><time>2026-04-26T05:52:02.729Z</time></trkpt><trkpt lat="42.8480783" lon="2.59524"><ele>317.0</ele><time>2026-04-26T05:52:04.728Z</time></trkpt><trkpt lat="42.84816" lon="2.5952817"><ele>317.0</ele><time>2026-04-26T05:52:05.732Z</time></trkpt><trkpt lat="42.8482633" lon="2.595325"><ele>316.6666666666667</ele><time>2026-04-26T05:52:06.728Z</time></trkpt><trkpt lat="42.8483633" lon="2.5953717"><ele>316.33333333333337</ele><time>2026-04-26T05:52:07.731Z</time></trkpt><trkpt lat="42.8484533" lon="2.5954133"><ele>316.0</ele><time>2026-04-26T05:52:08.729Z</time></trkpt><trkpt lat="42.8485267" lon="2.595435"><ele>315.6666666666667</ele><time>2026-04-26T05:52:09.728Z</time></trkpt><trkpt lat="42.8485967" lon="2.5954367"><ele>315.3333333333333</ele><time>2026-04-26T05:52:10.729Z</time></trkpt><trkpt lat="42.848655" lon="2.59539"><ele>315.0</ele><time>2026-04-26T05:52:11.728Z</time></trkpt><trkpt lat="42.8486967" lon="2.5953017"><ele>315.0</ele><time>2026-04-26T05:52:12.73Z</time></trkpt><trkpt lat="42.8487267" lon="2.59518"><ele>315.0</ele><time>2026-04-26T05:52:13.731Z</time></trkpt><trkpt lat="42.8487733" lon="2.59507"><ele>315.0</ele><time>2026-04-26T05:52:14.728Z</time></trkpt><trkpt lat="42.8488367" lon="2.5949633"><ele>315.0</ele><time>2026-04-26T05:52:15.732Z</time></trkpt><trkpt lat="42.84892" lon="2.5948617"><ele>315.0</ele><time>2026-04-26T05:52:16.728Z</time></trkpt><trkpt lat="42.84901" lon="2.5947583"><ele>315.0</ele><time>2026-04-26T05:52:17.729Z</time></trkpt><trkpt lat="42.849095" lon="2.59465"><ele>315.0</ele><time>2026-04-26T05:52:18.73Z</time></trkpt><trkpt lat="42.8491717" lon="2.59454"><ele>315.0</ele><time>2026-04-26T05:52:19.73Z</time></trkpt><trkpt lat="42.849245" lon="2.5944317"><ele>315.0</ele><time>2026-04-26T05:52:20.732Z</time></trkpt><trkpt lat="42.8493067" lon="2.5943183"><ele>315.0</ele><time>2026-04-26T05:52:21.73Z</time></trkpt><trkpt lat="42.84935" lon="2.5942083"><ele>312.5</ele><time>2026-04-26T05:52:22.731Z</time></trkpt><trkpt lat="42.849385" lon="2.59411"><ele>310.0</ele><time>2026-04-26T05:52:23.73Z</time></trkpt><trkpt lat="42.8494233" lon="2.5940283"><ele>307.5</ele><time>2026-04-26T05:52:24.731Z</time></trkpt><trkpt lat="42.8494733" lon="2.5939667"><ele>305.0</ele><time>2026-04-26T05:52:25.728Z</time></trkpt><trkpt lat="42.8495567" lon="2.5939567"><ele>302.5</ele><time>2026-04-26T05:52:26.731Z</time></trkpt><trkpt lat="42.8496417" lon="2.5940083"><ele>300.0</ele><time>2026-04-26T05:52:27.73Z</time></trkpt><trkpt lat="42.8497083" lon="2.594125"><ele>300.0</ele><time>2026-04-26T05:52:28.73Z</time></trkpt><trkpt lat="42.8497433" lon="2.5942867"><ele>300.0</ele><time>2026-04-26T05:52:29.731Z</time></trkpt><trkpt lat="42.8497517" lon="2.59447"><ele>300.0</ele><time>2026-04-26T05:52:30.73Z</time></trkpt><trkpt lat="42.849745" lon="2.59466"><ele>300.0</ele><time>2026-04-26T05:52:31.728Z</time></trkpt><trkpt lat="42.8497233" lon="2.5948683"><ele>300.0</ele><time>2026-04-26T05:52:32.73Z</time></trkpt><trkpt lat="42.84968" lon="2.5950817"><ele>300.0</ele><time>2026-04-26T05:52:33.728Z</time></trkpt><trkpt lat="42.8496267" lon="2.595295"><ele>300.0</ele><time>2026-04-26T05:52:34.728Z</time></trkpt><trkpt lat="42.8495717" lon="2.5955133"><ele>300.0</ele><time>2026-04-26T05:52:35.729Z</time></trkpt><trkpt lat="42.8495167" lon="2.5957317"><ele>300.0</ele><time>2026-04-26T05:52:36.728Z</time></trkpt><trkpt lat="42.8494633" lon="2.5959483"><ele>300.0</ele><time>2026-04-26T05:52:37.729Z</time></trkpt><trkpt lat="42.84941" lon="2.59616"><ele>299.3333333333333</ele><time>2026-04-26T05:52:38.73Z</time></trkpt><trkpt lat="42.849365" lon="2.5963717"><ele>298.66666666666663</ele><time>2026-04-26T05:52:39.729Z</time></trkpt><trkpt lat="42.8493417" lon="2.5965833"><ele>298.0</ele><time>2026-04-26T05:52:40.728Z</time></trkpt><trkpt lat="42.8493383" lon="2.59679"><ele>298.0</ele><time>2026-04-26T05:52:41.728Z</time></trkpt><trkpt lat="42.8493533" lon="2.5969933"><ele>298.0</ele><time>2026-04-26T05:52:42.729Z</time></trkpt><trkpt lat="42.8493583" lon="2.5971883"><ele>298.0</ele><time>2026-04-26T05:52:43.732Z</time></trkpt><trkpt lat="42.84934" lon="2.5973583"><ele>298.0</ele><time>2026-04-26T05:52:44.729Z</time></trkpt><trkpt lat="42.8492733" lon="2.597505"><ele>298.75</ele><time>2026-04-26T05:52:45.73Z</time></trkpt><trkpt lat="42.8492133" lon="2.5976517"><ele>299.5</ele><time>2026-04-26T05:52:46.73Z</time></trkpt><trkpt lat="42.8491817" lon="2.5978033"><ele>300.25</ele><time>2026-04-26T05:52:47.73Z</time></trkpt><trkpt lat="42.8491933" lon="2.5979517"><ele>301.0</ele><time>2026-04-26T05:52:48.729Z</time></trkpt><trkpt lat="42.8492483" lon="2.5980867"><ele>299.25</ele><time>2026-04-26T05:52:49.728Z</time></trkpt><trkpt lat="42.8493333" lon="2.5982033"><ele>297.5</ele><time>2026-04-26T05:52:50.729Z</time></trkpt><trkpt lat="42.849425" lon="2.598325"><ele>295.75</ele><time>2026-04-26T05:52:51.73Z</time></trkpt><trkpt lat="42.8495" lon="2.5984683"><ele>294.0</ele><time>2026-04-26T05:52:52.729Z</time></trkpt><trkpt lat="42.84955" lon="2.598625"><ele>294.75</ele><time>2026-04-26T05:52:53.731Z</time></trkpt><trkpt lat="42.8495867" lon="2.5987833"><ele>295.5</ele><time>2026-04-26T05:52:54.729Z</time></trkpt><trkpt lat="42.8495967" lon="2.5989433"><ele>296.25</ele><time>2026-04-26T05:52:55.729Z</time></trkpt><trkpt lat="42.8495817" lon="2.5991067"><ele>297.0</ele><time>2026-04-26T05:52:56.729Z</time></trkpt><trkpt lat="42.8495133" lon="2.5992667"><ele>297.0</ele><time>2026-04-26T05:52:57.729Z</time></trkpt><trkpt lat="42.849425" lon="2.59942"><ele>297.0</ele><time>2026-04-26T05:52:58.729Z</time></trkpt><trkpt lat="42.8493133" lon="2.599565"><ele>297.0</ele><time>2026-04-26T05:52:59.728Z</time></trkpt><trkpt lat="42.8491933" lon="2.59971"><ele>298.3333333333333</ele><time>2026-04-26T05:53:00.728Z</time></trkpt><trkpt lat="42.8490667" lon="2.5998567"><ele>299.66666666666663</ele><time>2026-04-26T05:53:01.728Z</time></trkpt><trkpt lat="42.848935" lon="2.599995"><ele>301.0</ele><time>2026-04-26T05:53:02.728Z</time></trkpt><trkpt lat="42.848795" lon="2.6001083"><ele>301.0</ele><time>2026-04-26T05:53:03.731Z</time></trkpt><trkpt lat="42.8486433" lon="2.6001867"><ele>301.0</ele><time>2026-04-26T05:53:04.729Z</time></trkpt><trkpt lat="42.8484933" lon="2.600245"><ele>301.0</ele><time>2026-04-26T05:53:05.73Z</time></trkpt><trkpt lat="42.848345" lon="2.6003083"><ele>302.0</ele><time>2026-04-26T05:53:06.73Z</time></trkpt><trkpt lat="42.8482133" lon="2.6004383"><ele>303.0</ele><time>2026-04-26T05:53:07.728Z</time></trkpt><trkpt lat="42.8480883" lon="2.6005883"><ele>304.0</ele><time>2026-04-26T05:53:08.728Z</time></trkpt><trkpt lat="42.8479683" lon="2.6007533"><ele>304.0</ele><time>2026-04-26T05:53:09.73Z</time></trkpt><trkpt lat="42.8478433" lon="2.6009183"><ele>304.0</ele><time>2026-04-26T05:53:10.729Z</time></trkpt><trkpt lat="42.84772" lon="2.6010867"><ele>304.0</ele><time>2026-04-26T05:53:11.73Z</time></trkpt><trkpt lat="42.8475783" lon="2.601225"><ele>307.3333333333333</ele><time>2026-04-26T05:53:12.728Z</time></trkpt><trkpt lat="42.847435" lon="2.6013433"><ele>310.6666666666667</ele><time>2026-04-26T05:53:13.727Z</time></trkpt><trkpt lat="42.8473017" lon="2.6014833"><ele>314.0</ele><time>2026-04-26T05:53:14.731Z</time></trkpt><trkpt lat="42.8471783" lon="2.6016383"><ele>314.0</ele><time>2026-04-26T05:53:15.729Z</time></trkpt><trkpt lat="42.84706" lon="2.6017833"><ele>314.0</ele><time>2026-04-26T05:53:16.729Z</time></trkpt><trkpt lat="42.8469433" lon="2.601905"><ele>314.0</ele><time>2026-04-26T05:53:17.731Z</time></trkpt><trkpt lat="42.8468217" lon="2.6020033"><ele>314.0</ele><time>2026-04-26T05:53:18.729Z</time></trkpt><trkpt lat="42.8466917" lon="2.60207"><ele>315.25</ele><time>2026-04-26T05:53:19.729Z</time></trkpt><trkpt lat="42.8465467" lon="2.6021067"><ele>316.5</ele><time>2026-04-26T05:53:20.73Z</time></trkpt><trkpt lat="42.8464083" lon="2.6021383"><ele>317.75</ele><time>2026-04-26T05:53:21.73Z</time></trkpt><trkpt lat="42.84628" lon="2.6021767"><ele>319.0</ele><time>2026-04-26T05:53:22.729Z</time></trkpt><trkpt lat="42.846165" lon="2.6022083"><ele>319.0</ele><time>2026-04-26T05:53:23.729Z</time></trkpt><trkpt lat="42.8460617" lon="2.6022"><ele>319.0</ele><time>2026-04-26T05:53:24.729Z</time></trkpt><trkpt lat="42.8459767" lon="2.602135"><ele>319.0</ele><time>2026-04-26T05:53:25.729Z</time></trkpt><trkpt lat="42.845925" lon="2.6020183"><ele>319.0</ele><time>2026-04-26T05:53:26.73Z</time></trkpt><trkpt lat="42.84589" lon="2.601885"><ele>319.0</ele><time>2026-04-26T05:53:27.729Z</time></trkpt><trkpt lat="42.84584" lon="2.6017633"><ele>323.0</ele><time>2026-04-26T05:53:28.731Z</time></trkpt><trkpt lat="42.8457617" lon="2.6016733"><ele>327.0</ele><time>2026-04-26T05:53:29.73Z</time></trkpt><trkpt lat="42.8456583" lon="2.601635"><ele>331.0</ele><time>2026-04-26T05:53:30.731Z</time></trkpt><trkpt lat="42.8455433" lon="2.60165"><ele>335.0</ele><time>2026-04-26T05:53:31.729Z</time></trkpt><trkpt lat="42.8454333" lon="2.6017217"><ele>339.0</ele><time>2026-04-26T05:53:32.731Z</time></trkpt><trkpt lat="42.8453283" lon="2.6018333"><ele>339.0</ele><time>2026-04-26T05:53:33.73Z</time></trkpt><trkpt lat="42.84523" lon="2.6019633"><ele>339.0</ele><time>2026-04-26T05:53:34.73Z</time></trkpt><trkpt lat="42.8451133" lon="2.6020517"><ele>339.0</ele><time>2026-04-26T05:53:35.729Z</time></trkpt><trkpt lat="42.8449883" lon="2.602095"><ele>339.0</ele><time>2026-04-26T05:53:36.731Z</time></trkpt><trkpt lat="42.8448567" lon="2.6020833"><ele>337.75</ele><time>2026-04-26T05:53:37.728Z</time></trkpt><trkpt lat="42.8447183" lon="2.6020333"><ele>336.5</ele><time>2026-04-26T05:53:38.73Z</time></trkpt><trkpt lat="42.8445783" lon="2.60198"><ele>335.25</ele><time>2026-04-26T05:53:39.73Z</time></trkpt><trkpt lat="42.8444333" lon="2.6019667"><ele>334.0</ele><time>2026-04-26T05:53:40.729Z</time></trkpt><trkpt lat="42.844295" lon="2.6019967"><ele>337.75</ele><time>2026-04-26T05:53:41.728Z</time></trkpt><trkpt lat="42.8441633" lon="2.6020667"><ele>341.5</ele><time>2026-04-26T05:53:42.728Z</time></trkpt><trkpt lat="42.8440367" lon="2.6021583"><ele>345.25</ele><time>2026-04-26T05:53:43.73Z</time></trkpt><trkpt lat="42.8439233" lon="2.6022517"><ele>349.0</ele><time>2026-04-26T05:53:44.73Z</time></trkpt><trkpt lat="42.8438233" lon="2.602345"><ele>349.0</ele><time>2026-04-26T05:53:45.73Z</time></trkpt><trkpt lat="42.8437467" lon="2.6024517"><ele>349.0</ele><time>2026-04-26T05:53:46.729Z</time></trkpt><trkpt lat="42.8437067" lon="2.6025817"><ele>349.0</ele><time>2026-04-26T05:53:47.728Z</time></trkpt><trkpt lat="42.8437083" lon="2.6027167"><ele>349.0</ele><time>2026-04-26T05:53:48.728Z</time></trkpt><trkpt lat="42.843745" lon="2.602835"><ele>349.0</ele><time>2026-04-26T05:53:49.729Z</time></trkpt><trkpt lat="42.8438383" lon="2.6029133"><ele>349.0</ele><time>2026-04-26T05:53:50.73Z</time></trkpt><trkpt lat="42.8439183" lon="2.6030183"><ele>349.0</ele><time>2026-04-26T05:53:51.729Z</time></trkpt><trkpt lat="42.8439567" lon="2.6031817"><ele>349.0</ele><time>2026-04-26T05:53:52.729Z</time></trkpt><trkpt lat="42.84397" lon="2.60335"><ele>349.0</ele><time>2026-04-26T05:53:53.731Z</time></trkpt><trkpt lat="42.8439683" lon="2.603505"><ele>349.0</ele><time>2026-04-26T05:53:54.729Z</time></trkpt><trkpt lat="42.8439183" lon="2.6036417"><ele>349.0</ele><time>2026-04-26T05:53:55.728Z</time></trkpt><trkpt lat="42.8438367" lon="2.6037633"><ele>349.0</ele><time>2026-04-26T05:53:56.73Z</time></trkpt><trkpt lat="42.8437367" lon="2.603875"><ele>349.0</ele><time>2026-04-26T05:53:57.729Z</time></trkpt><trkpt lat="42.8436267" lon="2.6040117"><ele>347.75</ele><time>2026-04-26T05:53:58.729Z</time></trkpt><trkpt lat="42.8435383" lon="2.6041583"><ele>346.5</ele><time>2026-04-26T05:53:59.729Z</time></trkpt><trkpt lat="42.8434533" lon="2.6043217"><ele>345.25</ele><time>2026-04-26T05:54:00.73Z</time></trkpt><trkpt lat="42.843355" lon="2.604485"><ele>344.0</ele><time>2026-04-26T05:54:01.727Z</time></trkpt><trkpt lat="42.8432483" lon="2.6046367"><ele>347.75</ele><time>2026-04-26T05:54:02.73Z</time></trkpt><trkpt lat="42.84315" lon="2.604785"><ele>351.5</ele><time>2026-04-26T05:54:03.729Z</time></trkpt><trkpt lat="42.8430733" lon="2.604955"><ele>355.25</ele><time>2026-04-26T05:54:04.729Z</time></trkpt><trkpt lat="42.8430217" lon="2.605135"><ele>359.0</ele><time>2026-04-26T05:54:05.73Z</time></trkpt><trkpt lat="42.8429783" lon="2.60531"><ele>357.0</ele><time>2026-04-26T05:54:06.729Z</time></trkpt><trkpt lat="42.8429233" lon="2.6054617"><ele>355.0</ele><time>2026-04-26T05:54:07.73Z</time></trkpt><trkpt lat="42.8428633" lon="2.6055817"><ele>353.0</ele><time>2026-04-26T05:54:08.729Z</time></trkpt><trkpt lat="42.842785" lon="2.6056467"><ele>351.0</ele><time>2026-04-26T05:54:09.729Z</time></trkpt><trkpt lat="42.8427133" lon="2.6056317"><ele>349.0</ele><time>2026-04-26T05:54:10.729Z</time></trkpt><trkpt lat="42.8426683" lon="2.6055567"><ele>349.0</ele><time>2026-04-26T05:54:11.731Z</time></trkpt><trkpt lat="42.84265" lon="2.605455"><ele>349.0</ele><time>2026-04-26T05:54:12.73Z</time></trkpt><trkpt lat="42.842655" lon="2.6053267"><ele>349.0</ele><time>2026-04-26T05:54:13.729Z</time></trkpt><trkpt lat="42.842645" lon="2.6052"><ele>349.0</ele><time>2026-04-26T05:54:14.73Z</time></trkpt><trkpt lat="42.8426" lon="2.6050767"><ele>349.0</ele><time>2026-04-26T05:54:15.73Z</time></trkpt><trkpt lat="42.8425433" lon="2.6049583"><ele>355.25</ele><time>2026-04-26T05:54:16.73Z</time></trkpt><trkpt lat="42.8424717" lon="2.604835"><ele>361.5</ele><time>2026-04-26T05:54:17.729Z</time></trkpt><trkpt lat="42.8423883" lon="2.604705"><ele>367.75</ele><time>2026-04-26T05:54:18.729Z</time></trkpt><trkpt lat="42.8422917" lon="2.6045967"><ele>374.0</ele><time>2026-04-26T05:54:19.728Z</time></trkpt><trkpt lat="42.8421783" lon="2.6045283"><ele>374.0</ele><time>2026-04-26T05:54:20.729Z</time></trkpt><trkpt lat="42.84205" lon="2.6044983"><ele>374.0</ele><time>2026-04-26T05:54:21.731Z</time></trkpt><trkpt lat="42.841915" lon="2.6044967"><ele>374.0</ele><time>2026-04-26T05:54:22.728Z</time></trkpt><trkpt lat="42.84178" lon="2.6045267"><ele>374.0</ele><time>2026-04-26T05:54:23.732Z</time></trkpt><trkpt lat="42.8416467" lon="2.6045983"><ele>376.33333333333337</ele><time>2026-04-26T05:54:24.73Z</time></trkpt><trkpt lat="42.8415167" lon="2.6047033"><ele>378.6666666666667</ele><time>2026-04-26T05:54:25.729Z</time></trkpt><trkpt lat="42.841385" lon="2.6048217"><ele>381.0</ele><time>2026-04-26T05:54:26.729Z</time></trkpt><trkpt lat="42.8412533" lon="2.6049383"><ele>381.0</ele><time>2026-04-26T05:54:27.728Z</time></trkpt><trkpt lat="42.8411267" lon="2.6050667"><ele>381.0</ele><time>2026-04-26T05:54:28.728Z</time></trkpt><trkpt lat="42.84101" lon="2.605215"><ele>381.0</ele><time>2026-04-26T05:54:29.729Z</time></trkpt><trkpt lat="42.840905" lon="2.60538"><ele>384.0</ele><time>2026-04-26T05:54:30.728Z</time></trkpt><trkpt lat="42.8407983" lon="2.605545"><ele>387.0</ele><time>2026-04-26T05:54:31.728Z</time></trkpt><trkpt lat="42.8406783" lon="2.6056917"><ele>390.0</ele><time>2026-04-26T05:54:32.73Z</time></trkpt><trkpt lat="42.8405467" lon="2.605825"><ele>390.0</ele><time>2026-04-26T05:54:33.729Z</time></trkpt><trkpt lat="42.8404117" lon="2.6059433"><ele>390.0</ele><time>2026-04-26T05:54:34.729Z</time></trkpt><trkpt lat="42.8402717" lon="2.606025"><ele>390.0</ele><time>2026-04-26T05:54:35.729Z</time></trkpt><trkpt lat="42.8401383" lon="2.6060917"><ele>392.5</ele><time>2026-04-26T05:54:36.729Z</time></trkpt><trkpt lat="42.840025" lon="2.6061717"><ele>395.0</ele><time>2026-04-26T05:54:37.728Z</time></trkpt><trkpt lat="42.83994" lon="2.606295"><ele>397.5</ele><time>2026-04-26T05:54:38.728Z</time></trkpt><trkpt lat="42.8398867" lon="2.606455"><ele>400.0</ele><time>2026-04-26T05:54:39.728Z</time></trkpt><trkpt lat="42.8398383" lon="2.60663"><ele>400.0</ele><time>2026-04-26T05:54:40.729Z</time></trkpt><trkpt lat="42.8397667" lon="2.606785"><ele>400.0</ele><time>2026-04-26T05:54:41.728Z</time></trkpt><trkpt lat="42.8396683" lon="2.6069183"><ele>400.0</ele><time>2026-04-26T05:54:42.729Z</time></trkpt><trkpt lat="42.8395517" lon="2.60704"><ele>400.0</ele><time>2026-04-26T05:54:43.728Z</time></trkpt><trkpt lat="42.8394233" lon="2.6071617"><ele>403.6666666666667</ele><time>2026-04-26T05:54:44.728Z</time></trkpt><trkpt lat="42.8392867" lon="2.60728"><ele>407.33333333333337</ele><time>2026-04-26T05:54:45.731Z</time></trkpt><trkpt lat="42.8391517" lon="2.6074033"><ele>411.0</ele><time>2026-04-26T05:54:46.729Z</time></trkpt><trkpt lat="42.83901" lon="2.60752"><ele>411.0</ele><time>2026-04-26T05:54:47.729Z</time></trkpt><trkpt lat="42.838875" lon="2.6076383"><ele>411.0</ele><time>2026-04-26T05:54:48.73Z</time></trkpt><trkpt lat="42.8387517" lon="2.6077767"><ele>411.0</ele><time>2026-04-26T05:54:49.729Z</time></trkpt><trkpt lat="42.8386533" lon="2.60793"><ele>412.25</ele><time>2026-04-26T05:54:50.729Z</time></trkpt><trkpt lat="42.83857" lon="2.6080867"><ele>413.5</ele><time>2026-04-26T05:54:51.731Z</time></trkpt><trkpt lat="42.8384883" lon="2.60822"><ele>414.75</ele><time>2026-04-26T05:54:52.729Z</time></trkpt><trkpt lat="42.8383917" lon="2.6083"><ele>416.0</ele><time>2026-04-26T05:54:53.73Z</time></trkpt><trkpt lat="42.8382767" lon="2.6083367"><ele>416.0</ele><time>2026-04-26T05:54:54.727Z</time></trkpt><trkpt lat="42.8381533" lon="2.6083683"><ele>416.0</ele><time>2026-04-26T05:54:55.728Z</time></trkpt><trkpt lat="42.838025" lon="2.608415"><ele>416.0</ele><time>2026-04-26T05:54:56.728Z</time></trkpt><trkpt lat="42.83789" lon="2.6084633"><ele>416.0</ele><time>2026-04-26T05:54:57.728Z</time></trkpt><trkpt lat="42.8377583" lon="2.6085267"><ele>420.0</ele><time>2026-04-26T05:54:58.729Z</time></trkpt><trkpt lat="42.8376333" lon="2.6085983"><ele>424.0</ele><time>2026-04-26T05:54:59.727Z</time></trkpt><trkpt lat="42.8375117" lon="2.608665"><ele>428.0</ele><time>2026-04-26T05:55:00.729Z</time></trkpt><trkpt lat="42.83739" lon="2.6086883"><ele>432.0</ele><time>2026-04-26T05:55:01.727Z</time></trkpt><trkpt lat="42.8372817" lon="2.60866"><ele>432.25</ele><time>2026-04-26T05:55:02.729Z</time></trkpt><trkpt lat="42.837195" lon="2.6085783"><ele>432.5</ele><time>2026-04-26T05:55:03.728Z</time></trkpt><trkpt lat="42.8371217" lon="2.6084683"><ele>432.75</ele><time>2026-04-26T05:55:04.728Z</time></trkpt><trkpt lat="42.83705" lon="2.6083433"><ele>433.0</ele><time>2026-04-26T05:55:05.729Z</time></trkpt><trkpt lat="42.8369633" lon="2.6082183"><ele>433.0</ele><time>2026-04-26T05:55:06.728Z</time></trkpt><trkpt lat="42.836855" lon="2.608115"><ele>433.0</ele><time>2026-04-26T05:55:07.728Z</time></trkpt><trkpt lat="42.836725" lon="2.6080367"><ele>433.0</ele><time>2026-04-26T05:55:08.729Z</time></trkpt><trkpt lat="42.8365833" lon="2.6079667"><ele>433.0</ele><time>2026-04-26T05:55:09.727Z</time></trkpt><trkpt lat="42.83644" lon="2.607885"><ele>435.33333333333337</ele><time>2026-04-26T05:55:10.728Z</time></trkpt><trkpt lat="42.8362967" lon="2.60779"><ele>437.66666666666663</ele><time>2026-04-26T05:55:11.728Z</time></trkpt><trkpt lat="42.8361417" lon="2.60771"><ele>440.0</ele><time>2026-04-26T05:55:12.729Z</time></trkpt><trkpt lat="42.835985" lon="2.60766"><ele>437.3333333333333</ele><time>2026-04-26T05:55:13.732Z</time></trkpt><trkpt lat="42.8358333" lon="2.6076183"><ele>434.66666666666663</ele><time>2026-04-26T05:55:14.728Z</time></trkpt><trkpt lat="42.8356867" lon="2.6075617"><ele>432.0</ele><time>2026-04-26T05:55:15.729Z</time></trkpt><trkpt lat="42.835545" lon="2.6075067"><ele>432.0</ele><time>2026-04-26T05:55:16.728Z</time></trkpt><trkpt lat="42.8354083" lon="2.607475"><ele>432.0</ele><time>2026-04-26T05:55:17.729Z</time></trkpt><trkpt lat="42.8352717" lon="2.607485"><ele>432.0</ele><time>2026-04-26T05:55:18.728Z</time></trkpt><trkpt lat="42.8351333" lon="2.6075167"><ele>432.0</ele><time>2026-04-26T05:55:19.729Z</time></trkpt><trkpt lat="42.835" lon="2.6075567"><ele>431.25</ele><time>2026-04-26T05:55:20.729Z</time></trkpt><trkpt lat="42.8348667" lon="2.6075917"><ele>430.5</ele><time>2026-04-26T05:55:21.73Z</time></trkpt><trkpt lat="42.83474" lon="2.607625"><ele>429.75</ele><time>2026-04-26T05:55:22.729Z</time></trkpt><trkpt lat="42.834615" lon="2.6076417"><ele>429.0</ele><time>2026-04-26T05:55:23.729Z</time></trkpt><trkpt lat="42.834495" lon="2.607635"><ele>429.0</ele><time>2026-04-26T05:55:24.728Z</time></trkpt><trkpt lat="42.8343717" lon="2.6075917"><ele>429.0</ele><time>2026-04-26T05:55:25.729Z</time></trkpt><trkpt lat="42.83426" lon="2.6075017"><ele>429.0</ele><time>2026-04-26T05:55:26.73Z</time></trkpt><trkpt lat="42.83415" lon="2.6073933"><ele>429.0</ele><time>2026-04-26T05:55:27.729Z</time></trkpt><trkpt lat="42.8340417" lon="2.6072833"><ele>429.5</ele><time>2026-04-26T05:55:28.727Z</time></trkpt><trkpt lat="42.8339417" lon="2.6071667"><ele>430.0</ele><time>2026-04-26T05:55:29.73Z</time></trkpt><trkpt lat="42.833855" lon="2.6070433"><ele>430.5</ele><time>2026-04-26T05:55:30.732Z</time></trkpt><trkpt lat="42.8338017" lon="2.6068983"><ele>431.0</ele><time>2026-04-26T05:55:31.729Z</time></trkpt><trkpt lat="42.83379" lon="2.6067283"><ele>431.0</ele><time>2026-04-26T05:55:32.728Z</time></trkpt><trkpt lat="42.8337983" lon="2.606545"><ele>431.0</ele><time>2026-04-26T05:55:33.728Z</time></trkpt><trkpt lat="42.8338" lon="2.606355"><ele>431.0</ele><time>2026-04-26T05:55:34.729Z</time></trkpt><trkpt lat="42.8337967" lon="2.6061583"><ele>431.0</ele><time>2026-04-26T05:55:35.729Z</time></trkpt><trkpt lat="42.833785" lon="2.6059533"><ele>433.66666666666663</ele><time>2026-04-26T05:55:36.731Z</time></trkpt><trkpt lat="42.8337633" lon="2.60574"><ele>436.33333333333337</ele><time>2026-04-26T05:55:37.728Z</time></trkpt><trkpt lat="42.8337383" lon="2.60552"><ele>439.0</ele><time>2026-04-26T05:55:38.73Z</time></trkpt><trkpt lat="42.83371" lon="2.6052917"><ele>441.33333333333337</ele><time>2026-04-26T05:55:39.731Z</time></trkpt><trkpt lat="42.8336783" lon="2.6050617"><ele>443.66666666666663</ele><time>2026-04-26T05:55:40.728Z</time></trkpt><trkpt lat="42.833655" lon="2.6048317"><ele>446.0</ele><time>2026-04-26T05:55:41.73Z</time></trkpt><trkpt lat="42.83364" lon="2.6046"><ele>448.0</ele><time>2026-04-26T05:55:42.729Z</time></trkpt><trkpt lat="42.8336317" lon="2.604365"><ele>450.0</ele><time>2026-04-26T05:55:43.733Z</time></trkpt><trkpt lat="42.8336233" lon="2.6041283"><ele>452.0</ele><time>2026-04-26T05:55:44.73Z</time></trkpt><trkpt lat="42.83361" lon="2.60389"><ele>454.0</ele><time>2026-04-26T05:55:45.728Z</time></trkpt><trkpt lat="42.8335867" lon="2.6036483"><ele>456.0</ele><time>2026-04-26T05:55:46.729Z</time></trkpt><trkpt lat="42.8335617" lon="2.603405"><ele>458.0</ele><time>2026-04-26T05:55:47.728Z</time></trkpt><trkpt lat="42.83354" lon="2.60316"><ele>458.0</ele><time>2026-04-26T05:55:48.729Z</time></trkpt><trkpt lat="42.8335267" lon="2.6029133"><ele>458.0</ele><time>2026-04-26T05:55:49.729Z</time></trkpt><trkpt lat="42.8335117" lon="2.602665"><ele>458.0</ele><time>2026-04-26T05:55:50.729Z</time></trkpt><trkpt lat="42.83349" lon="2.60242"><ele>439.66666666666663</ele><time>2026-04-26T05:55:51.728Z</time></trkpt><trkpt lat="42.8334617" lon="2.6021883"><ele>421.33333333333337</ele><time>2026-04-26T05:55:52.727Z</time></trkpt><trkpt lat="42.8334317" lon="2.6019667"><ele>403.0</ele><time>2026-04-26T05:55:53.728Z</time></trkpt><trkpt lat="42.8333967" lon="2.6017533"><ele>403.0</ele><time>2026-04-26T05:55:54.729Z</time></trkpt><trkpt lat="42.8333567" lon="2.6015483"><ele>403.0</ele><time>2026-04-26T05:55:55.728Z</time></trkpt><trkpt lat="42.8332933" lon="2.601355"><ele>403.0</ele><time>2026-04-26T05:55:56.729Z</time></trkpt><trkpt lat="42.8332133" lon="2.6011717"><ele>407.33333333333337</ele><time>2026-04-26T05:55:57.727Z</time></trkpt><trkpt lat="42.8330983" lon="2.6010017"><ele>411.66666666666663</ele><time>2026-04-26T05:55:58.732Z</time></trkpt><trkpt lat="42.8329917" lon="2.6008217"><ele>416.0</ele><time>2026-04-26T05:55:59.728Z</time></trkpt><trkpt lat="42.83289" lon="2.6006383"><ele>416.0</ele><time>2026-04-26T05:56:00.729Z</time></trkpt><trkpt lat="42.8327817" lon="2.6004583"><ele>416.0</ele><time>2026-04-26T05:56:01.729Z</time></trkpt><trkpt lat="42.8326783" lon="2.6002733"><ele>416.0</ele><time>2026-04-26T05:56:02.73Z</time></trkpt><trkpt lat="42.83258" lon="2.6000783"><ele>409.3333333333333</ele><time>2026-04-26T05:56:03.728Z</time></trkpt><trkpt lat="42.8324883" lon="2.5998767"><ele>402.66666666666663</ele><time>2026-04-26T05:56:04.728Z</time></trkpt><trkpt lat="42.8324017" lon="2.599665"><ele>396.0</ele><time>2026-04-26T05:56:05.729Z</time></trkpt><trkpt lat="42.8323183" lon="2.5994533"><ele>396.0</ele><time>2026-04-26T05:56:06.728Z</time></trkpt><trkpt lat="42.83224" lon="2.5992467"><ele>396.0</ele><time>2026-04-26T05:56:07.728Z</time></trkpt><trkpt lat="42.8321583" lon="2.599055"><ele>396.0</ele><time>2026-04-26T05:56:08.729Z</time></trkpt><trkpt lat="42.8320717" lon="2.598875"><ele>396.0</ele><time>2026-04-26T05:56:09.728Z</time></trkpt><trkpt lat="42.8319783" lon="2.5987083"><ele>396.0</ele><time>2026-04-26T05:56:10.728Z</time></trkpt><trkpt lat="42.8318767" lon="2.5985667"><ele>396.0</ele><time>2026-04-26T05:56:11.729Z</time></trkpt><trkpt lat="42.8317733" lon="2.5984383"><ele>396.0</ele><time>2026-04-26T05:56:12.728Z</time></trkpt><trkpt lat="42.8316767" lon="2.5983017"><ele>390.75</ele><time>2026-04-26T05:56:13.728Z</time></trkpt><trkpt lat="42.831605" lon="2.5981333"><ele>385.5</ele><time>2026-04-26T05:56:14.729Z</time></trkpt><trkpt lat="42.83156" lon="2.5979417"><ele>380.25</ele><time>2026-04-26T05:56:15.729Z</time></trkpt><trkpt lat="42.831545" lon="2.5977383"><ele>375.0</ele><time>2026-04-26T05:56:16.729Z</time></trkpt><trkpt lat="42.83156" lon="2.59754"><ele>374.75</ele><time>2026-04-26T05:56:17.728Z</time></trkpt><trkpt lat="42.8316" lon="2.59735"><ele>374.5</ele><time>2026-04-26T05:56:18.729Z</time></trkpt><trkpt lat="42.8316583" lon="2.5971767"><ele>374.25</ele><time>2026-04-26T05:56:19.727Z</time></trkpt><trkpt lat="42.8317283" lon="2.59702"><ele>374.0</ele><time>2026-04-26T05:56:20.729Z</time></trkpt><trkpt lat="42.8317917" lon="2.5968633"><ele>371.25</ele><time>2026-04-26T05:56:21.727Z</time></trkpt><trkpt lat="42.831805" lon="2.59669"><ele>368.5</ele><time>2026-04-26T05:56:22.729Z</time></trkpt><trkpt lat="42.8317833" lon="2.5965133"><ele>365.75</ele><time>2026-04-26T05:56:23.73Z</time></trkpt><trkpt lat="42.8317517" lon="2.596345"><ele>363.0</ele><time>2026-04-26T05:56:24.729Z</time></trkpt><trkpt lat="42.8317383" lon="2.5961717"><ele>360.5</ele><time>2026-04-26T05:56:25.727Z</time></trkpt><trkpt lat="42.8317617" lon="2.5959917"><ele>358.0</ele><time>2026-04-26T05:56:26.729Z</time></trkpt><trkpt lat="42.8318067" lon="2.595805"><ele>355.5</ele><time>2026-04-26T05:56:27.727Z</time></trkpt><trkpt lat="42.8318617" lon="2.5956133"><ele>353.0</ele><time>2026-04-26T05:56:28.728Z</time></trkpt><trkpt lat="42.8319117" lon="2.5954133"><ele>360.25</ele><time>2026-04-26T05:56:29.728Z</time></trkpt><trkpt lat="42.8319517" lon="2.59522"><ele>367.5</ele><time>2026-04-26T05:56:30.728Z</time></trkpt><trkpt lat="42.8319717" lon="2.5950317"><ele>374.75</ele><time>2026-04-26T05:56:31.728Z</time></trkpt><trkpt lat="42.831975" lon="2.5948533"><ele>382.0</ele><time>2026-04-26T05:56:32.729Z</time></trkpt><trkpt lat="42.831965" lon="2.59469"><ele>382.0</ele><time>2026-04-26T05:56:33.73Z</time></trkpt><trkpt lat="42.8319433" lon="2.594545"><ele>382.0</ele><time>2026-04-26T05:56:34.728Z</time></trkpt><trkpt lat="42.8319183" lon="2.5944167"><ele>382.0</ele><time>2026-04-26T05:56:35.728Z</time></trkpt><trkpt lat="42.8318933" lon="2.594305"><ele>382.0</ele><time>2026-04-26T05:56:36.729Z</time></trkpt><trkpt lat="42.8318767" lon="2.5942033"><ele>382.0</ele><time>2026-04-26T05:56:37.728Z</time></trkpt><trkpt lat="42.83186" lon="2.5940817"><ele>382.0</ele><time>2026-04-26T05:56:39.728Z</time></trkpt><trkpt lat="42.831785" lon="2.5941383"><ele>382.0</ele><time>2026-04-26T05:56:42.73Z</time></trkpt><trkpt lat="42.8317633" lon="2.59429"><ele>382.0</ele><time>2026-04-26T05:56:44.728Z</time></trkpt><trkpt lat="42.8317833" lon="2.5943967"><ele>382.0</ele><time>2026-04-26T05:56:45.728Z</time></trkpt><trkpt lat="42.8318117" lon="2.594515"><ele>382.0</ele><time>2026-04-26T05:56:46.729Z</time></trkpt><trkpt lat="42.83183" lon="2.59464"><ele>382.0</ele><time>2026-04-26T05:56:47.729Z</time></trkpt><trkpt lat="42.8318317" lon="2.5947783"><ele>382.0</ele><time>2026-04-26T05:56:48.728Z</time></trkpt><trkpt lat="42.8318167" lon="2.5949233"><ele>382.0</ele><time>2026-04-26T05:56:49.727Z</time></trkpt><trkpt lat="42.831775" lon="2.5950583"><ele>382.0</ele><time>2026-04-26T05:56:50.729Z</time></trkpt><trkpt lat="42.8317067" lon="2.5951717"><ele>382.0</ele><time>2026-04-26T05:56:51.729Z</time></trkpt><trkpt lat="42.831615" lon="2.5952767"><ele>376.20000000000005</ele><time>2026-04-26T05:56:52.728Z</time></trkpt><trkpt lat="42.8315217" lon="2.5953833"><ele>370.4</ele><time>2026-04-26T05:56:53.728Z</time></trkpt><trkpt lat="42.8314383" lon="2.5954883"><ele>364.6</ele><time>2026-04-26T05:56:54.73Z</time></trkpt><trkpt lat="42.8313683" lon="2.5955917"><ele>358.79999999999995</ele><time>2026-04-26T05:56:55.73Z</time></trkpt><trkpt lat="42.831315" lon="2.59571"><ele>353.0</ele><time>2026-04-26T05:56:56.731Z</time></trkpt><trkpt lat="42.8312717" lon="2.5958433"><ele>353.0</ele><time>2026-04-26T05:56:57.728Z</time></trkpt><trkpt lat="42.8312383" lon="2.5959683"><ele>353.0</ele><time>2026-04-26T05:56:58.728Z</time></trkpt><trkpt lat="42.8312267" lon="2.5960783"><ele>353.0</ele><time>2026-04-26T05:56:59.729Z</time></trkpt><trkpt lat="42.8312317" lon="2.59618"><ele>353.0</ele><time>2026-04-26T05:57:00.728Z</time></trkpt><trkpt lat="42.8312533" lon="2.5962783"><ele>353.0</ele><time>2026-04-26T05:57:01.728Z</time></trkpt><trkpt lat="42.831275" lon="2.5963733"><ele>353.0</ele><time>2026-04-26T05:57:02.73Z</time></trkpt><trkpt lat="42.8312883" lon="2.5965167"><ele>354.6666666666667</ele><time>2026-04-26T05:57:04.727Z</time></trkpt><trkpt lat="42.8312083" lon="2.59656"><ele>356.33333333333337</ele><time>2026-04-26T05:57:06.728Z</time></trkpt><trkpt lat="42.8311433" lon="2.59653"><ele>358.0</ele><time>2026-04-26T05:57:07.73Z</time></trkpt><trkpt lat="42.8310767" lon="2.5964817"><ele>359.6666666666667</ele><time>2026-04-26T05:57:08.728Z</time></trkpt><trkpt lat="42.8310083" lon="2.5964283"><ele>361.3333333333333</ele><time>2026-04-26T05:57:09.727Z</time></trkpt><trkpt lat="42.8309267" lon="2.5964033"><ele>363.0</ele><time>2026-04-26T05:57:10.728Z</time></trkpt><trkpt lat="42.8308517" lon="2.596405"><ele>360.5</ele><time>2026-04-26T05:57:11.727Z</time></trkpt><trkpt lat="42.8307433" lon="2.5964883"><ele>358.0</ele><time>2026-04-26T05:57:13.727Z</time></trkpt><trkpt lat="42.8307067" lon="2.59656"><ele>355.5</ele><time>2026-04-26T05:57:14.728Z</time></trkpt><trkpt lat="42.8306933" lon="2.596665"><ele>353.0</ele><time>2026-04-26T05:57:15.731Z</time></trkpt><trkpt lat="42.8306933" lon="2.5967883"><ele>350.5</ele><time>2026-04-26T05:57:16.728Z</time></trkpt><trkpt lat="42.8307067" lon="2.5969067"><ele>348.0</ele><time>2026-04-26T05:57:17.734Z</time></trkpt><trkpt lat="42.8307333" lon="2.597015"><ele>348.0</ele><time>2026-04-26T05:57:18.728Z</time></trkpt><trkpt lat="42.8307733" lon="2.5971083"><ele>348.0</ele><time>2026-04-26T05:57:19.727Z</time></trkpt><trkpt lat="42.830805" lon="2.5971933"><ele>348.0</ele><time>2026-04-26T05:57:20.73Z</time></trkpt><trkpt lat="42.830785" lon="2.5973367"><ele>348.0</ele><time>2026-04-26T05:57:22.73Z</time></trkpt><trkpt lat="42.8307417" lon="2.597435"><ele>348.0</ele><time>2026-04-26T05:57:23.728Z</time></trkpt><trkpt lat="42.8307" lon="2.5975417"><ele>348.0</ele><time>2026-04-26T05:57:24.73Z</time></trkpt><trkpt lat="42.830655" lon="2.5976383"><ele>348.0</ele><time>2026-04-26T05:57:25.728Z</time></trkpt><trkpt lat="42.830595" lon="2.5976883"><ele>348.0</ele><time>2026-04-26T05:57:26.728Z</time></trkpt><trkpt lat="42.83052" lon="2.5977"><ele>348.0</ele><time>2026-04-26T05:57:27.728Z</time></trkpt><trkpt lat="42.8304333" lon="2.5976983"><ele>348.0</ele><time>2026-04-26T05:57:28.73Z</time></trkpt><trkpt lat="42.8303517" lon="2.597695"><ele>348.0</ele><time>2026-04-26T05:57:29.729Z</time></trkpt><trkpt lat="42.8302683" lon="2.5976817"><ele>348.0</ele><time>2026-04-26T05:57:30.727Z</time></trkpt><trkpt lat="42.83019" lon="2.5976333"><ele>346.4</ele><time>2026-04-26T05:57:31.727Z</time></trkpt><trkpt lat="42.8301133" lon="2.5975517"><ele>344.79999999999995</ele><time>2026-04-26T05:57:32.728Z</time></trkpt><trkpt lat="42.8300367" lon="2.5974667"><ele>343.2</ele><time>2026-04-26T05:57:33.729Z</time></trkpt><trkpt lat="42.8299583" lon="2.5974033"><ele>341.6</ele><time>2026-04-26T05:57:34.728Z</time></trkpt><trkpt lat="42.82988" lon="2.5973583"><ele>340.0</ele><time>2026-04-26T05:57:35.728Z</time></trkpt><trkpt lat="42.8298033" lon="2.5973333"><ele>340.0</ele><time>2026-04-26T05:57:36.73Z</time></trkpt><trkpt lat="42.8297233" lon="2.5973333"><ele>340.0</ele><time>2026-04-26T05:57:37.728Z</time></trkpt><trkpt lat="42.8296433" lon="2.5973667"><ele>340.0</ele><time>2026-04-26T05:57:38.728Z</time></trkpt><trkpt lat="42.829575" lon="2.59743"><ele>340.0</ele><time>2026-04-26T05:57:39.728Z</time></trkpt><trkpt lat="42.829525" lon="2.597505"><ele>340.0</ele><time>2026-04-26T05:57:40.728Z</time></trkpt><trkpt lat="42.8294967" lon="2.5975883"><ele>340.0</ele><time>2026-04-26T05:57:41.727Z</time></trkpt><trkpt lat="42.8294817" lon="2.597695"><ele>340.0</ele><time>2026-04-26T05:57:42.729Z</time></trkpt><trkpt lat="42.8294833" lon="2.5978183"><ele>340.0</ele><time>2026-04-26T05:57:43.729Z</time></trkpt><trkpt lat="42.8294933" lon="2.597955"><ele>340.0</ele><time>2026-04-26T05:57:44.729Z</time></trkpt><trkpt lat="42.8295083" lon="2.5980933"><ele>340.0</ele><time>2026-04-26T05:57:45.729Z</time></trkpt><trkpt lat="42.829535" lon="2.5982233"><ele>340.0</ele><time>2026-04-26T05:57:46.728Z</time></trkpt><trkpt lat="42.82957" lon="2.59834"><ele>340.8</ele><time>2026-04-26T05:57:47.728Z</time></trkpt><trkpt lat="42.8296217" lon="2.59845"><ele>341.6</ele><time>2026-04-26T05:57:48.728Z</time></trkpt><trkpt lat="42.8296833" lon="2.5985517"><ele>342.4</ele><time>2026-04-26T05:57:49.73Z</time></trkpt><trkpt lat="42.829765" lon="2.5986433"><ele>343.2</ele><time>2026-04-26T05:57:50.729Z</time></trkpt><trkpt lat="42.8298583" lon="2.59873"><ele>344.0</ele><time>2026-04-26T05:57:51.729Z</time></trkpt><trkpt lat="42.8299567" lon="2.5988117"><ele>345.75</ele><time>2026-04-26T05:57:52.729Z</time></trkpt><trkpt lat="42.8300467" lon="2.5988917"><ele>347.5</ele><time>2026-04-26T05:57:53.732Z</time></trkpt><trkpt lat="42.8301433" lon="2.59897"><ele>349.25</ele><time>2026-04-26T05:57:54.729Z</time></trkpt><trkpt lat="42.830245" lon="2.5990467"><ele>351.0</ele><time>2026-04-26T05:57:55.729Z</time></trkpt><trkpt lat="42.8303583" lon="2.599115"><ele>351.0</ele><time>2026-04-26T05:57:56.729Z</time></trkpt><trkpt lat="42.8304717" lon="2.5991933"><ele>351.0</ele><time>2026-04-26T05:57:57.73Z</time></trkpt><trkpt lat="42.8305733" lon="2.599295"><ele>351.0</ele><time>2026-04-26T05:57:58.729Z</time></trkpt><trkpt lat="42.8306583" lon="2.59942"><ele>351.0</ele><time>2026-04-26T05:57:59.731Z</time></trkpt><trkpt lat="42.8307283" lon="2.5995517"><ele>351.8</ele><time>2026-04-26T05:58:00.729Z</time></trkpt><trkpt lat="42.8308" lon="2.5996733"><ele>352.6</ele><time>2026-04-26T05:58:01.73Z</time></trkpt><trkpt lat="42.8308683" lon="2.59978"><ele>353.4</ele><time>2026-04-26T05:58:02.729Z</time></trkpt><trkpt lat="42.8309367" lon="2.59986"><ele>354.2</ele><time>2026-04-26T05:58:03.729Z</time></trkpt><trkpt lat="42.8310133" lon="2.59992"><ele>355.0</ele><time>2026-04-26T05:58:04.728Z</time></trkpt><trkpt lat="42.8310917" lon="2.5999567"><ele>355.0</ele><time>2026-04-26T05:58:05.729Z</time></trkpt><trkpt lat="42.8311767" lon="2.59996"><ele>355.0</ele><time>2026-04-26T05:58:06.728Z</time></trkpt><trkpt lat="42.83126" lon="2.59997"><ele>355.0</ele><time>2026-04-26T05:58:07.729Z</time></trkpt><trkpt lat="42.8313367" lon="2.60001"><ele>355.0</ele><time>2026-04-26T05:58:08.731Z</time></trkpt><trkpt lat="42.8313883" lon="2.600125"><ele>355.0</ele><time>2026-04-26T05:58:09.731Z</time></trkpt><trkpt lat="42.8314317" lon="2.60025"><ele>353.0</ele><time>2026-04-26T05:58:10.729Z</time></trkpt><trkpt lat="42.8314583" lon="2.60037"><ele>351.0</ele><time>2026-04-26T05:58:11.728Z</time></trkpt><trkpt lat="42.8314633" lon="2.6004783"><ele>349.0</ele><time>2026-04-26T05:58:12.731Z</time></trkpt><trkpt lat="42.8314483" lon="2.6005767"><ele>347.0</ele><time>2026-04-26T05:58:13.728Z</time></trkpt><trkpt lat="42.8314183" lon="2.6006733"><ele>345.0</ele><time>2026-04-26T05:58:14.728Z</time></trkpt><trkpt lat="42.8313867" lon="2.60077"><ele>343.0</ele><time>2026-04-26T05:58:15.727Z</time></trkpt><trkpt lat="42.8313717" lon="2.6008717"><ele>343.0</ele><time>2026-04-26T05:58:16.728Z</time></trkpt><trkpt lat="42.8313833" lon="2.6009683"><ele>343.0</ele><time>2026-04-26T05:58:17.734Z</time></trkpt><trkpt lat="42.8314217" lon="2.60106"><ele>343.0</ele><time>2026-04-26T05:58:18.728Z</time></trkpt><trkpt lat="42.8314767" lon="2.6011433"><ele>343.0</ele><time>2026-04-26T05:58:19.73Z</time></trkpt><trkpt lat="42.8315517" lon="2.6012083"><ele>343.0</ele><time>2026-04-26T05:58:20.728Z</time></trkpt><trkpt lat="42.8316283" lon="2.6012583"><ele>343.0</ele><time>2026-04-26T05:58:21.73Z</time></trkpt><trkpt lat="42.8316967" lon="2.6013"><ele>341.59999999999997</ele><time>2026-04-26T05:58:22.73Z</time></trkpt><trkpt lat="42.8317917" lon="2.6013567"><ele>340.2</ele><time>2026-04-26T05:58:24.729Z</time></trkpt><trkpt lat="42.8317717" lon="2.6014917"><ele>338.8</ele><time>2026-04-26T05:58:26.728Z</time></trkpt><trkpt lat="42.8317517" lon="2.6015833"><ele>337.4</ele><time>2026-04-26T05:58:27.731Z</time></trkpt><trkpt lat="42.8317183" lon="2.6017"><ele>336.0</ele><time>2026-04-26T05:58:28.728Z</time></trkpt><trkpt lat="42.8316733" lon="2.601855"><ele>334.25</ele><time>2026-04-26T05:58:29.727Z</time></trkpt><trkpt lat="42.8316433" lon="2.602025"><ele>332.5</ele><time>2026-04-26T05:58:30.729Z</time></trkpt><trkpt lat="42.8316333" lon="2.6021817"><ele>330.75</ele><time>2026-04-26T05:58:31.728Z</time></trkpt><trkpt lat="42.83164" lon="2.60233"><ele>329.0</ele><time>2026-04-26T05:58:32.729Z</time></trkpt><trkpt lat="42.83166" lon="2.60247"><ele>329.0</ele><time>2026-04-26T05:58:33.733Z</time></trkpt><trkpt lat="42.831695" lon="2.6025967"><ele>329.0</ele><time>2026-04-26T05:58:34.729Z</time></trkpt><trkpt lat="42.83174" lon="2.6026983"><ele>329.0</ele><time>2026-04-26T05:58:35.728Z</time></trkpt><trkpt lat="42.8317983" lon="2.6027717"><ele>329.0</ele><time>2026-04-26T05:58:36.728Z</time></trkpt><trkpt lat="42.8318633" lon="2.6028183"><ele>329.0</ele><time>2026-04-26T05:58:37.727Z</time></trkpt><trkpt lat="42.8319217" lon="2.6028517"><ele>329.0</ele><time>2026-04-26T05:58:38.731Z</time></trkpt><trkpt lat="42.8319933" lon="2.6029617"><ele>332.5</ele><time>2026-04-26T05:58:40.728Z</time></trkpt><trkpt lat="42.8319983" lon="2.6030517"><ele>336.0</ele><time>2026-04-26T05:58:41.729Z</time></trkpt><trkpt lat="42.831995" lon="2.60315"><ele>339.5</ele><time>2026-04-26T05:58:42.727Z</time></trkpt><trkpt lat="42.8320033" lon="2.6032467"><ele>343.0</ele><time>2026-04-26T05:58:43.728Z</time></trkpt><trkpt lat="42.8320317" lon="2.60335"><ele>346.5</ele><time>2026-04-26T05:58:44.728Z</time></trkpt><trkpt lat="42.8320567" lon="2.6034583"><ele>350.0</ele><time>2026-04-26T05:58:45.727Z</time></trkpt><trkpt lat="42.8320617" lon="2.603585"><ele>349.0</ele><time>2026-04-26T05:58:46.728Z</time></trkpt><trkpt lat="42.8320617" lon="2.6037183"><ele>348.0</ele><time>2026-04-26T05:58:47.729Z</time></trkpt><trkpt lat="42.8320683" lon="2.6038483"><ele>347.0</ele><time>2026-04-26T05:58:48.73Z</time></trkpt><trkpt lat="42.8320917" lon="2.6039617"><ele>346.0</ele><time>2026-04-26T05:58:49.728Z</time></trkpt><trkpt lat="42.8321283" lon="2.6040533"><ele>345.0</ele><time>2026-04-26T05:58:50.729Z</time></trkpt><trkpt lat="42.8321833" lon="2.60413"><ele>344.0</ele><time>2026-04-26T05:58:51.729Z</time></trkpt><trkpt lat="42.8322517" lon="2.604205"><ele>344.0</ele><time>2026-04-26T05:58:52.729Z</time></trkpt><trkpt lat="42.8323133" lon="2.6042883"><ele>344.0</ele><time>2026-04-26T05:58:53.73Z</time></trkpt><trkpt lat="42.8323667" lon="2.604385"><ele>344.0</ele><time>2026-04-26T05:58:54.729Z</time></trkpt><trkpt lat="42.8324083" lon="2.6045117"><ele>344.0</ele><time>2026-04-26T05:58:55.729Z</time></trkpt><trkpt lat="42.832455" lon="2.6046433"><ele>344.0</ele><time>2026-04-26T05:58:56.728Z</time></trkpt><trkpt lat="42.8325033" lon="2.6047683"><ele>341.4</ele><time>2026-04-26T05:58:57.728Z</time></trkpt><trkpt lat="42.8325533" lon="2.6048933"><ele>338.79999999999995</ele><time>2026-04-26T05:58:58.729Z</time></trkpt><trkpt lat="42.8325917" lon="2.6050183"><ele>336.20000000000005</ele><time>2026-04-26T05:58:59.73Z</time></trkpt><trkpt lat="42.8326117" lon="2.6051533"><ele>333.6</ele><time>2026-04-26T05:59:00.729Z</time></trkpt><trkpt lat="42.832615" lon="2.605285"><ele>331.0</ele><time>2026-04-26T05:59:01.729Z</time></trkpt><trkpt lat="42.8326217" lon="2.60542"><ele>328.5</ele><time>2026-04-26T05:59:02.729Z</time></trkpt><trkpt lat="42.8326367" lon="2.60557"><ele>326.0</ele><time>2026-04-26T05:59:03.727Z</time></trkpt><trkpt lat="42.8326533" lon="2.605725"><ele>323.5</ele><time>2026-04-26T05:59:04.729Z</time></trkpt><trkpt lat="42.8326717" lon="2.6058767"><ele>321.0</ele><time>2026-04-26T05:59:05.73Z</time></trkpt><trkpt lat="42.8326917" lon="2.6060283"><ele>321.0</ele><time>2026-04-26T05:59:06.732Z</time></trkpt><trkpt lat="42.8326933" lon="2.6061817"><ele>321.0</ele><time>2026-04-26T05:59:07.729Z</time></trkpt><trkpt lat="42.8326767" lon="2.6063283"><ele>321.0</ele><time>2026-04-26T05:59:08.729Z</time></trkpt><trkpt lat="42.8326467" lon="2.6064667"><ele>321.0</ele><time>2026-04-26T05:59:09.729Z</time></trkpt><trkpt lat="42.8326133" lon="2.606595"><ele>321.0</ele><time>2026-04-26T05:59:10.731Z</time></trkpt><trkpt lat="42.8325817" lon="2.6067167"><ele>321.0</ele><time>2026-04-26T05:59:11.729Z</time></trkpt><trkpt lat="42.83256" lon="2.606835"><ele>321.0</ele><time>2026-04-26T05:59:12.73Z</time></trkpt><trkpt lat="42.8325533" lon="2.606955"><ele>321.0</ele><time>2026-04-26T05:59:13.729Z</time></trkpt><trkpt lat="42.83257" lon="2.60708"><ele>321.0</ele><time>2026-04-26T05:59:14.729Z</time></trkpt><trkpt lat="42.8326" lon="2.6072133"><ele>321.0</ele><time>2026-04-26T05:59:15.728Z</time></trkpt><trkpt lat="42.8326317" lon="2.6073433"><ele>324.5</ele><time>2026-04-26T05:59:16.728Z</time></trkpt><trkpt lat="42.8326483" lon="2.6074667"><ele>328.0</ele><time>2026-04-26T05:59:17.729Z</time></trkpt><trkpt lat="42.8326517" lon="2.6075883"><ele>331.5</ele><time>2026-04-26T05:59:18.731Z</time></trkpt><trkpt lat="42.832655" lon="2.6076967"><ele>335.0</ele><time>2026-04-26T05:59:19.735Z</time></trkpt><trkpt lat="42.83267" lon="2.6077917"><ele>338.5</ele><time>2026-04-26T05:59:20.728Z</time></trkpt><trkpt lat="42.8327" lon="2.60788"><ele>342.0</ele><time>2026-04-26T05:59:21.729Z</time></trkpt><trkpt lat="42.8327483" lon="2.6079633"><ele>342.0</ele><time>2026-04-26T05:59:22.73Z</time></trkpt><trkpt lat="42.8328117" lon="2.6080483"><ele>342.0</ele><time>2026-04-26T05:59:23.728Z</time></trkpt><trkpt lat="42.83288" lon="2.6081367"><ele>342.0</ele><time>2026-04-26T05:59:24.728Z</time></trkpt><trkpt lat="42.8329617" lon="2.6082367"><ele>342.0</ele><time>2026-04-26T05:59:25.734Z</time></trkpt><trkpt lat="42.8330367" lon="2.608345"><ele>342.0</ele><time>2026-04-26T05:59:26.73Z</time></trkpt><trkpt lat="42.833115" lon="2.6084433"><ele>342.0</ele><time>2026-04-26T05:59:27.727Z</time></trkpt><trkpt lat="42.83318" lon="2.6085217"><ele>342.0</ele><time>2026-04-26T05:59:28.728Z</time></trkpt><trkpt lat="42.8332267" lon="2.608595"><ele>342.0</ele><time>2026-04-26T05:59:29.732Z</time></trkpt><trkpt lat="42.833255" lon="2.6087467"><ele>342.0</ele><time>2026-04-26T05:59:31.729Z</time></trkpt><trkpt lat="42.8332317" lon="2.6088267"><ele>342.0</ele><time>2026-04-26T05:59:32.728Z</time></trkpt><trkpt lat="42.83318" lon="2.6089067"><ele>342.0</ele><time>2026-04-26T05:59:33.727Z</time></trkpt><trkpt lat="42.8331167" lon="2.608995"><ele>341.20000000000005</ele><time>2026-04-26T05:59:34.727Z</time></trkpt><trkpt lat="42.8330583" lon="2.6091017"><ele>340.4</ele><time>2026-04-26T05:59:35.727Z</time></trkpt><trkpt lat="42.8330183" lon="2.60923"><ele>339.6</ele><time>2026-04-26T05:59:36.728Z</time></trkpt><trkpt lat="42.83299" lon="2.6093683"><ele>338.79999999999995</ele><time>2026-04-26T05:59:37.728Z</time></trkpt><trkpt lat="42.8329567" lon="2.6095117"><ele>338.0</ele><time>2026-04-26T05:59:38.73Z</time></trkpt><trkpt lat="42.8329133" lon="2.60965"><ele>338.0</ele><time>2026-04-26T05:59:39.728Z</time></trkpt><trkpt lat="42.8328617" lon="2.60978"><ele>338.0</ele><time>2026-04-26T05:59:40.728Z</time></trkpt><trkpt lat="42.8328133" lon="2.6099167"><ele>338.0</ele><time>2026-04-26T05:59:41.727Z</time></trkpt><trkpt lat="42.8327683" lon="2.6100583"><ele>338.0</ele><time>2026-04-26T05:59:42.73Z</time></trkpt><trkpt lat="42.832715" lon="2.61021"><ele>339.79999999999995</ele><time>2026-04-26T05:59:43.729Z</time></trkpt><trkpt lat="42.8326683" lon="2.6103617"><ele>341.6</ele><time>2026-04-26T05:59:44.729Z</time></trkpt><trkpt lat="42.8326383" lon="2.6105033"><ele>343.4</ele><time>2026-04-26T05:59:45.729Z</time></trkpt><trkpt lat="42.83262" lon="2.6106367"><ele>345.20000000000005</ele><time>2026-04-26T05:59:46.729Z</time></trkpt><trkpt lat="42.8325917" lon="2.61076"><ele>347.0</ele><time>2026-04-26T05:59:47.727Z</time></trkpt><trkpt lat="42.832555" lon="2.6108817"><ele>338.20000000000005</ele><time>2026-04-26T05:59:48.729Z</time></trkpt><trkpt lat="42.8325233" lon="2.6110083"><ele>329.40000000000003</ele><time>2026-04-26T05:59:49.728Z</time></trkpt><trkpt lat="42.8325067" lon="2.6111383"><ele>320.6</ele><time>2026-04-26T05:59:50.729Z</time></trkpt><trkpt lat="42.8325067" lon="2.61127"><ele>311.8</ele><time>2026-04-26T05:59:51.729Z</time></trkpt><trkpt lat="42.8325133" lon="2.6114017"><ele>303.0</ele><time>2026-04-26T05:59:52.729Z</time></trkpt><trkpt lat="42.83253" lon="2.6115233"><ele>303.0</ele><time>2026-04-26T05:59:53.728Z</time></trkpt><trkpt lat="42.83255" lon="2.6116333"><ele>303.0</ele><time>2026-04-26T05:59:54.729Z</time></trkpt><trkpt lat="42.83257" lon="2.6117417"><ele>303.0</ele><time>2026-04-26T05:59:55.729Z</time></trkpt><trkpt lat="42.8325717" lon="2.6118533"><ele>303.0</ele><time>2026-04-26T05:59:56.729Z</time></trkpt><trkpt lat="42.832545" lon="2.611965"><ele>303.0</ele><time>2026-04-26T05:59:57.729Z</time></trkpt><trkpt lat="42.832495" lon="2.6120733"><ele>303.0</ele><time>2026-04-26T05:59:58.729Z</time></trkpt><trkpt lat="42.8324267" lon="2.6121833"><ele>304.4</ele><time>2026-04-26T05:59:59.729Z</time></trkpt><trkpt lat="42.8323567" lon="2.6123"><ele>305.8</ele><time>2026-04-26T06:00:00.728Z</time></trkpt><trkpt lat="42.8322817" lon="2.61242"><ele>307.2</ele><time>2026-04-26T06:00:01.729Z</time></trkpt><trkpt lat="42.832215" lon="2.6125367"><ele>308.6</ele><time>2026-04-26T06:00:02.728Z</time></trkpt><trkpt lat="42.8321533" lon="2.6126333"><ele>310.0</ele><time>2026-04-26T06:00:03.729Z</time></trkpt><trkpt lat="42.8320883" lon="2.6127183"><ele>310.0</ele><time>2026-04-26T06:00:04.729Z</time></trkpt><trkpt lat="42.8320167" lon="2.6127833"><ele>310.0</ele><time>2026-04-26T06:00:05.728Z</time></trkpt><trkpt lat="42.8319517" lon="2.6128283"><ele>310.0</ele><time>2026-04-26T06:00:06.729Z</time></trkpt><trkpt lat="42.8318567" lon="2.612915"><ele>310.0</ele><time>2026-04-26T06:00:08.728Z</time></trkpt><trkpt lat="42.8318433" lon="2.6130167"><ele>310.0</ele><time>2026-04-26T06:00:10.729Z</time></trkpt><trkpt lat="42.8319367" lon="2.6131217"><ele>309.5</ele><time>2026-04-26T06:00:12.73Z</time></trkpt><trkpt lat="42.832015" lon="2.6131933"><ele>309.0</ele><time>2026-04-26T06:00:13.73Z</time></trkpt><trkpt lat="42.8320933" lon="2.6132683"><ele>308.5</ele><time>2026-04-26T06:00:14.729Z</time></trkpt><trkpt lat="42.8321667" lon="2.6133533"><ele>308.0</ele><time>2026-04-26T06:00:15.728Z</time></trkpt><trkpt lat="42.832215" lon="2.6134433"><ele>307.5</ele><time>2026-04-26T06:00:16.732Z</time></trkpt><trkpt lat="42.83225" lon="2.6135317"><ele>307.0</ele><time>2026-04-26T06:00:17.728Z</time></trkpt><trkpt lat="42.8322683" lon="2.6136317"><ele>307.25</ele><time>2026-04-26T06:00:18.729Z</time></trkpt><trkpt lat="42.832275" lon="2.61375"><ele>307.5</ele><time>2026-04-26T06:00:19.729Z</time></trkpt><trkpt lat="42.8322567" lon="2.61389"><ele>307.75</ele><time>2026-04-26T06:00:20.729Z</time></trkpt><trkpt lat="42.8322233" lon="2.6140517"><ele>308.0</ele><time>2026-04-26T06:00:21.729Z</time></trkpt><trkpt lat="42.8321833" lon="2.6142283"><ele>308.0</ele><time>2026-04-26T06:00:22.73Z</time></trkpt><trkpt lat="42.83214" lon="2.614405"><ele>308.0</ele><time>2026-04-26T06:00:23.728Z</time></trkpt><trkpt lat="42.8320983" lon="2.6145717"><ele>308.0</ele><time>2026-04-26T06:00:24.728Z</time></trkpt><trkpt lat="42.8320517" lon="2.614725"><ele>308.0</ele><time>2026-04-26T06:00:25.729Z</time></trkpt><trkpt lat="42.8320017" lon="2.6148617"><ele>310.0</ele><time>2026-04-26T06:00:26.729Z</time></trkpt><trkpt lat="42.8319433" lon="2.6149983"><ele>312.0</ele><time>2026-04-26T06:00:27.73Z</time></trkpt><trkpt lat="42.831895" lon="2.6151483"><ele>314.0</ele><time>2026-04-26T06:00:28.728Z</time></trkpt><trkpt lat="42.8318517" lon="2.615305"><ele>316.0</ele><time>2026-04-26T06:00:29.729Z</time></trkpt><trkpt lat="42.831825" lon="2.6154533"><ele>316.5</ele><time>2026-04-26T06:00:30.728Z</time></trkpt><trkpt lat="42.831815" lon="2.615585"><ele>317.0</ele><time>2026-04-26T06:00:31.732Z</time></trkpt><trkpt lat="42.831825" lon="2.6157033"><ele>317.5</ele><time>2026-04-26T06:00:32.728Z</time></trkpt><trkpt lat="42.831845" lon="2.61581"><ele>318.0</ele><time>2026-04-26T06:00:33.731Z</time></trkpt><trkpt lat="42.8318833" lon="2.6158983"><ele>318.5</ele><time>2026-04-26T06:00:34.727Z</time></trkpt><trkpt lat="42.8319183" lon="2.6159883"><ele>319.0</ele><time>2026-04-26T06:00:35.73Z</time></trkpt><trkpt lat="42.83193" lon="2.61608"><ele>318.0</ele><time>2026-04-26T06:00:36.729Z</time></trkpt><trkpt lat="42.8319267" lon="2.616175"><ele>317.0</ele><time>2026-04-26T06:00:37.729Z</time></trkpt><trkpt lat="42.8319083" lon="2.6162617"><ele>316.0</ele><time>2026-04-26T06:00:38.729Z</time></trkpt><trkpt lat="42.83182" lon="2.6163533"><ele>315.0</ele><time>2026-04-26T06:00:40.728Z</time></trkpt><trkpt lat="42.8317417" lon="2.6163583"><ele>314.0</ele><time>2026-04-26T06:00:41.728Z</time></trkpt><trkpt lat="42.831635" lon="2.61637"><ele>313.0</ele><time>2026-04-26T06:00:42.728Z</time></trkpt><trkpt lat="42.831525" lon="2.6163817"><ele>313.0</ele><time>2026-04-26T06:00:43.729Z</time></trkpt><trkpt lat="42.831425" lon="2.6163867"><ele>313.0</ele><time>2026-04-26T06:00:44.729Z</time></trkpt><trkpt lat="42.8313317" lon="2.6163733"><ele>313.0</ele><time>2026-04-26T06:00:45.729Z</time></trkpt><trkpt lat="42.8312417" lon="2.6163333"><ele>313.0</ele><time>2026-04-26T06:00:46.729Z</time></trkpt><trkpt lat="42.8311533" lon="2.6162717"><ele>313.0</ele><time>2026-04-26T06:00:47.729Z</time></trkpt><trkpt lat="42.8310617" lon="2.6162067"><ele>307.0</ele><time>2026-04-26T06:00:48.729Z</time></trkpt><trkpt lat="42.830965" lon="2.6161233"><ele>301.0</ele><time>2026-04-26T06:00:49.728Z</time></trkpt><trkpt lat="42.8308683" lon="2.61603"><ele>295.0</ele><time>2026-04-26T06:00:50.729Z</time></trkpt><trkpt lat="42.8307717" lon="2.6159417"><ele>289.0</ele><time>2026-04-26T06:00:51.729Z</time></trkpt><trkpt lat="42.830675" lon="2.6158617"><ele>289.0</ele><time>2026-04-26T06:00:52.729Z</time></trkpt><trkpt lat="42.83058" lon="2.6157983"><ele>289.0</ele><time>2026-04-26T06:00:53.73Z</time></trkpt><trkpt lat="42.8304717" lon="2.615745"><ele>289.0</ele><time>2026-04-26T06:00:54.73Z</time></trkpt><trkpt lat="42.8303583" lon="2.615695"><ele>289.0</ele><time>2026-04-26T06:00:55.73Z</time></trkpt><trkpt lat="42.8302533" lon="2.61565"><ele>289.0</ele><time>2026-04-26T06:00:56.729Z</time></trkpt><trkpt lat="42.8301567" lon="2.6156117"><ele>289.0</ele><time>2026-04-26T06:00:57.729Z</time></trkpt><trkpt lat="42.8300717" lon="2.6155933"><ele>289.0</ele><time>2026-04-26T06:00:58.728Z</time></trkpt><trkpt lat="42.8299867" lon="2.6155867"><ele>289.0</ele><time>2026-04-26T06:00:59.73Z</time></trkpt><trkpt lat="42.8299017" lon="2.6156033"><ele>289.0</ele><time>2026-04-26T06:01:00.729Z</time></trkpt><trkpt lat="42.8298183" lon="2.6156383"><ele>289.0</ele><time>2026-04-26T06:01:01.73Z</time></trkpt><trkpt lat="42.8297433" lon="2.6156833"><ele>291.3333333333333</ele><time>2026-04-26T06:01:02.731Z</time></trkpt><trkpt lat="42.82968" lon="2.61574"><ele>293.66666666666663</ele><time>2026-04-26T06:01:03.73Z</time></trkpt><trkpt lat="42.82963" lon="2.615805"><ele>296.0</ele><time>2026-04-26T06:01:04.729Z</time></trkpt><trkpt lat="42.8295733" lon="2.6159383"><ele>298.3333333333333</ele><time>2026-04-26T06:01:06.731Z</time></trkpt><trkpt lat="42.8295567" lon="2.6160383"><ele>300.6666666666667</ele><time>2026-04-26T06:01:07.73Z</time></trkpt><trkpt lat="42.8295383" lon="2.61615"><ele>303.0</ele><time>2026-04-26T06:01:08.729Z</time></trkpt><trkpt lat="42.82953" lon="2.6162717"><ele>306.8</ele><time>2026-04-26T06:01:09.729Z</time></trkpt><trkpt lat="42.8295317" lon="2.6164183"><ele>310.6</ele><time>2026-04-26T06:01:10.73Z</time></trkpt><trkpt lat="42.8295367" lon="2.6165633"><ele>314.40000000000003</ele><time>2026-04-26T06:01:11.729Z</time></trkpt><trkpt lat="42.82954" lon="2.616705"><ele>318.20000000000005</ele><time>2026-04-26T06:01:12.729Z</time></trkpt><trkpt lat="42.8295333" lon="2.6168367"><ele>322.0</ele><time>2026-04-26T06:01:13.731Z</time></trkpt><trkpt lat="42.8295167" lon="2.6169467"><ele>322.5</ele><time>2026-04-26T06:01:14.729Z</time></trkpt><trkpt lat="42.8294833" lon="2.617045"><ele>323.0</ele><time>2026-04-26T06:01:15.727Z</time></trkpt><trkpt lat="42.8294383" lon="2.617125"><ele>323.5</ele><time>2026-04-26T06:01:16.729Z</time></trkpt><trkpt lat="42.82941" lon="2.6172283"><ele>324.0</ele><time>2026-04-26T06:01:17.729Z</time></trkpt><trkpt lat="42.829395" lon="2.6173467"><ele>324.5</ele><time>2026-04-26T06:01:18.729Z</time></trkpt><trkpt lat="42.82938" lon="2.6174667"><ele>325.0</ele><time>2026-04-26T06:01:19.728Z</time></trkpt><trkpt lat="42.8293733" lon="2.6175967"><ele>325.0</ele><time>2026-04-26T06:01:20.728Z</time></trkpt><trkpt lat="42.82937" lon="2.61774"><ele>325.0</ele><time>2026-04-26T06:01:21.729Z</time></trkpt><trkpt lat="42.829365" lon="2.6178867"><ele>325.0</ele><time>2026-04-26T06:01:22.727Z</time></trkpt><trkpt lat="42.8293567" lon="2.6180317"><ele>325.0</ele><time>2026-04-26T06:01:23.728Z</time></trkpt><trkpt lat="42.8293467" lon="2.618175"><ele>325.0</ele><time>2026-04-26T06:01:24.728Z</time></trkpt><trkpt lat="42.8293317" lon="2.6183"><ele>322.2</ele><time>2026-04-26T06:01:25.729Z</time></trkpt><trkpt lat="42.8293167" lon="2.618425"><ele>319.4</ele><time>2026-04-26T06:01:26.729Z</time></trkpt><trkpt lat="42.8293083" lon="2.618545"><ele>316.6</ele><time>2026-04-26T06:01:27.728Z</time></trkpt><trkpt lat="42.82931" lon="2.6186533"><ele>313.8</ele><time>2026-04-26T06:01:28.727Z</time></trkpt><trkpt lat="42.8293367" lon="2.6187967"><ele>311.0</ele><time>2026-04-26T06:01:30.729Z</time></trkpt><trkpt lat="42.8294033" lon="2.6188817"><ele>306.0</ele><time>2026-04-26T06:01:32.728Z</time></trkpt><trkpt lat="42.8295317" lon="2.6188867"><ele>301.0</ele><time>2026-04-26T06:01:34.728Z</time></trkpt><trkpt lat="42.8296017" lon="2.6188683"><ele>296.0</ele><time>2026-04-26T06:01:35.727Z</time></trkpt><trkpt lat="42.8296717" lon="2.618825"><ele>291.0</ele><time>2026-04-26T06:01:36.728Z</time></trkpt><trkpt lat="42.829755" lon="2.6187817"><ele>286.0</ele><time>2026-04-26T06:01:37.729Z</time></trkpt><trkpt lat="42.8298333" lon="2.6187217"><ele>289.8</ele><time>2026-04-26T06:01:38.729Z</time></trkpt><trkpt lat="42.8299167" lon="2.61864"><ele>293.6</ele><time>2026-04-26T06:01:39.728Z</time></trkpt><trkpt lat="42.8299933" lon="2.6185333"><ele>297.4</ele><time>2026-04-26T06:01:40.728Z</time></trkpt><trkpt lat="42.8300667" lon="2.618425"><ele>301.2</ele><time>2026-04-26T06:01:41.729Z</time></trkpt><trkpt lat="42.8301333" lon="2.6183217"><ele>305.0</ele><time>2026-04-26T06:01:42.728Z</time></trkpt><trkpt lat="42.8302017" lon="2.6182167"><ele>305.0</ele><time>2026-04-26T06:01:43.729Z</time></trkpt><trkpt lat="42.83028" lon="2.618125"><ele>305.0</ele><time>2026-04-26T06:01:44.728Z</time></trkpt><trkpt lat="42.8303617" lon="2.6180567"><ele>305.0</ele><time>2026-04-26T06:01:45.728Z</time></trkpt><trkpt lat="42.830445" lon="2.6180217"><ele>305.0</ele><time>2026-04-26T06:01:46.729Z</time></trkpt><trkpt lat="42.8305383" lon="2.6180167"><ele>305.0</ele><time>2026-04-26T06:01:47.728Z</time></trkpt><trkpt lat="42.8306317" lon="2.6180483"><ele>305.0</ele><time>2026-04-26T06:01:48.728Z</time></trkpt><trkpt lat="42.830725" lon="2.6181083"><ele>305.0</ele><time>2026-04-26T06:01:49.729Z</time></trkpt><trkpt lat="42.8308233" lon="2.61818"><ele>305.0</ele><time>2026-04-26T06:01:50.728Z</time></trkpt><trkpt lat="42.8309133" lon="2.6182483"><ele>305.0</ele><time>2026-04-26T06:01:51.728Z</time></trkpt><trkpt lat="42.830985" lon="2.61831"><ele>305.0</ele><time>2026-04-26T06:01:52.728Z</time></trkpt><trkpt lat="42.8310567" lon="2.6183617"><ele>306.4</ele><time>2026-04-26T06:01:53.727Z</time></trkpt><trkpt lat="42.831125" lon="2.61839"><ele>307.8</ele><time>2026-04-26T06:01:54.728Z</time></trkpt><trkpt lat="42.8312033" lon="2.618395"><ele>309.2</ele><time>2026-04-26T06:01:55.728Z</time></trkpt><trkpt lat="42.8313" lon="2.6183733"><ele>310.6</ele><time>2026-04-26T06:01:56.73Z</time></trkpt><trkpt lat="42.8314033" lon="2.618345"><ele>312.0</ele><time>2026-04-26T06:01:57.73Z</time></trkpt><trkpt lat="42.831505" lon="2.6183133"><ele>312.0</ele><time>2026-04-26T06:01:58.728Z</time></trkpt><trkpt lat="42.8315967" lon="2.61829"><ele>312.0</ele><time>2026-04-26T06:01:59.729Z</time></trkpt><trkpt lat="42.8316733" lon="2.6182817"><ele>312.0</ele><time>2026-04-26T06:02:00.729Z</time></trkpt><trkpt lat="42.8317417" lon="2.61829"><ele>312.0</ele><time>2026-04-26T06:02:01.729Z</time></trkpt><trkpt lat="42.831835" lon="2.618375"><ele>312.0</ele><time>2026-04-26T06:02:03.73Z</time></trkpt><trkpt lat="42.831845" lon="2.6184617"><ele>312.0</ele><time>2026-04-26T06:02:04.728Z</time></trkpt><trkpt lat="42.83184" lon="2.618565"><ele>310.6666666666667</ele><time>2026-04-26T06:02:05.728Z</time></trkpt><trkpt lat="42.831815" lon="2.618675"><ele>309.3333333333333</ele><time>2026-04-26T06:02:06.729Z</time></trkpt><trkpt lat="42.83181" lon="2.6187817"><ele>308.0</ele><time>2026-04-26T06:02:07.729Z</time></trkpt><trkpt lat="42.8318317" lon="2.618875"><ele>306.66666666666663</ele><time>2026-04-26T06:02:08.729Z</time></trkpt><trkpt lat="42.8318633" lon="2.6189633"><ele>305.3333333333333</ele><time>2026-04-26T06:02:09.729Z</time></trkpt><trkpt lat="42.83188" lon="2.6191267"><ele>304.0</ele><time>2026-04-26T06:02:11.729Z</time></trkpt><trkpt lat="42.8318067" lon="2.619295"><ele>304.0</ele><time>2026-04-26T06:02:13.731Z</time></trkpt><trkpt lat="42.831755" lon="2.61941"><ele>304.0</ele><time>2026-04-26T06:02:14.729Z</time></trkpt><trkpt lat="42.83171" lon="2.6195283"><ele>304.0</ele><time>2026-04-26T06:02:15.728Z</time></trkpt><trkpt lat="42.8316867" lon="2.6196517"><ele>304.0</ele><time>2026-04-26T06:02:16.728Z</time></trkpt><trkpt lat="42.8316883" lon="2.61978"><ele>304.0</ele><time>2026-04-26T06:02:17.727Z</time></trkpt><trkpt lat="42.831695" lon="2.6199033"><ele>304.8333333333333</ele><time>2026-04-26T06:02:18.729Z</time></trkpt><trkpt lat="42.8316867" lon="2.620015"><ele>305.66666666666663</ele><time>2026-04-26T06:02:19.729Z</time></trkpt><trkpt lat="42.831665" lon="2.62012"><ele>306.5</ele><time>2026-04-26T06:02:20.73Z</time></trkpt><trkpt lat="42.8316183" lon="2.6202067"><ele>307.3333333333333</ele><time>2026-04-26T06:02:21.729Z</time></trkpt><trkpt lat="42.83155" lon="2.6202717"><ele>308.1666666666667</ele><time>2026-04-26T06:02:22.729Z</time></trkpt><trkpt lat="42.831485" lon="2.6203283"><ele>309.0</ele><time>2026-04-26T06:02:23.727Z</time></trkpt><trkpt lat="42.8314283" lon="2.6204017"><ele>310.0</ele><time>2026-04-26T06:02:24.727Z</time></trkpt><trkpt lat="42.83139" lon="2.6204933"><ele>311.0</ele><time>2026-04-26T06:02:25.728Z</time></trkpt><trkpt lat="42.83136" lon="2.62061"><ele>312.0</ele><time>2026-04-26T06:02:26.728Z</time></trkpt><trkpt lat="42.8313567" lon="2.62075"><ele>313.0</ele><time>2026-04-26T06:02:27.727Z</time></trkpt><trkpt lat="42.8313733" lon="2.6209"><ele>314.0</ele><time>2026-04-26T06:02:28.73Z</time></trkpt><trkpt lat="42.8314" lon="2.621055"><ele>313.6666666666667</ele><time>2026-04-26T06:02:29.729Z</time></trkpt><trkpt lat="42.8314267" lon="2.6212017"><ele>313.33333333333337</ele><time>2026-04-26T06:02:30.729Z</time></trkpt><trkpt lat="42.83146" lon="2.6213283"><ele>313.0</ele><time>2026-04-26T06:02:31.73Z</time></trkpt><trkpt lat="42.8315" lon="2.62143"><ele>312.6666666666667</ele><time>2026-04-26T06:02:32.728Z</time></trkpt><trkpt lat="42.8315417" lon="2.6215133"><ele>312.3333333333333</ele><time>2026-04-26T06:02:33.728Z</time></trkpt><trkpt lat="42.8315833" lon="2.6215783"><ele>312.0</ele><time>2026-04-26T06:02:34.728Z</time></trkpt><trkpt lat="42.8316117" lon="2.621705"><ele>312.0</ele><time>2026-04-26T06:02:36.732Z</time></trkpt><trkpt lat="42.8315233" lon="2.6218467"><ele>312.0</ele><time>2026-04-26T06:02:38.729Z</time></trkpt><trkpt lat="42.8314517" lon="2.6219367"><ele>312.0</ele><time>2026-04-26T06:02:39.729Z</time></trkpt><trkpt lat="42.83138" lon="2.6220417"><ele>312.0</ele><time>2026-04-26T06:02:40.728Z</time></trkpt><trkpt lat="42.8313183" lon="2.62216"><ele>312.0</ele><time>2026-04-26T06:02:41.729Z</time></trkpt><trkpt lat="42.8312767" lon="2.62228"><ele>312.4</ele><time>2026-04-26T06:02:42.731Z</time></trkpt><trkpt lat="42.8312517" lon="2.622405"><ele>312.79999999999995</ele><time>2026-04-26T06:02:43.729Z</time></trkpt><trkpt lat="42.831245" lon="2.6225567"><ele>313.2</ele><time>2026-04-26T06:02:44.728Z</time></trkpt><trkpt lat="42.8312517" lon="2.6226967"><ele>313.59999999999997</ele><time>2026-04-26T06:02:45.727Z</time></trkpt><trkpt lat="42.8312633" lon="2.6228467"><ele>314.0</ele><time>2026-04-26T06:02:46.729Z</time></trkpt><trkpt lat="42.83129" lon="2.6229883"><ele>314.0</ele><time>2026-04-26T06:02:47.728Z</time></trkpt><trkpt lat="42.8313317" lon="2.6231183"><ele>314.0</ele><time>2026-04-26T06:02:48.729Z</time></trkpt><trkpt lat="42.83139" lon="2.6232367"><ele>314.0</ele><time>2026-04-26T06:02:49.728Z</time></trkpt><trkpt lat="42.831445" lon="2.6233417"><ele>314.0</ele><time>2026-04-26T06:02:50.728Z</time></trkpt><trkpt lat="42.8314833" lon="2.6234317"><ele>314.0</ele><time>2026-04-26T06:02:51.731Z</time></trkpt><trkpt lat="42.831485" lon="2.62357"><ele>314.33333333333337</ele><time>2026-04-26T06:02:53.729Z</time></trkpt><trkpt lat="42.8314033" lon="2.6236967"><ele>314.6666666666667</ele><time>2026-04-26T06:02:55.729Z</time></trkpt><trkpt lat="42.8313567" lon="2.623775"><ele>315.0</ele><time>2026-04-26T06:02:56.728Z</time></trkpt><trkpt lat="42.831325" lon="2.623875"><ele>315.3333333333333</ele><time>2026-04-26T06:02:57.728Z</time></trkpt><trkpt lat="42.8313117" lon="2.6239733"><ele>315.66666666666663</ele><time>2026-04-26T06:02:58.728Z</time></trkpt><trkpt lat="42.8313317" lon="2.6240567"><ele>316.0</ele><time>2026-04-26T06:02:59.73Z</time></trkpt><trkpt lat="42.83137" lon="2.6241267"><ele>316.0</ele><time>2026-04-26T06:03:00.73Z</time></trkpt><trkpt lat="42.8314533" lon="2.6242317"><ele>316.0</ele><time>2026-04-26T06:03:02.732Z</time></trkpt><trkpt lat="42.83147" lon="2.624375"><ele>316.0</ele><time>2026-04-26T06:03:04.729Z</time></trkpt><trkpt lat="42.8314167" lon="2.6244517"><ele>316.0</ele><time>2026-04-26T06:03:05.729Z</time></trkpt><trkpt lat="42.831325" lon="2.6245133"><ele>316.0</ele><time>2026-04-26T06:03:06.73Z</time></trkpt><trkpt lat="42.83124" lon="2.62459"><ele>316.66666666666663</ele><time>2026-04-26T06:03:07.729Z</time></trkpt><trkpt lat="42.8311783" lon="2.62469"><ele>317.3333333333333</ele><time>2026-04-26T06:03:08.731Z</time></trkpt><trkpt lat="42.8311467" lon="2.6247867"><ele>318.0</ele><time>2026-04-26T06:03:09.729Z</time></trkpt><trkpt lat="42.8311433" lon="2.6248817"><ele>318.6666666666667</ele><time>2026-04-26T06:03:10.729Z</time></trkpt><trkpt lat="42.8311717" lon="2.6249767"><ele>319.33333333333337</ele><time>2026-04-26T06:03:11.728Z</time></trkpt><trkpt lat="42.8312133" lon="2.6250667"><ele>320.0</ele><time>2026-04-26T06:03:12.731Z</time></trkpt><trkpt lat="42.8312533" lon="2.6251633"><ele>320.0</ele><time>2026-04-26T06:03:13.728Z</time></trkpt><trkpt lat="42.8312883" lon="2.6252733"><ele>320.0</ele><time>2026-04-26T06:03:14.729Z</time></trkpt><trkpt lat="42.8313067" lon="2.6253933"><ele>320.0</ele><time>2026-04-26T06:03:15.728Z</time></trkpt><trkpt lat="42.8313233" lon="2.62552"><ele>320.0</ele><time>2026-04-26T06:03:16.728Z</time></trkpt><trkpt lat="42.8313683" lon="2.62563"><ele>320.0</ele><time>2026-04-26T06:03:17.729Z</time></trkpt><trkpt lat="42.8314217" lon="2.625735"><ele>319.0</ele><time>2026-04-26T06:03:18.727Z</time></trkpt><trkpt lat="42.8314783" lon="2.62584"><ele>318.0</ele><time>2026-04-26T06:03:19.728Z</time></trkpt><trkpt lat="42.8315167" lon="2.6259567"><ele>317.0</ele><time>2026-04-26T06:03:20.729Z</time></trkpt><trkpt lat="42.831555" lon="2.6260817"><ele>316.0</ele><time>2026-04-26T06:03:21.731Z</time></trkpt><trkpt lat="42.8316" lon="2.6262033"><ele>315.0</ele><time>2026-04-26T06:03:22.731Z</time></trkpt><trkpt lat="42.8316583" lon="2.6263283"><ele>312.8</ele><time>2026-04-26T06:03:23.728Z</time></trkpt><trkpt lat="42.83173" lon="2.626445"><ele>310.6</ele><time>2026-04-26T06:03:24.728Z</time></trkpt><trkpt lat="42.831805" lon="2.62655"><ele>308.4</ele><time>2026-04-26T06:03:25.729Z</time></trkpt><trkpt lat="42.8318817" lon="2.6266467"><ele>306.2</ele><time>2026-04-26T06:03:26.728Z</time></trkpt><trkpt lat="42.831945" lon="2.6267333"><ele>304.0</ele><time>2026-04-26T06:03:27.729Z</time></trkpt><trkpt lat="42.8319917" lon="2.6268117"><ele>304.0</ele><time>2026-04-26T06:03:28.73Z</time></trkpt><trkpt lat="42.83198" lon="2.6269683"><ele>304.0</ele><time>2026-04-26T06:03:30.73Z</time></trkpt><trkpt lat="42.8319317" lon="2.6270383"><ele>304.0</ele><time>2026-04-26T06:03:31.729Z</time></trkpt><trkpt lat="42.8318683" lon="2.627115"><ele>304.0</ele><time>2026-04-26T06:03:32.729Z</time></trkpt><trkpt lat="42.83181" lon="2.6271983"><ele>304.0</ele><time>2026-04-26T06:03:33.728Z</time></trkpt><trkpt lat="42.8317567" lon="2.6272917"><ele>304.0</ele><time>2026-04-26T06:03:34.73Z</time></trkpt><trkpt lat="42.8317183" lon="2.6274"><ele>304.0</ele><time>2026-04-26T06:03:35.729Z</time></trkpt><trkpt lat="42.83169" lon="2.6275183"><ele>304.0</ele><time>2026-04-26T06:03:36.73Z</time></trkpt><trkpt lat="42.8316767" lon="2.62766"><ele>304.0</ele><time>2026-04-26T06:03:37.729Z</time></trkpt><trkpt lat="42.8316767" lon="2.6277967"><ele>304.0</ele><time>2026-04-26T06:03:38.728Z</time></trkpt><trkpt lat="42.831695" lon="2.6279133"><ele>304.0</ele><time>2026-04-26T06:03:39.728Z</time></trkpt><trkpt lat="42.831725" lon="2.6280167"><ele>304.3333333333333</ele><time>2026-04-26T06:03:40.728Z</time></trkpt><trkpt lat="42.8317733" lon="2.6281017"><ele>304.66666666666663</ele><time>2026-04-26T06:03:41.73Z</time></trkpt><trkpt lat="42.831835" lon="2.628175"><ele>305.0</ele><time>2026-04-26T06:03:42.729Z</time></trkpt><trkpt lat="42.8318917" lon="2.628245"><ele>305.3333333333333</ele><time>2026-04-26T06:03:43.728Z</time></trkpt><trkpt lat="42.8319233" lon="2.6283633"><ele>305.6666666666667</ele><time>2026-04-26T06:03:45.729Z</time></trkpt><trkpt lat="42.8318417" lon="2.6284467"><ele>306.0</ele><time>2026-04-26T06:03:47.729Z</time></trkpt><trkpt lat="42.8317733" lon="2.628485"><ele>306.0</ele><time>2026-04-26T06:03:48.729Z</time></trkpt><trkpt lat="42.8317017" lon="2.6285433"><ele>306.0</ele><time>2026-04-26T06:03:49.728Z</time></trkpt><trkpt lat="42.8316333" lon="2.628625"><ele>306.0</ele><time>2026-04-26T06:03:50.728Z</time></trkpt><trkpt lat="42.83158" lon="2.6287183"><ele>306.0</ele><time>2026-04-26T06:03:51.729Z</time></trkpt><trkpt lat="42.8315483" lon="2.628825"><ele>306.0</ele><time>2026-04-26T06:03:52.729Z</time></trkpt><trkpt lat="42.831535" lon="2.628955"><ele>306.0</ele><time>2026-04-26T06:03:53.728Z</time></trkpt><trkpt lat="42.83153" lon="2.6290967"><ele>307.0</ele><time>2026-04-26T06:03:54.729Z</time></trkpt><trkpt lat="42.8315317" lon="2.62925"><ele>308.0</ele><time>2026-04-26T06:03:55.728Z</time></trkpt><trkpt lat="42.8315283" lon="2.6294117"><ele>309.0</ele><time>2026-04-26T06:03:56.729Z</time></trkpt><trkpt lat="42.831515" lon="2.62957"><ele>310.0</ele><time>2026-04-26T06:03:57.729Z</time></trkpt><trkpt lat="42.8315" lon="2.6297183"><ele>310.0</ele><time>2026-04-26T06:03:58.729Z</time></trkpt><trkpt lat="42.83149" lon="2.6298567"><ele>310.0</ele><time>2026-04-26T06:03:59.728Z</time></trkpt><trkpt lat="42.83149" lon="2.629985"><ele>310.0</ele><time>2026-04-26T06:04:00.728Z</time></trkpt><trkpt lat="42.8314983" lon="2.6301067"><ele>310.0</ele><time>2026-04-26T06:04:01.728Z</time></trkpt><trkpt lat="42.831505" lon="2.630215"><ele>310.0</ele><time>2026-04-26T06:04:02.729Z</time></trkpt><trkpt lat="42.83152" lon="2.6303017"><ele>310.0</ele><time>2026-04-26T06:04:03.727Z</time></trkpt><trkpt lat="42.8315433" lon="2.63039"><ele>310.0</ele><time>2026-04-26T06:04:04.728Z</time></trkpt><trkpt lat="42.8315683" lon="2.6304717"><ele>310.0</ele><time>2026-04-26T06:04:06.73Z</time></trkpt><trkpt lat="42.8315083" lon="2.6305033"><ele>310.0</ele><time>2026-04-26T06:04:10.73Z</time></trkpt><trkpt lat="42.8314467" lon="2.6303767"><ele>310.0</ele><time>2026-04-26T06:04:12.734Z</time></trkpt><trkpt lat="42.8314067" lon="2.6302917"><ele>310.0</ele><time>2026-04-26T06:04:13.729Z</time></trkpt><trkpt lat="42.83136" lon="2.6302"><ele>310.0</ele><time>2026-04-26T06:04:14.728Z</time></trkpt><trkpt lat="42.8313133" lon="2.6301067"><ele>310.0</ele><time>2026-04-26T06:04:15.728Z</time></trkpt><trkpt lat="42.831265" lon="2.6300217"><ele>310.0</ele><time>2026-04-26T06:04:16.727Z</time></trkpt><trkpt lat="42.8312167" lon="2.629945"><ele>310.0</ele><time>2026-04-26T06:04:17.729Z</time></trkpt><trkpt lat="42.8311783" lon="2.629865"><ele>310.0</ele><time>2026-04-26T06:04:18.728Z</time></trkpt><trkpt lat="42.8311517" lon="2.6297783"><ele>310.0</ele><time>2026-04-26T06:04:19.727Z</time></trkpt><trkpt lat="42.8311467" lon="2.62969"><ele>310.0</ele><time>2026-04-26T06:04:20.729Z</time></trkpt><trkpt lat="42.8311567" lon="2.6296033"><ele>310.0</ele><time>2026-04-26T06:04:21.728Z</time></trkpt><trkpt lat="42.83118" lon="2.62951"><ele>310.16666666666663</ele><time>2026-04-26T06:04:22.73Z</time></trkpt><trkpt lat="42.8312133" lon="2.6294083"><ele>310.3333333333333</ele><time>2026-04-26T06:04:23.729Z</time></trkpt><trkpt lat="42.8312383" lon="2.6292983"><ele>310.5</ele><time>2026-04-26T06:04:24.73Z</time></trkpt><trkpt lat="42.8312417" lon="2.6291833"><ele>310.6666666666667</ele><time>2026-04-26T06:04:25.729Z</time></trkpt><trkpt lat="42.8312333" lon="2.6290567"><ele>310.83333333333337</ele><time>2026-04-26T06:04:26.729Z</time></trkpt><trkpt lat="42.8312117" lon="2.6289283"><ele>311.0</ele><time>2026-04-26T06:04:27.728Z</time></trkpt><trkpt lat="42.8311817" lon="2.6288017"><ele>311.0</ele><time>2026-04-26T06:04:28.728Z</time></trkpt><trkpt lat="42.8311467" lon="2.6286833"><ele>311.0</ele><time>2026-04-26T06:04:29.728Z</time></trkpt><trkpt lat="42.8311217" lon="2.6285733"><ele>311.0</ele><time>2026-04-26T06:04:30.73Z</time></trkpt><trkpt lat="42.8311083" lon="2.6284733"><ele>311.0</ele><time>2026-04-26T06:04:31.729Z</time></trkpt><trkpt lat="42.8311033" lon="2.6283717"><ele>311.0</ele><time>2026-04-26T06:04:32.729Z</time></trkpt><trkpt lat="42.8311133" lon="2.6282717"><ele>311.0</ele><time>2026-04-26T06:04:33.729Z</time></trkpt><trkpt lat="42.8311233" lon="2.6281667"><ele>310.0</ele><time>2026-04-26T06:04:34.728Z</time></trkpt><trkpt lat="42.831125" lon="2.62805"><ele>309.0</ele><time>2026-04-26T06:04:35.728Z</time></trkpt><trkpt lat="42.831125" lon="2.6279367"><ele>308.0</ele><time>2026-04-26T06:04:36.73Z</time></trkpt><trkpt lat="42.8311267" lon="2.6278167"><ele>307.0</ele><time>2026-04-26T06:04:37.729Z</time></trkpt><trkpt lat="42.8311317" lon="2.6276817"><ele>306.0</ele><time>2026-04-26T06:04:38.729Z</time></trkpt><trkpt lat="42.8311483" lon="2.62755"><ele>305.6</ele><time>2026-04-26T06:04:39.73Z</time></trkpt><trkpt lat="42.8311783" lon="2.6274233"><ele>305.20000000000005</ele><time>2026-04-26T06:04:40.813Z</time></trkpt><trkpt lat="42.831225" lon="2.6273067"><ele>304.79999999999995</ele><time>2026-04-26T06:04:41.734Z</time></trkpt><trkpt lat="42.8312717" lon="2.6272033"><ele>304.4</ele><time>2026-04-26T06:04:42.73Z</time></trkpt><trkpt lat="42.8313" lon="2.6271133"><ele>304.0</ele><time>2026-04-26T06:04:43.728Z</time></trkpt><trkpt lat="42.8313067" lon="2.6269433"><ele>304.0</ele><time>2026-04-26T06:04:45.729Z</time></trkpt><trkpt lat="42.8312883" lon="2.6268583"><ele>304.0</ele><time>2026-04-26T06:04:46.731Z</time></trkpt><trkpt lat="42.83125" lon="2.62677"><ele>304.0</ele><time>2026-04-26T06:04:47.729Z</time></trkpt><trkpt lat="42.8312067" lon="2.6266767"><ele>304.0</ele><time>2026-04-26T06:04:48.73Z</time></trkpt><trkpt lat="42.8311633" lon="2.626595"><ele>304.0</ele><time>2026-04-26T06:04:49.731Z</time></trkpt><trkpt lat="42.8310983" lon="2.62653"><ele>304.0</ele><time>2026-04-26T06:04:50.73Z</time></trkpt><trkpt lat="42.8310283" lon="2.6264917"><ele>300.0</ele><time>2026-04-26T06:04:51.731Z</time></trkpt><trkpt lat="42.8309667" lon="2.626445"><ele>296.0</ele><time>2026-04-26T06:04:52.728Z</time></trkpt><trkpt lat="42.8309033" lon="2.626385"><ele>292.0</ele><time>2026-04-26T06:04:53.732Z</time></trkpt><trkpt lat="42.8308367" lon="2.6263233"><ele>288.0</ele><time>2026-04-26T06:04:54.729Z</time></trkpt><trkpt lat="42.8307533" lon="2.6262767"><ele>284.0</ele><time>2026-04-26T06:04:55.73Z</time></trkpt><trkpt lat="42.83066" lon="2.6262417"><ele>280.0</ele><time>2026-04-26T06:04:56.73Z</time></trkpt><trkpt lat="42.830575" lon="2.6262017"><ele>280.0</ele><time>2026-04-26T06:04:57.731Z</time></trkpt><trkpt lat="42.830495" lon="2.6261567"><ele>280.0</ele><time>2026-04-26T06:04:58.731Z</time></trkpt><trkpt lat="42.8304117" lon="2.6260967"><ele>280.0</ele><time>2026-04-26T06:04:59.731Z</time></trkpt><trkpt lat="42.830325" lon="2.6260183"><ele>280.0</ele><time>2026-04-26T06:05:00.73Z</time></trkpt><trkpt lat="42.8302383" lon="2.625925"><ele>280.0</ele><time>2026-04-26T06:05:01.731Z</time></trkpt><trkpt lat="42.8301517" lon="2.625825"><ele>279.8</ele><time>2026-04-26T06:05:02.734Z</time></trkpt><trkpt lat="42.8300617" lon="2.6257183"><ele>279.6</ele><time>2026-04-26T06:05:03.73Z</time></trkpt><trkpt lat="42.829975" lon="2.6256217"><ele>279.4</ele><time>2026-04-26T06:05:04.73Z</time></trkpt><trkpt lat="42.8298933" lon="2.6255367"><ele>279.2</ele><time>2026-04-26T06:05:05.73Z</time></trkpt><trkpt lat="42.829815" lon="2.625455"><ele>279.0</ele><time>2026-04-26T06:05:06.73Z</time></trkpt><trkpt lat="42.8297483" lon="2.6253683"><ele>282.1666666666667</ele><time>2026-04-26T06:05:07.73Z</time></trkpt><trkpt lat="42.82969" lon="2.6252717"><ele>285.3333333333333</ele><time>2026-04-26T06:05:08.729Z</time></trkpt><trkpt lat="42.829645" lon="2.62517"><ele>288.5</ele><time>2026-04-26T06:05:09.732Z</time></trkpt><trkpt lat="42.8295933" lon="2.6250833"><ele>291.66666666666663</ele><time>2026-04-26T06:05:10.731Z</time></trkpt><trkpt lat="42.8295333" lon="2.625015"><ele>294.8333333333333</ele><time>2026-04-26T06:05:11.734Z</time></trkpt><trkpt lat="42.8294683" lon="2.6249567"><ele>298.0</ele><time>2026-04-26T06:05:12.73Z</time></trkpt><trkpt lat="42.8293767" lon="2.6249167"><ele>293.5</ele><time>2026-04-26T06:05:13.73Z</time></trkpt><trkpt lat="42.8292667" lon="2.6248817"><ele>289.0</ele><time>2026-04-26T06:05:14.73Z</time></trkpt><trkpt lat="42.829145" lon="2.624855"><ele>284.5</ele><time>2026-04-26T06:05:15.728Z</time></trkpt><trkpt lat="42.82902" lon="2.6248367"><ele>280.0</ele><time>2026-04-26T06:05:16.727Z</time></trkpt><trkpt lat="42.8288967" lon="2.6248183"><ele>280.0</ele><time>2026-04-26T06:05:17.728Z</time></trkpt><trkpt lat="42.828775" lon="2.6248033"><ele>280.0</ele><time>2026-04-26T06:05:18.729Z</time></trkpt><trkpt lat="42.828665" lon="2.62479"><ele>280.0</ele><time>2026-04-26T06:05:19.732Z</time></trkpt><trkpt lat="42.8285617" lon="2.62478"><ele>280.0</ele><time>2026-04-26T06:05:20.728Z</time></trkpt><trkpt lat="42.8284617" lon="2.62477"><ele>280.0</ele><time>2026-04-26T06:05:21.73Z</time></trkpt><trkpt lat="42.8283617" lon="2.6247517"><ele>278.8</ele><time>2026-04-26T06:05:22.729Z</time></trkpt><trkpt lat="42.82826" lon="2.6247167"><ele>277.6</ele><time>2026-04-26T06:05:23.73Z</time></trkpt><trkpt lat="42.828155" lon="2.6246667"><ele>276.4</ele><time>2026-04-26T06:05:24.729Z</time></trkpt><trkpt lat="42.828055" lon="2.624605"><ele>275.2</ele><time>2026-04-26T06:05:25.73Z</time></trkpt><trkpt lat="42.8279617" lon="2.6245317"><ele>274.0</ele><time>2026-04-26T06:05:26.732Z</time></trkpt><trkpt lat="42.8278817" lon="2.6244533"><ele>276.59999999999997</ele><time>2026-04-26T06:05:27.728Z</time></trkpt><trkpt lat="42.8278017" lon="2.6243933"><ele>279.2</ele><time>2026-04-26T06:05:28.73Z</time></trkpt><trkpt lat="42.8277117" lon="2.624365"><ele>281.79999999999995</ele><time>2026-04-26T06:05:29.731Z</time></trkpt><trkpt lat="42.8276067" lon="2.6243733"><ele>284.4</ele><time>2026-04-26T06:05:30.73Z</time></trkpt><trkpt lat="42.8274917" lon="2.6244017"><ele>287.0</ele><time>2026-04-26T06:05:31.729Z</time></trkpt><trkpt lat="42.8273733" lon="2.6244317"><ele>287.0</ele><time>2026-04-26T06:05:32.729Z</time></trkpt><trkpt lat="42.8272533" lon="2.624455"><ele>287.0</ele><time>2026-04-26T06:05:33.731Z</time></trkpt><trkpt lat="42.8271317" lon="2.6244733"><ele>287.0</ele><time>2026-04-26T06:05:34.728Z</time></trkpt><trkpt lat="42.827025" lon="2.6244933"><ele>287.0</ele><time>2026-04-26T06:05:35.732Z</time></trkpt><trkpt lat="42.826935" lon="2.6245233"><ele>287.0</ele><time>2026-04-26T06:05:36.729Z</time></trkpt><trkpt lat="42.8268517" lon="2.6245583"><ele>284.4</ele><time>2026-04-26T06:05:37.734Z</time></trkpt><trkpt lat="42.8267683" lon="2.6245867"><ele>281.79999999999995</ele><time>2026-04-26T06:05:38.731Z</time></trkpt><trkpt lat="42.8266783" lon="2.6246117"><ele>279.2</ele><time>2026-04-26T06:05:39.729Z</time></trkpt><trkpt lat="42.82658" lon="2.6246367"><ele>276.59999999999997</ele><time>2026-04-26T06:05:40.73Z</time></trkpt><trkpt lat="42.826485" lon="2.6246633"><ele>274.0</ele><time>2026-04-26T06:05:41.729Z</time></trkpt><trkpt lat="42.8263917" lon="2.6246817"><ele>274.0</ele><time>2026-04-26T06:05:42.731Z</time></trkpt><trkpt lat="42.8263067" lon="2.6246917"><ele>274.0</ele><time>2026-04-26T06:05:43.728Z</time></trkpt><trkpt lat="42.8262283" lon="2.6246967"><ele>274.0</ele><time>2026-04-26T06:05:44.728Z</time></trkpt><trkpt lat="42.82615" lon="2.6247083"><ele>274.0</ele><time>2026-04-26T06:05:45.729Z</time></trkpt><trkpt lat="42.82607" lon="2.6247283"><ele>274.0</ele><time>2026-04-26T06:05:46.73Z</time></trkpt><trkpt lat="42.8259917" lon="2.6247517"><ele>274.0</ele><time>2026-04-26T06:05:47.728Z</time></trkpt><trkpt lat="42.825915" lon="2.6247783"><ele>274.16666666666663</ele><time>2026-04-26T06:05:48.73Z</time></trkpt><trkpt lat="42.825845" lon="2.6248183"><ele>274.3333333333333</ele><time>2026-04-26T06:05:49.728Z</time></trkpt><trkpt lat="42.82578" lon="2.6248717"><ele>274.5</ele><time>2026-04-26T06:05:50.728Z</time></trkpt><trkpt lat="42.82573" lon="2.62494"><ele>274.6666666666667</ele><time>2026-04-26T06:05:51.728Z</time></trkpt><trkpt lat="42.8256867" lon="2.625025"><ele>274.83333333333337</ele><time>2026-04-26T06:05:52.73Z</time></trkpt><trkpt lat="42.8256367" lon="2.62512"><ele>275.0</ele><time>2026-04-26T06:05:53.729Z</time></trkpt><trkpt lat="42.8255783" lon="2.62522"><ele>275.0</ele><time>2026-04-26T06:05:54.731Z</time></trkpt><trkpt lat="42.82552" lon="2.6253183"><ele>275.0</ele><time>2026-04-26T06:05:55.73Z</time></trkpt><trkpt lat="42.8254583" lon="2.6254"><ele>275.0</ele><time>2026-04-26T06:05:56.729Z</time></trkpt><trkpt lat="42.825375" lon="2.6254267"><ele>275.0</ele><time>2026-04-26T06:05:58.728Z</time></trkpt><trkpt lat="42.8253267" lon="2.6253167"><ele>275.0</ele><time>2026-04-26T06:06:00.73Z</time></trkpt><trkpt lat="42.8253367" lon="2.6252117"><ele>275.0</ele><time>2026-04-26T06:06:01.729Z</time></trkpt><trkpt lat="42.8253417" lon="2.6250967"><ele>275.0</ele><time>2026-04-26T06:06:02.729Z</time></trkpt><trkpt lat="42.8253483" lon="2.6249767"><ele>275.0</ele><time>2026-04-26T06:06:03.728Z</time></trkpt><trkpt lat="42.8253533" lon="2.6248633"><ele>275.0</ele><time>2026-04-26T06:06:04.728Z</time></trkpt><trkpt lat="42.82535" lon="2.6247467"><ele>275.0</ele><time>2026-04-26T06:06:05.734Z</time></trkpt><trkpt lat="42.825345" lon="2.6246317"><ele>275.0</ele><time>2026-04-26T06:06:06.73Z</time></trkpt><trkpt lat="42.82534" lon="2.6245117"><ele>275.0</ele><time>2026-04-26T06:06:07.729Z</time></trkpt><trkpt lat="42.8253317" lon="2.6243933"><ele>274.0</ele><time>2026-04-26T06:06:08.728Z</time></trkpt><trkpt lat="42.8253117" lon="2.624275"><ele>273.0</ele><time>2026-04-26T06:06:09.729Z</time></trkpt><trkpt lat="42.825285" lon="2.62416"><ele>272.0</ele><time>2026-04-26T06:06:10.728Z</time></trkpt><trkpt lat="42.8252533" lon="2.6240483"><ele>271.0</ele><time>2026-04-26T06:06:11.73Z</time></trkpt><trkpt lat="42.8252333" lon="2.623935"><ele>270.0</ele><time>2026-04-26T06:06:12.731Z</time></trkpt><trkpt lat="42.825225" lon="2.6238183"><ele>269.0</ele><time>2026-04-26T06:06:13.728Z</time></trkpt><trkpt lat="42.8252167" lon="2.62371"><ele>265.8</ele><time>2026-04-26T06:06:14.728Z</time></trkpt><trkpt lat="42.8252033" lon="2.62362"><ele>262.59999999999997</ele><time>2026-04-26T06:06:15.731Z</time></trkpt><trkpt lat="42.825135" lon="2.6235033"><ele>259.4</ele><time>2026-04-26T06:06:17.729Z</time></trkpt><trkpt lat="42.8250183" lon="2.6234833"><ele>256.2</ele><time>2026-04-26T06:06:19.728Z</time></trkpt><trkpt lat="42.8249433" lon="2.6234767"><ele>253.0</ele><time>2026-04-26T06:06:20.729Z</time></trkpt><trkpt lat="42.8248617" lon="2.623475"><ele>253.0</ele><time>2026-04-26T06:06:21.728Z</time></trkpt><trkpt lat="42.824765" lon="2.6234867"><ele>253.0</ele><time>2026-04-26T06:06:22.729Z</time></trkpt><trkpt lat="42.8246617" lon="2.6235083"><ele>253.0</ele><time>2026-04-26T06:06:23.728Z</time></trkpt><trkpt lat="42.8245617" lon="2.62353"><ele>253.0</ele><time>2026-04-26T06:06:24.728Z</time></trkpt><trkpt lat="42.824465" lon="2.6235433"><ele>253.0</ele><time>2026-04-26T06:06:25.729Z</time></trkpt><trkpt lat="42.8243733" lon="2.6235417"><ele>252.8</ele><time>2026-04-26T06:06:26.728Z</time></trkpt><trkpt lat="42.824285" lon="2.6235167"><ele>252.60000000000002</ele><time>2026-04-26T06:06:27.728Z</time></trkpt><trkpt lat="42.8242017" lon="2.623465"><ele>252.39999999999998</ele><time>2026-04-26T06:06:28.728Z</time></trkpt><trkpt lat="42.8241183" lon="2.623395"><ele>252.2</ele><time>2026-04-26T06:06:29.728Z</time></trkpt><trkpt lat="42.8240417" lon="2.6233217"><ele>252.0</ele><time>2026-04-26T06:06:30.728Z</time></trkpt><trkpt lat="42.82397" lon="2.6232517"><ele>252.0</ele><time>2026-04-26T06:06:31.729Z</time></trkpt><trkpt lat="42.823905" lon="2.6231817"><ele>252.0</ele><time>2026-04-26T06:06:32.728Z</time></trkpt><trkpt lat="42.8238367" lon="2.6231133"><ele>252.0</ele><time>2026-04-26T06:06:33.728Z</time></trkpt><trkpt lat="42.82377" lon="2.6230433"><ele>252.0</ele><time>2026-04-26T06:06:34.731Z</time></trkpt><trkpt lat="42.8237" lon="2.6229767"><ele>252.0</ele><time>2026-04-26T06:06:35.73Z</time></trkpt><trkpt lat="42.8236283" lon="2.62292"><ele>252.0</ele><time>2026-04-26T06:06:36.729Z</time></trkpt><trkpt lat="42.8235467" lon="2.6228467"><ele>250.0</ele><time>2026-04-26T06:06:37.729Z</time></trkpt><trkpt lat="42.823465" lon="2.62276"><ele>248.0</ele><time>2026-04-26T06:06:38.732Z</time></trkpt><trkpt lat="42.8233817" lon="2.6226867"><ele>246.0</ele><time>2026-04-26T06:06:39.729Z</time></trkpt><trkpt lat="42.8233" lon="2.6226333"><ele>244.0</ele><time>2026-04-26T06:06:40.729Z</time></trkpt><trkpt lat="42.8232133" lon="2.6225933"><ele>242.0</ele><time>2026-04-26T06:06:41.729Z</time></trkpt><trkpt lat="42.8231317" lon="2.6225533"><ele>242.00000000000003</ele><time>2026-04-26T06:06:42.731Z</time></trkpt><trkpt lat="42.823055" lon="2.62251"><ele>242.0</ele><time>2026-04-26T06:06:43.729Z</time></trkpt><trkpt lat="42.822985" lon="2.6224717"><ele>242.0</ele><time>2026-04-26T06:06:44.731Z</time></trkpt><trkpt lat="42.8229217" lon="2.6224317"><ele>242.0</ele><time>2026-04-26T06:06:45.727Z</time></trkpt><trkpt lat="42.8228667" lon="2.622385"><ele>242.00000000000003</ele><time>2026-04-26T06:06:46.733Z</time></trkpt><trkpt lat="42.82279" lon="2.6223233"><ele>242.0</ele><time>2026-04-26T06:06:48.729Z</time></trkpt><trkpt lat="42.822765" lon="2.62241"><ele>242.0</ele><time>2026-04-26T06:06:52.728Z</time></trkpt><trkpt lat="42.82285" lon="2.6225467"><ele>242.0</ele><time>2026-04-26T06:06:54.729Z</time></trkpt><trkpt lat="42.8229017" lon="2.6226317"><ele>242.0</ele><time>2026-04-26T06:06:55.729Z</time></trkpt><trkpt lat="42.8229617" lon="2.62272"><ele>242.0</ele><time>2026-04-26T06:06:56.731Z</time></trkpt><trkpt lat="42.8230283" lon="2.6228083"><ele>242.0</ele><time>2026-04-26T06:06:57.729Z</time></trkpt><trkpt lat="42.8230933" lon="2.6229033"><ele>239.8</ele><time>2026-04-26T06:06:58.729Z</time></trkpt><trkpt lat="42.8231583" lon="2.623"><ele>237.6</ele><time>2026-04-26T06:06:59.729Z</time></trkpt><trkpt lat="42.82322" lon="2.623095"><ele>235.40000000000003</ele><time>2026-04-26T06:07:00.729Z</time></trkpt><trkpt lat="42.823275" lon="2.6231933"><ele>233.20000000000002</ele><time>2026-04-26T06:07:01.729Z</time></trkpt><trkpt lat="42.82332" lon="2.6233"><ele>231.0</ele><time>2026-04-26T06:07:02.729Z</time></trkpt><trkpt lat="42.8233533" lon="2.6234167"><ele>231.0</ele><time>2026-04-26T06:07:03.728Z</time></trkpt><trkpt lat="42.82339" lon="2.6235367"><ele>231.00000000000003</ele><time>2026-04-26T06:07:04.73Z</time></trkpt><trkpt lat="42.8234217" lon="2.6236583"><ele>231.00000000000003</ele><time>2026-04-26T06:07:05.728Z</time></trkpt><trkpt lat="42.8234467" lon="2.623785"><ele>231.0</ele><time>2026-04-26T06:07:06.73Z</time></trkpt><trkpt lat="42.8234717" lon="2.6239083"><ele>231.0</ele><time>2026-04-26T06:07:07.731Z</time></trkpt><trkpt lat="42.8235017" lon="2.6240283"><ele>232.5</ele><time>2026-04-26T06:07:08.73Z</time></trkpt><trkpt lat="42.82354" lon="2.6241417"><ele>234.0</ele><time>2026-04-26T06:07:09.728Z</time></trkpt><trkpt lat="42.823575" lon="2.6242433"><ele>235.5</ele><time>2026-04-26T06:07:10.728Z</time></trkpt><trkpt lat="42.823605" lon="2.6243367"><ele>237.0</ele><time>2026-04-26T06:07:11.729Z</time></trkpt><trkpt lat="42.8236233" lon="2.62442"><ele>238.5</ele><time>2026-04-26T06:07:12.731Z</time></trkpt><trkpt lat="42.8236017" lon="2.62455"><ele>240.0</ele><time>2026-04-26T06:07:14.728Z</time></trkpt><trkpt lat="42.8234933" lon="2.62457"><ele>239.14285714285717</ele><time>2026-04-26T06:07:16.728Z</time></trkpt><trkpt lat="42.8234317" lon="2.6245367"><ele>238.28571428571428</ele><time>2026-04-26T06:07:17.729Z</time></trkpt><trkpt lat="42.8233733" lon="2.6244917"><ele>237.42857142857144</ele><time>2026-04-26T06:07:18.727Z</time></trkpt><trkpt lat="42.8233317" lon="2.6244217"><ele>236.57142857142858</ele><time>2026-04-26T06:07:19.728Z</time></trkpt><trkpt lat="42.8233" lon="2.6243317"><ele>235.71428571428572</ele><time>2026-04-26T06:07:20.73Z</time></trkpt><trkpt lat="42.8232567" lon="2.624255"><ele>234.85714285714286</ele><time>2026-04-26T06:07:21.728Z</time></trkpt><trkpt lat="42.8232117" lon="2.624185"><ele>234.0</ele><time>2026-04-26T06:07:22.73Z</time></trkpt><trkpt lat="42.82316" lon="2.62411"><ele>232.0</ele><time>2026-04-26T06:07:23.728Z</time></trkpt><trkpt lat="42.8231017" lon="2.6240283"><ele>229.99999999999997</ele><time>2026-04-26T06:07:24.729Z</time></trkpt><trkpt lat="42.8230367" lon="2.6239383"><ele>227.99999999999997</ele><time>2026-04-26T06:07:25.729Z</time></trkpt><trkpt lat="42.8229683" lon="2.62385"><ele>226.0</ele><time>2026-04-26T06:07:26.729Z</time></trkpt><trkpt lat="42.822895" lon="2.6237633"><ele>224.0</ele><time>2026-04-26T06:07:27.73Z</time></trkpt><trkpt lat="42.8228183" lon="2.62369"><ele>225.39999999999998</ele><time>2026-04-26T06:07:28.729Z</time></trkpt><trkpt lat="42.8227367" lon="2.6236267"><ele>226.79999999999998</ele><time>2026-04-26T06:07:29.729Z</time></trkpt><trkpt lat="42.8226567" lon="2.62357"><ele>228.20000000000002</ele><time>2026-04-26T06:07:30.729Z</time></trkpt><trkpt lat="42.8225783" lon="2.6235133"><ele>229.60000000000002</ele><time>2026-04-26T06:07:31.729Z</time></trkpt><trkpt lat="42.8224833" lon="2.6234833"><ele>231.0</ele><time>2026-04-26T06:07:32.73Z</time></trkpt><trkpt lat="42.82238" lon="2.623455"><ele>227.8</ele><time>2026-04-26T06:07:33.729Z</time></trkpt><trkpt lat="42.8222783" lon="2.6234267"><ele>224.60000000000002</ele><time>2026-04-26T06:07:34.727Z</time></trkpt><trkpt lat="42.8221767" lon="2.6234017"><ele>221.4</ele><time>2026-04-26T06:07:35.73Z</time></trkpt><trkpt lat="42.8220833" lon="2.6233733"><ele>218.2</ele><time>2026-04-26T06:07:36.732Z</time></trkpt><trkpt lat="42.8219933" lon="2.623345"><ele>215.0</ele><time>2026-04-26T06:07:37.728Z</time></trkpt><trkpt lat="42.8219067" lon="2.6233317"><ele>215.0</ele><time>2026-04-26T06:07:38.73Z</time></trkpt><trkpt lat="42.8218267" lon="2.6233367"><ele>215.0</ele><time>2026-04-26T06:07:39.73Z</time></trkpt><trkpt lat="42.8217533" lon="2.6233583"><ele>215.0</ele><time>2026-04-26T06:07:40.728Z</time></trkpt><trkpt lat="42.82169" lon="2.6234"><ele>215.0</ele><time>2026-04-26T06:07:41.728Z</time></trkpt><trkpt lat="42.8216267" lon="2.6234517"><ele>215.0</ele><time>2026-04-26T06:07:42.731Z</time></trkpt><trkpt lat="42.8215617" lon="2.6235033"><ele>215.0</ele><time>2026-04-26T06:07:43.73Z</time></trkpt><trkpt lat="42.8215" lon="2.6235517"><ele>215.0</ele><time>2026-04-26T06:07:44.73Z</time></trkpt><trkpt lat="42.8214383" lon="2.6235917"><ele>214.0</ele><time>2026-04-26T06:07:45.728Z</time></trkpt><trkpt lat="42.8213217" lon="2.623615"><ele>213.0</ele><time>2026-04-26T06:07:47.733Z</time></trkpt><trkpt lat="42.8212317" lon="2.6236617"><ele>212.0</ele><time>2026-04-26T06:07:49.729Z</time></trkpt><trkpt lat="42.8211783" lon="2.62376"><ele>211.0</ele><time>2026-04-26T06:07:51.728Z</time></trkpt><trkpt lat="42.8211267" lon="2.6238383"><ele>210.0</ele><time>2026-04-26T06:07:53.733Z</time></trkpt><trkpt lat="42.8210233" lon="2.623945"><ele>211.0</ele><time>2026-04-26T06:07:55.729Z</time></trkpt><trkpt lat="42.8209483" lon="2.6240117"><ele>212.0</ele><time>2026-04-26T06:07:56.729Z</time></trkpt><trkpt lat="42.8208617" lon="2.6240917"><ele>213.0</ele><time>2026-04-26T06:07:57.729Z</time></trkpt><trkpt lat="42.8207667" lon="2.6241717"><ele>214.0</ele><time>2026-04-26T06:07:58.728Z</time></trkpt><trkpt lat="42.8206683" lon="2.6242467"><ele>215.0</ele><time>2026-04-26T06:07:59.729Z</time></trkpt><trkpt lat="42.8205683" lon="2.62431"><ele>215.0</ele><time>2026-04-26T06:08:00.731Z</time></trkpt><trkpt lat="42.820475" lon="2.6243733"><ele>215.0</ele><time>2026-04-26T06:08:01.728Z</time></trkpt><trkpt lat="42.8203883" lon="2.6244433"><ele>215.0</ele><time>2026-04-26T06:08:02.732Z</time></trkpt><trkpt lat="42.8203117" lon="2.6245267"><ele>215.0</ele><time>2026-04-26T06:08:03.728Z</time></trkpt><trkpt lat="42.82025" lon="2.6246217"><ele>215.0</ele><time>2026-04-26T06:08:04.732Z</time></trkpt><trkpt lat="42.8202" lon="2.6247433"><ele>217.2</ele><time>2026-04-26T06:08:05.728Z</time></trkpt><trkpt lat="42.8201617" lon="2.62488"><ele>219.4</ele><time>2026-04-26T06:08:06.729Z</time></trkpt><trkpt lat="42.820135" lon="2.6250217"><ele>221.60000000000002</ele><time>2026-04-26T06:08:07.729Z</time></trkpt><trkpt lat="42.8201217" lon="2.6251733"><ele>223.8</ele><time>2026-04-26T06:08:08.728Z</time></trkpt><trkpt lat="42.8201217" lon="2.6253367"><ele>226.0</ele><time>2026-04-26T06:08:09.729Z</time></trkpt><trkpt lat="42.820135" lon="2.6255033"><ele>229.4</ele><time>2026-04-26T06:08:10.728Z</time></trkpt><trkpt lat="42.8201567" lon="2.6256667"><ele>232.8</ele><time>2026-04-26T06:08:11.728Z</time></trkpt><trkpt lat="42.820185" lon="2.62582"><ele>236.20000000000002</ele><time>2026-04-26T06:08:12.729Z</time></trkpt><trkpt lat="42.82021" lon="2.6259617"><ele>239.60000000000002</ele><time>2026-04-26T06:08:13.728Z</time></trkpt><trkpt lat="42.82023" lon="2.626095"><ele>243.0</ele><time>2026-04-26T06:08:14.73Z</time></trkpt><trkpt lat="42.8202483" lon="2.626225"><ele>243.0</ele><time>2026-04-26T06:08:15.727Z</time></trkpt><trkpt lat="42.820265" lon="2.6263583"><ele>243.0</ele><time>2026-04-26T06:08:16.728Z</time></trkpt><trkpt lat="42.82028" lon="2.6264917"><ele>243.0</ele><time>2026-04-26T06:08:17.728Z</time></trkpt><trkpt lat="42.8202933" lon="2.62663"><ele>243.0</ele><time>2026-04-26T06:08:18.73Z</time></trkpt><trkpt lat="42.820305" lon="2.626755"><ele>243.0</ele><time>2026-04-26T06:08:19.734Z</time></trkpt><trkpt lat="42.8203133" lon="2.626865"><ele>243.0</ele><time>2026-04-26T06:08:20.728Z</time></trkpt><trkpt lat="42.8203167" lon="2.6269533"><ele>243.0</ele><time>2026-04-26T06:08:21.728Z</time></trkpt><trkpt lat="42.8202883" lon="2.6271183"><ele>243.0</ele><time>2026-04-26T06:08:23.729Z</time></trkpt><trkpt lat="42.8202633" lon="2.6272217"><ele>243.0</ele><time>2026-04-26T06:08:24.733Z</time></trkpt><trkpt lat="42.8202433" lon="2.6273367"><ele>243.0</ele><time>2026-04-26T06:08:25.73Z</time></trkpt><trkpt lat="42.820235" lon="2.627455"><ele>243.0</ele><time>2026-04-26T06:08:26.73Z</time></trkpt><trkpt lat="42.8202283" lon="2.6275683"><ele>241.16666666666666</ele><time>2026-04-26T06:08:27.728Z</time></trkpt><trkpt lat="42.8202133" lon="2.6276833"><ele>239.33333333333331</ele><time>2026-04-26T06:08:28.727Z</time></trkpt><trkpt lat="42.8201833" lon="2.6278017"><ele>237.5</ele><time>2026-04-26T06:08:29.729Z</time></trkpt><trkpt lat="42.8201467" lon="2.6279133"><ele>235.66666666666666</ele><time>2026-04-26T06:08:30.728Z</time></trkpt><trkpt lat="42.820115" lon="2.6280217"><ele>233.83333333333331</ele><time>2026-04-26T06:08:31.731Z</time></trkpt><trkpt lat="42.820095" lon="2.6281333"><ele>232.0</ele><time>2026-04-26T06:08:32.728Z</time></trkpt><trkpt lat="42.820085" lon="2.628245"><ele>231.99999999999997</ele><time>2026-04-26T06:08:33.732Z</time></trkpt><trkpt lat="42.820075" lon="2.6283533"><ele>232.0</ele><time>2026-04-26T06:08:34.728Z</time></trkpt><trkpt lat="42.8200667" lon="2.6284667"><ele>232.0</ele><time>2026-04-26T06:08:35.729Z</time></trkpt><trkpt lat="42.820035" lon="2.6285683"><ele>232.0</ele><time>2026-04-26T06:08:36.729Z</time></trkpt><trkpt lat="42.8199917" lon="2.6286567"><ele>231.99999999999997</ele><time>2026-04-26T06:08:37.729Z</time></trkpt><trkpt lat="42.8199317" lon="2.6287283"><ele>232.0</ele><time>2026-04-26T06:08:38.73Z</time></trkpt><trkpt lat="42.819865" lon="2.6288067"><ele>231.2</ele><time>2026-04-26T06:08:39.729Z</time></trkpt><trkpt lat="42.8197933" lon="2.62889"><ele>230.39999999999998</ele><time>2026-04-26T06:08:40.731Z</time></trkpt><trkpt lat="42.8197217" lon="2.628975"><ele>229.60000000000002</ele><time>2026-04-26T06:08:41.728Z</time></trkpt><trkpt lat="42.81965" lon="2.62906"><ele>228.8</ele><time>2026-04-26T06:08:42.728Z</time></trkpt><trkpt lat="42.8195767" lon="2.6291417"><ele>228.0</ele><time>2026-04-26T06:08:43.728Z</time></trkpt><trkpt lat="42.8195083" lon="2.6292167"><ele>228.0</ele><time>2026-04-26T06:08:44.731Z</time></trkpt><trkpt lat="42.8194467" lon="2.6292767"><ele>228.0</ele><time>2026-04-26T06:08:45.729Z</time></trkpt><trkpt lat="42.8193817" lon="2.629325"><ele>228.0</ele><time>2026-04-26T06:08:46.727Z</time></trkpt><trkpt lat="42.8193067" lon="2.62936"><ele>228.0</ele><time>2026-04-26T06:08:47.729Z</time></trkpt><trkpt lat="42.8192233" lon="2.6293917"><ele>228.0</ele><time>2026-04-26T06:08:48.729Z</time></trkpt><trkpt lat="42.81913" lon="2.6294283"><ele>228.0</ele><time>2026-04-26T06:08:49.729Z</time></trkpt><trkpt lat="42.8190333" lon="2.6294583"><ele>227.33333333333334</ele><time>2026-04-26T06:08:50.73Z</time></trkpt><trkpt lat="42.8189367" lon="2.629485"><ele>226.66666666666669</ele><time>2026-04-26T06:08:51.728Z</time></trkpt><trkpt lat="42.8188417" lon="2.629515"><ele>226.0</ele><time>2026-04-26T06:08:52.731Z</time></trkpt><trkpt lat="42.8187583" lon="2.62956"><ele>225.33333333333334</ele><time>2026-04-26T06:08:53.728Z</time></trkpt><trkpt lat="42.81868" lon="2.6296083"><ele>224.66666666666669</ele><time>2026-04-26T06:08:54.729Z</time></trkpt><trkpt lat="42.8186167" lon="2.629655"><ele>224.0</ele><time>2026-04-26T06:08:55.73Z</time></trkpt><trkpt lat="42.8185467" lon="2.6297367"><ele>224.00000000000003</ele><time>2026-04-26T06:08:57.729Z</time></trkpt><trkpt lat="42.818505" lon="2.629845"><ele>224.0</ele><time>2026-04-26T06:09:00.729Z</time></trkpt><trkpt lat="42.8184717" lon="2.6299183"><ele>224.0</ele><time>2026-04-26T06:09:01.728Z</time></trkpt><trkpt lat="42.818425" lon="2.63"><ele>224.0</ele><time>2026-04-26T06:09:02.732Z</time></trkpt><trkpt lat="42.818375" lon="2.63008"><ele>224.00000000000003</ele><time>2026-04-26T06:09:03.73Z</time></trkpt><trkpt lat="42.8183067" lon="2.6301617"><ele>224.0</ele><time>2026-04-26T06:09:04.729Z</time></trkpt><trkpt lat="42.8182283" lon="2.6302517"><ele>220.0</ele><time>2026-04-26T06:09:05.728Z</time></trkpt><trkpt lat="42.818155" lon="2.6303433"><ele>215.99999999999997</ele><time>2026-04-26T06:09:06.732Z</time></trkpt><trkpt lat="42.8180933" lon="2.6304533"><ele>212.0</ele><time>2026-04-26T06:09:07.73Z</time></trkpt><trkpt lat="42.818035" lon="2.63057"><ele>208.0</ele><time>2026-04-26T06:09:08.729Z</time></trkpt><trkpt lat="42.8179767" lon="2.6307033"><ele>204.0</ele><time>2026-04-26T06:09:09.729Z</time></trkpt><trkpt lat="42.8179167" lon="2.6308517"><ele>204.0</ele><time>2026-04-26T06:09:10.728Z</time></trkpt><trkpt lat="42.817855" lon="2.6310033"><ele>204.0</ele><time>2026-04-26T06:09:11.732Z</time></trkpt><trkpt lat="42.81779" lon="2.631145"><ele>204.0</ele><time>2026-04-26T06:09:12.728Z</time></trkpt><trkpt lat="42.817725" lon="2.631295"><ele>204.0</ele><time>2026-04-26T06:09:13.73Z</time></trkpt><trkpt lat="42.8176617" lon="2.6314383"><ele>201.75</ele><time>2026-04-26T06:09:14.729Z</time></trkpt><trkpt lat="42.8176033" lon="2.63158"><ele>199.5</ele><time>2026-04-26T06:09:15.727Z</time></trkpt><trkpt lat="42.8175483" lon="2.63172"><ele>197.25</ele><time>2026-04-26T06:09:16.73Z</time></trkpt><trkpt lat="42.8174933" lon="2.6318517"><ele>195.0</ele><time>2026-04-26T06:09:17.729Z</time></trkpt><trkpt lat="42.8174283" lon="2.6319783"><ele>193.0</ele><time>2026-04-26T06:09:18.728Z</time></trkpt><trkpt lat="42.81736" lon="2.6321067"><ele>191.0</ele><time>2026-04-26T06:09:19.728Z</time></trkpt><trkpt lat="42.8172917" lon="2.6322367"><ele>189.0</ele><time>2026-04-26T06:09:20.73Z</time></trkpt><trkpt lat="42.81722" lon="2.63237"><ele>187.0</ele><time>2026-04-26T06:09:21.728Z</time></trkpt><trkpt lat="42.8171517" lon="2.6325"><ele>187.0</ele><time>2026-04-26T06:09:22.728Z</time></trkpt><trkpt lat="42.8170883" lon="2.63263"><ele>187.0</ele><time>2026-04-26T06:09:23.728Z</time></trkpt><trkpt lat="42.8170283" lon="2.632765"><ele>187.0</ele><time>2026-04-26T06:09:24.729Z</time></trkpt><trkpt lat="42.8169717" lon="2.6329017"><ele>187.0</ele><time>2026-04-26T06:09:25.729Z</time></trkpt><trkpt lat="42.8169167" lon="2.633035"><ele>186.39999999999998</ele><time>2026-04-26T06:09:26.73Z</time></trkpt><trkpt lat="42.8168617" lon="2.6331633"><ele>185.79999999999998</ele><time>2026-04-26T06:09:27.729Z</time></trkpt><trkpt lat="42.8168067" lon="2.63329"><ele>185.2</ele><time>2026-04-26T06:09:28.728Z</time></trkpt><trkpt lat="42.8167533" lon="2.6334033"><ele>184.6</ele><time>2026-04-26T06:09:29.729Z</time></trkpt><trkpt lat="42.8167017" lon="2.633505"><ele>184.0</ele><time>2026-04-26T06:09:30.728Z</time></trkpt><trkpt lat="42.816655" lon="2.6335983"><ele>182.33333333333334</ele><time>2026-04-26T06:09:31.73Z</time></trkpt><trkpt lat="42.8166083" lon="2.6336867"><ele>180.66666666666669</ele><time>2026-04-26T06:09:32.728Z</time></trkpt><trkpt lat="42.81656" lon="2.63375"><ele>179.0</ele><time>2026-04-26T06:09:33.729Z</time></trkpt><trkpt lat="42.8164667" lon="2.63382"><ele>177.33333333333334</ele><time>2026-04-26T06:09:35.729Z</time></trkpt><trkpt lat="42.8164067" lon="2.6338567"><ele>175.66666666666666</ele><time>2026-04-26T06:09:37.73Z</time></trkpt><trkpt lat="42.81648" lon="2.633965"><ele>174.0</ele><time>2026-04-26T06:09:40.728Z</time></trkpt><trkpt lat="42.81657" lon="2.6340167"><ele>174.0</ele><time>2026-04-26T06:09:41.728Z</time></trkpt><trkpt lat="42.8166633" lon="2.6340717"><ele>174.0</ele><time>2026-04-26T06:09:42.729Z</time></trkpt><trkpt lat="42.8167583" lon="2.6341217"><ele>174.0</ele><time>2026-04-26T06:09:43.728Z</time></trkpt><trkpt lat="42.8168483" lon="2.6341617"><ele>174.0</ele><time>2026-04-26T06:09:44.728Z</time></trkpt><trkpt lat="42.8169283" lon="2.6341967"><ele>174.0</ele><time>2026-04-26T06:09:45.728Z</time></trkpt><trkpt lat="42.8170267" lon="2.6342567"><ele>174.16666666666666</ele><time>2026-04-26T06:09:47.728Z</time></trkpt><trkpt lat="42.81703" lon="2.63437"><ele>174.33333333333334</ele><time>2026-04-26T06:09:49.728Z</time></trkpt><trkpt lat="42.816995" lon="2.6344483"><ele>174.5</ele><time>2026-04-26T06:09:50.729Z</time></trkpt><trkpt lat="42.81694" lon="2.6345417"><ele>174.66666666666669</ele><time>2026-04-26T06:09:51.729Z</time></trkpt><trkpt lat="42.8168817" lon="2.63464"><ele>174.83333333333334</ele><time>2026-04-26T06:09:52.728Z</time></trkpt><trkpt lat="42.8168367" lon="2.6347633"><ele>175.0</ele><time>2026-04-26T06:09:53.729Z</time></trkpt><trkpt lat="42.8168167" lon="2.6349"><ele>174.0</ele><time>2026-04-26T06:09:54.729Z</time></trkpt><trkpt lat="42.816815" lon="2.6350383"><ele>173.0</ele><time>2026-04-26T06:09:55.728Z</time></trkpt><trkpt lat="42.8168183" lon="2.6351733"><ele>172.0</ele><time>2026-04-26T06:09:56.728Z</time></trkpt><trkpt lat="42.8168067" lon="2.6353083"><ele>171.0</ele><time>2026-04-26T06:09:57.728Z</time></trkpt><trkpt lat="42.81677" lon="2.635435"><ele>170.0</ele><time>2026-04-26T06:09:58.728Z</time></trkpt><trkpt lat="42.8167133" lon="2.6355667"><ele>169.5</ele><time>2026-04-26T06:09:59.728Z</time></trkpt><trkpt lat="42.8166417" lon="2.6356967"><ele>169.0</ele><time>2026-04-26T06:10:00.728Z</time></trkpt><trkpt lat="42.81656" lon="2.6358317"><ele>168.5</ele><time>2026-04-26T06:10:01.73Z</time></trkpt><trkpt lat="42.816475" lon="2.635975"><ele>168.0</ele><time>2026-04-26T06:10:02.729Z</time></trkpt><trkpt lat="42.81639" lon="2.6361133"><ele>168.2</ele><time>2026-04-26T06:10:03.73Z</time></trkpt><trkpt lat="42.8163033" lon="2.63623"><ele>168.4</ele><time>2026-04-26T06:10:04.728Z</time></trkpt><trkpt lat="42.816215" lon="2.6363233"><ele>168.6</ele><time>2026-04-26T06:10:05.729Z</time></trkpt><trkpt lat="42.8161317" lon="2.6363983"><ele>168.79999999999998</ele><time>2026-04-26T06:10:06.731Z</time></trkpt><trkpt lat="42.8160483" lon="2.63646"><ele>169.0</ele><time>2026-04-26T06:10:07.729Z</time></trkpt><trkpt lat="42.8159683" lon="2.636515"><ele>169.0</ele><time>2026-04-26T06:10:08.73Z</time></trkpt><trkpt lat="42.81589" lon="2.6365717"><ele>169.0</ele><time>2026-04-26T06:10:09.729Z</time></trkpt><trkpt lat="42.81582" lon="2.6366483"><ele>169.0</ele><time>2026-04-26T06:10:10.729Z</time></trkpt><trkpt lat="42.8157567" lon="2.6367367"><ele>169.0</ele><time>2026-04-26T06:10:11.729Z</time></trkpt><trkpt lat="42.8156967" lon="2.6368167"><ele>169.0</ele><time>2026-04-26T06:10:12.729Z</time></trkpt><trkpt lat="42.8156383" lon="2.6368683"><ele>169.0</ele><time>2026-04-26T06:10:13.728Z</time></trkpt><trkpt lat="42.815515" lon="2.63684"><ele>169.0</ele><time>2026-04-26T06:10:15.728Z</time></trkpt><trkpt lat="42.815445" lon="2.6367917"><ele>169.0</ele><time>2026-04-26T06:10:16.727Z</time></trkpt><trkpt lat="42.8153683" lon="2.6367633"><ele>169.0</ele><time>2026-04-26T06:10:17.729Z</time></trkpt><trkpt lat="42.81529" lon="2.6367533"><ele>169.0</ele><time>2026-04-26T06:10:18.729Z</time></trkpt><trkpt lat="42.815215" lon="2.6367717"><ele>169.0</ele><time>2026-04-26T06:10:19.73Z</time></trkpt><trkpt lat="42.8151433" lon="2.6368167"><ele>169.0</ele><time>2026-04-26T06:10:20.729Z</time></trkpt><trkpt lat="42.8150767" lon="2.6368817"><ele>167.66666666666669</ele><time>2026-04-26T06:10:21.73Z</time></trkpt><trkpt lat="42.8150183" lon="2.63694"><ele>166.33333333333334</ele><time>2026-04-26T06:10:22.73Z</time></trkpt><trkpt lat="42.8149617" lon="2.6369783"><ele>165.0</ele><time>2026-04-26T06:10:23.729Z</time></trkpt><trkpt lat="42.8148383" lon="2.6369633"><ele>163.66666666666666</ele><time>2026-04-26T06:10:25.731Z</time></trkpt><trkpt lat="42.81477" lon="2.63693"><ele>162.33333333333331</ele><time>2026-04-26T06:10:26.73Z</time></trkpt><trkpt lat="42.8147033" lon="2.6369017"><ele>161.0</ele><time>2026-04-26T06:10:27.729Z</time></trkpt><trkpt lat="42.8146367" lon="2.6368817"><ele>161.0</ele><time>2026-04-26T06:10:28.73Z</time></trkpt><trkpt lat="42.81457" lon="2.6368533"><ele>161.0</ele><time>2026-04-26T06:10:29.729Z</time></trkpt><trkpt lat="42.8145117" lon="2.6367983"><ele>161.0</ele><time>2026-04-26T06:10:30.73Z</time></trkpt><trkpt lat="42.8144533" lon="2.636725"><ele>161.0</ele><time>2026-04-26T06:10:31.729Z</time></trkpt><trkpt lat="42.8143883" lon="2.6366283"><ele>161.0</ele><time>2026-04-26T06:10:32.729Z</time></trkpt><trkpt lat="42.8143167" lon="2.6365167"><ele>161.0</ele><time>2026-04-26T06:10:33.73Z</time></trkpt><trkpt lat="42.814245" lon="2.636405"><ele>160.66666666666666</ele><time>2026-04-26T06:10:34.73Z</time></trkpt><trkpt lat="42.81418" lon="2.6363"><ele>160.33333333333331</ele><time>2026-04-26T06:10:35.734Z</time></trkpt><trkpt lat="42.8141267" lon="2.6362167"><ele>160.0</ele><time>2026-04-26T06:10:36.73Z</time></trkpt><trkpt lat="42.8140433" lon="2.6361383"><ele>159.66666666666666</ele><time>2026-04-26T06:10:38.73Z</time></trkpt><trkpt lat="42.8139767" lon="2.63617"><ele>159.33333333333334</ele><time>2026-04-26T06:10:40.729Z</time></trkpt><trkpt lat="42.8139283" lon="2.636245"><ele>159.0</ele><time>2026-04-26T06:10:41.729Z</time></trkpt><trkpt lat="42.8138683" lon="2.63634"><ele>159.0</ele><time>2026-04-26T06:10:42.73Z</time></trkpt><trkpt lat="42.8137967" lon="2.636445"><ele>159.0</ele><time>2026-04-26T06:10:43.729Z</time></trkpt><trkpt lat="42.8137167" lon="2.636555"><ele>159.0</ele><time>2026-04-26T06:10:44.731Z</time></trkpt><trkpt lat="42.8136433" lon="2.636665"><ele>159.0</ele><time>2026-04-26T06:10:45.727Z</time></trkpt><trkpt lat="42.813575" lon="2.636765"><ele>159.0</ele><time>2026-04-26T06:10:46.728Z</time></trkpt><trkpt lat="42.813505" lon="2.6368417"><ele>159.4</ele><time>2026-04-26T06:10:47.729Z</time></trkpt><trkpt lat="42.8134267" lon="2.6368883"><ele>159.8</ele><time>2026-04-26T06:10:48.729Z</time></trkpt><trkpt lat="42.8133367" lon="2.6368783"><ele>160.20000000000002</ele><time>2026-04-26T06:10:49.729Z</time></trkpt><trkpt lat="42.8132417" lon="2.6368333"><ele>160.60000000000002</ele><time>2026-04-26T06:10:50.729Z</time></trkpt><trkpt lat="42.813145" lon="2.6367717"><ele>161.0</ele><time>2026-04-26T06:10:51.73Z</time></trkpt><trkpt lat="42.8130533" lon="2.6367167"><ele>161.0</ele><time>2026-04-26T06:10:52.729Z</time></trkpt><trkpt lat="42.81297" lon="2.6366717"><ele>161.0</ele><time>2026-04-26T06:10:53.729Z</time></trkpt><trkpt lat="42.812895" lon="2.63664"><ele>161.0</ele><time>2026-04-26T06:10:54.729Z</time></trkpt><trkpt lat="42.81283" lon="2.636625"><ele>161.0</ele><time>2026-04-26T06:10:55.73Z</time></trkpt><trkpt lat="42.8127317" lon="2.6366767"><ele>161.0</ele><time>2026-04-26T06:10:57.73Z</time></trkpt><trkpt lat="42.8126967" lon="2.636785"><ele>161.0</ele><time>2026-04-26T06:10:58.729Z</time></trkpt><trkpt lat="42.8126733" lon="2.6369167"><ele>159.75</ele><time>2026-04-26T06:10:59.73Z</time></trkpt><trkpt lat="42.8126483" lon="2.6370717"><ele>158.5</ele><time>2026-04-26T06:11:00.73Z</time></trkpt><trkpt lat="42.812605" lon="2.637235"><ele>157.25</ele><time>2026-04-26T06:11:01.729Z</time></trkpt><trkpt lat="42.812545" lon="2.6373967"><ele>156.0</ele><time>2026-04-26T06:11:02.729Z</time></trkpt><trkpt lat="42.81248" lon="2.637565"><ele>156.0</ele><time>2026-04-26T06:11:03.733Z</time></trkpt><trkpt lat="42.812415" lon="2.63774"><ele>156.0</ele><time>2026-04-26T06:11:04.73Z</time></trkpt><trkpt lat="42.8123517" lon="2.637905"><ele>156.0</ele><time>2026-04-26T06:11:05.73Z</time></trkpt><trkpt lat="42.8122917" lon="2.638055"><ele>156.0</ele><time>2026-04-26T06:11:06.73Z</time></trkpt><trkpt lat="42.812245" lon="2.638195"><ele>155.33333333333334</ele><time>2026-04-26T06:11:07.731Z</time></trkpt><trkpt lat="42.8122167" lon="2.6383083"><ele>154.66666666666666</ele><time>2026-04-26T06:11:08.729Z</time></trkpt><trkpt lat="42.8121967" lon="2.638395"><ele>154.0</ele><time>2026-04-26T06:11:09.731Z</time></trkpt><trkpt lat="42.8121567" lon="2.63847"><ele>153.33333333333331</ele><time>2026-04-26T06:11:11.729Z</time></trkpt><trkpt lat="42.8120533" lon="2.638425"><ele>152.66666666666666</ele><time>2026-04-26T06:11:13.733Z</time></trkpt><trkpt lat="42.81199" lon="2.6383833"><ele>152.0</ele><time>2026-04-26T06:11:14.731Z</time></trkpt><trkpt lat="42.8118933" lon="2.63832"><ele>152.0</ele><time>2026-04-26T06:11:16.729Z</time></trkpt><trkpt lat="42.8118233" lon="2.6383833"><ele>152.0</ele><time>2026-04-26T06:11:19.729Z</time></trkpt><trkpt lat="42.8118683" lon="2.63857"><ele>152.0</ele><time>2026-04-26T06:11:21.73Z</time></trkpt><trkpt lat="42.8118983" lon="2.638695"><ele>152.0</ele><time>2026-04-26T06:11:22.728Z</time></trkpt><trkpt lat="42.8119283" lon="2.63884"><ele>152.0</ele><time>2026-04-26T06:11:23.734Z</time></trkpt><trkpt lat="42.811965" lon="2.639"><ele>151.0</ele><time>2026-04-26T06:11:24.729Z</time></trkpt><trkpt lat="42.8120033" lon="2.639175"><ele>150.0</ele><time>2026-04-26T06:11:25.728Z</time></trkpt><trkpt lat="42.8120417" lon="2.6393617"><ele>149.0</ele><time>2026-04-26T06:11:26.729Z</time></trkpt><trkpt lat="42.81208" lon="2.6395583"><ele>148.0</ele><time>2026-04-26T06:11:27.73Z</time></trkpt><trkpt lat="42.8121183" lon="2.6397567"><ele>147.66666666666669</ele><time>2026-04-26T06:11:28.728Z</time></trkpt><trkpt lat="42.8121667" lon="2.63996"><ele>147.33333333333334</ele><time>2026-04-26T06:11:29.729Z</time></trkpt><trkpt lat="42.812215" lon="2.640165"><ele>147.0</ele><time>2026-04-26T06:11:30.731Z</time></trkpt><trkpt lat="42.8122633" lon="2.640365"><ele>146.0</ele><time>2026-04-26T06:11:31.73Z</time></trkpt><trkpt lat="42.8123167" lon="2.6405567"><ele>145.0</ele><time>2026-04-26T06:11:32.729Z</time></trkpt><trkpt lat="42.8123817" lon="2.64074"><ele>144.0</ele><time>2026-04-26T06:11:33.729Z</time></trkpt><trkpt lat="42.8124583" lon="2.6409133"><ele>143.0</ele><time>2026-04-26T06:11:34.728Z</time></trkpt><trkpt lat="42.8125417" lon="2.6410817"><ele>142.75</ele><time>2026-04-26T06:11:35.729Z</time></trkpt><trkpt lat="42.812625" lon="2.6412483"><ele>142.5</ele><time>2026-04-26T06:11:36.731Z</time></trkpt><trkpt lat="42.8127067" lon="2.6414133"><ele>142.25</ele><time>2026-04-26T06:11:37.73Z</time></trkpt><trkpt lat="42.8127783" lon="2.641585"><ele>142.0</ele><time>2026-04-26T06:11:38.729Z</time></trkpt><trkpt lat="42.812835" lon="2.6417633"><ele>143.0</ele><time>2026-04-26T06:11:39.728Z</time></trkpt><trkpt lat="42.8128833" lon="2.6419467"><ele>144.0</ele><time>2026-04-26T06:11:40.728Z</time></trkpt><trkpt lat="42.8129233" lon="2.6421383"><ele>145.0</ele><time>2026-04-26T06:11:41.729Z</time></trkpt><trkpt lat="42.8129583" lon="2.6423367"><ele>146.0</ele><time>2026-04-26T06:11:42.73Z</time></trkpt><trkpt lat="42.812985" lon="2.6425383"><ele>146.0</ele><time>2026-04-26T06:11:43.729Z</time></trkpt><trkpt lat="42.813" lon="2.6427467"><ele>146.0</ele><time>2026-04-26T06:11:44.73Z</time></trkpt><trkpt lat="42.81299" lon="2.6429567"><ele>146.0</ele><time>2026-04-26T06:11:45.729Z</time></trkpt><trkpt lat="42.8129583" lon="2.64317"><ele>146.0</ele><time>2026-04-26T06:11:46.729Z</time></trkpt><trkpt lat="42.8129167" lon="2.6433833"><ele>146.0</ele><time>2026-04-26T06:11:47.729Z</time></trkpt><trkpt lat="42.8128733" lon="2.6435983"><ele>146.0</ele><time>2026-04-26T06:11:48.729Z</time></trkpt><trkpt lat="42.8128333" lon="2.6438083"><ele>146.0</ele><time>2026-04-26T06:11:49.729Z</time></trkpt><trkpt lat="42.812805" lon="2.6440183"><ele>146.0</ele><time>2026-04-26T06:11:50.728Z</time></trkpt><trkpt lat="42.8127983" lon="2.6442217"><ele>146.0</ele><time>2026-04-26T06:11:51.729Z</time></trkpt><trkpt lat="42.81281" lon="2.6444133"><ele>146.0</ele><time>2026-04-26T06:11:52.728Z</time></trkpt><trkpt lat="42.812835" lon="2.6445933"><ele>146.0</ele><time>2026-04-26T06:11:53.729Z</time></trkpt><trkpt lat="42.812855" lon="2.64477"><ele>146.0</ele><time>2026-04-26T06:11:54.729Z</time></trkpt><trkpt lat="42.8128633" lon="2.6449483"><ele>146.0</ele><time>2026-04-26T06:11:55.728Z</time></trkpt><trkpt lat="42.81285" lon="2.6451333"><ele>146.0</ele><time>2026-04-26T06:11:56.728Z</time></trkpt><trkpt lat="42.812815" lon="2.6453167"><ele>146.25</ele><time>2026-04-26T06:11:57.728Z</time></trkpt><trkpt lat="42.8127667" lon="2.645495"><ele>146.5</ele><time>2026-04-26T06:11:58.73Z</time></trkpt><trkpt lat="42.8127183" lon="2.64567"><ele>146.75</ele><time>2026-04-26T06:11:59.729Z</time></trkpt><trkpt lat="42.8126767" lon="2.64584"><ele>147.0</ele><time>2026-04-26T06:12:00.729Z</time></trkpt><trkpt lat="42.8126533" lon="2.646005"><ele>147.0</ele><time>2026-04-26T06:12:01.729Z</time></trkpt><trkpt lat="42.81265" lon="2.6461567"><ele>147.0</ele><time>2026-04-26T06:12:02.729Z</time></trkpt><trkpt lat="42.812655" lon="2.646285"><ele>147.0</ele><time>2026-04-26T06:12:03.729Z</time></trkpt><trkpt lat="42.8126533" lon="2.646385"><ele>147.0</ele><time>2026-04-26T06:12:04.728Z</time></trkpt><trkpt lat="42.8126617" lon="2.6465383"><ele>147.0</ele><time>2026-04-26T06:12:06.728Z</time></trkpt><trkpt lat="42.8126667" lon="2.646625"><ele>147.0</ele><time>2026-04-26T06:12:07.728Z</time></trkpt><trkpt lat="42.8126667" lon="2.6467267"><ele>147.0</ele><time>2026-04-26T06:12:08.729Z</time></trkpt><trkpt lat="42.8126667" lon="2.6468433"><ele>147.0</ele><time>2026-04-26T06:12:09.729Z</time></trkpt><trkpt lat="42.8126617" lon="2.646975"><ele>147.0</ele><time>2026-04-26T06:12:10.729Z</time></trkpt><trkpt lat="42.8126633" lon="2.6471317"><ele>147.0</ele><time>2026-04-26T06:12:11.727Z</time></trkpt><trkpt lat="42.81268" lon="2.6473017"><ele>146.75</ele><time>2026-04-26T06:12:12.727Z</time></trkpt><trkpt lat="42.8127117" lon="2.647475"><ele>146.5</ele><time>2026-04-26T06:12:13.728Z</time></trkpt><trkpt lat="42.8127533" lon="2.64766"><ele>146.25</ele><time>2026-04-26T06:12:14.727Z</time></trkpt><trkpt lat="42.812785" lon="2.6478667"><ele>146.0</ele><time>2026-04-26T06:12:15.728Z</time></trkpt><trkpt lat="42.8127983" lon="2.648085"><ele>145.66666666666666</ele><time>2026-04-26T06:12:16.728Z</time></trkpt><trkpt lat="42.8128" lon="2.6483033"><ele>145.33333333333334</ele><time>2026-04-26T06:12:17.728Z</time></trkpt><trkpt lat="42.8128" lon="2.6485183"><ele>145.0</ele><time>2026-04-26T06:12:18.729Z</time></trkpt><trkpt lat="42.8127967" lon="2.6487283"><ele>144.75</ele><time>2026-04-26T06:12:19.728Z</time></trkpt><trkpt lat="42.812795" lon="2.6489233"><ele>144.5</ele><time>2026-04-26T06:12:20.728Z</time></trkpt><trkpt lat="42.8127967" lon="2.6491033"><ele>144.25</ele><time>2026-04-26T06:12:21.728Z</time></trkpt><trkpt lat="42.8127983" lon="2.64927"><ele>144.0</ele><time>2026-04-26T06:12:22.728Z</time></trkpt><trkpt lat="42.8127983" lon="2.6494083"><ele>144.0</ele><time>2026-04-26T06:12:23.729Z</time></trkpt><trkpt lat="42.8127933" lon="2.649525"><ele>144.0</ele><time>2026-04-26T06:12:24.728Z</time></trkpt><trkpt lat="42.812785" lon="2.6496317"><ele>144.0</ele><time>2026-04-26T06:12:25.729Z</time></trkpt><trkpt lat="42.8127733" lon="2.649735"><ele>144.0</ele><time>2026-04-26T06:12:26.729Z</time></trkpt><trkpt lat="42.81275" lon="2.649825"><ele>144.0</ele><time>2026-04-26T06:12:27.729Z</time></trkpt><trkpt lat="42.812705" lon="2.64991"><ele>144.0</ele><time>2026-04-26T06:12:28.728Z</time></trkpt><trkpt lat="42.81264" lon="2.6499983"><ele>143.0</ele><time>2026-04-26T06:12:29.729Z</time></trkpt><trkpt lat="42.8125633" lon="2.6500917"><ele>142.0</ele><time>2026-04-26T06:12:30.727Z</time></trkpt><trkpt lat="42.8124833" lon="2.650185"><ele>141.0</ele><time>2026-04-26T06:12:31.729Z</time></trkpt><trkpt lat="42.8124167" lon="2.6502883"><ele>140.0</ele><time>2026-04-26T06:12:32.729Z</time></trkpt><trkpt lat="42.8123633" lon="2.6504033"><ele>139.0</ele><time>2026-04-26T06:12:33.728Z</time></trkpt><trkpt lat="42.8123067" lon="2.6505367"><ele>138.25</ele><time>2026-04-26T06:12:34.728Z</time></trkpt><trkpt lat="42.8122567" lon="2.6506883"><ele>137.5</ele><time>2026-04-26T06:12:35.728Z</time></trkpt><trkpt lat="42.812205" lon="2.6508483"><ele>136.75</ele><time>2026-04-26T06:12:36.728Z</time></trkpt><trkpt lat="42.812155" lon="2.6510083"><ele>136.0</ele><time>2026-04-26T06:12:37.728Z</time></trkpt><trkpt lat="42.8121067" lon="2.65116"><ele>136.0</ele><time>2026-04-26T06:12:38.729Z</time></trkpt><trkpt lat="42.8120583" lon="2.6512917"><ele>136.0</ele><time>2026-04-26T06:12:39.727Z</time></trkpt><trkpt lat="42.812" lon="2.6514"><ele>136.0</ele><time>2026-04-26T06:12:40.729Z</time></trkpt><trkpt lat="42.8119317" lon="2.6514967"><ele>136.0</ele><time>2026-04-26T06:12:41.728Z</time></trkpt><trkpt lat="42.8118467" lon="2.6515867"><ele>136.0</ele><time>2026-04-26T06:12:42.729Z</time></trkpt><trkpt lat="42.8117517" lon="2.6516683"><ele>136.0</ele><time>2026-04-26T06:12:43.728Z</time></trkpt><trkpt lat="42.811655" lon="2.6517617"><ele>136.0</ele><time>2026-04-26T06:12:44.729Z</time></trkpt><trkpt lat="42.8115617" lon="2.6518733"><ele>136.0</ele><time>2026-04-26T06:12:45.729Z</time></trkpt><trkpt lat="42.81147" lon="2.6519983"><ele>136.0</ele><time>2026-04-26T06:12:46.728Z</time></trkpt><trkpt lat="42.8113817" lon="2.6521283"><ele>136.0</ele><time>2026-04-26T06:12:47.729Z</time></trkpt><trkpt lat="42.81128" lon="2.652265"><ele>136.0</ele><time>2026-04-26T06:12:48.73Z</time></trkpt><trkpt lat="42.8111933" lon="2.6524283"><ele>136.0</ele><time>2026-04-26T06:12:49.728Z</time></trkpt><trkpt lat="42.8111" lon="2.652575"><ele>136.0</ele><time>2026-04-26T06:12:50.73Z</time></trkpt><trkpt lat="42.811" lon="2.65272"><ele>134.75</ele><time>2026-04-26T06:12:51.729Z</time></trkpt><trkpt lat="42.8109" lon="2.6528617"><ele>133.5</ele><time>2026-04-26T06:12:52.729Z</time></trkpt><trkpt lat="42.810805" lon="2.6530017"><ele>132.25</ele><time>2026-04-26T06:12:53.729Z</time></trkpt><trkpt lat="42.8107067" lon="2.6531383"><ele>131.0</ele><time>2026-04-26T06:12:54.728Z</time></trkpt><trkpt lat="42.8106067" lon="2.6532733"><ele>131.0</ele><time>2026-04-26T06:12:55.729Z</time></trkpt><trkpt lat="42.8105133" lon="2.6534133"><ele>131.0</ele><time>2026-04-26T06:12:56.729Z</time></trkpt><trkpt lat="42.81042" lon="2.6535417"><ele>131.0</ele><time>2026-04-26T06:12:57.728Z</time></trkpt><trkpt lat="42.8103267" lon="2.6536567"><ele>131.0</ele><time>2026-04-26T06:12:58.73Z</time></trkpt><trkpt lat="42.8102417" lon="2.6537433"><ele>131.0</ele><time>2026-04-26T06:12:59.728Z</time></trkpt><trkpt lat="42.8101567" lon="2.653815"><ele>131.0</ele><time>2026-04-26T06:13:00.729Z</time></trkpt><trkpt lat="42.8100717" lon="2.6538783"><ele>131.0</ele><time>2026-04-26T06:13:01.73Z</time></trkpt><trkpt lat="42.8099717" lon="2.653945"><ele>131.0</ele><time>2026-04-26T06:13:02.73Z</time></trkpt><trkpt lat="42.8098633" lon="2.6540183"><ele>131.0</ele><time>2026-04-26T06:13:03.729Z</time></trkpt><trkpt lat="42.8097517" lon="2.6540933"><ele>131.0</ele><time>2026-04-26T06:13:04.732Z</time></trkpt><trkpt lat="42.8096467" lon="2.6541733"><ele>131.0</ele><time>2026-04-26T06:13:05.729Z</time></trkpt><trkpt lat="42.80955" lon="2.6542667"><ele>131.0</ele><time>2026-04-26T06:13:06.727Z</time></trkpt><trkpt lat="42.809465" lon="2.6543717"><ele>131.0</ele><time>2026-04-26T06:13:07.728Z</time></trkpt><trkpt lat="42.8093917" lon="2.654485"><ele>131.6</ele><time>2026-04-26T06:13:08.729Z</time></trkpt><trkpt lat="42.8093383" lon="2.6546117"><ele>132.2</ele><time>2026-04-26T06:13:09.728Z</time></trkpt><trkpt lat="42.8092933" lon="2.6547317"><ele>132.8</ele><time>2026-04-26T06:13:10.728Z</time></trkpt><trkpt lat="42.80924" lon="2.6548317"><ele>133.4</ele><time>2026-04-26T06:13:11.729Z</time></trkpt><trkpt lat="42.80917" lon="2.654925"><ele>134.0</ele><time>2026-04-26T06:13:12.729Z</time></trkpt><trkpt lat="42.809085" lon="2.6550333"><ele>132.25</ele><time>2026-04-26T06:13:13.728Z</time></trkpt><trkpt lat="42.8089983" lon="2.65516"><ele>130.5</ele><time>2026-04-26T06:13:14.73Z</time></trkpt><trkpt lat="42.8089067" lon="2.65529"><ele>128.75</ele><time>2026-04-26T06:13:15.728Z</time></trkpt><trkpt lat="42.80881" lon="2.6554217"><ele>127.0</ele><time>2026-04-26T06:13:16.728Z</time></trkpt><trkpt lat="42.8087133" lon="2.6555633"><ele>126.75</ele><time>2026-04-26T06:13:17.73Z</time></trkpt><trkpt lat="42.8086233" lon="2.6557083"><ele>126.5</ele><time>2026-04-26T06:13:18.728Z</time></trkpt><trkpt lat="42.8085417" lon="2.65585"><ele>126.25</ele><time>2026-04-26T06:13:19.728Z</time></trkpt><trkpt lat="42.8084617" lon="2.6559783"><ele>126.0</ele><time>2026-04-26T06:13:20.728Z</time></trkpt><trkpt lat="42.80837" lon="2.656085"><ele>124.0</ele><time>2026-04-26T06:13:21.729Z</time></trkpt><trkpt lat="42.8082683" lon="2.6561667"><ele>122.0</ele><time>2026-04-26T06:13:22.728Z</time></trkpt><trkpt lat="42.8081533" lon="2.6562367"><ele>120.0</ele><time>2026-04-26T06:13:23.731Z</time></trkpt><trkpt lat="42.80804" lon="2.6563117"><ele>118.0</ele><time>2026-04-26T06:13:24.729Z</time></trkpt><trkpt lat="42.80793" lon="2.6563933"><ele>118.0</ele><time>2026-04-26T06:13:25.728Z</time></trkpt><trkpt lat="42.807835" lon="2.6564683"><ele>118.00000000000001</ele><time>2026-04-26T06:13:26.729Z</time></trkpt><trkpt lat="42.8077417" lon="2.656545"><ele>118.00000000000001</ele><time>2026-04-26T06:13:27.728Z</time></trkpt><trkpt lat="42.80767" lon="2.65661"><ele>118.0</ele><time>2026-04-26T06:13:28.729Z</time></trkpt><trkpt lat="42.8076133" lon="2.65667"><ele>118.0</ele><time>2026-04-26T06:13:29.729Z</time></trkpt><trkpt lat="42.80754" lon="2.65675"><ele>118.00000000000001</ele><time>2026-04-26T06:13:31.729Z</time></trkpt><trkpt lat="42.8075283" lon="2.6568617"><ele>118.0</ele><time>2026-04-26T06:13:33.728Z</time></trkpt><trkpt lat="42.807555" lon="2.6569433"><ele>118.0</ele><time>2026-04-26T06:13:34.728Z</time></trkpt><trkpt lat="42.807605" lon="2.6570433"><ele>118.0</ele><time>2026-04-26T06:13:35.729Z</time></trkpt><trkpt lat="42.8076667" lon="2.6571533"><ele>118.00000000000001</ele><time>2026-04-26T06:13:36.728Z</time></trkpt><trkpt lat="42.80773" lon="2.6572767"><ele>118.0</ele><time>2026-04-26T06:13:37.729Z</time></trkpt><trkpt lat="42.80779" lon="2.6574133"><ele>118.0</ele><time>2026-04-26T06:13:38.729Z</time></trkpt><trkpt lat="42.8078633" lon="2.6575633"><ele>118.0</ele><time>2026-04-26T06:13:39.728Z</time></trkpt><trkpt lat="42.8079417" lon="2.657725"><ele>118.0</ele><time>2026-04-26T06:13:40.729Z</time></trkpt><trkpt lat="42.8080117" lon="2.6578967"><ele>118.0</ele><time>2026-04-26T06:13:41.728Z</time></trkpt><trkpt lat="42.80807" lon="2.6580783"><ele>118.5</ele><time>2026-04-26T06:13:42.728Z</time></trkpt><trkpt lat="42.80811" lon="2.6582567"><ele>119.0</ele><time>2026-04-26T06:13:43.73Z</time></trkpt><trkpt lat="42.8081467" lon="2.6584233"><ele>119.5</ele><time>2026-04-26T06:13:44.729Z</time></trkpt><trkpt lat="42.80817" lon="2.6585783"><ele>120.0</ele><time>2026-04-26T06:13:45.728Z</time></trkpt><trkpt lat="42.80817" lon="2.65872"><ele>120.2</ele><time>2026-04-26T06:13:46.729Z</time></trkpt><trkpt lat="42.8081317" lon="2.6588417"><ele>120.4</ele><time>2026-04-26T06:13:47.732Z</time></trkpt><trkpt lat="42.80806" lon="2.6589267"><ele>120.6</ele><time>2026-04-26T06:13:48.728Z</time></trkpt><trkpt lat="42.8079767" lon="2.65899"><ele>120.8</ele><time>2026-04-26T06:13:49.733Z</time></trkpt><trkpt lat="42.8078967" lon="2.65907"><ele>121.0</ele><time>2026-04-26T06:13:50.729Z</time></trkpt><trkpt lat="42.80782" lon="2.6591967"><ele>121.0</ele><time>2026-04-26T06:13:51.727Z</time></trkpt><trkpt lat="42.8077517" lon="2.65935"><ele>121.0</ele><time>2026-04-26T06:13:52.728Z</time></trkpt><trkpt lat="42.8076917" lon="2.6595183"><ele>121.0</ele><time>2026-04-26T06:13:53.728Z</time></trkpt><trkpt lat="42.8076367" lon="2.6596983"><ele>121.0</ele><time>2026-04-26T06:13:54.729Z</time></trkpt><trkpt lat="42.80759" lon="2.6599"><ele>121.66666666666667</ele><time>2026-04-26T06:13:55.729Z</time></trkpt><trkpt lat="42.807545" lon="2.6601083"><ele>122.33333333333334</ele><time>2026-04-26T06:13:56.728Z</time></trkpt><trkpt lat="42.8074917" lon="2.6603133"><ele>123.0</ele><time>2026-04-26T06:13:57.728Z</time></trkpt><trkpt lat="42.8074233" lon="2.66051"><ele>124.33333333333334</ele><time>2026-04-26T06:13:58.728Z</time></trkpt><trkpt lat="42.807345" lon="2.6607017"><ele>125.66666666666667</ele><time>2026-04-26T06:13:59.728Z</time></trkpt><trkpt lat="42.8072683" lon="2.660895"><ele>127.0</ele><time>2026-04-26T06:14:00.729Z</time></trkpt><trkpt lat="42.8072017" lon="2.66109"><ele>128.25</ele><time>2026-04-26T06:14:01.729Z</time></trkpt><trkpt lat="42.8071417" lon="2.6612833"><ele>129.5</ele><time>2026-04-26T06:14:02.728Z</time></trkpt><trkpt lat="42.8071117" lon="2.6614383"><ele>130.75</ele><time>2026-04-26T06:14:03.729Z</time></trkpt><trkpt lat="42.8070933" lon="2.6615833"><ele>132.0</ele><time>2026-04-26T06:14:04.728Z</time></trkpt><trkpt lat="42.8071117" lon="2.6617217"><ele>132.0</ele><time>2026-04-26T06:14:05.729Z</time></trkpt><trkpt lat="42.8071567" lon="2.6618583"><ele>132.0</ele><time>2026-04-26T06:14:06.734Z</time></trkpt><trkpt lat="42.8072083" lon="2.6619967"><ele>132.0</ele><time>2026-04-26T06:14:07.73Z</time></trkpt><trkpt lat="42.8072633" lon="2.6621367"><ele>132.0</ele><time>2026-04-26T06:14:08.728Z</time></trkpt><trkpt lat="42.8073133" lon="2.6622733"><ele>133.75</ele><time>2026-04-26T06:14:09.728Z</time></trkpt><trkpt lat="42.80738" lon="2.6623783"><ele>135.5</ele><time>2026-04-26T06:14:10.731Z</time></trkpt><trkpt lat="42.807465" lon="2.66244"><ele>137.25</ele><time>2026-04-26T06:14:11.728Z</time></trkpt><trkpt lat="42.8075917" lon="2.6624617"><ele>139.0</ele><time>2026-04-26T06:14:12.728Z</time></trkpt><trkpt lat="42.8077267" lon="2.6624833"><ele>139.5</ele><time>2026-04-26T06:14:13.728Z</time></trkpt><trkpt lat="42.8078683" lon="2.6625067"><ele>140.0</ele><time>2026-04-26T06:14:14.728Z</time></trkpt><trkpt lat="42.808015" lon="2.66253"><ele>140.5</ele><time>2026-04-26T06:14:15.73Z</time></trkpt><trkpt lat="42.80816" lon="2.6625533"><ele>141.0</ele><time>2026-04-26T06:14:16.728Z</time></trkpt><trkpt lat="42.8083033" lon="2.662575"><ele>141.0</ele><time>2026-04-26T06:14:17.729Z</time></trkpt><trkpt lat="42.8084517" lon="2.6626"><ele>141.0</ele><time>2026-04-26T06:14:18.73Z</time></trkpt><trkpt lat="42.8086083" lon="2.6626283"><ele>141.0</ele><time>2026-04-26T06:14:19.729Z</time></trkpt><trkpt lat="42.8087717" lon="2.66265"><ele>141.0</ele><time>2026-04-26T06:14:20.728Z</time></trkpt><trkpt lat="42.808945" lon="2.66266"><ele>141.0</ele><time>2026-04-26T06:14:21.729Z</time></trkpt><trkpt lat="42.8091083" lon="2.6626733"><ele>141.0</ele><time>2026-04-26T06:14:22.728Z</time></trkpt><trkpt lat="42.8092633" lon="2.6626867"><ele>141.0</ele><time>2026-04-26T06:14:23.729Z</time></trkpt><trkpt lat="42.80941" lon="2.6626967"><ele>141.0</ele><time>2026-04-26T06:14:24.73Z</time></trkpt><trkpt lat="42.8095467" lon="2.662705"><ele>141.0</ele><time>2026-04-26T06:14:25.729Z</time></trkpt><trkpt lat="42.8096717" lon="2.6627133"><ele>141.0</ele><time>2026-04-26T06:14:26.728Z</time></trkpt><trkpt lat="42.809785" lon="2.66272"><ele>141.0</ele><time>2026-04-26T06:14:27.728Z</time></trkpt><trkpt lat="42.8098883" lon="2.6627383"><ele>141.0</ele><time>2026-04-26T06:14:28.728Z</time></trkpt><trkpt lat="42.8099767" lon="2.6627767"><ele>141.0</ele><time>2026-04-26T06:14:29.733Z</time></trkpt><trkpt lat="42.8100433" lon="2.6628283"><ele>141.0</ele><time>2026-04-26T06:14:30.729Z</time></trkpt><trkpt lat="42.8101133" lon="2.662945"><ele>141.0</ele><time>2026-04-26T06:14:32.729Z</time></trkpt><trkpt lat="42.8100567" lon="2.6630367"><ele>140.8</ele><time>2026-04-26T06:14:34.728Z</time></trkpt><trkpt lat="42.8100017" lon="2.6631033"><ele>140.6</ele><time>2026-04-26T06:14:35.731Z</time></trkpt><trkpt lat="42.8099267" lon="2.66318"><ele>140.4</ele><time>2026-04-26T06:14:36.73Z</time></trkpt><trkpt lat="42.8098367" lon="2.66326"><ele>140.2</ele><time>2026-04-26T06:14:37.729Z</time></trkpt><trkpt lat="42.8097383" lon="2.663345"><ele>140.0</ele><time>2026-04-26T06:14:38.729Z</time></trkpt><trkpt lat="42.80964" lon="2.6634233"><ele>140.0</ele><time>2026-04-26T06:14:39.73Z</time></trkpt><trkpt lat="42.809545" lon="2.6635"><ele>140.0</ele><time>2026-04-26T06:14:40.729Z</time></trkpt><trkpt lat="42.8094533" lon="2.6635783"><ele>140.0</ele><time>2026-04-26T06:14:41.728Z</time></trkpt><trkpt lat="42.8093617" lon="2.6636667"><ele>140.0</ele><time>2026-04-26T06:14:42.729Z</time></trkpt><trkpt lat="42.8092717" lon="2.6637683"><ele>140.0</ele><time>2026-04-26T06:14:43.728Z</time></trkpt><trkpt lat="42.8091817" lon="2.6638767"><ele>138.75</ele><time>2026-04-26T06:14:44.73Z</time></trkpt><trkpt lat="42.809095" lon="2.663985"><ele>137.5</ele><time>2026-04-26T06:14:45.728Z</time></trkpt><trkpt lat="42.8090083" lon="2.6640933"><ele>136.25</ele><time>2026-04-26T06:14:46.729Z</time></trkpt><trkpt lat="42.8089217" lon="2.6642017"><ele>135.0</ele><time>2026-04-26T06:14:47.729Z</time></trkpt><trkpt lat="42.8088333" lon="2.664305"><ele>135.0</ele><time>2026-04-26T06:14:48.731Z</time></trkpt><trkpt lat="42.8087433" lon="2.6643983"><ele>135.0</ele><time>2026-04-26T06:14:49.729Z</time></trkpt><trkpt lat="42.8086483" lon="2.6644833"><ele>135.0</ele><time>2026-04-26T06:14:50.73Z</time></trkpt><trkpt lat="42.8085633" lon="2.6645617"><ele>135.0</ele><time>2026-04-26T06:14:51.73Z</time></trkpt><trkpt lat="42.8084983" lon="2.6646217"><ele>135.0</ele><time>2026-04-26T06:14:52.729Z</time></trkpt><trkpt lat="42.8084333" lon="2.664675"><ele>134.6</ele><time>2026-04-26T06:14:53.729Z</time></trkpt><trkpt lat="42.8083567" lon="2.6647333"><ele>134.2</ele><time>2026-04-26T06:14:54.729Z</time></trkpt><trkpt lat="42.808275" lon="2.664815"><ele>133.8</ele><time>2026-04-26T06:14:55.729Z</time></trkpt><trkpt lat="42.8081933" lon="2.664905"><ele>133.4</ele><time>2026-04-26T06:14:56.729Z</time></trkpt><trkpt lat="42.8081017" lon="2.6649683"><ele>133.0</ele><time>2026-04-26T06:14:57.73Z</time></trkpt><trkpt lat="42.8079983" lon="2.66504"><ele>133.0</ele><time>2026-04-26T06:14:58.729Z</time></trkpt><trkpt lat="42.8078917" lon="2.6651317"><ele>133.0</ele><time>2026-04-26T06:14:59.729Z</time></trkpt><trkpt lat="42.8077917" lon="2.6652417"><ele>133.0</ele><time>2026-04-26T06:15:00.73Z</time></trkpt><trkpt lat="42.8076967" lon="2.6653567"><ele>133.0</ele><time>2026-04-26T06:15:01.727Z</time></trkpt><trkpt lat="42.8075983" lon="2.665475"><ele>133.25</ele><time>2026-04-26T06:15:02.728Z</time></trkpt><trkpt lat="42.8075017" lon="2.6655867"><ele>133.5</ele><time>2026-04-26T06:15:03.728Z</time></trkpt><trkpt lat="42.8074133" lon="2.6656917"><ele>133.75</ele><time>2026-04-26T06:15:04.729Z</time></trkpt><trkpt lat="42.8073333" lon="2.6657917"><ele>134.0</ele><time>2026-04-26T06:15:05.73Z</time></trkpt><trkpt lat="42.807265" lon="2.66589"><ele>134.0</ele><time>2026-04-26T06:15:06.729Z</time></trkpt><trkpt lat="42.8071967" lon="2.665995"><ele>134.0</ele><time>2026-04-26T06:15:07.729Z</time></trkpt><trkpt lat="42.80712" lon="2.6660967"><ele>134.0</ele><time>2026-04-26T06:15:08.73Z</time></trkpt><trkpt lat="42.8070383" lon="2.6662"><ele>134.0</ele><time>2026-04-26T06:15:09.728Z</time></trkpt><trkpt lat="42.806965" lon="2.6663033"><ele>134.0</ele><time>2026-04-26T06:15:10.728Z</time></trkpt><trkpt lat="42.8068917" lon="2.6664083"><ele>133.6</ele><time>2026-04-26T06:15:11.731Z</time></trkpt><trkpt lat="42.806815" lon="2.666505"><ele>133.2</ele><time>2026-04-26T06:15:12.728Z</time></trkpt><trkpt lat="42.8067383" lon="2.6665817"><ele>132.79999999999998</ele><time>2026-04-26T06:15:13.727Z</time></trkpt><trkpt lat="42.80667" lon="2.6666317"><ele>132.4</ele><time>2026-04-26T06:15:14.732Z</time></trkpt><trkpt lat="42.8065917" lon="2.6666633"><ele>132.0</ele><time>2026-04-26T06:15:15.728Z</time></trkpt><trkpt lat="42.8065" lon="2.6666967"><ele>132.0</ele><time>2026-04-26T06:15:16.728Z</time></trkpt><trkpt lat="42.8064017" lon="2.6667533"><ele>132.0</ele><time>2026-04-26T06:15:17.728Z</time></trkpt><trkpt lat="42.8063067" lon="2.6668333"><ele>132.0</ele><time>2026-04-26T06:15:18.729Z</time></trkpt><trkpt lat="42.8062167" lon="2.6669267"><ele>132.0</ele><time>2026-04-26T06:15:19.735Z</time></trkpt><trkpt lat="42.8061283" lon="2.6670267"><ele>132.0</ele><time>2026-04-26T06:15:20.728Z</time></trkpt><trkpt lat="42.8060367" lon="2.6671283"><ele>131.0</ele><time>2026-04-26T06:15:21.728Z</time></trkpt><trkpt lat="42.80594" lon="2.6672267"><ele>130.0</ele><time>2026-04-26T06:15:22.729Z</time></trkpt><trkpt lat="42.8058383" lon="2.6673217"><ele>129.0</ele><time>2026-04-26T06:15:23.729Z</time></trkpt><trkpt lat="42.8057317" lon="2.6674267"><ele>128.0</ele><time>2026-04-26T06:15:24.732Z</time></trkpt><trkpt lat="42.8056233" lon="2.6675367"><ele>128.0</ele><time>2026-04-26T06:15:25.729Z</time></trkpt><trkpt lat="42.8055117" lon="2.6676533"><ele>128.0</ele><time>2026-04-26T06:15:26.73Z</time></trkpt><trkpt lat="42.8054017" lon="2.66777"><ele>128.0</ele><time>2026-04-26T06:15:27.73Z</time></trkpt><trkpt lat="42.805285" lon="2.6678917"><ele>128.0</ele><time>2026-04-26T06:15:28.728Z</time></trkpt><trkpt lat="42.8051667" lon="2.6680133"><ele>127.75</ele><time>2026-04-26T06:15:29.728Z</time></trkpt><trkpt lat="42.80505" lon="2.6681383"><ele>127.5</ele><time>2026-04-26T06:15:30.729Z</time></trkpt><trkpt lat="42.80494" lon="2.6682633"><ele>127.25</ele><time>2026-04-26T06:15:31.729Z</time></trkpt><trkpt lat="42.8048333" lon="2.6683833"><ele>127.0</ele><time>2026-04-26T06:15:32.731Z</time></trkpt><trkpt lat="42.8047233" lon="2.6685033"><ele>125.75</ele><time>2026-04-26T06:15:33.73Z</time></trkpt><trkpt lat="42.8046167" lon="2.6686267"><ele>124.5</ele><time>2026-04-26T06:15:34.728Z</time></trkpt><trkpt lat="42.8045183" lon="2.6687333"><ele>123.25</ele><time>2026-04-26T06:15:35.728Z</time></trkpt><trkpt lat="42.80443" lon="2.6688417"><ele>122.0</ele><time>2026-04-26T06:15:36.729Z</time></trkpt><trkpt lat="42.8043517" lon="2.6689417"><ele>122.0</ele><time>2026-04-26T06:15:37.728Z</time></trkpt><trkpt lat="42.8042733" lon="2.6690283"><ele>121.99999999999999</ele><time>2026-04-26T06:15:38.73Z</time></trkpt><trkpt lat="42.804185" lon="2.6690917"><ele>121.99999999999999</ele><time>2026-04-26T06:15:39.729Z</time></trkpt><trkpt lat="42.8040817" lon="2.66913"><ele>122.0</ele><time>2026-04-26T06:15:40.728Z</time></trkpt><trkpt lat="42.80397" lon="2.6691617"><ele>122.0</ele><time>2026-04-26T06:15:41.728Z</time></trkpt><trkpt lat="42.8038633" lon="2.6692033"><ele>122.0</ele><time>2026-04-26T06:15:42.729Z</time></trkpt><trkpt lat="42.8037667" lon="2.66927"><ele>121.99999999999999</ele><time>2026-04-26T06:15:43.729Z</time></trkpt><trkpt lat="42.803685" lon="2.6693517"><ele>121.99999999999999</ele><time>2026-04-26T06:15:44.729Z</time></trkpt><trkpt lat="42.8036133" lon="2.6694517"><ele>122.0</ele><time>2026-04-26T06:15:45.729Z</time></trkpt><trkpt lat="42.8035383" lon="2.6695617"><ele>122.0</ele><time>2026-04-26T06:15:46.729Z</time></trkpt><trkpt lat="42.8034567" lon="2.6696667"><ele>121.25</ele><time>2026-04-26T06:15:47.728Z</time></trkpt><trkpt lat="42.8033617" lon="2.669755"><ele>120.5</ele><time>2026-04-26T06:15:48.732Z</time></trkpt><trkpt lat="42.8032517" lon="2.6698283"><ele>119.75</ele><time>2026-04-26T06:15:49.73Z</time></trkpt><trkpt lat="42.803125" lon="2.6698867"><ele>119.0</ele><time>2026-04-26T06:15:50.73Z</time></trkpt><trkpt lat="42.8029933" lon="2.6699433"><ele>119.0</ele><time>2026-04-26T06:15:51.73Z</time></trkpt><trkpt lat="42.802865" lon="2.6700117"><ele>119.0</ele><time>2026-04-26T06:15:52.729Z</time></trkpt><trkpt lat="42.802745" lon="2.6700833"><ele>119.0</ele><time>2026-04-26T06:15:53.729Z</time></trkpt><trkpt lat="42.80263" lon="2.670155"><ele>119.0</ele><time>2026-04-26T06:15:54.729Z</time></trkpt><trkpt lat="42.80251" lon="2.6702183"><ele>117.5</ele><time>2026-04-26T06:15:55.734Z</time></trkpt><trkpt lat="42.8023833" lon="2.67028"><ele>116.0</ele><time>2026-04-26T06:15:56.731Z</time></trkpt><trkpt lat="42.802255" lon="2.6703433"><ele>114.5</ele><time>2026-04-26T06:15:57.731Z</time></trkpt><trkpt lat="42.80213" lon="2.6704017"><ele>113.0</ele><time>2026-04-26T06:15:58.729Z</time></trkpt><trkpt lat="42.80201" lon="2.670455"><ele>113.0</ele><time>2026-04-26T06:15:59.729Z</time></trkpt><trkpt lat="42.8018933" lon="2.6705233"><ele>113.0</ele><time>2026-04-26T06:16:00.729Z</time></trkpt><trkpt lat="42.8017867" lon="2.6706033"><ele>113.0</ele><time>2026-04-26T06:16:01.73Z</time></trkpt><trkpt lat="42.8016933" lon="2.6706933"><ele>113.0</ele><time>2026-04-26T06:16:02.729Z</time></trkpt><trkpt lat="42.8016" lon="2.6707683"><ele>113.0</ele><time>2026-04-26T06:16:03.733Z</time></trkpt><trkpt lat="42.801495" lon="2.67082"><ele>113.0</ele><time>2026-04-26T06:16:04.73Z</time></trkpt><trkpt lat="42.8013767" lon="2.6708783"><ele>113.0</ele><time>2026-04-26T06:16:05.729Z</time></trkpt><trkpt lat="42.8012467" lon="2.6709483"><ele>113.0</ele><time>2026-04-26T06:16:06.729Z</time></trkpt><trkpt lat="42.8011167" lon="2.671005"><ele>112.25</ele><time>2026-04-26T06:16:07.728Z</time></trkpt><trkpt lat="42.8009967" lon="2.67106"><ele>111.5</ele><time>2026-04-26T06:16:08.728Z</time></trkpt><trkpt lat="42.8008833" lon="2.67111"><ele>110.75</ele><time>2026-04-26T06:16:09.728Z</time></trkpt><trkpt lat="42.800775" lon="2.6711633"><ele>110.0</ele><time>2026-04-26T06:16:10.728Z</time></trkpt><trkpt lat="42.800675" lon="2.6712283"><ele>109.6</ele><time>2026-04-26T06:16:11.729Z</time></trkpt><trkpt lat="42.8005817" lon="2.6713017"><ele>109.2</ele><time>2026-04-26T06:16:12.727Z</time></trkpt><trkpt lat="42.8004967" lon="2.6713767"><ele>108.80000000000001</ele><time>2026-04-26T06:16:13.728Z</time></trkpt><trkpt lat="42.8004083" lon="2.6714467"><ele>108.4</ele><time>2026-04-26T06:16:14.729Z</time></trkpt><trkpt lat="42.8003117" lon="2.6715033"><ele>108.0</ele><time>2026-04-26T06:16:15.73Z</time></trkpt><trkpt lat="42.8002" lon="2.6715317"><ele>106.80000000000001</ele><time>2026-04-26T06:16:16.729Z</time></trkpt><trkpt lat="42.800085" lon="2.67153"><ele>105.60000000000001</ele><time>2026-04-26T06:16:17.728Z</time></trkpt><trkpt lat="42.7999783" lon="2.6715317"><ele>104.4</ele><time>2026-04-26T06:16:18.729Z</time></trkpt><trkpt lat="42.7998767" lon="2.6715433"><ele>103.19999999999999</ele><time>2026-04-26T06:16:19.729Z</time></trkpt><trkpt lat="42.799775" lon="2.67157"><ele>102.0</ele><time>2026-04-26T06:16:20.73Z</time></trkpt><trkpt lat="42.7996817" lon="2.6715883"><ele>102.0</ele><time>2026-04-26T06:16:21.731Z</time></trkpt><trkpt lat="42.7995933" lon="2.6715933"><ele>102.0</ele><time>2026-04-26T06:16:22.729Z</time></trkpt><trkpt lat="42.799515" lon="2.67158"><ele>102.0</ele><time>2026-04-26T06:16:23.728Z</time></trkpt><trkpt lat="42.7994467" lon="2.6715617"><ele>102.0</ele><time>2026-04-26T06:16:24.73Z</time></trkpt><trkpt lat="42.79938" lon="2.671575"><ele>102.0</ele><time>2026-04-26T06:16:25.731Z</time></trkpt><trkpt lat="42.7993133" lon="2.671615"><ele>102.0</ele><time>2026-04-26T06:16:26.732Z</time></trkpt><trkpt lat="42.7992517" lon="2.671675"><ele>101.5</ele><time>2026-04-26T06:16:27.732Z</time></trkpt><trkpt lat="42.799195" lon="2.6717317"><ele>101.0</ele><time>2026-04-26T06:16:28.731Z</time></trkpt><trkpt lat="42.7991383" lon="2.671775"><ele>100.5</ele><time>2026-04-26T06:16:29.73Z</time></trkpt><trkpt lat="42.7990717" lon="2.67179"><ele>100.0</ele><time>2026-04-26T06:16:30.73Z</time></trkpt><trkpt lat="42.7989867" lon="2.67177"><ele>99.5</ele><time>2026-04-26T06:16:31.729Z</time></trkpt><trkpt lat="42.798885" lon="2.6717283"><ele>99.0</ele><time>2026-04-26T06:16:32.728Z</time></trkpt><trkpt lat="42.79878" lon="2.671695"><ele>99.0</ele><time>2026-04-26T06:16:33.729Z</time></trkpt><trkpt lat="42.7986767" lon="2.6716717"><ele>99.0</ele><time>2026-04-26T06:16:34.728Z</time></trkpt><trkpt lat="42.7985683" lon="2.6716783"><ele>99.0</ele><time>2026-04-26T06:16:35.728Z</time></trkpt><trkpt lat="42.798465" lon="2.6717067"><ele>99.0</ele><time>2026-04-26T06:16:36.73Z</time></trkpt><trkpt lat="42.7983667" lon="2.6717567"><ele>99.0</ele><time>2026-04-26T06:16:37.728Z</time></trkpt><trkpt lat="42.7982667" lon="2.67183"><ele>99.0</ele><time>2026-04-26T06:16:38.73Z</time></trkpt><trkpt lat="42.79817" lon="2.6719067"><ele>99.0</ele><time>2026-04-26T06:16:39.73Z</time></trkpt><trkpt lat="42.7980733" lon="2.67196"><ele>99.0</ele><time>2026-04-26T06:16:40.729Z</time></trkpt><trkpt lat="42.7979683" lon="2.67199"><ele>99.0</ele><time>2026-04-26T06:16:41.729Z</time></trkpt><trkpt lat="42.79786" lon="2.6720067"><ele>99.0</ele><time>2026-04-26T06:16:42.73Z</time></trkpt><trkpt lat="42.79775" lon="2.67203"><ele>99.0</ele><time>2026-04-26T06:16:43.728Z</time></trkpt><trkpt lat="42.797645" lon="2.6720583"><ele>99.0</ele><time>2026-04-26T06:16:44.73Z</time></trkpt><trkpt lat="42.7975383" lon="2.672115"><ele>99.0</ele><time>2026-04-26T06:16:45.729Z</time></trkpt><trkpt lat="42.7974367" lon="2.6721933"><ele>99.0</ele><time>2026-04-26T06:16:46.73Z</time></trkpt><trkpt lat="42.7973367" lon="2.6723"><ele>99.0</ele><time>2026-04-26T06:16:47.728Z</time></trkpt><trkpt lat="42.7972433" lon="2.67243"><ele>99.0</ele><time>2026-04-26T06:16:48.73Z</time></trkpt><trkpt lat="42.79715" lon="2.672565"><ele>99.0</ele><time>2026-04-26T06:16:49.729Z</time></trkpt><trkpt lat="42.7970567" lon="2.6727"><ele>99.0</ele><time>2026-04-26T06:16:50.729Z</time></trkpt><trkpt lat="42.79696" lon="2.6728317"><ele>98.75</ele><time>2026-04-26T06:16:51.729Z</time></trkpt><trkpt lat="42.79686" lon="2.672955"><ele>98.5</ele><time>2026-04-26T06:16:52.73Z</time></trkpt><trkpt lat="42.7967633" lon="2.6730667"><ele>98.25</ele><time>2026-04-26T06:16:53.729Z</time></trkpt><trkpt lat="42.7966717" lon="2.6731667"><ele>98.0</ele><time>2026-04-26T06:16:54.728Z</time></trkpt><trkpt lat="42.7965867" lon="2.6732617"><ele>98.0</ele><time>2026-04-26T06:16:55.728Z</time></trkpt><trkpt lat="42.79651" lon="2.6733417"><ele>98.0</ele><time>2026-04-26T06:16:56.73Z</time></trkpt><trkpt lat="42.7964383" lon="2.673415"><ele>98.0</ele><time>2026-04-26T06:16:57.729Z</time></trkpt><trkpt lat="42.7963733" lon="2.6734867"><ele>98.0</ele><time>2026-04-26T06:16:58.729Z</time></trkpt><trkpt lat="42.7963033" lon="2.6735583"><ele>98.0</ele><time>2026-04-26T06:16:59.729Z</time></trkpt><trkpt lat="42.7962167" lon="2.673635"><ele>98.5</ele><time>2026-04-26T06:17:00.728Z</time></trkpt><trkpt lat="42.7961133" lon="2.6737217"><ele>99.0</ele><time>2026-04-26T06:17:01.728Z</time></trkpt><trkpt lat="42.7960017" lon="2.67382"><ele>99.5</ele><time>2026-04-26T06:17:02.731Z</time></trkpt><trkpt lat="42.7958917" lon="2.6739233"><ele>100.0</ele><time>2026-04-26T06:17:03.728Z</time></trkpt><trkpt lat="42.7957733" lon="2.6740317"><ele>99.0</ele><time>2026-04-26T06:17:04.728Z</time></trkpt><trkpt lat="42.79565" lon="2.6741383"><ele>98.0</ele><time>2026-04-26T06:17:05.735Z</time></trkpt><trkpt lat="42.7955233" lon="2.6742467"><ele>97.0</ele><time>2026-04-26T06:17:06.728Z</time></trkpt><trkpt lat="42.7953967" lon="2.674365"><ele>96.0</ele><time>2026-04-26T06:17:07.728Z</time></trkpt><trkpt lat="42.7952767" lon="2.674495"><ele>95.25</ele><time>2026-04-26T06:17:08.729Z</time></trkpt><trkpt lat="42.7951617" lon="2.6746283"><ele>94.5</ele><time>2026-04-26T06:17:09.73Z</time></trkpt><trkpt lat="42.7950533" lon="2.6747683"><ele>93.75</ele><time>2026-04-26T06:17:10.731Z</time></trkpt><trkpt lat="42.7949533" lon="2.6749067"><ele>93.0</ele><time>2026-04-26T06:17:11.727Z</time></trkpt><trkpt lat="42.7948633" lon="2.6750333"><ele>93.0</ele><time>2026-04-26T06:17:12.729Z</time></trkpt><trkpt lat="42.7947783" lon="2.67513"><ele>93.0</ele><time>2026-04-26T06:17:13.729Z</time></trkpt><trkpt lat="42.7947017" lon="2.67516"><ele>93.0</ele><time>2026-04-26T06:17:14.729Z</time></trkpt><trkpt lat="42.7946417" lon="2.6751317"><ele>93.0</ele><time>2026-04-26T06:17:15.727Z</time></trkpt><trkpt lat="42.7945867" lon="2.6750767"><ele>93.0</ele><time>2026-04-26T06:17:16.728Z</time></trkpt><trkpt lat="42.7945333" lon="2.675015"><ele>93.0</ele><time>2026-04-26T06:17:17.728Z</time></trkpt><trkpt lat="42.79447" lon="2.6749767"><ele>93.0</ele><time>2026-04-26T06:17:18.728Z</time></trkpt><trkpt lat="42.7943933" lon="2.674995"><ele>93.0</ele><time>2026-04-26T06:17:19.73Z</time></trkpt><trkpt lat="42.7943283" lon="2.6750417"><ele>93.0</ele><time>2026-04-26T06:17:20.729Z</time></trkpt><trkpt lat="42.794275" lon="2.6750983"><ele>93.0</ele><time>2026-04-26T06:17:21.729Z</time></trkpt><trkpt lat="42.794245" lon="2.6751783"><ele>93.0</ele><time>2026-04-26T06:17:22.729Z</time></trkpt><trkpt lat="42.7942283" lon="2.675325"><ele>93.0</ele><time>2026-04-26T06:17:24.73Z</time></trkpt><trkpt lat="42.7942367" lon="2.67547"><ele>92.5</ele><time>2026-04-26T06:19:10.73Z</time></trkpt><trkpt lat="42.7941533" lon="2.6755433"><ele>92.0</ele><time>2026-04-26T06:19:13.73Z</time></trkpt><trkpt lat="42.794095" lon="2.675585"><ele>91.5</ele><time>2026-04-26T06:19:14.729Z</time></trkpt><trkpt lat="42.79403" lon="2.67564"><ele>91.0</ele><time>2026-04-26T06:19:15.73Z</time></trkpt><trkpt lat="42.7939583" lon="2.6757033"><ele>90.5</ele><time>2026-04-26T06:19:16.728Z</time></trkpt><trkpt lat="42.7938783" lon="2.6757733"><ele>90.0</ele><time>2026-04-26T06:19:17.728Z</time></trkpt><trkpt lat="42.79379" lon="2.6758517"><ele>90.0</ele><time>2026-04-26T06:19:18.729Z</time></trkpt><trkpt lat="42.7936933" lon="2.675935"><ele>90.0</ele><time>2026-04-26T06:19:19.727Z</time></trkpt><trkpt lat="42.7935917" lon="2.6760367"><ele>90.0</ele><time>2026-04-26T06:19:20.728Z</time></trkpt><trkpt lat="42.7934867" lon="2.67616"><ele>90.0</ele><time>2026-04-26T06:19:21.728Z</time></trkpt><trkpt lat="42.7933767" lon="2.6762967"><ele>89.66666666666667</ele><time>2026-04-26T06:19:22.728Z</time></trkpt><trkpt lat="42.7932633" lon="2.6764367"><ele>89.33333333333334</ele><time>2026-04-26T06:19:23.726Z</time></trkpt><trkpt lat="42.7931483" lon="2.6765833"><ele>89.0</ele><time>2026-04-26T06:19:24.728Z</time></trkpt><trkpt lat="42.7930283" lon="2.6767383"><ele>89.0</ele><time>2026-04-26T06:19:25.727Z</time></trkpt><trkpt lat="42.7929017" lon="2.676895"><ele>89.0</ele><time>2026-04-26T06:19:26.728Z</time></trkpt><trkpt lat="42.7927733" lon="2.6770467"><ele>89.0</ele><time>2026-04-26T06:19:27.728Z</time></trkpt><trkpt lat="42.792645" lon="2.6771917"><ele>89.0</ele><time>2026-04-26T06:19:28.727Z</time></trkpt><trkpt lat="42.792515" lon="2.6773317"><ele>89.0</ele><time>2026-04-26T06:19:29.727Z</time></trkpt><trkpt lat="42.792385" lon="2.677475"><ele>89.0</ele><time>2026-04-26T06:19:30.727Z</time></trkpt><trkpt lat="42.792255" lon="2.677625"><ele>93.33333333333334</ele><time>2026-04-26T06:19:31.727Z</time></trkpt><trkpt lat="42.792125" lon="2.6777717"><ele>97.66666666666667</ele><time>2026-04-26T06:19:32.727Z</time></trkpt><trkpt lat="42.7919983" lon="2.677915"><ele>102.0</ele><time>2026-04-26T06:19:33.727Z</time></trkpt><trkpt lat="42.791865" lon="2.6780617"><ele>98.66666666666667</ele><time>2026-04-26T06:19:34.727Z</time></trkpt><trkpt lat="42.79173" lon="2.6782067"><ele>95.33333333333334</ele><time>2026-04-26T06:19:35.727Z</time></trkpt><trkpt lat="42.7915933" lon="2.678355"><ele>92.0</ele><time>2026-04-26T06:19:36.729Z</time></trkpt><trkpt lat="42.7914567" lon="2.6785083"><ele>94.66666666666667</ele><time>2026-04-26T06:19:37.727Z</time></trkpt><trkpt lat="42.7913217" lon="2.6786583"><ele>97.33333333333334</ele><time>2026-04-26T06:19:38.733Z</time></trkpt><trkpt lat="42.791185" lon="2.6788083"><ele>100.0</ele><time>2026-04-26T06:19:39.726Z</time></trkpt><trkpt lat="42.7910483" lon="2.6789533"><ele>95.66666666666667</ele><time>2026-04-26T06:19:40.727Z</time></trkpt><trkpt lat="42.7909117" lon="2.6791083"><ele>91.33333333333334</ele><time>2026-04-26T06:19:41.727Z</time></trkpt><trkpt lat="42.790775" lon="2.6792467"><ele>87.0</ele><time>2026-04-26T06:19:42.729Z</time></trkpt><trkpt lat="42.7906383" lon="2.6793917"><ele>88.66666666666667</ele><time>2026-04-26T06:19:43.728Z</time></trkpt><trkpt lat="42.7905033" lon="2.6795383"><ele>90.33333333333334</ele><time>2026-04-26T06:19:44.727Z</time></trkpt><trkpt lat="42.7903733" lon="2.6796783"><ele>92.0</ele><time>2026-04-26T06:19:45.728Z</time></trkpt><trkpt lat="42.790245" lon="2.6798167"><ele>91.75</ele><time>2026-04-26T06:19:46.727Z</time></trkpt><trkpt lat="42.790125" lon="2.6799467"><ele>91.5</ele><time>2026-04-26T06:19:47.727Z</time></trkpt><trkpt lat="42.7900117" lon="2.6800683"><ele>91.25</ele><time>2026-04-26T06:19:48.728Z</time></trkpt><trkpt lat="42.7899067" lon="2.6801917"><ele>91.0</ele><time>2026-04-26T06:19:49.727Z</time></trkpt><trkpt lat="42.789805" lon="2.680315"><ele>91.0</ele><time>2026-04-26T06:19:50.728Z</time></trkpt><trkpt lat="42.789705" lon="2.6804333"><ele>91.0</ele><time>2026-04-26T06:19:51.729Z</time></trkpt><trkpt lat="42.7896017" lon="2.6805417"><ele>91.0</ele><time>2026-04-26T06:19:52.727Z</time></trkpt><trkpt lat="42.7894883" lon="2.680635"><ele>91.0</ele><time>2026-04-26T06:19:53.728Z</time></trkpt><trkpt lat="42.78937" lon="2.6807183"><ele>90.4</ele><time>2026-04-26T06:19:54.727Z</time></trkpt><trkpt lat="42.789255" lon="2.68077"><ele>89.8</ele><time>2026-04-26T06:19:55.728Z</time></trkpt><trkpt lat="42.7891517" lon="2.6808017"><ele>89.2</ele><time>2026-04-26T06:19:56.729Z</time></trkpt><trkpt lat="42.7890717" lon="2.680815"><ele>88.60000000000001</ele><time>2026-04-26T06:19:57.727Z</time></trkpt><trkpt lat="42.7889717" lon="2.6808233"><ele>88.0</ele><time>2026-04-26T06:19:59.728Z</time></trkpt><trkpt lat="42.7888933" lon="2.6808783"><ele>88.0</ele><time>2026-04-26T06:20:01.731Z</time></trkpt><trkpt lat="42.7888483" lon="2.6809483"><ele>88.0</ele><time>2026-04-26T06:20:02.728Z</time></trkpt><trkpt lat="42.7888167" lon="2.6810567"><ele>88.0</ele><time>2026-04-26T06:20:03.727Z</time></trkpt><trkpt lat="42.7887717" lon="2.681175"><ele>88.0</ele><time>2026-04-26T06:20:04.728Z</time></trkpt><trkpt lat="42.788705" lon="2.6812933"><ele>88.0</ele><time>2026-04-26T06:20:05.729Z</time></trkpt><trkpt lat="42.7886183" lon="2.681405"><ele>88.25</ele><time>2026-04-26T06:20:06.729Z</time></trkpt><trkpt lat="42.788505" lon="2.6814867"><ele>88.5</ele><time>2026-04-26T06:20:07.727Z</time></trkpt><trkpt lat="42.7883733" lon="2.6815567"><ele>88.75</ele><time>2026-04-26T06:20:08.727Z</time></trkpt><trkpt lat="42.7882317" lon="2.6816217"><ele>89.0</ele><time>2026-04-26T06:20:09.729Z</time></trkpt><trkpt lat="42.7880883" lon="2.68168"><ele>89.0</ele><time>2026-04-26T06:20:10.729Z</time></trkpt><trkpt lat="42.78794" lon="2.6817383"><ele>89.0</ele><time>2026-04-26T06:20:11.726Z</time></trkpt><trkpt lat="42.7877883" lon="2.681795"><ele>89.0</ele><time>2026-04-26T06:20:12.728Z</time></trkpt><trkpt lat="42.7876333" lon="2.6818517"><ele>89.33333333333334</ele><time>2026-04-26T06:20:13.731Z</time></trkpt><trkpt lat="42.7874767" lon="2.68191"><ele>89.66666666666667</ele><time>2026-04-26T06:20:14.728Z</time></trkpt><trkpt lat="42.7873133" lon="2.6819683"><ele>90.0</ele><time>2026-04-26T06:20:15.728Z</time></trkpt><trkpt lat="42.7871483" lon="2.6820267"><ele>90.0</ele><time>2026-04-26T06:20:16.727Z</time></trkpt><trkpt lat="42.78698" lon="2.6820883"><ele>90.0</ele><time>2026-04-26T06:20:17.728Z</time></trkpt><trkpt lat="42.7868133" lon="2.6821583"><ele>90.0</ele><time>2026-04-26T06:20:18.728Z</time></trkpt><trkpt lat="42.786645" lon="2.6822367"><ele>89.0</ele><time>2026-04-26T06:20:19.727Z</time></trkpt><trkpt lat="42.7864767" lon="2.6823267"><ele>88.0</ele><time>2026-04-26T06:20:20.729Z</time></trkpt><trkpt lat="42.7863083" lon="2.6824217"><ele>87.0</ele><time>2026-04-26T06:20:21.73Z</time></trkpt><trkpt lat="42.7861417" lon="2.68252"><ele>88.0</ele><time>2026-04-26T06:20:22.728Z</time></trkpt><trkpt lat="42.7859733" lon="2.68263"><ele>89.0</ele><time>2026-04-26T06:20:23.731Z</time></trkpt><trkpt lat="42.78581" lon="2.6827517"><ele>90.0</ele><time>2026-04-26T06:20:24.728Z</time></trkpt><trkpt lat="42.78566" lon="2.6828983"><ele>90.0</ele><time>2026-04-26T06:20:25.731Z</time></trkpt><trkpt lat="42.7855233" lon="2.6830683"><ele>90.0</ele><time>2026-04-26T06:20:26.727Z</time></trkpt><trkpt lat="42.78539" lon="2.6832517"><ele>90.0</ele><time>2026-04-26T06:20:27.728Z</time></trkpt><trkpt lat="42.78526" lon="2.6834367"><ele>88.66666666666667</ele><time>2026-04-26T06:20:28.727Z</time></trkpt><trkpt lat="42.7851283" lon="2.6836183"><ele>87.33333333333334</ele><time>2026-04-26T06:20:29.727Z</time></trkpt><trkpt lat="42.7849917" lon="2.683795"><ele>86.0</ele><time>2026-04-26T06:20:30.728Z</time></trkpt><trkpt lat="42.78486" lon="2.6839717"><ele>86.0</ele><time>2026-04-26T06:20:31.728Z</time></trkpt><trkpt lat="42.784735" lon="2.6841533"><ele>86.0</ele><time>2026-04-26T06:20:32.727Z</time></trkpt><trkpt lat="42.7846217" lon="2.6843483"><ele>86.0</ele><time>2026-04-26T06:20:33.728Z</time></trkpt><trkpt lat="42.78452" lon="2.6845617"><ele>84.0</ele><time>2026-04-26T06:20:34.728Z</time></trkpt><trkpt lat="42.7844267" lon="2.6847833"><ele>82.0</ele><time>2026-04-26T06:20:35.729Z</time></trkpt><trkpt lat="42.7843333" lon="2.6850067"><ele>80.0</ele><time>2026-04-26T06:20:36.728Z</time></trkpt><trkpt lat="42.7842417" lon="2.6852333"><ele>82.66666666666667</ele><time>2026-04-26T06:20:37.731Z</time></trkpt><trkpt lat="42.7841467" lon="2.68545"><ele>85.33333333333333</ele><time>2026-04-26T06:20:38.728Z</time></trkpt><trkpt lat="42.7840367" lon="2.68566"><ele>88.0</ele><time>2026-04-26T06:20:39.727Z</time></trkpt><trkpt lat="42.7839167" lon="2.6858583"><ele>88.0</ele><time>2026-04-26T06:20:40.728Z</time></trkpt><trkpt lat="42.783785" lon="2.6860467"><ele>88.0</ele><time>2026-04-26T06:20:41.728Z</time></trkpt><trkpt lat="42.7836417" lon="2.6862183"><ele>88.0</ele><time>2026-04-26T06:20:42.728Z</time></trkpt><trkpt lat="42.7834917" lon="2.68638"><ele>87.0</ele><time>2026-04-26T06:20:43.728Z</time></trkpt><trkpt lat="42.7833383" lon="2.686535"><ele>86.0</ele><time>2026-04-26T06:20:44.728Z</time></trkpt><trkpt lat="42.78319" lon="2.686695"><ele>85.0</ele><time>2026-04-26T06:20:45.727Z</time></trkpt><trkpt lat="42.7830483" lon="2.68687"><ele>83.33333333333333</ele><time>2026-04-26T06:20:46.728Z</time></trkpt><trkpt lat="42.78291" lon="2.6870517"><ele>81.66666666666667</ele><time>2026-04-26T06:20:47.727Z</time></trkpt><trkpt lat="42.78278" lon="2.6872467"><ele>80.0</ele><time>2026-04-26T06:20:48.727Z</time></trkpt><trkpt lat="42.7826567" lon="2.6874417"><ele>80.0</ele><time>2026-04-26T06:20:49.728Z</time></trkpt><trkpt lat="42.7825433" lon="2.6876533"><ele>80.0</ele><time>2026-04-26T06:20:50.728Z</time></trkpt><trkpt lat="42.7824383" lon="2.68787"><ele>80.0</ele><time>2026-04-26T06:20:51.727Z</time></trkpt><trkpt lat="42.78234" lon="2.688095"><ele>82.33333333333334</ele><time>2026-04-26T06:20:52.73Z</time></trkpt><trkpt lat="42.7822467" lon="2.688325"><ele>84.66666666666667</ele><time>2026-04-26T06:20:53.726Z</time></trkpt><trkpt lat="42.7821567" lon="2.68855"><ele>87.0</ele><time>2026-04-26T06:20:54.729Z</time></trkpt><trkpt lat="42.7820667" lon="2.68877"><ele>85.0</ele><time>2026-04-26T06:20:55.726Z</time></trkpt><trkpt lat="42.7819667" lon="2.6889783"><ele>83.0</ele><time>2026-04-26T06:20:56.727Z</time></trkpt><trkpt lat="42.7818517" lon="2.68917"><ele>81.0</ele><time>2026-04-26T06:20:57.727Z</time></trkpt><trkpt lat="42.781725" lon="2.6893483"><ele>83.66666666666667</ele><time>2026-04-26T06:20:58.727Z</time></trkpt><trkpt lat="42.78159" lon="2.6895183"><ele>86.33333333333334</ele><time>2026-04-26T06:20:59.728Z</time></trkpt><trkpt lat="42.7814467" lon="2.68968"><ele>89.0</ele><time>2026-04-26T06:21:00.729Z</time></trkpt><trkpt lat="42.78129" lon="2.68982"><ele>89.0</ele><time>2026-04-26T06:21:01.728Z</time></trkpt><trkpt lat="42.7811267" lon="2.6899383"><ele>89.0</ele><time>2026-04-26T06:21:02.728Z</time></trkpt><trkpt lat="42.780955" lon="2.6900433"><ele>89.0</ele><time>2026-04-26T06:21:03.727Z</time></trkpt><trkpt lat="42.7807833" lon="2.6901467"><ele>90.0</ele><time>2026-04-26T06:21:04.728Z</time></trkpt><trkpt lat="42.7806167" lon="2.6902633"><ele>91.0</ele><time>2026-04-26T06:21:05.727Z</time></trkpt><trkpt lat="42.7804567" lon="2.6903983"><ele>92.0</ele><time>2026-04-26T06:21:06.728Z</time></trkpt><trkpt lat="42.7803067" lon="2.69055"><ele>90.33333333333334</ele><time>2026-04-26T06:21:07.727Z</time></trkpt><trkpt lat="42.7801683" lon="2.6907233"><ele>88.66666666666667</ele><time>2026-04-26T06:21:08.728Z</time></trkpt><trkpt lat="42.78004" lon="2.6909117"><ele>87.0</ele><time>2026-04-26T06:21:09.727Z</time></trkpt><trkpt lat="42.7799233" lon="2.6911133"><ele>87.0</ele><time>2026-04-26T06:21:10.727Z</time></trkpt><trkpt lat="42.77981" lon="2.691315"><ele>87.0</ele><time>2026-04-26T06:21:11.726Z</time></trkpt><trkpt lat="42.7797117" lon="2.6915267"><ele>87.0</ele><time>2026-04-26T06:21:12.727Z</time></trkpt><trkpt lat="42.7796267" lon="2.6917567"><ele>89.33333333333333</ele><time>2026-04-26T06:21:13.728Z</time></trkpt><trkpt lat="42.7795533" lon="2.69199"><ele>91.66666666666666</ele><time>2026-04-26T06:21:14.729Z</time></trkpt><trkpt lat="42.7794917" lon="2.692235"><ele>94.0</ele><time>2026-04-26T06:21:15.727Z</time></trkpt><trkpt lat="42.7794317" lon="2.692475"><ele>94.0</ele><time>2026-04-26T06:21:16.728Z</time></trkpt><trkpt lat="42.7793767" lon="2.6927133"><ele>94.0</ele><time>2026-04-26T06:21:17.727Z</time></trkpt><trkpt lat="42.7793133" lon="2.69295"><ele>94.0</ele><time>2026-04-26T06:21:18.728Z</time></trkpt><trkpt lat="42.7792467" lon="2.6931867"><ele>92.0</ele><time>2026-04-26T06:21:19.726Z</time></trkpt><trkpt lat="42.7791817" lon="2.693425"><ele>90.0</ele><time>2026-04-26T06:21:20.727Z</time></trkpt><trkpt lat="42.7791167" lon="2.693655"><ele>88.0</ele><time>2026-04-26T06:21:21.727Z</time></trkpt><trkpt lat="42.77906" lon="2.693875"><ele>88.0</ele><time>2026-04-26T06:21:22.727Z</time></trkpt><trkpt lat="42.7790033" lon="2.6940917"><ele>88.0</ele><time>2026-04-26T06:21:23.73Z</time></trkpt><trkpt lat="42.7789267" lon="2.69429"><ele>88.0</ele><time>2026-04-26T06:21:24.727Z</time></trkpt><trkpt lat="42.77883" lon="2.6944733"><ele>90.0</ele><time>2026-04-26T06:21:25.727Z</time></trkpt><trkpt lat="42.7787017" lon="2.694625"><ele>92.0</ele><time>2026-04-26T06:21:26.729Z</time></trkpt><trkpt lat="42.7785683" lon="2.69477"><ele>94.0</ele><time>2026-04-26T06:21:27.727Z</time></trkpt><trkpt lat="42.7784417" lon="2.6949233"><ele>92.33333333333333</ele><time>2026-04-26T06:21:28.728Z</time></trkpt><trkpt lat="42.7783233" lon="2.69508"><ele>90.66666666666667</ele><time>2026-04-26T06:21:29.728Z</time></trkpt><trkpt lat="42.7782167" lon="2.695235"><ele>89.0</ele><time>2026-04-26T06:21:30.727Z</time></trkpt><trkpt lat="42.7781217" lon="2.6953933"><ele>89.0</ele><time>2026-04-26T06:21:31.727Z</time></trkpt><trkpt lat="42.7780417" lon="2.695555"><ele>89.0</ele><time>2026-04-26T06:21:32.728Z</time></trkpt><trkpt lat="42.7779733" lon="2.6957283"><ele>89.0</ele><time>2026-04-26T06:21:33.728Z</time></trkpt><trkpt lat="42.7779167" lon="2.6959033"><ele>89.0</ele><time>2026-04-26T06:21:34.73Z</time></trkpt><trkpt lat="42.777865" lon="2.69608"><ele>90.75</ele><time>2026-04-26T06:21:35.728Z</time></trkpt><trkpt lat="42.7778167" lon="2.6962517"><ele>92.5</ele><time>2026-04-26T06:21:36.728Z</time></trkpt><trkpt lat="42.7777667" lon="2.6964083"><ele>94.25</ele><time>2026-04-26T06:21:37.728Z</time></trkpt><trkpt lat="42.7777083" lon="2.6965467"><ele>96.0</ele><time>2026-04-26T06:21:38.73Z</time></trkpt><trkpt lat="42.7776367" lon="2.6966567"><ele>94.66666666666667</ele><time>2026-04-26T06:21:39.728Z</time></trkpt><trkpt lat="42.7775533" lon="2.6967283"><ele>93.33333333333333</ele><time>2026-04-26T06:21:40.728Z</time></trkpt><trkpt lat="42.7774633" lon="2.69675"><ele>92.0</ele><time>2026-04-26T06:21:41.727Z</time></trkpt><trkpt lat="42.7773817" lon="2.69676"><ele>90.66666666666666</ele><time>2026-04-26T06:21:42.727Z</time></trkpt><trkpt lat="42.77731" lon="2.6967867"><ele>89.33333333333333</ele><time>2026-04-26T06:21:43.73Z</time></trkpt><trkpt lat="42.7772767" lon="2.6968667"><ele>88.0</ele><time>2026-04-26T06:21:44.728Z</time></trkpt><trkpt lat="42.7772483" lon="2.696975"><ele>88.0</ele><time>2026-04-26T06:21:45.728Z</time></trkpt><trkpt lat="42.777195" lon="2.697085"><ele>88.0</ele><time>2026-04-26T06:21:46.728Z</time></trkpt><trkpt lat="42.7771183" lon="2.6971983"><ele>88.0</ele><time>2026-04-26T06:21:47.728Z</time></trkpt><trkpt lat="42.7770283" lon="2.6973133"><ele>88.0</ele><time>2026-04-26T06:21:48.729Z</time></trkpt><trkpt lat="42.7769317" lon="2.697435"><ele>86.25</ele><time>2026-04-26T06:21:49.729Z</time></trkpt><trkpt lat="42.7768283" lon="2.697565"><ele>84.5</ele><time>2026-04-26T06:21:50.727Z</time></trkpt><trkpt lat="42.77672" lon="2.6977067"><ele>82.75</ele><time>2026-04-26T06:21:51.73Z</time></trkpt><trkpt lat="42.7766133" lon="2.69786"><ele>81.0</ele><time>2026-04-26T06:21:52.728Z</time></trkpt><trkpt lat="42.7765117" lon="2.698025"><ele>81.0</ele><time>2026-04-26T06:21:53.727Z</time></trkpt><trkpt lat="42.7764183" lon="2.69821"><ele>81.0</ele><time>2026-04-26T06:21:54.727Z</time></trkpt><trkpt lat="42.77633" lon="2.698405"><ele>81.0</ele><time>2026-04-26T06:21:55.73Z</time></trkpt><trkpt lat="42.7762467" lon="2.6986117"><ele>82.0</ele><time>2026-04-26T06:21:56.728Z</time></trkpt><trkpt lat="42.7761717" lon="2.6988217"><ele>83.0</ele><time>2026-04-26T06:21:57.732Z</time></trkpt><trkpt lat="42.776105" lon="2.6990367"><ele>84.0</ele><time>2026-04-26T06:21:58.728Z</time></trkpt><trkpt lat="42.77604" lon="2.69925"><ele>81.33333333333333</ele><time>2026-04-26T06:21:59.729Z</time></trkpt><trkpt lat="42.7759817" lon="2.6994583"><ele>78.66666666666666</ele><time>2026-04-26T06:22:00.729Z</time></trkpt><trkpt lat="42.7759317" lon="2.6996633"><ele>76.0</ele><time>2026-04-26T06:22:01.728Z</time></trkpt><trkpt lat="42.7758883" lon="2.6998617"><ele>76.0</ele><time>2026-04-26T06:22:02.728Z</time></trkpt><trkpt lat="42.775845" lon="2.700055"><ele>76.0</ele><time>2026-04-26T06:22:03.728Z</time></trkpt><trkpt lat="42.775795" lon="2.700235"><ele>76.0</ele><time>2026-04-26T06:22:04.728Z</time></trkpt><trkpt lat="42.7757333" lon="2.700405"><ele>76.0</ele><time>2026-04-26T06:22:05.73Z</time></trkpt><trkpt lat="42.775675" lon="2.7005833"><ele>76.33333333333333</ele><time>2026-04-26T06:22:06.727Z</time></trkpt><trkpt lat="42.775625" lon="2.70077"><ele>76.66666666666667</ele><time>2026-04-26T06:22:07.729Z</time></trkpt><trkpt lat="42.77557" lon="2.70096"><ele>77.0</ele><time>2026-04-26T06:22:08.729Z</time></trkpt><trkpt lat="42.7755083" lon="2.701155"><ele>78.33333333333334</ele><time>2026-04-26T06:22:09.73Z</time></trkpt><trkpt lat="42.7754433" lon="2.701355"><ele>79.66666666666667</ele><time>2026-04-26T06:22:10.728Z</time></trkpt><trkpt lat="42.7753983" lon="2.70157"><ele>81.0</ele><time>2026-04-26T06:22:11.729Z</time></trkpt><trkpt lat="42.7753733" lon="2.7018017"><ele>80.0</ele><time>2026-04-26T06:22:12.729Z</time></trkpt><trkpt lat="42.7753617" lon="2.7020383"><ele>79.0</ele><time>2026-04-26T06:22:13.727Z</time></trkpt><trkpt lat="42.7753667" lon="2.7022833"><ele>78.0</ele><time>2026-04-26T06:22:14.727Z</time></trkpt><trkpt lat="42.7753717" lon="2.7025383"><ele>77.0</ele><time>2026-04-26T06:22:15.728Z</time></trkpt><trkpt lat="42.7753767" lon="2.702795"><ele>76.0</ele><time>2026-04-26T06:22:16.727Z</time></trkpt><trkpt lat="42.775385" lon="2.7030533"><ele>75.0</ele><time>2026-04-26T06:22:17.728Z</time></trkpt><trkpt lat="42.7754033" lon="2.7033133"><ele>75.0</ele><time>2026-04-26T06:22:18.727Z</time></trkpt><trkpt lat="42.7754283" lon="2.7035767"><ele>75.0</ele><time>2026-04-26T06:22:19.729Z</time></trkpt><trkpt lat="42.775455" lon="2.7038433"><ele>75.0</ele><time>2026-04-26T06:22:20.729Z</time></trkpt><trkpt lat="42.7754817" lon="2.704115"><ele>74.33333333333333</ele><time>2026-04-26T06:22:21.728Z</time></trkpt><trkpt lat="42.77551" lon="2.704385"><ele>73.66666666666666</ele><time>2026-04-26T06:22:22.728Z</time></trkpt><trkpt lat="42.775535" lon="2.7046517"><ele>73.0</ele><time>2026-04-26T06:22:23.728Z</time></trkpt><trkpt lat="42.7755633" lon="2.704915"><ele>72.66666666666666</ele><time>2026-04-26T06:22:24.727Z</time></trkpt><trkpt lat="42.7756017" lon="2.7051717"><ele>72.33333333333333</ele><time>2026-04-26T06:22:25.727Z</time></trkpt><trkpt lat="42.7756533" lon="2.7054233"><ele>72.0</ele><time>2026-04-26T06:22:26.727Z</time></trkpt><trkpt lat="42.775725" lon="2.705665"><ele>71.66666666666667</ele><time>2026-04-26T06:22:27.729Z</time></trkpt><trkpt lat="42.7758133" lon="2.7058967"><ele>71.33333333333334</ele><time>2026-04-26T06:22:28.728Z</time></trkpt><trkpt lat="42.7759183" lon="2.706115"><ele>71.0</ele><time>2026-04-26T06:22:29.728Z</time></trkpt><trkpt lat="42.776035" lon="2.7063217"><ele>72.33333333333334</ele><time>2026-04-26T06:22:30.727Z</time></trkpt><trkpt lat="42.7761617" lon="2.7065183"><ele>73.66666666666667</ele><time>2026-04-26T06:22:31.728Z</time></trkpt><trkpt lat="42.7762883" lon="2.7067033"><ele>75.0</ele><time>2026-04-26T06:22:32.729Z</time></trkpt><trkpt lat="42.77641" lon="2.7068733"><ele>74.0</ele><time>2026-04-26T06:22:33.729Z</time></trkpt><trkpt lat="42.77652" lon="2.7070367"><ele>73.0</ele><time>2026-04-26T06:22:34.728Z</time></trkpt><trkpt lat="42.776625" lon="2.7071867"><ele>72.0</ele><time>2026-04-26T06:22:35.727Z</time></trkpt><trkpt lat="42.776715" lon="2.70733"><ele>72.0</ele><time>2026-04-26T06:22:36.728Z</time></trkpt><trkpt lat="42.7767883" lon="2.7074717"><ele>72.0</ele><time>2026-04-26T06:22:37.728Z</time></trkpt><trkpt lat="42.7768367" lon="2.7076167"><ele>72.0</ele><time>2026-04-26T06:22:38.729Z</time></trkpt><trkpt lat="42.776845" lon="2.7077633"><ele>72.0</ele><time>2026-04-26T06:22:39.728Z</time></trkpt><trkpt lat="42.7768183" lon="2.707905"><ele>71.5</ele><time>2026-04-26T06:22:40.73Z</time></trkpt><trkpt lat="42.7767567" lon="2.70803"><ele>71.0</ele><time>2026-04-26T06:22:41.729Z</time></trkpt><trkpt lat="42.77666" lon="2.708135"><ele>70.5</ele><time>2026-04-26T06:22:42.728Z</time></trkpt><trkpt lat="42.7765483" lon="2.7082367"><ele>70.0</ele><time>2026-04-26T06:22:43.728Z</time></trkpt><trkpt lat="42.7764333" lon="2.7083567"><ele>70.0</ele><time>2026-04-26T06:22:44.729Z</time></trkpt><trkpt lat="42.776315" lon="2.70849"><ele>70.0</ele><time>2026-04-26T06:22:45.729Z</time></trkpt><trkpt lat="42.7761933" lon="2.7086283"><ele>70.0</ele><time>2026-04-26T06:22:46.727Z</time></trkpt><trkpt lat="42.7760717" lon="2.7087633"><ele>70.0</ele><time>2026-04-26T06:22:47.73Z</time></trkpt><trkpt lat="42.775955" lon="2.7088917"><ele>70.0</ele><time>2026-04-26T06:22:48.731Z</time></trkpt><trkpt lat="42.7758417" lon="2.7090133"><ele>70.0</ele><time>2026-04-26T06:22:49.729Z</time></trkpt><trkpt lat="42.7757333" lon="2.7091317"><ele>70.0</ele><time>2026-04-26T06:22:50.729Z</time></trkpt><trkpt lat="42.7756233" lon="2.7092383"><ele>70.0</ele><time>2026-04-26T06:22:51.731Z</time></trkpt><trkpt lat="42.7755117" lon="2.7093217"><ele>70.0</ele><time>2026-04-26T06:22:52.728Z</time></trkpt><trkpt lat="42.7754" lon="2.7093617"><ele>70.0</ele><time>2026-04-26T06:22:53.73Z</time></trkpt><trkpt lat="42.77529" lon="2.7093583"><ele>70.0</ele><time>2026-04-26T06:22:54.728Z</time></trkpt><trkpt lat="42.7751867" lon="2.7093367"><ele>72.75</ele><time>2026-04-26T06:22:55.727Z</time></trkpt><trkpt lat="42.7750867" lon="2.7093417"><ele>75.5</ele><time>2026-04-26T06:22:56.73Z</time></trkpt><trkpt lat="42.7749983" lon="2.7094"><ele>78.25</ele><time>2026-04-26T06:22:57.727Z</time></trkpt><trkpt lat="42.774915" lon="2.7095233"><ele>81.0</ele><time>2026-04-26T06:22:58.727Z</time></trkpt><trkpt lat="42.7748367" lon="2.7096683"><ele>81.0</ele><time>2026-04-26T06:22:59.729Z</time></trkpt><trkpt lat="42.774765" lon="2.7098233"><ele>81.0</ele><time>2026-04-26T06:23:00.728Z</time></trkpt><trkpt lat="42.7747133" lon="2.7099783"><ele>81.0</ele><time>2026-04-26T06:23:01.73Z</time></trkpt><trkpt lat="42.7746883" lon="2.7101183"><ele>81.0</ele><time>2026-04-26T06:23:02.73Z</time></trkpt><trkpt lat="42.7746717" lon="2.7102367"><ele>81.14285714285714</ele><time>2026-04-26T06:23:03.727Z</time></trkpt><trkpt lat="42.7746533" lon="2.7103383"><ele>81.28571428571428</ele><time>2026-04-26T06:23:04.728Z</time></trkpt><trkpt lat="42.7746467" lon="2.7104383"><ele>81.42857142857142</ele><time>2026-04-26T06:23:05.728Z</time></trkpt><trkpt lat="42.77465" lon="2.7105433"><ele>81.57142857142857</ele><time>2026-04-26T06:23:06.729Z</time></trkpt><trkpt lat="42.774665" lon="2.7106483"><ele>81.71428571428571</ele><time>2026-04-26T06:23:07.728Z</time></trkpt><trkpt lat="42.77469" lon="2.7107433"><ele>81.85714285714285</ele><time>2026-04-26T06:23:08.728Z</time></trkpt><trkpt lat="42.7747283" lon="2.71082"><ele>82.0</ele><time>2026-04-26T06:23:09.727Z</time></trkpt><trkpt lat="42.7748167" lon="2.7108867"><ele>82.0</ele><time>2026-04-26T06:23:11.728Z</time></trkpt><trkpt lat="42.7749017" lon="2.7108483"><ele>82.0</ele><time>2026-04-26T06:23:13.729Z</time></trkpt><trkpt lat="42.774945" lon="2.7107783"><ele>82.0</ele><time>2026-04-26T06:23:15.729Z</time></trkpt><trkpt lat="42.774945" lon="2.7107783"><ele>82.0</ele><time>2026-04-26T06:23:15.729Z</time></trkpt><trkpt lat="42.774945" lon="2.7107783"><ele>82.0</ele><time>2026-04-26T06:23:15.729Z</time></trkpt><trkpt lat="42.774945" lon="2.7107783"><ele>82.0</ele><time>2026-04-26T06:23:15.729Z</time></trkpt><trkpt lat="42.774945" lon="2.7107783"><ele>82.0</ele><time>2026-04-26T06:23:15.729Z</time></trkpt><trkpt lat="42.774945" lon="2.7107783"><ele>82.0</ele><time>2026-04-26T06:23:15.729Z</time></trkpt><trkpt lat="42.774945" lon="2.7107783"><ele>82.0</ele><time>2026-04-26T06:23:15.729Z</time></trkpt><trkpt lat="42.774945" lon="2.7107783"><ele>82.0</ele><time>2026-04-26T06:23:15.729Z</time></trkpt><trkpt lat="42.774945" lon="2.7107783"><ele>82.0</ele><time>2026-04-26T06:23:15.729Z</time></trkpt><trkpt lat="42.774945" lon="2.7107783"><ele>82.0</ele><time>2026-04-26T06:23:15.729Z</time></trkpt><trkpt lat="42.774945" lon="2.7107783"><ele>82.0</ele><time>2026-04-26T06:23:15.729Z</time></trkpt><trkpt lat="42.774945" lon="2.7107783"><ele>82.0</ele><time>2026-04-26T06:23:15.729Z</time></trkpt><trkpt lat="42.774945" lon="2.7107783"><ele>82.0</ele><time>2026-04-26T06:23:15.729Z</time></trkpt><trkpt lat="42.774945" lon="2.7107783"><ele>82.0</ele><time>2026-04-26T06:23:15.729Z</time></trkpt></trkseg><trkseg><trkpt lat="42.774885" lon="2.7106733"><ele>81.99999999999999</ele><time>2026-04-26T06:33:44.728Z</time></trkpt><trkpt lat="42.7748417" lon="2.71074"><ele>82.0</ele><time>2026-04-26T06:34:20.731Z</time></trkpt><trkpt lat="42.77489" lon="2.7108033"><ele>82.0</ele><time>2026-04-26T06:35:11.728Z</time></trkpt><trkpt lat="42.774845" lon="2.7107383"><ele>82.0</ele><time>2026-04-26T06:36:10.731Z</time></trkpt><trkpt lat="42.77477" lon="2.710775"><ele>82.0</ele><time>2026-04-26T06:36:31.728Z</time></trkpt><trkpt lat="42.7746867" lon="2.7107917"><ele>81.99999999999999</ele><time>2026-04-26T06:36:33.731Z</time></trkpt><trkpt lat="42.77466" lon="2.710705"><ele>82.0</ele><time>2026-04-26T06:36:35.732Z</time></trkpt><trkpt lat="42.774665" lon="2.7105783"><ele>82.0</ele><time>2026-04-26T06:36:37.729Z</time></trkpt><trkpt lat="42.774675" lon="2.7104117"><ele>82.0</ele><time>2026-04-26T06:36:39.731Z</time></trkpt><trkpt lat="42.7746867" lon="2.7103067"><ele>82.0</ele><time>2026-04-26T06:36:40.73Z</time></trkpt><trkpt lat="42.7746983" lon="2.7101967"><ele>82.0</ele><time>2026-04-26T06:36:41.729Z</time></trkpt><trkpt lat="42.774715" lon="2.71008"><ele>82.0</ele><time>2026-04-26T06:36:42.728Z</time></trkpt><trkpt lat="42.7747417" lon="2.7099633"><ele>81.83333333333333</ele><time>2026-04-26T06:36:43.727Z</time></trkpt><trkpt lat="42.7747817" lon="2.7098617"><ele>81.66666666666666</ele><time>2026-04-26T06:36:44.729Z</time></trkpt><trkpt lat="42.7748383" lon="2.7097767"><ele>81.5</ele><time>2026-04-26T06:36:45.727Z</time></trkpt><trkpt lat="42.7749117" lon="2.7097233"><ele>81.33333333333333</ele><time>2026-04-26T06:36:46.731Z</time></trkpt><trkpt lat="42.7749883" lon="2.709715"><ele>81.16666666666667</ele><time>2026-04-26T06:36:47.729Z</time></trkpt><trkpt lat="42.77506" lon="2.7097217"><ele>81.0</ele><time>2026-04-26T06:36:48.729Z</time></trkpt><trkpt lat="42.7751417" lon="2.7097283"><ele>79.66666666666667</ele><time>2026-04-26T06:36:49.729Z</time></trkpt><trkpt lat="42.7752217" lon="2.70972"><ele>78.33333333333333</ele><time>2026-04-26T06:36:50.73Z</time></trkpt><trkpt lat="42.775285" lon="2.7096617"><ele>77.0</ele><time>2026-04-26T06:36:51.731Z</time></trkpt><trkpt lat="42.775345" lon="2.709575"><ele>75.66666666666666</ele><time>2026-04-26T06:36:52.729Z</time></trkpt><trkpt lat="42.7754067" lon="2.709485"><ele>74.33333333333333</ele><time>2026-04-26T06:36:53.729Z</time></trkpt><trkpt lat="42.775485" lon="2.7094117"><ele>73.0</ele><time>2026-04-26T06:36:54.729Z</time></trkpt><trkpt lat="42.7755667" lon="2.7093283"><ele>72.4</ele><time>2026-04-26T06:36:55.731Z</time></trkpt><trkpt lat="42.7756533" lon="2.7092417"><ele>71.8</ele><time>2026-04-26T06:36:56.729Z</time></trkpt><trkpt lat="42.7757383" lon="2.7091533"><ele>71.2</ele><time>2026-04-26T06:36:57.729Z</time></trkpt><trkpt lat="42.775815" lon="2.7090667"><ele>70.6</ele><time>2026-04-26T06:36:58.731Z</time></trkpt><trkpt lat="42.7758883" lon="2.708985"><ele>70.0</ele><time>2026-04-26T06:36:59.73Z</time></trkpt><trkpt lat="42.7759633" lon="2.7089067"><ele>70.0</ele><time>2026-04-26T06:37:00.729Z</time></trkpt><trkpt lat="42.7760417" lon="2.7088217"><ele>70.0</ele><time>2026-04-26T06:37:01.73Z</time></trkpt><trkpt lat="42.776125" lon="2.70873"><ele>70.0</ele><time>2026-04-26T06:37:02.728Z</time></trkpt><trkpt lat="42.776215" lon="2.70863"><ele>70.0</ele><time>2026-04-26T06:37:03.728Z</time></trkpt><trkpt lat="42.7763067" lon="2.7085267"><ele>70.0</ele><time>2026-04-26T06:37:04.729Z</time></trkpt><trkpt lat="42.776405" lon="2.7084233"><ele>70.0</ele><time>2026-04-26T06:37:05.729Z</time></trkpt><trkpt lat="42.7765017" lon="2.70832"><ele>70.0</ele><time>2026-04-26T06:37:06.73Z</time></trkpt><trkpt lat="42.7765933" lon="2.7082217"><ele>70.0</ele><time>2026-04-26T06:37:07.728Z</time></trkpt><trkpt lat="42.7766767" lon="2.708125"><ele>70.0</ele><time>2026-04-26T06:37:08.73Z</time></trkpt><trkpt lat="42.7767583" lon="2.7080317"><ele>70.0</ele><time>2026-04-26T06:37:09.73Z</time></trkpt><trkpt lat="42.7768383" lon="2.70796"><ele>70.0</ele><time>2026-04-26T06:37:10.733Z</time></trkpt><trkpt lat="42.7769167" lon="2.70792"><ele>70.0</ele><time>2026-04-26T06:37:11.729Z</time></trkpt><trkpt lat="42.776995" lon="2.7079133"><ele>70.0</ele><time>2026-04-26T06:37:12.728Z</time></trkpt><trkpt lat="42.7770517" lon="2.7079967"><ele>70.0</ele><time>2026-04-26T06:37:13.728Z</time></trkpt><trkpt lat="42.7771017" lon="2.7081017"><ele>70.0</ele><time>2026-04-26T06:37:14.729Z</time></trkpt><trkpt lat="42.7771267" lon="2.70823"><ele>72.6</ele><time>2026-04-26T06:37:15.729Z</time></trkpt><trkpt lat="42.7771583" lon="2.7083633"><ele>75.2</ele><time>2026-04-26T06:37:16.729Z</time></trkpt><trkpt lat="42.777185" lon="2.7085133"><ele>77.80000000000001</ele><time>2026-04-26T06:37:17.73Z</time></trkpt><trkpt lat="42.777205" lon="2.7086617"><ele>80.4</ele><time>2026-04-26T06:37:18.73Z</time></trkpt><trkpt lat="42.77723" lon="2.708805"><ele>83.0</ele><time>2026-04-26T06:37:19.729Z</time></trkpt><trkpt lat="42.7772617" lon="2.708945"><ele>83.0</ele><time>2026-04-26T06:37:20.73Z</time></trkpt><trkpt lat="42.777295" lon="2.70908"><ele>83.0</ele><time>2026-04-26T06:37:21.728Z</time></trkpt><trkpt lat="42.7773283" lon="2.7092083"><ele>83.0</ele><time>2026-04-26T06:37:22.729Z</time></trkpt><trkpt lat="42.7773583" lon="2.7093233"><ele>83.0</ele><time>2026-04-26T06:37:23.731Z</time></trkpt><trkpt lat="42.7773817" lon="2.70943"><ele>83.0</ele><time>2026-04-26T06:37:24.729Z</time></trkpt><trkpt lat="42.7774033" lon="2.7095267"><ele>81.80000000000001</ele><time>2026-04-26T06:37:25.729Z</time></trkpt><trkpt lat="42.777425" lon="2.7096217"><ele>80.60000000000001</ele><time>2026-04-26T06:37:26.73Z</time></trkpt><trkpt lat="42.777445" lon="2.7097133"><ele>79.4</ele><time>2026-04-26T06:37:27.729Z</time></trkpt><trkpt lat="42.777465" lon="2.7098"><ele>78.2</ele><time>2026-04-26T06:37:28.728Z</time></trkpt><trkpt lat="42.77751" lon="2.709955"><ele>77.0</ele><time>2026-04-26T06:37:30.728Z</time></trkpt><trkpt lat="42.7775667" lon="2.710115"><ele>77.0</ele><time>2026-04-26T06:37:32.729Z</time></trkpt><trkpt lat="42.777605" lon="2.71021"><ele>77.0</ele><time>2026-04-26T06:37:33.735Z</time></trkpt><trkpt lat="42.77764" lon="2.71031"><ele>77.0</ele><time>2026-04-26T06:37:34.727Z</time></trkpt><trkpt lat="42.7776733" lon="2.71043"><ele>77.0</ele><time>2026-04-26T06:37:35.73Z</time></trkpt><trkpt lat="42.7777067" lon="2.7105667"><ele>77.0</ele><time>2026-04-26T06:37:36.728Z</time></trkpt><trkpt lat="42.7777333" lon="2.71071"><ele>81.0</ele><time>2026-04-26T06:37:37.729Z</time></trkpt><trkpt lat="42.7777483" lon="2.7108567"><ele>85.0</ele><time>2026-04-26T06:37:38.729Z</time></trkpt><trkpt lat="42.7777517" lon="2.7110083"><ele>89.0</ele><time>2026-04-26T06:37:39.728Z</time></trkpt><trkpt lat="42.7777483" lon="2.7111617"><ele>93.0</ele><time>2026-04-26T06:37:40.732Z</time></trkpt><trkpt lat="42.7777433" lon="2.711325"><ele>93.0</ele><time>2026-04-26T06:37:41.728Z</time></trkpt><trkpt lat="42.7777417" lon="2.711495"><ele>93.0</ele><time>2026-04-26T06:37:42.732Z</time></trkpt><trkpt lat="42.7777433" lon="2.7116717"><ele>93.0</ele><time>2026-04-26T06:37:43.728Z</time></trkpt><trkpt lat="42.777755" lon="2.7118483"><ele>93.0</ele><time>2026-04-26T06:37:44.73Z</time></trkpt><trkpt lat="42.7777667" lon="2.71202"><ele>91.5</ele><time>2026-04-26T06:37:45.728Z</time></trkpt><trkpt lat="42.7777833" lon="2.7121933"><ele>90.0</ele><time>2026-04-26T06:37:46.728Z</time></trkpt><trkpt lat="42.777795" lon="2.71236"><ele>88.5</ele><time>2026-04-26T06:37:47.728Z</time></trkpt><trkpt lat="42.7778083" lon="2.7125183"><ele>87.0</ele><time>2026-04-26T06:37:48.727Z</time></trkpt><trkpt lat="42.777825" lon="2.7126667"><ele>86.39999999999999</ele><time>2026-04-26T06:37:49.728Z</time></trkpt><trkpt lat="42.7778333" lon="2.71281"><ele>85.8</ele><time>2026-04-26T06:37:50.728Z</time></trkpt><trkpt lat="42.7778333" lon="2.712955"><ele>85.2</ele><time>2026-04-26T06:37:51.727Z</time></trkpt><trkpt lat="42.7778067" lon="2.7131"><ele>84.6</ele><time>2026-04-26T06:37:52.728Z</time></trkpt><trkpt lat="42.7777733" lon="2.71324"><ele>84.0</ele><time>2026-04-26T06:37:53.729Z</time></trkpt><trkpt lat="42.777745" lon="2.7133733"><ele>84.0</ele><time>2026-04-26T06:37:54.728Z</time></trkpt><trkpt lat="42.7777267" lon="2.713505"><ele>84.0</ele><time>2026-04-26T06:37:55.73Z</time></trkpt><trkpt lat="42.777725" lon="2.71364"><ele>84.0</ele><time>2026-04-26T06:37:56.728Z</time></trkpt><trkpt lat="42.7777483" lon="2.7137783"><ele>84.0</ele><time>2026-04-26T06:37:57.728Z</time></trkpt><trkpt lat="42.7777883" lon="2.71391"><ele>84.0</ele><time>2026-04-26T06:37:58.731Z</time></trkpt><trkpt lat="42.777845" lon="2.714045"><ele>83.0</ele><time>2026-04-26T06:37:59.731Z</time></trkpt><trkpt lat="42.7779" lon="2.714185"><ele>82.0</ele><time>2026-04-26T06:38:00.729Z</time></trkpt><trkpt lat="42.77794" lon="2.7143383"><ele>81.0</ele><time>2026-04-26T06:38:01.728Z</time></trkpt><trkpt lat="42.7779633" lon="2.714505"><ele>80.0</ele><time>2026-04-26T06:38:02.728Z</time></trkpt><trkpt lat="42.7779783" lon="2.714685"><ele>78.75</ele><time>2026-04-26T06:38:03.73Z</time></trkpt><trkpt lat="42.77799" lon="2.7148667"><ele>77.5</ele><time>2026-04-26T06:38:04.73Z</time></trkpt><trkpt lat="42.7780017" lon="2.7150517"><ele>76.25</ele><time>2026-04-26T06:38:05.729Z</time></trkpt><trkpt lat="42.7780233" lon="2.71524"><ele>75.0</ele><time>2026-04-26T06:38:06.729Z</time></trkpt><trkpt lat="42.7780483" lon="2.715435"><ele>74.0</ele><time>2026-04-26T06:38:07.728Z</time></trkpt><trkpt lat="42.77807" lon="2.7156317"><ele>73.0</ele><time>2026-04-26T06:38:08.731Z</time></trkpt><trkpt lat="42.7780967" lon="2.7158283"><ele>72.0</ele><time>2026-04-26T06:38:09.73Z</time></trkpt><trkpt lat="42.7781333" lon="2.7160267"><ele>71.0</ele><time>2026-04-26T06:38:10.731Z</time></trkpt><trkpt lat="42.7781783" lon="2.7162183"><ele>70.25</ele><time>2026-04-26T06:38:11.731Z</time></trkpt><trkpt lat="42.7782267" lon="2.7164017"><ele>69.5</ele><time>2026-04-26T06:38:12.727Z</time></trkpt><trkpt lat="42.778275" lon="2.7165717"><ele>68.75</ele><time>2026-04-26T06:38:13.728Z</time></trkpt><trkpt lat="42.77832" lon="2.7167267"><ele>68.0</ele><time>2026-04-26T06:38:14.73Z</time></trkpt><trkpt lat="42.7783683" lon="2.7168567"><ele>68.0</ele><time>2026-04-26T06:38:15.73Z</time></trkpt><trkpt lat="42.7784333" lon="2.7169483"><ele>68.0</ele><time>2026-04-26T06:38:16.73Z</time></trkpt><trkpt lat="42.7785033" lon="2.7170067"><ele>68.0</ele><time>2026-04-26T06:38:17.728Z</time></trkpt><trkpt lat="42.778565" lon="2.7169883"><ele>68.0</ele><time>2026-04-26T06:38:18.729Z</time></trkpt><trkpt lat="42.7786117" lon="2.7169283"><ele>68.0</ele><time>2026-04-26T06:38:19.731Z</time></trkpt><trkpt lat="42.7786433" lon="2.71683"><ele>68.0</ele><time>2026-04-26T06:38:20.728Z</time></trkpt><trkpt lat="42.77866" lon="2.7167017"><ele>68.2</ele><time>2026-04-26T06:38:21.729Z</time></trkpt><trkpt lat="42.77868" lon="2.716585"><ele>68.4</ele><time>2026-04-26T06:38:22.729Z</time></trkpt><trkpt lat="42.7787033" lon="2.7164833"><ele>68.60000000000001</ele><time>2026-04-26T06:38:23.73Z</time></trkpt><trkpt lat="42.7787367" lon="2.7164017"><ele>68.8</ele><time>2026-04-26T06:38:24.728Z</time></trkpt><trkpt lat="42.7788633" lon="2.7163533"><ele>69.0</ele><time>2026-04-26T06:38:26.728Z</time></trkpt><trkpt lat="42.7789517" lon="2.7163683"><ele>69.0</ele><time>2026-04-26T06:38:27.729Z</time></trkpt><trkpt lat="42.7790483" lon="2.71639"><ele>69.0</ele><time>2026-04-26T06:38:28.732Z</time></trkpt><trkpt lat="42.779145" lon="2.716415"><ele>69.0</ele><time>2026-04-26T06:38:29.729Z</time></trkpt><trkpt lat="42.7792483" lon="2.716435"><ele>69.0</ele><time>2026-04-26T06:38:30.729Z</time></trkpt><trkpt lat="42.7793483" lon="2.7164517"><ele>69.0</ele><time>2026-04-26T06:38:31.729Z</time></trkpt><trkpt lat="42.779445" lon="2.7164667"><ele>72.80000000000001</ele><time>2026-04-26T06:38:32.729Z</time></trkpt><trkpt lat="42.7795283" lon="2.7165"><ele>76.60000000000001</ele><time>2026-04-26T06:38:33.729Z</time></trkpt><trkpt lat="42.7796" lon="2.7165617"><ele>80.4</ele><time>2026-04-26T06:38:34.729Z</time></trkpt><trkpt lat="42.7796583" lon="2.716655"><ele>84.2</ele><time>2026-04-26T06:38:35.728Z</time></trkpt><trkpt lat="42.7796917" lon="2.7167733"><ele>88.0</ele><time>2026-04-26T06:38:36.729Z</time></trkpt><trkpt lat="42.779705" lon="2.71691"><ele>88.25</ele><time>2026-04-26T06:38:37.731Z</time></trkpt><trkpt lat="42.7796933" lon="2.7170633"><ele>88.5</ele><time>2026-04-26T06:38:38.728Z</time></trkpt><trkpt lat="42.7796833" lon="2.71722"><ele>88.75</ele><time>2026-04-26T06:38:39.729Z</time></trkpt><trkpt lat="42.7796817" lon="2.7173833"><ele>89.0</ele><time>2026-04-26T06:38:40.728Z</time></trkpt><trkpt lat="42.7796817" lon="2.717555"><ele>89.0</ele><time>2026-04-26T06:38:41.727Z</time></trkpt><trkpt lat="42.77969" lon="2.7177233"><ele>89.0</ele><time>2026-04-26T06:38:42.728Z</time></trkpt><trkpt lat="42.7797033" lon="2.7178867"><ele>89.0</ele><time>2026-04-26T06:38:43.729Z</time></trkpt><trkpt lat="42.7797117" lon="2.7180417"><ele>89.0</ele><time>2026-04-26T06:38:44.729Z</time></trkpt><trkpt lat="42.7797" lon="2.718195"><ele>88.25</ele><time>2026-04-26T06:38:45.729Z</time></trkpt><trkpt lat="42.7796683" lon="2.71835"><ele>87.5</ele><time>2026-04-26T06:38:46.728Z</time></trkpt><trkpt lat="42.7796283" lon="2.718505"><ele>86.75</ele><time>2026-04-26T06:38:47.729Z</time></trkpt><trkpt lat="42.77959" lon="2.718665"><ele>86.0</ele><time>2026-04-26T06:38:48.728Z</time></trkpt><trkpt lat="42.7795483" lon="2.718825"><ele>88.5</ele><time>2026-04-26T06:38:49.729Z</time></trkpt><trkpt lat="42.779505" lon="2.718985"><ele>91.0</ele><time>2026-04-26T06:38:50.728Z</time></trkpt><trkpt lat="42.779465" lon="2.719145"><ele>93.5</ele><time>2026-04-26T06:38:51.729Z</time></trkpt><trkpt lat="42.7794333" lon="2.7193117"><ele>96.0</ele><time>2026-04-26T06:38:52.727Z</time></trkpt><trkpt lat="42.77942" lon="2.7194867"><ele>97.25</ele><time>2026-04-26T06:38:53.73Z</time></trkpt><trkpt lat="42.7794167" lon="2.7196633"><ele>98.5</ele><time>2026-04-26T06:38:54.729Z</time></trkpt><trkpt lat="42.7794233" lon="2.7198417"><ele>99.75</ele><time>2026-04-26T06:38:55.728Z</time></trkpt><trkpt lat="42.7794383" lon="2.72001"><ele>101.0</ele><time>2026-04-26T06:38:56.732Z</time></trkpt><trkpt lat="42.7794533" lon="2.7201733"><ele>99.25</ele><time>2026-04-26T06:38:57.728Z</time></trkpt><trkpt lat="42.77949" lon="2.7203333"><ele>97.5</ele><time>2026-04-26T06:38:58.728Z</time></trkpt><trkpt lat="42.7795383" lon="2.7204967"><ele>95.75</ele><time>2026-04-26T06:38:59.729Z</time></trkpt><trkpt lat="42.779585" lon="2.72067"><ele>94.0</ele><time>2026-04-26T06:39:00.729Z</time></trkpt><trkpt lat="42.7796233" lon="2.7208533"><ele>94.0</ele><time>2026-04-26T06:39:01.73Z</time></trkpt><trkpt lat="42.779665" lon="2.7210483"><ele>94.0</ele><time>2026-04-26T06:39:02.729Z</time></trkpt><trkpt lat="42.7797133" lon="2.72125"><ele>94.0</ele><time>2026-04-26T06:39:03.728Z</time></trkpt><trkpt lat="42.77977" lon="2.7214567"><ele>90.33333333333333</ele><time>2026-04-26T06:39:04.728Z</time></trkpt><trkpt lat="42.7798283" lon="2.721665"><ele>86.66666666666667</ele><time>2026-04-26T06:39:05.73Z</time></trkpt><trkpt lat="42.7798933" lon="2.7218733"><ele>83.0</ele><time>2026-04-26T06:39:06.729Z</time></trkpt><trkpt lat="42.7799567" lon="2.72208"><ele>80.75</ele><time>2026-04-26T06:39:07.728Z</time></trkpt><trkpt lat="42.7800167" lon="2.7222783"><ele>78.5</ele><time>2026-04-26T06:39:08.728Z</time></trkpt><trkpt lat="42.7800783" lon="2.7224617"><ele>76.25</ele><time>2026-04-26T06:39:09.727Z</time></trkpt><trkpt lat="42.7801367" lon="2.7226383"><ele>74.0</ele><time>2026-04-26T06:39:10.731Z</time></trkpt><trkpt lat="42.780175" lon="2.7228217"><ele>83.0</ele><time>2026-04-26T06:39:11.731Z</time></trkpt><trkpt lat="42.7801967" lon="2.7230167"><ele>92.0</ele><time>2026-04-26T06:39:12.728Z</time></trkpt><trkpt lat="42.78022" lon="2.7232267"><ele>101.0</ele><time>2026-04-26T06:39:13.728Z</time></trkpt><trkpt lat="42.7802417" lon="2.7234483"><ele>103.0</ele><time>2026-04-26T06:39:14.729Z</time></trkpt><trkpt lat="42.7802583" lon="2.72367"><ele>105.0</ele><time>2026-04-26T06:39:15.728Z</time></trkpt><trkpt lat="42.7802683" lon="2.7238883"><ele>107.0</ele><time>2026-04-26T06:39:16.728Z</time></trkpt><trkpt lat="42.7802767" lon="2.7241"><ele>107.0</ele><time>2026-04-26T06:39:17.728Z</time></trkpt><trkpt lat="42.7802783" lon="2.724305"><ele>107.0</ele><time>2026-04-26T06:39:18.728Z</time></trkpt><trkpt lat="42.7802667" lon="2.7244983"><ele>107.0</ele><time>2026-04-26T06:39:19.729Z</time></trkpt><trkpt lat="42.780245" lon="2.7246817"><ele>107.0</ele><time>2026-04-26T06:39:20.731Z</time></trkpt><trkpt lat="42.78022" lon="2.7248483"><ele>107.6</ele><time>2026-04-26T06:39:21.735Z</time></trkpt><trkpt lat="42.780185" lon="2.7249933"><ele>108.19999999999999</ele><time>2026-04-26T06:39:22.729Z</time></trkpt><trkpt lat="42.780135" lon="2.7251083"><ele>108.8</ele><time>2026-04-26T06:39:23.732Z</time></trkpt><trkpt lat="42.780075" lon="2.7252033"><ele>109.4</ele><time>2026-04-26T06:39:24.731Z</time></trkpt><trkpt lat="42.7800067" lon="2.7252767"><ele>110.0</ele><time>2026-04-26T06:39:25.73Z</time></trkpt><trkpt lat="42.77992" lon="2.725315"><ele>105.99999999999999</ele><time>2026-04-26T06:39:26.731Z</time></trkpt><trkpt lat="42.7798267" lon="2.7253283"><ele>102.0</ele><time>2026-04-26T06:39:27.732Z</time></trkpt><trkpt lat="42.7797367" lon="2.7253283"><ele>98.0</ele><time>2026-04-26T06:39:28.73Z</time></trkpt><trkpt lat="42.7796567" lon="2.72534"><ele>94.0</ele><time>2026-04-26T06:39:29.73Z</time></trkpt><trkpt lat="42.7795917" lon="2.7253683"><ele>90.0</ele><time>2026-04-26T06:39:30.73Z</time></trkpt><trkpt lat="42.77957" lon="2.7254683"><ele>86.0</ele><time>2026-04-26T06:39:31.732Z</time></trkpt><trkpt lat="42.779565" lon="2.725595"><ele>86.0</ele><time>2026-04-26T06:39:32.732Z</time></trkpt><trkpt lat="42.77955" lon="2.72573"><ele>86.0</ele><time>2026-04-26T06:39:33.731Z</time></trkpt><trkpt lat="42.77951" lon="2.72587"><ele>86.0</ele><time>2026-04-26T06:39:34.73Z</time></trkpt><trkpt lat="42.7794583" lon="2.7260133"><ele>86.0</ele><time>2026-04-26T06:39:35.73Z</time></trkpt><trkpt lat="42.779405" lon="2.7261633"><ele>86.75</ele><time>2026-04-26T06:39:36.73Z</time></trkpt><trkpt lat="42.7793617" lon="2.7263283"><ele>87.5</ele><time>2026-04-26T06:39:37.732Z</time></trkpt><trkpt lat="42.77933" lon="2.7265133"><ele>88.25</ele><time>2026-04-26T06:39:38.73Z</time></trkpt><trkpt lat="42.7792983" lon="2.7267067"><ele>89.0</ele><time>2026-04-26T06:39:39.73Z</time></trkpt><trkpt lat="42.779265" lon="2.7268967"><ele>82.66666666666667</ele><time>2026-04-26T06:39:40.729Z</time></trkpt><trkpt lat="42.77922" lon="2.7270883"><ele>76.33333333333333</ele><time>2026-04-26T06:39:41.731Z</time></trkpt><trkpt lat="42.7791683" lon="2.7272783"><ele>70.0</ele><time>2026-04-26T06:39:42.733Z</time></trkpt><trkpt lat="42.7791133" lon="2.7274733"><ele>70.0</ele><time>2026-04-26T06:39:43.733Z</time></trkpt><trkpt lat="42.7790533" lon="2.7276733"><ele>70.0</ele><time>2026-04-26T06:39:44.731Z</time></trkpt><trkpt lat="42.7789917" lon="2.72787"><ele>70.0</ele><time>2026-04-26T06:39:45.729Z</time></trkpt><trkpt lat="42.7789317" lon="2.7280617"><ele>71.0</ele><time>2026-04-26T06:39:46.729Z</time></trkpt><trkpt lat="42.7788733" lon="2.7282567"><ele>72.0</ele><time>2026-04-26T06:39:47.73Z</time></trkpt><trkpt lat="42.7788133" lon="2.7284533"><ele>73.0</ele><time>2026-04-26T06:39:48.729Z</time></trkpt><trkpt lat="42.77875" lon="2.72865"><ele>73.0</ele><time>2026-04-26T06:39:49.734Z</time></trkpt><trkpt lat="42.7786867" lon="2.7288483"><ele>73.0</ele><time>2026-04-26T06:39:50.728Z</time></trkpt><trkpt lat="42.778625" lon="2.7290517"><ele>73.0</ele><time>2026-04-26T06:39:51.73Z</time></trkpt><trkpt lat="42.7785633" lon="2.7292567"><ele>70.0</ele><time>2026-04-26T06:39:52.728Z</time></trkpt><trkpt lat="42.7785" lon="2.72946"><ele>67.0</ele><time>2026-04-26T06:39:53.733Z</time></trkpt><trkpt lat="42.778435" lon="2.729665"><ele>64.0</ele><time>2026-04-26T06:39:54.729Z</time></trkpt><trkpt lat="42.7783717" lon="2.7298717"><ele>64.0</ele><time>2026-04-26T06:39:55.733Z</time></trkpt><trkpt lat="42.7783133" lon="2.7300817"><ele>64.0</ele><time>2026-04-26T06:39:56.73Z</time></trkpt><trkpt lat="42.778255" lon="2.73029"><ele>64.0</ele><time>2026-04-26T06:39:57.732Z</time></trkpt><trkpt lat="42.7781967" lon="2.7304867"><ele>64.25</ele><time>2026-04-26T06:39:58.729Z</time></trkpt><trkpt lat="42.77814" lon="2.7306767"><ele>64.5</ele><time>2026-04-26T06:39:59.729Z</time></trkpt><trkpt lat="42.77808" lon="2.73086"><ele>64.75</ele><time>2026-04-26T06:40:00.729Z</time></trkpt><trkpt lat="42.77802" lon="2.7310433"><ele>65.0</ele><time>2026-04-26T06:40:01.728Z</time></trkpt><trkpt lat="42.7779483" lon="2.731215"><ele>65.5</ele><time>2026-04-26T06:40:02.73Z</time></trkpt><trkpt lat="42.7778767" lon="2.731385"><ele>66.0</ele><time>2026-04-26T06:40:03.729Z</time></trkpt><trkpt lat="42.7777983" lon="2.731555"><ele>66.5</ele><time>2026-04-26T06:40:04.729Z</time></trkpt><trkpt lat="42.7777267" lon="2.7317333"><ele>67.0</ele><time>2026-04-26T06:40:05.729Z</time></trkpt><trkpt lat="42.7776633" lon="2.7319167"><ele>65.33333333333333</ele><time>2026-04-26T06:40:06.729Z</time></trkpt><trkpt lat="42.777605" lon="2.7321033"><ele>63.66666666666667</ele><time>2026-04-26T06:40:07.727Z</time></trkpt><trkpt lat="42.7775583" lon="2.7322983"><ele>62.0</ele><time>2026-04-26T06:40:08.73Z</time></trkpt><trkpt lat="42.7775217" lon="2.7324983"><ele>62.0</ele><time>2026-04-26T06:40:09.728Z</time></trkpt><trkpt lat="42.7775017" lon="2.732705"><ele>62.0</ele><time>2026-04-26T06:40:10.729Z</time></trkpt><trkpt lat="42.77749" lon="2.7329183"><ele>62.0</ele><time>2026-04-26T06:40:11.727Z</time></trkpt><trkpt lat="42.7774867" lon="2.7331367"><ele>62.333333333333336</ele><time>2026-04-26T06:40:12.727Z</time></trkpt><trkpt lat="42.7774783" lon="2.7333583"><ele>62.66666666666667</ele><time>2026-04-26T06:40:13.727Z</time></trkpt><trkpt lat="42.7774683" lon="2.733585"><ele>63.0</ele><time>2026-04-26T06:40:14.728Z</time></trkpt><trkpt lat="42.7774567" lon="2.733815"><ele>63.0</ele><time>2026-04-26T06:40:15.727Z</time></trkpt><trkpt lat="42.777445" lon="2.7340483"><ele>63.0</ele><time>2026-04-26T06:40:16.727Z</time></trkpt><trkpt lat="42.777435" lon="2.7342817"><ele>63.0</ele><time>2026-04-26T06:40:17.726Z</time></trkpt><trkpt lat="42.777425" lon="2.734515"><ele>63.0</ele><time>2026-04-26T06:40:18.728Z</time></trkpt><trkpt lat="42.777415" lon="2.734745"><ele>63.0</ele><time>2026-04-26T06:40:19.728Z</time></trkpt><trkpt lat="42.777405" lon="2.734975"><ele>63.0</ele><time>2026-04-26T06:40:20.728Z</time></trkpt><trkpt lat="42.7773933" lon="2.7352017"><ele>63.33333333333333</ele><time>2026-04-26T06:40:21.728Z</time></trkpt><trkpt lat="42.7773817" lon="2.7354283"><ele>63.666666666666664</ele><time>2026-04-26T06:40:22.727Z</time></trkpt><trkpt lat="42.777375" lon="2.7356483"><ele>64.0</ele><time>2026-04-26T06:40:23.728Z</time></trkpt><trkpt lat="42.777365" lon="2.7358667"><ele>64.33333333333333</ele><time>2026-04-26T06:40:24.727Z</time></trkpt><trkpt lat="42.7773567" lon="2.7360867"><ele>64.66666666666667</ele><time>2026-04-26T06:40:25.728Z</time></trkpt><trkpt lat="42.7773483" lon="2.7363017"><ele>65.0</ele><time>2026-04-26T06:40:26.73Z</time></trkpt><trkpt lat="42.7773433" lon="2.7365167"><ele>65.0</ele><time>2026-04-26T06:40:27.727Z</time></trkpt><trkpt lat="42.7773317" lon="2.73673"><ele>65.0</ele><time>2026-04-26T06:40:28.728Z</time></trkpt><trkpt lat="42.7773183" lon="2.7369383"><ele>65.0</ele><time>2026-04-26T06:40:29.727Z</time></trkpt><trkpt lat="42.777295" lon="2.73714"><ele>64.75</ele><time>2026-04-26T06:40:30.727Z</time></trkpt><trkpt lat="42.77726" lon="2.7373333"><ele>64.5</ele><time>2026-04-26T06:40:31.728Z</time></trkpt><trkpt lat="42.777215" lon="2.7375183"><ele>64.25</ele><time>2026-04-26T06:40:32.729Z</time></trkpt><trkpt lat="42.7771717" lon="2.7377"><ele>64.0</ele><time>2026-04-26T06:40:33.73Z</time></trkpt><trkpt lat="42.7771317" lon="2.7378783"><ele>64.0</ele><time>2026-04-26T06:40:34.728Z</time></trkpt><trkpt lat="42.777085" lon="2.7380517"><ele>64.0</ele><time>2026-04-26T06:40:35.728Z</time></trkpt><trkpt lat="42.777035" lon="2.7382267"><ele>64.0</ele><time>2026-04-26T06:40:36.726Z</time></trkpt><trkpt lat="42.7769967" lon="2.7384083"><ele>64.0</ele><time>2026-04-26T06:40:37.727Z</time></trkpt><trkpt lat="42.77697" lon="2.7385967"><ele>64.25</ele><time>2026-04-26T06:40:38.727Z</time></trkpt><trkpt lat="42.7769383" lon="2.738785"><ele>64.5</ele><time>2026-04-26T06:40:39.731Z</time></trkpt><trkpt lat="42.776895" lon="2.738975"><ele>64.75</ele><time>2026-04-26T06:40:40.727Z</time></trkpt><trkpt lat="42.77685" lon="2.7391683"><ele>65.0</ele><time>2026-04-26T06:40:41.728Z</time></trkpt><trkpt lat="42.7767983" lon="2.739365"><ele>63.66666666666667</ele><time>2026-04-26T06:40:42.728Z</time></trkpt><trkpt lat="42.7767467" lon="2.73957"><ele>62.33333333333333</ele><time>2026-04-26T06:40:43.727Z</time></trkpt><trkpt lat="42.776695" lon="2.739775"><ele>61.0</ele><time>2026-04-26T06:40:44.728Z</time></trkpt><trkpt lat="42.776645" lon="2.7399883"><ele>61.0</ele><time>2026-04-26T06:40:45.728Z</time></trkpt><trkpt lat="42.7765967" lon="2.740205"><ele>61.0</ele><time>2026-04-26T06:40:46.727Z</time></trkpt><trkpt lat="42.7765467" lon="2.7404233"><ele>61.0</ele><time>2026-04-26T06:40:47.734Z</time></trkpt><trkpt lat="42.7764967" lon="2.7406467"><ele>61.0</ele><time>2026-04-26T06:40:48.727Z</time></trkpt><trkpt lat="42.7764433" lon="2.7408667"><ele>61.0</ele><time>2026-04-26T06:40:49.728Z</time></trkpt><trkpt lat="42.7763917" lon="2.74109"><ele>61.0</ele><time>2026-04-26T06:40:50.73Z</time></trkpt><trkpt lat="42.7763383" lon="2.741315"><ele>61.33333333333333</ele><time>2026-04-26T06:40:51.73Z</time></trkpt><trkpt lat="42.776285" lon="2.74154"><ele>61.66666666666667</ele><time>2026-04-26T06:40:52.729Z</time></trkpt><trkpt lat="42.7762333" lon="2.7417617"><ele>62.0</ele><time>2026-04-26T06:40:53.73Z</time></trkpt><trkpt lat="42.7761817" lon="2.7419767"><ele>62.0</ele><time>2026-04-26T06:40:54.729Z</time></trkpt><trkpt lat="42.77613" lon="2.7421917"><ele>62.0</ele><time>2026-04-26T06:40:55.733Z</time></trkpt><trkpt lat="42.7760783" lon="2.7424083"><ele>62.0</ele><time>2026-04-26T06:40:56.731Z</time></trkpt><trkpt lat="42.7760283" lon="2.7426267"><ele>62.0</ele><time>2026-04-26T06:40:57.728Z</time></trkpt><trkpt lat="42.7759817" lon="2.742845"><ele>62.0</ele><time>2026-04-26T06:40:58.727Z</time></trkpt><trkpt lat="42.775935" lon="2.7430633"><ele>62.0</ele><time>2026-04-26T06:40:59.728Z</time></trkpt><trkpt lat="42.7758867" lon="2.74328"><ele>62.0</ele><time>2026-04-26T06:41:00.727Z</time></trkpt><trkpt lat="42.7758367" lon="2.7434933"><ele>62.0</ele><time>2026-04-26T06:41:01.731Z</time></trkpt><trkpt lat="42.7757883" lon="2.7436967"><ele>62.0</ele><time>2026-04-26T06:41:02.728Z</time></trkpt><trkpt lat="42.7757417" lon="2.7438883"><ele>62.25</ele><time>2026-04-26T06:41:03.729Z</time></trkpt><trkpt lat="42.7756983" lon="2.744075"><ele>62.5</ele><time>2026-04-26T06:41:04.727Z</time></trkpt><trkpt lat="42.7756567" lon="2.744255"><ele>62.75</ele><time>2026-04-26T06:41:05.727Z</time></trkpt><trkpt lat="42.7756167" lon="2.7444233"><ele>63.0</ele><time>2026-04-26T06:41:06.728Z</time></trkpt><trkpt lat="42.77558" lon="2.74458"><ele>62.599999999999994</ele><time>2026-04-26T06:41:07.728Z</time></trkpt><trkpt lat="42.7755467" lon="2.7447217"><ele>62.199999999999996</ele><time>2026-04-26T06:41:08.729Z</time></trkpt><trkpt lat="42.7755167" lon="2.7448383"><ele>61.8</ele><time>2026-04-26T06:41:09.729Z</time></trkpt><trkpt lat="42.775495" lon="2.744935"><ele>61.4</ele><time>2026-04-26T06:41:10.727Z</time></trkpt><trkpt lat="42.775535" lon="2.7450433"><ele>61.0</ele><time>2026-04-26T06:41:12.727Z</time></trkpt><trkpt lat="42.7756617" lon="2.7450717"><ele>61.0</ele><time>2026-04-26T06:41:14.728Z</time></trkpt><trkpt lat="42.775745" lon="2.745085"><ele>60.99999999999999</ele><time>2026-04-26T06:41:15.729Z</time></trkpt><trkpt lat="42.77583" lon="2.745105"><ele>60.99999999999999</ele><time>2026-04-26T06:41:16.729Z</time></trkpt><trkpt lat="42.775925" lon="2.7451267"><ele>61.0</ele><time>2026-04-26T06:41:17.728Z</time></trkpt><trkpt lat="42.7760233" lon="2.7451533"><ele>61.0</ele><time>2026-04-26T06:41:18.731Z</time></trkpt><trkpt lat="42.77613" lon="2.7451783"><ele>61.599999999999994</ele><time>2026-04-26T06:41:19.727Z</time></trkpt><trkpt lat="42.7762417" lon="2.7452083"><ele>62.199999999999996</ele><time>2026-04-26T06:41:20.727Z</time></trkpt><trkpt lat="42.7763533" lon="2.7452333"><ele>62.800000000000004</ele><time>2026-04-26T06:41:21.731Z</time></trkpt><trkpt lat="42.7764633" lon="2.7452633"><ele>63.400000000000006</ele><time>2026-04-26T06:41:22.728Z</time></trkpt><trkpt lat="42.7765667" lon="2.74529"><ele>64.0</ele><time>2026-04-26T06:41:23.729Z</time></trkpt><trkpt lat="42.776655" lon="2.7453183"><ele>65.0</ele><time>2026-04-26T06:41:24.73Z</time></trkpt><trkpt lat="42.7767333" lon="2.7453517"><ele>66.0</ele><time>2026-04-26T06:41:25.728Z</time></trkpt><trkpt lat="42.776795" lon="2.7453933"><ele>67.0</ele><time>2026-04-26T06:41:26.728Z</time></trkpt><trkpt lat="42.7768533" lon="2.745445"><ele>68.0</ele><time>2026-04-26T06:41:27.728Z</time></trkpt><trkpt lat="42.77695" lon="2.7455067"><ele>69.0</ele><time>2026-04-26T06:41:29.731Z</time></trkpt><trkpt lat="42.777025" lon="2.7454183"><ele>70.0</ele><time>2026-04-26T06:41:31.732Z</time></trkpt><trkpt lat="42.777055" lon="2.7453267"><ele>71.4</ele><time>2026-04-26T06:41:32.727Z</time></trkpt><trkpt lat="42.7770917" lon="2.745245"><ele>72.8</ele><time>2026-04-26T06:41:33.728Z</time></trkpt><trkpt lat="42.7771533" lon="2.7451283"><ele>74.2</ele><time>2026-04-26T06:41:35.728Z</time></trkpt><trkpt lat="42.7772267" lon="2.74518"><ele>75.6</ele><time>2026-04-26T06:41:38.727Z</time></trkpt><trkpt lat="42.7772883" lon="2.7452733"><ele>77.0</ele><time>2026-04-26T06:41:40.726Z</time></trkpt><trkpt lat="42.7773867" lon="2.7453583"><ele>77.16666666666667</ele><time>2026-04-26T06:41:42.727Z</time></trkpt><trkpt lat="42.7774467" lon="2.7454167"><ele>77.33333333333334</ele><time>2026-04-26T06:41:43.729Z</time></trkpt><trkpt lat="42.7775083" lon="2.7454833"><ele>77.5</ele><time>2026-04-26T06:41:44.727Z</time></trkpt><trkpt lat="42.7775667" lon="2.7455583"><ele>77.66666666666667</ele><time>2026-04-26T06:41:45.728Z</time></trkpt><trkpt lat="42.77762" lon="2.7456333"><ele>77.83333333333333</ele><time>2026-04-26T06:41:46.727Z</time></trkpt><trkpt lat="42.77767" lon="2.7457133"><ele>78.0</ele><time>2026-04-26T06:41:47.733Z</time></trkpt><trkpt lat="42.7777183" lon="2.7457967"><ele>79.33333333333333</ele><time>2026-04-26T06:41:48.727Z</time></trkpt><trkpt lat="42.77776" lon="2.7458883"><ele>80.66666666666667</ele><time>2026-04-26T06:41:49.729Z</time></trkpt><trkpt lat="42.7778033" lon="2.74599"><ele>82.0</ele><time>2026-04-26T06:41:50.729Z</time></trkpt><trkpt lat="42.7778467" lon="2.7460967"><ele>83.33333333333334</ele><time>2026-04-26T06:41:51.728Z</time></trkpt><trkpt lat="42.7778883" lon="2.746205"><ele>84.66666666666667</ele><time>2026-04-26T06:41:52.728Z</time></trkpt><trkpt lat="42.7779283" lon="2.7462983"><ele>86.0</ele><time>2026-04-26T06:41:53.73Z</time></trkpt><trkpt lat="42.7779633" lon="2.7463733"><ele>86.0</ele><time>2026-04-26T06:41:54.728Z</time></trkpt><trkpt lat="42.77804" lon="2.746465"><ele>86.0</ele><time>2026-04-26T06:41:56.728Z</time></trkpt><trkpt lat="42.778155" lon="2.74654"><ele>86.0</ele><time>2026-04-26T06:41:58.729Z</time></trkpt><trkpt lat="42.7782117" lon="2.7465917"><ele>86.0</ele><time>2026-04-26T06:41:59.728Z</time></trkpt><trkpt lat="42.7782667" lon="2.7466633"><ele>86.0</ele><time>2026-04-26T06:42:00.727Z</time></trkpt><trkpt lat="42.778315" lon="2.7467317"><ele>86.0</ele><time>2026-04-26T06:42:01.728Z</time></trkpt><trkpt lat="42.778405" lon="2.746815"><ele>86.0</ele><time>2026-04-26T06:42:03.727Z</time></trkpt><trkpt lat="42.7785133" lon="2.7468483"><ele>86.0</ele><time>2026-04-26T06:42:05.728Z</time></trkpt><trkpt lat="42.778575" lon="2.7468667"><ele>86.0</ele><time>2026-04-26T06:42:06.729Z</time></trkpt><trkpt lat="42.7786433" lon="2.74688"><ele>86.0</ele><time>2026-04-26T06:42:07.732Z</time></trkpt><trkpt lat="42.7787183" lon="2.74689"><ele>86.0</ele><time>2026-04-26T06:42:08.728Z</time></trkpt><trkpt lat="42.77879" lon="2.746895"><ele>86.0</ele><time>2026-04-26T06:42:09.729Z</time></trkpt><trkpt lat="42.7788633" lon="2.746895"><ele>87.83333333333334</ele><time>2026-04-26T06:42:10.728Z</time></trkpt><trkpt lat="42.7789483" lon="2.74688"><ele>89.66666666666667</ele><time>2026-04-26T06:42:11.728Z</time></trkpt><trkpt lat="42.7790333" lon="2.7468567"><ele>91.5</ele><time>2026-04-26T06:42:12.728Z</time></trkpt><trkpt lat="42.77912" lon="2.7468383"><ele>93.33333333333334</ele><time>2026-04-26T06:42:13.73Z</time></trkpt><trkpt lat="42.7791967" lon="2.7468333"><ele>95.16666666666667</ele><time>2026-04-26T06:42:14.727Z</time></trkpt><trkpt lat="42.7792633" lon="2.74684"><ele>97.0</ele><time>2026-04-26T06:42:15.73Z</time></trkpt><trkpt lat="42.7793267" lon="2.7467967"><ele>99.16666666666667</ele><time>2026-04-26T06:42:16.727Z</time></trkpt><trkpt lat="42.7793867" lon="2.746745"><ele>101.33333333333334</ele><time>2026-04-26T06:42:17.732Z</time></trkpt><trkpt lat="42.77944" lon="2.746595"><ele>103.5</ele><time>2026-04-26T06:42:19.728Z</time></trkpt><trkpt lat="42.7794567" lon="2.7465067"><ele>105.66666666666666</ele><time>2026-04-26T06:42:20.727Z</time></trkpt><trkpt lat="42.779485" lon="2.7464067"><ele>107.83333333333333</ele><time>2026-04-26T06:42:21.73Z</time></trkpt><trkpt lat="42.7795167" lon="2.74632"><ele>110.0</ele><time>2026-04-26T06:42:22.728Z</time></trkpt><trkpt lat="42.7795567" lon="2.7462367"><ele>109.99999999999999</ele><time>2026-04-26T06:42:23.73Z</time></trkpt><trkpt lat="42.7795967" lon="2.7461517"><ele>110.0</ele><time>2026-04-26T06:42:24.728Z</time></trkpt><trkpt lat="42.7796383" lon="2.746075"><ele>110.0</ele><time>2026-04-26T06:42:25.728Z</time></trkpt><trkpt lat="42.7797083" lon="2.74597"><ele>110.0</ele><time>2026-04-26T06:42:27.728Z</time></trkpt><trkpt lat="42.7798" lon="2.7458717"><ele>109.99999999999999</ele><time>2026-04-26T06:42:29.728Z</time></trkpt><trkpt lat="42.77985" lon="2.7458083"><ele>110.0</ele><time>2026-04-26T06:42:30.727Z</time></trkpt><trkpt lat="42.779905" lon="2.74573"><ele>109.99999999999999</ele><time>2026-04-26T06:42:31.728Z</time></trkpt><trkpt lat="42.779965" lon="2.7456467"><ele>110.0</ele><time>2026-04-26T06:42:32.727Z</time></trkpt><trkpt lat="42.7800283" lon="2.7455633"><ele>110.0</ele><time>2026-04-26T06:42:33.728Z</time></trkpt><trkpt lat="42.7800933" lon="2.7454917"><ele>110.0</ele><time>2026-04-26T06:42:34.728Z</time></trkpt><trkpt lat="42.78016" lon="2.74543"><ele>109.99999999999999</ele><time>2026-04-26T06:42:35.728Z</time></trkpt><trkpt lat="42.7802267" lon="2.7453767"><ele>110.0</ele><time>2026-04-26T06:42:36.728Z</time></trkpt><trkpt lat="42.7802967" lon="2.7453467"><ele>111.16666666666666</ele><time>2026-04-26T06:42:37.728Z</time></trkpt><trkpt lat="42.7803667" lon="2.74534"><ele>112.33333333333333</ele><time>2026-04-26T06:42:38.728Z</time></trkpt><trkpt lat="42.78043" lon="2.7453283"><ele>113.5</ele><time>2026-04-26T06:42:39.729Z</time></trkpt><trkpt lat="42.7805567" lon="2.745295"><ele>114.66666666666666</ele><time>2026-04-26T06:42:41.728Z</time></trkpt><trkpt lat="42.780625" lon="2.745285"><ele>115.83333333333333</ele><time>2026-04-26T06:42:42.727Z</time></trkpt><trkpt lat="42.7806883" lon="2.7452833"><ele>117.0</ele><time>2026-04-26T06:42:43.728Z</time></trkpt><trkpt lat="42.780755" lon="2.7452817"><ele>117.0</ele><time>2026-04-26T06:42:44.727Z</time></trkpt><trkpt lat="42.78087" lon="2.745255"><ele>117.0</ele><time>2026-04-26T06:42:46.727Z</time></trkpt><trkpt lat="42.78097" lon="2.7452033"><ele>117.0</ele><time>2026-04-26T06:42:48.727Z</time></trkpt><trkpt lat="42.7810333" lon="2.74517"><ele>117.0</ele><time>2026-04-26T06:42:49.728Z</time></trkpt><trkpt lat="42.7811067" lon="2.7451383"><ele>117.0</ele><time>2026-04-26T06:42:50.728Z</time></trkpt><trkpt lat="42.7811783" lon="2.7451117"><ele>117.0</ele><time>2026-04-26T06:42:51.727Z</time></trkpt><trkpt lat="42.7812517" lon="2.7450883"><ele>117.83333333333333</ele><time>2026-04-26T06:42:52.727Z</time></trkpt><trkpt lat="42.7813233" lon="2.74507"><ele>118.66666666666666</ele><time>2026-04-26T06:42:53.727Z</time></trkpt><trkpt lat="42.7813867" lon="2.7450717"><ele>119.5</ele><time>2026-04-26T06:42:54.727Z</time></trkpt><trkpt lat="42.7814533" lon="2.74516"><ele>120.33333333333333</ele><time>2026-04-26T06:42:56.73Z</time></trkpt><trkpt lat="42.78149" lon="2.7453"><ele>121.16666666666666</ele><time>2026-04-26T06:42:58.727Z</time></trkpt><trkpt lat="42.7815467" lon="2.745375"><ele>122.0</ele><time>2026-04-26T06:43:00.727Z</time></trkpt><trkpt lat="42.7816517" lon="2.74543"><ele>122.83333333333333</ele><time>2026-04-26T06:43:02.727Z</time></trkpt><trkpt lat="42.7817317" lon="2.7454583"><ele>123.66666666666666</ele><time>2026-04-26T06:43:03.727Z</time></trkpt><trkpt lat="42.7818067" lon="2.7454933"><ele>124.5</ele><time>2026-04-26T06:43:04.728Z</time></trkpt><trkpt lat="42.7818817" lon="2.745525"><ele>125.33333333333334</ele><time>2026-04-26T06:43:05.733Z</time></trkpt><trkpt lat="42.781955" lon="2.7455617"><ele>126.16666666666667</ele><time>2026-04-26T06:43:06.727Z</time></trkpt><trkpt lat="42.7820217" lon="2.7455983"><ele>127.0</ele><time>2026-04-26T06:43:07.728Z</time></trkpt><trkpt lat="42.7821217" lon="2.7456917"><ele>127.83333333333334</ele><time>2026-04-26T06:43:09.727Z</time></trkpt><trkpt lat="42.7821717" lon="2.7457567"><ele>128.66666666666669</ele><time>2026-04-26T06:43:10.727Z</time></trkpt><trkpt lat="42.7822267" lon="2.745825"><ele>129.5</ele><time>2026-04-26T06:43:11.729Z</time></trkpt><trkpt lat="42.782285" lon="2.745895"><ele>130.33333333333334</ele><time>2026-04-26T06:43:12.728Z</time></trkpt><trkpt lat="42.7823417" lon="2.7459667"><ele>131.16666666666666</ele><time>2026-04-26T06:43:13.735Z</time></trkpt><trkpt lat="42.78239" lon="2.7460333"><ele>132.0</ele><time>2026-04-26T06:43:14.727Z</time></trkpt><trkpt lat="42.7824717" lon="2.746145"><ele>133.6</ele><time>2026-04-26T06:43:16.728Z</time></trkpt><trkpt lat="42.78255" lon="2.7462417"><ele>135.2</ele><time>2026-04-26T06:43:18.729Z</time></trkpt><trkpt lat="42.7825917" lon="2.746355"><ele>136.8</ele><time>2026-04-26T06:43:20.728Z</time></trkpt><trkpt lat="42.7826367" lon="2.74646"><ele>138.4</ele><time>2026-04-26T06:43:22.729Z</time></trkpt><trkpt lat="42.7826983" lon="2.7465683"><ele>140.0</ele><time>2026-04-26T06:43:24.733Z</time></trkpt><trkpt lat="42.7827533" lon="2.746695"><ele>143.0</ele><time>2026-04-26T06:43:26.729Z</time></trkpt><trkpt lat="42.782785" lon="2.7468233"><ele>146.0</ele><time>2026-04-26T06:43:28.727Z</time></trkpt><trkpt lat="42.782825" lon="2.7469583"><ele>149.0</ele><time>2026-04-26T06:43:30.727Z</time></trkpt><trkpt lat="42.782865" lon="2.7470933"><ele>152.0</ele><time>2026-04-26T06:43:32.727Z</time></trkpt><trkpt lat="42.7829267" lon="2.7472067"><ele>155.0</ele><time>2026-04-26T06:43:34.727Z</time></trkpt><trkpt lat="42.7830067" lon="2.7472933"><ele>155.4</ele><time>2026-04-26T06:43:36.728Z</time></trkpt><trkpt lat="42.783085" lon="2.747375"><ele>155.8</ele><time>2026-04-26T06:43:38.728Z</time></trkpt><trkpt lat="42.7831567" lon="2.7474583"><ele>156.2</ele><time>2026-04-26T06:43:40.727Z</time></trkpt><trkpt lat="42.7832467" lon="2.7475567"><ele>156.6</ele><time>2026-04-26T06:43:42.73Z</time></trkpt><trkpt lat="42.78334" lon="2.7476067"><ele>157.0</ele><time>2026-04-26T06:43:44.728Z</time></trkpt><trkpt lat="42.7834333" lon="2.7476133"><ele>159.0</ele><time>2026-04-26T06:43:46.73Z</time></trkpt><trkpt lat="42.783535" lon="2.7476183"><ele>161.0</ele><time>2026-04-26T06:43:48.73Z</time></trkpt><trkpt lat="42.783645" lon="2.74762"><ele>163.0</ele><time>2026-04-26T06:43:50.73Z</time></trkpt><trkpt lat="42.783765" lon="2.7476433"><ele>165.0</ele><time>2026-04-26T06:43:52.729Z</time></trkpt><trkpt lat="42.7838333" lon="2.7476483"><ele>167.0</ele><time>2026-04-26T06:43:53.731Z</time></trkpt><trkpt lat="42.7839" lon="2.747645"><ele>167.0</ele><time>2026-04-26T06:43:54.727Z</time></trkpt><trkpt lat="42.783965" lon="2.74763"><ele>167.0</ele><time>2026-04-26T06:43:55.729Z</time></trkpt><trkpt lat="42.7840317" lon="2.7475967"><ele>167.0</ele><time>2026-04-26T06:43:56.732Z</time></trkpt><trkpt lat="42.7840933" lon="2.74754"><ele>167.0</ele><time>2026-04-26T06:43:57.73Z</time></trkpt><trkpt lat="42.7841383" lon="2.74746"><ele>167.0</ele><time>2026-04-26T06:43:58.73Z</time></trkpt><trkpt lat="42.7841733" lon="2.7473717"><ele>167.0</ele><time>2026-04-26T06:43:59.728Z</time></trkpt><trkpt lat="42.784205" lon="2.747275"><ele>167.0</ele><time>2026-04-26T06:44:00.729Z</time></trkpt><trkpt lat="42.7842283" lon="2.747175"><ele>167.0</ele><time>2026-04-26T06:44:01.732Z</time></trkpt><trkpt lat="42.7842483" lon="2.7470717"><ele>167.0</ele><time>2026-04-26T06:44:02.729Z</time></trkpt><trkpt lat="42.78427" lon="2.7469667"><ele>167.0</ele><time>2026-04-26T06:44:03.73Z</time></trkpt><trkpt lat="42.784285" lon="2.746855"><ele>167.0</ele><time>2026-04-26T06:44:04.728Z</time></trkpt><trkpt lat="42.7842967" lon="2.7467467"><ele>167.0</ele><time>2026-04-26T06:44:05.728Z</time></trkpt><trkpt lat="42.7843133" lon="2.7466383"><ele>167.0</ele><time>2026-04-26T06:44:06.729Z</time></trkpt><trkpt lat="42.7843333" lon="2.7465283"><ele>168.14285714285714</ele><time>2026-04-26T06:44:07.727Z</time></trkpt><trkpt lat="42.7843583" lon="2.7464317"><ele>169.28571428571428</ele><time>2026-04-26T06:44:08.728Z</time></trkpt><trkpt lat="42.78438" lon="2.7463333"><ele>170.42857142857144</ele><time>2026-04-26T06:44:09.729Z</time></trkpt><trkpt lat="42.78439" lon="2.74624"><ele>171.57142857142856</ele><time>2026-04-26T06:44:10.728Z</time></trkpt><trkpt lat="42.7843967" lon="2.746145"><ele>172.71428571428572</ele><time>2026-04-26T06:44:11.728Z</time></trkpt><trkpt lat="42.784405" lon="2.74605"><ele>173.85714285714286</ele><time>2026-04-26T06:44:12.731Z</time></trkpt><trkpt lat="42.78441" lon="2.7459567"><ele>175.0</ele><time>2026-04-26T06:44:13.73Z</time></trkpt><trkpt lat="42.7844083" lon="2.7458617"><ele>175.83333333333334</ele><time>2026-04-26T06:44:14.73Z</time></trkpt><trkpt lat="42.784415" lon="2.7457667"><ele>176.66666666666669</ele><time>2026-04-26T06:44:15.729Z</time></trkpt><trkpt lat="42.784425" lon="2.7456717"><ele>177.5</ele><time>2026-04-26T06:44:16.731Z</time></trkpt><trkpt lat="42.7844417" lon="2.74558"><ele>178.33333333333334</ele><time>2026-04-26T06:44:17.73Z</time></trkpt><trkpt lat="42.7844583" lon="2.7454933"><ele>179.16666666666666</ele><time>2026-04-26T06:44:18.73Z</time></trkpt><trkpt lat="42.78448" lon="2.7453267"><ele>180.0</ele><time>2026-04-26T06:44:20.73Z</time></trkpt><trkpt lat="42.7844833" lon="2.7452333"><ele>180.5</ele><time>2026-04-26T06:44:21.731Z</time></trkpt><trkpt lat="42.7844783" lon="2.7451383"><ele>181.0</ele><time>2026-04-26T06:44:22.728Z</time></trkpt><trkpt lat="42.7844633" lon="2.74504"><ele>181.5</ele><time>2026-04-26T06:44:23.727Z</time></trkpt><trkpt lat="42.784445" lon="2.74494"><ele>182.0</ele><time>2026-04-26T06:44:24.728Z</time></trkpt><trkpt lat="42.7844317" lon="2.74485"><ele>182.5</ele><time>2026-04-26T06:44:25.731Z</time></trkpt><trkpt lat="42.7844267" lon="2.7446983"><ele>183.0</ele><time>2026-04-26T06:44:27.728Z</time></trkpt><trkpt lat="42.7844517" lon="2.74454"><ele>183.0</ele><time>2026-04-26T06:44:29.733Z</time></trkpt><trkpt lat="42.7844667" lon="2.7444333"><ele>183.0</ele><time>2026-04-26T06:44:30.73Z</time></trkpt><trkpt lat="42.78448" lon="2.7443283"><ele>183.0</ele><time>2026-04-26T06:44:31.727Z</time></trkpt><trkpt lat="42.7844933" lon="2.7442283"><ele>183.0</ele><time>2026-04-26T06:44:32.729Z</time></trkpt><trkpt lat="42.7845067" lon="2.744135"><ele>183.0</ele><time>2026-04-26T06:44:33.728Z</time></trkpt><trkpt lat="42.7845333" lon="2.743965"><ele>183.0</ele><time>2026-04-26T06:44:35.727Z</time></trkpt><trkpt lat="42.784545" lon="2.7438733"><ele>184.0</ele><time>2026-04-26T06:44:36.728Z</time></trkpt><trkpt lat="42.7845633" lon="2.74378"><ele>185.0</ele><time>2026-04-26T06:44:37.729Z</time></trkpt><trkpt lat="42.7845833" lon="2.74368"><ele>186.0</ele><time>2026-04-26T06:44:38.73Z</time></trkpt><trkpt lat="42.7845983" lon="2.7435683"><ele>187.0</ele><time>2026-04-26T06:44:39.729Z</time></trkpt><trkpt lat="42.7846" lon="2.7434633"><ele>188.0</ele><time>2026-04-26T06:44:40.728Z</time></trkpt><trkpt lat="42.78459" lon="2.743375"><ele>189.0</ele><time>2026-04-26T06:44:41.729Z</time></trkpt><trkpt lat="42.7845467" lon="2.74329"><ele>190.0</ele><time>2026-04-26T06:44:42.728Z</time></trkpt><trkpt lat="42.7844817" lon="2.7432"><ele>189.83333333333334</ele><time>2026-04-26T06:44:43.728Z</time></trkpt><trkpt lat="42.784425" lon="2.7431033"><ele>189.66666666666669</ele><time>2026-04-26T06:44:44.73Z</time></trkpt><trkpt lat="42.7843817" lon="2.743005"><ele>189.5</ele><time>2026-04-26T06:44:45.731Z</time></trkpt><trkpt lat="42.7843583" lon="2.7429117"><ele>189.33333333333334</ele><time>2026-04-26T06:44:46.731Z</time></trkpt><trkpt lat="42.7843583" lon="2.742815"><ele>189.16666666666666</ele><time>2026-04-26T06:44:47.733Z</time></trkpt><trkpt lat="42.784385" lon="2.7427167"><ele>189.0</ele><time>2026-04-26T06:44:48.731Z</time></trkpt><trkpt lat="42.7844283" lon="2.7426233"><ele>189.0</ele><time>2026-04-26T06:44:49.729Z</time></trkpt><trkpt lat="42.78447" lon="2.7425417"><ele>189.0</ele><time>2026-04-26T06:44:50.73Z</time></trkpt><trkpt lat="42.7845317" lon="2.7424217"><ele>189.0</ele><time>2026-04-26T06:44:52.73Z</time></trkpt><trkpt lat="42.784585" lon="2.7423517"><ele>189.0</ele><time>2026-04-26T06:44:54.727Z</time></trkpt><trkpt lat="42.78466" lon="2.7422667"><ele>189.0</ele><time>2026-04-26T06:44:56.731Z</time></trkpt><trkpt lat="42.7847067" lon="2.742195"><ele>189.0</ele><time>2026-04-26T06:44:57.728Z</time></trkpt><trkpt lat="42.7847583" lon="2.7421233"><ele>189.0</ele><time>2026-04-26T06:44:58.728Z</time></trkpt><trkpt lat="42.7848183" lon="2.742065"><ele>189.0</ele><time>2026-04-26T06:44:59.729Z</time></trkpt><trkpt lat="42.78488" lon="2.74202"><ele>189.0</ele><time>2026-04-26T06:45:00.728Z</time></trkpt><trkpt lat="42.7850033" lon="2.7420383"><ele>189.0</ele><time>2026-04-26T06:45:02.73Z</time></trkpt><trkpt lat="42.78508" lon="2.7420967"><ele>189.0</ele><time>2026-04-26T06:45:03.732Z</time></trkpt><trkpt lat="42.7851583" lon="2.7421433"><ele>189.0</ele><time>2026-04-26T06:45:04.728Z</time></trkpt><trkpt lat="42.7852317" lon="2.74218"><ele>188.66666666666666</ele><time>2026-04-26T06:45:05.727Z</time></trkpt><trkpt lat="42.7852967" lon="2.7422133"><ele>188.33333333333334</ele><time>2026-04-26T06:45:06.729Z</time></trkpt><trkpt lat="42.78539" lon="2.7423117"><ele>188.0</ele><time>2026-04-26T06:45:08.731Z</time></trkpt><trkpt lat="42.7854267" lon="2.7423867"><ele>187.66666666666669</ele><time>2026-04-26T06:45:09.734Z</time></trkpt><trkpt lat="42.7854633" lon="2.7424767"><ele>187.33333333333334</ele><time>2026-04-26T06:45:10.728Z</time></trkpt><trkpt lat="42.7855017" lon="2.742575"><ele>187.0</ele><time>2026-04-26T06:45:11.729Z</time></trkpt><trkpt lat="42.785545" lon="2.7426767"><ele>186.0</ele><time>2026-04-26T06:45:12.728Z</time></trkpt><trkpt lat="42.78559" lon="2.74279"><ele>185.0</ele><time>2026-04-26T06:45:13.728Z</time></trkpt><trkpt lat="42.7856317" lon="2.742905"><ele>184.0</ele><time>2026-04-26T06:45:14.729Z</time></trkpt><trkpt lat="42.7856667" lon="2.7430167"><ele>183.0</ele><time>2026-04-26T06:45:15.729Z</time></trkpt><trkpt lat="42.7856983" lon="2.743125"><ele>182.0</ele><time>2026-04-26T06:45:16.729Z</time></trkpt><trkpt lat="42.7857267" lon="2.7432417"><ele>182.0</ele><time>2026-04-26T06:45:17.728Z</time></trkpt><trkpt lat="42.7857633" lon="2.7433467"><ele>182.0</ele><time>2026-04-26T06:45:18.73Z</time></trkpt><trkpt lat="42.7857983" lon="2.7434417"><ele>182.0</ele><time>2026-04-26T06:45:19.728Z</time></trkpt><trkpt lat="42.7858317" lon="2.7435333"><ele>182.0</ele><time>2026-04-26T06:45:20.731Z</time></trkpt><trkpt lat="42.7858667" lon="2.7436133"><ele>182.0</ele><time>2026-04-26T06:45:21.731Z</time></trkpt><trkpt lat="42.7859133" lon="2.7437633"><ele>182.0</ele><time>2026-04-26T06:45:23.728Z</time></trkpt><trkpt lat="42.785925" lon="2.743865"><ele>182.16666666666666</ele><time>2026-04-26T06:45:24.728Z</time></trkpt><trkpt lat="42.7859333" lon="2.7439783"><ele>182.33333333333331</ele><time>2026-04-26T06:45:25.729Z</time></trkpt><trkpt lat="42.785945" lon="2.7440817"><ele>182.5</ele><time>2026-04-26T06:45:26.729Z</time></trkpt><trkpt lat="42.7859583" lon="2.7441717"><ele>182.66666666666666</ele><time>2026-04-26T06:45:27.729Z</time></trkpt><trkpt lat="42.7859917" lon="2.7442783"><ele>182.83333333333334</ele><time>2026-04-26T06:45:29.728Z</time></trkpt><trkpt lat="42.7860917" lon="2.7442833"><ele>183.0</ele><time>2026-04-26T06:45:32.73Z</time></trkpt><trkpt lat="42.7861917" lon="2.7442367"><ele>183.0</ele><time>2026-04-26T06:45:47.729Z</time></trkpt><trkpt lat="42.7863233" lon="2.7441817"><ele>183.0</ele><time>2026-04-26T06:45:49.729Z</time></trkpt><trkpt lat="42.786405" lon="2.744135"><ele>183.0</ele><time>2026-04-26T06:45:50.729Z</time></trkpt><trkpt lat="42.7864883" lon="2.7440833"><ele>183.0</ele><time>2026-04-26T06:45:51.728Z</time></trkpt><trkpt lat="42.786575" lon="2.7440333"><ele>183.0</ele><time>2026-04-26T06:45:52.73Z</time></trkpt><trkpt lat="42.78666" lon="2.7439867"><ele>183.0</ele><time>2026-04-26T06:45:53.73Z</time></trkpt><trkpt lat="42.78675" lon="2.7439467"><ele>183.0</ele><time>2026-04-26T06:45:54.729Z</time></trkpt><trkpt lat="42.7868467" lon="2.7439317"><ele>183.0</ele><time>2026-04-26T06:45:55.727Z</time></trkpt><trkpt lat="42.7869483" lon="2.7439333"><ele>183.0</ele><time>2026-04-26T06:45:56.728Z</time></trkpt><trkpt lat="42.78705" lon="2.7439417"><ele>183.0</ele><time>2026-04-26T06:45:57.727Z</time></trkpt><trkpt lat="42.7871567" lon="2.7439483"><ele>183.83333333333334</ele><time>2026-04-26T06:45:58.73Z</time></trkpt><trkpt lat="42.7872567" lon="2.7439467"><ele>184.66666666666666</ele><time>2026-04-26T06:45:59.727Z</time></trkpt><trkpt lat="42.7873417" lon="2.743935"><ele>185.5</ele><time>2026-04-26T06:46:00.727Z</time></trkpt><trkpt lat="42.7874267" lon="2.74392"><ele>186.33333333333331</ele><time>2026-04-26T06:46:01.728Z</time></trkpt><trkpt lat="42.787505" lon="2.7439"><ele>187.16666666666666</ele><time>2026-04-26T06:46:02.729Z</time></trkpt><trkpt lat="42.7875683" lon="2.7438933"><ele>188.0</ele><time>2026-04-26T06:46:03.729Z</time></trkpt><trkpt lat="42.7876717" lon="2.7439217"><ele>189.33333333333331</ele><time>2026-04-26T06:46:05.729Z</time></trkpt><trkpt lat="42.7877483" lon="2.7439983"><ele>190.66666666666666</ele><time>2026-04-26T06:46:07.728Z</time></trkpt><trkpt lat="42.787815" lon="2.7440833"><ele>192.0</ele><time>2026-04-26T06:46:09.727Z</time></trkpt><trkpt lat="42.7879033" lon="2.7441033"><ele>193.33333333333331</ele><time>2026-04-26T06:46:11.729Z</time></trkpt><trkpt lat="42.7879633" lon="2.74407"><ele>194.66666666666666</ele><time>2026-04-26T06:46:12.727Z</time></trkpt><trkpt lat="42.7880283" lon="2.743985"><ele>196.0</ele><time>2026-04-26T06:46:13.728Z</time></trkpt><trkpt lat="42.7880917" lon="2.7438783"><ele>196.0</ele><time>2026-04-26T06:46:14.729Z</time></trkpt><trkpt lat="42.788155" lon="2.74375"><ele>196.0</ele><time>2026-04-26T06:46:15.728Z</time></trkpt><trkpt lat="42.7882233" lon="2.7436167"><ele>196.0</ele><time>2026-04-26T06:46:16.729Z</time></trkpt><trkpt lat="42.7883" lon="2.7434783"><ele>196.0</ele><time>2026-04-26T06:46:17.729Z</time></trkpt><trkpt lat="42.78838" lon="2.743335"><ele>195.5</ele><time>2026-04-26T06:46:18.728Z</time></trkpt><trkpt lat="42.788465" lon="2.7431883"><ele>195.0</ele><time>2026-04-26T06:46:19.731Z</time></trkpt><trkpt lat="42.7885533" lon="2.743035"><ele>194.5</ele><time>2026-04-26T06:46:20.728Z</time></trkpt><trkpt lat="42.7886433" lon="2.7428733"><ele>194.0</ele><time>2026-04-26T06:46:21.73Z</time></trkpt><trkpt lat="42.7887317" lon="2.74271"><ele>196.25</ele><time>2026-04-26T06:46:22.733Z</time></trkpt><trkpt lat="42.788815" lon="2.74255"><ele>198.5</ele><time>2026-04-26T06:46:23.731Z</time></trkpt><trkpt lat="42.7888933" lon="2.7423917"><ele>200.75</ele><time>2026-04-26T06:46:24.728Z</time></trkpt><trkpt lat="42.7889683" lon="2.7422383"><ele>203.0</ele><time>2026-04-26T06:46:25.728Z</time></trkpt><trkpt lat="42.78904" lon="2.7420833"><ele>203.0</ele><time>2026-04-26T06:46:26.73Z</time></trkpt><trkpt lat="42.7890867" lon="2.7419183"><ele>203.0</ele><time>2026-04-26T06:46:27.728Z</time></trkpt><trkpt lat="42.7890967" lon="2.7417417"><ele>203.0</ele><time>2026-04-26T06:46:28.729Z</time></trkpt><trkpt lat="42.7890767" lon="2.7415533"><ele>203.0</ele><time>2026-04-26T06:46:29.728Z</time></trkpt><trkpt lat="42.7890433" lon="2.7413667"><ele>203.0</ele><time>2026-04-26T06:46:30.728Z</time></trkpt><trkpt lat="42.7890017" lon="2.7411783"><ele>203.0</ele><time>2026-04-26T06:46:31.727Z</time></trkpt><trkpt lat="42.7889617" lon="2.740995"><ele>203.0</ele><time>2026-04-26T06:46:32.729Z</time></trkpt><trkpt lat="42.7889217" lon="2.74081"><ele>203.0</ele><time>2026-04-26T06:46:33.729Z</time></trkpt><trkpt lat="42.7888917" lon="2.7406183"><ele>204.5</ele><time>2026-04-26T06:46:34.728Z</time></trkpt><trkpt lat="42.78888" lon="2.7404217"><ele>206.0</ele><time>2026-04-26T06:46:35.729Z</time></trkpt><trkpt lat="42.7888883" lon="2.7402267"><ele>207.5</ele><time>2026-04-26T06:46:36.728Z</time></trkpt><trkpt lat="42.788905" lon="2.7400283"><ele>209.0</ele><time>2026-04-26T06:46:37.729Z</time></trkpt><trkpt lat="42.7889267" lon="2.7398267"><ele>209.33333333333334</ele><time>2026-04-26T06:46:38.729Z</time></trkpt><trkpt lat="42.7889483" lon="2.73961"><ele>209.66666666666669</ele><time>2026-04-26T06:46:39.729Z</time></trkpt><trkpt lat="42.7889733" lon="2.73939"><ele>210.0</ele><time>2026-04-26T06:46:40.729Z</time></trkpt><trkpt lat="42.7889967" lon="2.73917"><ele>210.0</ele><time>2026-04-26T06:46:41.736Z</time></trkpt><trkpt lat="42.7890183" lon="2.7389467"><ele>210.0</ele><time>2026-04-26T06:46:42.729Z</time></trkpt><trkpt lat="42.7890367" lon="2.73872"><ele>210.0</ele><time>2026-04-26T06:46:43.728Z</time></trkpt><trkpt lat="42.7890533" lon="2.7384867"><ele>209.33333333333331</ele><time>2026-04-26T06:46:44.729Z</time></trkpt><trkpt lat="42.7890717" lon="2.738255"><ele>208.66666666666666</ele><time>2026-04-26T06:46:45.728Z</time></trkpt><trkpt lat="42.7890933" lon="2.7380233"><ele>208.0</ele><time>2026-04-26T06:46:46.729Z</time></trkpt><trkpt lat="42.7891167" lon="2.73779"><ele>207.66666666666666</ele><time>2026-04-26T06:46:47.73Z</time></trkpt><trkpt lat="42.7891367" lon="2.73755"><ele>207.33333333333331</ele><time>2026-04-26T06:46:48.73Z</time></trkpt><trkpt lat="42.7891567" lon="2.7373083"><ele>207.0</ele><time>2026-04-26T06:46:49.738Z</time></trkpt><trkpt lat="42.7891767" lon="2.7370683"><ele>206.33333333333331</ele><time>2026-04-26T06:46:50.73Z</time></trkpt><trkpt lat="42.7892" lon="2.736845"><ele>205.66666666666666</ele><time>2026-04-26T06:46:51.729Z</time></trkpt><trkpt lat="42.78922" lon="2.7366317"><ele>205.0</ele><time>2026-04-26T06:46:52.727Z</time></trkpt><trkpt lat="42.7892367" lon="2.73642"><ele>205.0</ele><time>2026-04-26T06:46:53.729Z</time></trkpt><trkpt lat="42.7892517" lon="2.73621"><ele>205.0</ele><time>2026-04-26T06:46:54.729Z</time></trkpt><trkpt lat="42.7892633" lon="2.736"><ele>205.0</ele><time>2026-04-26T06:46:55.727Z</time></trkpt><trkpt lat="42.7892617" lon="2.7357933"><ele>205.25</ele><time>2026-04-26T06:46:56.728Z</time></trkpt><trkpt lat="42.7892467" lon="2.7356"><ele>205.5</ele><time>2026-04-26T06:46:57.73Z</time></trkpt><trkpt lat="42.7892233" lon="2.73542"><ele>205.75</ele><time>2026-04-26T06:46:58.728Z</time></trkpt><trkpt lat="42.7891983" lon="2.735245"><ele>206.0</ele><time>2026-04-26T06:46:59.728Z</time></trkpt><trkpt lat="42.78918" lon="2.735075"><ele>206.0</ele><time>2026-04-26T06:47:00.729Z</time></trkpt><trkpt lat="42.7891717" lon="2.7349067"><ele>206.0</ele><time>2026-04-26T06:47:01.735Z</time></trkpt><trkpt lat="42.7891867" lon="2.7347433"><ele>206.0</ele><time>2026-04-26T06:47:02.728Z</time></trkpt><trkpt lat="42.789225" lon="2.7345917"><ele>206.0</ele><time>2026-04-26T06:47:03.728Z</time></trkpt><trkpt lat="42.789275" lon="2.7344583"><ele>205.20000000000002</ele><time>2026-04-26T06:47:04.729Z</time></trkpt><trkpt lat="42.7893433" lon="2.7343483"><ele>204.4</ele><time>2026-04-26T06:47:05.729Z</time></trkpt><trkpt lat="42.7894317" lon="2.7342817"><ele>203.6</ele><time>2026-04-26T06:47:06.728Z</time></trkpt><trkpt lat="42.789535" lon="2.734255"><ele>202.8</ele><time>2026-04-26T06:47:07.728Z</time></trkpt><trkpt lat="42.789655" lon="2.73427"><ele>202.0</ele><time>2026-04-26T06:47:08.73Z</time></trkpt><trkpt lat="42.7897833" lon="2.7342733"><ele>202.0</ele><time>2026-04-26T06:47:09.729Z</time></trkpt><trkpt lat="42.7899083" lon="2.734245"><ele>202.0</ele><time>2026-04-26T06:47:10.728Z</time></trkpt><trkpt lat="42.7900283" lon="2.7341783"><ele>202.0</ele><time>2026-04-26T06:47:11.729Z</time></trkpt><trkpt lat="42.79014" lon="2.734075"><ele>202.0</ele><time>2026-04-26T06:47:12.729Z</time></trkpt><trkpt lat="42.7902217" lon="2.7339333"><ele>202.0</ele><time>2026-04-26T06:47:13.727Z</time></trkpt><trkpt lat="42.7902817" lon="2.7337567"><ele>202.0</ele><time>2026-04-26T06:47:14.728Z</time></trkpt><trkpt lat="42.79033" lon="2.7335817"><ele>202.0</ele><time>2026-04-26T06:47:15.727Z</time></trkpt><trkpt lat="42.790375" lon="2.73342"><ele>202.0</ele><time>2026-04-26T06:47:16.729Z</time></trkpt><trkpt lat="42.7904183" lon="2.7332783"><ele>200.6</ele><time>2026-04-26T06:47:17.728Z</time></trkpt><trkpt lat="42.7904717" lon="2.73316"><ele>199.2</ele><time>2026-04-26T06:47:18.728Z</time></trkpt><trkpt lat="42.7905383" lon="2.7330917"><ele>197.8</ele><time>2026-04-26T06:47:19.728Z</time></trkpt><trkpt lat="42.79062" lon="2.733085"><ele>196.4</ele><time>2026-04-26T06:47:20.728Z</time></trkpt><trkpt lat="42.790695" lon="2.733155"><ele>195.0</ele><time>2026-04-26T06:47:21.73Z</time></trkpt><trkpt lat="42.7907567" lon="2.7332633"><ele>195.0</ele><time>2026-04-26T06:47:22.728Z</time></trkpt><trkpt lat="42.79082" lon="2.7333917"><ele>195.0</ele><time>2026-04-26T06:47:23.73Z</time></trkpt><trkpt lat="42.7908883" lon="2.7335267"><ele>195.0</ele><time>2026-04-26T06:47:24.727Z</time></trkpt><trkpt lat="42.79096" lon="2.733665"><ele>195.0</ele><time>2026-04-26T06:47:25.729Z</time></trkpt><trkpt lat="42.79103" lon="2.7337967"><ele>195.8</ele><time>2026-04-26T06:47:26.729Z</time></trkpt><trkpt lat="42.791095" lon="2.7339217"><ele>196.6</ele><time>2026-04-26T06:47:27.731Z</time></trkpt><trkpt lat="42.791155" lon="2.7340517"><ele>197.39999999999998</ele><time>2026-04-26T06:47:28.729Z</time></trkpt><trkpt lat="42.7912067" lon="2.73418"><ele>198.2</ele><time>2026-04-26T06:47:29.729Z</time></trkpt><trkpt lat="42.79127" lon="2.7342783"><ele>199.0</ele><time>2026-04-26T06:47:30.733Z</time></trkpt><trkpt lat="42.7913383" lon="2.734345"><ele>199.0</ele><time>2026-04-26T06:47:31.728Z</time></trkpt><trkpt lat="42.791425" lon="2.7343333"><ele>199.0</ele><time>2026-04-26T06:47:32.73Z</time></trkpt><trkpt lat="42.7914817" lon="2.734235"><ele>199.0</ele><time>2026-04-26T06:47:33.729Z</time></trkpt><trkpt lat="42.79152" lon="2.7341217"><ele>199.0</ele><time>2026-04-26T06:47:34.73Z</time></trkpt><trkpt lat="42.79151" lon="2.7339733"><ele>199.0</ele><time>2026-04-26T06:47:35.728Z</time></trkpt><trkpt lat="42.7914717" lon="2.7338083"><ele>199.0</ele><time>2026-04-26T06:47:36.728Z</time></trkpt><trkpt lat="42.7914367" lon="2.7336517"><ele>199.0</ele><time>2026-04-26T06:47:37.734Z</time></trkpt><trkpt lat="42.7913917" lon="2.73351"><ele>199.0</ele><time>2026-04-26T06:47:38.728Z</time></trkpt><trkpt lat="42.7913483" lon="2.7333683"><ele>199.0</ele><time>2026-04-26T06:47:39.729Z</time></trkpt><trkpt lat="42.7913317" lon="2.7332233"><ele>198.0</ele><time>2026-04-26T06:47:40.729Z</time></trkpt><trkpt lat="42.7913667" lon="2.7330867"><ele>197.0</ele><time>2026-04-26T06:47:41.732Z</time></trkpt><trkpt lat="42.7914233" lon="2.7329517"><ele>196.0</ele><time>2026-04-26T06:47:42.728Z</time></trkpt><trkpt lat="42.7915083" lon="2.732835"><ele>195.0</ele><time>2026-04-26T06:47:43.73Z</time></trkpt><trkpt lat="42.791605" lon="2.73274"><ele>196.0</ele><time>2026-04-26T06:47:44.731Z</time></trkpt><trkpt lat="42.7917183" lon="2.732695"><ele>197.0</ele><time>2026-04-26T06:47:45.728Z</time></trkpt><trkpt lat="42.7918233" lon="2.7327167"><ele>198.0</ele><time>2026-04-26T06:47:46.729Z</time></trkpt><trkpt lat="42.7919117" lon="2.732825"><ele>199.0</ele><time>2026-04-26T06:47:47.729Z</time></trkpt><trkpt lat="42.7919717" lon="2.732975"><ele>199.0</ele><time>2026-04-26T06:47:48.729Z</time></trkpt><trkpt lat="42.7920233" lon="2.73311"><ele>199.0</ele><time>2026-04-26T06:47:49.729Z</time></trkpt><trkpt lat="42.792095" lon="2.7331983"><ele>199.0</ele><time>2026-04-26T06:47:50.729Z</time></trkpt><trkpt lat="42.7921817" lon="2.7332183"><ele>199.0</ele><time>2026-04-26T06:47:51.729Z</time></trkpt><trkpt lat="42.7922717" lon="2.7331817"><ele>199.0</ele><time>2026-04-26T06:47:52.731Z</time></trkpt><trkpt lat="42.792325" lon="2.7330483"><ele>199.0</ele><time>2026-04-26T06:47:53.731Z</time></trkpt><trkpt lat="42.7923283" lon="2.7329117"><ele>199.0</ele><time>2026-04-26T06:47:54.729Z</time></trkpt><trkpt lat="42.7923133" lon="2.7327417"><ele>199.0</ele><time>2026-04-26T06:47:55.729Z</time></trkpt><trkpt lat="42.7922833" lon="2.7325567"><ele>199.0</ele><time>2026-04-26T06:47:56.729Z</time></trkpt><trkpt lat="42.792265" lon="2.7323883"><ele>197.6</ele><time>2026-04-26T06:47:57.729Z</time></trkpt><trkpt lat="42.7922483" lon="2.7322433"><ele>196.2</ele><time>2026-04-26T06:47:58.731Z</time></trkpt><trkpt lat="42.792245" lon="2.73211"><ele>194.79999999999998</ele><time>2026-04-26T06:47:59.73Z</time></trkpt><trkpt lat="42.7922717" lon="2.7319917"><ele>193.39999999999998</ele><time>2026-04-26T06:48:00.728Z</time></trkpt><trkpt lat="42.79233" lon="2.7319017"><ele>192.0</ele><time>2026-04-26T06:48:01.73Z</time></trkpt><trkpt lat="42.7924233" lon="2.73185"><ele>190.75</ele><time>2026-04-26T06:48:02.729Z</time></trkpt><trkpt lat="42.7925367" lon="2.7318217"><ele>189.5</ele><time>2026-04-26T06:48:03.728Z</time></trkpt><trkpt lat="42.792655" lon="2.7317917"><ele>188.25</ele><time>2026-04-26T06:48:04.731Z</time></trkpt><trkpt lat="42.792765" lon="2.7317567"><ele>187.0</ele><time>2026-04-26T06:48:05.731Z</time></trkpt><trkpt lat="42.7928617" lon="2.7317033"><ele>189.6</ele><time>2026-04-26T06:48:06.729Z</time></trkpt><trkpt lat="42.792935" lon="2.7316217"><ele>192.2</ele><time>2026-04-26T06:48:07.729Z</time></trkpt><trkpt lat="42.792985" lon="2.73151"><ele>194.8</ele><time>2026-04-26T06:48:08.729Z</time></trkpt><trkpt lat="42.7929867" lon="2.73139"><ele>197.4</ele><time>2026-04-26T06:48:09.73Z</time></trkpt><trkpt lat="42.79292" lon="2.7312817"><ele>200.0</ele><time>2026-04-26T06:48:10.732Z</time></trkpt><trkpt lat="42.792825" lon="2.7311833"><ele>200.0</ele><time>2026-04-26T06:48:11.729Z</time></trkpt><trkpt lat="42.7927467" lon="2.7310783"><ele>200.0</ele><time>2026-04-26T06:48:12.728Z</time></trkpt><trkpt lat="42.7926967" lon="2.7309467"><ele>200.0</ele><time>2026-04-26T06:48:13.729Z</time></trkpt><trkpt lat="42.7926783" lon="2.7307983"><ele>200.0</ele><time>2026-04-26T06:48:14.73Z</time></trkpt><trkpt lat="42.79268" lon="2.7306367"><ele>200.0</ele><time>2026-04-26T06:48:15.73Z</time></trkpt><trkpt lat="42.7926883" lon="2.7304733"><ele>200.0</ele><time>2026-04-26T06:48:16.73Z</time></trkpt><trkpt lat="42.792695" lon="2.7303083"><ele>200.0</ele><time>2026-04-26T06:48:17.729Z</time></trkpt><trkpt lat="42.7927233" lon="2.7301583"><ele>200.0</ele><time>2026-04-26T06:48:18.729Z</time></trkpt><trkpt lat="42.7927967" lon="2.7300533"><ele>200.0</ele><time>2026-04-26T06:48:19.729Z</time></trkpt><trkpt lat="42.792895" lon="2.7299933"><ele>200.0</ele><time>2026-04-26T06:48:20.731Z</time></trkpt><trkpt lat="42.79299" lon="2.7299317"><ele>200.25</ele><time>2026-04-26T06:48:21.729Z</time></trkpt><trkpt lat="42.7930683" lon="2.729835"><ele>200.5</ele><time>2026-04-26T06:48:22.729Z</time></trkpt><trkpt lat="42.7931183" lon="2.7296833"><ele>200.75</ele><time>2026-04-26T06:48:23.73Z</time></trkpt><trkpt lat="42.7931567" lon="2.7295167"><ele>201.0</ele><time>2026-04-26T06:48:24.729Z</time></trkpt><trkpt lat="42.793175" lon="2.72933"><ele>201.5</ele><time>2026-04-26T06:48:25.728Z</time></trkpt><trkpt lat="42.7931783" lon="2.72913"><ele>202.0</ele><time>2026-04-26T06:48:26.728Z</time></trkpt><trkpt lat="42.7931683" lon="2.7289267"><ele>202.5</ele><time>2026-04-26T06:48:27.733Z</time></trkpt><trkpt lat="42.7931567" lon="2.7287267"><ele>203.0</ele><time>2026-04-26T06:48:28.729Z</time></trkpt><trkpt lat="42.7931517" lon="2.728525"><ele>203.0</ele><time>2026-04-26T06:48:29.729Z</time></trkpt><trkpt lat="42.7931533" lon="2.72833"><ele>203.0</ele><time>2026-04-26T06:48:30.728Z</time></trkpt><trkpt lat="42.7931517" lon="2.728135"><ele>203.0</ele><time>2026-04-26T06:48:31.73Z</time></trkpt><trkpt lat="42.7931433" lon="2.7279433"><ele>203.0</ele><time>2026-04-26T06:48:32.729Z</time></trkpt><trkpt lat="42.7931417" lon="2.7277567"><ele>202.75</ele><time>2026-04-26T06:48:33.734Z</time></trkpt><trkpt lat="42.7931517" lon="2.7275717"><ele>202.5</ele><time>2026-04-26T06:48:34.729Z</time></trkpt><trkpt lat="42.793175" lon="2.7273933"><ele>202.25</ele><time>2026-04-26T06:48:35.728Z</time></trkpt><trkpt lat="42.7932233" lon="2.72723"><ele>202.0</ele><time>2026-04-26T06:48:36.729Z</time></trkpt><trkpt lat="42.7933" lon="2.7270867"><ele>202.0</ele><time>2026-04-26T06:48:37.729Z</time></trkpt><trkpt lat="42.7933967" lon="2.72697"><ele>202.0</ele><time>2026-04-26T06:48:38.729Z</time></trkpt><trkpt lat="42.7935167" lon="2.726905"><ele>202.0</ele><time>2026-04-26T06:48:39.729Z</time></trkpt><trkpt lat="42.7936383" lon="2.7268817"><ele>202.0</ele><time>2026-04-26T06:48:40.729Z</time></trkpt><trkpt lat="42.7937517" lon="2.7268867"><ele>202.2</ele><time>2026-04-26T06:48:41.736Z</time></trkpt><trkpt lat="42.79386" lon="2.7268783"><ele>202.39999999999998</ele><time>2026-04-26T06:48:42.728Z</time></trkpt><trkpt lat="42.7939517" lon="2.7268167"><ele>202.60000000000002</ele><time>2026-04-26T06:48:43.73Z</time></trkpt><trkpt lat="42.794015" lon="2.726695"><ele>202.8</ele><time>2026-04-26T06:48:44.728Z</time></trkpt><trkpt lat="42.7940367" lon="2.7265417"><ele>203.0</ele><time>2026-04-26T06:48:45.729Z</time></trkpt><trkpt lat="42.794015" lon="2.726375"><ele>203.0</ele><time>2026-04-26T06:48:46.727Z</time></trkpt><trkpt lat="42.7939783" lon="2.7262133"><ele>203.0</ele><time>2026-04-26T06:48:47.733Z</time></trkpt><trkpt lat="42.7939583" lon="2.726055"><ele>203.0</ele><time>2026-04-26T06:48:48.73Z</time></trkpt><trkpt lat="42.79397" lon="2.7259067"><ele>203.0</ele><time>2026-04-26T06:48:49.729Z</time></trkpt><trkpt lat="42.7940217" lon="2.72577"><ele>202.0</ele><time>2026-04-26T06:48:50.729Z</time></trkpt><trkpt lat="42.7941033" lon="2.725655"><ele>201.0</ele><time>2026-04-26T06:48:51.734Z</time></trkpt><trkpt lat="42.794215" lon="2.7255733"><ele>200.0</ele><time>2026-04-26T06:48:52.73Z</time></trkpt><trkpt lat="42.7943233" lon="2.7254983"><ele>199.0</ele><time>2026-04-26T06:48:53.733Z</time></trkpt><trkpt lat="42.7944283" lon="2.7254367"><ele>199.0</ele><time>2026-04-26T06:48:54.729Z</time></trkpt><trkpt lat="42.7945267" lon="2.72538"><ele>199.0</ele><time>2026-04-26T06:48:55.728Z</time></trkpt><trkpt lat="42.7946083" lon="2.7252983"><ele>199.0</ele><time>2026-04-26T06:48:56.728Z</time></trkpt><trkpt lat="42.7946567" lon="2.7251817"><ele>199.0</ele><time>2026-04-26T06:48:57.728Z</time></trkpt><trkpt lat="42.794665" lon="2.7250517"><ele>199.0</ele><time>2026-04-26T06:48:58.729Z</time></trkpt><trkpt lat="42.7946483" lon="2.7249283"><ele>197.2</ele><time>2026-04-26T06:48:59.729Z</time></trkpt><trkpt lat="42.7946383" lon="2.7248067"><ele>195.39999999999998</ele><time>2026-04-26T06:49:00.729Z</time></trkpt><trkpt lat="42.7946417" lon="2.724685"><ele>193.6</ele><time>2026-04-26T06:49:01.729Z</time></trkpt><trkpt lat="42.7946717" lon="2.7245717"><ele>191.8</ele><time>2026-04-26T06:49:02.729Z</time></trkpt><trkpt lat="42.7947433" lon="2.724475"><ele>190.0</ele><time>2026-04-26T06:49:03.732Z</time></trkpt><trkpt lat="42.7948267" lon="2.7243967"><ele>190.66666666666669</ele><time>2026-04-26T06:49:04.729Z</time></trkpt><trkpt lat="42.7949133" lon="2.724345"><ele>191.33333333333334</ele><time>2026-04-26T06:49:05.733Z</time></trkpt><trkpt lat="42.794995" lon="2.7243117"><ele>192.0</ele><time>2026-04-26T06:49:06.729Z</time></trkpt><trkpt lat="42.7950733" lon="2.7243017"><ele>192.66666666666669</ele><time>2026-04-26T06:49:07.733Z</time></trkpt><trkpt lat="42.7951483" lon="2.7243583"><ele>193.33333333333334</ele><time>2026-04-26T06:49:08.729Z</time></trkpt><trkpt lat="42.7952133" lon="2.72447"><ele>194.0</ele><time>2026-04-26T06:49:09.73Z</time></trkpt><trkpt lat="42.79527" lon="2.72459"><ele>194.00000000000003</ele><time>2026-04-26T06:49:10.728Z</time></trkpt><trkpt lat="42.7953317" lon="2.7246983"><ele>194.0</ele><time>2026-04-26T06:49:11.733Z</time></trkpt><trkpt lat="42.7954067" lon="2.7247667"><ele>194.0</ele><time>2026-04-26T06:49:12.728Z</time></trkpt><trkpt lat="42.795485" lon="2.7248"><ele>194.0</ele><time>2026-04-26T06:49:13.733Z</time></trkpt><trkpt lat="42.79555" lon="2.7247317"><ele>194.00000000000003</ele><time>2026-04-26T06:49:14.734Z</time></trkpt><trkpt lat="42.7956033" lon="2.7246433"><ele>194.0</ele><time>2026-04-26T06:49:15.728Z</time></trkpt><trkpt lat="42.7956383" lon="2.724535"><ele>194.00000000000003</ele><time>2026-04-26T06:49:16.73Z</time></trkpt><trkpt lat="42.7956817" lon="2.7244367"><ele>194.0</ele><time>2026-04-26T06:49:17.734Z</time></trkpt><trkpt lat="42.795745" lon="2.7243583"><ele>194.0</ele><time>2026-04-26T06:49:18.729Z</time></trkpt><trkpt lat="42.7958217" lon="2.7243217"><ele>194.0</ele><time>2026-04-26T06:49:19.731Z</time></trkpt><trkpt lat="42.7959033" lon="2.724295"><ele>194.00000000000003</ele><time>2026-04-26T06:49:20.732Z</time></trkpt><trkpt lat="42.7959933" lon="2.7242783"><ele>194.0</ele><time>2026-04-26T06:49:21.729Z</time></trkpt><trkpt lat="42.7960833" lon="2.7243017"><ele>192.66666666666669</ele><time>2026-04-26T06:49:22.728Z</time></trkpt><trkpt lat="42.796155" lon="2.7243417"><ele>191.33333333333334</ele><time>2026-04-26T06:49:23.734Z</time></trkpt><trkpt lat="42.7962167" lon="2.7244117"><ele>190.0</ele><time>2026-04-26T06:49:24.729Z</time></trkpt><trkpt lat="42.7962717" lon="2.7244867"><ele>188.66666666666669</ele><time>2026-04-26T06:49:25.73Z</time></trkpt><trkpt lat="42.796345" lon="2.7245367"><ele>187.33333333333334</ele><time>2026-04-26T06:49:26.729Z</time></trkpt><trkpt lat="42.7964317" lon="2.7245233"><ele>186.0</ele><time>2026-04-26T06:49:27.73Z</time></trkpt><trkpt lat="42.7965217" lon="2.724475"><ele>186.0</ele><time>2026-04-26T06:49:28.73Z</time></trkpt><trkpt lat="42.7966117" lon="2.7244117"><ele>186.0</ele><time>2026-04-26T06:49:29.731Z</time></trkpt><trkpt lat="42.7967017" lon="2.72435"><ele>186.0</ele><time>2026-04-26T06:49:30.728Z</time></trkpt><trkpt lat="42.796785" lon="2.7242883"><ele>186.0</ele><time>2026-04-26T06:49:31.729Z</time></trkpt><trkpt lat="42.7968617" lon="2.7242167"><ele>186.0</ele><time>2026-04-26T06:49:32.73Z</time></trkpt><trkpt lat="42.796935" lon="2.724155"><ele>182.60000000000002</ele><time>2026-04-26T06:49:33.729Z</time></trkpt><trkpt lat="42.7970133" lon="2.7241167"><ele>179.2</ele><time>2026-04-26T06:49:34.729Z</time></trkpt><trkpt lat="42.7970867" lon="2.7241533"><ele>175.8</ele><time>2026-04-26T06:49:35.734Z</time></trkpt><trkpt lat="42.7971367" lon="2.7242467"><ele>172.39999999999998</ele><time>2026-04-26T06:49:36.73Z</time></trkpt><trkpt lat="42.7971617" lon="2.7243733"><ele>169.0</ele><time>2026-04-26T06:49:37.728Z</time></trkpt><trkpt lat="42.7971667" lon="2.7245217"><ele>169.0</ele><time>2026-04-26T06:49:38.729Z</time></trkpt><trkpt lat="42.7971717" lon="2.7246717"><ele>169.0</ele><time>2026-04-26T06:49:39.731Z</time></trkpt><trkpt lat="42.7972" lon="2.7248067"><ele>169.0</ele><time>2026-04-26T06:49:40.73Z</time></trkpt><trkpt lat="42.7972633" lon="2.7249117"><ele>169.0</ele><time>2026-04-26T06:49:41.729Z</time></trkpt><trkpt lat="42.79736" lon="2.7249417"><ele>169.0</ele><time>2026-04-26T06:49:42.728Z</time></trkpt><trkpt lat="42.79746" lon="2.72492"><ele>169.0</ele><time>2026-04-26T06:49:43.729Z</time></trkpt><trkpt lat="42.7975583" lon="2.7249183"><ele>169.0</ele><time>2026-04-26T06:49:44.73Z</time></trkpt><trkpt lat="42.797655" lon="2.7249667"><ele>169.0</ele><time>2026-04-26T06:49:45.729Z</time></trkpt><trkpt lat="42.79774" lon="2.7250567"><ele>169.0</ele><time>2026-04-26T06:49:46.729Z</time></trkpt><trkpt lat="42.7978333" lon="2.7251317"><ele>169.0</ele><time>2026-04-26T06:49:47.728Z</time></trkpt><trkpt lat="42.7979433" lon="2.7251533"><ele>167.25</ele><time>2026-04-26T06:49:48.729Z</time></trkpt><trkpt lat="42.7980583" lon="2.7251183"><ele>165.5</ele><time>2026-04-26T06:49:49.728Z</time></trkpt><trkpt lat="42.79817" lon="2.7250433"><ele>163.75</ele><time>2026-04-26T06:49:50.729Z</time></trkpt><trkpt lat="42.79827" lon="2.7249217"><ele>162.0</ele><time>2026-04-26T06:49:51.73Z</time></trkpt><trkpt lat="42.7983617" lon="2.7247717"><ele>162.0</ele><time>2026-04-26T06:49:52.729Z</time></trkpt><trkpt lat="42.798445" lon="2.7246183"><ele>162.0</ele><time>2026-04-26T06:49:53.728Z</time></trkpt><trkpt lat="42.7985233" lon="2.7244717"><ele>162.0</ele><time>2026-04-26T06:49:54.728Z</time></trkpt><trkpt lat="42.7985867" lon="2.724325"><ele>162.0</ele><time>2026-04-26T06:49:55.729Z</time></trkpt><trkpt lat="42.7986267" lon="2.7241733"><ele>158.6</ele><time>2026-04-26T06:49:56.729Z</time></trkpt><trkpt lat="42.7986417" lon="2.7240283"><ele>155.2</ele><time>2026-04-26T06:49:57.728Z</time></trkpt><trkpt lat="42.79866" lon="2.723895"><ele>151.8</ele><time>2026-04-26T06:49:58.728Z</time></trkpt><trkpt lat="42.798705" lon="2.7237917"><ele>148.4</ele><time>2026-04-26T06:49:59.731Z</time></trkpt><trkpt lat="42.79877" lon="2.7237267"><ele>145.0</ele><time>2026-04-26T06:50:00.728Z</time></trkpt><trkpt lat="42.7988583" lon="2.7237567"><ele>145.0</ele><time>2026-04-26T06:50:01.729Z</time></trkpt><trkpt lat="42.7989383" lon="2.723845"><ele>145.0</ele><time>2026-04-26T06:50:02.728Z</time></trkpt><trkpt lat="42.799005" lon="2.723975"><ele>145.0</ele><time>2026-04-26T06:50:03.729Z</time></trkpt><trkpt lat="42.7990517" lon="2.724125"><ele>145.0</ele><time>2026-04-26T06:50:04.727Z</time></trkpt><trkpt lat="42.7990833" lon="2.7242833"><ele>145.25</ele><time>2026-04-26T06:50:05.73Z</time></trkpt><trkpt lat="42.7990967" lon="2.7244433"><ele>145.5</ele><time>2026-04-26T06:50:06.727Z</time></trkpt><trkpt lat="42.79909" lon="2.7246"><ele>145.75</ele><time>2026-04-26T06:50:07.736Z</time></trkpt><trkpt lat="42.7990567" lon="2.7247467"><ele>146.0</ele><time>2026-04-26T06:50:08.728Z</time></trkpt><trkpt lat="42.7989833" lon="2.72488"><ele>146.0</ele><time>2026-04-26T06:50:09.732Z</time></trkpt><trkpt lat="42.7989033" lon="2.725005"><ele>146.0</ele><time>2026-04-26T06:50:10.728Z</time></trkpt><trkpt lat="42.7988283" lon="2.7251317"><ele>146.0</ele><time>2026-04-26T06:50:11.728Z</time></trkpt><trkpt lat="42.7987717" lon="2.7252717"><ele>146.0</ele><time>2026-04-26T06:50:12.729Z</time></trkpt><trkpt lat="42.79875" lon="2.725415"><ele>147.8</ele><time>2026-04-26T06:50:13.73Z</time></trkpt><trkpt lat="42.7987783" lon="2.7255517"><ele>149.6</ele><time>2026-04-26T06:50:14.728Z</time></trkpt><trkpt lat="42.798855" lon="2.7256633"><ele>151.4</ele><time>2026-04-26T06:50:15.729Z</time></trkpt><trkpt lat="42.798955" lon="2.7257133"><ele>153.2</ele><time>2026-04-26T06:50:16.729Z</time></trkpt><trkpt lat="42.799075" lon="2.7256983"><ele>155.0</ele><time>2026-04-26T06:50:17.728Z</time></trkpt><trkpt lat="42.7992" lon="2.7256533"><ele>155.0</ele><time>2026-04-26T06:50:18.729Z</time></trkpt><trkpt lat="42.7993283" lon="2.72559"><ele>155.0</ele><time>2026-04-26T06:50:19.728Z</time></trkpt><trkpt lat="42.7994467" lon="2.7255317"><ele>155.0</ele><time>2026-04-26T06:50:20.729Z</time></trkpt><trkpt lat="42.799555" lon="2.7254733"><ele>155.0</ele><time>2026-04-26T06:50:21.734Z</time></trkpt><trkpt lat="42.7996617" lon="2.725415"><ele>152.0</ele><time>2026-04-26T06:50:22.73Z</time></trkpt><trkpt lat="42.7997617" lon="2.72541"><ele>149.0</ele><time>2026-04-26T06:50:23.729Z</time></trkpt><trkpt lat="42.7998533" lon="2.72546"><ele>146.0</ele><time>2026-04-26T06:50:24.728Z</time></trkpt><trkpt lat="42.7999317" lon="2.7255667"><ele>143.0</ele><time>2026-04-26T06:50:25.728Z</time></trkpt><trkpt lat="42.8" lon="2.7257067"><ele>140.0</ele><time>2026-04-26T06:50:26.73Z</time></trkpt><trkpt lat="42.80006" lon="2.7258667"><ele>140.0</ele><time>2026-04-26T06:50:27.732Z</time></trkpt><trkpt lat="42.8001183" lon="2.7260217"><ele>140.0</ele><time>2026-04-26T06:50:28.729Z</time></trkpt><trkpt lat="42.8001733" lon="2.726165"><ele>140.0</ele><time>2026-04-26T06:50:29.731Z</time></trkpt><trkpt lat="42.80022" lon="2.7263117"><ele>140.0</ele><time>2026-04-26T06:50:30.729Z</time></trkpt><trkpt lat="42.8002483" lon="2.7264767"><ele>131.5</ele><time>2026-04-26T06:50:31.729Z</time></trkpt><trkpt lat="42.8002617" lon="2.7266483"><ele>123.0</ele><time>2026-04-26T06:50:32.73Z</time></trkpt><trkpt lat="42.80028" lon="2.7268283"><ele>114.5</ele><time>2026-04-26T06:50:33.728Z</time></trkpt><trkpt lat="42.800315" lon="2.727005"><ele>106.0</ele><time>2026-04-26T06:50:34.728Z</time></trkpt><trkpt lat="42.8003383" lon="2.72718"><ele>106.0</ele><time>2026-04-26T06:50:35.731Z</time></trkpt><trkpt lat="42.80034" lon="2.727355"><ele>106.0</ele><time>2026-04-26T06:50:36.731Z</time></trkpt><trkpt lat="42.80035" lon="2.72753"><ele>106.0</ele><time>2026-04-26T06:50:37.728Z</time></trkpt><trkpt lat="42.8003967" lon="2.72769"><ele>106.0</ele><time>2026-04-26T06:50:38.728Z</time></trkpt><trkpt lat="42.800475" lon="2.7278317"><ele>109.5</ele><time>2026-04-26T06:50:39.728Z</time></trkpt><trkpt lat="42.8005517" lon="2.72797"><ele>113.0</ele><time>2026-04-26T06:50:40.729Z</time></trkpt><trkpt lat="42.800615" lon="2.7281233"><ele>116.5</ele><time>2026-04-26T06:50:41.729Z</time></trkpt><trkpt lat="42.80067" lon="2.728285"><ele>120.0</ele><time>2026-04-26T06:50:42.729Z</time></trkpt><trkpt lat="42.8007217" lon="2.7284433"><ele>127.0</ele><time>2026-04-26T06:50:43.73Z</time></trkpt><trkpt lat="42.8007783" lon="2.7285933"><ele>134.0</ele><time>2026-04-26T06:50:44.729Z</time></trkpt><trkpt lat="42.8008333" lon="2.7287383"><ele>141.0</ele><time>2026-04-26T06:50:45.728Z</time></trkpt><trkpt lat="42.8008917" lon="2.7288717"><ele>148.0</ele><time>2026-04-26T06:50:46.729Z</time></trkpt><trkpt lat="42.8009517" lon="2.729"><ele>135.0</ele><time>2026-04-26T06:50:47.729Z</time></trkpt><trkpt lat="42.8010033" lon="2.7291333"><ele>122.0</ele><time>2026-04-26T06:50:48.729Z</time></trkpt><trkpt lat="42.8010383" lon="2.7292817"><ele>109.0</ele><time>2026-04-26T06:50:49.73Z</time></trkpt><trkpt lat="42.801065" lon="2.72944"><ele>96.0</ele><time>2026-04-26T06:50:50.729Z</time></trkpt><trkpt lat="42.8010917" lon="2.7296017"><ele>96.0</ele><time>2026-04-26T06:50:51.728Z</time></trkpt><trkpt lat="42.801125" lon="2.7297633"><ele>96.0</ele><time>2026-04-26T06:50:52.729Z</time></trkpt><trkpt lat="42.8011683" lon="2.7299233"><ele>96.0</ele><time>2026-04-26T06:50:53.728Z</time></trkpt><trkpt lat="42.8012233" lon="2.73008"><ele>96.0</ele><time>2026-04-26T06:50:54.728Z</time></trkpt><trkpt lat="42.8012717" lon="2.73024"><ele>98.0</ele><time>2026-04-26T06:50:55.728Z</time></trkpt><trkpt lat="42.8013133" lon="2.7303983"><ele>100.0</ele><time>2026-04-26T06:50:56.728Z</time></trkpt><trkpt lat="42.8013683" lon="2.7305517"><ele>102.0</ele><time>2026-04-26T06:50:57.729Z</time></trkpt><trkpt lat="42.8014267" lon="2.7307017"><ele>104.0</ele><time>2026-04-26T06:50:58.729Z</time></trkpt><trkpt lat="42.80147" lon="2.73086"><ele>104.0</ele><time>2026-04-26T06:50:59.734Z</time></trkpt><trkpt lat="42.8015033" lon="2.7310217"><ele>104.0</ele><time>2026-04-26T06:51:00.728Z</time></trkpt><trkpt lat="42.8015333" lon="2.731185"><ele>104.0</ele><time>2026-04-26T06:51:01.729Z</time></trkpt><trkpt lat="42.80157" lon="2.731335"><ele>104.0</ele><time>2026-04-26T06:51:02.728Z</time></trkpt><trkpt lat="42.80161" lon="2.7314833"><ele>106.6</ele><time>2026-04-26T06:51:03.728Z</time></trkpt><trkpt lat="42.8016467" lon="2.7316333"><ele>109.2</ele><time>2026-04-26T06:51:04.729Z</time></trkpt><trkpt lat="42.80167" lon="2.7317867"><ele>111.79999999999998</ele><time>2026-04-26T06:51:05.729Z</time></trkpt><trkpt lat="42.8016767" lon="2.7319367"><ele>114.39999999999999</ele><time>2026-04-26T06:51:06.73Z</time></trkpt><trkpt lat="42.801675" lon="2.7320833"><ele>117.0</ele><time>2026-04-26T06:51:07.728Z</time></trkpt><trkpt lat="42.801655" lon="2.7322283"><ele>120.0</ele><time>2026-04-26T06:51:08.728Z</time></trkpt><trkpt lat="42.8016517" lon="2.7323617"><ele>122.99999999999999</ele><time>2026-04-26T06:51:09.733Z</time></trkpt><trkpt lat="42.801685" lon="2.7324967"><ele>125.99999999999999</ele><time>2026-04-26T06:51:10.728Z</time></trkpt><trkpt lat="42.80175" lon="2.7326033"><ele>129.0</ele><time>2026-04-26T06:51:11.729Z</time></trkpt><trkpt lat="42.8018567" lon="2.7326517"><ele>132.0</ele><time>2026-04-26T06:51:12.728Z</time></trkpt><trkpt lat="42.8019767" lon="2.732655"><ele>128.0</ele><time>2026-04-26T06:51:13.729Z</time></trkpt><trkpt lat="42.8020933" lon="2.73268"><ele>124.0</ele><time>2026-04-26T06:51:14.728Z</time></trkpt><trkpt lat="42.8021983" lon="2.7327467"><ele>120.0</ele><time>2026-04-26T06:51:15.733Z</time></trkpt><trkpt lat="42.8023" lon="2.7328533"><ele>116.0</ele><time>2026-04-26T06:51:16.729Z</time></trkpt><trkpt lat="42.802395" lon="2.732975"><ele>116.0</ele><time>2026-04-26T06:51:17.728Z</time></trkpt><trkpt lat="42.8024967" lon="2.7330983"><ele>116.0</ele><time>2026-04-26T06:51:18.728Z</time></trkpt><trkpt lat="42.8026033" lon="2.7332117"><ele>116.0</ele><time>2026-04-26T06:51:19.73Z</time></trkpt><trkpt lat="42.802715" lon="2.7333233"><ele>116.0</ele><time>2026-04-26T06:51:20.73Z</time></trkpt><trkpt lat="42.80282" lon="2.7334533"><ele>113.0</ele><time>2026-04-26T06:51:21.729Z</time></trkpt><trkpt lat="42.80292" lon="2.7335967"><ele>110.0</ele><time>2026-04-26T06:51:22.729Z</time></trkpt><trkpt lat="42.8030183" lon="2.73375"><ele>107.0</ele><time>2026-04-26T06:51:23.729Z</time></trkpt><trkpt lat="42.80311" lon="2.7339117"><ele>104.0</ele><time>2026-04-26T06:51:24.731Z</time></trkpt><trkpt lat="42.803195" lon="2.7340767"><ele>104.0</ele><time>2026-04-26T06:51:25.73Z</time></trkpt><trkpt lat="42.803275" lon="2.7342433"><ele>104.0</ele><time>2026-04-26T06:51:26.728Z</time></trkpt><trkpt lat="42.8033433" lon="2.7344083"><ele>104.0</ele><time>2026-04-26T06:51:27.736Z</time></trkpt><trkpt lat="42.80341" lon="2.73457"><ele>104.0</ele><time>2026-04-26T06:51:28.728Z</time></trkpt><trkpt lat="42.80348" lon="2.73472"><ele>101.25</ele><time>2026-04-26T06:51:29.73Z</time></trkpt><trkpt lat="42.8035783" lon="2.7348483"><ele>98.5</ele><time>2026-04-26T06:51:30.729Z</time></trkpt><trkpt lat="42.8036967" lon="2.7349533"><ele>95.75</ele><time>2026-04-26T06:51:31.732Z</time></trkpt><trkpt lat="42.8038117" lon="2.7350533"><ele>93.0</ele><time>2026-04-26T06:51:32.729Z</time></trkpt><trkpt lat="42.8039183" lon="2.735165"><ele>96.75</ele><time>2026-04-26T06:51:33.729Z</time></trkpt><trkpt lat="42.8040217" lon="2.7352933"><ele>100.5</ele><time>2026-04-26T06:51:34.727Z</time></trkpt><trkpt lat="42.804115" lon="2.7354383"><ele>104.25</ele><time>2026-04-26T06:51:35.728Z</time></trkpt><trkpt lat="42.8042017" lon="2.73559"><ele>108.0</ele><time>2026-04-26T06:51:36.73Z</time></trkpt><trkpt lat="42.80428" lon="2.7357483"><ele>107.5</ele><time>2026-04-26T06:51:37.731Z</time></trkpt><trkpt lat="42.8043533" lon="2.73591"><ele>107.0</ele><time>2026-04-26T06:51:38.729Z</time></trkpt><trkpt lat="42.8044267" lon="2.7360683"><ele>106.5</ele><time>2026-04-26T06:51:39.728Z</time></trkpt><trkpt lat="42.8045083" lon="2.7362133"><ele>106.0</ele><time>2026-04-26T06:51:40.728Z</time></trkpt><trkpt lat="42.804605" lon="2.7363333"><ele>106.0</ele><time>2026-04-26T06:51:41.731Z</time></trkpt><trkpt lat="42.804715" lon="2.736425"><ele>106.0</ele><time>2026-04-26T06:51:42.729Z</time></trkpt><trkpt lat="42.80483" lon="2.7364983"><ele>106.0</ele><time>2026-04-26T06:51:43.731Z</time></trkpt><trkpt lat="42.80494" lon="2.7365883"><ele>106.0</ele><time>2026-04-26T06:51:44.732Z</time></trkpt><trkpt lat="42.8050417" lon="2.7367067"><ele>106.0</ele><time>2026-04-26T06:51:45.728Z</time></trkpt><trkpt lat="42.80514" lon="2.7368433"><ele>106.0</ele><time>2026-04-26T06:51:46.728Z</time></trkpt><trkpt lat="42.8052383" lon="2.736985"><ele>106.0</ele><time>2026-04-26T06:51:47.73Z</time></trkpt><trkpt lat="42.8053367" lon="2.7371333"><ele>106.0</ele><time>2026-04-26T06:51:48.729Z</time></trkpt><trkpt lat="42.8054333" lon="2.73729"><ele>107.25</ele><time>2026-04-26T06:51:49.729Z</time></trkpt><trkpt lat="42.8055283" lon="2.7374433"><ele>108.5</ele><time>2026-04-26T06:51:50.729Z</time></trkpt><trkpt lat="42.8056283" lon="2.7375933"><ele>109.75</ele><time>2026-04-26T06:51:51.729Z</time></trkpt><trkpt lat="42.8057283" lon="2.7377417"><ele>111.0</ele><time>2026-04-26T06:51:52.728Z</time></trkpt><trkpt lat="42.80583" lon="2.73789"><ele>111.0</ele><time>2026-04-26T06:51:53.73Z</time></trkpt><trkpt lat="42.80593" lon="2.7380383"><ele>111.0</ele><time>2026-04-26T06:51:54.729Z</time></trkpt><trkpt lat="42.8060283" lon="2.738185"><ele>111.0</ele><time>2026-04-26T06:51:55.731Z</time></trkpt><trkpt lat="42.8061267" lon="2.7383333"><ele>111.0</ele><time>2026-04-26T06:51:56.729Z</time></trkpt><trkpt lat="42.8062233" lon="2.7384833"><ele>110.75</ele><time>2026-04-26T06:51:57.73Z</time></trkpt><trkpt lat="42.8063217" lon="2.7386333"><ele>110.5</ele><time>2026-04-26T06:51:58.73Z</time></trkpt><trkpt lat="42.8064217" lon="2.73878"><ele>110.25</ele><time>2026-04-26T06:51:59.732Z</time></trkpt><trkpt lat="42.80652" lon="2.7389317"><ele>110.0</ele><time>2026-04-26T06:52:00.729Z</time></trkpt><trkpt lat="42.806615" lon="2.7390883"><ele>110.0</ele><time>2026-04-26T06:52:01.73Z</time></trkpt><trkpt lat="42.806705" lon="2.73925"><ele>110.0</ele><time>2026-04-26T06:52:02.73Z</time></trkpt><trkpt lat="42.8067917" lon="2.739415"><ele>110.0</ele><time>2026-04-26T06:52:03.732Z</time></trkpt><trkpt lat="42.80688" lon="2.7395833"><ele>108.0</ele><time>2026-04-26T06:52:04.729Z</time></trkpt><trkpt lat="42.8069633" lon="2.7397567"><ele>106.0</ele><time>2026-04-26T06:52:05.73Z</time></trkpt><trkpt lat="42.80704" lon="2.73994"><ele>104.0</ele><time>2026-04-26T06:52:06.729Z</time></trkpt><trkpt lat="42.807115" lon="2.7401233"><ele>103.25</ele><time>2026-04-26T06:52:07.731Z</time></trkpt><trkpt lat="42.8071917" lon="2.7402933"><ele>102.5</ele><time>2026-04-26T06:52:08.729Z</time></trkpt><trkpt lat="42.8072633" lon="2.740455"><ele>101.75</ele><time>2026-04-26T06:52:09.73Z</time></trkpt><trkpt lat="42.8073317" lon="2.7406"><ele>101.0</ele><time>2026-04-26T06:52:10.73Z</time></trkpt><trkpt lat="42.8073933" lon="2.74073"><ele>101.0</ele><time>2026-04-26T06:52:11.735Z</time></trkpt><trkpt lat="42.8074433" lon="2.7408617"><ele>101.0</ele><time>2026-04-26T06:52:12.728Z</time></trkpt><trkpt lat="42.8074633" lon="2.7409967"><ele>101.0</ele><time>2026-04-26T06:52:13.73Z</time></trkpt><trkpt lat="42.80746" lon="2.7411317"><ele>101.0</ele><time>2026-04-26T06:52:14.731Z</time></trkpt><trkpt lat="42.8074267" lon="2.7412683"><ele>101.0</ele><time>2026-04-26T06:52:15.73Z</time></trkpt><trkpt lat="42.8073767" lon="2.7414067"><ele>100.75</ele><time>2026-04-26T06:52:16.728Z</time></trkpt><trkpt lat="42.8073133" lon="2.7415517"><ele>100.5</ele><time>2026-04-26T06:52:17.73Z</time></trkpt><trkpt lat="42.8072567" lon="2.7417083"><ele>100.25</ele><time>2026-04-26T06:52:18.73Z</time></trkpt><trkpt lat="42.8071983" lon="2.7418767"><ele>100.0</ele><time>2026-04-26T06:52:19.73Z</time></trkpt><trkpt lat="42.80714" lon="2.7420533"><ele>99.75</ele><time>2026-04-26T06:52:20.731Z</time></trkpt><trkpt lat="42.8070883" lon="2.74223"><ele>99.5</ele><time>2026-04-26T06:52:21.731Z</time></trkpt><trkpt lat="42.80705" lon="2.7424083"><ele>99.25</ele><time>2026-04-26T06:52:22.73Z</time></trkpt><trkpt lat="42.8070267" lon="2.7426"><ele>99.0</ele><time>2026-04-26T06:52:23.73Z</time></trkpt><trkpt lat="42.8070217" lon="2.742805"><ele>99.66666666666666</ele><time>2026-04-26T06:52:24.731Z</time></trkpt><trkpt lat="42.8070217" lon="2.7430167"><ele>100.33333333333333</ele><time>2026-04-26T06:52:25.734Z</time></trkpt><trkpt lat="42.80703" lon="2.74323"><ele>101.0</ele><time>2026-04-26T06:52:26.731Z</time></trkpt><trkpt lat="42.80704" lon="2.7434467"><ele>100.66666666666666</ele><time>2026-04-26T06:52:27.73Z</time></trkpt><trkpt lat="42.8070567" lon="2.74366"><ele>100.33333333333334</ele><time>2026-04-26T06:52:28.729Z</time></trkpt><trkpt lat="42.8070867" lon="2.743865"><ele>100.0</ele><time>2026-04-26T06:52:29.73Z</time></trkpt><trkpt lat="42.807125" lon="2.7440667"><ele>100.0</ele><time>2026-04-26T06:52:30.729Z</time></trkpt><trkpt lat="42.8071717" lon="2.744265"><ele>100.0</ele><time>2026-04-26T06:52:31.728Z</time></trkpt><trkpt lat="42.8072317" lon="2.7444517"><ele>100.0</ele><time>2026-04-26T06:52:32.729Z</time></trkpt><trkpt lat="42.8073367" lon="2.7445983"><ele>99.33333333333334</ele><time>2026-04-26T06:52:33.728Z</time></trkpt><trkpt lat="42.8074683" lon="2.7447167"><ele>98.66666666666666</ele><time>2026-04-26T06:52:34.729Z</time></trkpt><trkpt lat="42.8076183" lon="2.7448017"><ele>98.0</ele><time>2026-04-26T06:52:35.727Z</time></trkpt><trkpt lat="42.8077717" lon="2.7448717"><ele>98.0</ele><time>2026-04-26T06:52:36.727Z</time></trkpt><trkpt lat="42.8079167" lon="2.7449317"><ele>98.0</ele><time>2026-04-26T06:52:37.727Z</time></trkpt><trkpt lat="42.8080667" lon="2.74497"><ele>98.0</ele><time>2026-04-26T06:52:38.727Z</time></trkpt><trkpt lat="42.8082233" lon="2.7449767"><ele>98.0</ele><time>2026-04-26T06:52:39.727Z</time></trkpt><trkpt lat="42.8083783" lon="2.7449633"><ele>98.0</ele><time>2026-04-26T06:52:40.728Z</time></trkpt><trkpt lat="42.8085433" lon="2.7449433"><ele>98.0</ele><time>2026-04-26T06:52:41.729Z</time></trkpt><trkpt lat="42.8086933" lon="2.7449083"><ele>100.66666666666666</ele><time>2026-04-26T06:52:42.727Z</time></trkpt><trkpt lat="42.808845" lon="2.74484"><ele>103.33333333333334</ele><time>2026-04-26T06:52:43.727Z</time></trkpt><trkpt lat="42.8089917" lon="2.744775"><ele>106.0</ele><time>2026-04-26T06:52:44.727Z</time></trkpt><trkpt lat="42.8091367" lon="2.7447117"><ele>106.0</ele><time>2026-04-26T06:52:45.728Z</time></trkpt><trkpt lat="42.809255" lon="2.7446333"><ele>106.0</ele><time>2026-04-26T06:52:46.728Z</time></trkpt><trkpt lat="42.8093633" lon="2.74457"><ele>106.0</ele><time>2026-04-26T06:52:47.733Z</time></trkpt><trkpt lat="42.8094733" lon="2.74454"><ele>106.0</ele><time>2026-04-26T06:52:48.727Z</time></trkpt><trkpt lat="42.8095817" lon="2.74454"><ele>111.5</ele><time>2026-04-26T06:52:49.728Z</time></trkpt><trkpt lat="42.8096883" lon="2.7445617"><ele>117.0</ele><time>2026-04-26T06:52:50.727Z</time></trkpt><trkpt lat="42.8097983" lon="2.7446017"><ele>122.5</ele><time>2026-04-26T06:52:51.728Z</time></trkpt><trkpt lat="42.80991" lon="2.7446533"><ele>128.0</ele><time>2026-04-26T06:52:52.73Z</time></trkpt><trkpt lat="42.8100217" lon="2.7446883"><ele>128.0</ele><time>2026-04-26T06:52:53.727Z</time></trkpt><trkpt lat="42.8101317" lon="2.74472"><ele>128.0</ele><time>2026-04-26T06:52:54.728Z</time></trkpt><trkpt lat="42.8102383" lon="2.7447233"><ele>128.0</ele><time>2026-04-26T06:52:55.728Z</time></trkpt><trkpt lat="42.8103467" lon="2.7447"><ele>128.0</ele><time>2026-04-26T06:52:56.729Z</time></trkpt><trkpt lat="42.8104533" lon="2.7446583"><ele>128.0</ele><time>2026-04-26T06:52:57.729Z</time></trkpt><trkpt lat="42.8105483" lon="2.744605"><ele>126.5</ele><time>2026-04-26T06:52:58.727Z</time></trkpt><trkpt lat="42.8106583" lon="2.74453"><ele>125.0</ele><time>2026-04-26T06:52:59.728Z</time></trkpt><trkpt lat="42.810765" lon="2.7444667"><ele>123.5</ele><time>2026-04-26T06:53:00.727Z</time></trkpt><trkpt lat="42.8108683" lon="2.7444167"><ele>122.0</ele><time>2026-04-26T06:53:01.727Z</time></trkpt><trkpt lat="42.8109667" lon="2.744365"><ele>118.0</ele><time>2026-04-26T06:53:02.727Z</time></trkpt><trkpt lat="42.81106" lon="2.74432"><ele>113.99999999999999</ele><time>2026-04-26T06:53:03.728Z</time></trkpt><trkpt lat="42.81116" lon="2.7442883"><ele>110.0</ele><time>2026-04-26T06:53:04.731Z</time></trkpt><trkpt lat="42.8112567" lon="2.744275"><ele>106.0</ele><time>2026-04-26T06:53:05.73Z</time></trkpt><trkpt lat="42.811355" lon="2.7442883"><ele>102.0</ele><time>2026-04-26T06:53:06.727Z</time></trkpt><trkpt lat="42.8114583" lon="2.7443083"><ele>102.0</ele><time>2026-04-26T06:53:07.816Z</time></trkpt><trkpt lat="42.81157" lon="2.7443367"><ele>102.0</ele><time>2026-04-26T06:53:08.727Z</time></trkpt><trkpt lat="42.811685" lon="2.7443683"><ele>102.0</ele><time>2026-04-26T06:53:09.729Z</time></trkpt><trkpt lat="42.8118017" lon="2.7444017"><ele>102.0</ele><time>2026-04-26T06:53:10.729Z</time></trkpt><trkpt lat="42.8119183" lon="2.7444367"><ele>103.6</ele><time>2026-04-26T06:53:11.727Z</time></trkpt><trkpt lat="42.8120283" lon="2.744465"><ele>105.19999999999999</ele><time>2026-04-26T06:53:12.728Z</time></trkpt><trkpt lat="42.81213" lon="2.7444883"><ele>106.8</ele><time>2026-04-26T06:53:13.73Z</time></trkpt><trkpt lat="42.8122267" lon="2.7445183"><ele>108.4</ele><time>2026-04-26T06:53:14.729Z</time></trkpt><trkpt lat="42.81232" lon="2.74454"><ele>110.0</ele><time>2026-04-26T06:53:15.73Z</time></trkpt><trkpt lat="42.8124117" lon="2.7445633"><ele>110.0</ele><time>2026-04-26T06:53:16.729Z</time></trkpt><trkpt lat="42.8125067" lon="2.744585"><ele>110.0</ele><time>2026-04-26T06:53:17.728Z</time></trkpt><trkpt lat="42.8125983" lon="2.7446"><ele>110.0</ele><time>2026-04-26T06:53:18.728Z</time></trkpt><trkpt lat="42.81269" lon="2.74462"><ele>110.0</ele><time>2026-04-26T06:53:19.727Z</time></trkpt><trkpt lat="42.812795" lon="2.7446533"><ele>110.0</ele><time>2026-04-26T06:53:20.729Z</time></trkpt><trkpt lat="42.8128983" lon="2.7446767"><ele>109.2</ele><time>2026-04-26T06:53:21.731Z</time></trkpt><trkpt lat="42.8129883" lon="2.7447117"><ele>108.4</ele><time>2026-04-26T06:53:22.729Z</time></trkpt><trkpt lat="42.8130767" lon="2.74476"><ele>107.6</ele><time>2026-04-26T06:53:23.73Z</time></trkpt><trkpt lat="42.8131617" lon="2.744805"><ele>106.8</ele><time>2026-04-26T06:53:24.728Z</time></trkpt><trkpt lat="42.8132467" lon="2.7448517"><ele>106.0</ele><time>2026-04-26T06:53:25.728Z</time></trkpt><trkpt lat="42.813325" lon="2.7449067"><ele>106.00000000000001</ele><time>2026-04-26T06:53:26.728Z</time></trkpt><trkpt lat="42.8134" lon="2.7449683"><ele>106.0</ele><time>2026-04-26T06:53:27.729Z</time></trkpt><trkpt lat="42.8134617" lon="2.745035"><ele>106.0</ele><time>2026-04-26T06:53:28.731Z</time></trkpt><trkpt lat="42.813535" lon="2.745095"><ele>106.0</ele><time>2026-04-26T06:53:29.728Z</time></trkpt><trkpt lat="42.8136167" lon="2.745145"><ele>106.00000000000001</ele><time>2026-04-26T06:53:30.729Z</time></trkpt><trkpt lat="42.813685" lon="2.7451883"><ele>106.0</ele><time>2026-04-26T06:53:31.729Z</time></trkpt><trkpt lat="42.8137717" lon="2.7452717"><ele>105.8</ele><time>2026-04-26T06:53:33.728Z</time></trkpt><trkpt lat="42.8138283" lon="2.7453767"><ele>105.6</ele><time>2026-04-26T06:53:35.73Z</time></trkpt><trkpt lat="42.8139183" lon="2.7454817"><ele>105.4</ele><time>2026-04-26T06:53:37.728Z</time></trkpt><trkpt lat="42.8140383" lon="2.7455483"><ele>105.2</ele><time>2026-04-26T06:53:39.73Z</time></trkpt><trkpt lat="42.814115" lon="2.7455883"><ele>105.0</ele><time>2026-04-26T06:53:40.73Z</time></trkpt><trkpt lat="42.81422" lon="2.745675"><ele>105.0</ele><time>2026-04-26T06:53:42.728Z</time></trkpt><trkpt lat="42.8142783" lon="2.74574"><ele>105.0</ele><time>2026-04-26T06:53:43.728Z</time></trkpt><trkpt lat="42.81433" lon="2.74582"><ele>105.0</ele><time>2026-04-26T06:53:44.728Z</time></trkpt><trkpt lat="42.8143833" lon="2.7459133"><ele>105.0</ele><time>2026-04-26T06:53:45.727Z</time></trkpt><trkpt lat="42.8144383" lon="2.74601"><ele>105.0</ele><time>2026-04-26T06:53:46.728Z</time></trkpt><trkpt lat="42.8144983" lon="2.7461117"><ele>105.0</ele><time>2026-04-26T06:53:47.734Z</time></trkpt><trkpt lat="42.8145667" lon="2.746215"><ele>104.4</ele><time>2026-04-26T06:53:48.729Z</time></trkpt><trkpt lat="42.8146383" lon="2.7463283"><ele>103.8</ele><time>2026-04-26T06:53:49.728Z</time></trkpt><trkpt lat="42.8147033" lon="2.7464417"><ele>103.19999999999999</ele><time>2026-04-26T06:53:50.728Z</time></trkpt><trkpt lat="42.81476" lon="2.74657"><ele>102.6</ele><time>2026-04-26T06:53:51.728Z</time></trkpt><trkpt lat="42.8148167" lon="2.7466967"><ele>102.0</ele><time>2026-04-26T06:53:52.728Z</time></trkpt><trkpt lat="42.8148683" lon="2.74684"><ele>102.5</ele><time>2026-04-26T06:53:53.73Z</time></trkpt><trkpt lat="42.814915" lon="2.7469867"><ele>103.0</ele><time>2026-04-26T06:53:54.729Z</time></trkpt><trkpt lat="42.814965" lon="2.747135"><ele>103.5</ele><time>2026-04-26T06:53:55.728Z</time></trkpt><trkpt lat="42.8150133" lon="2.7472783"><ele>104.0</ele><time>2026-04-26T06:53:56.728Z</time></trkpt><trkpt lat="42.8150617" lon="2.7474167"><ele>104.0</ele><time>2026-04-26T06:53:57.731Z</time></trkpt><trkpt lat="42.8151" lon="2.7475633"><ele>104.0</ele><time>2026-04-26T06:53:58.728Z</time></trkpt><trkpt lat="42.8151317" lon="2.74771"><ele>104.0</ele><time>2026-04-26T06:53:59.729Z</time></trkpt><trkpt lat="42.815165" lon="2.747855"><ele>104.0</ele><time>2026-04-26T06:54:00.727Z</time></trkpt><trkpt lat="42.8152117" lon="2.74799"><ele>104.0</ele><time>2026-04-26T06:54:01.727Z</time></trkpt><trkpt lat="42.8152633" lon="2.7481233"><ele>103.5</ele><time>2026-04-26T06:54:02.728Z</time></trkpt><trkpt lat="42.8153217" lon="2.7482567"><ele>103.0</ele><time>2026-04-26T06:54:03.727Z</time></trkpt><trkpt lat="42.8153867" lon="2.7483933"><ele>102.5</ele><time>2026-04-26T06:54:04.728Z</time></trkpt><trkpt lat="42.81545" lon="2.7485317"><ele>102.0</ele><time>2026-04-26T06:54:05.732Z</time></trkpt><trkpt lat="42.8155117" lon="2.7486767"><ele>103.0</ele><time>2026-04-26T06:54:06.728Z</time></trkpt><trkpt lat="42.8155667" lon="2.7488217"><ele>104.0</ele><time>2026-04-26T06:54:07.728Z</time></trkpt><trkpt lat="42.8156367" lon="2.7489633"><ele>105.0</ele><time>2026-04-26T06:54:08.727Z</time></trkpt><trkpt lat="42.8157267" lon="2.749085"><ele>106.0</ele><time>2026-04-26T06:54:09.729Z</time></trkpt><trkpt lat="42.815835" lon="2.7491683"><ele>106.0</ele><time>2026-04-26T06:54:10.727Z</time></trkpt><trkpt lat="42.8159583" lon="2.749205"><ele>106.0</ele><time>2026-04-26T06:54:11.728Z</time></trkpt><trkpt lat="42.8160933" lon="2.749225"><ele>106.0</ele><time>2026-04-26T06:54:12.73Z</time></trkpt><trkpt lat="42.816235" lon="2.749245"><ele>106.0</ele><time>2026-04-26T06:54:13.729Z</time></trkpt><trkpt lat="42.8163783" lon="2.749265"><ele>105.25</ele><time>2026-04-26T06:54:14.73Z</time></trkpt><trkpt lat="42.81652" lon="2.74929"><ele>104.5</ele><time>2026-04-26T06:54:15.731Z</time></trkpt><trkpt lat="42.816665" lon="2.7493217"><ele>103.75</ele><time>2026-04-26T06:54:16.734Z</time></trkpt><trkpt lat="42.8168067" lon="2.7493683"><ele>103.0</ele><time>2026-04-26T06:54:17.731Z</time></trkpt><trkpt lat="42.8169533" lon="2.7494217"><ele>103.0</ele><time>2026-04-26T06:54:18.728Z</time></trkpt><trkpt lat="42.8171083" lon="2.74948"><ele>103.0</ele><time>2026-04-26T06:54:19.736Z</time></trkpt><trkpt lat="42.8172667" lon="2.7495417"><ele>103.0</ele><time>2026-04-26T06:54:20.731Z</time></trkpt><trkpt lat="42.817425" lon="2.7496117"><ele>103.0</ele><time>2026-04-26T06:54:21.73Z</time></trkpt><trkpt lat="42.817585" lon="2.7496983"><ele>103.0</ele><time>2026-04-26T06:54:22.727Z</time></trkpt><trkpt lat="42.81774" lon="2.749785"><ele>103.0</ele><time>2026-04-26T06:54:23.728Z</time></trkpt><trkpt lat="42.8178917" lon="2.7498817"><ele>102.66666666666667</ele><time>2026-04-26T06:54:24.727Z</time></trkpt><trkpt lat="42.8180433" lon="2.74998"><ele>102.33333333333334</ele><time>2026-04-26T06:54:25.729Z</time></trkpt><trkpt lat="42.8181933" lon="2.750075"><ele>102.0</ele><time>2026-04-26T06:54:26.73Z</time></trkpt><trkpt lat="42.8183433" lon="2.75016"><ele>102.33333333333334</ele><time>2026-04-26T06:54:27.728Z</time></trkpt><trkpt lat="42.818495" lon="2.75024"><ele>102.66666666666667</ele><time>2026-04-26T06:54:28.731Z</time></trkpt><trkpt lat="42.8186517" lon="2.75031"><ele>103.0</ele><time>2026-04-26T06:54:29.732Z</time></trkpt><trkpt lat="42.8188067" lon="2.7503667"><ele>103.0</ele><time>2026-04-26T06:54:30.811Z</time></trkpt><trkpt lat="42.81896" lon="2.7504117"><ele>103.0</ele><time>2026-04-26T06:54:31.728Z</time></trkpt><trkpt lat="42.8191183" lon="2.750455"><ele>103.0</ele><time>2026-04-26T06:54:32.733Z</time></trkpt><trkpt lat="42.8192767" lon="2.7504967"><ele>103.0</ele><time>2026-04-26T06:54:33.727Z</time></trkpt><trkpt lat="42.8194383" lon="2.7505367"><ele>103.0</ele><time>2026-04-26T06:54:34.728Z</time></trkpt><trkpt lat="42.819605" lon="2.7505817"><ele>103.0</ele><time>2026-04-26T06:54:35.73Z</time></trkpt><trkpt lat="42.819775" lon="2.7506267"><ele>103.0</ele><time>2026-04-26T06:54:36.728Z</time></trkpt><trkpt lat="42.8199433" lon="2.7506767"><ele>103.0</ele><time>2026-04-26T06:54:37.735Z</time></trkpt><trkpt lat="42.82011" lon="2.7507267"><ele>103.0</ele><time>2026-04-26T06:54:38.728Z</time></trkpt><trkpt lat="42.8202767" lon="2.750775"><ele>103.0</ele><time>2026-04-26T06:54:39.729Z</time></trkpt><trkpt lat="42.82043" lon="2.75087"><ele>103.0</ele><time>2026-04-26T06:54:40.731Z</time></trkpt><trkpt lat="42.82059" lon="2.75095"><ele>103.0</ele><time>2026-04-26T06:54:41.729Z</time></trkpt><trkpt lat="42.8207433" lon="2.7510267"><ele>103.33333333333334</ele><time>2026-04-26T06:54:42.728Z</time></trkpt><trkpt lat="42.8209017" lon="2.75108"><ele>103.66666666666666</ele><time>2026-04-26T06:54:43.73Z</time></trkpt><trkpt lat="42.8210617" lon="2.75112"><ele>104.0</ele><time>2026-04-26T06:54:44.729Z</time></trkpt><trkpt lat="42.8212267" lon="2.7511517"><ele>103.33333333333333</ele><time>2026-04-26T06:54:45.732Z</time></trkpt><trkpt lat="42.8214017" lon="2.751175"><ele>102.66666666666666</ele><time>2026-04-26T06:54:46.731Z</time></trkpt><trkpt lat="42.8215817" lon="2.7512017"><ele>102.0</ele><time>2026-04-26T06:54:47.73Z</time></trkpt><trkpt lat="42.8217633" lon="2.7512317"><ele>102.66666666666666</ele><time>2026-04-26T06:54:48.727Z</time></trkpt><trkpt lat="42.8219467" lon="2.7512617"><ele>103.33333333333333</ele><time>2026-04-26T06:54:49.729Z</time></trkpt><trkpt lat="42.82213" lon="2.7512833"><ele>104.0</ele><time>2026-04-26T06:54:50.728Z</time></trkpt><trkpt lat="42.82231" lon="2.7513017"><ele>104.0</ele><time>2026-04-26T06:54:51.728Z</time></trkpt><trkpt lat="42.82249" lon="2.751315"><ele>104.0</ele><time>2026-04-26T06:54:52.727Z</time></trkpt><trkpt lat="42.8226717" lon="2.75132"><ele>104.0</ele><time>2026-04-26T06:54:53.729Z</time></trkpt><trkpt lat="42.8228567" lon="2.75132"><ele>104.33333333333333</ele><time>2026-04-26T06:54:54.727Z</time></trkpt><trkpt lat="42.8230417" lon="2.7513267"><ele>104.66666666666666</ele><time>2026-04-26T06:54:55.727Z</time></trkpt><trkpt lat="42.823225" lon="2.751345"><ele>105.0</ele><time>2026-04-26T06:54:56.728Z</time></trkpt><trkpt lat="42.82341" lon="2.75138"><ele>105.0</ele><time>2026-04-26T06:54:57.728Z</time></trkpt><trkpt lat="42.8235933" lon="2.7514317"><ele>105.0</ele><time>2026-04-26T06:54:58.73Z</time></trkpt><trkpt lat="42.823775" lon="2.7514917"><ele>105.0</ele><time>2026-04-26T06:54:59.728Z</time></trkpt><trkpt lat="42.823955" lon="2.751555"><ele>105.0</ele><time>2026-04-26T06:55:00.73Z</time></trkpt><trkpt lat="42.8241383" lon="2.7516183"><ele>105.0</ele><time>2026-04-26T06:55:01.728Z</time></trkpt><trkpt lat="42.824325" lon="2.7516767"><ele>105.0</ele><time>2026-04-26T06:55:02.728Z</time></trkpt><trkpt lat="42.8245117" lon="2.751735"><ele>104.66666666666666</ele><time>2026-04-26T06:55:03.728Z</time></trkpt><trkpt lat="42.8246917" lon="2.7517833"><ele>104.33333333333333</ele><time>2026-04-26T06:55:04.728Z</time></trkpt><trkpt lat="42.824875" lon="2.7518233"><ele>104.0</ele><time>2026-04-26T06:55:05.729Z</time></trkpt><trkpt lat="42.8250583" lon="2.7518483"><ele>104.0</ele><time>2026-04-26T06:55:06.734Z</time></trkpt><trkpt lat="42.8252433" lon="2.7518583"><ele>104.0</ele><time>2026-04-26T06:55:07.727Z</time></trkpt><trkpt lat="42.8254217" lon="2.75186"><ele>104.0</ele><time>2026-04-26T06:55:08.728Z</time></trkpt><trkpt lat="42.8256017" lon="2.75185"><ele>104.0</ele><time>2026-04-26T06:55:09.734Z</time></trkpt><trkpt lat="42.8257833" lon="2.7518417"><ele>104.0</ele><time>2026-04-26T06:55:10.727Z</time></trkpt><trkpt lat="42.8259617" lon="2.7518333"><ele>104.0</ele><time>2026-04-26T06:55:11.734Z</time></trkpt><trkpt lat="42.8261383" lon="2.7518333"><ele>104.0</ele><time>2026-04-26T06:55:12.729Z</time></trkpt><trkpt lat="42.8263133" lon="2.751835"><ele>104.0</ele><time>2026-04-26T06:55:13.729Z</time></trkpt><trkpt lat="42.8264917" lon="2.7518383"><ele>104.0</ele><time>2026-04-26T06:55:14.728Z</time></trkpt><trkpt lat="42.82667" lon="2.7518433"><ele>104.33333333333333</ele><time>2026-04-26T06:55:15.728Z</time></trkpt><trkpt lat="42.82685" lon="2.7518633"><ele>104.66666666666666</ele><time>2026-04-26T06:55:16.727Z</time></trkpt><trkpt lat="42.82703" lon="2.7519"><ele>105.0</ele><time>2026-04-26T06:55:17.733Z</time></trkpt><trkpt lat="42.82721" lon="2.7519383"><ele>105.0</ele><time>2026-04-26T06:55:18.728Z</time></trkpt><trkpt lat="42.8273917" lon="2.7519783"><ele>105.0</ele><time>2026-04-26T06:55:19.73Z</time></trkpt><trkpt lat="42.8275767" lon="2.75201"><ele>105.0</ele><time>2026-04-26T06:55:20.73Z</time></trkpt><trkpt lat="42.8277617" lon="2.7520317"><ele>105.0</ele><time>2026-04-26T06:55:21.728Z</time></trkpt><trkpt lat="42.827945" lon="2.7520467"><ele>105.0</ele><time>2026-04-26T06:55:22.727Z</time></trkpt><trkpt lat="42.8281267" lon="2.7520667"><ele>105.0</ele><time>2026-04-26T06:55:23.729Z</time></trkpt><trkpt lat="42.8283067" lon="2.7521067"><ele>104.33333333333334</ele><time>2026-04-26T06:55:24.727Z</time></trkpt><trkpt lat="42.8284833" lon="2.7521667"><ele>103.66666666666667</ele><time>2026-04-26T06:55:25.735Z</time></trkpt><trkpt lat="42.8286567" lon="2.752245"><ele>103.0</ele><time>2026-04-26T06:55:26.727Z</time></trkpt><trkpt lat="42.8288267" lon="2.7523383"><ele>103.0</ele><time>2026-04-26T06:55:27.728Z</time></trkpt><trkpt lat="42.8289917" lon="2.7524483"><ele>103.0</ele><time>2026-04-26T06:55:28.728Z</time></trkpt><trkpt lat="42.8291533" lon="2.75257"><ele>103.0</ele><time>2026-04-26T06:55:29.73Z</time></trkpt><trkpt lat="42.82931" lon="2.7527083"><ele>103.66666666666667</ele><time>2026-04-26T06:55:30.731Z</time></trkpt><trkpt lat="42.8294617" lon="2.75286"><ele>104.33333333333334</ele><time>2026-04-26T06:55:31.73Z</time></trkpt><trkpt lat="42.82961" lon="2.75302"><ele>105.0</ele><time>2026-04-26T06:55:32.729Z</time></trkpt><trkpt lat="42.829755" lon="2.7531817"><ele>105.0</ele><time>2026-04-26T06:55:33.73Z</time></trkpt><trkpt lat="42.8298983" lon="2.753345"><ele>105.0</ele><time>2026-04-26T06:55:34.73Z</time></trkpt><trkpt lat="42.8300417" lon="2.75351"><ele>105.0</ele><time>2026-04-26T06:55:35.729Z</time></trkpt><trkpt lat="42.8301867" lon="2.7536733"><ele>105.0</ele><time>2026-04-26T06:55:36.727Z</time></trkpt><trkpt lat="42.83033" lon="2.753835"><ele>105.0</ele><time>2026-04-26T06:55:37.73Z</time></trkpt><trkpt lat="42.8304733" lon="2.7539933"><ele>105.0</ele><time>2026-04-26T06:55:38.728Z</time></trkpt><trkpt lat="42.830615" lon="2.7541517"><ele>105.0</ele><time>2026-04-26T06:55:39.729Z</time></trkpt><trkpt lat="42.830755" lon="2.7543083"><ele>105.0</ele><time>2026-04-26T06:55:40.728Z</time></trkpt><trkpt lat="42.8308983" lon="2.7544617"><ele>105.0</ele><time>2026-04-26T06:55:41.73Z</time></trkpt><trkpt lat="42.8310467" lon="2.7546067"><ele>106.33333333333334</ele><time>2026-04-26T06:55:42.729Z</time></trkpt><trkpt lat="42.8311983" lon="2.7547417"><ele>107.66666666666667</ele><time>2026-04-26T06:55:43.732Z</time></trkpt><trkpt lat="42.8313533" lon="2.7548717"><ele>109.0</ele><time>2026-04-26T06:55:44.731Z</time></trkpt><trkpt lat="42.8315083" lon="2.7550017"><ele>109.0</ele><time>2026-04-26T06:55:45.729Z</time></trkpt><trkpt lat="42.8316633" lon="2.7551317"><ele>109.0</ele><time>2026-04-26T06:55:46.73Z</time></trkpt><trkpt lat="42.8318167" lon="2.7552617"><ele>109.0</ele><time>2026-04-26T06:55:47.73Z</time></trkpt><trkpt lat="42.8319733" lon="2.7553783"><ele>109.0</ele><time>2026-04-26T06:55:48.727Z</time></trkpt><trkpt lat="42.8321417" lon="2.7554733"><ele>109.0</ele><time>2026-04-26T06:55:49.729Z</time></trkpt><trkpt lat="42.8323167" lon="2.7555483"><ele>109.0</ele><time>2026-04-26T06:55:50.731Z</time></trkpt><trkpt lat="42.8324967" lon="2.755605"><ele>109.0</ele><time>2026-04-26T06:55:51.73Z</time></trkpt><trkpt lat="42.83268" lon="2.7556583"><ele>109.0</ele><time>2026-04-26T06:55:52.727Z</time></trkpt><trkpt lat="42.83286" lon="2.7557283"><ele>109.0</ele><time>2026-04-26T06:55:53.729Z</time></trkpt><trkpt lat="42.83304" lon="2.7558083"><ele>109.0</ele><time>2026-04-26T06:55:54.728Z</time></trkpt><trkpt lat="42.8332183" lon="2.7558933"><ele>109.0</ele><time>2026-04-26T06:55:55.732Z</time></trkpt><trkpt lat="42.8333967" lon="2.7559783"><ele>109.0</ele><time>2026-04-26T06:55:56.727Z</time></trkpt><trkpt lat="42.8335733" lon="2.756065"><ele>109.66666666666667</ele><time>2026-04-26T06:55:57.729Z</time></trkpt><trkpt lat="42.83375" lon="2.756155"><ele>110.33333333333334</ele><time>2026-04-26T06:55:58.731Z</time></trkpt><trkpt lat="42.8339233" lon="2.7562517"><ele>111.0</ele><time>2026-04-26T06:55:59.729Z</time></trkpt><trkpt lat="42.834095" lon="2.7563617"><ele>111.0</ele><time>2026-04-26T06:56:00.727Z</time></trkpt><trkpt lat="42.83426" lon="2.7564883"><ele>111.0</ele><time>2026-04-26T06:56:01.727Z</time></trkpt><trkpt lat="42.8344167" lon="2.756635"><ele>111.0</ele><time>2026-04-26T06:56:02.729Z</time></trkpt><trkpt lat="42.8345717" lon="2.75679"><ele>111.0</ele><time>2026-04-26T06:56:03.729Z</time></trkpt><trkpt lat="42.8347233" lon="2.7569483"><ele>111.0</ele><time>2026-04-26T06:56:04.727Z</time></trkpt><trkpt lat="42.8348717" lon="2.757115"><ele>111.0</ele><time>2026-04-26T06:56:05.734Z</time></trkpt><trkpt lat="42.8350167" lon="2.7572833"><ele>111.0</ele><time>2026-04-26T06:56:06.729Z</time></trkpt><trkpt lat="42.835165" lon="2.757455"><ele>111.0</ele><time>2026-04-26T06:56:07.728Z</time></trkpt><trkpt lat="42.8353167" lon="2.757625"><ele>111.0</ele><time>2026-04-26T06:56:08.729Z</time></trkpt><trkpt lat="42.8354667" lon="2.7577983"><ele>111.0</ele><time>2026-04-26T06:56:09.729Z</time></trkpt><trkpt lat="42.8356167" lon="2.7579717"><ele>111.0</ele><time>2026-04-26T06:56:10.727Z</time></trkpt><trkpt lat="42.835765" lon="2.75814"><ele>111.0</ele><time>2026-04-26T06:56:11.736Z</time></trkpt><trkpt lat="42.835915" lon="2.7583067"><ele>111.0</ele><time>2026-04-26T06:56:12.729Z</time></trkpt><trkpt lat="42.8360633" lon="2.7584783"><ele>111.0</ele><time>2026-04-26T06:56:13.729Z</time></trkpt><trkpt lat="42.8362117" lon="2.758645"><ele>111.0</ele><time>2026-04-26T06:56:14.728Z</time></trkpt><trkpt lat="42.83636" lon="2.758815"><ele>111.33333333333334</ele><time>2026-04-26T06:56:15.727Z</time></trkpt><trkpt lat="42.8365" lon="2.75899"><ele>111.66666666666667</ele><time>2026-04-26T06:56:16.727Z</time></trkpt><trkpt lat="42.8366317" lon="2.7591817"><ele>112.0</ele><time>2026-04-26T06:56:17.727Z</time></trkpt><trkpt lat="42.8367533" lon="2.7593817"><ele>112.66666666666667</ele><time>2026-04-26T06:56:18.728Z</time></trkpt><trkpt lat="42.836865" lon="2.7595883"><ele>113.33333333333334</ele><time>2026-04-26T06:56:19.732Z</time></trkpt><trkpt lat="42.8369717" lon="2.759795"><ele>114.0</ele><time>2026-04-26T06:56:20.727Z</time></trkpt><trkpt lat="42.8370783" lon="2.76"><ele>114.33333333333334</ele><time>2026-04-26T06:56:21.728Z</time></trkpt><trkpt lat="42.8371833" lon="2.7602067"><ele>114.66666666666667</ele><time>2026-04-26T06:56:22.728Z</time></trkpt><trkpt lat="42.8372767" lon="2.7604167"><ele>115.0</ele><time>2026-04-26T06:56:23.729Z</time></trkpt><trkpt lat="42.8373533" lon="2.760635"><ele>115.0</ele><time>2026-04-26T06:56:24.727Z</time></trkpt><trkpt lat="42.8374117" lon="2.7608533"><ele>115.0</ele><time>2026-04-26T06:56:25.731Z</time></trkpt><trkpt lat="42.8374633" lon="2.76107"><ele>115.0</ele><time>2026-04-26T06:56:26.728Z</time></trkpt><trkpt lat="42.8375167" lon="2.7612867"><ele>115.66666666666667</ele><time>2026-04-26T06:56:27.728Z</time></trkpt><trkpt lat="42.8375783" lon="2.76151"><ele>116.33333333333334</ele><time>2026-04-26T06:56:28.728Z</time></trkpt><trkpt lat="42.83765" lon="2.76173"><ele>117.0</ele><time>2026-04-26T06:56:29.731Z</time></trkpt><trkpt lat="42.83774" lon="2.76194"><ele>117.0</ele><time>2026-04-26T06:56:30.73Z</time></trkpt><trkpt lat="42.8378483" lon="2.762135"><ele>117.0</ele><time>2026-04-26T06:56:31.73Z</time></trkpt><trkpt lat="42.8379767" lon="2.7623133"><ele>117.0</ele><time>2026-04-26T06:56:32.728Z</time></trkpt><trkpt lat="42.838115" lon="2.76248"><ele>117.0</ele><time>2026-04-26T06:56:33.73Z</time></trkpt><trkpt lat="42.83826" lon="2.762635"><ele>117.0</ele><time>2026-04-26T06:56:34.728Z</time></trkpt><trkpt lat="42.8384117" lon="2.762785"><ele>117.0</ele><time>2026-04-26T06:56:35.728Z</time></trkpt><trkpt lat="42.838565" lon="2.7629333"><ele>117.0</ele><time>2026-04-26T06:56:36.728Z</time></trkpt><trkpt lat="42.8387167" lon="2.763085"><ele>117.0</ele><time>2026-04-26T06:56:37.727Z</time></trkpt><trkpt lat="42.8388683" lon="2.7632333"><ele>117.0</ele><time>2026-04-26T06:56:38.729Z</time></trkpt><trkpt lat="42.8390217" lon="2.7633817"><ele>117.66666666666666</ele><time>2026-04-26T06:56:39.736Z</time></trkpt><trkpt lat="42.83917" lon="2.7635367"><ele>118.33333333333333</ele><time>2026-04-26T06:56:40.729Z</time></trkpt><trkpt lat="42.8393117" lon="2.7637017"><ele>119.0</ele><time>2026-04-26T06:56:41.728Z</time></trkpt><trkpt lat="42.839445" lon="2.7638833"><ele>119.0</ele><time>2026-04-26T06:56:42.729Z</time></trkpt><trkpt lat="42.8395633" lon="2.7640817"><ele>119.0</ele><time>2026-04-26T06:56:43.729Z</time></trkpt><trkpt lat="42.83967" lon="2.7642917"><ele>119.0</ele><time>2026-04-26T06:56:44.727Z</time></trkpt><trkpt lat="42.8397667" lon="2.76451"><ele>119.33333333333333</ele><time>2026-04-26T06:56:45.729Z</time></trkpt><trkpt lat="42.83986" lon="2.764735"><ele>119.66666666666666</ele><time>2026-04-26T06:56:46.727Z</time></trkpt><trkpt lat="42.8399483" lon="2.764965"><ele>120.0</ele><time>2026-04-26T06:56:47.732Z</time></trkpt><trkpt lat="42.8400367" lon="2.7651917"><ele>120.0</ele><time>2026-04-26T06:56:48.731Z</time></trkpt><trkpt lat="42.84013" lon="2.76541"><ele>120.0</ele><time>2026-04-26T06:56:49.728Z</time></trkpt><trkpt lat="42.84024" lon="2.765615"><ele>120.0</ele><time>2026-04-26T06:56:50.729Z</time></trkpt><trkpt lat="42.8403717" lon="2.7658"><ele>120.0</ele><time>2026-04-26T06:56:51.729Z</time></trkpt><trkpt lat="42.8405167" lon="2.7659633"><ele>120.0</ele><time>2026-04-26T06:56:52.728Z</time></trkpt><trkpt lat="42.8406683" lon="2.76612"><ele>120.0</ele><time>2026-04-26T06:56:53.731Z</time></trkpt><trkpt lat="42.8408167" lon="2.7662733"><ele>120.33333333333334</ele><time>2026-04-26T06:56:54.729Z</time></trkpt><trkpt lat="42.840965" lon="2.76643"><ele>120.66666666666667</ele><time>2026-04-26T06:56:55.73Z</time></trkpt><trkpt lat="42.8411017" lon="2.7665867"><ele>121.0</ele><time>2026-04-26T06:56:56.728Z</time></trkpt><trkpt lat="42.84122" lon="2.766765"><ele>121.66666666666667</ele><time>2026-04-26T06:56:57.728Z</time></trkpt><trkpt lat="42.84131" lon="2.7669717"><ele>122.33333333333334</ele><time>2026-04-26T06:56:58.729Z</time></trkpt><trkpt lat="42.841395" lon="2.7671867"><ele>123.0</ele><time>2026-04-26T06:56:59.728Z</time></trkpt><trkpt lat="42.8414917" lon="2.76739"><ele>123.0</ele><time>2026-04-26T06:57:00.728Z</time></trkpt><trkpt lat="42.8416133" lon="2.76757"><ele>123.0</ele><time>2026-04-26T06:57:01.729Z</time></trkpt><trkpt lat="42.8417567" lon="2.76771"><ele>123.0</ele><time>2026-04-26T06:57:02.729Z</time></trkpt><trkpt lat="42.841915" lon="2.7678283"><ele>123.33333333333334</ele><time>2026-04-26T06:57:03.731Z</time></trkpt><trkpt lat="42.8420683" lon="2.7679567"><ele>123.66666666666667</ele><time>2026-04-26T06:57:04.731Z</time></trkpt><trkpt lat="42.84221" lon="2.7681117"><ele>124.0</ele><time>2026-04-26T06:57:05.733Z</time></trkpt><trkpt lat="42.84234" lon="2.7682883"><ele>124.0</ele><time>2026-04-26T06:57:06.727Z</time></trkpt><trkpt lat="42.8424583" lon="2.7684817"><ele>124.0</ele><time>2026-04-26T06:57:07.727Z</time></trkpt><trkpt lat="42.8425733" lon="2.7686783"><ele>124.0</ele><time>2026-04-26T06:57:08.73Z</time></trkpt><trkpt lat="42.8426767" lon="2.7688833"><ele>124.66666666666667</ele><time>2026-04-26T06:57:09.729Z</time></trkpt><trkpt lat="42.8427717" lon="2.76909"><ele>125.33333333333334</ele><time>2026-04-26T06:57:10.729Z</time></trkpt><trkpt lat="42.8428583" lon="2.7692967"><ele>126.0</ele><time>2026-04-26T06:57:11.731Z</time></trkpt><trkpt lat="42.842935" lon="2.7695083"><ele>126.33333333333334</ele><time>2026-04-26T06:57:12.73Z</time></trkpt><trkpt lat="42.8429933" lon="2.7697333"><ele>126.66666666666667</ele><time>2026-04-26T06:57:13.728Z</time></trkpt><trkpt lat="42.8430217" lon="2.769975"><ele>127.0</ele><time>2026-04-26T06:57:14.729Z</time></trkpt><trkpt lat="42.843025" lon="2.77022"><ele>127.0</ele><time>2026-04-26T06:57:15.729Z</time></trkpt><trkpt lat="42.84302" lon="2.7704633"><ele>127.0</ele><time>2026-04-26T06:57:16.729Z</time></trkpt><trkpt lat="42.8430217" lon="2.7707017"><ele>127.0</ele><time>2026-04-26T06:57:17.729Z</time></trkpt><trkpt lat="42.84304" lon="2.77094"><ele>127.66666666666667</ele><time>2026-04-26T06:57:18.729Z</time></trkpt><trkpt lat="42.8430683" lon="2.7711767"><ele>128.33333333333334</ele><time>2026-04-26T06:57:19.73Z</time></trkpt><trkpt lat="42.8431083" lon="2.7714083"><ele>129.0</ele><time>2026-04-26T06:57:20.728Z</time></trkpt><trkpt lat="42.843165" lon="2.7716317"><ele>129.0</ele><time>2026-04-26T06:57:21.734Z</time></trkpt><trkpt lat="42.84324" lon="2.7718467"><ele>129.0</ele><time>2026-04-26T06:57:22.728Z</time></trkpt><trkpt lat="42.84333" lon="2.7720533"><ele>129.0</ele><time>2026-04-26T06:57:23.728Z</time></trkpt><trkpt lat="42.8434267" lon="2.7722567"><ele>129.0</ele><time>2026-04-26T06:57:24.728Z</time></trkpt><trkpt lat="42.8435367" lon="2.772445"><ele>129.0</ele><time>2026-04-26T06:57:25.729Z</time></trkpt><trkpt lat="42.843645" lon="2.772625"><ele>129.0</ele><time>2026-04-26T06:57:26.728Z</time></trkpt><trkpt lat="42.8437317" lon="2.7728067"><ele>129.25</ele><time>2026-04-26T06:57:27.729Z</time></trkpt><trkpt lat="42.8437983" lon="2.7729883"><ele>129.5</ele><time>2026-04-26T06:57:28.729Z</time></trkpt><trkpt lat="42.843845" lon="2.77317"><ele>129.75</ele><time>2026-04-26T06:57:29.735Z</time></trkpt><trkpt lat="42.84388" lon="2.7733433"><ele>130.0</ele><time>2026-04-26T06:57:30.729Z</time></trkpt><trkpt lat="42.84391" lon="2.77351"><ele>130.5</ele><time>2026-04-26T06:57:31.73Z</time></trkpt><trkpt lat="42.8439417" lon="2.773675"><ele>131.0</ele><time>2026-04-26T06:57:32.73Z</time></trkpt><trkpt lat="42.8439767" lon="2.7738333"><ele>131.5</ele><time>2026-04-26T06:57:33.728Z</time></trkpt><trkpt lat="42.844025" lon="2.7739883"><ele>132.0</ele><time>2026-04-26T06:57:34.729Z</time></trkpt><trkpt lat="42.8440967" lon="2.77413"><ele>132.0</ele><time>2026-04-26T06:57:35.728Z</time></trkpt><trkpt lat="42.8441867" lon="2.774275"><ele>132.0</ele><time>2026-04-26T06:57:36.728Z</time></trkpt><trkpt lat="42.8442817" lon="2.7744333"><ele>132.0</ele><time>2026-04-26T06:57:37.728Z</time></trkpt><trkpt lat="42.8443783" lon="2.7745983"><ele>132.0</ele><time>2026-04-26T06:57:38.729Z</time></trkpt><trkpt lat="42.8444833" lon="2.7747667"><ele>132.33333333333334</ele><time>2026-04-26T06:57:39.727Z</time></trkpt><trkpt lat="42.844585" lon="2.774945"><ele>132.66666666666669</ele><time>2026-04-26T06:57:40.729Z</time></trkpt><trkpt lat="42.844675" lon="2.775135"><ele>133.0</ele><time>2026-04-26T06:57:41.728Z</time></trkpt><trkpt lat="42.8447517" lon="2.7753467"><ele>133.66666666666669</ele><time>2026-04-26T06:57:42.727Z</time></trkpt><trkpt lat="42.8448183" lon="2.7755683"><ele>134.33333333333334</ele><time>2026-04-26T06:57:43.727Z</time></trkpt><trkpt lat="42.8448883" lon="2.77579"><ele>135.0</ele><time>2026-04-26T06:57:44.728Z</time></trkpt><trkpt lat="42.8449583" lon="2.7759983"><ele>135.25</ele><time>2026-04-26T06:57:45.727Z</time></trkpt><trkpt lat="42.8450217" lon="2.7761983"><ele>135.5</ele><time>2026-04-26T06:57:46.729Z</time></trkpt><trkpt lat="42.8450783" lon="2.7763833"><ele>135.75</ele><time>2026-04-26T06:57:47.731Z</time></trkpt><trkpt lat="42.845135" lon="2.776555"><ele>136.0</ele><time>2026-04-26T06:57:48.728Z</time></trkpt><trkpt lat="42.8452" lon="2.77671"><ele>136.75</ele><time>2026-04-26T06:57:49.731Z</time></trkpt><trkpt lat="42.84529" lon="2.77683"><ele>137.5</ele><time>2026-04-26T06:57:50.727Z</time></trkpt><trkpt lat="42.8454117" lon="2.7769017"><ele>138.25</ele><time>2026-04-26T06:57:51.729Z</time></trkpt><trkpt lat="42.8455467" lon="2.7769367"><ele>139.0</ele><time>2026-04-26T06:57:52.727Z</time></trkpt><trkpt lat="42.8456783" lon="2.7769783"><ele>139.0</ele><time>2026-04-26T06:57:53.729Z</time></trkpt><trkpt lat="42.8458017" lon="2.77705"><ele>139.0</ele><time>2026-04-26T06:57:54.727Z</time></trkpt><trkpt lat="42.845905" lon="2.777165"><ele>139.0</ele><time>2026-04-26T06:57:55.728Z</time></trkpt><trkpt lat="42.845985" lon="2.7773183"><ele>139.0</ele><time>2026-04-26T06:57:56.729Z</time></trkpt><trkpt lat="42.8460583" lon="2.7774867"><ele>140.5</ele><time>2026-04-26T06:57:57.727Z</time></trkpt><trkpt lat="42.846135" lon="2.7776533"><ele>142.0</ele><time>2026-04-26T06:57:58.728Z</time></trkpt><trkpt lat="42.8462167" lon="2.7778167"><ele>143.5</ele><time>2026-04-26T06:57:59.727Z</time></trkpt><trkpt lat="42.8463067" lon="2.7779683"><ele>145.0</ele><time>2026-04-26T06:58:00.727Z</time></trkpt><trkpt lat="42.846415" lon="2.77809"><ele>145.0</ele><time>2026-04-26T06:58:01.727Z</time></trkpt><trkpt lat="42.8465383" lon="2.7781783"><ele>145.0</ele><time>2026-04-26T06:58:02.732Z</time></trkpt><trkpt lat="42.846675" lon="2.778245"><ele>145.0</ele><time>2026-04-26T06:58:03.728Z</time></trkpt><trkpt lat="42.8468083" lon="2.7783017"><ele>145.0</ele><time>2026-04-26T06:58:04.728Z</time></trkpt><trkpt lat="42.8469417" lon="2.77836"><ele>146.5</ele><time>2026-04-26T06:58:05.728Z</time></trkpt><trkpt lat="42.847065" lon="2.7784083"><ele>148.0</ele><time>2026-04-26T06:58:06.727Z</time></trkpt><trkpt lat="42.847185" lon="2.77846"><ele>149.5</ele><time>2026-04-26T06:58:07.727Z</time></trkpt><trkpt lat="42.8472883" lon="2.7785083"><ele>151.0</ele><time>2026-04-26T06:58:08.73Z</time></trkpt><trkpt lat="42.8473933" lon="2.7785633"><ele>151.0</ele><time>2026-04-26T06:58:09.728Z</time></trkpt><trkpt lat="42.8474967" lon="2.7786117"><ele>151.0</ele><time>2026-04-26T06:58:10.728Z</time></trkpt><trkpt lat="42.8475933" lon="2.7786417"><ele>151.0</ele><time>2026-04-26T06:58:11.728Z</time></trkpt><trkpt lat="42.8476783" lon="2.77868"><ele>151.0</ele><time>2026-04-26T06:58:12.727Z</time></trkpt><trkpt lat="42.8477533" lon="2.7787167"><ele>151.0</ele><time>2026-04-26T06:58:13.729Z</time></trkpt><trkpt lat="42.8478283" lon="2.7787467"><ele>152.0</ele><time>2026-04-26T06:58:14.728Z</time></trkpt><trkpt lat="42.8478983" lon="2.778785"><ele>153.0</ele><time>2026-04-26T06:58:15.729Z</time></trkpt><trkpt lat="42.8479567" lon="2.7788233"><ele>154.0</ele><time>2026-04-26T06:58:16.731Z</time></trkpt><trkpt lat="42.84803" lon="2.7788967"><ele>155.0</ele><time>2026-04-26T06:58:18.729Z</time></trkpt><trkpt lat="42.8480467" lon="2.778995"><ele>156.0</ele><time>2026-04-26T06:58:20.731Z</time></trkpt><trkpt lat="42.8479583" lon="2.7791183"><ele>157.0</ele><time>2026-04-26T06:58:22.729Z</time></trkpt><trkpt lat="42.847895" lon="2.7792017"><ele>157.0</ele><time>2026-04-26T06:58:23.729Z</time></trkpt><trkpt lat="42.8478233" lon="2.7793133"><ele>157.0</ele><time>2026-04-26T06:58:24.728Z</time></trkpt><trkpt lat="42.84776" lon="2.7794483"><ele>157.0</ele><time>2026-04-26T06:58:25.728Z</time></trkpt><trkpt lat="42.847725" lon="2.7795983"><ele>157.0</ele><time>2026-04-26T06:58:26.731Z</time></trkpt><trkpt lat="42.8476983" lon="2.77977"><ele>158.75</ele><time>2026-04-26T06:58:27.736Z</time></trkpt><trkpt lat="42.8476933" lon="2.7799633"><ele>160.5</ele><time>2026-04-26T06:58:28.728Z</time></trkpt><trkpt lat="42.8477117" lon="2.7801533"><ele>162.25</ele><time>2026-04-26T06:58:29.729Z</time></trkpt><trkpt lat="42.8477417" lon="2.780335"><ele>164.0</ele><time>2026-04-26T06:58:30.728Z</time></trkpt><trkpt lat="42.847785" lon="2.7805117"><ele>164.25</ele><time>2026-04-26T06:58:31.728Z</time></trkpt><trkpt lat="42.84783" lon="2.7806883"><ele>164.5</ele><time>2026-04-26T06:58:32.729Z</time></trkpt><trkpt lat="42.8478817" lon="2.7808633"><ele>164.75</ele><time>2026-04-26T06:58:33.729Z</time></trkpt><trkpt lat="42.8479467" lon="2.781035"><ele>165.0</ele><time>2026-04-26T06:58:34.728Z</time></trkpt><trkpt lat="42.84802" lon="2.7812033"><ele>163.66666666666666</ele><time>2026-04-26T06:58:35.73Z</time></trkpt><trkpt lat="42.8480967" lon="2.7813817"><ele>162.33333333333331</ele><time>2026-04-26T06:58:36.732Z</time></trkpt><trkpt lat="42.8481733" lon="2.7815717"><ele>161.0</ele><time>2026-04-26T06:58:37.729Z</time></trkpt><trkpt lat="42.8482533" lon="2.7817617"><ele>161.66666666666666</ele><time>2026-04-26T06:58:38.729Z</time></trkpt><trkpt lat="42.8483333" lon="2.78195"><ele>162.33333333333334</ele><time>2026-04-26T06:58:39.728Z</time></trkpt><trkpt lat="42.8484117" lon="2.7821417"><ele>163.0</ele><time>2026-04-26T06:58:40.727Z</time></trkpt><trkpt lat="42.848495" lon="2.7823317"><ele>163.0</ele><time>2026-04-26T06:58:41.731Z</time></trkpt><trkpt lat="42.8485833" lon="2.78251"><ele>163.0</ele><time>2026-04-26T06:58:42.729Z</time></trkpt><trkpt lat="42.8486983" lon="2.7826733"><ele>163.0</ele><time>2026-04-26T06:58:43.728Z</time></trkpt><trkpt lat="42.8488417" lon="2.7828133"><ele>162.0</ele><time>2026-04-26T06:58:44.728Z</time></trkpt><trkpt lat="42.8489933" lon="2.78294"><ele>161.0</ele><time>2026-04-26T06:58:45.729Z</time></trkpt><trkpt lat="42.84915" lon="2.7830667"><ele>160.0</ele><time>2026-04-26T06:58:46.728Z</time></trkpt><trkpt lat="42.849305" lon="2.783205"><ele>161.66666666666669</ele><time>2026-04-26T06:58:47.729Z</time></trkpt><trkpt lat="42.8494583" lon="2.7833517"><ele>163.33333333333334</ele><time>2026-04-26T06:58:48.731Z</time></trkpt><trkpt lat="42.8496083" lon="2.7835033"><ele>165.0</ele><time>2026-04-26T06:58:49.731Z</time></trkpt><trkpt lat="42.84976" lon="2.7836533"><ele>165.0</ele><time>2026-04-26T06:58:50.729Z</time></trkpt><trkpt lat="42.8499133" lon="2.783805"><ele>165.0</ele><time>2026-04-26T06:58:51.731Z</time></trkpt><trkpt lat="42.8500683" lon="2.7839583"><ele>165.0</ele><time>2026-04-26T06:58:52.73Z</time></trkpt><trkpt lat="42.8502233" lon="2.7841133"><ele>166.33333333333334</ele><time>2026-04-26T06:58:53.731Z</time></trkpt><trkpt lat="42.85037" lon="2.7842733"><ele>167.66666666666669</ele><time>2026-04-26T06:58:54.728Z</time></trkpt><trkpt lat="42.8505033" lon="2.7844433"><ele>169.0</ele><time>2026-04-26T06:58:55.727Z</time></trkpt><trkpt lat="42.8506167" lon="2.7846217"><ele>169.0</ele><time>2026-04-26T06:58:56.731Z</time></trkpt><trkpt lat="42.8507067" lon="2.7848033"><ele>169.0</ele><time>2026-04-26T06:58:57.728Z</time></trkpt><trkpt lat="42.8507783" lon="2.784985"><ele>169.0</ele><time>2026-04-26T06:58:58.73Z</time></trkpt><trkpt lat="42.850905" lon="2.785315"><ele>169.5</ele><time>2026-04-26T06:59:00.729Z</time></trkpt><trkpt lat="42.85099" lon="2.7854333"><ele>170.0</ele><time>2026-04-26T06:59:01.729Z</time></trkpt><trkpt lat="42.8510983" lon="2.785465"><ele>170.5</ele><time>2026-04-26T06:59:02.728Z</time></trkpt><trkpt lat="42.851215" lon="2.7854217"><ele>171.0</ele><time>2026-04-26T06:59:03.728Z</time></trkpt><trkpt lat="42.8513267" lon="2.7853083"><ele>172.25</ele><time>2026-04-26T06:59:04.727Z</time></trkpt><trkpt lat="42.8514367" lon="2.785175"><ele>173.5</ele><time>2026-04-26T06:59:05.734Z</time></trkpt><trkpt lat="42.85155" lon="2.78505"><ele>174.75</ele><time>2026-04-26T06:59:06.729Z</time></trkpt><trkpt lat="42.85168" lon="2.784955"><ele>176.0</ele><time>2026-04-26T06:59:07.729Z</time></trkpt><trkpt lat="42.85182" lon="2.78491"><ele>179.25</ele><time>2026-04-26T06:59:08.73Z</time></trkpt><trkpt lat="42.851955" lon="2.7848983"><ele>182.5</ele><time>2026-04-26T06:59:09.727Z</time></trkpt><trkpt lat="42.852085" lon="2.7848917"><ele>185.75</ele><time>2026-04-26T06:59:10.727Z</time></trkpt><trkpt lat="42.85221" lon="2.784885"><ele>189.0</ele><time>2026-04-26T06:59:11.729Z</time></trkpt><trkpt lat="42.8523233" lon="2.7849017"><ele>189.0</ele><time>2026-04-26T06:59:12.73Z</time></trkpt><trkpt lat="42.8524133" lon="2.78497"><ele>189.0</ele><time>2026-04-26T06:59:13.732Z</time></trkpt><trkpt lat="42.8524667" lon="2.785085"><ele>189.0</ele><time>2026-04-26T06:59:14.729Z</time></trkpt><trkpt lat="42.852475" lon="2.785225"><ele>189.0</ele><time>2026-04-26T06:59:15.729Z</time></trkpt><trkpt lat="42.852435" lon="2.78537"><ele>189.0</ele><time>2026-04-26T06:59:16.729Z</time></trkpt><trkpt lat="42.8524033" lon="2.7855267"><ele>188.75</ele><time>2026-04-26T06:59:17.728Z</time></trkpt><trkpt lat="42.8524017" lon="2.7857"><ele>188.5</ele><time>2026-04-26T06:59:18.728Z</time></trkpt><trkpt lat="42.8524317" lon="2.7858767"><ele>188.25</ele><time>2026-04-26T06:59:19.737Z</time></trkpt><trkpt lat="42.8524733" lon="2.7860467"><ele>188.0</ele><time>2026-04-26T06:59:20.728Z</time></trkpt><trkpt lat="42.8525317" lon="2.7862117"><ele>188.0</ele><time>2026-04-26T06:59:21.729Z</time></trkpt><trkpt lat="42.8525883" lon="2.7863833"><ele>188.0</ele><time>2026-04-26T06:59:22.727Z</time></trkpt><trkpt lat="42.8526133" lon="2.7865617"><ele>188.0</ele><time>2026-04-26T06:59:23.732Z</time></trkpt><trkpt lat="42.8525933" lon="2.7867433"><ele>188.0</ele><time>2026-04-26T06:59:24.728Z</time></trkpt><trkpt lat="42.8525133" lon="2.7869167"><ele>193.66666666666666</ele><time>2026-04-26T06:59:25.73Z</time></trkpt><trkpt lat="42.8524083" lon="2.7870817"><ele>199.33333333333331</ele><time>2026-04-26T06:59:26.728Z</time></trkpt><trkpt lat="42.85229" lon="2.7872367"><ele>205.0</ele><time>2026-04-26T06:59:27.727Z</time></trkpt><trkpt lat="42.8521633" lon="2.7873767"><ele>205.0</ele><time>2026-04-26T06:59:28.731Z</time></trkpt><trkpt lat="42.8520317" lon="2.7875117"><ele>205.0</ele><time>2026-04-26T06:59:29.728Z</time></trkpt><trkpt lat="42.8519017" lon="2.78764"><ele>205.0</ele><time>2026-04-26T06:59:30.728Z</time></trkpt><trkpt lat="42.8517833" lon="2.7877717"><ele>202.0</ele><time>2026-04-26T06:59:31.731Z</time></trkpt><trkpt lat="42.8516917" lon="2.78792"><ele>199.0</ele><time>2026-04-26T06:59:32.729Z</time></trkpt><trkpt lat="42.8516433" lon="2.78809"><ele>196.0</ele><time>2026-04-26T06:59:33.728Z</time></trkpt><trkpt lat="42.851655" lon="2.7882717"><ele>193.0</ele><time>2026-04-26T06:59:34.728Z</time></trkpt><trkpt lat="42.8517" lon="2.78846"><ele>192.0</ele><time>2026-04-26T06:59:35.732Z</time></trkpt><trkpt lat="42.8517483" lon="2.7886567"><ele>191.0</ele><time>2026-04-26T06:59:36.727Z</time></trkpt><trkpt lat="42.851795" lon="2.78885"><ele>190.0</ele><time>2026-04-26T06:59:37.729Z</time></trkpt><trkpt lat="42.8518517" lon="2.789025"><ele>189.0</ele><time>2026-04-26T06:59:38.73Z</time></trkpt><trkpt lat="42.8519417" lon="2.7891717"><ele>190.66666666666669</ele><time>2026-04-26T06:59:39.731Z</time></trkpt><trkpt lat="42.85207" lon="2.789275"><ele>192.33333333333334</ele><time>2026-04-26T06:59:40.727Z</time></trkpt><trkpt lat="42.852225" lon="2.7893433"><ele>194.0</ele><time>2026-04-26T06:59:41.729Z</time></trkpt><trkpt lat="42.8523883" lon="2.789395"><ele>194.0</ele><time>2026-04-26T06:59:42.728Z</time></trkpt><trkpt lat="42.85255" lon="2.789445"><ele>194.0</ele><time>2026-04-26T06:59:43.734Z</time></trkpt><trkpt lat="42.852715" lon="2.7894933"><ele>194.0</ele><time>2026-04-26T06:59:44.728Z</time></trkpt><trkpt lat="42.8528833" lon="2.7895533"><ele>197.33333333333334</ele><time>2026-04-26T06:59:45.73Z</time></trkpt><trkpt lat="42.8530533" lon="2.7896167"><ele>200.66666666666669</ele><time>2026-04-26T06:59:46.729Z</time></trkpt><trkpt lat="42.8532267" lon="2.7896833"><ele>204.0</ele><time>2026-04-26T06:59:47.812Z</time></trkpt><trkpt lat="42.8534" lon="2.7897567"><ele>209.66666666666669</ele><time>2026-04-26T06:59:48.729Z</time></trkpt><trkpt lat="42.8535717" lon="2.7898333"><ele>215.33333333333334</ele><time>2026-04-26T06:59:49.728Z</time></trkpt><trkpt lat="42.8537467" lon="2.7898933"><ele>221.0</ele><time>2026-04-26T06:59:50.73Z</time></trkpt><trkpt lat="42.8539083" lon="2.7899567"><ele>221.0</ele><time>2026-04-26T06:59:51.73Z</time></trkpt><trkpt lat="42.8540583" lon="2.79001"><ele>221.0</ele><time>2026-04-26T06:59:52.729Z</time></trkpt><trkpt lat="42.8541983" lon="2.790065"><ele>221.0</ele><time>2026-04-26T06:59:53.733Z</time></trkpt><trkpt lat="42.8543283" lon="2.7901183"><ele>221.0</ele><time>2026-04-26T06:59:54.728Z</time></trkpt><trkpt lat="42.85445" lon="2.7901667"><ele>223.0</ele><time>2026-04-26T06:59:55.728Z</time></trkpt><trkpt lat="42.854565" lon="2.7902033"><ele>225.00000000000003</ele><time>2026-04-26T06:59:56.728Z</time></trkpt><trkpt lat="42.85467" lon="2.790265"><ele>227.00000000000003</ele><time>2026-04-26T06:59:57.729Z</time></trkpt><trkpt lat="42.8547417" lon="2.790365"><ele>229.0</ele><time>2026-04-26T06:59:58.73Z</time></trkpt><trkpt lat="42.8547633" lon="2.7904917"><ele>231.0</ele><time>2026-04-26T06:59:59.729Z</time></trkpt><trkpt lat="42.8547267" lon="2.7906167"><ele>231.0</ele><time>2026-04-26T07:00:00.73Z</time></trkpt><trkpt lat="42.8546317" lon="2.7907117"><ele>231.0</ele><time>2026-04-26T07:00:01.731Z</time></trkpt><trkpt lat="42.8545083" lon="2.7907633"><ele>231.0</ele><time>2026-04-26T07:00:02.729Z</time></trkpt><trkpt lat="42.854375" lon="2.7908133"><ele>231.0</ele><time>2026-04-26T07:00:03.73Z</time></trkpt><trkpt lat="42.8542433" lon="2.7908817"><ele>233.0</ele><time>2026-04-26T07:00:04.729Z</time></trkpt><trkpt lat="42.8541133" lon="2.79097"><ele>235.0</ele><time>2026-04-26T07:00:05.729Z</time></trkpt><trkpt lat="42.8539817" lon="2.79108"><ele>237.0</ele><time>2026-04-26T07:00:06.729Z</time></trkpt><trkpt lat="42.8538467" lon="2.7912033"><ele>237.0</ele><time>2026-04-26T07:00:07.733Z</time></trkpt><trkpt lat="42.8537133" lon="2.7913367"><ele>237.0</ele><time>2026-04-26T07:00:08.73Z</time></trkpt><trkpt lat="42.8535817" lon="2.7914767"><ele>237.0</ele><time>2026-04-26T07:00:09.729Z</time></trkpt><trkpt lat="42.8534467" lon="2.7916233"><ele>238.33333333333331</ele><time>2026-04-26T07:00:10.73Z</time></trkpt><trkpt lat="42.85331" lon="2.79177"><ele>239.66666666666666</ele><time>2026-04-26T07:00:11.729Z</time></trkpt><trkpt lat="42.8531733" lon="2.7919267"><ele>241.0</ele><time>2026-04-26T07:00:12.729Z</time></trkpt><trkpt lat="42.85304" lon="2.7920867"><ele>241.0</ele><time>2026-04-26T07:00:13.73Z</time></trkpt><trkpt lat="42.8529067" lon="2.7922617"><ele>241.0</ele><time>2026-04-26T07:00:14.729Z</time></trkpt><trkpt lat="42.8527817" lon="2.7924433"><ele>241.0</ele><time>2026-04-26T07:00:15.73Z</time></trkpt><trkpt lat="42.8526617" lon="2.792635"><ele>241.0</ele><time>2026-04-26T07:00:16.729Z</time></trkpt><trkpt lat="42.8525583" lon="2.792805"><ele>241.0</ele><time>2026-04-26T07:00:17.734Z</time></trkpt><trkpt lat="42.852415" lon="2.7929883"><ele>241.0</ele><time>2026-04-26T07:00:18.728Z</time></trkpt><trkpt lat="42.8522767" lon="2.7931467"><ele>241.0</ele><time>2026-04-26T07:00:19.728Z</time></trkpt><trkpt lat="42.852135" lon="2.7933033"><ele>241.0</ele><time>2026-04-26T07:00:20.728Z</time></trkpt><trkpt lat="42.85198" lon="2.793455"><ele>241.0</ele><time>2026-04-26T07:00:21.734Z</time></trkpt><trkpt lat="42.8518267" lon="2.793605"><ele>245.66666666666666</ele><time>2026-04-26T07:00:22.73Z</time></trkpt><trkpt lat="42.8516817" lon="2.7937517"><ele>250.33333333333331</ele><time>2026-04-26T07:00:23.729Z</time></trkpt><trkpt lat="42.851545" lon="2.7939117"><ele>255.0</ele><time>2026-04-26T07:00:24.727Z</time></trkpt><trkpt lat="42.8514017" lon="2.79408"><ele>255.0</ele><time>2026-04-26T07:00:25.729Z</time></trkpt><trkpt lat="42.8512667" lon="2.7942583"><ele>255.0</ele><time>2026-04-26T07:00:26.728Z</time></trkpt><trkpt lat="42.8511433" lon="2.7944383"><ele>255.0</ele><time>2026-04-26T07:00:27.728Z</time></trkpt><trkpt lat="42.8510183" lon="2.794615"><ele>257.3333333333333</ele><time>2026-04-26T07:00:28.728Z</time></trkpt><trkpt lat="42.8508933" lon="2.7947767"><ele>259.66666666666663</ele><time>2026-04-26T07:00:29.729Z</time></trkpt><trkpt lat="42.8507717" lon="2.7949283"><ele>262.0</ele><time>2026-04-26T07:00:30.728Z</time></trkpt><trkpt lat="42.85065" lon="2.7950633"><ele>268.0</ele><time>2026-04-26T07:00:31.729Z</time></trkpt><trkpt lat="42.85052" lon="2.7951783"><ele>274.0</ele><time>2026-04-26T07:00:32.729Z</time></trkpt><trkpt lat="42.8503783" lon="2.7952633"><ele>280.0</ele><time>2026-04-26T07:00:33.727Z</time></trkpt><trkpt lat="42.85024" lon="2.795315"><ele>273.25</ele><time>2026-04-26T07:00:34.728Z</time></trkpt><trkpt lat="42.8501083" lon="2.7953433"><ele>266.5</ele><time>2026-04-26T07:00:35.729Z</time></trkpt><trkpt lat="42.849985" lon="2.7953583"><ele>259.75</ele><time>2026-04-26T07:00:36.728Z</time></trkpt><trkpt lat="42.8498683" lon="2.7953883"><ele>253.0</ele><time>2026-04-26T07:00:37.73Z</time></trkpt><trkpt lat="42.849765" lon="2.79547"><ele>253.0</ele><time>2026-04-26T07:00:38.728Z</time></trkpt><trkpt lat="42.8496867" lon="2.7956083"><ele>253.0</ele><time>2026-04-26T07:00:39.731Z</time></trkpt><trkpt lat="42.8496283" lon="2.79578"><ele>253.0</ele><time>2026-04-26T07:00:40.73Z</time></trkpt><trkpt lat="42.8495817" lon="2.7959667"><ele>253.0</ele><time>2026-04-26T07:00:41.727Z</time></trkpt><trkpt lat="42.8495417" lon="2.7961633"><ele>254.5</ele><time>2026-04-26T07:00:42.728Z</time></trkpt><trkpt lat="42.8495183" lon="2.7963667"><ele>256.0</ele><time>2026-04-26T07:00:43.729Z</time></trkpt><trkpt lat="42.849535" lon="2.796565"><ele>257.5</ele><time>2026-04-26T07:00:44.729Z</time></trkpt><trkpt lat="42.8496033" lon="2.796745"><ele>259.0</ele><time>2026-04-26T07:00:45.727Z</time></trkpt><trkpt lat="42.849695" lon="2.7968883"><ele>259.2</ele><time>2026-04-26T07:00:46.727Z</time></trkpt><trkpt lat="42.8497867" lon="2.7970083"><ele>259.4</ele><time>2026-04-26T07:00:47.729Z</time></trkpt><trkpt lat="42.8498533" lon="2.7971283"><ele>259.6</ele><time>2026-04-26T07:00:48.731Z</time></trkpt><trkpt lat="42.8498917" lon="2.7972533"><ele>259.8</ele><time>2026-04-26T07:00:49.73Z</time></trkpt><trkpt lat="42.8498933" lon="2.7973717"><ele>260.0</ele><time>2026-04-26T07:00:50.73Z</time></trkpt><trkpt lat="42.8498433" lon="2.79745"><ele>260.0</ele><time>2026-04-26T07:00:51.729Z</time></trkpt><trkpt lat="42.8497717" lon="2.7974883"><ele>260.0</ele><time>2026-04-26T07:00:52.729Z</time></trkpt><trkpt lat="42.8496917" lon="2.7974933"><ele>260.0</ele><time>2026-04-26T07:00:53.73Z</time></trkpt><trkpt lat="42.8496133" lon="2.7974683"><ele>260.0</ele><time>2026-04-26T07:00:54.732Z</time></trkpt><trkpt lat="42.8495283" lon="2.7974183"><ele>260.0</ele><time>2026-04-26T07:00:55.728Z</time></trkpt><trkpt lat="42.8494367" lon="2.7973733"><ele>260.0</ele><time>2026-04-26T07:00:56.729Z</time></trkpt><trkpt lat="42.8493367" lon="2.7973283"><ele>259.5</ele><time>2026-04-26T07:00:57.729Z</time></trkpt><trkpt lat="42.8492333" lon="2.7972733"><ele>259.0</ele><time>2026-04-26T07:00:58.73Z</time></trkpt><trkpt lat="42.8491283" lon="2.79721"><ele>258.5</ele><time>2026-04-26T07:00:59.73Z</time></trkpt><trkpt lat="42.8490283" lon="2.797115"><ele>258.0</ele><time>2026-04-26T07:01:00.731Z</time></trkpt><trkpt lat="42.848935" lon="2.7970033"><ele>258.0</ele><time>2026-04-26T07:01:01.728Z</time></trkpt><trkpt lat="42.8488483" lon="2.7968817"><ele>258.0</ele><time>2026-04-26T07:01:02.729Z</time></trkpt><trkpt lat="42.848765" lon="2.7967667"><ele>258.0</ele><time>2026-04-26T07:01:03.728Z</time></trkpt><trkpt lat="42.8486833" lon="2.7966583"><ele>258.0</ele><time>2026-04-26T07:01:04.729Z</time></trkpt><trkpt lat="42.848605" lon="2.79655"><ele>258.0</ele><time>2026-04-26T07:01:05.729Z</time></trkpt><trkpt lat="42.8485233" lon="2.79645"><ele>258.0</ele><time>2026-04-26T07:01:06.729Z</time></trkpt><trkpt lat="42.84843" lon="2.7963683"><ele>258.0</ele><time>2026-04-26T07:01:07.728Z</time></trkpt><trkpt lat="42.8483283" lon="2.796315"><ele>258.0</ele><time>2026-04-26T07:01:08.729Z</time></trkpt><trkpt lat="42.8482217" lon="2.7962983"><ele>258.0</ele><time>2026-04-26T07:01:09.729Z</time></trkpt><trkpt lat="42.8481167" lon="2.7963233"><ele>258.0</ele><time>2026-04-26T07:01:10.729Z</time></trkpt><trkpt lat="42.8480133" lon="2.7963833"><ele>258.0</ele><time>2026-04-26T07:01:11.73Z</time></trkpt><trkpt lat="42.8479133" lon="2.7964733"><ele>258.0</ele><time>2026-04-26T07:01:12.727Z</time></trkpt><trkpt lat="42.8478233" lon="2.7965767"><ele>258.0</ele><time>2026-04-26T07:01:13.73Z</time></trkpt><trkpt lat="42.84774" lon="2.7966883"><ele>258.0</ele><time>2026-04-26T07:01:14.728Z</time></trkpt><trkpt lat="42.8476583" lon="2.7967983"><ele>258.0</ele><time>2026-04-26T07:01:15.727Z</time></trkpt><trkpt lat="42.8475817" lon="2.7968983"><ele>258.0</ele><time>2026-04-26T07:01:16.729Z</time></trkpt><trkpt lat="42.8475167" lon="2.7969917"><ele>258.0</ele><time>2026-04-26T07:01:17.728Z</time></trkpt><trkpt lat="42.8474717" lon="2.7970917"><ele>258.0</ele><time>2026-04-26T07:01:18.729Z</time></trkpt><trkpt lat="42.8474533" lon="2.7971917"><ele>258.2</ele><time>2026-04-26T07:01:19.729Z</time></trkpt><trkpt lat="42.84751" lon="2.797245"><ele>258.4</ele><time>2026-04-26T07:01:20.729Z</time></trkpt><trkpt lat="42.8475833" lon="2.7972633"><ele>258.59999999999997</ele><time>2026-04-26T07:01:21.734Z</time></trkpt><trkpt lat="42.8476733" lon="2.7972517"><ele>258.8</ele><time>2026-04-26T07:01:22.73Z</time></trkpt><trkpt lat="42.8477833" lon="2.7972217"><ele>259.0</ele><time>2026-04-26T07:01:23.73Z</time></trkpt><trkpt lat="42.8478917" lon="2.7972067"><ele>259.75</ele><time>2026-04-26T07:01:24.729Z</time></trkpt><trkpt lat="42.8480067" lon="2.7972217"><ele>260.5</ele><time>2026-04-26T07:01:25.728Z</time></trkpt><trkpt lat="42.8481117" lon="2.79729"><ele>261.25</ele><time>2026-04-26T07:01:26.728Z</time></trkpt><trkpt lat="42.8482" lon="2.7973967"><ele>262.0</ele><time>2026-04-26T07:01:27.728Z</time></trkpt><trkpt lat="42.84827" lon="2.7975433"><ele>262.5</ele><time>2026-04-26T07:01:28.733Z</time></trkpt><trkpt lat="42.848345" lon="2.7976933"><ele>263.0</ele><time>2026-04-26T07:01:29.729Z</time></trkpt><trkpt lat="42.848425" lon="2.7978483"><ele>263.5</ele><time>2026-04-26T07:01:30.729Z</time></trkpt><trkpt lat="42.8485067" lon="2.79801"><ele>264.0</ele><time>2026-04-26T07:01:31.729Z</time></trkpt><trkpt lat="42.8485967" lon="2.7981817"><ele>264.0</ele><time>2026-04-26T07:01:32.73Z</time></trkpt><trkpt lat="42.84869" lon="2.7983583"><ele>264.0</ele><time>2026-04-26T07:01:33.729Z</time></trkpt><trkpt lat="42.84878" lon="2.7985367"><ele>264.0</ele><time>2026-04-26T07:01:34.727Z</time></trkpt><trkpt lat="42.8488683" lon="2.7987183"><ele>265.0</ele><time>2026-04-26T07:01:35.729Z</time></trkpt><trkpt lat="42.84896" lon="2.7989033"><ele>266.0</ele><time>2026-04-26T07:01:36.728Z</time></trkpt><trkpt lat="42.8490517" lon="2.7990933"><ele>267.0</ele><time>2026-04-26T07:01:37.728Z</time></trkpt><trkpt lat="42.8491383" lon="2.7992917"><ele>268.0</ele><time>2026-04-26T07:01:38.73Z</time></trkpt><trkpt lat="42.8492183" lon="2.7995017"><ele>269.0</ele><time>2026-04-26T07:01:39.728Z</time></trkpt><trkpt lat="42.8492733" lon="2.7997233"><ele>270.0</ele><time>2026-04-26T07:01:40.728Z</time></trkpt><trkpt lat="42.84932" lon="2.799945"><ele>272.3333333333333</ele><time>2026-04-26T07:01:41.732Z</time></trkpt><trkpt lat="42.84936" lon="2.8001717"><ele>274.66666666666663</ele><time>2026-04-26T07:01:42.729Z</time></trkpt><trkpt lat="42.8493867" lon="2.8004067"><ele>277.0</ele><time>2026-04-26T07:01:43.728Z</time></trkpt><trkpt lat="42.8493983" lon="2.80064"><ele>277.0</ele><time>2026-04-26T07:01:44.729Z</time></trkpt><trkpt lat="42.8494017" lon="2.8008617"><ele>277.0</ele><time>2026-04-26T07:01:45.728Z</time></trkpt><trkpt lat="42.849415" lon="2.8010783"><ele>277.0</ele><time>2026-04-26T07:01:46.73Z</time></trkpt><trkpt lat="42.8494267" lon="2.8012967"><ele>277.66666666666663</ele><time>2026-04-26T07:01:47.733Z</time></trkpt><trkpt lat="42.849435" lon="2.8015117"><ele>278.3333333333333</ele><time>2026-04-26T07:01:48.728Z</time></trkpt><trkpt lat="42.8494333" lon="2.8017317"><ele>279.0</ele><time>2026-04-26T07:01:49.732Z</time></trkpt><trkpt lat="42.8494233" lon="2.8019567"><ele>280.3333333333333</ele><time>2026-04-26T07:01:50.728Z</time></trkpt><trkpt lat="42.8494017" lon="2.8021817"><ele>281.66666666666663</ele><time>2026-04-26T07:01:51.729Z</time></trkpt><trkpt lat="42.8493733" lon="2.8024017"><ele>283.0</ele><time>2026-04-26T07:01:52.728Z</time></trkpt><trkpt lat="42.8493267" lon="2.8026083"><ele>282.0</ele><time>2026-04-26T07:01:53.73Z</time></trkpt><trkpt lat="42.8492633" lon="2.80281"><ele>281.0</ele><time>2026-04-26T07:01:54.728Z</time></trkpt><trkpt lat="42.8491933" lon="2.8030117"><ele>280.0</ele><time>2026-04-26T07:01:55.729Z</time></trkpt><trkpt lat="42.849135" lon="2.80322"><ele>280.0</ele><time>2026-04-26T07:01:56.73Z</time></trkpt><trkpt lat="42.8490917" lon="2.8034367"><ele>280.0</ele><time>2026-04-26T07:01:57.73Z</time></trkpt><trkpt lat="42.8490617" lon="2.8036633"><ele>280.0</ele><time>2026-04-26T07:01:58.727Z</time></trkpt><trkpt lat="42.84904" lon="2.8038933"><ele>281.0</ele><time>2026-04-26T07:01:59.735Z</time></trkpt><trkpt lat="42.8490183" lon="2.804125"><ele>282.0</ele><time>2026-04-26T07:02:00.729Z</time></trkpt><trkpt lat="42.8489967" lon="2.8043533"><ele>283.0</ele><time>2026-04-26T07:02:01.731Z</time></trkpt><trkpt lat="42.8489783" lon="2.80458"><ele>283.66666666666663</ele><time>2026-04-26T07:02:02.731Z</time></trkpt><trkpt lat="42.848955" lon="2.8048033"><ele>284.3333333333333</ele><time>2026-04-26T07:02:03.729Z</time></trkpt><trkpt lat="42.848935" lon="2.8050267"><ele>285.0</ele><time>2026-04-26T07:02:04.727Z</time></trkpt><trkpt lat="42.8489133" lon="2.805245"><ele>285.6666666666667</ele><time>2026-04-26T07:02:05.73Z</time></trkpt><trkpt lat="42.8488967" lon="2.8054583"><ele>286.33333333333337</ele><time>2026-04-26T07:02:06.732Z</time></trkpt><trkpt lat="42.8488883" lon="2.8056683"><ele>287.0</ele><time>2026-04-26T07:02:07.731Z</time></trkpt><trkpt lat="42.8488967" lon="2.8058767"><ele>286.25</ele><time>2026-04-26T07:02:08.732Z</time></trkpt><trkpt lat="42.8489233" lon="2.80608"><ele>285.5</ele><time>2026-04-26T07:02:09.73Z</time></trkpt><trkpt lat="42.848965" lon="2.8062717"><ele>284.75</ele><time>2026-04-26T07:02:10.729Z</time></trkpt><trkpt lat="42.84902" lon="2.806445"><ele>284.0</ele><time>2026-04-26T07:02:11.729Z</time></trkpt><trkpt lat="42.8491117" lon="2.8065883"><ele>284.0</ele><time>2026-04-26T07:02:12.728Z</time></trkpt><trkpt lat="42.84922" lon="2.8066967"><ele>284.0</ele><time>2026-04-26T07:02:13.729Z</time></trkpt><trkpt lat="42.8493267" lon="2.8068033"><ele>284.0</ele><time>2026-04-26T07:02:14.729Z</time></trkpt><trkpt lat="42.8494033" lon="2.8069367"><ele>284.0</ele><time>2026-04-26T07:02:15.728Z</time></trkpt><trkpt lat="42.8494383" lon="2.8070933"><ele>283.8</ele><time>2026-04-26T07:02:16.729Z</time></trkpt><trkpt lat="42.8494233" lon="2.8072483"><ele>283.59999999999997</ele><time>2026-04-26T07:02:17.727Z</time></trkpt><trkpt lat="42.849395" lon="2.807385"><ele>283.4</ele><time>2026-04-26T07:02:18.728Z</time></trkpt><trkpt lat="42.8493667" lon="2.8075083"><ele>283.2</ele><time>2026-04-26T07:02:19.729Z</time></trkpt><trkpt lat="42.8493517" lon="2.807615"><ele>283.0</ele><time>2026-04-26T07:02:20.73Z</time></trkpt><trkpt lat="42.8493667" lon="2.8077083"><ele>283.0</ele><time>2026-04-26T07:02:21.73Z</time></trkpt><trkpt lat="42.8494183" lon="2.807785"><ele>283.0</ele><time>2026-04-26T07:02:22.729Z</time></trkpt><trkpt lat="42.8494883" lon="2.80784"><ele>283.0</ele><time>2026-04-26T07:02:23.73Z</time></trkpt><trkpt lat="42.8495967" lon="2.8078267"><ele>283.0</ele><time>2026-04-26T07:02:24.729Z</time></trkpt><trkpt lat="42.849705" lon="2.8077817"><ele>283.0</ele><time>2026-04-26T07:02:25.729Z</time></trkpt><trkpt lat="42.8498183" lon="2.8077233"><ele>283.5</ele><time>2026-04-26T07:02:26.728Z</time></trkpt><trkpt lat="42.8499383" lon="2.8076583"><ele>284.0</ele><time>2026-04-26T07:02:27.728Z</time></trkpt><trkpt lat="42.8500583" lon="2.8076033"><ele>284.5</ele><time>2026-04-26T07:02:28.728Z</time></trkpt><trkpt lat="42.8501917" lon="2.807545"><ele>285.0</ele><time>2026-04-26T07:02:29.729Z</time></trkpt><trkpt lat="42.8503367" lon="2.8074817"><ele>285.0</ele><time>2026-04-26T07:02:30.728Z</time></trkpt><trkpt lat="42.8504817" lon="2.8074217"><ele>285.0</ele><time>2026-04-26T07:02:31.729Z</time></trkpt><trkpt lat="42.850635" lon="2.8073617"><ele>285.0</ele><time>2026-04-26T07:02:32.731Z</time></trkpt><trkpt lat="42.85079" lon="2.8073033"><ele>285.0</ele><time>2026-04-26T07:02:33.729Z</time></trkpt><trkpt lat="42.85094" lon="2.8072433"><ele>285.0</ele><time>2026-04-26T07:02:34.729Z</time></trkpt><trkpt lat="42.8510867" lon="2.8071867"><ele>285.0</ele><time>2026-04-26T07:02:35.729Z</time></trkpt><trkpt lat="42.8512183" lon="2.8071417"><ele>285.0</ele><time>2026-04-26T07:02:36.728Z</time></trkpt><trkpt lat="42.8513417" lon="2.8071267"><ele>283.5</ele><time>2026-04-26T07:02:37.729Z</time></trkpt><trkpt lat="42.8514633" lon="2.8071433"><ele>282.0</ele><time>2026-04-26T07:02:38.728Z</time></trkpt><trkpt lat="42.85159" lon="2.8071767"><ele>280.5</ele><time>2026-04-26T07:02:39.728Z</time></trkpt><trkpt lat="42.8517233" lon="2.8072117"><ele>279.0</ele><time>2026-04-26T07:02:40.727Z</time></trkpt><trkpt lat="42.8518583" lon="2.80725"><ele>277.0</ele><time>2026-04-26T07:02:41.729Z</time></trkpt><trkpt lat="42.8519933" lon="2.807295"><ele>275.0</ele><time>2026-04-26T07:02:42.727Z</time></trkpt><trkpt lat="42.8521233" lon="2.807345"><ele>273.0</ele><time>2026-04-26T07:02:43.733Z</time></trkpt><trkpt lat="42.8522517" lon="2.8073917"><ele>271.0</ele><time>2026-04-26T07:02:44.728Z</time></trkpt><trkpt lat="42.85238" lon="2.80744"><ele>271.0</ele><time>2026-04-26T07:02:45.731Z</time></trkpt><trkpt lat="42.852505" lon="2.8074733"><ele>271.0</ele><time>2026-04-26T07:02:46.728Z</time></trkpt><trkpt lat="42.85263" lon="2.8074783"><ele>271.0</ele><time>2026-04-26T07:02:47.727Z</time></trkpt><trkpt lat="42.8527567" lon="2.807465"><ele>271.0</ele><time>2026-04-26T07:02:48.727Z</time></trkpt><trkpt lat="42.8528833" lon="2.8074283"><ele>270.5</ele><time>2026-04-26T07:02:49.727Z</time></trkpt><trkpt lat="42.85301" lon="2.8073667"><ele>270.0</ele><time>2026-04-26T07:02:50.728Z</time></trkpt><trkpt lat="42.8531333" lon="2.8072917"><ele>269.5</ele><time>2026-04-26T07:02:51.728Z</time></trkpt><trkpt lat="42.85326" lon="2.807215"><ele>269.0</ele><time>2026-04-26T07:02:52.729Z</time></trkpt><trkpt lat="42.85339" lon="2.8071417"><ele>268.0</ele><time>2026-04-26T07:02:53.729Z</time></trkpt><trkpt lat="42.85352" lon="2.8070633"><ele>267.0</ele><time>2026-04-26T07:02:54.729Z</time></trkpt><trkpt lat="42.85364" lon="2.8069867"><ele>266.0</ele><time>2026-04-26T07:02:55.727Z</time></trkpt><trkpt lat="42.85375" lon="2.806915"><ele>265.0</ele><time>2026-04-26T07:02:56.731Z</time></trkpt><trkpt lat="42.8538567" lon="2.8068583"><ele>265.25</ele><time>2026-04-26T07:02:57.728Z</time></trkpt><trkpt lat="42.853965" lon="2.8068183"><ele>265.5</ele><time>2026-04-26T07:02:58.728Z</time></trkpt><trkpt lat="42.8540817" lon="2.8068"><ele>265.75</ele><time>2026-04-26T07:02:59.735Z</time></trkpt><trkpt lat="42.8542067" lon="2.8067883"><ele>266.0</ele><time>2026-04-26T07:03:00.727Z</time></trkpt><trkpt lat="42.8543367" lon="2.8067633"><ele>266.0</ele><time>2026-04-26T07:03:01.729Z</time></trkpt><trkpt lat="42.8544683" lon="2.8067217"><ele>266.0</ele><time>2026-04-26T07:03:02.729Z</time></trkpt><trkpt lat="42.8545983" lon="2.8066683"><ele>266.0</ele><time>2026-04-26T07:03:03.728Z</time></trkpt><trkpt lat="42.8547333" lon="2.8066133"><ele>266.0</ele><time>2026-04-26T07:03:04.729Z</time></trkpt><trkpt lat="42.8548767" lon="2.80657"><ele>266.0</ele><time>2026-04-26T07:03:05.729Z</time></trkpt><trkpt lat="42.8550267" lon="2.8065383"><ele>266.0</ele><time>2026-04-26T07:03:06.727Z</time></trkpt><trkpt lat="42.8551817" lon="2.8065133"><ele>266.0</ele><time>2026-04-26T07:03:07.728Z</time></trkpt><trkpt lat="42.855335" lon="2.8064967"><ele>265.0</ele><time>2026-04-26T07:03:08.729Z</time></trkpt><trkpt lat="42.8554817" lon="2.8064883"><ele>264.0</ele><time>2026-04-26T07:03:09.73Z</time></trkpt><trkpt lat="42.8556233" lon="2.8064767"><ele>263.0</ele><time>2026-04-26T07:03:10.727Z</time></trkpt><trkpt lat="42.855765" lon="2.8064783"><ele>262.0</ele><time>2026-04-26T07:03:11.729Z</time></trkpt><trkpt lat="42.8559067" lon="2.8064767"><ele>262.0</ele><time>2026-04-26T07:03:12.73Z</time></trkpt><trkpt lat="42.8560317" lon="2.80651"><ele>262.0</ele><time>2026-04-26T07:03:13.728Z</time></trkpt><trkpt lat="42.8561517" lon="2.806565"><ele>262.0</ele><time>2026-04-26T07:03:14.729Z</time></trkpt><trkpt lat="42.856275" lon="2.8066"><ele>262.0</ele><time>2026-04-26T07:03:15.727Z</time></trkpt><trkpt lat="42.8564067" lon="2.8066167"><ele>262.0</ele><time>2026-04-26T07:03:16.728Z</time></trkpt><trkpt lat="42.8565367" lon="2.8066183"><ele>262.0</ele><time>2026-04-26T07:03:17.732Z</time></trkpt><trkpt lat="42.8566683" lon="2.8066183"><ele>262.0</ele><time>2026-04-26T07:03:18.728Z</time></trkpt><trkpt lat="42.8567983" lon="2.8066333"><ele>262.0</ele><time>2026-04-26T07:03:19.73Z</time></trkpt><trkpt lat="42.8569333" lon="2.8066717"><ele>261.0</ele><time>2026-04-26T07:03:20.729Z</time></trkpt><trkpt lat="42.8570717" lon="2.8067117"><ele>260.0</ele><time>2026-04-26T07:03:21.729Z</time></trkpt><trkpt lat="42.8572117" lon="2.8067333"><ele>259.0</ele><time>2026-04-26T07:03:22.731Z</time></trkpt><trkpt lat="42.85735" lon="2.8067367"><ele>258.0</ele><time>2026-04-26T07:03:23.729Z</time></trkpt><trkpt lat="42.8574817" lon="2.8067267"><ele>258.0</ele><time>2026-04-26T07:03:24.729Z</time></trkpt><trkpt lat="42.857605" lon="2.8066917"><ele>258.0</ele><time>2026-04-26T07:03:25.729Z</time></trkpt><trkpt lat="42.8577133" lon="2.80663"><ele>258.0</ele><time>2026-04-26T07:03:26.729Z</time></trkpt><trkpt lat="42.8578133" lon="2.806565"><ele>258.0</ele><time>2026-04-26T07:03:27.73Z</time></trkpt><trkpt lat="42.8579117" lon="2.8065233"><ele>257.0</ele><time>2026-04-26T07:03:28.729Z</time></trkpt><trkpt lat="42.8580083" lon="2.8065083"><ele>256.0</ele><time>2026-04-26T07:03:29.727Z</time></trkpt><trkpt lat="42.8581033" lon="2.8065183"><ele>255.0</ele><time>2026-04-26T07:03:30.73Z</time></trkpt><trkpt lat="42.8581917" lon="2.806565"><ele>254.0</ele><time>2026-04-26T07:03:31.729Z</time></trkpt><trkpt lat="42.858265" lon="2.8066567"><ele>253.0</ele><time>2026-04-26T07:03:32.729Z</time></trkpt><trkpt lat="42.85833" lon="2.806775"><ele>252.60000000000002</ele><time>2026-04-26T07:03:33.73Z</time></trkpt><trkpt lat="42.8583933" lon="2.8069017"><ele>252.20000000000002</ele><time>2026-04-26T07:03:34.728Z</time></trkpt><trkpt lat="42.8584583" lon="2.8070267"><ele>251.8</ele><time>2026-04-26T07:03:35.728Z</time></trkpt><trkpt lat="42.8585233" lon="2.8071433"><ele>251.4</ele><time>2026-04-26T07:03:36.73Z</time></trkpt><trkpt lat="42.8585817" lon="2.80725"><ele>251.0</ele><time>2026-04-26T07:03:37.729Z</time></trkpt><trkpt lat="42.8586267" lon="2.8073383"><ele>252.00000000000003</ele><time>2026-04-26T07:03:38.728Z</time></trkpt><trkpt lat="42.8587033" lon="2.8074267"><ele>253.0</ele><time>2026-04-26T07:03:40.729Z</time></trkpt><trkpt lat="42.8587933" lon="2.8073917"><ele>254.0</ele><time>2026-04-26T07:03:42.728Z</time></trkpt><trkpt lat="42.85884" lon="2.80733"><ele>255.0</ele><time>2026-04-26T07:03:43.729Z</time></trkpt><trkpt lat="42.8588933" lon="2.807265"><ele>256.0</ele><time>2026-04-26T07:03:44.729Z</time></trkpt><trkpt lat="42.85896" lon="2.8072017"><ele>257.0</ele><time>2026-04-26T07:03:45.729Z</time></trkpt><trkpt lat="42.8590417" lon="2.8071417"><ele>257.0</ele><time>2026-04-26T07:03:46.729Z</time></trkpt><trkpt lat="42.8591383" lon="2.8070867"><ele>257.0</ele><time>2026-04-26T07:03:47.728Z</time></trkpt><trkpt lat="42.8592417" lon="2.80703"><ele>257.0</ele><time>2026-04-26T07:03:48.728Z</time></trkpt><trkpt lat="42.8593467" lon="2.8069733"><ele>257.0</ele><time>2026-04-26T07:03:49.729Z</time></trkpt><trkpt lat="42.8594533" lon="2.8069217"><ele>257.0</ele><time>2026-04-26T07:03:50.729Z</time></trkpt><trkpt lat="42.85957" lon="2.8068783"><ele>257.25</ele><time>2026-04-26T07:03:51.729Z</time></trkpt><trkpt lat="42.85969" lon="2.806845"><ele>257.5</ele><time>2026-04-26T07:03:52.728Z</time></trkpt><trkpt lat="42.8598217" lon="2.8068133"><ele>257.75</ele><time>2026-04-26T07:03:53.728Z</time></trkpt><trkpt lat="42.8599567" lon="2.806785"><ele>258.0</ele><time>2026-04-26T07:03:54.728Z</time></trkpt><trkpt lat="42.860095" lon="2.8067533"><ele>257.75</ele><time>2026-04-26T07:03:55.728Z</time></trkpt><trkpt lat="42.8602333" lon="2.8067233"><ele>257.5</ele><time>2026-04-26T07:03:56.728Z</time></trkpt><trkpt lat="42.86037" lon="2.80669"><ele>257.25</ele><time>2026-04-26T07:03:57.728Z</time></trkpt><trkpt lat="42.8605033" lon="2.8066533"><ele>257.0</ele><time>2026-04-26T07:03:58.728Z</time></trkpt><trkpt lat="42.8606383" lon="2.806615"><ele>257.0</ele><time>2026-04-26T07:03:59.727Z</time></trkpt><trkpt lat="42.8607717" lon="2.8065783"><ele>257.0</ele><time>2026-04-26T07:04:00.727Z</time></trkpt><trkpt lat="42.8608983" lon="2.8065483"><ele>257.0</ele><time>2026-04-26T07:04:01.728Z</time></trkpt><trkpt lat="42.8610117" lon="2.8065217"><ele>257.0</ele><time>2026-04-26T07:04:02.727Z</time></trkpt><trkpt lat="42.8611233" lon="2.8064933"><ele>257.0</ele><time>2026-04-26T07:04:03.728Z</time></trkpt><trkpt lat="42.8612183" lon="2.806475"><ele>257.0</ele><time>2026-04-26T07:04:04.728Z</time></trkpt><trkpt lat="42.8613033" lon="2.8064567"><ele>257.0</ele><time>2026-04-26T07:04:05.727Z</time></trkpt><trkpt lat="42.861375" lon="2.8064217"><ele>257.0</ele><time>2026-04-26T07:04:06.729Z</time></trkpt><trkpt lat="42.861435" lon="2.8063667"><ele>257.0</ele><time>2026-04-26T07:04:07.729Z</time></trkpt><trkpt lat="42.86149" lon="2.8063"><ele>257.0</ele><time>2026-04-26T07:04:08.728Z</time></trkpt><trkpt lat="42.861545" lon="2.8062433"><ele>257.0</ele><time>2026-04-26T07:04:09.727Z</time></trkpt><trkpt lat="42.861605" lon="2.8062067"><ele>257.0</ele><time>2026-04-26T07:04:10.729Z</time></trkpt><trkpt lat="42.8616717" lon="2.8061733"><ele>257.0</ele><time>2026-04-26T07:04:11.727Z</time></trkpt><trkpt lat="42.8617267" lon="2.8061283"><ele>257.0</ele><time>2026-04-26T07:04:12.727Z</time></trkpt><trkpt lat="42.8617817" lon="2.8060017"><ele>257.0</ele><time>2026-04-26T07:04:14.729Z</time></trkpt><trkpt lat="42.8617767" lon="2.805915"><ele>257.0</ele><time>2026-04-26T07:04:15.729Z</time></trkpt><trkpt lat="42.8617583" lon="2.80581"><ele>255.83333333333334</ele><time>2026-04-26T07:04:16.728Z</time></trkpt><trkpt lat="42.8617433" lon="2.80571"><ele>254.66666666666669</ele><time>2026-04-26T07:04:17.727Z</time></trkpt><trkpt lat="42.8617467" lon="2.8056217"><ele>253.5</ele><time>2026-04-26T07:04:18.732Z</time></trkpt><trkpt lat="42.861815" lon="2.8055233"><ele>252.33333333333331</ele><time>2026-04-26T07:04:20.73Z</time></trkpt><trkpt lat="42.8618783" lon="2.80552"><ele>251.16666666666666</ele><time>2026-04-26T07:04:21.73Z</time></trkpt><trkpt lat="42.8619733" lon="2.8055417"><ele>250.0</ele><time>2026-04-26T07:04:22.729Z</time></trkpt><trkpt lat="42.8620867" lon="2.8055717"><ele>249.0</ele><time>2026-04-26T07:04:23.731Z</time></trkpt><trkpt lat="42.8622017" lon="2.8056033"><ele>248.0</ele><time>2026-04-26T07:04:24.73Z</time></trkpt><trkpt lat="42.8623167" lon="2.8056383"><ele>247.0</ele><time>2026-04-26T07:04:25.729Z</time></trkpt><trkpt lat="42.8624283" lon="2.8056683"><ele>246.0</ele><time>2026-04-26T07:04:26.73Z</time></trkpt><trkpt lat="42.86254" lon="2.8056867"><ele>246.4</ele><time>2026-04-26T07:04:27.731Z</time></trkpt><trkpt lat="42.8626533" lon="2.8056933"><ele>246.8</ele><time>2026-04-26T07:04:28.729Z</time></trkpt><trkpt lat="42.8627667" lon="2.805705"><ele>247.20000000000002</ele><time>2026-04-26T07:04:29.729Z</time></trkpt><trkpt lat="42.8628767" lon="2.8057133"><ele>247.60000000000002</ele><time>2026-04-26T07:04:30.73Z</time></trkpt><trkpt lat="42.8629767" lon="2.8057133"><ele>248.0</ele><time>2026-04-26T07:04:31.731Z</time></trkpt><trkpt lat="42.8630717" lon="2.8057083"><ele>248.0</ele><time>2026-04-26T07:04:32.729Z</time></trkpt><trkpt lat="42.8631567" lon="2.80571"><ele>248.0</ele><time>2026-04-26T07:04:33.73Z</time></trkpt><trkpt lat="42.8632217" lon="2.8057267"><ele>248.0</ele><time>2026-04-26T07:04:34.731Z</time></trkpt><trkpt lat="42.8612183" lon="2.806475"><ele>249.2857142857143</ele><time>2026-04-26T07:04:04.728Z</time></trkpt><trkpt lat="42.8613033" lon="2.8064567"><ele>250.5714285714286</ele><time>2026-04-26T07:04:05.727Z</time></trkpt><trkpt lat="42.861375" lon="2.8064217"><ele>251.85714285714286</ele><time>2026-04-26T07:04:06.729Z</time></trkpt><trkpt lat="42.861435" lon="2.8063667"><ele>253.14285714285717</ele><time>2026-04-26T07:04:07.729Z</time></trkpt><trkpt lat="42.86149" lon="2.8063"><ele>254.42857142857144</ele><time>2026-04-26T07:04:08.728Z</time></trkpt><trkpt lat="42.861545" lon="2.8062433"><ele>255.71428571428572</ele><time>2026-04-26T07:04:09.727Z</time></trkpt><trkpt lat="42.861605" lon="2.8062067"><ele>257.0</ele><time>2026-04-26T07:04:10.729Z</time></trkpt><trkpt lat="42.8616717" lon="2.8061733"><ele>257.0</ele><time>2026-04-26T07:04:11.727Z</time></trkpt><trkpt lat="42.8617267" lon="2.8061283"><ele>257.0</ele><time>2026-04-26T07:04:12.727Z</time></trkpt><trkpt lat="42.8617817" lon="2.8060017"><ele>257.0</ele><time>2026-04-26T07:04:14.729Z</time></trkpt><trkpt lat="42.8617767" lon="2.805915"><ele>257.0</ele><time>2026-04-26T07:04:15.729Z</time></trkpt><trkpt lat="42.8617583" lon="2.80581"><ele>257.0</ele><time>2026-04-26T07:04:16.728Z</time></trkpt><trkpt lat="42.8617433" lon="2.80571"><ele>257.0</ele><time>2026-04-26T07:04:17.727Z</time></trkpt><trkpt lat="42.8617467" lon="2.8056217"><ele>254.8</ele><time>2026-04-26T07:04:18.732Z</time></trkpt><trkpt lat="42.861815" lon="2.8055233"><ele>252.6</ele><time>2026-04-26T07:04:20.73Z</time></trkpt><trkpt lat="42.8618783" lon="2.80552"><ele>250.40000000000003</ele><time>2026-04-26T07:04:21.73Z</time></trkpt><trkpt lat="42.8619733" lon="2.8055417"><ele>248.20000000000002</ele><time>2026-04-26T07:04:22.729Z</time></trkpt><trkpt lat="42.8620867" lon="2.8055717"><ele>246.0</ele><time>2026-04-26T07:04:23.731Z</time></trkpt><trkpt lat="42.8622017" lon="2.8056033"><ele>246.0</ele><time>2026-04-26T07:04:24.73Z</time></trkpt><trkpt lat="42.8623167" lon="2.8056383"><ele>246.0</ele><time>2026-04-26T07:04:25.729Z</time></trkpt><trkpt lat="42.8624283" lon="2.8056683"><ele>246.0</ele><time>2026-04-26T07:04:26.73Z</time></trkpt><trkpt lat="42.86254" lon="2.8056867"><ele>246.0</ele><time>2026-04-26T07:04:27.731Z</time></trkpt><trkpt lat="42.8626533" lon="2.8056933"><ele>246.4</ele><time>2026-04-26T07:04:28.729Z</time></trkpt><trkpt lat="42.8627667" lon="2.805705"><ele>246.8</ele><time>2026-04-26T07:04:29.729Z</time></trkpt><trkpt lat="42.8628767" lon="2.8057133"><ele>247.20000000000002</ele><time>2026-04-26T07:04:30.73Z</time></trkpt><trkpt lat="42.8629767" lon="2.8057133"><ele>247.60000000000002</ele><time>2026-04-26T07:04:31.731Z</time></trkpt><trkpt lat="42.8630717" lon="2.8057083"><ele>248.0</ele><time>2026-04-26T07:04:32.729Z</time></trkpt><trkpt lat="42.8631567" lon="2.80571"><ele>248.00000000000003</ele><time>2026-04-26T07:04:33.73Z</time></trkpt><trkpt lat="42.8632217" lon="2.8057267"><ele>248.0</ele><time>2026-04-26T07:04:34.731Z</time></trkpt><trkpt lat="42.8632967" lon="2.8058067"><ele>248.0</ele><time>2026-04-26T07:04:36.731Z</time></trkpt><trkpt lat="42.8632883" lon="2.805925"><ele>248.0</ele><time>2026-04-26T07:04:38.732Z</time></trkpt><trkpt lat="42.8632" lon="2.806035"><ele>248.00000000000003</ele><time>2026-04-26T07:04:40.73Z</time></trkpt><trkpt lat="42.8631383" lon="2.806085"><ele>248.0</ele><time>2026-04-26T07:04:41.732Z</time></trkpt><trkpt lat="42.86307" lon="2.8061333"><ele>249.00000000000003</ele><time>2026-04-26T07:04:42.729Z</time></trkpt><trkpt lat="42.8630033" lon="2.8061933"><ele>250.0</ele><time>2026-04-26T07:04:43.729Z</time></trkpt><trkpt lat="42.862945" lon="2.8062583"><ele>251.0</ele><time>2026-04-26T07:04:44.731Z</time></trkpt><trkpt lat="42.8629" lon="2.8063417"><ele>252.0</ele><time>2026-04-26T07:04:45.73Z</time></trkpt><trkpt lat="42.8628667" lon="2.806435"><ele>253.00000000000003</ele><time>2026-04-26T07:04:46.728Z</time></trkpt><trkpt lat="42.862855" lon="2.80654"><ele>254.0</ele><time>2026-04-26T07:04:47.732Z</time></trkpt><trkpt lat="42.8628517" lon="2.8066583"><ele>254.0</ele><time>2026-04-26T07:04:48.729Z</time></trkpt><trkpt lat="42.8628633" lon="2.8067983"><ele>253.99999999999997</ele><time>2026-04-26T07:04:49.73Z</time></trkpt><trkpt lat="42.8628767" lon="2.806945"><ele>253.99999999999997</ele><time>2026-04-26T07:04:50.73Z</time></trkpt><trkpt lat="42.86289" lon="2.807095"><ele>254.0</ele><time>2026-04-26T07:04:51.729Z</time></trkpt><trkpt lat="42.862905" lon="2.8072483"><ele>254.0</ele><time>2026-04-26T07:04:52.731Z</time></trkpt><trkpt lat="42.862925" lon="2.8074"><ele>254.2</ele><time>2026-04-26T07:04:53.73Z</time></trkpt><trkpt lat="42.8629517" lon="2.8075367"><ele>254.39999999999998</ele><time>2026-04-26T07:04:54.731Z</time></trkpt><trkpt lat="42.8629817" lon="2.8076567"><ele>254.6</ele><time>2026-04-26T07:04:55.729Z</time></trkpt><trkpt lat="42.8630233" lon="2.80776"><ele>254.8</ele><time>2026-04-26T07:04:56.729Z</time></trkpt><trkpt lat="42.86308" lon="2.8078567"><ele>255.0</ele><time>2026-04-26T07:04:57.734Z</time></trkpt><trkpt lat="42.86314" lon="2.8079633"><ele>253.4</ele><time>2026-04-26T07:04:58.729Z</time></trkpt><trkpt lat="42.863195" lon="2.80808"><ele>251.8</ele><time>2026-04-26T07:04:59.728Z</time></trkpt><trkpt lat="42.8632467" lon="2.8081933"><ele>250.2</ele><time>2026-04-26T07:05:00.727Z</time></trkpt><trkpt lat="42.8633067" lon="2.8082967"><ele>248.6</ele><time>2026-04-26T07:05:01.729Z</time></trkpt><trkpt lat="42.8633717" lon="2.8083833"><ele>247.0</ele><time>2026-04-26T07:05:02.729Z</time></trkpt><trkpt lat="42.8634317" lon="2.8084517"><ele>247.83333333333331</ele><time>2026-04-26T07:05:03.73Z</time></trkpt><trkpt lat="42.8634933" lon="2.8085117"><ele>248.66666666666666</ele><time>2026-04-26T07:05:04.728Z</time></trkpt><trkpt lat="42.86354" lon="2.8085783"><ele>249.5</ele><time>2026-04-26T07:05:05.732Z</time></trkpt><trkpt lat="42.8635717" lon="2.808655"><ele>250.33333333333331</ele><time>2026-04-26T07:05:06.73Z</time></trkpt><trkpt lat="42.8635867" lon="2.80876"><ele>251.16666666666666</ele><time>2026-04-26T07:05:07.728Z</time></trkpt><trkpt lat="42.8635867" lon="2.808885"><ele>252.0</ele><time>2026-04-26T07:05:08.729Z</time></trkpt><trkpt lat="42.8635883" lon="2.8090183"><ele>252.0</ele><time>2026-04-26T07:05:09.728Z</time></trkpt><trkpt lat="42.8635933" lon="2.80916"><ele>252.0</ele><time>2026-04-26T07:05:10.731Z</time></trkpt><trkpt lat="42.8636033" lon="2.8093033"><ele>252.0</ele><time>2026-04-26T07:05:11.729Z</time></trkpt><trkpt lat="42.8636317" lon="2.809435"><ele>252.0</ele><time>2026-04-26T07:05:12.728Z</time></trkpt><trkpt lat="42.8636717" lon="2.8095417"><ele>252.0</ele><time>2026-04-26T07:05:13.729Z</time></trkpt><trkpt lat="42.8637233" lon="2.8096217"><ele>250.39999999999998</ele><time>2026-04-26T07:05:14.728Z</time></trkpt><trkpt lat="42.8637933" lon="2.809685"><ele>248.79999999999998</ele><time>2026-04-26T07:05:15.733Z</time></trkpt><trkpt lat="42.8638783" lon="2.8097467"><ele>247.2</ele><time>2026-04-26T07:05:16.731Z</time></trkpt><trkpt lat="42.8639683" lon="2.8098117"><ele>245.6</ele><time>2026-04-26T07:05:17.728Z</time></trkpt><trkpt lat="42.8640617" lon="2.8098883"><ele>244.0</ele><time>2026-04-26T07:05:18.73Z</time></trkpt><trkpt lat="42.8641517" lon="2.80998"><ele>244.0</ele><time>2026-04-26T07:05:19.728Z</time></trkpt><trkpt lat="42.8642333" lon="2.8100767"><ele>243.99999999999997</ele><time>2026-04-26T07:05:20.729Z</time></trkpt><trkpt lat="42.864305" lon="2.81018"><ele>243.99999999999997</ele><time>2026-04-26T07:05:21.73Z</time></trkpt><trkpt lat="42.864365" lon="2.810285"><ele>244.0</ele><time>2026-04-26T07:05:22.728Z</time></trkpt><trkpt lat="42.8644133" lon="2.810395"><ele>244.0</ele><time>2026-04-26T07:05:23.73Z</time></trkpt><trkpt lat="42.8644533" lon="2.8105133"><ele>243.79999999999998</ele><time>2026-04-26T07:05:24.73Z</time></trkpt><trkpt lat="42.8644917" lon="2.8106417"><ele>243.59999999999997</ele><time>2026-04-26T07:05:25.727Z</time></trkpt><trkpt lat="42.8645367" lon="2.81077"><ele>243.4</ele><time>2026-04-26T07:05:26.728Z</time></trkpt><trkpt lat="42.8645917" lon="2.8108933"><ele>243.2</ele><time>2026-04-26T07:05:27.727Z</time></trkpt><trkpt lat="42.8646633" lon="2.81101"><ele>243.0</ele><time>2026-04-26T07:05:28.728Z</time></trkpt><trkpt lat="42.86474" lon="2.8111267"><ele>241.8</ele><time>2026-04-26T07:05:29.737Z</time></trkpt><trkpt lat="42.8648117" lon="2.81124"><ele>240.60000000000002</ele><time>2026-04-26T07:05:30.729Z</time></trkpt><trkpt lat="42.86488" lon="2.811345"><ele>239.39999999999998</ele><time>2026-04-26T07:05:31.727Z</time></trkpt><trkpt lat="42.8649533" lon="2.8114433"><ele>238.2</ele><time>2026-04-26T07:05:32.731Z</time></trkpt><trkpt lat="42.865025" lon="2.8115383"><ele>237.0</ele><time>2026-04-26T07:05:33.73Z</time></trkpt><trkpt lat="42.8651" lon="2.8116367"><ele>237.2</ele><time>2026-04-26T07:05:34.729Z</time></trkpt><trkpt lat="42.8651767" lon="2.8117433"><ele>237.39999999999998</ele><time>2026-04-26T07:05:35.728Z</time></trkpt><trkpt lat="42.8652583" lon="2.81185"><ele>237.60000000000002</ele><time>2026-04-26T07:05:36.728Z</time></trkpt><trkpt lat="42.8653367" lon="2.8119517"><ele>237.8</ele><time>2026-04-26T07:05:37.728Z</time></trkpt><trkpt lat="42.8654067" lon="2.8120467"><ele>238.0</ele><time>2026-04-26T07:05:38.729Z</time></trkpt><trkpt lat="42.8654767" lon="2.8121383"><ele>237.2</ele><time>2026-04-26T07:05:39.729Z</time></trkpt><trkpt lat="42.8655433" lon="2.8122267"><ele>236.4</ele><time>2026-04-26T07:05:40.727Z</time></trkpt><trkpt lat="42.8656017" lon="2.812305"><ele>235.59999999999997</ele><time>2026-04-26T07:05:41.727Z</time></trkpt><trkpt lat="42.865655" lon="2.8123717"><ele>234.79999999999998</ele><time>2026-04-26T07:05:42.729Z</time></trkpt><trkpt lat="42.8657467" lon="2.8124367"><ele>234.0</ele><time>2026-04-26T07:05:44.728Z</time></trkpt><trkpt lat="42.865855" lon="2.8124383"><ele>234.0</ele><time>2026-04-26T07:05:46.728Z</time></trkpt><trkpt lat="42.8659233" lon="2.8124267"><ele>234.0</ele><time>2026-04-26T07:05:47.729Z</time></trkpt><trkpt lat="42.865995" lon="2.81242"><ele>234.0</ele><time>2026-04-26T07:05:48.731Z</time></trkpt><trkpt lat="42.8660667" lon="2.8124383"><ele>234.0</ele><time>2026-04-26T07:05:49.73Z</time></trkpt><trkpt lat="42.8661417" lon="2.81249"><ele>234.0</ele><time>2026-04-26T07:05:50.73Z</time></trkpt><trkpt lat="42.8662183" lon="2.8125533"><ele>234.0</ele><time>2026-04-26T07:05:51.73Z</time></trkpt><trkpt lat="42.8662917" lon="2.8126033"><ele>233.42857142857144</ele><time>2026-04-26T07:05:52.73Z</time></trkpt><trkpt lat="42.866365" lon="2.8126333"><ele>232.8571428571429</ele><time>2026-04-26T07:05:53.731Z</time></trkpt><trkpt lat="42.8664383" lon="2.8126567"><ele>232.28571428571428</ele><time>2026-04-26T07:05:54.727Z</time></trkpt><trkpt lat="42.8664967" lon="2.812695"><ele>231.71428571428572</ele><time>2026-04-26T07:05:55.729Z</time></trkpt><trkpt lat="42.8665467" lon="2.8127517"><ele>231.14285714285714</ele><time>2026-04-26T07:05:56.729Z</time></trkpt><trkpt lat="42.8665917" lon="2.8128233"><ele>230.57142857142856</ele><time>2026-04-26T07:05:57.729Z</time></trkpt><trkpt lat="42.8666217" lon="2.8129017"><ele>229.99999999999997</ele><time>2026-04-26T07:05:58.728Z</time></trkpt><trkpt lat="42.8666467" lon="2.81299"><ele>229.28571428571425</ele><time>2026-04-26T07:05:59.727Z</time></trkpt><trkpt lat="42.866665" lon="2.8130783"><ele>228.57142857142856</ele><time>2026-04-26T07:06:00.73Z</time></trkpt><trkpt lat="42.8666783" lon="2.8131783"><ele>227.85714285714286</ele><time>2026-04-26T07:06:01.729Z</time></trkpt><trkpt lat="42.8666967" lon="2.8132817"><ele>227.14285714285714</ele><time>2026-04-26T07:06:02.73Z</time></trkpt><trkpt lat="42.8667183" lon="2.813375"><ele>226.42857142857144</ele><time>2026-04-26T07:06:03.729Z</time></trkpt><trkpt lat="42.8667433" lon="2.8134667"><ele>225.71428571428575</ele><time>2026-04-26T07:06:04.731Z</time></trkpt><trkpt lat="42.8667667" lon="2.8135667"><ele>225.00000000000003</ele><time>2026-04-26T07:06:05.732Z</time></trkpt><trkpt lat="42.866785" lon="2.8136683"><ele>223.2</ele><time>2026-04-26T07:06:06.73Z</time></trkpt><trkpt lat="42.8668033" lon="2.8137667"><ele>221.4</ele><time>2026-04-26T07:06:07.729Z</time></trkpt><trkpt lat="42.8668167" lon="2.81386"><ele>219.60000000000002</ele><time>2026-04-26T07:06:08.732Z</time></trkpt><trkpt lat="42.8668517" lon="2.8140133"><ele>217.8</ele><time>2026-04-26T07:06:10.729Z</time></trkpt><trkpt lat="42.866915" lon="2.814145"><ele>216.0</ele><time>2026-04-26T07:06:12.729Z</time></trkpt><trkpt lat="42.8670183" lon="2.8142433"><ele>216.0</ele><time>2026-04-26T07:06:14.73Z</time></trkpt><trkpt lat="42.8670817" lon="2.8143067"><ele>216.0</ele><time>2026-04-26T07:06:15.73Z</time></trkpt><trkpt lat="42.8671467" lon="2.8143933"><ele>216.0</ele><time>2026-04-26T07:06:16.729Z</time></trkpt><trkpt lat="42.8671967" lon="2.81449"><ele>216.0</ele><time>2026-04-26T07:06:17.73Z</time></trkpt><trkpt lat="42.8672317" lon="2.8145983"><ele>216.0</ele><time>2026-04-26T07:06:18.729Z</time></trkpt><trkpt lat="42.867255" lon="2.8147183"><ele>216.0</ele><time>2026-04-26T07:06:19.728Z</time></trkpt><trkpt lat="42.8672783" lon="2.8148333"><ele>215.20000000000002</ele><time>2026-04-26T07:06:20.729Z</time></trkpt><trkpt lat="42.8673117" lon="2.81495"><ele>214.40000000000003</ele><time>2026-04-26T07:06:21.728Z</time></trkpt><trkpt lat="42.8673567" lon="2.815075"><ele>213.6</ele><time>2026-04-26T07:06:22.729Z</time></trkpt><trkpt lat="42.867405" lon="2.81521"><ele>212.8</ele><time>2026-04-26T07:06:23.729Z</time></trkpt><trkpt lat="42.8674567" lon="2.8153417"><ele>212.0</ele><time>2026-04-26T07:06:24.728Z</time></trkpt><trkpt lat="42.8675133" lon="2.815475"><ele>211.39999999999998</ele><time>2026-04-26T07:06:25.729Z</time></trkpt><trkpt lat="42.86757" lon="2.8156083"><ele>210.79999999999998</ele><time>2026-04-26T07:06:26.728Z</time></trkpt><trkpt lat="42.867625" lon="2.8157333"><ele>210.2</ele><time>2026-04-26T07:06:27.728Z</time></trkpt><trkpt lat="42.8676717" lon="2.8158483"><ele>209.6</ele><time>2026-04-26T07:06:28.728Z</time></trkpt><trkpt lat="42.8677083" lon="2.8159517"><ele>209.0</ele><time>2026-04-26T07:06:29.728Z</time></trkpt><trkpt lat="42.867735" lon="2.8160483"><ele>208.66666666666669</ele><time>2026-04-26T07:06:30.727Z</time></trkpt><trkpt lat="42.8677517" lon="2.8161383"><ele>208.33333333333334</ele><time>2026-04-26T07:06:31.729Z</time></trkpt><trkpt lat="42.8677283" lon="2.8162733"><ele>208.0</ele><time>2026-04-26T07:06:33.728Z</time></trkpt><trkpt lat="42.86768" lon="2.81633"><ele>207.66666666666669</ele><time>2026-04-26T07:06:34.728Z</time></trkpt><trkpt lat="42.8676033" lon="2.81639"><ele>207.33333333333334</ele><time>2026-04-26T07:06:35.728Z</time></trkpt><trkpt lat="42.8675083" lon="2.8164717"><ele>207.0</ele><time>2026-04-26T07:06:36.728Z</time></trkpt><trkpt lat="42.8674083" lon="2.8165717"><ele>206.75</ele><time>2026-04-26T07:06:37.728Z</time></trkpt><trkpt lat="42.8673067" lon="2.81668"><ele>206.5</ele><time>2026-04-26T07:06:38.728Z</time></trkpt><trkpt lat="42.86721" lon="2.8167833"><ele>206.25</ele><time>2026-04-26T07:06:39.728Z</time></trkpt><trkpt lat="42.867115" lon="2.8168733"><ele>206.0</ele><time>2026-04-26T07:06:40.728Z</time></trkpt><trkpt lat="42.8670167" lon="2.816955"><ele>206.20000000000002</ele><time>2026-04-26T07:06:41.729Z</time></trkpt><trkpt lat="42.86692" lon="2.8170333"><ele>206.4</ele><time>2026-04-26T07:06:42.728Z</time></trkpt><trkpt lat="42.86683" lon="2.8171283"><ele>206.6</ele><time>2026-04-26T07:06:43.73Z</time></trkpt><trkpt lat="42.866755" lon="2.8172267"><ele>206.8</ele><time>2026-04-26T07:06:44.729Z</time></trkpt><trkpt lat="42.8666933" lon="2.8173167"><ele>207.0</ele><time>2026-04-26T07:06:45.729Z</time></trkpt><trkpt lat="42.8666417" lon="2.8173867"><ele>207.0</ele><time>2026-04-26T07:06:46.728Z</time></trkpt><trkpt lat="42.86658" lon="2.8174783"><ele>207.0</ele><time>2026-04-26T07:06:48.729Z</time></trkpt><trkpt lat="42.8665883" lon="2.81758"><ele>207.0</ele><time>2026-04-26T07:06:50.73Z</time></trkpt><trkpt lat="42.86663" lon="2.817645"><ele>207.0</ele><time>2026-04-26T07:06:51.728Z</time></trkpt><trkpt lat="42.8666883" lon="2.817725"><ele>207.0</ele><time>2026-04-26T07:06:52.729Z</time></trkpt><trkpt lat="42.866755" lon="2.8178183"><ele>207.0</ele><time>2026-04-26T07:06:53.728Z</time></trkpt><trkpt lat="42.8668267" lon="2.8179217"><ele>206.8</ele><time>2026-04-26T07:06:54.727Z</time></trkpt><trkpt lat="42.8669017" lon="2.8180233"><ele>206.6</ele><time>2026-04-26T07:06:55.728Z</time></trkpt><trkpt lat="42.866985" lon="2.8181133"><ele>206.4</ele><time>2026-04-26T07:06:56.729Z</time></trkpt><trkpt lat="42.86707" lon="2.8181883"><ele>206.20000000000002</ele><time>2026-04-26T07:06:57.728Z</time></trkpt><trkpt lat="42.8671467" lon="2.818265"><ele>206.0</ele><time>2026-04-26T07:06:58.73Z</time></trkpt><trkpt lat="42.867215" lon="2.8183517"><ele>206.0</ele><time>2026-04-26T07:06:59.728Z</time></trkpt><trkpt lat="42.86727" lon="2.81846"><ele>206.0</ele><time>2026-04-26T07:07:00.729Z</time></trkpt><trkpt lat="42.86731" lon="2.81859"><ele>206.0</ele><time>2026-04-26T07:07:01.728Z</time></trkpt><trkpt lat="42.8673467" lon="2.8187317"><ele>206.0</ele><time>2026-04-26T07:07:02.728Z</time></trkpt><trkpt lat="42.8673817" lon="2.8188883"><ele>206.0</ele><time>2026-04-26T07:07:03.728Z</time></trkpt><trkpt lat="42.86742" lon="2.8190517"><ele>207.25</ele><time>2026-04-26T07:07:04.728Z</time></trkpt><trkpt lat="42.86746" lon="2.8192233"><ele>208.5</ele><time>2026-04-26T07:07:05.729Z</time></trkpt><trkpt lat="42.8675033" lon="2.819395"><ele>209.75</ele><time>2026-04-26T07:07:06.729Z</time></trkpt><trkpt lat="42.8675483" lon="2.8195617"><ele>211.0</ele><time>2026-04-26T07:07:07.729Z</time></trkpt><trkpt lat="42.867595" lon="2.8197283"><ele>212.0</ele><time>2026-04-26T07:07:08.731Z</time></trkpt><trkpt lat="42.867655" lon="2.8198967"><ele>213.0</ele><time>2026-04-26T07:07:09.73Z</time></trkpt><trkpt lat="42.867715" lon="2.82007"><ele>214.0</ele><time>2026-04-26T07:07:10.728Z</time></trkpt><trkpt lat="42.867775" lon="2.8202517"><ele>215.0</ele><time>2026-04-26T07:07:11.731Z</time></trkpt><trkpt lat="42.8678267" lon="2.8204317"><ele>215.75</ele><time>2026-04-26T07:07:12.729Z</time></trkpt><trkpt lat="42.86787" lon="2.8205983"><ele>216.5</ele><time>2026-04-26T07:07:13.729Z</time></trkpt><trkpt lat="42.8679" lon="2.82076"><ele>217.25</ele><time>2026-04-26T07:07:14.729Z</time></trkpt><trkpt lat="42.8679067" lon="2.8209217"><ele>218.0</ele><time>2026-04-26T07:07:15.727Z</time></trkpt><trkpt lat="42.867905" lon="2.821085"><ele>218.4</ele><time>2026-04-26T07:07:16.731Z</time></trkpt><trkpt lat="42.867905" lon="2.8212433"><ele>218.8</ele><time>2026-04-26T07:07:17.728Z</time></trkpt><trkpt lat="42.8679117" lon="2.8213917"><ele>219.2</ele><time>2026-04-26T07:07:18.728Z</time></trkpt><trkpt lat="42.8679267" lon="2.8215317"><ele>219.6</ele><time>2026-04-26T07:07:19.732Z</time></trkpt><trkpt lat="42.8679483" lon="2.8216817"><ele>220.0</ele><time>2026-04-26T07:07:20.729Z</time></trkpt><trkpt lat="42.86797" lon="2.821845"><ele>221.5</ele><time>2026-04-26T07:07:21.729Z</time></trkpt><trkpt lat="42.8679967" lon="2.8220167"><ele>223.0</ele><time>2026-04-26T07:07:22.73Z</time></trkpt><trkpt lat="42.86803" lon="2.8221917"><ele>224.5</ele><time>2026-04-26T07:07:23.728Z</time></trkpt><trkpt lat="42.8680667" lon="2.8223583"><ele>226.0</ele><time>2026-04-26T07:07:24.728Z</time></trkpt><trkpt lat="42.8681033" lon="2.8225117"><ele>226.33333333333331</ele><time>2026-04-26T07:07:25.729Z</time></trkpt><trkpt lat="42.868135" lon="2.8226517"><ele>226.66666666666666</ele><time>2026-04-26T07:07:26.73Z</time></trkpt><trkpt lat="42.8681667" lon="2.8227767"><ele>227.0</ele><time>2026-04-26T07:07:27.728Z</time></trkpt><trkpt lat="42.8682067" lon="2.822875"><ele>227.33333333333331</ele><time>2026-04-26T07:07:28.729Z</time></trkpt><trkpt lat="42.86825" lon="2.822945"><ele>227.66666666666666</ele><time>2026-04-26T07:07:29.728Z</time></trkpt><trkpt lat="42.8683067" lon="2.8229867"><ele>228.0</ele><time>2026-04-26T07:07:30.728Z</time></trkpt><trkpt lat="42.8683833" lon="2.82301"><ele>228.57142857142856</ele><time>2026-04-26T07:07:31.73Z</time></trkpt><trkpt lat="42.8684683" lon="2.8230017"><ele>229.1428571428571</ele><time>2026-04-26T07:07:32.731Z</time></trkpt><trkpt lat="42.8685467" lon="2.8229817"><ele>229.71428571428572</ele><time>2026-04-26T07:07:33.728Z</time></trkpt><trkpt lat="42.868615" lon="2.8229767"><ele>230.28571428571428</ele><time>2026-04-26T07:07:34.729Z</time></trkpt><trkpt lat="42.86868" lon="2.8229933"><ele>230.85714285714286</ele><time>2026-04-26T07:07:35.728Z</time></trkpt><trkpt lat="42.86874" lon="2.8230367"><ele>231.42857142857144</ele><time>2026-04-26T07:07:36.729Z</time></trkpt><trkpt lat="42.8687833" lon="2.823105"><ele>232.00000000000003</ele><time>2026-04-26T07:07:37.73Z</time></trkpt><trkpt lat="42.8688333" lon="2.8231833"><ele>231.99999999999997</ele><time>2026-04-26T07:07:38.729Z</time></trkpt><trkpt lat="42.8688883" lon="2.82326"><ele>232.0</ele><time>2026-04-26T07:07:39.728Z</time></trkpt><trkpt lat="42.8689583" lon="2.8233233"><ele>232.0</ele><time>2026-04-26T07:07:40.728Z</time></trkpt><trkpt lat="42.869035" lon="2.82338"><ele>232.0</ele><time>2026-04-26T07:07:41.728Z</time></trkpt><trkpt lat="42.8691117" lon="2.8234433"><ele>231.99999999999997</ele><time>2026-04-26T07:07:42.728Z</time></trkpt><trkpt lat="42.8691883" lon="2.8235133"><ele>232.0</ele><time>2026-04-26T07:07:43.728Z</time></trkpt><trkpt lat="42.8692633" lon="2.823585"><ele>231.6</ele><time>2026-04-26T07:07:44.73Z</time></trkpt><trkpt lat="42.8693333" lon="2.82366"><ele>231.2</ele><time>2026-04-26T07:07:45.73Z</time></trkpt><trkpt lat="42.8694083" lon="2.8237267"><ele>230.8</ele><time>2026-04-26T07:07:46.728Z</time></trkpt><trkpt lat="42.8694933" lon="2.823775"><ele>230.4</ele><time>2026-04-26T07:07:47.73Z</time></trkpt><trkpt lat="42.8695867" lon="2.8238083"><ele>230.0</ele><time>2026-04-26T07:07:48.728Z</time></trkpt><trkpt lat="42.8696817" lon="2.82383"><ele>230.00000000000003</ele><time>2026-04-26T07:07:49.729Z</time></trkpt><trkpt lat="42.8697767" lon="2.8238483"><ele>230.0</ele><time>2026-04-26T07:07:50.731Z</time></trkpt><trkpt lat="42.8698633" lon="2.8238567"><ele>230.0</ele><time>2026-04-26T07:07:51.729Z</time></trkpt><trkpt lat="42.8699417" lon="2.823855"><ele>230.0</ele><time>2026-04-26T07:07:52.727Z</time></trkpt><trkpt lat="42.87002" lon="2.8238317"><ele>230.00000000000003</ele><time>2026-04-26T07:07:53.727Z</time></trkpt><trkpt lat="42.8700883" lon="2.8237867"><ele>230.0</ele><time>2026-04-26T07:07:54.728Z</time></trkpt><trkpt lat="42.8701467" lon="2.8237067"><ele>230.50000000000003</ele><time>2026-04-26T07:07:55.728Z</time></trkpt><trkpt lat="42.8702083" lon="2.8236083"><ele>231.0</ele><time>2026-04-26T07:07:56.729Z</time></trkpt><trkpt lat="42.8702733" lon="2.8235317"><ele>231.5</ele><time>2026-04-26T07:07:57.729Z</time></trkpt><trkpt lat="42.8703383" lon="2.8234733"><ele>232.0</ele><time>2026-04-26T07:07:58.729Z</time></trkpt><trkpt lat="42.8704117" lon="2.8234317"><ele>232.50000000000003</ele><time>2026-04-26T07:07:59.729Z</time></trkpt><trkpt lat="42.87049" lon="2.82342"><ele>233.0</ele><time>2026-04-26T07:08:00.729Z</time></trkpt><trkpt lat="42.87056" lon="2.823455"><ele>233.00000000000003</ele><time>2026-04-26T07:08:01.729Z</time></trkpt><trkpt lat="42.8706117" lon="2.823515"><ele>233.0</ele><time>2026-04-26T07:08:02.731Z</time></trkpt><trkpt lat="42.8706467" lon="2.8235967"><ele>233.0</ele><time>2026-04-26T07:08:03.73Z</time></trkpt><trkpt lat="42.8706667" lon="2.8236983"><ele>233.0</ele><time>2026-04-26T07:08:04.729Z</time></trkpt><trkpt lat="42.8706817" lon="2.8238283"><ele>233.00000000000003</ele><time>2026-04-26T07:08:05.729Z</time></trkpt><trkpt lat="42.8706883" lon="2.82396"><ele>233.0</ele><time>2026-04-26T07:08:06.727Z</time></trkpt><trkpt lat="42.8707033" lon="2.8240833"><ele>233.0</ele><time>2026-04-26T07:08:07.729Z</time></trkpt><trkpt lat="42.8707367" lon="2.8241983"><ele>233.0</ele><time>2026-04-26T07:08:08.728Z</time></trkpt><trkpt lat="42.870785" lon="2.8243083"><ele>233.0</ele><time>2026-04-26T07:08:09.729Z</time></trkpt><trkpt lat="42.8708483" lon="2.8244017"><ele>233.0</ele><time>2026-04-26T07:08:10.728Z</time></trkpt><trkpt lat="42.870925" lon="2.82449"><ele>233.0</ele><time>2026-04-26T07:08:11.729Z</time></trkpt><trkpt lat="42.871005" lon="2.8245667"><ele>234.2</ele><time>2026-04-26T07:08:12.727Z</time></trkpt><trkpt lat="42.871095" lon="2.824625"><ele>235.4</ele><time>2026-04-26T07:08:13.728Z</time></trkpt><trkpt lat="42.8712" lon="2.82466"><ele>236.59999999999997</ele><time>2026-04-26T07:08:14.728Z</time></trkpt><trkpt lat="42.8713117" lon="2.8246817"><ele>237.79999999999998</ele><time>2026-04-26T07:08:15.733Z</time></trkpt><trkpt lat="42.8714233" lon="2.8247"><ele>239.0</ele><time>2026-04-26T07:08:16.727Z</time></trkpt><trkpt lat="42.8715333" lon="2.824725"><ele>239.0</ele><time>2026-04-26T07:08:17.729Z</time></trkpt><trkpt lat="42.8716383" lon="2.8247633"><ele>238.99999999999997</ele><time>2026-04-26T07:08:18.729Z</time></trkpt><trkpt lat="42.871735" lon="2.8248017"><ele>238.99999999999997</ele><time>2026-04-26T07:08:19.728Z</time></trkpt><trkpt lat="42.8718317" lon="2.824825"><ele>239.0</ele><time>2026-04-26T07:08:20.731Z</time></trkpt><trkpt lat="42.87194" lon="2.82483"><ele>239.0</ele><time>2026-04-26T07:08:21.73Z</time></trkpt><trkpt lat="42.87205" lon="2.8248183"><ele>239.75</ele><time>2026-04-26T07:08:22.729Z</time></trkpt><trkpt lat="42.8721617" lon="2.82479"><ele>240.5</ele><time>2026-04-26T07:08:23.728Z</time></trkpt><trkpt lat="42.8722733" lon="2.8247483"><ele>241.25</ele><time>2026-04-26T07:08:24.729Z</time></trkpt><trkpt lat="42.8723867" lon="2.8246867"><ele>242.0</ele><time>2026-04-26T07:08:25.729Z</time></trkpt><trkpt lat="42.8724967" lon="2.8246167"><ele>242.0</ele><time>2026-04-26T07:08:26.729Z</time></trkpt><trkpt lat="42.8726017" lon="2.8245533"><ele>242.0</ele><time>2026-04-26T07:08:27.73Z</time></trkpt><trkpt lat="42.8727017" lon="2.8244983"><ele>242.0</ele><time>2026-04-26T07:08:28.729Z</time></trkpt><trkpt lat="42.872805" lon="2.8244517"><ele>242.0</ele><time>2026-04-26T07:08:29.73Z</time></trkpt><trkpt lat="42.8729083" lon="2.8244133"><ele>242.0</ele><time>2026-04-26T07:08:30.729Z</time></trkpt><trkpt lat="42.8730167" lon="2.824385"><ele>242.75</ele><time>2026-04-26T07:08:31.729Z</time></trkpt><trkpt lat="42.8731317" lon="2.8243683"><ele>243.5</ele><time>2026-04-26T07:08:32.731Z</time></trkpt><trkpt lat="42.8732483" lon="2.8243733"><ele>244.25</ele><time>2026-04-26T07:08:33.733Z</time></trkpt><trkpt lat="42.8733733" lon="2.8243917"><ele>245.0</ele><time>2026-04-26T07:08:34.73Z</time></trkpt><trkpt lat="42.8734967" lon="2.8244067"><ele>245.5</ele><time>2026-04-26T07:08:35.73Z</time></trkpt><trkpt lat="42.8736217" lon="2.8244133"><ele>246.0</ele><time>2026-04-26T07:08:36.728Z</time></trkpt><trkpt lat="42.8737383" lon="2.8244167"><ele>246.5</ele><time>2026-04-26T07:08:37.729Z</time></trkpt><trkpt lat="42.8738533" lon="2.824415"><ele>247.0</ele><time>2026-04-26T07:08:38.729Z</time></trkpt><trkpt lat="42.8739617" lon="2.8244017"><ele>247.0</ele><time>2026-04-26T07:08:39.728Z</time></trkpt><trkpt lat="42.8740667" lon="2.8243783"><ele>247.0</ele><time>2026-04-26T07:08:40.728Z</time></trkpt><trkpt lat="42.8741733" lon="2.82434"><ele>247.0</ele><time>2026-04-26T07:08:41.734Z</time></trkpt><trkpt lat="42.8742783" lon="2.8242883"><ele>247.0</ele><time>2026-04-26T07:08:42.729Z</time></trkpt><trkpt lat="42.8743783" lon="2.82424"><ele>247.0</ele><time>2026-04-26T07:08:43.73Z</time></trkpt><trkpt lat="42.8744717" lon="2.8242033"><ele>246.2</ele><time>2026-04-26T07:08:44.73Z</time></trkpt><trkpt lat="42.8745583" lon="2.8241817"><ele>245.39999999999998</ele><time>2026-04-26T07:08:45.727Z</time></trkpt><trkpt lat="42.87465" lon="2.8241683"><ele>244.60000000000002</ele><time>2026-04-26T07:08:46.729Z</time></trkpt><trkpt lat="42.8747517" lon="2.8241683"><ele>243.8</ele><time>2026-04-26T07:08:47.728Z</time></trkpt><trkpt lat="42.8748583" lon="2.824175"><ele>243.0</ele><time>2026-04-26T07:08:48.728Z</time></trkpt><trkpt lat="42.87497" lon="2.8241833"><ele>243.0</ele><time>2026-04-26T07:08:49.732Z</time></trkpt><trkpt lat="42.8750867" lon="2.824185"><ele>243.0</ele><time>2026-04-26T07:08:50.73Z</time></trkpt><trkpt lat="42.8752117" lon="2.8241767"><ele>243.0</ele><time>2026-04-26T07:08:51.729Z</time></trkpt><trkpt lat="42.8753333" lon="2.8241567"><ele>243.0</ele><time>2026-04-26T07:08:52.73Z</time></trkpt><trkpt lat="42.8754467" lon="2.824135"><ele>242.2</ele><time>2026-04-26T07:08:53.728Z</time></trkpt><trkpt lat="42.8755467" lon="2.8241167"><ele>241.4</ele><time>2026-04-26T07:08:54.728Z</time></trkpt><trkpt lat="42.8756333" lon="2.8241017"><ele>240.59999999999997</ele><time>2026-04-26T07:08:55.733Z</time></trkpt><trkpt lat="42.8757033" lon="2.82409"><ele>239.79999999999998</ele><time>2026-04-26T07:08:56.729Z</time></trkpt><trkpt lat="42.8757833" lon="2.82417"><ele>239.0</ele><time>2026-04-26T07:08:58.729Z</time></trkpt><trkpt lat="42.8757917" lon="2.82434"><ele>238.33333333333334</ele><time>2026-04-26T07:09:00.729Z</time></trkpt><trkpt lat="42.87576" lon="2.824435"><ele>237.66666666666669</ele><time>2026-04-26T07:09:01.729Z</time></trkpt><trkpt lat="42.875705" lon="2.8245317"><ele>237.0</ele><time>2026-04-26T07:09:02.729Z</time></trkpt><trkpt lat="42.8756517" lon="2.8246333"><ele>236.33333333333331</ele><time>2026-04-26T07:09:03.735Z</time></trkpt><trkpt lat="42.8756117" lon="2.8247333"><ele>235.66666666666666</ele><time>2026-04-26T07:09:04.728Z</time></trkpt><trkpt lat="42.875585" lon="2.824835"><ele>235.0</ele><time>2026-04-26T07:09:05.729Z</time></trkpt><trkpt lat="42.87558" lon="2.8249467"><ele>235.0</ele><time>2026-04-26T07:09:06.729Z</time></trkpt><trkpt lat="42.875595" lon="2.8250717"><ele>235.0</ele><time>2026-04-26T07:09:07.728Z</time></trkpt><trkpt lat="42.8756317" lon="2.825205"><ele>235.0</ele><time>2026-04-26T07:09:08.729Z</time></trkpt><trkpt lat="42.8756617" lon="2.82534"><ele>235.0</ele><time>2026-04-26T07:09:09.728Z</time></trkpt><trkpt lat="42.8756833" lon="2.8254733"><ele>235.0</ele><time>2026-04-26T07:09:10.728Z</time></trkpt><trkpt lat="42.8757017" lon="2.8255967"><ele>235.16666666666666</ele><time>2026-04-26T07:09:11.728Z</time></trkpt><trkpt lat="42.87572" lon="2.8257083"><ele>235.33333333333331</ele><time>2026-04-26T07:09:12.729Z</time></trkpt><trkpt lat="42.87574" lon="2.825805"><ele>235.5</ele><time>2026-04-26T07:09:13.728Z</time></trkpt><trkpt lat="42.8757633" lon="2.8258917"><ele>235.66666666666669</ele><time>2026-04-26T07:09:14.729Z</time></trkpt><trkpt lat="42.8758017" lon="2.8259717"><ele>235.83333333333334</ele><time>2026-04-26T07:09:15.728Z</time></trkpt><trkpt lat="42.875855" lon="2.8260433"><ele>236.0</ele><time>2026-04-26T07:09:16.731Z</time></trkpt><trkpt lat="42.87593" lon="2.8261083"><ele>234.00000000000003</ele><time>2026-04-26T07:09:17.732Z</time></trkpt><trkpt lat="42.8760083" lon="2.8261683"><ele>232.0</ele><time>2026-04-26T07:09:18.729Z</time></trkpt><trkpt lat="42.8760867" lon="2.8262283"><ele>230.0</ele><time>2026-04-26T07:09:19.728Z</time></trkpt><trkpt lat="42.8761633" lon="2.8262883"><ele>228.0</ele><time>2026-04-26T07:09:20.729Z</time></trkpt><trkpt lat="42.87623" lon="2.8263617"><ele>226.00000000000003</ele><time>2026-04-26T07:09:21.732Z</time></trkpt><trkpt lat="42.8762833" lon="2.826455"><ele>224.0</ele><time>2026-04-26T07:09:22.728Z</time></trkpt><trkpt lat="42.8763267" lon="2.82658"><ele>224.0</ele><time>2026-04-26T07:09:23.728Z</time></trkpt><trkpt lat="42.8763633" lon="2.8267233"><ele>224.0</ele><time>2026-04-26T07:09:24.729Z</time></trkpt><trkpt lat="42.8763833" lon="2.8268783"><ele>224.0</ele><time>2026-04-26T07:09:25.727Z</time></trkpt><trkpt lat="42.8763983" lon="2.82704"><ele>224.0</ele><time>2026-04-26T07:09:26.728Z</time></trkpt><trkpt lat="42.8763983" lon="2.8271917"><ele>223.83333333333334</ele><time>2026-04-26T07:09:27.728Z</time></trkpt><trkpt lat="42.87639" lon="2.827325"><ele>223.66666666666669</ele><time>2026-04-26T07:09:28.729Z</time></trkpt><trkpt lat="42.8763867" lon="2.8274483"><ele>223.5</ele><time>2026-04-26T07:09:29.73Z</time></trkpt><trkpt lat="42.87639" lon="2.8275633"><ele>223.33333333333331</ele><time>2026-04-26T07:09:30.729Z</time></trkpt><trkpt lat="42.8764033" lon="2.827675"><ele>223.16666666666666</ele><time>2026-04-26T07:09:31.729Z</time></trkpt><trkpt lat="42.876425" lon="2.8277883"><ele>223.0</ele><time>2026-04-26T07:09:32.73Z</time></trkpt><trkpt lat="42.8764583" lon="2.8278933"><ele>222.60000000000002</ele><time>2026-04-26T07:09:33.729Z</time></trkpt><trkpt lat="42.8765133" lon="2.8279833"><ele>222.20000000000002</ele><time>2026-04-26T07:09:34.728Z</time></trkpt><trkpt lat="42.8765883" lon="2.8280667"><ele>221.8</ele><time>2026-04-26T07:09:35.731Z</time></trkpt><trkpt lat="42.876665" lon="2.82815"><ele>221.4</ele><time>2026-04-26T07:09:36.727Z</time></trkpt><trkpt lat="42.8767467" lon="2.8282317"><ele>221.0</ele><time>2026-04-26T07:09:37.73Z</time></trkpt><trkpt lat="42.8768267" lon="2.8283117"><ele>221.0</ele><time>2026-04-26T07:09:38.729Z</time></trkpt><trkpt lat="42.8768917" lon="2.828395"><ele>221.00000000000003</ele><time>2026-04-26T07:09:39.732Z</time></trkpt><trkpt lat="42.8769467" lon="2.828485"><ele>221.00000000000003</ele><time>2026-04-26T07:09:40.729Z</time></trkpt><trkpt lat="42.87699" lon="2.8285867"><ele>221.0</ele><time>2026-04-26T07:09:41.729Z</time></trkpt><trkpt lat="42.8770283" lon="2.8287033"><ele>221.0</ele><time>2026-04-26T07:09:42.728Z</time></trkpt><trkpt lat="42.8770683" lon="2.82883"><ele>221.00000000000003</ele><time>2026-04-26T07:09:43.731Z</time></trkpt><trkpt lat="42.8771033" lon="2.8289533"><ele>221.0</ele><time>2026-04-26T07:09:44.73Z</time></trkpt><trkpt lat="42.87714" lon="2.82907"><ele>221.0</ele><time>2026-04-26T07:09:45.729Z</time></trkpt><trkpt lat="42.8771767" lon="2.8291767"><ele>221.0</ele><time>2026-04-26T07:09:46.729Z</time></trkpt><trkpt lat="42.8772167" lon="2.82928"><ele>221.00000000000003</ele><time>2026-04-26T07:09:47.729Z</time></trkpt><trkpt lat="42.8772533" lon="2.82938"><ele>221.0</ele><time>2026-04-26T07:09:48.731Z</time></trkpt><trkpt lat="42.8772883" lon="2.8294767"><ele>221.2857142857143</ele><time>2026-04-26T07:09:49.729Z</time></trkpt><trkpt lat="42.8773217" lon="2.8295567"><ele>221.57142857142858</ele><time>2026-04-26T07:09:50.729Z</time></trkpt><trkpt lat="42.8773583" lon="2.8296283"><ele>221.85714285714286</ele><time>2026-04-26T07:09:51.73Z</time></trkpt><trkpt lat="42.8773983" lon="2.8296967"><ele>222.14285714285717</ele><time>2026-04-26T07:09:52.729Z</time></trkpt><trkpt lat="42.877445" lon="2.8297583"><ele>222.42857142857142</ele><time>2026-04-26T07:09:53.73Z</time></trkpt><trkpt lat="42.877495" lon="2.8298267"><ele>222.71428571428572</ele><time>2026-04-26T07:09:54.73Z</time></trkpt><trkpt lat="42.8775433" lon="2.829895"><ele>223.0</ele><time>2026-04-26T07:09:55.731Z</time></trkpt><trkpt lat="42.8776" lon="2.8299633"><ele>223.66666666666666</ele><time>2026-04-26T07:09:56.729Z</time></trkpt><trkpt lat="42.8776483" lon="2.8300283"><ele>224.33333333333331</ele><time>2026-04-26T07:09:57.73Z</time></trkpt><trkpt lat="42.8776967" lon="2.830095"><ele>225.0</ele><time>2026-04-26T07:09:58.728Z</time></trkpt><trkpt lat="42.8777433" lon="2.830165"><ele>225.66666666666669</ele><time>2026-04-26T07:09:59.729Z</time></trkpt><trkpt lat="42.8777917" lon="2.8302467"><ele>226.33333333333334</ele><time>2026-04-26T07:10:00.729Z</time></trkpt><trkpt lat="42.8778467" lon="2.830335"><ele>227.0</ele><time>2026-04-26T07:10:01.73Z</time></trkpt><trkpt lat="42.877895" lon="2.830425"><ele>227.16666666666669</ele><time>2026-04-26T07:10:02.728Z</time></trkpt><trkpt lat="42.8779433" lon="2.8305183"><ele>227.33333333333334</ele><time>2026-04-26T07:10:03.731Z</time></trkpt><trkpt lat="42.8779917" lon="2.8306167"><ele>227.5</ele><time>2026-04-26T07:10:04.729Z</time></trkpt><trkpt lat="42.8780383" lon="2.8307217"><ele>227.66666666666669</ele><time>2026-04-26T07:10:05.73Z</time></trkpt><trkpt lat="42.8780867" lon="2.830825"><ele>227.83333333333334</ele><time>2026-04-26T07:10:06.73Z</time></trkpt><trkpt lat="42.8781367" lon="2.83092"><ele>228.0</ele><time>2026-04-26T07:10:07.731Z</time></trkpt><trkpt lat="42.8781867" lon="2.831005"><ele>227.33333333333334</ele><time>2026-04-26T07:10:08.729Z</time></trkpt><trkpt lat="42.87824" lon="2.8310717"><ele>226.66666666666669</ele><time>2026-04-26T07:10:09.729Z</time></trkpt><trkpt lat="42.8783" lon="2.8311217"><ele>226.0</ele><time>2026-04-26T07:10:10.729Z</time></trkpt><trkpt lat="42.87837" lon="2.8311417"><ele>225.33333333333334</ele><time>2026-04-26T07:10:11.73Z</time></trkpt><trkpt lat="42.8784617" lon="2.8311417"><ele>224.66666666666669</ele><time>2026-04-26T07:10:12.728Z</time></trkpt><trkpt lat="42.878555" lon="2.831145"><ele>224.0</ele><time>2026-04-26T07:10:13.729Z</time></trkpt><trkpt lat="42.8786383" lon="2.8311617"><ele>225.33333333333334</ele><time>2026-04-26T07:10:14.729Z</time></trkpt><trkpt lat="42.878715" lon="2.8312"><ele>226.66666666666669</ele><time>2026-04-26T07:10:15.727Z</time></trkpt><trkpt lat="42.8787817" lon="2.831265"><ele>228.0</ele><time>2026-04-26T07:10:16.73Z</time></trkpt><trkpt lat="42.8788383" lon="2.83136"><ele>229.33333333333331</ele><time>2026-04-26T07:10:17.73Z</time></trkpt><trkpt lat="42.8788667" lon="2.8314717"><ele>230.66666666666666</ele><time>2026-04-26T07:10:18.73Z</time></trkpt><trkpt lat="42.878875" lon="2.831585"><ele>232.0</ele><time>2026-04-26T07:10:19.731Z</time></trkpt><trkpt lat="42.8788667" lon="2.831705"><ele>232.33333333333331</ele><time>2026-04-26T07:10:20.73Z</time></trkpt><trkpt lat="42.8788417" lon="2.83181"><ele>232.66666666666666</ele><time>2026-04-26T07:10:21.729Z</time></trkpt><trkpt lat="42.878805" lon="2.8319"><ele>233.0</ele><time>2026-04-26T07:10:22.729Z</time></trkpt><trkpt lat="42.878745" lon="2.83196"><ele>233.33333333333331</ele><time>2026-04-26T07:10:23.729Z</time></trkpt><trkpt lat="42.878675" lon="2.8320133"><ele>233.66666666666666</ele><time>2026-04-26T07:10:24.729Z</time></trkpt><trkpt lat="42.8786167" lon="2.8320867"><ele>234.0</ele><time>2026-04-26T07:10:25.729Z</time></trkpt><trkpt lat="42.878575" lon="2.83219"><ele>234.0</ele><time>2026-04-26T07:10:26.73Z</time></trkpt><trkpt lat="42.87854" lon="2.8323183"><ele>233.99999999999997</ele><time>2026-04-26T07:10:27.728Z</time></trkpt><trkpt lat="42.8784983" lon="2.8324467"><ele>233.99999999999997</ele><time>2026-04-26T07:10:28.73Z</time></trkpt><trkpt lat="42.878445" lon="2.83258"><ele>234.0</ele><time>2026-04-26T07:10:29.73Z</time></trkpt><trkpt lat="42.878395" lon="2.8327217"><ele>234.0</ele><time>2026-04-26T07:10:30.728Z</time></trkpt><trkpt lat="42.8783617" lon="2.832875"><ele>232.79999999999998</ele><time>2026-04-26T07:10:31.729Z</time></trkpt><trkpt lat="42.8783383" lon="2.8330233"><ele>231.59999999999997</ele><time>2026-04-26T07:10:32.728Z</time></trkpt><trkpt lat="42.87831" lon="2.833165"><ele>230.4</ele><time>2026-04-26T07:10:33.728Z</time></trkpt><trkpt lat="42.8782633" lon="2.8332933"><ele>229.2</ele><time>2026-04-26T07:10:34.728Z</time></trkpt><trkpt lat="42.8781967" lon="2.8334083"><ele>228.0</ele><time>2026-04-26T07:10:35.73Z</time></trkpt><trkpt lat="42.8781117" lon="2.83352"><ele>228.0</ele><time>2026-04-26T07:10:36.729Z</time></trkpt><trkpt lat="42.8780217" lon="2.8336367"><ele>228.0</ele><time>2026-04-26T07:10:37.729Z</time></trkpt><trkpt lat="42.8779367" lon="2.8337667"><ele>228.0</ele><time>2026-04-26T07:10:38.728Z</time></trkpt><trkpt lat="42.8778583" lon="2.8338867"><ele>228.0</ele><time>2026-04-26T07:10:39.73Z</time></trkpt><trkpt lat="42.8777767" lon="2.834"><ele>228.0</ele><time>2026-04-26T07:10:40.729Z</time></trkpt><trkpt lat="42.8776867" lon="2.834095"><ele>228.0</ele><time>2026-04-26T07:10:41.73Z</time></trkpt><trkpt lat="42.87759" lon="2.83417"><ele>228.0</ele><time>2026-04-26T07:10:42.728Z</time></trkpt><trkpt lat="42.8774983" lon="2.83424"><ele>228.0</ele><time>2026-04-26T07:10:43.728Z</time></trkpt><trkpt lat="42.8774167" lon="2.8343217"><ele>228.0</ele><time>2026-04-26T07:10:44.729Z</time></trkpt><trkpt lat="42.87735" lon="2.8344033"><ele>226.4</ele><time>2026-04-26T07:10:45.728Z</time></trkpt><trkpt lat="42.8773067" lon="2.8344783"><ele>224.8</ele><time>2026-04-26T07:10:46.728Z</time></trkpt><trkpt lat="42.8773017" lon="2.834635"><ele>223.2</ele><time>2026-04-26T07:10:48.728Z</time></trkpt><trkpt lat="42.8773417" lon="2.8347017"><ele>221.6</ele><time>2026-04-26T07:10:49.728Z</time></trkpt><trkpt lat="42.8773717" lon="2.8348433"><ele>220.0</ele><time>2026-04-26T07:10:51.729Z</time></trkpt><trkpt lat="42.8772867" lon="2.834975"><ele>220.0</ele><time>2026-04-26T07:10:53.732Z</time></trkpt><trkpt lat="42.8772283" lon="2.8350683"><ele>220.0</ele><time>2026-04-26T07:10:54.729Z</time></trkpt><trkpt lat="42.8771783" lon="2.8351883"><ele>220.0</ele><time>2026-04-26T07:10:55.729Z</time></trkpt><trkpt lat="42.877135" lon="2.835335"><ele>220.0</ele><time>2026-04-26T07:10:56.73Z</time></trkpt><trkpt lat="42.8770883" lon="2.8354917"><ele>220.0</ele><time>2026-04-26T07:10:57.73Z</time></trkpt><trkpt lat="42.8770333" lon="2.835655"><ele>220.0</ele><time>2026-04-26T07:10:58.732Z</time></trkpt><trkpt lat="42.8769683" lon="2.83582"><ele>220.0</ele><time>2026-04-26T07:10:59.728Z</time></trkpt><trkpt lat="42.8769133" lon="2.8359883"><ele>220.0</ele><time>2026-04-26T07:11:00.729Z</time></trkpt><trkpt lat="42.87686" lon="2.8361517"><ele>220.0</ele><time>2026-04-26T07:11:01.729Z</time></trkpt><trkpt lat="42.87681" lon="2.8363083"><ele>217.5</ele><time>2026-04-26T07:11:02.73Z</time></trkpt><trkpt lat="42.8767633" lon="2.8364617"><ele>215.0</ele><time>2026-04-26T07:11:03.73Z</time></trkpt><trkpt lat="42.8767133" lon="2.836605"><ele>212.5</ele><time>2026-04-26T07:11:04.729Z</time></trkpt><trkpt lat="42.8766483" lon="2.8367317"><ele>210.0</ele><time>2026-04-26T07:11:05.73Z</time></trkpt><trkpt lat="42.8765817" lon="2.8368467"><ele>209.0</ele><time>2026-04-26T07:11:06.73Z</time></trkpt><trkpt lat="42.87652" lon="2.8369617"><ele>208.0</ele><time>2026-04-26T07:11:07.731Z</time></trkpt><trkpt lat="42.8764783" lon="2.8370833"><ele>207.0</ele><time>2026-04-26T07:11:08.729Z</time></trkpt><trkpt lat="42.8764617" lon="2.83721"><ele>206.0</ele><time>2026-04-26T07:11:09.731Z</time></trkpt><trkpt lat="42.8764817" lon="2.8373417"><ele>205.0</ele><time>2026-04-26T07:11:10.732Z</time></trkpt><trkpt lat="42.8765283" lon="2.8374683"><ele>204.99999999999997</ele><time>2026-04-26T07:11:11.729Z</time></trkpt><trkpt lat="42.876585" lon="2.837575"><ele>205.0</ele><time>2026-04-26T07:11:12.73Z</time></trkpt><trkpt lat="42.8766383" lon="2.8376567"><ele>205.0</ele><time>2026-04-26T07:11:13.73Z</time></trkpt><trkpt lat="42.87669" lon="2.8377117"><ele>205.0</ele><time>2026-04-26T07:11:14.73Z</time></trkpt><trkpt lat="42.87675" lon="2.8377467"><ele>204.99999999999997</ele><time>2026-04-26T07:11:15.732Z</time></trkpt><trkpt lat="42.876815" lon="2.8377767"><ele>205.0</ele><time>2026-04-26T07:11:16.729Z</time></trkpt><trkpt lat="42.8768917" lon="2.8377983"><ele>205.83333333333331</ele><time>2026-04-26T07:11:17.73Z</time></trkpt><trkpt lat="42.87697" lon="2.837815"><ele>206.66666666666666</ele><time>2026-04-26T07:11:18.73Z</time></trkpt><trkpt lat="42.8770417" lon="2.837825"><ele>207.5</ele><time>2026-04-26T07:11:19.731Z</time></trkpt><trkpt lat="42.87711" lon="2.8378083"><ele>208.33333333333331</ele><time>2026-04-26T07:11:20.73Z</time></trkpt><trkpt lat="42.877175" lon="2.8377683"><ele>209.16666666666666</ele><time>2026-04-26T07:11:21.731Z</time></trkpt><trkpt lat="42.877245" lon="2.837705"><ele>210.0</ele><time>2026-04-26T07:11:22.729Z</time></trkpt><trkpt lat="42.8773217" lon="2.837635"><ele>210.0</ele><time>2026-04-26T07:11:23.735Z</time></trkpt><trkpt lat="42.8773967" lon="2.8375733"><ele>210.0</ele><time>2026-04-26T07:11:24.732Z</time></trkpt><trkpt lat="42.8774617" lon="2.8375233"><ele>210.0</ele><time>2026-04-26T07:11:25.728Z</time></trkpt><trkpt lat="42.8775267" lon="2.8374917"><ele>210.0</ele><time>2026-04-26T07:11:26.73Z</time></trkpt><trkpt lat="42.8775967" lon="2.83747"><ele>210.0</ele><time>2026-04-26T07:11:27.73Z</time></trkpt><trkpt lat="42.877665" lon="2.83744"><ele>210.0</ele><time>2026-04-26T07:11:28.728Z</time></trkpt><trkpt lat="42.87773" lon="2.8373917"><ele>210.0</ele><time>2026-04-26T07:11:29.728Z</time></trkpt><trkpt lat="42.8777933" lon="2.83732"><ele>210.16666666666666</ele><time>2026-04-26T07:11:30.731Z</time></trkpt><trkpt lat="42.877845" lon="2.8372467"><ele>210.33333333333331</ele><time>2026-04-26T07:11:31.729Z</time></trkpt><trkpt lat="42.8779067" lon="2.8371917"><ele>210.5</ele><time>2026-04-26T07:11:32.728Z</time></trkpt><trkpt lat="42.8779767" lon="2.8371567"><ele>210.66666666666666</ele><time>2026-04-26T07:11:33.73Z</time></trkpt><trkpt lat="42.8780567" lon="2.837135"><ele>210.83333333333331</ele><time>2026-04-26T07:11:34.73Z</time></trkpt><trkpt lat="42.87815" lon="2.8371017"><ele>211.0</ele><time>2026-04-26T07:11:35.728Z</time></trkpt><trkpt lat="42.87825" lon="2.8370683"><ele>210.99999999999997</ele><time>2026-04-26T07:11:36.729Z</time></trkpt><trkpt lat="42.8783417" lon="2.837035"><ele>211.0</ele><time>2026-04-26T07:11:37.73Z</time></trkpt><trkpt lat="42.8784367" lon="2.8370033"><ele>211.0</ele><time>2026-04-26T07:11:38.729Z</time></trkpt><trkpt lat="42.8785283" lon="2.8369883"><ele>211.0</ele><time>2026-04-26T07:11:39.729Z</time></trkpt><trkpt lat="42.8786117" lon="2.836985"><ele>210.99999999999997</ele><time>2026-04-26T07:11:40.73Z</time></trkpt><trkpt lat="42.8786867" lon="2.8369817"><ele>211.0</ele><time>2026-04-26T07:11:41.73Z</time></trkpt><trkpt lat="42.8788067" lon="2.837"><ele>211.83333333333331</ele><time>2026-04-26T07:11:43.728Z</time></trkpt><trkpt lat="42.87892" lon="2.8370067"><ele>212.66666666666666</ele><time>2026-04-26T07:11:45.728Z</time></trkpt><trkpt lat="42.8789733" lon="2.837085"><ele>213.5</ele><time>2026-04-26T07:11:47.728Z</time></trkpt><trkpt lat="42.87899" lon="2.8371683"><ele>214.33333333333331</ele><time>2026-04-26T07:11:48.73Z</time></trkpt><trkpt lat="42.8790083" lon="2.83727"><ele>215.16666666666666</ele><time>2026-04-26T07:11:49.728Z</time></trkpt><trkpt lat="42.8790283" lon="2.83737"><ele>216.0</ele><time>2026-04-26T07:11:50.729Z</time></trkpt><trkpt lat="42.8790617" lon="2.8374617"><ele>216.0</ele><time>2026-04-26T07:11:51.728Z</time></trkpt><trkpt lat="42.8790667" lon="2.8375817"><ele>216.00000000000003</ele><time>2026-04-26T07:11:53.729Z</time></trkpt><trkpt lat="42.8790183" lon="2.83772"><ele>216.00000000000003</ele><time>2026-04-26T07:11:55.728Z</time></trkpt><trkpt lat="42.87903" lon="2.837895"><ele>216.0</ele><time>2026-04-26T07:11:57.73Z</time></trkpt><trkpt lat="42.8790517" lon="2.83799"><ele>216.0</ele><time>2026-04-26T07:11:58.73Z</time></trkpt><trkpt lat="42.8790783" lon="2.8380717"><ele>216.0</ele><time>2026-04-26T07:11:59.728Z</time></trkpt><trkpt lat="42.87916" lon="2.8381683"><ele>216.00000000000003</ele><time>2026-04-26T07:12:01.729Z</time></trkpt><trkpt lat="42.8793033" lon="2.83818"><ele>216.00000000000003</ele><time>2026-04-26T07:12:03.731Z</time></trkpt><trkpt lat="42.8793817" lon="2.8381833"><ele>216.0</ele><time>2026-04-26T07:12:04.729Z</time></trkpt><trkpt lat="42.87945" lon="2.8381883"><ele>216.0</ele><time>2026-04-26T07:12:05.729Z</time></trkpt><trkpt lat="42.87952" lon="2.83819"><ele>216.5</ele><time>2026-04-26T07:12:06.729Z</time></trkpt><trkpt lat="42.87964" lon="2.83823"><ele>217.0</ele><time>2026-04-26T07:12:08.731Z</time></trkpt><trkpt lat="42.87975" lon="2.8383117"><ele>217.5</ele><time>2026-04-26T07:12:10.729Z</time></trkpt><trkpt lat="42.8798483" lon="2.8384033"><ele>218.0</ele><time>2026-04-26T07:12:12.729Z</time></trkpt><trkpt lat="42.8799317" lon="2.8384983"><ele>219.4</ele><time>2026-04-26T07:12:14.729Z</time></trkpt><trkpt lat="42.8800033" lon="2.8386067"><ele>220.8</ele><time>2026-04-26T07:12:16.729Z</time></trkpt><trkpt lat="42.880055" lon="2.838715"><ele>222.2</ele><time>2026-04-26T07:12:18.73Z</time></trkpt><trkpt lat="42.880105" lon="2.8388267"><ele>223.6</ele><time>2026-04-26T07:12:20.73Z</time></trkpt><trkpt lat="42.880155" lon="2.838935"><ele>225.0</ele><time>2026-04-26T07:12:22.732Z</time></trkpt><trkpt lat="42.880185" lon="2.8390533"><ele>225.0</ele><time>2026-04-26T07:12:24.727Z</time></trkpt><trkpt lat="42.8801817" lon="2.8391667"><ele>225.0</ele><time>2026-04-26T07:12:26.728Z</time></trkpt><trkpt lat="42.8801683" lon="2.8392917"><ele>225.0</ele><time>2026-04-26T07:12:28.729Z</time></trkpt><trkpt lat="42.8801533" lon="2.8394483"><ele>225.0</ele><time>2026-04-26T07:12:30.727Z</time></trkpt><trkpt lat="42.8801567" lon="2.8396033"><ele>225.0</ele><time>2026-04-26T07:12:32.73Z</time></trkpt><trkpt lat="42.880175" lon="2.8397333"><ele>227.4</ele><time>2026-04-26T07:12:34.727Z</time></trkpt><trkpt lat="42.8801767" lon="2.839855"><ele>229.8</ele><time>2026-04-26T07:12:36.728Z</time></trkpt><trkpt lat="42.880155" lon="2.8399767"><ele>232.2</ele><time>2026-04-26T07:12:39.728Z</time></trkpt><trkpt lat="42.8801317" lon="2.8400883"><ele>234.6</ele><time>2026-04-26T07:12:41.734Z</time></trkpt><trkpt lat="42.880095" lon="2.8402217"><ele>237.0</ele><time>2026-04-26T07:12:43.728Z</time></trkpt><trkpt lat="42.880055" lon="2.84037"><ele>240.39999999999998</ele><time>2026-04-26T07:12:45.728Z</time></trkpt><trkpt lat="42.880025" lon="2.8404467"><ele>243.79999999999998</ele><time>2026-04-26T07:12:46.728Z</time></trkpt><trkpt lat="42.8799867" lon="2.8405867"><ele>247.2</ele><time>2026-04-26T07:12:48.73Z</time></trkpt><trkpt lat="42.87997" lon="2.8407183"><ele>250.6</ele><time>2026-04-26T07:12:50.731Z</time></trkpt><trkpt lat="42.879965" lon="2.8408383"><ele>254.0</ele><time>2026-04-26T07:12:52.729Z</time></trkpt><trkpt lat="42.879935" lon="2.8409833"><ele>254.6</ele><time>2026-04-26T07:12:54.728Z</time></trkpt><trkpt lat="42.87991" lon="2.841115"><ele>255.2</ele><time>2026-04-26T07:12:56.729Z</time></trkpt><trkpt lat="42.87996" lon="2.8412067"><ele>255.79999999999998</ele><time>2026-04-26T07:12:58.729Z</time></trkpt><trkpt lat="42.8800133" lon="2.8413233"><ele>256.4</ele><time>2026-04-26T07:13:00.727Z</time></trkpt><trkpt lat="42.8800867" lon="2.84144"><ele>257.0</ele><time>2026-04-26T07:13:02.728Z</time></trkpt><trkpt lat="42.88013" lon="2.84158"><ele>257.0</ele><time>2026-04-26T07:13:04.727Z</time></trkpt><trkpt lat="42.8801183" lon="2.8416817"><ele>257.0</ele><time>2026-04-26T07:13:05.728Z</time></trkpt><trkpt lat="42.8800983" lon="2.841795"><ele>257.0</ele><time>2026-04-26T07:13:06.731Z</time></trkpt><trkpt lat="42.880085" lon="2.841925"><ele>257.0</ele><time>2026-04-26T07:13:07.727Z</time></trkpt><trkpt lat="42.8800633" lon="2.8420383"><ele>257.0</ele><time>2026-04-26T07:13:08.728Z</time></trkpt><trkpt lat="42.8800383" lon="2.8421533"><ele>257.0</ele><time>2026-04-26T07:13:09.729Z</time></trkpt><trkpt lat="42.88003" lon="2.8422483"><ele>257.5</ele><time>2026-04-26T07:13:10.728Z</time></trkpt><trkpt lat="42.88001" lon="2.8423383"><ele>258.0</ele><time>2026-04-26T07:13:11.729Z</time></trkpt><trkpt lat="42.87997" lon="2.8424383"><ele>258.5</ele><time>2026-04-26T07:13:12.729Z</time></trkpt><trkpt lat="42.8799267" lon="2.8425417"><ele>259.0</ele><time>2026-04-26T07:13:13.727Z</time></trkpt><trkpt lat="42.8798883" lon="2.8426217"><ele>259.5</ele><time>2026-04-26T07:13:14.729Z</time></trkpt><trkpt lat="42.8798233" lon="2.842755"><ele>260.0</ele><time>2026-04-26T07:13:16.729Z</time></trkpt><trkpt lat="42.8797883" lon="2.8429267"><ele>260.6</ele><time>2026-04-26T07:13:18.729Z</time></trkpt><trkpt lat="42.8797783" lon="2.84303"><ele>261.2</ele><time>2026-04-26T07:13:19.73Z</time></trkpt><trkpt lat="42.8797667" lon="2.8431317"><ele>261.8</ele><time>2026-04-26T07:13:20.729Z</time></trkpt><trkpt lat="42.8797483" lon="2.8432233"><ele>262.4</ele><time>2026-04-26T07:13:21.731Z</time></trkpt><trkpt lat="42.8797233" lon="2.8433883"><ele>263.0</ele><time>2026-04-26T07:13:23.729Z</time></trkpt><trkpt lat="42.8797133" lon="2.8435433"><ele>263.83333333333337</ele><time>2026-04-26T07:13:25.728Z</time></trkpt><trkpt lat="42.8796817" lon="2.84365"><ele>264.6666666666667</ele><time>2026-04-26T07:13:27.727Z</time></trkpt><trkpt lat="42.8796267" lon="2.84376"><ele>265.5</ele><time>2026-04-26T07:13:29.727Z</time></trkpt><trkpt lat="42.8795967" lon="2.8438617"><ele>266.3333333333333</ele><time>2026-04-26T07:13:31.727Z</time></trkpt><trkpt lat="42.8796167" lon="2.844005"><ele>267.16666666666663</ele><time>2026-04-26T07:13:33.727Z</time></trkpt><trkpt lat="42.8796333" lon="2.84411"><ele>268.0</ele><time>2026-04-26T07:13:34.728Z</time></trkpt><trkpt lat="42.8796617" lon="2.8442283"><ele>268.4</ele><time>2026-04-26T07:13:35.727Z</time></trkpt><trkpt lat="42.879685" lon="2.8443417"><ele>268.8</ele><time>2026-04-26T07:13:36.728Z</time></trkpt><trkpt lat="42.8797117" lon="2.8444483"><ele>269.2</ele><time>2026-04-26T07:13:37.727Z</time></trkpt><trkpt lat="42.8797067" lon="2.8445967"><ele>269.6</ele><time>2026-04-26T07:13:39.728Z</time></trkpt><trkpt lat="42.8796717" lon="2.84474"><ele>270.0</ele><time>2026-04-26T07:13:41.729Z</time></trkpt><trkpt lat="42.879655" lon="2.84488"><ele>270.0</ele><time>2026-04-26T07:13:43.729Z</time></trkpt><trkpt lat="42.879675" lon="2.84505"><ele>270.0</ele><time>2026-04-26T07:13:45.729Z</time></trkpt><trkpt lat="42.87969" lon="2.8452"><ele>270.0</ele><time>2026-04-26T07:13:47.731Z</time></trkpt><trkpt lat="42.8797367" lon="2.845305"><ele>270.0</ele><time>2026-04-26T07:13:49.728Z</time></trkpt><trkpt lat="42.8798017" lon="2.8454117"><ele>270.0</ele><time>2026-04-26T07:13:51.728Z</time></trkpt><trkpt lat="42.8798583" lon="2.8455467"><ele>270.5</ele><time>2026-04-26T07:13:53.728Z</time></trkpt><trkpt lat="42.8798883" lon="2.8457167"><ele>271.0</ele><time>2026-04-26T07:13:55.728Z</time></trkpt><trkpt lat="42.8799117" lon="2.845815"><ele>271.5</ele><time>2026-04-26T07:13:56.733Z</time></trkpt><trkpt lat="42.8799433" lon="2.8459167"><ele>272.0</ele><time>2026-04-26T07:13:57.729Z</time></trkpt><trkpt lat="42.8799817" lon="2.84601"><ele>272.5</ele><time>2026-04-26T07:13:58.727Z</time></trkpt><trkpt lat="42.8800217" lon="2.846085"><ele>273.0</ele><time>2026-04-26T07:13:59.729Z</time></trkpt><trkpt lat="42.8800983" lon="2.8462233"><ele>275.3333333333333</ele><time>2026-04-26T07:14:01.731Z</time></trkpt><trkpt lat="42.88016" lon="2.8463583"><ele>277.6666666666667</ele><time>2026-04-26T07:14:03.728Z</time></trkpt><trkpt lat="42.8802017" lon="2.84643"><ele>280.0</ele><time>2026-04-26T07:14:04.727Z</time></trkpt><trkpt lat="42.88024" lon="2.8465133"><ele>282.33333333333337</ele><time>2026-04-26T07:14:05.727Z</time></trkpt><trkpt lat="42.880275" lon="2.84661"><ele>284.6666666666667</ele><time>2026-04-26T07:14:06.727Z</time></trkpt><trkpt lat="42.8803067" lon="2.8467"><ele>287.0</ele><time>2026-04-26T07:14:07.73Z</time></trkpt><trkpt lat="42.880345" lon="2.8467767"><ele>286.8</ele><time>2026-04-26T07:14:08.728Z</time></trkpt><trkpt lat="42.88039" lon="2.8468433"><ele>286.6</ele><time>2026-04-26T07:14:09.728Z</time></trkpt><trkpt lat="42.8804383" lon="2.8469117"><ele>286.40000000000003</ele><time>2026-04-26T07:14:10.728Z</time></trkpt><trkpt lat="42.88049" lon="2.846975"><ele>286.2</ele><time>2026-04-26T07:14:11.73Z</time></trkpt><trkpt lat="42.8805933" lon="2.8470517"><ele>286.0</ele><time>2026-04-26T07:14:13.728Z</time></trkpt><trkpt lat="42.8807133" lon="2.8471117"><ele>286.0</ele><time>2026-04-26T07:14:15.728Z</time></trkpt><trkpt lat="42.8807733" lon="2.8471383"><ele>286.0</ele><time>2026-04-26T07:14:16.727Z</time></trkpt><trkpt lat="42.88088" lon="2.8471833"><ele>286.0</ele><time>2026-04-26T07:14:18.728Z</time></trkpt><trkpt lat="42.8809367" lon="2.8473067"><ele>286.0</ele><time>2026-04-26T07:14:20.729Z</time></trkpt><trkpt lat="42.8809217" lon="2.8474133"><ele>286.0</ele><time>2026-04-26T07:14:21.731Z</time></trkpt><trkpt lat="42.8809033" lon="2.8475167"><ele>286.0</ele><time>2026-04-26T07:14:22.727Z</time></trkpt><trkpt lat="42.8808833" lon="2.8476217"><ele>286.5</ele><time>2026-04-26T07:14:23.73Z</time></trkpt><trkpt lat="42.8808567" lon="2.84773"><ele>287.0</ele><time>2026-04-26T07:14:24.73Z</time></trkpt><trkpt lat="42.88082" lon="2.8478433"><ele>287.5</ele><time>2026-04-26T07:14:25.728Z</time></trkpt><trkpt lat="42.8807867" lon="2.84796"><ele>288.0</ele><time>2026-04-26T07:14:26.729Z</time></trkpt><trkpt lat="42.8807633" lon="2.8480617"><ele>288.5</ele><time>2026-04-26T07:14:27.728Z</time></trkpt><trkpt lat="42.8807567" lon="2.8481533"><ele>289.0</ele><time>2026-04-26T07:14:28.728Z</time></trkpt><trkpt lat="42.8807583" lon="2.8482433"><ele>289.0</ele><time>2026-04-26T07:14:29.727Z</time></trkpt><trkpt lat="42.8807617" lon="2.8483333"><ele>289.0</ele><time>2026-04-26T07:14:30.729Z</time></trkpt><trkpt lat="42.880755" lon="2.848425"><ele>289.0</ele><time>2026-04-26T07:14:31.729Z</time></trkpt><trkpt lat="42.8807433" lon="2.8485183"><ele>289.0</ele><time>2026-04-26T07:14:32.729Z</time></trkpt><trkpt lat="42.8807317" lon="2.84861"><ele>289.0</ele><time>2026-04-26T07:14:33.728Z</time></trkpt><trkpt lat="42.8807267" lon="2.8487033"><ele>289.0</ele><time>2026-04-26T07:14:34.727Z</time></trkpt><trkpt lat="42.880705" lon="2.84883"><ele>289.0</ele><time>2026-04-26T07:14:36.727Z</time></trkpt><trkpt lat="42.8806133" lon="2.8489483"><ele>289.3333333333333</ele><time>2026-04-26T07:14:38.729Z</time></trkpt><trkpt lat="42.8805733" lon="2.849015"><ele>289.66666666666663</ele><time>2026-04-26T07:14:39.727Z</time></trkpt><trkpt lat="42.8805217" lon="2.8491733"><ele>290.0</ele><time>2026-04-26T07:14:41.729Z</time></trkpt><trkpt lat="42.8805183" lon="2.84927"><ele>290.3333333333333</ele><time>2026-04-26T07:14:42.728Z</time></trkpt><trkpt lat="42.88052" lon="2.8493817"><ele>290.6666666666667</ele><time>2026-04-26T07:14:43.728Z</time></trkpt><trkpt lat="42.8805167" lon="2.8495"><ele>291.0</ele><time>2026-04-26T07:14:44.728Z</time></trkpt><trkpt lat="42.88051" lon="2.8496233"><ele>291.0</ele><time>2026-04-26T07:14:45.73Z</time></trkpt><trkpt lat="42.880505" lon="2.8497417"><ele>291.0</ele><time>2026-04-26T07:14:46.732Z</time></trkpt><trkpt lat="42.8805" lon="2.8498617"><ele>291.0</ele><time>2026-04-26T07:14:47.729Z</time></trkpt><trkpt lat="42.8804967" lon="2.8499783"><ele>291.0</ele><time>2026-04-26T07:14:48.729Z</time></trkpt><trkpt lat="42.880495" lon="2.850085"><ele>291.0</ele><time>2026-04-26T07:14:49.727Z</time></trkpt><trkpt lat="42.880495" lon="2.8501833"><ele>291.0</ele><time>2026-04-26T07:14:50.729Z</time></trkpt><trkpt lat="42.880495" lon="2.850275"><ele>290.7142857142857</ele><time>2026-04-26T07:14:51.728Z</time></trkpt><trkpt lat="42.88048" lon="2.8503617"><ele>290.4285714285714</ele><time>2026-04-26T07:14:52.729Z</time></trkpt><trkpt lat="42.8804483" lon="2.850455"><ele>290.1428571428571</ele><time>2026-04-26T07:14:53.728Z</time></trkpt><trkpt lat="42.8804133" lon="2.85054"><ele>289.85714285714283</ele><time>2026-04-26T07:14:54.728Z</time></trkpt><trkpt lat="42.8803883" lon="2.85063"><ele>289.57142857142856</ele><time>2026-04-26T07:14:55.727Z</time></trkpt><trkpt lat="42.8803783" lon="2.85073"><ele>289.2857142857143</ele><time>2026-04-26T07:14:56.728Z</time></trkpt><trkpt lat="42.8803817" lon="2.8508483"><ele>289.0</ele><time>2026-04-26T07:14:57.729Z</time></trkpt><trkpt lat="42.8803867" lon="2.85098"><ele>288.8</ele><time>2026-04-26T07:14:58.727Z</time></trkpt><trkpt lat="42.88039" lon="2.8511233"><ele>288.59999999999997</ele><time>2026-04-26T07:14:59.727Z</time></trkpt><trkpt lat="42.8803917" lon="2.8512633"><ele>288.4</ele><time>2026-04-26T07:15:00.728Z</time></trkpt><trkpt lat="42.880395" lon="2.8513917"><ele>288.2</ele><time>2026-04-26T07:15:01.728Z</time></trkpt><trkpt lat="42.8804033" lon="2.851515"><ele>288.0</ele><time>2026-04-26T07:15:02.727Z</time></trkpt><trkpt lat="42.8804067" lon="2.85163"><ele>288.0</ele><time>2026-04-26T07:15:03.728Z</time></trkpt><trkpt lat="42.8803967" lon="2.8517433"><ele>288.0</ele><time>2026-04-26T07:15:04.728Z</time></trkpt><trkpt lat="42.8803783" lon="2.8518533"><ele>288.0</ele><time>2026-04-26T07:15:05.729Z</time></trkpt><trkpt lat="42.8803483" lon="2.8519567"><ele>288.0</ele><time>2026-04-26T07:15:06.728Z</time></trkpt><trkpt lat="42.8803167" lon="2.8520633"><ele>288.0</ele><time>2026-04-26T07:15:07.727Z</time></trkpt><trkpt lat="42.8802967" lon="2.8521783"><ele>288.0</ele><time>2026-04-26T07:15:08.727Z</time></trkpt><trkpt lat="42.8802833" lon="2.8522883"><ele>288.1666666666667</ele><time>2026-04-26T07:15:09.728Z</time></trkpt><trkpt lat="42.8802683" lon="2.8524033"><ele>288.3333333333333</ele><time>2026-04-26T07:15:10.729Z</time></trkpt><trkpt lat="42.880245" lon="2.8525233"><ele>288.5</ele><time>2026-04-26T07:15:11.728Z</time></trkpt><trkpt lat="42.8802217" lon="2.8526383"><ele>288.66666666666663</ele><time>2026-04-26T07:15:12.727Z</time></trkpt><trkpt lat="42.8802033" lon="2.8527483"><ele>288.8333333333333</ele><time>2026-04-26T07:15:13.727Z</time></trkpt><trkpt lat="42.8801867" lon="2.8528567"><ele>289.0</ele><time>2026-04-26T07:15:14.73Z</time></trkpt><trkpt lat="42.88017" lon="2.85297"><ele>289.8</ele><time>2026-04-26T07:15:15.727Z</time></trkpt><trkpt lat="42.8801617" lon="2.8530767"><ele>290.59999999999997</ele><time>2026-04-26T07:15:16.727Z</time></trkpt><trkpt lat="42.88016" lon="2.8531733"><ele>291.4</ele><time>2026-04-26T07:15:17.727Z</time></trkpt><trkpt lat="42.8801783" lon="2.8533117"><ele>292.2</ele><time>2026-04-26T07:15:19.73Z</time></trkpt><trkpt lat="42.8802617" lon="2.8533617"><ele>293.0</ele><time>2026-04-26T07:15:21.73Z</time></trkpt><trkpt lat="42.8803733" lon="2.8533867"><ele>293.0</ele><time>2026-04-26T07:15:23.731Z</time></trkpt><trkpt lat="42.880455" lon="2.85342"><ele>293.0</ele><time>2026-04-26T07:15:25.731Z</time></trkpt><trkpt lat="42.8804433" lon="2.853515"><ele>293.0</ele><time>2026-04-26T07:15:27.731Z</time></trkpt><trkpt lat="42.8803833" lon="2.8536233"><ele>293.0</ele><time>2026-04-26T07:15:29.731Z</time></trkpt><trkpt lat="42.8803383" lon="2.8536867"><ele>293.0</ele><time>2026-04-26T07:15:30.728Z</time></trkpt><trkpt lat="42.880275" lon="2.85376"><ele>293.0</ele><time>2026-04-26T07:15:31.728Z</time></trkpt><trkpt lat="42.880215" lon="2.8538233"><ele>293.4</ele><time>2026-04-26T07:15:32.731Z</time></trkpt><trkpt lat="42.88013" lon="2.853945"><ele>293.8</ele><time>2026-04-26T07:15:34.728Z</time></trkpt><trkpt lat="42.8801" lon="2.8540383"><ele>294.2</ele><time>2026-04-26T07:15:35.728Z</time></trkpt><trkpt lat="42.880075" lon="2.8541483"><ele>294.6</ele><time>2026-04-26T07:15:36.728Z</time></trkpt><trkpt lat="42.88005" lon="2.8542633"><ele>295.0</ele><time>2026-04-26T07:15:37.728Z</time></trkpt><trkpt lat="42.8800233" lon="2.854385"><ele>296.0</ele><time>2026-04-26T07:15:38.728Z</time></trkpt><trkpt lat="42.88" lon="2.8545167"><ele>297.0</ele><time>2026-04-26T07:15:39.729Z</time></trkpt><trkpt lat="42.8799833" lon="2.8546417"><ele>298.0</ele><time>2026-04-26T07:15:40.728Z</time></trkpt><trkpt lat="42.8799733" lon="2.8547533"><ele>299.0</ele><time>2026-04-26T07:15:41.728Z</time></trkpt><trkpt lat="42.8799633" lon="2.85486"><ele>300.0</ele><time>2026-04-26T07:15:42.728Z</time></trkpt><trkpt lat="42.879945" lon="2.8549433"><ele>301.0</ele><time>2026-04-26T07:15:43.728Z</time></trkpt><trkpt lat="42.8799217" lon="2.8550283"><ele>301.0</ele><time>2026-04-26T07:15:44.73Z</time></trkpt><trkpt lat="42.8798733" lon="2.8551617"><ele>301.0</ele><time>2026-04-26T07:15:46.729Z</time></trkpt><trkpt lat="42.8798733" lon="2.8552567"><ele>301.0</ele><time>2026-04-26T07:15:49.731Z</time></trkpt><trkpt lat="42.8799633" lon="2.8551833"><ele>301.0</ele><time>2026-04-26T07:15:52.728Z</time></trkpt><trkpt lat="42.880005" lon="2.8551183"><ele>301.0</ele><time>2026-04-26T07:15:53.729Z</time></trkpt><trkpt lat="42.8800517" lon="2.855025"><ele>301.0</ele><time>2026-04-26T07:15:54.73Z</time></trkpt><trkpt lat="42.880105" lon="2.8549117"><ele>301.8333333333333</ele><time>2026-04-26T07:15:55.733Z</time></trkpt><trkpt lat="42.8801617" lon="2.8548067"><ele>302.66666666666663</ele><time>2026-04-26T07:15:56.729Z</time></trkpt><trkpt lat="42.880215" lon="2.8547133"><ele>303.5</ele><time>2026-04-26T07:15:57.73Z</time></trkpt><trkpt lat="42.8802683" lon="2.85462"><ele>304.3333333333333</ele><time>2026-04-26T07:15:58.73Z</time></trkpt><trkpt lat="42.880325" lon="2.8545483"><ele>305.1666666666667</ele><time>2026-04-26T07:15:59.727Z</time></trkpt><trkpt lat="42.8803817" lon="2.85449"><ele>306.0</ele><time>2026-04-26T07:16:00.727Z</time></trkpt><trkpt lat="42.88046" lon="2.8543767"><ele>306.0</ele><time>2026-04-26T07:16:02.729Z</time></trkpt><trkpt lat="42.8805233" lon="2.85429"><ele>306.0</ele><time>2026-04-26T07:16:04.73Z</time></trkpt><trkpt lat="42.88061" lon="2.854285"><ele>306.0</ele><time>2026-04-26T07:16:06.729Z</time></trkpt><trkpt lat="42.8807283" lon="2.8543167"><ele>306.0</ele><time>2026-04-26T07:16:08.73Z</time></trkpt><trkpt lat="42.8807933" lon="2.8543133"><ele>306.0</ele><time>2026-04-26T07:16:09.729Z</time></trkpt><trkpt lat="42.8808667" lon="2.8542983"><ele>306.0</ele><time>2026-04-26T07:16:10.728Z</time></trkpt><trkpt lat="42.8809417" lon="2.85429"><ele>304.57142857142856</ele><time>2026-04-26T07:16:11.728Z</time></trkpt><trkpt lat="42.88101" lon="2.8543017"><ele>303.14285714285717</ele><time>2026-04-26T07:16:12.729Z</time></trkpt><trkpt lat="42.8810767" lon="2.8543167"><ele>301.7142857142857</ele><time>2026-04-26T07:16:13.727Z</time></trkpt><trkpt lat="42.8811417" lon="2.8543467"><ele>300.2857142857143</ele><time>2026-04-26T07:16:14.728Z</time></trkpt><trkpt lat="42.88121" lon="2.8543967"><ele>298.85714285714283</ele><time>2026-04-26T07:16:15.727Z</time></trkpt><trkpt lat="42.8812817" lon="2.8544517"><ele>297.42857142857144</ele><time>2026-04-26T07:16:16.728Z</time></trkpt><trkpt lat="42.8813517" lon="2.8545017"><ele>296.0</ele><time>2026-04-26T07:16:17.729Z</time></trkpt><trkpt lat="42.881425" lon="2.8545467"><ele>296.0</ele><time>2026-04-26T07:16:18.729Z</time></trkpt><trkpt lat="42.881505" lon="2.8545917"><ele>296.0</ele><time>2026-04-26T07:16:19.728Z</time></trkpt><trkpt lat="42.8815783" lon="2.8546433"><ele>296.0</ele><time>2026-04-26T07:16:20.728Z</time></trkpt><trkpt lat="42.8816467" lon="2.8546933"><ele>296.0</ele><time>2026-04-26T07:16:21.732Z</time></trkpt><trkpt lat="42.8817167" lon="2.854755"><ele>296.0</ele><time>2026-04-26T07:16:22.73Z</time></trkpt><trkpt lat="42.88179" lon="2.8548267"><ele>296.0</ele><time>2026-04-26T07:16:23.729Z</time></trkpt><trkpt lat="42.881865" lon="2.8549067"><ele>294.8</ele><time>2026-04-26T07:16:24.729Z</time></trkpt><trkpt lat="42.8819383" lon="2.8549883"><ele>293.6</ele><time>2026-04-26T07:16:25.735Z</time></trkpt><trkpt lat="42.8820117" lon="2.8550683"><ele>292.4</ele><time>2026-04-26T07:16:26.731Z</time></trkpt><trkpt lat="42.8820867" lon="2.8551533"><ele>291.2</ele><time>2026-04-26T07:16:27.729Z</time></trkpt><trkpt lat="42.8821667" lon="2.855245"><ele>290.0</ele><time>2026-04-26T07:16:28.729Z</time></trkpt><trkpt lat="42.882255" lon="2.855345"><ele>290.0</ele><time>2026-04-26T07:16:29.73Z</time></trkpt><trkpt lat="42.8823417" lon="2.8554533"><ele>290.0</ele><time>2026-04-26T07:16:30.73Z</time></trkpt><trkpt lat="42.8824233" lon="2.855565"><ele>290.0</ele><time>2026-04-26T07:16:31.727Z</time></trkpt><trkpt lat="42.8824933" lon="2.8556667"><ele>290.0</ele><time>2026-04-26T07:16:32.729Z</time></trkpt><trkpt lat="42.882565" lon="2.8557483"><ele>290.0</ele><time>2026-04-26T07:16:33.728Z</time></trkpt><trkpt lat="42.8826433" lon="2.8558067"><ele>290.0</ele><time>2026-04-26T07:16:34.73Z</time></trkpt><trkpt lat="42.88272" lon="2.8558683"><ele>290.0</ele><time>2026-04-26T07:16:35.728Z</time></trkpt><trkpt lat="42.882795" lon="2.855945"><ele>290.0</ele><time>2026-04-26T07:16:36.729Z</time></trkpt><trkpt lat="42.88287" lon="2.85602"><ele>290.0</ele><time>2026-04-26T07:16:37.733Z</time></trkpt><trkpt lat="42.8829467" lon="2.856085"><ele>290.0</ele><time>2026-04-26T07:16:38.73Z</time></trkpt><trkpt lat="42.8830167" lon="2.856155"><ele>290.0</ele><time>2026-04-26T07:16:39.728Z</time></trkpt><trkpt lat="42.8830833" lon="2.8562133"><ele>290.0</ele><time>2026-04-26T07:16:40.729Z</time></trkpt><trkpt lat="42.8831483" lon="2.8562683"><ele>290.0</ele><time>2026-04-26T07:16:41.728Z</time></trkpt><trkpt lat="42.883225" lon="2.8563167"><ele>290.0</ele><time>2026-04-26T07:16:42.728Z</time></trkpt><trkpt lat="42.8833" lon="2.8563667"><ele>290.0</ele><time>2026-04-26T07:16:43.728Z</time></trkpt><trkpt lat="42.8833783" lon="2.8564183"><ele>290.0</ele><time>2026-04-26T07:16:44.727Z</time></trkpt><trkpt lat="42.88346" lon="2.8564717"><ele>289.6</ele><time>2026-04-26T07:16:45.732Z</time></trkpt><trkpt lat="42.88354" lon="2.8565267"><ele>289.2</ele><time>2026-04-26T07:16:46.729Z</time></trkpt><trkpt lat="42.8836217" lon="2.8565833"><ele>288.8</ele><time>2026-04-26T07:16:47.729Z</time></trkpt><trkpt lat="42.8837067" lon="2.85665"><ele>288.4</ele><time>2026-04-26T07:16:48.73Z</time></trkpt><trkpt lat="42.8837833" lon="2.85672"><ele>288.0</ele><time>2026-04-26T07:16:49.731Z</time></trkpt><trkpt lat="42.8838533" lon="2.8567867"><ele>288.0</ele><time>2026-04-26T07:16:50.728Z</time></trkpt><trkpt lat="42.8839167" lon="2.8568567"><ele>288.0</ele><time>2026-04-26T07:16:51.732Z</time></trkpt><trkpt lat="42.88397" lon="2.85693"><ele>288.0</ele><time>2026-04-26T07:16:52.729Z</time></trkpt><trkpt lat="42.8840133" lon="2.8569983"><ele>288.0</ele><time>2026-04-26T07:16:53.729Z</time></trkpt><trkpt lat="42.8841017" lon="2.8570717"><ele>288.0</ele><time>2026-04-26T07:16:55.735Z</time></trkpt><trkpt lat="42.8842267" lon="2.857055"><ele>287.5</ele><time>2026-04-26T07:16:57.73Z</time></trkpt><trkpt lat="42.8843083" lon="2.8570467"><ele>287.0</ele><time>2026-04-26T07:16:58.728Z</time></trkpt><trkpt lat="42.8843883" lon="2.8570483"><ele>286.5</ele><time>2026-04-26T07:16:59.731Z</time></trkpt><trkpt lat="42.88446" lon="2.857045"><ele>286.0</ele><time>2026-04-26T07:17:00.729Z</time></trkpt><trkpt lat="42.8845217" lon="2.8570233"><ele>285.5</ele><time>2026-04-26T07:17:01.731Z</time></trkpt><trkpt lat="42.884575" lon="2.8569583"><ele>285.0</ele><time>2026-04-26T07:17:02.73Z</time></trkpt><trkpt lat="42.8846333" lon="2.8568717"><ele>285.0</ele><time>2026-04-26T07:17:03.729Z</time></trkpt><trkpt lat="42.8847033" lon="2.8567867"><ele>285.0</ele><time>2026-04-26T07:17:04.728Z</time></trkpt><trkpt lat="42.8847783" lon="2.8567167"><ele>285.0</ele><time>2026-04-26T07:17:05.729Z</time></trkpt><trkpt lat="42.8848483" lon="2.85666"><ele>285.0</ele><time>2026-04-26T07:17:06.731Z</time></trkpt><trkpt lat="42.88492" lon="2.8566117"><ele>285.0</ele><time>2026-04-26T07:17:07.734Z</time></trkpt><trkpt lat="42.8850017" lon="2.8565767"><ele>285.0</ele><time>2026-04-26T07:17:08.729Z</time></trkpt><trkpt lat="42.8850833" lon="2.8565467"><ele>283.0</ele><time>2026-04-26T07:17:09.731Z</time></trkpt><trkpt lat="42.88516" lon="2.85652"><ele>281.0</ele><time>2026-04-26T07:17:10.731Z</time></trkpt><trkpt lat="42.8852283" lon="2.8565033"><ele>279.0</ele><time>2026-04-26T07:17:11.731Z</time></trkpt><trkpt lat="42.8852967" lon="2.8564967"><ele>277.0</ele><time>2026-04-26T07:17:12.73Z</time></trkpt><trkpt lat="42.885405" lon="2.8565333"><ele>275.0</ele><time>2026-04-26T07:17:14.729Z</time></trkpt><trkpt lat="42.8854767" lon="2.8565433"><ele>273.0</ele><time>2026-04-26T07:17:16.73Z</time></trkpt><trkpt lat="42.8855133" lon="2.85646"><ele>273.0</ele><time>2026-04-26T07:17:19.729Z</time></trkpt><trkpt lat="42.8855" lon="2.856325"><ele>273.0</ele><time>2026-04-26T07:17:21.728Z</time></trkpt><trkpt lat="42.8854833" lon="2.85624"><ele>273.0</ele><time>2026-04-26T07:17:22.729Z</time></trkpt><trkpt lat="42.8854567" lon="2.8561467"><ele>273.0</ele><time>2026-04-26T07:17:23.731Z</time></trkpt><trkpt lat="42.88542" lon="2.8560483"><ele>273.0</ele><time>2026-04-26T07:17:24.731Z</time></trkpt><trkpt lat="42.8853917" lon="2.855945"><ele>273.0</ele><time>2026-04-26T07:17:25.73Z</time></trkpt><trkpt lat="42.8853617" lon="2.8558517"><ele>272.8</ele><time>2026-04-26T07:17:26.729Z</time></trkpt><trkpt lat="42.8853317" lon="2.8557633"><ele>272.6</ele><time>2026-04-26T07:17:27.727Z</time></trkpt><trkpt lat="42.8853133" lon="2.8556767"><ele>272.4</ele><time>2026-04-26T07:17:28.729Z</time></trkpt><trkpt lat="42.8852867" lon="2.855515"><ele>272.2</ele><time>2026-04-26T07:17:30.729Z</time></trkpt><trkpt lat="42.8852733" lon="2.8553483"><ele>272.0</ele><time>2026-04-26T07:17:32.728Z</time></trkpt><trkpt lat="42.8852717" lon="2.8552533"><ele>272.0</ele><time>2026-04-26T07:17:33.728Z</time></trkpt><trkpt lat="42.8852683" lon="2.8551533"><ele>272.0</ele><time>2026-04-26T07:17:34.729Z</time></trkpt><trkpt lat="42.8852617" lon="2.8550533"><ele>272.0</ele><time>2026-04-26T07:17:35.73Z</time></trkpt><trkpt lat="42.885255" lon="2.8549583"><ele>272.0</ele><time>2026-04-26T07:17:36.731Z</time></trkpt><trkpt lat="42.8852467" lon="2.8548167"><ele>272.0</ele><time>2026-04-26T07:17:38.729Z</time></trkpt><trkpt lat="42.88526" lon="2.854705"><ele>272.0</ele><time>2026-04-26T07:17:40.728Z</time></trkpt><trkpt lat="42.8853167" lon="2.8545967"><ele>271.33333333333337</ele><time>2026-04-26T07:17:42.729Z</time></trkpt><trkpt lat="42.88541" lon="2.854555"><ele>270.6666666666667</ele><time>2026-04-26T07:17:44.728Z</time></trkpt><trkpt lat="42.88548" lon="2.854565"><ele>270.0</ele><time>2026-04-26T07:17:45.727Z</time></trkpt><trkpt lat="42.88556" lon="2.8545883"><ele>269.3333333333333</ele><time>2026-04-26T07:17:46.727Z</time></trkpt><trkpt lat="42.8856433" lon="2.85461"><ele>268.66666666666663</ele><time>2026-04-26T07:17:47.728Z</time></trkpt><trkpt lat="42.8857233" lon="2.8546283"><ele>268.0</ele><time>2026-04-26T07:17:48.73Z</time></trkpt><trkpt lat="42.8857933" lon="2.85464"><ele>268.0</ele><time>2026-04-26T07:17:49.729Z</time></trkpt><trkpt lat="42.8858583" lon="2.8546517"><ele>268.0</ele><time>2026-04-26T07:17:50.73Z</time></trkpt><trkpt lat="42.8859217" lon="2.8546667"><ele>268.0</ele><time>2026-04-26T07:17:51.728Z</time></trkpt><trkpt lat="42.88603" lon="2.8547017"><ele>268.0</ele><time>2026-04-26T07:17:53.73Z</time></trkpt><trkpt lat="42.8861433" lon="2.8547633"><ele>268.0</ele><time>2026-04-26T07:17:55.73Z</time></trkpt><trkpt lat="42.8862117" lon="2.8548083"><ele>268.0</ele><time>2026-04-26T07:17:56.73Z</time></trkpt><trkpt lat="42.88629" lon="2.8548483"><ele>267.8333333333333</ele><time>2026-04-26T07:17:57.728Z</time></trkpt><trkpt lat="42.8863617" lon="2.854885"><ele>267.66666666666663</ele><time>2026-04-26T07:17:58.729Z</time></trkpt><trkpt lat="42.8864283" lon="2.85491"><ele>267.5</ele><time>2026-04-26T07:17:59.728Z</time></trkpt><trkpt lat="42.8865383" lon="2.8549617"><ele>267.3333333333333</ele><time>2026-04-26T07:18:01.728Z</time></trkpt><trkpt lat="42.8866183" lon="2.855045"><ele>267.1666666666667</ele><time>2026-04-26T07:18:03.729Z</time></trkpt><trkpt lat="42.88665" lon="2.8551367"><ele>267.0</ele><time>2026-04-26T07:18:05.729Z</time></trkpt><trkpt lat="42.8866533" lon="2.85524"><ele>266.8571428571429</ele><time>2026-04-26T07:18:07.729Z</time></trkpt><trkpt lat="42.886635" lon="2.855345"><ele>266.7142857142857</ele><time>2026-04-26T07:18:09.731Z</time></trkpt><trkpt lat="42.8866133" lon="2.85545"><ele>266.57142857142856</ele><time>2026-04-26T07:18:11.731Z</time></trkpt><trkpt lat="42.88661" lon="2.8555433"><ele>266.42857142857144</ele><time>2026-04-26T07:18:13.73Z</time></trkpt><trkpt lat="42.8866117" lon="2.8556433"><ele>266.2857142857143</ele><time>2026-04-26T07:18:15.731Z</time></trkpt><trkpt lat="42.8865933" lon="2.8557417"><ele>266.14285714285717</ele><time>2026-04-26T07:18:17.73Z</time></trkpt><trkpt lat="42.8865617" lon="2.8558283"><ele>266.0</ele><time>2026-04-26T07:18:19.73Z</time></trkpt><trkpt lat="42.886545" lon="2.8559133"><ele>266.33333333333337</ele><time>2026-04-26T07:18:21.727Z</time></trkpt><trkpt lat="42.886565" lon="2.8560017"><ele>266.6666666666667</ele><time>2026-04-26T07:18:23.73Z</time></trkpt><trkpt lat="42.8866117" lon="2.8560783"><ele>267.0</ele><time>2026-04-26T07:18:25.729Z</time></trkpt><trkpt lat="42.88669" lon="2.856085"><ele>267.3333333333333</ele><time>2026-04-26T07:18:27.734Z</time></trkpt><trkpt lat="42.8867833" lon="2.8560567"><ele>267.66666666666663</ele><time>2026-04-26T07:18:29.729Z</time></trkpt><trkpt lat="42.8868767" lon="2.8560017"><ele>268.0</ele><time>2026-04-26T07:18:31.728Z</time></trkpt><trkpt lat="42.8869567" lon="2.8559733"><ele>269.3333333333333</ele><time>2026-04-26T07:18:33.728Z</time></trkpt><trkpt lat="42.8870367" lon="2.8559417"><ele>270.66666666666663</ele><time>2026-04-26T07:18:35.73Z</time></trkpt><trkpt lat="42.88711" lon="2.8558917"><ele>272.0</ele><time>2026-04-26T07:18:37.734Z</time></trkpt><trkpt lat="42.8871717" lon="2.8558117"><ele>273.3333333333333</ele><time>2026-04-26T07:18:39.728Z</time></trkpt><trkpt lat="42.887225" lon="2.85576"><ele>274.6666666666667</ele><time>2026-04-26T07:18:41.729Z</time></trkpt><trkpt lat="42.887255" lon="2.855865"><ele>276.0</ele><time>2026-04-26T07:18:44.729Z</time></trkpt><trkpt lat="42.8872667" lon="2.8560017"><ele>276.0</ele><time>2026-04-26T07:18:46.73Z</time></trkpt><trkpt lat="42.8873067" lon="2.8561333"><ele>276.0</ele><time>2026-04-26T07:18:48.729Z</time></trkpt><trkpt lat="42.8873333" lon="2.856225"><ele>276.0</ele><time>2026-04-26T07:18:50.731Z</time></trkpt><trkpt lat="42.8873383" lon="2.8563467"><ele>276.0</ele><time>2026-04-26T07:18:52.729Z</time></trkpt><trkpt lat="42.88734" lon="2.8565117"><ele>276.0</ele><time>2026-04-26T07:18:54.728Z</time></trkpt><trkpt lat="42.8873383" lon="2.8566567"><ele>276.0</ele><time>2026-04-26T07:18:56.73Z</time></trkpt><trkpt lat="42.8873017" lon="2.856765"><ele>276.0</ele><time>2026-04-26T07:18:58.728Z</time></trkpt><trkpt lat="42.8872833" lon="2.8568883"><ele>276.0</ele><time>2026-04-26T07:19:00.73Z</time></trkpt><trkpt lat="42.8872917" lon="2.8570383"><ele>276.0</ele><time>2026-04-26T07:19:02.729Z</time></trkpt><trkpt lat="42.8873083" lon="2.8571567"><ele>276.0</ele><time>2026-04-26T07:19:04.73Z</time></trkpt><trkpt lat="42.8873667" lon="2.857275"><ele>275.0</ele><time>2026-04-26T07:19:06.729Z</time></trkpt><trkpt lat="42.887445" lon="2.8574"><ele>274.0</ele><time>2026-04-26T07:19:08.729Z</time></trkpt><trkpt lat="42.8875083" lon="2.857545"><ele>273.0</ele><time>2026-04-26T07:19:10.728Z</time></trkpt><trkpt lat="42.8875783" lon="2.8576933"><ele>272.0</ele><time>2026-04-26T07:19:12.729Z</time></trkpt><trkpt lat="42.88762" lon="2.85776"><ele>271.0</ele><time>2026-04-26T07:19:13.728Z</time></trkpt><trkpt lat="42.887685" lon="2.8578667"><ele>271.0</ele><time>2026-04-26T07:19:15.73Z</time></trkpt><trkpt lat="42.8877517" lon="2.8579217"><ele>271.0</ele><time>2026-04-26T07:19:17.73Z</time></trkpt><trkpt lat="42.8878183" lon="2.8578883"><ele>271.0</ele><time>2026-04-26T07:19:19.728Z</time></trkpt><trkpt lat="42.887885" lon="2.857865"><ele>271.0</ele><time>2026-04-26T07:19:20.731Z</time></trkpt><trkpt lat="42.8879867" lon="2.8579167"><ele>271.0</ele><time>2026-04-26T07:19:22.728Z</time></trkpt><trkpt lat="42.88803" lon="2.8579867"><ele>271.0</ele><time>2026-04-26T07:19:23.728Z</time></trkpt><trkpt lat="42.8880767" lon="2.8580567"><ele>271.0</ele><time>2026-04-26T07:19:24.73Z</time></trkpt><trkpt lat="42.888185" lon="2.858125"><ele>271.0</ele><time>2026-04-26T07:19:26.728Z</time></trkpt><trkpt lat="42.8882533" lon="2.8581483"><ele>271.0</ele><time>2026-04-26T07:19:27.734Z</time></trkpt><trkpt lat="42.8883233" lon="2.8581833"><ele>271.0</ele><time>2026-04-26T07:19:28.729Z</time></trkpt><trkpt lat="42.8883917" lon="2.85823"><ele>271.0</ele><time>2026-04-26T07:19:29.732Z</time></trkpt><trkpt lat="42.88847" lon="2.8582733"><ele>271.0</ele><time>2026-04-26T07:19:30.728Z</time></trkpt><trkpt lat="42.8885567" lon="2.8583"><ele>271.0</ele><time>2026-04-26T07:19:31.728Z</time></trkpt><trkpt lat="42.88865" lon="2.85831"><ele>271.0</ele><time>2026-04-26T07:19:32.729Z</time></trkpt><trkpt lat="42.8887217" lon="2.8583183"><ele>271.0</ele><time>2026-04-26T07:19:33.727Z</time></trkpt><trkpt lat="42.8888083" lon="2.8583717"><ele>271.0</ele><time>2026-04-26T07:19:35.73Z</time></trkpt><trkpt lat="42.88881" lon="2.8584933"><ele>271.0</ele><time>2026-04-26T07:19:37.728Z</time></trkpt><trkpt lat="42.88878" lon="2.8585717"><ele>271.0</ele><time>2026-04-26T07:19:38.728Z</time></trkpt><trkpt lat="42.88875" lon="2.8586533"><ele>271.66666666666663</ele><time>2026-04-26T07:19:39.729Z</time></trkpt><trkpt lat="42.8887367" lon="2.8587433"><ele>272.3333333333333</ele><time>2026-04-26T07:19:40.73Z</time></trkpt><trkpt lat="42.8887717" lon="2.858885"><ele>273.0</ele><time>2026-04-26T07:19:42.728Z</time></trkpt><trkpt lat="42.8888433" lon="2.8589167"><ele>273.6666666666667</ele><time>2026-04-26T07:19:43.728Z</time></trkpt><trkpt lat="42.8889233" lon="2.8589467"><ele>274.33333333333337</ele><time>2026-04-26T07:19:44.731Z</time></trkpt><trkpt lat="42.8889933" lon="2.8589983"><ele>275.0</ele><time>2026-04-26T07:19:45.73Z</time></trkpt><trkpt lat="42.8890583" lon="2.8590733"><ele>275.0</ele><time>2026-04-26T07:19:46.729Z</time></trkpt><trkpt lat="42.889125" lon="2.85915"><ele>275.0</ele><time>2026-04-26T07:19:47.73Z</time></trkpt><trkpt lat="42.88919" lon="2.859205"><ele>275.0</ele><time>2026-04-26T07:19:48.728Z</time></trkpt><trkpt lat="42.8892983" lon="2.8592367"><ele>275.0</ele><time>2026-04-26T07:19:50.729Z</time></trkpt><trkpt lat="42.889385" lon="2.8591117"><ele>275.0</ele><time>2026-04-26T07:19:52.727Z</time></trkpt><trkpt lat="42.8894367" lon="2.8590183"><ele>277.4</ele><time>2026-04-26T07:19:53.729Z</time></trkpt><trkpt lat="42.8895" lon="2.858935"><ele>279.8</ele><time>2026-04-26T07:19:54.728Z</time></trkpt><trkpt lat="42.8895717" lon="2.858855"><ele>282.2</ele><time>2026-04-26T07:19:55.729Z</time></trkpt><trkpt lat="42.889645" lon="2.8587633"><ele>284.6</ele><time>2026-04-26T07:19:56.73Z</time></trkpt><trkpt lat="42.8897183" lon="2.8586567"><ele>287.0</ele><time>2026-04-26T07:19:57.727Z</time></trkpt><trkpt lat="42.8897867" lon="2.858545"><ele>287.0</ele><time>2026-04-26T07:19:58.728Z</time></trkpt><trkpt lat="42.8898483" lon="2.858445"><ele>287.0</ele><time>2026-04-26T07:19:59.729Z</time></trkpt><trkpt lat="42.8898983" lon="2.85837"><ele>287.0</ele><time>2026-04-26T07:20:00.73Z</time></trkpt><trkpt lat="42.88996" lon="2.8582833"><ele>287.0</ele><time>2026-04-26T07:20:02.729Z</time></trkpt><trkpt lat="42.8899867" lon="2.85837"><ele>287.0</ele><time>2026-04-26T07:20:04.729Z</time></trkpt><trkpt lat="42.8899517" lon="2.8585167"><ele>287.0</ele><time>2026-04-26T07:20:06.728Z</time></trkpt><trkpt lat="42.8899183" lon="2.8586017"><ele>287.0</ele><time>2026-04-26T07:20:07.729Z</time></trkpt><trkpt lat="42.8898883" lon="2.8586933"><ele>287.0</ele><time>2026-04-26T07:20:08.729Z</time></trkpt><trkpt lat="42.8898683" lon="2.8588"><ele>287.0</ele><time>2026-04-26T07:20:09.728Z</time></trkpt><trkpt lat="42.88986" lon="2.858925"><ele>287.0</ele><time>2026-04-26T07:20:10.728Z</time></trkpt><trkpt lat="42.8898583" lon="2.8590567"><ele>287.0</ele><time>2026-04-26T07:20:11.731Z</time></trkpt><trkpt lat="42.8898633" lon="2.8591917"><ele>287.0</ele><time>2026-04-26T07:20:12.73Z</time></trkpt><trkpt lat="42.8898867" lon="2.85932"><ele>287.0</ele><time>2026-04-26T07:20:13.727Z</time></trkpt><trkpt lat="42.88992" lon="2.8594383"><ele>287.0</ele><time>2026-04-26T07:20:14.729Z</time></trkpt><trkpt lat="42.8899633" lon="2.859545"><ele>287.0</ele><time>2026-04-26T07:20:15.729Z</time></trkpt><trkpt lat="42.8900217" lon="2.8596533"><ele>287.0</ele><time>2026-04-26T07:20:16.728Z</time></trkpt><trkpt lat="42.890085" lon="2.8597633"><ele>287.0</ele><time>2026-04-26T07:20:17.729Z</time></trkpt><trkpt lat="42.890155" lon="2.8598767"><ele>291.0</ele><time>2026-04-26T07:20:18.731Z</time></trkpt><trkpt lat="42.8902417" lon="2.8599917"><ele>295.0</ele><time>2026-04-26T07:20:19.729Z</time></trkpt><trkpt lat="42.8903367" lon="2.8601067"><ele>299.0</ele><time>2026-04-26T07:20:20.728Z</time></trkpt><trkpt lat="42.89043" lon="2.8602283"><ele>303.0</ele><time>2026-04-26T07:20:21.73Z</time></trkpt><trkpt lat="42.8905067" lon="2.8603583"><ele>303.0</ele><time>2026-04-26T07:20:22.729Z</time></trkpt><trkpt lat="42.890575" lon="2.86049"><ele>303.0</ele><time>2026-04-26T07:20:23.728Z</time></trkpt><trkpt lat="42.8906467" lon="2.8606217"><ele>303.0</ele><time>2026-04-26T07:20:24.727Z</time></trkpt><trkpt lat="42.89073" lon="2.8607383"><ele>303.0</ele><time>2026-04-26T07:20:25.729Z</time></trkpt><trkpt lat="42.89082" lon="2.8608367"><ele>303.0</ele><time>2026-04-26T07:20:26.729Z</time></trkpt><trkpt lat="42.8909033" lon="2.8609383"><ele>303.0</ele><time>2026-04-26T07:20:27.728Z</time></trkpt><trkpt lat="42.8909833" lon="2.8610533"><ele>303.0</ele><time>2026-04-26T07:20:28.729Z</time></trkpt><trkpt lat="42.8910617" lon="2.861175"><ele>303.0</ele><time>2026-04-26T07:20:29.729Z</time></trkpt><trkpt lat="42.8911417" lon="2.86129"><ele>305.5</ele><time>2026-04-26T07:20:30.729Z</time></trkpt><trkpt lat="42.8912283" lon="2.8614033"><ele>308.0</ele><time>2026-04-26T07:20:31.728Z</time></trkpt><trkpt lat="42.89134" lon="2.8614983"><ele>310.5</ele><time>2026-04-26T07:20:32.728Z</time></trkpt><trkpt lat="42.8914283" lon="2.86159"><ele>313.0</ele><time>2026-04-26T07:20:33.729Z</time></trkpt><trkpt lat="42.8915033" lon="2.8616817"><ele>313.0</ele><time>2026-04-26T07:20:34.729Z</time></trkpt><trkpt lat="42.8915933" lon="2.86177"><ele>313.0</ele><time>2026-04-26T07:20:35.729Z</time></trkpt><trkpt lat="42.891695" lon="2.8618567"><ele>313.0</ele><time>2026-04-26T07:20:36.73Z</time></trkpt><trkpt lat="42.89179" lon="2.861945"><ele>313.0</ele><time>2026-04-26T07:20:37.728Z</time></trkpt><trkpt lat="42.8918783" lon="2.8620367"><ele>312.8333333333333</ele><time>2026-04-26T07:20:38.728Z</time></trkpt><trkpt lat="42.8919633" lon="2.8621217"><ele>312.66666666666663</ele><time>2026-04-26T07:20:39.73Z</time></trkpt><trkpt lat="42.8920333" lon="2.8621983"><ele>312.5</ele><time>2026-04-26T07:20:40.728Z</time></trkpt><trkpt lat="42.8920833" lon="2.8622633"><ele>312.3333333333333</ele><time>2026-04-26T07:20:41.728Z</time></trkpt><trkpt lat="42.8921217" lon="2.8623633"><ele>312.1666666666667</ele><time>2026-04-26T07:20:43.728Z</time></trkpt><trkpt lat="42.892085" lon="2.862465"><ele>312.0</ele><time>2026-04-26T07:20:45.729Z</time></trkpt><trkpt lat="42.8920267" lon="2.862595"><ele>313.0</ele><time>2026-04-26T07:20:47.728Z</time></trkpt><trkpt lat="42.8920333" lon="2.8626983"><ele>314.0</ele><time>2026-04-26T07:20:48.727Z</time></trkpt><trkpt lat="42.8920567" lon="2.86281"><ele>315.0</ele><time>2026-04-26T07:20:49.727Z</time></trkpt><trkpt lat="42.8920833" lon="2.862905"><ele>316.0</ele><time>2026-04-26T07:20:50.731Z</time></trkpt><trkpt lat="42.8921267" lon="2.8629717"><ele>317.0</ele><time>2026-04-26T07:20:51.728Z</time></trkpt><trkpt lat="42.8921817" lon="2.86304"><ele>318.0</ele><time>2026-04-26T07:20:52.727Z</time></trkpt><trkpt lat="42.8922517" lon="2.863115"><ele>318.0</ele><time>2026-04-26T07:20:53.729Z</time></trkpt><trkpt lat="42.8923233" lon="2.863195"><ele>318.0</ele><time>2026-04-26T07:20:54.73Z</time></trkpt><trkpt lat="42.892395" lon="2.86327"><ele>318.0</ele><time>2026-04-26T07:20:55.729Z</time></trkpt><trkpt lat="42.8924783" lon="2.863335"><ele>318.0</ele><time>2026-04-26T07:20:56.729Z</time></trkpt><trkpt lat="42.89255" lon="2.8633817"><ele>318.0</ele><time>2026-04-26T07:20:57.729Z</time></trkpt><trkpt lat="42.8926233" lon="2.8634217"><ele>318.0</ele><time>2026-04-26T07:20:58.728Z</time></trkpt><trkpt lat="42.8926867" lon="2.86347"><ele>317.8333333333333</ele><time>2026-04-26T07:20:59.728Z</time></trkpt><trkpt lat="42.8927433" lon="2.8635433"><ele>317.6666666666667</ele><time>2026-04-26T07:21:00.73Z</time></trkpt><trkpt lat="42.8927933" lon="2.8636333"><ele>317.5</ele><time>2026-04-26T07:21:01.729Z</time></trkpt><trkpt lat="42.892845" lon="2.86372"><ele>317.33333333333337</ele><time>2026-04-26T07:21:02.729Z</time></trkpt><trkpt lat="42.8928967" lon="2.863785"><ele>317.1666666666667</ele><time>2026-04-26T07:21:03.728Z</time></trkpt><trkpt lat="42.89296" lon="2.8638183"><ele>317.0</ele><time>2026-04-26T07:21:04.73Z</time></trkpt><trkpt lat="42.8930317" lon="2.8638433"><ele>317.0</ele><time>2026-04-26T07:21:05.73Z</time></trkpt><trkpt lat="42.893105" lon="2.86386"><ele>317.0</ele><time>2026-04-26T07:21:06.729Z</time></trkpt><trkpt lat="42.89319" lon="2.8638533"><ele>317.0</ele><time>2026-04-26T07:21:07.73Z</time></trkpt><trkpt lat="42.8932833" lon="2.8638367"><ele>317.0</ele><time>2026-04-26T07:21:08.728Z</time></trkpt><trkpt lat="42.893375" lon="2.86384"><ele>317.0</ele><time>2026-04-26T07:21:09.728Z</time></trkpt><trkpt lat="42.8934633" lon="2.863855"><ele>317.0</ele><time>2026-04-26T07:21:10.732Z</time></trkpt><trkpt lat="42.89354" lon="2.863865"><ele>316.1666666666667</ele><time>2026-04-26T07:21:11.73Z</time></trkpt><trkpt lat="42.893615" lon="2.863875"><ele>315.33333333333337</ele><time>2026-04-26T07:21:12.728Z</time></trkpt><trkpt lat="42.89369" lon="2.8639133"><ele>314.5</ele><time>2026-04-26T07:21:13.729Z</time></trkpt><trkpt lat="42.893775" lon="2.8639683"><ele>313.6666666666667</ele><time>2026-04-26T07:21:14.73Z</time></trkpt><trkpt lat="42.89386" lon="2.8640317"><ele>312.8333333333333</ele><time>2026-04-26T07:21:15.729Z</time></trkpt><trkpt lat="42.8939283" lon="2.864095"><ele>312.0</ele><time>2026-04-26T07:21:16.728Z</time></trkpt><trkpt lat="42.89398" lon="2.8641717"><ele>312.0</ele><time>2026-04-26T07:21:17.728Z</time></trkpt><trkpt lat="42.89402" lon="2.8642683"><ele>312.0</ele><time>2026-04-26T07:21:18.728Z</time></trkpt><trkpt lat="42.894065" lon="2.8643583"><ele>312.0</ele><time>2026-04-26T07:21:19.73Z</time></trkpt><trkpt lat="42.8941133" lon="2.86444"><ele>312.0</ele><time>2026-04-26T07:21:20.729Z</time></trkpt><trkpt lat="42.8941733" lon="2.86451"><ele>312.0</ele><time>2026-04-26T07:21:21.728Z</time></trkpt><trkpt lat="42.894255" lon="2.8645683"><ele>312.0</ele><time>2026-04-26T07:21:22.729Z</time></trkpt><trkpt lat="42.8943533" lon="2.8646217"><ele>312.0</ele><time>2026-04-26T07:21:23.729Z</time></trkpt><trkpt lat="42.894455" lon="2.8646883"><ele>312.0</ele><time>2026-04-26T07:21:24.729Z</time></trkpt><trkpt lat="42.8945483" lon="2.8647733"><ele>312.0</ele><time>2026-04-26T07:21:25.729Z</time></trkpt><trkpt lat="42.89464" lon="2.8648633"><ele>312.0</ele><time>2026-04-26T07:21:26.729Z</time></trkpt><trkpt lat="42.8947267" lon="2.8649483"><ele>312.0</ele><time>2026-04-26T07:21:27.728Z</time></trkpt><trkpt lat="42.89481" lon="2.8650333"><ele>312.1666666666667</ele><time>2026-04-26T07:21:28.728Z</time></trkpt><trkpt lat="42.89489" lon="2.865115"><ele>312.3333333333333</ele><time>2026-04-26T07:21:29.73Z</time></trkpt><trkpt lat="42.8949583" lon="2.8651917"><ele>312.5</ele><time>2026-04-26T07:21:30.728Z</time></trkpt><trkpt lat="42.8950267" lon="2.8652517"><ele>312.66666666666663</ele><time>2026-04-26T07:21:31.729Z</time></trkpt><trkpt lat="42.8950917" lon="2.865295"><ele>312.8333333333333</ele><time>2026-04-26T07:21:32.729Z</time></trkpt><trkpt lat="42.8951517" lon="2.8653317"><ele>313.0</ele><time>2026-04-26T07:21:33.728Z</time></trkpt><trkpt lat="42.8952517" lon="2.8653417"><ele>312.3333333333333</ele><time>2026-04-26T07:21:35.729Z</time></trkpt><trkpt lat="42.8953183" lon="2.8652433"><ele>311.66666666666663</ele><time>2026-04-26T07:21:37.73Z</time></trkpt><trkpt lat="42.89533" lon="2.8651583"><ele>311.0</ele><time>2026-04-26T07:21:38.73Z</time></trkpt><trkpt lat="42.8953333" lon="2.865045"><ele>310.3333333333333</ele><time>2026-04-26T07:21:39.728Z</time></trkpt><trkpt lat="42.8953317" lon="2.864925"><ele>309.6666666666667</ele><time>2026-04-26T07:21:40.732Z</time></trkpt><trkpt lat="42.8953283" lon="2.8647967"><ele>309.0</ele><time>2026-04-26T07:21:41.73Z</time></trkpt><trkpt lat="42.89532" lon="2.86467"><ele>308.6666666666667</ele><time>2026-04-26T07:21:42.728Z</time></trkpt><trkpt lat="42.895305" lon="2.8645517"><ele>308.3333333333333</ele><time>2026-04-26T07:21:43.729Z</time></trkpt><trkpt lat="42.895285" lon="2.8644417"><ele>308.0</ele><time>2026-04-26T07:21:44.73Z</time></trkpt><trkpt lat="42.895275" lon="2.8643383"><ele>307.66666666666663</ele><time>2026-04-26T07:21:45.728Z</time></trkpt><trkpt lat="42.895285" lon="2.8642417"><ele>307.3333333333333</ele><time>2026-04-26T07:21:46.728Z</time></trkpt><trkpt lat="42.8953233" lon="2.8641667"><ele>307.0</ele><time>2026-04-26T07:21:47.731Z</time></trkpt><trkpt lat="42.895385" lon="2.8641183"><ele>307.0</ele><time>2026-04-26T07:21:48.73Z</time></trkpt><trkpt lat="42.8954617" lon="2.8641017"><ele>307.0</ele><time>2026-04-26T07:21:49.73Z</time></trkpt><trkpt lat="42.89555" lon="2.864115"><ele>307.0</ele><time>2026-04-26T07:21:50.731Z</time></trkpt><trkpt lat="42.8956367" lon="2.8641533"><ele>307.0</ele><time>2026-04-26T07:21:51.731Z</time></trkpt><trkpt lat="42.8957167" lon="2.8642117"><ele>307.0</ele><time>2026-04-26T07:21:52.73Z</time></trkpt><trkpt lat="42.8957983" lon="2.8642917"><ele>307.0</ele><time>2026-04-26T07:21:53.73Z</time></trkpt><trkpt lat="42.8958867" lon="2.8643817"><ele>306.2</ele><time>2026-04-26T07:21:54.729Z</time></trkpt><trkpt lat="42.89598" lon="2.86447"><ele>305.4</ele><time>2026-04-26T07:21:55.729Z</time></trkpt><trkpt lat="42.8960733" lon="2.8645533"><ele>304.6</ele><time>2026-04-26T07:21:56.728Z</time></trkpt><trkpt lat="42.8961633" lon="2.8646317"><ele>303.8</ele><time>2026-04-26T07:21:57.732Z</time></trkpt><trkpt lat="42.8962533" lon="2.8647033"><ele>303.0</ele><time>2026-04-26T07:21:58.728Z</time></trkpt><trkpt lat="42.89634" lon="2.8647533"><ele>303.0</ele><time>2026-04-26T07:21:59.728Z</time></trkpt><trkpt lat="42.8964283" lon="2.8647617"><ele>303.0</ele><time>2026-04-26T07:22:00.728Z</time></trkpt><trkpt lat="42.8965117" lon="2.86472"><ele>303.0</ele><time>2026-04-26T07:22:01.729Z</time></trkpt><trkpt lat="42.8965833" lon="2.864635"><ele>303.0</ele><time>2026-04-26T07:22:02.729Z</time></trkpt><trkpt lat="42.8966417" lon="2.8645183"><ele>303.0</ele><time>2026-04-26T07:22:03.737Z</time></trkpt><trkpt lat="42.8967" lon="2.8643917"><ele>303.25</ele><time>2026-04-26T07:22:04.728Z</time></trkpt><trkpt lat="42.89676" lon="2.8642633"><ele>303.5</ele><time>2026-04-26T07:22:05.73Z</time></trkpt><trkpt lat="42.8968133" lon="2.8641217"><ele>303.75</ele><time>2026-04-26T07:22:06.729Z</time></trkpt><trkpt lat="42.896855" lon="2.863965"><ele>304.0</ele><time>2026-04-26T07:22:07.728Z</time></trkpt><trkpt lat="42.8968883" lon="2.8638017"><ele>304.0</ele><time>2026-04-26T07:22:08.729Z</time></trkpt><trkpt lat="42.89692" lon="2.863645"><ele>304.0</ele><time>2026-04-26T07:22:09.729Z</time></trkpt><trkpt lat="42.8969433" lon="2.8634983"><ele>304.0</ele><time>2026-04-26T07:22:10.729Z</time></trkpt><trkpt lat="42.8969533" lon="2.8633517"><ele>304.0</ele><time>2026-04-26T07:22:11.729Z</time></trkpt><trkpt lat="42.896945" lon="2.86321"><ele>304.0</ele><time>2026-04-26T07:22:12.728Z</time></trkpt><trkpt lat="42.8969233" lon="2.8630767"><ele>303.4</ele><time>2026-04-26T07:22:13.73Z</time></trkpt><trkpt lat="42.8969033" lon="2.8629367"><ele>302.79999999999995</ele><time>2026-04-26T07:22:14.732Z</time></trkpt><trkpt lat="42.89691" lon="2.8627933"><ele>302.20000000000005</ele><time>2026-04-26T07:22:15.732Z</time></trkpt><trkpt lat="42.896945" lon="2.8626533"><ele>301.6</ele><time>2026-04-26T07:22:16.73Z</time></trkpt><trkpt lat="42.8969967" lon="2.862515"><ele>301.0</ele><time>2026-04-26T07:22:17.735Z</time></trkpt><trkpt lat="42.89706" lon="2.8623817"><ele>300.6</ele><time>2026-04-26T07:22:18.732Z</time></trkpt><trkpt lat="42.897125" lon="2.8622567"><ele>300.20000000000005</ele><time>2026-04-26T07:22:19.73Z</time></trkpt><trkpt lat="42.8971767" lon="2.86213"><ele>299.79999999999995</ele><time>2026-04-26T07:22:20.731Z</time></trkpt><trkpt lat="42.8972" lon="2.8620017"><ele>299.4</ele><time>2026-04-26T07:22:21.729Z</time></trkpt><trkpt lat="42.8971933" lon="2.861865"><ele>299.0</ele><time>2026-04-26T07:22:22.729Z</time></trkpt><trkpt lat="42.89716" lon="2.8617317"><ele>299.0</ele><time>2026-04-26T07:22:23.729Z</time></trkpt><trkpt lat="42.897105" lon="2.8615933"><ele>299.0</ele><time>2026-04-26T07:22:24.728Z</time></trkpt><trkpt lat="42.8970383" lon="2.861445"><ele>299.0</ele><time>2026-04-26T07:22:25.73Z</time></trkpt><trkpt lat="42.8969717" lon="2.8612833"><ele>299.0</ele><time>2026-04-26T07:22:26.731Z</time></trkpt><trkpt lat="42.8969167" lon="2.8611083"><ele>299.0</ele><time>2026-04-26T07:22:27.729Z</time></trkpt><trkpt lat="42.8968617" lon="2.860925"><ele>299.0</ele><time>2026-04-26T07:22:28.729Z</time></trkpt><trkpt lat="42.896815" lon="2.8607317"><ele>299.0</ele><time>2026-04-26T07:22:29.73Z</time></trkpt><trkpt lat="42.8967867" lon="2.8605283"><ele>299.0</ele><time>2026-04-26T07:22:30.73Z</time></trkpt><trkpt lat="42.8967633" lon="2.86032"><ele>297.0</ele><time>2026-04-26T07:22:31.731Z</time></trkpt><trkpt lat="42.89674" lon="2.8601083"><ele>295.0</ele><time>2026-04-26T07:22:32.73Z</time></trkpt><trkpt lat="42.8967133" lon="2.8598967"><ele>293.0</ele><time>2026-04-26T07:22:33.73Z</time></trkpt><trkpt lat="42.8966883" lon="2.8596883"><ele>293.0</ele><time>2026-04-26T07:22:34.731Z</time></trkpt><trkpt lat="42.8966683" lon="2.8594867"><ele>293.0</ele><time>2026-04-26T07:22:35.731Z</time></trkpt><trkpt lat="42.89665" lon="2.8592983"><ele>293.0</ele><time>2026-04-26T07:22:36.73Z</time></trkpt><trkpt lat="42.8966333" lon="2.8591333"><ele>293.0</ele><time>2026-04-26T07:22:37.73Z</time></trkpt><trkpt lat="42.8966217" lon="2.8589817"><ele>293.4</ele><time>2026-04-26T07:22:38.728Z</time></trkpt><trkpt lat="42.89663" lon="2.858845"><ele>293.8</ele><time>2026-04-26T07:22:39.73Z</time></trkpt><trkpt lat="42.8966733" lon="2.8587117"><ele>294.2</ele><time>2026-04-26T07:22:40.73Z</time></trkpt><trkpt lat="42.896725" lon="2.8585683"><ele>294.6</ele><time>2026-04-26T07:22:41.729Z</time></trkpt><trkpt lat="42.8967767" lon="2.8584133"><ele>295.0</ele><time>2026-04-26T07:22:42.729Z</time></trkpt><trkpt lat="42.8968317" lon="2.8582533"><ele>295.25</ele><time>2026-04-26T07:22:43.73Z</time></trkpt><trkpt lat="42.89689" lon="2.8580917"><ele>295.5</ele><time>2026-04-26T07:22:44.728Z</time></trkpt><trkpt lat="42.89695" lon="2.85793"><ele>295.75</ele><time>2026-04-26T07:22:45.731Z</time></trkpt><trkpt lat="42.8970083" lon="2.857765"><ele>296.0</ele><time>2026-04-26T07:22:46.729Z</time></trkpt><trkpt lat="42.8970667" lon="2.8576"><ele>296.0</ele><time>2026-04-26T07:22:47.729Z</time></trkpt><trkpt lat="42.897125" lon="2.8574383"><ele>296.0</ele><time>2026-04-26T07:22:48.733Z</time></trkpt><trkpt lat="42.8971867" lon="2.85729"><ele>296.0</ele><time>2026-04-26T07:22:49.732Z</time></trkpt><trkpt lat="42.89725" lon="2.8571533"><ele>296.0</ele><time>2026-04-26T07:22:50.729Z</time></trkpt><trkpt lat="42.897325" lon="2.857025"><ele>296.0</ele><time>2026-04-26T07:22:51.728Z</time></trkpt><trkpt lat="42.8974083" lon="2.8568983"><ele>296.0</ele><time>2026-04-26T07:22:52.731Z</time></trkpt><trkpt lat="42.8974917" lon="2.8567717"><ele>296.0</ele><time>2026-04-26T07:22:53.732Z</time></trkpt><trkpt lat="42.8975717" lon="2.856655"><ele>296.0</ele><time>2026-04-26T07:22:54.729Z</time></trkpt><trkpt lat="42.8976483" lon="2.8565433"><ele>296.8</ele><time>2026-04-26T07:22:55.73Z</time></trkpt><trkpt lat="42.897715" lon="2.8564317"><ele>297.6</ele><time>2026-04-26T07:22:56.729Z</time></trkpt><trkpt lat="42.897775" lon="2.8563167"><ele>298.4</ele><time>2026-04-26T07:22:57.728Z</time></trkpt><trkpt lat="42.8978333" lon="2.8561767"><ele>299.2</ele><time>2026-04-26T07:22:58.729Z</time></trkpt><trkpt lat="42.89789" lon="2.8560367"><ele>300.0</ele><time>2026-04-26T07:22:59.729Z</time></trkpt><trkpt lat="42.8979333" lon="2.8559"><ele>300.75</ele><time>2026-04-26T07:23:00.728Z</time></trkpt><trkpt lat="42.8979733" lon="2.8557583"><ele>301.5</ele><time>2026-04-26T07:23:01.73Z</time></trkpt><trkpt lat="42.898015" lon="2.8556167"><ele>302.25</ele><time>2026-04-26T07:23:02.73Z</time></trkpt><trkpt lat="42.8980617" lon="2.855475"><ele>303.0</ele><time>2026-04-26T07:23:03.729Z</time></trkpt><trkpt lat="42.8981067" lon="2.8553317"><ele>303.0</ele><time>2026-04-26T07:23:04.73Z</time></trkpt><trkpt lat="42.8981533" lon="2.8551867"><ele>303.0</ele><time>2026-04-26T07:23:05.731Z</time></trkpt><trkpt lat="42.8981967" lon="2.85503"><ele>303.0</ele><time>2026-04-26T07:23:06.729Z</time></trkpt><trkpt lat="42.8982417" lon="2.85488"><ele>303.0</ele><time>2026-04-26T07:23:07.728Z</time></trkpt><trkpt lat="42.8982867" lon="2.8547217"><ele>303.75</ele><time>2026-04-26T07:23:08.729Z</time></trkpt><trkpt lat="42.8983333" lon="2.8545533"><ele>304.5</ele><time>2026-04-26T07:23:09.728Z</time></trkpt><trkpt lat="42.8983833" lon="2.8543883"><ele>305.25</ele><time>2026-04-26T07:23:10.728Z</time></trkpt><trkpt lat="42.8984383" lon="2.8542117"><ele>306.0</ele><time>2026-04-26T07:23:11.729Z</time></trkpt><trkpt lat="42.8984917" lon="2.8540333"><ele>306.75</ele><time>2026-04-26T07:23:12.73Z</time></trkpt><trkpt lat="42.898545" lon="2.8538583"><ele>307.5</ele><time>2026-04-26T07:23:13.733Z</time></trkpt><trkpt lat="42.8985983" lon="2.8536817"><ele>308.25</ele><time>2026-04-26T07:23:14.729Z</time></trkpt><trkpt lat="42.8986517" lon="2.8535033"><ele>309.0</ele><time>2026-04-26T07:23:15.728Z</time></trkpt><trkpt lat="42.898715" lon="2.8533267"><ele>309.0</ele><time>2026-04-26T07:23:16.73Z</time></trkpt><trkpt lat="42.898795" lon="2.8531567"><ele>309.0</ele><time>2026-04-26T07:23:17.731Z</time></trkpt><trkpt lat="42.8988817" lon="2.85299"><ele>309.0</ele><time>2026-04-26T07:23:18.731Z</time></trkpt><trkpt lat="42.89897" lon="2.8528233"><ele>309.0</ele><time>2026-04-26T07:23:19.732Z</time></trkpt><trkpt lat="42.8990617" lon="2.8526567"><ele>309.3333333333333</ele><time>2026-04-26T07:23:20.731Z</time></trkpt><trkpt lat="42.899155" lon="2.8524883"><ele>309.66666666666663</ele><time>2026-04-26T07:23:21.73Z</time></trkpt><trkpt lat="42.8992467" lon="2.8523183"><ele>310.0</ele><time>2026-04-26T07:23:22.73Z</time></trkpt><trkpt lat="42.8993367" lon="2.8521533"><ele>311.5</ele><time>2026-04-26T07:23:23.731Z</time></trkpt><trkpt lat="42.8994267" lon="2.8519967"><ele>313.0</ele><time>2026-04-26T07:23:24.729Z</time></trkpt><trkpt lat="42.8995133" lon="2.8518483"><ele>314.5</ele><time>2026-04-26T07:23:25.732Z</time></trkpt><trkpt lat="42.8995967" lon="2.8516983"><ele>316.0</ele><time>2026-04-26T07:23:26.728Z</time></trkpt><trkpt lat="42.899675" lon="2.85155"><ele>316.0</ele><time>2026-04-26T07:23:27.727Z</time></trkpt><trkpt lat="42.8997383" lon="2.8513933"><ele>316.0</ele><time>2026-04-26T07:23:28.729Z</time></trkpt><trkpt lat="42.8997817" lon="2.85123"><ele>316.0</ele><time>2026-04-26T07:23:29.727Z</time></trkpt><trkpt lat="42.8998017" lon="2.8510717"><ele>316.0</ele><time>2026-04-26T07:23:30.728Z</time></trkpt><trkpt lat="42.899815" lon="2.8509267"><ele>316.6</ele><time>2026-04-26T07:23:31.736Z</time></trkpt><trkpt lat="42.8998333" lon="2.8508"><ele>317.20000000000005</ele><time>2026-04-26T07:23:32.732Z</time></trkpt><trkpt lat="42.8998633" lon="2.8506783"><ele>317.79999999999995</ele><time>2026-04-26T07:23:33.729Z</time></trkpt><trkpt lat="42.8999233" lon="2.8505633"><ele>318.4</ele><time>2026-04-26T07:23:34.727Z</time></trkpt><trkpt lat="42.8999917" lon="2.8504383"><ele>319.0</ele><time>2026-04-26T07:23:35.728Z</time></trkpt><trkpt lat="42.900065" lon="2.8503017"><ele>319.75</ele><time>2026-04-26T07:23:36.729Z</time></trkpt><trkpt lat="42.900135" lon="2.8501617"><ele>320.5</ele><time>2026-04-26T07:23:37.735Z</time></trkpt><trkpt lat="42.9001983" lon="2.8500167"><ele>321.25</ele><time>2026-04-26T07:23:38.728Z</time></trkpt><trkpt lat="42.9002433" lon="2.84986"><ele>322.0</ele><time>2026-04-26T07:23:39.728Z</time></trkpt><trkpt lat="42.90028" lon="2.8496967"><ele>323.20000000000005</ele><time>2026-04-26T07:23:40.729Z</time></trkpt><trkpt lat="42.9003083" lon="2.8495333"><ele>324.4</ele><time>2026-04-26T07:23:41.728Z</time></trkpt><trkpt lat="42.90033" lon="2.8493733"><ele>325.6</ele><time>2026-04-26T07:23:42.727Z</time></trkpt><trkpt lat="42.90034" lon="2.8492483"><ele>326.79999999999995</ele><time>2026-04-26T07:23:43.729Z</time></trkpt><trkpt lat="42.9003233" lon="2.8491467"><ele>328.0</ele><time>2026-04-26T07:23:44.728Z</time></trkpt><trkpt lat="42.9002933" lon="2.8490483"><ele>329.59999999999997</ele><time>2026-04-26T07:23:45.73Z</time></trkpt><trkpt lat="42.9002267" lon="2.84898"><ele>331.2</ele><time>2026-04-26T07:23:46.727Z</time></trkpt><trkpt lat="42.9001417" lon="2.8489433"><ele>332.8</ele><time>2026-04-26T07:23:47.732Z</time></trkpt><trkpt lat="42.90005" lon="2.8489867"><ele>334.4</ele><time>2026-04-26T07:23:48.728Z</time></trkpt><trkpt lat="42.8999583" lon="2.8490617"><ele>336.0</ele><time>2026-04-26T07:23:49.73Z</time></trkpt><trkpt lat="42.8998717" lon="2.849155"><ele>336.0</ele><time>2026-04-26T07:23:50.728Z</time></trkpt><trkpt lat="42.8997817" lon="2.8492567"><ele>336.0</ele><time>2026-04-26T07:23:51.729Z</time></trkpt><trkpt lat="42.89969" lon="2.849355"><ele>336.0</ele><time>2026-04-26T07:23:52.728Z</time></trkpt><trkpt lat="42.899595" lon="2.8494533"><ele>336.0</ele><time>2026-04-26T07:23:53.731Z</time></trkpt><trkpt lat="42.8994933" lon="2.8495517"><ele>335.75</ele><time>2026-04-26T07:23:54.727Z</time></trkpt><trkpt lat="42.8993883" lon="2.8496483"><ele>335.5</ele><time>2026-04-26T07:23:55.729Z</time></trkpt><trkpt lat="42.8992867" lon="2.8497517"><ele>335.25</ele><time>2026-04-26T07:23:56.73Z</time></trkpt><trkpt lat="42.899195" lon="2.8498783"><ele>335.0</ele><time>2026-04-26T07:23:57.731Z</time></trkpt><trkpt lat="42.8991183" lon="2.8500117"><ele>332.0</ele><time>2026-04-26T07:23:58.727Z</time></trkpt><trkpt lat="42.8990433" lon="2.85013"><ele>329.0</ele><time>2026-04-26T07:23:59.727Z</time></trkpt><trkpt lat="42.8989583" lon="2.850225"><ele>326.0</ele><time>2026-04-26T07:24:00.73Z</time></trkpt><trkpt lat="42.898865" lon="2.8502917"><ele>323.0</ele><time>2026-04-26T07:24:01.729Z</time></trkpt><trkpt lat="42.8987617" lon="2.8503217"><ele>320.0</ele><time>2026-04-26T07:24:02.728Z</time></trkpt><trkpt lat="42.8986533" lon="2.850325"><ele>320.0</ele><time>2026-04-26T07:24:03.73Z</time></trkpt><trkpt lat="42.8985483" lon="2.850305"><ele>320.0</ele><time>2026-04-26T07:24:04.729Z</time></trkpt><trkpt lat="42.8984467" lon="2.8502517"><ele>320.0</ele><time>2026-04-26T07:24:05.732Z</time></trkpt><trkpt lat="42.8983467" lon="2.85018"><ele>320.0</ele><time>2026-04-26T07:24:06.727Z</time></trkpt><trkpt lat="42.8982433" lon="2.850095"><ele>320.0</ele><time>2026-04-26T07:24:07.729Z</time></trkpt><trkpt lat="42.898145" lon="2.849995"><ele>326.75</ele><time>2026-04-26T07:24:08.73Z</time></trkpt><trkpt lat="42.89805" lon="2.8498833"><ele>333.5</ele><time>2026-04-26T07:24:09.728Z</time></trkpt><trkpt lat="42.8979567" lon="2.8497667"><ele>340.25</ele><time>2026-04-26T07:24:10.729Z</time></trkpt><trkpt lat="42.8978617" lon="2.8496467"><ele>347.0</ele><time>2026-04-26T07:24:11.727Z</time></trkpt><trkpt lat="42.8977717" lon="2.84953"><ele>347.0</ele><time>2026-04-26T07:24:12.728Z</time></trkpt><trkpt lat="42.8976867" lon="2.8494183"><ele>347.0</ele><time>2026-04-26T07:24:13.728Z</time></trkpt><trkpt lat="42.8976" lon="2.849335"><ele>347.0</ele><time>2026-04-26T07:24:14.729Z</time></trkpt><trkpt lat="42.8975033" lon="2.84929"><ele>347.0</ele><time>2026-04-26T07:24:15.731Z</time></trkpt><trkpt lat="42.897405" lon="2.849285"><ele>347.0</ele><time>2026-04-26T07:24:16.728Z</time></trkpt><trkpt lat="42.8973183" lon="2.8492817"><ele>348.33333333333337</ele><time>2026-04-26T07:24:17.727Z</time></trkpt><trkpt lat="42.8972483" lon="2.8492567"><ele>349.6666666666667</ele><time>2026-04-26T07:24:18.729Z</time></trkpt><trkpt lat="42.8971717" lon="2.8491267"><ele>351.0</ele><time>2026-04-26T07:24:20.729Z</time></trkpt><trkpt lat="42.8971783" lon="2.849035"><ele>352.3333333333333</ele><time>2026-04-26T07:24:21.729Z</time></trkpt><trkpt lat="42.8972667" lon="2.8489817"><ele>353.66666666666663</ele><time>2026-04-26T07:24:22.729Z</time></trkpt><trkpt lat="42.8973517" lon="2.8489733"><ele>355.0</ele><time>2026-04-26T07:24:23.731Z</time></trkpt><trkpt lat="42.8974467" lon="2.8489983"><ele>355.0</ele><time>2026-04-26T07:24:24.728Z</time></trkpt><trkpt lat="42.89755" lon="2.84905"><ele>355.0</ele><time>2026-04-26T07:24:25.728Z</time></trkpt><trkpt lat="42.897665" lon="2.8491033"><ele>355.0</ele><time>2026-04-26T07:24:26.728Z</time></trkpt><trkpt lat="42.8977733" lon="2.8491583"><ele>355.0</ele><time>2026-04-26T07:24:27.727Z</time></trkpt><trkpt lat="42.897885" lon="2.8492083"><ele>355.6</ele><time>2026-04-26T07:24:28.729Z</time></trkpt><trkpt lat="42.8979917" lon="2.8492367"><ele>356.2</ele><time>2026-04-26T07:24:29.729Z</time></trkpt><trkpt lat="42.898105" lon="2.8492483"><ele>356.79999999999995</ele><time>2026-04-26T07:24:30.729Z</time></trkpt><trkpt lat="42.8982167" lon="2.8492417"><ele>357.4</ele><time>2026-04-26T07:24:31.728Z</time></trkpt><trkpt lat="42.8983217" lon="2.849205"><ele>358.0</ele><time>2026-04-26T07:24:32.73Z</time></trkpt><trkpt lat="42.8984117" lon="2.84911"><ele>356.0</ele><time>2026-04-26T07:24:33.727Z</time></trkpt><trkpt lat="42.8984817" lon="2.8489817"><ele>354.0</ele><time>2026-04-26T07:24:34.728Z</time></trkpt><trkpt lat="42.898545" lon="2.8488433"><ele>352.0</ele><time>2026-04-26T07:24:35.728Z</time></trkpt><trkpt lat="42.8985917" lon="2.8486817"><ele>350.0</ele><time>2026-04-26T07:24:36.728Z</time></trkpt><trkpt lat="42.8986317" lon="2.8485133"><ele>351.75</ele><time>2026-04-26T07:24:37.729Z</time></trkpt><trkpt lat="42.8986817" lon="2.84835"><ele>353.5</ele><time>2026-04-26T07:24:38.729Z</time></trkpt><trkpt lat="42.8987383" lon="2.848185"><ele>355.25</ele><time>2026-04-26T07:24:39.727Z</time></trkpt><trkpt lat="42.8987917" lon="2.8480167"><ele>357.0</ele><time>2026-04-26T07:24:40.727Z</time></trkpt><trkpt lat="42.8988317" lon="2.8478417"><ele>357.0</ele><time>2026-04-26T07:24:41.727Z</time></trkpt><trkpt lat="42.8988583" lon="2.847665"><ele>357.0</ele><time>2026-04-26T07:24:42.727Z</time></trkpt><trkpt lat="42.898875" lon="2.8474883"><ele>357.0</ele><time>2026-04-26T07:24:43.727Z</time></trkpt><trkpt lat="42.8988833" lon="2.8473033"><ele>357.0</ele><time>2026-04-26T07:24:44.727Z</time></trkpt><trkpt lat="42.89889" lon="2.847115"><ele>357.25</ele><time>2026-04-26T07:24:45.728Z</time></trkpt><trkpt lat="42.8988967" lon="2.84693"><ele>357.5</ele><time>2026-04-26T07:24:46.727Z</time></trkpt><trkpt lat="42.8989017" lon="2.846755"><ele>357.75</ele><time>2026-04-26T07:24:47.729Z</time></trkpt><trkpt lat="42.898895" lon="2.8465817"><ele>358.0</ele><time>2026-04-26T07:24:48.73Z</time></trkpt><trkpt lat="42.898875" lon="2.8464083"><ele>358.25</ele><time>2026-04-26T07:24:49.73Z</time></trkpt><trkpt lat="42.8988417" lon="2.8462383"><ele>358.5</ele><time>2026-04-26T07:24:50.73Z</time></trkpt><trkpt lat="42.89879" lon="2.8460733"><ele>358.75</ele><time>2026-04-26T07:24:51.729Z</time></trkpt><trkpt lat="42.8987267" lon="2.8459167"><ele>359.0</ele><time>2026-04-26T07:24:52.732Z</time></trkpt><trkpt lat="42.8986617" lon="2.8457617"><ele>360.2</ele><time>2026-04-26T07:24:53.73Z</time></trkpt><trkpt lat="42.8986033" lon="2.84561"><ele>361.4</ele><time>2026-04-26T07:24:54.728Z</time></trkpt><trkpt lat="42.8985517" lon="2.8454667"><ele>362.6</ele><time>2026-04-26T07:24:55.729Z</time></trkpt><trkpt lat="42.8985067" lon="2.8453317"><ele>363.8</ele><time>2026-04-26T07:24:56.729Z</time></trkpt><trkpt lat="42.898475" lon="2.84521"><ele>365.0</ele><time>2026-04-26T07:24:57.727Z</time></trkpt><trkpt lat="42.8984533" lon="2.8451017"><ele>365.5</ele><time>2026-04-26T07:24:58.728Z</time></trkpt><trkpt lat="42.89845" lon="2.8450033"><ele>366.0</ele><time>2026-04-26T07:24:59.731Z</time></trkpt><trkpt lat="42.8984633" lon="2.844905"><ele>366.5</ele><time>2026-04-26T07:25:00.727Z</time></trkpt><trkpt lat="42.898495" lon="2.8448133"><ele>367.0</ele><time>2026-04-26T07:25:01.728Z</time></trkpt><trkpt lat="42.8985433" lon="2.84472"><ele>367.5</ele><time>2026-04-26T07:25:02.73Z</time></trkpt><trkpt lat="42.898595" lon="2.84462"><ele>368.0</ele><time>2026-04-26T07:25:03.729Z</time></trkpt><trkpt lat="42.8986517" lon="2.8445167"><ele>368.0</ele><time>2026-04-26T07:25:04.728Z</time></trkpt><trkpt lat="42.89872" lon="2.84442"><ele>368.0</ele><time>2026-04-26T07:25:05.727Z</time></trkpt><trkpt lat="42.8988017" lon="2.8443317"><ele>368.0</ele><time>2026-04-26T07:25:06.73Z</time></trkpt><trkpt lat="42.8988833" lon="2.8442567"><ele>368.0</ele><time>2026-04-26T07:25:07.728Z</time></trkpt><trkpt lat="42.89896" lon="2.844185"><ele>368.0</ele><time>2026-04-26T07:25:08.729Z</time></trkpt><trkpt lat="42.8990183" lon="2.844105"><ele>368.5</ele><time>2026-04-26T07:25:09.728Z</time></trkpt><trkpt lat="42.8990633" lon="2.8440033"><ele>369.0</ele><time>2026-04-26T07:25:10.728Z</time></trkpt><trkpt lat="42.8990883" lon="2.8438867"><ele>369.5</ele><time>2026-04-26T07:25:11.729Z</time></trkpt><trkpt lat="42.8991067" lon="2.8437683"><ele>370.0</ele><time>2026-04-26T07:25:12.729Z</time></trkpt><trkpt lat="42.8991233" lon="2.843645"><ele>370.5</ele><time>2026-04-26T07:25:13.731Z</time></trkpt><trkpt lat="42.89912" lon="2.8435283"><ele>371.0</ele><time>2026-04-26T07:25:14.729Z</time></trkpt><trkpt lat="42.89911" lon="2.8434317"><ele>371.1666666666667</ele><time>2026-04-26T07:25:15.728Z</time></trkpt><trkpt lat="42.899115" lon="2.84334"><ele>371.33333333333337</ele><time>2026-04-26T07:25:16.729Z</time></trkpt><trkpt lat="42.8991333" lon="2.8432567"><ele>371.5</ele><time>2026-04-26T07:25:17.73Z</time></trkpt><trkpt lat="42.899185" lon="2.843185"><ele>371.6666666666667</ele><time>2026-04-26T07:25:18.731Z</time></trkpt><trkpt lat="42.8992383" lon="2.8430967"><ele>371.8333333333333</ele><time>2026-04-26T07:25:19.73Z</time></trkpt><trkpt lat="42.8992567" lon="2.8429783"><ele>372.0</ele><time>2026-04-26T07:25:20.73Z</time></trkpt><trkpt lat="42.89926" lon="2.8428533"><ele>372.0</ele><time>2026-04-26T07:25:21.729Z</time></trkpt><trkpt lat="42.8992683" lon="2.8427267"><ele>372.0</ele><time>2026-04-26T07:25:22.73Z</time></trkpt><trkpt lat="42.8992917" lon="2.8426083"><ele>372.0</ele><time>2026-04-26T07:25:23.731Z</time></trkpt><trkpt lat="42.89934" lon="2.8424967"><ele>372.0</ele><time>2026-04-26T07:25:24.729Z</time></trkpt><trkpt lat="42.899405" lon="2.8423967"><ele>372.0</ele><time>2026-04-26T07:25:25.728Z</time></trkpt><trkpt lat="42.8994767" lon="2.8423133"><ele>372.40000000000003</ele><time>2026-04-26T07:25:26.727Z</time></trkpt><trkpt lat="42.899545" lon="2.84226"><ele>372.8</ele><time>2026-04-26T07:25:27.728Z</time></trkpt><trkpt lat="42.8996183" lon="2.8422283"><ele>373.2</ele><time>2026-04-26T07:25:28.728Z</time></trkpt><trkpt lat="42.8997183" lon="2.8422433"><ele>373.6</ele><time>2026-04-26T07:25:29.728Z</time></trkpt><trkpt lat="42.8998283" lon="2.8422567"><ele>374.0</ele><time>2026-04-26T07:25:30.728Z</time></trkpt><trkpt lat="42.8999417" lon="2.8422567"><ele>374.0</ele><time>2026-04-26T07:25:31.728Z</time></trkpt><trkpt lat="42.9000517" lon="2.8422533"><ele>374.0</ele><time>2026-04-26T07:25:32.73Z</time></trkpt><trkpt lat="42.9001583" lon="2.842265"><ele>374.0</ele><time>2026-04-26T07:25:33.729Z</time></trkpt><trkpt lat="42.900265" lon="2.842275"><ele>374.0</ele><time>2026-04-26T07:25:34.729Z</time></trkpt><trkpt lat="42.9003733" lon="2.8422783"><ele>374.0</ele><time>2026-04-26T07:25:35.729Z</time></trkpt><trkpt lat="42.9004867" lon="2.84225"><ele>375.6</ele><time>2026-04-26T07:25:36.727Z</time></trkpt><trkpt lat="42.9005967" lon="2.8422033"><ele>377.2</ele><time>2026-04-26T07:25:37.735Z</time></trkpt><trkpt lat="42.9006917" lon="2.842145"><ele>378.8</ele><time>2026-04-26T07:25:38.729Z</time></trkpt><trkpt lat="42.90078" lon="2.8420633"><ele>380.40000000000003</ele><time>2026-04-26T07:25:39.729Z</time></trkpt><trkpt lat="42.9008617" lon="2.841975"><ele>382.0</ele><time>2026-04-26T07:25:40.729Z</time></trkpt><trkpt lat="42.9009367" lon="2.8418783"><ele>384.8</ele><time>2026-04-26T07:25:41.729Z</time></trkpt><trkpt lat="42.90101" lon="2.8417783"><ele>387.6</ele><time>2026-04-26T07:25:42.729Z</time></trkpt><trkpt lat="42.90109" lon="2.8416783"><ele>390.40000000000003</ele><time>2026-04-26T07:25:43.728Z</time></trkpt><trkpt lat="42.9011617" lon="2.8415617"><ele>393.20000000000005</ele><time>2026-04-26T07:25:44.73Z</time></trkpt><trkpt lat="42.901235" lon="2.8414417"><ele>396.0</ele><time>2026-04-26T07:25:45.727Z</time></trkpt><trkpt lat="42.901315" lon="2.8413183"><ele>396.0</ele><time>2026-04-26T07:25:46.728Z</time></trkpt><trkpt lat="42.9013983" lon="2.8411933"><ele>396.0</ele><time>2026-04-26T07:25:47.728Z</time></trkpt><trkpt lat="42.901495" lon="2.8410867"><ele>396.0</ele><time>2026-04-26T07:25:48.728Z</time></trkpt><trkpt lat="42.901595" lon="2.8409833"><ele>396.0</ele><time>2026-04-26T07:25:49.735Z</time></trkpt><trkpt lat="42.9017" lon="2.84089"><ele>397.75</ele><time>2026-04-26T07:25:50.727Z</time></trkpt><trkpt lat="42.9018117" lon="2.840815"><ele>399.5</ele><time>2026-04-26T07:25:51.728Z</time></trkpt><trkpt lat="42.901925" lon="2.8407433"><ele>401.25</ele><time>2026-04-26T07:25:52.731Z</time></trkpt><trkpt lat="42.9020367" lon="2.8406883"><ele>403.0</ele><time>2026-04-26T07:25:53.729Z</time></trkpt><trkpt lat="42.902145" lon="2.8406533"><ele>403.0</ele><time>2026-04-26T07:25:54.727Z</time></trkpt><trkpt lat="42.9022633" lon="2.8406483"><ele>403.0</ele><time>2026-04-26T07:25:55.729Z</time></trkpt><trkpt lat="42.9023883" lon="2.8406633"><ele>403.0</ele><time>2026-04-26T07:25:56.729Z</time></trkpt><trkpt lat="42.902515" lon="2.8406883"><ele>403.0</ele><time>2026-04-26T07:25:57.729Z</time></trkpt><trkpt lat="42.9026383" lon="2.84072"><ele>405.1666666666667</ele><time>2026-04-26T07:25:58.728Z</time></trkpt><trkpt lat="42.90274" lon="2.84076"><ele>407.33333333333337</ele><time>2026-04-26T07:25:59.727Z</time></trkpt><trkpt lat="42.902815" lon="2.840795"><ele>409.5</ele><time>2026-04-26T07:26:00.728Z</time></trkpt><trkpt lat="42.9028833" lon="2.8408117"><ele>411.66666666666663</ele><time>2026-04-26T07:26:01.734Z</time></trkpt><trkpt lat="42.9029533" lon="2.8408083"><ele>413.8333333333333</ele><time>2026-04-26T07:26:02.73Z</time></trkpt><trkpt lat="42.9030267" lon="2.8407967"><ele>416.0</ele><time>2026-04-26T07:26:03.729Z</time></trkpt><trkpt lat="42.9031" lon="2.8407933"><ele>415.99999999999994</ele><time>2026-04-26T07:26:04.73Z</time></trkpt><trkpt lat="42.9031817" lon="2.840765"><ele>416.0</ele><time>2026-04-26T07:26:05.729Z</time></trkpt><trkpt lat="42.9032467" lon="2.8407067"><ele>416.0</ele><time>2026-04-26T07:26:06.733Z</time></trkpt><trkpt lat="42.9032917" lon="2.8406283"><ele>416.0</ele><time>2026-04-26T07:26:07.729Z</time></trkpt><trkpt lat="42.903335" lon="2.8405267"><ele>415.99999999999994</ele><time>2026-04-26T07:26:08.728Z</time></trkpt><trkpt lat="42.9033817" lon="2.8404217"><ele>416.0</ele><time>2026-04-26T07:26:09.727Z</time></trkpt><trkpt lat="42.9034467" lon="2.8403083"><ele>420.75</ele><time>2026-04-26T07:26:10.729Z</time></trkpt><trkpt lat="42.9035133" lon="2.84018"><ele>425.5</ele><time>2026-04-26T07:26:11.727Z</time></trkpt><trkpt lat="42.9035783" lon="2.8400383"><ele>430.25</ele><time>2026-04-26T07:26:12.729Z</time></trkpt><trkpt lat="42.9036383" lon="2.8398983"><ele>435.0</ele><time>2026-04-26T07:26:13.731Z</time></trkpt><trkpt lat="42.9036967" lon="2.8397583"><ele>435.0</ele><time>2026-04-26T07:26:14.728Z</time></trkpt><trkpt lat="42.90375" lon="2.8396117"><ele>435.0</ele><time>2026-04-26T07:26:15.729Z</time></trkpt><trkpt lat="42.9037967" lon="2.8394917"><ele>435.0</ele><time>2026-04-26T07:26:16.727Z</time></trkpt><trkpt lat="42.9038583" lon="2.8393833"><ele>435.0</ele><time>2026-04-26T07:26:17.727Z</time></trkpt><trkpt lat="42.9039283" lon="2.8392883"><ele>435.0</ele><time>2026-04-26T07:26:18.727Z</time></trkpt><trkpt lat="42.9040167" lon="2.8392083"><ele>435.2</ele><time>2026-04-26T07:26:19.728Z</time></trkpt><trkpt lat="42.9041083" lon="2.8391467"><ele>435.4</ele><time>2026-04-26T07:26:20.728Z</time></trkpt><trkpt lat="42.904195" lon="2.8391"><ele>435.6</ele><time>2026-04-26T07:26:21.728Z</time></trkpt><trkpt lat="42.904285" lon="2.8390767"><ele>435.8</ele><time>2026-04-26T07:26:22.728Z</time></trkpt><trkpt lat="42.9043817" lon="2.8390817"><ele>436.0</ele><time>2026-04-26T07:26:23.728Z</time></trkpt><trkpt lat="42.9044783" lon="2.83908"><ele>436.0</ele><time>2026-04-26T07:26:24.727Z</time></trkpt><trkpt lat="42.9045733" lon="2.8390767"><ele>436.0</ele><time>2026-04-26T07:26:25.732Z</time></trkpt><trkpt lat="42.90467" lon="2.83907"><ele>436.0</ele><time>2026-04-26T07:26:26.731Z</time></trkpt><trkpt lat="42.904775" lon="2.8390483"><ele>436.0</ele><time>2026-04-26T07:26:27.734Z</time></trkpt><trkpt lat="42.9048833" lon="2.8390267"><ele>436.0</ele><time>2026-04-26T07:26:28.727Z</time></trkpt><trkpt lat="42.904995" lon="2.8390217"><ele>439.1666666666667</ele><time>2026-04-26T07:26:29.728Z</time></trkpt><trkpt lat="42.9050917" lon="2.8390467"><ele>442.33333333333337</ele><time>2026-04-26T07:26:30.729Z</time></trkpt><trkpt lat="42.9051783" lon="2.8390583"><ele>445.5</ele><time>2026-04-26T07:26:31.727Z</time></trkpt><trkpt lat="42.90526" lon="2.8390533"><ele>448.66666666666663</ele><time>2026-04-26T07:26:32.728Z</time></trkpt><trkpt lat="42.905325" lon="2.8390367"><ele>451.8333333333333</ele><time>2026-04-26T07:26:33.728Z</time></trkpt><trkpt lat="42.9054" lon="2.838975"><ele>455.0</ele><time>2026-04-26T07:26:35.728Z</time></trkpt><trkpt lat="42.9053533" lon="2.8388483"><ele>455.0</ele><time>2026-04-26T07:26:37.729Z</time></trkpt><trkpt lat="42.905305" lon="2.8387733"><ele>455.0</ele><time>2026-04-26T07:26:38.732Z</time></trkpt><trkpt lat="42.9052267" lon="2.8386667"><ele>455.0</ele><time>2026-04-26T07:26:39.729Z</time></trkpt><trkpt lat="42.9051433" lon="2.8385367"><ele>455.0</ele><time>2026-04-26T07:26:40.729Z</time></trkpt><trkpt lat="42.905075" lon="2.838405"><ele>455.0</ele><time>2026-04-26T07:26:41.728Z</time></trkpt><trkpt lat="42.904995" lon="2.83828"><ele>450.75</ele><time>2026-04-26T07:26:42.732Z</time></trkpt><trkpt lat="42.9048967" lon="2.8381567"><ele>446.5</ele><time>2026-04-26T07:26:43.73Z</time></trkpt><trkpt lat="42.904795" lon="2.8380333"><ele>442.25</ele><time>2026-04-26T07:26:44.736Z</time></trkpt><trkpt lat="42.904705" lon="2.83791"><ele>438.0</ele><time>2026-04-26T07:26:45.73Z</time></trkpt><trkpt lat="42.9046067" lon="2.8377967"><ele>438.0</ele><time>2026-04-26T07:26:46.732Z</time></trkpt><trkpt lat="42.9045017" lon="2.837695"><ele>437.99999999999994</ele><time>2026-04-26T07:26:47.73Z</time></trkpt><trkpt lat="42.9044067" lon="2.8375967"><ele>437.99999999999994</ele><time>2026-04-26T07:26:48.728Z</time></trkpt><trkpt lat="42.9043317" lon="2.837505"><ele>438.0</ele><time>2026-04-26T07:26:49.732Z</time></trkpt><trkpt lat="42.90427" lon="2.83741"><ele>438.0</ele><time>2026-04-26T07:26:50.728Z</time></trkpt><trkpt lat="42.9042283" lon="2.8372967"><ele>438.3333333333333</ele><time>2026-04-26T07:26:51.728Z</time></trkpt><trkpt lat="42.904215" lon="2.8371733"><ele>438.66666666666663</ele><time>2026-04-26T07:26:52.729Z</time></trkpt><trkpt lat="42.904215" lon="2.8370533"><ele>439.0</ele><time>2026-04-26T07:26:53.729Z</time></trkpt><trkpt lat="42.9042317" lon="2.8369517"><ele>439.3333333333333</ele><time>2026-04-26T07:26:54.728Z</time></trkpt><trkpt lat="42.9042683" lon="2.8368567"><ele>439.66666666666663</ele><time>2026-04-26T07:26:55.73Z</time></trkpt><trkpt lat="42.90432" lon="2.8367567"><ele>440.0</ele><time>2026-04-26T07:26:56.731Z</time></trkpt><trkpt lat="42.9043983" lon="2.8366617"><ele>444.6</ele><time>2026-04-26T07:26:57.73Z</time></trkpt><trkpt lat="42.90449" lon="2.836575"><ele>449.2</ele><time>2026-04-26T07:26:58.731Z</time></trkpt><trkpt lat="42.9045733" lon="2.836485"><ele>453.79999999999995</ele><time>2026-04-26T07:26:59.73Z</time></trkpt><trkpt lat="42.9046433" lon="2.8364017"><ele>458.4</ele><time>2026-04-26T07:27:00.729Z</time></trkpt><trkpt lat="42.9046983" lon="2.8363483"><ele>463.0</ele><time>2026-04-26T07:27:01.729Z</time></trkpt><trkpt lat="42.9047767" lon="2.83632"><ele>463.00000000000006</ele><time>2026-04-26T07:27:03.73Z</time></trkpt><trkpt lat="42.9048117" lon="2.8363983"><ele>463.0</ele><time>2026-04-26T07:27:05.728Z</time></trkpt><trkpt lat="42.9047583" lon="2.8364917"><ele>463.0</ele><time>2026-04-26T07:27:07.729Z</time></trkpt><trkpt lat="42.9047083" lon="2.8365467"><ele>463.0</ele><time>2026-04-26T07:27:08.728Z</time></trkpt><trkpt lat="42.90466" lon="2.83661"><ele>463.00000000000006</ele><time>2026-04-26T07:27:09.731Z</time></trkpt><trkpt lat="42.9046267" lon="2.8367117"><ele>463.0</ele><time>2026-04-26T07:27:10.728Z</time></trkpt><trkpt lat="42.90462" lon="2.8368533"><ele>462.4</ele><time>2026-04-26T07:27:11.81Z</time></trkpt><trkpt lat="42.90464" lon="2.8369917"><ele>461.79999999999995</ele><time>2026-04-26T07:27:12.73Z</time></trkpt><trkpt lat="42.904675" lon="2.8371033"><ele>461.2</ele><time>2026-04-26T07:27:13.728Z</time></trkpt><trkpt lat="42.9047333" lon="2.8371767"><ele>460.6</ele><time>2026-04-26T07:27:14.73Z</time></trkpt><trkpt lat="42.90481" lon="2.8372317"><ele>460.0</ele><time>2026-04-26T07:27:15.728Z</time></trkpt><trkpt lat="42.9049" lon="2.837285"><ele>460.0</ele><time>2026-04-26T07:27:16.728Z</time></trkpt><trkpt lat="42.9050017" lon="2.8373417"><ele>460.0</ele><time>2026-04-26T07:27:17.728Z</time></trkpt><trkpt lat="42.90511" lon="2.8374117"><ele>460.0</ele><time>2026-04-26T07:27:18.73Z</time></trkpt><trkpt lat="42.9052217" lon="2.8374983"><ele>460.0</ele><time>2026-04-26T07:27:19.729Z</time></trkpt><trkpt lat="42.9053383" lon="2.8375833"><ele>460.25</ele><time>2026-04-26T07:27:20.73Z</time></trkpt><trkpt lat="42.905455" lon="2.83767"><ele>460.5</ele><time>2026-04-26T07:27:21.731Z</time></trkpt><trkpt lat="42.9055667" lon="2.83775"><ele>460.75</ele><time>2026-04-26T07:27:22.731Z</time></trkpt><trkpt lat="42.9056667" lon="2.8378283"><ele>461.0</ele><time>2026-04-26T07:27:23.734Z</time></trkpt><trkpt lat="42.9057567" lon="2.8378967"><ele>461.0</ele><time>2026-04-26T07:27:24.73Z</time></trkpt><trkpt lat="42.905835" lon="2.837945"><ele>461.0</ele><time>2026-04-26T07:27:25.733Z</time></trkpt><trkpt lat="42.9059017" lon="2.8379717"><ele>461.0</ele><time>2026-04-26T07:27:26.732Z</time></trkpt><trkpt lat="42.9059683" lon="2.8379117"><ele>461.0</ele><time>2026-04-26T07:27:28.729Z</time></trkpt><trkpt lat="42.905965" lon="2.8378"><ele>461.0</ele><time>2026-04-26T07:27:30.727Z</time></trkpt><trkpt lat="42.905855" lon="2.8376983"><ele>461.0</ele><time>2026-04-26T07:27:32.729Z</time></trkpt><trkpt lat="42.9057733" lon="2.837655"><ele>461.0</ele><time>2026-04-26T07:27:33.729Z</time></trkpt><trkpt lat="42.9056967" lon="2.8375933"><ele>461.0</ele><time>2026-04-26T07:27:34.731Z</time></trkpt><trkpt lat="42.9056183" lon="2.83749"><ele>461.0</ele><time>2026-04-26T07:27:35.73Z</time></trkpt><trkpt lat="42.90555" lon="2.83735"><ele>461.0</ele><time>2026-04-26T07:27:36.729Z</time></trkpt><trkpt lat="42.9054983" lon="2.8372067"><ele>463.8</ele><time>2026-04-26T07:27:37.736Z</time></trkpt><trkpt lat="42.9054617" lon="2.8370633"><ele>466.6</ele><time>2026-04-26T07:27:38.73Z</time></trkpt><trkpt lat="42.9054417" lon="2.8369433"><ele>469.4</ele><time>2026-04-26T07:27:39.729Z</time></trkpt><trkpt lat="42.9054717" lon="2.8368"><ele>472.2</ele><time>2026-04-26T07:27:41.729Z</time></trkpt><trkpt lat="42.9055633" lon="2.8367467"><ele>475.0</ele><time>2026-04-26T07:27:43.729Z</time></trkpt><trkpt lat="42.9056367" lon="2.8367867"><ele>476.4</ele><time>2026-04-26T07:27:44.73Z</time></trkpt><trkpt lat="42.9057217" lon="2.8368417"><ele>477.8</ele><time>2026-04-26T07:27:45.729Z</time></trkpt><trkpt lat="42.905815" lon="2.8368983"><ele>479.20000000000005</ele><time>2026-04-26T07:27:46.727Z</time></trkpt><trkpt lat="42.905915" lon="2.8369717"><ele>480.6</ele><time>2026-04-26T07:27:47.728Z</time></trkpt><trkpt lat="42.9060117" lon="2.8370583"><ele>482.0</ele><time>2026-04-26T07:27:48.732Z</time></trkpt><trkpt lat="42.906105" lon="2.837145"><ele>483.8</ele><time>2026-04-26T07:27:49.731Z</time></trkpt><trkpt lat="42.9061933" lon="2.837215"><ele>485.6</ele><time>2026-04-26T07:27:50.729Z</time></trkpt><trkpt lat="42.906285" lon="2.8372683"><ele>487.40000000000003</ele><time>2026-04-26T07:27:51.732Z</time></trkpt><trkpt lat="42.9063833" lon="2.83732"><ele>489.20000000000005</ele><time>2026-04-26T07:27:52.731Z</time></trkpt><trkpt lat="42.9064783" lon="2.8373867"><ele>491.0</ele><time>2026-04-26T07:27:53.733Z</time></trkpt><trkpt lat="42.9065683" lon="2.837465"><ele>491.0</ele><time>2026-04-26T07:27:54.729Z</time></trkpt><trkpt lat="42.906655" lon="2.837535"><ele>491.0</ele><time>2026-04-26T07:27:55.73Z</time></trkpt><trkpt lat="42.906745" lon="2.837585"><ele>491.0</ele><time>2026-04-26T07:27:56.73Z</time></trkpt><trkpt lat="42.9068467" lon="2.83762"><ele>491.0</ele><time>2026-04-26T07:27:57.731Z</time></trkpt><trkpt lat="42.906955" lon="2.837645"><ele>491.0</ele><time>2026-04-26T07:27:58.73Z</time></trkpt><trkpt lat="42.9070633" lon="2.8376667"><ele>493.20000000000005</ele><time>2026-04-26T07:27:59.732Z</time></trkpt><trkpt lat="42.9071783" lon="2.8376883"><ele>495.40000000000003</ele><time>2026-04-26T07:28:00.731Z</time></trkpt><trkpt lat="42.9072917" lon="2.837695"><ele>497.6</ele><time>2026-04-26T07:28:01.727Z</time></trkpt><trkpt lat="42.9074" lon="2.8376933"><ele>499.8</ele><time>2026-04-26T07:28:02.729Z</time></trkpt><trkpt lat="42.9075033" lon="2.8376717"><ele>502.0</ele><time>2026-04-26T07:28:03.729Z</time></trkpt><trkpt lat="42.9076083" lon="2.83763"><ele>506.5</ele><time>2026-04-26T07:28:04.727Z</time></trkpt><trkpt lat="42.9077133" lon="2.837575"><ele>511.0</ele><time>2026-04-26T07:28:05.729Z</time></trkpt><trkpt lat="42.9078217" lon="2.8375233"><ele>515.5</ele><time>2026-04-26T07:28:06.728Z</time></trkpt><trkpt lat="42.9079283" lon="2.8374783"><ele>520.0</ele><time>2026-04-26T07:28:07.813Z</time></trkpt><trkpt lat="42.9080333" lon="2.837425"><ele>520.0</ele><time>2026-04-26T07:28:08.729Z</time></trkpt><trkpt lat="42.9081317" lon="2.8373567"><ele>520.0</ele><time>2026-04-26T07:28:09.728Z</time></trkpt><trkpt lat="42.9082133" lon="2.8372767"><ele>520.0</ele><time>2026-04-26T07:28:10.732Z</time></trkpt><trkpt lat="42.908285" lon="2.8372"><ele>520.0</ele><time>2026-04-26T07:28:11.728Z</time></trkpt><trkpt lat="42.9083433" lon="2.83713"><ele>520.0</ele><time>2026-04-26T07:28:12.728Z</time></trkpt><trkpt lat="42.908425" lon="2.8370583"><ele>520.0</ele><time>2026-04-26T07:28:14.728Z</time></trkpt><trkpt lat="42.9084917" lon="2.83712"><ele>520.0</ele><time>2026-04-26T07:28:16.73Z</time></trkpt><trkpt lat="42.9084667" lon="2.837235"><ele>520.0</ele><time>2026-04-26T07:28:18.732Z</time></trkpt><trkpt lat="42.908405" lon="2.8372867"><ele>520.0</ele><time>2026-04-26T07:28:19.729Z</time></trkpt><trkpt lat="42.9083267" lon="2.83737"><ele>520.0</ele><time>2026-04-26T07:28:20.728Z</time></trkpt><trkpt lat="42.908255" lon="2.83748"><ele>520.0</ele><time>2026-04-26T07:28:21.73Z</time></trkpt><trkpt lat="42.9081883" lon="2.83759"><ele>521.0</ele><time>2026-04-26T07:28:22.73Z</time></trkpt><trkpt lat="42.9081233" lon="2.8376867"><ele>522.0</ele><time>2026-04-26T07:28:23.73Z</time></trkpt><trkpt lat="42.9080533" lon="2.837765"><ele>523.0</ele><time>2026-04-26T07:28:24.731Z</time></trkpt><trkpt lat="42.9079917" lon="2.8378283"><ele>524.0</ele><time>2026-04-26T07:28:25.729Z</time></trkpt><trkpt lat="42.90793" lon="2.8379467"><ele>525.0</ele><time>2026-04-26T07:28:27.729Z</time></trkpt><trkpt lat="42.9080033" lon="2.8380083"><ele>525.0</ele><time>2026-04-26T07:28:29.73Z</time></trkpt><trkpt lat="42.9081133" lon="2.8379533"><ele>525.0</ele><time>2026-04-26T07:28:31.73Z</time></trkpt><trkpt lat="42.90817" lon="2.8379017"><ele>525.0</ele><time>2026-04-26T07:28:32.729Z</time></trkpt><trkpt lat="42.9082283" lon="2.8378517"><ele>525.0</ele><time>2026-04-26T07:28:33.729Z</time></trkpt><trkpt lat="42.908325" lon="2.8377583"><ele>525.0</ele><time>2026-04-26T07:28:34.728Z</time></trkpt><trkpt lat="42.90841" lon="2.83767"><ele>528.0</ele><time>2026-04-26T07:28:35.729Z</time></trkpt><trkpt lat="42.9085017" lon="2.83758"><ele>531.0</ele><time>2026-04-26T07:28:36.731Z</time></trkpt><trkpt lat="42.9085933" lon="2.8374833"><ele>534.0</ele><time>2026-04-26T07:28:37.731Z</time></trkpt><trkpt lat="42.9086833" lon="2.83739"><ele>537.0</ele><time>2026-04-26T07:28:38.729Z</time></trkpt><trkpt lat="42.9087733" lon="2.83733"><ele>540.0</ele><time>2026-04-26T07:28:39.729Z</time></trkpt><trkpt lat="42.908855" lon="2.837285"><ele>540.0</ele><time>2026-04-26T07:28:40.728Z</time></trkpt><trkpt lat="42.9089383" lon="2.8372517"><ele>540.0</ele><time>2026-04-26T07:28:41.729Z</time></trkpt><trkpt lat="42.90902" lon="2.8372483"><ele>540.0</ele><time>2026-04-26T07:28:42.729Z</time></trkpt><trkpt lat="42.9091017" lon="2.83726"><ele>540.0</ele><time>2026-04-26T07:28:43.731Z</time></trkpt><trkpt lat="42.90919" lon="2.8372767"><ele>540.0</ele><time>2026-04-26T07:28:44.728Z</time></trkpt><trkpt lat="42.9092833" lon="2.8373"><ele>540.0</ele><time>2026-04-26T07:28:45.729Z</time></trkpt><trkpt lat="42.9093883" lon="2.83733"><ele>541.6</ele><time>2026-04-26T07:28:46.728Z</time></trkpt><trkpt lat="42.9094983" lon="2.8373517"><ele>543.2</ele><time>2026-04-26T07:28:47.734Z</time></trkpt><trkpt lat="42.9096033" lon="2.837365"><ele>544.8</ele><time>2026-04-26T07:28:48.728Z</time></trkpt><trkpt lat="42.9097083" lon="2.8373667"><ele>546.4</ele><time>2026-04-26T07:28:49.73Z</time></trkpt><trkpt lat="42.90981" lon="2.8373833"><ele>548.0</ele><time>2026-04-26T07:28:50.728Z</time></trkpt><trkpt lat="42.9099083" lon="2.837425"><ele>548.0</ele><time>2026-04-26T07:28:51.729Z</time></trkpt><trkpt lat="42.910005" lon="2.83749"><ele>548.0</ele><time>2026-04-26T07:28:52.728Z</time></trkpt><trkpt lat="42.9101017" lon="2.8375617"><ele>548.0</ele><time>2026-04-26T07:28:53.729Z</time></trkpt><trkpt lat="42.910195" lon="2.837615"><ele>548.0</ele><time>2026-04-26T07:28:54.728Z</time></trkpt><trkpt lat="42.9102833" lon="2.83764"><ele>548.0</ele><time>2026-04-26T07:28:55.732Z</time></trkpt><trkpt lat="42.9103733" lon="2.837645"><ele>550.0</ele><time>2026-04-26T07:28:56.733Z</time></trkpt><trkpt lat="42.9104733" lon="2.83763"><ele>552.0</ele><time>2026-04-26T07:28:57.729Z</time></trkpt><trkpt lat="42.9105617" lon="2.83761"><ele>554.0</ele><time>2026-04-26T07:28:58.729Z</time></trkpt><trkpt lat="42.9106483" lon="2.83757"><ele>556.0</ele><time>2026-04-26T07:28:59.728Z</time></trkpt><trkpt lat="42.9107367" lon="2.837525"><ele>558.0</ele><time>2026-04-26T07:29:00.728Z</time></trkpt><trkpt lat="42.9108383" lon="2.8375"><ele>562.1999999999999</ele><time>2026-04-26T07:29:01.732Z</time></trkpt><trkpt lat="42.9109417" lon="2.8374917"><ele>566.4</ele><time>2026-04-26T07:29:02.728Z</time></trkpt><trkpt lat="42.91105" lon="2.8374983"><ele>570.5999999999999</ele><time>2026-04-26T07:29:03.728Z</time></trkpt><trkpt lat="42.9111517" lon="2.8375167"><ele>574.8</ele><time>2026-04-26T07:29:04.729Z</time></trkpt><trkpt lat="42.9112333" lon="2.8375217"><ele>579.0</ele><time>2026-04-26T07:29:05.729Z</time></trkpt><trkpt lat="42.9113433" lon="2.8374833"><ele>579.0</ele><time>2026-04-26T07:29:07.732Z</time></trkpt><trkpt lat="42.9113867" lon="2.8373667"><ele>579.0</ele><time>2026-04-26T07:29:09.729Z</time></trkpt><trkpt lat="42.91137" lon="2.8372717"><ele>579.0</ele><time>2026-04-26T07:29:10.728Z</time></trkpt><trkpt lat="42.9113517" lon="2.83717"><ele>579.0</ele><time>2026-04-26T07:29:11.728Z</time></trkpt><trkpt lat="42.91133" lon="2.83705"><ele>579.0</ele><time>2026-04-26T07:29:12.727Z</time></trkpt><trkpt lat="42.9112933" lon="2.8369133"><ele>579.0</ele><time>2026-04-26T07:29:13.729Z</time></trkpt><trkpt lat="42.9112467" lon="2.8367683"><ele>579.75</ele><time>2026-04-26T07:29:14.73Z</time></trkpt><trkpt lat="42.9112017" lon="2.83662"><ele>580.5</ele><time>2026-04-26T07:29:15.733Z</time></trkpt><trkpt lat="42.9111567" lon="2.83647"><ele>581.25</ele><time>2026-04-26T07:29:16.73Z</time></trkpt><trkpt lat="42.911105" lon="2.8363317"><ele>582.0</ele><time>2026-04-26T07:29:17.729Z</time></trkpt><trkpt lat="42.9110467" lon="2.836205"><ele>582.0</ele><time>2026-04-26T07:29:18.733Z</time></trkpt><trkpt lat="42.9109833" lon="2.836085"><ele>582.0</ele><time>2026-04-26T07:29:19.729Z</time></trkpt><trkpt lat="42.9109167" lon="2.8359767"><ele>582.0</ele><time>2026-04-26T07:29:20.729Z</time></trkpt><trkpt lat="42.9108433" lon="2.83586"><ele>582.0</ele><time>2026-04-26T07:29:21.73Z</time></trkpt><trkpt lat="42.9107733" lon="2.8357267"><ele>582.0</ele><time>2026-04-26T07:29:22.729Z</time></trkpt><trkpt lat="42.9107167" lon="2.83559"><ele>582.3333333333334</ele><time>2026-04-26T07:29:23.731Z</time></trkpt><trkpt lat="42.9106717" lon="2.8354617"><ele>582.6666666666666</ele><time>2026-04-26T07:29:24.729Z</time></trkpt><trkpt lat="42.9106433" lon="2.8353483"><ele>583.0</ele><time>2026-04-26T07:29:25.728Z</time></trkpt><trkpt lat="42.9106283" lon="2.835235"><ele>583.3333333333333</ele><time>2026-04-26T07:29:26.728Z</time></trkpt><trkpt lat="42.91063" lon="2.8351267"><ele>583.6666666666666</ele><time>2026-04-26T07:29:27.728Z</time></trkpt><trkpt lat="42.9106283" lon="2.8350267"><ele>584.0</ele><time>2026-04-26T07:29:28.73Z</time></trkpt><trkpt lat="42.9106183" lon="2.8349333"><ele>584.0</ele><time>2026-04-26T07:29:29.729Z</time></trkpt><trkpt lat="42.910585" lon="2.834785"><ele>584.0</ele><time>2026-04-26T07:29:31.729Z</time></trkpt><trkpt lat="42.91058" lon="2.8346783"><ele>584.0</ele><time>2026-04-26T07:29:33.734Z</time></trkpt><trkpt lat="42.910555" lon="2.8345933"><ele>584.0</ele><time>2026-04-26T07:29:35.729Z</time></trkpt><trkpt lat="42.910475" lon="2.8345583"><ele>584.0</ele><time>2026-04-26T07:29:38.729Z</time></trkpt><trkpt lat="42.9104117" lon="2.8345667"><ele>584.0</ele><time>2026-04-26T07:29:40.732Z</time></trkpt><trkpt lat="42.9103267" lon="2.834545"><ele>584.0</ele><time>2026-04-26T07:29:43.729Z</time></trkpt><trkpt lat="42.9102633" lon="2.834505"><ele>584.0</ele><time>2026-04-26T07:29:45.729Z</time></trkpt><trkpt lat="42.9101867" lon="2.8344867"><ele>584.0</ele><time>2026-04-26T07:29:47.731Z</time></trkpt><trkpt lat="42.9101017" lon="2.8344783"><ele>584.0</ele><time>2026-04-26T07:29:49.731Z</time></trkpt><trkpt lat="42.9100167" lon="2.834435"><ele>584.0</ele><time>2026-04-26T07:29:51.731Z</time></trkpt><trkpt lat="42.9099067" lon="2.834385"><ele>584.0</ele><time>2026-04-26T07:29:53.729Z</time></trkpt><trkpt lat="42.909795" lon="2.8343433"><ele>581.8333333333333</ele><time>2026-04-26T07:29:55.73Z</time></trkpt><trkpt lat="42.9096817" lon="2.8342767"><ele>579.6666666666666</ele><time>2026-04-26T07:29:57.732Z</time></trkpt><trkpt lat="42.90962" lon="2.8342367"><ele>577.5</ele><time>2026-04-26T07:29:58.729Z</time></trkpt><trkpt lat="42.9095583" lon="2.8342"><ele>575.3333333333334</ele><time>2026-04-26T07:29:59.733Z</time></trkpt><trkpt lat="42.9095" lon="2.8341633"><ele>573.1666666666667</ele><time>2026-04-26T07:30:00.73Z</time></trkpt><trkpt lat="42.9093983" lon="2.8341133"><ele>571.0</ele><time>2026-04-26T07:30:02.73Z</time></trkpt><trkpt lat="42.909305" lon="2.8340433"><ele>569.1666666666667</ele><time>2026-04-26T07:30:04.729Z</time></trkpt><trkpt lat="42.90921" lon="2.8339483"><ele>567.3333333333334</ele><time>2026-04-26T07:30:06.732Z</time></trkpt><trkpt lat="42.9091483" lon="2.8339"><ele>565.5</ele><time>2026-04-26T07:30:07.731Z</time></trkpt><trkpt lat="42.909085" lon="2.8338533"><ele>563.6666666666666</ele><time>2026-04-26T07:30:08.732Z</time></trkpt><trkpt lat="42.9090267" lon="2.83381"><ele>561.8333333333333</ele><time>2026-04-26T07:30:09.73Z</time></trkpt><trkpt lat="42.908935" lon="2.83374"><ele>560.0</ele><time>2026-04-26T07:30:11.73Z</time></trkpt><trkpt lat="42.9088633" lon="2.8336417"><ele>560.0</ele><time>2026-04-26T07:30:13.732Z</time></trkpt><trkpt lat="42.9087933" lon="2.8335083"><ele>560.0</ele><time>2026-04-26T07:30:15.729Z</time></trkpt><trkpt lat="42.9087567" lon="2.8334367"><ele>560.0</ele><time>2026-04-26T07:30:16.728Z</time></trkpt><trkpt lat="42.90871" lon="2.8332817"><ele>560.0</ele><time>2026-04-26T07:30:18.729Z</time></trkpt><trkpt lat="42.9086867" lon="2.8331333"><ele>560.0</ele><time>2026-04-26T07:30:20.728Z</time></trkpt><trkpt lat="42.9086583" lon="2.8330017"><ele>559.6666666666666</ele><time>2026-04-26T07:30:22.729Z</time></trkpt><trkpt lat="42.90863" lon="2.8328867"><ele>559.3333333333333</ele><time>2026-04-26T07:30:24.728Z</time></trkpt><trkpt lat="42.9086533" lon="2.8327817"><ele>559.0</ele><time>2026-04-26T07:30:26.728Z</time></trkpt><trkpt lat="42.9087133" lon="2.8327183"><ele>558.6666666666666</ele><time>2026-04-26T07:30:28.729Z</time></trkpt><trkpt lat="42.9087933" lon="2.8326783"><ele>558.3333333333334</ele><time>2026-04-26T07:30:30.73Z</time></trkpt><trkpt lat="42.908875" lon="2.8325867"><ele>558.0</ele><time>2026-04-26T07:30:32.732Z</time></trkpt><trkpt lat="42.9089317" lon="2.832445"><ele>554.6</ele><time>2026-04-26T07:30:34.728Z</time></trkpt><trkpt lat="42.9090017" lon="2.8323217"><ele>551.1999999999999</ele><time>2026-04-26T07:30:36.731Z</time></trkpt><trkpt lat="42.909055" lon="2.8322"><ele>547.8</ele><time>2026-04-26T07:30:38.732Z</time></trkpt><trkpt lat="42.9090733" lon="2.8320583"><ele>544.4</ele><time>2026-04-26T07:30:40.73Z</time></trkpt><trkpt lat="42.90907" lon="2.83197"><ele>541.0</ele><time>2026-04-26T07:30:41.73Z</time></trkpt><trkpt lat="42.9090583" lon="2.8318683"><ele>537.6666666666667</ele><time>2026-04-26T07:30:42.728Z</time></trkpt><trkpt lat="42.9090433" lon="2.831755"><ele>534.3333333333334</ele><time>2026-04-26T07:30:43.727Z</time></trkpt><trkpt lat="42.9090233" lon="2.8316383"><ele>531.0</ele><time>2026-04-26T07:30:44.729Z</time></trkpt><trkpt lat="42.9090083" lon="2.8315183"><ele>527.6666666666666</ele><time>2026-04-26T07:30:45.729Z</time></trkpt><trkpt lat="42.9089917" lon="2.831395"><ele>524.3333333333333</ele><time>2026-04-26T07:30:46.73Z</time></trkpt><trkpt lat="42.9089583" lon="2.831275"><ele>521.0</ele><time>2026-04-26T07:30:47.729Z</time></trkpt><trkpt lat="42.9089167" lon="2.8311633"><ele>521.0</ele><time>2026-04-26T07:30:48.728Z</time></trkpt><trkpt lat="42.9088767" lon="2.8310583"><ele>521.0</ele><time>2026-04-26T07:30:49.731Z</time></trkpt><trkpt lat="42.9088433" lon="2.8309617"><ele>521.0</ele><time>2026-04-26T07:30:50.729Z</time></trkpt><trkpt lat="42.9088217" lon="2.8308767"><ele>521.0</ele><time>2026-04-26T07:30:51.732Z</time></trkpt><trkpt lat="42.9088467" lon="2.830735"><ele>521.0</ele><time>2026-04-26T07:30:53.729Z</time></trkpt><trkpt lat="42.90888" lon="2.8306617"><ele>521.0</ele><time>2026-04-26T07:30:54.729Z</time></trkpt><trkpt lat="42.90891" lon="2.8305817"><ele>520.3333333333333</ele><time>2026-04-26T07:30:55.729Z</time></trkpt><trkpt lat="42.9089367" lon="2.830495"><ele>519.6666666666666</ele><time>2026-04-26T07:30:56.729Z</time></trkpt><trkpt lat="42.90896" lon="2.8304067"><ele>519.0</ele><time>2026-04-26T07:30:57.73Z</time></trkpt><trkpt lat="42.9089833" lon="2.83032"><ele>518.3333333333334</ele><time>2026-04-26T07:30:58.729Z</time></trkpt><trkpt lat="42.909" lon="2.83023"><ele>517.6666666666667</ele><time>2026-04-26T07:30:59.729Z</time></trkpt><trkpt lat="42.9090233" lon="2.83007"><ele>517.0</ele><time>2026-04-26T07:31:01.73Z</time></trkpt><trkpt lat="42.9090367" lon="2.82991"><ele>518.2857142857143</ele><time>2026-04-26T07:31:03.733Z</time></trkpt><trkpt lat="42.9090467" lon="2.82982"><ele>519.5714285714287</ele><time>2026-04-26T07:31:04.731Z</time></trkpt><trkpt lat="42.90906" lon="2.8297283"><ele>520.8571428571429</ele><time>2026-04-26T07:31:05.729Z</time></trkpt><trkpt lat="42.9090717" lon="2.829635"><ele>522.1428571428571</ele><time>2026-04-26T07:31:06.73Z</time></trkpt><trkpt lat="42.9090767" lon="2.829525"><ele>523.4285714285713</ele><time>2026-04-26T07:31:07.731Z</time></trkpt><trkpt lat="42.9090917" lon="2.8294117"><ele>524.7142857142857</ele><time>2026-04-26T07:31:08.73Z</time></trkpt><trkpt lat="42.9091017" lon="2.8293067"><ele>526.0</ele><time>2026-04-26T07:31:09.731Z</time></trkpt><trkpt lat="42.9091117" lon="2.8292133"><ele>527.1666666666667</ele><time>2026-04-26T07:31:10.729Z</time></trkpt><trkpt lat="42.90912" lon="2.829115"><ele>528.3333333333334</ele><time>2026-04-26T07:31:11.729Z</time></trkpt><trkpt lat="42.90913" lon="2.829015"><ele>529.5</ele><time>2026-04-26T07:31:12.73Z</time></trkpt><trkpt lat="42.9091367" lon="2.8289217"><ele>530.6666666666666</ele><time>2026-04-26T07:31:13.729Z</time></trkpt><trkpt lat="42.9091417" lon="2.8288183"><ele>531.8333333333333</ele><time>2026-04-26T07:31:14.728Z</time></trkpt><trkpt lat="42.90914" lon="2.8286967"><ele>533.0</ele><time>2026-04-26T07:31:15.728Z</time></trkpt><trkpt lat="42.9091533" lon="2.8285967"><ele>533.0</ele><time>2026-04-26T07:31:16.729Z</time></trkpt><trkpt lat="42.9091917" lon="2.828515"><ele>533.0</ele><time>2026-04-26T07:31:17.728Z</time></trkpt><trkpt lat="42.9092583" lon="2.8283817"><ele>533.0</ele><time>2026-04-26T07:31:19.73Z</time></trkpt><trkpt lat="42.9092783" lon="2.82824"><ele>533.0</ele><time>2026-04-26T07:31:21.728Z</time></trkpt><trkpt lat="42.9092467" lon="2.82809"><ele>533.0</ele><time>2026-04-26T07:31:23.729Z</time></trkpt><trkpt lat="42.909185" lon="2.82797"><ele>532.6</ele><time>2026-04-26T07:31:25.73Z</time></trkpt><trkpt lat="42.9091033" lon="2.8279217"><ele>532.1999999999999</ele><time>2026-04-26T07:31:27.727Z</time></trkpt><trkpt lat="42.90902" lon="2.82786"><ele>531.8</ele><time>2026-04-26T07:31:29.73Z</time></trkpt><trkpt lat="42.9089533" lon="2.8277483"><ele>531.4</ele><time>2026-04-26T07:31:31.732Z</time></trkpt><trkpt lat="42.9088967" lon="2.8276183"><ele>531.0</ele><time>2026-04-26T07:31:33.73Z</time></trkpt><trkpt lat="42.90884" lon="2.8274933"><ele>530.5</ele><time>2026-04-26T07:31:35.73Z</time></trkpt><trkpt lat="42.9088017" lon="2.82735"><ele>530.0</ele><time>2026-04-26T07:31:37.73Z</time></trkpt><trkpt lat="42.9087867" lon="2.82726"><ele>529.5</ele><time>2026-04-26T07:31:38.731Z</time></trkpt><trkpt lat="42.9087733" lon="2.82717"><ele>529.0</ele><time>2026-04-26T07:31:39.732Z</time></trkpt><trkpt lat="42.9087667" lon="2.8270317"><ele>528.5</ele><time>2026-04-26T07:31:41.733Z</time></trkpt><trkpt lat="42.9087767" lon="2.82691"><ele>528.0</ele><time>2026-04-26T07:31:43.73Z</time></trkpt><trkpt lat="42.9087567" lon="2.8268017"><ele>525.6666666666666</ele><time>2026-04-26T07:31:45.728Z</time></trkpt><trkpt lat="42.90873" lon="2.8266967"><ele>523.3333333333334</ele><time>2026-04-26T07:31:47.729Z</time></trkpt><trkpt lat="42.908705" lon="2.82658"><ele>521.0</ele><time>2026-04-26T07:31:49.728Z</time></trkpt><trkpt lat="42.9086883" lon="2.82648"><ele>518.6666666666667</ele><time>2026-04-26T07:31:51.73Z</time></trkpt><trkpt lat="42.908675" lon="2.8263667"><ele>516.3333333333334</ele><time>2026-04-26T07:31:53.731Z</time></trkpt><trkpt lat="42.9086617" lon="2.8262283"><ele>514.0</ele><time>2026-04-26T07:31:55.733Z</time></trkpt><trkpt lat="42.9086933" lon="2.8261317"><ele>514.0</ele><time>2026-04-26T07:31:57.73Z</time></trkpt><trkpt lat="42.90875" lon="2.8260667"><ele>514.0</ele><time>2026-04-26T07:31:59.729Z</time></trkpt><trkpt lat="42.9088183" lon="2.826005"><ele>514.0</ele><time>2026-04-26T07:32:01.73Z</time></trkpt><trkpt lat="42.908845" lon="2.8259"><ele>514.0</ele><time>2026-04-26T07:32:04.73Z</time></trkpt><trkpt lat="42.9087917" lon="2.8258267"><ele>514.0</ele><time>2026-04-26T07:32:07.73Z</time></trkpt><trkpt lat="42.9086983" lon="2.825805"><ele>514.0</ele><time>2026-04-26T07:32:09.731Z</time></trkpt><trkpt lat="42.9086" lon="2.8258"><ele>510.83333333333337</ele><time>2026-04-26T07:32:11.731Z</time></trkpt><trkpt lat="42.9085167" lon="2.8258183"><ele>507.6666666666667</ele><time>2026-04-26T07:32:13.73Z</time></trkpt><trkpt lat="42.908445" lon="2.8258183"><ele>504.5</ele><time>2026-04-26T07:32:15.728Z</time></trkpt><trkpt lat="42.9083583" lon="2.8258083"><ele>501.33333333333337</ele><time>2026-04-26T07:32:17.732Z</time></trkpt><trkpt lat="42.90826" lon="2.8257717"><ele>498.1666666666667</ele><time>2026-04-26T07:32:19.733Z</time></trkpt><trkpt lat="42.9081733" lon="2.8257267"><ele>495.0</ele><time>2026-04-26T07:32:21.731Z</time></trkpt><trkpt lat="42.9080817" lon="2.8256833"><ele>493.6666666666667</ele><time>2026-04-26T07:32:23.73Z</time></trkpt><trkpt lat="42.9080033" lon="2.825635"><ele>492.33333333333337</ele><time>2026-04-26T07:32:25.732Z</time></trkpt><trkpt lat="42.907925" lon="2.8256033"><ele>491.0</ele><time>2026-04-26T07:32:27.729Z</time></trkpt><trkpt lat="42.90783" lon="2.8256083"><ele>489.6666666666667</ele><time>2026-04-26T07:32:29.729Z</time></trkpt><trkpt lat="42.9077617" lon="2.8256483"><ele>488.33333333333337</ele><time>2026-04-26T07:32:31.731Z</time></trkpt><trkpt lat="42.9077033" lon="2.825705"><ele>487.0</ele><time>2026-04-26T07:32:33.731Z</time></trkpt><trkpt lat="42.9076133" lon="2.82568"><ele>485.0</ele><time>2026-04-26T07:32:36.73Z</time></trkpt><trkpt lat="42.90754" lon="2.8255683"><ele>483.0</ele><time>2026-04-26T07:32:38.73Z</time></trkpt><trkpt lat="42.907495" lon="2.8255033"><ele>481.0</ele><time>2026-04-26T07:32:39.73Z</time></trkpt><trkpt lat="42.90744" lon="2.82545"><ele>479.0</ele><time>2026-04-26T07:32:40.731Z</time></trkpt><trkpt lat="42.9073817" lon="2.82541"><ele>477.0</ele><time>2026-04-26T07:32:41.728Z</time></trkpt><trkpt lat="42.9073217" lon="2.8253517"><ele>475.0</ele><time>2026-04-26T07:32:42.73Z</time></trkpt><trkpt lat="42.907275" lon="2.82529"><ele>473.0</ele><time>2026-04-26T07:32:43.729Z</time></trkpt><trkpt lat="42.9072267" lon="2.82523"><ele>473.0</ele><time>2026-04-26T07:32:44.728Z</time></trkpt><trkpt lat="42.9071183" lon="2.8251817"><ele>472.99999999999994</ele><time>2026-04-26T07:32:46.728Z</time></trkpt><trkpt lat="42.907055" lon="2.8251817"><ele>472.99999999999994</ele><time>2026-04-26T07:32:47.729Z</time></trkpt><trkpt lat="42.9069883" lon="2.825185"><ele>473.0</ele><time>2026-04-26T07:32:48.73Z</time></trkpt><trkpt lat="42.9068667" lon="2.82519"><ele>473.0</ele><time>2026-04-26T07:32:50.73Z</time></trkpt><trkpt lat="42.9067333" lon="2.8251267"><ele>473.2</ele><time>2026-04-26T07:32:52.728Z</time></trkpt><trkpt lat="42.906655" lon="2.8250883"><ele>473.4</ele><time>2026-04-26T07:32:53.732Z</time></trkpt><trkpt lat="42.9065867" lon="2.8250483"><ele>473.59999999999997</ele><time>2026-04-26T07:32:54.729Z</time></trkpt><trkpt lat="42.9065117" lon="2.82492"><ele>473.79999999999995</ele><time>2026-04-26T07:32:56.728Z</time></trkpt><trkpt lat="42.9065067" lon="2.82483"><ele>474.0</ele><time>2026-04-26T07:32:57.73Z</time></trkpt><trkpt lat="42.90649" lon="2.8246817"><ele>474.0</ele><time>2026-04-26T07:32:59.728Z</time></trkpt><trkpt lat="42.9064283" lon="2.824585"><ele>474.0</ele><time>2026-04-26T07:33:01.729Z</time></trkpt><trkpt lat="42.9063733" lon="2.82453"><ele>474.0</ele><time>2026-04-26T07:33:02.729Z</time></trkpt><trkpt lat="42.9063083" lon="2.8244617"><ele>474.0</ele><time>2026-04-26T07:33:03.728Z</time></trkpt><trkpt lat="42.9062417" lon="2.8243867"><ele>474.0</ele><time>2026-04-26T07:33:04.73Z</time></trkpt><trkpt lat="42.9061783" lon="2.8243133"><ele>474.0</ele><time>2026-04-26T07:33:05.731Z</time></trkpt><trkpt lat="42.906125" lon="2.82423"><ele>473.6</ele><time>2026-04-26T07:33:06.729Z</time></trkpt><trkpt lat="42.9060767" lon="2.8241317"><ele>473.2</ele><time>2026-04-26T07:33:07.73Z</time></trkpt><trkpt lat="42.9060317" lon="2.8240217"><ele>472.80000000000007</ele><time>2026-04-26T07:33:08.728Z</time></trkpt><trkpt lat="42.9059833" lon="2.8239067"><ele>472.40000000000003</ele><time>2026-04-26T07:33:09.73Z</time></trkpt><trkpt lat="42.90593" lon="2.8237933"><ele>472.0</ele><time>2026-04-26T07:33:10.728Z</time></trkpt><trkpt lat="42.90588" lon="2.82369"><ele>472.0</ele><time>2026-04-26T07:33:11.728Z</time></trkpt><trkpt lat="42.9058317" lon="2.8235833"><ele>472.00000000000006</ele><time>2026-04-26T07:33:12.728Z</time></trkpt><trkpt lat="42.9057867" lon="2.8234717"><ele>472.00000000000006</ele><time>2026-04-26T07:33:13.728Z</time></trkpt><trkpt lat="42.90574" lon="2.8233633"><ele>472.0</ele><time>2026-04-26T07:33:14.728Z</time></trkpt><trkpt lat="42.9057017" lon="2.8232567"><ele>472.0</ele><time>2026-04-26T07:33:15.728Z</time></trkpt><trkpt lat="42.9056683" lon="2.8231467"><ele>471.8</ele><time>2026-04-26T07:33:16.731Z</time></trkpt><trkpt lat="42.90564" lon="2.8230317"><ele>471.6</ele><time>2026-04-26T07:33:17.729Z</time></trkpt><trkpt lat="42.9056067" lon="2.822905"><ele>471.40000000000003</ele><time>2026-04-26T07:33:18.729Z</time></trkpt><trkpt lat="42.9055767" lon="2.8227717"><ele>471.20000000000005</ele><time>2026-04-26T07:33:19.73Z</time></trkpt><trkpt lat="42.9055567" lon="2.8226517"><ele>471.0</ele><time>2026-04-26T07:33:20.729Z</time></trkpt><trkpt lat="42.90554" lon="2.8225317"><ele>471.0</ele><time>2026-04-26T07:33:21.733Z</time></trkpt><trkpt lat="42.90551" lon="2.8224117"><ele>471.0</ele><time>2026-04-26T07:33:22.73Z</time></trkpt><trkpt lat="42.90546" lon="2.8223017"><ele>471.0</ele><time>2026-04-26T07:33:23.731Z</time></trkpt><trkpt lat="42.905405" lon="2.8222067"><ele>471.0</ele><time>2026-04-26T07:33:24.728Z</time></trkpt><trkpt lat="42.905345" lon="2.8221267"><ele>471.0</ele><time>2026-04-26T07:33:25.729Z</time></trkpt><trkpt lat="42.9052817" lon="2.82205"><ele>471.0</ele><time>2026-04-26T07:33:26.731Z</time></trkpt><trkpt lat="42.9052183" lon="2.8219717"><ele>471.0</ele><time>2026-04-26T07:33:27.733Z</time></trkpt><trkpt lat="42.9051567" lon="2.821895"><ele>471.0</ele><time>2026-04-26T07:33:28.73Z</time></trkpt><trkpt lat="42.9051" lon="2.8218117"><ele>471.0</ele><time>2026-04-26T07:33:29.728Z</time></trkpt><trkpt lat="42.9050433" lon="2.8217333"><ele>471.0</ele><time>2026-04-26T07:33:30.728Z</time></trkpt><trkpt lat="42.90499" lon="2.8216533"><ele>471.0</ele><time>2026-04-26T07:33:31.731Z</time></trkpt><trkpt lat="42.9049467" lon="2.8215717"><ele>471.0</ele><time>2026-04-26T07:33:32.729Z</time></trkpt><trkpt lat="42.9049" lon="2.8214917"><ele>470.6666666666667</ele><time>2026-04-26T07:33:33.73Z</time></trkpt><trkpt lat="42.904845" lon="2.821415"><ele>470.33333333333337</ele><time>2026-04-26T07:33:34.728Z</time></trkpt><trkpt lat="42.9047817" lon="2.8213367"><ele>470.0</ele><time>2026-04-26T07:33:35.729Z</time></trkpt><trkpt lat="42.9047183" lon="2.8212483"><ele>469.6666666666667</ele><time>2026-04-26T07:33:36.728Z</time></trkpt><trkpt lat="42.9046567" lon="2.8211517"><ele>469.33333333333337</ele><time>2026-04-26T07:33:37.73Z</time></trkpt><trkpt lat="42.9046083" lon="2.8210533"><ele>469.0</ele><time>2026-04-26T07:33:38.73Z</time></trkpt><trkpt lat="42.9045633" lon="2.8209633"><ele>468.33333333333337</ele><time>2026-04-26T07:33:39.739Z</time></trkpt><trkpt lat="42.9045217" lon="2.8208883"><ele>467.6666666666667</ele><time>2026-04-26T07:33:40.731Z</time></trkpt><trkpt lat="42.9044267" lon="2.8207883"><ele>467.0</ele><time>2026-04-26T07:33:42.728Z</time></trkpt><trkpt lat="42.9043583" lon="2.8207717"><ele>466.33333333333337</ele><time>2026-04-26T07:33:43.729Z</time></trkpt><trkpt lat="42.904285" lon="2.8207683"><ele>465.6666666666667</ele><time>2026-04-26T07:33:44.731Z</time></trkpt><trkpt lat="42.9042133" lon="2.8207783"><ele>465.0</ele><time>2026-04-26T07:33:45.73Z</time></trkpt><trkpt lat="42.9041467" lon="2.8207817"><ele>465.0</ele><time>2026-04-26T07:33:46.729Z</time></trkpt><trkpt lat="42.9040233" lon="2.8207583"><ele>465.0</ele><time>2026-04-26T07:33:48.732Z</time></trkpt><trkpt lat="42.90397" lon="2.8207083"><ele>465.0</ele><time>2026-04-26T07:33:49.73Z</time></trkpt><trkpt lat="42.9038883" lon="2.820635"><ele>465.0</ele><time>2026-04-26T07:33:51.73Z</time></trkpt><trkpt lat="42.9037667" lon="2.820605"><ele>465.0</ele><time>2026-04-26T07:33:53.731Z</time></trkpt><trkpt lat="42.9036967" lon="2.8205833"><ele>465.0</ele><time>2026-04-26T07:33:54.73Z</time></trkpt><trkpt lat="42.9036283" lon="2.8205617"><ele>465.0</ele><time>2026-04-26T07:33:55.729Z</time></trkpt><trkpt lat="42.903555" lon="2.8205267"><ele>465.0</ele><time>2026-04-26T07:33:56.73Z</time></trkpt><trkpt lat="42.903475" lon="2.8204767"><ele>465.0</ele><time>2026-04-26T07:33:57.728Z</time></trkpt><trkpt lat="42.90339" lon="2.8204233"><ele>465.0</ele><time>2026-04-26T07:33:58.729Z</time></trkpt><trkpt lat="42.90331" lon="2.82037"><ele>465.0</ele><time>2026-04-26T07:33:59.728Z</time></trkpt><trkpt lat="42.903235" lon="2.8203217"><ele>464.71428571428567</ele><time>2026-04-26T07:34:00.727Z</time></trkpt><trkpt lat="42.9031667" lon="2.820285"><ele>464.42857142857144</ele><time>2026-04-26T07:34:01.728Z</time></trkpt><trkpt lat="42.9031" lon="2.8202583"><ele>464.1428571428571</ele><time>2026-04-26T07:34:02.728Z</time></trkpt><trkpt lat="42.9030317" lon="2.82023"><ele>463.85714285714283</ele><time>2026-04-26T07:34:03.728Z</time></trkpt><trkpt lat="42.9029683" lon="2.8201833"><ele>463.57142857142856</ele><time>2026-04-26T07:34:04.728Z</time></trkpt><trkpt lat="42.9029067" lon="2.8201217"><ele>463.2857142857143</ele><time>2026-04-26T07:34:05.727Z</time></trkpt><trkpt lat="42.9028483" lon="2.8200517"><ele>463.0</ele><time>2026-04-26T07:34:06.727Z</time></trkpt><trkpt lat="42.90279" lon="2.8199767"><ele>463.00000000000006</ele><time>2026-04-26T07:34:07.729Z</time></trkpt><trkpt lat="42.90273" lon="2.819895"><ele>463.0</ele><time>2026-04-26T07:34:08.729Z</time></trkpt><trkpt lat="42.902675" lon="2.8198133"><ele>463.0</ele><time>2026-04-26T07:34:09.728Z</time></trkpt><trkpt lat="42.9026317" lon="2.8197333"><ele>463.0</ele><time>2026-04-26T07:34:10.727Z</time></trkpt><trkpt lat="42.90259" lon="2.819665"><ele>463.00000000000006</ele><time>2026-04-26T07:34:11.728Z</time></trkpt><trkpt lat="42.90252" lon="2.8195217"><ele>463.0</ele><time>2026-04-26T07:34:13.727Z</time></trkpt><trkpt lat="42.9024867" lon="2.8194483"><ele>463.79999999999995</ele><time>2026-04-26T07:34:14.729Z</time></trkpt><trkpt lat="42.9024" lon="2.8193417"><ele>464.59999999999997</ele><time>2026-04-26T07:34:16.728Z</time></trkpt><trkpt lat="42.9022867" lon="2.81924"><ele>465.40000000000003</ele><time>2026-04-26T07:34:18.729Z</time></trkpt><trkpt lat="42.9022317" lon="2.81917"><ele>466.20000000000005</ele><time>2026-04-26T07:34:19.731Z</time></trkpt><trkpt lat="42.9021783" lon="2.81908"><ele>467.0</ele><time>2026-04-26T07:34:20.73Z</time></trkpt><trkpt lat="42.9021283" lon="2.8189933"><ele>466.99999999999994</ele><time>2026-04-26T07:34:21.728Z</time></trkpt><trkpt lat="42.902075" lon="2.8189283"><ele>467.0</ele><time>2026-04-26T07:34:22.727Z</time></trkpt><trkpt lat="42.9019967" lon="2.818835"><ele>467.0</ele><time>2026-04-26T07:34:24.728Z</time></trkpt><trkpt lat="42.9019783" lon="2.8186783"><ele>467.0</ele><time>2026-04-26T07:34:26.729Z</time></trkpt><trkpt lat="42.9019667" lon="2.81859"><ele>466.99999999999994</ele><time>2026-04-26T07:34:27.727Z</time></trkpt><trkpt lat="42.90194" lon="2.8185083"><ele>467.0</ele><time>2026-04-26T07:34:28.727Z</time></trkpt><trkpt lat="42.9018867" lon="2.8184417"><ele>467.66666666666663</ele><time>2026-04-26T07:34:29.728Z</time></trkpt><trkpt lat="42.9018217" lon="2.8183783"><ele>468.3333333333333</ele><time>2026-04-26T07:34:30.728Z</time></trkpt><trkpt lat="42.9017583" lon="2.8183133"><ele>469.0</ele><time>2026-04-26T07:34:31.727Z</time></trkpt><trkpt lat="42.9016933" lon="2.8182517"><ele>469.66666666666663</ele><time>2026-04-26T07:34:32.733Z</time></trkpt><trkpt lat="42.9016233" lon="2.8181983"><ele>470.3333333333333</ele><time>2026-04-26T07:34:33.728Z</time></trkpt><trkpt lat="42.9015483" lon="2.8181583"><ele>471.0</ele><time>2026-04-26T07:34:34.728Z</time></trkpt><trkpt lat="42.90148" lon="2.81811"><ele>471.00000000000006</ele><time>2026-04-26T07:34:35.728Z</time></trkpt><trkpt lat="42.90142" lon="2.818055"><ele>471.0</ele><time>2026-04-26T07:34:36.731Z</time></trkpt><trkpt lat="42.9013767" lon="2.81798"><ele>471.00000000000006</ele><time>2026-04-26T07:34:37.729Z</time></trkpt><trkpt lat="42.9013367" lon="2.8178967"><ele>471.00000000000006</ele><time>2026-04-26T07:34:38.729Z</time></trkpt><trkpt lat="42.9012967" lon="2.8178117"><ele>471.0</ele><time>2026-04-26T07:34:39.731Z</time></trkpt><trkpt lat="42.9012633" lon="2.81772"><ele>471.00000000000006</ele><time>2026-04-26T07:34:40.727Z</time></trkpt><trkpt lat="42.901235" lon="2.8176217"><ele>471.00000000000006</ele><time>2026-04-26T07:34:41.73Z</time></trkpt><trkpt lat="42.9012167" lon="2.8175117"><ele>469.8333333333333</ele><time>2026-04-26T07:34:42.733Z</time></trkpt><trkpt lat="42.9012" lon="2.8173967"><ele>468.66666666666663</ele><time>2026-04-26T07:34:43.73Z</time></trkpt><trkpt lat="42.9011867" lon="2.8172833"><ele>467.5</ele><time>2026-04-26T07:34:44.729Z</time></trkpt><trkpt lat="42.901175" lon="2.8171867"><ele>466.3333333333333</ele><time>2026-04-26T07:34:45.728Z</time></trkpt><trkpt lat="42.9011633" lon="2.8171017"><ele>465.16666666666663</ele><time>2026-04-26T07:34:46.727Z</time></trkpt><trkpt lat="42.9011733" lon="2.816945"><ele>464.0</ele><time>2026-04-26T07:34:48.729Z</time></trkpt><trkpt lat="42.9011717" lon="2.8168333"><ele>463.8333333333333</ele><time>2026-04-26T07:34:50.73Z</time></trkpt><trkpt lat="42.9011183" lon="2.8167483"><ele>463.66666666666663</ele><time>2026-04-26T07:34:52.729Z</time></trkpt><trkpt lat="42.901115" lon="2.81665"><ele>463.5</ele><time>2026-04-26T07:34:54.728Z</time></trkpt><trkpt lat="42.9011767" lon="2.8165467"><ele>463.33333333333337</ele><time>2026-04-26T07:34:56.729Z</time></trkpt><trkpt lat="42.90126" lon="2.8164217"><ele>463.1666666666667</ele><time>2026-04-26T07:34:58.73Z</time></trkpt><trkpt lat="42.9012917" lon="2.816345"><ele>463.0</ele><time>2026-04-26T07:34:59.731Z</time></trkpt><trkpt lat="42.90133" lon="2.816265"><ele>463.00000000000006</ele><time>2026-04-26T07:35:00.73Z</time></trkpt><trkpt lat="42.9013767" lon="2.8161983"><ele>463.0</ele><time>2026-04-26T07:35:01.73Z</time></trkpt><trkpt lat="42.90148" lon="2.816125"><ele>463.0</ele><time>2026-04-26T07:35:03.729Z</time></trkpt><trkpt lat="42.9015483" lon="2.8161117"><ele>463.0</ele><time>2026-04-26T07:35:04.729Z</time></trkpt><trkpt lat="42.901625" lon="2.816105"><ele>463.00000000000006</ele><time>2026-04-26T07:35:05.735Z</time></trkpt><trkpt lat="42.9017067" lon="2.8161017"><ele>463.0</ele><time>2026-04-26T07:35:06.73Z</time></trkpt><trkpt lat="42.9017917" lon="2.816095"><ele>461.4</ele><time>2026-04-26T07:35:07.731Z</time></trkpt><trkpt lat="42.901865" lon="2.8160833"><ele>459.79999999999995</ele><time>2026-04-26T07:35:08.729Z</time></trkpt><trkpt lat="42.901975" lon="2.8160567"><ele>458.2</ele><time>2026-04-26T07:35:10.729Z</time></trkpt><trkpt lat="42.9020633" lon="2.81609"><ele>456.6</ele><time>2026-04-26T07:35:12.727Z</time></trkpt><trkpt lat="42.902165" lon="2.8161517"><ele>455.0</ele><time>2026-04-26T07:35:14.73Z</time></trkpt><trkpt lat="42.9022717" lon="2.816185"><ele>455.0</ele><time>2026-04-26T07:35:16.728Z</time></trkpt><trkpt lat="42.9023633" lon="2.8162017"><ele>455.0</ele><time>2026-04-26T07:35:18.729Z</time></trkpt><trkpt lat="42.9024383" lon="2.8162017"><ele>455.0</ele><time>2026-04-26T07:35:20.729Z</time></trkpt><trkpt lat="42.90253" lon="2.8161817"><ele>455.0</ele><time>2026-04-26T07:35:22.729Z</time></trkpt><trkpt lat="42.9026283" lon="2.8161033"><ele>455.0</ele><time>2026-04-26T07:35:24.728Z</time></trkpt><trkpt lat="42.9027217" lon="2.8159883"><ele>456.49999999999994</ele><time>2026-04-26T07:35:26.728Z</time></trkpt><trkpt lat="42.9027883" lon="2.815935"><ele>458.0</ele><time>2026-04-26T07:35:27.729Z</time></trkpt><trkpt lat="42.902855" lon="2.8158867"><ele>459.5</ele><time>2026-04-26T07:35:28.73Z</time></trkpt><trkpt lat="42.9029183" lon="2.8158433"><ele>461.0</ele><time>2026-04-26T07:35:29.734Z</time></trkpt><trkpt lat="42.902985" lon="2.815805"><ele>462.49999999999994</ele><time>2026-04-26T07:35:30.733Z</time></trkpt><trkpt lat="42.9030583" lon="2.815775"><ele>464.0</ele><time>2026-04-26T07:35:31.731Z</time></trkpt><trkpt lat="42.9031533" lon="2.8157733"><ele>464.0</ele><time>2026-04-26T07:35:32.731Z</time></trkpt><trkpt lat="42.9032333" lon="2.815795"><ele>464.0</ele><time>2026-04-26T07:35:33.729Z</time></trkpt><trkpt lat="42.9033017" lon="2.815795"><ele>464.0</ele><time>2026-04-26T07:35:34.73Z</time></trkpt><trkpt lat="42.9033667" lon="2.8158067"><ele>464.0</ele><time>2026-04-26T07:35:35.728Z</time></trkpt><trkpt lat="42.903485" lon="2.8158467"><ele>464.0</ele><time>2026-04-26T07:35:37.729Z</time></trkpt><trkpt lat="42.9035967" lon="2.8158733"><ele>463.49999999999994</ele><time>2026-04-26T07:35:39.729Z</time></trkpt><trkpt lat="42.903665" lon="2.81587"><ele>463.0</ele><time>2026-04-26T07:35:40.728Z</time></trkpt><trkpt lat="42.903745" lon="2.815865"><ele>462.5</ele><time>2026-04-26T07:35:41.728Z</time></trkpt><trkpt lat="42.9038267" lon="2.8158467"><ele>462.0</ele><time>2026-04-26T07:35:42.728Z</time></trkpt><trkpt lat="42.9039067" lon="2.81581"><ele>461.49999999999994</ele><time>2026-04-26T07:35:43.727Z</time></trkpt><trkpt lat="42.9039883" lon="2.8157733"><ele>461.0</ele><time>2026-04-26T07:35:44.73Z</time></trkpt><trkpt lat="42.9040667" lon="2.8157583"><ele>460.99999999999994</ele><time>2026-04-26T07:35:45.728Z</time></trkpt><trkpt lat="42.9041517" lon="2.8157567"><ele>461.0</ele><time>2026-04-26T07:35:46.727Z</time></trkpt><trkpt lat="42.9042333" lon="2.8157683"><ele>461.0</ele><time>2026-04-26T07:35:47.729Z</time></trkpt><trkpt lat="42.9043183" lon="2.8157833"><ele>461.0</ele><time>2026-04-26T07:35:48.729Z</time></trkpt><trkpt lat="42.9044067" lon="2.815795"><ele>460.99999999999994</ele><time>2026-04-26T07:35:49.728Z</time></trkpt><trkpt lat="42.9044917" lon="2.815805"><ele>461.0</ele><time>2026-04-26T07:35:50.729Z</time></trkpt><trkpt lat="42.9045667" lon="2.81582"><ele>461.3333333333333</ele><time>2026-04-26T07:35:51.73Z</time></trkpt><trkpt lat="42.90463" lon="2.8158333"><ele>461.66666666666663</ele><time>2026-04-26T07:35:52.73Z</time></trkpt><trkpt lat="42.9047583" lon="2.8158533"><ele>462.0</ele><time>2026-04-26T07:35:54.728Z</time></trkpt><trkpt lat="42.9048267" lon="2.8158467"><ele>462.33333333333337</ele><time>2026-04-26T07:35:55.728Z</time></trkpt><trkpt lat="42.9048933" lon="2.8158433"><ele>462.6666666666667</ele><time>2026-04-26T07:35:56.728Z</time></trkpt><trkpt lat="42.9049633" lon="2.81584"><ele>463.0</ele><time>2026-04-26T07:35:57.729Z</time></trkpt><trkpt lat="42.9050333" lon="2.8158367"><ele>463.1666666666667</ele><time>2026-04-26T07:35:58.728Z</time></trkpt><trkpt lat="42.9050967" lon="2.81584"><ele>463.33333333333337</ele><time>2026-04-26T07:35:59.732Z</time></trkpt><trkpt lat="42.9052083" lon="2.8158967"><ele>463.5</ele><time>2026-04-26T07:36:01.73Z</time></trkpt><trkpt lat="42.9053067" lon="2.8159983"><ele>463.66666666666663</ele><time>2026-04-26T07:36:03.73Z</time></trkpt><trkpt lat="42.9053667" lon="2.8160333"><ele>463.8333333333333</ele><time>2026-04-26T07:36:04.731Z</time></trkpt><trkpt lat="42.9054367" lon="2.8160667"><ele>464.0</ele><time>2026-04-26T07:36:05.731Z</time></trkpt><trkpt lat="42.9055117" lon="2.8161"><ele>461.66666666666663</ele><time>2026-04-26T07:36:06.729Z</time></trkpt><trkpt lat="42.9055783" lon="2.8161367"><ele>459.3333333333333</ele><time>2026-04-26T07:36:07.73Z</time></trkpt><trkpt lat="42.905675" lon="2.8162267"><ele>457.0</ele><time>2026-04-26T07:36:09.73Z</time></trkpt><trkpt lat="42.9057517" lon="2.81632"><ele>454.66666666666663</ele><time>2026-04-26T07:36:11.733Z</time></trkpt><trkpt lat="42.9057717" lon="2.8164117"><ele>452.3333333333333</ele><time>2026-04-26T07:36:13.729Z</time></trkpt><trkpt lat="42.9058367" lon="2.81649"><ele>450.0</ele><time>2026-04-26T07:36:21.733Z</time></trkpt><trkpt lat="42.905925" lon="2.8165317"><ele>450.0</ele><time>2026-04-26T07:36:23.733Z</time></trkpt><trkpt lat="42.906035" lon="2.8165517"><ele>450.0</ele><time>2026-04-26T07:36:25.729Z</time></trkpt><trkpt lat="42.90614" lon="2.81658"><ele>450.0</ele><time>2026-04-26T07:36:27.728Z</time></trkpt><trkpt lat="42.906225" lon="2.8165867"><ele>450.0</ele><time>2026-04-26T07:36:29.728Z</time></trkpt><trkpt lat="42.9063283" lon="2.816545"><ele>450.0</ele><time>2026-04-26T07:36:31.73Z</time></trkpt><trkpt lat="42.9064167" lon="2.8165083"><ele>450.0</ele><time>2026-04-26T07:36:33.73Z</time></trkpt><trkpt lat="42.9065083" lon="2.8165"><ele>450.0</ele><time>2026-04-26T07:36:35.729Z</time></trkpt><trkpt lat="42.906605" lon="2.8165683"><ele>450.0</ele><time>2026-04-26T07:36:37.731Z</time></trkpt><trkpt lat="42.9067" lon="2.8166233"><ele>450.0</ele><time>2026-04-26T07:36:39.73Z</time></trkpt><trkpt lat="42.9068083" lon="2.8166033"><ele>450.0</ele><time>2026-04-26T07:36:41.729Z</time></trkpt><trkpt lat="42.906905" lon="2.8165867"><ele>449.0</ele><time>2026-04-26T07:36:43.728Z</time></trkpt><trkpt lat="42.90702" lon="2.816575"><ele>448.0</ele><time>2026-04-26T07:36:45.728Z</time></trkpt><trkpt lat="42.907135" lon="2.8165783"><ele>447.0</ele><time>2026-04-26T07:36:47.729Z</time></trkpt><trkpt lat="42.9071983" lon="2.816575"><ele>446.0</ele><time>2026-04-26T07:36:48.73Z</time></trkpt><trkpt lat="42.9072617" lon="2.8165633"><ele>445.0</ele><time>2026-04-26T07:36:49.73Z</time></trkpt><trkpt lat="42.907325" lon="2.8165467"><ele>444.0</ele><time>2026-04-26T07:36:50.73Z</time></trkpt><trkpt lat="42.90739" lon="2.816525"><ele>444.0</ele><time>2026-04-26T07:36:51.731Z</time></trkpt><trkpt lat="42.9075067" lon="2.81649"><ele>444.0</ele><time>2026-04-26T07:36:53.729Z</time></trkpt><trkpt lat="42.9076033" lon="2.8164617"><ele>444.0</ele><time>2026-04-26T07:36:55.728Z</time></trkpt><trkpt lat="42.9076833" lon="2.8164533"><ele>444.0</ele><time>2026-04-26T07:36:57.731Z</time></trkpt><trkpt lat="42.9077833" lon="2.8164517"><ele>444.0</ele><time>2026-04-26T07:36:59.73Z</time></trkpt><trkpt lat="42.9079017" lon="2.8163933"><ele>442.6666666666667</ele><time>2026-04-26T07:37:01.734Z</time></trkpt><trkpt lat="42.908" lon="2.81636"><ele>441.33333333333337</ele><time>2026-04-26T07:37:03.73Z</time></trkpt><trkpt lat="42.9080833" lon="2.8163483"><ele>440.0</ele><time>2026-04-26T07:37:05.731Z</time></trkpt><trkpt lat="42.908155" lon="2.8163167"><ele>438.6666666666667</ele><time>2026-04-26T07:37:07.728Z</time></trkpt><trkpt lat="42.9082217" lon="2.8163183"><ele>437.33333333333337</ele><time>2026-04-26T07:37:09.728Z</time></trkpt><trkpt lat="42.9082833" lon="2.8163433"><ele>436.0</ele><time>2026-04-26T07:37:11.728Z</time></trkpt><trkpt lat="42.9083417" lon="2.81639"><ele>433.6</ele><time>2026-04-26T07:37:13.73Z</time></trkpt><trkpt lat="42.90842" lon="2.81642"><ele>431.20000000000005</ele><time>2026-04-26T07:37:15.729Z</time></trkpt><trkpt lat="42.9085083" lon="2.8163767"><ele>428.79999999999995</ele><time>2026-04-26T07:37:17.729Z</time></trkpt><trkpt lat="42.908605" lon="2.81633"><ele>426.4</ele><time>2026-04-26T07:37:19.728Z</time></trkpt><trkpt lat="42.9086983" lon="2.81632"><ele>424.0</ele><time>2026-04-26T07:37:21.729Z</time></trkpt><trkpt lat="42.9088167" lon="2.8163183"><ele>424.00000000000006</ele><time>2026-04-26T07:37:23.729Z</time></trkpt><trkpt lat="42.908895" lon="2.8163167"><ele>424.0</ele><time>2026-04-26T07:37:24.729Z</time></trkpt><trkpt lat="42.9089783" lon="2.8162967"><ele>424.0</ele><time>2026-04-26T07:37:25.728Z</time></trkpt><trkpt lat="42.9090517" lon="2.816275"><ele>424.0</ele><time>2026-04-26T07:37:26.728Z</time></trkpt><trkpt lat="42.9091283" lon="2.8162533"><ele>424.00000000000006</ele><time>2026-04-26T07:37:27.729Z</time></trkpt><trkpt lat="42.9092083" lon="2.81623"><ele>424.0</ele><time>2026-04-26T07:37:28.729Z</time></trkpt><trkpt lat="42.90929" lon="2.8162083"><ele>422.1666666666667</ele><time>2026-04-26T07:37:29.729Z</time></trkpt><trkpt lat="42.9093717" lon="2.8161917"><ele>420.33333333333337</ele><time>2026-04-26T07:37:30.73Z</time></trkpt><trkpt lat="42.90945" lon="2.8161783"><ele>418.5</ele><time>2026-04-26T07:37:31.729Z</time></trkpt><trkpt lat="42.9095233" lon="2.8161733"><ele>416.66666666666663</ele><time>2026-04-26T07:37:32.73Z</time></trkpt><trkpt lat="42.9096033" lon="2.81617"><ele>414.8333333333333</ele><time>2026-04-26T07:37:33.73Z</time></trkpt><trkpt lat="42.9096867" lon="2.81616"><ele>413.0</ele><time>2026-04-26T07:37:34.73Z</time></trkpt><trkpt lat="42.9097733" lon="2.8161417"><ele>412.99999999999994</ele><time>2026-04-26T07:37:35.731Z</time></trkpt><trkpt lat="42.9098567" lon="2.81612"><ele>413.0</ele><time>2026-04-26T07:37:36.729Z</time></trkpt><trkpt lat="42.90993" lon="2.816095"><ele>413.0</ele><time>2026-04-26T07:37:37.731Z</time></trkpt><trkpt lat="42.9100033" lon="2.8160567"><ele>413.0</ele><time>2026-04-26T07:37:38.73Z</time></trkpt><trkpt lat="42.91007" lon="2.8160083"><ele>412.99999999999994</ele><time>2026-04-26T07:37:39.73Z</time></trkpt><trkpt lat="42.910145" lon="2.8159583"><ele>413.0</ele><time>2026-04-26T07:37:40.73Z</time></trkpt><trkpt lat="42.9102183" lon="2.8159083"><ele>413.8333333333333</ele><time>2026-04-26T07:37:41.731Z</time></trkpt><trkpt lat="42.9102883" lon="2.815855"><ele>414.66666666666663</ele><time>2026-04-26T07:37:42.73Z</time></trkpt><trkpt lat="42.9103533" lon="2.8157933"><ele>415.5</ele><time>2026-04-26T07:37:43.73Z</time></trkpt><trkpt lat="42.910415" lon="2.8157133"><ele>416.33333333333337</ele><time>2026-04-26T07:37:44.729Z</time></trkpt><trkpt lat="42.9104717" lon="2.8156317"><ele>417.1666666666667</ele><time>2026-04-26T07:37:45.729Z</time></trkpt><trkpt lat="42.9105117" lon="2.8155467"><ele>418.0</ele><time>2026-04-26T07:37:46.729Z</time></trkpt><trkpt lat="42.9105367" lon="2.8154517"><ele>418.00000000000006</ele><time>2026-04-26T07:37:47.732Z</time></trkpt><trkpt lat="42.910555" lon="2.8153483"><ele>418.0</ele><time>2026-04-26T07:37:48.729Z</time></trkpt><trkpt lat="42.9105733" lon="2.8152467"><ele>418.0</ele><time>2026-04-26T07:37:49.729Z</time></trkpt><trkpt lat="42.9105933" lon="2.8151383"><ele>418.0</ele><time>2026-04-26T07:37:50.73Z</time></trkpt><trkpt lat="42.9106133" lon="2.8150283"><ele>418.00000000000006</ele><time>2026-04-26T07:37:51.728Z</time></trkpt><trkpt lat="42.9106383" lon="2.8149117"><ele>418.0</ele><time>2026-04-26T07:37:52.73Z</time></trkpt><trkpt lat="42.9106683" lon="2.8147883"><ele>417.79999999999995</ele><time>2026-04-26T07:37:53.728Z</time></trkpt><trkpt lat="42.9107" lon="2.81467"><ele>417.6</ele><time>2026-04-26T07:37:54.729Z</time></trkpt><trkpt lat="42.9107333" lon="2.8145533"><ele>417.4</ele><time>2026-04-26T07:37:55.731Z</time></trkpt><trkpt lat="42.9107583" lon="2.814435"><ele>417.20000000000005</ele><time>2026-04-26T07:37:56.73Z</time></trkpt><trkpt lat="42.9107683" lon="2.8143133"><ele>417.0</ele><time>2026-04-26T07:37:57.733Z</time></trkpt><trkpt lat="42.910765" lon="2.81419"><ele>416.0</ele><time>2026-04-26T07:37:58.731Z</time></trkpt><trkpt lat="42.9107617" lon="2.814075"><ele>415.0</ele><time>2026-04-26T07:37:59.73Z</time></trkpt><trkpt lat="42.9107683" lon="2.813955"><ele>414.0</ele><time>2026-04-26T07:38:00.729Z</time></trkpt><trkpt lat="42.910785" lon="2.81383"><ele>413.0</ele><time>2026-04-26T07:38:01.73Z</time></trkpt><trkpt lat="42.9108067" lon="2.8137"><ele>412.0</ele><time>2026-04-26T07:38:02.729Z</time></trkpt><trkpt lat="42.9108317" lon="2.813575"><ele>411.20000000000005</ele><time>2026-04-26T07:38:03.73Z</time></trkpt><trkpt lat="42.910855" lon="2.8134517"><ele>410.4</ele><time>2026-04-26T07:38:04.729Z</time></trkpt><trkpt lat="42.910875" lon="2.8133283"><ele>409.6</ele><time>2026-04-26T07:38:05.731Z</time></trkpt><trkpt lat="42.910895" lon="2.8132"><ele>408.79999999999995</ele><time>2026-04-26T07:38:06.733Z</time></trkpt><trkpt lat="42.9109217" lon="2.81307"><ele>408.0</ele><time>2026-04-26T07:38:07.729Z</time></trkpt><trkpt lat="42.9109567" lon="2.8129467"><ele>405.6666666666667</ele><time>2026-04-26T07:38:08.729Z</time></trkpt><trkpt lat="42.9109833" lon="2.8128267"><ele>403.33333333333337</ele><time>2026-04-26T07:38:09.733Z</time></trkpt><trkpt lat="42.9110017" lon="2.8127183"><ele>401.0</ele><time>2026-04-26T07:38:10.729Z</time></trkpt><trkpt lat="42.911025" lon="2.8126167"><ele>398.6666666666667</ele><time>2026-04-26T07:38:11.729Z</time></trkpt><trkpt lat="42.9110483" lon="2.8125133"><ele>396.33333333333337</ele><time>2026-04-26T07:38:12.731Z</time></trkpt><trkpt lat="42.911065" lon="2.8124083"><ele>394.0</ele><time>2026-04-26T07:38:13.731Z</time></trkpt><trkpt lat="42.9110533" lon="2.8122967"><ele>394.0</ele><time>2026-04-26T07:38:14.731Z</time></trkpt><trkpt lat="42.911025" lon="2.8121883"><ele>394.0</ele><time>2026-04-26T07:38:15.73Z</time></trkpt><trkpt lat="42.9109883" lon="2.8120767"><ele>394.0</ele><time>2026-04-26T07:38:16.728Z</time></trkpt><trkpt lat="42.910955" lon="2.81195"><ele>394.0</ele><time>2026-04-26T07:38:17.73Z</time></trkpt><trkpt lat="42.910925" lon="2.81181"><ele>394.0</ele><time>2026-04-26T07:38:18.729Z</time></trkpt><trkpt lat="42.91089" lon="2.8116683"><ele>395.2</ele><time>2026-04-26T07:38:19.728Z</time></trkpt><trkpt lat="42.9108517" lon="2.8115367"><ele>396.4</ele><time>2026-04-26T07:38:20.729Z</time></trkpt><trkpt lat="42.910815" lon="2.8114033"><ele>397.6</ele><time>2026-04-26T07:38:21.728Z</time></trkpt><trkpt lat="42.9107883" lon="2.8112667"><ele>398.8</ele><time>2026-04-26T07:38:22.728Z</time></trkpt><trkpt lat="42.9107683" lon="2.8111333"><ele>400.0</ele><time>2026-04-26T07:38:23.728Z</time></trkpt><trkpt lat="42.91075" lon="2.8110083"><ele>399.50000000000006</ele><time>2026-04-26T07:38:24.729Z</time></trkpt><trkpt lat="42.9107267" lon="2.8108917"><ele>399.0</ele><time>2026-04-26T07:38:25.729Z</time></trkpt><trkpt lat="42.9106883" lon="2.8107867"><ele>398.5</ele><time>2026-04-26T07:38:26.729Z</time></trkpt><trkpt lat="42.9106483" lon="2.810685"><ele>398.0</ele><time>2026-04-26T07:38:27.73Z</time></trkpt><trkpt lat="42.9106183" lon="2.8105767"><ele>397.50000000000006</ele><time>2026-04-26T07:38:28.729Z</time></trkpt><trkpt lat="42.9105883" lon="2.810455"><ele>397.0</ele><time>2026-04-26T07:38:29.729Z</time></trkpt><trkpt lat="42.910555" lon="2.8103283"><ele>397.0</ele><time>2026-04-26T07:38:30.73Z</time></trkpt><trkpt lat="42.9105317" lon="2.81019"><ele>397.0</ele><time>2026-04-26T07:38:31.731Z</time></trkpt><trkpt lat="42.9105067" lon="2.8100483"><ele>397.0</ele><time>2026-04-26T07:38:32.731Z</time></trkpt><trkpt lat="42.910475" lon="2.8099133"><ele>397.0</ele><time>2026-04-26T07:38:33.734Z</time></trkpt><trkpt lat="42.9104483" lon="2.8097917"><ele>397.0</ele><time>2026-04-26T07:38:34.73Z</time></trkpt><trkpt lat="42.9104333" lon="2.8096867"><ele>396.50000000000006</ele><time>2026-04-26T07:38:35.729Z</time></trkpt><trkpt lat="42.9104333" lon="2.8095883"><ele>396.0</ele><time>2026-04-26T07:38:36.729Z</time></trkpt><trkpt lat="42.9104533" lon="2.8094833"><ele>395.5</ele><time>2026-04-26T07:38:37.731Z</time></trkpt><trkpt lat="42.9104833" lon="2.8093767"><ele>395.0</ele><time>2026-04-26T07:38:38.729Z</time></trkpt><trkpt lat="42.9105333" lon="2.8092817"><ele>394.50000000000006</ele><time>2026-04-26T07:38:39.729Z</time></trkpt><trkpt lat="42.9105917" lon="2.80919"><ele>394.0</ele><time>2026-04-26T07:38:40.732Z</time></trkpt><trkpt lat="42.9106433" lon="2.8090983"><ele>393.2</ele><time>2026-04-26T07:38:41.73Z</time></trkpt><trkpt lat="42.9106833" lon="2.809"><ele>392.4</ele><time>2026-04-26T07:38:42.732Z</time></trkpt><trkpt lat="42.9107067" lon="2.8088767"><ele>391.6</ele><time>2026-04-26T07:38:43.728Z</time></trkpt><trkpt lat="42.9107167" lon="2.8087367"><ele>390.8</ele><time>2026-04-26T07:38:44.728Z</time></trkpt><trkpt lat="42.91072" lon="2.80859"><ele>390.0</ele><time>2026-04-26T07:38:45.729Z</time></trkpt><trkpt lat="42.9107117" lon="2.8084367"><ele>389.2</ele><time>2026-04-26T07:38:46.728Z</time></trkpt><trkpt lat="42.9107" lon="2.8082917"><ele>388.4</ele><time>2026-04-26T07:38:47.728Z</time></trkpt><trkpt lat="42.9106967" lon="2.8081533"><ele>387.6</ele><time>2026-04-26T07:38:48.727Z</time></trkpt><trkpt lat="42.9107133" lon="2.8080217"><ele>386.8</ele><time>2026-04-26T07:38:49.728Z</time></trkpt><trkpt lat="42.9107367" lon="2.80789"><ele>386.0</ele><time>2026-04-26T07:38:50.73Z</time></trkpt><trkpt lat="42.910765" lon="2.807755"><ele>385.6</ele><time>2026-04-26T07:38:51.73Z</time></trkpt><trkpt lat="42.9107967" lon="2.8076217"><ele>385.20000000000005</ele><time>2026-04-26T07:38:52.729Z</time></trkpt><trkpt lat="42.9108383" lon="2.8075"><ele>384.79999999999995</ele><time>2026-04-26T07:38:53.728Z</time></trkpt><trkpt lat="42.9108867" lon="2.8073833"><ele>384.4</ele><time>2026-04-26T07:38:54.729Z</time></trkpt><trkpt lat="42.9109333" lon="2.8072517"><ele>384.0</ele><time>2026-04-26T07:38:55.732Z</time></trkpt><trkpt lat="42.91097" lon="2.8071167"><ele>383.6</ele><time>2026-04-26T07:38:56.729Z</time></trkpt><trkpt lat="42.9109917" lon="2.8069817"><ele>383.2</ele><time>2026-04-26T07:38:57.73Z</time></trkpt><trkpt lat="42.9109983" lon="2.8068467"><ele>382.8</ele><time>2026-04-26T07:38:58.729Z</time></trkpt><trkpt lat="42.9110017" lon="2.8067217"><ele>382.40000000000003</ele><time>2026-04-26T07:38:59.735Z</time></trkpt><trkpt lat="42.9110083" lon="2.80661"><ele>382.0</ele><time>2026-04-26T07:39:00.73Z</time></trkpt><trkpt lat="42.9110367" lon="2.8065083"><ele>381.66666666666663</ele><time>2026-04-26T07:39:01.73Z</time></trkpt><trkpt lat="42.91107" lon="2.8064083"><ele>381.3333333333333</ele><time>2026-04-26T07:39:02.73Z</time></trkpt><trkpt lat="42.9110883" lon="2.8062983"><ele>381.0</ele><time>2026-04-26T07:39:03.729Z</time></trkpt><trkpt lat="42.9110867" lon="2.8061733"><ele>380.6666666666667</ele><time>2026-04-26T07:39:04.73Z</time></trkpt><trkpt lat="42.911075" lon="2.8060483"><ele>380.33333333333337</ele><time>2026-04-26T07:39:05.728Z</time></trkpt><trkpt lat="42.9110733" lon="2.8059233"><ele>380.0</ele><time>2026-04-26T07:39:06.729Z</time></trkpt><trkpt lat="42.9110783" lon="2.8057983"><ele>379.6</ele><time>2026-04-26T07:39:07.731Z</time></trkpt><trkpt lat="42.9110867" lon="2.8056683"><ele>379.2</ele><time>2026-04-26T07:39:08.73Z</time></trkpt><trkpt lat="42.9110983" lon="2.8055367"><ele>378.79999999999995</ele><time>2026-04-26T07:39:09.732Z</time></trkpt><trkpt lat="42.9111017" lon="2.8053933"><ele>378.4</ele><time>2026-04-26T07:39:10.728Z</time></trkpt><trkpt lat="42.9111" lon="2.805245"><ele>378.0</ele><time>2026-04-26T07:39:11.729Z</time></trkpt><trkpt lat="42.9111017" lon="2.8050967"><ele>377.3333333333333</ele><time>2026-04-26T07:39:12.729Z</time></trkpt><trkpt lat="42.9111" lon="2.8049533"><ele>376.6666666666667</ele><time>2026-04-26T07:39:13.732Z</time></trkpt><trkpt lat="42.9111" lon="2.80482"><ele>376.0</ele><time>2026-04-26T07:39:14.731Z</time></trkpt><trkpt lat="42.9111067" lon="2.8047083"><ele>375.33333333333337</ele><time>2026-04-26T07:39:15.728Z</time></trkpt><trkpt lat="42.911125" lon="2.8046117"><ele>374.6666666666667</ele><time>2026-04-26T07:39:16.729Z</time></trkpt><trkpt lat="42.9111667" lon="2.804535"><ele>374.0</ele><time>2026-04-26T07:39:17.729Z</time></trkpt><trkpt lat="42.9112283" lon="2.80445"><ele>374.0</ele><time>2026-04-26T07:39:18.728Z</time></trkpt><trkpt lat="42.9112967" lon="2.80435"><ele>374.0</ele><time>2026-04-26T07:39:19.729Z</time></trkpt><trkpt lat="42.9113633" lon="2.8042317"><ele>374.0</ele><time>2026-04-26T07:39:20.732Z</time></trkpt><trkpt lat="42.9114267" lon="2.8040933"><ele>374.0</ele><time>2026-04-26T07:39:21.728Z</time></trkpt><trkpt lat="42.9114833" lon="2.8039383"><ele>374.0</ele><time>2026-04-26T07:39:22.729Z</time></trkpt><trkpt lat="42.9115333" lon="2.8037917"><ele>374.0</ele><time>2026-04-26T07:39:23.729Z</time></trkpt><trkpt lat="42.9115767" lon="2.8036567"><ele>374.0</ele><time>2026-04-26T07:39:24.73Z</time></trkpt><trkpt lat="42.91162" lon="2.8035317"><ele>374.0</ele><time>2026-04-26T07:39:25.731Z</time></trkpt><trkpt lat="42.91167" lon="2.8034067"><ele>374.0</ele><time>2026-04-26T07:39:26.731Z</time></trkpt><trkpt lat="42.9117233" lon="2.8032833"><ele>374.4</ele><time>2026-04-26T07:39:27.73Z</time></trkpt><trkpt lat="42.9117867" lon="2.8031583"><ele>374.79999999999995</ele><time>2026-04-26T07:39:28.73Z</time></trkpt><trkpt lat="42.9118567" lon="2.8030383"><ele>375.20000000000005</ele><time>2026-04-26T07:39:29.729Z</time></trkpt><trkpt lat="42.9119267" lon="2.802935"><ele>375.6</ele><time>2026-04-26T07:39:30.73Z</time></trkpt><trkpt lat="42.9119833" lon="2.8028417"><ele>376.0</ele><time>2026-04-26T07:39:31.736Z</time></trkpt><trkpt lat="42.91202" lon="2.80275"><ele>376.0</ele><time>2026-04-26T07:39:32.731Z</time></trkpt><trkpt lat="42.9120267" lon="2.8026517"><ele>376.0</ele><time>2026-04-26T07:39:33.73Z</time></trkpt><trkpt lat="42.91203" lon="2.80255"><ele>376.0</ele><time>2026-04-26T07:39:34.729Z</time></trkpt><trkpt lat="42.91205" lon="2.802455"><ele>376.0</ele><time>2026-04-26T07:39:35.73Z</time></trkpt><trkpt lat="42.91209" lon="2.80236"><ele>376.0</ele><time>2026-04-26T07:39:36.73Z</time></trkpt><trkpt lat="42.9121467" lon="2.8022617"><ele>376.0</ele><time>2026-04-26T07:39:37.736Z</time></trkpt><trkpt lat="42.9122083" lon="2.8021667"><ele>376.0</ele><time>2026-04-26T07:39:38.729Z</time></trkpt><trkpt lat="42.9122783" lon="2.8020783"><ele>376.0</ele><time>2026-04-26T07:39:39.729Z</time></trkpt><trkpt lat="42.91235" lon="2.802"><ele>376.0</ele><time>2026-04-26T07:39:40.728Z</time></trkpt><trkpt lat="42.9124167" lon="2.8019267"><ele>376.0</ele><time>2026-04-26T07:39:41.73Z</time></trkpt><trkpt lat="42.91247" lon="2.80184"><ele>376.0</ele><time>2026-04-26T07:39:42.729Z</time></trkpt><trkpt lat="42.9125133" lon="2.8017367"><ele>376.0</ele><time>2026-04-26T07:39:43.728Z</time></trkpt><trkpt lat="42.912555" lon="2.8016217"><ele>376.8</ele><time>2026-04-26T07:39:44.728Z</time></trkpt><trkpt lat="42.9125967" lon="2.8014967"><ele>377.6</ele><time>2026-04-26T07:39:45.731Z</time></trkpt><trkpt lat="42.9126333" lon="2.801365"><ele>378.4</ele><time>2026-04-26T07:39:46.729Z</time></trkpt><trkpt lat="42.91267" lon="2.8012333"><ele>379.2</ele><time>2026-04-26T07:39:47.728Z</time></trkpt><trkpt lat="42.9127067" lon="2.8011033"><ele>380.0</ele><time>2026-04-26T07:39:48.73Z</time></trkpt><trkpt lat="42.912725" lon="2.8009767"><ele>380.0</ele><time>2026-04-26T07:39:49.731Z</time></trkpt><trkpt lat="42.912725" lon="2.8008483"><ele>380.0</ele><time>2026-04-26T07:39:50.73Z</time></trkpt><trkpt lat="42.912715" lon="2.8007167"><ele>380.0</ele><time>2026-04-26T07:39:51.729Z</time></trkpt><trkpt lat="42.9127033" lon="2.800585"><ele>380.0</ele><time>2026-04-26T07:39:52.729Z</time></trkpt><trkpt lat="42.9127017" lon="2.8004567"><ele>380.0</ele><time>2026-04-26T07:39:53.73Z</time></trkpt><trkpt lat="42.9126883" lon="2.800325"><ele>380.0</ele><time>2026-04-26T07:39:54.729Z</time></trkpt><trkpt lat="42.91266" lon="2.8001933"><ele>380.0</ele><time>2026-04-26T07:39:55.73Z</time></trkpt><trkpt lat="42.9126233" lon="2.8000617"><ele>380.0</ele><time>2026-04-26T07:39:56.729Z</time></trkpt><trkpt lat="42.9125883" lon="2.7999233"><ele>380.0</ele><time>2026-04-26T07:39:57.731Z</time></trkpt><trkpt lat="42.9125583" lon="2.7997733"><ele>380.0</ele><time>2026-04-26T07:39:58.73Z</time></trkpt><trkpt lat="42.9125183" lon="2.7996267"><ele>380.25</ele><time>2026-04-26T07:39:59.731Z</time></trkpt><trkpt lat="42.912475" lon="2.7994733"><ele>380.5</ele><time>2026-04-26T07:40:00.73Z</time></trkpt><trkpt lat="42.912435" lon="2.7993133"><ele>380.75</ele><time>2026-04-26T07:40:01.73Z</time></trkpt><trkpt lat="42.9123983" lon="2.7991483"><ele>381.0</ele><time>2026-04-26T07:40:02.731Z</time></trkpt><trkpt lat="42.9123567" lon="2.7989933"><ele>381.0</ele><time>2026-04-26T07:40:03.729Z</time></trkpt><trkpt lat="42.9123183" lon="2.798855"><ele>381.0</ele><time>2026-04-26T07:40:04.729Z</time></trkpt><trkpt lat="42.9122717" lon="2.7987233"><ele>381.0</ele><time>2026-04-26T07:40:05.731Z</time></trkpt><trkpt lat="42.9122083" lon="2.798595"><ele>381.0</ele><time>2026-04-26T07:40:06.728Z</time></trkpt><trkpt lat="42.9121317" lon="2.7984767"><ele>381.0</ele><time>2026-04-26T07:40:07.729Z</time></trkpt><trkpt lat="42.9120433" lon="2.79837"><ele>380.75</ele><time>2026-04-26T07:40:08.732Z</time></trkpt><trkpt lat="42.9119433" lon="2.7982717"><ele>380.5</ele><time>2026-04-26T07:40:09.731Z</time></trkpt><trkpt lat="42.9118433" lon="2.7981733"><ele>380.25</ele><time>2026-04-26T07:40:10.728Z</time></trkpt><trkpt lat="42.9117533" lon="2.7980717"><ele>380.0</ele><time>2026-04-26T07:40:11.73Z</time></trkpt><trkpt lat="42.9116717" lon="2.797975"><ele>380.0</ele><time>2026-04-26T07:40:12.728Z</time></trkpt><trkpt lat="42.9115917" lon="2.7978883"><ele>380.0</ele><time>2026-04-26T07:40:13.731Z</time></trkpt><trkpt lat="42.9115233" lon="2.79781"><ele>380.0</ele><time>2026-04-26T07:40:14.731Z</time></trkpt><trkpt lat="42.9114717" lon="2.79773"><ele>380.0</ele><time>2026-04-26T07:40:15.729Z</time></trkpt><trkpt lat="42.9114333" lon="2.7976467"><ele>380.0</ele><time>2026-04-26T07:40:16.728Z</time></trkpt><trkpt lat="42.9114067" lon="2.7975517"><ele>380.0</ele><time>2026-04-26T07:40:17.73Z</time></trkpt><trkpt lat="42.9113883" lon="2.7974517"><ele>379.83333333333337</ele><time>2026-04-26T07:40:18.73Z</time></trkpt><trkpt lat="42.911385" lon="2.7973383"><ele>379.6666666666667</ele><time>2026-04-26T07:40:19.729Z</time></trkpt><trkpt lat="42.911405" lon="2.7972217"><ele>379.5</ele><time>2026-04-26T07:40:20.732Z</time></trkpt><trkpt lat="42.911435" lon="2.797115"><ele>379.3333333333333</ele><time>2026-04-26T07:40:21.729Z</time></trkpt><trkpt lat="42.91147" lon="2.7970167"><ele>379.16666666666663</ele><time>2026-04-26T07:40:22.728Z</time></trkpt><trkpt lat="42.911505" lon="2.7969217"><ele>379.0</ele><time>2026-04-26T07:40:23.729Z</time></trkpt><trkpt lat="42.9115383" lon="2.7968383"><ele>377.5</ele><time>2026-04-26T07:40:24.728Z</time></trkpt><trkpt lat="42.9115817" lon="2.7967733"><ele>376.0</ele><time>2026-04-26T07:40:25.73Z</time></trkpt><trkpt lat="42.9116367" lon="2.7967283"><ele>374.5</ele><time>2026-04-26T07:40:26.73Z</time></trkpt><trkpt lat="42.9117033" lon="2.7966983"><ele>373.0</ele><time>2026-04-26T07:40:27.729Z</time></trkpt><trkpt lat="42.9117833" lon="2.7966883"><ele>371.5</ele><time>2026-04-26T07:40:28.729Z</time></trkpt><trkpt lat="42.9118683" lon="2.79668"><ele>370.0</ele><time>2026-04-26T07:40:29.729Z</time></trkpt><trkpt lat="42.911955" lon="2.796675"><ele>369.0</ele><time>2026-04-26T07:40:30.729Z</time></trkpt><trkpt lat="42.912035" lon="2.7966633"><ele>368.0</ele><time>2026-04-26T07:40:31.73Z</time></trkpt><trkpt lat="42.9121183" lon="2.7966483"><ele>367.0</ele><time>2026-04-26T07:40:32.728Z</time></trkpt><trkpt lat="42.9121967" lon="2.7966333"><ele>366.0</ele><time>2026-04-26T07:40:33.731Z</time></trkpt><trkpt lat="42.9122717" lon="2.7966183"><ele>365.0</ele><time>2026-04-26T07:40:34.728Z</time></trkpt><trkpt lat="42.912345" lon="2.7966033"><ele>364.0</ele><time>2026-04-26T07:40:35.727Z</time></trkpt><trkpt lat="42.9124183" lon="2.7965933"><ele>364.0</ele><time>2026-04-26T07:40:36.728Z</time></trkpt><trkpt lat="42.9124883" lon="2.796575"><ele>364.0</ele><time>2026-04-26T07:40:37.73Z</time></trkpt><trkpt lat="42.9125517" lon="2.79656"><ele>364.0</ele><time>2026-04-26T07:40:38.728Z</time></trkpt><trkpt lat="42.9126417" lon="2.7965083"><ele>364.0</ele><time>2026-04-26T07:40:40.728Z</time></trkpt><trkpt lat="42.912695" lon="2.79633"><ele>364.0</ele><time>2026-04-26T07:40:42.729Z</time></trkpt><trkpt lat="42.9127067" lon="2.7962117"><ele>363.5</ele><time>2026-04-26T07:40:43.728Z</time></trkpt><trkpt lat="42.9127317" lon="2.7961083"><ele>363.0</ele><time>2026-04-26T07:40:44.729Z</time></trkpt><trkpt lat="42.9127683" lon="2.7960133"><ele>362.5</ele><time>2026-04-26T07:40:45.729Z</time></trkpt><trkpt lat="42.9128117" lon="2.7959217"><ele>362.0</ele><time>2026-04-26T07:40:46.728Z</time></trkpt><trkpt lat="42.9128683" lon="2.795845"><ele>361.5</ele><time>2026-04-26T07:40:47.729Z</time></trkpt><trkpt lat="42.9129317" lon="2.7957833"><ele>361.0</ele><time>2026-04-26T07:40:48.729Z</time></trkpt><trkpt lat="42.9130083" lon="2.795735"><ele>361.0</ele><time>2026-04-26T07:40:49.729Z</time></trkpt><trkpt lat="42.9131" lon="2.7957"><ele>361.0</ele><time>2026-04-26T07:40:50.729Z</time></trkpt><trkpt lat="42.9132" lon="2.7956633"><ele>361.0</ele><time>2026-04-26T07:40:51.731Z</time></trkpt><trkpt lat="42.9133033" lon="2.7956133"><ele>361.0</ele><time>2026-04-26T07:40:52.729Z</time></trkpt><trkpt lat="42.9134033" lon="2.7955533"><ele>361.0</ele><time>2026-04-26T07:40:53.729Z</time></trkpt><trkpt lat="42.9135033" lon="2.7954917"><ele>362.0</ele><time>2026-04-26T07:40:54.73Z</time></trkpt><trkpt lat="42.9136167" lon="2.79544"><ele>363.0</ele><time>2026-04-26T07:40:55.73Z</time></trkpt><trkpt lat="42.9137367" lon="2.7953967"><ele>364.0</ele><time>2026-04-26T07:40:56.73Z</time></trkpt><trkpt lat="42.9138583" lon="2.79537"><ele>365.0</ele><time>2026-04-26T07:40:57.73Z</time></trkpt><trkpt lat="42.9139717" lon="2.7953617"><ele>365.0</ele><time>2026-04-26T07:40:58.73Z</time></trkpt><trkpt lat="42.9140767" lon="2.79536"><ele>365.0</ele><time>2026-04-26T07:40:59.727Z</time></trkpt><trkpt lat="42.9141783" lon="2.79535"><ele>365.0</ele><time>2026-04-26T07:41:00.731Z</time></trkpt><trkpt lat="42.91428" lon="2.79532"><ele>365.0</ele><time>2026-04-26T07:41:01.729Z</time></trkpt><trkpt lat="42.9143817" lon="2.795275"><ele>365.0</ele><time>2026-04-26T07:41:02.73Z</time></trkpt><trkpt lat="42.9144817" lon="2.7952183"><ele>366.6</ele><time>2026-04-26T07:41:03.729Z</time></trkpt><trkpt lat="42.9145667" lon="2.795145"><ele>368.2</ele><time>2026-04-26T07:41:04.729Z</time></trkpt><trkpt lat="42.914635" lon="2.795065"><ele>369.79999999999995</ele><time>2026-04-26T07:41:05.727Z</time></trkpt><trkpt lat="42.9146833" lon="2.7949733"><ele>371.4</ele><time>2026-04-26T07:41:06.731Z</time></trkpt><trkpt lat="42.914715" lon="2.794865"><ele>373.0</ele><time>2026-04-26T07:41:07.729Z</time></trkpt><trkpt lat="42.9147417" lon="2.7947433"><ele>373.0</ele><time>2026-04-26T07:41:08.73Z</time></trkpt><trkpt lat="42.9147667" lon="2.7945967"><ele>373.0</ele><time>2026-04-26T07:41:09.734Z</time></trkpt><trkpt lat="42.9147967" lon="2.7944367"><ele>373.0</ele><time>2026-04-26T07:41:10.729Z</time></trkpt><trkpt lat="42.9148317" lon="2.7942783"><ele>373.0</ele><time>2026-04-26T07:41:11.73Z</time></trkpt><trkpt lat="42.9148567" lon="2.7941367"><ele>375.16666666666663</ele><time>2026-04-26T07:41:12.729Z</time></trkpt><trkpt lat="42.914875" lon="2.79402"><ele>377.3333333333333</ele><time>2026-04-26T07:41:13.728Z</time></trkpt><trkpt lat="42.9148817" lon="2.7939217"><ele>379.5</ele><time>2026-04-26T07:41:14.729Z</time></trkpt><trkpt lat="42.9148717" lon="2.7938283"><ele>381.66666666666663</ele><time>2026-04-26T07:41:15.728Z</time></trkpt><trkpt lat="42.9148367" lon="2.7937333"><ele>383.8333333333333</ele><time>2026-04-26T07:41:16.728Z</time></trkpt><trkpt lat="42.9147767" lon="2.7936533"><ele>386.0</ele><time>2026-04-26T07:41:17.734Z</time></trkpt><trkpt lat="42.9147067" lon="2.7935683"><ele>389.0</ele><time>2026-04-26T07:41:18.731Z</time></trkpt><trkpt lat="42.9146467" lon="2.793485"><ele>392.0</ele><time>2026-04-26T07:41:19.735Z</time></trkpt><trkpt lat="42.9146017" lon="2.7934017"><ele>395.0</ele><time>2026-04-26T07:41:20.732Z</time></trkpt><trkpt lat="42.9145733" lon="2.7933167"><ele>398.0</ele><time>2026-04-26T07:41:21.73Z</time></trkpt><trkpt lat="42.914585" lon="2.7931567"><ele>401.0</ele><time>2026-04-26T07:41:23.73Z</time></trkpt><trkpt lat="42.914655" lon="2.79302"><ele>400.99999999999994</ele><time>2026-04-26T07:41:25.729Z</time></trkpt><trkpt lat="42.9147117" lon="2.7929717"><ele>401.0</ele><time>2026-04-26T07:41:26.729Z</time></trkpt><trkpt lat="42.9147767" lon="2.79294"><ele>401.0</ele><time>2026-04-26T07:41:27.729Z</time></trkpt><trkpt lat="42.9148483" lon="2.792925"><ele>401.0</ele><time>2026-04-26T07:41:28.728Z</time></trkpt><trkpt lat="42.9149317" lon="2.79291"><ele>400.99999999999994</ele><time>2026-04-26T07:41:29.729Z</time></trkpt><trkpt lat="42.915025" lon="2.79289"><ele>401.0</ele><time>2026-04-26T07:41:30.728Z</time></trkpt><trkpt lat="42.9151267" lon="2.7928583"><ele>399.4</ele><time>2026-04-26T07:41:31.728Z</time></trkpt><trkpt lat="42.9152267" lon="2.7928067"><ele>397.8</ele><time>2026-04-26T07:41:32.729Z</time></trkpt><trkpt lat="42.915325" lon="2.7927333"><ele>396.2</ele><time>2026-04-26T07:41:33.737Z</time></trkpt><trkpt lat="42.9154233" lon="2.792655"><ele>394.59999999999997</ele><time>2026-04-26T07:41:34.728Z</time></trkpt><trkpt lat="42.9155217" lon="2.7925767"><ele>393.0</ele><time>2026-04-26T07:41:35.732Z</time></trkpt><trkpt lat="42.9156217" lon="2.7925067"><ele>394.5</ele><time>2026-04-26T07:41:36.729Z</time></trkpt><trkpt lat="42.915725" lon="2.7924517"><ele>396.0</ele><time>2026-04-26T07:41:37.731Z</time></trkpt><trkpt lat="42.9158367" lon="2.7924117"><ele>397.5</ele><time>2026-04-26T07:41:38.729Z</time></trkpt><trkpt lat="42.91595" lon="2.7923733"><ele>399.0</ele><time>2026-04-26T07:41:39.728Z</time></trkpt><trkpt lat="42.9160567" lon="2.7923417"><ele>399.0</ele><time>2026-04-26T07:41:40.728Z</time></trkpt><trkpt lat="42.91616" lon="2.792305"><ele>399.0</ele><time>2026-04-26T07:41:41.728Z</time></trkpt><trkpt lat="42.9162633" lon="2.7922633"><ele>399.0</ele><time>2026-04-26T07:41:42.729Z</time></trkpt><trkpt lat="42.9163667" lon="2.792215"><ele>399.0</ele><time>2026-04-26T07:41:43.736Z</time></trkpt><trkpt lat="42.9164717" lon="2.7921583"><ele>399.0</ele><time>2026-04-26T07:41:44.729Z</time></trkpt><trkpt lat="42.9165767" lon="2.7920983"><ele>399.0</ele><time>2026-04-26T07:41:45.728Z</time></trkpt><trkpt lat="42.91667" lon="2.79203"><ele>399.0</ele><time>2026-04-26T07:41:46.728Z</time></trkpt><trkpt lat="42.91676" lon="2.7919517"><ele>399.0</ele><time>2026-04-26T07:41:47.73Z</time></trkpt><trkpt lat="42.91685" lon="2.7918667"><ele>399.0</ele><time>2026-04-26T07:41:48.732Z</time></trkpt><trkpt lat="42.916945" lon="2.7917933"><ele>399.0</ele><time>2026-04-26T07:41:49.729Z</time></trkpt><trkpt lat="42.9170433" lon="2.7917383"><ele>399.5</ele><time>2026-04-26T07:41:50.73Z</time></trkpt><trkpt lat="42.9171517" lon="2.7917017"><ele>400.0</ele><time>2026-04-26T07:41:51.729Z</time></trkpt><trkpt lat="42.9172667" lon="2.7916767"><ele>400.5</ele><time>2026-04-26T07:41:52.731Z</time></trkpt><trkpt lat="42.917385" lon="2.791655"><ele>401.0</ele><time>2026-04-26T07:41:53.731Z</time></trkpt><trkpt lat="42.9174983" lon="2.79164"><ele>402.0</ele><time>2026-04-26T07:41:54.731Z</time></trkpt><trkpt lat="42.91761" lon="2.7916317"><ele>403.0</ele><time>2026-04-26T07:41:55.73Z</time></trkpt><trkpt lat="42.917725" lon="2.7916267"><ele>404.0</ele><time>2026-04-26T07:41:56.73Z</time></trkpt><trkpt lat="42.9178367" lon="2.7916117"><ele>405.0</ele><time>2026-04-26T07:41:57.732Z</time></trkpt><trkpt lat="42.9179383" lon="2.791575"><ele>406.0</ele><time>2026-04-26T07:41:58.73Z</time></trkpt><trkpt lat="42.918035" lon="2.7915133"><ele>406.00000000000006</ele><time>2026-04-26T07:41:59.73Z</time></trkpt><trkpt lat="42.918125" lon="2.7914417"><ele>406.0</ele><time>2026-04-26T07:42:00.73Z</time></trkpt><trkpt lat="42.91821" lon="2.7913733"><ele>406.0</ele><time>2026-04-26T07:42:01.73Z</time></trkpt><trkpt lat="42.9182817" lon="2.791325"><ele>406.0</ele><time>2026-04-26T07:42:02.732Z</time></trkpt><trkpt lat="42.9183433" lon="2.791295"><ele>406.00000000000006</ele><time>2026-04-26T07:42:03.731Z</time></trkpt><trkpt lat="42.918425" lon="2.79132"><ele>406.0</ele><time>2026-04-26T07:42:05.731Z</time></trkpt><trkpt lat="42.9184033" lon="2.7914767"><ele>406.00000000000006</ele><time>2026-04-26T07:42:07.737Z</time></trkpt><trkpt lat="42.9183717" lon="2.791555"><ele>406.0</ele><time>2026-04-26T07:42:08.729Z</time></trkpt><trkpt lat="42.9183233" lon="2.791635"><ele>406.0</ele><time>2026-04-26T07:42:09.73Z</time></trkpt><trkpt lat="42.9182733" lon="2.7917167"><ele>406.0</ele><time>2026-04-26T07:42:10.73Z</time></trkpt><trkpt lat="42.91822" lon="2.791815"><ele>406.00000000000006</ele><time>2026-04-26T07:42:11.73Z</time></trkpt><trkpt lat="42.9181817" lon="2.791925"><ele>406.0</ele><time>2026-04-26T07:42:12.731Z</time></trkpt><trkpt lat="42.9181667" lon="2.7920367"><ele>406.4</ele><time>2026-04-26T07:42:13.73Z</time></trkpt><trkpt lat="42.918175" lon="2.79215"><ele>406.8</ele><time>2026-04-26T07:42:14.73Z</time></trkpt><trkpt lat="42.9182067" lon="2.7922717"><ele>407.2</ele><time>2026-04-26T07:42:15.73Z</time></trkpt><trkpt lat="42.918255" lon="2.792415"><ele>407.59999999999997</ele><time>2026-04-26T07:42:16.728Z</time></trkpt><trkpt lat="42.9183017" lon="2.7925717"><ele>408.0</ele><time>2026-04-26T07:42:17.728Z</time></trkpt><trkpt lat="42.91834" lon="2.7927267"><ele>408.0</ele><time>2026-04-26T07:42:18.729Z</time></trkpt><trkpt lat="42.918365" lon="2.7928683"><ele>408.0</ele><time>2026-04-26T07:42:19.729Z</time></trkpt><trkpt lat="42.91839" lon="2.7929967"><ele>408.0</ele><time>2026-04-26T07:42:20.73Z</time></trkpt><trkpt lat="42.9184167" lon="2.793115"><ele>408.0</ele><time>2026-04-26T07:42:21.731Z</time></trkpt><trkpt lat="42.9184633" lon="2.7932267"><ele>408.0</ele><time>2026-04-26T07:42:22.73Z</time></trkpt><trkpt lat="42.91853" lon="2.7933267"><ele>408.0</ele><time>2026-04-26T07:42:23.728Z</time></trkpt><trkpt lat="42.918605" lon="2.793435"><ele>408.0</ele><time>2026-04-26T07:42:24.729Z</time></trkpt><trkpt lat="42.9186933" lon="2.7935467"><ele>408.0</ele><time>2026-04-26T07:42:25.73Z</time></trkpt><trkpt lat="42.918795" lon="2.7936583"><ele>408.0</ele><time>2026-04-26T07:42:26.73Z</time></trkpt><trkpt lat="42.9188983" lon="2.7937583"><ele>406.2</ele><time>2026-04-26T07:42:27.728Z</time></trkpt><trkpt lat="42.9189933" lon="2.793845"><ele>404.4</ele><time>2026-04-26T07:42:28.729Z</time></trkpt><trkpt lat="42.919075" lon="2.7939333"><ele>402.59999999999997</ele><time>2026-04-26T07:42:29.73Z</time></trkpt><trkpt lat="42.9191583" lon="2.7940067"><ele>400.79999999999995</ele><time>2026-04-26T07:42:30.729Z</time></trkpt><trkpt lat="42.919245" lon="2.794055"><ele>399.0</ele><time>2026-04-26T07:42:31.728Z</time></trkpt><trkpt lat="42.9193317" lon="2.7940833"><ele>397.1666666666667</ele><time>2026-04-26T07:42:32.728Z</time></trkpt><trkpt lat="42.9194183" lon="2.7940917"><ele>395.33333333333337</ele><time>2026-04-26T07:42:33.729Z</time></trkpt><trkpt lat="42.9195" lon="2.7940833"><ele>393.5</ele><time>2026-04-26T07:42:34.729Z</time></trkpt><trkpt lat="42.9195833" lon="2.7940533"><ele>391.6666666666667</ele><time>2026-04-26T07:42:35.732Z</time></trkpt><trkpt lat="42.9196667" lon="2.7939933"><ele>389.83333333333337</ele><time>2026-04-26T07:42:36.73Z</time></trkpt><trkpt lat="42.9197417" lon="2.7939117"><ele>388.0</ele><time>2026-04-26T07:42:37.731Z</time></trkpt><trkpt lat="42.9198283" lon="2.7938133"><ele>388.0</ele><time>2026-04-26T07:42:38.73Z</time></trkpt><trkpt lat="42.9199233" lon="2.7937167"><ele>388.0</ele><time>2026-04-26T07:42:39.731Z</time></trkpt><trkpt lat="42.92003" lon="2.7936233"><ele>388.0</ele><time>2026-04-26T07:42:40.728Z</time></trkpt><trkpt lat="42.9201467" lon="2.7935417"><ele>388.0</ele><time>2026-04-26T07:42:41.729Z</time></trkpt><trkpt lat="42.9202617" lon="2.7934733"><ele>387.75</ele><time>2026-04-26T07:42:42.728Z</time></trkpt><trkpt lat="42.9203767" lon="2.7934117"><ele>387.5</ele><time>2026-04-26T07:42:43.727Z</time></trkpt><trkpt lat="42.920495" lon="2.7933517"><ele>387.25</ele><time>2026-04-26T07:42:44.728Z</time></trkpt><trkpt lat="42.9206183" lon="2.7933"><ele>387.0</ele><time>2026-04-26T07:42:45.728Z</time></trkpt><trkpt lat="42.9207417" lon="2.7932567"><ele>387.0</ele><time>2026-04-26T07:42:46.728Z</time></trkpt><trkpt lat="42.9208617" lon="2.7932217"><ele>387.0</ele><time>2026-04-26T07:42:47.727Z</time></trkpt><trkpt lat="42.92098" lon="2.7931983"><ele>387.0</ele><time>2026-04-26T07:42:48.728Z</time></trkpt><trkpt lat="42.9210983" lon="2.793185"><ele>387.0</ele><time>2026-04-26T07:42:49.729Z</time></trkpt><trkpt lat="42.9212083" lon="2.7931733"><ele>385.6666666666667</ele><time>2026-04-26T07:42:50.729Z</time></trkpt><trkpt lat="42.9213117" lon="2.7931733"><ele>384.3333333333333</ele><time>2026-04-26T07:42:51.73Z</time></trkpt><trkpt lat="42.9214033" lon="2.7931867"><ele>383.0</ele><time>2026-04-26T07:42:52.728Z</time></trkpt><trkpt lat="42.9214817" lon="2.7932033"><ele>381.66666666666663</ele><time>2026-04-26T07:42:53.729Z</time></trkpt><trkpt lat="42.9215467" lon="2.7932133"><ele>380.3333333333333</ele><time>2026-04-26T07:42:54.728Z</time></trkpt><trkpt lat="42.9216433" lon="2.79319"><ele>379.0</ele><time>2026-04-26T07:42:56.729Z</time></trkpt><trkpt lat="42.9217117" lon="2.7930733"><ele>374.2</ele><time>2026-04-26T07:42:58.729Z</time></trkpt><trkpt lat="42.9217483" lon="2.7929667"><ele>369.4</ele><time>2026-04-26T07:42:59.731Z</time></trkpt><trkpt lat="42.9217883" lon="2.7928417"><ele>364.6</ele><time>2026-04-26T07:43:00.73Z</time></trkpt><trkpt lat="42.921835" lon="2.7927017"><ele>359.8</ele><time>2026-04-26T07:43:01.728Z</time></trkpt><trkpt lat="42.9218833" lon="2.7925467"><ele>355.0</ele><time>2026-04-26T07:43:02.728Z</time></trkpt><trkpt lat="42.9219333" lon="2.792385"><ele>355.0</ele><time>2026-04-26T07:43:03.73Z</time></trkpt><trkpt lat="42.9219817" lon="2.792225"><ele>355.0</ele><time>2026-04-26T07:43:04.73Z</time></trkpt><trkpt lat="42.9220233" lon="2.7920633"><ele>355.0</ele><time>2026-04-26T07:43:05.729Z</time></trkpt><trkpt lat="42.9220683" lon="2.7919067"><ele>355.0</ele><time>2026-04-26T07:43:06.731Z</time></trkpt><trkpt lat="42.9221267" lon="2.7917567"><ele>357.25</ele><time>2026-04-26T07:43:07.729Z</time></trkpt><trkpt lat="42.9221983" lon="2.79161"><ele>359.5</ele><time>2026-04-26T07:43:08.729Z</time></trkpt><trkpt lat="42.9222867" lon="2.7914817"><ele>361.75</ele><time>2026-04-26T07:43:09.729Z</time></trkpt><trkpt lat="42.9223683" lon="2.791365"><ele>364.0</ele><time>2026-04-26T07:43:10.735Z</time></trkpt><trkpt lat="42.9224517" lon="2.7912517"><ele>364.0</ele><time>2026-04-26T07:43:11.733Z</time></trkpt><trkpt lat="42.9225383" lon="2.791145"><ele>364.0</ele><time>2026-04-26T07:43:12.729Z</time></trkpt><trkpt lat="42.92263" lon="2.7910533"><ele>364.0</ele><time>2026-04-26T07:43:13.728Z</time></trkpt><trkpt lat="42.9227233" lon="2.7909867"><ele>364.0</ele><time>2026-04-26T07:43:14.731Z</time></trkpt><trkpt lat="42.9228133" lon="2.790935"><ele>364.0</ele><time>2026-04-26T07:43:15.732Z</time></trkpt><trkpt lat="42.922895" lon="2.7908867"><ele>364.0</ele><time>2026-04-26T07:43:16.729Z</time></trkpt><trkpt lat="42.9229617" lon="2.7908367"><ele>364.0</ele><time>2026-04-26T07:43:17.728Z</time></trkpt><trkpt lat="42.92302" lon="2.7907767"><ele>364.0</ele><time>2026-04-26T07:43:18.728Z</time></trkpt><trkpt lat="42.9230717" lon="2.7906983"><ele>364.0</ele><time>2026-04-26T07:43:19.731Z</time></trkpt><trkpt lat="42.9231183" lon="2.7906133"><ele>364.0</ele><time>2026-04-26T07:43:20.73Z</time></trkpt><trkpt lat="42.9231633" lon="2.79053"><ele>364.0</ele><time>2026-04-26T07:43:21.728Z</time></trkpt><trkpt lat="42.9213117" lon="2.7931733"><ele>366.5</ele><time>2026-04-26T07:42:51.73Z</time></trkpt><trkpt lat="42.9214033" lon="2.7931867"><ele>369.0</ele><time>2026-04-26T07:42:52.728Z</time></trkpt><trkpt lat="42.9214817" lon="2.7932033"><ele>371.5</ele><time>2026-04-26T07:42:53.729Z</time></trkpt><trkpt lat="42.9215467" lon="2.7932133"><ele>374.0</ele><time>2026-04-26T07:42:54.728Z</time></trkpt><trkpt lat="42.9216433" lon="2.79319"><ele>376.5</ele><time>2026-04-26T07:42:56.729Z</time></trkpt><trkpt lat="42.9217117" lon="2.7930733"><ele>379.0</ele><time>2026-04-26T07:42:58.729Z</time></trkpt><trkpt lat="42.9217483" lon="2.7929667"><ele>373.0</ele><time>2026-04-26T07:42:59.731Z</time></trkpt><trkpt lat="42.9217883" lon="2.7928417"><ele>367.0</ele><time>2026-04-26T07:43:00.73Z</time></trkpt><trkpt lat="42.921835" lon="2.7927017"><ele>361.0</ele><time>2026-04-26T07:43:01.728Z</time></trkpt><trkpt lat="42.9218833" lon="2.7925467"><ele>355.0</ele><time>2026-04-26T07:43:02.728Z</time></trkpt><trkpt lat="42.9219333" lon="2.792385"><ele>355.0</ele><time>2026-04-26T07:43:03.73Z</time></trkpt><trkpt lat="42.9219817" lon="2.792225"><ele>355.0</ele><time>2026-04-26T07:43:04.73Z</time></trkpt><trkpt lat="42.9220233" lon="2.7920633"><ele>355.0</ele><time>2026-04-26T07:43:05.729Z</time></trkpt><trkpt lat="42.9220683" lon="2.7919067"><ele>355.0</ele><time>2026-04-26T07:43:06.731Z</time></trkpt><trkpt lat="42.9221267" lon="2.7917567"><ele>357.25</ele><time>2026-04-26T07:43:07.729Z</time></trkpt><trkpt lat="42.9221983" lon="2.79161"><ele>359.5</ele><time>2026-04-26T07:43:08.729Z</time></trkpt><trkpt lat="42.9222867" lon="2.7914817"><ele>361.75</ele><time>2026-04-26T07:43:09.729Z</time></trkpt><trkpt lat="42.9223683" lon="2.791365"><ele>364.0</ele><time>2026-04-26T07:43:10.735Z</time></trkpt><trkpt lat="42.9224517" lon="2.7912517"><ele>364.0</ele><time>2026-04-26T07:43:11.733Z</time></trkpt><trkpt lat="42.9225383" lon="2.791145"><ele>364.0</ele><time>2026-04-26T07:43:12.729Z</time></trkpt><trkpt lat="42.92263" lon="2.7910533"><ele>364.0</ele><time>2026-04-26T07:43:13.728Z</time></trkpt><trkpt lat="42.9227233" lon="2.7909867"><ele>364.0</ele><time>2026-04-26T07:43:14.731Z</time></trkpt><trkpt lat="42.9228133" lon="2.790935"><ele>364.0</ele><time>2026-04-26T07:43:15.732Z</time></trkpt><trkpt lat="42.922895" lon="2.7908867"><ele>364.0</ele><time>2026-04-26T07:43:16.729Z</time></trkpt><trkpt lat="42.9229617" lon="2.7908367"><ele>364.0</ele><time>2026-04-26T07:43:17.728Z</time></trkpt><trkpt lat="42.92302" lon="2.7907767"><ele>364.0</ele><time>2026-04-26T07:43:18.728Z</time></trkpt><trkpt lat="42.9230717" lon="2.7906983"><ele>364.0</ele><time>2026-04-26T07:43:19.731Z</time></trkpt><trkpt lat="42.9231183" lon="2.7906133"><ele>364.0</ele><time>2026-04-26T07:43:20.73Z</time></trkpt><trkpt lat="42.9231633" lon="2.79053"><ele>364.0</ele><time>2026-04-26T07:43:21.728Z</time></trkpt><trkpt lat="42.9232133" lon="2.7904433"><ele>364.0</ele><time>2026-04-26T07:43:22.728Z</time></trkpt><trkpt lat="42.92327" lon="2.790355"><ele>364.0</ele><time>2026-04-26T07:43:23.729Z</time></trkpt><trkpt lat="42.9233383" lon="2.7902633"><ele>364.0</ele><time>2026-04-26T07:43:24.729Z</time></trkpt><trkpt lat="42.92341" lon="2.7901683"><ele>364.0</ele><time>2026-04-26T07:43:25.729Z</time></trkpt><trkpt lat="42.9234883" lon="2.7900683"><ele>364.0</ele><time>2026-04-26T07:43:26.729Z</time></trkpt><trkpt lat="42.9235717" lon="2.7899683"><ele>364.2</ele><time>2026-04-26T07:43:27.728Z</time></trkpt><trkpt lat="42.9236567" lon="2.7898767"><ele>364.4</ele><time>2026-04-26T07:43:28.73Z</time></trkpt><trkpt lat="42.923745" lon="2.7897933"><ele>364.6</ele><time>2026-04-26T07:43:29.73Z</time></trkpt><trkpt lat="42.9238283" lon="2.7897167"><ele>364.8</ele><time>2026-04-26T07:43:30.729Z</time></trkpt><trkpt lat="42.9239033" lon="2.7896383"><ele>365.0</ele><time>2026-04-26T07:43:31.728Z</time></trkpt><trkpt lat="42.9239633" lon="2.7895617"><ele>365.0</ele><time>2026-04-26T07:43:32.729Z</time></trkpt><trkpt lat="42.924015" lon="2.7894867"><ele>365.0</ele><time>2026-04-26T07:43:33.73Z</time></trkpt><trkpt lat="42.924065" lon="2.7894217"><ele>365.0</ele><time>2026-04-26T07:43:34.729Z</time></trkpt><trkpt lat="42.9241567" lon="2.7893533"><ele>365.0</ele><time>2026-04-26T07:43:36.728Z</time></trkpt><trkpt lat="42.9242167" lon="2.7893"><ele>365.0</ele><time>2026-04-26T07:43:38.729Z</time></trkpt><trkpt lat="42.9241833" lon="2.789215"><ele>365.0</ele><time>2026-04-26T07:43:41.728Z</time></trkpt><trkpt lat="42.9240717" lon="2.7892667"><ele>365.0</ele><time>2026-04-26T07:43:43.731Z</time></trkpt><trkpt lat="42.9239983" lon="2.7893217"><ele>365.0</ele><time>2026-04-26T07:43:44.73Z</time></trkpt><trkpt lat="42.9239133" lon="2.7893833"><ele>365.0</ele><time>2026-04-26T07:43:45.729Z</time></trkpt><trkpt lat="42.9238167" lon="2.789435"><ele>365.0</ele><time>2026-04-26T07:43:46.728Z</time></trkpt><trkpt lat="42.9237117" lon="2.7894833"><ele>365.0</ele><time>2026-04-26T07:43:47.728Z</time></trkpt><trkpt lat="42.9236" lon="2.7895217"><ele>365.0</ele><time>2026-04-26T07:43:48.729Z</time></trkpt><trkpt lat="42.92349" lon="2.7895583"><ele>365.0</ele><time>2026-04-26T07:43:49.729Z</time></trkpt><trkpt lat="42.9233867" lon="2.7895867"><ele>365.0</ele><time>2026-04-26T07:43:50.728Z</time></trkpt><trkpt lat="42.9232883" lon="2.7896"><ele>365.0</ele><time>2026-04-26T07:43:51.728Z</time></trkpt><trkpt lat="42.92319" lon="2.7895933"><ele>365.0</ele><time>2026-04-26T07:43:52.731Z</time></trkpt><trkpt lat="42.9230867" lon="2.7895633"><ele>363.0</ele><time>2026-04-26T07:43:53.728Z</time></trkpt><trkpt lat="42.9229833" lon="2.7895283"><ele>361.0</ele><time>2026-04-26T07:43:54.728Z</time></trkpt><trkpt lat="42.9228783" lon="2.7894983"><ele>359.0</ele><time>2026-04-26T07:43:55.728Z</time></trkpt><trkpt lat="42.9227783" lon="2.789475"><ele>357.0</ele><time>2026-04-26T07:43:56.729Z</time></trkpt><trkpt lat="42.9226833" lon="2.789435"><ele>355.0</ele><time>2026-04-26T07:43:57.728Z</time></trkpt><trkpt lat="42.922595" lon="2.7893717"><ele>351.8333333333333</ele><time>2026-04-26T07:43:58.728Z</time></trkpt><trkpt lat="42.9225167" lon="2.7892917"><ele>348.66666666666663</ele><time>2026-04-26T07:43:59.731Z</time></trkpt><trkpt lat="42.9224467" lon="2.7892067"><ele>345.5</ele><time>2026-04-26T07:44:00.729Z</time></trkpt><trkpt lat="42.9223767" lon="2.7891383"><ele>342.3333333333333</ele><time>2026-04-26T07:44:01.73Z</time></trkpt><trkpt lat="42.9223083" lon="2.7890917"><ele>339.1666666666667</ele><time>2026-04-26T07:44:02.732Z</time></trkpt><trkpt lat="42.9222367" lon="2.7890583"><ele>336.0</ele><time>2026-04-26T07:44:03.728Z</time></trkpt><trkpt lat="42.9221683" lon="2.7890283"><ele>336.0</ele><time>2026-04-26T07:44:04.728Z</time></trkpt><trkpt lat="42.922105" lon="2.7889783"><ele>336.0</ele><time>2026-04-26T07:44:05.728Z</time></trkpt><trkpt lat="42.9220483" lon="2.7889"><ele>336.0</ele><time>2026-04-26T07:44:06.727Z</time></trkpt><trkpt lat="42.9219983" lon="2.7887967"><ele>336.0</ele><time>2026-04-26T07:44:07.729Z</time></trkpt><trkpt lat="42.9219483" lon="2.7886917"><ele>336.0</ele><time>2026-04-26T07:44:08.727Z</time></trkpt><trkpt lat="42.921885" lon="2.7885883"><ele>336.0</ele><time>2026-04-26T07:44:09.729Z</time></trkpt><trkpt lat="42.9218217" lon="2.78849"><ele>337.20000000000005</ele><time>2026-04-26T07:44:10.727Z</time></trkpt><trkpt lat="42.9217617" lon="2.7883833"><ele>338.40000000000003</ele><time>2026-04-26T07:44:11.727Z</time></trkpt><trkpt lat="42.92172" lon="2.7882683"><ele>339.6</ele><time>2026-04-26T07:44:12.727Z</time></trkpt><trkpt lat="42.9216933" lon="2.7881467"><ele>340.8</ele><time>2026-04-26T07:44:13.727Z</time></trkpt><trkpt lat="42.92167" lon="2.788025"><ele>342.0</ele><time>2026-04-26T07:44:14.728Z</time></trkpt><trkpt lat="42.9216467" lon="2.78792"><ele>342.0</ele><time>2026-04-26T07:44:15.727Z</time></trkpt><trkpt lat="42.9216133" lon="2.7878283"><ele>342.0</ele><time>2026-04-26T07:44:16.728Z</time></trkpt><trkpt lat="42.9215667" lon="2.787745"><ele>342.0</ele><time>2026-04-26T07:44:17.727Z</time></trkpt><trkpt lat="42.9215067" lon="2.7876633"><ele>342.0</ele><time>2026-04-26T07:44:18.728Z</time></trkpt><trkpt lat="42.9214417" lon="2.7875967"><ele>342.0</ele><time>2026-04-26T07:44:19.73Z</time></trkpt><trkpt lat="42.921385" lon="2.78754"><ele>342.0</ele><time>2026-04-26T07:44:20.729Z</time></trkpt><trkpt lat="42.921335" lon="2.7874633"><ele>339.6666666666667</ele><time>2026-04-26T07:44:22.727Z</time></trkpt><trkpt lat="42.9214283" lon="2.7874583"><ele>337.3333333333333</ele><time>2026-04-26T07:44:26.728Z</time></trkpt><trkpt lat="42.921495" lon="2.7874983"><ele>335.0</ele><time>2026-04-26T07:44:27.727Z</time></trkpt><trkpt lat="42.9215733" lon="2.787525"><ele>332.66666666666663</ele><time>2026-04-26T07:44:28.728Z</time></trkpt><trkpt lat="42.921655" lon="2.78756"><ele>330.3333333333333</ele><time>2026-04-26T07:44:29.727Z</time></trkpt><trkpt lat="42.9217333" lon="2.7876117"><ele>328.0</ele><time>2026-04-26T07:44:30.727Z</time></trkpt><trkpt lat="42.9218083" lon="2.7876883"><ele>326.2</ele><time>2026-04-26T07:44:31.732Z</time></trkpt><trkpt lat="42.9218783" lon="2.78779"><ele>324.4</ele><time>2026-04-26T07:44:32.728Z</time></trkpt><trkpt lat="42.9219467" lon="2.787905"><ele>322.59999999999997</ele><time>2026-04-26T07:44:33.729Z</time></trkpt><trkpt lat="42.922025" lon="2.7880183"><ele>320.79999999999995</ele><time>2026-04-26T07:44:34.729Z</time></trkpt><trkpt lat="42.9221133" lon="2.7881167"><ele>319.0</ele><time>2026-04-26T07:44:35.729Z</time></trkpt><trkpt lat="42.9222017" lon="2.7882"><ele>319.0</ele><time>2026-04-26T07:44:36.727Z</time></trkpt><trkpt lat="42.9222833" lon="2.7882783"><ele>319.0</ele><time>2026-04-26T07:44:37.728Z</time></trkpt><trkpt lat="42.9223533" lon="2.7883517"><ele>319.0</ele><time>2026-04-26T07:44:38.729Z</time></trkpt><trkpt lat="42.922415" lon="2.7884117"><ele>319.0</ele><time>2026-04-26T07:44:39.727Z</time></trkpt><trkpt lat="42.9224767" lon="2.7884483"><ele>319.0</ele><time>2026-04-26T07:44:40.728Z</time></trkpt><trkpt lat="42.9225983" lon="2.788395"><ele>319.3333333333333</ele><time>2026-04-26T07:44:42.728Z</time></trkpt><trkpt lat="42.9226567" lon="2.7883167"><ele>319.66666666666663</ele><time>2026-04-26T07:44:43.734Z</time></trkpt><trkpt lat="42.9227017" lon="2.7882117"><ele>320.0</ele><time>2026-04-26T07:44:44.729Z</time></trkpt><trkpt lat="42.9227517" lon="2.788115"><ele>320.3333333333333</ele><time>2026-04-26T07:44:45.728Z</time></trkpt><trkpt lat="42.922805" lon="2.788045"><ele>320.6666666666667</ele><time>2026-04-26T07:44:46.728Z</time></trkpt><trkpt lat="42.9228617" lon="2.7880017"><ele>321.0</ele><time>2026-04-26T07:44:47.729Z</time></trkpt><trkpt lat="42.922925" lon="2.7880033"><ele>321.0</ele><time>2026-04-26T07:44:48.727Z</time></trkpt><trkpt lat="42.9229967" lon="2.7880367"><ele>321.0</ele><time>2026-04-26T07:44:49.728Z</time></trkpt><trkpt lat="42.9230633" lon="2.7880917"><ele>321.0</ele><time>2026-04-26T07:44:50.727Z</time></trkpt><trkpt lat="42.92313" lon="2.788105"><ele>321.0</ele><time>2026-04-26T07:44:51.73Z</time></trkpt><trkpt lat="42.92319" lon="2.7880667"><ele>321.0</ele><time>2026-04-26T07:44:52.729Z</time></trkpt><trkpt lat="42.92325" lon="2.7879933"><ele>321.0</ele><time>2026-04-26T07:44:53.729Z</time></trkpt><trkpt lat="42.9233217" lon="2.78792"><ele>321.0</ele><time>2026-04-26T07:44:54.728Z</time></trkpt><trkpt lat="42.9233883" lon="2.787855"><ele>321.0</ele><time>2026-04-26T07:44:55.735Z</time></trkpt><trkpt lat="42.92345" lon="2.78778"><ele>321.0</ele><time>2026-04-26T07:44:56.728Z</time></trkpt><trkpt lat="42.9235033" lon="2.7876917"><ele>321.0</ele><time>2026-04-26T07:44:57.727Z</time></trkpt><trkpt lat="42.9235533" lon="2.7876167"><ele>321.0</ele><time>2026-04-26T07:44:58.727Z</time></trkpt><trkpt lat="42.9236433" lon="2.78752"><ele>321.0</ele><time>2026-04-26T07:45:00.728Z</time></trkpt><trkpt lat="42.92369" lon="2.7874517"><ele>318.6666666666667</ele><time>2026-04-26T07:45:02.727Z</time></trkpt><trkpt lat="42.923575" lon="2.7873917"><ele>316.3333333333333</ele><time>2026-04-26T07:45:04.726Z</time></trkpt><trkpt lat="42.923505" lon="2.78739"><ele>314.0</ele><time>2026-04-26T07:45:05.728Z</time></trkpt><trkpt lat="42.9234283" lon="2.7874167"><ele>311.66666666666663</ele><time>2026-04-26T07:45:06.727Z</time></trkpt><trkpt lat="42.923355" lon="2.7874533"><ele>309.3333333333333</ele><time>2026-04-26T07:45:07.729Z</time></trkpt><trkpt lat="42.9232833" lon="2.7874717"><ele>307.0</ele><time>2026-04-26T07:45:08.728Z</time></trkpt><trkpt lat="42.92321" lon="2.7874717"><ele>306.3333333333333</ele><time>2026-04-26T07:45:09.729Z</time></trkpt><trkpt lat="42.923135" lon="2.7874433"><ele>305.66666666666663</ele><time>2026-04-26T07:45:10.727Z</time></trkpt><trkpt lat="42.9230617" lon="2.787395"><ele>305.0</ele><time>2026-04-26T07:45:11.728Z</time></trkpt><trkpt lat="42.92299" lon="2.787335"><ele>304.3333333333333</ele><time>2026-04-26T07:45:12.727Z</time></trkpt><trkpt lat="42.9229267" lon="2.7872817"><ele>303.6666666666667</ele><time>2026-04-26T07:45:13.727Z</time></trkpt><trkpt lat="42.922875" lon="2.7872133"><ele>303.0</ele><time>2026-04-26T07:45:14.727Z</time></trkpt><trkpt lat="42.922845" lon="2.787105"><ele>303.0</ele><time>2026-04-26T07:45:15.727Z</time></trkpt><trkpt lat="42.9228267" lon="2.7869933"><ele>303.0</ele><time>2026-04-26T07:45:16.727Z</time></trkpt><trkpt lat="42.9228083" lon="2.7868967"><ele>303.0</ele><time>2026-04-26T07:45:17.728Z</time></trkpt><trkpt lat="42.9227933" lon="2.78677"><ele>303.0</ele><time>2026-04-26T07:45:19.727Z</time></trkpt><trkpt lat="42.9227667" lon="2.7866717"><ele>303.0</ele><time>2026-04-26T07:51:48.731Z</time></trkpt><trkpt lat="42.9228617" lon="2.7866617"><ele>303.0</ele><time>2026-04-26T07:59:49.729Z</time></trkpt><trkpt lat="42.9229783" lon="2.78669"><ele>303.8</ele><time>2026-04-26T07:59:51.728Z</time></trkpt><trkpt lat="42.9230617" lon="2.7867317"><ele>304.6</ele><time>2026-04-26T07:59:52.728Z</time></trkpt><trkpt lat="42.9231517" lon="2.7867667"><ele>305.4</ele><time>2026-04-26T07:59:53.729Z</time></trkpt><trkpt lat="42.9232483" lon="2.786795"><ele>306.2</ele><time>2026-04-26T07:59:54.729Z</time></trkpt><trkpt lat="42.9233367" lon="2.7868317"><ele>307.0</ele><time>2026-04-26T07:59:55.73Z</time></trkpt><trkpt lat="42.923435" lon="2.7868667"><ele>307.0</ele><time>2026-04-26T07:59:56.728Z</time></trkpt><trkpt lat="42.923525" lon="2.7868967"><ele>307.0</ele><time>2026-04-26T07:59:57.73Z</time></trkpt><trkpt lat="42.923595" lon="2.78691"><ele>307.0</ele><time>2026-04-26T07:59:58.729Z</time></trkpt><trkpt lat="42.9236617" lon="2.7869233"><ele>307.0</ele><time>2026-04-26T07:59:59.729Z</time></trkpt><trkpt lat="42.9237483" lon="2.78693"><ele>307.0</ele><time>2026-04-26T08:00:01.729Z</time></trkpt><trkpt lat="42.92372" lon="2.78685"><ele>307.0</ele><time>2026-04-26T08:00:03.729Z</time></trkpt><trkpt lat="42.9236217" lon="2.7868033"><ele>303.8</ele><time>2026-04-26T08:00:13.73Z</time></trkpt><trkpt lat="42.9235517" lon="2.7867867"><ele>300.6</ele><time>2026-04-26T08:00:14.73Z</time></trkpt><trkpt lat="42.9234683" lon="2.7867617"><ele>297.40000000000003</ele><time>2026-04-26T08:00:15.728Z</time></trkpt><trkpt lat="42.923375" lon="2.78672"><ele>294.2</ele><time>2026-04-26T08:00:16.73Z</time></trkpt><trkpt lat="42.9232767" lon="2.7866717"><ele>291.0</ele><time>2026-04-26T08:00:17.731Z</time></trkpt><trkpt lat="42.9231817" lon="2.786625"><ele>291.0</ele><time>2026-04-26T08:00:18.729Z</time></trkpt><trkpt lat="42.9230967" lon="2.7865783"><ele>291.0</ele><time>2026-04-26T08:00:19.732Z</time></trkpt><trkpt lat="42.9230283" lon="2.78653"><ele>291.0</ele><time>2026-04-26T08:00:20.729Z</time></trkpt><trkpt lat="42.922955" lon="2.7864183"><ele>291.0</ele><time>2026-04-26T08:00:22.728Z</time></trkpt><trkpt lat="42.9229383" lon="2.7863133"><ele>291.0</ele><time>2026-04-26T08:00:24.728Z</time></trkpt><trkpt lat="42.9230683" lon="2.7862717"><ele>291.0</ele><time>2026-04-26T08:00:26.73Z</time></trkpt><trkpt lat="42.9231667" lon="2.7862317"><ele>291.0</ele><time>2026-04-26T08:00:27.733Z</time></trkpt><trkpt lat="42.92328" lon="2.7861667"><ele>291.0</ele><time>2026-04-26T08:00:28.727Z</time></trkpt><trkpt lat="42.9234" lon="2.7860783"><ele>291.0</ele><time>2026-04-26T08:00:29.731Z</time></trkpt><trkpt lat="42.9235217" lon="2.785975"><ele>289.5</ele><time>2026-04-26T08:00:30.729Z</time></trkpt><trkpt lat="42.9236367" lon="2.785855"><ele>288.0</ele><time>2026-04-26T08:00:31.732Z</time></trkpt><trkpt lat="42.9237267" lon="2.7857183"><ele>286.5</ele><time>2026-04-26T08:00:32.728Z</time></trkpt><trkpt lat="42.9237933" lon="2.7855633"><ele>285.0</ele><time>2026-04-26T08:00:33.731Z</time></trkpt><trkpt lat="42.9238467" lon="2.78539"><ele>285.0</ele><time>2026-04-26T08:00:34.728Z</time></trkpt><trkpt lat="42.9238817" lon="2.785215"><ele>285.0</ele><time>2026-04-26T08:00:35.73Z</time></trkpt><trkpt lat="42.9238967" lon="2.785045"><ele>285.0</ele><time>2026-04-26T08:00:36.73Z</time></trkpt><trkpt lat="42.9238867" lon="2.7848833"><ele>285.0</ele><time>2026-04-26T08:00:37.733Z</time></trkpt><trkpt lat="42.9238483" lon="2.7847383"><ele>287.25</ele><time>2026-04-26T08:00:38.732Z</time></trkpt><trkpt lat="42.9237817" lon="2.78461"><ele>289.5</ele><time>2026-04-26T08:00:39.728Z</time></trkpt><trkpt lat="42.92369" lon="2.7845"><ele>291.75</ele><time>2026-04-26T08:00:40.729Z</time></trkpt><trkpt lat="42.9235833" lon="2.784415"><ele>294.0</ele><time>2026-04-26T08:00:41.729Z</time></trkpt><trkpt lat="42.92346" lon="2.784345"><ele>298.75</ele><time>2026-04-26T08:00:42.727Z</time></trkpt><trkpt lat="42.9233317" lon="2.7842667"><ele>303.5</ele><time>2026-04-26T08:00:43.734Z</time></trkpt><trkpt lat="42.9232033" lon="2.7841783"><ele>308.25</ele><time>2026-04-26T08:00:44.728Z</time></trkpt><trkpt lat="42.92309" lon="2.7840817"><ele>313.0</ele><time>2026-04-26T08:00:45.729Z</time></trkpt><trkpt lat="42.92299" lon="2.78398"><ele>313.0</ele><time>2026-04-26T08:00:46.728Z</time></trkpt><trkpt lat="42.9229" lon="2.7838867"><ele>313.0</ele><time>2026-04-26T08:00:47.732Z</time></trkpt><trkpt lat="42.92282" lon="2.7837983"><ele>313.0</ele><time>2026-04-26T08:00:48.729Z</time></trkpt><trkpt lat="42.922745" lon="2.783715"><ele>313.0</ele><time>2026-04-26T08:00:49.729Z</time></trkpt><trkpt lat="42.9226983" lon="2.7836367"><ele>313.0</ele><time>2026-04-26T08:00:50.731Z</time></trkpt><trkpt lat="42.92267" lon="2.7835433"><ele>315.4</ele><time>2026-04-26T08:00:51.736Z</time></trkpt><trkpt lat="42.9226683" lon="2.7834467"><ele>317.8</ele><time>2026-04-26T08:00:52.731Z</time></trkpt><trkpt lat="42.9226967" lon="2.7833667"><ele>320.2</ele><time>2026-04-26T08:00:53.73Z</time></trkpt><trkpt lat="42.92277" lon="2.7832717"><ele>322.6</ele><time>2026-04-26T08:00:55.729Z</time></trkpt><trkpt lat="42.92289" lon="2.7833"><ele>325.0</ele><time>2026-04-26T08:00:57.729Z</time></trkpt><trkpt lat="42.92298" lon="2.7833383"><ele>325.0</ele><time>2026-04-26T08:00:58.728Z</time></trkpt><trkpt lat="42.9230783" lon="2.78337"><ele>325.0</ele><time>2026-04-26T08:00:59.732Z</time></trkpt><trkpt lat="42.9231983" lon="2.7833817"><ele>325.0</ele><time>2026-04-26T08:01:00.73Z</time></trkpt><trkpt lat="42.9233283" lon="2.7833917"><ele>325.0</ele><time>2026-04-26T08:01:01.729Z</time></trkpt><trkpt lat="42.9234617" lon="2.783395"><ele>325.25</ele><time>2026-04-26T08:01:02.728Z</time></trkpt><trkpt lat="42.9235833" lon="2.7833683"><ele>325.5</ele><time>2026-04-26T08:01:03.73Z</time></trkpt><trkpt lat="42.9236983" lon="2.7833133"><ele>325.75</ele><time>2026-04-26T08:01:04.728Z</time></trkpt><trkpt lat="42.9237983" lon="2.7832433"><ele>326.0</ele><time>2026-04-26T08:01:05.731Z</time></trkpt><trkpt lat="42.9238883" lon="2.7831917"><ele>326.0</ele><time>2026-04-26T08:01:06.728Z</time></trkpt><trkpt lat="42.923975" lon="2.7831583"><ele>326.0</ele><time>2026-04-26T08:01:07.732Z</time></trkpt><trkpt lat="42.92405" lon="2.78316"><ele>326.0</ele><time>2026-04-26T08:01:08.732Z</time></trkpt><trkpt lat="42.9241217" lon="2.78319"><ele>326.0</ele><time>2026-04-26T08:01:09.731Z</time></trkpt><trkpt lat="42.9241633" lon="2.7832783"><ele>326.0</ele><time>2026-04-26T08:01:10.729Z</time></trkpt><trkpt lat="42.9241967" lon="2.7833817"><ele>326.0</ele><time>2026-04-26T08:01:11.73Z</time></trkpt><trkpt lat="42.9242317" lon="2.7835017"><ele>323.0</ele><time>2026-04-26T08:01:12.729Z</time></trkpt><trkpt lat="42.9243" lon="2.7835933"><ele>320.0</ele><time>2026-04-26T08:01:13.733Z</time></trkpt><trkpt lat="42.9244" lon="2.7836567"><ele>317.0</ele><time>2026-04-26T08:01:14.728Z</time></trkpt><trkpt lat="42.9245167" lon="2.7836883"><ele>314.0</ele><time>2026-04-26T08:01:15.729Z</time></trkpt><trkpt lat="42.9246467" lon="2.78369"><ele>314.0</ele><time>2026-04-26T08:01:16.729Z</time></trkpt><trkpt lat="42.9247883" lon="2.7836667"><ele>314.0</ele><time>2026-04-26T08:01:17.729Z</time></trkpt><trkpt lat="42.924925" lon="2.7836233"><ele>314.0</ele><time>2026-04-26T08:01:18.729Z</time></trkpt><trkpt lat="42.9250467" lon="2.7835717"><ele>314.0</ele><time>2026-04-26T08:01:19.73Z</time></trkpt><trkpt lat="42.92515" lon="2.78351"><ele>315.2</ele><time>2026-04-26T08:01:20.728Z</time></trkpt><trkpt lat="42.9252233" lon="2.7834333"><ele>316.4</ele><time>2026-04-26T08:01:21.731Z</time></trkpt><trkpt lat="42.92528" lon="2.783335"><ele>317.6</ele><time>2026-04-26T08:01:22.732Z</time></trkpt><trkpt lat="42.92532" lon="2.7832117"><ele>318.8</ele><time>2026-04-26T08:01:23.729Z</time></trkpt><trkpt lat="42.9253267" lon="2.7830483"><ele>320.0</ele><time>2026-04-26T08:01:24.729Z</time></trkpt><trkpt lat="42.9253283" lon="2.782865"><ele>320.0</ele><time>2026-04-26T08:01:25.729Z</time></trkpt><trkpt lat="42.925335" lon="2.7826833"><ele>320.0</ele><time>2026-04-26T08:01:26.729Z</time></trkpt><trkpt lat="42.9253517" lon="2.7825117"><ele>320.0</ele><time>2026-04-26T08:01:27.731Z</time></trkpt><trkpt lat="42.925375" lon="2.7823533"><ele>320.0</ele><time>2026-04-26T08:01:28.728Z</time></trkpt><trkpt lat="42.9254117" lon="2.782215"><ele>320.6</ele><time>2026-04-26T08:01:29.733Z</time></trkpt><trkpt lat="42.9254667" lon="2.7821"><ele>321.2</ele><time>2026-04-26T08:01:30.731Z</time></trkpt><trkpt lat="42.925545" lon="2.7820117"><ele>321.79999999999995</ele><time>2026-04-26T08:01:31.728Z</time></trkpt><trkpt lat="42.9256433" lon="2.7819467"><ele>322.4</ele><time>2026-04-26T08:01:32.728Z</time></trkpt><trkpt lat="42.9257567" lon="2.7818933"><ele>323.0</ele><time>2026-04-26T08:01:33.729Z</time></trkpt><trkpt lat="42.9258867" lon="2.7818233"><ele>322.79999999999995</ele><time>2026-04-26T08:01:34.728Z</time></trkpt><trkpt lat="42.9259933" lon="2.7817233"><ele>322.6</ele><time>2026-04-26T08:01:35.729Z</time></trkpt><trkpt lat="42.9260667" lon="2.7816167"><ele>322.4</ele><time>2026-04-26T08:01:36.729Z</time></trkpt><trkpt lat="42.926125" lon="2.781495"><ele>322.20000000000005</ele><time>2026-04-26T08:01:37.73Z</time></trkpt><trkpt lat="42.9261533" lon="2.7813767"><ele>322.0</ele><time>2026-04-26T08:01:38.729Z</time></trkpt><trkpt lat="42.92614" lon="2.7812717"><ele>322.0</ele><time>2026-04-26T08:01:39.732Z</time></trkpt><trkpt lat="42.9261067" lon="2.78118"><ele>322.0</ele><time>2026-04-26T08:01:40.73Z</time></trkpt><trkpt lat="42.9260267" lon="2.781085"><ele>322.0</ele><time>2026-04-26T08:01:41.729Z</time></trkpt><trkpt lat="42.9259133" lon="2.7809917"><ele>322.0</ele><time>2026-04-26T08:01:42.73Z</time></trkpt><trkpt lat="42.925805" lon="2.7808767"><ele>326.5</ele><time>2026-04-26T08:01:43.729Z</time></trkpt><trkpt lat="42.9256967" lon="2.78075"><ele>331.0</ele><time>2026-04-26T08:01:44.728Z</time></trkpt><trkpt lat="42.9255867" lon="2.78061"><ele>335.5</ele><time>2026-04-26T08:01:45.73Z</time></trkpt><trkpt lat="42.9254917" lon="2.7804683"><ele>340.0</ele><time>2026-04-26T08:01:46.729Z</time></trkpt><trkpt lat="42.9254033" lon="2.7803433"><ele>340.0</ele><time>2026-04-26T08:01:47.728Z</time></trkpt><trkpt lat="42.92532" lon="2.7802333"><ele>340.0</ele><time>2026-04-26T08:01:48.728Z</time></trkpt><trkpt lat="42.9252517" lon="2.7801433"><ele>340.0</ele><time>2026-04-26T08:01:49.728Z</time></trkpt><trkpt lat="42.9251983" lon="2.78006"><ele>340.0</ele><time>2026-04-26T08:01:50.728Z</time></trkpt><trkpt lat="42.9251567" lon="2.7799233"><ele>340.0</ele><time>2026-04-26T08:01:52.727Z</time></trkpt><trkpt lat="42.925205" lon="2.7798233"><ele>339.8333333333333</ele><time>2026-04-26T08:01:53.731Z</time></trkpt><trkpt lat="42.925245" lon="2.7797117"><ele>339.66666666666663</ele><time>2026-04-26T08:01:54.727Z</time></trkpt><trkpt lat="42.9252533" lon="2.7796033"><ele>339.5</ele><time>2026-04-26T08:01:55.729Z</time></trkpt><trkpt lat="42.92527" lon="2.7794817"><ele>339.3333333333333</ele><time>2026-04-26T08:01:56.731Z</time></trkpt><trkpt lat="42.9252717" lon="2.77936"><ele>339.1666666666667</ele><time>2026-04-26T08:01:57.73Z</time></trkpt><trkpt lat="42.9252833" lon="2.77926"><ele>339.0</ele><time>2026-04-26T08:01:58.73Z</time></trkpt><trkpt lat="42.925345" lon="2.7791667"><ele>339.0</ele><time>2026-04-26T08:02:00.73Z</time></trkpt><trkpt lat="42.9254467" lon="2.779215"><ele>339.0</ele><time>2026-04-26T08:02:02.728Z</time></trkpt><trkpt lat="42.9255183" lon="2.7792883"><ele>339.0</ele><time>2026-04-26T08:02:03.736Z</time></trkpt><trkpt lat="42.9255983" lon="2.77935"><ele>339.0</ele><time>2026-04-26T08:02:04.729Z</time></trkpt><trkpt lat="42.9256917" lon="2.779395"><ele>339.0</ele><time>2026-04-26T08:02:05.729Z</time></trkpt><trkpt lat="42.925785" lon="2.7793867"><ele>339.25</ele><time>2026-04-26T08:02:06.73Z</time></trkpt><trkpt lat="42.9258733" lon="2.7793133"><ele>339.5</ele><time>2026-04-26T08:02:07.73Z</time></trkpt><trkpt lat="42.9259467" lon="2.77919"><ele>339.75</ele><time>2026-04-26T08:02:08.728Z</time></trkpt><trkpt lat="42.9260183" lon="2.7790483"><ele>340.0</ele><time>2026-04-26T08:02:09.729Z</time></trkpt><trkpt lat="42.926095" lon="2.77891"><ele>340.0</ele><time>2026-04-26T08:02:10.73Z</time></trkpt><trkpt lat="42.9261883" lon="2.7787883"><ele>340.0</ele><time>2026-04-26T08:02:11.731Z</time></trkpt><trkpt lat="42.9262917" lon="2.7786817"><ele>340.0</ele><time>2026-04-26T08:02:12.728Z</time></trkpt><trkpt lat="42.9264" lon="2.7785883"><ele>340.0</ele><time>2026-04-26T08:02:13.729Z</time></trkpt><trkpt lat="42.9265033" lon="2.7784867"><ele>340.5</ele><time>2026-04-26T08:02:14.73Z</time></trkpt><trkpt lat="42.9265933" lon="2.77836"><ele>341.0</ele><time>2026-04-26T08:02:15.73Z</time></trkpt><trkpt lat="42.926665" lon="2.77821"><ele>341.5</ele><time>2026-04-26T08:02:16.73Z</time></trkpt><trkpt lat="42.9267117" lon="2.7780433"><ele>342.0</ele><time>2026-04-26T08:02:17.731Z</time></trkpt><trkpt lat="42.9267367" lon="2.7778733"><ele>342.0</ele><time>2026-04-26T08:02:18.732Z</time></trkpt><trkpt lat="42.9267367" lon="2.7777117"><ele>342.0</ele><time>2026-04-26T08:02:19.729Z</time></trkpt><trkpt lat="42.92671" lon="2.77757"><ele>342.0</ele><time>2026-04-26T08:02:20.73Z</time></trkpt><trkpt lat="42.9266767" lon="2.7774517"><ele>342.0</ele><time>2026-04-26T08:02:21.728Z</time></trkpt><trkpt lat="42.9266517" lon="2.7773483"><ele>342.0</ele><time>2026-04-26T08:02:22.728Z</time></trkpt><trkpt lat="42.92664" lon="2.7772567"><ele>342.20000000000005</ele><time>2026-04-26T08:02:23.728Z</time></trkpt><trkpt lat="42.9266983" lon="2.7771267"><ele>342.4</ele><time>2026-04-26T08:02:25.731Z</time></trkpt><trkpt lat="42.9267733" lon="2.7770867"><ele>342.6</ele><time>2026-04-26T08:02:26.73Z</time></trkpt><trkpt lat="42.9268683" lon="2.7770583"><ele>342.79999999999995</ele><time>2026-04-26T08:02:27.733Z</time></trkpt><trkpt lat="42.9269733" lon="2.7770217"><ele>343.0</ele><time>2026-04-26T08:02:28.728Z</time></trkpt><trkpt lat="42.92709" lon="2.7769717"><ele>343.0</ele><time>2026-04-26T08:02:29.728Z</time></trkpt><trkpt lat="42.9272033" lon="2.776875"><ele>343.0</ele><time>2026-04-26T08:02:30.733Z</time></trkpt><trkpt lat="42.9273083" lon="2.7767367"><ele>343.0</ele><time>2026-04-26T08:02:31.73Z</time></trkpt><trkpt lat="42.9274117" lon="2.7765867"><ele>343.0</ele><time>2026-04-26T08:02:32.73Z</time></trkpt><trkpt lat="42.92752" lon="2.7764383"><ele>344.25</ele><time>2026-04-26T08:02:33.731Z</time></trkpt><trkpt lat="42.9276283" lon="2.7762933"><ele>345.5</ele><time>2026-04-26T08:02:34.728Z</time></trkpt><trkpt lat="42.9277333" lon="2.7761567"><ele>346.75</ele><time>2026-04-26T08:02:35.73Z</time></trkpt><trkpt lat="42.927835" lon="2.7760267"><ele>348.0</ele><time>2026-04-26T08:02:36.731Z</time></trkpt><trkpt lat="42.9279267" lon="2.775905"><ele>348.0</ele><time>2026-04-26T08:02:37.73Z</time></trkpt><trkpt lat="42.9280033" lon="2.775785"><ele>348.0</ele><time>2026-04-26T08:02:38.729Z</time></trkpt><trkpt lat="42.9280617" lon="2.7756617"><ele>348.0</ele><time>2026-04-26T08:02:39.729Z</time></trkpt><trkpt lat="42.9281" lon="2.7755433"><ele>348.0</ele><time>2026-04-26T08:02:40.729Z</time></trkpt><trkpt lat="42.928105" lon="2.77543"><ele>348.0</ele><time>2026-04-26T08:02:41.73Z</time></trkpt><trkpt lat="42.9280883" lon="2.7753233"><ele>348.0</ele><time>2026-04-26T08:02:42.731Z</time></trkpt><trkpt lat="42.9280917" lon="2.775225"><ele>348.0</ele><time>2026-04-26T08:02:43.733Z</time></trkpt><trkpt lat="42.9281167" lon="2.7751333"><ele>348.0</ele><time>2026-04-26T08:02:44.73Z</time></trkpt><trkpt lat="42.92816" lon="2.7750417"><ele>348.0</ele><time>2026-04-26T08:02:45.728Z</time></trkpt><trkpt lat="42.92823" lon="2.7749417"><ele>348.0</ele><time>2026-04-26T08:02:46.728Z</time></trkpt><trkpt lat="42.9283233" lon="2.77481"><ele>349.5</ele><time>2026-04-26T08:02:47.729Z</time></trkpt><trkpt lat="42.92841" lon="2.7746633"><ele>351.0</ele><time>2026-04-26T08:02:48.729Z</time></trkpt><trkpt lat="42.9284933" lon="2.7745183"><ele>352.5</ele><time>2026-04-26T08:02:49.728Z</time></trkpt><trkpt lat="42.9285767" lon="2.7743917"><ele>354.0</ele><time>2026-04-26T08:02:50.73Z</time></trkpt><trkpt lat="42.92866" lon="2.7742817"><ele>355.4</ele><time>2026-04-26T08:02:51.73Z</time></trkpt><trkpt lat="42.9287383" lon="2.77417"><ele>356.79999999999995</ele><time>2026-04-26T08:02:52.728Z</time></trkpt><trkpt lat="42.9288" lon="2.7740517"><ele>358.20000000000005</ele><time>2026-04-26T08:02:53.728Z</time></trkpt><trkpt lat="42.9288567" lon="2.7739317"><ele>359.6</ele><time>2026-04-26T08:02:54.731Z</time></trkpt><trkpt lat="42.928915" lon="2.7738083"><ele>361.0</ele><time>2026-04-26T08:02:55.73Z</time></trkpt><trkpt lat="42.928995" lon="2.7736817"><ele>361.0</ele><time>2026-04-26T08:02:56.729Z</time></trkpt><trkpt lat="42.929085" lon="2.7735533"><ele>361.0</ele><time>2026-04-26T08:02:57.73Z</time></trkpt><trkpt lat="42.929175" lon="2.77342"><ele>361.0</ele><time>2026-04-26T08:02:58.728Z</time></trkpt><trkpt lat="42.9292767" lon="2.7732733"><ele>361.0</ele><time>2026-04-26T08:02:59.729Z</time></trkpt><trkpt lat="42.9293617" lon="2.773135"><ele>362.5</ele><time>2026-04-26T08:03:00.727Z</time></trkpt><trkpt lat="42.9294583" lon="2.7730067"><ele>364.0</ele><time>2026-04-26T08:03:01.727Z</time></trkpt><trkpt lat="42.9295567" lon="2.7728883"><ele>365.5</ele><time>2026-04-26T08:03:02.727Z</time></trkpt><trkpt lat="42.929665" lon="2.772785"><ele>367.0</ele><time>2026-04-26T08:03:03.729Z</time></trkpt><trkpt lat="42.92977" lon="2.7726883"><ele>365.0</ele><time>2026-04-26T08:03:04.729Z</time></trkpt><trkpt lat="42.9298733" lon="2.7726133"><ele>363.0</ele><time>2026-04-26T08:03:05.731Z</time></trkpt><trkpt lat="42.9299783" lon="2.7725517"><ele>361.0</ele><time>2026-04-26T08:03:06.729Z</time></trkpt><trkpt lat="42.9300983" lon="2.7725183"><ele>359.0</ele><time>2026-04-26T08:03:07.728Z</time></trkpt><trkpt lat="42.9302167" lon="2.7725117"><ele>359.0</ele><time>2026-04-26T08:03:08.731Z</time></trkpt><trkpt lat="42.93032" lon="2.7725017"><ele>359.0</ele><time>2026-04-26T08:03:09.729Z</time></trkpt><trkpt lat="42.930395" lon="2.772495"><ele>359.0</ele><time>2026-04-26T08:03:10.727Z</time></trkpt><trkpt lat="42.9305" lon="2.7724667"><ele>359.0</ele><time>2026-04-26T08:03:12.728Z</time></trkpt><trkpt lat="42.9305817" lon="2.7723117"><ele>359.0</ele><time>2026-04-26T08:03:14.726Z</time></trkpt><trkpt lat="42.9306467" lon="2.7722133"><ele>359.0</ele><time>2026-04-26T08:03:15.732Z</time></trkpt><trkpt lat="42.9307233" lon="2.7721167"><ele>359.0</ele><time>2026-04-26T08:03:16.729Z</time></trkpt><trkpt lat="42.93082" lon="2.772025"><ele>359.0</ele><time>2026-04-26T08:03:17.729Z</time></trkpt><trkpt lat="42.93091" lon="2.771945"><ele>359.0</ele><time>2026-04-26T08:03:18.729Z</time></trkpt><trkpt lat="42.93099" lon="2.7718767"><ele>359.0</ele><time>2026-04-26T08:03:19.728Z</time></trkpt><trkpt lat="42.9310467" lon="2.7717933"><ele>361.4</ele><time>2026-04-26T08:03:20.729Z</time></trkpt><trkpt lat="42.93109" lon="2.7717"><ele>363.79999999999995</ele><time>2026-04-26T08:03:21.728Z</time></trkpt><trkpt lat="42.9311" lon="2.77158"><ele>366.20000000000005</ele><time>2026-04-26T08:03:22.727Z</time></trkpt><trkpt lat="42.931075" lon="2.77144"><ele>368.6</ele><time>2026-04-26T08:03:23.728Z</time></trkpt><trkpt lat="42.931055" lon="2.77129"><ele>371.0</ele><time>2026-04-26T08:03:24.728Z</time></trkpt><trkpt lat="42.9310483" lon="2.77113"><ele>367.8</ele><time>2026-04-26T08:03:25.735Z</time></trkpt><trkpt lat="42.9310517" lon="2.7709717"><ele>364.6</ele><time>2026-04-26T08:03:26.727Z</time></trkpt><trkpt lat="42.93107" lon="2.7708283"><ele>361.4</ele><time>2026-04-26T08:03:27.73Z</time></trkpt><trkpt lat="42.9310967" lon="2.7707033"><ele>358.2</ele><time>2026-04-26T08:03:28.728Z</time></trkpt><trkpt lat="42.9311317" lon="2.7705967"><ele>355.0</ele><time>2026-04-26T08:03:29.729Z</time></trkpt><trkpt lat="42.9311767" lon="2.7705133"><ele>355.0</ele><time>2026-04-26T08:03:30.728Z</time></trkpt><trkpt lat="42.9312317" lon="2.770445"><ele>355.0</ele><time>2026-04-26T08:03:31.728Z</time></trkpt><trkpt lat="42.9313083" lon="2.7704067"><ele>355.0</ele><time>2026-04-26T08:03:32.734Z</time></trkpt><trkpt lat="42.9314183" lon="2.7703983"><ele>355.0</ele><time>2026-04-26T08:03:33.727Z</time></trkpt><trkpt lat="42.931545" lon="2.7703817"><ele>355.0</ele><time>2026-04-26T08:03:34.73Z</time></trkpt><trkpt lat="42.9316717" lon="2.7703383"><ele>356.75</ele><time>2026-04-26T08:03:35.731Z</time></trkpt><trkpt lat="42.9318" lon="2.7702733"><ele>358.5</ele><time>2026-04-26T08:03:36.729Z</time></trkpt><trkpt lat="42.9319283" lon="2.7701967"><ele>360.25</ele><time>2026-04-26T08:03:37.734Z</time></trkpt><trkpt lat="42.9320617" lon="2.7701217"><ele>362.0</ele><time>2026-04-26T08:03:38.728Z</time></trkpt><trkpt lat="42.932205" lon="2.7700617"><ele>359.25</ele><time>2026-04-26T08:03:39.729Z</time></trkpt><trkpt lat="42.9323517" lon="2.770015"><ele>356.5</ele><time>2026-04-26T08:03:40.727Z</time></trkpt><trkpt lat="42.9324983" lon="2.7699783"><ele>353.75</ele><time>2026-04-26T08:03:41.731Z</time></trkpt><trkpt lat="42.93264" lon="2.7699567"><ele>351.0</ele><time>2026-04-26T08:03:42.731Z</time></trkpt><trkpt lat="42.93277" lon="2.7699283"><ele>351.0</ele><time>2026-04-26T08:03:43.727Z</time></trkpt><trkpt lat="42.9328833" lon="2.7699233"><ele>351.0</ele><time>2026-04-26T08:03:44.73Z</time></trkpt><trkpt lat="42.9329733" lon="2.7699283"><ele>351.0</ele><time>2026-04-26T08:03:45.729Z</time></trkpt><trkpt lat="42.933045" lon="2.7699217"><ele>351.0</ele><time>2026-04-26T08:03:46.727Z</time></trkpt><trkpt lat="42.9331283" lon="2.7698383"><ele>351.0</ele><time>2026-04-26T08:03:48.729Z</time></trkpt><trkpt lat="42.9331133" lon="2.76967"><ele>351.0</ele><time>2026-04-26T08:03:50.729Z</time></trkpt><trkpt lat="42.933045" lon="2.76956"><ele>351.0</ele><time>2026-04-26T08:03:51.73Z</time></trkpt><trkpt lat="42.9329683" lon="2.76945"><ele>351.0</ele><time>2026-04-26T08:03:52.729Z</time></trkpt><trkpt lat="42.93288" lon="2.7693267"><ele>351.0</ele><time>2026-04-26T08:03:53.73Z</time></trkpt><trkpt lat="42.932795" lon="2.7691983"><ele>351.20000000000005</ele><time>2026-04-26T08:03:54.73Z</time></trkpt><trkpt lat="42.9327117" lon="2.769075"><ele>351.40000000000003</ele><time>2026-04-26T08:03:55.73Z</time></trkpt><trkpt lat="42.9326333" lon="2.76897"><ele>351.6</ele><time>2026-04-26T08:03:56.73Z</time></trkpt><trkpt lat="42.9325567" lon="2.7688683"><ele>351.8</ele><time>2026-04-26T08:03:57.729Z</time></trkpt><trkpt lat="42.9324983" lon="2.7687633"><ele>352.0</ele><time>2026-04-26T08:03:58.729Z</time></trkpt><trkpt lat="42.9324633" lon="2.7686517"><ele>347.20000000000005</ele><time>2026-04-26T08:03:59.728Z</time></trkpt><trkpt lat="42.93244" lon="2.7685267"><ele>342.4</ele><time>2026-04-26T08:04:00.729Z</time></trkpt><trkpt lat="42.93243" lon="2.7683867"><ele>337.6</ele><time>2026-04-26T08:04:01.729Z</time></trkpt><trkpt lat="42.93244" lon="2.7682333"><ele>332.79999999999995</ele><time>2026-04-26T08:04:02.73Z</time></trkpt><trkpt lat="42.9324683" lon="2.7680733"><ele>328.0</ele><time>2026-04-26T08:04:03.73Z</time></trkpt><trkpt lat="42.9324967" lon="2.7679133"><ele>327.75</ele><time>2026-04-26T08:04:04.728Z</time></trkpt><trkpt lat="42.932525" lon="2.7677583"><ele>327.5</ele><time>2026-04-26T08:04:05.731Z</time></trkpt><trkpt lat="42.9325633" lon="2.767615"><ele>327.25</ele><time>2026-04-26T08:04:06.729Z</time></trkpt><trkpt lat="42.9326167" lon="2.767475"><ele>327.0</ele><time>2026-04-26T08:04:07.73Z</time></trkpt><trkpt lat="42.93268" lon="2.7673467"><ele>327.0</ele><time>2026-04-26T08:04:08.729Z</time></trkpt><trkpt lat="42.932755" lon="2.7672417"><ele>327.0</ele><time>2026-04-26T08:04:09.73Z</time></trkpt><trkpt lat="42.9328383" lon="2.7671517"><ele>327.0</ele><time>2026-04-26T08:04:10.73Z</time></trkpt><trkpt lat="42.932935" lon="2.767075"><ele>327.0</ele><time>2026-04-26T08:04:11.729Z</time></trkpt><trkpt lat="42.933045" lon="2.7670183"><ele>327.0</ele><time>2026-04-26T08:04:12.73Z</time></trkpt><trkpt lat="42.9331633" lon="2.76698"><ele>327.0</ele><time>2026-04-26T08:04:13.729Z</time></trkpt><trkpt lat="42.9332717" lon="2.7669483"><ele>327.0</ele><time>2026-04-26T08:04:14.73Z</time></trkpt><trkpt lat="42.9333717" lon="2.7669183"><ele>327.0</ele><time>2026-04-26T08:04:15.728Z</time></trkpt><trkpt lat="42.9334667" lon="2.76686"><ele>327.0</ele><time>2026-04-26T08:04:16.728Z</time></trkpt><trkpt lat="42.93356" lon="2.766775"><ele>327.0</ele><time>2026-04-26T08:04:17.727Z</time></trkpt><trkpt lat="42.9336567" lon="2.766685"><ele>324.20000000000005</ele><time>2026-04-26T08:04:18.731Z</time></trkpt><trkpt lat="42.933755" lon="2.7666067"><ele>321.40000000000003</ele><time>2026-04-26T08:04:19.728Z</time></trkpt><trkpt lat="42.9338517" lon="2.7665367"><ele>318.6</ele><time>2026-04-26T08:04:20.729Z</time></trkpt><trkpt lat="42.933945" lon="2.7664783"><ele>315.8</ele><time>2026-04-26T08:04:21.728Z</time></trkpt><trkpt lat="42.9340267" lon="2.7664283"><ele>313.0</ele><time>2026-04-26T08:04:22.728Z</time></trkpt><trkpt lat="42.934105" lon="2.7663817"><ele>313.0</ele><time>2026-04-26T08:04:23.727Z</time></trkpt><trkpt lat="42.93417" lon="2.766335"><ele>313.0</ele><time>2026-04-26T08:04:24.731Z</time></trkpt><trkpt lat="42.93421" lon="2.7662667"><ele>313.0</ele><time>2026-04-26T08:04:25.728Z</time></trkpt><trkpt lat="42.9342267" lon="2.766105"><ele>313.0</ele><time>2026-04-26T08:04:27.729Z</time></trkpt><trkpt lat="42.934195" lon="2.7659883"><ele>313.0</ele><time>2026-04-26T08:04:28.728Z</time></trkpt><trkpt lat="42.93414" lon="2.7658617"><ele>311.75</ele><time>2026-04-26T08:04:29.728Z</time></trkpt><trkpt lat="42.934085" lon="2.7657283"><ele>310.5</ele><time>2026-04-26T08:04:30.728Z</time></trkpt><trkpt lat="42.9340283" lon="2.7655883"><ele>309.25</ele><time>2026-04-26T08:04:31.729Z</time></trkpt><trkpt lat="42.93397" lon="2.7654467"><ele>308.0</ele><time>2026-04-26T08:04:32.728Z</time></trkpt><trkpt lat="42.9339017" lon="2.7653183"><ele>308.0</ele><time>2026-04-26T08:04:33.728Z</time></trkpt><trkpt lat="42.933825" lon="2.7651983"><ele>308.0</ele><time>2026-04-26T08:04:34.728Z</time></trkpt><trkpt lat="42.93374" lon="2.7650867"><ele>308.0</ele><time>2026-04-26T08:04:35.73Z</time></trkpt><trkpt lat="42.9336367" lon="2.76498"><ele>308.0</ele><time>2026-04-26T08:04:36.729Z</time></trkpt><trkpt lat="42.93354" lon="2.7648867"><ele>307.5</ele><time>2026-04-26T08:04:37.734Z</time></trkpt><trkpt lat="42.9334417" lon="2.7647983"><ele>307.0</ele><time>2026-04-26T08:04:38.727Z</time></trkpt><trkpt lat="42.9333383" lon="2.76473"><ele>306.5</ele><time>2026-04-26T08:04:39.727Z</time></trkpt><trkpt lat="42.9332333" lon="2.7646733"><ele>306.0</ele><time>2026-04-26T08:04:40.728Z</time></trkpt><trkpt lat="42.93313" lon="2.7646283"><ele>303.6</ele><time>2026-04-26T08:04:41.727Z</time></trkpt><trkpt lat="42.9330183" lon="2.76461"><ele>301.20000000000005</ele><time>2026-04-26T08:04:42.729Z</time></trkpt><trkpt lat="42.9329133" lon="2.76461"><ele>298.79999999999995</ele><time>2026-04-26T08:04:43.728Z</time></trkpt><trkpt lat="42.9328167" lon="2.764615"><ele>296.4</ele><time>2026-04-26T08:04:44.728Z</time></trkpt><trkpt lat="42.93273" lon="2.7646133"><ele>294.0</ele><time>2026-04-26T08:04:45.728Z</time></trkpt><trkpt lat="42.9326483" lon="2.7646"><ele>294.0</ele><time>2026-04-26T08:04:46.728Z</time></trkpt><trkpt lat="42.93257" lon="2.7645633"><ele>294.0</ele><time>2026-04-26T08:04:47.734Z</time></trkpt><trkpt lat="42.93249" lon="2.7645083"><ele>294.0</ele><time>2026-04-26T08:04:48.728Z</time></trkpt><trkpt lat="42.932445" lon="2.7644017"><ele>294.0</ele><time>2026-04-26T08:04:49.73Z</time></trkpt><trkpt lat="42.932405" lon="2.7642917"><ele>294.0</ele><time>2026-04-26T08:04:50.729Z</time></trkpt><trkpt lat="42.9323633" lon="2.76417"><ele>293.4</ele><time>2026-04-26T08:04:51.73Z</time></trkpt><trkpt lat="42.932325" lon="2.7640367"><ele>292.79999999999995</ele><time>2026-04-26T08:04:52.73Z</time></trkpt><trkpt lat="42.9322933" lon="2.7639"><ele>292.20000000000005</ele><time>2026-04-26T08:04:53.731Z</time></trkpt><trkpt lat="42.932275" lon="2.76377"><ele>291.6</ele><time>2026-04-26T08:04:54.731Z</time></trkpt><trkpt lat="42.9322667" lon="2.763645"><ele>291.0</ele><time>2026-04-26T08:04:55.731Z</time></trkpt><trkpt lat="42.9322467" lon="2.7635217"><ele>291.0</ele><time>2026-04-26T08:04:56.731Z</time></trkpt><trkpt lat="42.9322067" lon="2.7634033"><ele>291.0</ele><time>2026-04-26T08:04:57.732Z</time></trkpt><trkpt lat="42.9321433" lon="2.7633"><ele>291.0</ele><time>2026-04-26T08:04:58.727Z</time></trkpt><trkpt lat="42.932075" lon="2.7632017"><ele>291.0</ele><time>2026-04-26T08:04:59.731Z</time></trkpt><trkpt lat="42.932" lon="2.7630967"><ele>291.0</ele><time>2026-04-26T08:05:00.73Z</time></trkpt><trkpt lat="42.931935" lon="2.7629717"><ele>291.0</ele><time>2026-04-26T08:05:01.733Z</time></trkpt><trkpt lat="42.931875" lon="2.76284"><ele>291.0</ele><time>2026-04-26T08:05:02.73Z</time></trkpt><trkpt lat="42.9318267" lon="2.762705"><ele>291.0</ele><time>2026-04-26T08:05:03.729Z</time></trkpt><trkpt lat="42.931775" lon="2.76258"><ele>291.0</ele><time>2026-04-26T08:05:04.728Z</time></trkpt><trkpt lat="42.931715" lon="2.7624733"><ele>291.0</ele><time>2026-04-26T08:05:05.729Z</time></trkpt><trkpt lat="42.9316367" lon="2.762385"><ele>289.2</ele><time>2026-04-26T08:05:06.73Z</time></trkpt><trkpt lat="42.9315517" lon="2.7623"><ele>287.40000000000003</ele><time>2026-04-26T08:05:07.73Z</time></trkpt><trkpt lat="42.931465" lon="2.7622067"><ele>285.6</ele><time>2026-04-26T08:05:08.734Z</time></trkpt><trkpt lat="42.9313883" lon="2.7621017"><ele>283.8</ele><time>2026-04-26T08:05:09.727Z</time></trkpt><trkpt lat="42.9313367" lon="2.7619767"><ele>282.0</ele><time>2026-04-26T08:05:10.73Z</time></trkpt><trkpt lat="42.931295" lon="2.7618317"><ele>281.5</ele><time>2026-04-26T08:05:11.733Z</time></trkpt><trkpt lat="42.93126" lon="2.7616683"><ele>281.0</ele><time>2026-04-26T08:05:12.73Z</time></trkpt><trkpt lat="42.9312267" lon="2.76149"><ele>280.5</ele><time>2026-04-26T08:05:13.731Z</time></trkpt><trkpt lat="42.9311917" lon="2.761305"><ele>280.0</ele><time>2026-04-26T08:05:14.73Z</time></trkpt><trkpt lat="42.9311533" lon="2.7611267"><ele>280.75</ele><time>2026-04-26T08:05:15.729Z</time></trkpt><trkpt lat="42.9311183" lon="2.7609367"><ele>281.5</ele><time>2026-04-26T08:05:16.729Z</time></trkpt><trkpt lat="42.9310883" lon="2.7607433"><ele>282.25</ele><time>2026-04-26T08:05:17.729Z</time></trkpt><trkpt lat="42.93107" lon="2.7605633"><ele>283.0</ele><time>2026-04-26T08:05:18.731Z</time></trkpt><trkpt lat="42.9310633" lon="2.7603933"><ele>283.0</ele><time>2026-04-26T08:05:19.728Z</time></trkpt><trkpt lat="42.931075" lon="2.7602267"><ele>283.0</ele><time>2026-04-26T08:05:20.731Z</time></trkpt><trkpt lat="42.9311083" lon="2.76006"><ele>283.0</ele><time>2026-04-26T08:05:21.728Z</time></trkpt><trkpt lat="42.9311533" lon="2.7598967"><ele>283.0</ele><time>2026-04-26T08:05:22.731Z</time></trkpt><trkpt lat="42.9312" lon="2.7597483"><ele>284.75</ele><time>2026-04-26T08:05:23.729Z</time></trkpt><trkpt lat="42.9312333" lon="2.759595"><ele>286.5</ele><time>2026-04-26T08:05:24.73Z</time></trkpt><trkpt lat="42.9312383" lon="2.75943"><ele>288.25</ele><time>2026-04-26T08:05:25.729Z</time></trkpt><trkpt lat="42.93123" lon="2.75926"><ele>290.0</ele><time>2026-04-26T08:05:26.729Z</time></trkpt><trkpt lat="42.9312267" lon="2.7590783"><ele>292.25</ele><time>2026-04-26T08:05:27.729Z</time></trkpt><trkpt lat="42.93124" lon="2.7588917"><ele>294.5</ele><time>2026-04-26T08:05:28.728Z</time></trkpt><trkpt lat="42.9312683" lon="2.7587017"><ele>296.75</ele><time>2026-04-26T08:05:29.73Z</time></trkpt><trkpt lat="42.9313083" lon="2.7585067"><ele>299.0</ele><time>2026-04-26T08:05:30.73Z</time></trkpt><trkpt lat="42.931365" lon="2.7583233"><ele>299.0</ele><time>2026-04-26T08:05:31.729Z</time></trkpt><trkpt lat="42.93143" lon="2.7581417"><ele>299.0</ele><time>2026-04-26T08:05:32.728Z</time></trkpt><trkpt lat="42.93149" lon="2.75796"><ele>299.0</ele><time>2026-04-26T08:05:33.729Z</time></trkpt><trkpt lat="42.9315367" lon="2.757775"><ele>299.0</ele><time>2026-04-26T08:05:34.729Z</time></trkpt><trkpt lat="42.931565" lon="2.7575967"><ele>298.0</ele><time>2026-04-26T08:05:35.727Z</time></trkpt><trkpt lat="42.9315883" lon="2.7574317"><ele>297.0</ele><time>2026-04-26T08:05:36.73Z</time></trkpt><trkpt lat="42.9316133" lon="2.7572817"><ele>296.0</ele><time>2026-04-26T08:05:37.731Z</time></trkpt><trkpt lat="42.9316317" lon="2.757145"><ele>295.0</ele><time>2026-04-26T08:05:38.729Z</time></trkpt><trkpt lat="42.9316383" lon="2.7570317"><ele>294.0</ele><time>2026-04-26T08:05:39.729Z</time></trkpt><trkpt lat="42.9316283" lon="2.7569317"><ele>293.0</ele><time>2026-04-26T08:05:40.729Z</time></trkpt><trkpt lat="42.9315967" lon="2.7568483"><ele>292.0</ele><time>2026-04-26T08:05:41.73Z</time></trkpt><trkpt lat="42.9315133" lon="2.756805"><ele>291.0</ele><time>2026-04-26T08:05:42.731Z</time></trkpt><trkpt lat="42.9314067" lon="2.756775"><ele>290.0</ele><time>2026-04-26T08:05:43.73Z</time></trkpt><trkpt lat="42.931285" lon="2.75677"><ele>289.0</ele><time>2026-04-26T08:05:44.732Z</time></trkpt><trkpt lat="42.9311583" lon="2.7567817"><ele>289.0</ele><time>2026-04-26T08:05:45.727Z</time></trkpt><trkpt lat="42.93104" lon="2.7568167"><ele>289.0</ele><time>2026-04-26T08:05:46.728Z</time></trkpt><trkpt lat="42.9309333" lon="2.7568767"><ele>289.0</ele><time>2026-04-26T08:05:47.729Z</time></trkpt><trkpt lat="42.930835" lon="2.7569433"><ele>289.0</ele><time>2026-04-26T08:05:48.729Z</time></trkpt><trkpt lat="42.9307383" lon="2.756995"><ele>288.8333333333333</ele><time>2026-04-26T08:05:49.729Z</time></trkpt><trkpt lat="42.930645" lon="2.75702"><ele>288.66666666666663</ele><time>2026-04-26T08:05:50.731Z</time></trkpt><trkpt lat="42.9305633" lon="2.7569967"><ele>288.5</ele><time>2026-04-26T08:05:51.728Z</time></trkpt><trkpt lat="42.9304933" lon="2.7569483"><ele>288.3333333333333</ele><time>2026-04-26T08:05:52.728Z</time></trkpt><trkpt lat="42.93047" lon="2.756845"><ele>288.1666666666667</ele><time>2026-04-26T08:05:53.729Z</time></trkpt><trkpt lat="42.93047" lon="2.7567233"><ele>288.0</ele><time>2026-04-26T08:05:54.729Z</time></trkpt><trkpt lat="42.9305067" lon="2.7565833"><ele>288.0</ele><time>2026-04-26T08:05:55.728Z</time></trkpt><trkpt lat="42.9305667" lon="2.756435"><ele>288.0</ele><time>2026-04-26T08:05:56.728Z</time></trkpt><trkpt lat="42.93064" lon="2.7562917"><ele>288.0</ele><time>2026-04-26T08:05:57.727Z</time></trkpt><trkpt lat="42.9307183" lon="2.756165"><ele>288.0</ele><time>2026-04-26T08:05:58.727Z</time></trkpt><trkpt lat="42.9307967" lon="2.7560517"><ele>286.8</ele><time>2026-04-26T08:05:59.728Z</time></trkpt><trkpt lat="42.9308817" lon="2.75595"><ele>285.6</ele><time>2026-04-26T08:06:00.735Z</time></trkpt><trkpt lat="42.9309733" lon="2.75586"><ele>284.4</ele><time>2026-04-26T08:06:01.729Z</time></trkpt><trkpt lat="42.9310833" lon="2.7558267"><ele>283.2</ele><time>2026-04-26T08:06:02.73Z</time></trkpt><trkpt lat="42.9311817" lon="2.7558117"><ele>282.0</ele><time>2026-04-26T08:06:03.735Z</time></trkpt><trkpt lat="42.93127" lon="2.7557983"><ele>282.0</ele><time>2026-04-26T08:06:04.731Z</time></trkpt><trkpt lat="42.93135" lon="2.7557883"><ele>282.0</ele><time>2026-04-26T08:06:05.735Z</time></trkpt><trkpt lat="42.93142" lon="2.7557567"><ele>282.0</ele><time>2026-04-26T08:06:06.732Z</time></trkpt><trkpt lat="42.93147" lon="2.755695"><ele>282.0</ele><time>2026-04-26T08:06:07.731Z</time></trkpt><trkpt lat="42.9315067" lon="2.7555967"><ele>282.0</ele><time>2026-04-26T08:06:08.729Z</time></trkpt><trkpt lat="42.9315533" lon="2.7554867"><ele>282.0</ele><time>2026-04-26T08:06:09.729Z</time></trkpt><trkpt lat="42.9316233" lon="2.7553783"><ele>282.0</ele><time>2026-04-26T08:06:10.729Z</time></trkpt><trkpt lat="42.9317117" lon="2.7552883"><ele>282.0</ele><time>2026-04-26T08:06:11.729Z</time></trkpt><trkpt lat="42.9318083" lon="2.7552117"><ele>282.0</ele><time>2026-04-26T08:06:12.732Z</time></trkpt><trkpt lat="42.9319017" lon="2.7551567"><ele>282.0</ele><time>2026-04-26T08:06:13.729Z</time></trkpt><trkpt lat="42.93199" lon="2.7551183"><ele>282.0</ele><time>2026-04-26T08:06:14.727Z</time></trkpt><trkpt lat="42.932075" lon="2.755105"><ele>279.8333333333333</ele><time>2026-04-26T08:06:15.731Z</time></trkpt><trkpt lat="42.9321467" lon="2.7551517"><ele>277.6666666666667</ele><time>2026-04-26T08:06:16.729Z</time></trkpt><trkpt lat="42.9321983" lon="2.7552333"><ele>275.5</ele><time>2026-04-26T08:06:17.731Z</time></trkpt><trkpt lat="42.9322317" lon="2.7553233"><ele>273.33333333333337</ele><time>2026-04-26T08:06:18.728Z</time></trkpt><trkpt lat="42.9322517" lon="2.7554167"><ele>271.1666666666667</ele><time>2026-04-26T08:06:19.727Z</time></trkpt><trkpt lat="42.932295" lon="2.7555467"><ele>269.0</ele><time>2026-04-26T08:06:21.728Z</time></trkpt><trkpt lat="42.9323733" lon="2.7554733"><ele>269.0</ele><time>2026-04-26T08:06:24.729Z</time></trkpt><trkpt lat="42.9323817" lon="2.75537"><ele>269.0</ele><time>2026-04-26T08:06:25.727Z</time></trkpt><trkpt lat="42.932375" lon="2.75523"><ele>269.0</ele><time>2026-04-26T08:06:26.729Z</time></trkpt><trkpt lat="42.9323517" lon="2.7550917"><ele>269.0</ele><time>2026-04-26T08:06:27.729Z</time></trkpt><trkpt lat="42.9323083" lon="2.7549717"><ele>269.0</ele><time>2026-04-26T08:06:28.728Z</time></trkpt><trkpt lat="42.93224" lon="2.7548667"><ele>267.4</ele><time>2026-04-26T08:06:29.729Z</time></trkpt><trkpt lat="42.932155" lon="2.754785"><ele>265.79999999999995</ele><time>2026-04-26T08:06:30.732Z</time></trkpt><trkpt lat="42.9320617" lon="2.7547133"><ele>264.20000000000005</ele><time>2026-04-26T08:06:31.73Z</time></trkpt><trkpt lat="42.9319667" lon="2.7546567"><ele>262.6</ele><time>2026-04-26T08:06:32.731Z</time></trkpt><trkpt lat="42.93187" lon="2.75462"><ele>261.0</ele><time>2026-04-26T08:06:33.73Z</time></trkpt><trkpt lat="42.9317683" lon="2.754595"><ele>262.6</ele><time>2026-04-26T08:06:34.729Z</time></trkpt><trkpt lat="42.931655" lon="2.754595"><ele>264.20000000000005</ele><time>2026-04-26T08:06:35.73Z</time></trkpt><trkpt lat="42.9315517" lon="2.7546183"><ele>265.79999999999995</ele><time>2026-04-26T08:06:36.731Z</time></trkpt><trkpt lat="42.9314483" lon="2.7546633"><ele>267.4</ele><time>2026-04-26T08:06:37.731Z</time></trkpt><trkpt lat="42.9313633" lon="2.75472"><ele>269.0</ele><time>2026-04-26T08:06:38.729Z</time></trkpt><trkpt lat="42.9312933" lon="2.754775"><ele>269.0</ele><time>2026-04-26T08:06:39.731Z</time></trkpt><trkpt lat="42.931235" lon="2.7548083"><ele>269.0</ele><time>2026-04-26T08:06:40.73Z</time></trkpt><trkpt lat="42.9311617" lon="2.754785"><ele>269.0</ele><time>2026-04-26T08:06:42.729Z</time></trkpt><trkpt lat="42.9311883" lon="2.7546717"><ele>269.0</ele><time>2026-04-26T08:06:44.731Z</time></trkpt><trkpt lat="42.93124" lon="2.754595"><ele>269.0</ele><time>2026-04-26T08:06:45.728Z</time></trkpt><trkpt lat="42.9312833" lon="2.7545267"><ele>269.0</ele><time>2026-04-26T08:06:46.728Z</time></trkpt><trkpt lat="42.931325" lon="2.7544617"><ele>269.0</ele><time>2026-04-26T08:06:47.727Z</time></trkpt><trkpt lat="42.931375" lon="2.754335"><ele>267.0</ele><time>2026-04-26T08:06:49.728Z</time></trkpt><trkpt lat="42.9314" lon="2.7542533"><ele>265.0</ele><time>2026-04-26T08:06:51.729Z</time></trkpt><trkpt lat="42.93142" lon="2.7541667"><ele>263.0</ele><time>2026-04-26T08:06:53.728Z</time></trkpt><trkpt lat="42.9314883" lon="2.7540417"><ele>261.0</ele><time>2026-04-26T08:06:55.816Z</time></trkpt><trkpt lat="42.9315417" lon="2.75398"><ele>259.0</ele><time>2026-04-26T08:06:56.731Z</time></trkpt><trkpt lat="42.9316067" lon="2.753905"><ele>257.0</ele><time>2026-04-26T08:06:57.73Z</time></trkpt><trkpt lat="42.931665" lon="2.7538233"><ele>257.0</ele><time>2026-04-26T08:06:58.728Z</time></trkpt><trkpt lat="42.9317317" lon="2.7537533"><ele>257.0</ele><time>2026-04-26T08:06:59.73Z</time></trkpt><trkpt lat="42.9318033" lon="2.7536967"><ele>257.0</ele><time>2026-04-26T08:07:00.73Z</time></trkpt><trkpt lat="42.93188" lon="2.75365"><ele>257.0</ele><time>2026-04-26T08:07:01.729Z</time></trkpt><trkpt lat="42.9319617" lon="2.7536133"><ele>257.0</ele><time>2026-04-26T08:07:02.728Z</time></trkpt><trkpt lat="42.9320583" lon="2.7536067"><ele>257.0</ele><time>2026-04-26T08:07:03.729Z</time></trkpt><trkpt lat="42.9321683" lon="2.7536133"><ele>257.0</ele><time>2026-04-26T08:07:04.729Z</time></trkpt><trkpt lat="42.9322733" lon="2.7536217"><ele>257.0</ele><time>2026-04-26T08:07:05.729Z</time></trkpt><trkpt lat="42.9323633" lon="2.75362"><ele>257.0</ele><time>2026-04-26T08:07:06.733Z</time></trkpt><trkpt lat="42.9324467" lon="2.753605"><ele>257.0</ele><time>2026-04-26T08:07:07.731Z</time></trkpt><trkpt lat="42.932525" lon="2.7535767"><ele>257.0</ele><time>2026-04-26T08:07:08.729Z</time></trkpt><trkpt lat="42.9325933" lon="2.75351"><ele>257.0</ele><time>2026-04-26T08:07:09.729Z</time></trkpt><trkpt lat="42.93266" lon="2.7534117"><ele>258.8</ele><time>2026-04-26T08:07:10.729Z</time></trkpt><trkpt lat="42.932735" lon="2.7533033"><ele>260.6</ele><time>2026-04-26T08:07:11.728Z</time></trkpt><trkpt lat="42.932815" lon="2.7531967"><ele>262.40000000000003</ele><time>2026-04-26T08:07:12.728Z</time></trkpt><trkpt lat="42.932895" lon="2.7530883"><ele>264.2</ele><time>2026-04-26T08:07:13.729Z</time></trkpt><trkpt lat="42.9329733" lon="2.7529783"><ele>266.0</ele><time>2026-04-26T08:07:14.728Z</time></trkpt><trkpt lat="42.9330567" lon="2.7528633"><ele>266.0</ele><time>2026-04-26T08:07:15.729Z</time></trkpt><trkpt lat="42.9331317" lon="2.7527417"><ele>266.0</ele><time>2026-04-26T08:07:16.727Z</time></trkpt><trkpt lat="42.9331883" lon="2.752615"><ele>266.0</ele><time>2026-04-26T08:07:17.729Z</time></trkpt><trkpt lat="42.9332333" lon="2.7524717"><ele>266.0</ele><time>2026-04-26T08:07:18.728Z</time></trkpt><trkpt lat="42.933275" lon="2.7523083"><ele>266.75</ele><time>2026-04-26T08:07:19.73Z</time></trkpt><trkpt lat="42.9333167" lon="2.7521233"><ele>267.5</ele><time>2026-04-26T08:07:20.729Z</time></trkpt><trkpt lat="42.9333633" lon="2.7519267"><ele>268.25</ele><time>2026-04-26T08:07:21.728Z</time></trkpt><trkpt lat="42.9334167" lon="2.75173"><ele>269.0</ele><time>2026-04-26T08:07:22.728Z</time></trkpt><trkpt lat="42.9334667" lon="2.7515267"><ele>269.25</ele><time>2026-04-26T08:07:23.728Z</time></trkpt><trkpt lat="42.933515" lon="2.7513317"><ele>269.5</ele><time>2026-04-26T08:07:24.728Z</time></trkpt><trkpt lat="42.93356" lon="2.75115"><ele>269.75</ele><time>2026-04-26T08:07:25.73Z</time></trkpt><trkpt lat="42.9336" lon="2.7509933"><ele>270.0</ele><time>2026-04-26T08:07:26.728Z</time></trkpt><trkpt lat="42.9336367" lon="2.7508517"><ele>270.0</ele><time>2026-04-26T08:07:27.732Z</time></trkpt><trkpt lat="42.93368" lon="2.750725"><ele>270.0</ele><time>2026-04-26T08:07:28.729Z</time></trkpt><trkpt lat="42.93374" lon="2.7506167"><ele>270.0</ele><time>2026-04-26T08:07:29.729Z</time></trkpt><trkpt lat="42.933805" lon="2.7505183"><ele>270.0</ele><time>2026-04-26T08:07:30.728Z</time></trkpt><trkpt lat="42.9338683" lon="2.75042"><ele>270.0</ele><time>2026-04-26T08:07:31.732Z</time></trkpt><trkpt lat="42.9339317" lon="2.7503183"><ele>270.0</ele><time>2026-04-26T08:07:32.73Z</time></trkpt><trkpt lat="42.933985" lon="2.75021"><ele>270.0</ele><time>2026-04-26T08:07:33.729Z</time></trkpt><trkpt lat="42.934025" lon="2.750095"><ele>270.0</ele><time>2026-04-26T08:07:34.73Z</time></trkpt><trkpt lat="42.9340567" lon="2.7499767"><ele>270.0</ele><time>2026-04-26T08:07:35.728Z</time></trkpt><trkpt lat="42.9340933" lon="2.74986"><ele>270.0</ele><time>2026-04-26T08:07:36.731Z</time></trkpt><trkpt lat="42.93414" lon="2.74975"><ele>271.0</ele><time>2026-04-26T08:07:37.728Z</time></trkpt><trkpt lat="42.9341917" lon="2.7496533"><ele>272.0</ele><time>2026-04-26T08:07:38.733Z</time></trkpt><trkpt lat="42.93425" lon="2.74958"><ele>273.0</ele><time>2026-04-26T08:07:39.729Z</time></trkpt><trkpt lat="42.9343167" lon="2.7495367"><ele>274.0</ele><time>2026-04-26T08:07:40.727Z</time></trkpt><trkpt lat="42.93438" lon="2.749515"><ele>275.0</ele><time>2026-04-26T08:07:41.729Z</time></trkpt><trkpt lat="42.93444" lon="2.7494883"><ele>276.0</ele><time>2026-04-26T08:07:42.732Z</time></trkpt><trkpt lat="42.9344967" lon="2.7494333"><ele>277.0</ele><time>2026-04-26T08:07:43.728Z</time></trkpt><trkpt lat="42.9345383" lon="2.7493533"><ele>278.3333333333333</ele><time>2026-04-26T08:07:44.728Z</time></trkpt><trkpt lat="42.934565" lon="2.749255"><ele>279.66666666666663</ele><time>2026-04-26T08:07:45.729Z</time></trkpt><trkpt lat="42.9345717" lon="2.7491533"><ele>281.0</ele><time>2026-04-26T08:07:46.729Z</time></trkpt><trkpt lat="42.9345567" lon="2.7490483"><ele>282.3333333333333</ele><time>2026-04-26T08:07:47.728Z</time></trkpt><trkpt lat="42.9345383" lon="2.7489183"><ele>283.6666666666667</ele><time>2026-04-26T08:07:48.728Z</time></trkpt><trkpt lat="42.934525" lon="2.748785"><ele>285.0</ele><time>2026-04-26T08:07:49.729Z</time></trkpt><trkpt lat="42.9345117" lon="2.7486583"><ele>286.5</ele><time>2026-04-26T08:07:50.73Z</time></trkpt><trkpt lat="42.934495" lon="2.7485333"><ele>288.0</ele><time>2026-04-26T08:07:51.729Z</time></trkpt><trkpt lat="42.9344883" lon="2.7484217"><ele>289.5</ele><time>2026-04-26T08:07:52.73Z</time></trkpt><trkpt lat="42.93448" lon="2.748255"><ele>291.0</ele><time>2026-04-26T08:07:54.73Z</time></trkpt><trkpt lat="42.934485" lon="2.74816"><ele>292.5</ele><time>2026-04-26T08:07:55.731Z</time></trkpt><trkpt lat="42.9344983" lon="2.748065"><ele>294.0</ele><time>2026-04-26T08:07:56.728Z</time></trkpt><trkpt lat="42.9345283" lon="2.7479583"><ele>294.0</ele><time>2026-04-26T08:07:57.73Z</time></trkpt><trkpt lat="42.9345667" lon="2.747855"><ele>294.0</ele><time>2026-04-26T08:07:58.729Z</time></trkpt><trkpt lat="42.9346033" lon="2.7477567"><ele>294.0</ele><time>2026-04-26T08:07:59.728Z</time></trkpt><trkpt lat="42.93463" lon="2.747665"><ele>294.0</ele><time>2026-04-26T08:08:00.729Z</time></trkpt><trkpt lat="42.93464" lon="2.7475717"><ele>294.0</ele><time>2026-04-26T08:08:01.729Z</time></trkpt><trkpt lat="42.93465" lon="2.7474833"><ele>294.0</ele><time>2026-04-26T08:08:02.729Z</time></trkpt><trkpt lat="42.934675" lon="2.7473917"><ele>294.0</ele><time>2026-04-26T08:08:03.729Z</time></trkpt><trkpt lat="42.934725" lon="2.7473017"><ele>294.4</ele><time>2026-04-26T08:08:04.729Z</time></trkpt><trkpt lat="42.9347967" lon="2.7472167"><ele>294.79999999999995</ele><time>2026-04-26T08:08:05.73Z</time></trkpt><trkpt lat="42.9348783" lon="2.74715"><ele>295.20000000000005</ele><time>2026-04-26T08:08:06.73Z</time></trkpt><trkpt lat="42.934955" lon="2.7470933"><ele>295.6</ele><time>2026-04-26T08:08:07.729Z</time></trkpt><trkpt lat="42.9350217" lon="2.747045"><ele>296.0</ele><time>2026-04-26T08:08:08.731Z</time></trkpt><trkpt lat="42.9351233" lon="2.7470417"><ele>296.0</ele><time>2026-04-26T08:08:10.73Z</time></trkpt><trkpt lat="42.9352483" lon="2.7470783"><ele>296.0</ele><time>2026-04-26T08:08:12.73Z</time></trkpt><trkpt lat="42.93533" lon="2.7470783"><ele>296.0</ele><time>2026-04-26T08:08:13.729Z</time></trkpt><trkpt lat="42.9354133" lon="2.7470683"><ele>296.0</ele><time>2026-04-26T08:08:14.73Z</time></trkpt><trkpt lat="42.9354917" lon="2.7470533"><ele>296.0</ele><time>2026-04-26T08:08:15.727Z</time></trkpt><trkpt lat="42.9355667" lon="2.7470283"><ele>296.0</ele><time>2026-04-26T08:08:16.729Z</time></trkpt><trkpt lat="42.935645" lon="2.7469833"><ele>296.0</ele><time>2026-04-26T08:08:17.731Z</time></trkpt><trkpt lat="42.9357267" lon="2.746915"><ele>296.0</ele><time>2026-04-26T08:08:18.728Z</time></trkpt><trkpt lat="42.9358083" lon="2.7468267"><ele>296.0</ele><time>2026-04-26T08:08:19.728Z</time></trkpt><trkpt lat="42.935875" lon="2.7467233"><ele>296.0</ele><time>2026-04-26T08:08:20.728Z</time></trkpt><trkpt lat="42.9359333" lon="2.7465983"><ele>297.2</ele><time>2026-04-26T08:08:21.73Z</time></trkpt><trkpt lat="42.9359883" lon="2.7464633"><ele>298.40000000000003</ele><time>2026-04-26T08:08:22.728Z</time></trkpt><trkpt lat="42.9360317" lon="2.7463317"><ele>299.6</ele><time>2026-04-26T08:08:23.728Z</time></trkpt><trkpt lat="42.9360883" lon="2.7462133"><ele>300.8</ele><time>2026-04-26T08:08:24.728Z</time></trkpt><trkpt lat="42.936135" lon="2.746105"><ele>302.0</ele><time>2026-04-26T08:08:25.732Z</time></trkpt><trkpt lat="42.93618" lon="2.74601"><ele>303.83333333333337</ele><time>2026-04-26T08:08:26.729Z</time></trkpt><trkpt lat="42.93621" lon="2.7459033"><ele>305.6666666666667</ele><time>2026-04-26T08:08:27.73Z</time></trkpt><trkpt lat="42.936235" lon="2.745785"><ele>307.5</ele><time>2026-04-26T08:08:28.728Z</time></trkpt><trkpt lat="42.936245" lon="2.7456733"><ele>309.3333333333333</ele><time>2026-04-26T08:08:29.729Z</time></trkpt><trkpt lat="42.9362417" lon="2.74556"><ele>311.16666666666663</ele><time>2026-04-26T08:08:30.729Z</time></trkpt><trkpt lat="42.93622" lon="2.745465"><ele>313.0</ele><time>2026-04-26T08:08:31.735Z</time></trkpt><trkpt lat="42.9361683" lon="2.7453983"><ele>313.0</ele><time>2026-04-26T08:08:32.73Z</time></trkpt><trkpt lat="42.9361067" lon="2.7453417"><ele>313.0</ele><time>2026-04-26T08:08:33.729Z</time></trkpt><trkpt lat="42.9360533" lon="2.7452683"><ele>313.0</ele><time>2026-04-26T08:08:34.729Z</time></trkpt><trkpt lat="42.9360283" lon="2.7451767"><ele>313.0</ele><time>2026-04-26T08:08:35.731Z</time></trkpt><trkpt lat="42.9360333" lon="2.7450883"><ele>313.0</ele><time>2026-04-26T08:08:36.728Z</time></trkpt><trkpt lat="42.936045" lon="2.7450017"><ele>313.0</ele><time>2026-04-26T08:08:37.73Z</time></trkpt><trkpt lat="42.9361233" lon="2.74488"><ele>313.5</ele><time>2026-04-26T08:08:39.73Z</time></trkpt><trkpt lat="42.9361883" lon="2.74482"><ele>314.0</ele><time>2026-04-26T08:08:40.728Z</time></trkpt><trkpt lat="42.936255" lon="2.7447417"><ele>314.5</ele><time>2026-04-26T08:08:41.729Z</time></trkpt><trkpt lat="42.936315" lon="2.744655"><ele>315.0</ele><time>2026-04-26T08:08:42.73Z</time></trkpt><trkpt lat="42.9363633" lon="2.7445583"><ele>315.5</ele><time>2026-04-26T08:08:43.729Z</time></trkpt><trkpt lat="42.936395" lon="2.7444483"><ele>316.0</ele><time>2026-04-26T08:08:44.728Z</time></trkpt><trkpt lat="42.9364117" lon="2.7443283"><ele>316.2</ele><time>2026-04-26T08:08:45.728Z</time></trkpt><trkpt lat="42.9364133" lon="2.744215"><ele>316.40000000000003</ele><time>2026-04-26T08:08:46.728Z</time></trkpt><trkpt lat="42.9363967" lon="2.744115"><ele>316.6</ele><time>2026-04-26T08:08:47.734Z</time></trkpt><trkpt lat="42.9363517" lon="2.7440233"><ele>316.8</ele><time>2026-04-26T08:08:48.728Z</time></trkpt><trkpt lat="42.9362767" lon="2.7439367"><ele>317.0</ele><time>2026-04-26T08:08:49.729Z</time></trkpt><trkpt lat="42.9361733" lon="2.74387"><ele>317.0</ele><time>2026-04-26T08:08:50.728Z</time></trkpt><trkpt lat="42.9360667" lon="2.7438133"><ele>317.0</ele><time>2026-04-26T08:08:51.729Z</time></trkpt><trkpt lat="42.9359633" lon="2.74377"><ele>317.0</ele><time>2026-04-26T08:08:52.729Z</time></trkpt><trkpt lat="42.9358833" lon="2.7437317"><ele>317.0</ele><time>2026-04-26T08:08:53.734Z</time></trkpt><trkpt lat="42.9358183" lon="2.7436933"><ele>317.0</ele><time>2026-04-26T08:08:54.728Z</time></trkpt><trkpt lat="42.9357817" lon="2.7435867"><ele>316.6</ele><time>2026-04-26T08:08:56.73Z</time></trkpt><trkpt lat="42.93583" lon="2.7434583"><ele>316.2</ele><time>2026-04-26T08:08:58.729Z</time></trkpt><trkpt lat="42.935875" lon="2.743365"><ele>315.8</ele><time>2026-04-26T08:08:59.729Z</time></trkpt><trkpt lat="42.9359317" lon="2.7432383"><ele>315.4</ele><time>2026-04-26T08:09:00.734Z</time></trkpt><trkpt lat="42.935995" lon="2.7430867"><ele>315.0</ele><time>2026-04-26T08:09:01.732Z</time></trkpt><trkpt lat="42.936055" lon="2.742935"><ele>315.0</ele><time>2026-04-26T08:09:02.733Z</time></trkpt><trkpt lat="42.9361167" lon="2.7427783"><ele>315.0</ele><time>2026-04-26T08:09:03.736Z</time></trkpt><trkpt lat="42.9361783" lon="2.7426317"><ele>315.0</ele><time>2026-04-26T08:09:04.728Z</time></trkpt><trkpt lat="42.936235" lon="2.7425"><ele>315.0</ele><time>2026-04-26T08:09:05.729Z</time></trkpt><trkpt lat="42.93631" lon="2.742375"><ele>316.4</ele><time>2026-04-26T08:09:06.728Z</time></trkpt><trkpt lat="42.93639" lon="2.7422483"><ele>317.8</ele><time>2026-04-26T08:09:07.731Z</time></trkpt><trkpt lat="42.9364617" lon="2.742135"><ele>319.20000000000005</ele><time>2026-04-26T08:09:08.73Z</time></trkpt><trkpt lat="42.936525" lon="2.742025"><ele>320.6</ele><time>2026-04-26T08:09:09.729Z</time></trkpt><trkpt lat="42.936585" lon="2.7419133"><ele>322.0</ele><time>2026-04-26T08:09:10.728Z</time></trkpt><trkpt lat="42.9366383" lon="2.7418067"><ele>323.5</ele><time>2026-04-26T08:09:11.732Z</time></trkpt><trkpt lat="42.936675" lon="2.7416933"><ele>325.0</ele><time>2026-04-26T08:09:12.729Z</time></trkpt><trkpt lat="42.9366933" lon="2.741575"><ele>326.5</ele><time>2026-04-26T08:09:13.73Z</time></trkpt><trkpt lat="42.9366933" lon="2.741455"><ele>328.0</ele><time>2026-04-26T08:09:14.731Z</time></trkpt><trkpt lat="42.9366817" lon="2.74134"><ele>329.5</ele><time>2026-04-26T08:09:15.728Z</time></trkpt><trkpt lat="42.9366733" lon="2.7412467"><ele>331.0</ele><time>2026-04-26T08:09:16.728Z</time></trkpt><trkpt lat="42.9367183" lon="2.7410833"><ele>330.66666666666663</ele><time>2026-04-26T08:09:18.73Z</time></trkpt><trkpt lat="42.9367783" lon="2.741"><ele>330.3333333333333</ele><time>2026-04-26T08:09:19.73Z</time></trkpt><trkpt lat="42.9368383" lon="2.74092"><ele>330.0</ele><time>2026-04-26T08:09:20.73Z</time></trkpt><trkpt lat="42.9368933" lon="2.7408433"><ele>329.6666666666667</ele><time>2026-04-26T08:09:21.729Z</time></trkpt><trkpt lat="42.93693" lon="2.740755"><ele>329.33333333333337</ele><time>2026-04-26T08:09:22.729Z</time></trkpt><trkpt lat="42.936955" lon="2.7406417"><ele>329.0</ele><time>2026-04-26T08:09:23.728Z</time></trkpt><trkpt lat="42.9369833" lon="2.740515"><ele>329.0</ele><time>2026-04-26T08:09:24.728Z</time></trkpt><trkpt lat="42.9370167" lon="2.740385"><ele>329.0</ele><time>2026-04-26T08:09:25.728Z</time></trkpt><trkpt lat="42.937055" lon="2.74024"><ele>329.0</ele><time>2026-04-26T08:09:26.73Z</time></trkpt><trkpt lat="42.9370983" lon="2.74009"><ele>329.0</ele><time>2026-04-26T08:09:27.729Z</time></trkpt><trkpt lat="42.937145" lon="2.7399533"><ele>329.0</ele><time>2026-04-26T08:09:28.728Z</time></trkpt><trkpt lat="42.9372017" lon="2.7398317"><ele>329.33333333333337</ele><time>2026-04-26T08:09:29.73Z</time></trkpt><trkpt lat="42.9372717" lon="2.7397217"><ele>329.6666666666667</ele><time>2026-04-26T08:09:30.73Z</time></trkpt><trkpt lat="42.9373433" lon="2.739625"><ele>330.0</ele><time>2026-04-26T08:09:31.727Z</time></trkpt><trkpt lat="42.9374067" lon="2.7395483"><ele>330.3333333333333</ele><time>2026-04-26T08:09:32.728Z</time></trkpt><trkpt lat="42.9374567" lon="2.7394683"><ele>330.66666666666663</ele><time>2026-04-26T08:09:33.729Z</time></trkpt><trkpt lat="42.9374917" lon="2.739385"><ele>331.0</ele><time>2026-04-26T08:09:34.729Z</time></trkpt><trkpt lat="42.937505" lon="2.7392933"><ele>331.20000000000005</ele><time>2026-04-26T08:09:35.73Z</time></trkpt><trkpt lat="42.937495" lon="2.73918"><ele>331.40000000000003</ele><time>2026-04-26T08:09:36.729Z</time></trkpt><trkpt lat="42.93747" lon="2.7390517"><ele>331.6</ele><time>2026-04-26T08:09:37.73Z</time></trkpt><trkpt lat="42.9374267" lon="2.7389"><ele>331.8</ele><time>2026-04-26T08:09:38.729Z</time></trkpt><trkpt lat="42.9373767" lon="2.738745"><ele>332.0</ele><time>2026-04-26T08:09:39.729Z</time></trkpt><trkpt lat="42.9373267" lon="2.73861"><ele>333.0</ele><time>2026-04-26T08:09:40.728Z</time></trkpt><trkpt lat="42.93727" lon="2.7385067"><ele>334.0</ele><time>2026-04-26T08:09:41.73Z</time></trkpt><trkpt lat="42.9371867" lon="2.7384267"><ele>335.0</ele><time>2026-04-26T08:09:42.728Z</time></trkpt><trkpt lat="42.937085" lon="2.7383683"><ele>336.0</ele><time>2026-04-26T08:09:43.729Z</time></trkpt><trkpt lat="42.936975" lon="2.73832"><ele>337.0</ele><time>2026-04-26T08:09:44.728Z</time></trkpt><trkpt lat="42.9368667" lon="2.7382783"><ele>337.0</ele><time>2026-04-26T08:09:45.734Z</time></trkpt><trkpt lat="42.9367617" lon="2.738235"><ele>337.0</ele><time>2026-04-26T08:09:46.731Z</time></trkpt><trkpt lat="42.9366583" lon="2.7381883"><ele>337.0</ele><time>2026-04-26T08:09:47.73Z</time></trkpt><trkpt lat="42.9365567" lon="2.73813"><ele>337.0</ele><time>2026-04-26T08:09:48.73Z</time></trkpt><trkpt lat="42.9364667" lon="2.7380567"><ele>337.0</ele><time>2026-04-26T08:09:49.73Z</time></trkpt><trkpt lat="42.936375" lon="2.7379683"><ele>338.0</ele><time>2026-04-26T08:09:50.728Z</time></trkpt><trkpt lat="42.9362833" lon="2.737865"><ele>339.0</ele><time>2026-04-26T08:09:51.73Z</time></trkpt><trkpt lat="42.9361983" lon="2.7377767"><ele>340.0</ele><time>2026-04-26T08:09:52.728Z</time></trkpt><trkpt lat="42.9361167" lon="2.737705"><ele>341.0</ele><time>2026-04-26T08:09:53.733Z</time></trkpt><trkpt lat="42.9360567" lon="2.737635"><ele>342.0</ele><time>2026-04-26T08:09:54.731Z</time></trkpt><trkpt lat="42.936" lon="2.7375533"><ele>342.6666666666667</ele><time>2026-04-26T08:09:55.727Z</time></trkpt><trkpt lat="42.9359467" lon="2.7374517"><ele>343.3333333333333</ele><time>2026-04-26T08:09:56.728Z</time></trkpt><trkpt lat="42.9359033" lon="2.7373367"><ele>344.0</ele><time>2026-04-26T08:09:57.727Z</time></trkpt><trkpt lat="42.9358683" lon="2.7372233"><ele>344.66666666666663</ele><time>2026-04-26T08:09:58.728Z</time></trkpt><trkpt lat="42.93584" lon="2.7371183"><ele>345.3333333333333</ele><time>2026-04-26T08:09:59.73Z</time></trkpt><trkpt lat="42.9358233" lon="2.73702"><ele>346.0</ele><time>2026-04-26T08:10:00.729Z</time></trkpt><trkpt lat="42.9358167" lon="2.7369183"><ele>347.0</ele><time>2026-04-26T08:10:01.73Z</time></trkpt><trkpt lat="42.9358183" lon="2.7368067"><ele>348.0</ele><time>2026-04-26T08:10:02.731Z</time></trkpt><trkpt lat="42.9358183" lon="2.73668"><ele>349.0</ele><time>2026-04-26T08:10:03.729Z</time></trkpt><trkpt lat="42.9358083" lon="2.7365317"><ele>350.0</ele><time>2026-04-26T08:10:04.728Z</time></trkpt><trkpt lat="42.9357983" lon="2.7363933"><ele>351.0</ele><time>2026-04-26T08:10:05.729Z</time></trkpt><trkpt lat="42.9357983" lon="2.73627"><ele>351.0</ele><time>2026-04-26T08:10:06.729Z</time></trkpt><trkpt lat="42.9358033" lon="2.7361617"><ele>351.0</ele><time>2026-04-26T08:10:07.729Z</time></trkpt><trkpt lat="42.9358033" lon="2.7360667"><ele>351.0</ele><time>2026-04-26T08:10:08.729Z</time></trkpt><trkpt lat="42.9358067" lon="2.7359767"><ele>351.0</ele><time>2026-04-26T08:10:09.728Z</time></trkpt><trkpt lat="42.9358183" lon="2.7358817"><ele>351.0</ele><time>2026-04-26T08:10:10.727Z</time></trkpt><trkpt lat="42.9358483" lon="2.7357467"><ele>351.0</ele><time>2026-04-26T08:10:12.727Z</time></trkpt><trkpt lat="42.9358883" lon="2.7356717"><ele>355.0</ele><time>2026-04-26T08:10:14.729Z</time></trkpt><trkpt lat="42.9359917" lon="2.7356867"><ele>359.0</ele><time>2026-04-26T08:10:16.729Z</time></trkpt><trkpt lat="42.9360533" lon="2.73572"><ele>363.0</ele><time>2026-04-26T08:10:17.728Z</time></trkpt><trkpt lat="42.9361217" lon="2.7357667"><ele>367.0</ele><time>2026-04-26T08:10:18.728Z</time></trkpt><trkpt lat="42.9361867" lon="2.735825"><ele>371.0</ele><time>2026-04-26T08:10:19.727Z</time></trkpt><trkpt lat="42.936245" lon="2.7358883"><ele>375.0</ele><time>2026-04-26T08:10:20.73Z</time></trkpt><trkpt lat="42.9362983" lon="2.7359417"><ele>375.0</ele><time>2026-04-26T08:10:21.728Z</time></trkpt><trkpt lat="42.9363683" lon="2.7359367"><ele>375.0</ele><time>2026-04-26T08:10:23.73Z</time></trkpt><trkpt lat="42.936425" lon="2.7358"><ele>375.0</ele><time>2026-04-26T08:10:25.73Z</time></trkpt><trkpt lat="42.9364533" lon="2.7357033"><ele>375.0</ele><time>2026-04-26T08:10:26.728Z</time></trkpt><trkpt lat="42.9364867" lon="2.7356017"><ele>375.0</ele><time>2026-04-26T08:10:27.729Z</time></trkpt><trkpt lat="42.9365233" lon="2.7355"><ele>375.0</ele><time>2026-04-26T08:10:28.728Z</time></trkpt><trkpt lat="42.9365667" lon="2.7353917"><ele>375.0</ele><time>2026-04-26T08:10:29.728Z</time></trkpt><trkpt lat="42.9366217" lon="2.73528"><ele>375.0</ele><time>2026-04-26T08:10:30.727Z</time></trkpt><trkpt lat="42.9366867" lon="2.7351583"><ele>375.0</ele><time>2026-04-26T08:10:31.727Z</time></trkpt><trkpt lat="42.93675" lon="2.7350317"><ele>375.0</ele><time>2026-04-26T08:10:32.729Z</time></trkpt><trkpt lat="42.936805" lon="2.73491"><ele>375.0</ele><time>2026-04-26T08:10:33.733Z</time></trkpt><trkpt lat="42.9368483" lon="2.734785"><ele>376.4</ele><time>2026-04-26T08:10:34.728Z</time></trkpt><trkpt lat="42.9368733" lon="2.7346583"><ele>377.8</ele><time>2026-04-26T08:10:35.73Z</time></trkpt><trkpt lat="42.9368783" lon="2.7345383"><ele>379.20000000000005</ele><time>2026-04-26T08:10:36.731Z</time></trkpt><trkpt lat="42.9368683" lon="2.7344133"><ele>380.6</ele><time>2026-04-26T08:10:37.727Z</time></trkpt><trkpt lat="42.93686" lon="2.7342867"><ele>382.0</ele><time>2026-04-26T08:10:38.729Z</time></trkpt><trkpt lat="42.9368617" lon="2.734165"><ele>383.40000000000003</ele><time>2026-04-26T08:10:39.729Z</time></trkpt><trkpt lat="42.9368717" lon="2.7340317"><ele>384.8</ele><time>2026-04-26T08:10:40.729Z</time></trkpt><trkpt lat="42.9368883" lon="2.733885"><ele>386.2</ele><time>2026-04-26T08:10:41.728Z</time></trkpt><trkpt lat="42.9369217" lon="2.7337333"><ele>387.6</ele><time>2026-04-26T08:10:42.727Z</time></trkpt><trkpt lat="42.93696" lon="2.733585"><ele>389.0</ele><time>2026-04-26T08:10:43.727Z</time></trkpt><trkpt lat="42.93699" lon="2.7334333"><ele>389.5</ele><time>2026-04-26T08:10:44.729Z</time></trkpt><trkpt lat="42.9370067" lon="2.7332783"><ele>390.0</ele><time>2026-04-26T08:10:45.728Z</time></trkpt><trkpt lat="42.9370183" lon="2.73311"><ele>390.5</ele><time>2026-04-26T08:10:46.727Z</time></trkpt><trkpt lat="42.9370283" lon="2.7329267"><ele>391.0</ele><time>2026-04-26T08:10:47.731Z</time></trkpt><trkpt lat="42.9370417" lon="2.73275"><ele>389.4</ele><time>2026-04-26T08:10:48.731Z</time></trkpt><trkpt lat="42.9370567" lon="2.7325883"><ele>387.8</ele><time>2026-04-26T08:10:49.729Z</time></trkpt><trkpt lat="42.9370667" lon="2.7324283"><ele>386.2</ele><time>2026-04-26T08:10:50.73Z</time></trkpt><trkpt lat="42.937075" lon="2.7322867"><ele>384.59999999999997</ele><time>2026-04-26T08:10:51.729Z</time></trkpt><trkpt lat="42.937085" lon="2.73216"><ele>383.0</ele><time>2026-04-26T08:10:52.73Z</time></trkpt><trkpt lat="42.9371" lon="2.7320533"><ele>383.0</ele><time>2026-04-26T08:10:53.73Z</time></trkpt><trkpt lat="42.9371117" lon="2.73196"><ele>383.0</ele><time>2026-04-26T08:10:54.732Z</time></trkpt><trkpt lat="42.9370933" lon="2.7318"><ele>383.0</ele><time>2026-04-26T08:10:56.73Z</time></trkpt><trkpt lat="42.93701" lon="2.731685"><ele>383.0</ele><time>2026-04-26T08:10:58.729Z</time></trkpt><trkpt lat="42.9369433" lon="2.7316117"><ele>383.0</ele><time>2026-04-26T08:10:59.73Z</time></trkpt><trkpt lat="42.936875" lon="2.7315083"><ele>382.75</ele><time>2026-04-26T08:11:00.729Z</time></trkpt><trkpt lat="42.9368083" lon="2.73138"><ele>382.5</ele><time>2026-04-26T08:11:01.728Z</time></trkpt><trkpt lat="42.93675" lon="2.731245"><ele>382.25</ele><time>2026-04-26T08:11:02.729Z</time></trkpt><trkpt lat="42.9366967" lon="2.7311083"><ele>382.0</ele><time>2026-04-26T08:11:03.729Z</time></trkpt><trkpt lat="42.9366467" lon="2.7309717"><ele>382.0</ele><time>2026-04-26T08:11:04.727Z</time></trkpt><trkpt lat="42.9366" lon="2.7308517"><ele>382.0</ele><time>2026-04-26T08:11:05.729Z</time></trkpt><trkpt lat="42.936555" lon="2.7307583"><ele>382.0</ele><time>2026-04-26T08:11:06.73Z</time></trkpt><trkpt lat="42.9365083" lon="2.7306867"><ele>382.0</ele><time>2026-04-26T08:11:07.731Z</time></trkpt><trkpt lat="42.936455" lon="2.73061"><ele>382.0</ele><time>2026-04-26T08:11:08.728Z</time></trkpt><trkpt lat="42.93641" lon="2.7305133"><ele>382.0</ele><time>2026-04-26T08:11:09.728Z</time></trkpt><trkpt lat="42.9363717" lon="2.7303917"><ele>382.0</ele><time>2026-04-26T08:11:10.728Z</time></trkpt><trkpt lat="42.9363267" lon="2.73026"><ele>382.0</ele><time>2026-04-26T08:11:11.728Z</time></trkpt><trkpt lat="42.9362783" lon="2.7301317"><ele>382.0</ele><time>2026-04-26T08:11:12.73Z</time></trkpt><trkpt lat="42.93623" lon="2.7300067"><ele>382.0</ele><time>2026-04-26T08:11:13.729Z</time></trkpt><trkpt lat="42.936195" lon="2.7298733"><ele>382.0</ele><time>2026-04-26T08:11:14.73Z</time></trkpt><trkpt lat="42.9361733" lon="2.7297267"><ele>384.8</ele><time>2026-04-26T08:11:15.728Z</time></trkpt><trkpt lat="42.9361617" lon="2.7295683"><ele>387.6</ele><time>2026-04-26T08:11:16.73Z</time></trkpt><trkpt lat="42.9361517" lon="2.729415"><ele>390.40000000000003</ele><time>2026-04-26T08:11:17.727Z</time></trkpt><trkpt lat="42.93614" lon="2.7292867"><ele>393.20000000000005</ele><time>2026-04-26T08:11:18.729Z</time></trkpt><trkpt lat="42.9361333" lon="2.7291767"><ele>396.0</ele><time>2026-04-26T08:11:19.728Z</time></trkpt><trkpt lat="42.936135" lon="2.7290867"><ele>398.0</ele><time>2026-04-26T08:11:20.728Z</time></trkpt><trkpt lat="42.9361683" lon="2.7289433"><ele>400.0</ele><time>2026-04-26T08:11:22.729Z</time></trkpt><trkpt lat="42.936155" lon="2.72883"><ele>402.0</ele><time>2026-04-26T08:11:24.73Z</time></trkpt><trkpt lat="42.9360383" lon="2.7287267"><ele>404.0</ele><time>2026-04-26T08:11:26.729Z</time></trkpt><trkpt lat="42.93596" lon="2.728635"><ele>406.0</ele><time>2026-04-26T08:11:27.731Z</time></trkpt><trkpt lat="42.9358883" lon="2.7285483"><ele>405.8</ele><time>2026-04-26T08:11:28.73Z</time></trkpt><trkpt lat="42.935815" lon="2.72848"><ele>405.6</ele><time>2026-04-26T08:11:29.731Z</time></trkpt><trkpt lat="42.9357233" lon="2.7284317"><ele>405.4</ele><time>2026-04-26T08:11:30.728Z</time></trkpt><trkpt lat="42.9356183" lon="2.7283833"><ele>405.2</ele><time>2026-04-26T08:11:31.731Z</time></trkpt><trkpt lat="42.9355217" lon="2.7283283"><ele>405.0</ele><time>2026-04-26T08:11:32.731Z</time></trkpt><trkpt lat="42.9354383" lon="2.7282667"><ele>405.0</ele><time>2026-04-26T08:11:33.73Z</time></trkpt><trkpt lat="42.9353667" lon="2.7282017"><ele>405.0</ele><time>2026-04-26T08:11:34.73Z</time></trkpt><trkpt lat="42.93531" lon="2.728135"><ele>405.0</ele><time>2026-04-26T08:11:35.73Z</time></trkpt><trkpt lat="42.93521" lon="2.7280567"><ele>405.0</ele><time>2026-04-26T08:11:37.735Z</time></trkpt><trkpt lat="42.9350783" lon="2.7280883"><ele>405.0</ele><time>2026-04-26T08:11:39.731Z</time></trkpt><trkpt lat="42.9349933" lon="2.72813"><ele>403.4</ele><time>2026-04-26T08:11:40.73Z</time></trkpt><trkpt lat="42.9348967" lon="2.7281833"><ele>401.8</ele><time>2026-04-26T08:11:41.73Z</time></trkpt><trkpt lat="42.9347883" lon="2.728235"><ele>400.20000000000005</ele><time>2026-04-26T08:11:42.73Z</time></trkpt><trkpt lat="42.9346817" lon="2.72829"><ele>398.6</ele><time>2026-04-26T08:11:43.731Z</time></trkpt><trkpt lat="42.9345733" lon="2.7283483"><ele>397.0</ele><time>2026-04-26T08:11:44.732Z</time></trkpt><trkpt lat="42.9344483" lon="2.7284083"><ele>397.0</ele><time>2026-04-26T08:11:45.73Z</time></trkpt><trkpt lat="42.9343067" lon="2.72847"><ele>397.0</ele><time>2026-04-26T08:11:46.728Z</time></trkpt><trkpt lat="42.9341617" lon="2.7285433"><ele>397.0</ele><time>2026-04-26T08:11:47.727Z</time></trkpt><trkpt lat="42.9340533" lon="2.728605"><ele>397.0</ele><time>2026-04-26T08:11:48.729Z</time></trkpt><trkpt lat="42.9339583" lon="2.7286667"><ele>394.8</ele><time>2026-04-26T08:11:49.729Z</time></trkpt><trkpt lat="42.9338667" lon="2.7287283"><ele>392.6</ele><time>2026-04-26T08:11:50.732Z</time></trkpt><trkpt lat="42.93377" lon="2.7287883"><ele>390.40000000000003</ele><time>2026-04-26T08:11:51.731Z</time></trkpt><trkpt lat="42.933675" lon="2.72884"><ele>388.20000000000005</ele><time>2026-04-26T08:11:52.73Z</time></trkpt><trkpt lat="42.93359" lon="2.728885"><ele>386.0</ele><time>2026-04-26T08:11:53.73Z</time></trkpt><trkpt lat="42.9335267" lon="2.7289267"><ele>386.0</ele><time>2026-04-26T08:11:54.731Z</time></trkpt><trkpt lat="42.9334733" lon="2.7289767"><ele>386.0</ele><time>2026-04-26T08:11:55.729Z</time></trkpt><trkpt lat="42.9334183" lon="2.7290383"><ele>386.0</ele><time>2026-04-26T08:11:56.731Z</time></trkpt><trkpt lat="42.9333483" lon="2.7291167"><ele>386.0</ele><time>2026-04-26T08:11:57.729Z</time></trkpt><trkpt lat="42.9332617" lon="2.7292133"><ele>386.0</ele><time>2026-04-26T08:11:58.73Z</time></trkpt><trkpt lat="42.9331683" lon="2.7292983"><ele>384.6</ele><time>2026-04-26T08:11:59.73Z</time></trkpt><trkpt lat="42.9330683" lon="2.7293583"><ele>383.20000000000005</ele><time>2026-04-26T08:12:00.731Z</time></trkpt><trkpt lat="42.9329733" lon="2.7293833"><ele>381.79999999999995</ele><time>2026-04-26T08:12:01.731Z</time></trkpt><trkpt lat="42.9328833" lon="2.7294017"><ele>380.4</ele><time>2026-04-26T08:12:02.729Z</time></trkpt><trkpt lat="42.9327967" lon="2.72942"><ele>379.0</ele><time>2026-04-26T08:12:03.734Z</time></trkpt><trkpt lat="42.9327217" lon="2.7294467"><ele>378.0</ele><time>2026-04-26T08:12:04.729Z</time></trkpt><trkpt lat="42.93265" lon="2.7295067"><ele>377.0</ele><time>2026-04-26T08:12:05.73Z</time></trkpt><trkpt lat="42.9325733" lon="2.7295633"><ele>376.0</ele><time>2026-04-26T08:12:06.731Z</time></trkpt><trkpt lat="42.93249" lon="2.729615"><ele>375.0</ele><time>2026-04-26T08:12:07.729Z</time></trkpt><trkpt lat="42.9324067" lon="2.7296533"><ele>374.0</ele><time>2026-04-26T08:12:08.729Z</time></trkpt><trkpt lat="42.9323267" lon="2.7296883"><ele>373.0</ele><time>2026-04-26T08:12:09.735Z</time></trkpt><trkpt lat="42.932255" lon="2.7297267"><ele>372.0</ele><time>2026-04-26T08:12:10.73Z</time></trkpt><trkpt lat="42.9321483" lon="2.7297933"><ele>371.0</ele><time>2026-04-26T08:12:12.731Z</time></trkpt><trkpt lat="42.9320267" lon="2.72982"><ele>370.0</ele><time>2026-04-26T08:12:14.731Z</time></trkpt><trkpt lat="42.9319467" lon="2.7298133"><ele>369.0</ele><time>2026-04-26T08:12:15.727Z</time></trkpt><trkpt lat="42.931855" lon="2.729795"><ele>368.0</ele><time>2026-04-26T08:12:16.727Z</time></trkpt><trkpt lat="42.9317567" lon="2.7297733"><ele>364.25</ele><time>2026-04-26T08:12:17.728Z</time></trkpt><trkpt lat="42.9316483" lon="2.7297583"><ele>360.5</ele><time>2026-04-26T08:12:18.73Z</time></trkpt><trkpt lat="42.93153" lon="2.7297517"><ele>356.75</ele><time>2026-04-26T08:12:19.729Z</time></trkpt><trkpt lat="42.9314117" lon="2.7297433"><ele>353.0</ele><time>2026-04-26T08:12:20.728Z</time></trkpt><trkpt lat="42.9312917" lon="2.7297367"><ele>353.0</ele><time>2026-04-26T08:12:21.734Z</time></trkpt><trkpt lat="42.93118" lon="2.72973"><ele>353.0</ele><time>2026-04-26T08:12:22.73Z</time></trkpt><trkpt lat="42.9310733" lon="2.7297317"><ele>353.0</ele><time>2026-04-26T08:12:23.728Z</time></trkpt><trkpt lat="42.9309767" lon="2.729755"><ele>353.0</ele><time>2026-04-26T08:12:24.731Z</time></trkpt><trkpt lat="42.9308917" lon="2.729795"><ele>353.0</ele><time>2026-04-26T08:12:25.733Z</time></trkpt><trkpt lat="42.93081" lon="2.7298367"><ele>350.25</ele><time>2026-04-26T08:12:26.73Z</time></trkpt><trkpt lat="42.9307167" lon="2.7298717"><ele>347.5</ele><time>2026-04-26T08:12:27.731Z</time></trkpt><trkpt lat="42.9305967" lon="2.7298933"><ele>344.75</ele><time>2026-04-26T08:12:28.732Z</time></trkpt><trkpt lat="42.9304583" lon="2.7299183"><ele>342.0</ele><time>2026-04-26T08:12:29.73Z</time></trkpt><trkpt lat="42.9303167" lon="2.729955"><ele>342.0</ele><time>2026-04-26T08:12:30.732Z</time></trkpt><trkpt lat="42.930175" lon="2.7299967"><ele>342.0</ele><time>2026-04-26T08:12:31.732Z</time></trkpt><trkpt lat="42.930045" lon="2.73005"><ele>342.0</ele><time>2026-04-26T08:12:32.729Z</time></trkpt><trkpt lat="42.929925" lon="2.73012"><ele>342.0</ele><time>2026-04-26T08:12:33.734Z</time></trkpt><trkpt lat="42.9298217" lon="2.730185"><ele>341.40000000000003</ele><time>2026-04-26T08:12:34.729Z</time></trkpt><trkpt lat="42.9297317" lon="2.73023"><ele>340.8</ele><time>2026-04-26T08:12:35.731Z</time></trkpt><trkpt lat="42.9296483" lon="2.7302517"><ele>340.2</ele><time>2026-04-26T08:12:36.732Z</time></trkpt><trkpt lat="42.929565" lon="2.7302467"><ele>339.6</ele><time>2026-04-26T08:12:37.732Z</time></trkpt><trkpt lat="42.929465" lon="2.7302167"><ele>339.0</ele><time>2026-04-26T08:12:38.731Z</time></trkpt><trkpt lat="42.9293533" lon="2.730175"><ele>339.0</ele><time>2026-04-26T08:12:39.73Z</time></trkpt><trkpt lat="42.92924" lon="2.7301233"><ele>339.0</ele><time>2026-04-26T08:12:40.728Z</time></trkpt><trkpt lat="42.92914" lon="2.73006"><ele>339.0</ele><time>2026-04-26T08:12:41.735Z</time></trkpt><trkpt lat="42.9290533" lon="2.7299883"><ele>339.0</ele><time>2026-04-26T08:12:42.73Z</time></trkpt><trkpt lat="42.92898" lon="2.7299083"><ele>339.0</ele><time>2026-04-26T08:12:43.732Z</time></trkpt><trkpt lat="42.9289217" lon="2.72981"><ele>338.6</ele><time>2026-04-26T08:12:44.729Z</time></trkpt><trkpt lat="42.9288683" lon="2.7296883"><ele>338.2</ele><time>2026-04-26T08:12:45.729Z</time></trkpt><trkpt lat="42.9288167" lon="2.729555"><ele>337.8</ele><time>2026-04-26T08:12:46.727Z</time></trkpt><trkpt lat="42.9287633" lon="2.7294317"><ele>337.40000000000003</ele><time>2026-04-26T08:12:47.728Z</time></trkpt><trkpt lat="42.928705" lon="2.72933"><ele>337.0</ele><time>2026-04-26T08:12:48.728Z</time></trkpt><trkpt lat="42.9286317" lon="2.7292533"><ele>337.0</ele><time>2026-04-26T08:12:49.735Z</time></trkpt><trkpt lat="42.9285417" lon="2.7292083"><ele>337.0</ele><time>2026-04-26T08:12:50.729Z</time></trkpt><trkpt lat="42.9284367" lon="2.729195"><ele>337.0</ele><time>2026-04-26T08:12:51.732Z</time></trkpt><trkpt lat="42.9283167" lon="2.7292"><ele>337.0</ele><time>2026-04-26T08:12:52.728Z</time></trkpt><trkpt lat="42.9281817" lon="2.7292167"><ele>338.0</ele><time>2026-04-26T08:12:53.729Z</time></trkpt><trkpt lat="42.92804" lon="2.72925"><ele>339.0</ele><time>2026-04-26T08:12:54.73Z</time></trkpt><trkpt lat="42.92791" lon="2.7293"><ele>340.0</ele><time>2026-04-26T08:12:55.728Z</time></trkpt><trkpt lat="42.927805" lon="2.7293567"><ele>341.0</ele><time>2026-04-26T08:12:56.73Z</time></trkpt><trkpt lat="42.9277233" lon="2.7294267"><ele>341.20000000000005</ele><time>2026-04-26T08:12:57.729Z</time></trkpt><trkpt lat="42.9276633" lon="2.7295233"><ele>341.40000000000003</ele><time>2026-04-26T08:12:58.728Z</time></trkpt><trkpt lat="42.9276233" lon="2.72964"><ele>341.6</ele><time>2026-04-26T08:12:59.728Z</time></trkpt><trkpt lat="42.9275783" lon="2.7297483"><ele>341.8</ele><time>2026-04-26T08:13:00.729Z</time></trkpt><trkpt lat="42.9275083" lon="2.7298417"><ele>342.0</ele><time>2026-04-26T08:13:01.73Z</time></trkpt><trkpt lat="42.9274083" lon="2.7299217"><ele>342.0</ele><time>2026-04-26T08:13:02.731Z</time></trkpt><trkpt lat="42.9272967" lon="2.7299783"><ele>342.0</ele><time>2026-04-26T08:13:03.73Z</time></trkpt><trkpt lat="42.92719" lon="2.73001"><ele>342.0</ele><time>2026-04-26T08:13:04.731Z</time></trkpt><trkpt lat="42.92709" lon="2.7300183"><ele>342.0</ele><time>2026-04-26T08:13:05.729Z</time></trkpt><trkpt lat="42.9269817" lon="2.73"><ele>342.0</ele><time>2026-04-26T08:13:06.73Z</time></trkpt><trkpt lat="42.92686" lon="2.7299533"><ele>342.0</ele><time>2026-04-26T08:13:07.729Z</time></trkpt><trkpt lat="42.92674" lon="2.7298983"><ele>342.0</ele><time>2026-04-26T08:13:08.733Z</time></trkpt><trkpt lat="42.9266367" lon="2.7298383"><ele>342.0</ele><time>2026-04-26T08:13:09.729Z</time></trkpt><trkpt lat="42.9265517" lon="2.7297767"><ele>342.0</ele><time>2026-04-26T08:13:10.731Z</time></trkpt><trkpt lat="42.9264783" lon="2.72972"><ele>342.0</ele><time>2026-04-26T08:13:11.731Z</time></trkpt><trkpt lat="42.9264067" lon="2.7296733"><ele>343.20000000000005</ele><time>2026-04-26T08:13:12.73Z</time></trkpt><trkpt lat="42.9263433" lon="2.7296617"><ele>344.4</ele><time>2026-04-26T08:13:13.733Z</time></trkpt><trkpt lat="42.9262467" lon="2.7297667"><ele>345.6</ele><time>2026-04-26T08:13:15.728Z</time></trkpt><trkpt lat="42.9261633" lon="2.729855"><ele>346.79999999999995</ele><time>2026-04-26T08:13:16.727Z</time></trkpt><trkpt lat="42.9260583" lon="2.7299367"><ele>348.0</ele><time>2026-04-26T08:13:17.73Z</time></trkpt><trkpt lat="42.92594" lon="2.7300283"><ele>346.5</ele><time>2026-04-26T08:13:18.73Z</time></trkpt><trkpt lat="42.9258183" lon="2.73013"><ele>345.0</ele><time>2026-04-26T08:13:19.731Z</time></trkpt><trkpt lat="42.9256983" lon="2.730235"><ele>343.5</ele><time>2026-04-26T08:13:20.732Z</time></trkpt><trkpt lat="42.9255767" lon="2.7303283"><ele>342.0</ele><time>2026-04-26T08:13:21.732Z</time></trkpt><trkpt lat="42.92545" lon="2.7304133"><ele>342.0</ele><time>2026-04-26T08:13:22.729Z</time></trkpt><trkpt lat="42.9253267" lon="2.730495"><ele>342.0</ele><time>2026-04-26T08:13:23.732Z</time></trkpt><trkpt lat="42.925205" lon="2.73059"><ele>342.0</ele><time>2026-04-26T08:13:24.729Z</time></trkpt><trkpt lat="42.925095" lon="2.73071"><ele>342.0</ele><time>2026-04-26T08:13:25.733Z</time></trkpt><trkpt lat="42.9250067" lon="2.73084"><ele>342.40000000000003</ele><time>2026-04-26T08:13:26.73Z</time></trkpt><trkpt lat="42.9249333" lon="2.7309683"><ele>342.8</ele><time>2026-04-26T08:13:27.73Z</time></trkpt><trkpt lat="42.9248667" lon="2.7310767"><ele>343.2</ele><time>2026-04-26T08:13:28.729Z</time></trkpt><trkpt lat="42.9248017" lon="2.7311767"><ele>343.6</ele><time>2026-04-26T08:13:29.73Z</time></trkpt><trkpt lat="42.924725" lon="2.731225"><ele>344.0</ele><time>2026-04-26T08:13:30.738Z</time></trkpt><trkpt lat="42.924645" lon="2.7312467"><ele>344.0</ele><time>2026-04-26T08:13:31.732Z</time></trkpt><trkpt lat="42.9245717" lon="2.7312483"><ele>344.0</ele><time>2026-04-26T08:13:32.73Z</time></trkpt><trkpt lat="42.9245083" lon="2.7312167"><ele>344.0</ele><time>2026-04-26T08:13:33.731Z</time></trkpt><trkpt lat="42.9244417" lon="2.73107"><ele>344.0</ele><time>2026-04-26T08:13:35.73Z</time></trkpt><trkpt lat="42.9244417" lon="2.7309767"><ele>344.0</ele><time>2026-04-26T08:13:36.73Z</time></trkpt><trkpt lat="42.9244683" lon="2.7308633"><ele>344.0</ele><time>2026-04-26T08:13:37.729Z</time></trkpt><trkpt lat="42.9245283" lon="2.7307467"><ele>346.0</ele><time>2026-04-26T08:13:38.727Z</time></trkpt><trkpt lat="42.924615" lon="2.7306417"><ele>348.0</ele><time>2026-04-26T08:13:39.728Z</time></trkpt><trkpt lat="42.9247" lon="2.73054"><ele>350.0</ele><time>2026-04-26T08:13:40.727Z</time></trkpt><trkpt lat="42.9247833" lon="2.7304417"><ele>352.0</ele><time>2026-04-26T08:13:41.728Z</time></trkpt><trkpt lat="42.9248433" lon="2.7303333"><ele>354.0</ele><time>2026-04-26T08:13:42.729Z</time></trkpt><trkpt lat="42.9248817" lon="2.73021"><ele>355.75</ele><time>2026-04-26T08:13:43.729Z</time></trkpt><trkpt lat="42.924895" lon="2.73007"><ele>357.5</ele><time>2026-04-26T08:13:44.729Z</time></trkpt><trkpt lat="42.9248867" lon="2.7299067"><ele>359.25</ele><time>2026-04-26T08:13:45.727Z</time></trkpt><trkpt lat="42.9248767" lon="2.729735"><ele>361.0</ele><time>2026-04-26T08:13:46.731Z</time></trkpt><trkpt lat="42.924875" lon="2.72956"><ele>361.0</ele><time>2026-04-26T08:13:47.728Z</time></trkpt><trkpt lat="42.9248867" lon="2.7294"><ele>361.0</ele><time>2026-04-26T08:13:48.727Z</time></trkpt><trkpt lat="42.92489" lon="2.729245"><ele>361.0</ele><time>2026-04-26T08:13:49.733Z</time></trkpt><trkpt lat="42.92487" lon="2.7290783"><ele>361.0</ele><time>2026-04-26T08:13:50.728Z</time></trkpt><trkpt lat="42.924835" lon="2.7289033"><ele>362.0</ele><time>2026-04-26T08:13:51.728Z</time></trkpt><trkpt lat="42.9247883" lon="2.7287267"><ele>363.0</ele><time>2026-04-26T08:13:52.729Z</time></trkpt><trkpt lat="42.9247283" lon="2.7285567"><ele>364.0</ele><time>2026-04-26T08:13:53.729Z</time></trkpt><trkpt lat="42.9246517" lon="2.7284017"><ele>365.0</ele><time>2026-04-26T08:13:54.729Z</time></trkpt><trkpt lat="42.924555" lon="2.7282683"><ele>363.75</ele><time>2026-04-26T08:13:55.728Z</time></trkpt><trkpt lat="42.924445" lon="2.7281483"><ele>362.5</ele><time>2026-04-26T08:13:56.728Z</time></trkpt><trkpt lat="42.9243283" lon="2.7280167"><ele>361.25</ele><time>2026-04-26T08:13:57.729Z</time></trkpt><trkpt lat="42.9242167" lon="2.72788"><ele>360.0</ele><time>2026-04-26T08:13:58.728Z</time></trkpt><trkpt lat="42.924115" lon="2.72775"><ele>362.25</ele><time>2026-04-26T08:13:59.728Z</time></trkpt><trkpt lat="42.924025" lon="2.72762"><ele>364.5</ele><time>2026-04-26T08:14:00.729Z</time></trkpt><trkpt lat="42.923945" lon="2.72749"><ele>366.75</ele><time>2026-04-26T08:14:01.734Z</time></trkpt><trkpt lat="42.9238817" lon="2.7273533"><ele>369.0</ele><time>2026-04-26T08:14:02.729Z</time></trkpt><trkpt lat="42.9238283" lon="2.7272017"><ele>369.0</ele><time>2026-04-26T08:14:03.729Z</time></trkpt><trkpt lat="42.9237833" lon="2.7270383"><ele>369.0</ele><time>2026-04-26T08:14:04.728Z</time></trkpt><trkpt lat="42.9237517" lon="2.726875"><ele>369.0</ele><time>2026-04-26T08:14:05.73Z</time></trkpt><trkpt lat="42.9237267" lon="2.7267167"><ele>369.0</ele><time>2026-04-26T08:14:06.731Z</time></trkpt><trkpt lat="42.9237183" lon="2.7265683"><ele>369.0</ele><time>2026-04-26T08:14:07.727Z</time></trkpt><trkpt lat="42.9237267" lon="2.7264217"><ele>369.0</ele><time>2026-04-26T08:14:08.728Z</time></trkpt><trkpt lat="42.92376" lon="2.7262717"><ele>369.0</ele><time>2026-04-26T08:14:09.728Z</time></trkpt><trkpt lat="42.92381" lon="2.726115"><ele>369.0</ele><time>2026-04-26T08:14:10.731Z</time></trkpt><trkpt lat="42.923865" lon="2.7259583"><ele>369.0</ele><time>2026-04-26T08:14:11.728Z</time></trkpt><trkpt lat="42.9239033" lon="2.7258067"><ele>369.0</ele><time>2026-04-26T08:14:12.728Z</time></trkpt><trkpt lat="42.92393" lon="2.72567"><ele>369.0</ele><time>2026-04-26T08:14:13.732Z</time></trkpt><trkpt lat="42.923955" lon="2.7255633"><ele>369.0</ele><time>2026-04-26T08:14:14.729Z</time></trkpt><trkpt lat="42.9239733" lon="2.7254717"><ele>369.0</ele><time>2026-04-26T08:14:15.728Z</time></trkpt><trkpt lat="42.9239533" lon="2.7253217"><ele>369.0</ele><time>2026-04-26T08:14:17.728Z</time></trkpt><trkpt lat="42.92383" lon="2.7252517"><ele>369.0</ele><time>2026-04-26T08:14:19.728Z</time></trkpt><trkpt lat="42.9237433" lon="2.7252117"><ele>369.0</ele><time>2026-04-26T08:14:20.728Z</time></trkpt><trkpt lat="42.9236417" lon="2.7251617"><ele>369.0</ele><time>2026-04-26T08:14:21.729Z</time></trkpt><trkpt lat="42.9235333" lon="2.7251017"><ele>368.4</ele><time>2026-04-26T08:14:22.73Z</time></trkpt><trkpt lat="42.9234267" lon="2.725035"><ele>367.79999999999995</ele><time>2026-04-26T08:14:23.73Z</time></trkpt><trkpt lat="42.92332" lon="2.7249683"><ele>367.20000000000005</ele><time>2026-04-26T08:14:24.73Z</time></trkpt><trkpt lat="42.92322" lon="2.724905"><ele>366.6</ele><time>2026-04-26T08:14:25.734Z</time></trkpt><trkpt lat="42.92313" lon="2.724845"><ele>366.0</ele><time>2026-04-26T08:14:26.729Z</time></trkpt><trkpt lat="42.92305" lon="2.7247867"><ele>364.20000000000005</ele><time>2026-04-26T08:14:27.728Z</time></trkpt><trkpt lat="42.9229717" lon="2.7247467"><ele>362.40000000000003</ele><time>2026-04-26T08:14:28.73Z</time></trkpt><trkpt lat="42.922885" lon="2.7247433"><ele>360.6</ele><time>2026-04-26T08:14:29.73Z</time></trkpt><trkpt lat="42.9227817" lon="2.7247567"><ele>358.8</ele><time>2026-04-26T08:14:30.731Z</time></trkpt><trkpt lat="42.92267" lon="2.72477"><ele>357.0</ele><time>2026-04-26T08:14:31.733Z</time></trkpt><trkpt lat="42.922545" lon="2.72478"><ele>355.5</ele><time>2026-04-26T08:14:32.73Z</time></trkpt><trkpt lat="42.9224117" lon="2.7248067"><ele>354.0</ele><time>2026-04-26T08:14:33.731Z</time></trkpt><trkpt lat="42.9222783" lon="2.7248433"><ele>352.5</ele><time>2026-04-26T08:14:34.73Z</time></trkpt><trkpt lat="42.9221433" lon="2.7248717"><ele>351.0</ele><time>2026-04-26T08:14:35.729Z</time></trkpt><trkpt lat="42.9220083" lon="2.7248833"><ele>351.0</ele><time>2026-04-26T08:14:36.731Z</time></trkpt><trkpt lat="42.9218733" lon="2.7248833"><ele>351.0</ele><time>2026-04-26T08:14:37.73Z</time></trkpt><trkpt lat="42.9217333" lon="2.724865"><ele>351.0</ele><time>2026-04-26T08:14:38.73Z</time></trkpt><trkpt lat="42.9215883" lon="2.72483"><ele>351.0</ele><time>2026-04-26T08:14:39.729Z</time></trkpt><trkpt lat="42.921445" lon="2.72479"><ele>351.75</ele><time>2026-04-26T08:14:40.729Z</time></trkpt><trkpt lat="42.9213133" lon="2.7247517"><ele>352.5</ele><time>2026-04-26T08:14:41.73Z</time></trkpt><trkpt lat="42.92119" lon="2.724715"><ele>353.25</ele><time>2026-04-26T08:14:42.73Z</time></trkpt><trkpt lat="42.921085" lon="2.7246733"><ele>354.0</ele><time>2026-04-26T08:14:43.729Z</time></trkpt><trkpt lat="42.9209917" lon="2.7246"><ele>354.0</ele><time>2026-04-26T08:14:44.731Z</time></trkpt><trkpt lat="42.9209067" lon="2.7245033"><ele>354.0</ele><time>2026-04-26T08:14:45.736Z</time></trkpt><trkpt lat="42.9208233" lon="2.7244"><ele>354.0</ele><time>2026-04-26T08:14:46.729Z</time></trkpt><trkpt lat="42.9207367" lon="2.7243133"><ele>354.0</ele><time>2026-04-26T08:14:47.729Z</time></trkpt><trkpt lat="42.92064" lon="2.7242583"><ele>354.0</ele><time>2026-04-26T08:14:48.73Z</time></trkpt><trkpt lat="42.9205283" lon="2.7242417"><ele>354.1666666666667</ele><time>2026-04-26T08:14:49.729Z</time></trkpt><trkpt lat="42.920415" lon="2.7242483"><ele>354.3333333333333</ele><time>2026-04-26T08:14:50.73Z</time></trkpt><trkpt lat="42.9203133" lon="2.7242667"><ele>354.5</ele><time>2026-04-26T08:14:51.728Z</time></trkpt><trkpt lat="42.9202317" lon="2.72428"><ele>354.66666666666663</ele><time>2026-04-26T08:14:52.729Z</time></trkpt><trkpt lat="42.9201633" lon="2.7242617"><ele>354.8333333333333</ele><time>2026-04-26T08:14:53.728Z</time></trkpt><trkpt lat="42.9200967" lon="2.72422"><ele>355.0</ele><time>2026-04-26T08:14:54.729Z</time></trkpt><trkpt lat="42.920025" lon="2.7241517"><ele>355.0</ele><time>2026-04-26T08:14:55.729Z</time></trkpt><trkpt lat="42.919955" lon="2.7240633"><ele>355.0</ele><time>2026-04-26T08:14:56.73Z</time></trkpt><trkpt lat="42.9198917" lon="2.7239767"><ele>355.0</ele><time>2026-04-26T08:14:57.73Z</time></trkpt><trkpt lat="42.91984" lon="2.7238933"><ele>355.0</ele><time>2026-04-26T08:14:58.73Z</time></trkpt><trkpt lat="42.9198083" lon="2.7238167"><ele>355.0</ele><time>2026-04-26T08:14:59.728Z</time></trkpt><trkpt lat="42.9198483" lon="2.7236833"><ele>355.0</ele><time>2026-04-26T08:15:01.731Z</time></trkpt><trkpt lat="42.9199033" lon="2.7236283"><ele>355.0</ele><time>2026-04-26T08:15:02.728Z</time></trkpt><trkpt lat="42.9199917" lon="2.7235917"><ele>355.0</ele><time>2026-04-26T08:15:03.729Z</time></trkpt><trkpt lat="42.9201067" lon="2.7235583"><ele>355.0</ele><time>2026-04-26T08:15:04.728Z</time></trkpt><trkpt lat="42.9202233" lon="2.7235167"><ele>355.0</ele><time>2026-04-26T08:15:05.728Z</time></trkpt><trkpt lat="42.9203233" lon="2.7234633"><ele>355.0</ele><time>2026-04-26T08:15:06.728Z</time></trkpt><trkpt lat="42.9204083" lon="2.723395"><ele>355.2</ele><time>2026-04-26T08:15:07.728Z</time></trkpt><trkpt lat="42.9204767" lon="2.7233067"><ele>355.4</ele><time>2026-04-26T08:15:08.731Z</time></trkpt><trkpt lat="42.9205217" lon="2.7231983"><ele>355.6</ele><time>2026-04-26T08:15:09.728Z</time></trkpt><trkpt lat="42.920545" lon="2.723055"><ele>355.8</ele><time>2026-04-26T08:15:10.73Z</time></trkpt><trkpt lat="42.9205617" lon="2.7228917"><ele>356.0</ele><time>2026-04-26T08:15:11.727Z</time></trkpt><trkpt lat="42.9205817" lon="2.7227217"><ele>356.0</ele><time>2026-04-26T08:15:12.729Z</time></trkpt><trkpt lat="42.9206333" lon="2.7225633"><ele>356.0</ele><time>2026-04-26T08:15:13.73Z</time></trkpt><trkpt lat="42.920695" lon="2.7224067"><ele>356.0</ele><time>2026-04-26T08:15:14.729Z</time></trkpt><trkpt lat="42.9207483" lon="2.7222583"><ele>356.0</ele><time>2026-04-26T08:15:15.728Z</time></trkpt><trkpt lat="42.9207883" lon="2.72212"><ele>356.0</ele><time>2026-04-26T08:15:16.727Z</time></trkpt><trkpt lat="42.9208183" lon="2.7219867"><ele>356.0</ele><time>2026-04-26T08:15:17.73Z</time></trkpt><trkpt lat="42.920835" lon="2.721855"><ele>356.0</ele><time>2026-04-26T08:15:18.728Z</time></trkpt><trkpt lat="42.9208283" lon="2.721725"><ele>356.0</ele><time>2026-04-26T08:15:19.731Z</time></trkpt><trkpt lat="42.9208083" lon="2.721585"><ele>356.0</ele><time>2026-04-26T08:15:20.73Z</time></trkpt><trkpt lat="42.920795" lon="2.72143"><ele>354.6</ele><time>2026-04-26T08:15:21.729Z</time></trkpt><trkpt lat="42.9207967" lon="2.7212833"><ele>353.20000000000005</ele><time>2026-04-26T08:15:22.728Z</time></trkpt><trkpt lat="42.9208167" lon="2.72115"><ele>351.79999999999995</ele><time>2026-04-26T08:15:23.728Z</time></trkpt><trkpt lat="42.9208633" lon="2.72102"><ele>350.4</ele><time>2026-04-26T08:15:24.728Z</time></trkpt><trkpt lat="42.9209367" lon="2.72089"><ele>349.0</ele><time>2026-04-26T08:15:25.728Z</time></trkpt><trkpt lat="42.9210217" lon="2.7207633"><ele>348.0</ele><time>2026-04-26T08:15:26.729Z</time></trkpt><trkpt lat="42.921115" lon="2.720645"><ele>347.0</ele><time>2026-04-26T08:15:27.728Z</time></trkpt><trkpt lat="42.9212167" lon="2.7205467"><ele>346.0</ele><time>2026-04-26T08:15:28.728Z</time></trkpt><trkpt lat="42.9213233" lon="2.720455"><ele>345.0</ele><time>2026-04-26T08:15:29.728Z</time></trkpt><trkpt lat="42.9214383" lon="2.7203817"><ele>345.0</ele><time>2026-04-26T08:15:30.727Z</time></trkpt><trkpt lat="42.9215583" lon="2.7203367"><ele>345.0</ele><time>2026-04-26T08:15:31.727Z</time></trkpt><trkpt lat="42.9216817" lon="2.7203133"><ele>345.0</ele><time>2026-04-26T08:15:32.729Z</time></trkpt><trkpt lat="42.921805" lon="2.7203017"><ele>345.0</ele><time>2026-04-26T08:15:33.727Z</time></trkpt><trkpt lat="42.9219133" lon="2.7203033"><ele>341.8</ele><time>2026-04-26T08:15:34.728Z</time></trkpt><trkpt lat="42.9220133" lon="2.7203167"><ele>338.6</ele><time>2026-04-26T08:15:35.729Z</time></trkpt><trkpt lat="42.9221117" lon="2.720355"><ele>335.4</ele><time>2026-04-26T08:15:36.728Z</time></trkpt><trkpt lat="42.9222033" lon="2.7204167"><ele>332.2</ele><time>2026-04-26T08:15:37.727Z</time></trkpt><trkpt lat="42.9222883" lon="2.7204933"><ele>329.0</ele><time>2026-04-26T08:15:38.731Z</time></trkpt><trkpt lat="42.9223717" lon="2.72057"><ele>329.0</ele><time>2026-04-26T08:15:39.734Z</time></trkpt><trkpt lat="42.92244" lon="2.72065"><ele>329.0</ele><time>2026-04-26T08:15:40.729Z</time></trkpt><trkpt lat="42.9224917" lon="2.7207217"><ele>329.0</ele><time>2026-04-26T08:15:41.733Z</time></trkpt><trkpt lat="42.92256" lon="2.720785"><ele>329.0</ele><time>2026-04-26T08:15:43.728Z</time></trkpt><trkpt lat="42.922565" lon="2.7206833"><ele>329.0</ele><time>2026-04-26T08:15:46.728Z</time></trkpt><trkpt lat="42.9225183" lon="2.7206233"><ele>329.0</ele><time>2026-04-26T08:15:47.733Z</time></trkpt><trkpt lat="42.9224617" lon="2.7205333"><ele>329.0</ele><time>2026-04-26T08:15:48.728Z</time></trkpt><trkpt lat="42.9224083" lon="2.7204317"><ele>329.0</ele><time>2026-04-26T08:15:49.729Z</time></trkpt><trkpt lat="42.922355" lon="2.7203283"><ele>329.0</ele><time>2026-04-26T08:15:50.728Z</time></trkpt><trkpt lat="42.9223017" lon="2.7202283"><ele>329.0</ele><time>2026-04-26T08:15:51.73Z</time></trkpt><trkpt lat="42.9222517" lon="2.7201383"><ele>329.0</ele><time>2026-04-26T08:15:52.729Z</time></trkpt><trkpt lat="42.9222" lon="2.7200517"><ele>329.0</ele><time>2026-04-26T08:15:53.731Z</time></trkpt><trkpt lat="42.922145" lon="2.719965"><ele>325.83333333333337</ele><time>2026-04-26T08:15:54.73Z</time></trkpt><trkpt lat="42.92209" lon="2.719875"><ele>322.6666666666667</ele><time>2026-04-26T08:15:55.73Z</time></trkpt><trkpt lat="42.92204" lon="2.7197817"><ele>319.5</ele><time>2026-04-26T08:15:56.73Z</time></trkpt><trkpt lat="42.921995" lon="2.7196833"><ele>316.3333333333333</ele><time>2026-04-26T08:15:57.73Z</time></trkpt><trkpt lat="42.9219583" lon="2.71959"><ele>313.16666666666663</ele><time>2026-04-26T08:15:58.728Z</time></trkpt><trkpt lat="42.92193" lon="2.7195033"><ele>310.0</ele><time>2026-04-26T08:15:59.729Z</time></trkpt><trkpt lat="42.9219083" lon="2.7194167"><ele>309.14285714285717</ele><time>2026-04-26T08:16:00.729Z</time></trkpt><trkpt lat="42.9219" lon="2.7193283"><ele>308.2857142857143</ele><time>2026-04-26T08:16:01.729Z</time></trkpt><trkpt lat="42.9218783" lon="2.71924"><ele>307.42857142857144</ele><time>2026-04-26T08:16:02.729Z</time></trkpt><trkpt lat="42.9218433" lon="2.719165"><ele>306.57142857142856</ele><time>2026-04-26T08:16:03.73Z</time></trkpt><trkpt lat="42.921795" lon="2.719105"><ele>305.7142857142857</ele><time>2026-04-26T08:16:04.731Z</time></trkpt><trkpt lat="42.9217333" lon="2.7190767"><ele>304.85714285714283</ele><time>2026-04-26T08:16:05.731Z</time></trkpt><trkpt lat="42.9216533" lon="2.719085"><ele>304.0</ele><time>2026-04-26T08:16:06.731Z</time></trkpt><trkpt lat="42.9215767" lon="2.7191383"><ele>304.0</ele><time>2026-04-26T08:16:07.734Z</time></trkpt><trkpt lat="42.9215083" lon="2.7191883"><ele>304.0</ele><time>2026-04-26T08:16:08.728Z</time></trkpt><trkpt lat="42.9214367" lon="2.7192267"><ele>304.0</ele><time>2026-04-26T08:16:09.73Z</time></trkpt><trkpt lat="42.9213567" lon="2.7192483"><ele>304.0</ele><time>2026-04-26T08:16:10.728Z</time></trkpt><trkpt lat="42.921265" lon="2.7192333"><ele>304.0</ele><time>2026-04-26T08:16:11.728Z</time></trkpt><trkpt lat="42.92116" lon="2.7192067"><ele>304.0</ele><time>2026-04-26T08:16:12.728Z</time></trkpt><trkpt lat="42.921045" lon="2.7191883"><ele>304.0</ele><time>2026-04-26T08:16:13.729Z</time></trkpt><trkpt lat="42.9209267" lon="2.719185"><ele>304.0</ele><time>2026-04-26T08:16:14.731Z</time></trkpt><trkpt lat="42.9208117" lon="2.71919"><ele>304.0</ele><time>2026-04-26T08:16:15.731Z</time></trkpt><trkpt lat="42.9206983" lon="2.7192017"><ele>304.0</ele><time>2026-04-26T08:16:16.728Z</time></trkpt><trkpt lat="42.920585" lon="2.7192083"><ele>302.5</ele><time>2026-04-26T08:16:17.728Z</time></trkpt><trkpt lat="42.92047" lon="2.7192"><ele>301.0</ele><time>2026-04-26T08:16:18.729Z</time></trkpt><trkpt lat="42.9203567" lon="2.71918"><ele>299.5</ele><time>2026-04-26T08:16:19.728Z</time></trkpt><trkpt lat="42.9202467" lon="2.7191483"><ele>298.0</ele><time>2026-04-26T08:16:20.729Z</time></trkpt><trkpt lat="42.9201317" lon="2.7191133"><ele>296.75</ele><time>2026-04-26T08:16:21.728Z</time></trkpt><trkpt lat="42.92001" lon="2.7191033"><ele>295.5</ele><time>2026-04-26T08:16:22.729Z</time></trkpt><trkpt lat="42.919885" lon="2.7191133"><ele>294.25</ele><time>2026-04-26T08:16:23.736Z</time></trkpt><trkpt lat="42.919765" lon="2.7191283"><ele>293.0</ele><time>2026-04-26T08:16:24.729Z</time></trkpt><trkpt lat="42.9196483" lon="2.7191467"><ele>293.0</ele><time>2026-04-26T08:16:25.729Z</time></trkpt><trkpt lat="42.9195383" lon="2.7191717"><ele>293.0</ele><time>2026-04-26T08:16:26.73Z</time></trkpt><trkpt lat="42.919435" lon="2.719195"><ele>293.0</ele><time>2026-04-26T08:16:27.728Z</time></trkpt><trkpt lat="42.9193333" lon="2.71922"><ele>293.0</ele><time>2026-04-26T08:16:28.728Z</time></trkpt><trkpt lat="42.919235" lon="2.7192333"><ele>293.0</ele><time>2026-04-26T08:16:29.729Z</time></trkpt><trkpt lat="42.9191483" lon="2.7192483"><ele>290.83333333333337</ele><time>2026-04-26T08:16:30.728Z</time></trkpt><trkpt lat="42.9190717" lon="2.7192633"><ele>288.6666666666667</ele><time>2026-04-26T08:16:31.728Z</time></trkpt><trkpt lat="42.9190017" lon="2.7192767"><ele>286.5</ele><time>2026-04-26T08:16:32.728Z</time></trkpt><trkpt lat="42.9189383" lon="2.71929"><ele>284.3333333333333</ele><time>2026-04-26T08:16:33.728Z</time></trkpt><trkpt lat="42.91883" lon="2.7193367"><ele>282.16666666666663</ele><time>2026-04-26T08:16:35.73Z</time></trkpt><trkpt lat="42.9187767" lon="2.71928"><ele>280.0</ele><time>2026-04-26T08:16:38.729Z</time></trkpt><trkpt lat="42.91882" lon="2.7191817"><ele>280.0</ele><time>2026-04-26T08:16:40.728Z</time></trkpt><trkpt lat="42.91886" lon="2.7191133"><ele>280.0</ele><time>2026-04-26T08:16:41.73Z</time></trkpt><trkpt lat="42.9189017" lon="2.7190117"><ele>280.0</ele><time>2026-04-26T08:16:42.727Z</time></trkpt><trkpt lat="42.9189517" lon="2.7189233"><ele>280.0</ele><time>2026-04-26T08:16:43.727Z</time></trkpt><trkpt lat="42.9190033" lon="2.7188633"><ele>280.0</ele><time>2026-04-26T08:16:44.727Z</time></trkpt><trkpt lat="42.919075" lon="2.7187733"><ele>280.0</ele><time>2026-04-26T08:16:46.727Z</time></trkpt><trkpt lat="42.9190817" lon="2.7186817"><ele>280.0</ele><time>2026-04-26T08:16:48.731Z</time></trkpt><trkpt lat="42.9190233" lon="2.7186083"><ele>280.0</ele><time>2026-04-26T08:16:50.73Z</time></trkpt><trkpt lat="42.91896" lon="2.7185883"><ele>280.0</ele><time>2026-04-26T08:16:51.729Z</time></trkpt><trkpt lat="42.9188833" lon="2.718565"><ele>280.0</ele><time>2026-04-26T08:16:52.728Z</time></trkpt><trkpt lat="42.9188067" lon="2.7185183"><ele>280.0</ele><time>2026-04-26T08:16:53.729Z</time></trkpt><trkpt lat="42.918735" lon="2.718465"><ele>280.0</ele><time>2026-04-26T08:16:54.73Z</time></trkpt><trkpt lat="42.918665" lon="2.718415"><ele>277.16666666666663</ele><time>2026-04-26T08:16:55.728Z</time></trkpt><trkpt lat="42.9185883" lon="2.7183667"><ele>274.3333333333333</ele><time>2026-04-26T08:16:56.729Z</time></trkpt><trkpt lat="42.918515" lon="2.7183083"><ele>271.5</ele><time>2026-04-26T08:16:57.733Z</time></trkpt><trkpt lat="42.9184433" lon="2.7182367"><ele>268.6666666666667</ele><time>2026-04-26T08:16:58.729Z</time></trkpt><trkpt lat="42.91838" lon="2.7181533"><ele>265.83333333333337</ele><time>2026-04-26T08:16:59.729Z</time></trkpt><trkpt lat="42.9183133" lon="2.7180833"><ele>263.0</ele><time>2026-04-26T08:17:00.728Z</time></trkpt><trkpt lat="42.9182417" lon="2.7180133"><ele>260.2</ele><time>2026-04-26T08:17:01.731Z</time></trkpt><trkpt lat="42.91817" lon="2.7179333"><ele>257.4</ele><time>2026-04-26T08:17:02.729Z</time></trkpt><trkpt lat="42.9180983" lon="2.7178483"><ele>254.59999999999997</ele><time>2026-04-26T08:17:03.73Z</time></trkpt><trkpt lat="42.9180233" lon="2.7177717"><ele>251.79999999999998</ele><time>2026-04-26T08:17:04.728Z</time></trkpt><trkpt lat="42.9179417" lon="2.7176917"><ele>249.0</ele><time>2026-04-26T08:17:05.729Z</time></trkpt><trkpt lat="42.9178633" lon="2.7176167"><ele>248.0</ele><time>2026-04-26T08:17:06.727Z</time></trkpt><trkpt lat="42.9177883" lon="2.7175383"><ele>246.99999999999997</ele><time>2026-04-26T08:17:07.729Z</time></trkpt><trkpt lat="42.9177067" lon="2.7174733"><ele>245.99999999999997</ele><time>2026-04-26T08:17:08.728Z</time></trkpt><trkpt lat="42.9176183" lon="2.71741"><ele>245.0</ele><time>2026-04-26T08:17:09.73Z</time></trkpt><trkpt lat="42.9175383" lon="2.7173417"><ele>244.0</ele><time>2026-04-26T08:17:10.729Z</time></trkpt><trkpt lat="42.91746" lon="2.7172683"><ele>241.6</ele><time>2026-04-26T08:17:11.729Z</time></trkpt><trkpt lat="42.9173983" lon="2.71719"><ele>239.2</ele><time>2026-04-26T08:17:12.729Z</time></trkpt><trkpt lat="42.9173483" lon="2.7171083"><ele>236.79999999999998</ele><time>2026-04-26T08:17:13.729Z</time></trkpt><trkpt lat="42.9173133" lon="2.7170367"><ele>234.39999999999998</ele><time>2026-04-26T08:17:14.728Z</time></trkpt><trkpt lat="42.91725" lon="2.716895"><ele>232.0</ele><time>2026-04-26T08:17:16.728Z</time></trkpt><trkpt lat="42.9171533" lon="2.7168033"><ele>231.99999999999997</ele><time>2026-04-26T08:17:18.731Z</time></trkpt><trkpt lat="42.917085" lon="2.7167767"><ele>232.0</ele><time>2026-04-26T08:17:19.729Z</time></trkpt><trkpt lat="42.9170067" lon="2.71678"><ele>232.0</ele><time>2026-04-26T08:17:20.731Z</time></trkpt><trkpt lat="42.9169267" lon="2.7168183"><ele>232.0</ele><time>2026-04-26T08:17:21.73Z</time></trkpt><trkpt lat="42.9168567" lon="2.7168633"><ele>231.99999999999997</ele><time>2026-04-26T08:17:22.73Z</time></trkpt><trkpt lat="42.91678" lon="2.716995"><ele>232.0</ele><time>2026-04-26T08:17:24.73Z</time></trkpt><trkpt lat="42.9167933" lon="2.7171167"><ele>232.0</ele><time>2026-04-26T08:17:25.729Z</time></trkpt><trkpt lat="42.9168167" lon="2.7172267"><ele>232.0</ele><time>2026-04-26T08:17:26.729Z</time></trkpt><trkpt lat="42.9168333" lon="2.7173317"><ele>232.0</ele><time>2026-04-26T08:17:27.728Z</time></trkpt><trkpt lat="42.9168117" lon="2.7174683"><ele>232.0</ele><time>2026-04-26T08:17:29.73Z</time></trkpt><trkpt lat="42.9167317" lon="2.71747"><ele>232.0</ele><time>2026-04-26T08:17:31.729Z</time></trkpt><trkpt lat="42.9166583" lon="2.7173467"><ele>229.16666666666666</ele><time>2026-04-26T08:17:33.728Z</time></trkpt><trkpt lat="42.9166317" lon="2.7172483"><ele>226.33333333333331</ele><time>2026-04-26T08:17:34.73Z</time></trkpt><trkpt lat="42.9165983" lon="2.7171467"><ele>223.5</ele><time>2026-04-26T08:17:35.728Z</time></trkpt><trkpt lat="42.9165533" lon="2.7170567"><ele>220.66666666666669</ele><time>2026-04-26T08:17:36.727Z</time></trkpt><trkpt lat="42.9165017" lon="2.7169817"><ele>217.83333333333334</ele><time>2026-04-26T08:17:37.729Z</time></trkpt><trkpt lat="42.91644" lon="2.7169183"><ele>215.0</ele><time>2026-04-26T08:17:38.728Z</time></trkpt><trkpt lat="42.9163817" lon="2.7168633"><ele>213.83333333333334</ele><time>2026-04-26T08:17:39.728Z</time></trkpt><trkpt lat="42.9163283" lon="2.7168167"><ele>212.66666666666669</ele><time>2026-04-26T08:17:40.727Z</time></trkpt><trkpt lat="42.91621" lon="2.7167533"><ele>211.5</ele><time>2026-04-26T08:17:42.727Z</time></trkpt><trkpt lat="42.9161333" lon="2.7167283"><ele>210.33333333333331</ele><time>2026-04-26T08:17:43.729Z</time></trkpt><trkpt lat="42.9160467" lon="2.7167033"><ele>209.16666666666666</ele><time>2026-04-26T08:17:44.729Z</time></trkpt><trkpt lat="42.91597" lon="2.7166633"><ele>208.0</ele><time>2026-04-26T08:17:45.728Z</time></trkpt><trkpt lat="42.9159117" lon="2.716615"><ele>206.0</ele><time>2026-04-26T08:17:46.728Z</time></trkpt><trkpt lat="42.91587" lon="2.716545"><ele>204.0</ele><time>2026-04-26T08:17:47.728Z</time></trkpt><trkpt lat="42.915845" lon="2.71645"><ele>202.0</ele><time>2026-04-26T08:17:48.728Z</time></trkpt><trkpt lat="42.9158233" lon="2.7163117"><ele>200.0</ele><time>2026-04-26T08:17:49.729Z</time></trkpt><trkpt lat="42.9158" lon="2.7161633"><ele>198.0</ele><time>2026-04-26T08:17:50.729Z</time></trkpt><trkpt lat="42.9157733" lon="2.7160017"><ele>196.5</ele><time>2026-04-26T08:17:51.729Z</time></trkpt><trkpt lat="42.9157467" lon="2.7158317"><ele>195.0</ele><time>2026-04-26T08:17:52.729Z</time></trkpt><trkpt lat="42.9157167" lon="2.715655"><ele>193.5</ele><time>2026-04-26T08:17:53.732Z</time></trkpt><trkpt lat="42.9156883" lon="2.71548"><ele>192.0</ele><time>2026-04-26T08:17:54.729Z</time></trkpt><trkpt lat="42.9156583" lon="2.71532"><ele>191.2</ele><time>2026-04-26T08:17:55.728Z</time></trkpt><trkpt lat="42.915635" lon="2.7151717"><ele>190.39999999999998</ele><time>2026-04-26T08:17:56.73Z</time></trkpt><trkpt lat="42.9156083" lon="2.71503"><ele>189.60000000000002</ele><time>2026-04-26T08:17:57.728Z</time></trkpt><trkpt lat="42.9155817" lon="2.71489"><ele>188.8</ele><time>2026-04-26T08:17:58.728Z</time></trkpt><trkpt lat="42.9155567" lon="2.7147617"><ele>188.0</ele><time>2026-04-26T08:17:59.727Z</time></trkpt><trkpt lat="42.9155317" lon="2.7146467"><ele>188.0</ele><time>2026-04-26T08:18:00.728Z</time></trkpt><trkpt lat="42.915505" lon="2.714545"><ele>188.0</ele><time>2026-04-26T08:18:01.729Z</time></trkpt><trkpt lat="42.9154467" lon="2.7144817"><ele>188.0</ele><time>2026-04-26T08:18:02.729Z</time></trkpt><trkpt lat="42.91536" lon="2.7144433"><ele>188.0</ele><time>2026-04-26T08:18:03.728Z</time></trkpt><trkpt lat="42.915255" lon="2.7144267"><ele>188.0</ele><time>2026-04-26T08:18:04.729Z</time></trkpt><trkpt lat="42.9151333" lon="2.7144367"><ele>188.0</ele><time>2026-04-26T08:18:05.728Z</time></trkpt><trkpt lat="42.91501" lon="2.71446"><ele>188.0</ele><time>2026-04-26T08:18:06.728Z</time></trkpt><trkpt lat="42.91489" lon="2.714495"><ele>188.0</ele><time>2026-04-26T08:18:07.728Z</time></trkpt><trkpt lat="42.9147783" lon="2.7145333"><ele>188.0</ele><time>2026-04-26T08:18:08.728Z</time></trkpt><trkpt lat="42.9146817" lon="2.71457"><ele>188.0</ele><time>2026-04-26T08:18:09.728Z</time></trkpt><trkpt lat="42.9146" lon="2.714595"><ele>188.0</ele><time>2026-04-26T08:18:10.729Z</time></trkpt><trkpt lat="42.9145267" lon="2.71461"><ele>188.0</ele><time>2026-04-26T08:18:11.728Z</time></trkpt><trkpt lat="42.91446" lon="2.71461"><ele>188.0</ele><time>2026-04-26T08:18:12.727Z</time></trkpt><trkpt lat="42.9143917" lon="2.714565"><ele>188.0</ele><time>2026-04-26T08:18:14.731Z</time></trkpt><trkpt lat="42.9144033" lon="2.71446"><ele>188.0</ele><time>2026-04-26T08:18:16.729Z</time></trkpt><trkpt lat="42.9144983" lon="2.71433"><ele>187.8</ele><time>2026-04-26T08:18:18.728Z</time></trkpt><trkpt lat="42.91458" lon="2.714285"><ele>187.60000000000002</ele><time>2026-04-26T08:18:19.728Z</time></trkpt><trkpt lat="42.9146833" lon="2.7142317"><ele>187.39999999999998</ele><time>2026-04-26T08:18:20.729Z</time></trkpt><trkpt lat="42.914795" lon="2.7141783"><ele>187.2</ele><time>2026-04-26T08:18:21.727Z</time></trkpt><trkpt lat="42.914915" lon="2.7141383"><ele>187.0</ele><time>2026-04-26T08:18:22.728Z</time></trkpt><trkpt lat="42.9150433" lon="2.7141133"><ele>187.25</ele><time>2026-04-26T08:18:23.727Z</time></trkpt><trkpt lat="42.9151767" lon="2.714115"><ele>187.5</ele><time>2026-04-26T08:18:24.729Z</time></trkpt><trkpt lat="42.9153183" lon="2.7141283"><ele>187.75</ele><time>2026-04-26T08:18:25.728Z</time></trkpt><trkpt lat="42.9154667" lon="2.714145"><ele>188.0</ele><time>2026-04-26T08:18:26.727Z</time></trkpt><trkpt lat="42.9156183" lon="2.7141633"><ele>188.0</ele><time>2026-04-26T08:18:27.727Z</time></trkpt><trkpt lat="42.9157683" lon="2.7141867"><ele>188.0</ele><time>2026-04-26T08:18:28.727Z</time></trkpt><trkpt lat="42.9159233" lon="2.7142117"><ele>188.0</ele><time>2026-04-26T08:18:29.729Z</time></trkpt><trkpt lat="42.91608" lon="2.7142467"><ele>188.0</ele><time>2026-04-26T08:18:30.73Z</time></trkpt><trkpt lat="42.916235" lon="2.7142917"><ele>188.0</ele><time>2026-04-26T08:18:31.728Z</time></trkpt><trkpt lat="42.91639" lon="2.7143483"><ele>188.0</ele><time>2026-04-26T08:18:32.73Z</time></trkpt><trkpt lat="42.91655" lon="2.714415"><ele>188.0</ele><time>2026-04-26T08:18:33.727Z</time></trkpt><trkpt lat="42.9166983" lon="2.71448"><ele>188.0</ele><time>2026-04-26T08:18:34.728Z</time></trkpt><trkpt lat="42.9168367" lon="2.7145517"><ele>188.0</ele><time>2026-04-26T08:18:35.729Z</time></trkpt><trkpt lat="42.916965" lon="2.7146283"><ele>188.0</ele><time>2026-04-26T08:18:36.73Z</time></trkpt><trkpt lat="42.9170833" lon="2.7147"><ele>189.0</ele><time>2026-04-26T08:18:37.728Z</time></trkpt><trkpt lat="42.917195" lon="2.7147583"><ele>190.0</ele><time>2026-04-26T08:18:38.728Z</time></trkpt><trkpt lat="42.9173067" lon="2.7147883"><ele>191.0</ele><time>2026-04-26T08:18:39.729Z</time></trkpt><trkpt lat="42.91741" lon="2.7147683"><ele>192.0</ele><time>2026-04-26T08:18:40.729Z</time></trkpt><trkpt lat="42.917495" lon="2.7146967"><ele>193.0</ele><time>2026-04-26T08:18:41.731Z</time></trkpt><trkpt lat="42.917555" lon="2.7145767"><ele>193.0</ele><time>2026-04-26T08:18:42.728Z</time></trkpt><trkpt lat="42.9175983" lon="2.7144317"><ele>193.0</ele><time>2026-04-26T08:18:43.728Z</time></trkpt><trkpt lat="42.9176417" lon="2.7142883"><ele>193.0</ele><time>2026-04-26T08:18:44.728Z</time></trkpt><trkpt lat="42.9176933" lon="2.7141567"><ele>193.0</ele><time>2026-04-26T08:18:45.728Z</time></trkpt><trkpt lat="42.91776" lon="2.71405"><ele>193.0</ele><time>2026-04-26T08:18:46.732Z</time></trkpt><trkpt lat="42.917835" lon="2.713985"><ele>193.0</ele><time>2026-04-26T08:18:47.727Z</time></trkpt><trkpt lat="42.9179167" lon="2.7139483"><ele>193.0</ele><time>2026-04-26T08:18:48.729Z</time></trkpt><trkpt lat="42.918" lon="2.7139083"><ele>193.0</ele><time>2026-04-26T08:18:49.729Z</time></trkpt><trkpt lat="42.918085" lon="2.71387"><ele>193.0</ele><time>2026-04-26T08:18:50.728Z</time></trkpt><trkpt lat="42.9181767" lon="2.7138383"><ele>193.0</ele><time>2026-04-26T08:18:51.731Z</time></trkpt><trkpt lat="42.918275" lon="2.713805"><ele>193.0</ele><time>2026-04-26T08:18:52.73Z</time></trkpt><trkpt lat="42.9183817" lon="2.7137683"><ele>193.0</ele><time>2026-04-26T08:18:53.729Z</time></trkpt><trkpt lat="42.9184917" lon="2.713735"><ele>193.0</ele><time>2026-04-26T08:18:54.728Z</time></trkpt><trkpt lat="42.918605" lon="2.7137133"><ele>193.0</ele><time>2026-04-26T08:18:55.729Z</time></trkpt><trkpt lat="42.9187133" lon="2.7136983"><ele>193.0</ele><time>2026-04-26T08:18:56.728Z</time></trkpt><trkpt lat="42.9188233" lon="2.7136833"><ele>193.4</ele><time>2026-04-26T08:18:57.729Z</time></trkpt><trkpt lat="42.9189317" lon="2.71367"><ele>193.8</ele><time>2026-04-26T08:18:58.729Z</time></trkpt><trkpt lat="42.91904" lon="2.71364"><ele>194.2</ele><time>2026-04-26T08:18:59.728Z</time></trkpt><trkpt lat="42.9191467" lon="2.71361"><ele>194.6</ele><time>2026-04-26T08:19:00.729Z</time></trkpt><trkpt lat="42.9192483" lon="2.713585"><ele>195.0</ele><time>2026-04-26T08:19:01.728Z</time></trkpt><trkpt lat="42.91934" lon="2.713555"><ele>197.0</ele><time>2026-04-26T08:19:02.728Z</time></trkpt><trkpt lat="42.9194167" lon="2.713515"><ele>199.0</ele><time>2026-04-26T08:19:03.73Z</time></trkpt><trkpt lat="42.9194733" lon="2.71343"><ele>201.0</ele><time>2026-04-26T08:19:04.729Z</time></trkpt><trkpt lat="42.9195117" lon="2.71331"><ele>203.0</ele><time>2026-04-26T08:19:05.728Z</time></trkpt><trkpt lat="42.9195383" lon="2.7131633"><ele>205.0</ele><time>2026-04-26T08:19:06.727Z</time></trkpt><trkpt lat="42.9195717" lon="2.713005"><ele>205.0</ele><time>2026-04-26T08:19:07.728Z</time></trkpt><trkpt lat="42.9196167" lon="2.7128467"><ele>205.0</ele><time>2026-04-26T08:19:08.727Z</time></trkpt><trkpt lat="42.9196683" lon="2.7127017"><ele>205.0</ele><time>2026-04-26T08:19:09.728Z</time></trkpt><trkpt lat="42.919715" lon="2.71258"><ele>205.0</ele><time>2026-04-26T08:19:10.728Z</time></trkpt><trkpt lat="42.91975" lon="2.7124717"><ele>205.0</ele><time>2026-04-26T08:19:11.728Z</time></trkpt><trkpt lat="42.9197667" lon="2.71237"><ele>206.49999999999997</ele><time>2026-04-26T08:19:12.727Z</time></trkpt><trkpt lat="42.9197283" lon="2.712285"><ele>208.0</ele><time>2026-04-26T08:19:13.728Z</time></trkpt><trkpt lat="42.919665" lon="2.712215"><ele>209.5</ele><time>2026-04-26T08:19:14.728Z</time></trkpt><trkpt lat="42.91961" lon="2.7121517"><ele>211.0</ele><time>2026-04-26T08:19:15.729Z</time></trkpt><trkpt lat="42.9195983" lon="2.712"><ele>212.49999999999997</ele><time>2026-04-26T08:19:17.728Z</time></trkpt><trkpt lat="42.9196433" lon="2.7119283"><ele>214.0</ele><time>2026-04-26T08:19:18.727Z</time></trkpt><trkpt lat="42.91971" lon="2.711865"><ele>216.79999999999998</ele><time>2026-04-26T08:19:19.729Z</time></trkpt><trkpt lat="42.9197817" lon="2.71178"><ele>219.59999999999997</ele><time>2026-04-26T08:19:20.729Z</time></trkpt><trkpt lat="42.9198533" lon="2.7116833"><ele>222.4</ele><time>2026-04-26T08:19:21.729Z</time></trkpt><trkpt lat="42.9199233" lon="2.71157"><ele>225.2</ele><time>2026-04-26T08:19:22.728Z</time></trkpt><trkpt lat="42.9199883" lon="2.7114483"><ele>228.0</ele><time>2026-04-26T08:19:23.727Z</time></trkpt><trkpt lat="42.9200567" lon="2.7113267"><ele>228.2</ele><time>2026-04-26T08:19:24.728Z</time></trkpt><trkpt lat="42.9201233" lon="2.7111983"><ele>228.4</ele><time>2026-04-26T08:19:25.73Z</time></trkpt><trkpt lat="42.92018" lon="2.7110667"><ele>228.59999999999997</ele><time>2026-04-26T08:19:26.73Z</time></trkpt><trkpt lat="42.9202233" lon="2.7109317"><ele>228.79999999999998</ele><time>2026-04-26T08:19:27.729Z</time></trkpt><trkpt lat="42.9202433" lon="2.7107933"><ele>229.0</ele><time>2026-04-26T08:19:28.729Z</time></trkpt><trkpt lat="42.9202317" lon="2.710655"><ele>229.2</ele><time>2026-04-26T08:19:29.73Z</time></trkpt><trkpt lat="42.9201867" lon="2.7105267"><ele>229.39999999999998</ele><time>2026-04-26T08:19:30.729Z</time></trkpt><trkpt lat="42.9201267" lon="2.7104033"><ele>229.6</ele><time>2026-04-26T08:19:31.729Z</time></trkpt><trkpt lat="42.9200683" lon="2.710285"><ele>229.8</ele><time>2026-04-26T08:19:32.73Z</time></trkpt><trkpt lat="42.9200117" lon="2.7101917"><ele>230.0</ele><time>2026-04-26T08:19:33.731Z</time></trkpt><trkpt lat="42.9199467" lon="2.71013"><ele>232.66666666666669</ele><time>2026-04-26T08:19:34.727Z</time></trkpt><trkpt lat="42.9198733" lon="2.7100983"><ele>235.33333333333334</ele><time>2026-04-26T08:19:35.729Z</time></trkpt><trkpt lat="42.9197983" lon="2.7101233"><ele>238.0</ele><time>2026-04-26T08:19:36.728Z</time></trkpt><trkpt lat="42.919715" lon="2.7101633"><ele>240.66666666666669</ele><time>2026-04-26T08:19:37.731Z</time></trkpt><trkpt lat="42.9196233" lon="2.710185"><ele>243.33333333333334</ele><time>2026-04-26T08:19:38.729Z</time></trkpt><trkpt lat="42.9195333" lon="2.7101467"><ele>246.0</ele><time>2026-04-26T08:19:39.736Z</time></trkpt><trkpt lat="42.919445" lon="2.7100783"><ele>246.0</ele><time>2026-04-26T08:19:40.729Z</time></trkpt><trkpt lat="42.91936" lon="2.7099983"><ele>246.00000000000003</ele><time>2026-04-26T08:19:41.73Z</time></trkpt><trkpt lat="42.9192783" lon="2.70991"><ele>246.00000000000003</ele><time>2026-04-26T08:19:42.731Z</time></trkpt><trkpt lat="42.9191983" lon="2.709805"><ele>246.0</ele><time>2026-04-26T08:19:43.731Z</time></trkpt><trkpt lat="42.9191167" lon="2.7096867"><ele>246.0</ele><time>2026-04-26T08:19:44.731Z</time></trkpt><trkpt lat="42.9190367" lon="2.7095567"><ele>248.0</ele><time>2026-04-26T08:19:45.731Z</time></trkpt><trkpt lat="42.918955" lon="2.7094167"><ele>250.0</ele><time>2026-04-26T08:19:46.734Z</time></trkpt><trkpt lat="42.9188617" lon="2.7092717"><ele>252.0</ele><time>2026-04-26T08:19:47.731Z</time></trkpt><trkpt lat="42.9187583" lon="2.7091217"><ele>254.0</ele><time>2026-04-26T08:19:48.728Z</time></trkpt><trkpt lat="42.9186533" lon="2.70897"><ele>257.6666666666667</ele><time>2026-04-26T08:19:49.736Z</time></trkpt><trkpt lat="42.9185483" lon="2.7088183"><ele>261.3333333333333</ele><time>2026-04-26T08:19:50.728Z</time></trkpt><trkpt lat="42.9184417" lon="2.7086583"><ele>265.0</ele><time>2026-04-26T08:19:51.728Z</time></trkpt><trkpt lat="42.918335" lon="2.7084967"><ele>268.5</ele><time>2026-04-26T08:19:52.727Z</time></trkpt><trkpt lat="42.9182417" lon="2.7083367"><ele>272.0</ele><time>2026-04-26T08:19:53.728Z</time></trkpt><trkpt lat="42.9181633" lon="2.7081983"><ele>275.5</ele><time>2026-04-26T08:19:54.73Z</time></trkpt><trkpt lat="42.9180867" lon="2.70809"><ele>279.0</ele><time>2026-04-26T08:19:55.729Z</time></trkpt><trkpt lat="42.918" lon="2.7080183"><ele>279.0</ele><time>2026-04-26T08:19:56.728Z</time></trkpt><trkpt lat="42.917905" lon="2.70799"><ele>279.0</ele><time>2026-04-26T08:19:57.728Z</time></trkpt><trkpt lat="42.9178017" lon="2.7079883"><ele>279.0</ele><time>2026-04-26T08:19:58.729Z</time></trkpt><trkpt lat="42.9176967" lon="2.7079867"><ele>279.0</ele><time>2026-04-26T08:19:59.728Z</time></trkpt><trkpt lat="42.9176017" lon="2.7079583"><ele>279.0</ele><time>2026-04-26T08:20:00.734Z</time></trkpt><trkpt lat="42.91752" lon="2.7078967"><ele>280.59999999999997</ele><time>2026-04-26T08:20:01.728Z</time></trkpt><trkpt lat="42.917455" lon="2.7078017"><ele>282.2</ele><time>2026-04-26T08:20:02.729Z</time></trkpt><trkpt lat="42.9174017" lon="2.7076783"><ele>283.79999999999995</ele><time>2026-04-26T08:20:03.728Z</time></trkpt><trkpt lat="42.917365" lon="2.70753"><ele>285.4</ele><time>2026-04-26T08:20:04.729Z</time></trkpt><trkpt lat="42.9173433" lon="2.7073667"><ele>287.0</ele><time>2026-04-26T08:20:05.728Z</time></trkpt><trkpt lat="42.9173383" lon="2.7072133"><ele>288.75</ele><time>2026-04-26T08:20:06.729Z</time></trkpt><trkpt lat="42.91733" lon="2.7070767"><ele>290.5</ele><time>2026-04-26T08:20:07.727Z</time></trkpt><trkpt lat="42.9173" lon="2.70694"><ele>292.25</ele><time>2026-04-26T08:20:08.728Z</time></trkpt><trkpt lat="42.9172467" lon="2.70679"><ele>294.0</ele><time>2026-04-26T08:20:09.731Z</time></trkpt><trkpt lat="42.91719" lon="2.7066367"><ele>295.0</ele><time>2026-04-26T08:20:10.729Z</time></trkpt><trkpt lat="42.91714" lon="2.706475"><ele>296.0</ele><time>2026-04-26T08:20:11.728Z</time></trkpt><trkpt lat="42.9170883" lon="2.70631"><ele>297.0</ele><time>2026-04-26T08:20:12.728Z</time></trkpt><trkpt lat="42.9170483" lon="2.7061433"><ele>298.0</ele><time>2026-04-26T08:20:13.728Z</time></trkpt><trkpt lat="42.9170233" lon="2.705965"><ele>300.5</ele><time>2026-04-26T08:20:14.728Z</time></trkpt><trkpt lat="42.9170133" lon="2.705785"><ele>303.0</ele><time>2026-04-26T08:20:15.729Z</time></trkpt><trkpt lat="42.9170167" lon="2.7056217"><ele>305.5</ele><time>2026-04-26T08:20:16.729Z</time></trkpt><trkpt lat="42.9170233" lon="2.7054667"><ele>308.0</ele><time>2026-04-26T08:20:17.729Z</time></trkpt><trkpt lat="42.9170533" lon="2.7053167"><ele>310.0</ele><time>2026-04-26T08:20:18.729Z</time></trkpt><trkpt lat="42.9171017" lon="2.7051633"><ele>312.0</ele><time>2026-04-26T08:20:19.728Z</time></trkpt><trkpt lat="42.9171517" lon="2.7050133"><ele>314.0</ele><time>2026-04-26T08:20:20.732Z</time></trkpt><trkpt lat="42.9171933" lon="2.70488"><ele>316.0</ele><time>2026-04-26T08:20:21.727Z</time></trkpt><trkpt lat="42.91722" lon="2.7047667"><ele>318.0</ele><time>2026-04-26T08:20:22.727Z</time></trkpt><trkpt lat="42.9172233" lon="2.7046667"><ele>318.0</ele><time>2026-04-26T08:20:23.728Z</time></trkpt><trkpt lat="42.91721" lon="2.7045617"><ele>318.0</ele><time>2026-04-26T08:20:24.728Z</time></trkpt><trkpt lat="42.9171767" lon="2.7044367"><ele>318.0</ele><time>2026-04-26T08:20:25.73Z</time></trkpt><trkpt lat="42.91715" lon="2.704305"><ele>318.0</ele><time>2026-04-26T08:20:26.727Z</time></trkpt><trkpt lat="42.91715" lon="2.7041817"><ele>318.0</ele><time>2026-04-26T08:20:27.727Z</time></trkpt><trkpt lat="42.9171767" lon="2.704065"><ele>321.0</ele><time>2026-04-26T08:20:28.727Z</time></trkpt><trkpt lat="42.917235" lon="2.703955"><ele>324.0</ele><time>2026-04-26T08:20:29.727Z</time></trkpt><trkpt lat="42.9173183" lon="2.7038483"><ele>327.0</ele><time>2026-04-26T08:20:30.73Z</time></trkpt><trkpt lat="42.9174067" lon="2.7037417"><ele>330.0</ele><time>2026-04-26T08:20:31.727Z</time></trkpt><trkpt lat="42.9174833" lon="2.703625"><ele>333.0</ele><time>2026-04-26T08:20:32.729Z</time></trkpt><trkpt lat="42.9175483" lon="2.7035033"><ele>335.4</ele><time>2026-04-26T08:20:33.729Z</time></trkpt><trkpt lat="42.917595" lon="2.7033933"><ele>337.79999999999995</ele><time>2026-04-26T08:20:34.729Z</time></trkpt><trkpt lat="42.9176217" lon="2.7033033"><ele>340.2</ele><time>2026-04-26T08:20:35.73Z</time></trkpt><trkpt lat="42.9176167" lon="2.7031767"><ele>342.6</ele><time>2026-04-26T08:20:37.729Z</time></trkpt><trkpt lat="42.9175483" lon="2.7031067"><ele>345.0</ele><time>2026-04-26T08:20:39.732Z</time></trkpt><trkpt lat="42.91742" lon="2.70309"><ele>345.0</ele><time>2026-04-26T08:20:41.729Z</time></trkpt><trkpt lat="42.9173417" lon="2.7031"><ele>345.0</ele><time>2026-04-26T08:20:42.727Z</time></trkpt><trkpt lat="42.9172533" lon="2.70312"><ele>345.0</ele><time>2026-04-26T08:20:43.729Z</time></trkpt><trkpt lat="42.917145" lon="2.7031517"><ele>345.0</ele><time>2026-04-26T08:20:44.729Z</time></trkpt><trkpt lat="42.9170217" lon="2.7031883"><ele>345.0</ele><time>2026-04-26T08:20:45.728Z</time></trkpt><trkpt lat="42.9168867" lon="2.7032283"><ele>345.0</ele><time>2026-04-26T08:20:46.727Z</time></trkpt><trkpt lat="42.9167483" lon="2.7032633"><ele>345.0</ele><time>2026-04-26T08:20:47.728Z</time></trkpt><trkpt lat="42.9166167" lon="2.70328"><ele>345.0</ele><time>2026-04-26T08:20:48.727Z</time></trkpt><trkpt lat="42.9164783" lon="2.7032783"><ele>345.0</ele><time>2026-04-26T08:20:49.728Z</time></trkpt><trkpt lat="42.9163283" lon="2.70327"><ele>346.75</ele><time>2026-04-26T08:20:50.73Z</time></trkpt><trkpt lat="42.91618" lon="2.7032767"><ele>348.5</ele><time>2026-04-26T08:20:51.727Z</time></trkpt><trkpt lat="42.91604" lon="2.7033067"><ele>350.25</ele><time>2026-04-26T08:20:52.727Z</time></trkpt><trkpt lat="42.915915" lon="2.7033483"><ele>352.0</ele><time>2026-04-26T08:20:53.73Z</time></trkpt><trkpt lat="42.9158" lon="2.7034067"><ele>353.0</ele><time>2026-04-26T08:20:54.728Z</time></trkpt><trkpt lat="42.9156983" lon="2.703465"><ele>354.0</ele><time>2026-04-26T08:20:55.729Z</time></trkpt><trkpt lat="42.9156017" lon="2.7035033"><ele>355.0</ele><time>2026-04-26T08:20:56.728Z</time></trkpt><trkpt lat="42.915495" lon="2.7035117"><ele>356.0</ele><time>2026-04-26T08:20:57.73Z</time></trkpt><trkpt lat="42.9153717" lon="2.7034983"><ele>357.0</ele><time>2026-04-26T08:20:58.729Z</time></trkpt><trkpt lat="42.915235" lon="2.7034733"><ele>357.0</ele><time>2026-04-26T08:20:59.728Z</time></trkpt><trkpt lat="42.915095" lon="2.70345"><ele>357.0</ele><time>2026-04-26T08:21:00.73Z</time></trkpt><trkpt lat="42.9149483" lon="2.70344"><ele>357.0</ele><time>2026-04-26T08:21:01.728Z</time></trkpt><trkpt lat="42.9148" lon="2.7034633"><ele>357.0</ele><time>2026-04-26T08:21:02.728Z</time></trkpt><trkpt lat="42.914655" lon="2.7035217"><ele>351.6666666666667</ele><time>2026-04-26T08:21:03.729Z</time></trkpt><trkpt lat="42.9145117" lon="2.703605"><ele>346.33333333333337</ele><time>2026-04-26T08:21:04.727Z</time></trkpt><trkpt lat="42.9143733" lon="2.7037017"><ele>341.0</ele><time>2026-04-26T08:21:05.729Z</time></trkpt><trkpt lat="42.914245" lon="2.703815"><ele>342.0</ele><time>2026-04-26T08:21:06.728Z</time></trkpt><trkpt lat="42.9141233" lon="2.7039317"><ele>343.0</ele><time>2026-04-26T08:21:07.732Z</time></trkpt><trkpt lat="42.9140083" lon="2.7040417"><ele>344.0</ele><time>2026-04-26T08:21:08.728Z</time></trkpt><trkpt lat="42.9138817" lon="2.7041483"><ele>345.0</ele><time>2026-04-26T08:21:09.728Z</time></trkpt><trkpt lat="42.913745" lon="2.70424"><ele>345.0</ele><time>2026-04-26T08:21:10.732Z</time></trkpt><trkpt lat="42.9136133" lon="2.70431"><ele>345.0</ele><time>2026-04-26T08:21:11.729Z</time></trkpt><trkpt lat="42.9134883" lon="2.70436"><ele>345.0</ele><time>2026-04-26T08:21:12.728Z</time></trkpt><trkpt lat="42.913375" lon="2.70442"><ele>345.0</ele><time>2026-04-26T08:21:13.728Z</time></trkpt><trkpt lat="42.9132733" lon="2.70452"><ele>346.25</ele><time>2026-04-26T08:21:14.729Z</time></trkpt><trkpt lat="42.9131833" lon="2.7046517"><ele>347.5</ele><time>2026-04-26T08:21:15.732Z</time></trkpt><trkpt lat="42.9130883" lon="2.7047983"><ele>348.75</ele><time>2026-04-26T08:21:16.727Z</time></trkpt><trkpt lat="42.9129883" lon="2.704945"><ele>350.0</ele><time>2026-04-26T08:21:17.728Z</time></trkpt><trkpt lat="42.9128967" lon="2.7050933"><ele>350.0</ele><time>2026-04-26T08:21:18.728Z</time></trkpt><trkpt lat="42.9128033" lon="2.705225"><ele>350.0</ele><time>2026-04-26T08:21:19.729Z</time></trkpt><trkpt lat="42.9126983" lon="2.7053433"><ele>350.0</ele><time>2026-04-26T08:21:20.728Z</time></trkpt><trkpt lat="42.9125833" lon="2.7054283"><ele>350.0</ele><time>2026-04-26T08:21:21.727Z</time></trkpt><trkpt lat="42.9124767" lon="2.7054817"><ele>352.0</ele><time>2026-04-26T08:21:22.729Z</time></trkpt><trkpt lat="42.9123867" lon="2.705505"><ele>354.0</ele><time>2026-04-26T08:21:23.728Z</time></trkpt><trkpt lat="42.9123117" lon="2.705515"><ele>356.0</ele><time>2026-04-26T08:21:24.728Z</time></trkpt><trkpt lat="42.9122483" lon="2.70552"><ele>358.0</ele><time>2026-04-26T08:21:25.729Z</time></trkpt><trkpt lat="42.9121617" lon="2.7055433"><ele>360.0</ele><time>2026-04-26T08:21:27.73Z</time></trkpt><trkpt lat="42.912095" lon="2.7056467"><ele>362.0</ele><time>2026-04-26T08:21:29.729Z</time></trkpt><trkpt lat="42.9120317" lon="2.705775"><ele>362.0</ele><time>2026-04-26T08:21:31.733Z</time></trkpt><trkpt lat="42.91195" lon="2.705895"><ele>362.0</ele><time>2026-04-26T08:21:33.729Z</time></trkpt><trkpt lat="42.9118367" lon="2.7059317"><ele>362.0</ele><time>2026-04-26T08:21:35.73Z</time></trkpt><trkpt lat="42.91177" lon="2.7059117"><ele>362.0</ele><time>2026-04-26T08:21:36.729Z</time></trkpt><trkpt lat="42.9117" lon="2.7058783"><ele>362.0</ele><time>2026-04-26T08:21:37.728Z</time></trkpt><trkpt lat="42.911635" lon="2.7058433"><ele>362.0</ele><time>2026-04-26T08:21:38.729Z</time></trkpt><trkpt lat="42.9115767" lon="2.7057967"><ele>362.42857142857144</ele><time>2026-04-26T08:21:39.733Z</time></trkpt><trkpt lat="42.9115267" lon="2.7057317"><ele>362.85714285714283</ele><time>2026-04-26T08:21:40.727Z</time></trkpt><trkpt lat="42.91148" lon="2.7056583"><ele>363.28571428571433</ele><time>2026-04-26T08:21:41.729Z</time></trkpt><trkpt lat="42.9114367" lon="2.7055883"><ele>363.7142857142857</ele><time>2026-04-26T08:21:42.731Z</time></trkpt><trkpt lat="42.9113883" lon="2.7055183"><ele>364.14285714285717</ele><time>2026-04-26T08:21:43.728Z</time></trkpt><trkpt lat="42.9113267" lon="2.70546"><ele>364.5714285714286</ele><time>2026-04-26T08:21:44.729Z</time></trkpt><trkpt lat="42.9112467" lon="2.7054133"><ele>365.0</ele><time>2026-04-26T08:21:45.734Z</time></trkpt><trkpt lat="42.91116" lon="2.7053817"><ele>365.0</ele><time>2026-04-26T08:21:46.729Z</time></trkpt><trkpt lat="42.9110617" lon="2.7053533"><ele>365.0</ele><time>2026-04-26T08:21:47.728Z</time></trkpt><trkpt lat="42.91095" lon="2.7053267"><ele>365.0</ele><time>2026-04-26T08:21:48.73Z</time></trkpt><trkpt lat="42.9108383" lon="2.7053017"><ele>365.0</ele><time>2026-04-26T08:21:49.729Z</time></trkpt><trkpt lat="42.9107317" lon="2.7052767"><ele>365.0</ele><time>2026-04-26T08:21:50.73Z</time></trkpt><trkpt lat="42.910635" lon="2.7052533"><ele>365.83333333333337</ele><time>2026-04-26T08:21:51.729Z</time></trkpt><trkpt lat="42.910545" lon="2.7052333"><ele>366.6666666666667</ele><time>2026-04-26T08:21:52.728Z</time></trkpt><trkpt lat="42.9104617" lon="2.7052233"><ele>367.5</ele><time>2026-04-26T08:21:53.728Z</time></trkpt><trkpt lat="42.9103783" lon="2.705225"><ele>368.3333333333333</ele><time>2026-04-26T08:21:54.728Z</time></trkpt><trkpt lat="42.9102983" lon="2.70523"><ele>369.16666666666663</ele><time>2026-04-26T08:21:55.728Z</time></trkpt><trkpt lat="42.9102183" lon="2.705235"><ele>370.0</ele><time>2026-04-26T08:21:56.729Z</time></trkpt><trkpt lat="42.9101433" lon="2.705235"><ele>368.3333333333333</ele><time>2026-04-26T08:21:57.729Z</time></trkpt><trkpt lat="42.9100683" lon="2.7052383"><ele>366.66666666666663</ele><time>2026-04-26T08:21:58.729Z</time></trkpt><trkpt lat="42.9099983" lon="2.705245"><ele>365.0</ele><time>2026-04-26T08:21:59.73Z</time></trkpt><trkpt lat="42.909935" lon="2.7052567"><ele>363.3333333333333</ele><time>2026-04-26T08:22:00.729Z</time></trkpt><trkpt lat="42.909825" lon="2.705285"><ele>361.6666666666667</ele><time>2026-04-26T08:22:02.731Z</time></trkpt><trkpt lat="42.9097483" lon="2.705265"><ele>360.0</ele><time>2026-04-26T08:22:04.729Z</time></trkpt><trkpt lat="42.909655" lon="2.70521"><ele>360.0</ele><time>2026-04-26T08:22:06.73Z</time></trkpt><trkpt lat="42.909595" lon="2.7051617"><ele>360.0</ele><time>2026-04-26T08:22:07.728Z</time></trkpt><trkpt lat="42.909535" lon="2.7051033"><ele>360.0</ele><time>2026-04-26T08:22:08.728Z</time></trkpt><trkpt lat="42.9094783" lon="2.7050433"><ele>360.0</ele><time>2026-04-26T08:22:09.728Z</time></trkpt><trkpt lat="42.909425" lon="2.70498"><ele>360.0</ele><time>2026-04-26T08:22:10.728Z</time></trkpt><trkpt lat="42.9093733" lon="2.7049183"><ele>360.0</ele><time>2026-04-26T08:22:11.728Z</time></trkpt><trkpt lat="42.9093267" lon="2.70485"><ele>360.0</ele><time>2026-04-26T08:22:12.729Z</time></trkpt><trkpt lat="42.9092817" lon="2.70478"><ele>356.5</ele><time>2026-04-26T08:22:13.73Z</time></trkpt><trkpt lat="42.9092317" lon="2.7047133"><ele>353.0</ele><time>2026-04-26T08:22:14.728Z</time></trkpt><trkpt lat="42.90918" lon="2.7046533"><ele>349.5</ele><time>2026-04-26T08:22:15.728Z</time></trkpt><trkpt lat="42.9091283" lon="2.7045967"><ele>346.0</ele><time>2026-04-26T08:22:16.729Z</time></trkpt><trkpt lat="42.9090083" lon="2.7045467"><ele>342.5</ele><time>2026-04-26T08:22:18.728Z</time></trkpt><trkpt lat="42.9089367" lon="2.7045633"><ele>339.0</ele><time>2026-04-26T08:22:19.729Z</time></trkpt><trkpt lat="42.9088717" lon="2.7045867"><ele>339.0</ele><time>2026-04-26T08:22:20.729Z</time></trkpt><trkpt lat="42.9088067" lon="2.70462"><ele>339.0</ele><time>2026-04-26T08:22:21.729Z</time></trkpt><trkpt lat="42.90874" lon="2.7046483"><ele>339.0</ele><time>2026-04-26T08:22:22.727Z</time></trkpt><trkpt lat="42.908665" lon="2.7046617"><ele>339.0</ele><time>2026-04-26T08:22:23.728Z</time></trkpt><trkpt lat="42.908585" lon="2.70465"><ele>339.0</ele><time>2026-04-26T08:22:24.729Z</time></trkpt><trkpt lat="42.9084983" lon="2.7046133"><ele>339.0</ele><time>2026-04-26T08:22:25.729Z</time></trkpt><trkpt lat="42.9084217" lon="2.70455"><ele>338.1666666666667</ele><time>2026-04-26T08:22:26.728Z</time></trkpt><trkpt lat="42.9083533" lon="2.7044667"><ele>337.3333333333333</ele><time>2026-04-26T08:22:27.728Z</time></trkpt><trkpt lat="42.908295" lon="2.7043717"><ele>336.5</ele><time>2026-04-26T08:22:28.727Z</time></trkpt><trkpt lat="42.908245" lon="2.704265"><ele>335.66666666666663</ele><time>2026-04-26T08:22:29.73Z</time></trkpt><trkpt lat="42.9081967" lon="2.704165"><ele>334.8333333333333</ele><time>2026-04-26T08:22:30.728Z</time></trkpt><trkpt lat="42.9081417" lon="2.7040833"><ele>334.0</ele><time>2026-04-26T08:22:31.729Z</time></trkpt><trkpt lat="42.908085" lon="2.704015"><ele>334.0</ele><time>2026-04-26T08:22:32.729Z</time></trkpt><trkpt lat="42.908015" lon="2.7039783"><ele>334.0</ele><time>2026-04-26T08:22:33.727Z</time></trkpt><trkpt lat="42.907915" lon="2.703965"><ele>334.0</ele><time>2026-04-26T08:22:34.728Z</time></trkpt><trkpt lat="42.907795" lon="2.7039783"><ele>334.0</ele><time>2026-04-26T08:22:35.729Z</time></trkpt><trkpt lat="42.90768" lon="2.7039867"><ele>334.0</ele><time>2026-04-26T08:22:36.729Z</time></trkpt><trkpt lat="42.9075633" lon="2.7039933"><ele>332.3333333333333</ele><time>2026-04-26T08:22:37.729Z</time></trkpt><trkpt lat="42.90746" lon="2.7040017"><ele>330.66666666666663</ele><time>2026-04-26T08:22:38.728Z</time></trkpt><trkpt lat="42.90737" lon="2.7040217"><ele>329.0</ele><time>2026-04-26T08:22:39.728Z</time></trkpt><trkpt lat="42.907295" lon="2.7040667"><ele>327.3333333333333</ele><time>2026-04-26T08:22:40.728Z</time></trkpt><trkpt lat="42.907235" lon="2.7041367"><ele>325.6666666666667</ele><time>2026-04-26T08:22:41.73Z</time></trkpt><trkpt lat="42.907195" lon="2.704235"><ele>324.0</ele><time>2026-04-26T08:22:42.734Z</time></trkpt><trkpt lat="42.9071567" lon="2.7043267"><ele>324.0</ele><time>2026-04-26T08:22:43.729Z</time></trkpt><trkpt lat="42.9071183" lon="2.7043967"><ele>324.0</ele><time>2026-04-26T08:22:44.728Z</time></trkpt><trkpt lat="42.9070283" lon="2.70439"><ele>324.0</ele><time>2026-04-26T08:22:46.73Z</time></trkpt><trkpt lat="42.9069667" lon="2.704235"><ele>324.0</ele><time>2026-04-26T08:22:48.729Z</time></trkpt><trkpt lat="42.9069433" lon="2.7041117"><ele>324.0</ele><time>2026-04-26T08:22:49.729Z</time></trkpt><trkpt lat="42.9069133" lon="2.7039933"><ele>324.0</ele><time>2026-04-26T08:22:50.729Z</time></trkpt><trkpt lat="42.9068817" lon="2.7038817"><ele>324.0</ele><time>2026-04-26T08:22:51.729Z</time></trkpt><trkpt lat="42.9068333" lon="2.7038117"><ele>324.0</ele><time>2026-04-26T08:22:52.73Z</time></trkpt><trkpt lat="42.9067717" lon="2.7037817"><ele>324.0</ele><time>2026-04-26T08:22:53.728Z</time></trkpt><trkpt lat="42.9067033" lon="2.70378"><ele>324.0</ele><time>2026-04-26T08:22:54.732Z</time></trkpt><trkpt lat="42.906625" lon="2.70384"><ele>324.0</ele><time>2026-04-26T08:22:55.732Z</time></trkpt><trkpt lat="42.9065467" lon="2.7039233"><ele>323.79999999999995</ele><time>2026-04-26T08:22:56.73Z</time></trkpt><trkpt lat="42.906475" lon="2.70403"><ele>323.59999999999997</ele><time>2026-04-26T08:22:57.73Z</time></trkpt><trkpt lat="42.9064017" lon="2.70413"><ele>323.4</ele><time>2026-04-26T08:22:58.729Z</time></trkpt><trkpt lat="42.906315" lon="2.704215"><ele>323.2</ele><time>2026-04-26T08:22:59.729Z</time></trkpt><trkpt lat="42.9062267" lon="2.704305"><ele>323.0</ele><time>2026-04-26T08:23:00.733Z</time></trkpt><trkpt lat="42.9061467" lon="2.7044117"><ele>322.75</ele><time>2026-04-26T08:23:01.73Z</time></trkpt><trkpt lat="42.9060733" lon="2.7045367"><ele>322.5</ele><time>2026-04-26T08:23:02.729Z</time></trkpt><trkpt lat="42.90601" lon="2.70468"><ele>322.25</ele><time>2026-04-26T08:23:03.73Z</time></trkpt><trkpt lat="42.9059433" lon="2.7048283"><ele>322.0</ele><time>2026-04-26T08:23:04.727Z</time></trkpt><trkpt lat="42.9058783" lon="2.7049733"><ele>322.0</ele><time>2026-04-26T08:23:05.728Z</time></trkpt><trkpt lat="42.90582" lon="2.7050967"><ele>322.0</ele><time>2026-04-26T08:23:06.729Z</time></trkpt><trkpt lat="42.905765" lon="2.7051983"><ele>322.0</ele><time>2026-04-26T08:23:07.729Z</time></trkpt><trkpt lat="42.9057067" lon="2.7052783"><ele>322.0</ele><time>2026-04-26T08:23:08.729Z</time></trkpt><trkpt lat="42.905645" lon="2.70533"><ele>322.0</ele><time>2026-04-26T08:23:09.729Z</time></trkpt><trkpt lat="42.9055767" lon="2.7053483"><ele>322.0</ele><time>2026-04-26T08:23:10.729Z</time></trkpt><trkpt lat="42.9055067" lon="2.7053367"><ele>322.0</ele><time>2026-04-26T08:23:11.73Z</time></trkpt><trkpt lat="42.9054317" lon="2.70528"><ele>322.0</ele><time>2026-04-26T08:23:12.73Z</time></trkpt><trkpt lat="42.905355" lon="2.7052217"><ele>322.0</ele><time>2026-04-26T08:23:13.729Z</time></trkpt><trkpt lat="42.9052667" lon="2.7051383"><ele>322.0</ele><time>2026-04-26T08:23:14.728Z</time></trkpt><trkpt lat="42.90517" lon="2.7050683"><ele>322.0</ele><time>2026-04-26T08:23:15.728Z</time></trkpt><trkpt lat="42.9050767" lon="2.705005"><ele>321.8</ele><time>2026-04-26T08:23:16.729Z</time></trkpt><trkpt lat="42.9049883" lon="2.704945"><ele>321.6</ele><time>2026-04-26T08:23:17.729Z</time></trkpt><trkpt lat="42.9048967" lon="2.7048833"><ele>321.40000000000003</ele><time>2026-04-26T08:23:18.728Z</time></trkpt><trkpt lat="42.904815" lon="2.7048083"><ele>321.20000000000005</ele><time>2026-04-26T08:23:19.729Z</time></trkpt><trkpt lat="42.90474" lon="2.70471"><ele>321.0</ele><time>2026-04-26T08:23:20.729Z</time></trkpt><trkpt lat="42.9046517" lon="2.704605"><ele>321.0</ele><time>2026-04-26T08:23:21.728Z</time></trkpt><trkpt lat="42.9045567" lon="2.7045033"><ele>321.0</ele><time>2026-04-26T08:23:22.729Z</time></trkpt><trkpt lat="42.9044483" lon="2.7044133"><ele>321.0</ele><time>2026-04-26T08:23:23.729Z</time></trkpt><trkpt lat="42.904345" lon="2.7043417"><ele>321.0</ele><time>2026-04-26T08:23:24.729Z</time></trkpt><trkpt lat="42.904235" lon="2.7042833"><ele>322.6</ele><time>2026-04-26T08:23:25.729Z</time></trkpt><trkpt lat="42.90412" lon="2.7042617"><ele>324.20000000000005</ele><time>2026-04-26T08:23:26.728Z</time></trkpt><trkpt lat="42.9040033" lon="2.7042633"><ele>325.79999999999995</ele><time>2026-04-26T08:23:27.731Z</time></trkpt><trkpt lat="42.9039083" lon="2.7042717"><ele>327.4</ele><time>2026-04-26T08:23:28.728Z</time></trkpt><trkpt lat="42.9038283" lon="2.7043"><ele>329.0</ele><time>2026-04-26T08:23:29.727Z</time></trkpt><trkpt lat="42.90376" lon="2.7043533"><ele>324.8</ele><time>2026-04-26T08:23:30.728Z</time></trkpt><trkpt lat="42.9036983" lon="2.70442"><ele>320.59999999999997</ele><time>2026-04-26T08:23:31.727Z</time></trkpt><trkpt lat="42.9036367" lon="2.7045033"><ele>316.4</ele><time>2026-04-26T08:23:32.729Z</time></trkpt><trkpt lat="42.9035683" lon="2.7046033"><ele>312.2</ele><time>2026-04-26T08:23:33.729Z</time></trkpt><trkpt lat="42.9035" lon="2.7047017"><ele>308.0</ele><time>2026-04-26T08:23:34.728Z</time></trkpt><trkpt lat="42.9034383" lon="2.7047983"><ele>310.0</ele><time>2026-04-26T08:23:35.729Z</time></trkpt><trkpt lat="42.9033883" lon="2.7048967"><ele>312.0</ele><time>2026-04-26T08:23:36.728Z</time></trkpt><trkpt lat="42.903355" lon="2.7049833"><ele>314.0</ele><time>2026-04-26T08:23:37.729Z</time></trkpt><trkpt lat="42.9033683" lon="2.70516"><ele>316.0</ele><time>2026-04-26T08:23:39.729Z</time></trkpt><trkpt lat="42.9033967" lon="2.705265"><ele>318.0</ele><time>2026-04-26T08:23:40.728Z</time></trkpt><trkpt lat="42.9034233" lon="2.7053867"><ele>312.6</ele><time>2026-04-26T08:23:41.733Z</time></trkpt><trkpt lat="42.90344" lon="2.7055217"><ele>307.20000000000005</ele><time>2026-04-26T08:23:42.729Z</time></trkpt><trkpt lat="42.9034483" lon="2.70567"><ele>301.8</ele><time>2026-04-26T08:23:43.729Z</time></trkpt><trkpt lat="42.9034517" lon="2.705825"><ele>296.40000000000003</ele><time>2026-04-26T08:23:44.728Z</time></trkpt><trkpt lat="42.9034617" lon="2.7059867"><ele>291.0</ele><time>2026-04-26T08:23:45.729Z</time></trkpt><trkpt lat="42.903475" lon="2.70614"><ele>289.2</ele><time>2026-04-26T08:23:46.729Z</time></trkpt><trkpt lat="42.90349" lon="2.706295"><ele>287.40000000000003</ele><time>2026-04-26T08:23:47.734Z</time></trkpt><trkpt lat="42.9035" lon="2.7064417"><ele>285.6</ele><time>2026-04-26T08:23:48.729Z</time></trkpt><trkpt lat="42.903505" lon="2.70657"><ele>283.8</ele><time>2026-04-26T08:23:49.729Z</time></trkpt><trkpt lat="42.903495" lon="2.7066983"><ele>282.0</ele><time>2026-04-26T08:23:50.728Z</time></trkpt><trkpt lat="42.903465" lon="2.706825"><ele>280.4</ele><time>2026-04-26T08:23:51.731Z</time></trkpt><trkpt lat="42.9034233" lon="2.7069467"><ele>278.79999999999995</ele><time>2026-04-26T08:23:52.73Z</time></trkpt><trkpt lat="42.90338" lon="2.7070633"><ele>277.2</ele><time>2026-04-26T08:23:53.729Z</time></trkpt><trkpt lat="42.903335" lon="2.7071733"><ele>275.59999999999997</ele><time>2026-04-26T08:23:54.731Z</time></trkpt><trkpt lat="42.90329" lon="2.7072767"><ele>274.0</ele><time>2026-04-26T08:23:55.728Z</time></trkpt><trkpt lat="42.9032383" lon="2.7073733"><ele>277.2</ele><time>2026-04-26T08:23:56.729Z</time></trkpt><trkpt lat="42.9031783" lon="2.707465"><ele>280.4</ele><time>2026-04-26T08:23:57.731Z</time></trkpt><trkpt lat="42.903115" lon="2.7075633"><ele>283.6</ele><time>2026-04-26T08:23:58.727Z</time></trkpt><trkpt lat="42.9030467" lon="2.707665"><ele>286.8</ele><time>2026-04-26T08:23:59.729Z</time></trkpt><trkpt lat="42.90298" lon="2.7077783"><ele>290.0</ele><time>2026-04-26T08:24:00.729Z</time></trkpt><trkpt lat="42.90292" lon="2.707885"><ele>290.0</ele><time>2026-04-26T08:24:01.728Z</time></trkpt><trkpt lat="42.902865" lon="2.7079867"><ele>290.0</ele><time>2026-04-26T08:24:02.729Z</time></trkpt><trkpt lat="42.9028233" lon="2.7080967"><ele>290.0</ele><time>2026-04-26T08:24:03.728Z</time></trkpt><trkpt lat="42.9027883" lon="2.7082217"><ele>290.0</ele><time>2026-04-26T08:24:04.729Z</time></trkpt><trkpt lat="42.902755" lon="2.708355"><ele>290.0</ele><time>2026-04-26T08:24:05.731Z</time></trkpt><trkpt lat="42.90272" lon="2.7084867"><ele>291.8</ele><time>2026-04-26T08:24:06.728Z</time></trkpt><trkpt lat="42.9026767" lon="2.70861"><ele>293.6</ele><time>2026-04-26T08:24:07.728Z</time></trkpt><trkpt lat="42.9026283" lon="2.708735"><ele>295.4</ele><time>2026-04-26T08:24:08.731Z</time></trkpt><trkpt lat="42.9025833" lon="2.7088667"><ele>297.2</ele><time>2026-04-26T08:24:09.73Z</time></trkpt><trkpt lat="42.9025417" lon="2.7090017"><ele>299.0</ele><time>2026-04-26T08:24:10.729Z</time></trkpt><trkpt lat="42.9024933" lon="2.7091367"><ele>299.0</ele><time>2026-04-26T08:24:11.729Z</time></trkpt><trkpt lat="42.9024383" lon="2.7092633"><ele>299.0</ele><time>2026-04-26T08:24:12.73Z</time></trkpt><trkpt lat="42.90237" lon="2.7093917"><ele>299.0</ele><time>2026-04-26T08:24:13.728Z</time></trkpt><trkpt lat="42.902295" lon="2.70951"><ele>299.0</ele><time>2026-04-26T08:24:14.729Z</time></trkpt><trkpt lat="42.902225" lon="2.709625"><ele>299.0</ele><time>2026-04-26T08:24:15.732Z</time></trkpt><trkpt lat="42.90216" lon="2.7097367"><ele>295.75</ele><time>2026-04-26T08:24:16.728Z</time></trkpt><trkpt lat="42.9020967" lon="2.7098583"><ele>292.5</ele><time>2026-04-26T08:24:17.73Z</time></trkpt><trkpt lat="42.90203" lon="2.7099833"><ele>289.25</ele><time>2026-04-26T08:24:18.73Z</time></trkpt><trkpt lat="42.90196" lon="2.71011"><ele>286.0</ele><time>2026-04-26T08:24:19.731Z</time></trkpt><trkpt lat="42.9018933" lon="2.71024"><ele>285.8</ele><time>2026-04-26T08:24:20.73Z</time></trkpt><trkpt lat="42.9018317" lon="2.7103633"><ele>285.6</ele><time>2026-04-26T08:24:21.732Z</time></trkpt><trkpt lat="42.9017683" lon="2.710485"><ele>285.4</ele><time>2026-04-26T08:24:22.728Z</time></trkpt><trkpt lat="42.9017017" lon="2.7105933"><ele>285.2</ele><time>2026-04-26T08:24:23.73Z</time></trkpt><trkpt lat="42.9016367" lon="2.7107017"><ele>285.0</ele><time>2026-04-26T08:24:24.728Z</time></trkpt><trkpt lat="42.9015733" lon="2.71082"><ele>285.0</ele><time>2026-04-26T08:24:25.728Z</time></trkpt><trkpt lat="42.901515" lon="2.710945"><ele>285.0</ele><time>2026-04-26T08:24:26.729Z</time></trkpt><trkpt lat="42.9014667" lon="2.7110767"><ele>285.0</ele><time>2026-04-26T08:24:27.728Z</time></trkpt><trkpt lat="42.9014267" lon="2.7112233"><ele>285.0</ele><time>2026-04-26T08:24:28.727Z</time></trkpt><trkpt lat="42.9013867" lon="2.7113683"><ele>285.0</ele><time>2026-04-26T08:24:29.73Z</time></trkpt><trkpt lat="42.901345" lon="2.7115167"><ele>284.0</ele><time>2026-04-26T08:24:30.731Z</time></trkpt><trkpt lat="42.9013" lon="2.711665"><ele>283.0</ele><time>2026-04-26T08:24:31.728Z</time></trkpt><trkpt lat="42.901245" lon="2.71181"><ele>282.0</ele><time>2026-04-26T08:24:32.729Z</time></trkpt><trkpt lat="42.9011767" lon="2.7119567"><ele>281.0</ele><time>2026-04-26T08:24:33.729Z</time></trkpt><trkpt lat="42.901105" lon="2.712105"><ele>281.5</ele><time>2026-04-26T08:24:34.73Z</time></trkpt><trkpt lat="42.9010367" lon="2.712255"><ele>282.0</ele><time>2026-04-26T08:24:35.727Z</time></trkpt><trkpt lat="42.9009717" lon="2.71241"><ele>282.5</ele><time>2026-04-26T08:24:36.728Z</time></trkpt><trkpt lat="42.9009083" lon="2.712565"><ele>283.0</ele><time>2026-04-26T08:24:37.729Z</time></trkpt><trkpt lat="42.9008467" lon="2.7127217"><ele>283.0</ele><time>2026-04-26T08:24:38.73Z</time></trkpt><trkpt lat="42.9007933" lon="2.7128783"><ele>283.0</ele><time>2026-04-26T08:24:39.73Z</time></trkpt><trkpt lat="42.9007417" lon="2.71303"><ele>283.0</ele><time>2026-04-26T08:24:40.729Z</time></trkpt><trkpt lat="42.9006817" lon="2.7131833"><ele>283.0</ele><time>2026-04-26T08:24:41.729Z</time></trkpt><trkpt lat="42.9006167" lon="2.7133383"><ele>283.0</ele><time>2026-04-26T08:24:42.729Z</time></trkpt><trkpt lat="42.900555" lon="2.7134833"><ele>283.0</ele><time>2026-04-26T08:24:43.728Z</time></trkpt><trkpt lat="42.9005033" lon="2.71363"><ele>283.0</ele><time>2026-04-26T08:24:44.729Z</time></trkpt><trkpt lat="42.9004617" lon="2.7137767"><ele>283.0</ele><time>2026-04-26T08:24:45.728Z</time></trkpt><trkpt lat="42.9004217" lon="2.7139217"><ele>280.8</ele><time>2026-04-26T08:24:46.727Z</time></trkpt><trkpt lat="42.9003767" lon="2.7140617"><ele>278.6</ele><time>2026-04-26T08:24:47.729Z</time></trkpt><trkpt lat="42.9003283" lon="2.7142017"><ele>276.4</ele><time>2026-04-26T08:24:48.734Z</time></trkpt><trkpt lat="42.900285" lon="2.7143417"><ele>274.2</ele><time>2026-04-26T08:24:49.729Z</time></trkpt><trkpt lat="42.9002433" lon="2.7144767"><ele>272.0</ele><time>2026-04-26T08:24:50.73Z</time></trkpt><trkpt lat="42.9002017" lon="2.7145967"><ele>273.8</ele><time>2026-04-26T08:24:51.729Z</time></trkpt><trkpt lat="42.9001567" lon="2.7146983"><ele>275.6</ele><time>2026-04-26T08:24:52.73Z</time></trkpt><trkpt lat="42.9000867" lon="2.71479"><ele>277.40000000000003</ele><time>2026-04-26T08:24:53.728Z</time></trkpt><trkpt lat="42.9" lon="2.714885"><ele>279.2</ele><time>2026-04-26T08:24:54.728Z</time></trkpt><trkpt lat="42.8999083" lon="2.71498"><ele>281.0</ele><time>2026-04-26T08:24:55.728Z</time></trkpt><trkpt lat="42.8998183" lon="2.7150633"><ele>281.0</ele><time>2026-04-26T08:24:56.732Z</time></trkpt><trkpt lat="42.89973" lon="2.71513"><ele>281.0</ele><time>2026-04-26T08:24:57.731Z</time></trkpt><trkpt lat="42.8996483" lon="2.715195"><ele>281.0</ele><time>2026-04-26T08:24:58.727Z</time></trkpt><trkpt lat="42.89958" lon="2.7152433"><ele>281.0</ele><time>2026-04-26T08:24:59.729Z</time></trkpt><trkpt lat="42.8995233" lon="2.7152833"><ele>281.0</ele><time>2026-04-26T08:25:00.73Z</time></trkpt><trkpt lat="42.899475" lon="2.71535"><ele>281.0</ele><time>2026-04-26T08:25:02.728Z</time></trkpt><trkpt lat="42.8995533" lon="2.71537"><ele>281.0</ele><time>2026-04-26T08:25:04.728Z</time></trkpt><trkpt lat="42.8996167" lon="2.7153533"><ele>281.0</ele><time>2026-04-26T08:25:05.73Z</time></trkpt><trkpt lat="42.8996867" lon="2.715315"><ele>281.0</ele><time>2026-04-26T08:25:06.729Z</time></trkpt><trkpt lat="42.8997567" lon="2.715275"><ele>281.0</ele><time>2026-04-26T08:25:07.73Z</time></trkpt><trkpt lat="42.89986" lon="2.7152117"><ele>281.0</ele><time>2026-04-26T08:25:09.734Z</time></trkpt><trkpt lat="42.8999233" lon="2.7152283"><ele>281.0</ele><time>2026-04-26T08:25:11.728Z</time></trkpt><trkpt lat="42.89987" lon="2.71531"><ele>278.0</ele><time>2026-04-26T08:25:13.729Z</time></trkpt><trkpt lat="42.8998017" lon="2.7153667"><ele>275.0</ele><time>2026-04-26T08:25:14.728Z</time></trkpt><trkpt lat="42.8997283" lon="2.7154367"><ele>272.0</ele><time>2026-04-26T08:25:15.727Z</time></trkpt><trkpt lat="42.8996583" lon="2.7155333"><ele>269.0</ele><time>2026-04-26T08:25:16.731Z</time></trkpt><trkpt lat="42.8996017" lon="2.7156567"><ele>266.0</ele><time>2026-04-26T08:25:17.736Z</time></trkpt><trkpt lat="42.8995533" lon="2.7157833"><ele>266.0</ele><time>2026-04-26T08:25:18.727Z</time></trkpt><trkpt lat="42.8995033" lon="2.7159067"><ele>266.0</ele><time>2026-04-26T08:25:19.729Z</time></trkpt><trkpt lat="42.899465" lon="2.71601"><ele>266.0</ele><time>2026-04-26T08:25:20.731Z</time></trkpt><trkpt lat="42.8994283" lon="2.7161"><ele>266.0</ele><time>2026-04-26T08:25:21.73Z</time></trkpt><trkpt lat="42.8993917" lon="2.7161733"><ele>266.0</ele><time>2026-04-26T08:25:22.727Z</time></trkpt><trkpt lat="42.89934" lon="2.7162667"><ele>266.0</ele><time>2026-04-26T08:25:24.728Z</time></trkpt><trkpt lat="42.8994217" lon="2.7162467"><ele>266.0</ele><time>2026-04-26T08:25:28.732Z</time></trkpt><trkpt lat="42.89947" lon="2.71619"><ele>266.0</ele><time>2026-04-26T08:25:29.731Z</time></trkpt><trkpt lat="42.8995317" lon="2.7161267"><ele>266.0</ele><time>2026-04-26T08:25:30.728Z</time></trkpt><trkpt lat="42.8995967" lon="2.7160617"><ele>266.0</ele><time>2026-04-26T08:25:31.73Z</time></trkpt><trkpt lat="42.8996667" lon="2.715995"><ele>266.0</ele><time>2026-04-26T08:25:32.728Z</time></trkpt><trkpt lat="42.8997467" lon="2.715935"><ele>266.0</ele><time>2026-04-26T08:25:33.729Z</time></trkpt><trkpt lat="42.89983" lon="2.715885"><ele>266.0</ele><time>2026-04-26T08:25:34.728Z</time></trkpt><trkpt lat="42.89992" lon="2.715845"><ele>266.0</ele><time>2026-04-26T08:25:35.732Z</time></trkpt><trkpt lat="42.90001" lon="2.715805"><ele>266.0</ele><time>2026-04-26T08:25:36.729Z</time></trkpt><trkpt lat="42.9000933" lon="2.71577"><ele>266.0</ele><time>2026-04-26T08:25:37.727Z</time></trkpt><trkpt lat="42.9001733" lon="2.7157283"><ele>266.0</ele><time>2026-04-26T08:25:38.728Z</time></trkpt><trkpt lat="42.90025" lon="2.715675"><ele>266.0</ele><time>2026-04-26T08:25:39.73Z</time></trkpt><trkpt lat="42.90033" lon="2.71561"><ele>264.2</ele><time>2026-04-26T08:25:40.73Z</time></trkpt><trkpt lat="42.9004067" lon="2.7155333"><ele>262.40000000000003</ele><time>2026-04-26T08:25:41.729Z</time></trkpt><trkpt lat="42.9004833" lon="2.7154483"><ele>260.6</ele><time>2026-04-26T08:25:42.728Z</time></trkpt><trkpt lat="42.90056" lon="2.7153683"><ele>258.8</ele><time>2026-04-26T08:25:43.728Z</time></trkpt><trkpt lat="42.9006467" lon="2.7152833"><ele>257.0</ele><time>2026-04-26T08:25:44.73Z</time></trkpt><trkpt lat="42.9007317" lon="2.71519"><ele>257.0</ele><time>2026-04-26T08:25:45.729Z</time></trkpt><trkpt lat="42.90079" lon="2.7150633"><ele>257.0</ele><time>2026-04-26T08:25:46.728Z</time></trkpt><trkpt lat="42.90085" lon="2.714915"><ele>257.0</ele><time>2026-04-26T08:25:47.729Z</time></trkpt><trkpt lat="42.900915" lon="2.7147633"><ele>257.0</ele><time>2026-04-26T08:25:48.727Z</time></trkpt><trkpt lat="42.90098" lon="2.7146183"><ele>256.0</ele><time>2026-04-26T08:25:49.73Z</time></trkpt><trkpt lat="42.9010433" lon="2.7144883"><ele>255.0</ele><time>2026-04-26T08:25:50.73Z</time></trkpt><trkpt lat="42.9011117" lon="2.7143867"><ele>254.0</ele><time>2026-04-26T08:25:51.727Z</time></trkpt><trkpt lat="42.901185" lon="2.7142967"><ele>253.0</ele><time>2026-04-26T08:25:52.728Z</time></trkpt><trkpt lat="42.901275" lon="2.7142317"><ele>252.0</ele><time>2026-04-26T08:25:53.728Z</time></trkpt><trkpt lat="42.9013783" lon="2.71418"><ele>252.0</ele><time>2026-04-26T08:25:54.728Z</time></trkpt><trkpt lat="42.9014817" lon="2.7141317"><ele>252.0</ele><time>2026-04-26T08:25:55.729Z</time></trkpt><trkpt lat="42.90157" lon="2.7140783"><ele>252.0</ele><time>2026-04-26T08:25:56.73Z</time></trkpt><trkpt lat="42.90165" lon="2.7140133"><ele>252.0</ele><time>2026-04-26T08:25:57.728Z</time></trkpt><trkpt lat="42.90171" lon="2.7139317"><ele>252.0</ele><time>2026-04-26T08:25:58.727Z</time></trkpt><trkpt lat="42.901755" lon="2.713825"><ele>248.5</ele><time>2026-04-26T08:25:59.731Z</time></trkpt><trkpt lat="42.9017817" lon="2.71368"><ele>245.0</ele><time>2026-04-26T08:26:00.73Z</time></trkpt><trkpt lat="42.9017983" lon="2.71351"><ele>241.5</ele><time>2026-04-26T08:26:01.727Z</time></trkpt><trkpt lat="42.901805" lon="2.7133383"><ele>238.0</ele><time>2026-04-26T08:26:02.729Z</time></trkpt><trkpt lat="42.9018183" lon="2.713175"><ele>238.0</ele><time>2026-04-26T08:26:03.728Z</time></trkpt><trkpt lat="42.9018467" lon="2.7130083"><ele>238.0</ele><time>2026-04-26T08:26:04.73Z</time></trkpt><trkpt lat="42.9018917" lon="2.712835"><ele>238.0</ele><time>2026-04-26T08:26:05.727Z</time></trkpt><trkpt lat="42.90194" lon="2.71266"><ele>238.0</ele><time>2026-04-26T08:26:06.732Z</time></trkpt><trkpt lat="42.9019883" lon="2.712495"><ele>240.25</ele><time>2026-04-26T08:26:07.731Z</time></trkpt><trkpt lat="42.90204" lon="2.712335"><ele>242.5</ele><time>2026-04-26T08:26:08.731Z</time></trkpt><trkpt lat="42.9021" lon="2.7122033"><ele>244.75</ele><time>2026-04-26T08:26:09.728Z</time></trkpt><trkpt lat="42.9021867" lon="2.7120917"><ele>247.0</ele><time>2026-04-26T08:26:10.727Z</time></trkpt><trkpt lat="42.9022883" lon="2.711995"><ele>248.25</ele><time>2026-04-26T08:26:11.729Z</time></trkpt><trkpt lat="42.90241" lon="2.7119033"><ele>249.5</ele><time>2026-04-26T08:26:12.727Z</time></trkpt><trkpt lat="42.9025283" lon="2.7118217"><ele>250.75</ele><time>2026-04-26T08:26:13.729Z</time></trkpt><trkpt lat="42.9026383" lon="2.7117533"><ele>252.0</ele><time>2026-04-26T08:26:14.73Z</time></trkpt><trkpt lat="42.9027333" lon="2.71168"><ele>252.0</ele><time>2026-04-26T08:26:15.729Z</time></trkpt><trkpt lat="42.9028283" lon="2.7116233"><ele>252.0</ele><time>2026-04-26T08:26:16.729Z</time></trkpt><trkpt lat="42.9029233" lon="2.7115883"><ele>252.0</ele><time>2026-04-26T08:26:17.73Z</time></trkpt><trkpt lat="42.9030183" lon="2.7115617"><ele>252.0</ele><time>2026-04-26T08:26:18.727Z</time></trkpt><trkpt lat="42.9031017" lon="2.7115383"><ele>252.0</ele><time>2026-04-26T08:26:19.729Z</time></trkpt><trkpt lat="42.90319" lon="2.7115217"><ele>252.0</ele><time>2026-04-26T08:26:20.728Z</time></trkpt><trkpt lat="42.9032783" lon="2.7115417"><ele>252.0</ele><time>2026-04-26T08:26:21.728Z</time></trkpt><trkpt lat="42.9033683" lon="2.7115733"><ele>252.0</ele><time>2026-04-26T08:26:22.728Z</time></trkpt><trkpt lat="42.903445" lon="2.7116417"><ele>252.0</ele><time>2026-04-26T08:26:23.733Z</time></trkpt><trkpt lat="42.9035017" lon="2.7117267"><ele>252.0</ele><time>2026-04-26T08:26:24.727Z</time></trkpt><trkpt lat="42.9035367" lon="2.7118317"><ele>252.0</ele><time>2026-04-26T08:26:25.73Z</time></trkpt><trkpt lat="42.9035267" lon="2.71196"><ele>250.2</ele><time>2026-04-26T08:26:26.729Z</time></trkpt><trkpt lat="42.9034933" lon="2.71209"><ele>248.39999999999998</ele><time>2026-04-26T08:26:27.728Z</time></trkpt><trkpt lat="42.90345" lon="2.7122117"><ele>246.60000000000002</ele><time>2026-04-26T08:26:28.727Z</time></trkpt><trkpt lat="42.9033867" lon="2.712305"><ele>244.8</ele><time>2026-04-26T08:26:29.73Z</time></trkpt><trkpt lat="42.90332" lon="2.7123733"><ele>243.0</ele><time>2026-04-26T08:26:30.728Z</time></trkpt><trkpt lat="42.90327" lon="2.7124467"><ele>243.0</ele><time>2026-04-26T08:26:31.732Z</time></trkpt><trkpt lat="42.9032467" lon="2.71255"><ele>243.0</ele><time>2026-04-26T08:26:32.729Z</time></trkpt><trkpt lat="42.903225" lon="2.71267"><ele>243.0</ele><time>2026-04-26T08:26:33.73Z</time></trkpt><trkpt lat="42.9031867" lon="2.7127833"><ele>243.0</ele><time>2026-04-26T08:26:34.728Z</time></trkpt><trkpt lat="42.9031317" lon="2.71287"><ele>243.0</ele><time>2026-04-26T08:26:35.73Z</time></trkpt><trkpt lat="42.903075" lon="2.7129367"><ele>243.0</ele><time>2026-04-26T08:26:36.728Z</time></trkpt><trkpt lat="42.9030017" lon="2.7130033"><ele>241.0</ele><time>2026-04-26T08:26:38.729Z</time></trkpt><trkpt lat="42.90303" lon="2.7130933"><ele>239.0</ele><time>2026-04-26T08:26:40.728Z</time></trkpt><trkpt lat="42.9030933" lon="2.7130983"><ele>237.0</ele><time>2026-04-26T08:26:41.729Z</time></trkpt><trkpt lat="42.9031583" lon="2.71309"><ele>235.0</ele><time>2026-04-26T08:26:42.73Z</time></trkpt><trkpt lat="42.903235" lon="2.71306"><ele>233.0</ele><time>2026-04-26T08:26:43.729Z</time></trkpt><trkpt lat="42.9033383" lon="2.7130033"><ele>231.0</ele><time>2026-04-26T08:26:44.733Z</time></trkpt><trkpt lat="42.9034517" lon="2.7129333"><ele>230.20000000000002</ele><time>2026-04-26T08:26:45.734Z</time></trkpt><trkpt lat="42.903555" lon="2.7128767"><ele>229.40000000000003</ele><time>2026-04-26T08:26:46.727Z</time></trkpt><trkpt lat="42.9036533" lon="2.712815"><ele>228.6</ele><time>2026-04-26T08:26:47.731Z</time></trkpt><trkpt lat="42.9037367" lon="2.712735"><ele>227.8</ele><time>2026-04-26T08:26:48.731Z</time></trkpt><trkpt lat="42.903795" lon="2.7126517"><ele>227.0</ele><time>2026-04-26T08:26:49.727Z</time></trkpt><trkpt lat="42.903835" lon="2.71258"><ele>227.0</ele><time>2026-04-26T08:26:50.728Z</time></trkpt><trkpt lat="42.9039033" lon="2.7125083"><ele>227.0</ele><time>2026-04-26T08:26:52.728Z</time></trkpt><trkpt lat="42.903945" lon="2.7125933"><ele>227.0</ele><time>2026-04-26T08:26:54.73Z</time></trkpt><trkpt lat="42.9038767" lon="2.712735"><ele>227.0</ele><time>2026-04-26T08:26:56.73Z</time></trkpt><trkpt lat="42.903825" lon="2.7128233"><ele>227.0</ele><time>2026-04-26T08:26:57.73Z</time></trkpt><trkpt lat="42.9037867" lon="2.7129283"><ele>225.66666666666669</ele><time>2026-04-26T08:26:58.727Z</time></trkpt><trkpt lat="42.9037567" lon="2.7130317"><ele>224.33333333333334</ele><time>2026-04-26T08:26:59.73Z</time></trkpt><trkpt lat="42.903735" lon="2.7131367"><ele>223.0</ele><time>2026-04-26T08:27:00.729Z</time></trkpt><trkpt lat="42.903735" lon="2.7132483"><ele>221.66666666666669</ele><time>2026-04-26T08:27:01.73Z</time></trkpt><trkpt lat="42.9037483" lon="2.7133617"><ele>220.33333333333334</ele><time>2026-04-26T08:27:02.731Z</time></trkpt><trkpt lat="42.9037633" lon="2.7134883"><ele>219.0</ele><time>2026-04-26T08:27:03.73Z</time></trkpt><trkpt lat="42.9037783" lon="2.7136317"><ele>218.5</ele><time>2026-04-26T08:27:04.73Z</time></trkpt><trkpt lat="42.90379" lon="2.7137817"><ele>218.0</ele><time>2026-04-26T08:27:05.73Z</time></trkpt><trkpt lat="42.9037967" lon="2.71394"><ele>217.5</ele><time>2026-04-26T08:27:06.731Z</time></trkpt><trkpt lat="42.9038067" lon="2.7140883"><ele>217.0</ele><time>2026-04-26T08:27:07.729Z</time></trkpt><trkpt lat="42.903825" lon="2.7142433"><ele>217.0</ele><time>2026-04-26T08:27:08.732Z</time></trkpt><trkpt lat="42.903845" lon="2.7143933"><ele>217.0</ele><time>2026-04-26T08:27:09.729Z</time></trkpt><trkpt lat="42.903875" lon="2.7145533"><ele>217.0</ele><time>2026-04-26T08:27:10.728Z</time></trkpt><trkpt lat="42.9039067" lon="2.7147267"><ele>217.0</ele><time>2026-04-26T08:27:11.728Z</time></trkpt><trkpt lat="42.9039467" lon="2.714915"><ele>216.5</ele><time>2026-04-26T08:27:12.729Z</time></trkpt><trkpt lat="42.9039867" lon="2.715105"><ele>216.0</ele><time>2026-04-26T08:27:13.728Z</time></trkpt><trkpt lat="42.9040283" lon="2.715285"><ele>215.5</ele><time>2026-04-26T08:27:14.73Z</time></trkpt><trkpt lat="42.9040683" lon="2.71546"><ele>215.0</ele><time>2026-04-26T08:27:15.729Z</time></trkpt><trkpt lat="42.9040933" lon="2.71563"><ele>214.5</ele><time>2026-04-26T08:27:16.729Z</time></trkpt><trkpt lat="42.904105" lon="2.7157933"><ele>214.0</ele><time>2026-04-26T08:27:17.728Z</time></trkpt><trkpt lat="42.90412" lon="2.71597"><ele>213.5</ele><time>2026-04-26T08:27:18.73Z</time></trkpt><trkpt lat="42.9041183" lon="2.7161533"><ele>213.0</ele><time>2026-04-26T08:27:19.729Z</time></trkpt><trkpt lat="42.9041083" lon="2.7163417"><ele>212.25</ele><time>2026-04-26T08:27:20.731Z</time></trkpt><trkpt lat="42.9041017" lon="2.71653"><ele>211.5</ele><time>2026-04-26T08:27:21.728Z</time></trkpt><trkpt lat="42.9040967" lon="2.7167133"><ele>210.75</ele><time>2026-04-26T08:27:22.729Z</time></trkpt><trkpt lat="42.90409" lon="2.7168883"><ele>210.0</ele><time>2026-04-26T08:27:23.729Z</time></trkpt><trkpt lat="42.90409" lon="2.7170567"><ele>209.6</ele><time>2026-04-26T08:27:24.729Z</time></trkpt><trkpt lat="42.9040783" lon="2.7172067"><ele>209.2</ele><time>2026-04-26T08:27:25.729Z</time></trkpt><trkpt lat="42.9040683" lon="2.71734"><ele>208.8</ele><time>2026-04-26T08:27:26.729Z</time></trkpt><trkpt lat="42.9040567" lon="2.7174667"><ele>208.4</ele><time>2026-04-26T08:27:27.73Z</time></trkpt><trkpt lat="42.9040333" lon="2.717585"><ele>208.0</ele><time>2026-04-26T08:27:28.729Z</time></trkpt><trkpt lat="42.9040033" lon="2.71771"><ele>207.8</ele><time>2026-04-26T08:27:29.729Z</time></trkpt><trkpt lat="42.9039817" lon="2.71784"><ele>207.60000000000002</ele><time>2026-04-26T08:27:30.728Z</time></trkpt><trkpt lat="42.9039533" lon="2.7179783"><ele>207.39999999999998</ele><time>2026-04-26T08:27:31.73Z</time></trkpt><trkpt lat="42.90393" lon="2.7181333"><ele>207.2</ele><time>2026-04-26T08:27:32.728Z</time></trkpt><trkpt lat="42.9039083" lon="2.7182983"><ele>207.0</ele><time>2026-04-26T08:27:33.729Z</time></trkpt><trkpt lat="42.9038817" lon="2.7184683"><ele>206.75</ele><time>2026-04-26T08:27:34.729Z</time></trkpt><trkpt lat="42.903855" lon="2.7186417"><ele>206.5</ele><time>2026-04-26T08:27:35.729Z</time></trkpt><trkpt lat="42.90383" lon="2.7188117"><ele>206.25</ele><time>2026-04-26T08:27:36.728Z</time></trkpt><trkpt lat="42.9037967" lon="2.7189817"><ele>206.0</ele><time>2026-04-26T08:27:37.73Z</time></trkpt><trkpt lat="42.9037617" lon="2.7191433"><ele>206.0</ele><time>2026-04-26T08:27:38.728Z</time></trkpt><trkpt lat="42.9037133" lon="2.719295"><ele>206.0</ele><time>2026-04-26T08:27:39.729Z</time></trkpt><trkpt lat="42.9036583" lon="2.719445"><ele>206.0</ele><time>2026-04-26T08:27:40.728Z</time></trkpt><trkpt lat="42.903605" lon="2.7195817"><ele>206.0</ele><time>2026-04-26T08:27:41.729Z</time></trkpt><trkpt lat="42.903555" lon="2.7197183"><ele>206.75</ele><time>2026-04-26T08:27:42.729Z</time></trkpt><trkpt lat="42.9035117" lon="2.7198783"><ele>207.5</ele><time>2026-04-26T08:27:43.728Z</time></trkpt><trkpt lat="42.903485" lon="2.7200433"><ele>208.25</ele><time>2026-04-26T08:27:44.728Z</time></trkpt><trkpt lat="42.9034533" lon="2.7202067"><ele>209.0</ele><time>2026-04-26T08:27:45.729Z</time></trkpt><trkpt lat="42.90341" lon="2.7203733"><ele>204.25</ele><time>2026-04-26T08:27:46.728Z</time></trkpt><trkpt lat="42.903365" lon="2.72054"><ele>199.5</ele><time>2026-04-26T08:27:47.728Z</time></trkpt><trkpt lat="42.903325" lon="2.7207067"><ele>194.75</ele><time>2026-04-26T08:27:48.728Z</time></trkpt><trkpt lat="42.9032833" lon="2.72087"><ele>190.0</ele><time>2026-04-26T08:27:49.735Z</time></trkpt><trkpt lat="42.9032383" lon="2.7210183"><ele>189.4</ele><time>2026-04-26T08:27:50.728Z</time></trkpt><trkpt lat="42.9031883" lon="2.7211583"><ele>188.8</ele><time>2026-04-26T08:27:51.728Z</time></trkpt><trkpt lat="42.9031283" lon="2.7212867"><ele>188.2</ele><time>2026-04-26T08:27:52.728Z</time></trkpt><trkpt lat="42.9030667" lon="2.7214033"><ele>187.6</ele><time>2026-04-26T08:27:53.729Z</time></trkpt><trkpt lat="42.9030133" lon="2.721525"><ele>187.0</ele><time>2026-04-26T08:27:54.728Z</time></trkpt><trkpt lat="42.902975" lon="2.72166"><ele>187.0</ele><time>2026-04-26T08:27:55.728Z</time></trkpt><trkpt lat="42.9029533" lon="2.7217933"><ele>187.0</ele><time>2026-04-26T08:27:56.729Z</time></trkpt><trkpt lat="42.9029283" lon="2.7219267"><ele>187.0</ele><time>2026-04-26T08:27:57.728Z</time></trkpt><trkpt lat="42.9028883" lon="2.7220483"><ele>187.0</ele><time>2026-04-26T08:27:58.727Z</time></trkpt><trkpt lat="42.9028267" lon="2.7221583"><ele>187.0</ele><time>2026-04-26T08:27:59.728Z</time></trkpt><trkpt lat="42.90275" lon="2.72226"><ele>186.2</ele><time>2026-04-26T08:28:00.729Z</time></trkpt><trkpt lat="42.9026733" lon="2.7223517"><ele>185.39999999999998</ele><time>2026-04-26T08:28:01.729Z</time></trkpt><trkpt lat="42.9026017" lon="2.7224533"><ele>184.60000000000002</ele><time>2026-04-26T08:28:02.728Z</time></trkpt><trkpt lat="42.902545" lon="2.722565"><ele>183.8</ele><time>2026-04-26T08:28:03.731Z</time></trkpt><trkpt lat="42.9025067" lon="2.72268"><ele>183.0</ele><time>2026-04-26T08:28:04.729Z</time></trkpt><trkpt lat="42.902485" lon="2.7228"><ele>182.0</ele><time>2026-04-26T08:28:05.728Z</time></trkpt><trkpt lat="42.90248" lon="2.722915"><ele>181.0</ele><time>2026-04-26T08:28:06.728Z</time></trkpt><trkpt lat="42.90248" lon="2.7230067"><ele>180.0</ele><time>2026-04-26T08:28:07.731Z</time></trkpt><trkpt lat="42.9025133" lon="2.72308"><ele>179.0</ele><time>2026-04-26T08:28:08.73Z</time></trkpt><trkpt lat="42.9025733" lon="2.7231533"><ele>178.0</ele><time>2026-04-26T08:28:09.729Z</time></trkpt><trkpt lat="42.902655" lon="2.7232317"><ele>177.0</ele><time>2026-04-26T08:28:10.727Z</time></trkpt><trkpt lat="42.9027283" lon="2.7233033"><ele>177.0</ele><time>2026-04-26T08:28:11.728Z</time></trkpt><trkpt lat="42.9028017" lon="2.72337"><ele>177.0</ele><time>2026-04-26T08:28:12.731Z</time></trkpt><trkpt lat="42.9028767" lon="2.7234283"><ele>177.0</ele><time>2026-04-26T08:28:13.728Z</time></trkpt><trkpt lat="42.9029383" lon="2.72347"><ele>177.0</ele><time>2026-04-26T08:28:14.73Z</time></trkpt><trkpt lat="42.9029983" lon="2.7235317"><ele>177.0</ele><time>2026-04-26T08:28:16.729Z</time></trkpt><trkpt lat="42.9029017" lon="2.7236067"><ele>177.0</ele><time>2026-04-26T08:28:19.73Z</time></trkpt><trkpt lat="42.9028183" lon="2.7236183"><ele>175.25</ele><time>2026-04-26T08:28:20.729Z</time></trkpt><trkpt lat="42.9027283" lon="2.723635"><ele>173.5</ele><time>2026-04-26T08:28:21.731Z</time></trkpt><trkpt lat="42.902625" lon="2.7236517"><ele>171.75</ele><time>2026-04-26T08:28:22.73Z</time></trkpt><trkpt lat="42.9025017" lon="2.7236667"><ele>170.0</ele><time>2026-04-26T08:28:23.729Z</time></trkpt><trkpt lat="42.902365" lon="2.7236767"><ele>169.5</ele><time>2026-04-26T08:28:24.729Z</time></trkpt><trkpt lat="42.9022267" lon="2.72369"><ele>169.0</ele><time>2026-04-26T08:28:25.731Z</time></trkpt><trkpt lat="42.9020833" lon="2.7237017"><ele>168.5</ele><time>2026-04-26T08:28:26.729Z</time></trkpt><trkpt lat="42.9019367" lon="2.7237133"><ele>168.0</ele><time>2026-04-26T08:28:27.729Z</time></trkpt><trkpt lat="42.9017883" lon="2.7237217"><ele>167.66666666666666</ele><time>2026-04-26T08:28:28.73Z</time></trkpt><trkpt lat="42.9016383" lon="2.7237317"><ele>167.33333333333331</ele><time>2026-04-26T08:28:29.73Z</time></trkpt><trkpt lat="42.901485" lon="2.7237467"><ele>167.0</ele><time>2026-04-26T08:28:30.729Z</time></trkpt><trkpt lat="42.9013317" lon="2.723775"><ele>167.0</ele><time>2026-04-26T08:28:31.729Z</time></trkpt><trkpt lat="42.9011767" lon="2.723805"><ele>167.0</ele><time>2026-04-26T08:28:32.73Z</time></trkpt><trkpt lat="42.9010217" lon="2.7238233"><ele>167.0</ele><time>2026-04-26T08:28:33.73Z</time></trkpt><trkpt lat="42.9008683" lon="2.7238217"><ele>166.33333333333331</ele><time>2026-04-26T08:28:34.73Z</time></trkpt><trkpt lat="42.900715" lon="2.7238117"><ele>165.66666666666666</ele><time>2026-04-26T08:28:35.731Z</time></trkpt><trkpt lat="42.9005583" lon="2.723795"><ele>165.0</ele><time>2026-04-26T08:28:36.73Z</time></trkpt><trkpt lat="42.9004" lon="2.723785"><ele>165.0</ele><time>2026-04-26T08:28:37.731Z</time></trkpt><trkpt lat="42.9002367" lon="2.7237733"><ele>165.0</ele><time>2026-04-26T08:28:38.729Z</time></trkpt><trkpt lat="42.9000733" lon="2.7237583"><ele>165.0</ele><time>2026-04-26T08:28:39.731Z</time></trkpt><trkpt lat="42.8999067" lon="2.7237467"><ele>164.66666666666666</ele><time>2026-04-26T08:28:40.729Z</time></trkpt><trkpt lat="42.8997417" lon="2.7237183"><ele>164.33333333333331</ele><time>2026-04-26T08:28:41.731Z</time></trkpt><trkpt lat="42.8995817" lon="2.72368"><ele>164.0</ele><time>2026-04-26T08:28:42.731Z</time></trkpt><trkpt lat="42.8994233" lon="2.7236483"><ele>164.0</ele><time>2026-04-26T08:28:43.731Z</time></trkpt><trkpt lat="42.899265" lon="2.7236283"><ele>164.0</ele><time>2026-04-26T08:28:44.73Z</time></trkpt><trkpt lat="42.89911" lon="2.7236367"><ele>164.0</ele><time>2026-04-26T08:28:45.73Z</time></trkpt><trkpt lat="42.89896" lon="2.7236583"><ele>164.0</ele><time>2026-04-26T08:28:46.728Z</time></trkpt><trkpt lat="42.8988067" lon="2.723685"><ele>164.0</ele><time>2026-04-26T08:28:47.729Z</time></trkpt><trkpt lat="42.8986533" lon="2.7237017"><ele>164.0</ele><time>2026-04-26T08:28:48.728Z</time></trkpt><trkpt lat="42.898505" lon="2.7237067"><ele>163.0</ele><time>2026-04-26T08:28:49.73Z</time></trkpt><trkpt lat="42.8983533" lon="2.7236933"><ele>162.0</ele><time>2026-04-26T08:28:50.729Z</time></trkpt><trkpt lat="42.8982033" lon="2.7236683"><ele>161.0</ele><time>2026-04-26T08:28:51.734Z</time></trkpt><trkpt lat="42.8980533" lon="2.72364"><ele>161.0</ele><time>2026-04-26T08:28:52.729Z</time></trkpt><trkpt lat="42.8979" lon="2.7236233"><ele>161.0</ele><time>2026-04-26T08:28:53.73Z</time></trkpt><trkpt lat="42.8977467" lon="2.7236317"><ele>161.0</ele><time>2026-04-26T08:28:54.729Z</time></trkpt><trkpt lat="42.8975933" lon="2.7236367"><ele>161.0</ele><time>2026-04-26T08:28:55.73Z</time></trkpt><trkpt lat="42.8974367" lon="2.7236167"><ele>161.0</ele><time>2026-04-26T08:28:56.729Z</time></trkpt><trkpt lat="42.8972783" lon="2.7235867"><ele>161.0</ele><time>2026-04-26T08:28:57.728Z</time></trkpt><trkpt lat="42.8971233" lon="2.7235533"><ele>161.0</ele><time>2026-04-26T08:28:58.728Z</time></trkpt><trkpt lat="42.8969617" lon="2.72355"><ele>161.0</ele><time>2026-04-26T08:28:59.73Z</time></trkpt><trkpt lat="42.8968167" lon="2.72356"><ele>161.0</ele><time>2026-04-26T08:29:00.729Z</time></trkpt><trkpt lat="42.8967017" lon="2.7235667"><ele>161.0</ele><time>2026-04-26T08:29:01.728Z</time></trkpt><trkpt lat="42.89661" lon="2.723575"><ele>161.0</ele><time>2026-04-26T08:29:02.728Z</time></trkpt><trkpt lat="42.896545" lon="2.7235783"><ele>161.0</ele><time>2026-04-26T08:29:03.727Z</time></trkpt><trkpt lat="42.89648" lon="2.7235917"><ele>161.0</ele><time>2026-04-26T08:29:05.728Z</time></trkpt><trkpt lat="42.89655" lon="2.7236483"><ele>161.0</ele><time>2026-04-26T08:29:09.729Z</time></trkpt><trkpt lat="42.896645" lon="2.7236633"><ele>161.0</ele><time>2026-04-26T08:29:11.729Z</time></trkpt><trkpt lat="42.8967383" lon="2.7236867"><ele>161.0</ele><time>2026-04-26T08:29:13.728Z</time></trkpt><trkpt lat="42.8968417" lon="2.7237483"><ele>160.83333333333331</ele><time>2026-04-26T08:29:15.729Z</time></trkpt><trkpt lat="42.8969017" lon="2.7237917"><ele>160.66666666666666</ele><time>2026-04-26T08:29:16.728Z</time></trkpt><trkpt lat="42.8969667" lon="2.7238433"><ele>160.5</ele><time>2026-04-26T08:29:17.729Z</time></trkpt><trkpt lat="42.897035" lon="2.7238933"><ele>160.33333333333334</ele><time>2026-04-26T08:29:18.732Z</time></trkpt><trkpt lat="42.8971033" lon="2.72394"><ele>160.16666666666669</ele><time>2026-04-26T08:29:19.728Z</time></trkpt><trkpt lat="42.8972017" lon="2.7239817"><ele>160.0</ele><time>2026-04-26T08:29:21.73Z</time></trkpt><trkpt lat="42.8971383" lon="2.724055"><ele>160.0</ele><time>2026-04-26T08:29:25.729Z</time></trkpt><trkpt lat="42.8970617" lon="2.7240417"><ele>160.0</ele><time>2026-04-26T08:29:26.73Z</time></trkpt><trkpt lat="42.8969633" lon="2.7240317"><ele>160.0</ele><time>2026-04-26T08:29:27.73Z</time></trkpt><trkpt lat="42.8968483" lon="2.7240233"><ele>160.0</ele><time>2026-04-26T08:29:28.732Z</time></trkpt><trkpt lat="42.896715" lon="2.72402"><ele>160.0</ele><time>2026-04-26T08:29:29.733Z</time></trkpt><trkpt lat="42.8965717" lon="2.7240183"><ele>160.25</ele><time>2026-04-26T08:29:30.728Z</time></trkpt><trkpt lat="42.8964283" lon="2.7240167"><ele>160.5</ele><time>2026-04-26T08:29:31.728Z</time></trkpt><trkpt lat="42.8962883" lon="2.724015"><ele>160.75</ele><time>2026-04-26T08:29:32.729Z</time></trkpt><trkpt lat="42.8961583" lon="2.72401"><ele>161.0</ele><time>2026-04-26T08:29:33.729Z</time></trkpt><trkpt lat="42.896035" lon="2.7239967"><ele>161.25</ele><time>2026-04-26T08:29:34.729Z</time></trkpt><trkpt lat="42.89591" lon="2.723975"><ele>161.5</ele><time>2026-04-26T08:29:35.728Z</time></trkpt><trkpt lat="42.8957867" lon="2.7239517"><ele>161.75</ele><time>2026-04-26T08:29:36.728Z</time></trkpt><trkpt lat="42.89567" lon="2.723935"><ele>162.0</ele><time>2026-04-26T08:29:37.729Z</time></trkpt><trkpt lat="42.8955617" lon="2.7239383"><ele>162.0</ele><time>2026-04-26T08:29:38.731Z</time></trkpt><trkpt lat="42.89545" lon="2.7239583"><ele>162.0</ele><time>2026-04-26T08:29:39.733Z</time></trkpt><trkpt lat="42.8953333" lon="2.7240033"><ele>162.0</ele><time>2026-04-26T08:29:40.729Z</time></trkpt><trkpt lat="42.8952183" lon="2.7240567"><ele>162.0</ele><time>2026-04-26T08:29:41.73Z</time></trkpt><trkpt lat="42.8951067" lon="2.7241167"><ele>161.2</ele><time>2026-04-26T08:29:42.732Z</time></trkpt><trkpt lat="42.8950033" lon="2.7241883"><ele>160.39999999999998</ele><time>2026-04-26T08:29:43.729Z</time></trkpt><trkpt lat="42.8949083" lon="2.724265"><ele>159.60000000000002</ele><time>2026-04-26T08:29:44.729Z</time></trkpt><trkpt lat="42.8948283" lon="2.7243367"><ele>158.8</ele><time>2026-04-26T08:29:45.73Z</time></trkpt><trkpt lat="42.8947567" lon="2.724395"><ele>158.0</ele><time>2026-04-26T08:29:46.729Z</time></trkpt><trkpt lat="42.8946883" lon="2.72445"><ele>159.5</ele><time>2026-04-26T08:29:47.729Z</time></trkpt><trkpt lat="42.8946167" lon="2.7245"><ele>161.0</ele><time>2026-04-26T08:29:48.73Z</time></trkpt><trkpt lat="42.8945417" lon="2.7245383"><ele>162.5</ele><time>2026-04-26T08:29:49.728Z</time></trkpt><trkpt lat="42.8944733" lon="2.724565"><ele>164.0</ele><time>2026-04-26T08:29:50.729Z</time></trkpt><trkpt lat="42.8943783" lon="2.72461"><ele>165.5</ele><time>2026-04-26T08:29:52.729Z</time></trkpt><trkpt lat="42.89435" lon="2.7247083"><ele>167.0</ele><time>2026-04-26T08:29:54.729Z</time></trkpt><trkpt lat="42.894405" lon="2.7248867"><ele>167.0</ele><time>2026-04-26T08:29:56.73Z</time></trkpt><trkpt lat="42.89443" lon="2.7250033"><ele>167.0</ele><time>2026-04-26T08:29:57.73Z</time></trkpt><trkpt lat="42.894445" lon="2.7251083"><ele>167.0</ele><time>2026-04-26T08:29:58.729Z</time></trkpt><trkpt lat="42.8944417" lon="2.7252233"><ele>167.0</ele><time>2026-04-26T08:29:59.731Z</time></trkpt><trkpt lat="42.894425" lon="2.72533"><ele>167.0</ele><time>2026-04-26T08:30:00.731Z</time></trkpt><trkpt lat="42.8943917" lon="2.725415"><ele>167.0</ele><time>2026-04-26T08:30:01.732Z</time></trkpt><trkpt lat="42.89434" lon="2.7254783"><ele>166.8</ele><time>2026-04-26T08:30:02.731Z</time></trkpt><trkpt lat="42.8942617" lon="2.7255"><ele>166.6</ele><time>2026-04-26T08:30:03.73Z</time></trkpt><trkpt lat="42.8941683" lon="2.7254967"><ele>166.4</ele><time>2026-04-26T08:30:04.731Z</time></trkpt><trkpt lat="42.89408" lon="2.7254683"><ele>166.20000000000002</ele><time>2026-04-26T08:30:05.73Z</time></trkpt><trkpt lat="42.8939917" lon="2.7254217"><ele>166.0</ele><time>2026-04-26T08:30:06.729Z</time></trkpt><trkpt lat="42.8939067" lon="2.7253717"><ele>166.0</ele><time>2026-04-26T08:30:07.729Z</time></trkpt><trkpt lat="42.8938183" lon="2.7253317"><ele>166.0</ele><time>2026-04-26T08:30:08.728Z</time></trkpt><trkpt lat="42.89373" lon="2.725295"><ele>166.0</ele><time>2026-04-26T08:30:09.73Z</time></trkpt><trkpt lat="42.89364" lon="2.7252583"><ele>166.0</ele><time>2026-04-26T08:30:10.73Z</time></trkpt><trkpt lat="42.893555" lon="2.7252217"><ele>166.0</ele><time>2026-04-26T08:30:11.73Z</time></trkpt><trkpt lat="42.8934717" lon="2.725195"><ele>165.83333333333334</ele><time>2026-04-26T08:30:12.728Z</time></trkpt><trkpt lat="42.8933967" lon="2.72518"><ele>165.66666666666669</ele><time>2026-04-26T08:30:13.73Z</time></trkpt><trkpt lat="42.8933183" lon="2.7251783"><ele>165.5</ele><time>2026-04-26T08:30:14.73Z</time></trkpt><trkpt lat="42.89323" lon="2.7251983"><ele>165.33333333333334</ele><time>2026-04-26T08:30:15.728Z</time></trkpt><trkpt lat="42.8931467" lon="2.7252317"><ele>165.16666666666666</ele><time>2026-04-26T08:30:16.729Z</time></trkpt><trkpt lat="42.8930633" lon="2.7252917"><ele>165.0</ele><time>2026-04-26T08:30:17.728Z</time></trkpt><trkpt lat="42.892975" lon="2.72538"><ele>165.0</ele><time>2026-04-26T08:30:18.729Z</time></trkpt><trkpt lat="42.8928633" lon="2.7254633"><ele>165.0</ele><time>2026-04-26T08:30:19.731Z</time></trkpt><trkpt lat="42.8927233" lon="2.725535"><ele>165.0</ele><time>2026-04-26T08:30:20.73Z</time></trkpt><trkpt lat="42.8925683" lon="2.725595"><ele>165.0</ele><time>2026-04-26T08:30:21.729Z</time></trkpt><trkpt lat="42.8924067" lon="2.7256533"><ele>165.0</ele><time>2026-04-26T08:30:22.729Z</time></trkpt><trkpt lat="42.8922483" lon="2.7257167"><ele>165.0</ele><time>2026-04-26T08:30:23.729Z</time></trkpt><trkpt lat="42.8920933" lon="2.7257717"><ele>165.0</ele><time>2026-04-26T08:30:24.731Z</time></trkpt><trkpt lat="42.8919417" lon="2.7258183"><ele>165.0</ele><time>2026-04-26T08:30:25.729Z</time></trkpt><trkpt lat="42.891795" lon="2.7258567"><ele>165.0</ele><time>2026-04-26T08:30:26.729Z</time></trkpt><trkpt lat="42.8916517" lon="2.7258783"><ele>165.0</ele><time>2026-04-26T08:30:27.729Z</time></trkpt><trkpt lat="42.891505" lon="2.7258867"><ele>165.0</ele><time>2026-04-26T08:30:28.727Z</time></trkpt><trkpt lat="42.8913583" lon="2.725875"><ele>164.75</ele><time>2026-04-26T08:30:29.728Z</time></trkpt><trkpt lat="42.891225" lon="2.72586"><ele>164.5</ele><time>2026-04-26T08:30:30.729Z</time></trkpt><trkpt lat="42.8910933" lon="2.725855"><ele>164.25</ele><time>2026-04-26T08:30:31.728Z</time></trkpt><trkpt lat="42.8909683" lon="2.725855"><ele>164.0</ele><time>2026-04-26T08:30:32.727Z</time></trkpt><trkpt lat="42.8908567" lon="2.725855"><ele>163.16666666666666</ele><time>2026-04-26T08:30:33.729Z</time></trkpt><trkpt lat="42.8907667" lon="2.7258517"><ele>162.33333333333331</ele><time>2026-04-26T08:30:34.727Z</time></trkpt><trkpt lat="42.890685" lon="2.7258583"><ele>161.5</ele><time>2026-04-26T08:30:35.727Z</time></trkpt><trkpt lat="42.89061" lon="2.7258867"><ele>160.66666666666666</ele><time>2026-04-26T08:30:36.727Z</time></trkpt><trkpt lat="42.8905333" lon="2.7259417"><ele>159.83333333333334</ele><time>2026-04-26T08:30:37.728Z</time></trkpt><trkpt lat="42.8904567" lon="2.7260167"><ele>159.0</ele><time>2026-04-26T08:30:38.728Z</time></trkpt><trkpt lat="42.8903833" lon="2.7260833"><ele>159.0</ele><time>2026-04-26T08:30:39.729Z</time></trkpt><trkpt lat="42.8903233" lon="2.726125"><ele>159.0</ele><time>2026-04-26T08:30:40.729Z</time></trkpt><trkpt lat="42.89022" lon="2.726145"><ele>159.0</ele><time>2026-04-26T08:30:42.727Z</time></trkpt><trkpt lat="42.8901333" lon="2.7260533"><ele>159.0</ele><time>2026-04-26T08:30:44.73Z</time></trkpt><trkpt lat="42.8900283" lon="2.7259767"><ele>159.0</ele><time>2026-04-26T08:30:46.728Z</time></trkpt><trkpt lat="42.889945" lon="2.7259783"><ele>159.4</ele><time>2026-04-26T08:30:47.728Z</time></trkpt><trkpt lat="42.8898517" lon="2.7259833"><ele>159.8</ele><time>2026-04-26T08:30:48.73Z</time></trkpt><trkpt lat="42.8897317" lon="2.7260033"><ele>160.20000000000002</ele><time>2026-04-26T08:30:49.727Z</time></trkpt><trkpt lat="42.889615" lon="2.72603"><ele>160.60000000000002</ele><time>2026-04-26T08:30:50.728Z</time></trkpt><trkpt lat="42.88952" lon="2.7260583"><ele>161.0</ele><time>2026-04-26T08:30:51.728Z</time></trkpt><trkpt lat="42.8894383" lon="2.7260867"><ele>161.0</ele><time>2026-04-26T08:30:52.729Z</time></trkpt><trkpt lat="42.8893767" lon="2.7261183"><ele>161.0</ele><time>2026-04-26T08:30:53.731Z</time></trkpt><trkpt lat="42.8893083" lon="2.7261533"><ele>161.0</ele><time>2026-04-26T08:30:55.73Z</time></trkpt><trkpt lat="42.8893017" lon="2.726065"><ele>161.0</ele><time>2026-04-26T08:30:59.729Z</time></trkpt><trkpt lat="42.8893967" lon="2.7260617"><ele>161.0</ele><time>2026-04-26T08:31:01.729Z</time></trkpt><trkpt lat="42.8894783" lon="2.7260567"><ele>161.0</ele><time>2026-04-26T08:31:02.729Z</time></trkpt><trkpt lat="42.8895567" lon="2.7260417"><ele>161.0</ele><time>2026-04-26T08:31:03.73Z</time></trkpt><trkpt lat="42.8896517" lon="2.7260217"><ele>161.0</ele><time>2026-04-26T08:31:05.729Z</time></trkpt><trkpt lat="42.88968" lon="2.7261083"><ele>161.0</ele><time>2026-04-26T08:31:07.731Z</time></trkpt><trkpt lat="42.8896783" lon="2.7261983"><ele>161.0</ele><time>2026-04-26T08:31:08.729Z</time></trkpt><trkpt lat="42.889685" lon="2.726315"><ele>161.0</ele><time>2026-04-26T08:31:09.729Z</time></trkpt><trkpt lat="42.8896967" lon="2.7264383"><ele>161.0</ele><time>2026-04-26T08:31:10.729Z</time></trkpt><trkpt lat="42.8897167" lon="2.72656"><ele>161.0</ele><time>2026-04-26T08:31:11.728Z</time></trkpt><trkpt lat="42.8897383" lon="2.72669"><ele>161.0</ele><time>2026-04-26T08:31:12.727Z</time></trkpt><trkpt lat="42.88975" lon="2.72683"><ele>161.0</ele><time>2026-04-26T08:31:13.727Z</time></trkpt><trkpt lat="42.8897533" lon="2.726975"><ele>161.0</ele><time>2026-04-26T08:31:14.731Z</time></trkpt><trkpt lat="42.8897667" lon="2.7271217"><ele>161.0</ele><time>2026-04-26T08:31:15.727Z</time></trkpt><trkpt lat="42.889785" lon="2.7272683"><ele>162.20000000000002</ele><time>2026-04-26T08:31:16.727Z</time></trkpt><trkpt lat="42.8898017" lon="2.7273983"><ele>163.4</ele><time>2026-04-26T08:31:17.729Z</time></trkpt><trkpt lat="42.88981" lon="2.727515"><ele>164.6</ele><time>2026-04-26T08:31:18.729Z</time></trkpt><trkpt lat="42.8898083" lon="2.727645"><ele>165.8</ele><time>2026-04-26T08:31:19.729Z</time></trkpt><trkpt lat="42.8897967" lon="2.7277867"><ele>167.0</ele><time>2026-04-26T08:31:20.732Z</time></trkpt><trkpt lat="42.889775" lon="2.7279267"><ele>166.8</ele><time>2026-04-26T08:31:21.727Z</time></trkpt><trkpt lat="42.889755" lon="2.728075"><ele>166.6</ele><time>2026-04-26T08:31:22.728Z</time></trkpt><trkpt lat="42.8897467" lon="2.7282233"><ele>166.4</ele><time>2026-04-26T08:31:23.728Z</time></trkpt><trkpt lat="42.8897517" lon="2.728365"><ele>166.20000000000002</ele><time>2026-04-26T08:31:24.728Z</time></trkpt><trkpt lat="42.8897583" lon="2.7285"><ele>166.0</ele><time>2026-04-26T08:31:25.727Z</time></trkpt><trkpt lat="42.88976" lon="2.7286233"><ele>166.0</ele><time>2026-04-26T08:31:26.728Z</time></trkpt><trkpt lat="42.8897417" lon="2.728735"><ele>166.0</ele><time>2026-04-26T08:31:27.728Z</time></trkpt><trkpt lat="42.8897117" lon="2.7288433"><ele>166.0</ele><time>2026-04-26T08:31:28.728Z</time></trkpt><trkpt lat="42.8896917" lon="2.7289533"><ele>166.0</ele><time>2026-04-26T08:31:29.728Z</time></trkpt><trkpt lat="42.8896833" lon="2.7290533"><ele>166.0</ele><time>2026-04-26T08:31:30.728Z</time></trkpt><trkpt lat="42.8896967" lon="2.729145"><ele>166.0</ele><time>2026-04-26T08:31:31.728Z</time></trkpt><trkpt lat="42.8897367" lon="2.7292267"><ele>166.0</ele><time>2026-04-26T08:31:32.727Z</time></trkpt><trkpt lat="42.8898067" lon="2.7293117"><ele>166.0</ele><time>2026-04-26T08:31:33.728Z</time></trkpt><trkpt lat="42.8899" lon="2.7294033"><ele>166.0</ele><time>2026-04-26T08:31:34.727Z</time></trkpt><trkpt lat="42.8899983" lon="2.7294917"><ele>166.0</ele><time>2026-04-26T08:31:35.728Z</time></trkpt><trkpt lat="42.8900933" lon="2.729575"><ele>166.0</ele><time>2026-04-26T08:31:36.729Z</time></trkpt><trkpt lat="42.89019" lon="2.729665"><ele>164.8</ele><time>2026-04-26T08:31:37.727Z</time></trkpt><trkpt lat="42.890275" lon="2.7297633"><ele>163.60000000000002</ele><time>2026-04-26T08:31:38.728Z</time></trkpt><trkpt lat="42.890345" lon="2.72988"><ele>162.4</ele><time>2026-04-26T08:31:39.727Z</time></trkpt><trkpt lat="42.890405" lon="2.7300117"><ele>161.2</ele><time>2026-04-26T08:31:40.729Z</time></trkpt><trkpt lat="42.8904517" lon="2.73015"><ele>160.0</ele><time>2026-04-26T08:31:41.728Z</time></trkpt><trkpt lat="42.8904867" lon="2.73028"><ele>159.6</ele><time>2026-04-26T08:31:42.727Z</time></trkpt><trkpt lat="42.89051" lon="2.7304017"><ele>159.2</ele><time>2026-04-26T08:31:43.727Z</time></trkpt><trkpt lat="42.8905233" lon="2.7305233"><ele>158.8</ele><time>2026-04-26T08:31:44.727Z</time></trkpt><trkpt lat="42.89054" lon="2.7306417"><ele>158.4</ele><time>2026-04-26T08:31:45.728Z</time></trkpt><trkpt lat="42.8905767" lon="2.73075"><ele>158.0</ele><time>2026-04-26T08:31:46.728Z</time></trkpt><trkpt lat="42.8906433" lon="2.7308383"><ele>158.0</ele><time>2026-04-26T08:31:47.727Z</time></trkpt><trkpt lat="42.8907233" lon="2.730915"><ele>158.0</ele><time>2026-04-26T08:31:48.728Z</time></trkpt><trkpt lat="42.8908017" lon="2.730985"><ele>158.0</ele><time>2026-04-26T08:31:49.728Z</time></trkpt><trkpt lat="42.8908683" lon="2.7310517"><ele>158.0</ele><time>2026-04-26T08:31:50.729Z</time></trkpt><trkpt lat="42.8909133" lon="2.731125"><ele>158.0</ele><time>2026-04-26T08:31:51.727Z</time></trkpt><trkpt lat="42.8909117" lon="2.7312917"><ele>157.83333333333331</ele><time>2026-04-26T08:31:53.727Z</time></trkpt><trkpt lat="42.8908717" lon="2.731395"><ele>157.66666666666666</ele><time>2026-04-26T08:31:54.727Z</time></trkpt><trkpt lat="42.8908183" lon="2.7315033"><ele>157.5</ele><time>2026-04-26T08:31:55.728Z</time></trkpt><trkpt lat="42.8907683" lon="2.7316083"><ele>157.33333333333334</ele><time>2026-04-26T08:31:56.727Z</time></trkpt><trkpt lat="42.8907267" lon="2.7317"><ele>157.16666666666669</ele><time>2026-04-26T08:31:57.728Z</time></trkpt><trkpt lat="42.8906733" lon="2.73181"><ele>157.0</ele><time>2026-04-26T08:31:59.728Z</time></trkpt><trkpt lat="42.8906033" lon="2.731845"><ele>157.0</ele><time>2026-04-26T08:32:01.728Z</time></trkpt><trkpt lat="42.8905283" lon="2.7318217"><ele>157.0</ele><time>2026-04-26T08:32:02.728Z</time></trkpt><trkpt lat="42.8904433" lon="2.7317883"><ele>157.0</ele><time>2026-04-26T08:32:03.729Z</time></trkpt><trkpt lat="42.8903383" lon="2.73173"><ele>157.0</ele><time>2026-04-26T08:32:04.729Z</time></trkpt><trkpt lat="42.8902267" lon="2.7316767"><ele>157.0</ele><time>2026-04-26T08:32:05.729Z</time></trkpt><trkpt lat="42.8901067" lon="2.73161"><ele>156.25</ele><time>2026-04-26T08:32:06.728Z</time></trkpt><trkpt lat="42.8899783" lon="2.73153"><ele>155.5</ele><time>2026-04-26T08:32:07.729Z</time></trkpt><trkpt lat="42.8898467" lon="2.73144"><ele>154.75</ele><time>2026-04-26T08:32:08.727Z</time></trkpt><trkpt lat="42.8897067" lon="2.7313383"><ele>154.0</ele><time>2026-04-26T08:32:09.733Z</time></trkpt><trkpt lat="42.8895617" lon="2.7312317"><ele>154.0</ele><time>2026-04-26T08:32:10.731Z</time></trkpt><trkpt lat="42.8894133" lon="2.731125"><ele>154.0</ele><time>2026-04-26T08:32:11.729Z</time></trkpt><trkpt lat="42.88926" lon="2.7310183"><ele>154.0</ele><time>2026-04-26T08:32:12.728Z</time></trkpt><trkpt lat="42.8891083" lon="2.7309117"><ele>153.33333333333334</ele><time>2026-04-26T08:32:13.728Z</time></trkpt><trkpt lat="42.8889617" lon="2.7308033"><ele>152.66666666666666</ele><time>2026-04-26T08:32:14.729Z</time></trkpt><trkpt lat="42.8888233" lon="2.730685"><ele>152.0</ele><time>2026-04-26T08:32:15.734Z</time></trkpt><trkpt lat="42.8886933" lon="2.7305533"><ele>152.0</ele><time>2026-04-26T08:32:16.732Z</time></trkpt><trkpt lat="42.8885767" lon="2.73041"><ele>152.0</ele><time>2026-04-26T08:32:17.728Z</time></trkpt><trkpt lat="42.8884883" lon="2.73024"><ele>152.0</ele><time>2026-04-26T08:32:18.728Z</time></trkpt><trkpt lat="42.8884133" lon="2.730065"><ele>151.75</ele><time>2026-04-26T08:32:19.73Z</time></trkpt><trkpt lat="42.8883433" lon="2.72989"><ele>151.5</ele><time>2026-04-26T08:32:20.731Z</time></trkpt><trkpt lat="42.888275" lon="2.7297233"><ele>151.25</ele><time>2026-04-26T08:32:21.731Z</time></trkpt><trkpt lat="42.8882133" lon="2.7295667"><ele>151.0</ele><time>2026-04-26T08:32:22.728Z</time></trkpt><trkpt lat="42.888155" lon="2.72942"><ele>151.4</ele><time>2026-04-26T08:32:23.729Z</time></trkpt><trkpt lat="42.8881" lon="2.7292833"><ele>151.8</ele><time>2026-04-26T08:32:24.73Z</time></trkpt><trkpt lat="42.8880567" lon="2.72919"><ele>152.20000000000002</ele><time>2026-04-26T08:32:25.732Z</time></trkpt><trkpt lat="42.88796" lon="2.7291233"><ele>152.6</ele><time>2026-04-26T08:32:27.731Z</time></trkpt><trkpt lat="42.8878867" lon="2.7291217"><ele>153.0</ele><time>2026-04-26T08:32:29.73Z</time></trkpt><trkpt lat="42.8878767" lon="2.728995"><ele>153.0</ele><time>2026-04-26T08:49:28.729Z</time></trkpt><trkpt lat="42.8878933" lon="2.7289033"><ele>153.0</ele><time>2026-04-26T08:49:32.729Z</time></trkpt><trkpt lat="42.88789" lon="2.72877"><ele>153.0</ele><time>2026-04-26T08:49:36.728Z</time></trkpt><trkpt lat="42.8878383" lon="2.7286283"><ele>153.0</ele><time>2026-04-26T08:49:38.73Z</time></trkpt><trkpt lat="42.8878017" lon="2.7285433"><ele>153.0</ele><time>2026-04-26T08:49:39.73Z</time></trkpt><trkpt lat="42.8877583" lon="2.7284467"><ele>153.0</ele><time>2026-04-26T08:49:40.73Z</time></trkpt><trkpt lat="42.8877133" lon="2.7283383"><ele>152.6</ele><time>2026-04-26T08:49:41.73Z</time></trkpt><trkpt lat="42.887665" lon="2.7282167"><ele>152.20000000000002</ele><time>2026-04-26T08:49:42.728Z</time></trkpt><trkpt lat="42.8876133" lon="2.728085"><ele>151.8</ele><time>2026-04-26T08:49:43.731Z</time></trkpt><trkpt lat="42.8875583" lon="2.72795"><ele>151.4</ele><time>2026-04-26T08:49:44.731Z</time></trkpt><trkpt lat="42.8875017" lon="2.72781"><ele>151.0</ele><time>2026-04-26T08:49:45.729Z</time></trkpt><trkpt lat="42.88744" lon="2.727665"><ele>151.0</ele><time>2026-04-26T08:49:46.731Z</time></trkpt><trkpt lat="42.8873767" lon="2.727515"><ele>151.0</ele><time>2026-04-26T08:49:47.729Z</time></trkpt><trkpt lat="42.887315" lon="2.727365"><ele>151.0</ele><time>2026-04-26T08:49:48.728Z</time></trkpt><trkpt lat="42.887255" lon="2.7272133"><ele>151.0</ele><time>2026-04-26T08:49:49.73Z</time></trkpt><trkpt lat="42.8871917" lon="2.72706"><ele>151.0</ele><time>2026-04-26T08:49:50.728Z</time></trkpt><trkpt lat="42.8871367" lon="2.726905"><ele>151.0</ele><time>2026-04-26T08:49:51.726Z</time></trkpt><trkpt lat="42.8870767" lon="2.7267617"><ele>151.0</ele><time>2026-04-26T08:49:52.731Z</time></trkpt><trkpt lat="42.8870233" lon="2.72662"><ele>151.0</ele><time>2026-04-26T08:49:53.731Z</time></trkpt><trkpt lat="42.886965" lon="2.7264783"><ele>151.0</ele><time>2026-04-26T08:49:54.728Z</time></trkpt><trkpt lat="42.8869133" lon="2.72634"><ele>151.0</ele><time>2026-04-26T08:49:55.728Z</time></trkpt><trkpt lat="42.8868717" lon="2.7261983"><ele>151.0</ele><time>2026-04-26T08:49:56.727Z</time></trkpt><trkpt lat="42.8868433" lon="2.72605"><ele>151.0</ele><time>2026-04-26T08:49:57.728Z</time></trkpt><trkpt lat="42.8868217" lon="2.7258883"><ele>151.0</ele><time>2026-04-26T08:49:58.728Z</time></trkpt><trkpt lat="42.886815" lon="2.725715"><ele>151.0</ele><time>2026-04-26T08:49:59.728Z</time></trkpt><trkpt lat="42.8868167" lon="2.725535"><ele>151.0</ele><time>2026-04-26T08:50:00.727Z</time></trkpt><trkpt lat="42.88682" lon="2.72536"><ele>151.0</ele><time>2026-04-26T08:50:01.729Z</time></trkpt><trkpt lat="42.88682" lon="2.7251967"><ele>150.4</ele><time>2026-04-26T08:50:02.728Z</time></trkpt><trkpt lat="42.88682" lon="2.7250433"><ele>149.8</ele><time>2026-04-26T08:50:03.727Z</time></trkpt><trkpt lat="42.88682" lon="2.7248933"><ele>149.20000000000002</ele><time>2026-04-26T08:50:04.728Z</time></trkpt><trkpt lat="42.88682" lon="2.72475"><ele>148.6</ele><time>2026-04-26T08:50:05.727Z</time></trkpt><trkpt lat="42.8868217" lon="2.7246117"><ele>148.0</ele><time>2026-04-26T08:50:06.73Z</time></trkpt><trkpt lat="42.8868217" lon="2.7244817"><ele>148.5</ele><time>2026-04-26T08:50:07.726Z</time></trkpt><trkpt lat="42.8868233" lon="2.7243633"><ele>149.0</ele><time>2026-04-26T08:50:08.727Z</time></trkpt><trkpt lat="42.886825" lon="2.7242533"><ele>149.5</ele><time>2026-04-26T08:50:09.726Z</time></trkpt><trkpt lat="42.886825" lon="2.7241417"><ele>150.0</ele><time>2026-04-26T08:50:10.728Z</time></trkpt><trkpt lat="42.8868267" lon="2.72403"><ele>150.5</ele><time>2026-04-26T08:50:11.727Z</time></trkpt><trkpt lat="42.8868233" lon="2.72392"><ele>151.0</ele><time>2026-04-26T08:50:12.729Z</time></trkpt><trkpt lat="42.8868167" lon="2.7238117"><ele>151.0</ele><time>2026-04-26T08:50:13.727Z</time></trkpt><trkpt lat="42.8868033" lon="2.7237017"><ele>151.0</ele><time>2026-04-26T08:50:14.729Z</time></trkpt><trkpt lat="42.8867817" lon="2.7235933"><ele>151.0</ele><time>2026-04-26T08:50:15.733Z</time></trkpt><trkpt lat="42.88675" lon="2.7234867"><ele>151.0</ele><time>2026-04-26T08:50:16.73Z</time></trkpt><trkpt lat="42.886725" lon="2.7233683"><ele>151.0</ele><time>2026-04-26T08:50:17.726Z</time></trkpt><trkpt lat="42.8867" lon="2.7232333"><ele>151.0</ele><time>2026-04-26T08:50:18.728Z</time></trkpt><trkpt lat="42.8866733" lon="2.7230967"><ele>152.2</ele><time>2026-04-26T08:50:19.727Z</time></trkpt><trkpt lat="42.886645" lon="2.722965"><ele>153.39999999999998</ele><time>2026-04-26T08:50:20.729Z</time></trkpt><trkpt lat="42.88662" lon="2.7228533"><ele>154.6</ele><time>2026-04-26T08:50:21.727Z</time></trkpt><trkpt lat="42.8866" lon="2.7227517"><ele>155.79999999999998</ele><time>2026-04-26T08:50:22.727Z</time></trkpt><trkpt lat="42.8865783" lon="2.722665"><ele>157.0</ele><time>2026-04-26T08:50:23.727Z</time></trkpt><trkpt lat="42.8865117" lon="2.7225267"><ele>157.14285714285714</ele><time>2026-04-26T08:50:25.729Z</time></trkpt><trkpt lat="42.8864717" lon="2.7224517"><ele>157.28571428571428</ele><time>2026-04-26T08:50:26.728Z</time></trkpt><trkpt lat="42.8864367" lon="2.7223667"><ele>157.42857142857144</ele><time>2026-04-26T08:50:27.729Z</time></trkpt><trkpt lat="42.8864083" lon="2.7222767"><ele>157.57142857142856</ele><time>2026-04-26T08:50:28.728Z</time></trkpt><trkpt lat="42.8863783" lon="2.7221833"><ele>157.71428571428572</ele><time>2026-04-26T08:50:29.729Z</time></trkpt><trkpt lat="42.886355" lon="2.7220917"><ele>157.85714285714286</ele><time>2026-04-26T08:50:30.728Z</time></trkpt><trkpt lat="42.8863383" lon="2.7220067"><ele>158.0</ele><time>2026-04-26T08:50:31.727Z</time></trkpt><trkpt lat="42.88633" lon="2.7218433"><ele>158.0</ele><time>2026-04-26T08:50:33.728Z</time></trkpt><trkpt lat="42.8863233" lon="2.72174"><ele>158.0</ele><time>2026-04-26T08:50:35.728Z</time></trkpt><trkpt lat="42.8862083" lon="2.7217517"><ele>158.0</ele><time>2026-04-26T08:50:38.73Z</time></trkpt><trkpt lat="42.8861433" lon="2.7218"><ele>158.0</ele><time>2026-04-26T08:50:39.728Z</time></trkpt><trkpt lat="42.8860733" lon="2.72185"><ele>158.0</ele><time>2026-04-26T08:50:40.728Z</time></trkpt><trkpt lat="42.8860067" lon="2.721905"><ele>158.0</ele><time>2026-04-26T08:50:41.727Z</time></trkpt><trkpt lat="42.8859467" lon="2.7219483"><ele>157.83333333333331</ele><time>2026-04-26T08:50:42.727Z</time></trkpt><trkpt lat="42.8858417" lon="2.7220067"><ele>157.66666666666666</ele><time>2026-04-26T08:50:44.727Z</time></trkpt><trkpt lat="42.88577" lon="2.7220317"><ele>157.5</ele><time>2026-04-26T08:50:46.73Z</time></trkpt><trkpt lat="42.8856967" lon="2.7220083"><ele>157.33333333333334</ele><time>2026-04-26T08:51:03.728Z</time></trkpt><trkpt lat="42.8856217" lon="2.72201"><ele>157.16666666666669</ele><time>2026-04-26T08:51:04.728Z</time></trkpt><trkpt lat="42.8855367" lon="2.7220233"><ele>157.0</ele><time>2026-04-26T08:51:05.728Z</time></trkpt><trkpt lat="42.8854367" lon="2.7220467"><ele>157.0</ele><time>2026-04-26T08:51:06.729Z</time></trkpt><trkpt lat="42.8853317" lon="2.722085"><ele>157.0</ele><time>2026-04-26T08:51:07.728Z</time></trkpt><trkpt lat="42.8852233" lon="2.72213"><ele>157.0</ele><time>2026-04-26T08:51:08.728Z</time></trkpt><trkpt lat="42.8851117" lon="2.72217"><ele>157.0</ele><time>2026-04-26T08:51:09.73Z</time></trkpt><trkpt lat="42.8849917" lon="2.7222017"><ele>155.75</ele><time>2026-04-26T08:51:10.729Z</time></trkpt><trkpt lat="42.8848667" lon="2.7222317"><ele>154.5</ele><time>2026-04-26T08:51:11.729Z</time></trkpt><trkpt lat="42.88474" lon="2.722265"><ele>153.25</ele><time>2026-04-26T08:51:12.727Z</time></trkpt><trkpt lat="42.8846183" lon="2.7222983"><ele>152.0</ele><time>2026-04-26T08:51:13.73Z</time></trkpt><trkpt lat="42.884505" lon="2.7223267"><ele>152.0</ele><time>2026-04-26T08:51:14.727Z</time></trkpt><trkpt lat="42.8843983" lon="2.72235"><ele>152.0</ele><time>2026-04-26T08:51:15.729Z</time></trkpt><trkpt lat="42.8842967" lon="2.7223783"><ele>152.0</ele><time>2026-04-26T08:51:16.728Z</time></trkpt><trkpt lat="42.8841983" lon="2.7224417"><ele>152.0</ele><time>2026-04-26T08:51:17.73Z</time></trkpt><trkpt lat="42.8841083" lon="2.722545"><ele>152.0</ele><time>2026-04-26T08:51:18.727Z</time></trkpt><trkpt lat="42.8840233" lon="2.722675"><ele>151.0</ele><time>2026-04-26T08:51:19.729Z</time></trkpt><trkpt lat="42.883945" lon="2.7228233"><ele>150.0</ele><time>2026-04-26T08:51:20.73Z</time></trkpt><trkpt lat="42.883875" lon="2.72298"><ele>149.0</ele><time>2026-04-26T08:51:21.728Z</time></trkpt><trkpt lat="42.8838033" lon="2.7231383"><ele>148.0</ele><time>2026-04-26T08:51:22.729Z</time></trkpt><trkpt lat="42.8837233" lon="2.7232933"><ele>148.0</ele><time>2026-04-26T08:51:23.73Z</time></trkpt><trkpt lat="42.883635" lon="2.7234417"><ele>148.0</ele><time>2026-04-26T08:51:24.731Z</time></trkpt><trkpt lat="42.8835433" lon="2.7235783"><ele>148.0</ele><time>2026-04-26T08:51:25.732Z</time></trkpt><trkpt lat="42.8834567" lon="2.7237117"><ele>148.0</ele><time>2026-04-26T08:51:26.729Z</time></trkpt><trkpt lat="42.8833617" lon="2.7238433"><ele>148.0</ele><time>2026-04-26T08:51:27.729Z</time></trkpt><trkpt lat="42.8832533" lon="2.723955"><ele>148.0</ele><time>2026-04-26T08:51:28.727Z</time></trkpt><trkpt lat="42.883135" lon="2.72405"><ele>148.0</ele><time>2026-04-26T08:51:29.729Z</time></trkpt><trkpt lat="42.8830167" lon="2.7241417"><ele>148.0</ele><time>2026-04-26T08:51:30.727Z</time></trkpt><trkpt lat="42.8829083" lon="2.72423"><ele>148.0</ele><time>2026-04-26T08:51:31.731Z</time></trkpt><trkpt lat="42.8828083" lon="2.724315"><ele>148.0</ele><time>2026-04-26T08:51:32.729Z</time></trkpt><trkpt lat="42.882715" lon="2.7243933"><ele>148.0</ele><time>2026-04-26T08:51:33.727Z</time></trkpt><trkpt lat="42.88262" lon="2.72446"><ele>148.0</ele><time>2026-04-26T08:51:34.729Z</time></trkpt><trkpt lat="42.8825117" lon="2.7245133"><ele>148.0</ele><time>2026-04-26T08:51:35.729Z</time></trkpt><trkpt lat="42.8823867" lon="2.724555"><ele>147.5</ele><time>2026-04-26T08:51:36.729Z</time></trkpt><trkpt lat="42.8822533" lon="2.7245933"><ele>147.0</ele><time>2026-04-26T08:51:37.729Z</time></trkpt><trkpt lat="42.8821267" lon="2.7246483"><ele>146.5</ele><time>2026-04-26T08:51:38.729Z</time></trkpt><trkpt lat="42.8820067" lon="2.724725"><ele>146.0</ele><time>2026-04-26T08:51:39.729Z</time></trkpt><trkpt lat="42.8818983" lon="2.7248433"><ele>146.0</ele><time>2026-04-26T08:51:40.729Z</time></trkpt><trkpt lat="42.881785" lon="2.7249667"><ele>146.0</ele><time>2026-04-26T08:51:41.729Z</time></trkpt><trkpt lat="42.88167" lon="2.7250867"><ele>146.0</ele><time>2026-04-26T08:51:42.727Z</time></trkpt><trkpt lat="42.881555" lon="2.7252117"><ele>146.0</ele><time>2026-04-26T08:51:43.728Z</time></trkpt><trkpt lat="42.88145" lon="2.725355"><ele>146.25</ele><time>2026-04-26T08:51:44.728Z</time></trkpt><trkpt lat="42.8813533" lon="2.7255117"><ele>146.5</ele><time>2026-04-26T08:51:45.727Z</time></trkpt><trkpt lat="42.88126" lon="2.7256683"><ele>146.75</ele><time>2026-04-26T08:51:46.729Z</time></trkpt><trkpt lat="42.8811667" lon="2.725815"><ele>147.0</ele><time>2026-04-26T08:51:47.728Z</time></trkpt><trkpt lat="42.8810783" lon="2.725955"><ele>146.25</ele><time>2026-04-26T08:51:48.729Z</time></trkpt><trkpt lat="42.8809883" lon="2.7260967"><ele>145.5</ele><time>2026-04-26T08:51:49.729Z</time></trkpt><trkpt lat="42.8808867" lon="2.72623"><ele>144.75</ele><time>2026-04-26T08:51:50.729Z</time></trkpt><trkpt lat="42.8807767" lon="2.7263517"><ele>144.0</ele><time>2026-04-26T08:51:51.731Z</time></trkpt><trkpt lat="42.880665" lon="2.7264633"><ele>144.0</ele><time>2026-04-26T08:51:52.727Z</time></trkpt><trkpt lat="42.8805617" lon="2.7265617"><ele>144.0</ele><time>2026-04-26T08:51:53.727Z</time></trkpt><trkpt lat="42.880465" lon="2.7266433"><ele>144.0</ele><time>2026-04-26T08:51:54.728Z</time></trkpt><trkpt lat="42.8803683" lon="2.72669"><ele>144.0</ele><time>2026-04-26T08:51:55.73Z</time></trkpt><trkpt lat="42.880275" lon="2.726685"><ele>144.0</ele><time>2026-04-26T08:51:56.729Z</time></trkpt><trkpt lat="42.8801833" lon="2.726625"><ele>145.25</ele><time>2026-04-26T08:51:57.729Z</time></trkpt><trkpt lat="42.8800933" lon="2.726535"><ele>146.5</ele><time>2026-04-26T08:51:58.728Z</time></trkpt><trkpt lat="42.8799933" lon="2.72645"><ele>147.75</ele><time>2026-04-26T08:51:59.732Z</time></trkpt><trkpt lat="42.8798733" lon="2.72639"><ele>149.0</ele><time>2026-04-26T08:52:00.727Z</time></trkpt><trkpt lat="42.8797467" lon="2.726345"><ele>149.0</ele><time>2026-04-26T08:52:01.729Z</time></trkpt><trkpt lat="42.8796133" lon="2.7263083"><ele>149.0</ele><time>2026-04-26T08:52:02.73Z</time></trkpt><trkpt lat="42.8794833" lon="2.7262817"><ele>149.0</ele><time>2026-04-26T08:52:03.727Z</time></trkpt><trkpt lat="42.87936" lon="2.72627"><ele>149.0</ele><time>2026-04-26T08:52:04.728Z</time></trkpt><trkpt lat="42.8792467" lon="2.7262767"><ele>149.0</ele><time>2026-04-26T08:52:05.73Z</time></trkpt><trkpt lat="42.8791467" lon="2.7263217"><ele>149.0</ele><time>2026-04-26T08:52:06.728Z</time></trkpt><trkpt lat="42.8790667" lon="2.72642"><ele>149.0</ele><time>2026-04-26T08:52:07.813Z</time></trkpt><trkpt lat="42.8790017" lon="2.7265633"><ele>149.0</ele><time>2026-04-26T08:52:08.729Z</time></trkpt><trkpt lat="42.8789367" lon="2.726725"><ele>149.0</ele><time>2026-04-26T08:52:09.729Z</time></trkpt><trkpt lat="42.8788617" lon="2.7268867"><ele>149.0</ele><time>2026-04-26T08:52:10.728Z</time></trkpt><trkpt lat="42.878775" lon="2.7270367"><ele>149.0</ele><time>2026-04-26T08:52:11.729Z</time></trkpt><trkpt lat="42.87868" lon="2.7271833"><ele>149.0</ele><time>2026-04-26T08:52:12.729Z</time></trkpt><trkpt lat="42.8785833" lon="2.72733"><ele>148.25</ele><time>2026-04-26T08:52:13.729Z</time></trkpt><trkpt lat="42.87849" lon="2.72748"><ele>147.5</ele><time>2026-04-26T08:52:14.728Z</time></trkpt><trkpt lat="42.8783967" lon="2.7276317"><ele>146.75</ele><time>2026-04-26T08:52:15.732Z</time></trkpt><trkpt lat="42.8782983" lon="2.7277783"><ele>146.0</ele><time>2026-04-26T08:52:16.73Z</time></trkpt><trkpt lat="42.8781917" lon="2.7279167"><ele>145.0</ele><time>2026-04-26T08:52:17.728Z</time></trkpt><trkpt lat="42.87808" lon="2.7280533"><ele>144.0</ele><time>2026-04-26T08:52:18.73Z</time></trkpt><trkpt lat="42.8779633" lon="2.7281933"><ele>143.0</ele><time>2026-04-26T08:52:19.732Z</time></trkpt><trkpt lat="42.87784" lon="2.7283233"><ele>143.0</ele><time>2026-04-26T08:52:20.728Z</time></trkpt><trkpt lat="42.8777133" lon="2.72845"><ele>143.0</ele><time>2026-04-26T08:52:21.729Z</time></trkpt><trkpt lat="42.87758" lon="2.7285767"><ele>143.0</ele><time>2026-04-26T08:52:22.727Z</time></trkpt><trkpt lat="42.8774417" lon="2.72871"><ele>142.33333333333331</ele><time>2026-04-26T08:52:23.731Z</time></trkpt><trkpt lat="42.8773017" lon="2.728845"><ele>141.66666666666666</ele><time>2026-04-26T08:52:24.729Z</time></trkpt><trkpt lat="42.8771617" lon="2.7289767"><ele>141.0</ele><time>2026-04-26T08:52:25.729Z</time></trkpt><trkpt lat="42.8770167" lon="2.7290983"><ele>141.0</ele><time>2026-04-26T08:52:26.73Z</time></trkpt><trkpt lat="42.8768683" lon="2.72921"><ele>141.0</ele><time>2026-04-26T08:52:27.731Z</time></trkpt><trkpt lat="42.876725" lon="2.729315"><ele>141.0</ele><time>2026-04-26T08:52:28.73Z</time></trkpt><trkpt lat="42.87659" lon="2.7294167"><ele>140.66666666666666</ele><time>2026-04-26T08:52:29.729Z</time></trkpt><trkpt lat="42.8764567" lon="2.7295133"><ele>140.33333333333331</ele><time>2026-04-26T08:52:30.727Z</time></trkpt><trkpt lat="42.8763183" lon="2.7296017"><ele>140.0</ele><time>2026-04-26T08:52:31.729Z</time></trkpt><trkpt lat="42.8761783" lon="2.72967"><ele>140.0</ele><time>2026-04-26T08:52:32.727Z</time></trkpt><trkpt lat="42.8760433" lon="2.7297067"><ele>140.0</ele><time>2026-04-26T08:52:33.731Z</time></trkpt><trkpt lat="42.8759133" lon="2.7297217"><ele>140.0</ele><time>2026-04-26T08:52:34.727Z</time></trkpt><trkpt lat="42.8757817" lon="2.729725"><ele>140.0</ele><time>2026-04-26T08:52:35.728Z</time></trkpt><trkpt lat="42.87565" lon="2.7297233"><ele>140.75</ele><time>2026-04-26T08:52:36.727Z</time></trkpt><trkpt lat="42.87552" lon="2.72971"><ele>141.5</ele><time>2026-04-26T08:52:37.731Z</time></trkpt><trkpt lat="42.8753983" lon="2.7296917"><ele>142.25</ele><time>2026-04-26T08:52:38.729Z</time></trkpt><trkpt lat="42.87528" lon="2.729675"><ele>143.0</ele><time>2026-04-26T08:52:39.73Z</time></trkpt><trkpt lat="42.87517" lon="2.729675"><ele>142.5</ele><time>2026-04-26T08:52:40.729Z</time></trkpt><trkpt lat="42.875055" lon="2.7297167"><ele>142.0</ele><time>2026-04-26T08:52:41.731Z</time></trkpt><trkpt lat="42.87495" lon="2.729815"><ele>141.5</ele><time>2026-04-26T08:52:42.728Z</time></trkpt><trkpt lat="42.8748583" lon="2.7299533"><ele>141.0</ele><time>2026-04-26T08:52:43.73Z</time></trkpt><trkpt lat="42.8747733" lon="2.730105"><ele>141.0</ele><time>2026-04-26T08:52:44.729Z</time></trkpt><trkpt lat="42.8746967" lon="2.7302483"><ele>141.0</ele><time>2026-04-26T08:52:45.728Z</time></trkpt><trkpt lat="42.874615" lon="2.7303717"><ele>141.0</ele><time>2026-04-26T08:52:46.728Z</time></trkpt><trkpt lat="42.874525" lon="2.7304517"><ele>141.0</ele><time>2026-04-26T08:52:47.729Z</time></trkpt><trkpt lat="42.8744283" lon="2.7304767"><ele>141.0</ele><time>2026-04-26T08:52:48.729Z</time></trkpt><trkpt lat="42.874325" lon="2.7304567"><ele>141.0</ele><time>2026-04-26T08:52:49.731Z</time></trkpt><trkpt lat="42.8742233" lon="2.730395"><ele>141.0</ele><time>2026-04-26T08:52:50.731Z</time></trkpt><trkpt lat="42.8741283" lon="2.7303217"><ele>141.0</ele><time>2026-04-26T08:52:51.729Z</time></trkpt><trkpt lat="42.8740367" lon="2.730245"><ele>141.0</ele><time>2026-04-26T08:52:52.73Z</time></trkpt><trkpt lat="42.8739417" lon="2.7301583"><ele>140.6</ele><time>2026-04-26T08:52:53.729Z</time></trkpt><trkpt lat="42.8738433" lon="2.7300717"><ele>140.2</ele><time>2026-04-26T08:52:54.729Z</time></trkpt><trkpt lat="42.87375" lon="2.729995"><ele>139.8</ele><time>2026-04-26T08:52:55.731Z</time></trkpt><trkpt lat="42.8736667" lon="2.7299183"><ele>139.4</ele><time>2026-04-26T08:52:56.731Z</time></trkpt><trkpt lat="42.87359" lon="2.7298267"><ele>139.0</ele><time>2026-04-26T08:52:57.729Z</time></trkpt><trkpt lat="42.8735083" lon="2.729725"><ele>138.75</ele><time>2026-04-26T08:52:58.728Z</time></trkpt><trkpt lat="42.8734083" lon="2.7296333"><ele>138.5</ele><time>2026-04-26T08:52:59.728Z</time></trkpt><trkpt lat="42.873295" lon="2.7295617"><ele>138.25</ele><time>2026-04-26T08:53:00.727Z</time></trkpt><trkpt lat="42.8731717" lon="2.7295017"><ele>138.0</ele><time>2026-04-26T08:53:01.73Z</time></trkpt><trkpt lat="42.873045" lon="2.7294367"><ele>138.0</ele><time>2026-04-26T08:53:02.729Z</time></trkpt><trkpt lat="42.8729133" lon="2.7293717"><ele>138.0</ele><time>2026-04-26T08:53:03.728Z</time></trkpt><trkpt lat="42.8727833" lon="2.7293"><ele>138.0</ele><time>2026-04-26T08:53:04.729Z</time></trkpt><trkpt lat="42.8726517" lon="2.7292333"><ele>138.0</ele><time>2026-04-26T08:53:05.728Z</time></trkpt><trkpt lat="42.8725217" lon="2.72918"><ele>138.0</ele><time>2026-04-26T08:53:06.728Z</time></trkpt><trkpt lat="42.8724" lon="2.7291467"><ele>138.0</ele><time>2026-04-26T08:53:07.728Z</time></trkpt><trkpt lat="42.8722867" lon="2.7291217"><ele>138.0</ele><time>2026-04-26T08:53:08.728Z</time></trkpt><trkpt lat="42.872175" lon="2.7291083"><ele>138.0</ele><time>2026-04-26T08:53:09.729Z</time></trkpt><trkpt lat="42.8720617" lon="2.7291117"><ele>138.0</ele><time>2026-04-26T08:53:10.729Z</time></trkpt><trkpt lat="42.8719417" lon="2.72913"><ele>138.0</ele><time>2026-04-26T08:53:11.729Z</time></trkpt><trkpt lat="42.8718067" lon="2.7291467"><ele>138.0</ele><time>2026-04-26T08:53:12.727Z</time></trkpt><trkpt lat="42.8716617" lon="2.729165"><ele>138.0</ele><time>2026-04-26T08:53:13.728Z</time></trkpt><trkpt lat="42.8715117" lon="2.7291817"><ele>137.75</ele><time>2026-04-26T08:53:14.728Z</time></trkpt><trkpt lat="42.87136" lon="2.7291883"><ele>137.5</ele><time>2026-04-26T08:53:15.728Z</time></trkpt><trkpt lat="42.8712133" lon="2.729195"><ele>137.25</ele><time>2026-04-26T08:53:16.728Z</time></trkpt><trkpt lat="42.8710717" lon="2.72921"><ele>137.0</ele><time>2026-04-26T08:53:17.729Z</time></trkpt><trkpt lat="42.8709417" lon="2.7292217"><ele>136.25</ele><time>2026-04-26T08:53:18.729Z</time></trkpt><trkpt lat="42.870825" lon="2.7292167"><ele>135.5</ele><time>2026-04-26T08:53:19.73Z</time></trkpt><trkpt lat="42.870715" lon="2.729175"><ele>134.75</ele><time>2026-04-26T08:53:20.731Z</time></trkpt><trkpt lat="42.8706167" lon="2.7290967"><ele>134.0</ele><time>2026-04-26T08:53:21.731Z</time></trkpt><trkpt lat="42.8705217" lon="2.729005"><ele>134.0</ele><time>2026-04-26T08:53:22.728Z</time></trkpt><trkpt lat="42.87043" lon="2.72892"><ele>134.0</ele><time>2026-04-26T08:53:23.731Z</time></trkpt><trkpt lat="42.87034" lon="2.728855"><ele>134.0</ele><time>2026-04-26T08:53:24.728Z</time></trkpt><trkpt lat="42.8702483" lon="2.728835"><ele>134.0</ele><time>2026-04-26T08:53:25.73Z</time></trkpt><trkpt lat="42.8701567" lon="2.728845"><ele>134.0</ele><time>2026-04-26T08:53:26.73Z</time></trkpt><trkpt lat="42.870055" lon="2.7288933"><ele>134.0</ele><time>2026-04-26T08:53:27.728Z</time></trkpt><trkpt lat="42.8699433" lon="2.7289467"><ele>134.0</ele><time>2026-04-26T08:53:28.728Z</time></trkpt><trkpt lat="42.86982" lon="2.728995"><ele>134.0</ele><time>2026-04-26T08:53:29.73Z</time></trkpt><trkpt lat="42.86969" lon="2.72904"><ele>134.0</ele><time>2026-04-26T08:53:30.727Z</time></trkpt><trkpt lat="42.8695583" lon="2.72908"><ele>134.0</ele><time>2026-04-26T08:53:31.728Z</time></trkpt><trkpt lat="42.8694333" lon="2.7291217"><ele>134.0</ele><time>2026-04-26T08:53:32.73Z</time></trkpt><trkpt lat="42.8693217" lon="2.7291683"><ele>134.0</ele><time>2026-04-26T08:53:33.729Z</time></trkpt><trkpt lat="42.8692217" lon="2.72922"><ele>134.0</ele><time>2026-04-26T08:53:34.731Z</time></trkpt><trkpt lat="42.8691267" lon="2.7292483"><ele>133.8</ele><time>2026-04-26T08:53:35.73Z</time></trkpt><trkpt lat="42.8690367" lon="2.7292317"><ele>133.60000000000002</ele><time>2026-04-26T08:53:36.729Z</time></trkpt><trkpt lat="42.8689533" lon="2.7291633"><ele>133.4</ele><time>2026-04-26T08:53:37.73Z</time></trkpt><trkpt lat="42.8688717" lon="2.72906"><ele>133.20000000000002</ele><time>2026-04-26T08:53:38.731Z</time></trkpt><trkpt lat="42.868785" lon="2.72894"><ele>133.0</ele><time>2026-04-26T08:53:39.729Z</time></trkpt><trkpt lat="42.8686933" lon="2.72881"><ele>133.0</ele><time>2026-04-26T08:53:40.73Z</time></trkpt><trkpt lat="42.8685933" lon="2.7286783"><ele>133.0</ele><time>2026-04-26T08:53:41.728Z</time></trkpt><trkpt lat="42.868495" lon="2.72854"><ele>133.0</ele><time>2026-04-26T08:53:42.728Z</time></trkpt><trkpt lat="42.8683917" lon="2.7283983"><ele>133.0</ele><time>2026-04-26T08:53:43.73Z</time></trkpt><trkpt lat="42.8682833" lon="2.7282533"><ele>132.33333333333334</ele><time>2026-04-26T08:53:44.728Z</time></trkpt><trkpt lat="42.8681767" lon="2.728105"><ele>131.66666666666666</ele><time>2026-04-26T08:53:45.728Z</time></trkpt><trkpt lat="42.8680683" lon="2.7279617"><ele>131.0</ele><time>2026-04-26T08:53:46.728Z</time></trkpt><trkpt lat="42.8679517" lon="2.7278333"><ele>131.0</ele><time>2026-04-26T08:53:47.728Z</time></trkpt><trkpt lat="42.86782" lon="2.7277283"><ele>131.0</ele><time>2026-04-26T08:53:48.728Z</time></trkpt><trkpt lat="42.8676767" lon="2.72764"><ele>131.0</ele><time>2026-04-26T08:53:49.731Z</time></trkpt><trkpt lat="42.8675317" lon="2.727555"><ele>131.25</ele><time>2026-04-26T08:53:50.728Z</time></trkpt><trkpt lat="42.8673933" lon="2.7274817"><ele>131.5</ele><time>2026-04-26T08:53:51.732Z</time></trkpt><trkpt lat="42.8672667" lon="2.7274133"><ele>131.75</ele><time>2026-04-26T08:53:52.73Z</time></trkpt><trkpt lat="42.8671483" lon="2.72735"><ele>132.0</ele><time>2026-04-26T08:53:53.729Z</time></trkpt><trkpt lat="42.867045" lon="2.72729"><ele>132.0</ele><time>2026-04-26T08:53:54.73Z</time></trkpt><trkpt lat="42.8669483" lon="2.72722"><ele>132.0</ele><time>2026-04-26T08:53:55.73Z</time></trkpt><trkpt lat="42.8668733" lon="2.7271133"><ele>132.0</ele><time>2026-04-26T08:53:56.728Z</time></trkpt><trkpt lat="42.8668067" lon="2.7269767"><ele>132.0</ele><time>2026-04-26T08:53:57.728Z</time></trkpt><trkpt lat="42.8667467" lon="2.726835"><ele>131.75</ele><time>2026-04-26T08:53:58.728Z</time></trkpt><trkpt lat="42.8666733" lon="2.7266867"><ele>131.5</ele><time>2026-04-26T08:53:59.729Z</time></trkpt><trkpt lat="42.8665983" lon="2.7265283"><ele>131.25</ele><time>2026-04-26T08:54:00.729Z</time></trkpt><trkpt lat="42.86652" lon="2.7263667"><ele>131.0</ele><time>2026-04-26T08:54:01.731Z</time></trkpt><trkpt lat="42.8664433" lon="2.7262017"><ele>131.0</ele><time>2026-04-26T08:54:02.729Z</time></trkpt><trkpt lat="42.8663617" lon="2.7260433"><ele>131.0</ele><time>2026-04-26T08:54:03.728Z</time></trkpt><trkpt lat="42.8662667" lon="2.725895"><ele>131.0</ele><time>2026-04-26T08:54:04.728Z</time></trkpt><trkpt lat="42.8661583" lon="2.7257617"><ele>131.0</ele><time>2026-04-26T08:54:05.728Z</time></trkpt><trkpt lat="42.866035" lon="2.72564"><ele>131.33333333333331</ele><time>2026-04-26T08:54:06.727Z</time></trkpt><trkpt lat="42.8659083" lon="2.725525"><ele>131.66666666666666</ele><time>2026-04-26T08:54:07.728Z</time></trkpt><trkpt lat="42.8657683" lon="2.7254133"><ele>132.0</ele><time>2026-04-26T08:54:08.727Z</time></trkpt><trkpt lat="42.8656267" lon="2.725315"><ele>132.0</ele><time>2026-04-26T08:54:09.727Z</time></trkpt><trkpt lat="42.865475" lon="2.7252233"><ele>132.0</ele><time>2026-04-26T08:54:10.728Z</time></trkpt><trkpt lat="42.8653267" lon="2.7251283"><ele>132.0</ele><time>2026-04-26T08:54:11.729Z</time></trkpt><trkpt lat="42.86518" lon="2.7250383"><ele>132.25</ele><time>2026-04-26T08:54:12.727Z</time></trkpt><trkpt lat="42.8650417" lon="2.7249483"><ele>132.5</ele><time>2026-04-26T08:54:13.729Z</time></trkpt><trkpt lat="42.8649083" lon="2.7248667"><ele>132.75</ele><time>2026-04-26T08:54:14.728Z</time></trkpt><trkpt lat="42.8647783" lon="2.7247933"><ele>133.0</ele><time>2026-04-26T08:54:15.727Z</time></trkpt><trkpt lat="42.8646583" lon="2.7247183"><ele>133.0</ele><time>2026-04-26T08:54:16.727Z</time></trkpt><trkpt lat="42.86455" lon="2.724625"><ele>133.0</ele><time>2026-04-26T08:54:17.727Z</time></trkpt><trkpt lat="42.86445" lon="2.7245117"><ele>133.0</ele><time>2026-04-26T08:54:18.727Z</time></trkpt><trkpt lat="42.8643567" lon="2.7243833"><ele>133.0</ele><time>2026-04-26T08:54:19.727Z</time></trkpt><trkpt lat="42.8642567" lon="2.72425"><ele>133.5</ele><time>2026-04-26T08:54:20.729Z</time></trkpt><trkpt lat="42.8641433" lon="2.72413"><ele>134.0</ele><time>2026-04-26T08:54:21.727Z</time></trkpt><trkpt lat="42.8640217" lon="2.724025"><ele>134.5</ele><time>2026-04-26T08:54:22.729Z</time></trkpt><trkpt lat="42.8638917" lon="2.723925"><ele>135.0</ele><time>2026-04-26T08:54:23.727Z</time></trkpt><trkpt lat="42.8637583" lon="2.7238283"><ele>135.0</ele><time>2026-04-26T08:54:24.728Z</time></trkpt><trkpt lat="42.8636267" lon="2.72373"><ele>135.0</ele><time>2026-04-26T08:54:25.732Z</time></trkpt><trkpt lat="42.8635067" lon="2.7236333"><ele>135.0</ele><time>2026-04-26T08:54:26.729Z</time></trkpt><trkpt lat="42.8633933" lon="2.7235317"><ele>135.0</ele><time>2026-04-26T08:54:27.733Z</time></trkpt><trkpt lat="42.8632783" lon="2.7234233"><ele>135.25</ele><time>2026-04-26T08:54:28.728Z</time></trkpt><trkpt lat="42.8631667" lon="2.7233217"><ele>135.5</ele><time>2026-04-26T08:54:29.728Z</time></trkpt><trkpt lat="42.863055" lon="2.7232433"><ele>135.75</ele><time>2026-04-26T08:54:30.728Z</time></trkpt><trkpt lat="42.8629433" lon="2.723185"><ele>136.0</ele><time>2026-04-26T08:54:31.728Z</time></trkpt><trkpt lat="42.8628217" lon="2.7231517"><ele>136.0</ele><time>2026-04-26T08:54:32.727Z</time></trkpt><trkpt lat="42.8627017" lon="2.7231033"><ele>136.0</ele><time>2026-04-26T08:54:33.728Z</time></trkpt><trkpt lat="42.86259" lon="2.7230533"><ele>136.0</ele><time>2026-04-26T08:54:34.727Z</time></trkpt><trkpt lat="42.862485" lon="2.722995"><ele>136.0</ele><time>2026-04-26T08:54:35.729Z</time></trkpt><trkpt lat="42.86238" lon="2.7229283"><ele>136.25</ele><time>2026-04-26T08:54:36.726Z</time></trkpt><trkpt lat="42.86227" lon="2.7228567"><ele>136.5</ele><time>2026-04-26T08:54:37.726Z</time></trkpt><trkpt lat="42.8621583" lon="2.7227883"><ele>136.75</ele><time>2026-04-26T08:54:38.728Z</time></trkpt><trkpt lat="42.8620483" lon="2.722725"><ele>137.0</ele><time>2026-04-26T08:54:39.727Z</time></trkpt><trkpt lat="42.8619483" lon="2.7226717"><ele>137.0</ele><time>2026-04-26T08:54:40.727Z</time></trkpt><trkpt lat="42.86186" lon="2.72262"><ele>137.0</ele><time>2026-04-26T08:54:41.727Z</time></trkpt><trkpt lat="42.8617883" lon="2.7225633"><ele>137.0</ele><time>2026-04-26T08:54:42.728Z</time></trkpt><trkpt lat="42.8617333" lon="2.72249"><ele>137.0</ele><time>2026-04-26T08:54:43.727Z</time></trkpt><trkpt lat="42.8617" lon="2.7224067"><ele>137.0</ele><time>2026-04-26T08:54:44.727Z</time></trkpt><trkpt lat="42.8616883" lon="2.7222567"><ele>137.0</ele><time>2026-04-26T08:54:46.728Z</time></trkpt><trkpt lat="42.86164" lon="2.7221133"><ele>137.0</ele><time>2026-04-26T08:54:48.727Z</time></trkpt><trkpt lat="42.8616433" lon="2.72202"><ele>137.0</ele><time>2026-04-26T08:54:50.728Z</time></trkpt><trkpt lat="42.8617283" lon="2.7220167"><ele>137.0</ele><time>2026-04-26T08:54:53.728Z</time></trkpt><trkpt lat="42.861865" lon="2.7220467"><ele>137.0</ele><time>2026-04-26T08:54:55.728Z</time></trkpt><trkpt lat="42.8619517" lon="2.7220617"><ele>137.0</ele><time>2026-04-26T08:54:56.727Z</time></trkpt><trkpt lat="42.8620467" lon="2.7220867"><ele>137.4</ele><time>2026-04-26T08:54:57.729Z</time></trkpt><trkpt lat="42.8621517" lon="2.7221167"><ele>137.79999999999998</ele><time>2026-04-26T08:54:58.728Z</time></trkpt><trkpt lat="42.862255" lon="2.722155"><ele>138.2</ele><time>2026-04-26T08:54:59.728Z</time></trkpt><trkpt lat="42.8623517" lon="2.7221933"><ele>138.6</ele><time>2026-04-26T08:55:00.727Z</time></trkpt><trkpt lat="42.862445" lon="2.7222233"><ele>139.0</ele><time>2026-04-26T08:55:01.731Z</time></trkpt><trkpt lat="42.8625383" lon="2.7222367"><ele>139.0</ele><time>2026-04-26T08:55:02.727Z</time></trkpt><trkpt lat="42.8626333" lon="2.7222167"><ele>139.0</ele><time>2026-04-26T08:55:03.729Z</time></trkpt><trkpt lat="42.86273" lon="2.72217"><ele>139.0</ele><time>2026-04-26T08:55:04.726Z</time></trkpt><trkpt lat="42.8628283" lon="2.722115"><ele>139.0</ele><time>2026-04-26T08:55:05.73Z</time></trkpt><trkpt lat="42.8629333" lon="2.7220517"><ele>139.0</ele><time>2026-04-26T08:55:06.727Z</time></trkpt><trkpt lat="42.863035" lon="2.7219867"><ele>139.0</ele><time>2026-04-26T08:55:07.727Z</time></trkpt><trkpt lat="42.863135" lon="2.7219233"><ele>139.0</ele><time>2026-04-26T08:55:08.73Z</time></trkpt><trkpt lat="42.8632333" lon="2.7218683"><ele>139.0</ele><time>2026-04-26T08:55:09.729Z</time></trkpt><trkpt lat="42.8633217" lon="2.72182"><ele>139.0</ele><time>2026-04-26T08:55:10.727Z</time></trkpt><trkpt lat="42.8634033" lon="2.7217617"><ele>139.0</ele><time>2026-04-26T08:55:11.727Z</time></trkpt><trkpt lat="42.8634733" lon="2.7216783"><ele>139.2</ele><time>2026-04-26T08:55:12.729Z</time></trkpt><trkpt lat="42.8635217" lon="2.7215617"><ele>139.4</ele><time>2026-04-26T08:55:13.729Z</time></trkpt><trkpt lat="42.863565" lon="2.721425"><ele>139.6</ele><time>2026-04-26T08:55:14.729Z</time></trkpt><trkpt lat="42.86361" lon="2.7212767"><ele>139.8</ele><time>2026-04-26T08:55:15.728Z</time></trkpt><trkpt lat="42.8636567" lon="2.7211367"><ele>140.0</ele><time>2026-04-26T08:55:16.73Z</time></trkpt><trkpt lat="42.8636967" lon="2.7209983"><ele>139.6</ele><time>2026-04-26T08:55:17.729Z</time></trkpt><trkpt lat="42.8637467" lon="2.720865"><ele>139.2</ele><time>2026-04-26T08:55:18.727Z</time></trkpt><trkpt lat="42.8638033" lon="2.72074"><ele>138.8</ele><time>2026-04-26T08:55:19.727Z</time></trkpt><trkpt lat="42.8638633" lon="2.7206233"><ele>138.4</ele><time>2026-04-26T08:55:20.729Z</time></trkpt><trkpt lat="42.8639267" lon="2.7205117"><ele>138.0</ele><time>2026-04-26T08:55:21.727Z</time></trkpt><trkpt lat="42.8639917" lon="2.7204067"><ele>138.0</ele><time>2026-04-26T08:55:22.728Z</time></trkpt><trkpt lat="42.8640533" lon="2.7203167"><ele>138.0</ele><time>2026-04-26T08:55:23.728Z</time></trkpt><trkpt lat="42.8641067" lon="2.7202367"><ele>138.0</ele><time>2026-04-26T08:55:24.728Z</time></trkpt><trkpt lat="42.8641533" lon="2.7201517"><ele>138.0</ele><time>2026-04-26T08:55:25.727Z</time></trkpt><trkpt lat="42.8641883" lon="2.7200567"><ele>138.0</ele><time>2026-04-26T08:55:26.729Z</time></trkpt><trkpt lat="42.8642" lon="2.7199583"><ele>138.0</ele><time>2026-04-26T08:55:27.729Z</time></trkpt><trkpt lat="42.8641833" lon="2.7198417"><ele>137.8</ele><time>2026-04-26T08:55:28.728Z</time></trkpt><trkpt lat="42.8641583" lon="2.7197183"><ele>137.60000000000002</ele><time>2026-04-26T08:55:29.728Z</time></trkpt><trkpt lat="42.8641333" lon="2.7195817"><ele>137.39999999999998</ele><time>2026-04-26T08:55:30.728Z</time></trkpt><trkpt lat="42.8641233" lon="2.7194417"><ele>137.2</ele><time>2026-04-26T08:55:31.727Z</time></trkpt><trkpt lat="42.8641267" lon="2.7193"><ele>137.0</ele><time>2026-04-26T08:55:32.729Z</time></trkpt><trkpt lat="42.86414" lon="2.7191667"><ele>137.0</ele><time>2026-04-26T08:55:33.728Z</time></trkpt><trkpt lat="42.864165" lon="2.7190383"><ele>137.0</ele><time>2026-04-26T08:55:34.727Z</time></trkpt><trkpt lat="42.8641717" lon="2.7189083"><ele>137.0</ele><time>2026-04-26T08:55:35.727Z</time></trkpt><trkpt lat="42.864155" lon="2.718775"><ele>137.0</ele><time>2026-04-26T08:55:36.729Z</time></trkpt><trkpt lat="42.8641317" lon="2.7186383"><ele>137.0</ele><time>2026-04-26T08:55:37.728Z</time></trkpt><trkpt lat="42.8641133" lon="2.718495"><ele>137.2</ele><time>2026-04-26T08:55:38.728Z</time></trkpt><trkpt lat="42.8641067" lon="2.7183483"><ele>137.39999999999998</ele><time>2026-04-26T08:55:39.727Z</time></trkpt><trkpt lat="42.864095" lon="2.718195"><ele>137.60000000000002</ele><time>2026-04-26T08:55:40.727Z</time></trkpt><trkpt lat="42.8640833" lon="2.718055"><ele>137.8</ele><time>2026-04-26T08:55:41.727Z</time></trkpt><trkpt lat="42.864065" lon="2.7179167"><ele>138.0</ele><time>2026-04-26T08:55:42.727Z</time></trkpt><trkpt lat="42.8640433" lon="2.7177833"><ele>138.16666666666666</ele><time>2026-04-26T08:55:43.728Z</time></trkpt><trkpt lat="42.864025" lon="2.71766"><ele>138.33333333333334</ele><time>2026-04-26T08:55:44.727Z</time></trkpt><trkpt lat="42.8640133" lon="2.7175483"><ele>138.5</ele><time>2026-04-26T08:55:45.728Z</time></trkpt><trkpt lat="42.86401" lon="2.7174483"><ele>138.66666666666669</ele><time>2026-04-26T08:55:46.727Z</time></trkpt><trkpt lat="42.864015" lon="2.717355"><ele>138.83333333333334</ele><time>2026-04-26T08:55:47.727Z</time></trkpt><trkpt lat="42.8640417" lon="2.7172683"><ele>139.0</ele><time>2026-04-26T08:55:48.727Z</time></trkpt><trkpt lat="42.8640817" lon="2.7171883"><ele>139.0</ele><time>2026-04-26T08:55:49.727Z</time></trkpt><trkpt lat="42.8641217" lon="2.71712"><ele>139.0</ele><time>2026-04-26T08:55:50.729Z</time></trkpt><trkpt lat="42.8641617" lon="2.71705"><ele>139.0</ele><time>2026-04-26T08:55:51.727Z</time></trkpt><trkpt lat="42.8641933" lon="2.71697"><ele>139.0</ele><time>2026-04-26T08:55:52.728Z</time></trkpt><trkpt lat="42.86422" lon="2.7168767"><ele>139.0</ele><time>2026-04-26T08:55:53.728Z</time></trkpt><trkpt lat="42.86425" lon="2.716765"><ele>139.0</ele><time>2026-04-26T08:55:54.727Z</time></trkpt><trkpt lat="42.8642817" lon="2.716645"><ele>139.0</ele><time>2026-04-26T08:55:55.728Z</time></trkpt><trkpt lat="42.8643133" lon="2.716515"><ele>139.0</ele><time>2026-04-26T08:55:56.728Z</time></trkpt><trkpt lat="42.8643533" lon="2.716385"><ele>139.0</ele><time>2026-04-26T08:55:57.728Z</time></trkpt><trkpt lat="42.8644" lon="2.7162533"><ele>139.0</ele><time>2026-04-26T08:55:58.727Z</time></trkpt><trkpt lat="42.864445" lon="2.7161167"><ele>139.0</ele><time>2026-04-26T08:55:59.728Z</time></trkpt><trkpt lat="42.8644883" lon="2.71597"><ele>138.75</ele><time>2026-04-26T08:56:00.728Z</time></trkpt><trkpt lat="42.8645333" lon="2.7158217"><ele>138.5</ele><time>2026-04-26T08:56:01.727Z</time></trkpt><trkpt lat="42.864575" lon="2.7156667"><ele>138.25</ele><time>2026-04-26T08:56:02.728Z</time></trkpt><trkpt lat="42.8646117" lon="2.7155"><ele>138.0</ele><time>2026-04-26T08:56:03.727Z</time></trkpt><trkpt lat="42.8646333" lon="2.715325"><ele>137.75</ele><time>2026-04-26T08:56:04.728Z</time></trkpt><trkpt lat="42.8646517" lon="2.7151433"><ele>137.5</ele><time>2026-04-26T08:56:05.727Z</time></trkpt><trkpt lat="42.8646767" lon="2.7149683"><ele>137.25</ele><time>2026-04-26T08:56:06.728Z</time></trkpt><trkpt lat="42.8647033" lon="2.7148033"><ele>137.0</ele><time>2026-04-26T08:56:07.728Z</time></trkpt><trkpt lat="42.8647283" lon="2.7146583"><ele>137.0</ele><time>2026-04-26T08:56:08.728Z</time></trkpt><trkpt lat="42.86475" lon="2.7145267"><ele>137.0</ele><time>2026-04-26T08:56:09.728Z</time></trkpt><trkpt lat="42.8647667" lon="2.7144017"><ele>137.0</ele><time>2026-04-26T08:56:10.728Z</time></trkpt><trkpt lat="42.8647617" lon="2.7142767"><ele>137.0</ele><time>2026-04-26T08:56:11.728Z</time></trkpt><trkpt lat="42.8647267" lon="2.7141517"><ele>137.0</ele><time>2026-04-26T08:56:12.729Z</time></trkpt><trkpt lat="42.86467" lon="2.7140217"><ele>137.5</ele><time>2026-04-26T08:56:13.728Z</time></trkpt><trkpt lat="42.8646033" lon="2.713885"><ele>138.0</ele><time>2026-04-26T08:56:14.727Z</time></trkpt><trkpt lat="42.8645333" lon="2.7137483"><ele>138.5</ele><time>2026-04-26T08:56:15.728Z</time></trkpt><trkpt lat="42.8644683" lon="2.713625"><ele>139.0</ele><time>2026-04-26T08:56:16.729Z</time></trkpt><trkpt lat="42.8644117" lon="2.7135067"><ele>139.0</ele><time>2026-04-26T08:56:17.727Z</time></trkpt><trkpt lat="42.8643667" lon="2.7133783"><ele>139.0</ele><time>2026-04-26T08:56:18.729Z</time></trkpt><trkpt lat="42.8643433" lon="2.71323"><ele>139.0</ele><time>2026-04-26T08:56:19.73Z</time></trkpt><trkpt lat="42.8643333" lon="2.7130667"><ele>139.0</ele><time>2026-04-26T08:56:20.728Z</time></trkpt><trkpt lat="42.8643283" lon="2.7129033"><ele>139.0</ele><time>2026-04-26T08:56:21.729Z</time></trkpt><trkpt lat="42.86432" lon="2.7127567"><ele>139.0</ele><time>2026-04-26T08:56:22.728Z</time></trkpt><trkpt lat="42.8643017" lon="2.7126367"><ele>139.0</ele><time>2026-04-26T08:56:23.727Z</time></trkpt><trkpt lat="42.8642667" lon="2.712545"><ele>139.0</ele><time>2026-04-26T08:56:24.728Z</time></trkpt><trkpt lat="42.8642167" lon="2.712485"><ele>139.0</ele><time>2026-04-26T08:56:25.73Z</time></trkpt><trkpt lat="42.86415" lon="2.7124633"><ele>139.0</ele><time>2026-04-26T08:56:26.728Z</time></trkpt><trkpt lat="42.864065" lon="2.71249"><ele>138.8</ele><time>2026-04-26T08:56:27.727Z</time></trkpt><trkpt lat="42.863975" lon="2.71253"><ele>138.60000000000002</ele><time>2026-04-26T08:56:28.728Z</time></trkpt><trkpt lat="42.8638767" lon="2.7125783"><ele>138.4</ele><time>2026-04-26T08:56:29.728Z</time></trkpt><trkpt lat="42.8637717" lon="2.7126317"><ele>138.20000000000002</ele><time>2026-04-26T08:56:30.728Z</time></trkpt><trkpt lat="42.8636717" lon="2.7126783"><ele>138.0</ele><time>2026-04-26T08:56:31.729Z</time></trkpt><trkpt lat="42.86358" lon="2.7127217"><ele>137.8</ele><time>2026-04-26T08:56:32.728Z</time></trkpt><trkpt lat="42.8634967" lon="2.712765"><ele>137.60000000000002</ele><time>2026-04-26T08:56:33.727Z</time></trkpt><trkpt lat="42.8634283" lon="2.7128017"><ele>137.39999999999998</ele><time>2026-04-26T08:56:34.728Z</time></trkpt><trkpt lat="42.8633417" lon="2.7127933"><ele>137.2</ele><time>2026-04-26T08:56:36.729Z</time></trkpt><trkpt lat="42.863295" lon="2.7126367"><ele>137.0</ele><time>2026-04-26T08:56:38.73Z</time></trkpt><trkpt lat="42.8632783" lon="2.7125117"><ele>137.5</ele><time>2026-04-26T08:56:39.729Z</time></trkpt><trkpt lat="42.86326" lon="2.7123667"><ele>138.0</ele><time>2026-04-26T08:56:40.727Z</time></trkpt><trkpt lat="42.8632467" lon="2.7122117"><ele>138.5</ele><time>2026-04-26T08:56:41.727Z</time></trkpt><trkpt lat="42.86324" lon="2.7120517"><ele>139.0</ele><time>2026-04-26T08:56:42.727Z</time></trkpt><trkpt lat="42.8632367" lon="2.711895"><ele>139.25</ele><time>2026-04-26T08:56:43.73Z</time></trkpt><trkpt lat="42.8632417" lon="2.711735"><ele>139.5</ele><time>2026-04-26T08:56:44.728Z</time></trkpt><trkpt lat="42.8632567" lon="2.7115633"><ele>139.75</ele><time>2026-04-26T08:56:45.728Z</time></trkpt><trkpt lat="42.8632767" lon="2.71138"><ele>140.0</ele><time>2026-04-26T08:56:46.727Z</time></trkpt><trkpt lat="42.8633033" lon="2.7111983"><ele>140.0</ele><time>2026-04-26T08:56:47.728Z</time></trkpt><trkpt lat="42.8633317" lon="2.7110133"><ele>140.0</ele><time>2026-04-26T08:56:48.728Z</time></trkpt><trkpt lat="42.863365" lon="2.710825"><ele>140.0</ele><time>2026-04-26T08:56:49.731Z</time></trkpt><trkpt lat="42.8633967" lon="2.7106367"><ele>140.0</ele><time>2026-04-26T08:56:50.727Z</time></trkpt><trkpt lat="42.8634233" lon="2.7104483"><ele>140.0</ele><time>2026-04-26T08:56:51.73Z</time></trkpt><trkpt lat="42.8634333" lon="2.710255"><ele>140.0</ele><time>2026-04-26T08:56:52.728Z</time></trkpt><trkpt lat="42.8634217" lon="2.7100617"><ele>140.0</ele><time>2026-04-26T08:56:53.73Z</time></trkpt><trkpt lat="42.8633967" lon="2.7098833"><ele>140.0</ele><time>2026-04-26T08:56:54.729Z</time></trkpt><trkpt lat="42.863365" lon="2.70972"><ele>140.0</ele><time>2026-04-26T08:56:55.728Z</time></trkpt><trkpt lat="42.8633417" lon="2.7095533"><ele>140.0</ele><time>2026-04-26T08:56:56.729Z</time></trkpt><trkpt lat="42.863335" lon="2.7093683"><ele>140.0</ele><time>2026-04-26T08:56:57.729Z</time></trkpt><trkpt lat="42.86334" lon="2.7091883"><ele>140.0</ele><time>2026-04-26T08:56:58.727Z</time></trkpt><trkpt lat="42.8633533" lon="2.7090333"><ele>140.0</ele><time>2026-04-26T08:56:59.729Z</time></trkpt><trkpt lat="42.8633867" lon="2.70891"><ele>140.0</ele><time>2026-04-26T08:57:00.73Z</time></trkpt><trkpt lat="42.8634467" lon="2.7088083"><ele>140.0</ele><time>2026-04-26T08:57:01.729Z</time></trkpt><trkpt lat="42.86351" lon="2.7087033"><ele>140.0</ele><time>2026-04-26T08:57:02.729Z</time></trkpt><trkpt lat="42.86355" lon="2.7085767"><ele>140.0</ele><time>2026-04-26T08:57:03.728Z</time></trkpt><trkpt lat="42.863575" lon="2.7084333"><ele>141.25</ele><time>2026-04-26T08:57:04.729Z</time></trkpt><trkpt lat="42.8636033" lon="2.7082867"><ele>142.5</ele><time>2026-04-26T08:57:05.731Z</time></trkpt><trkpt lat="42.8636467" lon="2.7081333"><ele>143.75</ele><time>2026-04-26T08:57:06.729Z</time></trkpt><trkpt lat="42.863705" lon="2.7079833"><ele>145.0</ele><time>2026-04-26T08:57:07.73Z</time></trkpt><trkpt lat="42.8637667" lon="2.7078283"><ele>144.75</ele><time>2026-04-26T08:57:08.73Z</time></trkpt><trkpt lat="42.8638217" lon="2.707655"><ele>144.5</ele><time>2026-04-26T08:57:09.73Z</time></trkpt><trkpt lat="42.8638733" lon="2.7074667"><ele>144.25</ele><time>2026-04-26T08:57:10.727Z</time></trkpt><trkpt lat="42.8639233" lon="2.70727"><ele>144.0</ele><time>2026-04-26T08:57:11.729Z</time></trkpt><trkpt lat="42.863975" lon="2.7070733"><ele>144.66666666666666</ele><time>2026-04-26T08:57:12.729Z</time></trkpt><trkpt lat="42.8640267" lon="2.7068767"><ele>145.33333333333331</ele><time>2026-04-26T08:57:13.728Z</time></trkpt><trkpt lat="42.8640883" lon="2.7066867"><ele>146.0</ele><time>2026-04-26T08:57:14.729Z</time></trkpt><trkpt lat="42.8641667" lon="2.7065067"><ele>146.0</ele><time>2026-04-26T08:57:15.728Z</time></trkpt><trkpt lat="42.8642617" lon="2.7063383"><ele>146.0</ele><time>2026-04-26T08:57:16.729Z</time></trkpt><trkpt lat="42.8643567" lon="2.7061783"><ele>146.0</ele><time>2026-04-26T08:57:17.728Z</time></trkpt><trkpt lat="42.86445" lon="2.7060267"><ele>149.25</ele><time>2026-04-26T08:57:18.729Z</time></trkpt><trkpt lat="42.8645367" lon="2.7058617"><ele>152.5</ele><time>2026-04-26T08:57:19.728Z</time></trkpt><trkpt lat="42.8645917" lon="2.705695"><ele>155.75</ele><time>2026-04-26T08:57:20.73Z</time></trkpt><trkpt lat="42.86465" lon="2.7055417"><ele>159.0</ele><time>2026-04-26T08:57:21.728Z</time></trkpt><trkpt lat="42.864715" lon="2.7053917"><ele>159.0</ele><time>2026-04-26T08:57:22.728Z</time></trkpt><trkpt lat="42.8647883" lon="2.70525"><ele>159.0</ele><time>2026-04-26T08:57:23.728Z</time></trkpt><trkpt lat="42.86487" lon="2.7051167"><ele>159.0</ele><time>2026-04-26T08:57:24.727Z</time></trkpt><trkpt lat="42.8649583" lon="2.7049833"><ele>159.0</ele><time>2026-04-26T08:57:25.728Z</time></trkpt><trkpt lat="42.865045" lon="2.7048483"><ele>161.75</ele><time>2026-04-26T08:57:26.728Z</time></trkpt><trkpt lat="42.8651283" lon="2.7047033"><ele>164.5</ele><time>2026-04-26T08:57:27.729Z</time></trkpt><trkpt lat="42.8652083" lon="2.704555"><ele>167.25</ele><time>2026-04-26T08:57:28.729Z</time></trkpt><trkpt lat="42.86529" lon="2.7044067"><ele>170.0</ele><time>2026-04-26T08:57:29.728Z</time></trkpt><trkpt lat="42.8653817" lon="2.7042633"><ele>170.0</ele><time>2026-04-26T08:57:30.727Z</time></trkpt><trkpt lat="42.8654817" lon="2.7041217"><ele>170.0</ele><time>2026-04-26T08:57:31.729Z</time></trkpt><trkpt lat="42.8655817" lon="2.7039817"><ele>170.0</ele><time>2026-04-26T08:57:32.728Z</time></trkpt><trkpt lat="42.8656783" lon="2.70384"><ele>170.0</ele><time>2026-04-26T08:57:33.729Z</time></trkpt><trkpt lat="42.8657633" lon="2.7036967"><ele>171.75</ele><time>2026-04-26T08:57:34.729Z</time></trkpt><trkpt lat="42.8658433" lon="2.703565"><ele>173.5</ele><time>2026-04-26T08:57:35.727Z</time></trkpt><trkpt lat="42.8659217" lon="2.7034367"><ele>175.25</ele><time>2026-04-26T08:57:36.727Z</time></trkpt><trkpt lat="42.866005" lon="2.70331"><ele>177.0</ele><time>2026-04-26T08:57:37.73Z</time></trkpt><trkpt lat="42.8660883" lon="2.70319"><ele>177.0</ele><time>2026-04-26T08:57:38.729Z</time></trkpt><trkpt lat="42.8661733" lon="2.703085"><ele>177.0</ele><time>2026-04-26T08:57:39.729Z</time></trkpt><trkpt lat="42.8662733" lon="2.703"><ele>177.0</ele><time>2026-04-26T08:57:40.729Z</time></trkpt><trkpt lat="42.8663817" lon="2.7029183"><ele>177.0</ele><time>2026-04-26T08:57:41.732Z</time></trkpt><trkpt lat="42.8664867" lon="2.70283"><ele>180.5</ele><time>2026-04-26T08:57:42.729Z</time></trkpt><trkpt lat="42.8665933" lon="2.7027367"><ele>184.0</ele><time>2026-04-26T08:57:43.731Z</time></trkpt><trkpt lat="42.8666883" lon="2.7026233"><ele>187.5</ele><time>2026-04-26T08:57:44.727Z</time></trkpt><trkpt lat="42.8667733" lon="2.7024933"><ele>191.0</ele><time>2026-04-26T08:57:45.73Z</time></trkpt><trkpt lat="42.866855" lon="2.7023567"><ele>191.0</ele><time>2026-04-26T08:57:46.729Z</time></trkpt><trkpt lat="42.8669267" lon="2.702215"><ele>191.0</ele><time>2026-04-26T08:57:47.731Z</time></trkpt><trkpt lat="42.8669833" lon="2.7020683"><ele>191.0</ele><time>2026-04-26T08:57:48.729Z</time></trkpt><trkpt lat="42.8670133" lon="2.7019083"><ele>191.0</ele><time>2026-04-26T08:57:49.729Z</time></trkpt><trkpt lat="42.8670233" lon="2.70173"><ele>188.25</ele><time>2026-04-26T08:57:50.731Z</time></trkpt><trkpt lat="42.8670217" lon="2.7015417"><ele>185.5</ele><time>2026-04-26T08:57:51.731Z</time></trkpt><trkpt lat="42.8670083" lon="2.7013367"><ele>182.75</ele><time>2026-04-26T08:57:52.729Z</time></trkpt><trkpt lat="42.8669867" lon="2.7011217"><ele>180.0</ele><time>2026-04-26T08:57:53.728Z</time></trkpt><trkpt lat="42.8669533" lon="2.7009067"><ele>177.66666666666666</ele><time>2026-04-26T08:57:54.731Z</time></trkpt><trkpt lat="42.8669133" lon="2.7006983"><ele>175.33333333333331</ele><time>2026-04-26T08:57:55.729Z</time></trkpt><trkpt lat="42.8668733" lon="2.7004967"><ele>173.0</ele><time>2026-04-26T08:57:56.728Z</time></trkpt><trkpt lat="42.8668417" lon="2.7003083"><ele>173.25</ele><time>2026-04-26T08:57:57.732Z</time></trkpt><trkpt lat="42.8668183" lon="2.7001267"><ele>173.5</ele><time>2026-04-26T08:57:58.729Z</time></trkpt><trkpt lat="42.8668083" lon="2.69994"><ele>173.75</ele><time>2026-04-26T08:57:59.73Z</time></trkpt><trkpt lat="42.8668067" lon="2.6997483"><ele>174.0</ele><time>2026-04-26T08:58:00.731Z</time></trkpt><trkpt lat="42.8668" lon="2.69956"><ele>176.75</ele><time>2026-04-26T08:58:01.729Z</time></trkpt><trkpt lat="42.86678" lon="2.6993883"><ele>179.5</ele><time>2026-04-26T08:58:02.729Z</time></trkpt><trkpt lat="42.8667467" lon="2.69923"><ele>182.25</ele><time>2026-04-26T08:58:03.727Z</time></trkpt><trkpt lat="42.8667017" lon="2.6990767"><ele>185.0</ele><time>2026-04-26T08:58:04.728Z</time></trkpt><trkpt lat="42.8666383" lon="2.69893"><ele>179.75</ele><time>2026-04-26T08:58:05.728Z</time></trkpt><trkpt lat="42.8665583" lon="2.6987883"><ele>174.5</ele><time>2026-04-26T08:58:06.728Z</time></trkpt><trkpt lat="42.86648" lon="2.69865"><ele>169.25</ele><time>2026-04-26T08:58:07.729Z</time></trkpt><trkpt lat="42.8664133" lon="2.6985133"><ele>164.0</ele><time>2026-04-26T08:58:08.728Z</time></trkpt><trkpt lat="42.86635" lon="2.6983833"><ele>164.0</ele><time>2026-04-26T08:58:09.73Z</time></trkpt><trkpt lat="42.866275" lon="2.6982667"><ele>164.0</ele><time>2026-04-26T08:58:10.728Z</time></trkpt><trkpt lat="42.8661833" lon="2.6981717"><ele>164.0</ele><time>2026-04-26T08:58:11.727Z</time></trkpt><trkpt lat="42.8660833" lon="2.69809"><ele>164.0</ele><time>2026-04-26T08:58:12.728Z</time></trkpt><trkpt lat="42.8659867" lon="2.69802"><ele>162.39999999999998</ele><time>2026-04-26T08:58:13.731Z</time></trkpt><trkpt lat="42.8658983" lon="2.6979617"><ele>160.79999999999998</ele><time>2026-04-26T08:58:14.729Z</time></trkpt><trkpt lat="42.8658233" lon="2.6979117"><ele>159.2</ele><time>2026-04-26T08:58:15.728Z</time></trkpt><trkpt lat="42.865765" lon="2.6978633"><ele>157.6</ele><time>2026-04-26T08:58:16.73Z</time></trkpt><trkpt lat="42.865705" lon="2.6976917"><ele>156.0</ele><time>2026-04-26T08:58:18.728Z</time></trkpt><trkpt lat="42.8656833" lon="2.6975933"><ele>156.0</ele><time>2026-04-26T08:58:19.728Z</time></trkpt><trkpt lat="42.8656583" lon="2.6975033"><ele>156.0</ele><time>2026-04-26T08:58:20.729Z</time></trkpt><trkpt lat="42.8656217" lon="2.6974233"><ele>156.0</ele><time>2026-04-26T08:58:21.729Z</time></trkpt><trkpt lat="42.865575" lon="2.6973483"><ele>156.0</ele><time>2026-04-26T08:58:22.728Z</time></trkpt><trkpt lat="42.8655217" lon="2.6972683"><ele>156.0</ele><time>2026-04-26T08:58:23.728Z</time></trkpt><trkpt lat="42.8654617" lon="2.6971867"><ele>156.0</ele><time>2026-04-26T08:58:24.727Z</time></trkpt><trkpt lat="42.8654067" lon="2.6971"><ele>156.0</ele><time>2026-04-26T08:58:25.73Z</time></trkpt><trkpt lat="42.8653567" lon="2.69701"><ele>156.0</ele><time>2026-04-26T08:58:26.728Z</time></trkpt><trkpt lat="42.86531" lon="2.6969067"><ele>156.0</ele><time>2026-04-26T08:58:27.728Z</time></trkpt><trkpt lat="42.8652667" lon="2.6967833"><ele>156.0</ele><time>2026-04-26T08:58:28.729Z</time></trkpt><trkpt lat="42.8652267" lon="2.6966433"><ele>156.0</ele><time>2026-04-26T08:58:29.727Z</time></trkpt><trkpt lat="42.8651867" lon="2.696495"><ele>156.0</ele><time>2026-04-26T08:58:30.729Z</time></trkpt><trkpt lat="42.8651467" lon="2.6963383"><ele>156.0</ele><time>2026-04-26T08:58:31.727Z</time></trkpt><trkpt lat="42.865105" lon="2.6961883"><ele>156.0</ele><time>2026-04-26T08:58:32.728Z</time></trkpt><trkpt lat="42.865065" lon="2.6960433"><ele>156.0</ele><time>2026-04-26T08:58:33.73Z</time></trkpt><trkpt lat="42.8650333" lon="2.6959"><ele>156.0</ele><time>2026-04-26T08:58:34.728Z</time></trkpt><trkpt lat="42.8650017" lon="2.695765"><ele>156.0</ele><time>2026-04-26T08:58:35.728Z</time></trkpt><trkpt lat="42.8649633" lon="2.6956467"><ele>156.0</ele><time>2026-04-26T08:58:36.727Z</time></trkpt><trkpt lat="42.864915" lon="2.695545"><ele>156.0</ele><time>2026-04-26T08:58:37.73Z</time></trkpt><trkpt lat="42.8648667" lon="2.6954433"><ele>156.0</ele><time>2026-04-26T08:58:38.728Z</time></trkpt><trkpt lat="42.8648333" lon="2.6953283"><ele>155.83333333333334</ele><time>2026-04-26T08:58:39.727Z</time></trkpt><trkpt lat="42.8648067" lon="2.695205"><ele>155.66666666666666</ele><time>2026-04-26T08:58:40.728Z</time></trkpt><trkpt lat="42.864785" lon="2.6950867"><ele>155.5</ele><time>2026-04-26T08:58:41.727Z</time></trkpt><trkpt lat="42.86477" lon="2.6949733"><ele>155.33333333333331</ele><time>2026-04-26T08:58:42.727Z</time></trkpt><trkpt lat="42.8647633" lon="2.69486"><ele>155.16666666666666</ele><time>2026-04-26T08:58:43.731Z</time></trkpt><trkpt lat="42.864765" lon="2.6947333"><ele>155.0</ele><time>2026-04-26T08:58:44.73Z</time></trkpt><trkpt lat="42.8647733" lon="2.6946017"><ele>155.0</ele><time>2026-04-26T08:58:45.729Z</time></trkpt><trkpt lat="42.8647717" lon="2.6944633"><ele>155.0</ele><time>2026-04-26T08:58:46.733Z</time></trkpt><trkpt lat="42.86478" lon="2.6943283"><ele>155.0</ele><time>2026-04-26T08:58:47.728Z</time></trkpt><trkpt lat="42.8647783" lon="2.6941883"><ele>155.0</ele><time>2026-04-26T08:58:48.73Z</time></trkpt><trkpt lat="42.86477" lon="2.69406"><ele>155.0</ele><time>2026-04-26T08:58:49.727Z</time></trkpt><trkpt lat="42.8647583" lon="2.6939483"><ele>154.0</ele><time>2026-04-26T08:58:50.731Z</time></trkpt><trkpt lat="42.8647433" lon="2.6938583"><ele>153.0</ele><time>2026-04-26T08:58:51.728Z</time></trkpt><trkpt lat="42.8646867" lon="2.6937333"><ele>152.0</ele><time>2026-04-26T08:58:53.728Z</time></trkpt><trkpt lat="42.86462" lon="2.69362"><ele>151.0</ele><time>2026-04-26T08:58:55.729Z</time></trkpt><trkpt lat="42.86459" lon="2.69345"><ele>150.0</ele><time>2026-04-26T08:58:57.728Z</time></trkpt><trkpt lat="42.8645883" lon="2.6933483"><ele>149.8</ele><time>2026-04-26T08:58:58.728Z</time></trkpt><trkpt lat="42.8645933" lon="2.693235"><ele>149.6</ele><time>2026-04-26T08:58:59.73Z</time></trkpt><trkpt lat="42.8646167" lon="2.69311"><ele>149.4</ele><time>2026-04-26T08:59:00.728Z</time></trkpt><trkpt lat="42.8646433" lon="2.692975"><ele>149.2</ele><time>2026-04-26T08:59:01.728Z</time></trkpt><trkpt lat="42.8646783" lon="2.6928367"><ele>149.0</ele><time>2026-04-26T08:59:02.729Z</time></trkpt><trkpt lat="42.864715" lon="2.6926967"><ele>149.0</ele><time>2026-04-26T08:59:03.73Z</time></trkpt><trkpt lat="42.86475" lon="2.6925433"><ele>149.0</ele><time>2026-04-26T08:59:04.727Z</time></trkpt><trkpt lat="42.86478" lon="2.6923867"><ele>149.0</ele><time>2026-04-26T08:59:05.729Z</time></trkpt><trkpt lat="42.8647983" lon="2.6922283"><ele>149.0</ele><time>2026-04-26T08:59:06.728Z</time></trkpt><trkpt lat="42.864825" lon="2.6920683"><ele>149.25</ele><time>2026-04-26T08:59:07.728Z</time></trkpt><trkpt lat="42.8648633" lon="2.691915"><ele>149.5</ele><time>2026-04-26T08:59:08.73Z</time></trkpt><trkpt lat="42.86491" lon="2.6917617"><ele>149.75</ele><time>2026-04-26T08:59:09.728Z</time></trkpt><trkpt lat="42.86495" lon="2.6916117"><ele>150.0</ele><time>2026-04-26T08:59:10.732Z</time></trkpt><trkpt lat="42.8649683" lon="2.6914533"><ele>150.0</ele><time>2026-04-26T08:59:11.728Z</time></trkpt><trkpt lat="42.8649667" lon="2.6913"><ele>150.0</ele><time>2026-04-26T08:59:12.728Z</time></trkpt><trkpt lat="42.86496" lon="2.6911533"><ele>150.0</ele><time>2026-04-26T08:59:13.729Z</time></trkpt><trkpt lat="42.8649583" lon="2.69102"><ele>150.0</ele><time>2026-04-26T08:59:14.73Z</time></trkpt><trkpt lat="42.8649633" lon="2.6908967"><ele>150.0</ele><time>2026-04-26T08:59:15.729Z</time></trkpt><trkpt lat="42.864975" lon="2.6907767"><ele>150.2</ele><time>2026-04-26T08:59:16.728Z</time></trkpt><trkpt lat="42.864995" lon="2.6906633"><ele>150.4</ele><time>2026-04-26T08:59:17.729Z</time></trkpt><trkpt lat="42.86503" lon="2.6905533"><ele>150.6</ele><time>2026-04-26T08:59:18.729Z</time></trkpt><trkpt lat="42.8650967" lon="2.6904417"><ele>150.8</ele><time>2026-04-26T08:59:19.73Z</time></trkpt><trkpt lat="42.86517" lon="2.690325"><ele>151.0</ele><time>2026-04-26T08:59:20.73Z</time></trkpt><trkpt lat="42.8652433" lon="2.690205"><ele>153.0</ele><time>2026-04-26T08:59:21.73Z</time></trkpt><trkpt lat="42.8653217" lon="2.6900833"><ele>155.0</ele><time>2026-04-26T08:59:22.732Z</time></trkpt><trkpt lat="42.86541" lon="2.6899733"><ele>157.0</ele><time>2026-04-26T08:59:23.728Z</time></trkpt><trkpt lat="42.8655067" lon="2.6898683"><ele>159.0</ele><time>2026-04-26T08:59:24.729Z</time></trkpt><trkpt lat="42.8656067" lon="2.6897683"><ele>159.0</ele><time>2026-04-26T08:59:25.727Z</time></trkpt><trkpt lat="42.865705" lon="2.689675"><ele>159.0</ele><time>2026-04-26T08:59:26.728Z</time></trkpt><trkpt lat="42.8657917" lon="2.68958"><ele>159.0</ele><time>2026-04-26T08:59:27.729Z</time></trkpt><trkpt lat="42.865865" lon="2.68948"><ele>159.0</ele><time>2026-04-26T08:59:28.727Z</time></trkpt><trkpt lat="42.8659133" lon="2.68938"><ele>159.0</ele><time>2026-04-26T08:59:29.727Z</time></trkpt><trkpt lat="42.86594" lon="2.6892783"><ele>159.16666666666666</ele><time>2026-04-26T08:59:30.729Z</time></trkpt><trkpt lat="42.865935" lon="2.6891717"><ele>159.33333333333334</ele><time>2026-04-26T08:59:31.733Z</time></trkpt><trkpt lat="42.86592" lon="2.689055"><ele>159.5</ele><time>2026-04-26T08:59:32.728Z</time></trkpt><trkpt lat="42.865915" lon="2.6889417"><ele>159.66666666666669</ele><time>2026-04-26T08:59:33.727Z</time></trkpt><trkpt lat="42.8659283" lon="2.6888267"><ele>159.83333333333334</ele><time>2026-04-26T08:59:34.727Z</time></trkpt><trkpt lat="42.8659733" lon="2.68871"><ele>160.0</ele><time>2026-04-26T08:59:35.727Z</time></trkpt><trkpt lat="42.8660267" lon="2.6885983"><ele>162.0</ele><time>2026-04-26T08:59:36.727Z</time></trkpt><trkpt lat="42.8660883" lon="2.6885033"><ele>164.0</ele><time>2026-04-26T08:59:37.728Z</time></trkpt><trkpt lat="42.8661717" lon="2.6884267"><ele>166.0</ele><time>2026-04-26T08:59:38.729Z</time></trkpt><trkpt lat="42.866275" lon="2.6883633"><ele>168.0</ele><time>2026-04-26T08:59:39.728Z</time></trkpt><trkpt lat="42.8663833" lon="2.6883117"><ele>170.0</ele><time>2026-04-26T08:59:40.727Z</time></trkpt><trkpt lat="42.8664917" lon="2.6882833"><ele>170.0</ele><time>2026-04-26T08:59:41.727Z</time></trkpt><trkpt lat="42.86659" lon="2.6882717"><ele>170.0</ele><time>2026-04-26T08:59:42.728Z</time></trkpt><trkpt lat="42.86668" lon="2.688245"><ele>170.0</ele><time>2026-04-26T08:59:43.727Z</time></trkpt><trkpt lat="42.8667517" lon="2.6882033"><ele>170.0</ele><time>2026-04-26T08:59:44.729Z</time></trkpt><trkpt lat="42.8668067" lon="2.6881317"><ele>170.0</ele><time>2026-04-26T08:59:45.727Z</time></trkpt><trkpt lat="42.8668283" lon="2.68803"><ele>170.0</ele><time>2026-04-26T08:59:46.727Z</time></trkpt><trkpt lat="42.86683" lon="2.6879117"><ele>170.4</ele><time>2026-04-26T08:59:47.73Z</time></trkpt><trkpt lat="42.8668167" lon="2.68778"><ele>170.8</ele><time>2026-04-26T08:59:48.729Z</time></trkpt><trkpt lat="42.86679" lon="2.68764"><ele>171.2</ele><time>2026-04-26T08:59:49.729Z</time></trkpt><trkpt lat="42.866765" lon="2.6875117"><ele>171.6</ele><time>2026-04-26T08:59:50.728Z</time></trkpt><trkpt lat="42.866745" lon="2.6873817"><ele>172.0</ele><time>2026-04-26T08:59:51.73Z</time></trkpt><trkpt lat="42.866725" lon="2.6872417"><ele>172.0</ele><time>2026-04-26T08:59:52.729Z</time></trkpt><trkpt lat="42.8667033" lon="2.68709"><ele>172.0</ele><time>2026-04-26T08:59:53.728Z</time></trkpt><trkpt lat="42.86668" lon="2.6869417"><ele>172.0</ele><time>2026-04-26T08:59:54.728Z</time></trkpt><trkpt lat="42.8666617" lon="2.6868067"><ele>172.0</ele><time>2026-04-26T08:59:55.728Z</time></trkpt><trkpt lat="42.8666433" lon="2.68667"><ele>172.0</ele><time>2026-04-26T08:59:56.727Z</time></trkpt><trkpt lat="42.8666367" lon="2.68654"><ele>172.66666666666669</ele><time>2026-04-26T08:59:57.726Z</time></trkpt><trkpt lat="42.8666417" lon="2.6864233"><ele>173.33333333333334</ele><time>2026-04-26T08:59:58.73Z</time></trkpt><trkpt lat="42.8666517" lon="2.6863067"><ele>174.0</ele><time>2026-04-26T08:59:59.729Z</time></trkpt><trkpt lat="42.8666533" lon="2.686185"><ele>174.66666666666666</ele><time>2026-04-26T09:00:00.728Z</time></trkpt><trkpt lat="42.86664" lon="2.6860633"><ele>175.33333333333331</ele><time>2026-04-26T09:00:01.729Z</time></trkpt><trkpt lat="42.8666183" lon="2.685935"><ele>176.0</ele><time>2026-04-26T09:00:02.729Z</time></trkpt><trkpt lat="42.86659" lon="2.6858"><ele>177.25</ele><time>2026-04-26T09:00:03.729Z</time></trkpt><trkpt lat="42.8665567" lon="2.6856583"><ele>178.5</ele><time>2026-04-26T09:00:04.728Z</time></trkpt><trkpt lat="42.8665167" lon="2.68551"><ele>179.75</ele><time>2026-04-26T09:00:05.729Z</time></trkpt><trkpt lat="42.8664717" lon="2.6853483"><ele>181.0</ele><time>2026-04-26T09:00:06.728Z</time></trkpt><trkpt lat="42.8664217" lon="2.6851783"><ele>181.75</ele><time>2026-04-26T09:00:07.729Z</time></trkpt><trkpt lat="42.8663717" lon="2.6850017"><ele>182.5</ele><time>2026-04-26T09:00:08.73Z</time></trkpt><trkpt lat="42.866325" lon="2.6848217"><ele>183.25</ele><time>2026-04-26T09:00:09.729Z</time></trkpt><trkpt lat="42.8662783" lon="2.6846417"><ele>184.0</ele><time>2026-04-26T09:00:10.73Z</time></trkpt><trkpt lat="42.86623" lon="2.684465"><ele>183.5</ele><time>2026-04-26T09:00:11.728Z</time></trkpt><trkpt lat="42.86617" lon="2.68429"><ele>183.0</ele><time>2026-04-26T09:00:12.727Z</time></trkpt><trkpt lat="42.8660933" lon="2.6841167"><ele>182.5</ele><time>2026-04-26T09:00:13.728Z</time></trkpt><trkpt lat="42.865995" lon="2.683955"><ele>182.0</ele><time>2026-04-26T09:00:14.729Z</time></trkpt><trkpt lat="42.8658733" lon="2.6838133"><ele>182.0</ele><time>2026-04-26T09:00:15.728Z</time></trkpt><trkpt lat="42.8657433" lon="2.6836917"><ele>182.0</ele><time>2026-04-26T09:00:16.727Z</time></trkpt><trkpt lat="42.86561" lon="2.6835833"><ele>182.0</ele><time>2026-04-26T09:00:17.729Z</time></trkpt><trkpt lat="42.86547" lon="2.68347"><ele>183.0</ele><time>2026-04-26T09:00:18.73Z</time></trkpt><trkpt lat="42.8653283" lon="2.6833533"><ele>184.0</ele><time>2026-04-26T09:00:19.73Z</time></trkpt><trkpt lat="42.8651817" lon="2.68324"><ele>185.0</ele><time>2026-04-26T09:00:20.73Z</time></trkpt><trkpt lat="42.8650333" lon="2.6831467"><ele>185.0</ele><time>2026-04-26T09:00:21.729Z</time></trkpt><trkpt lat="42.864885" lon="2.6830783"><ele>185.0</ele><time>2026-04-26T09:00:22.728Z</time></trkpt><trkpt lat="42.8647433" lon="2.6830317"><ele>185.0</ele><time>2026-04-26T09:00:23.73Z</time></trkpt><trkpt lat="42.8646117" lon="2.6829767"><ele>185.0</ele><time>2026-04-26T09:00:24.731Z</time></trkpt><trkpt lat="42.8644867" lon="2.6828883"><ele>186.75</ele><time>2026-04-26T09:00:25.728Z</time></trkpt><trkpt lat="42.8643817" lon="2.6827617"><ele>188.5</ele><time>2026-04-26T09:00:26.728Z</time></trkpt><trkpt lat="42.8642883" lon="2.6826267"><ele>190.25</ele><time>2026-04-26T09:00:27.728Z</time></trkpt><trkpt lat="42.8641883" lon="2.6825133"><ele>192.0</ele><time>2026-04-26T09:00:28.728Z</time></trkpt><trkpt lat="42.8640717" lon="2.6824367"><ele>192.0</ele><time>2026-04-26T09:00:29.729Z</time></trkpt><trkpt lat="42.8639517" lon="2.682425"><ele>192.0</ele><time>2026-04-26T09:00:30.729Z</time></trkpt><trkpt lat="42.86384" lon="2.6824733"><ele>192.0</ele><time>2026-04-26T09:00:31.73Z</time></trkpt><trkpt lat="42.8637333" lon="2.682545"><ele>192.0</ele><time>2026-04-26T09:00:32.727Z</time></trkpt><trkpt lat="42.8636167" lon="2.68261"><ele>192.0</ele><time>2026-04-26T09:00:33.728Z</time></trkpt><trkpt lat="42.8634917" lon="2.6826283"><ele>192.0</ele><time>2026-04-26T09:00:34.727Z</time></trkpt><trkpt lat="42.863365" lon="2.68259"><ele>192.0</ele><time>2026-04-26T09:00:35.731Z</time></trkpt><trkpt lat="42.86325" lon="2.6825133"><ele>192.0</ele><time>2026-04-26T09:00:36.728Z</time></trkpt><trkpt lat="42.8631417" lon="2.682405"><ele>191.75</ele><time>2026-04-26T09:00:37.73Z</time></trkpt><trkpt lat="42.863035" lon="2.682285"><ele>191.5</ele><time>2026-04-26T09:00:38.728Z</time></trkpt><trkpt lat="42.8629183" lon="2.6821767"><ele>191.25</ele><time>2026-04-26T09:00:39.73Z</time></trkpt><trkpt lat="42.8627883" lon="2.6821017"><ele>191.0</ele><time>2026-04-26T09:00:40.729Z</time></trkpt><trkpt lat="42.8626433" lon="2.682075"><ele>189.75</ele><time>2026-04-26T09:00:41.729Z</time></trkpt><trkpt lat="42.8624967" lon="2.6820833"><ele>188.5</ele><time>2026-04-26T09:00:42.728Z</time></trkpt><trkpt lat="42.8623517" lon="2.682115"><ele>187.25</ele><time>2026-04-26T09:00:43.731Z</time></trkpt><trkpt lat="42.86221" lon="2.6821467"><ele>186.0</ele><time>2026-04-26T09:00:44.729Z</time></trkpt><trkpt lat="42.8620717" lon="2.6821517"><ele>186.0</ele><time>2026-04-26T09:00:45.731Z</time></trkpt><trkpt lat="42.8619283" lon="2.682135"><ele>186.0</ele><time>2026-04-26T09:00:46.728Z</time></trkpt><trkpt lat="42.861795" lon="2.68208"><ele>186.0</ele><time>2026-04-26T09:00:47.729Z</time></trkpt><trkpt lat="42.8616883" lon="2.681975"><ele>186.0</ele><time>2026-04-26T09:00:48.73Z</time></trkpt><trkpt lat="42.8616083" lon="2.6818433"><ele>188.5</ele><time>2026-04-26T09:00:49.73Z</time></trkpt><trkpt lat="42.861565" lon="2.6816983"><ele>191.0</ele><time>2026-04-26T09:00:50.729Z</time></trkpt><trkpt lat="42.861555" lon="2.681535"><ele>193.5</ele><time>2026-04-26T09:00:51.73Z</time></trkpt><trkpt lat="42.8615533" lon="2.6813683"><ele>196.0</ele><time>2026-04-26T09:00:52.728Z</time></trkpt><trkpt lat="42.8615517" lon="2.6812"><ele>196.25</ele><time>2026-04-26T09:00:53.73Z</time></trkpt><trkpt lat="42.8615633" lon="2.6810333"><ele>196.5</ele><time>2026-04-26T09:00:54.727Z</time></trkpt><trkpt lat="42.861605" lon="2.6808733"><ele>196.75</ele><time>2026-04-26T09:00:55.731Z</time></trkpt><trkpt lat="42.8616783" lon="2.6807283"><ele>197.0</ele><time>2026-04-26T09:00:56.729Z</time></trkpt><trkpt lat="42.8617683" lon="2.6805933"><ele>201.5</ele><time>2026-04-26T09:00:57.729Z</time></trkpt><trkpt lat="42.8618617" lon="2.6804567"><ele>206.0</ele><time>2026-04-26T09:00:58.73Z</time></trkpt><trkpt lat="42.8619533" lon="2.6803133"><ele>210.5</ele><time>2026-04-26T09:00:59.728Z</time></trkpt><trkpt lat="42.8620433" lon="2.68016"><ele>215.0</ele><time>2026-04-26T09:01:00.728Z</time></trkpt><trkpt lat="42.8621183" lon="2.6799883"><ele>215.0</ele><time>2026-04-26T09:01:01.729Z</time></trkpt><trkpt lat="42.8621783" lon="2.6798017"><ele>215.0</ele><time>2026-04-26T09:01:02.728Z</time></trkpt><trkpt lat="42.86223" lon="2.6796117"><ele>215.0</ele><time>2026-04-26T09:01:03.73Z</time></trkpt><trkpt lat="42.86228" lon="2.6794267"><ele>215.0</ele><time>2026-04-26T09:01:04.728Z</time></trkpt><trkpt lat="42.862335" lon="2.67925"><ele>212.25</ele><time>2026-04-26T09:01:05.728Z</time></trkpt><trkpt lat="42.8624067" lon="2.6790867"><ele>209.5</ele><time>2026-04-26T09:01:06.727Z</time></trkpt><trkpt lat="42.8625" lon="2.67894"><ele>206.75</ele><time>2026-04-26T09:01:07.73Z</time></trkpt><trkpt lat="42.8626067" lon="2.6788133"><ele>204.0</ele><time>2026-04-26T09:01:08.728Z</time></trkpt><trkpt lat="42.8627217" lon="2.6786967"><ele>204.75</ele><time>2026-04-26T09:01:09.728Z</time></trkpt><trkpt lat="42.8628383" lon="2.678585"><ele>205.5</ele><time>2026-04-26T09:01:10.727Z</time></trkpt><trkpt lat="42.8629567" lon="2.6784783"><ele>206.25</ele><time>2026-04-26T09:01:11.728Z</time></trkpt><trkpt lat="42.863085" lon="2.6783883"><ele>207.0</ele><time>2026-04-26T09:01:12.727Z</time></trkpt><trkpt lat="42.8632217" lon="2.67832"><ele>207.0</ele><time>2026-04-26T09:01:13.728Z</time></trkpt><trkpt lat="42.8633667" lon="2.6782667"><ele>207.0</ele><time>2026-04-26T09:01:14.728Z</time></trkpt><trkpt lat="42.8635117" lon="2.6782083"><ele>207.0</ele><time>2026-04-26T09:01:15.727Z</time></trkpt><trkpt lat="42.8636567" lon="2.678145"><ele>212.33333333333331</ele><time>2026-04-26T09:01:16.727Z</time></trkpt><trkpt lat="42.8638033" lon="2.6780817"><ele>217.66666666666666</ele><time>2026-04-26T09:01:17.729Z</time></trkpt><trkpt lat="42.863955" lon="2.67802"><ele>223.0</ele><time>2026-04-26T09:01:18.728Z</time></trkpt><trkpt lat="42.864105" lon="2.6779533"><ele>223.0</ele><time>2026-04-26T09:01:19.728Z</time></trkpt><trkpt lat="42.86425" lon="2.6778817"><ele>223.0</ele><time>2026-04-26T09:01:20.729Z</time></trkpt><trkpt lat="42.8643783" lon="2.6777967"><ele>223.0</ele><time>2026-04-26T09:01:21.727Z</time></trkpt><trkpt lat="42.864485" lon="2.677685"><ele>223.0</ele><time>2026-04-26T09:01:22.729Z</time></trkpt><trkpt lat="42.8645817" lon="2.6775683"><ele>217.5</ele><time>2026-04-26T09:01:23.728Z</time></trkpt><trkpt lat="42.86468" lon="2.67748"><ele>212.0</ele><time>2026-04-26T09:01:24.727Z</time></trkpt><trkpt lat="42.86479" lon="2.67744"><ele>206.5</ele><time>2026-04-26T09:01:25.727Z</time></trkpt><trkpt lat="42.8649017" lon="2.6774433"><ele>201.0</ele><time>2026-04-26T09:01:26.728Z</time></trkpt><trkpt lat="42.8650217" lon="2.6775033"><ele>202.0</ele><time>2026-04-26T09:01:27.729Z</time></trkpt><trkpt lat="42.8651483" lon="2.67758"><ele>203.0</ele><time>2026-04-26T09:01:28.729Z</time></trkpt><trkpt lat="42.8652817" lon="2.67766"><ele>204.0</ele><time>2026-04-26T09:01:29.729Z</time></trkpt><trkpt lat="42.8654167" lon="2.6777267"><ele>205.0</ele><time>2026-04-26T09:01:30.73Z</time></trkpt><trkpt lat="42.8655533" lon="2.67776"><ele>205.0</ele><time>2026-04-26T09:01:31.729Z</time></trkpt><trkpt lat="42.86569" lon="2.6777483"><ele>205.0</ele><time>2026-04-26T09:01:32.73Z</time></trkpt><trkpt lat="42.86582" lon="2.6776667"><ele>205.0</ele><time>2026-04-26T09:01:33.728Z</time></trkpt><trkpt lat="42.865935" lon="2.6775217"><ele>205.0</ele><time>2026-04-26T09:01:34.729Z</time></trkpt><trkpt lat="42.866045" lon="2.67737"><ele>208.25</ele><time>2026-04-26T09:01:35.729Z</time></trkpt><trkpt lat="42.86615" lon="2.67722"><ele>211.5</ele><time>2026-04-26T09:01:36.729Z</time></trkpt><trkpt lat="42.8662417" lon="2.677065"><ele>214.75</ele><time>2026-04-26T09:01:37.731Z</time></trkpt><trkpt lat="42.8663017" lon="2.6768867"><ele>218.0</ele><time>2026-04-26T09:01:38.73Z</time></trkpt><trkpt lat="42.8663217" lon="2.67669"><ele>218.0</ele><time>2026-04-26T09:01:39.729Z</time></trkpt><trkpt lat="42.8663133" lon="2.6764867"><ele>218.0</ele><time>2026-04-26T09:01:40.727Z</time></trkpt><trkpt lat="42.8663067" lon="2.6762783"><ele>218.0</ele><time>2026-04-26T09:01:41.728Z</time></trkpt><trkpt lat="42.8663283" lon="2.67607"><ele>216.0</ele><time>2026-04-26T09:01:42.727Z</time></trkpt><trkpt lat="42.8663783" lon="2.67586"><ele>214.0</ele><time>2026-04-26T09:01:43.729Z</time></trkpt><trkpt lat="42.8664433" lon="2.6756517"><ele>212.0</ele><time>2026-04-26T09:01:44.728Z</time></trkpt><trkpt lat="42.866515" lon="2.6754417"><ele>209.66666666666669</ele><time>2026-04-26T09:01:45.731Z</time></trkpt><trkpt lat="42.86658" lon="2.675225"><ele>207.33333333333331</ele><time>2026-04-26T09:01:46.727Z</time></trkpt><trkpt lat="42.8666267" lon="2.6749983"><ele>205.0</ele><time>2026-04-26T09:01:47.728Z</time></trkpt><trkpt lat="42.8666517" lon="2.6747633"><ele>205.0</ele><time>2026-04-26T09:01:48.731Z</time></trkpt><trkpt lat="42.86667" lon="2.6745283"><ele>205.0</ele><time>2026-04-26T09:01:49.73Z</time></trkpt><trkpt lat="42.8666917" lon="2.674295"><ele>205.0</ele><time>2026-04-26T09:01:50.731Z</time></trkpt><trkpt lat="42.8667183" lon="2.6740667"><ele>202.66666666666666</ele><time>2026-04-26T09:01:51.728Z</time></trkpt><trkpt lat="42.8667467" lon="2.673845"><ele>200.33333333333331</ele><time>2026-04-26T09:01:52.73Z</time></trkpt><trkpt lat="42.8667733" lon="2.6736283"><ele>198.0</ele><time>2026-04-26T09:01:53.73Z</time></trkpt><trkpt lat="42.8668117" lon="2.673415"><ele>217.0</ele><time>2026-04-26T09:01:54.727Z</time></trkpt><trkpt lat="42.8668667" lon="2.67321"><ele>236.0</ele><time>2026-04-26T09:01:55.728Z</time></trkpt><trkpt lat="42.866935" lon="2.6730133"><ele>255.0</ele><time>2026-04-26T09:01:56.729Z</time></trkpt><trkpt lat="42.8670033" lon="2.6728267"><ele>246.0</ele><time>2026-04-26T09:01:57.73Z</time></trkpt><trkpt lat="42.867065" lon="2.67265"><ele>237.0</ele><time>2026-04-26T09:01:58.728Z</time></trkpt><trkpt lat="42.8671283" lon="2.67249"><ele>228.0</ele><time>2026-04-26T09:01:59.73Z</time></trkpt><trkpt lat="42.8672033" lon="2.672355"><ele>219.0</ele><time>2026-04-26T09:02:00.727Z</time></trkpt><trkpt lat="42.8672983" lon="2.6722533"><ele>219.0</ele><time>2026-04-26T09:02:01.729Z</time></trkpt><trkpt lat="42.8674033" lon="2.6721733"><ele>219.0</ele><time>2026-04-26T09:02:02.729Z</time></trkpt><trkpt lat="42.8675083" lon="2.6721"><ele>219.0</ele><time>2026-04-26T09:02:03.728Z</time></trkpt><trkpt lat="42.8675967" lon="2.67201"><ele>219.0</ele><time>2026-04-26T09:02:04.728Z</time></trkpt><trkpt lat="42.867665" lon="2.671875"><ele>221.0</ele><time>2026-04-26T09:02:05.729Z</time></trkpt><trkpt lat="42.8677233" lon="2.67172"><ele>223.0</ele><time>2026-04-26T09:02:06.728Z</time></trkpt><trkpt lat="42.86779" lon="2.67157"><ele>225.0</ele><time>2026-04-26T09:02:07.728Z</time></trkpt><trkpt lat="42.8678733" lon="2.6714367"><ele>227.0</ele><time>2026-04-26T09:02:08.728Z</time></trkpt><trkpt lat="42.8679733" lon="2.6713317"><ele>227.0</ele><time>2026-04-26T09:02:09.729Z</time></trkpt><trkpt lat="42.8680783" lon="2.671235"><ele>227.0</ele><time>2026-04-26T09:02:10.727Z</time></trkpt><trkpt lat="42.8681833" lon="2.67114"><ele>227.0</ele><time>2026-04-26T09:02:11.73Z</time></trkpt><trkpt lat="42.86829" lon="2.6710467"><ele>227.0</ele><time>2026-04-26T09:02:12.729Z</time></trkpt><trkpt lat="42.8683917" lon="2.6709483"><ele>230.5</ele><time>2026-04-26T09:02:13.73Z</time></trkpt><trkpt lat="42.868485" lon="2.6708467"><ele>234.0</ele><time>2026-04-26T09:02:14.728Z</time></trkpt><trkpt lat="42.8685633" lon="2.670725"><ele>237.5</ele><time>2026-04-26T09:02:15.728Z</time></trkpt><trkpt lat="42.8686233" lon="2.6705917"><ele>241.0</ele><time>2026-04-26T09:02:16.728Z</time></trkpt><trkpt lat="42.86865" lon="2.6704567"><ele>241.0</ele><time>2026-04-26T09:02:17.73Z</time></trkpt><trkpt lat="42.8686317" lon="2.67032"><ele>241.0</ele><time>2026-04-26T09:02:18.728Z</time></trkpt><trkpt lat="42.86857" lon="2.6701917"><ele>241.0</ele><time>2026-04-26T09:02:19.729Z</time></trkpt><trkpt lat="42.8684833" lon="2.6700717"><ele>241.0</ele><time>2026-04-26T09:02:20.729Z</time></trkpt><trkpt lat="42.8683867" lon="2.6699433"><ele>227.75</ele><time>2026-04-26T09:02:21.73Z</time></trkpt><trkpt lat="42.868295" lon="2.6698083"><ele>214.5</ele><time>2026-04-26T09:02:22.728Z</time></trkpt><trkpt lat="42.8682067" lon="2.6696833"><ele>201.25</ele><time>2026-04-26T09:02:23.73Z</time></trkpt><trkpt lat="42.8681067" lon="2.6695917"><ele>188.0</ele><time>2026-04-26T09:02:24.728Z</time></trkpt><trkpt lat="42.8679867" lon="2.6695583"><ele>188.0</ele><time>2026-04-26T09:02:25.729Z</time></trkpt><trkpt lat="42.8678633" lon="2.6695617"><ele>188.0</ele><time>2026-04-26T09:02:26.727Z</time></trkpt><trkpt lat="42.8677367" lon="2.6695483"><ele>188.0</ele><time>2026-04-26T09:02:27.729Z</time></trkpt><trkpt lat="42.867615" lon="2.6694867"><ele>188.0</ele><time>2026-04-26T09:02:28.728Z</time></trkpt><trkpt lat="42.8674967" lon="2.6694017"><ele>189.0</ele><time>2026-04-26T09:02:29.727Z</time></trkpt><trkpt lat="42.8673733" lon="2.6693233"><ele>190.0</ele><time>2026-04-26T09:02:30.728Z</time></trkpt><trkpt lat="42.8672383" lon="2.669255"><ele>191.0</ele><time>2026-04-26T09:02:31.729Z</time></trkpt><trkpt lat="42.8671" lon="2.6692017"><ele>192.0</ele><time>2026-04-26T09:02:32.729Z</time></trkpt><trkpt lat="42.8669617" lon="2.669155"><ele>192.0</ele><time>2026-04-26T09:02:33.727Z</time></trkpt><trkpt lat="42.8668317" lon="2.6690983"><ele>192.0</ele><time>2026-04-26T09:02:34.73Z</time></trkpt><trkpt lat="42.8667217" lon="2.6690167"><ele>192.0</ele><time>2026-04-26T09:02:35.728Z</time></trkpt><trkpt lat="42.8666283" lon="2.6689017"><ele>192.0</ele><time>2026-04-26T09:02:36.728Z</time></trkpt><trkpt lat="42.8665633" lon="2.6687467"><ele>193.0</ele><time>2026-04-26T09:02:37.728Z</time></trkpt><trkpt lat="42.8665233" lon="2.6685583"><ele>194.0</ele><time>2026-04-26T09:02:38.731Z</time></trkpt><trkpt lat="42.866495" lon="2.6683583"><ele>195.0</ele><time>2026-04-26T09:02:39.728Z</time></trkpt><trkpt lat="42.8664667" lon="2.6681567"><ele>196.0</ele><time>2026-04-26T09:02:40.729Z</time></trkpt><trkpt lat="42.8664467" lon="2.6679567"><ele>195.66666666666666</ele><time>2026-04-26T09:02:41.729Z</time></trkpt><trkpt lat="42.8664333" lon="2.66775"><ele>195.33333333333331</ele><time>2026-04-26T09:02:42.728Z</time></trkpt><trkpt lat="42.866435" lon="2.66754"><ele>195.0</ele><time>2026-04-26T09:02:43.729Z</time></trkpt><trkpt lat="42.866465" lon="2.6673283"><ele>195.0</ele><time>2026-04-26T09:02:44.731Z</time></trkpt><trkpt lat="42.8665167" lon="2.6671233"><ele>195.0</ele><time>2026-04-26T09:02:45.727Z</time></trkpt><trkpt lat="42.8665767" lon="2.6669217"><ele>195.0</ele><time>2026-04-26T09:02:46.729Z</time></trkpt><trkpt lat="42.8666367" lon="2.6667167"><ele>195.33333333333331</ele><time>2026-04-26T09:02:47.728Z</time></trkpt><trkpt lat="42.8666983" lon="2.6665083"><ele>195.66666666666666</ele><time>2026-04-26T09:02:48.727Z</time></trkpt><trkpt lat="42.8667633" lon="2.6662983"><ele>196.0</ele><time>2026-04-26T09:02:49.728Z</time></trkpt><trkpt lat="42.8668267" lon="2.6661"><ele>194.33333333333331</ele><time>2026-04-26T09:02:50.729Z</time></trkpt><trkpt lat="42.8668867" lon="2.6659033"><ele>192.66666666666666</ele><time>2026-04-26T09:02:51.728Z</time></trkpt><trkpt lat="42.8669483" lon="2.6657083"><ele>191.0</ele><time>2026-04-26T09:02:52.727Z</time></trkpt><trkpt lat="42.8670067" lon="2.6655133"><ele>191.0</ele><time>2026-04-26T09:02:53.731Z</time></trkpt><trkpt lat="42.8670633" lon="2.6653167"><ele>191.0</ele><time>2026-04-26T09:02:54.729Z</time></trkpt><trkpt lat="42.8671183" lon="2.66512"><ele>191.0</ele><time>2026-04-26T09:02:55.727Z</time></trkpt><trkpt lat="42.867175" lon="2.6649317"><ele>191.0</ele><time>2026-04-26T09:02:56.728Z</time></trkpt><trkpt lat="42.8672283" lon="2.664745"><ele>191.0</ele><time>2026-04-26T09:02:57.727Z</time></trkpt><trkpt lat="42.8672767" lon="2.664555"><ele>191.0</ele><time>2026-04-26T09:02:58.728Z</time></trkpt><trkpt lat="42.8673283" lon="2.6643767"><ele>191.0</ele><time>2026-04-26T09:02:59.73Z</time></trkpt><trkpt lat="42.8673867" lon="2.66421"><ele>191.0</ele><time>2026-04-26T09:03:00.731Z</time></trkpt><trkpt lat="42.8674517" lon="2.664065"><ele>191.0</ele><time>2026-04-26T09:03:01.729Z</time></trkpt><trkpt lat="42.8675233" lon="2.6639267"><ele>191.0</ele><time>2026-04-26T09:03:02.728Z</time></trkpt><trkpt lat="42.8676017" lon="2.6637917"><ele>191.0</ele><time>2026-04-26T09:03:03.728Z</time></trkpt><trkpt lat="42.86768" lon="2.66365"><ele>191.25</ele><time>2026-04-26T09:03:04.729Z</time></trkpt><trkpt lat="42.86776" lon="2.6635133"><ele>191.5</ele><time>2026-04-26T09:03:05.727Z</time></trkpt><trkpt lat="42.8678367" lon="2.6633783"><ele>191.75</ele><time>2026-04-26T09:03:06.727Z</time></trkpt><trkpt lat="42.8679067" lon="2.6632383"><ele>192.0</ele><time>2026-04-26T09:03:07.729Z</time></trkpt><trkpt lat="42.8679633" lon="2.6630833"><ele>192.0</ele><time>2026-04-26T09:03:08.729Z</time></trkpt><trkpt lat="42.8680033" lon="2.6629283"><ele>192.0</ele><time>2026-04-26T09:03:09.728Z</time></trkpt><trkpt lat="42.868035" lon="2.66277"><ele>192.0</ele><time>2026-04-26T09:03:10.727Z</time></trkpt><trkpt lat="42.8680683" lon="2.6626117"><ele>192.0</ele><time>2026-04-26T09:03:11.729Z</time></trkpt><trkpt lat="42.8681017" lon="2.6624483"><ele>192.6</ele><time>2026-04-26T09:03:12.729Z</time></trkpt><trkpt lat="42.8681383" lon="2.6622967"><ele>193.2</ele><time>2026-04-26T09:03:13.731Z</time></trkpt><trkpt lat="42.8681683" lon="2.6621467"><ele>193.8</ele><time>2026-04-26T09:03:14.728Z</time></trkpt><trkpt lat="42.8681883" lon="2.662"><ele>194.4</ele><time>2026-04-26T09:03:15.728Z</time></trkpt><trkpt lat="42.868185" lon="2.6618533"><ele>195.0</ele><time>2026-04-26T09:03:16.732Z</time></trkpt><trkpt lat="42.86815" lon="2.6616983"><ele>195.0</ele><time>2026-04-26T09:03:17.73Z</time></trkpt><trkpt lat="42.868105" lon="2.6615367"><ele>195.0</ele><time>2026-04-26T09:03:18.728Z</time></trkpt><trkpt lat="42.8680567" lon="2.66137"><ele>195.0</ele><time>2026-04-26T09:03:19.73Z</time></trkpt><trkpt lat="42.868015" lon="2.6611783"><ele>195.0</ele><time>2026-04-26T09:03:20.732Z</time></trkpt><trkpt lat="42.8679683" lon="2.66099"><ele>194.75</ele><time>2026-04-26T09:03:21.728Z</time></trkpt><trkpt lat="42.8679183" lon="2.660805"><ele>194.5</ele><time>2026-04-26T09:03:22.729Z</time></trkpt><trkpt lat="42.8678717" lon="2.6606183"><ele>194.25</ele><time>2026-04-26T09:03:23.729Z</time></trkpt><trkpt lat="42.86782" lon="2.660425"><ele>194.0</ele><time>2026-04-26T09:03:24.731Z</time></trkpt><trkpt lat="42.8677733" lon="2.660235"><ele>193.75</ele><time>2026-04-26T09:03:25.728Z</time></trkpt><trkpt lat="42.86773" lon="2.660055"><ele>193.5</ele><time>2026-04-26T09:03:26.73Z</time></trkpt><trkpt lat="42.8676917" lon="2.65988"><ele>193.25</ele><time>2026-04-26T09:03:27.73Z</time></trkpt><trkpt lat="42.8676617" lon="2.659705"><ele>193.0</ele><time>2026-04-26T09:03:28.73Z</time></trkpt><trkpt lat="42.8676433" lon="2.6595267"><ele>192.75</ele><time>2026-04-26T09:03:29.731Z</time></trkpt><trkpt lat="42.8676233" lon="2.65935"><ele>192.5</ele><time>2026-04-26T09:03:30.729Z</time></trkpt><trkpt lat="42.8676033" lon="2.6591783"><ele>192.25</ele><time>2026-04-26T09:03:31.731Z</time></trkpt><trkpt lat="42.8675933" lon="2.6590017"><ele>192.0</ele><time>2026-04-26T09:03:32.73Z</time></trkpt><trkpt lat="42.86758" lon="2.6588333"><ele>194.39999999999998</ele><time>2026-04-26T09:03:33.729Z</time></trkpt><trkpt lat="42.8675633" lon="2.6586733"><ele>196.79999999999998</ele><time>2026-04-26T09:03:34.728Z</time></trkpt><trkpt lat="42.86755" lon="2.658525"><ele>199.2</ele><time>2026-04-26T09:03:35.729Z</time></trkpt><trkpt lat="42.8675483" lon="2.6583783"><ele>201.6</ele><time>2026-04-26T09:03:36.729Z</time></trkpt><trkpt lat="42.86756" lon="2.6582367"><ele>204.0</ele><time>2026-04-26T09:03:37.728Z</time></trkpt><trkpt lat="42.8675983" lon="2.658105"><ele>202.0</ele><time>2026-04-26T09:03:38.731Z</time></trkpt><trkpt lat="42.86765" lon="2.6579833"><ele>200.0</ele><time>2026-04-26T09:03:39.731Z</time></trkpt><trkpt lat="42.8677033" lon="2.6578633"><ele>198.0</ele><time>2026-04-26T09:03:40.731Z</time></trkpt><trkpt lat="42.8677533" lon="2.65774"><ele>196.0</ele><time>2026-04-26T09:03:41.728Z</time></trkpt><trkpt lat="42.867805" lon="2.65762"><ele>194.0</ele><time>2026-04-26T09:03:42.728Z</time></trkpt><trkpt lat="42.867855" lon="2.6574983"><ele>194.00000000000003</ele><time>2026-04-26T09:03:43.73Z</time></trkpt><trkpt lat="42.8679067" lon="2.6573833"><ele>194.0</ele><time>2026-04-26T09:03:44.729Z</time></trkpt><trkpt lat="42.867945" lon="2.6572733"><ele>194.0</ele><time>2026-04-26T09:03:45.732Z</time></trkpt><trkpt lat="42.8679833" lon="2.657185"><ele>194.0</ele><time>2026-04-26T09:03:46.729Z</time></trkpt><trkpt lat="42.8680217" lon="2.6571033"><ele>194.00000000000003</ele><time>2026-04-26T09:03:47.728Z</time></trkpt><trkpt lat="42.8680567" lon="2.65701"><ele>194.0</ele><time>2026-04-26T09:03:48.73Z</time></trkpt><trkpt lat="42.86808" lon="2.6569117"><ele>194.66666666666669</ele><time>2026-04-26T09:03:49.73Z</time></trkpt><trkpt lat="42.8680883" lon="2.65681"><ele>195.33333333333334</ele><time>2026-04-26T09:03:50.729Z</time></trkpt><trkpt lat="42.8681" lon="2.6567083"><ele>196.0</ele><time>2026-04-26T09:03:51.728Z</time></trkpt><trkpt lat="42.8681367" lon="2.6566133"><ele>196.66666666666669</ele><time>2026-04-26T09:03:52.728Z</time></trkpt><trkpt lat="42.8681883" lon="2.6565183"><ele>197.33333333333334</ele><time>2026-04-26T09:03:53.728Z</time></trkpt><trkpt lat="42.8682367" lon="2.65642"><ele>198.0</ele><time>2026-04-26T09:03:54.728Z</time></trkpt><trkpt lat="42.868285" lon="2.656345"><ele>198.0</ele><time>2026-04-26T09:03:55.728Z</time></trkpt><trkpt lat="42.86832" lon="2.6562667"><ele>198.0</ele><time>2026-04-26T09:03:56.73Z</time></trkpt><trkpt lat="42.8683583" lon="2.6561717"><ele>198.0</ele><time>2026-04-26T09:03:57.728Z</time></trkpt><trkpt lat="42.8683933" lon="2.656075"><ele>198.0</ele><time>2026-04-26T09:03:58.727Z</time></trkpt><trkpt lat="42.8684217" lon="2.6559567"><ele>198.0</ele><time>2026-04-26T09:03:59.729Z</time></trkpt><trkpt lat="42.8684517" lon="2.65583"><ele>198.0</ele><time>2026-04-26T09:04:00.729Z</time></trkpt><trkpt lat="42.8684767" lon="2.65569"><ele>197.0</ele><time>2026-04-26T09:04:01.728Z</time></trkpt><trkpt lat="42.8684867" lon="2.6555417"><ele>196.0</ele><time>2026-04-26T09:04:02.728Z</time></trkpt><trkpt lat="42.8684967" lon="2.65539"><ele>195.0</ele><time>2026-04-26T09:04:03.736Z</time></trkpt><trkpt lat="42.86848" lon="2.6552367"><ele>194.0</ele><time>2026-04-26T09:04:04.727Z</time></trkpt><trkpt lat="42.8684533" lon="2.6550733"><ele>197.25</ele><time>2026-04-26T09:04:05.728Z</time></trkpt><trkpt lat="42.8684267" lon="2.6549017"><ele>200.5</ele><time>2026-04-26T09:04:06.728Z</time></trkpt><trkpt lat="42.8683933" lon="2.6547283"><ele>203.75</ele><time>2026-04-26T09:04:07.729Z</time></trkpt><trkpt lat="42.8683633" lon="2.6545517"><ele>207.0</ele><time>2026-04-26T09:04:08.728Z</time></trkpt><trkpt lat="42.8683367" lon="2.6543733"><ele>207.0</ele><time>2026-04-26T09:04:09.727Z</time></trkpt><trkpt lat="42.8683083" lon="2.65419"><ele>207.0</ele><time>2026-04-26T09:04:10.729Z</time></trkpt><trkpt lat="42.8682783" lon="2.6540133"><ele>207.0</ele><time>2026-04-26T09:04:11.732Z</time></trkpt><trkpt lat="42.8682533" lon="2.6538483"><ele>207.0</ele><time>2026-04-26T09:04:12.73Z</time></trkpt><trkpt lat="42.8682317" lon="2.653685"><ele>206.0</ele><time>2026-04-26T09:04:13.727Z</time></trkpt><trkpt lat="42.8682167" lon="2.653525"><ele>205.0</ele><time>2026-04-26T09:04:14.729Z</time></trkpt><trkpt lat="42.8681933" lon="2.65337"><ele>204.0</ele><time>2026-04-26T09:04:15.73Z</time></trkpt><trkpt lat="42.8681667" lon="2.65321"><ele>203.0</ele><time>2026-04-26T09:04:16.727Z</time></trkpt><trkpt lat="42.8681367" lon="2.6530383"><ele>203.0</ele><time>2026-04-26T09:04:17.728Z</time></trkpt><trkpt lat="42.8681" lon="2.6528633"><ele>203.0</ele><time>2026-04-26T09:04:18.73Z</time></trkpt><trkpt lat="42.8680633" lon="2.6526817"><ele>203.0</ele><time>2026-04-26T09:04:19.731Z</time></trkpt><trkpt lat="42.8680267" lon="2.652495"><ele>203.0</ele><time>2026-04-26T09:04:20.728Z</time></trkpt><trkpt lat="42.86799" lon="2.6522967"><ele>202.0</ele><time>2026-04-26T09:04:21.73Z</time></trkpt><trkpt lat="42.8679533" lon="2.652095"><ele>201.0</ele><time>2026-04-26T09:04:22.728Z</time></trkpt><trkpt lat="42.86792" lon="2.6518917"><ele>200.0</ele><time>2026-04-26T09:04:23.729Z</time></trkpt><trkpt lat="42.8678867" lon="2.651685"><ele>199.33333333333334</ele><time>2026-04-26T09:04:24.73Z</time></trkpt><trkpt lat="42.867855" lon="2.6514717"><ele>198.66666666666669</ele><time>2026-04-26T09:04:25.729Z</time></trkpt><trkpt lat="42.8678233" lon="2.6512567"><ele>198.0</ele><time>2026-04-26T09:04:26.729Z</time></trkpt><trkpt lat="42.867795" lon="2.6510383"><ele>197.66666666666669</ele><time>2026-04-26T09:04:27.73Z</time></trkpt><trkpt lat="42.867765" lon="2.65082"><ele>197.33333333333334</ele><time>2026-04-26T09:04:28.728Z</time></trkpt><trkpt lat="42.8677367" lon="2.6506033"><ele>197.0</ele><time>2026-04-26T09:04:29.728Z</time></trkpt><trkpt lat="42.8677033" lon="2.65039"><ele>197.0</ele><time>2026-04-26T09:04:30.731Z</time></trkpt><trkpt lat="42.867665" lon="2.6501783"><ele>197.0</ele><time>2026-04-26T09:04:31.728Z</time></trkpt><trkpt lat="42.8676233" lon="2.6499683"><ele>197.0</ele><time>2026-04-26T09:04:32.728Z</time></trkpt><trkpt lat="42.86758" lon="2.6497483"><ele>199.33333333333334</ele><time>2026-04-26T09:04:33.73Z</time></trkpt><trkpt lat="42.8675383" lon="2.6495267"><ele>201.66666666666669</ele><time>2026-04-26T09:04:34.728Z</time></trkpt><trkpt lat="42.8674933" lon="2.649305"><ele>204.0</ele><time>2026-04-26T09:04:35.73Z</time></trkpt><trkpt lat="42.8674417" lon="2.649085"><ele>204.0</ele><time>2026-04-26T09:04:36.728Z</time></trkpt><trkpt lat="42.8673817" lon="2.6488667"><ele>204.0</ele><time>2026-04-26T09:04:37.731Z</time></trkpt><trkpt lat="42.8673183" lon="2.6486483"><ele>204.0</ele><time>2026-04-26T09:04:38.728Z</time></trkpt><trkpt lat="42.867255" lon="2.6484283"><ele>203.0</ele><time>2026-04-26T09:04:39.729Z</time></trkpt><trkpt lat="42.8671917" lon="2.6482067"><ele>202.0</ele><time>2026-04-26T09:04:40.728Z</time></trkpt><trkpt lat="42.867125" lon="2.6479817"><ele>201.0</ele><time>2026-04-26T09:04:41.734Z</time></trkpt><trkpt lat="42.8670567" lon="2.64776"><ele>200.33333333333331</ele><time>2026-04-26T09:04:42.728Z</time></trkpt><trkpt lat="42.86699" lon="2.6475417"><ele>199.66666666666666</ele><time>2026-04-26T09:04:43.73Z</time></trkpt><trkpt lat="42.8669233" lon="2.647325"><ele>199.0</ele><time>2026-04-26T09:04:44.728Z</time></trkpt><trkpt lat="42.8668567" lon="2.6471067"><ele>199.0</ele><time>2026-04-26T09:04:45.73Z</time></trkpt><trkpt lat="42.8667917" lon="2.6468867"><ele>199.0</ele><time>2026-04-26T09:04:46.729Z</time></trkpt><trkpt lat="42.866725" lon="2.646665"><ele>199.0</ele><time>2026-04-26T09:04:47.734Z</time></trkpt><trkpt lat="42.86666" lon="2.646445"><ele>201.33333333333331</ele><time>2026-04-26T09:04:48.728Z</time></trkpt><trkpt lat="42.8665983" lon="2.6462267"><ele>203.66666666666669</ele><time>2026-04-26T09:04:49.733Z</time></trkpt><trkpt lat="42.8665383" lon="2.6460067"><ele>206.0</ele><time>2026-04-26T09:04:50.729Z</time></trkpt><trkpt lat="42.8664883" lon="2.6457783"><ele>206.0</ele><time>2026-04-26T09:04:51.729Z</time></trkpt><trkpt lat="42.86645" lon="2.64554"><ele>206.0</ele><time>2026-04-26T09:04:52.732Z</time></trkpt><trkpt lat="42.866425" lon="2.6452983"><ele>206.0</ele><time>2026-04-26T09:04:53.731Z</time></trkpt><trkpt lat="42.8664033" lon="2.6450617"><ele>205.66666666666669</ele><time>2026-04-26T09:04:54.729Z</time></trkpt><trkpt lat="42.866375" lon="2.64483"><ele>205.33333333333331</ele><time>2026-04-26T09:04:55.728Z</time></trkpt><trkpt lat="42.8663283" lon="2.6446083"><ele>205.0</ele><time>2026-04-26T09:04:56.728Z</time></trkpt><trkpt lat="42.8662617" lon="2.644395"><ele>204.66666666666666</ele><time>2026-04-26T09:04:57.73Z</time></trkpt><trkpt lat="42.866185" lon="2.6441883"><ele>204.33333333333331</ele><time>2026-04-26T09:04:58.728Z</time></trkpt><trkpt lat="42.8661267" lon="2.6439817"><ele>204.0</ele><time>2026-04-26T09:04:59.736Z</time></trkpt><trkpt lat="42.8660817" lon="2.6437733"><ele>204.66666666666669</ele><time>2026-04-26T09:05:00.729Z</time></trkpt><trkpt lat="42.86604" lon="2.6435667"><ele>205.33333333333334</ele><time>2026-04-26T09:05:01.727Z</time></trkpt><trkpt lat="42.8659667" lon="2.64338"><ele>206.0</ele><time>2026-04-26T09:05:02.727Z</time></trkpt><trkpt lat="42.8658583" lon="2.643215"><ele>208.0</ele><time>2026-04-26T09:05:03.73Z</time></trkpt><trkpt lat="42.865735" lon="2.6430767"><ele>210.0</ele><time>2026-04-26T09:05:04.728Z</time></trkpt><trkpt lat="42.8656117" lon="2.64295"><ele>212.0</ele><time>2026-04-26T09:05:05.726Z</time></trkpt><trkpt lat="42.8655067" lon="2.6428183"><ele>210.75</ele><time>2026-04-26T09:05:06.727Z</time></trkpt><trkpt lat="42.8654267" lon="2.6426733"><ele>209.5</ele><time>2026-04-26T09:05:07.727Z</time></trkpt><trkpt lat="42.86538" lon="2.6425133"><ele>208.25</ele><time>2026-04-26T09:05:08.728Z</time></trkpt><trkpt lat="42.8653667" lon="2.6423383"><ele>207.0</ele><time>2026-04-26T09:05:09.728Z</time></trkpt><trkpt lat="42.8653883" lon="2.642155"><ele>207.0</ele><time>2026-04-26T09:05:10.728Z</time></trkpt><trkpt lat="42.865445" lon="2.641975"><ele>207.0</ele><time>2026-04-26T09:05:11.728Z</time></trkpt><trkpt lat="42.86553" lon="2.6418183"><ele>207.0</ele><time>2026-04-26T09:05:12.728Z</time></trkpt><trkpt lat="42.8656217" lon="2.6416917"><ele>207.0</ele><time>2026-04-26T09:05:13.727Z</time></trkpt><trkpt lat="42.8657067" lon="2.6415767"><ele>207.8</ele><time>2026-04-26T09:05:14.728Z</time></trkpt><trkpt lat="42.86577" lon="2.64145"><ele>208.6</ele><time>2026-04-26T09:05:15.728Z</time></trkpt><trkpt lat="42.8657883" lon="2.6413033"><ele>209.4</ele><time>2026-04-26T09:05:16.728Z</time></trkpt><trkpt lat="42.86577" lon="2.6411667"><ele>210.20000000000002</ele><time>2026-04-26T09:05:17.729Z</time></trkpt><trkpt lat="42.8657167" lon="2.641045"><ele>211.0</ele><time>2026-04-26T09:05:18.728Z</time></trkpt><trkpt lat="42.8656733" lon="2.64095"><ele>211.16666666666666</ele><time>2026-04-26T09:05:19.729Z</time></trkpt><trkpt lat="42.8656333" lon="2.64083"><ele>211.33333333333331</ele><time>2026-04-26T09:05:21.73Z</time></trkpt><trkpt lat="42.865695" lon="2.6407617"><ele>211.5</ele><time>2026-04-26T09:05:23.73Z</time></trkpt><trkpt lat="42.8657483" lon="2.640715"><ele>211.66666666666669</ele><time>2026-04-26T09:05:24.729Z</time></trkpt><trkpt lat="42.8658167" lon="2.6406633"><ele>211.83333333333334</ele><time>2026-04-26T09:05:25.729Z</time></trkpt><trkpt lat="42.8658983" lon="2.6405967"><ele>212.0</ele><time>2026-04-26T09:05:26.728Z</time></trkpt><trkpt lat="42.8659967" lon="2.64053"><ele>212.0</ele><time>2026-04-26T09:05:27.727Z</time></trkpt><trkpt lat="42.8661133" lon="2.6404867"><ele>212.0</ele><time>2026-04-26T09:05:28.727Z</time></trkpt><trkpt lat="42.8662383" lon="2.640455"><ele>212.0</ele><time>2026-04-26T09:05:29.726Z</time></trkpt><trkpt lat="42.8663633" lon="2.6404183"><ele>212.0</ele><time>2026-04-26T09:05:30.727Z</time></trkpt><trkpt lat="42.8664883" lon="2.6403583"><ele>211.0</ele><time>2026-04-26T09:05:31.728Z</time></trkpt><trkpt lat="42.8666117" lon="2.640295"><ele>210.0</ele><time>2026-04-26T09:05:32.727Z</time></trkpt><trkpt lat="42.8667233" lon="2.6402317"><ele>209.0</ele><time>2026-04-26T09:05:33.727Z</time></trkpt><trkpt lat="42.8668283" lon="2.640175"><ele>208.0</ele><time>2026-04-26T09:05:34.727Z</time></trkpt><trkpt lat="42.8669283" lon="2.640115"><ele>213.8</ele><time>2026-04-26T09:05:35.73Z</time></trkpt><trkpt lat="42.86701" lon="2.6400467"><ele>219.60000000000002</ele><time>2026-04-26T09:05:36.728Z</time></trkpt><trkpt lat="42.86706" lon="2.6399583"><ele>225.39999999999998</ele><time>2026-04-26T09:05:37.727Z</time></trkpt><trkpt lat="42.8670667" lon="2.63984"><ele>231.2</ele><time>2026-04-26T09:05:38.728Z</time></trkpt><trkpt lat="42.86704" lon="2.6397"><ele>237.0</ele><time>2026-04-26T09:05:39.727Z</time></trkpt><trkpt lat="42.8670183" lon="2.639545"><ele>236.0</ele><time>2026-04-26T09:05:40.726Z</time></trkpt><trkpt lat="42.8670133" lon="2.6393683"><ele>235.0</ele><time>2026-04-26T09:05:41.728Z</time></trkpt><trkpt lat="42.8670167" lon="2.6391833"><ele>234.0</ele><time>2026-04-26T09:05:42.727Z</time></trkpt><trkpt lat="42.8670117" lon="2.6390017"><ele>233.0</ele><time>2026-04-26T09:05:43.729Z</time></trkpt><trkpt lat="42.8670083" lon="2.6388117"><ele>232.25</ele><time>2026-04-26T09:05:44.729Z</time></trkpt><trkpt lat="42.86702" lon="2.6386167"><ele>231.5</ele><time>2026-04-26T09:05:45.727Z</time></trkpt><trkpt lat="42.8670533" lon="2.63842"><ele>230.75</ele><time>2026-04-26T09:05:46.727Z</time></trkpt><trkpt lat="42.8670917" lon="2.63822"><ele>230.0</ele><time>2026-04-26T09:05:47.729Z</time></trkpt><trkpt lat="42.86712" lon="2.6380167"><ele>230.0</ele><time>2026-04-26T09:05:48.728Z</time></trkpt><trkpt lat="42.8671333" lon="2.637815"><ele>230.0</ele><time>2026-04-26T09:05:49.727Z</time></trkpt><trkpt lat="42.867125" lon="2.6376167"><ele>230.0</ele><time>2026-04-26T09:05:50.727Z</time></trkpt><trkpt lat="42.8670983" lon="2.6374267"><ele>230.0</ele><time>2026-04-26T09:05:51.728Z</time></trkpt><trkpt lat="42.867065" lon="2.6372483"><ele>230.25</ele><time>2026-04-26T09:05:52.728Z</time></trkpt><trkpt lat="42.86704" lon="2.637065"><ele>230.5</ele><time>2026-04-26T09:05:53.729Z</time></trkpt><trkpt lat="42.8670417" lon="2.636875"><ele>230.75</ele><time>2026-04-26T09:05:54.728Z</time></trkpt><trkpt lat="42.8670467" lon="2.636695"><ele>231.0</ele><time>2026-04-26T09:05:55.73Z</time></trkpt><trkpt lat="42.8670467" lon="2.6365283"><ele>230.60000000000002</ele><time>2026-04-26T09:05:56.727Z</time></trkpt><trkpt lat="42.8670517" lon="2.6363783"><ele>230.20000000000002</ele><time>2026-04-26T09:05:57.728Z</time></trkpt><trkpt lat="42.8670767" lon="2.636245"><ele>229.79999999999998</ele><time>2026-04-26T09:05:58.727Z</time></trkpt><trkpt lat="42.867135" lon="2.63614"><ele>229.39999999999998</ele><time>2026-04-26T09:05:59.727Z</time></trkpt><trkpt lat="42.8672183" lon="2.6360533"><ele>229.0</ele><time>2026-04-26T09:06:00.73Z</time></trkpt><trkpt lat="42.8673017" lon="2.6359683"><ele>227.2</ele><time>2026-04-26T09:06:01.727Z</time></trkpt><trkpt lat="42.8673717" lon="2.6358667"><ele>225.39999999999998</ele><time>2026-04-26T09:06:02.728Z</time></trkpt><trkpt lat="42.8674117" lon="2.6357417"><ele>223.6</ele><time>2026-04-26T09:06:03.728Z</time></trkpt><trkpt lat="42.8674133" lon="2.6356"><ele>221.8</ele><time>2026-04-26T09:06:04.727Z</time></trkpt><trkpt lat="42.8673733" lon="2.6354533"><ele>220.0</ele><time>2026-04-26T09:06:05.729Z</time></trkpt><trkpt lat="42.8673083" lon="2.635315"><ele>219.75</ele><time>2026-04-26T09:06:06.728Z</time></trkpt><trkpt lat="42.86724" lon="2.635185"><ele>219.5</ele><time>2026-04-26T09:06:07.728Z</time></trkpt><trkpt lat="42.8671917" lon="2.63504"><ele>219.25</ele><time>2026-04-26T09:06:08.728Z</time></trkpt><trkpt lat="42.8671717" lon="2.6348733"><ele>219.0</ele><time>2026-04-26T09:06:09.727Z</time></trkpt><trkpt lat="42.8671683" lon="2.6346867"><ele>219.0</ele><time>2026-04-26T09:06:10.727Z</time></trkpt><trkpt lat="42.8671633" lon="2.6344883"><ele>219.0</ele><time>2026-04-26T09:06:11.732Z</time></trkpt><trkpt lat="42.8671483" lon="2.634285"><ele>219.0</ele><time>2026-04-26T09:06:12.728Z</time></trkpt><trkpt lat="42.8671233" lon="2.634085"><ele>219.0</ele><time>2026-04-26T09:06:13.728Z</time></trkpt><trkpt lat="42.8670933" lon="2.63388"><ele>221.0</ele><time>2026-04-26T09:06:14.728Z</time></trkpt><trkpt lat="42.8670533" lon="2.6336717"><ele>223.0</ele><time>2026-04-26T09:06:15.728Z</time></trkpt><trkpt lat="42.8670033" lon="2.6334667"><ele>225.0</ele><time>2026-04-26T09:06:16.727Z</time></trkpt><trkpt lat="42.8669567" lon="2.6332567"><ele>225.66666666666669</ele><time>2026-04-26T09:06:17.729Z</time></trkpt><trkpt lat="42.86691" lon="2.6330417"><ele>226.33333333333334</ele><time>2026-04-26T09:06:18.727Z</time></trkpt><trkpt lat="42.86687" lon="2.6328233"><ele>227.0</ele><time>2026-04-26T09:06:19.727Z</time></trkpt><trkpt lat="42.8668333" lon="2.6326167"><ele>227.0</ele><time>2026-04-26T09:06:20.727Z</time></trkpt><trkpt lat="42.8668" lon="2.632415"><ele>227.0</ele><time>2026-04-26T09:06:21.727Z</time></trkpt><trkpt lat="42.8667717" lon="2.6322067"><ele>227.0</ele><time>2026-04-26T09:06:22.729Z</time></trkpt><trkpt lat="42.8667517" lon="2.6319917"><ele>223.0</ele><time>2026-04-26T09:06:23.73Z</time></trkpt><trkpt lat="42.866735" lon="2.6317717"><ele>219.0</ele><time>2026-04-26T09:06:24.728Z</time></trkpt><trkpt lat="42.86672" lon="2.6315433"><ele>215.0</ele><time>2026-04-26T09:06:25.728Z</time></trkpt><trkpt lat="42.8667067" lon="2.6313117"><ele>215.0</ele><time>2026-04-26T09:06:26.728Z</time></trkpt><trkpt lat="42.8666917" lon="2.63108"><ele>215.0</ele><time>2026-04-26T09:06:27.729Z</time></trkpt><trkpt lat="42.8666767" lon="2.6308433"><ele>215.0</ele><time>2026-04-26T09:06:28.729Z</time></trkpt><trkpt lat="42.8666617" lon="2.6306067"><ele>215.0</ele><time>2026-04-26T09:06:29.728Z</time></trkpt><trkpt lat="42.8666467" lon="2.63037"><ele>215.0</ele><time>2026-04-26T09:06:30.728Z</time></trkpt><trkpt lat="42.8666333" lon="2.6301367"><ele>215.0</ele><time>2026-04-26T09:06:31.728Z</time></trkpt><trkpt lat="42.86662" lon="2.62991"><ele>215.66666666666669</ele><time>2026-04-26T09:06:32.729Z</time></trkpt><trkpt lat="42.8666083" lon="2.6296917"><ele>216.33333333333331</ele><time>2026-04-26T09:06:33.728Z</time></trkpt><trkpt lat="42.8666" lon="2.629485"><ele>217.0</ele><time>2026-04-26T09:06:34.728Z</time></trkpt><trkpt lat="42.86659" lon="2.629285"><ele>217.75</ele><time>2026-04-26T09:06:35.728Z</time></trkpt><trkpt lat="42.8665733" lon="2.62909"><ele>218.5</ele><time>2026-04-26T09:06:36.728Z</time></trkpt><trkpt lat="42.8665417" lon="2.6289033"><ele>219.25</ele><time>2026-04-26T09:06:37.728Z</time></trkpt><trkpt lat="42.8665033" lon="2.628725"><ele>220.0</ele><time>2026-04-26T09:06:38.728Z</time></trkpt><trkpt lat="42.8664617" lon="2.6285583"><ele>221.75</ele><time>2026-04-26T09:06:39.728Z</time></trkpt><trkpt lat="42.8664217" lon="2.628405"><ele>223.5</ele><time>2026-04-26T09:06:40.728Z</time></trkpt><trkpt lat="42.8663833" lon="2.6282583"><ele>225.25</ele><time>2026-04-26T09:06:41.727Z</time></trkpt><trkpt lat="42.8663467" lon="2.62811"><ele>227.0</ele><time>2026-04-26T09:06:42.727Z</time></trkpt><trkpt lat="42.8663133" lon="2.6279633"><ele>227.0</ele><time>2026-04-26T09:06:43.727Z</time></trkpt><trkpt lat="42.8662717" lon="2.6278167"><ele>227.0</ele><time>2026-04-26T09:06:44.727Z</time></trkpt><trkpt lat="42.8662083" lon="2.627675"><ele>227.0</ele><time>2026-04-26T09:06:45.731Z</time></trkpt><trkpt lat="42.8661267" lon="2.6275367"><ele>227.0</ele><time>2026-04-26T09:06:46.727Z</time></trkpt><trkpt lat="42.866035" lon="2.6273917"><ele>225.0</ele><time>2026-04-26T09:06:47.727Z</time></trkpt><trkpt lat="42.8659433" lon="2.6272467"><ele>223.0</ele><time>2026-04-26T09:06:48.727Z</time></trkpt><trkpt lat="42.86585" lon="2.6271"><ele>221.0</ele><time>2026-04-26T09:06:49.727Z</time></trkpt><trkpt lat="42.8657533" lon="2.6269533"><ele>219.0</ele><time>2026-04-26T09:06:50.729Z</time></trkpt><trkpt lat="42.86566" lon="2.62681"><ele>219.0</ele><time>2026-04-26T09:06:51.73Z</time></trkpt><trkpt lat="42.86557" lon="2.62667"><ele>219.0</ele><time>2026-04-26T09:06:52.727Z</time></trkpt><trkpt lat="42.8654817" lon="2.62654"><ele>219.0</ele><time>2026-04-26T09:06:53.727Z</time></trkpt><trkpt lat="42.865405" lon="2.6264183"><ele>219.0</ele><time>2026-04-26T09:06:54.727Z</time></trkpt><trkpt lat="42.8653367" lon="2.62631"><ele>219.0</ele><time>2026-04-26T09:06:55.727Z</time></trkpt><trkpt lat="42.865275" lon="2.6262133"><ele>219.0</ele><time>2026-04-26T09:06:56.727Z</time></trkpt><trkpt lat="42.8652167" lon="2.6261283"><ele>219.0</ele><time>2026-04-26T09:06:57.727Z</time></trkpt><trkpt lat="42.86517" lon="2.6260483"><ele>219.0</ele><time>2026-04-26T09:06:58.728Z</time></trkpt><trkpt lat="42.865135" lon="2.6259633"><ele>219.0</ele><time>2026-04-26T09:06:59.727Z</time></trkpt><trkpt lat="42.8651067" lon="2.6258717"><ele>219.0</ele><time>2026-04-26T09:07:00.727Z</time></trkpt><trkpt lat="42.8650767" lon="2.62578"><ele>219.0</ele><time>2026-04-26T09:07:01.73Z</time></trkpt><trkpt lat="42.8650533" lon="2.6256883"><ele>219.0</ele><time>2026-04-26T09:07:02.728Z</time></trkpt><trkpt lat="42.8650233" lon="2.6255967"><ele>219.0</ele><time>2026-04-26T09:07:03.727Z</time></trkpt><trkpt lat="42.8649917" lon="2.625505"><ele>219.0</ele><time>2026-04-26T09:07:04.727Z</time></trkpt><trkpt lat="42.8649667" lon="2.6253533"><ele>219.0</ele><time>2026-04-26T09:07:06.727Z</time></trkpt><trkpt lat="42.8650283" lon="2.6252867"><ele>219.0</ele><time>2026-04-26T09:07:08.727Z</time></trkpt><trkpt lat="42.8650967" lon="2.6253433"><ele>221.0</ele><time>2026-04-26T09:07:09.727Z</time></trkpt><trkpt lat="42.86515" lon="2.62541"><ele>223.0</ele><time>2026-04-26T09:07:10.727Z</time></trkpt><trkpt lat="42.8652017" lon="2.6255"><ele>225.0</ele><time>2026-04-26T09:07:11.727Z</time></trkpt><trkpt lat="42.865255" lon="2.6256"><ele>227.0</ele><time>2026-04-26T09:07:12.732Z</time></trkpt><trkpt lat="42.8653067" lon="2.6256917"><ele>229.0</ele><time>2026-04-26T09:07:13.73Z</time></trkpt><trkpt lat="42.8653583" lon="2.625755"><ele>231.0</ele><time>2026-04-26T09:07:14.729Z</time></trkpt><trkpt lat="42.86543" lon="2.6258033"><ele>231.0</ele><time>2026-04-26T09:07:15.728Z</time></trkpt><trkpt lat="42.8655033" lon="2.6258283"><ele>231.0</ele><time>2026-04-26T09:07:16.729Z</time></trkpt><trkpt lat="42.8655867" lon="2.6258283"><ele>231.0</ele><time>2026-04-26T09:07:17.728Z</time></trkpt><trkpt lat="42.8656683" lon="2.6258183"><ele>231.0</ele><time>2026-04-26T09:07:18.727Z</time></trkpt><trkpt lat="42.86575" lon="2.6258117"><ele>231.0</ele><time>2026-04-26T09:07:19.728Z</time></trkpt><trkpt lat="42.86583" lon="2.6258117"><ele>231.0</ele><time>2026-04-26T09:07:20.729Z</time></trkpt><trkpt lat="42.8659133" lon="2.62583"><ele>235.0</ele><time>2026-04-26T09:07:21.728Z</time></trkpt><trkpt lat="42.866" lon="2.6258567"><ele>239.00000000000003</ele><time>2026-04-26T09:07:22.729Z</time></trkpt><trkpt lat="42.86609" lon="2.62589"><ele>243.00000000000003</ele><time>2026-04-26T09:07:23.73Z</time></trkpt><trkpt lat="42.8661783" lon="2.62593"><ele>247.0</ele><time>2026-04-26T09:07:24.728Z</time></trkpt><trkpt lat="42.86627" lon="2.6259817"><ele>251.0</ele><time>2026-04-26T09:07:25.729Z</time></trkpt><trkpt lat="42.8663617" lon="2.6260383"><ele>251.00000000000003</ele><time>2026-04-26T09:07:26.728Z</time></trkpt><trkpt lat="42.8664433" lon="2.6260983"><ele>251.0</ele><time>2026-04-26T09:07:27.729Z</time></trkpt><trkpt lat="42.86651" lon="2.62617"><ele>251.0</ele><time>2026-04-26T09:07:28.729Z</time></trkpt><trkpt lat="42.8665683" lon="2.6262617"><ele>251.0</ele><time>2026-04-26T09:07:29.728Z</time></trkpt><trkpt lat="42.8666183" lon="2.6263667"><ele>251.00000000000003</ele><time>2026-04-26T09:07:30.73Z</time></trkpt><trkpt lat="42.8666667" lon="2.62647"><ele>251.0</ele><time>2026-04-26T09:07:31.728Z</time></trkpt><trkpt lat="42.866725" lon="2.6265667"><ele>251.60000000000002</ele><time>2026-04-26T09:07:32.73Z</time></trkpt><trkpt lat="42.8667933" lon="2.6266567"><ele>252.20000000000002</ele><time>2026-04-26T09:07:33.729Z</time></trkpt><trkpt lat="42.8668617" lon="2.6267483"><ele>252.79999999999998</ele><time>2026-04-26T09:07:34.73Z</time></trkpt><trkpt lat="42.8669283" lon="2.6268317"><ele>253.39999999999998</ele><time>2026-04-26T09:07:35.729Z</time></trkpt><trkpt lat="42.8669917" lon="2.6269083"><ele>254.0</ele><time>2026-04-26T09:07:36.728Z</time></trkpt><trkpt lat="42.8670567" lon="2.626985"><ele>254.0</ele><time>2026-04-26T09:07:37.729Z</time></trkpt><trkpt lat="42.867125" lon="2.627065"><ele>253.99999999999997</ele><time>2026-04-26T09:07:38.73Z</time></trkpt><trkpt lat="42.8671833" lon="2.62716"><ele>253.99999999999997</ele><time>2026-04-26T09:07:39.728Z</time></trkpt><trkpt lat="42.867225" lon="2.62727"><ele>254.0</ele><time>2026-04-26T09:07:40.73Z</time></trkpt><trkpt lat="42.8672633" lon="2.6273917"><ele>254.0</ele><time>2026-04-26T09:07:41.727Z</time></trkpt><trkpt lat="42.8673117" lon="2.627505"><ele>254.00000000000003</ele><time>2026-04-26T09:07:42.728Z</time></trkpt><trkpt lat="42.8673667" lon="2.6276117"><ele>254.0</ele><time>2026-04-26T09:07:43.729Z</time></trkpt><trkpt lat="42.8674183" lon="2.627725"><ele>254.0</ele><time>2026-04-26T09:07:44.733Z</time></trkpt><trkpt lat="42.8674633" lon="2.6278367"><ele>254.0</ele><time>2026-04-26T09:07:45.728Z</time></trkpt><trkpt lat="42.8675033" lon="2.6279283"><ele>254.00000000000003</ele><time>2026-04-26T09:07:46.729Z</time></trkpt><trkpt lat="42.8675433" lon="2.628005"><ele>254.0</ele><time>2026-04-26T09:07:47.73Z</time></trkpt><trkpt lat="42.8676317" lon="2.6280883"><ele>255.16666666666669</ele><time>2026-04-26T09:07:49.728Z</time></trkpt><trkpt lat="42.8676967" lon="2.6280867"><ele>256.33333333333337</ele><time>2026-04-26T09:07:50.728Z</time></trkpt><trkpt lat="42.8677733" lon="2.6280683"><ele>257.5</ele><time>2026-04-26T09:07:51.73Z</time></trkpt><trkpt lat="42.8678533" lon="2.6280467"><ele>258.6666666666667</ele><time>2026-04-26T09:07:52.728Z</time></trkpt><trkpt lat="42.8679333" lon="2.6280267"><ele>259.8333333333333</ele><time>2026-04-26T09:07:53.73Z</time></trkpt><trkpt lat="42.8680117" lon="2.6280033"><ele>261.0</ele><time>2026-04-26T09:07:54.73Z</time></trkpt><trkpt lat="42.86809" lon="2.6279717"><ele>261.0</ele><time>2026-04-26T09:07:55.728Z</time></trkpt><trkpt lat="42.8681567" lon="2.6279317"><ele>261.0</ele><time>2026-04-26T09:07:56.729Z</time></trkpt><trkpt lat="42.8682617" lon="2.6278367"><ele>261.0</ele><time>2026-04-26T09:07:58.729Z</time></trkpt><trkpt lat="42.8683633" lon="2.6277567"><ele>261.0</ele><time>2026-04-26T09:08:00.728Z</time></trkpt><trkpt lat="42.8684183" lon="2.627705"><ele>261.0</ele><time>2026-04-26T09:08:01.73Z</time></trkpt><trkpt lat="42.8684733" lon="2.627645"><ele>261.6666666666667</ele><time>2026-04-26T09:08:02.728Z</time></trkpt><trkpt lat="42.8685267" lon="2.6275333"><ele>262.3333333333333</ele><time>2026-04-26T09:08:04.728Z</time></trkpt><trkpt lat="42.8685083" lon="2.6274183"><ele>263.0</ele><time>2026-04-26T09:08:06.727Z</time></trkpt><trkpt lat="42.8684733" lon="2.6273433"><ele>263.66666666666663</ele><time>2026-04-26T09:08:07.727Z</time></trkpt><trkpt lat="42.8684383" lon="2.6272533"><ele>264.3333333333333</ele><time>2026-04-26T09:08:08.733Z</time></trkpt><trkpt lat="42.8684" lon="2.62716"><ele>265.0</ele><time>2026-04-26T09:08:09.729Z</time></trkpt><trkpt lat="42.8683633" lon="2.6270667"><ele>268.66666666666663</ele><time>2026-04-26T09:08:10.727Z</time></trkpt><trkpt lat="42.8683317" lon="2.6269767"><ele>272.3333333333333</ele><time>2026-04-26T09:08:11.728Z</time></trkpt><trkpt lat="42.868315" lon="2.62688"><ele>276.0</ele><time>2026-04-26T09:08:12.728Z</time></trkpt><trkpt lat="42.8682967" lon="2.626775"><ele>279.6666666666667</ele><time>2026-04-26T09:08:13.728Z</time></trkpt><trkpt lat="42.868275" lon="2.6266667"><ele>283.33333333333337</ele><time>2026-04-26T09:08:14.729Z</time></trkpt><trkpt lat="42.868245" lon="2.62656"><ele>287.0</ele><time>2026-04-26T09:08:15.729Z</time></trkpt><trkpt lat="42.868215" lon="2.626455"><ele>287.0</ele><time>2026-04-26T09:08:16.728Z</time></trkpt><trkpt lat="42.8681917" lon="2.6263467"><ele>287.0</ele><time>2026-04-26T09:08:17.729Z</time></trkpt><trkpt lat="42.8681767" lon="2.626235"><ele>287.0</ele><time>2026-04-26T09:08:18.729Z</time></trkpt><trkpt lat="42.868165" lon="2.6261167"><ele>287.0</ele><time>2026-04-26T09:08:19.727Z</time></trkpt><trkpt lat="42.86814" lon="2.6259967"><ele>287.0</ele><time>2026-04-26T09:08:20.729Z</time></trkpt><trkpt lat="42.868105" lon="2.6258867"><ele>287.0</ele><time>2026-04-26T09:08:21.728Z</time></trkpt><trkpt lat="42.86806" lon="2.6257783"><ele>289.6666666666667</ele><time>2026-04-26T09:08:22.728Z</time></trkpt><trkpt lat="42.86799" lon="2.6256917"><ele>292.33333333333337</ele><time>2026-04-26T09:08:23.727Z</time></trkpt><trkpt lat="42.8679217" lon="2.6256267"><ele>295.0</ele><time>2026-04-26T09:08:24.727Z</time></trkpt><trkpt lat="42.8678617" lon="2.6255817"><ele>297.6666666666667</ele><time>2026-04-26T09:08:25.73Z</time></trkpt><trkpt lat="42.86778" lon="2.625485"><ele>300.3333333333333</ele><time>2026-04-26T09:08:27.728Z</time></trkpt><trkpt lat="42.8677533" lon="2.625405"><ele>303.0</ele><time>2026-04-26T09:08:28.727Z</time></trkpt><trkpt lat="42.8677233" lon="2.6253183"><ele>305.6666666666667</ele><time>2026-04-26T09:08:29.728Z</time></trkpt><trkpt lat="42.8676933" lon="2.62523"><ele>308.3333333333333</ele><time>2026-04-26T09:08:30.727Z</time></trkpt><trkpt lat="42.86767" lon="2.6251383"><ele>311.0</ele><time>2026-04-26T09:08:31.729Z</time></trkpt><trkpt lat="42.86766" lon="2.6250383"><ele>313.66666666666663</ele><time>2026-04-26T09:08:32.729Z</time></trkpt><trkpt lat="42.8676567" lon="2.62493"><ele>316.3333333333333</ele><time>2026-04-26T09:08:33.728Z</time></trkpt><trkpt lat="42.867645" lon="2.6248183"><ele>319.0</ele><time>2026-04-26T09:08:34.729Z</time></trkpt><trkpt lat="42.867615" lon="2.6247033"><ele>316.5</ele><time>2026-04-26T09:08:35.728Z</time></trkpt><trkpt lat="42.867575" lon="2.6245817"><ele>314.0</ele><time>2026-04-26T09:08:36.727Z</time></trkpt><trkpt lat="42.8675283" lon="2.624455"><ele>311.5</ele><time>2026-04-26T09:08:37.728Z</time></trkpt><trkpt lat="42.8674883" lon="2.6243383"><ele>309.0</ele><time>2026-04-26T09:08:38.728Z</time></trkpt><trkpt lat="42.8674517" lon="2.6242367"><ele>306.5</ele><time>2026-04-26T09:08:39.728Z</time></trkpt><trkpt lat="42.8674217" lon="2.62415"><ele>304.0</ele><time>2026-04-26T09:08:40.727Z</time></trkpt><trkpt lat="42.8673883" lon="2.6240633"><ele>304.0</ele><time>2026-04-26T09:08:41.729Z</time></trkpt><trkpt lat="42.8673533" lon="2.623975"><ele>304.0</ele><time>2026-04-26T09:08:42.727Z</time></trkpt><trkpt lat="42.8673117" lon="2.6238933"><ele>304.0</ele><time>2026-04-26T09:08:43.728Z</time></trkpt><trkpt lat="42.8672667" lon="2.6238133"><ele>304.0</ele><time>2026-04-26T09:08:44.728Z</time></trkpt><trkpt lat="42.86722" lon="2.623725"><ele>304.0</ele><time>2026-04-26T09:08:45.731Z</time></trkpt><trkpt lat="42.8671733" lon="2.6236217"><ele>304.0</ele><time>2026-04-26T09:08:46.727Z</time></trkpt><trkpt lat="42.8671283" lon="2.6235117"><ele>305.0</ele><time>2026-04-26T09:08:47.73Z</time></trkpt><trkpt lat="42.8670933" lon="2.6234033"><ele>306.0</ele><time>2026-04-26T09:08:48.728Z</time></trkpt><trkpt lat="42.8670667" lon="2.6233033"><ele>307.0</ele><time>2026-04-26T09:08:49.728Z</time></trkpt><trkpt lat="42.8670483" lon="2.623195"><ele>308.0</ele><time>2026-04-26T09:08:50.731Z</time></trkpt><trkpt lat="42.8670417" lon="2.62308"><ele>309.0</ele><time>2026-04-26T09:08:51.728Z</time></trkpt><trkpt lat="42.8670367" lon="2.622965"><ele>310.0</ele><time>2026-04-26T09:08:52.728Z</time></trkpt><trkpt lat="42.8670367" lon="2.6228633"><ele>310.3333333333333</ele><time>2026-04-26T09:08:53.727Z</time></trkpt><trkpt lat="42.86704" lon="2.62276"><ele>310.66666666666663</ele><time>2026-04-26T09:08:54.733Z</time></trkpt><trkpt lat="42.867045" lon="2.62265"><ele>311.0</ele><time>2026-04-26T09:08:55.728Z</time></trkpt><trkpt lat="42.8670533" lon="2.6225517"><ele>311.3333333333333</ele><time>2026-04-26T09:08:56.728Z</time></trkpt><trkpt lat="42.8670667" lon="2.6224667"><ele>311.6666666666667</ele><time>2026-04-26T09:08:57.728Z</time></trkpt><trkpt lat="42.8671267" lon="2.6223583"><ele>312.0</ele><time>2026-04-26T09:08:59.729Z</time></trkpt><trkpt lat="42.8672317" lon="2.622265"><ele>312.0</ele><time>2026-04-26T09:09:01.731Z</time></trkpt><trkpt lat="42.867285" lon="2.6222167"><ele>312.0</ele><time>2026-04-26T09:09:02.729Z</time></trkpt><trkpt lat="42.8673317" lon="2.6221567"><ele>312.0</ele><time>2026-04-26T09:09:03.728Z</time></trkpt><trkpt lat="42.8673633" lon="2.6220767"><ele>312.0</ele><time>2026-04-26T09:09:04.728Z</time></trkpt><trkpt lat="42.867385" lon="2.6219867"><ele>312.0</ele><time>2026-04-26T09:09:05.73Z</time></trkpt><trkpt lat="42.8673983" lon="2.6218883"><ele>312.0</ele><time>2026-04-26T09:09:06.729Z</time></trkpt><trkpt lat="42.8674133" lon="2.6217967"><ele>312.0</ele><time>2026-04-26T09:09:07.729Z</time></trkpt><trkpt lat="42.8674267" lon="2.6217117"><ele>313.1666666666667</ele><time>2026-04-26T09:09:08.729Z</time></trkpt><trkpt lat="42.86748" lon="2.6215567"><ele>314.3333333333333</ele><time>2026-04-26T09:09:10.731Z</time></trkpt><trkpt lat="42.8675233" lon="2.62149"><ele>315.5</ele><time>2026-04-26T09:09:11.728Z</time></trkpt><trkpt lat="42.8675733" lon="2.621435"><ele>316.66666666666663</ele><time>2026-04-26T09:09:12.728Z</time></trkpt><trkpt lat="42.8676517" lon="2.6214283"><ele>317.8333333333333</ele><time>2026-04-26T09:09:14.728Z</time></trkpt><trkpt lat="42.8677233" lon="2.6215217"><ele>319.0</ele><time>2026-04-26T09:09:16.728Z</time></trkpt><trkpt lat="42.8677717" lon="2.6215933"><ele>322.3333333333333</ele><time>2026-04-26T09:09:17.729Z</time></trkpt><trkpt lat="42.867825" lon="2.6216683"><ele>325.66666666666663</ele><time>2026-04-26T09:09:18.728Z</time></trkpt><trkpt lat="42.8678817" lon="2.6217517"><ele>329.0</ele><time>2026-04-26T09:09:19.728Z</time></trkpt><trkpt lat="42.8679433" lon="2.62183"><ele>332.3333333333333</ele><time>2026-04-26T09:09:20.73Z</time></trkpt><trkpt lat="42.8680133" lon="2.6219017"><ele>335.6666666666667</ele><time>2026-04-26T09:09:21.728Z</time></trkpt><trkpt lat="42.8680883" lon="2.6219633"><ele>339.0</ele><time>2026-04-26T09:09:22.728Z</time></trkpt><trkpt lat="42.8681583" lon="2.6220117"><ele>339.0</ele><time>2026-04-26T09:09:23.728Z</time></trkpt><trkpt lat="42.8682283" lon="2.6220533"><ele>339.0</ele><time>2026-04-26T09:09:24.727Z</time></trkpt><trkpt lat="42.8682933" lon="2.6220867"><ele>339.0</ele><time>2026-04-26T09:09:25.728Z</time></trkpt><trkpt lat="42.8683967" lon="2.6221417"><ele>339.0</ele><time>2026-04-26T09:09:27.727Z</time></trkpt><trkpt lat="42.8685067" lon="2.6222267"><ele>339.0</ele><time>2026-04-26T09:09:29.729Z</time></trkpt><trkpt lat="42.8685717" lon="2.6222733"><ele>342.79999999999995</ele><time>2026-04-26T09:09:30.728Z</time></trkpt><trkpt lat="42.8686317" lon="2.62231"><ele>346.59999999999997</ele><time>2026-04-26T09:09:31.729Z</time></trkpt><trkpt lat="42.8687533" lon="2.62234"><ele>350.4</ele><time>2026-04-26T09:09:33.729Z</time></trkpt><trkpt lat="42.8688567" lon="2.622415"><ele>354.2</ele><time>2026-04-26T09:09:35.737Z</time></trkpt><trkpt lat="42.8689083" lon="2.6225533"><ele>358.0</ele><time>2026-04-26T09:09:37.73Z</time></trkpt><trkpt lat="42.8689233" lon="2.622715"><ele>357.66666666666663</ele><time>2026-04-26T09:09:39.729Z</time></trkpt><trkpt lat="42.868975" lon="2.6228283"><ele>357.3333333333333</ele><time>2026-04-26T09:09:41.728Z</time></trkpt><trkpt lat="42.8690833" lon="2.62288"><ele>357.0</ele><time>2026-04-26T09:09:43.728Z</time></trkpt><trkpt lat="42.86915" lon="2.6228883"><ele>356.6666666666667</ele><time>2026-04-26T09:09:44.729Z</time></trkpt><trkpt lat="42.8692183" lon="2.6228933"><ele>356.33333333333337</ele><time>2026-04-26T09:09:45.73Z</time></trkpt><trkpt lat="42.86929" lon="2.6229033"><ele>356.0</ele><time>2026-04-26T09:09:46.729Z</time></trkpt><trkpt lat="42.8693633" lon="2.6229217"><ele>358.1666666666667</ele><time>2026-04-26T09:09:47.728Z</time></trkpt><trkpt lat="42.8694433" lon="2.6229333"><ele>360.33333333333337</ele><time>2026-04-26T09:09:48.729Z</time></trkpt><trkpt lat="42.86953" lon="2.6229333"><ele>362.5</ele><time>2026-04-26T09:09:49.731Z</time></trkpt><trkpt lat="42.8696133" lon="2.62293"><ele>364.6666666666667</ele><time>2026-04-26T09:09:50.729Z</time></trkpt><trkpt lat="42.8696983" lon="2.622935"><ele>366.8333333333333</ele><time>2026-04-26T09:09:51.729Z</time></trkpt><trkpt lat="42.8697817" lon="2.622955"><ele>369.0</ele><time>2026-04-26T09:09:52.727Z</time></trkpt><trkpt lat="42.869865" lon="2.6229883"><ele>369.0</ele><time>2026-04-26T09:09:53.728Z</time></trkpt><trkpt lat="42.8699417" lon="2.6230383"><ele>369.0</ele><time>2026-04-26T09:09:54.729Z</time></trkpt><trkpt lat="42.8700133" lon="2.623095"><ele>369.0</ele><time>2026-04-26T09:09:55.73Z</time></trkpt><trkpt lat="42.8700883" lon="2.6231417"><ele>369.0</ele><time>2026-04-26T09:09:56.728Z</time></trkpt><trkpt lat="42.8701667" lon="2.6231733"><ele>369.0</ele><time>2026-04-26T09:09:57.728Z</time></trkpt><trkpt lat="42.8702483" lon="2.6231983"><ele>369.0</ele><time>2026-04-26T09:09:58.728Z</time></trkpt><trkpt lat="42.8703217" lon="2.6232133"><ele>369.1666666666667</ele><time>2026-04-26T09:09:59.729Z</time></trkpt><trkpt lat="42.8703883" lon="2.6232183"><ele>369.3333333333333</ele><time>2026-04-26T09:10:00.727Z</time></trkpt><trkpt lat="42.8704617" lon="2.6232017"><ele>369.5</ele><time>2026-04-26T09:10:01.729Z</time></trkpt><trkpt lat="42.87054" lon="2.6231683"><ele>369.66666666666663</ele><time>2026-04-26T09:10:02.728Z</time></trkpt><trkpt lat="42.8706167" lon="2.6231283"><ele>369.8333333333333</ele><time>2026-04-26T09:10:03.728Z</time></trkpt><trkpt lat="42.8706783" lon="2.6230733"><ele>370.0</ele><time>2026-04-26T09:10:04.727Z</time></trkpt><trkpt lat="42.8707333" lon="2.623005"><ele>370.0</ele><time>2026-04-26T09:10:05.729Z</time></trkpt><trkpt lat="42.87078" lon="2.6229217"><ele>370.0</ele><time>2026-04-26T09:10:06.729Z</time></trkpt><trkpt lat="42.87083" lon="2.6228317"><ele>370.0</ele><time>2026-04-26T09:10:07.729Z</time></trkpt><trkpt lat="42.87088" lon="2.622735"><ele>370.0</ele><time>2026-04-26T09:10:08.729Z</time></trkpt><trkpt lat="42.870925" lon="2.6226333"><ele>370.0</ele><time>2026-04-26T09:10:09.73Z</time></trkpt><trkpt lat="42.8709667" lon="2.622525"><ele>370.0</ele><time>2026-04-26T09:10:10.728Z</time></trkpt><trkpt lat="42.8710067" lon="2.622405"><ele>372.8333333333333</ele><time>2026-04-26T09:10:11.732Z</time></trkpt><trkpt lat="42.8710533" lon="2.6222933"><ele>375.66666666666663</ele><time>2026-04-26T09:10:12.727Z</time></trkpt><trkpt lat="42.87111" lon="2.6221967"><ele>378.5</ele><time>2026-04-26T09:10:13.729Z</time></trkpt><trkpt lat="42.8711683" lon="2.62212"><ele>381.3333333333333</ele><time>2026-04-26T09:10:14.728Z</time></trkpt><trkpt lat="42.871225" lon="2.6220567"><ele>384.1666666666667</ele><time>2026-04-26T09:10:15.731Z</time></trkpt><trkpt lat="42.8712833" lon="2.6219933"><ele>387.0</ele><time>2026-04-26T09:10:16.728Z</time></trkpt><trkpt lat="42.8713517" lon="2.6219383"><ele>390.8333333333333</ele><time>2026-04-26T09:10:17.728Z</time></trkpt><trkpt lat="42.871425" lon="2.6218883"><ele>394.66666666666663</ele><time>2026-04-26T09:10:18.729Z</time></trkpt><trkpt lat="42.871495" lon="2.6218383"><ele>398.5</ele><time>2026-04-26T09:10:19.732Z</time></trkpt><trkpt lat="42.8715617" lon="2.62178"><ele>402.3333333333333</ele><time>2026-04-26T09:10:20.728Z</time></trkpt><trkpt lat="42.8716267" lon="2.621725"><ele>406.16666666666663</ele><time>2026-04-26T09:10:21.731Z</time></trkpt><trkpt lat="42.8716883" lon="2.6216667"><ele>410.0</ele><time>2026-04-26T09:10:22.729Z</time></trkpt><trkpt lat="42.8717533" lon="2.621605"><ele>409.7142857142857</ele><time>2026-04-26T09:10:23.729Z</time></trkpt><trkpt lat="42.8718167" lon="2.6215367"><ele>409.4285714285714</ele><time>2026-04-26T09:10:24.729Z</time></trkpt><trkpt lat="42.871875" lon="2.62147"><ele>409.1428571428571</ele><time>2026-04-26T09:10:25.729Z</time></trkpt><trkpt lat="42.8719183" lon="2.621405"><ele>408.8571428571429</ele><time>2026-04-26T09:10:26.729Z</time></trkpt><trkpt lat="42.8719467" lon="2.6213283"><ele>408.57142857142856</ele><time>2026-04-26T09:10:27.73Z</time></trkpt><trkpt lat="42.8719533" lon="2.621225"><ele>408.2857142857143</ele><time>2026-04-26T09:10:28.729Z</time></trkpt><trkpt lat="42.87197" lon="2.62113"><ele>408.0</ele><time>2026-04-26T09:10:29.728Z</time></trkpt><trkpt lat="42.8719917" lon="2.6210433"><ele>412.79999999999995</ele><time>2026-04-26T09:10:30.729Z</time></trkpt><trkpt lat="42.8720717" lon="2.620925"><ele>417.6</ele><time>2026-04-26T09:10:32.729Z</time></trkpt><trkpt lat="42.8721917" lon="2.6208867"><ele>422.40000000000003</ele><time>2026-04-26T09:10:34.73Z</time></trkpt><trkpt lat="42.8722533" lon="2.6208683"><ele>427.20000000000005</ele><time>2026-04-26T09:10:35.73Z</time></trkpt><trkpt lat="42.872375" lon="2.6208533"><ele>432.0</ele><time>2026-04-26T09:10:37.729Z</time></trkpt><trkpt lat="42.8724433" lon="2.6208567"><ele>432.0</ele><time>2026-04-26T09:10:38.73Z</time></trkpt><trkpt lat="42.872555" lon="2.6208417"><ele>432.00000000000006</ele><time>2026-04-26T09:10:40.731Z</time></trkpt><trkpt lat="42.87263" lon="2.6207667"><ele>432.00000000000006</ele><time>2026-04-26T09:10:42.729Z</time></trkpt><trkpt lat="42.8726933" lon="2.6206333"><ele>432.0</ele><time>2026-04-26T09:10:44.731Z</time></trkpt><trkpt lat="42.8727283" lon="2.6204733"><ele>432.0</ele><time>2026-04-26T09:10:46.73Z</time></trkpt><trkpt lat="42.8727417" lon="2.6203883"><ele>435.40000000000003</ele><time>2026-04-26T09:10:47.731Z</time></trkpt><trkpt lat="42.8727683" lon="2.6202417"><ele>438.80000000000007</ele><time>2026-04-26T09:10:49.73Z</time></trkpt><trkpt lat="42.8728133" lon="2.6201467"><ele>442.2</ele><time>2026-04-26T09:10:51.732Z</time></trkpt><trkpt lat="42.87289" lon="2.6200617"><ele>445.6</ele><time>2026-04-26T09:10:53.73Z</time></trkpt><trkpt lat="42.8729533" lon="2.6199267"><ele>449.0</ele><time>2026-04-26T09:10:55.727Z</time></trkpt><trkpt lat="42.87302" lon="2.6197933"><ele>449.0</ele><time>2026-04-26T09:10:57.728Z</time></trkpt><trkpt lat="42.8731083" lon="2.6196783"><ele>449.0</ele><time>2026-04-26T09:10:59.726Z</time></trkpt><trkpt lat="42.8731733" lon="2.61955"><ele>449.0</ele><time>2026-04-26T09:11:01.727Z</time></trkpt><trkpt lat="42.8732183" lon="2.6193983"><ele>449.0</ele><time>2026-04-26T09:11:03.728Z</time></trkpt><trkpt lat="42.8732483" lon="2.6193167"><ele>449.0</ele><time>2026-04-26T09:11:04.727Z</time></trkpt><trkpt lat="42.873285" lon="2.6192383"><ele>454.0</ele><time>2026-04-26T09:11:05.728Z</time></trkpt><trkpt lat="42.8733717" lon="2.6191433"><ele>459.0</ele><time>2026-04-26T09:11:07.728Z</time></trkpt><trkpt lat="42.8734817" lon="2.6191267"><ele>464.0</ele><time>2026-04-26T09:11:09.726Z</time></trkpt><trkpt lat="42.8735533" lon="2.6191633"><ele>469.0</ele><time>2026-04-26T09:11:10.728Z</time></trkpt><trkpt lat="42.87362" lon="2.619185"><ele>474.0</ele><time>2026-04-26T09:11:11.73Z</time></trkpt><trkpt lat="42.8737417" lon="2.6192217"><ele>474.4</ele><time>2026-04-26T09:11:13.727Z</time></trkpt><trkpt lat="42.873865" lon="2.6192267"><ele>474.79999999999995</ele><time>2026-04-26T09:11:15.727Z</time></trkpt><trkpt lat="42.8739817" lon="2.61925"><ele>475.20000000000005</ele><time>2026-04-26T09:11:17.729Z</time></trkpt><trkpt lat="42.8740517" lon="2.6192483"><ele>475.6</ele><time>2026-04-26T09:11:18.728Z</time></trkpt><trkpt lat="42.8741233" lon="2.6192433"><ele>476.0</ele><time>2026-04-26T09:11:19.729Z</time></trkpt><trkpt lat="42.8741967" lon="2.619215"><ele>475.99999999999994</ele><time>2026-04-26T09:11:20.728Z</time></trkpt><trkpt lat="42.87427" lon="2.6191717"><ele>476.0</ele><time>2026-04-26T09:11:21.729Z</time></trkpt><trkpt lat="42.8743433" lon="2.6191033"><ele>476.0</ele><time>2026-04-26T09:11:22.728Z</time></trkpt><trkpt lat="42.874415" lon="2.6190367"><ele>476.0</ele><time>2026-04-26T09:11:23.728Z</time></trkpt><trkpt lat="42.8744733" lon="2.6189583"><ele>475.99999999999994</ele><time>2026-04-26T09:11:24.729Z</time></trkpt><trkpt lat="42.8745217" lon="2.6188817"><ele>476.0</ele><time>2026-04-26T09:11:25.728Z</time></trkpt><trkpt lat="42.874565" lon="2.6187983"><ele>473.99999999999994</ele><time>2026-04-26T09:11:26.727Z</time></trkpt><trkpt lat="42.874605" lon="2.6187083"><ele>472.0</ele><time>2026-04-26T09:11:27.729Z</time></trkpt><trkpt lat="42.874645" lon="2.6186133"><ele>470.0</ele><time>2026-04-26T09:11:28.728Z</time></trkpt><trkpt lat="42.874685" lon="2.618515"><ele>468.0</ele><time>2026-04-26T09:11:29.729Z</time></trkpt><trkpt lat="42.8747283" lon="2.61841"><ele>465.99999999999994</ele><time>2026-04-26T09:11:30.727Z</time></trkpt><trkpt lat="42.8747717" lon="2.6182983"><ele>464.0</ele><time>2026-04-26T09:11:31.729Z</time></trkpt><trkpt lat="42.8748117" lon="2.6181833"><ele>468.79999999999995</ele><time>2026-04-26T09:11:32.729Z</time></trkpt><trkpt lat="42.8748483" lon="2.6180717"><ele>473.59999999999997</ele><time>2026-04-26T09:11:33.728Z</time></trkpt><trkpt lat="42.87489" lon="2.6179517"><ele>478.4</ele><time>2026-04-26T09:11:34.727Z</time></trkpt><trkpt lat="42.8749367" lon="2.6178217"><ele>483.2</ele><time>2026-04-26T09:11:35.734Z</time></trkpt><trkpt lat="42.8749833" lon="2.617685"><ele>488.0</ele><time>2026-04-26T09:11:36.728Z</time></trkpt><trkpt lat="42.8750283" lon="2.61754"><ele>490.5</ele><time>2026-04-26T09:11:37.729Z</time></trkpt><trkpt lat="42.8750767" lon="2.6173933"><ele>493.0</ele><time>2026-04-26T09:11:38.729Z</time></trkpt><trkpt lat="42.8751283" lon="2.617245"><ele>495.5</ele><time>2026-04-26T09:11:39.729Z</time></trkpt><trkpt lat="42.8751867" lon="2.6171"><ele>498.0</ele><time>2026-04-26T09:11:40.73Z</time></trkpt><trkpt lat="42.87524" lon="2.6169517"><ele>500.59999999999997</ele><time>2026-04-26T09:11:41.729Z</time></trkpt><trkpt lat="42.87529" lon="2.6168117"><ele>503.19999999999993</ele><time>2026-04-26T09:11:42.728Z</time></trkpt><trkpt lat="42.875345" lon="2.6166833"><ele>505.8</ele><time>2026-04-26T09:11:43.729Z</time></trkpt><trkpt lat="42.8753983" lon="2.6165733"><ele>508.4</ele><time>2026-04-26T09:11:44.731Z</time></trkpt><trkpt lat="42.8754367" lon="2.6164683"><ele>511.0</ele><time>2026-04-26T09:11:45.73Z</time></trkpt><trkpt lat="42.8754717" lon="2.61637"><ele>511.0</ele><time>2026-04-26T09:11:46.73Z</time></trkpt><trkpt lat="42.8755017" lon="2.61626"><ele>511.0</ele><time>2026-04-26T09:11:47.728Z</time></trkpt><trkpt lat="42.87554" lon="2.6161383"><ele>511.0</ele><time>2026-04-26T09:11:48.728Z</time></trkpt><trkpt lat="42.8755717" lon="2.6160067"><ele>511.0</ele><time>2026-04-26T09:11:49.729Z</time></trkpt><trkpt lat="42.87561" lon="2.6158917"><ele>511.0</ele><time>2026-04-26T09:11:50.728Z</time></trkpt><trkpt lat="42.8756733" lon="2.6158"><ele>514.4</ele><time>2026-04-26T09:11:51.728Z</time></trkpt><trkpt lat="42.8757633" lon="2.6157317"><ele>517.8</ele><time>2026-04-26T09:11:52.73Z</time></trkpt><trkpt lat="42.8758567" lon="2.61566"><ele>521.1999999999999</ele><time>2026-04-26T09:11:53.73Z</time></trkpt><trkpt lat="42.8759567" lon="2.6155933"><ele>524.6</ele><time>2026-04-26T09:11:54.727Z</time></trkpt><trkpt lat="42.876055" lon="2.615535"><ele>528.0</ele><time>2026-04-26T09:11:55.729Z</time></trkpt><trkpt lat="42.8761483" lon="2.6154867"><ele>528.0</ele><time>2026-04-26T09:11:56.729Z</time></trkpt><trkpt lat="42.876225" lon="2.6154467"><ele>528.0</ele><time>2026-04-26T09:11:57.732Z</time></trkpt><trkpt lat="42.8762867" lon="2.6154117"><ele>528.0</ele><time>2026-04-26T09:11:58.728Z</time></trkpt><trkpt lat="42.87637" lon="2.6153"><ele>528.0</ele><time>2026-04-26T09:12:00.731Z</time></trkpt><trkpt lat="42.876415" lon="2.6151583"><ele>528.0</ele><time>2026-04-26T09:12:02.728Z</time></trkpt><trkpt lat="42.8764267" lon="2.61506"><ele>530.3333333333334</ele><time>2026-04-26T09:12:03.73Z</time></trkpt><trkpt lat="42.8764433" lon="2.6149633"><ele>532.6666666666666</ele><time>2026-04-26T09:12:04.728Z</time></trkpt><trkpt lat="42.8764583" lon="2.61487"><ele>535.0</ele><time>2026-04-26T09:12:05.729Z</time></trkpt><trkpt lat="42.876495" lon="2.6147833"><ele>537.3333333333333</ele><time>2026-04-26T09:12:06.728Z</time></trkpt><trkpt lat="42.8765433" lon="2.6146883"><ele>539.6666666666666</ele><time>2026-04-26T09:12:07.73Z</time></trkpt><trkpt lat="42.8766083" lon="2.6145917"><ele>542.0</ele><time>2026-04-26T09:12:08.728Z</time></trkpt><trkpt lat="42.8766783" lon="2.614485"><ele>543.0</ele><time>2026-04-26T09:12:09.73Z</time></trkpt><trkpt lat="42.8767467" lon="2.6143783"><ele>544.0</ele><time>2026-04-26T09:12:10.727Z</time></trkpt><trkpt lat="42.8768083" lon="2.6142717"><ele>545.0</ele><time>2026-04-26T09:12:11.729Z</time></trkpt><trkpt lat="42.8768567" lon="2.614155"><ele>546.0</ele><time>2026-04-26T09:12:12.728Z</time></trkpt><trkpt lat="42.876895" lon="2.6140283"><ele>547.0</ele><time>2026-04-26T09:12:13.727Z</time></trkpt><trkpt lat="42.8769283" lon="2.6138933"><ele>547.0</ele><time>2026-04-26T09:12:14.729Z</time></trkpt><trkpt lat="42.8769583" lon="2.613755"><ele>547.0</ele><time>2026-04-26T09:12:15.727Z</time></trkpt><trkpt lat="42.8769983" lon="2.61362"><ele>547.0</ele><time>2026-04-26T09:12:16.727Z</time></trkpt><trkpt lat="42.8770383" lon="2.6134983"><ele>547.0</ele><time>2026-04-26T09:12:17.729Z</time></trkpt><trkpt lat="42.8770867" lon="2.6134"><ele>547.0</ele><time>2026-04-26T09:12:18.729Z</time></trkpt><trkpt lat="42.8771383" lon="2.6133133"><ele>548.8000000000001</ele><time>2026-04-26T09:12:19.73Z</time></trkpt><trkpt lat="42.8771967" lon="2.613235"><ele>550.6</ele><time>2026-04-26T09:12:20.73Z</time></trkpt><trkpt lat="42.8772583" lon="2.61315"><ele>552.4000000000001</ele><time>2026-04-26T09:12:21.73Z</time></trkpt><trkpt lat="42.8773133" lon="2.6130467"><ele>554.2</ele><time>2026-04-26T09:12:22.728Z</time></trkpt><trkpt lat="42.8773667" lon="2.6129283"><ele>556.0</ele><time>2026-04-26T09:12:23.729Z</time></trkpt><trkpt lat="42.8774183" lon="2.6128"><ele>557.8333333333334</ele><time>2026-04-26T09:12:24.728Z</time></trkpt><trkpt lat="42.877475" lon="2.6126817"><ele>559.6666666666667</ele><time>2026-04-26T09:12:25.73Z</time></trkpt><trkpt lat="42.8775367" lon="2.6125983"><ele>561.5</ele><time>2026-04-26T09:12:26.729Z</time></trkpt><trkpt lat="42.8775983" lon="2.6125433"><ele>563.3333333333334</ele><time>2026-04-26T09:12:27.727Z</time></trkpt><trkpt lat="42.8776633" lon="2.6125083"><ele>565.1666666666666</ele><time>2026-04-26T09:12:28.728Z</time></trkpt><trkpt lat="42.8777383" lon="2.612485"><ele>567.0</ele><time>2026-04-26T09:12:29.728Z</time></trkpt><trkpt lat="42.8778217" lon="2.6124617"><ele>567.0</ele><time>2026-04-26T09:12:30.727Z</time></trkpt><trkpt lat="42.8779083" lon="2.6124433"><ele>567.0</ele><time>2026-04-26T09:12:31.728Z</time></trkpt><trkpt lat="42.8779983" lon="2.6124333"><ele>567.0</ele><time>2026-04-26T09:12:32.727Z</time></trkpt><trkpt lat="42.87809" lon="2.612425"><ele>567.0</ele><time>2026-04-26T09:12:33.731Z</time></trkpt><trkpt lat="42.87818" lon="2.6124183"><ele>567.0</ele><time>2026-04-26T09:12:34.728Z</time></trkpt><trkpt lat="42.8782683" lon="2.6124133"><ele>567.0</ele><time>2026-04-26T09:12:35.728Z</time></trkpt><trkpt lat="42.8783467" lon="2.6124017"><ele>569.4</ele><time>2026-04-26T09:12:36.728Z</time></trkpt><trkpt lat="42.8784517" lon="2.6123933"><ele>571.8000000000001</ele><time>2026-04-26T09:12:38.73Z</time></trkpt><trkpt lat="42.8785267" lon="2.61237"><ele>574.2</ele><time>2026-04-26T09:12:40.727Z</time></trkpt><trkpt lat="42.8786217" lon="2.6123217"><ele>576.6</ele><time>2026-04-26T09:12:42.728Z</time></trkpt><trkpt lat="42.87874" lon="2.6122867"><ele>579.0</ele><time>2026-04-26T09:12:44.729Z</time></trkpt><trkpt lat="42.8788067" lon="2.6122767"><ele>579.0</ele><time>2026-04-26T09:12:45.727Z</time></trkpt><trkpt lat="42.8788817" lon="2.61227"><ele>579.0</ele><time>2026-04-26T09:12:46.728Z</time></trkpt><trkpt lat="42.8789583" lon="2.6122517"><ele>579.0</ele><time>2026-04-26T09:12:47.729Z</time></trkpt><trkpt lat="42.879045" lon="2.6122233"><ele>579.0</ele><time>2026-04-26T09:12:48.728Z</time></trkpt><trkpt lat="42.879135" lon="2.6121983"><ele>579.0</ele><time>2026-04-26T09:12:49.729Z</time></trkpt><trkpt lat="42.8792233" lon="2.61219"><ele>579.0</ele><time>2026-04-26T09:12:50.729Z</time></trkpt><trkpt lat="42.8793133" lon="2.6121883"><ele>582.0</ele><time>2026-04-26T09:12:51.728Z</time></trkpt><trkpt lat="42.8793933" lon="2.6121883"><ele>585.0</ele><time>2026-04-26T09:12:52.727Z</time></trkpt><trkpt lat="42.87947" lon="2.6121883"><ele>588.0</ele><time>2026-04-26T09:12:53.729Z</time></trkpt><trkpt lat="42.87955" lon="2.6121817"><ele>591.0</ele><time>2026-04-26T09:12:54.728Z</time></trkpt><trkpt lat="42.8796383" lon="2.6121617"><ele>594.0</ele><time>2026-04-26T09:12:55.727Z</time></trkpt><trkpt lat="42.8797133" lon="2.6121317"><ele>597.0</ele><time>2026-04-26T09:12:56.728Z</time></trkpt><trkpt lat="42.8797717" lon="2.6120867"><ele>597.0</ele><time>2026-04-26T09:12:57.727Z</time></trkpt><trkpt lat="42.8798033" lon="2.61201"><ele>597.0</ele><time>2026-04-26T09:12:58.727Z</time></trkpt><trkpt lat="42.8798133" lon="2.6119183"><ele>597.0</ele><time>2026-04-26T09:12:59.729Z</time></trkpt><trkpt lat="42.8798167" lon="2.6118267"><ele>597.0</ele><time>2026-04-26T09:13:00.728Z</time></trkpt><trkpt lat="42.8798317" lon="2.6116783"><ele>597.0</ele><time>2026-04-26T09:13:02.728Z</time></trkpt><trkpt lat="42.8798983" lon="2.611555"><ele>597.0</ele><time>2026-04-26T09:13:04.728Z</time></trkpt><trkpt lat="42.879955" lon="2.6114967"><ele>598.0</ele><time>2026-04-26T09:13:05.729Z</time></trkpt><trkpt lat="42.8800167" lon="2.6114383"><ele>599.0</ele><time>2026-04-26T09:13:06.728Z</time></trkpt><trkpt lat="42.880085" lon="2.6113917"><ele>600.0</ele><time>2026-04-26T09:13:07.73Z</time></trkpt><trkpt lat="42.880165" lon="2.6113617"><ele>601.0</ele><time>2026-04-26T09:13:08.728Z</time></trkpt><trkpt lat="42.8802517" lon="2.6113333"><ele>602.0</ele><time>2026-04-26T09:13:09.728Z</time></trkpt><trkpt lat="42.8803383" lon="2.611325"><ele>603.0</ele><time>2026-04-26T09:13:10.729Z</time></trkpt><trkpt lat="42.8804233" lon="2.6113233"><ele>606.1666666666666</ele><time>2026-04-26T09:13:11.728Z</time></trkpt><trkpt lat="42.880505" lon="2.611315"><ele>609.3333333333334</ele><time>2026-04-26T09:13:12.73Z</time></trkpt><trkpt lat="42.880585" lon="2.611375"><ele>612.5</ele><time>2026-04-26T09:13:13.727Z</time></trkpt><trkpt lat="42.880665" lon="2.6114467"><ele>615.6666666666667</ele><time>2026-04-26T09:13:14.73Z</time></trkpt><trkpt lat="42.8807367" lon="2.611505"><ele>618.8333333333334</ele><time>2026-04-26T09:13:15.729Z</time></trkpt><trkpt lat="42.88081" lon="2.61155"><ele>622.0</ele><time>2026-04-26T09:13:16.727Z</time></trkpt><trkpt lat="42.8808717" lon="2.6115817"><ele>622.6666666666667</ele><time>2026-04-26T09:13:17.735Z</time></trkpt><trkpt lat="42.880935" lon="2.6116033"><ele>623.3333333333334</ele><time>2026-04-26T09:13:18.729Z</time></trkpt><trkpt lat="42.88105" lon="2.61162"><ele>624.0</ele><time>2026-04-26T09:13:20.729Z</time></trkpt><trkpt lat="42.8811117" lon="2.6115933"><ele>624.6666666666666</ele><time>2026-04-26T09:13:21.729Z</time></trkpt><trkpt lat="42.881175" lon="2.61157"><ele>625.3333333333333</ele><time>2026-04-26T09:13:22.728Z</time></trkpt><trkpt lat="42.8812433" lon="2.6115267"><ele>626.0</ele><time>2026-04-26T09:13:23.729Z</time></trkpt><trkpt lat="42.8813017" lon="2.61148"><ele>626.0</ele><time>2026-04-26T09:13:24.728Z</time></trkpt><trkpt lat="42.8813533" lon="2.6114217"><ele>626.0</ele><time>2026-04-26T09:13:25.727Z</time></trkpt><trkpt lat="42.8813983" lon="2.6112633"><ele>626.0</ele><time>2026-04-26T09:13:27.729Z</time></trkpt><trkpt lat="42.8813933" lon="2.6111467"><ele>626.0</ele><time>2026-04-26T09:13:28.73Z</time></trkpt><trkpt lat="42.88138" lon="2.611005"><ele>626.0</ele><time>2026-04-26T09:13:29.728Z</time></trkpt><trkpt lat="42.8813667" lon="2.61087"><ele>628.4</ele><time>2026-04-26T09:13:30.727Z</time></trkpt><trkpt lat="42.881355" lon="2.6107483"><ele>630.8</ele><time>2026-04-26T09:13:31.727Z</time></trkpt><trkpt lat="42.8813383" lon="2.6106217"><ele>633.1999999999999</ele><time>2026-04-26T09:13:32.73Z</time></trkpt><trkpt lat="42.8813267" lon="2.6105083"><ele>635.6</ele><time>2026-04-26T09:13:33.729Z</time></trkpt><trkpt lat="42.8813183" lon="2.6104083"><ele>638.0</ele><time>2026-04-26T09:13:34.727Z</time></trkpt><trkpt lat="42.8813517" lon="2.6102533"><ele>640.5999999999999</ele><time>2026-04-26T09:13:36.728Z</time></trkpt><trkpt lat="42.8814333" lon="2.6101283"><ele>643.1999999999999</ele><time>2026-04-26T09:13:38.728Z</time></trkpt><trkpt lat="42.8814883" lon="2.610075"><ele>645.8</ele><time>2026-04-26T09:13:39.727Z</time></trkpt><trkpt lat="42.88154" lon="2.610015"><ele>648.4</ele><time>2026-04-26T09:13:40.728Z</time></trkpt><trkpt lat="42.8816133" lon="2.6098833"><ele>651.0</ele><time>2026-04-26T09:13:42.728Z</time></trkpt><trkpt lat="42.8817017" lon="2.6097683"><ele>651.0</ele><time>2026-04-26T09:13:44.729Z</time></trkpt><trkpt lat="42.8817533" lon="2.609715"><ele>651.0</ele><time>2026-04-26T09:13:45.727Z</time></trkpt><trkpt lat="42.8818067" lon="2.6096633"><ele>651.0</ele><time>2026-04-26T09:13:46.728Z</time></trkpt><trkpt lat="42.881855" lon="2.6095983"><ele>651.0</ele><time>2026-04-26T09:13:47.728Z</time></trkpt><trkpt lat="42.881905" lon="2.609525"><ele>651.0</ele><time>2026-04-26T09:13:48.728Z</time></trkpt><trkpt lat="42.8819583" lon="2.6094567"><ele>651.0</ele><time>2026-04-26T09:13:49.727Z</time></trkpt><trkpt lat="42.88201" lon="2.6093917"><ele>651.0</ele><time>2026-04-26T09:13:50.729Z</time></trkpt><trkpt lat="42.8820583" lon="2.6093133"><ele>653.4285714285714</ele><time>2026-04-26T09:13:51.729Z</time></trkpt><trkpt lat="42.8821017" lon="2.60924"><ele>655.8571428571429</ele><time>2026-04-26T09:13:52.729Z</time></trkpt><trkpt lat="42.8821483" lon="2.60917"><ele>658.2857142857142</ele><time>2026-04-26T09:13:53.727Z</time></trkpt><trkpt lat="42.88219" lon="2.6090983"><ele>660.7142857142858</ele><time>2026-04-26T09:13:54.728Z</time></trkpt><trkpt lat="42.8822317" lon="2.6090133"><ele>663.1428571428571</ele><time>2026-04-26T09:13:55.727Z</time></trkpt><trkpt lat="42.8822633" lon="2.608925"><ele>665.5714285714286</ele><time>2026-04-26T09:13:56.729Z</time></trkpt><trkpt lat="42.8822967" lon="2.6088233"><ele>668.0</ele><time>2026-04-26T09:13:57.727Z</time></trkpt><trkpt lat="42.8823233" lon="2.6087117"><ele>669.0</ele><time>2026-04-26T09:13:58.728Z</time></trkpt><trkpt lat="42.8823433" lon="2.6085933"><ele>670.0</ele><time>2026-04-26T09:13:59.73Z</time></trkpt><trkpt lat="42.882355" lon="2.60847"><ele>671.0</ele><time>2026-04-26T09:14:00.733Z</time></trkpt><trkpt lat="42.8823667" lon="2.6083617"><ele>672.0</ele><time>2026-04-26T09:14:01.728Z</time></trkpt><trkpt lat="42.88242" lon="2.6082383"><ele>673.0</ele><time>2026-04-26T09:14:03.729Z</time></trkpt><trkpt lat="42.8825167" lon="2.6082017"><ele>672.2</ele><time>2026-04-26T09:14:05.727Z</time></trkpt><trkpt lat="42.88262" lon="2.60825"><ele>671.4</ele><time>2026-04-26T09:14:07.729Z</time></trkpt><trkpt lat="42.8827283" lon="2.6083267"><ele>670.6</ele><time>2026-04-26T09:14:09.728Z</time></trkpt><trkpt lat="42.8827867" lon="2.608385"><ele>669.8000000000001</ele><time>2026-04-26T09:14:10.727Z</time></trkpt><trkpt lat="42.8828433" lon="2.6084567"><ele>669.0</ele><time>2026-04-26T09:14:11.729Z</time></trkpt><trkpt lat="42.8829017" lon="2.6085283"><ele>669.0</ele><time>2026-04-26T09:14:12.728Z</time></trkpt><trkpt lat="42.88296" lon="2.6086"><ele>669.0</ele><time>2026-04-26T09:14:13.728Z</time></trkpt><trkpt lat="42.8830267" lon="2.6086717"><ele>669.0</ele><time>2026-04-26T09:14:14.728Z</time></trkpt><trkpt lat="42.88309" lon="2.6087417"><ele>669.0</ele><time>2026-04-26T09:14:15.73Z</time></trkpt><trkpt lat="42.8831633" lon="2.6088133"><ele>669.0</ele><time>2026-04-26T09:14:16.727Z</time></trkpt><trkpt lat="42.8832483" lon="2.6088633"><ele>669.0</ele><time>2026-04-26T09:14:17.728Z</time></trkpt><trkpt lat="42.8833233" lon="2.6089033"><ele>669.1666666666666</ele><time>2026-04-26T09:14:18.728Z</time></trkpt><trkpt lat="42.88339" lon="2.60895"><ele>669.3333333333334</ele><time>2026-04-26T09:14:19.731Z</time></trkpt><trkpt lat="42.883445" lon="2.6090167"><ele>669.5</ele><time>2026-04-26T09:14:20.728Z</time></trkpt><trkpt lat="42.8834883" lon="2.6091067"><ele>669.6666666666667</ele><time>2026-04-26T09:14:21.729Z</time></trkpt><trkpt lat="42.8835117" lon="2.609215"><ele>669.8333333333334</ele><time>2026-04-26T09:14:22.728Z</time></trkpt><trkpt lat="42.88353" lon="2.6093283"><ele>670.0</ele><time>2026-04-26T09:14:23.73Z</time></trkpt><trkpt lat="42.8835583" lon="2.60944"><ele>669.3333333333334</ele><time>2026-04-26T09:14:24.727Z</time></trkpt><trkpt lat="42.88359" lon="2.6095467"><ele>668.6666666666667</ele><time>2026-04-26T09:14:25.728Z</time></trkpt><trkpt lat="42.8836233" lon="2.609645"><ele>668.0</ele><time>2026-04-26T09:14:26.728Z</time></trkpt><trkpt lat="42.88366" lon="2.6097317"><ele>667.3333333333334</ele><time>2026-04-26T09:14:27.729Z</time></trkpt><trkpt lat="42.8837033" lon="2.6098033"><ele>666.6666666666666</ele><time>2026-04-26T09:14:28.727Z</time></trkpt><trkpt lat="42.8837567" lon="2.6098567"><ele>666.0</ele><time>2026-04-26T09:14:29.729Z</time></trkpt><trkpt lat="42.8838267" lon="2.60991"><ele>666.0</ele><time>2026-04-26T09:14:30.727Z</time></trkpt><trkpt lat="42.883905" lon="2.6099683"><ele>666.0</ele><time>2026-04-26T09:14:31.729Z</time></trkpt><trkpt lat="42.8839817" lon="2.610025"><ele>666.0</ele><time>2026-04-26T09:14:32.728Z</time></trkpt><trkpt lat="42.8840517" lon="2.6100833"><ele>666.0</ele><time>2026-04-26T09:14:33.73Z</time></trkpt><trkpt lat="42.8841167" lon="2.6101567"><ele>666.0</ele><time>2026-04-26T09:14:34.731Z</time></trkpt><trkpt lat="42.88418" lon="2.61024"><ele>666.0</ele><time>2026-04-26T09:14:35.73Z</time></trkpt><trkpt lat="42.8842367" lon="2.610335"><ele>665.1666666666666</ele><time>2026-04-26T09:14:36.731Z</time></trkpt><trkpt lat="42.8842883" lon="2.6104417"><ele>664.3333333333334</ele><time>2026-04-26T09:14:37.73Z</time></trkpt><trkpt lat="42.88434" lon="2.6105317"><ele>663.5</ele><time>2026-04-26T09:14:38.728Z</time></trkpt><trkpt lat="42.8843967" lon="2.6106017"><ele>662.6666666666667</ele><time>2026-04-26T09:14:39.728Z</time></trkpt><trkpt lat="42.8844567" lon="2.6106533"><ele>661.8333333333334</ele><time>2026-04-26T09:14:40.727Z</time></trkpt><trkpt lat="42.8845217" lon="2.610695"><ele>661.0</ele><time>2026-04-26T09:14:41.728Z</time></trkpt><trkpt lat="42.8845867" lon="2.6107383"><ele>661.0</ele><time>2026-04-26T09:14:42.729Z</time></trkpt><trkpt lat="42.8846583" lon="2.6107617"><ele>661.0</ele><time>2026-04-26T09:14:43.728Z</time></trkpt><trkpt lat="42.8847333" lon="2.6107633"><ele>661.0</ele><time>2026-04-26T09:14:44.728Z</time></trkpt><trkpt lat="42.8848133" lon="2.6107317"><ele>661.0</ele><time>2026-04-26T09:14:45.73Z</time></trkpt><trkpt lat="42.8848933" lon="2.6106917"><ele>661.0</ele><time>2026-04-26T09:14:46.729Z</time></trkpt><trkpt lat="42.8849783" lon="2.6106467"><ele>661.0</ele><time>2026-04-26T09:14:47.729Z</time></trkpt><trkpt lat="42.88506" lon="2.6106067"><ele>660.6666666666667</ele><time>2026-04-26T09:14:48.73Z</time></trkpt><trkpt lat="42.885135" lon="2.6105767"><ele>660.3333333333334</ele><time>2026-04-26T09:14:49.728Z</time></trkpt><trkpt lat="42.8852133" lon="2.610575"><ele>660.0</ele><time>2026-04-26T09:14:50.73Z</time></trkpt><trkpt lat="42.8852883" lon="2.610605"><ele>659.6666666666666</ele><time>2026-04-26T09:14:51.729Z</time></trkpt><trkpt lat="42.8853683" lon="2.6106333"><ele>659.3333333333333</ele><time>2026-04-26T09:14:52.729Z</time></trkpt><trkpt lat="42.88545" lon="2.6106533"><ele>659.0</ele><time>2026-04-26T09:14:53.731Z</time></trkpt><trkpt lat="42.88553" lon="2.6106467"><ele>659.0</ele><time>2026-04-26T09:14:54.731Z</time></trkpt><trkpt lat="42.8856167" lon="2.610615"><ele>659.0</ele><time>2026-04-26T09:14:55.728Z</time></trkpt><trkpt lat="42.8857" lon="2.6105633"><ele>659.0</ele><time>2026-04-26T09:14:56.731Z</time></trkpt><trkpt lat="42.8857783" lon="2.6105083"><ele>659.0</ele><time>2026-04-26T09:14:57.729Z</time></trkpt><trkpt lat="42.8858467" lon="2.6104583"><ele>659.0</ele><time>2026-04-26T09:14:58.729Z</time></trkpt><trkpt lat="42.885915" lon="2.6104133"><ele>659.0</ele><time>2026-04-26T09:14:59.729Z</time></trkpt><trkpt lat="42.8859817" lon="2.61038"><ele>658.0</ele><time>2026-04-26T09:15:00.727Z</time></trkpt><trkpt lat="42.8860483" lon="2.6103717"><ele>657.0</ele><time>2026-04-26T09:15:01.73Z</time></trkpt><trkpt lat="42.8861183" lon="2.6103867"><ele>656.0</ele><time>2026-04-26T09:15:02.728Z</time></trkpt><trkpt lat="42.8861933" lon="2.6104267"><ele>655.0</ele><time>2026-04-26T09:15:03.731Z</time></trkpt><trkpt lat="42.886275" lon="2.6104567"><ele>654.0</ele><time>2026-04-26T09:15:04.731Z</time></trkpt><trkpt lat="42.8863583" lon="2.6104733"><ele>653.0</ele><time>2026-04-26T09:15:05.729Z</time></trkpt><trkpt lat="42.8864417" lon="2.6104833"><ele>653.0</ele><time>2026-04-26T09:15:06.73Z</time></trkpt><trkpt lat="42.88653" lon="2.61049"><ele>653.0</ele><time>2026-04-26T09:15:07.731Z</time></trkpt><trkpt lat="42.8866183" lon="2.6104933"><ele>653.0</ele><time>2026-04-26T09:15:08.729Z</time></trkpt><trkpt lat="42.8867133" lon="2.61051"><ele>653.0</ele><time>2026-04-26T09:15:09.732Z</time></trkpt><trkpt lat="42.8868133" lon="2.6105367"><ele>653.0</ele><time>2026-04-26T09:15:10.727Z</time></trkpt><trkpt lat="42.8869083" lon="2.6105617"><ele>651.2857142857143</ele><time>2026-04-26T09:15:11.728Z</time></trkpt><trkpt lat="42.8869933" lon="2.61058"><ele>649.5714285714286</ele><time>2026-04-26T09:15:12.729Z</time></trkpt><trkpt lat="42.887075" lon="2.610585"><ele>647.8571428571429</ele><time>2026-04-26T09:15:13.731Z</time></trkpt><trkpt lat="42.8871483" lon="2.6106067"><ele>646.1428571428571</ele><time>2026-04-26T09:15:14.729Z</time></trkpt><trkpt lat="42.8872083" lon="2.6106433"><ele>644.4285714285714</ele><time>2026-04-26T09:15:15.728Z</time></trkpt><trkpt lat="42.8872667" lon="2.6106833"><ele>642.7142857142858</ele><time>2026-04-26T09:15:16.728Z</time></trkpt><trkpt lat="42.8873233" lon="2.6107233"><ele>641.0</ele><time>2026-04-26T09:15:17.728Z</time></trkpt><trkpt lat="42.8874433" lon="2.6107633"><ele>641.0</ele><time>2026-04-26T09:15:19.73Z</time></trkpt><trkpt lat="42.887545" lon="2.610755"><ele>641.0</ele><time>2026-04-26T09:15:21.731Z</time></trkpt><trkpt lat="42.887625" lon="2.6107133"><ele>641.0</ele><time>2026-04-26T09:15:23.73Z</time></trkpt><trkpt lat="42.887695" lon="2.6106617"><ele>641.0</ele><time>2026-04-26T09:15:25.73Z</time></trkpt><trkpt lat="42.8877717" lon="2.6106283"><ele>641.0</ele><time>2026-04-26T09:15:27.73Z</time></trkpt><trkpt lat="42.8878717" lon="2.6106417"><ele>641.0</ele><time>2026-04-26T09:15:29.731Z</time></trkpt><trkpt lat="42.8879667" lon="2.6106767"><ele>637.5999999999999</ele><time>2026-04-26T09:15:31.732Z</time></trkpt><trkpt lat="42.8880517" lon="2.6107283"><ele>634.1999999999999</ele><time>2026-04-26T09:15:33.73Z</time></trkpt><trkpt lat="42.888165" lon="2.6107517"><ele>630.8</ele><time>2026-04-26T09:15:35.729Z</time></trkpt><trkpt lat="42.8882333" lon="2.6107483"><ele>627.4</ele><time>2026-04-26T09:15:36.727Z</time></trkpt><trkpt lat="42.8883533" lon="2.6107467"><ele>624.0</ele><time>2026-04-26T09:15:38.73Z</time></trkpt><trkpt lat="42.8884583" lon="2.61078"><ele>619.6</ele><time>2026-04-26T09:15:40.732Z</time></trkpt><trkpt lat="42.8885567" lon="2.610845"><ele>615.2</ele><time>2026-04-26T09:15:42.729Z</time></trkpt><trkpt lat="42.8886133" lon="2.610895"><ele>610.8000000000001</ele><time>2026-04-26T09:15:43.731Z</time></trkpt><trkpt lat="42.8886683" lon="2.6109433"><ele>606.4</ele><time>2026-04-26T09:15:44.729Z</time></trkpt><trkpt lat="42.8887683" lon="2.6110217"><ele>602.0</ele><time>2026-04-26T09:15:46.728Z</time></trkpt><trkpt lat="42.8888467" lon="2.6110883"><ele>602.0</ele><time>2026-04-26T09:15:48.728Z</time></trkpt><trkpt lat="42.8889133" lon="2.6111233"><ele>602.0</ele><time>2026-04-26T09:15:50.729Z</time></trkpt><trkpt lat="42.8889833" lon="2.6111083"><ele>602.0</ele><time>2026-04-26T09:15:52.73Z</time></trkpt><trkpt lat="42.8890717" lon="2.611035"><ele>602.0</ele><time>2026-04-26T09:15:54.729Z</time></trkpt><trkpt lat="42.889165" lon="2.6109617"><ele>602.0</ele><time>2026-04-26T09:15:56.728Z</time></trkpt><trkpt lat="42.88927" lon="2.61089"><ele>599.1428571428571</ele><time>2026-04-26T09:15:58.728Z</time></trkpt><trkpt lat="42.8893317" lon="2.61085"><ele>596.2857142857142</ele><time>2026-04-26T09:15:59.73Z</time></trkpt><trkpt lat="42.8893933" lon="2.6108067"><ele>593.4285714285714</ele><time>2026-04-26T09:16:00.73Z</time></trkpt><trkpt lat="42.88946" lon="2.610765"><ele>590.5714285714286</ele><time>2026-04-26T09:16:01.731Z</time></trkpt><trkpt lat="42.8895283" lon="2.6107267"><ele>587.7142857142857</ele><time>2026-04-26T09:16:02.731Z</time></trkpt><trkpt lat="42.8896017" lon="2.610685"><ele>584.8571428571429</ele><time>2026-04-26T09:16:03.729Z</time></trkpt><trkpt lat="42.8896767" lon="2.610645"><ele>582.0</ele><time>2026-04-26T09:16:04.727Z</time></trkpt><trkpt lat="42.8897483" lon="2.610605"><ele>582.0</ele><time>2026-04-26T09:16:05.729Z</time></trkpt><trkpt lat="42.8898217" lon="2.6105667"><ele>582.0</ele><time>2026-04-26T09:16:06.729Z</time></trkpt><trkpt lat="42.8898967" lon="2.6105217"><ele>582.0</ele><time>2026-04-26T09:16:07.73Z</time></trkpt><trkpt lat="42.8899683" lon="2.6104783"><ele>582.0</ele><time>2026-04-26T09:16:08.729Z</time></trkpt><trkpt lat="42.8900317" lon="2.6104383"><ele>582.0</ele><time>2026-04-26T09:16:09.73Z</time></trkpt><trkpt lat="42.89009" lon="2.610405"><ele>582.0</ele><time>2026-04-26T09:16:10.729Z</time></trkpt><trkpt lat="42.8902083" lon="2.6103467"><ele>578.0</ele><time>2026-04-26T09:16:12.728Z</time></trkpt><trkpt lat="42.8903033" lon="2.61025"><ele>574.0</ele><time>2026-04-26T09:16:14.732Z</time></trkpt><trkpt lat="42.8903483" lon="2.6101467"><ele>570.0</ele><time>2026-04-26T09:16:15.73Z</time></trkpt><trkpt lat="42.890395" lon="2.6100533"><ele>566.0</ele><time>2026-04-26T09:16:16.729Z</time></trkpt><trkpt lat="42.89044" lon="2.6099483"><ele>562.0</ele><time>2026-04-26T09:16:17.731Z</time></trkpt><trkpt lat="42.8904867" lon="2.6098517"><ele>562.0000000000001</ele><time>2026-04-26T09:16:18.727Z</time></trkpt><trkpt lat="42.8905267" lon="2.6097633"><ele>562.0</ele><time>2026-04-26T09:16:19.728Z</time></trkpt><trkpt lat="42.89056" lon="2.6096783"><ele>562.0</ele><time>2026-04-26T09:16:20.728Z</time></trkpt><trkpt lat="42.89059" lon="2.6096017"><ele>562.0</ele><time>2026-04-26T09:16:21.728Z</time></trkpt><trkpt lat="42.89063" lon="2.60953"><ele>562.0</ele><time>2026-04-26T09:16:22.73Z</time></trkpt><trkpt lat="42.89068" lon="2.6094667"><ele>562.0000000000001</ele><time>2026-04-26T09:16:23.729Z</time></trkpt><trkpt lat="42.8907317" lon="2.6094067"><ele>562.0</ele><time>2026-04-26T09:16:24.729Z</time></trkpt><trkpt lat="42.8907833" lon="2.6092817"><ele>562.6666666666667</ele><time>2026-04-26T09:16:26.73Z</time></trkpt><trkpt lat="42.89074" lon="2.6091633"><ele>563.3333333333334</ele><time>2026-04-26T09:16:28.727Z</time></trkpt><trkpt lat="42.8906483" lon="2.60914"><ele>564.0</ele><time>2026-04-26T09:16:30.734Z</time></trkpt><trkpt lat="42.8905383" lon="2.6091883"><ele>564.6666666666666</ele><time>2026-04-26T09:16:32.728Z</time></trkpt><trkpt lat="42.890475" lon="2.609175"><ele>565.3333333333333</ele><time>2026-04-26T09:16:33.729Z</time></trkpt><trkpt lat="42.89041" lon="2.6091383"><ele>566.0</ele><time>2026-04-26T09:16:34.728Z</time></trkpt><trkpt lat="42.8903367" lon="2.6090967"><ele>566.0</ele><time>2026-04-26T09:16:35.728Z</time></trkpt><trkpt lat="42.89026" lon="2.609055"><ele>566.0</ele><time>2026-04-26T09:16:36.729Z</time></trkpt><trkpt lat="42.890185" lon="2.6090183"><ele>566.0</ele><time>2026-04-26T09:16:37.729Z</time></trkpt><trkpt lat="42.8901133" lon="2.60899"><ele>566.0</ele><time>2026-04-26T09:16:38.728Z</time></trkpt><trkpt lat="42.8900533" lon="2.60896"><ele>566.0</ele><time>2026-04-26T09:16:39.728Z</time></trkpt><trkpt lat="42.889975" lon="2.6088483"><ele>566.0</ele><time>2026-04-26T09:16:41.728Z</time></trkpt><trkpt lat="42.88995" lon="2.60869"><ele>562.8333333333333</ele><time>2026-04-26T09:16:43.729Z</time></trkpt><trkpt lat="42.8899417" lon="2.6086033"><ele>559.6666666666666</ele><time>2026-04-26T09:16:44.729Z</time></trkpt><trkpt lat="42.889925" lon="2.6085133"><ele>556.5</ele><time>2026-04-26T09:16:45.729Z</time></trkpt><trkpt lat="42.8898583" lon="2.60839"><ele>553.3333333333334</ele><time>2026-04-26T09:16:47.728Z</time></trkpt><trkpt lat="42.8898" lon="2.60835"><ele>550.1666666666667</ele><time>2026-04-26T09:16:48.729Z</time></trkpt><trkpt lat="42.8897433" lon="2.6083067"><ele>547.0</ele><time>2026-04-26T09:16:49.727Z</time></trkpt><trkpt lat="42.8896733" lon="2.6081833"><ele>547.0</ele><time>2026-04-26T09:16:51.728Z</time></trkpt><trkpt lat="42.8896367" lon="2.6080367"><ele>547.0</ele><time>2026-04-26T09:16:53.729Z</time></trkpt><trkpt lat="42.8895717" lon="2.607885"><ele>547.0</ele><time>2026-04-26T09:16:55.728Z</time></trkpt><trkpt lat="42.88954" lon="2.6077967"><ele>547.0</ele><time>2026-04-26T09:16:56.728Z</time></trkpt><trkpt lat="42.8895067" lon="2.6077117"><ele>547.0</ele><time>2026-04-26T09:16:57.727Z</time></trkpt><trkpt lat="42.8894717" lon="2.6076233"><ele>547.1666666666667</ele><time>2026-04-26T09:16:58.73Z</time></trkpt><trkpt lat="42.889435" lon="2.60753"><ele>547.3333333333334</ele><time>2026-04-26T09:16:59.728Z</time></trkpt><trkpt lat="42.8893883" lon="2.6074517"><ele>547.5</ele><time>2026-04-26T09:17:00.727Z</time></trkpt><trkpt lat="42.8893483" lon="2.6073533"><ele>547.6666666666666</ele><time>2026-04-26T09:17:01.728Z</time></trkpt><trkpt lat="42.889305" lon="2.607265"><ele>547.8333333333333</ele><time>2026-04-26T09:17:02.728Z</time></trkpt><trkpt lat="42.8892567" lon="2.6071733"><ele>548.0</ele><time>2026-04-26T09:17:03.727Z</time></trkpt><trkpt lat="42.8891933" lon="2.6070783"><ele>543.0</ele><time>2026-04-26T09:17:04.729Z</time></trkpt><trkpt lat="42.88913" lon="2.6069717"><ele>538.0</ele><time>2026-04-26T09:17:05.728Z</time></trkpt><trkpt lat="42.88906" lon="2.60685"><ele>533.0</ele><time>2026-04-26T09:17:06.73Z</time></trkpt><trkpt lat="42.8890017" lon="2.6067333"><ele>528.0</ele><time>2026-04-26T09:17:07.727Z</time></trkpt><trkpt lat="42.8889533" lon="2.606625"><ele>523.0</ele><time>2026-04-26T09:17:08.728Z</time></trkpt><trkpt lat="42.888905" lon="2.6065217"><ele>523.0</ele><time>2026-04-26T09:17:09.729Z</time></trkpt><trkpt lat="42.8888533" lon="2.6064233"><ele>523.0</ele><time>2026-04-26T09:17:10.728Z</time></trkpt><trkpt lat="42.8888083" lon="2.606325"><ele>523.0</ele><time>2026-04-26T09:17:11.729Z</time></trkpt><trkpt lat="42.8887533" lon="2.6062333"><ele>523.0</ele><time>2026-04-26T09:17:12.727Z</time></trkpt><trkpt lat="42.8886867" lon="2.6061317"><ele>523.0</ele><time>2026-04-26T09:17:13.727Z</time></trkpt><trkpt lat="42.8886233" lon="2.6060283"><ele>522.8</ele><time>2026-04-26T09:17:14.729Z</time></trkpt><trkpt lat="42.888565" lon="2.6059217"><ele>522.5999999999999</ele><time>2026-04-26T09:17:15.732Z</time></trkpt><trkpt lat="42.8885167" lon="2.6058"><ele>522.4000000000001</ele><time>2026-04-26T09:17:16.727Z</time></trkpt><trkpt lat="42.8884783" lon="2.6056717"><ele>522.2</ele><time>2026-04-26T09:17:17.731Z</time></trkpt><trkpt lat="42.888445" lon="2.6055433"><ele>522.0</ele><time>2026-04-26T09:17:18.729Z</time></trkpt><trkpt lat="42.888405" lon="2.6054233"><ele>518.5</ele><time>2026-04-26T09:17:19.729Z</time></trkpt><trkpt lat="42.8883583" lon="2.60531"><ele>515.0</ele><time>2026-04-26T09:17:20.729Z</time></trkpt><trkpt lat="42.8883117" lon="2.6052"><ele>511.5</ele><time>2026-04-26T09:17:21.73Z</time></trkpt><trkpt lat="42.88827" lon="2.6050817"><ele>508.0</ele><time>2026-04-26T09:17:22.728Z</time></trkpt><trkpt lat="42.8882267" lon="2.6049783"><ele>504.5</ele><time>2026-04-26T09:17:23.73Z</time></trkpt><trkpt lat="42.88818" lon="2.604895"><ele>501.0</ele><time>2026-04-26T09:17:24.727Z</time></trkpt><trkpt lat="42.8881367" lon="2.6048217"><ele>501.0</ele><time>2026-04-26T09:17:25.729Z</time></trkpt><trkpt lat="42.8880867" lon="2.6047483"><ele>501.0</ele><time>2026-04-26T09:17:26.727Z</time></trkpt><trkpt lat="42.8880417" lon="2.6046817"><ele>501.0</ele><time>2026-04-26T09:17:27.729Z</time></trkpt><trkpt lat="42.8879983" lon="2.604605"><ele>501.0</ele><time>2026-04-26T09:17:28.728Z</time></trkpt><trkpt lat="42.8879517" lon="2.6045233"><ele>501.0</ele><time>2026-04-26T09:17:29.73Z</time></trkpt><trkpt lat="42.88792" lon="2.60442"><ele>501.0</ele><time>2026-04-26T09:17:30.728Z</time></trkpt><trkpt lat="42.887885" lon="2.6043017"><ele>500.1666666666667</ele><time>2026-04-26T09:17:31.73Z</time></trkpt><trkpt lat="42.8878467" lon="2.6042033"><ele>499.33333333333337</ele><time>2026-04-26T09:17:32.727Z</time></trkpt><trkpt lat="42.8878167" lon="2.60412"><ele>498.5</ele><time>2026-04-26T09:17:33.728Z</time></trkpt><trkpt lat="42.8877983" lon="2.604035"><ele>497.6666666666667</ele><time>2026-04-26T09:17:34.727Z</time></trkpt><trkpt lat="42.88781" lon="2.60389"><ele>496.83333333333337</ele><time>2026-04-26T09:17:36.728Z</time></trkpt><trkpt lat="42.887815" lon="2.6038033"><ele>496.0</ele><time>2026-04-26T09:17:37.729Z</time></trkpt><trkpt lat="42.88782" lon="2.603705"><ele>495.00000000000006</ele><time>2026-04-26T09:17:38.729Z</time></trkpt><trkpt lat="42.8878283" lon="2.603605"><ele>494.0</ele><time>2026-04-26T09:17:39.728Z</time></trkpt><trkpt lat="42.887825" lon="2.6034933"><ele>493.0</ele><time>2026-04-26T09:17:40.728Z</time></trkpt><trkpt lat="42.88782" lon="2.6033767"><ele>492.0</ele><time>2026-04-26T09:17:41.728Z</time></trkpt><trkpt lat="42.8878117" lon="2.6032583"><ele>491.00000000000006</ele><time>2026-04-26T09:17:42.729Z</time></trkpt><trkpt lat="42.8878017" lon="2.6031383"><ele>490.0</ele><time>2026-04-26T09:17:43.729Z</time></trkpt><trkpt lat="42.8878033" lon="2.6030183"><ele>490.00000000000006</ele><time>2026-04-26T09:17:44.728Z</time></trkpt><trkpt lat="42.8878283" lon="2.6029067"><ele>490.0</ele><time>2026-04-26T09:17:45.729Z</time></trkpt><trkpt lat="42.8878483" lon="2.6027933"><ele>490.0</ele><time>2026-04-26T09:17:46.727Z</time></trkpt><trkpt lat="42.8878767" lon="2.6026733"><ele>490.0</ele><time>2026-04-26T09:17:47.729Z</time></trkpt><trkpt lat="42.88789" lon="2.6025533"><ele>490.00000000000006</ele><time>2026-04-26T09:17:48.728Z</time></trkpt><trkpt lat="42.8879117" lon="2.602425"><ele>490.0</ele><time>2026-04-26T09:17:49.728Z</time></trkpt><trkpt lat="42.8879283" lon="2.602295"><ele>487.4</ele><time>2026-04-26T09:17:50.728Z</time></trkpt><trkpt lat="42.8879483" lon="2.6021517"><ele>484.8</ele><time>2026-04-26T09:17:51.729Z</time></trkpt><trkpt lat="42.8879567" lon="2.6020183"><ele>482.20000000000005</ele><time>2026-04-26T09:17:52.728Z</time></trkpt><trkpt lat="42.8879717" lon="2.6018967"><ele>479.6</ele><time>2026-04-26T09:17:53.729Z</time></trkpt><trkpt lat="42.88799" lon="2.60178"><ele>477.0</ele><time>2026-04-26T09:17:54.729Z</time></trkpt><trkpt lat="42.88799" lon="2.6016733"><ele>474.5</ele><time>2026-04-26T09:17:55.728Z</time></trkpt><trkpt lat="42.8879767" lon="2.6015883"><ele>472.0</ele><time>2026-04-26T09:17:56.728Z</time></trkpt><trkpt lat="42.88796" lon="2.6015"><ele>469.5</ele><time>2026-04-26T09:17:57.728Z</time></trkpt><trkpt lat="42.8879433" lon="2.6013917"><ele>467.0</ele><time>2026-04-26T09:17:58.728Z</time></trkpt><trkpt lat="42.88793" lon="2.601285"><ele>464.5</ele><time>2026-04-26T09:17:59.728Z</time></trkpt><trkpt lat="42.8879233" lon="2.60117"><ele>462.0</ele><time>2026-04-26T09:18:00.728Z</time></trkpt><trkpt lat="42.887915" lon="2.601055"><ele>460.3333333333333</ele><time>2026-04-26T09:18:01.729Z</time></trkpt><trkpt lat="42.8879033" lon="2.6009367"><ele>458.66666666666663</ele><time>2026-04-26T09:18:02.727Z</time></trkpt><trkpt lat="42.8878917" lon="2.6008217"><ele>457.0</ele><time>2026-04-26T09:18:03.727Z</time></trkpt><trkpt lat="42.887885" lon="2.6007133"><ele>455.3333333333333</ele><time>2026-04-26T09:18:04.728Z</time></trkpt><trkpt lat="42.88788" lon="2.6005917"><ele>453.66666666666663</ele><time>2026-04-26T09:18:05.727Z</time></trkpt><trkpt lat="42.88788" lon="2.600485"><ele>452.0</ele><time>2026-04-26T09:18:06.728Z</time></trkpt><trkpt lat="42.88788" lon="2.600375"><ele>449.99999999999994</ele><time>2026-04-26T09:18:07.728Z</time></trkpt><trkpt lat="42.887885" lon="2.6002567"><ele>448.0</ele><time>2026-04-26T09:18:08.729Z</time></trkpt><trkpt lat="42.88789" lon="2.6001433"><ele>446.0</ele><time>2026-04-26T09:18:09.728Z</time></trkpt><trkpt lat="42.8879033" lon="2.6000333"><ele>444.0</ele><time>2026-04-26T09:18:10.728Z</time></trkpt><trkpt lat="42.88791" lon="2.5999167"><ele>441.99999999999994</ele><time>2026-04-26T09:18:11.73Z</time></trkpt><trkpt lat="42.887905" lon="2.5998167"><ele>440.0</ele><time>2026-04-26T09:18:12.728Z</time></trkpt><trkpt lat="42.8878933" lon="2.59973"><ele>440.0</ele><time>2026-04-26T09:18:13.73Z</time></trkpt><trkpt lat="42.8878333" lon="2.5995983"><ele>440.0</ele><time>2026-04-26T09:18:15.73Z</time></trkpt><trkpt lat="42.8877417" lon="2.599545"><ele>440.0</ele><time>2026-04-26T09:18:17.728Z</time></trkpt><trkpt lat="42.8876783" lon="2.5995517"><ele>440.0</ele><time>2026-04-26T09:18:18.729Z</time></trkpt><trkpt lat="42.8875667" lon="2.59955"><ele>440.0</ele><time>2026-04-26T09:18:20.727Z</time></trkpt><trkpt lat="42.8875017" lon="2.5994717"><ele>441.66666666666663</ele><time>2026-04-26T09:18:22.729Z</time></trkpt><trkpt lat="42.8875367" lon="2.5993883"><ele>443.3333333333333</ele><time>2026-04-26T09:18:23.731Z</time></trkpt><trkpt lat="42.8875633" lon="2.5993083"><ele>445.0</ele><time>2026-04-26T09:18:24.728Z</time></trkpt><trkpt lat="42.88759" lon="2.5992083"><ele>446.66666666666663</ele><time>2026-04-26T09:18:25.731Z</time></trkpt><trkpt lat="42.8876217" lon="2.5991"><ele>448.3333333333333</ele><time>2026-04-26T09:18:26.729Z</time></trkpt><trkpt lat="42.887655" lon="2.598985"><ele>450.0</ele><time>2026-04-26T09:18:27.728Z</time></trkpt><trkpt lat="42.8877033" lon="2.5988983"><ele>446.85714285714295</ele><time>2026-04-26T09:18:28.727Z</time></trkpt><trkpt lat="42.8877067" lon="2.5988117"><ele>443.7142857142857</ele><time>2026-04-26T09:18:29.729Z</time></trkpt><trkpt lat="42.8876983" lon="2.5987133"><ele>440.5714285714286</ele><time>2026-04-26T09:18:30.729Z</time></trkpt><trkpt lat="42.8876867" lon="2.5986133"><ele>437.42857142857144</ele><time>2026-04-26T09:18:31.727Z</time></trkpt><trkpt lat="42.887685" lon="2.598515"><ele>434.28571428571433</ele><time>2026-04-26T09:18:32.729Z</time></trkpt><trkpt lat="42.8876833" lon="2.5984133"><ele>431.14285714285717</ele><time>2026-04-26T09:18:33.733Z</time></trkpt><trkpt lat="42.88768" lon="2.5983083"><ele>428.0</ele><time>2026-04-26T09:18:34.727Z</time></trkpt><trkpt lat="42.8876683" lon="2.5981967"><ele>428.3333333333333</ele><time>2026-04-26T09:18:35.73Z</time></trkpt><trkpt lat="42.8876383" lon="2.5980883"><ele>428.66666666666663</ele><time>2026-04-26T09:18:36.728Z</time></trkpt><trkpt lat="42.8876017" lon="2.59799"><ele>429.0</ele><time>2026-04-26T09:18:37.73Z</time></trkpt><trkpt lat="42.8875617" lon="2.5978983"><ele>429.33333333333337</ele><time>2026-04-26T09:18:38.729Z</time></trkpt><trkpt lat="42.88753" lon="2.5978083"><ele>429.6666666666667</ele><time>2026-04-26T09:18:39.729Z</time></trkpt><trkpt lat="42.8875067" lon="2.597725"><ele>430.0</ele><time>2026-04-26T09:18:40.73Z</time></trkpt><trkpt lat="42.8874867" lon="2.5976317"><ele>430.0</ele><time>2026-04-26T09:18:41.729Z</time></trkpt><trkpt lat="42.8874733" lon="2.59754"><ele>430.0</ele><time>2026-04-26T09:18:42.73Z</time></trkpt><trkpt lat="42.8874567" lon="2.5974533"><ele>430.0</ele><time>2026-04-26T09:18:43.73Z</time></trkpt><trkpt lat="42.887435" lon="2.597355"><ele>430.0</ele><time>2026-04-26T09:18:44.728Z</time></trkpt><trkpt lat="42.8874033" lon="2.5972517"><ele>430.0</ele><time>2026-04-26T09:18:45.729Z</time></trkpt><trkpt lat="42.8873667" lon="2.5971583"><ele>430.0</ele><time>2026-04-26T09:18:46.728Z</time></trkpt><trkpt lat="42.88733" lon="2.5970667"><ele>430.0</ele><time>2026-04-26T09:18:47.73Z</time></trkpt><trkpt lat="42.8872933" lon="2.596965"><ele>428.7142857142857</ele><time>2026-04-26T09:18:48.728Z</time></trkpt><trkpt lat="42.8872583" lon="2.5968767"><ele>427.42857142857144</ele><time>2026-04-26T09:18:49.731Z</time></trkpt><trkpt lat="42.8872267" lon="2.596795"><ele>426.14285714285717</ele><time>2026-04-26T09:18:50.727Z</time></trkpt><trkpt lat="42.88719" lon="2.5967083"><ele>424.8571428571429</ele><time>2026-04-26T09:18:51.728Z</time></trkpt><trkpt lat="42.887155" lon="2.5966233"><ele>423.57142857142856</ele><time>2026-04-26T09:18:52.728Z</time></trkpt><trkpt lat="42.8871133" lon="2.5965467"><ele>422.28571428571433</ele><time>2026-04-26T09:18:53.729Z</time></trkpt><trkpt lat="42.8870733" lon="2.5964583"><ele>421.0</ele><time>2026-04-26T09:18:54.729Z</time></trkpt><trkpt lat="42.8870233" lon="2.5963717"><ele>421.00000000000006</ele><time>2026-04-26T09:18:55.728Z</time></trkpt><trkpt lat="42.8869667" lon="2.5962867"><ele>421.0</ele><time>2026-04-26T09:18:56.73Z</time></trkpt><trkpt lat="42.8869133" lon="2.596205"><ele>421.0</ele><time>2026-04-26T09:18:57.728Z</time></trkpt><trkpt lat="42.8868617" lon="2.5961233"><ele>421.0</ele><time>2026-04-26T09:18:58.727Z</time></trkpt><trkpt lat="42.8868183" lon="2.596035"><ele>421.00000000000006</ele><time>2026-04-26T09:18:59.729Z</time></trkpt><trkpt lat="42.8867683" lon="2.59592"><ele>421.0</ele><time>2026-04-26T09:19:00.729Z</time></trkpt><trkpt lat="42.886725" lon="2.5957983"><ele>421.50000000000006</ele><time>2026-04-26T09:19:01.73Z</time></trkpt><trkpt lat="42.8866917" lon="2.595675"><ele>422.0</ele><time>2026-04-26T09:19:02.729Z</time></trkpt><trkpt lat="42.8866667" lon="2.5955517"><ele>422.5</ele><time>2026-04-26T09:19:03.729Z</time></trkpt><trkpt lat="42.8866467" lon="2.5954367"><ele>423.0</ele><time>2026-04-26T09:19:04.728Z</time></trkpt><trkpt lat="42.8866383" lon="2.595325"><ele>423.50000000000006</ele><time>2026-04-26T09:19:05.728Z</time></trkpt><trkpt lat="42.886645" lon="2.5952167"><ele>424.0</ele><time>2026-04-26T09:19:06.73Z</time></trkpt><trkpt lat="42.8866617" lon="2.59511"><ele>422.33333333333337</ele><time>2026-04-26T09:19:07.728Z</time></trkpt><trkpt lat="42.886675" lon="2.595005"><ele>420.6666666666667</ele><time>2026-04-26T09:19:08.73Z</time></trkpt><trkpt lat="42.886675" lon="2.5949067"><ele>419.0</ele><time>2026-04-26T09:19:09.732Z</time></trkpt><trkpt lat="42.8866633" lon="2.594815"><ele>417.33333333333337</ele><time>2026-04-26T09:19:10.727Z</time></trkpt><trkpt lat="42.8866283" lon="2.5947083"><ele>415.6666666666667</ele><time>2026-04-26T09:19:11.727Z</time></trkpt><trkpt lat="42.8865783" lon="2.5946"><ele>414.0</ele><time>2026-04-26T09:19:12.729Z</time></trkpt><trkpt lat="42.8865317" lon="2.5945"><ele>412.8333333333333</ele><time>2026-04-26T09:19:13.727Z</time></trkpt><trkpt lat="42.8864883" lon="2.594405"><ele>411.66666666666663</ele><time>2026-04-26T09:19:14.727Z</time></trkpt><trkpt lat="42.8864317" lon="2.5943133"><ele>410.5</ele><time>2026-04-26T09:19:15.727Z</time></trkpt><trkpt lat="42.8863683" lon="2.5942317"><ele>409.3333333333333</ele><time>2026-04-26T09:19:16.731Z</time></trkpt><trkpt lat="42.8863067" lon="2.5941433"><ele>408.16666666666663</ele><time>2026-04-26T09:19:17.729Z</time></trkpt><trkpt lat="42.886245" lon="2.59405"><ele>407.0</ele><time>2026-04-26T09:19:18.728Z</time></trkpt><trkpt lat="42.886175" lon="2.59397"><ele>407.0</ele><time>2026-04-26T09:19:19.729Z</time></trkpt><trkpt lat="42.8860933" lon="2.593895"><ele>407.0</ele><time>2026-04-26T09:19:20.729Z</time></trkpt><trkpt lat="42.8860067" lon="2.59382"><ele>407.0</ele><time>2026-04-26T09:19:21.728Z</time></trkpt><trkpt lat="42.8859267" lon="2.5937383"><ele>407.0</ele><time>2026-04-26T09:19:22.729Z</time></trkpt><trkpt lat="42.8858517" lon="2.5936617"><ele>407.0</ele><time>2026-04-26T09:19:23.729Z</time></trkpt><trkpt lat="42.8857833" lon="2.5936017"><ele>407.16666666666663</ele><time>2026-04-26T09:19:24.728Z</time></trkpt><trkpt lat="42.8857167" lon="2.593555"><ele>407.3333333333333</ele><time>2026-04-26T09:19:25.727Z</time></trkpt><trkpt lat="42.8856517" lon="2.593525"><ele>407.5</ele><time>2026-04-26T09:19:26.727Z</time></trkpt><trkpt lat="42.8855917" lon="2.593495"><ele>407.66666666666663</ele><time>2026-04-26T09:19:27.728Z</time></trkpt><trkpt lat="42.8855033" lon="2.5934133"><ele>407.8333333333333</ele><time>2026-04-26T09:19:29.729Z</time></trkpt><trkpt lat="42.885455" lon="2.5933067"><ele>408.0</ele><time>2026-04-26T09:19:31.728Z</time></trkpt><trkpt lat="42.885385" lon="2.5931683"><ele>408.0</ele><time>2026-04-26T09:19:33.731Z</time></trkpt><trkpt lat="42.8853317" lon="2.5931117"><ele>408.0</ele><time>2026-04-26T09:19:34.727Z</time></trkpt><trkpt lat="42.8852533" lon="2.593075"><ele>408.0</ele><time>2026-04-26T09:19:35.729Z</time></trkpt><trkpt lat="42.88518" lon="2.5930583"><ele>408.0</ele><time>2026-04-26T09:19:36.727Z</time></trkpt><trkpt lat="42.8850767" lon="2.5930433"><ele>408.0</ele><time>2026-04-26T09:19:38.728Z</time></trkpt><trkpt lat="42.8850217" lon="2.59298"><ele>408.0</ele><time>2026-04-26T09:19:40.732Z</time></trkpt><trkpt lat="42.8849833" lon="2.5928683"><ele>405.59999999999997</ele><time>2026-04-26T09:19:42.728Z</time></trkpt><trkpt lat="42.8849317" lon="2.5927167"><ele>403.2</ele><time>2026-04-26T09:19:44.728Z</time></trkpt><trkpt lat="42.8849133" lon="2.5926317"><ele>400.8</ele><time>2026-04-26T09:19:45.729Z</time></trkpt><trkpt lat="42.884925" lon="2.5924633"><ele>398.4</ele><time>2026-04-26T09:19:47.728Z</time></trkpt><trkpt lat="42.884945" lon="2.59237"><ele>396.0</ele><time>2026-04-26T09:19:48.729Z</time></trkpt><trkpt lat="42.884965" lon="2.59227"><ele>396.0</ele><time>2026-04-26T09:19:49.729Z</time></trkpt><trkpt lat="42.8849817" lon="2.5921683"><ele>396.0</ele><time>2026-04-26T09:19:50.729Z</time></trkpt><trkpt lat="42.885" lon="2.59207"><ele>396.0</ele><time>2026-04-26T09:19:51.728Z</time></trkpt><trkpt lat="42.8850083" lon="2.5919617"><ele>396.0</ele><time>2026-04-26T09:19:52.727Z</time></trkpt><trkpt lat="42.885005" lon="2.5918617"><ele>396.0</ele><time>2026-04-26T09:19:53.727Z</time></trkpt><trkpt lat="42.8849883" lon="2.5917767"><ele>396.0</ele><time>2026-04-26T09:19:54.727Z</time></trkpt><trkpt lat="42.884945" lon="2.59171"><ele>396.0</ele><time>2026-04-26T09:19:55.727Z</time></trkpt><trkpt lat="42.8848617" lon="2.5916683"><ele>395.0</ele><time>2026-04-26T09:19:56.727Z</time></trkpt><trkpt lat="42.884785" lon="2.5916217"><ele>394.0</ele><time>2026-04-26T09:19:57.728Z</time></trkpt><trkpt lat="42.8847017" lon="2.5915733"><ele>393.0</ele><time>2026-04-26T09:19:58.729Z</time></trkpt><trkpt lat="42.88462" lon="2.59153"><ele>392.0</ele><time>2026-04-26T09:19:59.732Z</time></trkpt><trkpt lat="42.884545" lon="2.5915033"><ele>391.0</ele><time>2026-04-26T09:20:00.728Z</time></trkpt><trkpt lat="42.8844717" lon="2.59147"><ele>390.0</ele><time>2026-04-26T09:20:01.728Z</time></trkpt><trkpt lat="42.8843983" lon="2.5914167"><ele>390.0</ele><time>2026-04-26T09:20:02.73Z</time></trkpt><trkpt lat="42.8843217" lon="2.591355"><ele>390.0</ele><time>2026-04-26T09:20:03.729Z</time></trkpt><trkpt lat="42.8842467" lon="2.5912883"><ele>390.0</ele><time>2026-04-26T09:20:04.729Z</time></trkpt><trkpt lat="42.8841817" lon="2.591215"><ele>390.0</ele><time>2026-04-26T09:20:05.727Z</time></trkpt><trkpt lat="42.8841317" lon="2.5911467"><ele>390.0</ele><time>2026-04-26T09:20:06.728Z</time></trkpt><trkpt lat="42.8841017" lon="2.5910217"><ele>390.0</ele><time>2026-04-26T09:20:08.728Z</time></trkpt><trkpt lat="42.8841533" lon="2.5909067"><ele>387.8333333333333</ele><time>2026-04-26T09:20:10.728Z</time></trkpt><trkpt lat="42.884185" lon="2.5908283"><ele>385.6666666666667</ele><time>2026-04-26T09:20:11.729Z</time></trkpt><trkpt lat="42.88421" lon="2.5907367"><ele>383.5</ele><time>2026-04-26T09:20:12.731Z</time></trkpt><trkpt lat="42.88421" lon="2.5906283"><ele>381.33333333333337</ele><time>2026-04-26T09:20:13.729Z</time></trkpt><trkpt lat="42.8841933" lon="2.5905267"><ele>379.1666666666667</ele><time>2026-04-26T09:20:14.728Z</time></trkpt><trkpt lat="42.884155" lon="2.59043"><ele>377.0</ele><time>2026-04-26T09:20:15.73Z</time></trkpt><trkpt lat="42.884115" lon="2.590335"><ele>376.0</ele><time>2026-04-26T09:20:16.729Z</time></trkpt><trkpt lat="42.8840683" lon="2.590235"><ele>375.0</ele><time>2026-04-26T09:20:17.729Z</time></trkpt><trkpt lat="42.8840167" lon="2.5901367"><ele>374.0</ele><time>2026-04-26T09:20:18.729Z</time></trkpt><trkpt lat="42.883965" lon="2.59004"><ele>373.0</ele><time>2026-04-26T09:20:19.729Z</time></trkpt><trkpt lat="42.8839167" lon="2.5899483"><ele>372.0</ele><time>2026-04-26T09:20:20.73Z</time></trkpt><trkpt lat="42.8838667" lon="2.5898483"><ele>371.0</ele><time>2026-04-26T09:20:21.729Z</time></trkpt><trkpt lat="42.88383" lon="2.58974"><ele>371.0</ele><time>2026-04-26T09:20:22.728Z</time></trkpt><trkpt lat="42.8838" lon="2.5896267"><ele>371.0</ele><time>2026-04-26T09:20:23.729Z</time></trkpt><trkpt lat="42.8837883" lon="2.5895067"><ele>371.0</ele><time>2026-04-26T09:20:24.729Z</time></trkpt><trkpt lat="42.8837833" lon="2.5893917"><ele>371.0</ele><time>2026-04-26T09:20:25.728Z</time></trkpt><trkpt lat="42.8837833" lon="2.58929"><ele>371.0</ele><time>2026-04-26T09:20:26.73Z</time></trkpt><trkpt lat="42.8838383" lon="2.5891533"><ele>369.4</ele><time>2026-04-26T09:20:28.73Z</time></trkpt><trkpt lat="42.8839417" lon="2.589105"><ele>367.8</ele><time>2026-04-26T09:20:30.73Z</time></trkpt><trkpt lat="42.8840483" lon="2.5890833"><ele>366.2</ele><time>2026-04-26T09:20:32.729Z</time></trkpt><trkpt lat="42.8841417" lon="2.5889833"><ele>364.59999999999997</ele><time>2026-04-26T09:20:34.727Z</time></trkpt><trkpt lat="42.8841733" lon="2.5888883"><ele>363.0</ele><time>2026-04-26T09:20:35.729Z</time></trkpt><trkpt lat="42.884205" lon="2.5888133"><ele>363.0</ele><time>2026-04-26T09:20:36.729Z</time></trkpt><trkpt lat="42.8842967" lon="2.5887233"><ele>363.0</ele><time>2026-04-26T09:20:38.728Z</time></trkpt><trkpt lat="42.884425" lon="2.588695"><ele>363.0</ele><time>2026-04-26T09:20:40.727Z</time></trkpt><trkpt lat="42.8845083" lon="2.58872"><ele>363.0</ele><time>2026-04-26T09:20:41.729Z</time></trkpt><trkpt lat="42.884595" lon="2.588755"><ele>363.0</ele><time>2026-04-26T09:20:42.727Z</time></trkpt><trkpt lat="42.8846767" lon="2.58881"><ele>363.0</ele><time>2026-04-26T09:20:43.728Z</time></trkpt><trkpt lat="42.8847567" lon="2.588885"><ele>363.0</ele><time>2026-04-26T09:20:44.73Z</time></trkpt><trkpt lat="42.8848333" lon="2.588975"><ele>363.0</ele><time>2026-04-26T09:20:45.729Z</time></trkpt><trkpt lat="42.8849067" lon="2.5890633"><ele>363.0</ele><time>2026-04-26T09:20:46.728Z</time></trkpt><trkpt lat="42.8849767" lon="2.5891317"><ele>363.0</ele><time>2026-04-26T09:20:47.728Z</time></trkpt><trkpt lat="42.8850433" lon="2.5891833"><ele>364.5</ele><time>2026-04-26T09:20:48.73Z</time></trkpt><trkpt lat="42.8851167" lon="2.5892217"><ele>366.0</ele><time>2026-04-26T09:20:49.733Z</time></trkpt><trkpt lat="42.8851967" lon="2.5892533"><ele>367.5</ele><time>2026-04-26T09:20:50.728Z</time></trkpt><trkpt lat="42.885275" lon="2.5892817"><ele>369.0</ele><time>2026-04-26T09:20:51.728Z</time></trkpt><trkpt lat="42.8853583" lon="2.589305"><ele>370.5</ele><time>2026-04-26T09:20:52.727Z</time></trkpt><trkpt lat="42.88544" lon="2.5893433"><ele>372.0</ele><time>2026-04-26T09:20:53.729Z</time></trkpt><trkpt lat="42.8855167" lon="2.58939"><ele>372.0</ele><time>2026-04-26T09:20:54.727Z</time></trkpt><trkpt lat="42.885585" lon="2.5894467"><ele>372.0</ele><time>2026-04-26T09:20:55.728Z</time></trkpt><trkpt lat="42.8856517" lon="2.589515"><ele>372.0</ele><time>2026-04-26T09:20:56.728Z</time></trkpt><trkpt lat="42.8857067" lon="2.5895967"><ele>372.0</ele><time>2026-04-26T09:20:57.729Z</time></trkpt><trkpt lat="42.8857467" lon="2.5896833"><ele>372.0</ele><time>2026-04-26T09:20:58.73Z</time></trkpt><trkpt lat="42.88578" lon="2.5897583"><ele>372.0</ele><time>2026-04-26T09:20:59.729Z</time></trkpt><trkpt lat="42.8858617" lon="2.5898033"><ele>372.0</ele><time>2026-04-26T09:21:01.729Z</time></trkpt><trkpt lat="42.8859117" lon="2.5897383"><ele>372.0</ele><time>2026-04-26T09:21:03.729Z</time></trkpt><trkpt lat="42.88587" lon="2.5896067"><ele>372.0</ele><time>2026-04-26T09:21:05.728Z</time></trkpt><trkpt lat="42.88582" lon="2.589525"><ele>372.0</ele><time>2026-04-26T09:21:06.728Z</time></trkpt><trkpt lat="42.8857633" lon="2.589415"><ele>372.0</ele><time>2026-04-26T09:21:07.729Z</time></trkpt><trkpt lat="42.88571" lon="2.58931"><ele>372.0</ele><time>2026-04-26T09:21:08.727Z</time></trkpt><trkpt lat="42.8856467" lon="2.5892117"><ele>372.0</ele><time>2026-04-26T09:21:09.729Z</time></trkpt><trkpt lat="42.8855717" lon="2.5891267"><ele>372.0</ele><time>2026-04-26T09:21:10.728Z</time></trkpt><trkpt lat="42.8854933" lon="2.5890383"><ele>372.0</ele><time>2026-04-26T09:21:11.727Z</time></trkpt><trkpt lat="42.8854167" lon="2.5889417"><ele>372.0</ele><time>2026-04-26T09:21:12.727Z</time></trkpt><trkpt lat="42.8853383" lon="2.5888467"><ele>372.0</ele><time>2026-04-26T09:21:13.73Z</time></trkpt><trkpt lat="42.8852567" lon="2.5887467"><ele>372.8</ele><time>2026-04-26T09:21:14.732Z</time></trkpt><trkpt lat="42.885175" lon="2.5886467"><ele>373.6</ele><time>2026-04-26T09:21:15.73Z</time></trkpt><trkpt lat="42.885095" lon="2.5885433"><ele>374.40000000000003</ele><time>2026-04-26T09:21:16.727Z</time></trkpt><trkpt lat="42.88502" lon="2.5884467"><ele>375.20000000000005</ele><time>2026-04-26T09:21:17.728Z</time></trkpt><trkpt lat="42.88494" lon="2.58836"><ele>376.0</ele><time>2026-04-26T09:21:18.73Z</time></trkpt><trkpt lat="42.8848583" lon="2.588285"><ele>374.16666666666663</ele><time>2026-04-26T09:21:19.728Z</time></trkpt><trkpt lat="42.8847767" lon="2.5882133"><ele>372.3333333333333</ele><time>2026-04-26T09:21:20.729Z</time></trkpt><trkpt lat="42.8847067" lon="2.5881433"><ele>370.5</ele><time>2026-04-26T09:21:21.73Z</time></trkpt><trkpt lat="42.884655" lon="2.588085"><ele>368.6666666666667</ele><time>2026-04-26T09:21:22.728Z</time></trkpt><trkpt lat="42.8846083" lon="2.5879867"><ele>366.83333333333337</ele><time>2026-04-26T09:21:24.729Z</time></trkpt><trkpt lat="42.8846567" lon="2.5878817"><ele>365.0</ele><time>2026-04-26T09:21:26.729Z</time></trkpt><trkpt lat="42.884735" lon="2.5877933"><ele>365.0</ele><time>2026-04-26T09:21:28.728Z</time></trkpt><trkpt lat="42.88475" lon="2.5877017"><ele>365.0</ele><time>2026-04-26T09:21:30.729Z</time></trkpt><trkpt lat="42.8846417" lon="2.58763"><ele>365.0</ele><time>2026-04-26T09:21:32.73Z</time></trkpt><trkpt lat="42.8845667" lon="2.5875933"><ele>365.0</ele><time>2026-04-26T09:21:33.729Z</time></trkpt><trkpt lat="42.8845" lon="2.5875283"><ele>365.0</ele><time>2026-04-26T09:21:34.728Z</time></trkpt><trkpt lat="42.884445" lon="2.5874467"><ele>365.0</ele><time>2026-04-26T09:21:35.728Z</time></trkpt><trkpt lat="42.8843933" lon="2.587365"><ele>365.0</ele><time>2026-04-26T09:21:36.728Z</time></trkpt><trkpt lat="42.8843333" lon="2.5872983"><ele>365.0</ele><time>2026-04-26T09:21:37.728Z</time></trkpt><trkpt lat="42.8842633" lon="2.5872583"><ele>365.0</ele><time>2026-04-26T09:21:38.733Z</time></trkpt><trkpt lat="42.8841767" lon="2.58724"><ele>365.0</ele><time>2026-04-26T09:21:39.729Z</time></trkpt><trkpt lat="42.8840933" lon="2.5872117"><ele>365.0</ele><time>2026-04-26T09:21:40.727Z</time></trkpt><trkpt lat="42.8840117" lon="2.5871733"><ele>365.0</ele><time>2026-04-26T09:21:41.729Z</time></trkpt><trkpt lat="42.8839433" lon="2.5871333"><ele>364.33333333333337</ele><time>2026-04-26T09:21:42.728Z</time></trkpt><trkpt lat="42.8838883" lon="2.5870883"><ele>363.6666666666667</ele><time>2026-04-26T09:21:43.728Z</time></trkpt><trkpt lat="42.8838067" lon="2.5869517"><ele>363.0</ele><time>2026-04-26T09:21:45.729Z</time></trkpt><trkpt lat="42.8837667" lon="2.5868583"><ele>362.3333333333333</ele><time>2026-04-26T09:21:46.73Z</time></trkpt><trkpt lat="42.8837233" lon="2.5867617"><ele>361.66666666666663</ele><time>2026-04-26T09:21:47.729Z</time></trkpt><trkpt lat="42.88368" lon="2.586655"><ele>361.0</ele><time>2026-04-26T09:21:48.73Z</time></trkpt><trkpt lat="42.8836533" lon="2.5865467"><ele>361.0</ele><time>2026-04-26T09:21:49.729Z</time></trkpt><trkpt lat="42.883635" lon="2.5864283"><ele>361.0</ele><time>2026-04-26T09:21:50.729Z</time></trkpt><trkpt lat="42.8836183" lon="2.5863083"><ele>361.0</ele><time>2026-04-26T09:21:51.729Z</time></trkpt><trkpt lat="42.8835883" lon="2.586195"><ele>361.0</ele><time>2026-04-26T09:21:52.731Z</time></trkpt><trkpt lat="42.8835467" lon="2.5861"><ele>361.0</ele><time>2026-04-26T09:21:53.73Z</time></trkpt><trkpt lat="42.8834883" lon="2.5860017"><ele>361.0</ele><time>2026-04-26T09:21:54.728Z</time></trkpt><trkpt lat="42.883435" lon="2.585915"><ele>359.6</ele><time>2026-04-26T09:21:55.729Z</time></trkpt><trkpt lat="42.883375" lon="2.5858533"><ele>358.20000000000005</ele><time>2026-04-26T09:21:56.729Z</time></trkpt><trkpt lat="42.8833117" lon="2.5858133"><ele>356.79999999999995</ele><time>2026-04-26T09:21:57.728Z</time></trkpt><trkpt lat="42.8831833" lon="2.5858717"><ele>355.4</ele><time>2026-04-26T09:21:59.728Z</time></trkpt><trkpt lat="42.88311" lon="2.585925"><ele>354.0</ele><time>2026-04-26T09:22:00.729Z</time></trkpt><trkpt lat="42.8830267" lon="2.5859683"><ele>354.0</ele><time>2026-04-26T09:22:01.728Z</time></trkpt><trkpt lat="42.8829333" lon="2.5860067"><ele>354.0</ele><time>2026-04-26T09:22:02.729Z</time></trkpt><trkpt lat="42.882835" lon="2.5860367"><ele>354.0</ele><time>2026-04-26T09:22:03.728Z</time></trkpt><trkpt lat="42.8827333" lon="2.5860533"><ele>354.0</ele><time>2026-04-26T09:22:04.728Z</time></trkpt><trkpt lat="42.882635" lon="2.5860667"><ele>354.0</ele><time>2026-04-26T09:22:05.729Z</time></trkpt><trkpt lat="42.882545" lon="2.5860883"><ele>352.6</ele><time>2026-04-26T09:22:06.73Z</time></trkpt><trkpt lat="42.8824683" lon="2.58611"><ele>351.2</ele><time>2026-04-26T09:22:07.728Z</time></trkpt><trkpt lat="42.8824033" lon="2.5861283"><ele>349.8</ele><time>2026-04-26T09:22:08.729Z</time></trkpt><trkpt lat="42.88229" lon="2.5861083"><ele>348.40000000000003</ele><time>2026-04-26T09:22:10.728Z</time></trkpt><trkpt lat="42.8822233" lon="2.5859883"><ele>347.0</ele><time>2026-04-26T09:22:12.728Z</time></trkpt><trkpt lat="42.8822467" lon="2.585875"><ele>347.0</ele><time>2026-04-26T09:22:13.729Z</time></trkpt><trkpt lat="42.8822733" lon="2.5857417"><ele>347.0</ele><time>2026-04-26T09:22:14.729Z</time></trkpt><trkpt lat="42.88229" lon="2.585605"><ele>347.0</ele><time>2026-04-26T09:22:15.73Z</time></trkpt><trkpt lat="42.8823233" lon="2.585465"><ele>347.0</ele><time>2026-04-26T09:22:16.728Z</time></trkpt><trkpt lat="42.88236" lon="2.5853317"><ele>347.0</ele><time>2026-04-26T09:22:17.729Z</time></trkpt><trkpt lat="42.8823867" lon="2.5852133"><ele>346.83333333333337</ele><time>2026-04-26T09:22:18.73Z</time></trkpt><trkpt lat="42.8823967" lon="2.5851017"><ele>346.6666666666667</ele><time>2026-04-26T09:22:19.728Z</time></trkpt><trkpt lat="42.8823967" lon="2.585"><ele>346.5</ele><time>2026-04-26T09:22:20.731Z</time></trkpt><trkpt lat="42.8823167" lon="2.58487"><ele>346.3333333333333</ele><time>2026-04-26T09:22:22.728Z</time></trkpt><trkpt lat="42.8822383" lon="2.584845"><ele>346.16666666666663</ele><time>2026-04-26T09:22:23.729Z</time></trkpt><trkpt lat="42.882155" lon="2.58482"><ele>346.0</ele><time>2026-04-26T09:22:24.731Z</time></trkpt><trkpt lat="42.8820517" lon="2.5848117"><ele>346.0</ele><time>2026-04-26T09:22:25.729Z</time></trkpt><trkpt lat="42.8819467" lon="2.5847967"><ele>346.0</ele><time>2026-04-26T09:22:26.729Z</time></trkpt><trkpt lat="42.8818383" lon="2.584785"><ele>346.0</ele><time>2026-04-26T09:22:27.729Z</time></trkpt><trkpt lat="42.88174" lon="2.584765"><ele>346.0</ele><time>2026-04-26T09:22:28.729Z</time></trkpt><trkpt lat="42.881645" lon="2.5847667"><ele>346.0</ele><time>2026-04-26T09:22:29.729Z</time></trkpt><trkpt lat="42.8815467" lon="2.5847933"><ele>344.8</ele><time>2026-04-26T09:22:30.73Z</time></trkpt><trkpt lat="42.8814467" lon="2.5848417"><ele>343.6</ele><time>2026-04-26T09:22:31.731Z</time></trkpt><trkpt lat="42.8813467" lon="2.5849083"><ele>342.4</ele><time>2026-04-26T09:22:32.73Z</time></trkpt><trkpt lat="42.8812467" lon="2.5849883"><ele>341.2</ele><time>2026-04-26T09:22:33.73Z</time></trkpt><trkpt lat="42.8811467" lon="2.5850567"><ele>340.0</ele><time>2026-04-26T09:22:34.729Z</time></trkpt><trkpt lat="42.88105" lon="2.5851233"><ele>340.0</ele><time>2026-04-26T09:22:35.73Z</time></trkpt><trkpt lat="42.8809583" lon="2.58518"><ele>340.0</ele><time>2026-04-26T09:22:36.728Z</time></trkpt><trkpt lat="42.880875" lon="2.585225"><ele>340.0</ele><time>2026-04-26T09:22:37.729Z</time></trkpt><trkpt lat="42.8807933" lon="2.5852633"><ele>340.0</ele><time>2026-04-26T09:22:38.73Z</time></trkpt><trkpt lat="42.8807267" lon="2.5852667"><ele>340.0</ele><time>2026-04-26T09:22:39.728Z</time></trkpt><trkpt lat="42.8806433" lon="2.5851817"><ele>340.0</ele><time>2026-04-26T09:22:41.728Z</time></trkpt><trkpt lat="42.880615" lon="2.5850033"><ele>339.16666666666663</ele><time>2026-04-26T09:22:43.729Z</time></trkpt><trkpt lat="42.8806" lon="2.5848883"><ele>338.3333333333333</ele><time>2026-04-26T09:22:44.731Z</time></trkpt><trkpt lat="42.8805733" lon="2.584775"><ele>337.5</ele><time>2026-04-26T09:22:45.729Z</time></trkpt><trkpt lat="42.88053" lon="2.5846617"><ele>336.6666666666667</ele><time>2026-04-26T09:22:46.728Z</time></trkpt><trkpt lat="42.88048" lon="2.5845583"><ele>335.83333333333337</ele><time>2026-04-26T09:22:47.729Z</time></trkpt><trkpt lat="42.8804283" lon="2.584455"><ele>335.0</ele><time>2026-04-26T09:22:48.729Z</time></trkpt><trkpt lat="42.880385" lon="2.58435"><ele>335.0</ele><time>2026-04-26T09:22:49.731Z</time></trkpt><trkpt lat="42.880355" lon="2.5842417"><ele>335.0</ele><time>2026-04-26T09:22:50.73Z</time></trkpt><trkpt lat="42.8803483" lon="2.5841283"><ele>335.0</ele><time>2026-04-26T09:22:51.728Z</time></trkpt><trkpt lat="42.880355" lon="2.5839983"><ele>335.0</ele><time>2026-04-26T09:22:52.73Z</time></trkpt><trkpt lat="42.880365" lon="2.583855"><ele>335.0</ele><time>2026-04-26T09:22:53.729Z</time></trkpt><trkpt lat="42.880375" lon="2.5837083"><ele>335.0</ele><time>2026-04-26T09:22:54.728Z</time></trkpt><trkpt lat="42.8803717" lon="2.5835633"><ele>335.0</ele><time>2026-04-26T09:22:55.728Z</time></trkpt><trkpt lat="42.88037" lon="2.5834267"><ele>335.0</ele><time>2026-04-26T09:22:56.728Z</time></trkpt><trkpt lat="42.8803733" lon="2.5833033"><ele>335.0</ele><time>2026-04-26T09:22:57.729Z</time></trkpt><trkpt lat="42.880365" lon="2.5831867"><ele>335.0</ele><time>2026-04-26T09:22:58.73Z</time></trkpt><trkpt lat="42.8803283" lon="2.58307"><ele>335.0</ele><time>2026-04-26T09:22:59.728Z</time></trkpt><trkpt lat="42.8802817" lon="2.5829533"><ele>335.0</ele><time>2026-04-26T09:23:00.73Z</time></trkpt><trkpt lat="42.88024" lon="2.5828433"><ele>335.0</ele><time>2026-04-26T09:23:01.729Z</time></trkpt><trkpt lat="42.8801983" lon="2.5827317"><ele>335.0</ele><time>2026-04-26T09:23:02.728Z</time></trkpt><trkpt lat="42.880155" lon="2.5826167"><ele>335.0</ele><time>2026-04-26T09:23:03.729Z</time></trkpt><trkpt lat="42.88012" lon="2.5824883"><ele>333.75</ele><time>2026-04-26T09:23:04.728Z</time></trkpt><trkpt lat="42.8801017" lon="2.5823417"><ele>332.5</ele><time>2026-04-26T09:23:05.727Z</time></trkpt><trkpt lat="42.88009" lon="2.5821833"><ele>331.25</ele><time>2026-04-26T09:23:06.727Z</time></trkpt><trkpt lat="42.880075" lon="2.5820183"><ele>330.0</ele><time>2026-04-26T09:23:07.727Z</time></trkpt><trkpt lat="42.8800433" lon="2.58185"><ele>327.5</ele><time>2026-04-26T09:23:08.729Z</time></trkpt><trkpt lat="42.88001" lon="2.5816917"><ele>325.0</ele><time>2026-04-26T09:23:09.727Z</time></trkpt><trkpt lat="42.8799783" lon="2.5815317"><ele>322.5</ele><time>2026-04-26T09:23:10.729Z</time></trkpt><trkpt lat="42.8799567" lon="2.5813817"><ele>320.0</ele><time>2026-04-26T09:23:11.728Z</time></trkpt><trkpt lat="42.879925" lon="2.5812433"><ele>319.6</ele><time>2026-04-26T09:23:12.728Z</time></trkpt><trkpt lat="42.879885" lon="2.5811067"><ele>319.2</ele><time>2026-04-26T09:23:13.728Z</time></trkpt><trkpt lat="42.8798467" lon="2.5809733"><ele>318.8</ele><time>2026-04-26T09:23:14.728Z</time></trkpt><trkpt lat="42.87981" lon="2.5808467"><ele>318.4</ele><time>2026-04-26T09:23:15.727Z</time></trkpt><trkpt lat="42.8797717" lon="2.5807267"><ele>318.0</ele><time>2026-04-26T09:23:16.729Z</time></trkpt><trkpt lat="42.879725" lon="2.5806133"><ele>318.0</ele><time>2026-04-26T09:23:17.729Z</time></trkpt><trkpt lat="42.8796683" lon="2.5805067"><ele>318.0</ele><time>2026-04-26T09:23:18.728Z</time></trkpt><trkpt lat="42.879605" lon="2.5804033"><ele>318.0</ele><time>2026-04-26T09:23:19.729Z</time></trkpt><trkpt lat="42.8795333" lon="2.5803"><ele>318.0</ele><time>2026-04-26T09:23:20.729Z</time></trkpt><trkpt lat="42.8794683" lon="2.580185"><ele>318.0</ele><time>2026-04-26T09:23:21.729Z</time></trkpt><trkpt lat="42.87941" lon="2.5800767"><ele>317.3333333333333</ele><time>2026-04-26T09:23:22.729Z</time></trkpt><trkpt lat="42.8793567" lon="2.5799817"><ele>316.6666666666667</ele><time>2026-04-26T09:23:23.729Z</time></trkpt><trkpt lat="42.8793117" lon="2.579905"><ele>316.0</ele><time>2026-04-26T09:23:24.728Z</time></trkpt><trkpt lat="42.8792433" lon="2.5797983"><ele>315.33333333333337</ele><time>2026-04-26T09:23:26.729Z</time></trkpt><trkpt lat="42.87917" lon="2.579765"><ele>314.6666666666667</ele><time>2026-04-26T09:23:28.728Z</time></trkpt><trkpt lat="42.879075" lon="2.5798267"><ele>314.0</ele><time>2026-04-26T09:23:30.729Z</time></trkpt><trkpt lat="42.878965" lon="2.5798733"><ele>312.4</ele><time>2026-04-26T09:23:32.729Z</time></trkpt><trkpt lat="42.878865" lon="2.57991"><ele>310.79999999999995</ele><time>2026-04-26T09:23:34.728Z</time></trkpt><trkpt lat="42.8787967" lon="2.57996"><ele>309.20000000000005</ele><time>2026-04-26T09:23:36.729Z</time></trkpt><trkpt lat="42.8787333" lon="2.5799033"><ele>307.6</ele><time>2026-04-26T09:23:39.727Z</time></trkpt><trkpt lat="42.8787683" lon="2.5797967"><ele>306.0</ele><time>2026-04-26T09:23:41.727Z</time></trkpt><trkpt lat="42.878865" lon="2.57965"><ele>306.0</ele><time>2026-04-26T09:23:43.731Z</time></trkpt><trkpt lat="42.8789217" lon="2.57956"><ele>306.0</ele><time>2026-04-26T09:23:44.727Z</time></trkpt><trkpt lat="42.8789767" lon="2.579465"><ele>306.0</ele><time>2026-04-26T09:23:45.727Z</time></trkpt><trkpt lat="42.8790317" lon="2.57937"><ele>306.0</ele><time>2026-04-26T09:23:46.727Z</time></trkpt><trkpt lat="42.8790883" lon="2.5792783"><ele>306.0</ele><time>2026-04-26T09:23:47.728Z</time></trkpt><trkpt lat="42.879155" lon="2.5791983"><ele>306.0</ele><time>2026-04-26T09:23:48.73Z</time></trkpt><trkpt lat="42.8792233" lon="2.5791333"><ele>306.3333333333333</ele><time>2026-04-26T09:23:49.728Z</time></trkpt><trkpt lat="42.8792883" lon="2.579075"><ele>306.6666666666667</ele><time>2026-04-26T09:23:50.729Z</time></trkpt><trkpt lat="42.8793433" lon="2.57901"><ele>307.0</ele><time>2026-04-26T09:23:51.727Z</time></trkpt><trkpt lat="42.87939" lon="2.57894"><ele>307.33333333333337</ele><time>2026-04-26T09:23:52.73Z</time></trkpt><trkpt lat="42.87943" lon="2.5788383"><ele>307.6666666666667</ele><time>2026-04-26T09:23:53.728Z</time></trkpt><trkpt lat="42.879465" lon="2.5787117"><ele>308.0</ele><time>2026-04-26T09:23:54.728Z</time></trkpt><trkpt lat="42.8794867" lon="2.57856"><ele>308.2</ele><time>2026-04-26T09:23:55.727Z</time></trkpt><trkpt lat="42.8795" lon="2.5784083"><ele>308.4</ele><time>2026-04-26T09:23:56.729Z</time></trkpt><trkpt lat="42.8795183" lon="2.5782667"><ele>308.59999999999997</ele><time>2026-04-26T09:23:57.73Z</time></trkpt><trkpt lat="42.8795383" lon="2.5781383"><ele>308.8</ele><time>2026-04-26T09:23:58.727Z</time></trkpt><trkpt lat="42.879555" lon="2.5780233"><ele>309.0</ele><time>2026-04-26T09:23:59.727Z</time></trkpt><trkpt lat="42.8795633" lon="2.5779117"><ele>308.5</ele><time>2026-04-26T09:24:00.728Z</time></trkpt><trkpt lat="42.8795483" lon="2.5778167"><ele>308.0</ele><time>2026-04-26T09:24:01.73Z</time></trkpt><trkpt lat="42.87951" lon="2.5777217"><ele>307.5</ele><time>2026-04-26T09:24:02.728Z</time></trkpt><trkpt lat="42.8794517" lon="2.5776283"><ele>307.0</ele><time>2026-04-26T09:24:03.728Z</time></trkpt><trkpt lat="42.8794017" lon="2.5775583"><ele>306.5</ele><time>2026-04-26T09:24:04.728Z</time></trkpt><trkpt lat="42.87935" lon="2.5775083"><ele>306.0</ele><time>2026-04-26T09:24:05.728Z</time></trkpt><trkpt lat="42.8792367" lon="2.5774833"><ele>306.0</ele><time>2026-04-26T09:24:07.729Z</time></trkpt><trkpt lat="42.879165" lon="2.577545"><ele>306.0</ele><time>2026-04-26T09:24:08.728Z</time></trkpt><trkpt lat="42.8790967" lon="2.577585"><ele>306.0</ele><time>2026-04-26T09:24:09.729Z</time></trkpt><trkpt lat="42.87902" lon="2.5776433"><ele>306.0</ele><time>2026-04-26T09:24:10.728Z</time></trkpt><trkpt lat="42.87894" lon="2.5777017"><ele>306.0</ele><time>2026-04-26T09:24:11.73Z</time></trkpt><trkpt lat="42.8788683" lon="2.5777517"><ele>306.0</ele><time>2026-04-26T09:24:12.728Z</time></trkpt><trkpt lat="42.8788" lon="2.5777883"><ele>306.0</ele><time>2026-04-26T09:24:13.728Z</time></trkpt><trkpt lat="42.8787333" lon="2.577805"><ele>306.0</ele><time>2026-04-26T09:24:14.734Z</time></trkpt><trkpt lat="42.87867" lon="2.5777983"><ele>306.0</ele><time>2026-04-26T09:24:15.731Z</time></trkpt><trkpt lat="42.8785633" lon="2.5777067"><ele>306.0</ele><time>2026-04-26T09:24:17.728Z</time></trkpt><trkpt lat="42.87852" lon="2.5776333"><ele>306.0</ele><time>2026-04-26T09:24:18.729Z</time></trkpt><trkpt lat="42.878475" lon="2.5775517"><ele>306.0</ele><time>2026-04-26T09:24:19.728Z</time></trkpt><trkpt lat="42.878435" lon="2.577455"><ele>305.5</ele><time>2026-04-26T09:24:20.729Z</time></trkpt><trkpt lat="42.8784067" lon="2.5773567"><ele>305.0</ele><time>2026-04-26T09:24:21.729Z</time></trkpt><trkpt lat="42.8783983" lon="2.57725"><ele>304.5</ele><time>2026-04-26T09:24:22.729Z</time></trkpt><trkpt lat="42.8784133" lon="2.5771317"><ele>304.0</ele><time>2026-04-26T09:24:23.728Z</time></trkpt><trkpt lat="42.8784217" lon="2.577005"><ele>303.5</ele><time>2026-04-26T09:24:24.727Z</time></trkpt><trkpt lat="42.8784233" lon="2.5768717"><ele>303.0</ele><time>2026-04-26T09:24:25.729Z</time></trkpt><trkpt lat="42.8784267" lon="2.5767383"><ele>304.6</ele><time>2026-04-26T09:24:26.729Z</time></trkpt><trkpt lat="42.878415" lon="2.5766117"><ele>306.20000000000005</ele><time>2026-04-26T09:24:27.729Z</time></trkpt><trkpt lat="42.87839" lon="2.5764967"><ele>307.8</ele><time>2026-04-26T09:24:28.727Z</time></trkpt><trkpt lat="42.878345" lon="2.5763833"><ele>309.40000000000003</ele><time>2026-04-26T09:24:29.727Z</time></trkpt><trkpt lat="42.8782917" lon="2.5762717"><ele>311.0</ele><time>2026-04-26T09:24:30.73Z</time></trkpt><trkpt lat="42.878235" lon="2.5761583"><ele>311.6666666666667</ele><time>2026-04-26T09:24:31.729Z</time></trkpt><trkpt lat="42.87817" lon="2.5760833"><ele>312.33333333333337</ele><time>2026-04-26T09:24:32.728Z</time></trkpt><trkpt lat="42.8781133" lon="2.5760117"><ele>313.0</ele><time>2026-04-26T09:24:33.728Z</time></trkpt><trkpt lat="42.8780533" lon="2.5759517"><ele>313.6666666666667</ele><time>2026-04-26T09:24:34.728Z</time></trkpt><trkpt lat="42.877985" lon="2.5759133"><ele>314.3333333333333</ele><time>2026-04-26T09:24:35.728Z</time></trkpt><trkpt lat="42.877905" lon="2.5759033"><ele>315.0</ele><time>2026-04-26T09:24:36.728Z</time></trkpt><trkpt lat="42.877805" lon="2.5759417"><ele>315.0</ele><time>2026-04-26T09:24:37.728Z</time></trkpt><trkpt lat="42.877685" lon="2.57602"><ele>315.0</ele><time>2026-04-26T09:24:38.727Z</time></trkpt><trkpt lat="42.8775767" lon="2.5760717"><ele>315.0</ele><time>2026-04-26T09:24:39.728Z</time></trkpt><trkpt lat="42.8774617" lon="2.5761317"><ele>315.0</ele><time>2026-04-26T09:24:40.729Z</time></trkpt><trkpt lat="42.87735" lon="2.576205"><ele>314.0</ele><time>2026-04-26T09:24:41.728Z</time></trkpt><trkpt lat="42.8772583" lon="2.5763067"><ele>313.0</ele><time>2026-04-26T09:24:42.727Z</time></trkpt><trkpt lat="42.8771917" lon="2.5764017"><ele>312.0</ele><time>2026-04-26T09:24:43.727Z</time></trkpt><trkpt lat="42.877135" lon="2.5764883"><ele>311.0</ele><time>2026-04-26T09:24:44.727Z</time></trkpt><trkpt lat="42.8770783" lon="2.5765517"><ele>310.0</ele><time>2026-04-26T09:24:45.727Z</time></trkpt><trkpt lat="42.8769883" lon="2.5765033"><ele>310.0</ele><time>2026-04-26T09:24:47.728Z</time></trkpt><trkpt lat="42.8770017" lon="2.576365"><ele>310.0</ele><time>2026-04-26T09:24:48.73Z</time></trkpt><trkpt lat="42.8770133" lon="2.5762517"><ele>310.0</ele><time>2026-04-26T09:24:49.733Z</time></trkpt><trkpt lat="42.8770333" lon="2.5761233"><ele>310.0</ele><time>2026-04-26T09:24:50.731Z</time></trkpt><trkpt lat="42.877035" lon="2.5759883"><ele>310.0</ele><time>2026-04-26T09:24:51.729Z</time></trkpt><trkpt lat="42.8770317" lon="2.57584"><ele>310.6</ele><time>2026-04-26T09:24:52.728Z</time></trkpt><trkpt lat="42.8770217" lon="2.5756833"><ele>311.2</ele><time>2026-04-26T09:24:53.732Z</time></trkpt><trkpt lat="42.8770167" lon="2.5755317"><ele>311.8</ele><time>2026-04-26T09:24:54.729Z</time></trkpt><trkpt lat="42.8770133" lon="2.5754"><ele>312.4</ele><time>2026-04-26T09:24:55.727Z</time></trkpt><trkpt lat="42.87701" lon="2.5752817"><ele>313.0</ele><time>2026-04-26T09:24:56.73Z</time></trkpt><trkpt lat="42.877" lon="2.5751817"><ele>314.4</ele><time>2026-04-26T09:24:57.728Z</time></trkpt><trkpt lat="42.8769117" lon="2.5751083"><ele>315.8</ele><time>2026-04-26T09:24:59.729Z</time></trkpt><trkpt lat="42.8768383" lon="2.5752017"><ele>317.2</ele><time>2026-04-26T09:25:00.728Z</time></trkpt><trkpt lat="42.8767517" lon="2.5752783"><ele>318.6</ele><time>2026-04-26T09:25:01.727Z</time></trkpt><trkpt lat="42.8766767" lon="2.5753067"><ele>320.0</ele><time>2026-04-26T09:25:02.729Z</time></trkpt><trkpt lat="42.8765933" lon="2.575165"><ele>321.2</ele><time>2026-04-26T09:25:04.728Z</time></trkpt><trkpt lat="42.876565" lon="2.5750567"><ele>322.4</ele><time>2026-04-26T09:25:05.729Z</time></trkpt><trkpt lat="42.87658" lon="2.5748817"><ele>323.6</ele><time>2026-04-26T09:25:06.729Z</time></trkpt><trkpt lat="42.87658" lon="2.5747367"><ele>324.8</ele><time>2026-04-26T09:25:07.727Z</time></trkpt><trkpt lat="42.8765667" lon="2.57459"><ele>326.0</ele><time>2026-04-26T09:25:08.728Z</time></trkpt><trkpt lat="42.87654" lon="2.57444"><ele>326.33333333333337</ele><time>2026-04-26T09:25:09.727Z</time></trkpt><trkpt lat="42.876505" lon="2.57432"><ele>326.6666666666667</ele><time>2026-04-26T09:25:10.727Z</time></trkpt><trkpt lat="42.8764467" lon="2.5742383"><ele>327.0</ele><time>2026-04-26T09:25:11.728Z</time></trkpt><trkpt lat="42.876375" lon="2.574175"><ele>327.3333333333333</ele><time>2026-04-26T09:25:12.727Z</time></trkpt><trkpt lat="42.8762917" lon="2.5741683"><ele>327.66666666666663</ele><time>2026-04-26T09:25:13.729Z</time></trkpt><trkpt lat="42.876205" lon="2.574205"><ele>328.0</ele><time>2026-04-26T09:25:14.728Z</time></trkpt><trkpt lat="42.8761133" lon="2.57429"><ele>328.0</ele><time>2026-04-26T09:25:15.727Z</time></trkpt><trkpt lat="42.87603" lon="2.5743417"><ele>328.0</ele><time>2026-04-26T09:25:16.727Z</time></trkpt><trkpt lat="42.8759383" lon="2.5743883"><ele>328.0</ele><time>2026-04-26T09:25:17.73Z</time></trkpt><trkpt lat="42.87584" lon="2.57442"><ele>328.0</ele><time>2026-04-26T09:25:18.731Z</time></trkpt><trkpt lat="42.8757383" lon="2.5744417"><ele>328.0</ele><time>2026-04-26T09:25:19.732Z</time></trkpt><trkpt lat="42.8756367" lon="2.5744617"><ele>329.79999999999995</ele><time>2026-04-26T09:25:20.728Z</time></trkpt><trkpt lat="42.875545" lon="2.57448"><ele>331.6</ele><time>2026-04-26T09:25:21.73Z</time></trkpt><trkpt lat="42.87546" lon="2.5744767"><ele>333.4</ele><time>2026-04-26T09:25:22.729Z</time></trkpt><trkpt lat="42.8753733" lon="2.5744483"><ele>335.20000000000005</ele><time>2026-04-26T09:25:23.729Z</time></trkpt><trkpt lat="42.8752883" lon="2.5743883"><ele>337.0</ele><time>2026-04-26T09:25:24.729Z</time></trkpt><trkpt lat="42.875205" lon="2.574315"><ele>337.0</ele><time>2026-04-26T09:25:25.73Z</time></trkpt><trkpt lat="42.8751233" lon="2.5742433"><ele>337.0</ele><time>2026-04-26T09:25:26.727Z</time></trkpt><trkpt lat="42.8750533" lon="2.5741617"><ele>337.0</ele><time>2026-04-26T09:25:27.73Z</time></trkpt><trkpt lat="42.8749933" lon="2.5740583"><ele>337.0</ele><time>2026-04-26T09:25:28.728Z</time></trkpt><trkpt lat="42.87495" lon="2.573945"><ele>337.0</ele><time>2026-04-26T09:25:29.729Z</time></trkpt><trkpt lat="42.874925" lon="2.5738333"><ele>337.66666666666663</ele><time>2026-04-26T09:25:30.728Z</time></trkpt><trkpt lat="42.8749283" lon="2.5737217"><ele>338.3333333333333</ele><time>2026-04-26T09:25:31.73Z</time></trkpt><trkpt lat="42.8749717" lon="2.57363"><ele>339.0</ele><time>2026-04-26T09:25:32.728Z</time></trkpt><trkpt lat="42.875035" lon="2.5735533"><ele>339.6666666666667</ele><time>2026-04-26T09:25:33.73Z</time></trkpt><trkpt lat="42.87511" lon="2.5734817"><ele>340.33333333333337</ele><time>2026-04-26T09:25:34.729Z</time></trkpt><trkpt lat="42.8751817" lon="2.5734017"><ele>341.0</ele><time>2026-04-26T09:25:35.729Z</time></trkpt><trkpt lat="42.8752283" lon="2.5732867"><ele>341.0</ele><time>2026-04-26T09:25:36.729Z</time></trkpt><trkpt lat="42.8752567" lon="2.5731567"><ele>341.0</ele><time>2026-04-26T09:25:37.729Z</time></trkpt><trkpt lat="42.8752667" lon="2.5730183"><ele>341.0</ele><time>2026-04-26T09:25:38.728Z</time></trkpt><trkpt lat="42.875255" lon="2.5728717"><ele>341.0</ele><time>2026-04-26T09:25:39.73Z</time></trkpt><trkpt lat="42.875245" lon="2.5727283"><ele>341.0</ele><time>2026-04-26T09:25:40.729Z</time></trkpt><trkpt lat="42.875265" lon="2.5725883"><ele>342.20000000000005</ele><time>2026-04-26T09:25:41.729Z</time></trkpt><trkpt lat="42.87531" lon="2.5724583"><ele>343.40000000000003</ele><time>2026-04-26T09:25:42.728Z</time></trkpt><trkpt lat="42.8753633" lon="2.5723233"><ele>344.6</ele><time>2026-04-26T09:25:43.728Z</time></trkpt><trkpt lat="42.8754233" lon="2.5721867"><ele>345.8</ele><time>2026-04-26T09:25:44.73Z</time></trkpt><trkpt lat="42.8754567" lon="2.5720417"><ele>347.0</ele><time>2026-04-26T09:25:45.728Z</time></trkpt><trkpt lat="42.875495" lon="2.5719183"><ele>348.6</ele><time>2026-04-26T09:25:46.729Z</time></trkpt><trkpt lat="42.8755267" lon="2.5718133"><ele>350.20000000000005</ele><time>2026-04-26T09:25:47.727Z</time></trkpt><trkpt lat="42.8755417" lon="2.5717183"><ele>351.8</ele><time>2026-04-26T09:25:48.729Z</time></trkpt><trkpt lat="42.87549" lon="2.571595"><ele>353.4</ele><time>2026-04-26T09:25:50.727Z</time></trkpt><trkpt lat="42.87541" lon="2.5716333"><ele>355.0</ele><time>2026-04-26T09:25:52.728Z</time></trkpt><trkpt lat="42.875345" lon="2.5717517"><ele>355.0</ele><time>2026-04-26T09:25:53.729Z</time></trkpt><trkpt lat="42.875255" lon="2.5719067"><ele>355.0</ele><time>2026-04-26T09:25:54.728Z</time></trkpt><trkpt lat="42.875165" lon="2.5720417"><ele>355.0</ele><time>2026-04-26T09:25:55.728Z</time></trkpt><trkpt lat="42.8750667" lon="2.5721617"><ele>355.0</ele><time>2026-04-26T09:25:56.73Z</time></trkpt><trkpt lat="42.8749633" lon="2.5722567"><ele>356.75</ele><time>2026-04-26T09:25:57.729Z</time></trkpt><trkpt lat="42.874845" lon="2.5723417"><ele>358.5</ele><time>2026-04-26T09:25:58.728Z</time></trkpt><trkpt lat="42.8747383" lon="2.5724033"><ele>360.25</ele><time>2026-04-26T09:25:59.728Z</time></trkpt><trkpt lat="42.8746317" lon="2.572445"><ele>362.0</ele><time>2026-04-26T09:26:00.728Z</time></trkpt><trkpt lat="42.8745317" lon="2.5724583"><ele>362.0</ele><time>2026-04-26T09:26:01.729Z</time></trkpt><trkpt lat="42.8744317" lon="2.5724367"><ele>362.0</ele><time>2026-04-26T09:26:02.728Z</time></trkpt><trkpt lat="42.8743233" lon="2.572395"><ele>362.0</ele><time>2026-04-26T09:26:03.729Z</time></trkpt><trkpt lat="42.8742083" lon="2.5723517"><ele>362.0</ele><time>2026-04-26T09:26:04.728Z</time></trkpt><trkpt lat="42.874085" lon="2.5723067"><ele>363.75</ele><time>2026-04-26T09:26:05.729Z</time></trkpt><trkpt lat="42.87396" lon="2.572265"><ele>365.5</ele><time>2026-04-26T09:26:06.73Z</time></trkpt><trkpt lat="42.8738317" lon="2.5722333"><ele>367.25</ele><time>2026-04-26T09:26:07.728Z</time></trkpt><trkpt lat="42.8737017" lon="2.5722117"><ele>369.0</ele><time>2026-04-26T09:26:08.729Z</time></trkpt><trkpt lat="42.873565" lon="2.5721983"><ele>371.75</ele><time>2026-04-26T09:26:09.728Z</time></trkpt><trkpt lat="42.87343" lon="2.5722033"><ele>374.5</ele><time>2026-04-26T09:26:10.728Z</time></trkpt><trkpt lat="42.8732933" lon="2.5722283"><ele>377.25</ele><time>2026-04-26T09:26:11.728Z</time></trkpt><trkpt lat="42.8731583" lon="2.5722433"><ele>380.0</ele><time>2026-04-26T09:26:12.727Z</time></trkpt><trkpt lat="42.87303" lon="2.5722317"><ele>380.0</ele><time>2026-04-26T09:26:13.728Z</time></trkpt><trkpt lat="42.8729017" lon="2.5722183"><ele>380.0</ele><time>2026-04-26T09:26:14.728Z</time></trkpt><trkpt lat="42.8727733" lon="2.5722267"><ele>380.0</ele><time>2026-04-26T09:26:15.728Z</time></trkpt><trkpt lat="42.8726483" lon="2.5722567"><ele>380.0</ele><time>2026-04-26T09:26:16.727Z</time></trkpt><trkpt lat="42.8725317" lon="2.57231"><ele>382.25</ele><time>2026-04-26T09:26:17.727Z</time></trkpt><trkpt lat="42.872425" lon="2.572395"><ele>384.5</ele><time>2026-04-26T09:26:18.728Z</time></trkpt><trkpt lat="42.8723367" lon="2.5725033"><ele>386.75</ele><time>2026-04-26T09:26:19.728Z</time></trkpt><trkpt lat="42.8722683" lon="2.5726283"><ele>389.0</ele><time>2026-04-26T09:26:20.729Z</time></trkpt><trkpt lat="42.8721967" lon="2.5727333"><ele>389.0</ele><time>2026-04-26T09:26:21.728Z</time></trkpt><trkpt lat="42.8721067" lon="2.5728217"><ele>389.0</ele><time>2026-04-26T09:26:22.727Z</time></trkpt><trkpt lat="42.8720033" lon="2.5728717"><ele>389.0</ele><time>2026-04-26T09:26:23.729Z</time></trkpt><trkpt lat="42.8718917" lon="2.572905"><ele>389.0</ele><time>2026-04-26T09:26:24.728Z</time></trkpt><trkpt lat="42.8717867" lon="2.5729083"><ele>389.0</ele><time>2026-04-26T09:26:25.727Z</time></trkpt><trkpt lat="42.871695" lon="2.5728983"><ele>389.0</ele><time>2026-04-26T09:26:26.729Z</time></trkpt><trkpt lat="42.8716183" lon="2.5728917"><ele>389.0</ele><time>2026-04-26T09:26:27.733Z</time></trkpt><trkpt lat="42.8715233" lon="2.5728667"><ele>389.0</ele><time>2026-04-26T09:26:29.727Z</time></trkpt><trkpt lat="42.871595" lon="2.5727983"><ele>389.0</ele><time>2026-04-26T09:26:33.727Z</time></trkpt><trkpt lat="42.87173" lon="2.572815"><ele>389.0</ele><time>2026-04-26T09:26:35.731Z</time></trkpt><trkpt lat="42.8718217" lon="2.572815"><ele>389.0</ele><time>2026-04-26T09:26:36.728Z</time></trkpt><trkpt lat="42.871925" lon="2.5727833"><ele>389.0</ele><time>2026-04-26T09:26:37.73Z</time></trkpt><trkpt lat="42.8720233" lon="2.57272"><ele>389.0</ele><time>2026-04-26T09:26:38.732Z</time></trkpt><trkpt lat="42.8721117" lon="2.5726217"><ele>389.0</ele><time>2026-04-26T09:26:39.73Z</time></trkpt><trkpt lat="42.8721917" lon="2.572495"><ele>389.0</ele><time>2026-04-26T09:26:40.73Z</time></trkpt><trkpt lat="42.8722717" lon="2.5723517"><ele>389.0</ele><time>2026-04-26T09:26:41.73Z</time></trkpt><trkpt lat="42.8723583" lon="2.57221"><ele>389.0</ele><time>2026-04-26T09:26:42.727Z</time></trkpt><trkpt lat="42.872465" lon="2.5720933"><ele>389.0</ele><time>2026-04-26T09:26:43.73Z</time></trkpt><trkpt lat="42.87259" lon="2.572"><ele>391.5</ele><time>2026-04-26T09:26:44.729Z</time></trkpt><trkpt lat="42.8727267" lon="2.5719367"><ele>394.0</ele><time>2026-04-26T09:26:45.731Z</time></trkpt><trkpt lat="42.87287" lon="2.5718933"><ele>396.5</ele><time>2026-04-26T09:26:46.728Z</time></trkpt><trkpt lat="42.8730217" lon="2.5718517"><ele>399.0</ele><time>2026-04-26T09:26:47.728Z</time></trkpt><trkpt lat="42.8731783" lon="2.5718033"><ele>399.0</ele><time>2026-04-26T09:26:48.73Z</time></trkpt><trkpt lat="42.8733367" lon="2.5717567"><ele>399.0</ele><time>2026-04-26T09:26:49.731Z</time></trkpt><trkpt lat="42.8734917" lon="2.5717167"><ele>399.0</ele><time>2026-04-26T09:26:50.729Z</time></trkpt><trkpt lat="42.8736417" lon="2.5716767"><ele>397.0</ele><time>2026-04-26T09:26:51.729Z</time></trkpt><trkpt lat="42.8737817" lon="2.5716317"><ele>395.0</ele><time>2026-04-26T09:26:52.73Z</time></trkpt><trkpt lat="42.8739083" lon="2.57158"><ele>393.0</ele><time>2026-04-26T09:26:53.728Z</time></trkpt><trkpt lat="42.874025" lon="2.5715083"><ele>391.0</ele><time>2026-04-26T09:26:54.729Z</time></trkpt><trkpt lat="42.874135" lon="2.57141"><ele>391.0</ele><time>2026-04-26T09:26:55.728Z</time></trkpt><trkpt lat="42.8742367" lon="2.5712817"><ele>391.0</ele><time>2026-04-26T09:26:56.728Z</time></trkpt><trkpt lat="42.874325" lon="2.5711333"><ele>391.0</ele><time>2026-04-26T09:26:57.729Z</time></trkpt><trkpt lat="42.8743933" lon="2.57096"><ele>391.0</ele><time>2026-04-26T09:26:58.728Z</time></trkpt><trkpt lat="42.874445" lon="2.5707683"><ele>388.6666666666667</ele><time>2026-04-26T09:26:59.729Z</time></trkpt><trkpt lat="42.87448" lon="2.5705667"><ele>386.33333333333337</ele><time>2026-04-26T09:27:00.729Z</time></trkpt><trkpt lat="42.87452" lon="2.570355"><ele>384.0</ele><time>2026-04-26T09:27:01.73Z</time></trkpt><trkpt lat="42.8745633" lon="2.5701533"><ele>384.0</ele><time>2026-04-26T09:27:02.729Z</time></trkpt><trkpt lat="42.8746117" lon="2.5699567"><ele>384.0</ele><time>2026-04-26T09:27:03.729Z</time></trkpt><trkpt lat="42.8746683" lon="2.5697683"><ele>384.0</ele><time>2026-04-26T09:27:04.728Z</time></trkpt><trkpt lat="42.8747383" lon="2.569595"><ele>384.0</ele><time>2026-04-26T09:27:05.729Z</time></trkpt><trkpt lat="42.8748317" lon="2.569445"><ele>381.6666666666667</ele><time>2026-04-26T09:27:06.729Z</time></trkpt><trkpt lat="42.8749417" lon="2.5693117"><ele>379.33333333333337</ele><time>2026-04-26T09:27:07.731Z</time></trkpt><trkpt lat="42.875065" lon="2.5691833"><ele>377.0</ele><time>2026-04-26T09:27:08.729Z</time></trkpt><trkpt lat="42.8751933" lon="2.5690483"><ele>377.0</ele><time>2026-04-26T09:27:09.73Z</time></trkpt><trkpt lat="42.8753267" lon="2.5689083"><ele>377.0</ele><time>2026-04-26T09:27:10.728Z</time></trkpt><trkpt lat="42.8754667" lon="2.5687683"><ele>377.0</ele><time>2026-04-26T09:27:11.729Z</time></trkpt><trkpt lat="42.8756033" lon="2.5686317"><ele>376.33333333333337</ele><time>2026-04-26T09:27:12.729Z</time></trkpt><trkpt lat="42.8757383" lon="2.5684933"><ele>375.6666666666667</ele><time>2026-04-26T09:27:13.73Z</time></trkpt><trkpt lat="42.8758683" lon="2.5683583"><ele>375.0</ele><time>2026-04-26T09:27:14.729Z</time></trkpt><trkpt lat="42.875985" lon="2.56822"><ele>375.0</ele><time>2026-04-26T09:27:15.727Z</time></trkpt><trkpt lat="42.8760867" lon="2.5680717"><ele>375.0</ele><time>2026-04-26T09:27:16.729Z</time></trkpt><trkpt lat="42.8761633" lon="2.5678967"><ele>375.0</ele><time>2026-04-26T09:27:17.731Z</time></trkpt><trkpt lat="42.8762167" lon="2.567705"><ele>375.0</ele><time>2026-04-26T09:27:18.729Z</time></trkpt><trkpt lat="42.8762567" lon="2.567495"><ele>375.3333333333333</ele><time>2026-04-26T09:27:19.729Z</time></trkpt><trkpt lat="42.876285" lon="2.5672767"><ele>375.66666666666663</ele><time>2026-04-26T09:27:20.729Z</time></trkpt><trkpt lat="42.876295" lon="2.5670383"><ele>376.0</ele><time>2026-04-26T09:27:21.728Z</time></trkpt><trkpt lat="42.876295" lon="2.566815"><ele>376.0</ele><time>2026-04-26T09:27:22.728Z</time></trkpt><trkpt lat="42.876305" lon="2.566595"><ele>376.0</ele><time>2026-04-26T09:27:23.728Z</time></trkpt><trkpt lat="42.876345" lon="2.5663717"><ele>376.0</ele><time>2026-04-26T09:27:24.73Z</time></trkpt><trkpt lat="42.876395" lon="2.5661467"><ele>378.0</ele><time>2026-04-26T09:27:25.728Z</time></trkpt><trkpt lat="42.8764433" lon="2.56592"><ele>380.0</ele><time>2026-04-26T09:27:26.73Z</time></trkpt><trkpt lat="42.876475" lon="2.5656833"><ele>382.0</ele><time>2026-04-26T09:27:27.729Z</time></trkpt><trkpt lat="42.8765067" lon="2.5654467"><ele>384.0</ele><time>2026-04-26T09:27:28.729Z</time></trkpt><trkpt lat="42.8765383" lon="2.5652017"><ele>386.0</ele><time>2026-04-26T09:27:29.729Z</time></trkpt><trkpt lat="42.8765733" lon="2.56496"><ele>388.0</ele><time>2026-04-26T09:27:30.727Z</time></trkpt><trkpt lat="42.87661" lon="2.5647217"><ele>388.0</ele><time>2026-04-26T09:27:31.727Z</time></trkpt><trkpt lat="42.8766467" lon="2.5644917"><ele>388.0</ele><time>2026-04-26T09:27:32.729Z</time></trkpt><trkpt lat="42.8766883" lon="2.564275"><ele>388.0</ele><time>2026-04-26T09:27:33.728Z</time></trkpt><trkpt lat="42.8767383" lon="2.5640783"><ele>384.0</ele><time>2026-04-26T09:27:34.727Z</time></trkpt><trkpt lat="42.8767933" lon="2.5638917"><ele>380.0</ele><time>2026-04-26T09:27:35.729Z</time></trkpt><trkpt lat="42.8768417" lon="2.5637067"><ele>376.0</ele><time>2026-04-26T09:27:36.728Z</time></trkpt><trkpt lat="42.8768617" lon="2.56351"><ele>372.0</ele><time>2026-04-26T09:27:37.728Z</time></trkpt><trkpt lat="42.87684" lon="2.56331"><ele>372.0</ele><time>2026-04-26T09:27:38.73Z</time></trkpt><trkpt lat="42.8767833" lon="2.56311"><ele>372.0</ele><time>2026-04-26T09:27:39.734Z</time></trkpt><trkpt lat="42.8767267" lon="2.5629083"><ele>372.0</ele><time>2026-04-26T09:27:40.727Z</time></trkpt><trkpt lat="42.8766817" lon="2.562695"><ele>377.0</ele><time>2026-04-26T09:27:41.731Z</time></trkpt><trkpt lat="42.8766483" lon="2.5624833"><ele>382.0</ele><time>2026-04-26T09:27:42.727Z</time></trkpt><trkpt lat="42.8766017" lon="2.5622917"><ele>387.0</ele><time>2026-04-26T09:27:43.728Z</time></trkpt><trkpt lat="42.8765567" lon="2.5621067"><ele>392.0</ele><time>2026-04-26T09:27:44.728Z</time></trkpt><trkpt lat="42.87653" lon="2.5619183"><ele>393.0</ele><time>2026-04-26T09:27:45.729Z</time></trkpt><trkpt lat="42.8765483" lon="2.561725"><ele>394.0</ele><time>2026-04-26T09:27:46.729Z</time></trkpt><trkpt lat="42.876605" lon="2.5615367"><ele>395.0</ele><time>2026-04-26T09:27:47.728Z</time></trkpt><trkpt lat="42.87668" lon="2.561345"><ele>396.66666666666663</ele><time>2026-04-26T09:27:48.728Z</time></trkpt><trkpt lat="42.8767667" lon="2.5611617"><ele>398.33333333333337</ele><time>2026-04-26T09:27:49.728Z</time></trkpt><trkpt lat="42.87687" lon="2.560995"><ele>400.0</ele><time>2026-04-26T09:27:50.729Z</time></trkpt><trkpt lat="42.8769967" lon="2.5608617"><ele>396.33333333333337</ele><time>2026-04-26T09:27:51.732Z</time></trkpt><trkpt lat="42.8771317" lon="2.560745"><ele>392.66666666666663</ele><time>2026-04-26T09:27:52.728Z</time></trkpt><trkpt lat="42.8772567" lon="2.5606233"><ele>389.0</ele><time>2026-04-26T09:27:53.732Z</time></trkpt><trkpt lat="42.8773633" lon="2.5604767"><ele>391.3333333333333</ele><time>2026-04-26T09:27:54.728Z</time></trkpt><trkpt lat="42.8774383" lon="2.5603"><ele>393.66666666666663</ele><time>2026-04-26T09:27:55.73Z</time></trkpt><trkpt lat="42.87747" lon="2.5600917"><ele>396.0</ele><time>2026-04-26T09:27:56.733Z</time></trkpt><trkpt lat="42.8774717" lon="2.55987"><ele>396.0</ele><time>2026-04-26T09:27:57.728Z</time></trkpt><trkpt lat="42.8774767" lon="2.5596483"><ele>396.0</ele><time>2026-04-26T09:27:58.728Z</time></trkpt><trkpt lat="42.8774867" lon="2.5594217"><ele>396.0</ele><time>2026-04-26T09:27:59.729Z</time></trkpt><trkpt lat="42.8775" lon="2.5591967"><ele>397.0</ele><time>2026-04-26T09:28:00.728Z</time></trkpt><trkpt lat="42.877495" lon="2.5589683"><ele>398.0</ele><time>2026-04-26T09:28:01.73Z</time></trkpt><trkpt lat="42.8774633" lon="2.5587467"><ele>399.0</ele><time>2026-04-26T09:28:02.728Z</time></trkpt><trkpt lat="42.8774083" lon="2.5585333"><ele>399.33333333333337</ele><time>2026-04-26T09:28:03.729Z</time></trkpt><trkpt lat="42.877345" lon="2.5583233"><ele>399.6666666666667</ele><time>2026-04-26T09:28:04.729Z</time></trkpt><trkpt lat="42.877305" lon="2.558105"><ele>400.0</ele><time>2026-04-26T09:28:05.73Z</time></trkpt><trkpt lat="42.8773017" lon="2.5578817"><ele>401.0</ele><time>2026-04-26T09:28:06.728Z</time></trkpt><trkpt lat="42.8773333" lon="2.5576583"><ele>402.0</ele><time>2026-04-26T09:28:07.728Z</time></trkpt><trkpt lat="42.8773767" lon="2.5574333"><ele>403.0</ele><time>2026-04-26T09:28:08.729Z</time></trkpt><trkpt lat="42.8774217" lon="2.5572117"><ele>404.33333333333337</ele><time>2026-04-26T09:28:09.729Z</time></trkpt><trkpt lat="42.8774617" lon="2.5569883"><ele>405.66666666666663</ele><time>2026-04-26T09:28:10.73Z</time></trkpt><trkpt lat="42.8774867" lon="2.55676"><ele>407.0</ele><time>2026-04-26T09:28:11.734Z</time></trkpt><trkpt lat="42.8774983" lon="2.55654"><ele>407.0</ele><time>2026-04-26T09:28:12.728Z</time></trkpt><trkpt lat="42.8775067" lon="2.5563383"><ele>407.0</ele><time>2026-04-26T09:28:13.729Z</time></trkpt><trkpt lat="42.8775283" lon="2.55615"><ele>407.0</ele><time>2026-04-26T09:28:14.729Z</time></trkpt><trkpt lat="42.8775633" lon="2.5559717"><ele>407.0</ele><time>2026-04-26T09:28:15.728Z</time></trkpt><trkpt lat="42.8775983" lon="2.5557967"><ele>408.0</ele><time>2026-04-26T09:28:16.728Z</time></trkpt><trkpt lat="42.8775983" lon="2.5556217"><ele>409.0</ele><time>2026-04-26T09:28:17.729Z</time></trkpt><trkpt lat="42.8776133" lon="2.5554583"><ele>410.0</ele><time>2026-04-26T09:28:18.73Z</time></trkpt><trkpt lat="42.8776567" lon="2.5553117"><ele>411.0</ele><time>2026-04-26T09:28:19.729Z</time></trkpt><trkpt lat="42.8777317" lon="2.5551883"><ele>406.0</ele><time>2026-04-26T09:28:20.731Z</time></trkpt><trkpt lat="42.8778183" lon="2.555075"><ele>401.0</ele><time>2026-04-26T09:28:21.734Z</time></trkpt><trkpt lat="42.8778967" lon="2.5549533"><ele>396.0</ele><time>2026-04-26T09:28:22.73Z</time></trkpt><trkpt lat="42.8779617" lon="2.554815"><ele>391.0</ele><time>2026-04-26T09:28:23.731Z</time></trkpt><trkpt lat="42.87802" lon="2.5546767"><ele>391.0</ele><time>2026-04-26T09:28:24.728Z</time></trkpt><trkpt lat="42.87808" lon="2.5545467"><ele>391.0</ele><time>2026-04-26T09:28:25.731Z</time></trkpt><trkpt lat="42.8781333" lon="2.5544183"><ele>391.0</ele><time>2026-04-26T09:28:26.729Z</time></trkpt><trkpt lat="42.8781833" lon="2.5543033"><ele>391.0</ele><time>2026-04-26T09:28:27.729Z</time></trkpt><trkpt lat="42.8782317" lon="2.5541933"><ele>391.0</ele><time>2026-04-26T09:28:28.729Z</time></trkpt><trkpt lat="42.87827" lon="2.5540883"><ele>391.6666666666667</ele><time>2026-04-26T09:28:29.728Z</time></trkpt><trkpt lat="42.8783" lon="2.554"><ele>392.33333333333337</ele><time>2026-04-26T09:28:30.73Z</time></trkpt><trkpt lat="42.878345" lon="2.5538717"><ele>393.0</ele><time>2026-04-26T09:28:32.729Z</time></trkpt><trkpt lat="42.8783817" lon="2.5539583"><ele>393.66666666666663</ele><time>2026-04-26T09:28:36.728Z</time></trkpt><trkpt lat="42.8783533" lon="2.5540833"><ele>394.3333333333333</ele><time>2026-04-26T09:28:38.728Z</time></trkpt><trkpt lat="42.8783367" lon="2.5541683"><ele>395.0</ele><time>2026-04-26T09:28:39.728Z</time></trkpt><trkpt lat="42.878315" lon="2.5542667"><ele>395.0</ele><time>2026-04-26T09:28:40.731Z</time></trkpt><trkpt lat="42.878295" lon="2.55438"><ele>395.0</ele><time>2026-04-26T09:28:41.733Z</time></trkpt><trkpt lat="42.87828" lon="2.5545133"><ele>395.0</ele><time>2026-04-26T09:28:42.73Z</time></trkpt><trkpt lat="42.8782617" lon="2.5546483"><ele>395.0</ele><time>2026-04-26T09:28:43.729Z</time></trkpt><trkpt lat="42.8782483" lon="2.55478"><ele>395.0</ele><time>2026-04-26T09:28:44.729Z</time></trkpt><trkpt lat="42.87823" lon="2.5549033"><ele>395.3333333333333</ele><time>2026-04-26T09:28:45.728Z</time></trkpt><trkpt lat="42.8782183" lon="2.5550217"><ele>395.66666666666663</ele><time>2026-04-26T09:28:46.728Z</time></trkpt><trkpt lat="42.8782117" lon="2.555135"><ele>396.0</ele><time>2026-04-26T09:28:47.728Z</time></trkpt><trkpt lat="42.8782183" lon="2.5552417"><ele>396.33333333333337</ele><time>2026-04-26T09:28:48.729Z</time></trkpt><trkpt lat="42.8782467" lon="2.5553283"><ele>396.6666666666667</ele><time>2026-04-26T09:28:49.732Z</time></trkpt><trkpt lat="42.878295" lon="2.5553967"><ele>397.0</ele><time>2026-04-26T09:28:50.728Z</time></trkpt><trkpt lat="42.8783617" lon="2.5554417"><ele>393.1666666666667</ele><time>2026-04-26T09:28:51.731Z</time></trkpt><trkpt lat="42.8784417" lon="2.55549"><ele>389.33333333333337</ele><time>2026-04-26T09:28:52.729Z</time></trkpt><trkpt lat="42.8785217" lon="2.5555317"><ele>385.5</ele><time>2026-04-26T09:28:53.729Z</time></trkpt><trkpt lat="42.8786033" lon="2.5555717"><ele>381.6666666666667</ele><time>2026-04-26T09:28:54.728Z</time></trkpt><trkpt lat="42.878675" lon="2.5556183"><ele>377.83333333333337</ele><time>2026-04-26T09:28:55.729Z</time></trkpt><trkpt lat="42.878745" lon="2.55568"><ele>374.0</ele><time>2026-04-26T09:28:56.731Z</time></trkpt><trkpt lat="42.8788117" lon="2.55577"><ele>374.0</ele><time>2026-04-26T09:28:57.73Z</time></trkpt><trkpt lat="42.8788683" lon="2.5558767"><ele>374.0</ele><time>2026-04-26T09:28:58.728Z</time></trkpt><trkpt lat="42.8789183" lon="2.5559967"><ele>374.0</ele><time>2026-04-26T09:28:59.73Z</time></trkpt><trkpt lat="42.878975" lon="2.55612"><ele>374.0</ele><time>2026-04-26T09:29:00.728Z</time></trkpt><trkpt lat="42.87903" lon="2.5562417"><ele>374.0</ele><time>2026-04-26T09:29:01.729Z</time></trkpt><trkpt lat="42.8790867" lon="2.5563567"><ele>372.0</ele><time>2026-04-26T09:29:02.729Z</time></trkpt><trkpt lat="42.879145" lon="2.5564633"><ele>370.0</ele><time>2026-04-26T09:29:03.729Z</time></trkpt><trkpt lat="42.8792133" lon="2.556555"><ele>368.0</ele><time>2026-04-26T09:29:04.727Z</time></trkpt><trkpt lat="42.8792917" lon="2.5566417"><ele>366.0</ele><time>2026-04-26T09:29:05.728Z</time></trkpt><trkpt lat="42.879375" lon="2.5567267"><ele>364.0</ele><time>2026-04-26T09:29:06.728Z</time></trkpt><trkpt lat="42.87946" lon="2.55682"><ele>364.0</ele><time>2026-04-26T09:29:07.728Z</time></trkpt><trkpt lat="42.8795467" lon="2.5569183"><ele>364.0</ele><time>2026-04-26T09:29:08.728Z</time></trkpt><trkpt lat="42.87963" lon="2.55703"><ele>364.0</ele><time>2026-04-26T09:29:09.729Z</time></trkpt><trkpt lat="42.8797167" lon="2.5571333"><ele>364.0</ele><time>2026-04-26T09:29:10.732Z</time></trkpt><trkpt lat="42.8798017" lon="2.557225"><ele>362.4</ele><time>2026-04-26T09:29:11.729Z</time></trkpt><trkpt lat="42.8798867" lon="2.55731"><ele>360.79999999999995</ele><time>2026-04-26T09:29:12.728Z</time></trkpt><trkpt lat="42.8799633" lon="2.5573967"><ele>359.20000000000005</ele><time>2026-04-26T09:29:13.728Z</time></trkpt><trkpt lat="42.8800333" lon="2.557495"><ele>357.6</ele><time>2026-04-26T09:29:14.73Z</time></trkpt><trkpt lat="42.8801033" lon="2.5576083"><ele>356.0</ele><time>2026-04-26T09:29:15.729Z</time></trkpt><trkpt lat="42.88017" lon="2.5577283"><ele>356.0</ele><time>2026-04-26T09:29:16.728Z</time></trkpt><trkpt lat="42.8802383" lon="2.557845"><ele>356.0</ele><time>2026-04-26T09:29:17.733Z</time></trkpt><trkpt lat="42.8803133" lon="2.5579433"><ele>356.0</ele><time>2026-04-26T09:29:18.729Z</time></trkpt><trkpt lat="42.8803867" lon="2.5580283"><ele>356.0</ele><time>2026-04-26T09:29:19.729Z</time></trkpt><trkpt lat="42.880455" lon="2.55811"><ele>356.0</ele><time>2026-04-26T09:29:20.729Z</time></trkpt><trkpt lat="42.8805133" lon="2.558195"><ele>357.33333333333337</ele><time>2026-04-26T09:29:21.73Z</time></trkpt><trkpt lat="42.8805583" lon="2.5582733"><ele>358.6666666666667</ele><time>2026-04-26T09:29:22.732Z</time></trkpt><trkpt lat="42.88062" lon="2.558375"><ele>360.0</ele><time>2026-04-26T09:29:24.728Z</time></trkpt><trkpt lat="42.8806567" lon="2.5582983"><ele>361.3333333333333</ele><time>2026-04-26T09:29:27.728Z</time></trkpt><trkpt lat="42.8806217" lon="2.5581617"><ele>362.66666666666663</ele><time>2026-04-26T09:29:29.729Z</time></trkpt><trkpt lat="42.8805717" lon="2.558065"><ele>364.0</ele><time>2026-04-26T09:29:30.731Z</time></trkpt><trkpt lat="42.880515" lon="2.5579567"><ele>362.4</ele><time>2026-04-26T09:29:31.728Z</time></trkpt><trkpt lat="42.8804767" lon="2.5578417"><ele>360.79999999999995</ele><time>2026-04-26T09:29:32.731Z</time></trkpt><trkpt lat="42.8804483" lon="2.5577183"><ele>359.20000000000005</ele><time>2026-04-26T09:29:33.728Z</time></trkpt><trkpt lat="42.8804133" lon="2.55758"><ele>357.6</ele><time>2026-04-26T09:29:34.731Z</time></trkpt><trkpt lat="42.88038" lon="2.5574317"><ele>356.0</ele><time>2026-04-26T09:29:35.729Z</time></trkpt><trkpt lat="42.88035" lon="2.5572833"><ele>356.0</ele><time>2026-04-26T09:29:36.73Z</time></trkpt><trkpt lat="42.8803267" lon="2.557135"><ele>356.0</ele><time>2026-04-26T09:29:37.73Z</time></trkpt><trkpt lat="42.88031" lon="2.5569917"><ele>356.0</ele><time>2026-04-26T09:29:38.729Z</time></trkpt><trkpt lat="42.8802933" lon="2.55684"><ele>356.0</ele><time>2026-04-26T09:29:39.73Z</time></trkpt><trkpt lat="42.8802833" lon="2.5566917"><ele>356.0</ele><time>2026-04-26T09:29:40.728Z</time></trkpt><trkpt lat="42.8802733" lon="2.5565283"><ele>355.20000000000005</ele><time>2026-04-26T09:29:41.73Z</time></trkpt><trkpt lat="42.8802667" lon="2.5563717"><ele>354.40000000000003</ele><time>2026-04-26T09:29:42.73Z</time></trkpt><trkpt lat="42.8802583" lon="2.556225"><ele>353.6</ele><time>2026-04-26T09:29:43.729Z</time></trkpt><trkpt lat="42.8802483" lon="2.556095"><ele>352.8</ele><time>2026-04-26T09:29:44.732Z</time></trkpt><trkpt lat="42.8802367" lon="2.555975"><ele>352.0</ele><time>2026-04-26T09:29:45.729Z</time></trkpt><trkpt lat="42.8802267" lon="2.5558633"><ele>351.66666666666663</ele><time>2026-04-26T09:29:46.727Z</time></trkpt><trkpt lat="42.880215" lon="2.55576"><ele>351.3333333333333</ele><time>2026-04-26T09:29:47.727Z</time></trkpt><trkpt lat="42.8802083" lon="2.5556617"><ele>351.0</ele><time>2026-04-26T09:29:48.728Z</time></trkpt><trkpt lat="42.8801983" lon="2.5555633"><ele>350.6666666666667</ele><time>2026-04-26T09:29:49.729Z</time></trkpt><trkpt lat="42.8801933" lon="2.5554517"><ele>350.33333333333337</ele><time>2026-04-26T09:29:50.728Z</time></trkpt><trkpt lat="42.88019" lon="2.5553283"><ele>350.0</ele><time>2026-04-26T09:29:51.728Z</time></trkpt><trkpt lat="42.8801817" lon="2.5551983"><ele>349.83333333333337</ele><time>2026-04-26T09:29:52.728Z</time></trkpt><trkpt lat="42.88016" lon="2.55507"><ele>349.6666666666667</ele><time>2026-04-26T09:29:53.727Z</time></trkpt><trkpt lat="42.8801367" lon="2.5549533"><ele>349.5</ele><time>2026-04-26T09:29:54.727Z</time></trkpt><trkpt lat="42.8801083" lon="2.5548483"><ele>349.3333333333333</ele><time>2026-04-26T09:29:55.729Z</time></trkpt><trkpt lat="42.8800833" lon="2.5547583"><ele>349.16666666666663</ele><time>2026-04-26T09:29:56.728Z</time></trkpt><trkpt lat="42.88006" lon="2.5546117"><ele>349.0</ele><time>2026-04-26T09:29:58.728Z</time></trkpt><trkpt lat="42.8801567" lon="2.554515"><ele>348.6</ele><time>2026-04-26T09:30:00.728Z</time></trkpt><trkpt lat="42.8802383" lon="2.5544833"><ele>348.2</ele><time>2026-04-26T09:30:01.729Z</time></trkpt><trkpt lat="42.8803317" lon="2.5544583"><ele>347.8</ele><time>2026-04-26T09:30:02.728Z</time></trkpt><trkpt lat="42.8804267" lon="2.554435"><ele>347.40000000000003</ele><time>2026-04-26T09:30:03.73Z</time></trkpt><trkpt lat="42.8805383" lon="2.5544167"><ele>347.0</ele><time>2026-04-26T09:30:04.727Z</time></trkpt><trkpt lat="42.8806517" lon="2.554385"><ele>347.0</ele><time>2026-04-26T09:30:05.728Z</time></trkpt><trkpt lat="42.88077" lon="2.5543517"><ele>347.0</ele><time>2026-04-26T09:30:06.728Z</time></trkpt><trkpt lat="42.8808917" lon="2.5543167"><ele>347.0</ele><time>2026-04-26T09:30:07.728Z</time></trkpt><trkpt lat="42.88101" lon="2.5542983"><ele>347.0</ele><time>2026-04-26T09:30:08.73Z</time></trkpt><trkpt lat="42.8811267" lon="2.5542933"><ele>345.75</ele><time>2026-04-26T09:30:09.728Z</time></trkpt><trkpt lat="42.881245" lon="2.5542967"><ele>344.5</ele><time>2026-04-26T09:30:10.727Z</time></trkpt><trkpt lat="42.8813683" lon="2.5542883"><ele>343.25</ele><time>2026-04-26T09:30:11.728Z</time></trkpt><trkpt lat="42.8814917" lon="2.5542633"><ele>342.0</ele><time>2026-04-26T09:30:12.727Z</time></trkpt><trkpt lat="42.8816167" lon="2.554225"><ele>342.0</ele><time>2026-04-26T09:30:13.73Z</time></trkpt><trkpt lat="42.8817383" lon="2.55418"><ele>342.0</ele><time>2026-04-26T09:30:14.728Z</time></trkpt><trkpt lat="42.8818533" lon="2.554135"><ele>342.0</ele><time>2026-04-26T09:30:15.728Z</time></trkpt><trkpt lat="42.8819717" lon="2.5540917"><ele>342.0</ele><time>2026-04-26T09:30:16.729Z</time></trkpt><trkpt lat="42.8820933" lon="2.5540633"><ele>341.25</ele><time>2026-04-26T09:30:17.729Z</time></trkpt><trkpt lat="42.88222" lon="2.554055"><ele>340.5</ele><time>2026-04-26T09:30:18.729Z</time></trkpt><trkpt lat="42.8823433" lon="2.5540633"><ele>339.75</ele><time>2026-04-26T09:30:19.728Z</time></trkpt><trkpt lat="42.8824567" lon="2.5540717"><ele>339.0</ele><time>2026-04-26T09:30:20.728Z</time></trkpt><trkpt lat="42.8825617" lon="2.5540583"><ele>339.2</ele><time>2026-04-26T09:30:21.729Z</time></trkpt><trkpt lat="42.8826533" lon="2.5540067"><ele>339.4</ele><time>2026-04-26T09:30:22.727Z</time></trkpt><trkpt lat="42.8827417" lon="2.5539417"><ele>339.6</ele><time>2026-04-26T09:30:23.727Z</time></trkpt><trkpt lat="42.882835" lon="2.5538833"><ele>339.8</ele><time>2026-04-26T09:30:24.727Z</time></trkpt><trkpt lat="42.882935" lon="2.5538517"><ele>340.0</ele><time>2026-04-26T09:30:25.728Z</time></trkpt><trkpt lat="42.88304" lon="2.5538633"><ele>340.0</ele><time>2026-04-26T09:30:26.728Z</time></trkpt><trkpt lat="42.88315" lon="2.5538867"><ele>340.0</ele><time>2026-04-26T09:30:27.726Z</time></trkpt><trkpt lat="42.8832683" lon="2.5538917"><ele>340.0</ele><time>2026-04-26T09:30:28.728Z</time></trkpt><trkpt lat="42.8833883" lon="2.553855"><ele>340.0</ele><time>2026-04-26T09:30:29.731Z</time></trkpt><trkpt lat="42.8835033" lon="2.5537983"><ele>341.6</ele><time>2026-04-26T09:30:30.728Z</time></trkpt><trkpt lat="42.8836067" lon="2.5537383"><ele>343.2</ele><time>2026-04-26T09:30:31.728Z</time></trkpt><trkpt lat="42.8837" lon="2.5536783"><ele>344.79999999999995</ele><time>2026-04-26T09:30:32.728Z</time></trkpt><trkpt lat="42.883785" lon="2.5536283"><ele>346.4</ele><time>2026-04-26T09:30:33.731Z</time></trkpt><trkpt lat="42.8838583" lon="2.5535867"><ele>348.0</ele><time>2026-04-26T09:30:34.729Z</time></trkpt><trkpt lat="42.88392" lon="2.553545"><ele>348.0</ele><time>2026-04-26T09:30:35.728Z</time></trkpt><trkpt lat="42.883995" lon="2.553425"><ele>348.0</ele><time>2026-04-26T09:30:37.728Z</time></trkpt><trkpt lat="42.8839883" lon="2.55325"><ele>348.0</ele><time>2026-04-26T09:30:39.73Z</time></trkpt><trkpt lat="42.883975" lon="2.553145"><ele>348.0</ele><time>2026-04-26T09:30:40.727Z</time></trkpt><trkpt lat="42.8839583" lon="2.5530383"><ele>348.0</ele><time>2026-04-26T09:30:41.727Z</time></trkpt><trkpt lat="42.8839367" lon="2.5529367"><ele>348.79999999999995</ele><time>2026-04-26T09:30:42.727Z</time></trkpt><trkpt lat="42.8839133" lon="2.5528483"><ele>349.6</ele><time>2026-04-26T09:30:43.728Z</time></trkpt><trkpt lat="42.8839217" lon="2.5527333"><ele>350.4</ele><time>2026-04-26T09:30:45.728Z</time></trkpt><trkpt lat="42.8840383" lon="2.5526783"><ele>351.20000000000005</ele><time>2026-04-26T09:30:47.729Z</time></trkpt><trkpt lat="42.8841183" lon="2.5526533"><ele>352.0</ele><time>2026-04-26T09:30:48.729Z</time></trkpt><trkpt lat="42.8842217" lon="2.5526083"><ele>354.16666666666663</ele><time>2026-04-26T09:30:49.728Z</time></trkpt><trkpt lat="42.8843183" lon="2.552555"><ele>356.3333333333333</ele><time>2026-04-26T09:30:50.727Z</time></trkpt><trkpt lat="42.8844" lon="2.5525033"><ele>358.5</ele><time>2026-04-26T09:30:51.728Z</time></trkpt><trkpt lat="42.8844617" lon="2.55245"><ele>360.6666666666667</ele><time>2026-04-26T09:30:52.73Z</time></trkpt><trkpt lat="42.8845067" lon="2.5523267"><ele>362.83333333333337</ele><time>2026-04-26T09:30:54.728Z</time></trkpt><trkpt lat="42.884485" lon="2.5522417"><ele>365.0</ele><time>2026-04-26T09:30:55.728Z</time></trkpt><trkpt lat="42.8844517" lon="2.5521483"><ele>365.0</ele><time>2026-04-26T09:30:56.728Z</time></trkpt><trkpt lat="42.8844483" lon="2.55205"><ele>365.0</ele><time>2026-04-26T09:30:57.728Z</time></trkpt><trkpt lat="42.8844517" lon="2.5519467"><ele>365.0</ele><time>2026-04-26T09:30:58.728Z</time></trkpt><trkpt lat="42.8844433" lon="2.55183"><ele>365.0</ele><time>2026-04-26T09:30:59.728Z</time></trkpt><trkpt lat="42.88442" lon="2.5517083"><ele>365.0</ele><time>2026-04-26T09:31:00.728Z</time></trkpt><trkpt lat="42.88438" lon="2.5515783"><ele>365.0</ele><time>2026-04-26T09:31:01.73Z</time></trkpt><trkpt lat="42.8843367" lon="2.5514533"><ele>365.0</ele><time>2026-04-26T09:31:02.729Z</time></trkpt><trkpt lat="42.8842933" lon="2.55133"><ele>365.0</ele><time>2026-04-26T09:31:03.731Z</time></trkpt><trkpt lat="42.8842483" lon="2.551205"><ele>365.0</ele><time>2026-04-26T09:31:04.729Z</time></trkpt><trkpt lat="42.8842117" lon="2.5511"><ele>365.0</ele><time>2026-04-26T09:31:05.728Z</time></trkpt><trkpt lat="42.88419" lon="2.5509567"><ele>365.0</ele><time>2026-04-26T09:31:07.729Z</time></trkpt><trkpt lat="42.8842417" lon="2.5508883"><ele>366.6666666666667</ele><time>2026-04-26T09:31:09.729Z</time></trkpt><trkpt lat="42.8843133" lon="2.5509483"><ele>368.33333333333337</ele><time>2026-04-26T09:31:11.729Z</time></trkpt><trkpt lat="42.884355" lon="2.5510317"><ele>370.0</ele><time>2026-04-26T09:31:12.727Z</time></trkpt><trkpt lat="42.8844017" lon="2.5511167"><ele>371.6666666666667</ele><time>2026-04-26T09:31:13.727Z</time></trkpt><trkpt lat="42.884475" lon="2.5511983"><ele>373.3333333333333</ele><time>2026-04-26T09:31:14.73Z</time></trkpt><trkpt lat="42.8845617" lon="2.5512883"><ele>375.0</ele><time>2026-04-26T09:31:15.728Z</time></trkpt><trkpt lat="42.8846483" lon="2.5513833"><ele>375.0</ele><time>2026-04-26T09:31:16.729Z</time></trkpt><trkpt lat="42.884735" lon="2.55148"><ele>375.0</ele><time>2026-04-26T09:31:17.727Z</time></trkpt><trkpt lat="42.884825" lon="2.5515783"><ele>375.0</ele><time>2026-04-26T09:31:18.728Z</time></trkpt><trkpt lat="42.88492" lon="2.5516783"><ele>375.0</ele><time>2026-04-26T09:31:19.728Z</time></trkpt><trkpt lat="42.8850167" lon="2.5517817"><ele>377.25</ele><time>2026-04-26T09:31:20.729Z</time></trkpt><trkpt lat="42.885115" lon="2.5518917"><ele>379.5</ele><time>2026-04-26T09:31:21.729Z</time></trkpt><trkpt lat="42.885215" lon="2.551995"><ele>381.75</ele><time>2026-04-26T09:31:22.728Z</time></trkpt><trkpt lat="42.885315" lon="2.5521017"><ele>384.0</ele><time>2026-04-26T09:31:23.728Z</time></trkpt><trkpt lat="42.885415" lon="2.5522117"><ele>384.0</ele><time>2026-04-26T09:31:24.728Z</time></trkpt><trkpt lat="42.8855167" lon="2.5523267"><ele>384.0</ele><time>2026-04-26T09:31:25.731Z</time></trkpt><trkpt lat="42.8856117" lon="2.5524433"><ele>384.0</ele><time>2026-04-26T09:31:26.728Z</time></trkpt><trkpt lat="42.885715" lon="2.5525633"><ele>384.0</ele><time>2026-04-26T09:31:27.728Z</time></trkpt><trkpt lat="42.88581" lon="2.5526833"><ele>384.0</ele><time>2026-04-26T09:31:28.73Z</time></trkpt><trkpt lat="42.8859067" lon="2.552805"><ele>384.0</ele><time>2026-04-26T09:31:29.728Z</time></trkpt><trkpt lat="42.886" lon="2.5529217"><ele>384.0</ele><time>2026-04-26T09:31:30.728Z</time></trkpt><trkpt lat="42.8860833" lon="2.55303"><ele>384.0</ele><time>2026-04-26T09:31:31.729Z</time></trkpt><trkpt lat="42.8861683" lon="2.55313"><ele>386.4</ele><time>2026-04-26T09:31:32.728Z</time></trkpt><trkpt lat="42.8862417" lon="2.55323"><ele>388.79999999999995</ele><time>2026-04-26T09:31:33.729Z</time></trkpt><trkpt lat="42.8863117" lon="2.5533217"><ele>391.20000000000005</ele><time>2026-04-26T09:31:34.728Z</time></trkpt><trkpt lat="42.8863767" lon="2.5533883"><ele>393.6</ele><time>2026-04-26T09:31:35.729Z</time></trkpt><trkpt lat="42.8864783" lon="2.5534433"><ele>396.0</ele><time>2026-04-26T09:31:37.728Z</time></trkpt><trkpt lat="42.886535" lon="2.5533433"><ele>396.0</ele><time>2026-04-26T09:31:39.733Z</time></trkpt><trkpt lat="42.8865533" lon="2.553165"><ele>396.0</ele><time>2026-04-26T09:31:41.73Z</time></trkpt><trkpt lat="42.8865767" lon="2.5530567"><ele>396.0</ele><time>2026-04-26T09:31:42.728Z</time></trkpt><trkpt lat="42.8866217" lon="2.55294"><ele>396.0</ele><time>2026-04-26T09:31:43.729Z</time></trkpt><trkpt lat="42.8866633" lon="2.552825"><ele>396.0</ele><time>2026-04-26T09:31:44.728Z</time></trkpt><trkpt lat="42.8867" lon="2.552725"><ele>395.6666666666667</ele><time>2026-04-26T09:31:45.729Z</time></trkpt><trkpt lat="42.8867433" lon="2.5526417"><ele>395.33333333333337</ele><time>2026-04-26T09:31:46.73Z</time></trkpt><trkpt lat="42.8867967" lon="2.5525817"><ele>395.0</ele><time>2026-04-26T09:31:47.73Z</time></trkpt><trkpt lat="42.8868583" lon="2.552545"><ele>394.6666666666667</ele><time>2026-04-26T09:31:48.727Z</time></trkpt><trkpt lat="42.886945" lon="2.5525283"><ele>394.33333333333337</ele><time>2026-04-26T09:31:49.731Z</time></trkpt><trkpt lat="42.887045" lon="2.5525233"><ele>394.0</ele><time>2026-04-26T09:31:50.729Z</time></trkpt><trkpt lat="42.887165" lon="2.5525367"><ele>393.75</ele><time>2026-04-26T09:31:51.73Z</time></trkpt><trkpt lat="42.8872867" lon="2.55255"><ele>393.5</ele><time>2026-04-26T09:31:52.728Z</time></trkpt><trkpt lat="42.8874083" lon="2.5525717"><ele>393.25</ele><time>2026-04-26T09:31:53.729Z</time></trkpt><trkpt lat="42.887535" lon="2.55259"><ele>393.0</ele><time>2026-04-26T09:31:54.728Z</time></trkpt><trkpt lat="42.8876633" lon="2.5525833"><ele>393.5</ele><time>2026-04-26T09:31:55.729Z</time></trkpt><trkpt lat="42.8877917" lon="2.5525633"><ele>394.0</ele><time>2026-04-26T09:31:56.731Z</time></trkpt><trkpt lat="42.8879117" lon="2.5525317"><ele>394.5</ele><time>2026-04-26T09:31:57.729Z</time></trkpt><trkpt lat="42.888025" lon="2.55249"><ele>395.0</ele><time>2026-04-26T09:31:58.729Z</time></trkpt><trkpt lat="42.8881417" lon="2.552435"><ele>395.0</ele><time>2026-04-26T09:31:59.728Z</time></trkpt><trkpt lat="42.8882517" lon="2.55237"><ele>395.0</ele><time>2026-04-26T09:32:00.727Z</time></trkpt><trkpt lat="42.888355" lon="2.552315"><ele>395.0</ele><time>2026-04-26T09:32:01.728Z</time></trkpt><trkpt lat="42.88845" lon="2.552275"><ele>395.0</ele><time>2026-04-26T09:32:02.731Z</time></trkpt><trkpt lat="42.888535" lon="2.5522667"><ele>395.0</ele><time>2026-04-26T09:32:03.728Z</time></trkpt><trkpt lat="42.8886233" lon="2.5522933"><ele>393.75</ele><time>2026-04-26T09:32:04.731Z</time></trkpt><trkpt lat="42.8887083" lon="2.5523567"><ele>392.5</ele><time>2026-04-26T09:32:05.728Z</time></trkpt><trkpt lat="42.8888017" lon="2.552475"><ele>391.25</ele><time>2026-04-26T09:32:06.728Z</time></trkpt><trkpt lat="42.8888933" lon="2.55259"><ele>390.0</ele><time>2026-04-26T09:32:07.728Z</time></trkpt><trkpt lat="42.8889883" lon="2.5527"><ele>390.0</ele><time>2026-04-26T09:32:08.729Z</time></trkpt><trkpt lat="42.889085" lon="2.5527967"><ele>390.0</ele><time>2026-04-26T09:32:09.729Z</time></trkpt><trkpt lat="42.88918" lon="2.5528733"><ele>390.0</ele><time>2026-04-26T09:32:10.73Z</time></trkpt><trkpt lat="42.8892867" lon="2.5529267"><ele>390.0</ele><time>2026-04-26T09:32:11.728Z</time></trkpt><trkpt lat="42.8894017" lon="2.5529633"><ele>391.0</ele><time>2026-04-26T09:32:12.727Z</time></trkpt><trkpt lat="42.889515" lon="2.5529933"><ele>392.0</ele><time>2026-04-26T09:32:13.731Z</time></trkpt><trkpt lat="42.889615" lon="2.5530233"><ele>393.0</ele><time>2026-04-26T09:32:14.731Z</time></trkpt><trkpt lat="42.889715" lon="2.5530417"><ele>394.0</ele><time>2026-04-26T09:32:15.73Z</time></trkpt><trkpt lat="42.8898017" lon="2.5530583"><ele>395.0</ele><time>2026-04-26T09:32:16.729Z</time></trkpt><trkpt lat="42.88988" lon="2.55309"><ele>395.0</ele><time>2026-04-26T09:32:17.728Z</time></trkpt><trkpt lat="42.8899533" lon="2.5531367"><ele>395.0</ele><time>2026-04-26T09:32:18.728Z</time></trkpt><trkpt lat="42.890035" lon="2.5531817"><ele>395.0</ele><time>2026-04-26T09:32:19.729Z</time></trkpt><trkpt lat="42.8901233" lon="2.5532283"><ele>395.0</ele><time>2026-04-26T09:32:20.73Z</time></trkpt><trkpt lat="42.89021" lon="2.5532883"><ele>395.0</ele><time>2026-04-26T09:32:21.728Z</time></trkpt><trkpt lat="42.8903" lon="2.5533667"><ele>395.3333333333333</ele><time>2026-04-26T09:32:22.728Z</time></trkpt><trkpt lat="42.89039" lon="2.553445"><ele>395.66666666666663</ele><time>2026-04-26T09:32:23.731Z</time></trkpt><trkpt lat="42.89047" lon="2.553515"><ele>396.0</ele><time>2026-04-26T09:32:24.727Z</time></trkpt><trkpt lat="42.8905417" lon="2.55358"><ele>396.33333333333337</ele><time>2026-04-26T09:32:25.73Z</time></trkpt><trkpt lat="42.8905983" lon="2.5536517"><ele>396.6666666666667</ele><time>2026-04-26T09:32:26.73Z</time></trkpt><trkpt lat="42.89064" lon="2.553725"><ele>397.0</ele><time>2026-04-26T09:32:27.727Z</time></trkpt><trkpt lat="42.8907" lon="2.55383"><ele>397.00000000000006</ele><time>2026-04-26T09:32:29.729Z</time></trkpt><trkpt lat="42.8907733" lon="2.5537817"><ele>397.0</ele><time>2026-04-26T09:32:32.728Z</time></trkpt><trkpt lat="42.89082" lon="2.5537117"><ele>397.0</ele><time>2026-04-26T09:32:33.728Z</time></trkpt><trkpt lat="42.8908817" lon="2.55361"><ele>397.0</ele><time>2026-04-26T09:32:34.728Z</time></trkpt><trkpt lat="42.8909467" lon="2.5535033"><ele>397.00000000000006</ele><time>2026-04-26T09:32:35.73Z</time></trkpt><trkpt lat="42.8909983" lon="2.5534067"><ele>397.0</ele><time>2026-04-26T09:32:36.729Z</time></trkpt><trkpt lat="42.8910433" lon="2.5533267"><ele>399.20000000000005</ele><time>2026-04-26T09:32:37.73Z</time></trkpt><trkpt lat="42.8911" lon="2.55327"><ele>401.4</ele><time>2026-04-26T09:32:38.728Z</time></trkpt><trkpt lat="42.8911583" lon="2.553225"><ele>403.6</ele><time>2026-04-26T09:32:39.729Z</time></trkpt><trkpt lat="42.8912517" lon="2.55316"><ele>405.79999999999995</ele><time>2026-04-26T09:32:41.73Z</time></trkpt><trkpt lat="42.8913383" lon="2.5530717"><ele>408.0</ele><time>2026-04-26T09:32:43.727Z</time></trkpt><trkpt lat="42.8914367" lon="2.55305"><ele>408.0</ele><time>2026-04-26T09:32:45.728Z</time></trkpt><trkpt lat="42.891505" lon="2.55305"><ele>408.0</ele><time>2026-04-26T09:32:47.733Z</time></trkpt><trkpt lat="42.8915167" lon="2.55293"><ele>408.0</ele><time>2026-04-26T09:32:50.729Z</time></trkpt><trkpt lat="42.891465" lon="2.552785"><ele>408.0</ele><time>2026-04-26T09:32:52.727Z</time></trkpt><trkpt lat="42.8914317" lon="2.5527067"><ele>408.0</ele><time>2026-04-26T09:32:53.729Z</time></trkpt><trkpt lat="42.8914067" lon="2.552625"><ele>408.0</ele><time>2026-04-26T09:32:54.728Z</time></trkpt><trkpt lat="42.891415" lon="2.5524833"><ele>409.1666666666667</ele><time>2026-04-26T09:32:56.727Z</time></trkpt><trkpt lat="42.8914317" lon="2.5523733"><ele>410.33333333333337</ele><time>2026-04-26T09:32:58.731Z</time></trkpt><trkpt lat="42.89146" lon="2.5522883"><ele>411.5</ele><time>2026-04-26T09:33:00.73Z</time></trkpt><trkpt lat="42.8914917" lon="2.5521967"><ele>412.6666666666667</ele><time>2026-04-26T09:33:02.729Z</time></trkpt><trkpt lat="42.89154" lon="2.5520917"><ele>413.83333333333337</ele><time>2026-04-26T09:33:04.732Z</time></trkpt><trkpt lat="42.8915833" lon="2.55202"><ele>415.0</ele><time>2026-04-26T09:33:06.731Z</time></trkpt><trkpt lat="42.89164" lon="2.5519583"><ele>416.8</ele><time>2026-04-26T09:33:08.73Z</time></trkpt><trkpt lat="42.891715" lon="2.5518983"><ele>418.6</ele><time>2026-04-26T09:33:10.729Z</time></trkpt><trkpt lat="42.8917883" lon="2.55184"><ele>420.4</ele><time>2026-04-26T09:33:12.73Z</time></trkpt><trkpt lat="42.8918733" lon="2.5518033"><ele>422.2</ele><time>2026-04-26T09:33:14.73Z</time></trkpt><trkpt lat="42.89197" lon="2.5518083"><ele>424.0</ele><time>2026-04-26T09:33:16.729Z</time></trkpt><trkpt lat="42.8920683" lon="2.551815"><ele>426.0</ele><time>2026-04-26T09:33:18.729Z</time></trkpt><trkpt lat="42.89218" lon="2.5517617"><ele>428.0</ele><time>2026-04-26T09:33:20.728Z</time></trkpt><trkpt lat="42.89225" lon="2.551705"><ele>430.0</ele><time>2026-04-26T09:33:21.728Z</time></trkpt><trkpt lat="42.8923217" lon="2.55164"><ele>432.0</ele><time>2026-04-26T09:33:22.727Z</time></trkpt><trkpt lat="42.89239" lon="2.5515633"><ele>434.0</ele><time>2026-04-26T09:33:23.73Z</time></trkpt><trkpt lat="42.8924467" lon="2.5514783"><ele>433.99999999999994</ele><time>2026-04-26T09:33:24.727Z</time></trkpt><trkpt lat="42.892485" lon="2.5513867"><ele>434.0</ele><time>2026-04-26T09:33:25.729Z</time></trkpt><trkpt lat="42.89251" lon="2.5512883"><ele>434.0</ele><time>2026-04-26T09:33:26.728Z</time></trkpt><trkpt lat="42.8925283" lon="2.5511983"><ele>434.0</ele><time>2026-04-26T09:33:27.73Z</time></trkpt><trkpt lat="42.8925583" lon="2.551055"><ele>433.99999999999994</ele><time>2026-04-26T09:33:29.729Z</time></trkpt><trkpt lat="42.8926233" lon="2.550985"><ele>434.0</ele><time>2026-04-26T09:33:31.73Z</time></trkpt><trkpt lat="42.8927183" lon="2.5509917"><ele>437.16666666666663</ele><time>2026-04-26T09:33:33.729Z</time></trkpt><trkpt lat="42.8928233" lon="2.55101"><ele>440.3333333333333</ele><time>2026-04-26T09:33:35.729Z</time></trkpt><trkpt lat="42.8929367" lon="2.5510067"><ele>443.5</ele><time>2026-04-26T09:33:37.729Z</time></trkpt><trkpt lat="42.8930017" lon="2.5509983"><ele>446.66666666666663</ele><time>2026-04-26T09:33:38.729Z</time></trkpt><trkpt lat="42.8930717" lon="2.5509833"><ele>449.8333333333333</ele><time>2026-04-26T09:33:39.73Z</time></trkpt><trkpt lat="42.8931383" lon="2.55097"><ele>453.0</ele><time>2026-04-26T09:33:40.728Z</time></trkpt><trkpt lat="42.8932367" lon="2.5509667"><ele>453.0</ele><time>2026-04-26T09:33:42.728Z</time></trkpt><trkpt lat="42.893305" lon="2.5510517"><ele>453.0</ele><time>2026-04-26T09:33:44.728Z</time></trkpt><trkpt lat="42.8933667" lon="2.5511333"><ele>453.0</ele><time>2026-04-26T09:33:46.729Z</time></trkpt><trkpt lat="42.8934333" lon="2.55113"><ele>453.0</ele><time>2026-04-26T09:33:48.728Z</time></trkpt><trkpt lat="42.8934383" lon="2.5509933"><ele>453.0</ele><time>2026-04-26T09:33:50.729Z</time></trkpt><trkpt lat="42.8934183" lon="2.5509117"><ele>453.0</ele><time>2026-04-26T09:33:51.729Z</time></trkpt><trkpt lat="42.8933833" lon="2.550745"><ele>453.0</ele><time>2026-04-26T09:33:53.729Z</time></trkpt><trkpt lat="42.8933733" lon="2.550655"><ele>453.0</ele><time>2026-04-26T09:33:54.728Z</time></trkpt><trkpt lat="42.8933567" lon="2.5505483"><ele>453.0</ele><time>2026-04-26T09:33:55.728Z</time></trkpt><trkpt lat="42.8933433" lon="2.5504383"><ele>453.0</ele><time>2026-04-26T09:33:56.729Z</time></trkpt><trkpt lat="42.8933333" lon="2.55033"><ele>453.0</ele><time>2026-04-26T09:33:57.728Z</time></trkpt><trkpt lat="42.8933267" lon="2.5502217"><ele>453.0</ele><time>2026-04-26T09:33:58.729Z</time></trkpt><trkpt lat="42.8933283" lon="2.550115"><ele>454.5</ele><time>2026-04-26T09:33:59.73Z</time></trkpt><trkpt lat="42.89334" lon="2.5500117"><ele>456.0</ele><time>2026-04-26T09:34:00.729Z</time></trkpt><trkpt lat="42.89335" lon="2.54992"><ele>457.5</ele><time>2026-04-26T09:34:01.731Z</time></trkpt><trkpt lat="42.8933533" lon="2.5498283"><ele>459.0</ele><time>2026-04-26T09:34:02.729Z</time></trkpt><trkpt lat="42.8933517" lon="2.5496583"><ele>460.5</ele><time>2026-04-26T09:34:04.73Z</time></trkpt><trkpt lat="42.89335" lon="2.5495717"><ele>462.0</ele><time>2026-04-26T09:34:05.731Z</time></trkpt><trkpt lat="42.8933467" lon="2.549485"><ele>464.20000000000005</ele><time>2026-04-26T09:34:06.731Z</time></trkpt><trkpt lat="42.89335" lon="2.5493967"><ele>466.40000000000003</ele><time>2026-04-26T09:34:07.729Z</time></trkpt><trkpt lat="42.8933717" lon="2.5492417"><ele>468.59999999999997</ele><time>2026-04-26T09:34:09.734Z</time></trkpt><trkpt lat="42.8934017" lon="2.549095"><ele>470.79999999999995</ele><time>2026-04-26T09:34:11.73Z</time></trkpt><trkpt lat="42.8934083" lon="2.54893"><ele>473.0</ele><time>2026-04-26T09:34:13.73Z</time></trkpt><trkpt lat="42.893445" lon="2.5488"><ele>477.66666666666663</ele><time>2026-04-26T09:34:15.73Z</time></trkpt><trkpt lat="42.8934717" lon="2.5487"><ele>482.3333333333333</ele><time>2026-04-26T09:34:17.73Z</time></trkpt><trkpt lat="42.8935167" lon="2.5486317"><ele>487.0</ele><time>2026-04-26T09:34:19.73Z</time></trkpt><trkpt lat="42.8935783" lon="2.5485983"><ele>491.66666666666663</ele><time>2026-04-26T09:34:21.731Z</time></trkpt><trkpt lat="42.8936567" lon="2.5485633"><ele>496.3333333333333</ele><time>2026-04-26T09:34:23.731Z</time></trkpt><trkpt lat="42.89374" lon="2.5485067"><ele>501.0</ele><time>2026-04-26T09:34:25.728Z</time></trkpt><trkpt lat="42.8938117" lon="2.5484433"><ele>501.0</ele><time>2026-04-26T09:34:27.73Z</time></trkpt><trkpt lat="42.8938783" lon="2.5483783"><ele>501.0</ele><time>2026-04-26T09:34:29.729Z</time></trkpt><trkpt lat="42.8939567" lon="2.5483683"><ele>501.0</ele><time>2026-04-26T09:34:31.729Z</time></trkpt><trkpt lat="42.8940283" lon="2.5483867"><ele>501.0</ele><time>2026-04-26T09:34:33.73Z</time></trkpt><trkpt lat="42.89413" lon="2.5484133"><ele>501.0</ele><time>2026-04-26T09:34:35.728Z</time></trkpt><trkpt lat="42.8942567" lon="2.5484333"><ele>503.3333333333333</ele><time>2026-04-26T09:34:37.729Z</time></trkpt><trkpt lat="42.8943267" lon="2.548435"><ele>505.66666666666663</ele><time>2026-04-26T09:34:38.729Z</time></trkpt><trkpt lat="42.8943933" lon="2.5484433"><ele>508.0</ele><time>2026-04-26T09:34:39.731Z</time></trkpt><trkpt lat="42.8944567" lon="2.5484583"><ele>510.3333333333333</ele><time>2026-04-26T09:34:40.732Z</time></trkpt><trkpt lat="42.89452" lon="2.54847"><ele>512.6666666666666</ele><time>2026-04-26T09:34:41.728Z</time></trkpt><trkpt lat="42.8946383" lon="2.548485"><ele>515.0</ele><time>2026-04-26T09:34:43.729Z</time></trkpt><trkpt lat="42.89471" lon="2.5484817"><ele>515.0</ele><time>2026-04-26T09:34:44.73Z</time></trkpt><trkpt lat="42.8947867" lon="2.5484733"><ele>515.0</ele><time>2026-04-26T09:34:45.729Z</time></trkpt><trkpt lat="42.8948567" lon="2.54846"><ele>515.0</ele><time>2026-04-26T09:34:46.727Z</time></trkpt><trkpt lat="42.8949233" lon="2.5484367"><ele>515.0</ele><time>2026-04-26T09:34:47.73Z</time></trkpt><trkpt lat="42.8949967" lon="2.5483917"><ele>515.0</ele><time>2026-04-26T09:34:48.729Z</time></trkpt><trkpt lat="42.8950583" lon="2.548345"><ele>515.0</ele><time>2026-04-26T09:34:49.73Z</time></trkpt><trkpt lat="42.8951117" lon="2.5482933"><ele>515.0</ele><time>2026-04-26T09:34:50.729Z</time></trkpt><trkpt lat="42.8951833" lon="2.5482017"><ele>515.0</ele><time>2026-04-26T09:34:52.728Z</time></trkpt><trkpt lat="42.8952533" lon="2.5481167"><ele>515.0</ele><time>2026-04-26T09:34:54.729Z</time></trkpt><trkpt lat="42.8952767" lon="2.5479783"><ele>515.0</ele><time>2026-04-26T09:34:56.729Z</time></trkpt><trkpt lat="42.8952833" lon="2.5478833"><ele>515.0</ele><time>2026-04-26T09:34:57.73Z</time></trkpt><trkpt lat="42.89529" lon="2.5477867"><ele>515.0</ele><time>2026-04-26T09:34:58.729Z</time></trkpt><trkpt lat="42.895295" lon="2.5476867"><ele>515.0</ele><time>2026-04-26T09:34:59.729Z</time></trkpt><trkpt lat="42.8953033" lon="2.5475833"><ele>516.8333333333333</ele><time>2026-04-26T09:35:00.728Z</time></trkpt><trkpt lat="42.8953083" lon="2.5474733"><ele>518.6666666666666</ele><time>2026-04-26T09:35:01.729Z</time></trkpt><trkpt lat="42.89531" lon="2.5473583"><ele>520.5</ele><time>2026-04-26T09:35:02.728Z</time></trkpt><trkpt lat="42.8953167" lon="2.54725"><ele>522.3333333333334</ele><time>2026-04-26T09:35:03.734Z</time></trkpt><trkpt lat="42.8953267" lon="2.5471367"><ele>524.1666666666667</ele><time>2026-04-26T09:35:04.728Z</time></trkpt><trkpt lat="42.8953383" lon="2.54702"><ele>526.0</ele><time>2026-04-26T09:35:05.73Z</time></trkpt><trkpt lat="42.895365" lon="2.5469117"><ele>528.1666666666667</ele><time>2026-04-26T09:35:06.728Z</time></trkpt><trkpt lat="42.8953933" lon="2.5468033"><ele>530.3333333333334</ele><time>2026-04-26T09:35:07.728Z</time></trkpt><trkpt lat="42.8954083" lon="2.5466983"><ele>532.5</ele><time>2026-04-26T09:35:08.728Z</time></trkpt><trkpt lat="42.895415" lon="2.5465883"><ele>534.6666666666666</ele><time>2026-04-26T09:35:09.728Z</time></trkpt><trkpt lat="42.895425" lon="2.5464917"><ele>536.8333333333333</ele><time>2026-04-26T09:35:10.727Z</time></trkpt><trkpt lat="42.8954683" lon="2.5463333"><ele>539.0</ele><time>2026-04-26T09:35:12.729Z</time></trkpt><trkpt lat="42.8955067" lon="2.54626"><ele>539.5714285714286</ele><time>2026-04-26T09:35:13.733Z</time></trkpt><trkpt lat="42.8955583" lon="2.5462033"><ele>540.1428571428571</ele><time>2026-04-26T09:35:14.729Z</time></trkpt><trkpt lat="42.8956167" lon="2.546155"><ele>540.7142857142858</ele><time>2026-04-26T09:35:15.731Z</time></trkpt><trkpt lat="42.895675" lon="2.546105"><ele>541.2857142857142</ele><time>2026-04-26T09:35:16.729Z</time></trkpt><trkpt lat="42.895735" lon="2.546055"><ele>541.8571428571429</ele><time>2026-04-26T09:35:17.729Z</time></trkpt><trkpt lat="42.8958033" lon="2.5460067"><ele>542.4285714285714</ele><time>2026-04-26T09:35:18.729Z</time></trkpt><trkpt lat="42.8958783" lon="2.5459567"><ele>543.0</ele><time>2026-04-26T09:35:19.731Z</time></trkpt><trkpt lat="42.8959517" lon="2.5458967"><ele>543.6</ele><time>2026-04-26T09:35:20.73Z</time></trkpt><trkpt lat="42.8960267" lon="2.5458267"><ele>544.1999999999999</ele><time>2026-04-26T09:35:21.73Z</time></trkpt><trkpt lat="42.89609" lon="2.54576"><ele>544.8</ele><time>2026-04-26T09:35:22.729Z</time></trkpt><trkpt lat="42.8961433" lon="2.545705"><ele>545.4</ele><time>2026-04-26T09:35:23.728Z</time></trkpt><trkpt lat="42.89625" lon="2.5456117"><ele>546.0</ele><time>2026-04-26T09:35:25.734Z</time></trkpt><trkpt lat="42.8963583" lon="2.5455417"><ele>546.0</ele><time>2026-04-26T09:35:27.73Z</time></trkpt><trkpt lat="42.8964583" lon="2.5454617"><ele>546.0</ele><time>2026-04-26T09:35:29.734Z</time></trkpt><trkpt lat="42.89655" lon="2.5453483"><ele>546.0</ele><time>2026-04-26T09:35:31.73Z</time></trkpt><trkpt lat="42.896595" lon="2.5452817"><ele>546.0</ele><time>2026-04-26T09:35:32.729Z</time></trkpt><trkpt lat="42.8966383" lon="2.5452067"><ele>546.0</ele><time>2026-04-26T09:35:33.731Z</time></trkpt><trkpt lat="42.8966767" lon="2.5451267"><ele>546.0</ele><time>2026-04-26T09:35:34.729Z</time></trkpt><trkpt lat="42.8967133" lon="2.5450383"><ele>548.5</ele><time>2026-04-26T09:35:35.729Z</time></trkpt><trkpt lat="42.8967483" lon="2.5449333"><ele>551.0</ele><time>2026-04-26T09:35:36.73Z</time></trkpt><trkpt lat="42.8967833" lon="2.5448383"><ele>553.5</ele><time>2026-04-26T09:35:37.732Z</time></trkpt><trkpt lat="42.896815" lon="2.5447533"><ele>556.0</ele><time>2026-04-26T09:35:38.731Z</time></trkpt><trkpt lat="42.8968517" lon="2.54468"><ele>558.5</ele><time>2026-04-26T09:35:39.731Z</time></trkpt><trkpt lat="42.8969433" lon="2.5445817"><ele>561.0</ele><time>2026-04-26T09:35:41.729Z</time></trkpt><trkpt lat="42.8970117" lon="2.5445417"><ele>564.2</ele><time>2026-04-26T09:35:42.73Z</time></trkpt><trkpt lat="42.8970883" lon="2.5445133"><ele>567.4000000000001</ele><time>2026-04-26T09:35:43.728Z</time></trkpt><trkpt lat="42.8971833" lon="2.54448"><ele>570.6</ele><time>2026-04-26T09:35:44.73Z</time></trkpt><trkpt lat="42.8972967" lon="2.5444367"><ele>573.8000000000001</ele><time>2026-04-26T09:35:45.729Z</time></trkpt><trkpt lat="42.8974083" lon="2.5444083"><ele>577.0</ele><time>2026-04-26T09:35:46.728Z</time></trkpt><trkpt lat="42.8975133" lon="2.5443883"><ele>577.6</ele><time>2026-04-26T09:35:47.731Z</time></trkpt><trkpt lat="42.8976117" lon="2.5443817"><ele>578.2</ele><time>2026-04-26T09:35:48.732Z</time></trkpt><trkpt lat="42.897705" lon="2.54441"><ele>578.8</ele><time>2026-04-26T09:35:49.728Z</time></trkpt><trkpt lat="42.897795" lon="2.54444"><ele>579.4</ele><time>2026-04-26T09:35:50.73Z</time></trkpt><trkpt lat="42.8978783" lon="2.54447"><ele>580.0</ele><time>2026-04-26T09:35:51.731Z</time></trkpt><trkpt lat="42.89796" lon="2.544475"><ele>580.0</ele><time>2026-04-26T09:35:52.729Z</time></trkpt><trkpt lat="42.8980283" lon="2.5444283"><ele>580.0</ele><time>2026-04-26T09:35:53.729Z</time></trkpt><trkpt lat="42.8980867" lon="2.5443717"><ele>580.0</ele><time>2026-04-26T09:35:54.729Z</time></trkpt><trkpt lat="42.89814" lon="2.544325"><ele>580.0</ele><time>2026-04-26T09:35:55.728Z</time></trkpt><trkpt lat="42.8982133" lon="2.5443183"><ele>580.0</ele><time>2026-04-26T09:35:57.729Z</time></trkpt><trkpt lat="42.89831" lon="2.5443683"><ele>580.0</ele><time>2026-04-26T09:36:00.73Z</time></trkpt><trkpt lat="42.8983733" lon="2.5443783"><ele>580.1666666666667</ele><time>2026-04-26T09:36:01.727Z</time></trkpt><trkpt lat="42.89845" lon="2.5443817"><ele>580.3333333333334</ele><time>2026-04-26T09:36:02.729Z</time></trkpt><trkpt lat="42.8985383" lon="2.5443783"><ele>580.5</ele><time>2026-04-26T09:36:03.729Z</time></trkpt><trkpt lat="42.8986317" lon="2.54438"><ele>580.6666666666666</ele><time>2026-04-26T09:36:04.728Z</time></trkpt><trkpt lat="42.8987267" lon="2.5443767"><ele>580.8333333333333</ele><time>2026-04-26T09:36:05.729Z</time></trkpt><trkpt lat="42.8988117" lon="2.5443667"><ele>581.0</ele><time>2026-04-26T09:36:06.73Z</time></trkpt><trkpt lat="42.8989033" lon="2.5443567"><ele>581.0</ele><time>2026-04-26T09:36:07.73Z</time></trkpt><trkpt lat="42.8990067" lon="2.5443417"><ele>581.0</ele><time>2026-04-26T09:36:08.729Z</time></trkpt><trkpt lat="42.8991167" lon="2.544335"><ele>581.0</ele><time>2026-04-26T09:36:09.728Z</time></trkpt><trkpt lat="42.8992367" lon="2.54432"><ele>581.0</ele><time>2026-04-26T09:36:10.728Z</time></trkpt><trkpt lat="42.8993483" lon="2.5442933"><ele>581.0</ele><time>2026-04-26T09:36:11.728Z</time></trkpt><trkpt lat="42.89944" lon="2.5442633"><ele>581.6</ele><time>2026-04-26T09:36:12.729Z</time></trkpt><trkpt lat="42.8995267" lon="2.544235"><ele>582.2</ele><time>2026-04-26T09:36:13.729Z</time></trkpt><trkpt lat="42.8996117" lon="2.5442117"><ele>582.8</ele><time>2026-04-26T09:36:14.729Z</time></trkpt><trkpt lat="42.8997017" lon="2.5442033"><ele>583.4</ele><time>2026-04-26T09:36:15.727Z</time></trkpt><trkpt lat="42.8997933" lon="2.544215"><ele>584.0</ele><time>2026-04-26T09:36:16.729Z</time></trkpt><trkpt lat="42.89989" lon="2.54424"><ele>584.0</ele><time>2026-04-26T09:36:17.728Z</time></trkpt><trkpt lat="42.899985" lon="2.544265"><ele>584.0</ele><time>2026-04-26T09:36:18.728Z</time></trkpt><trkpt lat="42.9000767" lon="2.5442867"><ele>584.0</ele><time>2026-04-26T09:36:19.73Z</time></trkpt><trkpt lat="42.9001683" lon="2.5443033"><ele>584.0</ele><time>2026-04-26T09:36:20.727Z</time></trkpt><trkpt lat="42.9002683" lon="2.5443133"><ele>584.0</ele><time>2026-04-26T09:36:21.728Z</time></trkpt><trkpt lat="42.9003683" lon="2.5443183"><ele>584.8</ele><time>2026-04-26T09:36:22.728Z</time></trkpt><trkpt lat="42.9004717" lon="2.5443083"><ele>585.5999999999999</ele><time>2026-04-26T09:36:23.728Z</time></trkpt><trkpt lat="42.9005717" lon="2.5442967"><ele>586.4</ele><time>2026-04-26T09:36:24.727Z</time></trkpt><trkpt lat="42.900665" lon="2.5442933"><ele>587.1999999999999</ele><time>2026-04-26T09:36:25.728Z</time></trkpt><trkpt lat="42.900755" lon="2.5443033"><ele>588.0</ele><time>2026-04-26T09:36:26.727Z</time></trkpt><trkpt lat="42.9008483" lon="2.5443083"><ele>589.1999999999999</ele><time>2026-04-26T09:36:27.727Z</time></trkpt><trkpt lat="42.900955" lon="2.5443117"><ele>590.4</ele><time>2026-04-26T09:36:28.727Z</time></trkpt><trkpt lat="42.9010617" lon="2.5443017"><ele>591.5999999999999</ele><time>2026-04-26T09:36:29.729Z</time></trkpt><trkpt lat="42.9011733" lon="2.5442967"><ele>592.8</ele><time>2026-04-26T09:36:30.727Z</time></trkpt><trkpt lat="42.901275" lon="2.544295"><ele>594.0</ele><time>2026-04-26T09:36:31.728Z</time></trkpt><trkpt lat="42.9013633" lon="2.5443"><ele>594.0</ele><time>2026-04-26T09:36:32.728Z</time></trkpt><trkpt lat="42.9014283" lon="2.5442883"><ele>594.0</ele><time>2026-04-26T09:36:33.728Z</time></trkpt><trkpt lat="42.9015083" lon="2.5442283"><ele>594.0</ele><time>2026-04-26T09:36:34.727Z</time></trkpt><trkpt lat="42.90157" lon="2.5441317"><ele>594.0</ele><time>2026-04-26T09:36:35.727Z</time></trkpt><trkpt lat="42.901625" lon="2.544045"><ele>594.0</ele><time>2026-04-26T09:36:36.728Z</time></trkpt><trkpt lat="42.9016683" lon="2.5439017"><ele>594.0</ele><time>2026-04-26T09:36:37.728Z</time></trkpt><trkpt lat="42.9017233" lon="2.5437567"><ele>594.5</ele><time>2026-04-26T09:36:38.728Z</time></trkpt><trkpt lat="42.9017683" lon="2.5436317"><ele>595.0</ele><time>2026-04-26T09:36:39.728Z</time></trkpt><trkpt lat="42.9018283" lon="2.5434783"><ele>595.5</ele><time>2026-04-26T09:36:40.727Z</time></trkpt><trkpt lat="42.9018983" lon="2.5433317"><ele>596.0</ele><time>2026-04-26T09:36:41.728Z</time></trkpt><trkpt lat="42.9019367" lon="2.54321"><ele>596.0</ele><time>2026-04-26T09:36:42.727Z</time></trkpt><trkpt lat="42.9019917" lon="2.5430967"><ele>596.0</ele><time>2026-04-26T09:36:43.729Z</time></trkpt><trkpt lat="42.9020167" lon="2.54297"><ele>596.0</ele><time>2026-04-26T09:36:44.727Z</time></trkpt><trkpt lat="42.902" lon="2.5428817"><ele>596.0</ele><time>2026-04-26T09:36:45.729Z</time></trkpt><trkpt lat="42.9019983" lon="2.54278"><ele>596.0</ele><time>2026-04-26T09:36:46.728Z</time></trkpt><trkpt lat="42.9020017" lon="2.5426867"><ele>596.0</ele><time>2026-04-26T09:36:47.727Z</time></trkpt><trkpt lat="42.902035" lon="2.5425267"><ele>597.4</ele><time>2026-04-26T09:36:49.727Z</time></trkpt><trkpt lat="42.90213" lon="2.542435"><ele>598.8</ele><time>2026-04-26T09:36:51.73Z</time></trkpt><trkpt lat="42.9022317" lon="2.5424667"><ele>600.1999999999999</ele><time>2026-04-26T09:36:53.731Z</time></trkpt><trkpt lat="42.9022683" lon="2.5425767"><ele>601.6</ele><time>2026-04-26T09:36:54.727Z</time></trkpt><trkpt lat="42.9023133" lon="2.542685"><ele>603.0</ele><time>2026-04-26T09:36:55.729Z</time></trkpt><trkpt lat="42.90238" lon="2.542815"><ele>600.6666666666666</ele><time>2026-04-26T09:36:56.73Z</time></trkpt><trkpt lat="42.902485" lon="2.543"><ele>598.3333333333333</ele><time>2026-04-26T09:36:57.728Z</time></trkpt><trkpt lat="42.902575" lon="2.5431783"><ele>596.0</ele><time>2026-04-26T09:36:58.727Z</time></trkpt><trkpt lat="42.90266" lon="2.5433283"><ele>591.5</ele><time>2026-04-26T09:36:59.729Z</time></trkpt><trkpt lat="42.9027317" lon="2.54347"><ele>587.0</ele><time>2026-04-26T09:37:00.728Z</time></trkpt><trkpt lat="42.9027867" lon="2.5436217"><ele>582.5</ele><time>2026-04-26T09:37:01.728Z</time></trkpt><trkpt lat="42.9028367" lon="2.5437817"><ele>578.0</ele><time>2026-04-26T09:37:02.728Z</time></trkpt><trkpt lat="42.90288" lon="2.54394"><ele>578.0</ele><time>2026-04-26T09:37:03.729Z</time></trkpt><trkpt lat="42.9029533" lon="2.544085"><ele>578.0</ele><time>2026-04-26T09:37:04.728Z</time></trkpt><trkpt lat="42.9030367" lon="2.5442217"><ele>578.0</ele><time>2026-04-26T09:37:05.731Z</time></trkpt><trkpt lat="42.9031217" lon="2.5443517"><ele>578.0</ele><time>2026-04-26T09:37:06.727Z</time></trkpt><trkpt lat="42.90321" lon="2.5444783"><ele>581.5</ele><time>2026-04-26T09:37:07.728Z</time></trkpt><trkpt lat="42.903285" lon="2.544605"><ele>585.0</ele><time>2026-04-26T09:37:08.729Z</time></trkpt><trkpt lat="42.9033683" lon="2.54473"><ele>588.5</ele><time>2026-04-26T09:37:09.73Z</time></trkpt><trkpt lat="42.9034567" lon="2.5448583"><ele>592.0</ele><time>2026-04-26T09:37:10.729Z</time></trkpt><trkpt lat="42.9035417" lon="2.5449967"><ele>587.0</ele><time>2026-04-26T09:37:11.729Z</time></trkpt><trkpt lat="42.9036233" lon="2.54514"><ele>582.0</ele><time>2026-04-26T09:37:12.728Z</time></trkpt><trkpt lat="42.9037033" lon="2.5452867"><ele>577.0</ele><time>2026-04-26T09:37:13.73Z</time></trkpt><trkpt lat="42.9037833" lon="2.5454317"><ele>572.0</ele><time>2026-04-26T09:37:14.73Z</time></trkpt><trkpt lat="42.9038667" lon="2.54558"><ele>572.0</ele><time>2026-04-26T09:37:15.731Z</time></trkpt><trkpt lat="42.90395" lon="2.545725"><ele>572.0</ele><time>2026-04-26T09:37:16.728Z</time></trkpt><trkpt lat="42.9040333" lon="2.54587"><ele>572.0</ele><time>2026-04-26T09:37:17.73Z</time></trkpt><trkpt lat="42.9041117" lon="2.5460167"><ele>572.0</ele><time>2026-04-26T09:37:18.727Z</time></trkpt><trkpt lat="42.9041933" lon="2.5461583"><ele>567.25</ele><time>2026-04-26T09:37:19.731Z</time></trkpt><trkpt lat="42.9042783" lon="2.546295"><ele>562.5</ele><time>2026-04-26T09:37:20.728Z</time></trkpt><trkpt lat="42.90436" lon="2.5464267"><ele>557.75</ele><time>2026-04-26T09:37:21.729Z</time></trkpt><trkpt lat="42.9044317" lon="2.5465617"><ele>553.0</ele><time>2026-04-26T09:37:22.729Z</time></trkpt><trkpt lat="42.9045" lon="2.546695"><ele>553.0</ele><time>2026-04-26T09:37:23.732Z</time></trkpt><trkpt lat="42.904565" lon="2.5468267"><ele>553.0</ele><time>2026-04-26T09:37:24.729Z</time></trkpt><trkpt lat="42.90463" lon="2.5469517"><ele>553.0</ele><time>2026-04-26T09:37:25.728Z</time></trkpt><trkpt lat="42.904695" lon="2.5470733"><ele>553.0</ele><time>2026-04-26T09:37:26.729Z</time></trkpt><trkpt lat="42.9047483" lon="2.5471983"><ele>553.0</ele><time>2026-04-26T09:37:27.729Z</time></trkpt><trkpt lat="42.9047983" lon="2.5473283"><ele>555.25</ele><time>2026-04-26T09:37:28.727Z</time></trkpt><trkpt lat="42.9048483" lon="2.5474683"><ele>557.5</ele><time>2026-04-26T09:37:29.73Z</time></trkpt><trkpt lat="42.9049" lon="2.5476167"><ele>559.75</ele><time>2026-04-26T09:37:30.733Z</time></trkpt><trkpt lat="42.9049467" lon="2.547775"><ele>562.0</ele><time>2026-04-26T09:37:31.728Z</time></trkpt><trkpt lat="42.90499" lon="2.54794"><ele>565.0</ele><time>2026-04-26T09:37:32.728Z</time></trkpt><trkpt lat="42.9050533" lon="2.5480883"><ele>568.0</ele><time>2026-04-26T09:37:33.729Z</time></trkpt><trkpt lat="42.9051217" lon="2.5482383"><ele>571.0</ele><time>2026-04-26T09:37:34.727Z</time></trkpt><trkpt lat="42.9052117" lon="2.5483567"><ele>574.0</ele><time>2026-04-26T09:37:35.729Z</time></trkpt><trkpt lat="42.905315" lon="2.5484583"><ele>570.75</ele><time>2026-04-26T09:37:36.727Z</time></trkpt><trkpt lat="42.9054267" lon="2.54857"><ele>567.5</ele><time>2026-04-26T09:37:37.729Z</time></trkpt><trkpt lat="42.905525" lon="2.5487033"><ele>564.25</ele><time>2026-04-26T09:37:38.729Z</time></trkpt><trkpt lat="42.9056117" lon="2.5488467"><ele>561.0</ele><time>2026-04-26T09:37:39.728Z</time></trkpt><trkpt lat="42.905695" lon="2.548985"><ele>561.0</ele><time>2026-04-26T09:37:40.727Z</time></trkpt><trkpt lat="42.9057967" lon="2.54911"><ele>561.0</ele><time>2026-04-26T09:37:41.731Z</time></trkpt><trkpt lat="42.9059083" lon="2.54922"><ele>561.0</ele><time>2026-04-26T09:37:42.728Z</time></trkpt><trkpt lat="42.9060283" lon="2.5493167"><ele>561.0</ele><time>2026-04-26T09:37:43.729Z</time></trkpt><trkpt lat="42.9061483" lon="2.5494217"><ele>556.0</ele><time>2026-04-26T09:37:44.728Z</time></trkpt><trkpt lat="42.9062667" lon="2.5495467"><ele>551.0</ele><time>2026-04-26T09:37:45.727Z</time></trkpt><trkpt lat="42.9063683" lon="2.5497"><ele>546.0</ele><time>2026-04-26T09:37:46.728Z</time></trkpt><trkpt lat="42.9064667" lon="2.5498633"><ele>546.0</ele><time>2026-04-26T09:37:47.728Z</time></trkpt><trkpt lat="42.9065617" lon="2.5500233"><ele>546.0</ele><time>2026-04-26T09:37:48.727Z</time></trkpt><trkpt lat="42.9066783" lon="2.55016"><ele>546.0</ele><time>2026-04-26T09:37:49.727Z</time></trkpt><trkpt lat="42.906795" lon="2.550275"><ele>546.0</ele><time>2026-04-26T09:37:50.728Z</time></trkpt><trkpt lat="42.906915" lon="2.550385"><ele>543.25</ele><time>2026-04-26T09:37:51.73Z</time></trkpt><trkpt lat="42.9070317" lon="2.5504833"><ele>540.5</ele><time>2026-04-26T09:37:52.727Z</time></trkpt><trkpt lat="42.9071517" lon="2.55059"><ele>537.75</ele><time>2026-04-26T09:37:53.73Z</time></trkpt><trkpt lat="42.9072483" lon="2.55073"><ele>535.0</ele><time>2026-04-26T09:37:54.729Z</time></trkpt><trkpt lat="42.907335" lon="2.5508883"><ele>535.0</ele><time>2026-04-26T09:37:55.733Z</time></trkpt><trkpt lat="42.90742" lon="2.5510567"><ele>535.0</ele><time>2026-04-26T09:37:56.729Z</time></trkpt><trkpt lat="42.9074967" lon="2.5512333"><ele>535.0</ele><time>2026-04-26T09:37:57.727Z</time></trkpt><trkpt lat="42.9075767" lon="2.551415"><ele>531.0</ele><time>2026-04-26T09:37:58.728Z</time></trkpt><trkpt lat="42.9076533" lon="2.551605"><ele>527.0</ele><time>2026-04-26T09:37:59.729Z</time></trkpt><trkpt lat="42.9077233" lon="2.5517983"><ele>523.0</ele><time>2026-04-26T09:38:00.727Z</time></trkpt><trkpt lat="42.9077933" lon="2.5519867"><ele>525.6666666666667</ele><time>2026-04-26T09:38:01.727Z</time></trkpt><trkpt lat="42.9078767" lon="2.552165"><ele>528.3333333333334</ele><time>2026-04-26T09:38:02.73Z</time></trkpt><trkpt lat="42.9079833" lon="2.5523217"><ele>531.0</ele><time>2026-04-26T09:38:03.728Z</time></trkpt><trkpt lat="42.9080967" lon="2.552465"><ele>531.0</ele><time>2026-04-26T09:38:04.729Z</time></trkpt><trkpt lat="42.9082133" lon="2.5526033"><ele>531.0</ele><time>2026-04-26T09:38:05.731Z</time></trkpt><trkpt lat="42.9083367" lon="2.55273"><ele>531.0</ele><time>2026-04-26T09:38:06.727Z</time></trkpt><trkpt lat="42.9084583" lon="2.5528417"><ele>529.25</ele><time>2026-04-26T09:38:07.727Z</time></trkpt><trkpt lat="42.90858" lon="2.55294"><ele>527.5</ele><time>2026-04-26T09:38:08.728Z</time></trkpt><trkpt lat="42.9086983" lon="2.5530367"><ele>525.75</ele><time>2026-04-26T09:38:09.727Z</time></trkpt><trkpt lat="42.9088067" lon="2.5531467"><ele>524.0</ele><time>2026-04-26T09:38:10.729Z</time></trkpt><trkpt lat="42.9088933" lon="2.553275"><ele>524.0</ele><time>2026-04-26T09:38:11.728Z</time></trkpt><trkpt lat="42.9089717" lon="2.5534033"><ele>524.0</ele><time>2026-04-26T09:38:12.727Z</time></trkpt><trkpt lat="42.9090583" lon="2.5535117"><ele>524.0</ele><time>2026-04-26T09:38:13.728Z</time></trkpt><trkpt lat="42.9091567" lon="2.5535867"><ele>524.0</ele><time>2026-04-26T09:38:14.729Z</time></trkpt><trkpt lat="42.9092767" lon="2.55363"><ele>521.75</ele><time>2026-04-26T09:38:15.728Z</time></trkpt><trkpt lat="42.9093933" lon="2.5536833"><ele>519.5</ele><time>2026-04-26T09:38:16.728Z</time></trkpt><trkpt lat="42.909505" lon="2.55376"><ele>517.25</ele><time>2026-04-26T09:38:17.731Z</time></trkpt><trkpt lat="42.9096033" lon="2.5538583"><ele>515.0</ele><time>2026-04-26T09:38:18.728Z</time></trkpt><trkpt lat="42.909665" lon="2.5539733"><ele>515.0</ele><time>2026-04-26T09:38:19.727Z</time></trkpt><trkpt lat="42.9096867" lon="2.5541"><ele>515.0</ele><time>2026-04-26T09:38:20.728Z</time></trkpt><trkpt lat="42.9096717" lon="2.554235"><ele>515.0</ele><time>2026-04-26T09:38:21.728Z</time></trkpt><trkpt lat="42.909655" lon="2.5543817"><ele>515.0</ele><time>2026-04-26T09:38:22.729Z</time></trkpt><trkpt lat="42.909665" lon="2.5545383"><ele>515.0</ele><time>2026-04-26T09:38:23.727Z</time></trkpt><trkpt lat="42.9097133" lon="2.554685"><ele>516.25</ele><time>2026-04-26T09:38:24.728Z</time></trkpt><trkpt lat="42.9098083" lon="2.5548267"><ele>517.5</ele><time>2026-04-26T09:38:25.728Z</time></trkpt><trkpt lat="42.909915" lon="2.5549667"><ele>518.75</ele><time>2026-04-26T09:38:26.728Z</time></trkpt><trkpt lat="42.9100233" lon="2.5551217"><ele>520.0</ele><time>2026-04-26T09:38:27.728Z</time></trkpt><trkpt lat="42.9101267" lon="2.5552933"><ele>517.0</ele><time>2026-04-26T09:38:28.727Z</time></trkpt><trkpt lat="42.9102283" lon="2.55547"><ele>514.0</ele><time>2026-04-26T09:38:29.73Z</time></trkpt><trkpt lat="42.910325" lon="2.5556467"><ele>511.0</ele><time>2026-04-26T09:38:30.728Z</time></trkpt><trkpt lat="42.91042" lon="2.55582"><ele>511.0</ele><time>2026-04-26T09:38:31.73Z</time></trkpt><trkpt lat="42.9105133" lon="2.5559833"><ele>511.0</ele><time>2026-04-26T09:38:32.728Z</time></trkpt><trkpt lat="42.9106" lon="2.5561367"><ele>511.0</ele><time>2026-04-26T09:38:33.729Z</time></trkpt><trkpt lat="42.9106867" lon="2.5562717"><ele>511.0</ele><time>2026-04-26T09:38:34.727Z</time></trkpt><trkpt lat="42.9107867" lon="2.5563717"><ele>512.0</ele><time>2026-04-26T09:38:35.727Z</time></trkpt><trkpt lat="42.9108867" lon="2.55644"><ele>513.0</ele><time>2026-04-26T09:38:36.728Z</time></trkpt><trkpt lat="42.91098" lon="2.556495"><ele>514.0</ele><time>2026-04-26T09:38:37.728Z</time></trkpt><trkpt lat="42.91106" lon="2.5565383"><ele>515.0</ele><time>2026-04-26T09:38:38.728Z</time></trkpt><trkpt lat="42.9111283" lon="2.5565783"><ele>516.0</ele><time>2026-04-26T09:38:39.728Z</time></trkpt><trkpt lat="42.91119" lon="2.5566117"><ele>517.0</ele><time>2026-04-26T09:38:40.728Z</time></trkpt><trkpt lat="42.9112683" lon="2.556655"><ele>517.0</ele><time>2026-04-26T09:38:42.728Z</time></trkpt><trkpt lat="42.911185" lon="2.55657"><ele>517.0</ele><time>2026-04-26T09:39:02.729Z</time></trkpt><trkpt lat="42.911125" lon="2.55653"><ele>517.0</ele><time>2026-04-26T09:39:03.728Z</time></trkpt><trkpt lat="42.9110433" lon="2.556475"><ele>517.0</ele><time>2026-04-26T09:39:04.727Z</time></trkpt><trkpt lat="42.9109383" lon="2.5564217"><ele>517.0</ele><time>2026-04-26T09:39:05.728Z</time></trkpt><trkpt lat="42.9108317" lon="2.5563633"><ele>517.0</ele><time>2026-04-26T09:39:06.728Z</time></trkpt><trkpt lat="42.9107283" lon="2.5562817"><ele>517.0</ele><time>2026-04-26T09:39:07.729Z</time></trkpt><trkpt lat="42.91063" lon="2.5561667"><ele>517.0</ele><time>2026-04-26T09:39:08.727Z</time></trkpt><trkpt lat="42.9105417" lon="2.5560217"><ele>517.0</ele><time>2026-04-26T09:39:09.727Z</time></trkpt><trkpt lat="42.9104617" lon="2.5558617"><ele>515.5</ele><time>2026-04-26T09:39:10.728Z</time></trkpt><trkpt lat="42.9103817" lon="2.5557067"><ele>514.0</ele><time>2026-04-26T09:39:11.728Z</time></trkpt><trkpt lat="42.9102967" lon="2.5555517"><ele>512.5</ele><time>2026-04-26T09:39:12.727Z</time></trkpt><trkpt lat="42.91021" lon="2.555395"><ele>511.0</ele><time>2026-04-26T09:39:13.728Z</time></trkpt><trkpt lat="42.9101167" lon="2.555235"><ele>514.0</ele><time>2026-04-26T09:39:14.729Z</time></trkpt><trkpt lat="42.91002" lon="2.5550717"><ele>517.0</ele><time>2026-04-26T09:39:15.73Z</time></trkpt><trkpt lat="42.9099167" lon="2.554915"><ele>520.0</ele><time>2026-04-26T09:39:16.729Z</time></trkpt><trkpt lat="42.90981" lon="2.5547717"><ele>520.0</ele><time>2026-04-26T09:39:17.728Z</time></trkpt><trkpt lat="42.9097267" lon="2.55463"><ele>520.0</ele><time>2026-04-26T09:39:18.729Z</time></trkpt><trkpt lat="42.9096767" lon="2.554485"><ele>520.0</ele><time>2026-04-26T09:39:19.729Z</time></trkpt><trkpt lat="42.9096633" lon="2.5543333"><ele>520.0</ele><time>2026-04-26T09:39:20.73Z</time></trkpt><trkpt lat="42.909685" lon="2.5541917"><ele>519.0</ele><time>2026-04-26T09:39:21.731Z</time></trkpt><trkpt lat="42.9097" lon="2.5540567"><ele>518.0</ele><time>2026-04-26T09:39:22.727Z</time></trkpt><trkpt lat="42.90969" lon="2.5539267"><ele>517.0</ele><time>2026-04-26T09:39:23.727Z</time></trkpt><trkpt lat="42.9096317" lon="2.5538033"><ele>516.0</ele><time>2026-04-26T09:39:24.729Z</time></trkpt><trkpt lat="42.9095383" lon="2.553695"><ele>515.0</ele><time>2026-04-26T09:39:25.73Z</time></trkpt><trkpt lat="42.909425" lon="2.5536117"><ele>514.75</ele><time>2026-04-26T09:39:26.729Z</time></trkpt><trkpt lat="42.90931" lon="2.553565"><ele>514.5</ele><time>2026-04-26T09:39:27.73Z</time></trkpt><trkpt lat="42.9091967" lon="2.5535317"><ele>514.25</ele><time>2026-04-26T09:39:28.728Z</time></trkpt><trkpt lat="42.909095" lon="2.5534733"><ele>514.0</ele><time>2026-04-26T09:39:29.732Z</time></trkpt><trkpt lat="42.909005" lon="2.553375"><ele>516.5</ele><time>2026-04-26T09:39:30.728Z</time></trkpt><trkpt lat="42.908915" lon="2.5532483"><ele>519.0</ele><time>2026-04-26T09:39:31.729Z</time></trkpt><trkpt lat="42.90882" lon="2.553115"><ele>521.5</ele><time>2026-04-26T09:39:32.73Z</time></trkpt><trkpt lat="42.9087083" lon="2.552995"><ele>524.0</ele><time>2026-04-26T09:39:33.728Z</time></trkpt><trkpt lat="42.9085833" lon="2.55289"><ele>521.6666666666666</ele><time>2026-04-26T09:39:34.73Z</time></trkpt><trkpt lat="42.908455" lon="2.5527883"><ele>519.3333333333334</ele><time>2026-04-26T09:39:35.728Z</time></trkpt><trkpt lat="42.9083283" lon="2.5526783"><ele>517.0</ele><time>2026-04-26T09:39:36.728Z</time></trkpt><trkpt lat="42.9082017" lon="2.552555"><ele>521.6666666666667</ele><time>2026-04-26T09:39:37.727Z</time></trkpt><trkpt lat="42.9080817" lon="2.5524183"><ele>526.3333333333334</ele><time>2026-04-26T09:39:38.728Z</time></trkpt><trkpt lat="42.9079633" lon="2.5522833"><ele>531.0</ele><time>2026-04-26T09:39:39.728Z</time></trkpt><trkpt lat="42.9078583" lon="2.55214"><ele>529.0</ele><time>2026-04-26T09:39:40.728Z</time></trkpt><trkpt lat="42.9077783" lon="2.5519867"><ele>527.0</ele><time>2026-04-26T09:39:41.728Z</time></trkpt><trkpt lat="42.9077167" lon="2.5518233"><ele>525.0</ele><time>2026-04-26T09:39:42.73Z</time></trkpt><trkpt lat="42.9076583" lon="2.55165"><ele>523.0</ele><time>2026-04-26T09:39:43.729Z</time></trkpt><trkpt lat="42.9075983" lon="2.5514783"><ele>526.0</ele><time>2026-04-26T09:39:44.729Z</time></trkpt><trkpt lat="42.9075283" lon="2.5513033"><ele>529.0</ele><time>2026-04-26T09:39:45.727Z</time></trkpt><trkpt lat="42.907455" lon="2.5511333"><ele>532.0</ele><time>2026-04-26T09:39:46.727Z</time></trkpt><trkpt lat="42.9073867" lon="2.5509717"><ele>535.0</ele><time>2026-04-26T09:39:47.728Z</time></trkpt><trkpt lat="42.9073183" lon="2.5508183"><ele>535.0</ele><time>2026-04-26T09:39:48.729Z</time></trkpt><trkpt lat="42.9072483" lon="2.55068"><ele>535.0</ele><time>2026-04-26T09:39:49.73Z</time></trkpt><trkpt lat="42.90716" lon="2.5505567"><ele>535.0</ele><time>2026-04-26T09:39:50.731Z</time></trkpt><trkpt lat="42.90706" lon="2.5504533"><ele>535.0</ele><time>2026-04-26T09:39:51.73Z</time></trkpt><trkpt lat="42.906965" lon="2.550365"><ele>533.5</ele><time>2026-04-26T09:39:52.729Z</time></trkpt><trkpt lat="42.9068717" lon="2.5502883"><ele>532.0</ele><time>2026-04-26T09:39:53.73Z</time></trkpt><trkpt lat="42.9068017" lon="2.55022"><ele>530.5</ele><time>2026-04-26T09:39:54.729Z</time></trkpt><trkpt lat="42.906745" lon="2.5501567"><ele>529.0</ele><time>2026-04-26T09:39:55.731Z</time></trkpt><trkpt lat="42.9066933" lon="2.550095"><ele>527.5</ele><time>2026-04-26T09:39:56.73Z</time></trkpt><trkpt lat="42.9066217" lon="2.55"><ele>526.0</ele><time>2026-04-26T09:39:58.729Z</time></trkpt><trkpt lat="42.9065717" lon="2.55006"><ele>528.25</ele><time>2026-04-26T09:40:00.73Z</time></trkpt><trkpt lat="42.90659" lon="2.55022"><ele>530.5</ele><time>2026-04-26T09:40:02.728Z</time></trkpt><trkpt lat="42.906685" lon="2.5503967"><ele>532.75</ele><time>2026-04-26T09:40:04.728Z</time></trkpt><trkpt lat="42.90677" lon="2.5505733"><ele>535.0</ele><time>2026-04-26T09:40:05.728Z</time></trkpt><trkpt lat="42.9068333" lon="2.55073"><ele>535.0</ele><time>2026-04-26T09:40:06.729Z</time></trkpt><trkpt lat="42.9068783" lon="2.5508733"><ele>535.0</ele><time>2026-04-26T09:40:07.73Z</time></trkpt><trkpt lat="42.9069217" lon="2.5510067"><ele>535.0</ele><time>2026-04-26T09:40:08.729Z</time></trkpt><trkpt lat="42.906955" lon="2.5511483"><ele>535.0</ele><time>2026-04-26T09:40:09.729Z</time></trkpt><trkpt lat="42.906975" lon="2.5512983"><ele>535.0</ele><time>2026-04-26T09:40:10.729Z</time></trkpt><trkpt lat="42.90699" lon="2.5514483"><ele>536.6</ele><time>2026-04-26T09:40:11.729Z</time></trkpt><trkpt lat="42.9069883" lon="2.5515967"><ele>538.2</ele><time>2026-04-26T09:40:12.729Z</time></trkpt><trkpt lat="42.9069767" lon="2.5517383"><ele>539.8</ele><time>2026-04-26T09:40:13.729Z</time></trkpt><trkpt lat="42.9069617" lon="2.5518633"><ele>541.4</ele><time>2026-04-26T09:40:14.727Z</time></trkpt><trkpt lat="42.90695" lon="2.551965"><ele>543.0</ele><time>2026-04-26T09:40:15.728Z</time></trkpt><trkpt lat="42.90695" lon="2.5520667"><ele>543.8333333333334</ele><time>2026-04-26T09:40:16.728Z</time></trkpt><trkpt lat="42.9069683" lon="2.55217"><ele>544.6666666666666</ele><time>2026-04-26T09:40:17.729Z</time></trkpt><trkpt lat="42.9070083" lon="2.552265"><ele>545.5</ele><time>2026-04-26T09:40:18.729Z</time></trkpt><trkpt lat="42.9070417" lon="2.5523583"><ele>546.3333333333333</ele><time>2026-04-26T09:40:19.73Z</time></trkpt><trkpt lat="42.9070633" lon="2.55245"><ele>547.1666666666666</ele><time>2026-04-26T09:40:20.729Z</time></trkpt><trkpt lat="42.90708" lon="2.5525417"><ele>548.0</ele><time>2026-04-26T09:40:21.728Z</time></trkpt><trkpt lat="42.9070717" lon="2.5526517"><ele>548.0</ele><time>2026-04-26T09:40:22.729Z</time></trkpt><trkpt lat="42.907075" lon="2.552775"><ele>548.0</ele><time>2026-04-26T09:40:23.728Z</time></trkpt><trkpt lat="42.9070867" lon="2.5529133"><ele>548.0</ele><time>2026-04-26T09:40:24.728Z</time></trkpt><trkpt lat="42.907105" lon="2.553055"><ele>548.0</ele><time>2026-04-26T09:40:25.729Z</time></trkpt><trkpt lat="42.90711" lon="2.5532"><ele>548.0</ele><time>2026-04-26T09:40:26.729Z</time></trkpt><trkpt lat="42.9071167" lon="2.5533367"><ele>549.6</ele><time>2026-04-26T09:40:27.729Z</time></trkpt><trkpt lat="42.90712" lon="2.553455"><ele>551.1999999999999</ele><time>2026-04-26T09:40:28.728Z</time></trkpt><trkpt lat="42.9071167" lon="2.5535933"><ele>552.8</ele><time>2026-04-26T09:40:30.728Z</time></trkpt><trkpt lat="42.9071617" lon="2.5537617"><ele>554.4</ele><time>2026-04-26T09:41:16.729Z</time></trkpt><trkpt lat="42.907195" lon="2.5539117"><ele>556.0</ele><time>2026-04-26T09:41:18.729Z</time></trkpt><trkpt lat="42.9072217" lon="2.55405"><ele>557.6</ele><time>2026-04-26T09:41:19.729Z</time></trkpt><trkpt lat="42.9072467" lon="2.5541667"><ele>559.2</ele><time>2026-04-26T09:41:20.734Z</time></trkpt><trkpt lat="42.90729" lon="2.5542917"><ele>560.8</ele><time>2026-04-26T09:41:21.732Z</time></trkpt><trkpt lat="42.90735" lon="2.554395"><ele>562.4</ele><time>2026-04-26T09:41:22.731Z</time></trkpt><trkpt lat="42.907415" lon="2.5544867"><ele>564.0</ele><time>2026-04-26T09:41:23.728Z</time></trkpt><trkpt lat="42.9074717" lon="2.5545717"><ele>562.8</ele><time>2026-04-26T09:41:24.729Z</time></trkpt><trkpt lat="42.907545" lon="2.55466"><ele>561.5999999999999</ele><time>2026-04-26T09:41:25.729Z</time></trkpt><trkpt lat="42.9076117" lon="2.554765"><ele>560.4</ele><time>2026-04-26T09:41:26.729Z</time></trkpt><trkpt lat="42.9076717" lon="2.554875"><ele>559.1999999999999</ele><time>2026-04-26T09:41:27.73Z</time></trkpt><trkpt lat="42.9077467" lon="2.5549667"><ele>558.0</ele><time>2026-04-26T09:41:28.731Z</time></trkpt><trkpt lat="42.90781" lon="2.5550967"><ele>558.0</ele><time>2026-04-26T09:41:29.729Z</time></trkpt><trkpt lat="42.9078783" lon="2.5552067"><ele>558.0</ele><time>2026-04-26T09:41:30.729Z</time></trkpt><trkpt lat="42.9079383" lon="2.555315"><ele>558.0</ele><time>2026-04-26T09:41:31.728Z</time></trkpt><trkpt lat="42.908015" lon="2.55539"><ele>558.0</ele><time>2026-04-26T09:41:32.729Z</time></trkpt><trkpt lat="42.9080967" lon="2.555435"><ele>558.0</ele><time>2026-04-26T09:41:33.73Z</time></trkpt><trkpt lat="42.90818" lon="2.5554717"><ele>556.8</ele><time>2026-04-26T09:41:34.728Z</time></trkpt><trkpt lat="42.9082517" lon="2.5555483"><ele>555.5999999999999</ele><time>2026-04-26T09:41:35.73Z</time></trkpt><trkpt lat="42.908335" lon="2.55563"><ele>554.4000000000001</ele><time>2026-04-26T09:41:36.729Z</time></trkpt><trkpt lat="42.90841" lon="2.55572"><ele>553.2</ele><time>2026-04-26T09:41:37.728Z</time></trkpt><trkpt lat="42.9084883" lon="2.555805"><ele>552.0</ele><time>2026-04-26T09:41:38.73Z</time></trkpt><trkpt lat="42.9085617" lon="2.5558817"><ele>552.0</ele><time>2026-04-26T09:41:39.731Z</time></trkpt><trkpt lat="42.90861" lon="2.5559467"><ele>552.0</ele><time>2026-04-26T09:41:40.729Z</time></trkpt><trkpt lat="42.9086783" lon="2.5560217"><ele>552.0</ele><time>2026-04-26T09:41:47.731Z</time></trkpt><trkpt lat="42.9087833" lon="2.5561383"><ele>552.0</ele><time>2026-04-26T09:41:49.731Z</time></trkpt><trkpt lat="42.9088467" lon="2.556225"><ele>552.0</ele><time>2026-04-26T09:41:50.73Z</time></trkpt><trkpt lat="42.9089283" lon="2.5563167"><ele>549.6</ele><time>2026-04-26T09:41:51.73Z</time></trkpt><trkpt lat="42.909015" lon="2.55641"><ele>547.2</ele><time>2026-04-26T09:41:52.727Z</time></trkpt><trkpt lat="42.9091" lon="2.556505"><ele>544.8</ele><time>2026-04-26T09:41:53.733Z</time></trkpt><trkpt lat="42.9091783" lon="2.556595"><ele>542.4</ele><time>2026-04-26T09:41:54.729Z</time></trkpt><trkpt lat="42.90925" lon="2.5566817"><ele>540.0</ele><time>2026-04-26T09:41:55.73Z</time></trkpt><trkpt lat="42.9093067" lon="2.5567917"><ele>540.0</ele><time>2026-04-26T09:41:56.729Z</time></trkpt><trkpt lat="42.9093567" lon="2.556915"><ele>540.0</ele><time>2026-04-26T09:41:57.728Z</time></trkpt><trkpt lat="42.9094017" lon="2.5570467"><ele>540.0</ele><time>2026-04-26T09:41:58.727Z</time></trkpt><trkpt lat="42.9094617" lon="2.5571767"><ele>540.0</ele><time>2026-04-26T09:41:59.728Z</time></trkpt><trkpt lat="42.9095183" lon="2.5573033"><ele>540.0</ele><time>2026-04-26T09:42:00.728Z</time></trkpt><trkpt lat="42.9095817" lon="2.5574333"><ele>542.75</ele><time>2026-04-26T09:42:01.728Z</time></trkpt><trkpt lat="42.9096383" lon="2.5575683"><ele>545.5</ele><time>2026-04-26T09:42:02.728Z</time></trkpt><trkpt lat="42.9096817" lon="2.5577233"><ele>548.25</ele><time>2026-04-26T09:42:03.728Z</time></trkpt><trkpt lat="42.9097333" lon="2.5578767"><ele>551.0</ele><time>2026-04-26T09:42:04.727Z</time></trkpt><trkpt lat="42.9097883" lon="2.5580167"><ele>552.75</ele><time>2026-04-26T09:42:05.728Z</time></trkpt><trkpt lat="42.9098617" lon="2.558145"><ele>554.5</ele><time>2026-04-26T09:42:06.731Z</time></trkpt><trkpt lat="42.9099417" lon="2.5582683"><ele>556.25</ele><time>2026-04-26T09:42:07.728Z</time></trkpt><trkpt lat="42.9100217" lon="2.5584"><ele>558.0</ele><time>2026-04-26T09:42:08.731Z</time></trkpt><trkpt lat="42.9101017" lon="2.55854"><ele>554.5</ele><time>2026-04-26T09:42:09.728Z</time></trkpt><trkpt lat="42.9101617" lon="2.558685"><ele>551.0</ele><time>2026-04-26T09:42:10.727Z</time></trkpt><trkpt lat="42.9102217" lon="2.5588267"><ele>547.5</ele><time>2026-04-26T09:42:11.731Z</time></trkpt><trkpt lat="42.9102833" lon="2.558965"><ele>544.0</ele><time>2026-04-26T09:42:12.729Z</time></trkpt><trkpt lat="42.91035" lon="2.5590917"><ele>544.0</ele><time>2026-04-26T09:42:13.731Z</time></trkpt><trkpt lat="42.91043" lon="2.5591933"><ele>544.0</ele><time>2026-04-26T09:42:14.73Z</time></trkpt><trkpt lat="42.91052" lon="2.5592667"><ele>544.0</ele><time>2026-04-26T09:42:15.729Z</time></trkpt><trkpt lat="42.91061" lon="2.55933"><ele>544.0</ele><time>2026-04-26T09:42:16.728Z</time></trkpt><trkpt lat="42.9106867" lon="2.5593983"><ele>544.0</ele><time>2026-04-26T09:42:17.729Z</time></trkpt><trkpt lat="42.910755" lon="2.5594783"><ele>543.4</ele><time>2026-04-26T09:42:18.731Z</time></trkpt><trkpt lat="42.91082" lon="2.5595767"><ele>542.8</ele><time>2026-04-26T09:42:19.728Z</time></trkpt><trkpt lat="42.9108833" lon="2.55968"><ele>542.2</ele><time>2026-04-26T09:42:20.73Z</time></trkpt><trkpt lat="42.9109517" lon="2.559775"><ele>541.6</ele><time>2026-04-26T09:42:21.729Z</time></trkpt><trkpt lat="42.9110233" lon="2.5598583"><ele>541.0</ele><time>2026-04-26T09:42:22.729Z</time></trkpt><trkpt lat="42.911095" lon="2.5599283"><ele>541.0</ele><time>2026-04-26T09:42:23.728Z</time></trkpt><trkpt lat="42.9111683" lon="2.5599833"><ele>541.0</ele><time>2026-04-26T09:42:24.728Z</time></trkpt><trkpt lat="42.9112467" lon="2.5600183"><ele>541.0</ele><time>2026-04-26T09:42:25.732Z</time></trkpt><trkpt lat="42.9113317" lon="2.56001"><ele>541.0</ele><time>2026-04-26T09:42:26.728Z</time></trkpt><trkpt lat="42.9114283" lon="2.5599867"><ele>541.0</ele><time>2026-04-26T09:42:27.73Z</time></trkpt><trkpt lat="42.91153" lon="2.559975"><ele>541.0</ele><time>2026-04-26T09:42:28.731Z</time></trkpt><trkpt lat="42.9116267" lon="2.559985"><ele>541.0</ele><time>2026-04-26T09:42:29.729Z</time></trkpt><trkpt lat="42.9117217" lon="2.56"><ele>541.0</ele><time>2026-04-26T09:42:30.729Z</time></trkpt><trkpt lat="42.9118033" lon="2.560035"><ele>541.0</ele><time>2026-04-26T09:42:31.73Z</time></trkpt><trkpt lat="42.9118767" lon="2.56009"><ele>541.0</ele><time>2026-04-26T09:42:32.729Z</time></trkpt><trkpt lat="42.9119467" lon="2.5601683"><ele>539.6666666666667</ele><time>2026-04-26T09:42:33.729Z</time></trkpt><trkpt lat="42.91201" lon="2.56026"><ele>538.3333333333334</ele><time>2026-04-26T09:42:34.729Z</time></trkpt><trkpt lat="42.9120617" lon="2.5603517"><ele>537.0</ele><time>2026-04-26T09:42:35.729Z</time></trkpt><trkpt lat="42.9121033" lon="2.5604467"><ele>535.6666666666666</ele><time>2026-04-26T09:42:36.731Z</time></trkpt><trkpt lat="42.912125" lon="2.56054"><ele>534.3333333333333</ele><time>2026-04-26T09:42:37.73Z</time></trkpt><trkpt lat="42.912115" lon="2.5606317"><ele>533.0</ele><time>2026-04-26T09:42:38.729Z</time></trkpt><trkpt lat="42.9120967" lon="2.5607217"><ele>533.0</ele><time>2026-04-26T09:42:39.729Z</time></trkpt><trkpt lat="42.9120667" lon="2.560815"><ele>533.0</ele><time>2026-04-26T09:42:40.729Z</time></trkpt><trkpt lat="42.9120367" lon="2.5609083"><ele>533.0</ele><time>2026-04-26T09:42:41.731Z</time></trkpt><trkpt lat="42.9120033" lon="2.5610033"><ele>533.0</ele><time>2026-04-26T09:42:42.728Z</time></trkpt><trkpt lat="42.9119617" lon="2.5610817"><ele>533.0</ele><time>2026-04-26T09:42:43.729Z</time></trkpt><trkpt lat="42.9119033" lon="2.5611483"><ele>533.0</ele><time>2026-04-26T09:42:44.729Z</time></trkpt><trkpt lat="42.9118367" lon="2.5611883"><ele>533.0</ele><time>2026-04-26T09:42:45.729Z</time></trkpt><trkpt lat="42.911755" lon="2.5611933"><ele>532.1666666666666</ele><time>2026-04-26T09:42:46.729Z</time></trkpt><trkpt lat="42.9116767" lon="2.561195"><ele>531.3333333333333</ele><time>2026-04-26T09:42:47.729Z</time></trkpt><trkpt lat="42.9116067" lon="2.56122"><ele>530.5</ele><time>2026-04-26T09:42:48.729Z</time></trkpt><trkpt lat="42.9115383" lon="2.5612567"><ele>529.6666666666666</ele><time>2026-04-26T09:42:49.731Z</time></trkpt><trkpt lat="42.9114867" lon="2.5613233"><ele>528.8333333333334</ele><time>2026-04-26T09:42:50.729Z</time></trkpt><trkpt lat="42.9114583" lon="2.5614167"><ele>528.0</ele><time>2026-04-26T09:42:51.729Z</time></trkpt><trkpt lat="42.9114433" lon="2.5615417"><ele>528.0</ele><time>2026-04-26T09:42:52.728Z</time></trkpt><trkpt lat="42.9114133" lon="2.5616517"><ele>528.0</ele><time>2026-04-26T09:42:53.729Z</time></trkpt><trkpt lat="42.9113783" lon="2.56176"><ele>528.0</ele><time>2026-04-26T09:42:54.729Z</time></trkpt><trkpt lat="42.9113283" lon="2.56186"><ele>528.0</ele><time>2026-04-26T09:42:55.728Z</time></trkpt><trkpt lat="42.9112633" lon="2.56195"><ele>528.0</ele><time>2026-04-26T09:42:56.729Z</time></trkpt><trkpt lat="42.9111933" lon="2.5620367"><ele>528.0</ele><time>2026-04-26T09:42:57.73Z</time></trkpt><trkpt lat="42.9111283" lon="2.5621233"><ele>527.0</ele><time>2026-04-26T09:42:58.729Z</time></trkpt><trkpt lat="42.9110667" lon="2.5622083"><ele>526.0</ele><time>2026-04-26T09:42:59.728Z</time></trkpt><trkpt lat="42.911015" lon="2.56229"><ele>525.0</ele><time>2026-04-26T09:43:00.728Z</time></trkpt><trkpt lat="42.9109783" lon="2.562365"><ele>524.0</ele><time>2026-04-26T09:43:01.73Z</time></trkpt><trkpt lat="42.91102" lon="2.56248"><ele>523.0</ele><time>2026-04-26T09:43:03.729Z</time></trkpt><trkpt lat="42.9111617" lon="2.562545"><ele>523.0</ele><time>2026-04-26T09:43:05.729Z</time></trkpt><trkpt lat="42.911255" lon="2.5625733"><ele>523.0</ele><time>2026-04-26T09:43:06.73Z</time></trkpt><trkpt lat="42.91135" lon="2.5626067"><ele>523.0</ele><time>2026-04-26T09:43:07.729Z</time></trkpt><trkpt lat="42.9114467" lon="2.5626467"><ele>523.0</ele><time>2026-04-26T09:43:08.728Z</time></trkpt><trkpt lat="42.9115367" lon="2.5626967"><ele>523.0</ele><time>2026-04-26T09:43:09.729Z</time></trkpt><trkpt lat="42.9116267" lon="2.5627517"><ele>523.0</ele><time>2026-04-26T09:43:10.729Z</time></trkpt><trkpt lat="42.9117183" lon="2.5628067"><ele>523.0</ele><time>2026-04-26T09:43:11.727Z</time></trkpt><trkpt lat="42.911805" lon="2.5628717"><ele>523.0</ele><time>2026-04-26T09:43:12.728Z</time></trkpt><trkpt lat="42.9118817" lon="2.56296"><ele>523.0</ele><time>2026-04-26T09:43:13.729Z</time></trkpt><trkpt lat="42.911965" lon="2.563065"><ele>523.0</ele><time>2026-04-26T09:43:14.728Z</time></trkpt><trkpt lat="42.9120567" lon="2.56317"><ele>521.5</ele><time>2026-04-26T09:43:15.729Z</time></trkpt><trkpt lat="42.9121583" lon="2.563265"><ele>520.0</ele><time>2026-04-26T09:43:16.729Z</time></trkpt><trkpt lat="42.9122583" lon="2.5633583"><ele>518.5</ele><time>2026-04-26T09:43:17.729Z</time></trkpt><trkpt lat="42.9123567" lon="2.5634517"><ele>517.0</ele><time>2026-04-26T09:43:18.729Z</time></trkpt><trkpt lat="42.9124533" lon="2.5635483"><ele>517.0</ele><time>2026-04-26T09:43:19.731Z</time></trkpt><trkpt lat="42.91255" lon="2.5636467"><ele>517.0</ele><time>2026-04-26T09:43:20.728Z</time></trkpt><trkpt lat="42.9126517" lon="2.56374"><ele>517.0</ele><time>2026-04-26T09:43:21.73Z</time></trkpt><trkpt lat="42.9127533" lon="2.56384"><ele>517.0</ele><time>2026-04-26T09:43:22.728Z</time></trkpt><trkpt lat="42.9128517" lon="2.5639483"><ele>513.0</ele><time>2026-04-26T09:43:23.73Z</time></trkpt><trkpt lat="42.9129267" lon="2.5640733"><ele>509.0</ele><time>2026-04-26T09:43:24.731Z</time></trkpt><trkpt lat="42.9130067" lon="2.5641933"><ele>505.0</ele><time>2026-04-26T09:43:25.728Z</time></trkpt><trkpt lat="42.9131" lon="2.564295"><ele>501.0</ele><time>2026-04-26T09:43:26.73Z</time></trkpt><trkpt lat="42.913195" lon="2.5643917"><ele>501.0</ele><time>2026-04-26T09:43:27.729Z</time></trkpt><trkpt lat="42.9132883" lon="2.5644933"><ele>501.0</ele><time>2026-04-26T09:43:28.728Z</time></trkpt><trkpt lat="42.9133683" lon="2.5646033"><ele>501.0</ele><time>2026-04-26T09:43:29.728Z</time></trkpt><trkpt lat="42.9134467" lon="2.56471"><ele>501.0</ele><time>2026-04-26T09:43:30.729Z</time></trkpt><trkpt lat="42.9135233" lon="2.5648"><ele>501.0</ele><time>2026-04-26T09:43:31.733Z</time></trkpt><trkpt lat="42.9136017" lon="2.5648717"><ele>498.6</ele><time>2026-04-26T09:43:32.728Z</time></trkpt><trkpt lat="42.913675" lon="2.5649383"><ele>496.20000000000005</ele><time>2026-04-26T09:43:33.729Z</time></trkpt><trkpt lat="42.9137417" lon="2.5650067"><ele>493.79999999999995</ele><time>2026-04-26T09:43:34.727Z</time></trkpt><trkpt lat="42.9138117" lon="2.5650967"><ele>491.4</ele><time>2026-04-26T09:43:35.728Z</time></trkpt><trkpt lat="42.91388" lon="2.5652067"><ele>489.0</ele><time>2026-04-26T09:43:36.729Z</time></trkpt><trkpt lat="42.9139433" lon="2.56532"><ele>490.2</ele><time>2026-04-26T09:43:37.729Z</time></trkpt><trkpt lat="42.9140033" lon="2.5654333"><ele>491.4</ele><time>2026-04-26T09:43:38.73Z</time></trkpt><trkpt lat="42.9140583" lon="2.5655517"><ele>492.6</ele><time>2026-04-26T09:43:39.728Z</time></trkpt><trkpt lat="42.9141167" lon="2.565665"><ele>493.8</ele><time>2026-04-26T09:43:40.727Z</time></trkpt><trkpt lat="42.9141633" lon="2.56577"><ele>495.0</ele><time>2026-04-26T09:43:41.728Z</time></trkpt><trkpt lat="42.9141933" lon="2.5658783"><ele>495.0</ele><time>2026-04-26T09:43:42.727Z</time></trkpt><trkpt lat="42.9142067" lon="2.566"><ele>495.0</ele><time>2026-04-26T09:43:43.728Z</time></trkpt><trkpt lat="42.9142267" lon="2.56612"><ele>495.0</ele><time>2026-04-26T09:43:44.73Z</time></trkpt><trkpt lat="42.9142617" lon="2.5662383"><ele>495.0</ele><time>2026-04-26T09:43:45.728Z</time></trkpt><trkpt lat="42.9143067" lon="2.5663583"><ele>495.0</ele><time>2026-04-26T09:43:46.73Z</time></trkpt><trkpt lat="42.9143567" lon="2.566475"><ele>491.3333333333333</ele><time>2026-04-26T09:43:47.728Z</time></trkpt><trkpt lat="42.91441" lon="2.566585"><ele>487.66666666666663</ele><time>2026-04-26T09:43:48.73Z</time></trkpt><trkpt lat="42.91446" lon="2.5667"><ele>484.0</ele><time>2026-04-26T09:43:49.73Z</time></trkpt><trkpt lat="42.9145017" lon="2.5667983"><ele>480.3333333333333</ele><time>2026-04-26T09:43:50.731Z</time></trkpt><trkpt lat="42.9145433" lon="2.5668967"><ele>476.66666666666663</ele><time>2026-04-26T09:43:51.731Z</time></trkpt><trkpt lat="42.9145883" lon="2.5669983"><ele>473.0</ele><time>2026-04-26T09:43:52.728Z</time></trkpt><trkpt lat="42.9146433" lon="2.567085"><ele>473.0</ele><time>2026-04-26T09:43:53.726Z</time></trkpt><trkpt lat="42.9147133" lon="2.5671783"><ele>472.99999999999994</ele><time>2026-04-26T09:43:54.727Z</time></trkpt><trkpt lat="42.9147783" lon="2.5672683"><ele>472.99999999999994</ele><time>2026-04-26T09:43:55.732Z</time></trkpt><trkpt lat="42.9148333" lon="2.5673667"><ele>473.0</ele><time>2026-04-26T09:43:56.729Z</time></trkpt><trkpt lat="42.9148883" lon="2.5674617"><ele>473.0</ele><time>2026-04-26T09:43:57.727Z</time></trkpt><trkpt lat="42.9149583" lon="2.5675367"><ele>472.99999999999994</ele><time>2026-04-26T09:43:58.729Z</time></trkpt><trkpt lat="42.915025" lon="2.5676017"><ele>473.0</ele><time>2026-04-26T09:43:59.727Z</time></trkpt><trkpt lat="42.91508" lon="2.5676583"><ele>473.0</ele><time>2026-04-26T09:44:00.728Z</time></trkpt><trkpt lat="42.91513" lon="2.5677117"><ele>473.0</ele><time>2026-04-26T09:44:01.728Z</time></trkpt><trkpt lat="42.9152283" lon="2.567775"><ele>472.99999999999994</ele><time>2026-04-26T09:44:03.728Z</time></trkpt><trkpt lat="42.9153" lon="2.5678083"><ele>473.0</ele><time>2026-04-26T09:44:05.728Z</time></trkpt><trkpt lat="42.9153867" lon="2.5678117"><ele>473.42857142857144</ele><time>2026-04-26T09:44:07.731Z</time></trkpt><trkpt lat="42.91545" lon="2.5678117"><ele>473.85714285714283</ele><time>2026-04-26T09:44:08.73Z</time></trkpt><trkpt lat="42.91552" lon="2.56781"><ele>474.2857142857143</ele><time>2026-04-26T09:44:09.73Z</time></trkpt><trkpt lat="42.9155933" lon="2.567815"><ele>474.7142857142857</ele><time>2026-04-26T09:44:10.73Z</time></trkpt><trkpt lat="42.91566" lon="2.5678183"><ele>475.1428571428571</ele><time>2026-04-26T09:44:11.73Z</time></trkpt><trkpt lat="42.9157483" lon="2.56781"><ele>475.57142857142856</ele><time>2026-04-26T09:44:13.727Z</time></trkpt><trkpt lat="42.91578" lon="2.5677117"><ele>476.0</ele><time>2026-04-26T09:44:16.727Z</time></trkpt><trkpt lat="42.915735" lon="2.5676267"><ele>476.0</ele><time>2026-04-26T09:44:17.729Z</time></trkpt><trkpt lat="42.9156983" lon="2.5675417"><ele>476.0</ele><time>2026-04-26T09:44:18.729Z</time></trkpt><trkpt lat="42.9156617" lon="2.56743"><ele>476.0</ele><time>2026-04-26T09:44:19.729Z</time></trkpt><trkpt lat="42.915625" lon="2.5673117"><ele>476.0</ele><time>2026-04-26T09:44:20.728Z</time></trkpt><trkpt lat="42.9155867" lon="2.5671717"><ele>476.0</ele><time>2026-04-26T09:44:21.727Z</time></trkpt><trkpt lat="42.9155533" lon="2.567025"><ele>477.5</ele><time>2026-04-26T09:44:22.727Z</time></trkpt><trkpt lat="42.915525" lon="2.566855"><ele>479.0</ele><time>2026-04-26T09:44:23.731Z</time></trkpt><trkpt lat="42.9155067" lon="2.5666783"><ele>480.5</ele><time>2026-04-26T09:44:24.728Z</time></trkpt><trkpt lat="42.915495" lon="2.56649"><ele>482.0</ele><time>2026-04-26T09:44:25.729Z</time></trkpt><trkpt lat="42.91548" lon="2.5662883"><ele>482.3333333333333</ele><time>2026-04-26T09:44:26.727Z</time></trkpt><trkpt lat="42.9154683" lon="2.5660767"><ele>482.66666666666663</ele><time>2026-04-26T09:44:27.727Z</time></trkpt><trkpt lat="42.9154583" lon="2.5658667"><ele>483.0</ele><time>2026-04-26T09:44:28.727Z</time></trkpt><trkpt lat="42.9154467" lon="2.5656583"><ele>483.0</ele><time>2026-04-26T09:44:29.728Z</time></trkpt><trkpt lat="42.9154317" lon="2.5654517"><ele>483.0</ele><time>2026-04-26T09:44:30.728Z</time></trkpt><trkpt lat="42.9154183" lon="2.5652483"><ele>483.0</ele><time>2026-04-26T09:44:31.728Z</time></trkpt><trkpt lat="42.9154017" lon="2.565045"><ele>482.0</ele><time>2026-04-26T09:44:32.727Z</time></trkpt><trkpt lat="42.9153733" lon="2.564845"><ele>481.0</ele><time>2026-04-26T09:44:33.729Z</time></trkpt><trkpt lat="42.91532" lon="2.56465"><ele>480.0</ele><time>2026-04-26T09:44:34.731Z</time></trkpt><trkpt lat="42.91525" lon="2.56446"><ele>480.75</ele><time>2026-04-26T09:44:35.727Z</time></trkpt><trkpt lat="42.9151583" lon="2.564305"><ele>481.5</ele><time>2026-04-26T09:44:36.727Z</time></trkpt><trkpt lat="42.9150633" lon="2.56416"><ele>482.25</ele><time>2026-04-26T09:44:37.727Z</time></trkpt><trkpt lat="42.9149717" lon="2.5640283"><ele>483.0</ele><time>2026-04-26T09:44:38.729Z</time></trkpt><trkpt lat="42.914895" lon="2.5639"><ele>483.0</ele><time>2026-04-26T09:44:39.727Z</time></trkpt><trkpt lat="42.9148267" lon="2.56378"><ele>482.99999999999994</ele><time>2026-04-26T09:44:40.729Z</time></trkpt><trkpt lat="42.91478" lon="2.5636483"><ele>482.99999999999994</ele><time>2026-04-26T09:44:41.729Z</time></trkpt><trkpt lat="42.914765" lon="2.5634983"><ele>483.0</ele><time>2026-04-26T09:44:42.729Z</time></trkpt><trkpt lat="42.9147833" lon="2.5633433"><ele>483.0</ele><time>2026-04-26T09:44:43.728Z</time></trkpt><trkpt lat="42.9148117" lon="2.56318"><ele>486.0</ele><time>2026-04-26T09:44:44.727Z</time></trkpt><trkpt lat="42.9148433" lon="2.56301"><ele>489.0</ele><time>2026-04-26T09:44:45.727Z</time></trkpt><trkpt lat="42.9148633" lon="2.5628317"><ele>492.0</ele><time>2026-04-26T09:44:46.727Z</time></trkpt><trkpt lat="42.9148717" lon="2.56264"><ele>495.0</ele><time>2026-04-26T09:44:47.728Z</time></trkpt><trkpt lat="42.914865" lon="2.5624383"><ele>495.66666666666663</ele><time>2026-04-26T09:44:48.728Z</time></trkpt><trkpt lat="42.9148567" lon="2.5622367"><ele>496.3333333333333</ele><time>2026-04-26T09:44:49.731Z</time></trkpt><trkpt lat="42.9148467" lon="2.5620283"><ele>497.0</ele><time>2026-04-26T09:44:50.728Z</time></trkpt><trkpt lat="42.91484" lon="2.56182"><ele>498.0</ele><time>2026-04-26T09:44:51.728Z</time></trkpt><trkpt lat="42.9148333" lon="2.5616133"><ele>499.0</ele><time>2026-04-26T09:44:52.729Z</time></trkpt><trkpt lat="42.9148233" lon="2.5614183"><ele>500.0</ele><time>2026-04-26T09:44:53.728Z</time></trkpt><trkpt lat="42.914805" lon="2.5612333"><ele>501.0</ele><time>2026-04-26T09:44:54.727Z</time></trkpt><trkpt lat="42.9147783" lon="2.5610583"><ele>504.5</ele><time>2026-04-26T09:44:55.73Z</time></trkpt><trkpt lat="42.9147383" lon="2.560885"><ele>508.0</ele><time>2026-04-26T09:44:56.727Z</time></trkpt><trkpt lat="42.91468" lon="2.5607183"><ele>511.5</ele><time>2026-04-26T09:44:57.729Z</time></trkpt><trkpt lat="42.914605" lon="2.560555"><ele>515.0</ele><time>2026-04-26T09:44:58.728Z</time></trkpt><trkpt lat="42.914525" lon="2.5603883"><ele>523.6666666666666</ele><time>2026-04-26T09:44:59.728Z</time></trkpt><trkpt lat="42.9144467" lon="2.560215"><ele>532.3333333333334</ele><time>2026-04-26T09:45:00.728Z</time></trkpt><trkpt lat="42.9143617" lon="2.5600417"><ele>541.0</ele><time>2026-04-26T09:45:01.731Z</time></trkpt><trkpt lat="42.9142717" lon="2.5598783"><ele>536.0</ele><time>2026-04-26T09:45:02.728Z</time></trkpt><trkpt lat="42.9141867" lon="2.55972"><ele>531.0</ele><time>2026-04-26T09:45:03.728Z</time></trkpt><trkpt lat="42.9141017" lon="2.5595683"><ele>526.0</ele><time>2026-04-26T09:45:04.73Z</time></trkpt><trkpt lat="42.91401" lon="2.5594417"><ele>521.0</ele><time>2026-04-26T09:45:05.726Z</time></trkpt><trkpt lat="42.9139083" lon="2.55935"><ele>521.0</ele><time>2026-04-26T09:45:06.731Z</time></trkpt><trkpt lat="42.913805" lon="2.5593"><ele>521.0</ele><time>2026-04-26T09:45:07.729Z</time></trkpt><trkpt lat="42.9137067" lon="2.5592517"><ele>521.0</ele><time>2026-04-26T09:45:08.728Z</time></trkpt><trkpt lat="42.913625" lon="2.5591717"><ele>521.0</ele><time>2026-04-26T09:45:09.727Z</time></trkpt><trkpt lat="42.9135567" lon="2.5590717"><ele>521.0</ele><time>2026-04-26T09:45:10.73Z</time></trkpt><trkpt lat="42.913495" lon="2.558975"><ele>521.0</ele><time>2026-04-26T09:45:11.731Z</time></trkpt><trkpt lat="42.9134383" lon="2.5588833"><ele>521.0</ele><time>2026-04-26T09:45:12.73Z</time></trkpt><trkpt lat="42.91338" lon="2.55882"><ele>521.0</ele><time>2026-04-26T09:45:13.729Z</time></trkpt><trkpt lat="42.9133283" lon="2.5587583"><ele>521.0</ele><time>2026-04-26T09:45:14.731Z</time></trkpt><trkpt lat="42.9132883" lon="2.5586683"><ele>521.0</ele><time>2026-04-26T09:45:15.727Z</time></trkpt><trkpt lat="42.9132467" lon="2.55856"><ele>521.0</ele><time>2026-04-26T09:45:16.73Z</time></trkpt><trkpt lat="42.91321" lon="2.5584517"><ele>521.0</ele><time>2026-04-26T09:45:17.729Z</time></trkpt><trkpt lat="42.91318" lon="2.5583267"><ele>521.0</ele><time>2026-04-26T09:45:18.728Z</time></trkpt><trkpt lat="42.9131417" lon="2.5581933"><ele>521.0</ele><time>2026-04-26T09:45:19.729Z</time></trkpt><trkpt lat="42.9131" lon="2.5580567"><ele>521.0</ele><time>2026-04-26T09:45:20.731Z</time></trkpt><trkpt lat="42.913065" lon="2.55791"><ele>521.0</ele><time>2026-04-26T09:45:21.729Z</time></trkpt><trkpt lat="42.9130383" lon="2.5577617"><ele>521.0</ele><time>2026-04-26T09:45:22.728Z</time></trkpt><trkpt lat="42.9130083" lon="2.5576"><ele>521.0</ele><time>2026-04-26T09:45:23.728Z</time></trkpt><trkpt lat="42.9129783" lon="2.5574333"><ele>521.0</ele><time>2026-04-26T09:45:24.728Z</time></trkpt><trkpt lat="42.9129483" lon="2.5572617"><ele>521.0</ele><time>2026-04-26T09:45:25.728Z</time></trkpt><trkpt lat="42.9129067" lon="2.5570917"><ele>522.2</ele><time>2026-04-26T09:45:26.731Z</time></trkpt><trkpt lat="42.9128667" lon="2.55694"><ele>523.4000000000001</ele><time>2026-04-26T09:45:27.728Z</time></trkpt><trkpt lat="42.9128167" lon="2.5568033"><ele>524.6</ele><time>2026-04-26T09:45:28.728Z</time></trkpt><trkpt lat="42.9127733" lon="2.5566733"><ele>525.8000000000001</ele><time>2026-04-26T09:45:29.729Z</time></trkpt><trkpt lat="42.9127367" lon="2.5565283"><ele>527.0</ele><time>2026-04-26T09:45:30.729Z</time></trkpt><trkpt lat="42.9126983" lon="2.5563633"><ele>523.5</ele><time>2026-04-26T09:45:31.728Z</time></trkpt><trkpt lat="42.912655" lon="2.5561867"><ele>520.0</ele><time>2026-04-26T09:45:32.729Z</time></trkpt><trkpt lat="42.9126117" lon="2.556015"><ele>516.5</ele><time>2026-04-26T09:45:33.731Z</time></trkpt><trkpt lat="42.9125783" lon="2.5558583"><ele>513.0</ele><time>2026-04-26T09:45:34.728Z</time></trkpt><trkpt lat="42.9125517" lon="2.5557117"><ele>513.0</ele><time>2026-04-26T09:45:35.727Z</time></trkpt><trkpt lat="42.91252" lon="2.5555817"><ele>513.0</ele><time>2026-04-26T09:45:36.73Z</time></trkpt><trkpt lat="42.912465" lon="2.5554683"><ele>513.0</ele><time>2026-04-26T09:45:37.73Z</time></trkpt><trkpt lat="42.9123933" lon="2.555375"><ele>513.0</ele><time>2026-04-26T09:45:38.729Z</time></trkpt><trkpt lat="42.9123083" lon="2.555305"><ele>513.0</ele><time>2026-04-26T09:45:39.73Z</time></trkpt><trkpt lat="42.9122167" lon="2.5552433"><ele>517.5</ele><time>2026-04-26T09:45:40.73Z</time></trkpt><trkpt lat="42.9121167" lon="2.55519"><ele>522.0</ele><time>2026-04-26T09:45:41.733Z</time></trkpt><trkpt lat="42.9120133" lon="2.5551433"><ele>526.5</ele><time>2026-04-26T09:45:42.729Z</time></trkpt><trkpt lat="42.9118967" lon="2.5551117"><ele>531.0</ele><time>2026-04-26T09:45:43.732Z</time></trkpt><trkpt lat="42.91178" lon="2.5550817"><ele>526.25</ele><time>2026-04-26T09:45:44.73Z</time></trkpt><trkpt lat="42.9116633" lon="2.55505"><ele>521.5</ele><time>2026-04-26T09:45:45.727Z</time></trkpt><trkpt lat="42.9115483" lon="2.55501"><ele>516.75</ele><time>2026-04-26T09:45:46.732Z</time></trkpt><trkpt lat="42.9114367" lon="2.554965"><ele>512.0</ele><time>2026-04-26T09:45:47.733Z</time></trkpt><trkpt lat="42.9113267" lon="2.554915"><ele>512.0</ele><time>2026-04-26T09:45:48.729Z</time></trkpt><trkpt lat="42.9112233" lon="2.5548567"><ele>512.0</ele><time>2026-04-26T09:45:49.73Z</time></trkpt><trkpt lat="42.9111283" lon="2.5548"><ele>512.0</ele><time>2026-04-26T09:45:50.73Z</time></trkpt><trkpt lat="42.9110367" lon="2.5547433"><ele>512.0</ele><time>2026-04-26T09:45:51.731Z</time></trkpt><trkpt lat="42.9109483" lon="2.554685"><ele>512.0</ele><time>2026-04-26T09:45:52.73Z</time></trkpt><trkpt lat="42.91087" lon="2.5546083"><ele>512.4</ele><time>2026-04-26T09:45:53.729Z</time></trkpt><trkpt lat="42.9107917" lon="2.5545117"><ele>512.8000000000001</ele><time>2026-04-26T09:45:54.729Z</time></trkpt><trkpt lat="42.9107133" lon="2.554405"><ele>513.2</ele><time>2026-04-26T09:45:55.729Z</time></trkpt><trkpt lat="42.91064" lon="2.5542883"><ele>513.6</ele><time>2026-04-26T09:45:56.73Z</time></trkpt><trkpt lat="42.9105767" lon="2.5541683"><ele>514.0</ele><time>2026-04-26T09:45:57.73Z</time></trkpt><trkpt lat="42.9105167" lon="2.55404"><ele>514.0</ele><time>2026-04-26T09:45:58.727Z</time></trkpt><trkpt lat="42.9104583" lon="2.5539033"><ele>514.0</ele><time>2026-04-26T09:45:59.728Z</time></trkpt><trkpt lat="42.910405" lon="2.5537567"><ele>514.0</ele><time>2026-04-26T09:46:00.727Z</time></trkpt><trkpt lat="42.9103433" lon="2.5536067"><ele>514.0</ele><time>2026-04-26T09:46:01.728Z</time></trkpt><trkpt lat="42.91028" lon="2.5534617"><ele>516.0</ele><time>2026-04-26T09:46:02.728Z</time></trkpt><trkpt lat="42.9102283" lon="2.5533133"><ele>518.0</ele><time>2026-04-26T09:46:03.727Z</time></trkpt><trkpt lat="42.9101733" lon="2.5531633"><ele>520.0</ele><time>2026-04-26T09:46:04.728Z</time></trkpt><trkpt lat="42.91011" lon="2.55301"><ele>522.0</ele><time>2026-04-26T09:46:05.728Z</time></trkpt><trkpt lat="42.91004" lon="2.5528567"><ele>522.0</ele><time>2026-04-26T09:46:06.727Z</time></trkpt><trkpt lat="42.9099733" lon="2.5527017"><ele>522.0</ele><time>2026-04-26T09:46:07.727Z</time></trkpt><trkpt lat="42.90991" lon="2.5525433"><ele>522.0</ele><time>2026-04-26T09:46:08.729Z</time></trkpt><trkpt lat="42.909845" lon="2.552385"><ele>522.0</ele><time>2026-04-26T09:46:09.728Z</time></trkpt><trkpt lat="42.9097817" lon="2.5522317"><ele>522.0</ele><time>2026-04-26T09:46:10.727Z</time></trkpt><trkpt lat="42.9097167" lon="2.5520733"><ele>522.0</ele><time>2026-04-26T09:46:11.729Z</time></trkpt><trkpt lat="42.909665" lon="2.5519267"><ele>522.0</ele><time>2026-04-26T09:46:12.728Z</time></trkpt><trkpt lat="42.9096067" lon="2.5517883"><ele>522.0</ele><time>2026-04-26T09:46:13.731Z</time></trkpt><trkpt lat="42.9095433" lon="2.5516617"><ele>521.6</ele><time>2026-04-26T09:46:14.73Z</time></trkpt><trkpt lat="42.909485" lon="2.5515433"><ele>521.2</ele><time>2026-04-26T09:46:15.727Z</time></trkpt><trkpt lat="42.909415" lon="2.5514283"><ele>520.8</ele><time>2026-04-26T09:46:16.728Z</time></trkpt><trkpt lat="42.909345" lon="2.5513233"><ele>520.4</ele><time>2026-04-26T09:46:17.727Z</time></trkpt><trkpt lat="42.90926" lon="2.551225"><ele>520.0</ele><time>2026-04-26T09:46:18.729Z</time></trkpt><trkpt lat="42.9091683" lon="2.5511383"><ele>520.0</ele><time>2026-04-26T09:46:19.728Z</time></trkpt><trkpt lat="42.9090683" lon="2.5510517"><ele>520.0</ele><time>2026-04-26T09:46:20.732Z</time></trkpt><trkpt lat="42.908975" lon="2.5509767"><ele>520.0</ele><time>2026-04-26T09:46:21.729Z</time></trkpt><trkpt lat="42.90888" lon="2.5509133"><ele>520.0</ele><time>2026-04-26T09:46:22.728Z</time></trkpt><trkpt lat="42.9087833" lon="2.5508517"><ele>520.0</ele><time>2026-04-26T09:46:23.731Z</time></trkpt><trkpt lat="42.9086967" lon="2.5507717"><ele>520.0</ele><time>2026-04-26T09:46:24.727Z</time></trkpt><trkpt lat="42.9086183" lon="2.550665"><ele>520.0</ele><time>2026-04-26T09:46:25.728Z</time></trkpt><trkpt lat="42.90856" lon="2.5505333"><ele>520.0</ele><time>2026-04-26T09:46:26.727Z</time></trkpt><trkpt lat="42.9085167" lon="2.5503933"><ele>520.0</ele><time>2026-04-26T09:46:27.729Z</time></trkpt><trkpt lat="42.9084683" lon="2.55025"><ele>520.75</ele><time>2026-04-26T09:46:28.727Z</time></trkpt><trkpt lat="42.9084117" lon="2.5501017"><ele>521.5</ele><time>2026-04-26T09:46:29.73Z</time></trkpt><trkpt lat="42.9083533" lon="2.5499533"><ele>522.25</ele><time>2026-04-26T09:46:30.728Z</time></trkpt><trkpt lat="42.908295" lon="2.549805"><ele>523.0</ele><time>2026-04-26T09:46:31.729Z</time></trkpt><trkpt lat="42.9082433" lon="2.5496533"><ele>521.75</ele><time>2026-04-26T09:46:32.727Z</time></trkpt><trkpt lat="42.9081967" lon="2.5494983"><ele>520.5</ele><time>2026-04-26T09:46:33.728Z</time></trkpt><trkpt lat="42.90815" lon="2.5493367"><ele>519.25</ele><time>2026-04-26T09:46:34.727Z</time></trkpt><trkpt lat="42.9081033" lon="2.5491767"><ele>518.0</ele><time>2026-04-26T09:46:35.732Z</time></trkpt><trkpt lat="42.9080517" lon="2.5490267"><ele>518.0</ele><time>2026-04-26T09:46:36.729Z</time></trkpt><trkpt lat="42.9080083" lon="2.5488783"><ele>518.0</ele><time>2026-04-26T09:46:37.73Z</time></trkpt><trkpt lat="42.9079733" lon="2.54874"><ele>518.0</ele><time>2026-04-26T09:46:38.729Z</time></trkpt><trkpt lat="42.9079483" lon="2.5486167"><ele>518.0</ele><time>2026-04-26T09:46:39.729Z</time></trkpt><trkpt lat="42.9079333" lon="2.548505"><ele>518.0</ele><time>2026-04-26T09:46:40.729Z</time></trkpt><trkpt lat="42.9079233" lon="2.548395"><ele>518.8333333333333</ele><time>2026-04-26T09:46:41.729Z</time></trkpt><trkpt lat="42.907915" lon="2.5482917"><ele>519.6666666666666</ele><time>2026-04-26T09:46:42.729Z</time></trkpt><trkpt lat="42.907915" lon="2.5481833"><ele>520.5</ele><time>2026-04-26T09:46:43.729Z</time></trkpt><trkpt lat="42.9079167" lon="2.5480617"><ele>521.3333333333334</ele><time>2026-04-26T09:46:44.729Z</time></trkpt><trkpt lat="42.9079217" lon="2.5479433"><ele>522.1666666666667</ele><time>2026-04-26T09:46:45.729Z</time></trkpt><trkpt lat="42.9079317" lon="2.5478217"><ele>523.0</ele><time>2026-04-26T09:46:46.729Z</time></trkpt><trkpt lat="42.9079367" lon="2.547695"><ele>523.6</ele><time>2026-04-26T09:46:47.729Z</time></trkpt><trkpt lat="42.9079467" lon="2.54757"><ele>524.1999999999999</ele><time>2026-04-26T09:46:48.73Z</time></trkpt><trkpt lat="42.907955" lon="2.5474517"><ele>524.8</ele><time>2026-04-26T09:46:49.733Z</time></trkpt><trkpt lat="42.907965" lon="2.5473333"><ele>525.4</ele><time>2026-04-26T09:46:50.727Z</time></trkpt><trkpt lat="42.907985" lon="2.5472167"><ele>526.0</ele><time>2026-04-26T09:46:51.728Z</time></trkpt><trkpt lat="42.9080083" lon="2.5470783"><ele>526.2</ele><time>2026-04-26T09:46:52.731Z</time></trkpt><trkpt lat="42.9080317" lon="2.54694"><ele>526.4000000000001</ele><time>2026-04-26T09:46:53.728Z</time></trkpt><trkpt lat="42.9080567" lon="2.546805"><ele>526.6</ele><time>2026-04-26T09:46:54.728Z</time></trkpt><trkpt lat="42.9080767" lon="2.5466683"><ele>526.8000000000001</ele><time>2026-04-26T09:46:55.73Z</time></trkpt><trkpt lat="42.9080767" lon="2.5465417"><ele>527.0</ele><time>2026-04-26T09:46:56.73Z</time></trkpt><trkpt lat="42.9080633" lon="2.5464267"><ele>527.0</ele><time>2026-04-26T09:46:57.728Z</time></trkpt><trkpt lat="42.9080233" lon="2.5463067"><ele>527.0</ele><time>2026-04-26T09:46:58.728Z</time></trkpt><trkpt lat="42.9079733" lon="2.54617"><ele>527.0</ele><time>2026-04-26T09:46:59.729Z</time></trkpt><trkpt lat="42.9084117" lon="2.5501017"><ele>524.75</ele><time>2026-04-26T09:46:29.73Z</time></trkpt><trkpt lat="42.9083533" lon="2.5499533"><ele>522.5</ele><time>2026-04-26T09:46:30.728Z</time></trkpt><trkpt lat="42.908295" lon="2.549805"><ele>520.25</ele><time>2026-04-26T09:46:31.729Z</time></trkpt><trkpt lat="42.9082433" lon="2.5496533"><ele>518.0</ele><time>2026-04-26T09:46:32.727Z</time></trkpt><trkpt lat="42.9081967" lon="2.5494983"><ele>518.0</ele><time>2026-04-26T09:46:33.728Z</time></trkpt><trkpt lat="42.90815" lon="2.5493367"><ele>518.0</ele><time>2026-04-26T09:46:34.727Z</time></trkpt><trkpt lat="42.9081033" lon="2.5491767"><ele>518.0</ele><time>2026-04-26T09:46:35.732Z</time></trkpt><trkpt lat="42.9080517" lon="2.5490267"><ele>518.0</ele><time>2026-04-26T09:46:36.729Z</time></trkpt><trkpt lat="42.9080083" lon="2.5488783"><ele>518.0</ele><time>2026-04-26T09:46:37.73Z</time></trkpt><trkpt lat="42.9079733" lon="2.54874"><ele>518.0</ele><time>2026-04-26T09:46:38.729Z</time></trkpt><trkpt lat="42.9079483" lon="2.5486167"><ele>518.0</ele><time>2026-04-26T09:46:39.729Z</time></trkpt><trkpt lat="42.9079333" lon="2.548505"><ele>518.0</ele><time>2026-04-26T09:46:40.729Z</time></trkpt><trkpt lat="42.9079233" lon="2.548395"><ele>518.0</ele><time>2026-04-26T09:46:41.729Z</time></trkpt><trkpt lat="42.907915" lon="2.5482917"><ele>518.0</ele><time>2026-04-26T09:46:42.729Z</time></trkpt><trkpt lat="42.907915" lon="2.5481833"><ele>519.0</ele><time>2026-04-26T09:46:43.729Z</time></trkpt><trkpt lat="42.9079167" lon="2.5480617"><ele>520.0</ele><time>2026-04-26T09:46:44.729Z</time></trkpt><trkpt lat="42.9079217" lon="2.5479433"><ele>521.0</ele><time>2026-04-26T09:46:45.729Z</time></trkpt><trkpt lat="42.9079317" lon="2.5478217"><ele>522.0</ele><time>2026-04-26T09:46:46.729Z</time></trkpt><trkpt lat="42.9079367" lon="2.547695"><ele>523.0</ele><time>2026-04-26T09:46:47.729Z</time></trkpt><trkpt lat="42.9079467" lon="2.54757"><ele>523.6</ele><time>2026-04-26T09:46:48.73Z</time></trkpt><trkpt lat="42.907955" lon="2.5474517"><ele>524.1999999999999</ele><time>2026-04-26T09:46:49.733Z</time></trkpt><trkpt lat="42.907965" lon="2.5473333"><ele>524.8</ele><time>2026-04-26T09:46:50.727Z</time></trkpt><trkpt lat="42.907985" lon="2.5472167"><ele>525.4</ele><time>2026-04-26T09:46:51.728Z</time></trkpt><trkpt lat="42.9080083" lon="2.5470783"><ele>526.0</ele><time>2026-04-26T09:46:52.731Z</time></trkpt><trkpt lat="42.9080317" lon="2.54694"><ele>526.2</ele><time>2026-04-26T09:46:53.728Z</time></trkpt><trkpt lat="42.9080567" lon="2.546805"><ele>526.4000000000001</ele><time>2026-04-26T09:46:54.728Z</time></trkpt><trkpt lat="42.9080767" lon="2.5466683"><ele>526.6</ele><time>2026-04-26T09:46:55.73Z</time></trkpt><trkpt lat="42.9080767" lon="2.5465417"><ele>526.8000000000001</ele><time>2026-04-26T09:46:56.73Z</time></trkpt><trkpt lat="42.9080633" lon="2.5464267"><ele>527.0</ele><time>2026-04-26T09:46:57.728Z</time></trkpt><trkpt lat="42.9080233" lon="2.5463067"><ele>528.75</ele><time>2026-04-26T09:46:58.728Z</time></trkpt><trkpt lat="42.9079733" lon="2.54617"><ele>530.5</ele><time>2026-04-26T09:46:59.729Z</time></trkpt><trkpt lat="42.9079233" lon="2.546025"><ele>532.25</ele><time>2026-04-26T09:47:00.728Z</time></trkpt><trkpt lat="42.9078833" lon="2.5458783"><ele>534.0</ele><time>2026-04-26T09:47:01.729Z</time></trkpt><trkpt lat="42.907835" lon="2.545725"><ele>534.0</ele><time>2026-04-26T09:47:02.729Z</time></trkpt><trkpt lat="42.9077933" lon="2.5455683"><ele>534.0</ele><time>2026-04-26T09:47:03.729Z</time></trkpt><trkpt lat="42.9077517" lon="2.5454117"><ele>534.0</ele><time>2026-04-26T09:47:04.729Z</time></trkpt><trkpt lat="42.907705" lon="2.54525"><ele>534.0</ele><time>2026-04-26T09:47:05.728Z</time></trkpt><trkpt lat="42.9076517" lon="2.5450867"><ele>534.75</ele><time>2026-04-26T09:47:06.73Z</time></trkpt><trkpt lat="42.9075983" lon="2.5449217"><ele>535.5</ele><time>2026-04-26T09:47:07.728Z</time></trkpt><trkpt lat="42.9075417" lon="2.544755"><ele>536.25</ele><time>2026-04-26T09:47:08.728Z</time></trkpt><trkpt lat="42.9074833" lon="2.544595"><ele>537.0</ele><time>2026-04-26T09:47:09.728Z</time></trkpt><trkpt lat="42.9074167" lon="2.5444383"><ele>534.75</ele><time>2026-04-26T09:47:10.729Z</time></trkpt><trkpt lat="42.9073383" lon="2.54429"><ele>532.5</ele><time>2026-04-26T09:47:11.729Z</time></trkpt><trkpt lat="42.9072483" lon="2.5441517"><ele>530.25</ele><time>2026-04-26T09:47:12.728Z</time></trkpt><trkpt lat="42.9071733" lon="2.5440183"><ele>528.0</ele><time>2026-04-26T09:47:13.728Z</time></trkpt><trkpt lat="42.907115" lon="2.5438767"><ele>528.0</ele><time>2026-04-26T09:47:14.729Z</time></trkpt><trkpt lat="42.9070683" lon="2.54373"><ele>528.0</ele><time>2026-04-26T09:47:15.728Z</time></trkpt><trkpt lat="42.90704" lon="2.5435783"><ele>528.0</ele><time>2026-04-26T09:47:16.727Z</time></trkpt><trkpt lat="42.9070183" lon="2.5434133"><ele>528.0</ele><time>2026-04-26T09:47:17.729Z</time></trkpt><trkpt lat="42.9069967" lon="2.5432583"><ele>528.8333333333334</ele><time>2026-04-26T09:47:18.73Z</time></trkpt><trkpt lat="42.9069717" lon="2.543115"><ele>529.6666666666666</ele><time>2026-04-26T09:47:19.728Z</time></trkpt><trkpt lat="42.90694" lon="2.542985"><ele>530.5</ele><time>2026-04-26T09:47:20.729Z</time></trkpt><trkpt lat="42.9069017" lon="2.54288"><ele>531.3333333333333</ele><time>2026-04-26T09:47:21.729Z</time></trkpt><trkpt lat="42.9068483" lon="2.5428067"><ele>532.1666666666666</ele><time>2026-04-26T09:47:22.728Z</time></trkpt><trkpt lat="42.906785" lon="2.5427533"><ele>533.0</ele><time>2026-04-26T09:47:23.727Z</time></trkpt><trkpt lat="42.9067117" lon="2.5427233"><ele>533.25</ele><time>2026-04-26T09:47:24.729Z</time></trkpt><trkpt lat="42.9066233" lon="2.5427133"><ele>533.5</ele><time>2026-04-26T09:47:25.729Z</time></trkpt><trkpt lat="42.9065067" lon="2.5427167"><ele>533.75</ele><time>2026-04-26T09:47:26.728Z</time></trkpt><trkpt lat="42.9063667" lon="2.542725"><ele>534.0</ele><time>2026-04-26T09:47:27.73Z</time></trkpt><trkpt lat="42.9062233" lon="2.5427333"><ele>534.0</ele><time>2026-04-26T09:47:28.732Z</time></trkpt><trkpt lat="42.9060767" lon="2.54274"><ele>534.0</ele><time>2026-04-26T09:47:29.728Z</time></trkpt><trkpt lat="42.90593" lon="2.5427417"><ele>534.0</ele><time>2026-04-26T09:47:30.73Z</time></trkpt><trkpt lat="42.905785" lon="2.5427433"><ele>534.0</ele><time>2026-04-26T09:47:31.728Z</time></trkpt><trkpt lat="42.9056433" lon="2.5427483"><ele>534.75</ele><time>2026-04-26T09:47:32.728Z</time></trkpt><trkpt lat="42.9055" lon="2.5427567"><ele>535.5</ele><time>2026-04-26T09:47:33.728Z</time></trkpt><trkpt lat="42.9053733" lon="2.5427583"><ele>536.25</ele><time>2026-04-26T09:47:34.727Z</time></trkpt><trkpt lat="42.9052633" lon="2.542765"><ele>537.0</ele><time>2026-04-26T09:47:35.735Z</time></trkpt><trkpt lat="42.90517" lon="2.5427667"><ele>537.0</ele><time>2026-04-26T09:47:36.728Z</time></trkpt><trkpt lat="42.905085" lon="2.542765"><ele>537.0</ele><time>2026-04-26T09:47:37.729Z</time></trkpt><trkpt lat="42.9050017" lon="2.5427617"><ele>537.0</ele><time>2026-04-26T09:47:38.728Z</time></trkpt><trkpt lat="42.90492" lon="2.5427367"><ele>537.0</ele><time>2026-04-26T09:47:39.729Z</time></trkpt><trkpt lat="42.9048467" lon="2.54269"><ele>537.0</ele><time>2026-04-26T09:47:40.727Z</time></trkpt><trkpt lat="42.904795" lon="2.542625"><ele>537.0</ele><time>2026-04-26T09:47:41.731Z</time></trkpt><trkpt lat="42.904765" lon="2.5425433"><ele>538.3333333333334</ele><time>2026-04-26T09:47:42.728Z</time></trkpt><trkpt lat="42.9047633" lon="2.5424517"><ele>539.6666666666666</ele><time>2026-04-26T09:47:43.73Z</time></trkpt><trkpt lat="42.90479" lon="2.5423433"><ele>541.0</ele><time>2026-04-26T09:47:44.729Z</time></trkpt><trkpt lat="42.9048267" lon="2.5422383"><ele>542.3333333333333</ele><time>2026-04-26T09:47:45.729Z</time></trkpt><trkpt lat="42.9048483" lon="2.5421333"><ele>543.6666666666666</ele><time>2026-04-26T09:47:46.729Z</time></trkpt><trkpt lat="42.9048567" lon="2.5420183"><ele>545.0</ele><time>2026-04-26T09:47:47.728Z</time></trkpt><trkpt lat="42.90485" lon="2.5419083"><ele>546.8</ele><time>2026-04-26T09:47:48.727Z</time></trkpt><trkpt lat="42.9048267" lon="2.5418"><ele>548.6</ele><time>2026-04-26T09:47:49.73Z</time></trkpt><trkpt lat="42.9047917" lon="2.5416817"><ele>550.4</ele><time>2026-04-26T09:47:50.729Z</time></trkpt><trkpt lat="42.9047767" lon="2.54156"><ele>552.2</ele><time>2026-04-26T09:47:51.731Z</time></trkpt><trkpt lat="42.9047667" lon="2.5414233"><ele>554.0</ele><time>2026-04-26T09:47:52.73Z</time></trkpt><trkpt lat="42.9047617" lon="2.5412833"><ele>555.6</ele><time>2026-04-26T09:47:53.729Z</time></trkpt><trkpt lat="42.9047567" lon="2.541145"><ele>557.2</ele><time>2026-04-26T09:47:54.728Z</time></trkpt><trkpt lat="42.90476" lon="2.5409983"><ele>558.8000000000001</ele><time>2026-04-26T09:47:55.729Z</time></trkpt><trkpt lat="42.9047767" lon="2.54086"><ele>560.4</ele><time>2026-04-26T09:47:56.73Z</time></trkpt><trkpt lat="42.904815" lon="2.5407183"><ele>562.0</ele><time>2026-04-26T09:47:57.73Z</time></trkpt><trkpt lat="42.9048683" lon="2.540585"><ele>562.0</ele><time>2026-04-26T09:47:58.728Z</time></trkpt><trkpt lat="42.904935" lon="2.5404617"><ele>562.0</ele><time>2026-04-26T09:47:59.729Z</time></trkpt><trkpt lat="42.90502" lon="2.540355"><ele>562.0</ele><time>2026-04-26T09:48:00.728Z</time></trkpt><trkpt lat="42.9051033" lon="2.5402533"><ele>562.0</ele><time>2026-04-26T09:48:01.729Z</time></trkpt><trkpt lat="42.9051767" lon="2.540165"><ele>562.0</ele><time>2026-04-26T09:48:02.729Z</time></trkpt><trkpt lat="42.9052367" lon="2.5400583"><ele>560.2</ele><time>2026-04-26T09:48:03.73Z</time></trkpt><trkpt lat="42.9052717" lon="2.5399367"><ele>558.4000000000001</ele><time>2026-04-26T09:48:04.728Z</time></trkpt><trkpt lat="42.905295" lon="2.5397933"><ele>556.5999999999999</ele><time>2026-04-26T09:48:05.727Z</time></trkpt><trkpt lat="42.90531" lon="2.5396383"><ele>554.8</ele><time>2026-04-26T09:48:06.729Z</time></trkpt><trkpt lat="42.9053133" lon="2.53947"><ele>553.0</ele><time>2026-04-26T09:48:07.729Z</time></trkpt><trkpt lat="42.90532" lon="2.5392967"><ele>553.0</ele><time>2026-04-26T09:48:08.73Z</time></trkpt><trkpt lat="42.9053183" lon="2.5391217"><ele>553.0</ele><time>2026-04-26T09:48:09.729Z</time></trkpt><trkpt lat="42.9053183" lon="2.53895"><ele>553.0</ele><time>2026-04-26T09:48:10.729Z</time></trkpt><trkpt lat="42.9053233" lon="2.5387967"><ele>553.0</ele><time>2026-04-26T09:48:11.728Z</time></trkpt><trkpt lat="42.9053183" lon="2.538665"><ele>553.1999999999999</ele><time>2026-04-26T09:48:12.729Z</time></trkpt><trkpt lat="42.9052983" lon="2.5385383"><ele>553.4</ele><time>2026-04-26T09:48:13.728Z</time></trkpt><trkpt lat="42.9052667" lon="2.5384167"><ele>553.5999999999999</ele><time>2026-04-26T09:48:14.729Z</time></trkpt><trkpt lat="42.9051933" lon="2.5382933"><ele>553.8</ele><time>2026-04-26T09:48:15.731Z</time></trkpt><trkpt lat="42.9051267" lon="2.5381683"><ele>554.0</ele><time>2026-04-26T09:48:16.728Z</time></trkpt><trkpt lat="42.9050383" lon="2.5380267"><ele>559.25</ele><time>2026-04-26T09:48:17.73Z</time></trkpt><trkpt lat="42.9049583" lon="2.5378783"><ele>564.5</ele><time>2026-04-26T09:48:18.728Z</time></trkpt><trkpt lat="42.9048833" lon="2.5377283"><ele>569.75</ele><time>2026-04-26T09:48:19.728Z</time></trkpt><trkpt lat="42.904825" lon="2.5375933"><ele>575.0</ele><time>2026-04-26T09:48:20.73Z</time></trkpt><trkpt lat="42.90478" lon="2.5374633"><ele>575.0</ele><time>2026-04-26T09:48:21.729Z</time></trkpt><trkpt lat="42.9047433" lon="2.5373483"><ele>575.0</ele><time>2026-04-26T09:48:22.728Z</time></trkpt><trkpt lat="42.904695" lon="2.5372467"><ele>575.0</ele><time>2026-04-26T09:48:23.73Z</time></trkpt><trkpt lat="42.90463" lon="2.53715"><ele>575.0</ele><time>2026-04-26T09:48:24.731Z</time></trkpt><trkpt lat="42.9045483" lon="2.53706"><ele>575.0</ele><time>2026-04-26T09:48:25.729Z</time></trkpt><trkpt lat="42.9044717" lon="2.5369733"><ele>575.3333333333333</ele><time>2026-04-26T09:48:26.729Z</time></trkpt><trkpt lat="42.904415" lon="2.53689"><ele>575.6666666666666</ele><time>2026-04-26T09:48:27.73Z</time></trkpt><trkpt lat="42.9043817" lon="2.5368"><ele>576.0</ele><time>2026-04-26T09:48:28.729Z</time></trkpt><trkpt lat="42.904355" lon="2.53671"><ele>576.3333333333334</ele><time>2026-04-26T09:48:29.731Z</time></trkpt><trkpt lat="42.9043733" lon="2.5366217"><ele>576.6666666666667</ele><time>2026-04-26T09:48:30.73Z</time></trkpt><trkpt lat="42.9043867" lon="2.53653"><ele>577.0</ele><time>2026-04-26T09:48:31.73Z</time></trkpt><trkpt lat="42.9044317" lon="2.5364217"><ele>577.0</ele><time>2026-04-26T09:48:32.731Z</time></trkpt><trkpt lat="42.9044783" lon="2.5363133"><ele>577.0</ele><time>2026-04-26T09:48:33.729Z</time></trkpt><trkpt lat="42.9045133" lon="2.5362183"><ele>577.0</ele><time>2026-04-26T09:48:34.73Z</time></trkpt><trkpt lat="42.904565" lon="2.5361383"><ele>577.0</ele><time>2026-04-26T09:48:35.728Z</time></trkpt><trkpt lat="42.9045817" lon="2.5360433"><ele>577.0</ele><time>2026-04-26T09:48:36.729Z</time></trkpt><trkpt lat="42.9045567" lon="2.5359633"><ele>577.0</ele><time>2026-04-26T09:48:37.73Z</time></trkpt><trkpt lat="42.9045017" lon="2.5358917"><ele>577.8333333333334</ele><time>2026-04-26T09:48:38.73Z</time></trkpt><trkpt lat="42.9043983" lon="2.535835"><ele>578.6666666666667</ele><time>2026-04-26T09:48:39.73Z</time></trkpt><trkpt lat="42.9043333" lon="2.5357583"><ele>579.5</ele><time>2026-04-26T09:48:40.727Z</time></trkpt><trkpt lat="42.90431" lon="2.535675"><ele>580.3333333333334</ele><time>2026-04-26T09:48:41.73Z</time></trkpt><trkpt lat="42.9042883" lon="2.5355933"><ele>581.1666666666666</ele><time>2026-04-26T09:48:42.729Z</time></trkpt><trkpt lat="42.9042933" lon="2.535505"><ele>582.0</ele><time>2026-04-26T09:48:43.73Z</time></trkpt><trkpt lat="42.9043233" lon="2.5354267"><ele>583.6666666666666</ele><time>2026-04-26T09:48:44.728Z</time></trkpt><trkpt lat="42.9043533" lon="2.535335"><ele>585.3333333333334</ele><time>2026-04-26T09:48:45.729Z</time></trkpt><trkpt lat="42.9043783" lon="2.5352417"><ele>587.0</ele><time>2026-04-26T09:48:46.728Z</time></trkpt><trkpt lat="42.9044117" lon="2.53515"><ele>588.6666666666667</ele><time>2026-04-26T09:48:47.731Z</time></trkpt><trkpt lat="42.9044367" lon="2.5350483"><ele>590.3333333333334</ele><time>2026-04-26T09:48:48.73Z</time></trkpt><trkpt lat="42.904445" lon="2.534935"><ele>592.0</ele><time>2026-04-26T09:48:49.73Z</time></trkpt><trkpt lat="42.90446" lon="2.5348167"><ele>592.0</ele><time>2026-04-26T09:48:50.731Z</time></trkpt><trkpt lat="42.9044667" lon="2.53469"><ele>592.0</ele><time>2026-04-26T09:48:51.729Z</time></trkpt><trkpt lat="42.904465" lon="2.5345517"><ele>592.0</ele><time>2026-04-26T09:48:52.731Z</time></trkpt><trkpt lat="42.9044717" lon="2.534435"><ele>592.0</ele><time>2026-04-26T09:48:53.729Z</time></trkpt><trkpt lat="42.9044717" lon="2.53432"><ele>592.0</ele><time>2026-04-26T09:48:54.73Z</time></trkpt><trkpt lat="42.9044633" lon="2.534205"><ele>592.0</ele><time>2026-04-26T09:48:55.73Z</time></trkpt><trkpt lat="42.9044567" lon="2.534085"><ele>593.2</ele><time>2026-04-26T09:48:56.734Z</time></trkpt><trkpt lat="42.9044667" lon="2.5339517"><ele>594.4000000000001</ele><time>2026-04-26T09:48:57.728Z</time></trkpt><trkpt lat="42.904485" lon="2.5338083"><ele>595.5999999999999</ele><time>2026-04-26T09:48:58.727Z</time></trkpt><trkpt lat="42.9045133" lon="2.5336817"><ele>596.8</ele><time>2026-04-26T09:48:59.728Z</time></trkpt><trkpt lat="42.9045567" lon="2.5335567"><ele>598.0</ele><time>2026-04-26T09:49:00.729Z</time></trkpt><trkpt lat="42.904615" lon="2.5334417"><ele>599.8</ele><time>2026-04-26T09:49:01.729Z</time></trkpt><trkpt lat="42.9046983" lon="2.53334"><ele>601.5999999999999</ele><time>2026-04-26T09:49:02.728Z</time></trkpt><trkpt lat="42.9047933" lon="2.53327"><ele>603.4000000000001</ele><time>2026-04-26T09:49:03.728Z</time></trkpt><trkpt lat="42.9048967" lon="2.5332017"><ele>605.2</ele><time>2026-04-26T09:49:04.728Z</time></trkpt><trkpt lat="42.9049883" lon="2.5331333"><ele>607.0</ele><time>2026-04-26T09:49:05.729Z</time></trkpt><trkpt lat="42.9050817" lon="2.5330667"><ele>607.0</ele><time>2026-04-26T09:49:06.728Z</time></trkpt><trkpt lat="42.9051667" lon="2.5329983"><ele>607.0</ele><time>2026-04-26T09:49:07.731Z</time></trkpt><trkpt lat="42.9052367" lon="2.53291"><ele>607.0</ele><time>2026-04-26T09:49:08.729Z</time></trkpt><trkpt lat="42.9053233" lon="2.53281"><ele>607.0</ele><time>2026-04-26T09:49:09.728Z</time></trkpt><trkpt lat="42.9054233" lon="2.532705"><ele>607.0</ele><time>2026-04-26T09:49:10.73Z</time></trkpt><trkpt lat="42.9055333" lon="2.5326033"><ele>607.25</ele><time>2026-04-26T09:49:11.728Z</time></trkpt><trkpt lat="42.9056433" lon="2.5325067"><ele>607.5</ele><time>2026-04-26T09:49:12.727Z</time></trkpt><trkpt lat="42.9057517" lon="2.53242"><ele>607.75</ele><time>2026-04-26T09:49:13.728Z</time></trkpt><trkpt lat="42.9058533" lon="2.5323417"><ele>608.0</ele><time>2026-04-26T09:49:14.729Z</time></trkpt><trkpt lat="42.905955" lon="2.532275"><ele>608.0</ele><time>2026-04-26T09:49:15.728Z</time></trkpt><trkpt lat="42.906045" lon="2.532215"><ele>608.0</ele><time>2026-04-26T09:49:16.731Z</time></trkpt><trkpt lat="42.9061233" lon="2.5321617"><ele>608.0</ele><time>2026-04-26T09:49:17.73Z</time></trkpt><trkpt lat="42.906195" lon="2.5320983"><ele>608.0</ele><time>2026-04-26T09:49:18.731Z</time></trkpt><trkpt lat="42.9062483" lon="2.5320233"><ele>608.0</ele><time>2026-04-26T09:49:19.73Z</time></trkpt><trkpt lat="42.9062883" lon="2.5319217"><ele>608.0</ele><time>2026-04-26T09:49:20.729Z</time></trkpt><trkpt lat="42.906315" lon="2.5318017"><ele>611.25</ele><time>2026-04-26T09:49:21.729Z</time></trkpt><trkpt lat="42.9063067" lon="2.5316533"><ele>614.5</ele><time>2026-04-26T09:49:22.729Z</time></trkpt><trkpt lat="42.9063267" lon="2.5314917"><ele>617.75</ele><time>2026-04-26T09:49:23.728Z</time></trkpt><trkpt lat="42.90635" lon="2.5313233"><ele>621.0</ele><time>2026-04-26T09:49:24.729Z</time></trkpt><trkpt lat="42.9063783" lon="2.5311467"><ele>624.25</ele><time>2026-04-26T09:49:25.731Z</time></trkpt><trkpt lat="42.9063967" lon="2.530965"><ele>627.5</ele><time>2026-04-26T09:49:26.729Z</time></trkpt><trkpt lat="42.9064067" lon="2.5307883"><ele>630.75</ele><time>2026-04-26T09:49:27.73Z</time></trkpt><trkpt lat="42.9064017" lon="2.530615"><ele>634.0</ele><time>2026-04-26T09:49:28.729Z</time></trkpt><trkpt lat="42.9063917" lon="2.5304367"><ele>634.5</ele><time>2026-04-26T09:49:29.729Z</time></trkpt><trkpt lat="42.9063767" lon="2.5302517"><ele>635.0</ele><time>2026-04-26T09:49:30.731Z</time></trkpt><trkpt lat="42.906375" lon="2.5300683"><ele>635.5</ele><time>2026-04-26T09:49:31.727Z</time></trkpt><trkpt lat="42.9063833" lon="2.52989"><ele>636.0</ele><time>2026-04-26T09:49:32.73Z</time></trkpt><trkpt lat="42.9063883" lon="2.5297117"><ele>637.2</ele><time>2026-04-26T09:49:33.729Z</time></trkpt><trkpt lat="42.9063967" lon="2.5295467"><ele>638.4000000000001</ele><time>2026-04-26T09:49:34.729Z</time></trkpt><trkpt lat="42.9064" lon="2.5293967"><ele>639.6</ele><time>2026-04-26T09:49:35.728Z</time></trkpt><trkpt lat="42.9064067" lon="2.5292583"><ele>640.8000000000001</ele><time>2026-04-26T09:49:36.729Z</time></trkpt><trkpt lat="42.9064133" lon="2.5291283"><ele>642.0</ele><time>2026-04-26T09:49:37.73Z</time></trkpt><trkpt lat="42.9064283" lon="2.5289983"><ele>642.0</ele><time>2026-04-26T09:49:38.731Z</time></trkpt><trkpt lat="42.9064533" lon="2.5288433"><ele>642.0</ele><time>2026-04-26T09:49:39.73Z</time></trkpt><trkpt lat="42.9064733" lon="2.5286883"><ele>642.0</ele><time>2026-04-26T09:49:40.729Z</time></trkpt><trkpt lat="42.9065083" lon="2.528525"><ele>642.0</ele><time>2026-04-26T09:49:41.73Z</time></trkpt><trkpt lat="42.906555" lon="2.5283667"><ele>641.4</ele><time>2026-04-26T09:49:42.729Z</time></trkpt><trkpt lat="42.906595" lon="2.5282233"><ele>640.8000000000001</ele><time>2026-04-26T09:49:43.728Z</time></trkpt><trkpt lat="42.9066383" lon="2.528085"><ele>640.2</ele><time>2026-04-26T09:49:44.73Z</time></trkpt><trkpt lat="42.9066683" lon="2.5279783"><ele>639.6</ele><time>2026-04-26T09:49:45.73Z</time></trkpt><trkpt lat="42.9067133" lon="2.5278433"><ele>639.0</ele><time>2026-04-26T09:49:46.73Z</time></trkpt><trkpt lat="42.9067567" lon="2.5277067"><ele>639.0</ele><time>2026-04-26T09:49:47.731Z</time></trkpt><trkpt lat="42.9067917" lon="2.5275783"><ele>639.0</ele><time>2026-04-26T09:49:48.73Z</time></trkpt><trkpt lat="42.9068367" lon="2.52746"><ele>639.0</ele><time>2026-04-26T09:49:49.729Z</time></trkpt><trkpt lat="42.90691" lon="2.52734"><ele>639.0</ele><time>2026-04-26T09:49:50.729Z</time></trkpt><trkpt lat="42.906965" lon="2.5272267"><ele>639.0</ele><time>2026-04-26T09:49:51.73Z</time></trkpt><trkpt lat="42.907025" lon="2.5271167"><ele>641.0</ele><time>2026-04-26T09:49:52.727Z</time></trkpt><trkpt lat="42.9071083" lon="2.5270067"><ele>643.0</ele><time>2026-04-26T09:49:53.731Z</time></trkpt><trkpt lat="42.907175" lon="2.526925"><ele>645.0</ele><time>2026-04-26T09:49:54.728Z</time></trkpt><trkpt lat="42.9072433" lon="2.5268633"><ele>647.0</ele><time>2026-04-26T09:49:55.728Z</time></trkpt><trkpt lat="42.9073133" lon="2.526815"><ele>649.0</ele><time>2026-04-26T09:49:56.73Z</time></trkpt><trkpt lat="42.9073833" lon="2.526755"><ele>651.0</ele><time>2026-04-26T09:49:57.73Z</time></trkpt><trkpt lat="42.9074567" lon="2.526695"><ele>651.0</ele><time>2026-04-26T09:49:58.73Z</time></trkpt><trkpt lat="42.9075433" lon="2.5266333"><ele>651.0</ele><time>2026-04-26T09:49:59.73Z</time></trkpt><trkpt lat="42.90763" lon="2.526555"><ele>651.0</ele><time>2026-04-26T09:50:00.728Z</time></trkpt><trkpt lat="42.9077133" lon="2.5265033"><ele>651.0</ele><time>2026-04-26T09:50:01.73Z</time></trkpt><trkpt lat="42.9077867" lon="2.5264667"><ele>651.0</ele><time>2026-04-26T09:50:02.729Z</time></trkpt><trkpt lat="42.9078633" lon="2.5264367"><ele>650.5</ele><time>2026-04-26T09:50:03.729Z</time></trkpt><trkpt lat="42.9079433" lon="2.52641"><ele>650.0</ele><time>2026-04-26T09:50:04.728Z</time></trkpt><trkpt lat="42.9080217" lon="2.526375"><ele>649.5</ele><time>2026-04-26T09:50:05.728Z</time></trkpt><trkpt lat="42.908115" lon="2.5263483"><ele>649.0</ele><time>2026-04-26T09:50:06.73Z</time></trkpt><trkpt lat="42.9081967" lon="2.5263383"><ele>648.5</ele><time>2026-04-26T09:50:07.728Z</time></trkpt><trkpt lat="42.90826" lon="2.5263483"><ele>648.0</ele><time>2026-04-26T09:50:08.728Z</time></trkpt><trkpt lat="42.9083383" lon="2.5263667"><ele>654.4</ele><time>2026-04-26T09:50:09.73Z</time></trkpt><trkpt lat="42.9084183" lon="2.5263917"><ele>660.8</ele><time>2026-04-26T09:50:10.728Z</time></trkpt><trkpt lat="42.9084983" lon="2.52641"><ele>667.2</ele><time>2026-04-26T09:50:11.729Z</time></trkpt><trkpt lat="42.9086267" lon="2.5264133"><ele>673.6</ele><time>2026-04-26T09:50:13.729Z</time></trkpt><trkpt lat="42.9087283" lon="2.52642"><ele>680.0</ele><time>2026-04-26T09:50:15.729Z</time></trkpt><trkpt lat="42.90879" lon="2.5264567"><ele>680.0</ele><time>2026-04-26T09:50:16.728Z</time></trkpt><trkpt lat="42.90883" lon="2.5265233"><ele>680.0</ele><time>2026-04-26T09:50:17.729Z</time></trkpt><trkpt lat="42.9088617" lon="2.52662"><ele>680.0</ele><time>2026-04-26T09:50:18.729Z</time></trkpt><trkpt lat="42.9088667" lon="2.5267533"><ele>680.0</ele><time>2026-04-26T09:50:19.728Z</time></trkpt><trkpt lat="42.9088683" lon="2.5268967"><ele>680.0</ele><time>2026-04-26T09:50:20.732Z</time></trkpt><trkpt lat="42.9088733" lon="2.52704"><ele>680.0</ele><time>2026-04-26T09:50:21.731Z</time></trkpt><trkpt lat="42.908885" lon="2.5271733"><ele>677.0</ele><time>2026-04-26T09:50:22.73Z</time></trkpt><trkpt lat="42.9089067" lon="2.5272967"><ele>674.0</ele><time>2026-04-26T09:50:23.728Z</time></trkpt><trkpt lat="42.9089317" lon="2.52741"><ele>671.0</ele><time>2026-04-26T09:50:24.733Z</time></trkpt><trkpt lat="42.90898" lon="2.5275167"><ele>668.0</ele><time>2026-04-26T09:50:25.73Z</time></trkpt><trkpt lat="42.9090433" lon="2.5276317"><ele>665.0</ele><time>2026-04-26T09:50:26.728Z</time></trkpt><trkpt lat="42.909115" lon="2.52774"><ele>665.0</ele><time>2026-04-26T09:50:27.733Z</time></trkpt><trkpt lat="42.9091933" lon="2.52785"><ele>665.0</ele><time>2026-04-26T09:50:28.728Z</time></trkpt><trkpt lat="42.9092667" lon="2.527945"><ele>665.0</ele><time>2026-04-26T09:50:29.732Z</time></trkpt><trkpt lat="42.90934" lon="2.528"><ele>665.0</ele><time>2026-04-26T09:50:30.728Z</time></trkpt><trkpt lat="42.9094183" lon="2.5280333"><ele>665.0</ele><time>2026-04-26T09:50:31.729Z</time></trkpt><trkpt lat="42.9095033" lon="2.5280483"><ele>666.8</ele><time>2026-04-26T09:50:32.728Z</time></trkpt><trkpt lat="42.9095833" lon="2.52807"><ele>668.6</ele><time>2026-04-26T09:50:33.729Z</time></trkpt><trkpt lat="42.90967" lon="2.5280917"><ele>670.4000000000001</ele><time>2026-04-26T09:50:34.728Z</time></trkpt><trkpt lat="42.909755" lon="2.5281367"><ele>672.2</ele><time>2026-04-26T09:50:35.729Z</time></trkpt><trkpt lat="42.9098233" lon="2.5282283"><ele>674.0</ele><time>2026-04-26T09:50:36.728Z</time></trkpt><trkpt lat="42.9099" lon="2.52833"><ele>674.0</ele><time>2026-04-26T09:50:37.728Z</time></trkpt><trkpt lat="42.9099783" lon="2.528415"><ele>674.0</ele><time>2026-04-26T09:50:38.728Z</time></trkpt><trkpt lat="42.9100583" lon="2.5284867"><ele>674.0</ele><time>2026-04-26T09:50:39.729Z</time></trkpt><trkpt lat="42.910135" lon="2.5285533"><ele>674.0</ele><time>2026-04-26T09:50:40.728Z</time></trkpt><trkpt lat="42.9102183" lon="2.528635"><ele>674.0</ele><time>2026-04-26T09:50:41.729Z</time></trkpt><trkpt lat="42.9102983" lon="2.52873"><ele>676.8000000000001</ele><time>2026-04-26T09:50:42.728Z</time></trkpt><trkpt lat="42.91037" lon="2.5288233"><ele>679.6</ele><time>2026-04-26T09:50:43.732Z</time></trkpt><trkpt lat="42.9104333" lon="2.528925"><ele>682.4</ele><time>2026-04-26T09:50:44.729Z</time></trkpt><trkpt lat="42.9104717" lon="2.52904"><ele>685.2</ele><time>2026-04-26T09:50:45.729Z</time></trkpt><trkpt lat="42.9105017" lon="2.529155"><ele>688.0</ele><time>2026-04-26T09:50:46.728Z</time></trkpt><trkpt lat="42.91052" lon="2.5292733"><ele>688.0</ele><time>2026-04-26T09:50:47.729Z</time></trkpt><trkpt lat="42.91052" lon="2.5293867"><ele>688.0</ele><time>2026-04-26T09:50:48.729Z</time></trkpt><trkpt lat="42.910525" lon="2.5294883"><ele>688.0</ele><time>2026-04-26T09:50:49.73Z</time></trkpt><trkpt lat="42.910545" lon="2.5295733"><ele>688.0</ele><time>2026-04-26T09:50:50.73Z</time></trkpt><trkpt lat="42.9106383" lon="2.5296533"><ele>688.0</ele><time>2026-04-26T09:50:52.729Z</time></trkpt><trkpt lat="42.9107033" lon="2.5296483"><ele>688.0</ele><time>2026-04-26T09:50:53.729Z</time></trkpt><trkpt lat="42.9107717" lon="2.5296517"><ele>685.3333333333334</ele><time>2026-04-26T09:50:54.728Z</time></trkpt><trkpt lat="42.9108467" lon="2.52966"><ele>682.6666666666667</ele><time>2026-04-26T09:50:55.732Z</time></trkpt><trkpt lat="42.9109217" lon="2.5296933"><ele>680.0</ele><time>2026-04-26T09:50:56.73Z</time></trkpt><trkpt lat="42.9110033" lon="2.5297583"><ele>677.3333333333334</ele><time>2026-04-26T09:50:57.73Z</time></trkpt><trkpt lat="42.911075" lon="2.5298317"><ele>674.6666666666666</ele><time>2026-04-26T09:50:58.731Z</time></trkpt><trkpt lat="42.911145" lon="2.5299167"><ele>672.0</ele><time>2026-04-26T09:50:59.729Z</time></trkpt><trkpt lat="42.9112167" lon="2.5300117"><ele>676.4000000000001</ele><time>2026-04-26T09:51:00.729Z</time></trkpt><trkpt lat="42.9112983" lon="2.53009"><ele>680.8000000000001</ele><time>2026-04-26T09:51:01.73Z</time></trkpt><trkpt lat="42.9113617" lon="2.5301683"><ele>685.2</ele><time>2026-04-26T09:51:02.73Z</time></trkpt><trkpt lat="42.9114317" lon="2.530235"><ele>689.6</ele><time>2026-04-26T09:51:03.729Z</time></trkpt><trkpt lat="42.9115" lon="2.5303183"><ele>694.0</ele><time>2026-04-26T09:51:04.729Z</time></trkpt><trkpt lat="42.9115683" lon="2.5304183"><ele>694.0</ele><time>2026-04-26T09:51:05.728Z</time></trkpt><trkpt lat="42.9116317" lon="2.53052"><ele>694.0</ele><time>2026-04-26T09:51:06.73Z</time></trkpt><trkpt lat="42.9116917" lon="2.5306317"><ele>694.0</ele><time>2026-04-26T09:51:07.729Z</time></trkpt><trkpt lat="42.911745" lon="2.5307333"><ele>694.0</ele><time>2026-04-26T09:51:08.729Z</time></trkpt><trkpt lat="42.911785" lon="2.530825"><ele>694.0</ele><time>2026-04-26T09:51:09.728Z</time></trkpt><trkpt lat="42.911805" lon="2.5309183"><ele>694.0</ele><time>2026-04-26T09:51:10.728Z</time></trkpt><trkpt lat="42.9118067" lon="2.5310267"><ele>694.4000000000001</ele><time>2026-04-26T09:51:11.729Z</time></trkpt><trkpt lat="42.9117933" lon="2.5311417"><ele>694.8</ele><time>2026-04-26T09:51:12.729Z</time></trkpt><trkpt lat="42.9117683" lon="2.53123"><ele>695.2</ele><time>2026-04-26T09:51:13.729Z</time></trkpt><trkpt lat="42.9117433" lon="2.5313667"><ele>695.5999999999999</ele><time>2026-04-26T09:51:15.729Z</time></trkpt><trkpt lat="42.9118233" lon="2.5314433"><ele>696.0</ele><time>2026-04-26T09:51:17.729Z</time></trkpt><trkpt lat="42.9119333" lon="2.5314017"><ele>696.0</ele><time>2026-04-26T09:51:19.728Z</time></trkpt><trkpt lat="42.912035" lon="2.5313783"><ele>696.0</ele><time>2026-04-26T09:51:21.73Z</time></trkpt><trkpt lat="42.912155" lon="2.5313617"><ele>696.0</ele><time>2026-04-26T09:51:23.728Z</time></trkpt><trkpt lat="42.9122733" lon="2.53131"><ele>696.0</ele><time>2026-04-26T09:51:25.732Z</time></trkpt><trkpt lat="42.912385" lon="2.5312283"><ele>698.3333333333334</ele><time>2026-04-26T09:51:27.729Z</time></trkpt><trkpt lat="42.9124483" lon="2.531165"><ele>700.6666666666666</ele><time>2026-04-26T09:51:28.728Z</time></trkpt><trkpt lat="42.9125" lon="2.5310933"><ele>703.0</ele><time>2026-04-26T09:51:29.735Z</time></trkpt><trkpt lat="42.912555" lon="2.5310133"><ele>705.3333333333333</ele><time>2026-04-26T09:51:30.729Z</time></trkpt><trkpt lat="42.9126117" lon="2.530935"><ele>707.6666666666666</ele><time>2026-04-26T09:51:31.73Z</time></trkpt><trkpt lat="42.9126783" lon="2.530855"><ele>710.0</ele><time>2026-04-26T09:51:32.728Z</time></trkpt><trkpt lat="42.9127483" lon="2.5307783"><ele>712.6</ele><time>2026-04-26T09:51:33.728Z</time></trkpt><trkpt lat="42.91284" lon="2.5307217"><ele>715.2</ele><time>2026-04-26T09:51:34.729Z</time></trkpt><trkpt lat="42.9129483" lon="2.5306833"><ele>717.8</ele><time>2026-04-26T09:51:35.73Z</time></trkpt><trkpt lat="42.9130617" lon="2.5306967"><ele>720.4</ele><time>2026-04-26T09:51:36.73Z</time></trkpt><trkpt lat="42.9131683" lon="2.5307217"><ele>723.0</ele><time>2026-04-26T09:51:37.728Z</time></trkpt><trkpt lat="42.913245" lon="2.5307417"><ele>723.0</ele><time>2026-04-26T09:51:38.729Z</time></trkpt><trkpt lat="42.913285" lon="2.5308833"><ele>723.0</ele><time>2026-04-26T09:51:40.728Z</time></trkpt><trkpt lat="42.9132767" lon="2.530975"><ele>723.0</ele><time>2026-04-26T09:51:41.732Z</time></trkpt><trkpt lat="42.9132567" lon="2.5310667"><ele>723.0</ele><time>2026-04-26T09:51:42.73Z</time></trkpt><trkpt lat="42.9132417" lon="2.5311783"><ele>723.0</ele><time>2026-04-26T09:51:43.731Z</time></trkpt><trkpt lat="42.9132417" lon="2.5312883"><ele>723.0</ele><time>2026-04-26T09:51:44.73Z</time></trkpt><trkpt lat="42.9132567" lon="2.531395"><ele>721.8333333333334</ele><time>2026-04-26T09:51:45.73Z</time></trkpt><trkpt lat="42.913275" lon="2.5314867"><ele>720.6666666666666</ele><time>2026-04-26T09:51:46.73Z</time></trkpt><trkpt lat="42.9133083" lon="2.5315717"><ele>719.5</ele><time>2026-04-26T09:51:47.729Z</time></trkpt><trkpt lat="42.91335" lon="2.5316533"><ele>718.3333333333333</ele><time>2026-04-26T09:51:48.73Z</time></trkpt><trkpt lat="42.9133817" lon="2.5317383"><ele>717.1666666666666</ele><time>2026-04-26T09:51:49.73Z</time></trkpt><trkpt lat="42.91346" lon="2.5318417"><ele>716.0</ele><time>2026-04-26T09:51:51.731Z</time></trkpt><trkpt lat="42.913555" lon="2.531885"><ele>719.6666666666666</ele><time>2026-04-26T09:51:53.731Z</time></trkpt><trkpt lat="42.91362" lon="2.531885"><ele>723.3333333333333</ele><time>2026-04-26T09:51:54.732Z</time></trkpt><trkpt lat="42.913685" lon="2.53189"><ele>727.0</ele><time>2026-04-26T09:51:55.731Z</time></trkpt><trkpt lat="42.9137583" lon="2.5318933"><ele>730.6666666666666</ele><time>2026-04-26T09:51:56.731Z</time></trkpt><trkpt lat="42.9138433" lon="2.5318867"><ele>734.3333333333334</ele><time>2026-04-26T09:51:57.731Z</time></trkpt><trkpt lat="42.9139333" lon="2.531875"><ele>738.0</ele><time>2026-04-26T09:51:58.73Z</time></trkpt><trkpt lat="42.914025" lon="2.53187"><ele>738.0</ele><time>2026-04-26T09:51:59.73Z</time></trkpt><trkpt lat="42.9141383" lon="2.5318783"><ele>738.0</ele><time>2026-04-26T09:52:00.731Z</time></trkpt><trkpt lat="42.91425" lon="2.5318883"><ele>738.0</ele><time>2026-04-26T09:52:01.729Z</time></trkpt><trkpt lat="42.9143633" lon="2.5319067"><ele>738.0</ele><time>2026-04-26T09:52:02.731Z</time></trkpt><trkpt lat="42.914455" lon="2.5319433"><ele>738.0</ele><time>2026-04-26T09:52:03.73Z</time></trkpt><trkpt lat="42.9145383" lon="2.5320017"><ele>739.3333333333334</ele><time>2026-04-26T09:52:04.728Z</time></trkpt><trkpt lat="42.9145983" lon="2.53208"><ele>740.6666666666666</ele><time>2026-04-26T09:52:05.729Z</time></trkpt><trkpt lat="42.9146433" lon="2.5321617"><ele>742.0</ele><time>2026-04-26T09:52:06.73Z</time></trkpt><trkpt lat="42.914685" lon="2.5322417"><ele>743.3333333333333</ele><time>2026-04-26T09:52:07.73Z</time></trkpt><trkpt lat="42.9147133" lon="2.532335"><ele>744.6666666666666</ele><time>2026-04-26T09:52:08.73Z</time></trkpt><trkpt lat="42.9147783" lon="2.5324567"><ele>746.0</ele><time>2026-04-26T09:52:10.729Z</time></trkpt><trkpt lat="42.9148433" lon="2.532505"><ele>746.0</ele><time>2026-04-26T09:52:11.729Z</time></trkpt><trkpt lat="42.9149083" lon="2.532565"><ele>746.0</ele><time>2026-04-26T09:52:12.73Z</time></trkpt><trkpt lat="42.914985" lon="2.5326233"><ele>746.0</ele><time>2026-04-26T09:52:13.73Z</time></trkpt><trkpt lat="42.91506" lon="2.5326617"><ele>746.0</ele><time>2026-04-26T09:52:14.729Z</time></trkpt><trkpt lat="42.915135" lon="2.53268"><ele>746.0</ele><time>2026-04-26T09:52:15.73Z</time></trkpt><trkpt lat="42.9152217" lon="2.5326267"><ele>746.0</ele><time>2026-04-26T09:52:17.729Z</time></trkpt><trkpt lat="42.9153117" lon="2.5324917"><ele>746.8333333333333</ele><time>2026-04-26T09:52:19.73Z</time></trkpt><trkpt lat="42.9153417" lon="2.53239"><ele>747.6666666666666</ele><time>2026-04-26T09:52:20.729Z</time></trkpt><trkpt lat="42.91538" lon="2.532285"><ele>748.5</ele><time>2026-04-26T09:52:21.731Z</time></trkpt><trkpt lat="42.915405" lon="2.5321733"><ele>749.3333333333334</ele><time>2026-04-26T09:52:22.731Z</time></trkpt><trkpt lat="42.915445" lon="2.5320717"><ele>750.1666666666667</ele><time>2026-04-26T09:52:23.73Z</time></trkpt><trkpt lat="42.9154867" lon="2.5319767"><ele>751.0</ele><time>2026-04-26T09:52:24.728Z</time></trkpt><trkpt lat="42.9155183" lon="2.5318883"><ele>754.0</ele><time>2026-04-26T09:52:25.731Z</time></trkpt><trkpt lat="42.915525" lon="2.5317717"><ele>757.0</ele><time>2026-04-26T09:52:27.729Z</time></trkpt><trkpt lat="42.9154317" lon="2.53171"><ele>760.0</ele><time>2026-04-26T09:52:29.729Z</time></trkpt><trkpt lat="42.9153617" lon="2.5316917"><ele>763.0</ele><time>2026-04-26T09:52:30.73Z</time></trkpt><trkpt lat="42.9152633" lon="2.5316017"><ele>766.0</ele><time>2026-04-26T09:52:32.729Z</time></trkpt><trkpt lat="42.915235" lon="2.5314867"><ele>766.0</ele><time>2026-04-26T09:52:34.728Z</time></trkpt><trkpt lat="42.915305" lon="2.5314017"><ele>766.0</ele><time>2026-04-26T09:52:36.728Z</time></trkpt><trkpt lat="42.9153717" lon="2.5313533"><ele>766.0</ele><time>2026-04-26T09:52:37.729Z</time></trkpt><trkpt lat="42.9154333" lon="2.5312933"><ele>766.0</ele><time>2026-04-26T09:52:38.727Z</time></trkpt><trkpt lat="42.91549" lon="2.53121"><ele>766.0</ele><time>2026-04-26T09:52:39.728Z</time></trkpt><trkpt lat="42.91553" lon="2.531125"><ele>766.0</ele><time>2026-04-26T09:52:40.727Z</time></trkpt><trkpt lat="42.915565" lon="2.531045"><ele>767.3333333333334</ele><time>2026-04-26T09:52:41.727Z</time></trkpt><trkpt lat="42.9156067" lon="2.5309683"><ele>768.6666666666667</ele><time>2026-04-26T09:52:42.73Z</time></trkpt><trkpt lat="42.9156567" lon="2.5308733"><ele>770.0</ele><time>2026-04-26T09:52:43.729Z</time></trkpt><trkpt lat="42.915725" lon="2.5307833"><ele>771.3333333333334</ele><time>2026-04-26T09:52:44.729Z</time></trkpt><trkpt lat="42.91579" lon="2.530705"><ele>772.6666666666666</ele><time>2026-04-26T09:52:45.727Z</time></trkpt><trkpt lat="42.91586" lon="2.5306317"><ele>774.0</ele><time>2026-04-26T09:52:46.727Z</time></trkpt><trkpt lat="42.91593" lon="2.5305617"><ele>774.0</ele><time>2026-04-26T09:52:47.727Z</time></trkpt><trkpt lat="42.9159867" lon="2.5304967"><ele>774.0</ele><time>2026-04-26T09:52:48.729Z</time></trkpt><trkpt lat="42.9160567" lon="2.5304183"><ele>774.0</ele><time>2026-04-26T09:52:49.728Z</time></trkpt><trkpt lat="42.916115" lon="2.5303333"><ele>774.0</ele><time>2026-04-26T09:52:50.727Z</time></trkpt><trkpt lat="42.91617" lon="2.5302367"><ele>774.0</ele><time>2026-04-26T09:52:51.729Z</time></trkpt><trkpt lat="42.9162167" lon="2.5301433"><ele>774.0</ele><time>2026-04-26T09:52:52.729Z</time></trkpt><trkpt lat="42.916265" lon="2.5300533"><ele>777.6</ele><time>2026-04-26T09:52:53.727Z</time></trkpt><trkpt lat="42.916335" lon="2.5299733"><ele>781.2</ele><time>2026-04-26T09:52:54.728Z</time></trkpt><trkpt lat="42.9164017" lon="2.52991"><ele>784.8000000000001</ele><time>2026-04-26T09:52:55.727Z</time></trkpt><trkpt lat="42.916465" lon="2.529855"><ele>788.4000000000001</ele><time>2026-04-26T09:52:56.727Z</time></trkpt><trkpt lat="42.9165533" lon="2.52979"><ele>792.0</ele><time>2026-04-26T09:52:57.728Z</time></trkpt><trkpt lat="42.9166467" lon="2.529735"><ele>791.4000000000001</ele><time>2026-04-26T09:52:58.727Z</time></trkpt><trkpt lat="42.9167533" lon="2.5296767"><ele>790.8000000000001</ele><time>2026-04-26T09:52:59.729Z</time></trkpt><trkpt lat="42.9168617" lon="2.529625"><ele>790.2</ele><time>2026-04-26T09:53:00.727Z</time></trkpt><trkpt lat="42.91697" lon="2.52959"><ele>789.6</ele><time>2026-04-26T09:53:01.732Z</time></trkpt><trkpt lat="42.9170667" lon="2.5295583"><ele>789.0</ele><time>2026-04-26T09:53:02.727Z</time></trkpt><trkpt lat="42.91713" lon="2.52954"><ele>789.0</ele><time>2026-04-26T09:53:03.731Z</time></trkpt><trkpt lat="42.9172233" lon="2.529545"><ele>789.0</ele><time>2026-04-26T09:53:04.728Z</time></trkpt><trkpt lat="42.9173183" lon="2.52956"><ele>789.0</ele><time>2026-04-26T09:53:05.728Z</time></trkpt><trkpt lat="42.9174117" lon="2.5295783"><ele>789.0</ele><time>2026-04-26T09:53:06.73Z</time></trkpt><trkpt lat="42.9175167" lon="2.5295833"><ele>789.0</ele><time>2026-04-26T09:53:07.728Z</time></trkpt><trkpt lat="42.9176117" lon="2.52959"><ele>789.0</ele><time>2026-04-26T09:53:08.728Z</time></trkpt><trkpt lat="42.91771" lon="2.5296"><ele>789.0</ele><time>2026-04-26T09:53:09.729Z</time></trkpt><trkpt lat="42.9178083" lon="2.529615"><ele>789.0</ele><time>2026-04-26T09:53:10.727Z</time></trkpt><trkpt lat="42.9179117" lon="2.5296167"><ele>789.0</ele><time>2026-04-26T09:53:11.728Z</time></trkpt><trkpt lat="42.9180183" lon="2.5296133"><ele>789.0</ele><time>2026-04-26T09:53:12.728Z</time></trkpt><trkpt lat="42.918115" lon="2.529605"><ele>789.0</ele><time>2026-04-26T09:53:13.729Z</time></trkpt><trkpt lat="42.9182267" lon="2.5295867"><ele>789.0</ele><time>2026-04-26T09:53:14.729Z</time></trkpt><trkpt lat="42.9183383" lon="2.5295683"><ele>789.0</ele><time>2026-04-26T09:53:15.728Z</time></trkpt><trkpt lat="42.91845" lon="2.5295483"><ele>789.0</ele><time>2026-04-26T09:53:16.732Z</time></trkpt><trkpt lat="42.9185467" lon="2.5295333"><ele>789.0</ele><time>2026-04-26T09:53:17.728Z</time></trkpt><trkpt lat="42.9186333" lon="2.52952"><ele>793.8333333333334</ele><time>2026-04-26T09:53:18.729Z</time></trkpt><trkpt lat="42.9187267" lon="2.5295033"><ele>798.6666666666667</ele><time>2026-04-26T09:53:19.728Z</time></trkpt><trkpt lat="42.918815" lon="2.5295017"><ele>803.5</ele><time>2026-04-26T09:53:20.728Z</time></trkpt><trkpt lat="42.9188967" lon="2.5294933"><ele>808.3333333333334</ele><time>2026-04-26T09:53:21.73Z</time></trkpt><trkpt lat="42.9189867" lon="2.5294717"><ele>813.1666666666667</ele><time>2026-04-26T09:53:22.727Z</time></trkpt><trkpt lat="42.919075" lon="2.5294483"><ele>818.0</ele><time>2026-04-26T09:53:23.729Z</time></trkpt><trkpt lat="42.919155" lon="2.5294133"><ele>818.0</ele><time>2026-04-26T09:53:24.73Z</time></trkpt><trkpt lat="42.9192317" lon="2.5293667"><ele>818.0</ele><time>2026-04-26T09:53:25.729Z</time></trkpt><trkpt lat="42.9193133" lon="2.5293083"><ele>818.0</ele><time>2026-04-26T09:53:26.728Z</time></trkpt><trkpt lat="42.9193917" lon="2.529235"><ele>818.0</ele><time>2026-04-26T09:53:27.728Z</time></trkpt><trkpt lat="42.9194667" lon="2.5291633"><ele>818.0</ele><time>2026-04-26T09:53:28.731Z</time></trkpt><trkpt lat="42.9195617" lon="2.5290833"><ele>816.8</ele><time>2026-04-26T09:53:29.728Z</time></trkpt><trkpt lat="42.9196383" lon="2.529015"><ele>815.5999999999999</ele><time>2026-04-26T09:53:30.728Z</time></trkpt><trkpt lat="42.9197283" lon="2.5289267"><ele>814.4000000000001</ele><time>2026-04-26T09:53:31.73Z</time></trkpt><trkpt lat="42.9197767" lon="2.528835"><ele>813.2</ele><time>2026-04-26T09:53:32.731Z</time></trkpt><trkpt lat="42.9198017" lon="2.5287317"><ele>812.0</ele><time>2026-04-26T09:53:33.73Z</time></trkpt><trkpt lat="42.9198383" lon="2.5286233"><ele>812.0</ele><time>2026-04-26T09:53:34.727Z</time></trkpt><trkpt lat="42.9198717" lon="2.5285217"><ele>812.0</ele><time>2026-04-26T09:53:35.73Z</time></trkpt><trkpt lat="42.9199017" lon="2.528395"><ele>812.0</ele><time>2026-04-26T09:53:36.727Z</time></trkpt><trkpt lat="42.9199383" lon="2.5282617"><ele>812.0</ele><time>2026-04-26T09:53:37.73Z</time></trkpt><trkpt lat="42.9199867" lon="2.528135"><ele>812.0</ele><time>2026-04-26T09:53:38.729Z</time></trkpt><trkpt lat="42.9200467" lon="2.52801"><ele>807.75</ele><time>2026-04-26T09:53:39.728Z</time></trkpt><trkpt lat="42.9201233" lon="2.5278917"><ele>803.5</ele><time>2026-04-26T09:53:40.728Z</time></trkpt><trkpt lat="42.9202" lon="2.527755"><ele>799.25</ele><time>2026-04-26T09:53:41.729Z</time></trkpt><trkpt lat="42.9202817" lon="2.527655"><ele>795.0</ele><time>2026-04-26T09:53:42.731Z</time></trkpt><trkpt lat="42.9203683" lon="2.5275633"><ele>795.0</ele><time>2026-04-26T09:53:43.729Z</time></trkpt><trkpt lat="42.9204583" lon="2.527485"><ele>795.0</ele><time>2026-04-26T09:53:44.729Z</time></trkpt><trkpt lat="42.9205567" lon="2.5274217"><ele>795.0</ele><time>2026-04-26T09:53:45.728Z</time></trkpt><trkpt lat="42.9206583" lon="2.5273617"><ele>795.0</ele><time>2026-04-26T09:53:46.729Z</time></trkpt><trkpt lat="42.920755" lon="2.5272967"><ele>795.0</ele><time>2026-04-26T09:53:47.727Z</time></trkpt><trkpt lat="42.9208533" lon="2.5272283"><ele>792.5</ele><time>2026-04-26T09:53:48.729Z</time></trkpt><trkpt lat="42.9209483" lon="2.52715"><ele>790.0</ele><time>2026-04-26T09:53:49.73Z</time></trkpt><trkpt lat="42.9210383" lon="2.52706"><ele>787.5</ele><time>2026-04-26T09:53:50.729Z</time></trkpt><trkpt lat="42.9211267" lon="2.5269517"><ele>785.0</ele><time>2026-04-26T09:53:51.729Z</time></trkpt><trkpt lat="42.92122" lon="2.5268333"><ele>785.0</ele><time>2026-04-26T09:53:52.728Z</time></trkpt><trkpt lat="42.9213083" lon="2.526705"><ele>785.0</ele><time>2026-04-26T09:53:53.727Z</time></trkpt><trkpt lat="42.9213933" lon="2.526565"><ele>785.0</ele><time>2026-04-26T09:53:54.729Z</time></trkpt><trkpt lat="42.9214733" lon="2.526415"><ele>785.0</ele><time>2026-04-26T09:53:55.808Z</time></trkpt><trkpt lat="42.92155" lon="2.52626"><ele>788.0</ele><time>2026-04-26T09:53:56.73Z</time></trkpt><trkpt lat="42.921615" lon="2.5261017"><ele>791.0</ele><time>2026-04-26T09:53:57.727Z</time></trkpt><trkpt lat="42.9216817" lon="2.52595"><ele>794.0</ele><time>2026-04-26T09:53:58.728Z</time></trkpt><trkpt lat="42.9217517" lon="2.5258067"><ele>797.0</ele><time>2026-04-26T09:53:59.731Z</time></trkpt><trkpt lat="42.9218317" lon="2.52568"><ele>792.6</ele><time>2026-04-26T09:54:00.728Z</time></trkpt><trkpt lat="42.92191" lon="2.5255783"><ele>788.2</ele><time>2026-04-26T09:54:01.728Z</time></trkpt><trkpt lat="42.92198" lon="2.5254967"><ele>783.8</ele><time>2026-04-26T09:54:02.728Z</time></trkpt><trkpt lat="42.9220417" lon="2.5253967"><ele>779.4</ele><time>2026-04-26T09:54:03.728Z</time></trkpt><trkpt lat="42.922105" lon="2.525285"><ele>775.0</ele><time>2026-04-26T09:54:04.728Z</time></trkpt><trkpt lat="42.9221383" lon="2.5251333"><ele>775.0</ele><time>2026-04-26T09:54:05.731Z</time></trkpt><trkpt lat="42.9221633" lon="2.5249833"><ele>775.0</ele><time>2026-04-26T09:54:06.727Z</time></trkpt><trkpt lat="42.9221683" lon="2.5248417"><ele>775.0</ele><time>2026-04-26T09:54:07.727Z</time></trkpt><trkpt lat="42.9221583" lon="2.52471"><ele>775.0</ele><time>2026-04-26T09:54:08.727Z</time></trkpt><trkpt lat="42.922135" lon="2.5245783"><ele>775.0</ele><time>2026-04-26T09:54:09.733Z</time></trkpt><trkpt lat="42.9221033" lon="2.5244417"><ele>773.75</ele><time>2026-04-26T09:54:10.728Z</time></trkpt><trkpt lat="42.922055" lon="2.5242967"><ele>772.5</ele><time>2026-04-26T09:54:11.73Z</time></trkpt><trkpt lat="42.921985" lon="2.524125"><ele>771.25</ele><time>2026-04-26T09:54:12.728Z</time></trkpt><trkpt lat="42.9219317" lon="2.5239583"><ele>770.0</ele><time>2026-04-26T09:54:13.728Z</time></trkpt><trkpt lat="42.921875" lon="2.52378"><ele>771.25</ele><time>2026-04-26T09:54:14.727Z</time></trkpt><trkpt lat="42.921825" lon="2.52361"><ele>772.5</ele><time>2026-04-26T09:54:15.731Z</time></trkpt><trkpt lat="42.9217733" lon="2.52345"><ele>773.75</ele><time>2026-04-26T09:54:16.728Z</time></trkpt><trkpt lat="42.9217283" lon="2.523295"><ele>775.0</ele><time>2026-04-26T09:54:17.728Z</time></trkpt><trkpt lat="42.9216883" lon="2.5231517"><ele>775.0</ele><time>2026-04-26T09:54:18.728Z</time></trkpt><trkpt lat="42.9216567" lon="2.523"><ele>775.0</ele><time>2026-04-26T09:54:19.727Z</time></trkpt><trkpt lat="42.9216367" lon="2.522845"><ele>775.0</ele><time>2026-04-26T09:54:20.728Z</time></trkpt><trkpt lat="42.9216183" lon="2.5227033"><ele>775.0</ele><time>2026-04-26T09:54:21.727Z</time></trkpt><trkpt lat="42.9215933" lon="2.5225767"><ele>775.0</ele><time>2026-04-26T09:54:22.73Z</time></trkpt><trkpt lat="42.921555" lon="2.5224667"><ele>773.6666666666666</ele><time>2026-04-26T09:54:23.731Z</time></trkpt><trkpt lat="42.9215267" lon="2.52237"><ele>772.3333333333333</ele><time>2026-04-26T09:54:24.732Z</time></trkpt><trkpt lat="42.9215033" lon="2.5222633"><ele>771.0</ele><time>2026-04-26T09:54:25.727Z</time></trkpt><trkpt lat="42.9215017" lon="2.5221517"><ele>769.6666666666666</ele><time>2026-04-26T09:54:26.73Z</time></trkpt><trkpt lat="42.9215267" lon="2.5220433"><ele>768.3333333333333</ele><time>2026-04-26T09:54:27.728Z</time></trkpt><trkpt lat="42.9215733" lon="2.5219183"><ele>767.0</ele><time>2026-04-26T09:54:28.73Z</time></trkpt><trkpt lat="42.9216183" lon="2.5217817"><ele>766.6</ele><time>2026-04-26T09:54:29.729Z</time></trkpt><trkpt lat="42.9216567" lon="2.5216333"><ele>766.2</ele><time>2026-04-26T09:54:30.729Z</time></trkpt><trkpt lat="42.921695" lon="2.52149"><ele>765.8</ele><time>2026-04-26T09:54:31.728Z</time></trkpt><trkpt lat="42.921715" lon="2.5213417"><ele>765.4</ele><time>2026-04-26T09:54:32.728Z</time></trkpt><trkpt lat="42.9217283" lon="2.5212"><ele>765.0</ele><time>2026-04-26T09:54:33.73Z</time></trkpt><trkpt lat="42.9217317" lon="2.5210533"><ele>763.6</ele><time>2026-04-26T09:54:34.728Z</time></trkpt><trkpt lat="42.9217167" lon="2.5209133"><ele>762.2</ele><time>2026-04-26T09:54:35.731Z</time></trkpt><trkpt lat="42.921685" lon="2.52078"><ele>760.8</ele><time>2026-04-26T09:54:36.728Z</time></trkpt><trkpt lat="42.9216417" lon="2.52066"><ele>759.4</ele><time>2026-04-26T09:54:37.728Z</time></trkpt><trkpt lat="42.921585" lon="2.5205417"><ele>758.0</ele><time>2026-04-26T09:54:38.731Z</time></trkpt><trkpt lat="42.9215317" lon="2.5204233"><ele>756.4</ele><time>2026-04-26T09:54:39.728Z</time></trkpt><trkpt lat="42.9214867" lon="2.5202967"><ele>754.8</ele><time>2026-04-26T09:54:40.728Z</time></trkpt><trkpt lat="42.92145" lon="2.52017"><ele>753.2</ele><time>2026-04-26T09:54:41.728Z</time></trkpt><trkpt lat="42.9214267" lon="2.5200383"><ele>751.6</ele><time>2026-04-26T09:54:42.729Z</time></trkpt><trkpt lat="42.9214267" lon="2.5199067"><ele>750.0</ele><time>2026-04-26T09:54:43.728Z</time></trkpt><trkpt lat="42.9214467" lon="2.519775"><ele>750.0</ele><time>2026-04-26T09:54:44.727Z</time></trkpt><trkpt lat="42.9214683" lon="2.519635"><ele>750.0</ele><time>2026-04-26T09:54:45.728Z</time></trkpt><trkpt lat="42.9214867" lon="2.519495"><ele>750.0</ele><time>2026-04-26T09:54:46.728Z</time></trkpt><trkpt lat="42.9215017" lon="2.51935"><ele>750.0</ele><time>2026-04-26T09:54:47.728Z</time></trkpt><trkpt lat="42.9215017" lon="2.5191983"><ele>750.0</ele><time>2026-04-26T09:54:48.73Z</time></trkpt><trkpt lat="42.9214967" lon="2.5190433"><ele>749.0</ele><time>2026-04-26T09:54:49.728Z</time></trkpt><trkpt lat="42.9214717" lon="2.51888"><ele>748.0</ele><time>2026-04-26T09:54:50.728Z</time></trkpt><trkpt lat="42.9214683" lon="2.518765"><ele>747.0</ele><time>2026-04-26T09:54:51.728Z</time></trkpt><trkpt lat="42.9214633" lon="2.5186517"><ele>746.0</ele><time>2026-04-26T09:54:52.727Z</time></trkpt><trkpt lat="42.9214567" lon="2.51855"><ele>745.0</ele><time>2026-04-26T09:54:53.73Z</time></trkpt><trkpt lat="42.9214667" lon="2.5184067"><ele>745.0</ele><time>2026-04-26T09:54:55.731Z</time></trkpt><trkpt lat="42.9215317" lon="2.5184017"><ele>745.0</ele><time>2026-04-26T09:54:57.731Z</time></trkpt><trkpt lat="42.9215817" lon="2.5185217"><ele>745.0</ele><time>2026-04-26T09:54:59.729Z</time></trkpt><trkpt lat="42.921635" lon="2.5186733"><ele>745.0</ele><time>2026-04-26T09:55:01.735Z</time></trkpt><trkpt lat="42.9216817" lon="2.518755"><ele>745.0</ele><time>2026-04-26T09:55:02.728Z</time></trkpt><trkpt lat="42.9217167" lon="2.51884"><ele>745.0</ele><time>2026-04-26T09:55:03.73Z</time></trkpt><trkpt lat="42.9217733" lon="2.5189183"><ele>742.3333333333334</ele><time>2026-04-26T09:55:04.728Z</time></trkpt><trkpt lat="42.9218317" lon="2.518995"><ele>739.6666666666667</ele><time>2026-04-26T09:55:05.73Z</time></trkpt><trkpt lat="42.9218883" lon="2.519075"><ele>737.0</ele><time>2026-04-26T09:55:06.728Z</time></trkpt><trkpt lat="42.921945" lon="2.5191717"><ele>734.3333333333334</ele><time>2026-04-26T09:55:07.729Z</time></trkpt><trkpt lat="42.9219883" lon="2.5192833"><ele>731.6666666666666</ele><time>2026-04-26T09:55:08.73Z</time></trkpt><trkpt lat="42.92203" lon="2.51939"><ele>729.0</ele><time>2026-04-26T09:55:09.728Z</time></trkpt><trkpt lat="42.922075" lon="2.519495"><ele>730.0</ele><time>2026-04-26T09:55:10.728Z</time></trkpt><trkpt lat="42.9221383" lon="2.5195883"><ele>731.0</ele><time>2026-04-26T09:55:11.728Z</time></trkpt><trkpt lat="42.9222017" lon="2.51969"><ele>732.0</ele><time>2026-04-26T09:55:12.729Z</time></trkpt><trkpt lat="42.922285" lon="2.5197633"><ele>733.0</ele><time>2026-04-26T09:55:13.73Z</time></trkpt><trkpt lat="42.9223733" lon="2.5198233"><ele>734.0</ele><time>2026-04-26T09:55:14.731Z</time></trkpt><trkpt lat="42.922475" lon="2.5199017"><ele>734.0</ele><time>2026-04-26T09:55:15.728Z</time></trkpt><trkpt lat="42.9225583" lon="2.5199883"><ele>734.0</ele><time>2026-04-26T09:55:16.729Z</time></trkpt><trkpt lat="42.9226333" lon="2.5200767"><ele>734.0</ele><time>2026-04-26T09:55:17.729Z</time></trkpt><trkpt lat="42.9227033" lon="2.5201733"><ele>734.0</ele><time>2026-04-26T09:55:18.729Z</time></trkpt><trkpt lat="42.9227633" lon="2.520265"><ele>734.0</ele><time>2026-04-26T09:55:19.729Z</time></trkpt><trkpt lat="42.9228117" lon="2.5203567"><ele>732.3333333333333</ele><time>2026-04-26T09:55:20.728Z</time></trkpt><trkpt lat="42.9228433" lon="2.5204483"><ele>730.6666666666666</ele><time>2026-04-26T09:55:21.73Z</time></trkpt><trkpt lat="42.9228567" lon="2.5205333"><ele>729.0</ele><time>2026-04-26T09:55:22.727Z</time></trkpt><trkpt lat="42.9229217" lon="2.5206167"><ele>727.3333333333334</ele><time>2026-04-26T09:55:24.729Z</time></trkpt><trkpt lat="42.9229917" lon="2.52051"><ele>725.6666666666667</ele><time>2026-04-26T09:55:26.729Z</time></trkpt><trkpt lat="42.9230067" lon="2.52041"><ele>724.0</ele><time>2026-04-26T09:55:27.729Z</time></trkpt><trkpt lat="42.9230083" lon="2.5203233"><ele>722.8333333333334</ele><time>2026-04-26T09:55:28.728Z</time></trkpt><trkpt lat="42.9230017" lon="2.5201367"><ele>721.6666666666667</ele><time>2026-04-26T09:55:30.728Z</time></trkpt><trkpt lat="42.9230017" lon="2.5200333"><ele>720.5</ele><time>2026-04-26T09:55:31.727Z</time></trkpt><trkpt lat="42.9230067" lon="2.519935"><ele>719.3333333333334</ele><time>2026-04-26T09:55:32.73Z</time></trkpt><trkpt lat="42.9230217" lon="2.51984"><ele>718.1666666666666</ele><time>2026-04-26T09:55:33.728Z</time></trkpt><trkpt lat="42.9230367" lon="2.5197433"><ele>717.0</ele><time>2026-04-26T09:55:34.728Z</time></trkpt><trkpt lat="42.9230583" lon="2.51965"><ele>717.0</ele><time>2026-04-26T09:55:35.727Z</time></trkpt><trkpt lat="42.9230867" lon="2.5195567"><ele>717.0</ele><time>2026-04-26T09:55:36.728Z</time></trkpt><trkpt lat="42.92312" lon="2.5194833"><ele>717.0</ele><time>2026-04-26T09:55:37.727Z</time></trkpt><trkpt lat="42.9232283" lon="2.519435"><ele>717.0</ele><time>2026-04-26T09:55:39.727Z</time></trkpt><trkpt lat="42.9232933" lon="2.5194717"><ele>717.0</ele><time>2026-04-26T09:55:40.73Z</time></trkpt><trkpt lat="42.9233567" lon="2.5195417"><ele>717.0</ele><time>2026-04-26T09:55:41.73Z</time></trkpt><trkpt lat="42.9234183" lon="2.5196167"><ele>717.0</ele><time>2026-04-26T09:55:42.728Z</time></trkpt><trkpt lat="42.9234883" lon="2.5197067"><ele>717.0</ele><time>2026-04-26T09:55:43.73Z</time></trkpt><trkpt lat="42.9235533" lon="2.5197633"><ele>717.0</ele><time>2026-04-26T09:55:44.731Z</time></trkpt><trkpt lat="42.9236233" lon="2.5198"><ele>717.0</ele><time>2026-04-26T09:55:45.729Z</time></trkpt><trkpt lat="42.9237033" lon="2.5197583"><ele>717.0</ele><time>2026-04-26T09:55:46.728Z</time></trkpt><trkpt lat="42.9237683" lon="2.519675"><ele>717.0</ele><time>2026-04-26T09:55:47.727Z</time></trkpt><trkpt lat="42.9238283" lon="2.5195867"><ele>715.6666666666666</ele><time>2026-04-26T09:55:48.73Z</time></trkpt><trkpt lat="42.9238733" lon="2.519485"><ele>714.3333333333334</ele><time>2026-04-26T09:55:49.728Z</time></trkpt><trkpt lat="42.923915" lon="2.5193817"><ele>713.0</ele><time>2026-04-26T09:55:50.729Z</time></trkpt><trkpt lat="42.9239517" lon="2.5192683"><ele>711.6666666666667</ele><time>2026-04-26T09:55:51.728Z</time></trkpt><trkpt lat="42.9239967" lon="2.51916"><ele>710.3333333333334</ele><time>2026-04-26T09:55:52.727Z</time></trkpt><trkpt lat="42.9240483" lon="2.51906"><ele>709.0</ele><time>2026-04-26T09:55:53.729Z</time></trkpt><trkpt lat="42.9241083" lon="2.5189683"><ele>709.0</ele><time>2026-04-26T09:55:54.727Z</time></trkpt><trkpt lat="42.9241767" lon="2.5188983"><ele>709.0</ele><time>2026-04-26T09:55:55.728Z</time></trkpt><trkpt lat="42.9242617" lon="2.5188633"><ele>709.0</ele><time>2026-04-26T09:55:56.729Z</time></trkpt><trkpt lat="42.9243633" lon="2.518885"><ele>709.0</ele><time>2026-04-26T09:55:57.727Z</time></trkpt><trkpt lat="42.924465" lon="2.51892"><ele>709.0</ele><time>2026-04-26T09:55:58.728Z</time></trkpt><trkpt lat="42.9245667" lon="2.5189517"><ele>708.25</ele><time>2026-04-26T09:55:59.728Z</time></trkpt><trkpt lat="42.9246783" lon="2.5189667"><ele>707.5</ele><time>2026-04-26T09:56:00.731Z</time></trkpt><trkpt lat="42.9248017" lon="2.518965"><ele>706.75</ele><time>2026-04-26T09:56:01.729Z</time></trkpt><trkpt lat="42.92493" lon="2.5189533"><ele>706.0</ele><time>2026-04-26T09:56:02.73Z</time></trkpt><trkpt lat="42.9250583" lon="2.5189333"><ele>705.75</ele><time>2026-04-26T09:56:03.729Z</time></trkpt><trkpt lat="42.9251883" lon="2.5189017"><ele>705.5</ele><time>2026-04-26T09:56:04.729Z</time></trkpt><trkpt lat="42.9253133" lon="2.5188583"><ele>705.25</ele><time>2026-04-26T09:56:05.728Z</time></trkpt><trkpt lat="42.9254417" lon="2.518805"><ele>705.0</ele><time>2026-04-26T09:56:06.729Z</time></trkpt><trkpt lat="42.9255633" lon="2.5187433"><ele>700.5</ele><time>2026-04-26T09:56:07.728Z</time></trkpt><trkpt lat="42.925685" lon="2.51867"><ele>696.0</ele><time>2026-04-26T09:56:08.728Z</time></trkpt><trkpt lat="42.9258067" lon="2.5186067"><ele>691.5</ele><time>2026-04-26T09:56:09.729Z</time></trkpt><trkpt lat="42.9259367" lon="2.5185467"><ele>687.0</ele><time>2026-04-26T09:56:10.729Z</time></trkpt><trkpt lat="42.9260633" lon="2.51852"><ele>686.0</ele><time>2026-04-26T09:56:11.73Z</time></trkpt><trkpt lat="42.92619" lon="2.5185067"><ele>685.0</ele><time>2026-04-26T09:56:12.729Z</time></trkpt><trkpt lat="42.9263033" lon="2.518485"><ele>684.0</ele><time>2026-04-26T09:56:13.728Z</time></trkpt><trkpt lat="42.9264233" lon="2.518465"><ele>683.0</ele><time>2026-04-26T09:56:14.728Z</time></trkpt><trkpt lat="42.926545" lon="2.5184467"><ele>683.0</ele><time>2026-04-26T09:56:15.73Z</time></trkpt><trkpt lat="42.9266583" lon="2.51845"><ele>683.0</ele><time>2026-04-26T09:56:16.727Z</time></trkpt><trkpt lat="42.9267617" lon="2.518465"><ele>683.0</ele><time>2026-04-26T09:56:17.728Z</time></trkpt><trkpt lat="42.9268717" lon="2.518485"><ele>683.0</ele><time>2026-04-26T09:56:18.729Z</time></trkpt><trkpt lat="42.9269733" lon="2.518525"><ele>683.0</ele><time>2026-04-26T09:56:19.727Z</time></trkpt><trkpt lat="42.9270733" lon="2.51857"><ele>684.2</ele><time>2026-04-26T09:56:20.729Z</time></trkpt><trkpt lat="42.927175" lon="2.518615"><ele>685.4</ele><time>2026-04-26T09:56:21.728Z</time></trkpt><trkpt lat="42.9272717" lon="2.5186583"><ele>686.6</ele><time>2026-04-26T09:56:22.728Z</time></trkpt><trkpt lat="42.9273717" lon="2.51871"><ele>687.8000000000001</ele><time>2026-04-26T09:56:23.728Z</time></trkpt><trkpt lat="42.9274717" lon="2.5187667"><ele>689.0</ele><time>2026-04-26T09:56:24.728Z</time></trkpt><trkpt lat="42.92757" lon="2.5188267"><ele>689.1666666666666</ele><time>2026-04-26T09:56:25.728Z</time></trkpt><trkpt lat="42.9276483" lon="2.5188883"><ele>689.3333333333333</ele><time>2026-04-26T09:56:26.731Z</time></trkpt><trkpt lat="42.9277167" lon="2.5189233"><ele>689.5</ele><time>2026-04-26T09:56:27.729Z</time></trkpt><trkpt lat="42.927795" lon="2.518935"><ele>689.6666666666666</ele><time>2026-04-26T09:56:28.729Z</time></trkpt><trkpt lat="42.927875" lon="2.5189067"><ele>689.8333333333334</ele><time>2026-04-26T09:56:29.729Z</time></trkpt><trkpt lat="42.92794" lon="2.51886"><ele>690.0</ele><time>2026-04-26T09:56:30.729Z</time></trkpt><trkpt lat="42.9280133" lon="2.518785"><ele>687.0</ele><time>2026-04-26T09:56:31.729Z</time></trkpt><trkpt lat="42.9280617" lon="2.5186917"><ele>684.0</ele><time>2026-04-26T09:56:32.728Z</time></trkpt><trkpt lat="42.92812" lon="2.5185883"><ele>681.0</ele><time>2026-04-26T09:56:33.728Z</time></trkpt><trkpt lat="42.9281783" lon="2.5184717"><ele>678.0</ele><time>2026-04-26T09:56:34.727Z</time></trkpt><trkpt lat="42.9282283" lon="2.5183383"><ele>675.0</ele><time>2026-04-26T09:56:35.73Z</time></trkpt><trkpt lat="42.92826" lon="2.5182083"><ele>675.0</ele><time>2026-04-26T09:56:36.728Z</time></trkpt><trkpt lat="42.9282933" lon="2.51807"><ele>675.0</ele><time>2026-04-26T09:56:37.729Z</time></trkpt><trkpt lat="42.928325" lon="2.5179267"><ele>675.0</ele><time>2026-04-26T09:56:38.727Z</time></trkpt><trkpt lat="42.928355" lon="2.51778"><ele>675.0</ele><time>2026-04-26T09:56:39.729Z</time></trkpt><trkpt lat="42.9283883" lon="2.5176367"><ele>675.0</ele><time>2026-04-26T09:56:40.727Z</time></trkpt><trkpt lat="42.92842" lon="2.51749"><ele>673.6</ele><time>2026-04-26T09:56:41.73Z</time></trkpt><trkpt lat="42.92846" lon="2.5173517"><ele>672.2</ele><time>2026-04-26T09:56:42.728Z</time></trkpt><trkpt lat="42.9285067" lon="2.517215"><ele>670.8</ele><time>2026-04-26T09:56:43.729Z</time></trkpt><trkpt lat="42.9285633" lon="2.5170833"><ele>669.4</ele><time>2026-04-26T09:56:44.728Z</time></trkpt><trkpt lat="42.9286133" lon="2.51695"><ele>668.0</ele><time>2026-04-26T09:56:45.729Z</time></trkpt><trkpt lat="42.9286633" lon="2.5168067"><ele>668.0</ele><time>2026-04-26T09:56:46.728Z</time></trkpt><trkpt lat="42.9287167" lon="2.5166583"><ele>668.0</ele><time>2026-04-26T09:56:47.728Z</time></trkpt><trkpt lat="42.9287633" lon="2.5165183"><ele>668.0</ele><time>2026-04-26T09:56:48.729Z</time></trkpt><trkpt lat="42.9288117" lon="2.5163783"><ele>668.0</ele><time>2026-04-26T09:56:49.728Z</time></trkpt><trkpt lat="42.9288617" lon="2.5162583"><ele>668.0</ele><time>2026-04-26T09:56:50.728Z</time></trkpt><trkpt lat="42.9289133" lon="2.5161517"><ele>667.5999999999999</ele><time>2026-04-26T09:56:51.729Z</time></trkpt><trkpt lat="42.9289633" lon="2.5160433"><ele>667.1999999999999</ele><time>2026-04-26T09:56:52.728Z</time></trkpt><trkpt lat="42.9290217" lon="2.5159567"><ele>666.8</ele><time>2026-04-26T09:56:53.728Z</time></trkpt><trkpt lat="42.9290833" lon="2.5158667"><ele>666.4</ele><time>2026-04-26T09:56:54.728Z</time></trkpt><trkpt lat="42.929155" lon="2.5157867"><ele>666.0</ele><time>2026-04-26T09:56:55.729Z</time></trkpt><trkpt lat="42.9292333" lon="2.5157033"><ele>666.0</ele><time>2026-04-26T09:56:56.73Z</time></trkpt><trkpt lat="42.9293183" lon="2.5156233"><ele>666.0</ele><time>2026-04-26T09:56:57.728Z</time></trkpt><trkpt lat="42.92941" lon="2.515545"><ele>666.0</ele><time>2026-04-26T09:56:58.729Z</time></trkpt><trkpt lat="42.929515" lon="2.51549"><ele>666.0</ele><time>2026-04-26T09:56:59.73Z</time></trkpt><trkpt lat="42.92963" lon="2.5154383"><ele>666.0</ele><time>2026-04-26T09:57:00.727Z</time></trkpt><trkpt lat="42.92975" lon="2.515405"><ele>665.1999999999999</ele><time>2026-04-26T09:57:01.728Z</time></trkpt><trkpt lat="42.9298617" lon="2.5153783"><ele>664.4</ele><time>2026-04-26T09:57:02.729Z</time></trkpt><trkpt lat="42.9299683" lon="2.51534"><ele>663.6</ele><time>2026-04-26T09:57:03.729Z</time></trkpt><trkpt lat="42.9300733" lon="2.5152917"><ele>662.8</ele><time>2026-04-26T09:57:04.729Z</time></trkpt><trkpt lat="42.930175" lon="2.515225"><ele>662.0</ele><time>2026-04-26T09:57:05.731Z</time></trkpt><trkpt lat="42.930275" lon="2.515165"><ele>660.2</ele><time>2026-04-26T09:57:06.729Z</time></trkpt><trkpt lat="42.9303817" lon="2.5151167"><ele>658.4000000000001</ele><time>2026-04-26T09:57:07.728Z</time></trkpt><trkpt lat="42.9304867" lon="2.5150733"><ele>656.5999999999999</ele><time>2026-04-26T09:57:08.727Z</time></trkpt><trkpt lat="42.93059" lon="2.5150333"><ele>654.8</ele><time>2026-04-26T09:57:09.731Z</time></trkpt><trkpt lat="42.93069" lon="2.514985"><ele>653.0</ele><time>2026-04-26T09:57:10.729Z</time></trkpt><trkpt lat="42.9307967" lon="2.5149333"><ele>650.0</ele><time>2026-04-26T09:57:11.727Z</time></trkpt><trkpt lat="42.9308967" lon="2.514895"><ele>647.0</ele><time>2026-04-26T09:57:12.727Z</time></trkpt><trkpt lat="42.931" lon="2.5148767"><ele>644.0</ele><time>2026-04-26T09:57:13.73Z</time></trkpt><trkpt lat="42.9311033" lon="2.5148467"><ele>641.0</ele><time>2026-04-26T09:57:14.728Z</time></trkpt><trkpt lat="42.9312133" lon="2.514815"><ele>638.0</ele><time>2026-04-26T09:57:15.729Z</time></trkpt><trkpt lat="42.9313217" lon="2.5148"><ele>638.0</ele><time>2026-04-26T09:57:16.728Z</time></trkpt><trkpt lat="42.9314317" lon="2.514795"><ele>638.0</ele><time>2026-04-26T09:57:17.73Z</time></trkpt><trkpt lat="42.9315417" lon="2.51478"><ele>638.0</ele><time>2026-04-26T09:57:18.727Z</time></trkpt><trkpt lat="42.9316533" lon="2.51477"><ele>638.0</ele><time>2026-04-26T09:57:19.73Z</time></trkpt><trkpt lat="42.93176" lon="2.5147517"><ele>638.0</ele><time>2026-04-26T09:57:20.729Z</time></trkpt><trkpt lat="42.9318617" lon="2.51472"><ele>636.6</ele><time>2026-04-26T09:57:21.731Z</time></trkpt><trkpt lat="42.9319583" lon="2.5146733"><ele>635.1999999999999</ele><time>2026-04-26T09:57:22.728Z</time></trkpt><trkpt lat="42.9320617" lon="2.5146117"><ele>633.8</ele><time>2026-04-26T09:57:23.729Z</time></trkpt><trkpt lat="42.9321667" lon="2.5145467"><ele>632.4</ele><time>2026-04-26T09:57:24.731Z</time></trkpt><trkpt lat="42.93227" lon="2.5144867"><ele>631.0</ele><time>2026-04-26T09:57:25.729Z</time></trkpt><trkpt lat="42.9323767" lon="2.51445"><ele>631.0</ele><time>2026-04-26T09:57:26.731Z</time></trkpt><trkpt lat="42.932485" lon="2.5144217"><ele>631.0</ele><time>2026-04-26T09:57:27.732Z</time></trkpt><trkpt lat="42.9325833" lon="2.5144067"><ele>631.0</ele><time>2026-04-26T09:57:28.729Z</time></trkpt><trkpt lat="42.9326683" lon="2.5143983"><ele>631.0</ele><time>2026-04-26T09:57:29.732Z</time></trkpt><trkpt lat="42.9327433" lon="2.514395"><ele>631.0</ele><time>2026-04-26T09:57:30.731Z</time></trkpt><trkpt lat="42.9328083" lon="2.514395"><ele>631.0</ele><time>2026-04-26T09:57:31.728Z</time></trkpt><trkpt lat="42.93291" lon="2.5143783"><ele>625.8333333333334</ele><time>2026-04-26T09:57:33.729Z</time></trkpt><trkpt lat="42.93298" lon="2.5143417"><ele>620.6666666666667</ele><time>2026-04-26T09:57:36.729Z</time></trkpt><trkpt lat="42.9330217" lon="2.514235"><ele>615.5</ele><time>2026-04-26T09:58:22.728Z</time></trkpt><trkpt lat="42.9330833" lon="2.51414"><ele>610.3333333333334</ele><time>2026-04-26T09:58:24.728Z</time></trkpt><trkpt lat="42.93314" lon="2.514055"><ele>605.1666666666666</ele><time>2026-04-26T09:58:25.732Z</time></trkpt><trkpt lat="42.9332067" lon="2.51395"><ele>600.0</ele><time>2026-04-26T09:58:26.729Z</time></trkpt><trkpt lat="42.9332733" lon="2.51385"><ele>600.0</ele><time>2026-04-26T09:58:27.728Z</time></trkpt><trkpt lat="42.93334" lon="2.5137567"><ele>600.0</ele><time>2026-04-26T09:58:28.729Z</time></trkpt><trkpt lat="42.9334117" lon="2.513665"><ele>600.0</ele><time>2026-04-26T09:58:29.731Z</time></trkpt><trkpt lat="42.9334817" lon="2.5135767"><ele>600.0</ele><time>2026-04-26T09:58:30.729Z</time></trkpt><trkpt lat="42.9335567" lon="2.5134917"><ele>600.0</ele><time>2026-04-26T09:58:31.73Z</time></trkpt><trkpt lat="42.933635" lon="2.5134233"><ele>598.3333333333334</ele><time>2026-04-26T09:58:32.728Z</time></trkpt><trkpt lat="42.93372" lon="2.5133817"><ele>596.6666666666666</ele><time>2026-04-26T09:58:33.73Z</time></trkpt><trkpt lat="42.9338017" lon="2.513365"><ele>595.0</ele><time>2026-04-26T09:58:34.727Z</time></trkpt><trkpt lat="42.9338883" lon="2.5133433"><ele>593.3333333333333</ele><time>2026-04-26T09:58:35.73Z</time></trkpt><trkpt lat="42.9339733" lon="2.5133083"><ele>591.6666666666666</ele><time>2026-04-26T09:58:36.73Z</time></trkpt><trkpt lat="42.934055" lon="2.5132567"><ele>590.0</ele><time>2026-04-26T09:58:37.729Z</time></trkpt><trkpt lat="42.9341367" lon="2.5131783"><ele>590.0</ele><time>2026-04-26T09:58:38.73Z</time></trkpt><trkpt lat="42.9342117" lon="2.51309"><ele>590.0</ele><time>2026-04-26T09:58:39.73Z</time></trkpt><trkpt lat="42.934285" lon="2.5129967"><ele>590.0</ele><time>2026-04-26T09:58:40.729Z</time></trkpt><trkpt lat="42.9343583" lon="2.512895"><ele>590.0</ele><time>2026-04-26T09:58:41.728Z</time></trkpt><trkpt lat="42.9344317" lon="2.5127867"><ele>590.0</ele><time>2026-04-26T09:58:42.729Z</time></trkpt><trkpt lat="42.9344983" lon="2.512675"><ele>588.0</ele><time>2026-04-26T09:58:43.732Z</time></trkpt><trkpt lat="42.9345617" lon="2.512565"><ele>586.0</ele><time>2026-04-26T09:58:44.731Z</time></trkpt><trkpt lat="42.9346233" lon="2.512445"><ele>584.0</ele><time>2026-04-26T09:58:45.728Z</time></trkpt><trkpt lat="42.9346817" lon="2.5123117"><ele>582.0</ele><time>2026-04-26T09:58:46.727Z</time></trkpt><trkpt lat="42.9347233" lon="2.512165"><ele>580.0</ele><time>2026-04-26T09:58:47.73Z</time></trkpt><trkpt lat="42.9347633" lon="2.5120233"><ele>580.0</ele><time>2026-04-26T09:58:48.728Z</time></trkpt><trkpt lat="42.9347967" lon="2.51187"><ele>580.0</ele><time>2026-04-26T09:58:49.729Z</time></trkpt><trkpt lat="42.9348167" lon="2.511725"><ele>580.0</ele><time>2026-04-26T09:58:50.729Z</time></trkpt><trkpt lat="42.9348433" lon="2.5115783"><ele>580.0</ele><time>2026-04-26T09:58:51.729Z</time></trkpt><trkpt lat="42.9348683" lon="2.5114317"><ele>580.0</ele><time>2026-04-26T09:58:52.73Z</time></trkpt><trkpt lat="42.9348883" lon="2.5112833"><ele>580.2</ele><time>2026-04-26T09:58:53.731Z</time></trkpt><trkpt lat="42.9349033" lon="2.5111283"><ele>580.4</ele><time>2026-04-26T09:58:54.728Z</time></trkpt><trkpt lat="42.9349117" lon="2.510985"><ele>580.6</ele><time>2026-04-26T09:58:55.731Z</time></trkpt><trkpt lat="42.9349117" lon="2.51084"><ele>580.8</ele><time>2026-04-26T09:58:56.73Z</time></trkpt><trkpt lat="42.934925" lon="2.5106983"><ele>581.0</ele><time>2026-04-26T09:58:57.73Z</time></trkpt><trkpt lat="42.9349333" lon="2.5105667"><ele>581.0</ele><time>2026-04-26T09:58:58.731Z</time></trkpt><trkpt lat="42.9349533" lon="2.5104317"><ele>581.0</ele><time>2026-04-26T09:58:59.731Z</time></trkpt><trkpt lat="42.9349683" lon="2.5102967"><ele>581.0</ele><time>2026-04-26T09:59:00.73Z</time></trkpt><trkpt lat="42.9349817" lon="2.510165"><ele>581.0</ele><time>2026-04-26T09:59:01.729Z</time></trkpt><trkpt lat="42.9349883" lon="2.51003"><ele>581.0</ele><time>2026-04-26T09:59:02.73Z</time></trkpt><trkpt lat="42.9349967" lon="2.509895"><ele>580.4</ele><time>2026-04-26T09:59:03.729Z</time></trkpt><trkpt lat="42.9350167" lon="2.5097567"><ele>579.8</ele><time>2026-04-26T09:59:04.728Z</time></trkpt><trkpt lat="42.935035" lon="2.5096167"><ele>579.1999999999999</ele><time>2026-04-26T09:59:05.731Z</time></trkpt><trkpt lat="42.9350517" lon="2.5094717"><ele>578.6</ele><time>2026-04-26T09:59:06.729Z</time></trkpt><trkpt lat="42.9350667" lon="2.5093267"><ele>578.0</ele><time>2026-04-26T09:59:07.729Z</time></trkpt><trkpt lat="42.9350883" lon="2.5091883"><ele>575.1666666666666</ele><time>2026-04-26T09:59:08.73Z</time></trkpt><trkpt lat="42.935105" lon="2.509065"><ele>572.3333333333333</ele><time>2026-04-26T09:59:09.729Z</time></trkpt><trkpt lat="42.935115" lon="2.50895"><ele>569.5</ele><time>2026-04-26T09:59:10.731Z</time></trkpt><trkpt lat="42.9351167" lon="2.5088467"><ele>566.6666666666666</ele><time>2026-04-26T09:59:11.728Z</time></trkpt><trkpt lat="42.9351033" lon="2.508745"><ele>563.8333333333334</ele><time>2026-04-26T09:59:12.729Z</time></trkpt><trkpt lat="42.9350733" lon="2.5086533"><ele>561.0</ele><time>2026-04-26T09:59:13.731Z</time></trkpt><trkpt lat="42.93503" lon="2.5085583"><ele>561.0</ele><time>2026-04-26T09:59:14.728Z</time></trkpt><trkpt lat="42.9349817" lon="2.5084617"><ele>561.0</ele><time>2026-04-26T09:59:15.728Z</time></trkpt><trkpt lat="42.93493" lon="2.508365"><ele>561.0</ele><time>2026-04-26T09:59:16.729Z</time></trkpt><trkpt lat="42.9348833" lon="2.5082717"><ele>561.0</ele><time>2026-04-26T09:59:17.729Z</time></trkpt><trkpt lat="42.9348567" lon="2.50817"><ele>561.0</ele><time>2026-04-26T09:59:18.729Z</time></trkpt><trkpt lat="42.9348533" lon="2.5080583"><ele>561.0</ele><time>2026-04-26T09:59:19.728Z</time></trkpt><trkpt lat="42.9348617" lon="2.5079467"><ele>560.3333333333334</ele><time>2026-04-26T09:59:20.728Z</time></trkpt><trkpt lat="42.9348817" lon="2.5078483"><ele>559.6666666666666</ele><time>2026-04-26T09:59:21.728Z</time></trkpt><trkpt lat="42.9349367" lon="2.5077167"><ele>559.0</ele><time>2026-04-26T09:59:23.73Z</time></trkpt><trkpt lat="42.9350033" lon="2.5077333"><ele>558.3333333333333</ele><time>2026-04-26T09:59:25.728Z</time></trkpt><trkpt lat="42.9350417" lon="2.507835"><ele>557.6666666666666</ele><time>2026-04-26T09:59:27.729Z</time></trkpt><trkpt lat="42.9350583" lon="2.50794"><ele>557.0</ele><time>2026-04-26T09:59:28.729Z</time></trkpt><trkpt lat="42.9350883" lon="2.508055"><ele>553.2</ele><time>2026-04-26T09:59:29.728Z</time></trkpt><trkpt lat="42.9351283" lon="2.5081633"><ele>549.4000000000001</ele><time>2026-04-26T09:59:30.73Z</time></trkpt><trkpt lat="42.9351933" lon="2.508255"><ele>545.5999999999999</ele><time>2026-04-26T09:59:31.728Z</time></trkpt><trkpt lat="42.9352767" lon="2.5083183"><ele>541.8</ele><time>2026-04-26T09:59:32.729Z</time></trkpt><trkpt lat="42.9353817" lon="2.5083567"><ele>538.0</ele><time>2026-04-26T09:59:33.728Z</time></trkpt><trkpt lat="42.9354767" lon="2.5084033"><ele>538.0</ele><time>2026-04-26T09:59:34.729Z</time></trkpt><trkpt lat="42.9355683" lon="2.5084783"><ele>538.0</ele><time>2026-04-26T09:59:35.728Z</time></trkpt><trkpt lat="42.935645" lon="2.5085833"><ele>538.0</ele><time>2026-04-26T09:59:36.728Z</time></trkpt><trkpt lat="42.9356933" lon="2.5087133"><ele>538.0</ele><time>2026-04-26T09:59:37.728Z</time></trkpt><trkpt lat="42.935735" lon="2.5088383"><ele>538.0</ele><time>2026-04-26T09:59:38.728Z</time></trkpt><trkpt lat="42.9357867" lon="2.50895"><ele>539.6</ele><time>2026-04-26T09:59:39.731Z</time></trkpt><trkpt lat="42.935845" lon="2.5090433"><ele>541.1999999999999</ele><time>2026-04-26T09:59:40.728Z</time></trkpt><trkpt lat="42.9359067" lon="2.5091183"><ele>542.8</ele><time>2026-04-26T09:59:41.73Z</time></trkpt><trkpt lat="42.9359933" lon="2.50917"><ele>544.4</ele><time>2026-04-26T09:59:42.728Z</time></trkpt><trkpt lat="42.9360883" lon="2.5092083"><ele>546.0</ele><time>2026-04-26T09:59:43.73Z</time></trkpt><trkpt lat="42.9361867" lon="2.5092317"><ele>546.0</ele><time>2026-04-26T09:59:44.73Z</time></trkpt><trkpt lat="42.9362717" lon="2.509235"><ele>546.0</ele><time>2026-04-26T09:59:45.728Z</time></trkpt><trkpt lat="42.93635" lon="2.5091817"><ele>546.0</ele><time>2026-04-26T09:59:46.731Z</time></trkpt><trkpt lat="42.9363733" lon="2.5090417"><ele>546.0</ele><time>2026-04-26T09:59:47.728Z</time></trkpt><trkpt lat="42.9363733" lon="2.5088883"><ele>546.0</ele><time>2026-04-26T09:59:48.729Z</time></trkpt><trkpt lat="42.9363783" lon="2.508745"><ele>545.5</ele><time>2026-04-26T09:59:49.729Z</time></trkpt><trkpt lat="42.93637" lon="2.5086133"><ele>545.0</ele><time>2026-04-26T09:59:50.729Z</time></trkpt><trkpt lat="42.936355" lon="2.5084983"><ele>544.5</ele><time>2026-04-26T09:59:51.728Z</time></trkpt><trkpt lat="42.9363317" lon="2.50841"><ele>544.0</ele><time>2026-04-26T09:59:52.728Z</time></trkpt><trkpt lat="42.93627" lon="2.5083783"><ele>543.5</ele><time>2026-04-26T09:59:53.729Z</time></trkpt><trkpt lat="42.9361417" lon="2.5083867"><ele>543.0</ele><time>2026-04-26T09:59:55.73Z</time></trkpt><trkpt lat="42.9360667" lon="2.5083883"><ele>543.0</ele><time>2026-04-26T09:59:56.73Z</time></trkpt><trkpt lat="42.93599" lon="2.5083667"><ele>543.0</ele><time>2026-04-26T09:59:57.728Z</time></trkpt><trkpt lat="42.9359283" lon="2.5083167"><ele>543.0</ele><time>2026-04-26T09:59:58.728Z</time></trkpt><trkpt lat="42.9358833" lon="2.5082417"><ele>543.0</ele><time>2026-04-26T09:59:59.731Z</time></trkpt><trkpt lat="42.9358467" lon="2.5081517"><ele>543.0</ele><time>2026-04-26T10:00:00.729Z</time></trkpt><trkpt lat="42.935825" lon="2.50804"><ele>543.0</ele><time>2026-04-26T10:00:01.731Z</time></trkpt><trkpt lat="42.9357967" lon="2.50792"><ele>539.6</ele><time>2026-04-26T10:00:02.728Z</time></trkpt><trkpt lat="42.9357717" lon="2.507805"><ele>536.1999999999999</ele><time>2026-04-26T10:00:03.729Z</time></trkpt><trkpt lat="42.93576" lon="2.50768"><ele>532.8</ele><time>2026-04-26T10:00:04.728Z</time></trkpt><trkpt lat="42.93577" lon="2.50755"><ele>529.4</ele><time>2026-04-26T10:00:05.731Z</time></trkpt><trkpt lat="42.9357933" lon="2.50742"><ele>526.0</ele><time>2026-04-26T10:00:06.729Z</time></trkpt><trkpt lat="42.9358117" lon="2.5072867"><ele>526.0</ele><time>2026-04-26T10:00:07.728Z</time></trkpt><trkpt lat="42.9358133" lon="2.5071433"><ele>526.0</ele><time>2026-04-26T10:00:08.731Z</time></trkpt><trkpt lat="42.93581" lon="2.5069967"><ele>526.0</ele><time>2026-04-26T10:00:09.732Z</time></trkpt><trkpt lat="42.9358" lon="2.506855"><ele>526.0</ele><time>2026-04-26T10:00:10.728Z</time></trkpt><trkpt lat="42.935785" lon="2.50672"><ele>526.0</ele><time>2026-04-26T10:00:11.728Z</time></trkpt><trkpt lat="42.9357617" lon="2.506585"><ele>523.4</ele><time>2026-04-26T10:00:12.73Z</time></trkpt><trkpt lat="42.9357283" lon="2.506455"><ele>520.8</ele><time>2026-04-26T10:00:13.731Z</time></trkpt><trkpt lat="42.93569" lon="2.50633"><ele>518.1999999999999</ele><time>2026-04-26T10:00:14.729Z</time></trkpt><trkpt lat="42.9356583" lon="2.5062067"><ele>515.6</ele><time>2026-04-26T10:00:15.728Z</time></trkpt><trkpt lat="42.9356333" lon="2.5060683"><ele>513.0</ele><time>2026-04-26T10:00:16.728Z</time></trkpt><trkpt lat="42.9356133" lon="2.5059217"><ele>511.0</ele><time>2026-04-26T10:00:17.73Z</time></trkpt><trkpt lat="42.9356033" lon="2.5057717"><ele>508.99999999999994</ele><time>2026-04-26T10:00:18.73Z</time></trkpt><trkpt lat="42.9356" lon="2.505615"><ele>506.99999999999994</ele><time>2026-04-26T10:00:19.73Z</time></trkpt><trkpt lat="42.9356183" lon="2.50546"><ele>505.0</ele><time>2026-04-26T10:00:20.73Z</time></trkpt><trkpt lat="42.935655" lon="2.50532"><ele>503.0</ele><time>2026-04-26T10:00:21.73Z</time></trkpt><trkpt lat="42.9356817" lon="2.5051783"><ele>502.79999999999995</ele><time>2026-04-26T10:00:22.728Z</time></trkpt><trkpt lat="42.9357067" lon="2.5050433"><ele>502.59999999999997</ele><time>2026-04-26T10:00:23.731Z</time></trkpt><trkpt lat="42.93571" lon="2.5049133"><ele>502.40000000000003</ele><time>2026-04-26T10:00:24.73Z</time></trkpt><trkpt lat="42.9356933" lon="2.5047783"><ele>502.20000000000005</ele><time>2026-04-26T10:00:25.73Z</time></trkpt><trkpt lat="42.9356683" lon="2.5046617"><ele>502.0</ele><time>2026-04-26T10:00:26.729Z</time></trkpt><trkpt lat="42.93564" lon="2.504555"><ele>502.00000000000006</ele><time>2026-04-26T10:00:27.731Z</time></trkpt><trkpt lat="42.9356183" lon="2.5044533"><ele>502.0</ele><time>2026-04-26T10:00:28.728Z</time></trkpt><trkpt lat="42.9356183" lon="2.5043533"><ele>502.0</ele><time>2026-04-26T10:00:29.728Z</time></trkpt><trkpt lat="42.9356883" lon="2.5042267"><ele>502.0</ele><time>2026-04-26T10:00:31.728Z</time></trkpt><trkpt lat="42.935765" lon="2.5042017"><ele>502.00000000000006</ele><time>2026-04-26T10:00:32.73Z</time></trkpt><trkpt lat="42.9358633" lon="2.504205"><ele>502.0</ele><time>2026-04-26T10:00:33.729Z</time></trkpt><trkpt lat="42.9359833" lon="2.504225"><ele>499.25</ele><time>2026-04-26T10:00:34.73Z</time></trkpt><trkpt lat="42.9361083" lon="2.5042283"><ele>496.5</ele><time>2026-04-26T10:00:35.73Z</time></trkpt><trkpt lat="42.936225" lon="2.504245"><ele>493.75</ele><time>2026-04-26T10:00:36.729Z</time></trkpt><trkpt lat="42.9363433" lon="2.5042467"><ele>491.0</ele><time>2026-04-26T10:00:37.729Z</time></trkpt><trkpt lat="42.9364567" lon="2.50423"><ele>491.0</ele><time>2026-04-26T10:00:38.729Z</time></trkpt><trkpt lat="42.9365717" lon="2.5041967"><ele>491.0</ele><time>2026-04-26T10:00:39.729Z</time></trkpt><trkpt lat="42.936685" lon="2.5041683"><ele>491.0</ele><time>2026-04-26T10:00:40.728Z</time></trkpt><trkpt lat="42.9367967" lon="2.504135"><ele>491.0</ele><time>2026-04-26T10:00:41.73Z</time></trkpt><trkpt lat="42.9369033" lon="2.5040917"><ele>487.0</ele><time>2026-04-26T10:00:42.728Z</time></trkpt><trkpt lat="42.93701" lon="2.5040317"><ele>483.0</ele><time>2026-04-26T10:00:43.728Z</time></trkpt><trkpt lat="42.9371033" lon="2.5039733"><ele>479.0</ele><time>2026-04-26T10:00:44.729Z</time></trkpt><trkpt lat="42.9371917" lon="2.50391"><ele>475.0</ele><time>2026-04-26T10:00:45.73Z</time></trkpt><trkpt lat="42.9372867" lon="2.50387"><ele>471.0</ele><time>2026-04-26T10:00:46.728Z</time></trkpt><trkpt lat="42.937385" lon="2.5038067"><ele>467.0</ele><time>2026-04-26T10:00:47.727Z</time></trkpt><trkpt lat="42.9374833" lon="2.5037333"><ele>463.0</ele><time>2026-04-26T10:00:48.728Z</time></trkpt><trkpt lat="42.937575" lon="2.5036333"><ele>459.0</ele><time>2026-04-26T10:00:49.73Z</time></trkpt><trkpt lat="42.937655" lon="2.503515"><ele>455.0</ele><time>2026-04-26T10:00:50.731Z</time></trkpt><trkpt lat="42.9377267" lon="2.5033883"><ele>455.0</ele><time>2026-04-26T10:00:51.729Z</time></trkpt><trkpt lat="42.9377933" lon="2.50326"><ele>455.0</ele><time>2026-04-26T10:00:52.728Z</time></trkpt><trkpt lat="42.9378517" lon="2.5031317"><ele>455.0</ele><time>2026-04-26T10:00:53.728Z</time></trkpt><trkpt lat="42.9379083" lon="2.5030017"><ele>455.0</ele><time>2026-04-26T10:00:54.728Z</time></trkpt><trkpt lat="42.9379617" lon="2.5028517"><ele>455.75</ele><time>2026-04-26T10:00:55.729Z</time></trkpt><trkpt lat="42.937975" lon="2.5026917"><ele>456.5</ele><time>2026-04-26T10:00:56.728Z</time></trkpt><trkpt lat="42.937975" lon="2.50254"><ele>457.25</ele><time>2026-04-26T10:00:57.729Z</time></trkpt><trkpt lat="42.937985" lon="2.5023717"><ele>458.0</ele><time>2026-04-26T10:00:58.729Z</time></trkpt><trkpt lat="42.9379983" lon="2.5022033"><ele>458.5</ele><time>2026-04-26T10:00:59.728Z</time></trkpt><trkpt lat="42.9380217" lon="2.502035"><ele>459.0</ele><time>2026-04-26T10:01:00.729Z</time></trkpt><trkpt lat="42.938045" lon="2.5018667"><ele>459.5</ele><time>2026-04-26T10:01:01.729Z</time></trkpt><trkpt lat="42.93806" lon="2.5017017"><ele>460.0</ele><time>2026-04-26T10:01:02.729Z</time></trkpt><trkpt lat="42.9380733" lon="2.501545"><ele>460.0</ele><time>2026-04-26T10:01:03.729Z</time></trkpt><trkpt lat="42.93807" lon="2.5013783"><ele>460.0</ele><time>2026-04-26T10:01:04.73Z</time></trkpt><trkpt lat="42.938065" lon="2.5012033"><ele>460.0</ele><time>2026-04-26T10:01:05.729Z</time></trkpt><trkpt lat="42.9380533" lon="2.5010417"><ele>460.0</ele><time>2026-04-26T10:01:06.729Z</time></trkpt><trkpt lat="42.9380433" lon="2.5008867"><ele>459.75</ele><time>2026-04-26T10:01:07.728Z</time></trkpt><trkpt lat="42.938035" lon="2.5007283"><ele>459.5</ele><time>2026-04-26T10:01:08.728Z</time></trkpt><trkpt lat="42.93805" lon="2.5005733"><ele>459.25</ele><time>2026-04-26T10:01:09.727Z</time></trkpt><trkpt lat="42.9380783" lon="2.5004183"><ele>459.0</ele><time>2026-04-26T10:01:10.729Z</time></trkpt><trkpt lat="42.9381233" lon="2.5002733"><ele>458.2</ele><time>2026-04-26T10:01:11.728Z</time></trkpt><trkpt lat="42.9381733" lon="2.5001467"><ele>457.4</ele><time>2026-04-26T10:01:12.728Z</time></trkpt><trkpt lat="42.9382283" lon="2.500025"><ele>456.6</ele><time>2026-04-26T10:01:13.729Z</time></trkpt><trkpt lat="42.9382783" lon="2.4999017"><ele>455.8</ele><time>2026-04-26T10:01:14.73Z</time></trkpt><trkpt lat="42.93829" lon="2.4997883"><ele>455.0</ele><time>2026-04-26T10:01:15.729Z</time></trkpt><trkpt lat="42.9382767" lon="2.4996817"><ele>452.8</ele><time>2026-04-26T10:01:16.728Z</time></trkpt><trkpt lat="42.9382617" lon="2.4995783"><ele>450.6</ele><time>2026-04-26T10:01:17.728Z</time></trkpt><trkpt lat="42.9382033" lon="2.4994883"><ele>448.4</ele><time>2026-04-26T10:01:18.73Z</time></trkpt><trkpt lat="42.9381133" lon="2.4994233"><ele>446.2</ele><time>2026-04-26T10:01:19.728Z</time></trkpt><trkpt lat="42.9380183" lon="2.4993683"><ele>444.0</ele><time>2026-04-26T10:01:20.728Z</time></trkpt><trkpt lat="42.937935" lon="2.499295"><ele>444.0</ele><time>2026-04-26T10:01:21.729Z</time></trkpt><trkpt lat="42.93787" lon="2.4992483"><ele>444.0</ele><time>2026-04-26T10:01:22.731Z</time></trkpt><trkpt lat="42.9378083" lon="2.49922"><ele>444.0</ele><time>2026-04-26T10:01:23.729Z</time></trkpt><trkpt lat="42.9377133" lon="2.4991867"><ele>444.0</ele><time>2026-04-26T10:01:25.729Z</time></trkpt><trkpt lat="42.9377667" lon="2.4991017"><ele>444.0</ele><time>2026-04-26T10:01:29.729Z</time></trkpt><trkpt lat="42.9378417" lon="2.4991083"><ele>444.0</ele><time>2026-04-26T10:01:30.729Z</time></trkpt><trkpt lat="42.9379183" lon="2.4991267"><ele>444.0</ele><time>2026-04-26T10:01:31.731Z</time></trkpt><trkpt lat="42.9379933" lon="2.49915"><ele>444.0</ele><time>2026-04-26T10:01:32.729Z</time></trkpt><trkpt lat="42.9380767" lon="2.4991633"><ele>444.0</ele><time>2026-04-26T10:01:33.728Z</time></trkpt><trkpt lat="42.9381517" lon="2.4991867"><ele>444.0</ele><time>2026-04-26T10:01:34.729Z</time></trkpt><trkpt lat="42.93822" lon="2.4991933"><ele>444.0</ele><time>2026-04-26T10:01:35.732Z</time></trkpt><trkpt lat="42.9382783" lon="2.49914"><ele>444.0</ele><time>2026-04-26T10:01:37.728Z</time></trkpt><trkpt lat="42.9382617" lon="2.4990167"><ele>444.0</ele><time>2026-04-26T10:01:39.73Z</time></trkpt><trkpt lat="42.9382067" lon="2.4989567"><ele>444.0</ele><time>2026-04-26T10:01:40.73Z</time></trkpt><trkpt lat="42.93814" lon="2.4989083"><ele>444.0</ele><time>2026-04-26T10:01:41.73Z</time></trkpt><trkpt lat="42.9380617" lon="2.4988783"><ele>444.0</ele><time>2026-04-26T10:01:42.729Z</time></trkpt><trkpt lat="42.9379733" lon="2.4988817"><ele>444.0</ele><time>2026-04-26T10:01:43.729Z</time></trkpt><trkpt lat="42.9379017" lon="2.4988817"><ele>444.0</ele><time>2026-04-26T10:01:44.73Z</time></trkpt><trkpt lat="42.9378383" lon="2.4988833"><ele>444.0</ele><time>2026-04-26T10:01:45.73Z</time></trkpt><trkpt lat="42.9377533" lon="2.498855"><ele>444.0</ele><time>2026-04-26T10:01:47.728Z</time></trkpt><trkpt lat="42.9377917" lon="2.4987467"><ele>444.0</ele><time>2026-04-26T10:01:50.729Z</time></trkpt><trkpt lat="42.9379083" lon="2.498705"><ele>444.0</ele><time>2026-04-26T10:01:52.727Z</time></trkpt><trkpt lat="42.9380083" lon="2.49869"><ele>444.0</ele><time>2026-04-26T10:01:53.729Z</time></trkpt><trkpt lat="42.9381033" lon="2.4986633"><ele>443.2</ele><time>2026-04-26T10:01:54.728Z</time></trkpt><trkpt lat="42.9381967" lon="2.4986267"><ele>442.4</ele><time>2026-04-26T10:01:55.728Z</time></trkpt><trkpt lat="42.9383217" lon="2.4985783"><ele>441.6</ele><time>2026-04-26T10:01:56.73Z</time></trkpt><trkpt lat="42.9384117" lon="2.4985317"><ele>440.8</ele><time>2026-04-26T10:01:57.727Z</time></trkpt><trkpt lat="42.9384967" lon="2.49849"><ele>440.0</ele><time>2026-04-26T10:01:58.728Z</time></trkpt><trkpt lat="42.9385617" lon="2.498435"><ele>438.49999999999994</ele><time>2026-04-26T10:01:59.729Z</time></trkpt><trkpt lat="42.9386133" lon="2.4983617"><ele>437.0</ele><time>2026-04-26T10:02:00.728Z</time></trkpt><trkpt lat="42.93863" lon="2.498215"><ele>435.5</ele><time>2026-04-26T10:02:02.729Z</time></trkpt><trkpt lat="42.938575" lon="2.4981483"><ele>434.0</ele><time>2026-04-26T10:02:03.73Z</time></trkpt><trkpt lat="42.9385017" lon="2.4980833"><ele>432.49999999999994</ele><time>2026-04-26T10:02:04.728Z</time></trkpt><trkpt lat="42.9384567" lon="2.4980033"><ele>431.0</ele><time>2026-04-26T10:02:05.729Z</time></trkpt><trkpt lat="42.9384367" lon="2.4979133"><ele>430.20000000000005</ele><time>2026-04-26T10:02:06.728Z</time></trkpt><trkpt lat="42.9384333" lon="2.497825"><ele>429.40000000000003</ele><time>2026-04-26T10:02:07.73Z</time></trkpt><trkpt lat="42.9384983" lon="2.4976867"><ele>428.6</ele><time>2026-04-26T10:02:09.728Z</time></trkpt><trkpt lat="42.938575" lon="2.4976017"><ele>427.8</ele><time>2026-04-26T10:02:10.728Z</time></trkpt><trkpt lat="42.938665" lon="2.4975217"><ele>427.0</ele><time>2026-04-26T10:02:11.729Z</time></trkpt><trkpt lat="42.9387483" lon="2.4974367"><ele>427.0</ele><time>2026-04-26T10:02:12.728Z</time></trkpt><trkpt lat="42.9388217" lon="2.4973433"><ele>427.00000000000006</ele><time>2026-04-26T10:02:13.728Z</time></trkpt><trkpt lat="42.9389017" lon="2.49726"><ele>427.00000000000006</ele><time>2026-04-26T10:02:14.729Z</time></trkpt><trkpt lat="42.9389967" lon="2.4971883"><ele>427.0</ele><time>2026-04-26T10:02:15.729Z</time></trkpt><trkpt lat="42.939105" lon="2.497145"><ele>427.0</ele><time>2026-04-26T10:02:16.728Z</time></trkpt><trkpt lat="42.9392133" lon="2.4971233"><ele>425.6</ele><time>2026-04-26T10:02:17.729Z</time></trkpt><trkpt lat="42.939315" lon="2.4971033"><ele>424.20000000000005</ele><time>2026-04-26T10:02:18.727Z</time></trkpt><trkpt lat="42.9394017" lon="2.4970983"><ele>422.8</ele><time>2026-04-26T10:02:19.729Z</time></trkpt><trkpt lat="42.939495" lon="2.4970583"><ele>421.4</ele><time>2026-04-26T10:02:20.73Z</time></trkpt><trkpt lat="42.9395833" lon="2.497"><ele>420.0</ele><time>2026-04-26T10:02:21.728Z</time></trkpt><trkpt lat="42.9396683" lon="2.4969233"><ele>420.0</ele><time>2026-04-26T10:02:22.728Z</time></trkpt><trkpt lat="42.9397633" lon="2.4968317"><ele>420.0</ele><time>2026-04-26T10:02:23.729Z</time></trkpt><trkpt lat="42.9398567" lon="2.4967283"><ele>420.0</ele><time>2026-04-26T10:02:24.729Z</time></trkpt><trkpt lat="42.939945" lon="2.4966117"><ele>420.0</ele><time>2026-04-26T10:02:25.728Z</time></trkpt><trkpt lat="42.9400333" lon="2.496485"><ele>419.25</ele><time>2026-04-26T10:02:26.73Z</time></trkpt><trkpt lat="42.9401217" lon="2.4963617"><ele>418.5</ele><time>2026-04-26T10:02:27.731Z</time></trkpt><trkpt lat="42.9402117" lon="2.4962433"><ele>417.75</ele><time>2026-04-26T10:02:28.728Z</time></trkpt><trkpt lat="42.9402983" lon="2.4961217"><ele>417.0</ele><time>2026-04-26T10:02:29.729Z</time></trkpt><trkpt lat="42.9403683" lon="2.4959867"><ele>415.25</ele><time>2026-04-26T10:02:30.731Z</time></trkpt><trkpt lat="42.9404367" lon="2.495855"><ele>413.5</ele><time>2026-04-26T10:02:31.73Z</time></trkpt><trkpt lat="42.9404967" lon="2.4957183"><ele>411.75</ele><time>2026-04-26T10:02:32.729Z</time></trkpt><trkpt lat="42.9405583" lon="2.495565"><ele>410.0</ele><time>2026-04-26T10:02:33.728Z</time></trkpt><trkpt lat="42.940625" lon="2.4954117"><ele>408.6</ele><time>2026-04-26T10:02:34.73Z</time></trkpt><trkpt lat="42.9406917" lon="2.4952667"><ele>407.2</ele><time>2026-04-26T10:02:35.73Z</time></trkpt><trkpt lat="42.9407533" lon="2.4951283"><ele>405.79999999999995</ele><time>2026-04-26T10:02:36.729Z</time></trkpt><trkpt lat="42.940805" lon="2.4950083"><ele>404.4</ele><time>2026-04-26T10:02:37.729Z</time></trkpt><trkpt lat="42.9408467" lon="2.4949133"><ele>403.0</ele><time>2026-04-26T10:02:38.729Z</time></trkpt><trkpt lat="42.9408833" lon="2.49484"><ele>404.2</ele><time>2026-04-26T10:02:39.731Z</time></trkpt><trkpt lat="42.9409533" lon="2.4947717"><ele>405.4</ele><time>2026-04-26T10:02:42.732Z</time></trkpt><trkpt lat="42.941045" lon="2.4947833"><ele>406.59999999999997</ele><time>2026-04-26T10:02:44.729Z</time></trkpt><trkpt lat="42.9411641" lon="2.4947286"><ele>407.79999999999995</ele><time>2026-04-26T10:02:46.732Z</time></trkpt><trkpt lat="42.9412401" lon="2.4946978"><ele>409.0</ele><time>2026-04-26T10:02:49.809Z</time></trkpt><trkpt lat="42.9413945" lon="2.4944878"><ele>409.0</ele><time>2026-04-26T10:02:50.81Z</time></trkpt><trkpt lat="42.9415112" lon="2.4942637"><ele>409.0</ele><time>2026-04-26T10:02:51.731Z</time></trkpt><trkpt lat="42.9416186" lon="2.4941055"><ele>409.0</ele><time>2026-04-26T10:02:52.728Z</time></trkpt><trkpt lat="42.9417241" lon="2.4939639"><ele>408.75</ele><time>2026-04-26T10:02:53.73Z</time></trkpt><trkpt lat="42.9418267" lon="2.4938298"><ele>408.5</ele><time>2026-04-26T10:02:54.728Z</time></trkpt><trkpt lat="42.9419215" lon="2.493706"><ele>408.25</ele><time>2026-04-26T10:02:55.731Z</time></trkpt><trkpt lat="42.9420021" lon="2.4935776"><ele>408.0</ele><time>2026-04-26T10:02:56.729Z</time></trkpt><trkpt lat="42.9420778" lon="2.4934369"><ele>408.0</ele><time>2026-04-26T10:02:57.732Z</time></trkpt><trkpt lat="42.9421641" lon="2.4933075"><ele>408.0</ele><time>2026-04-26T10:02:58.729Z</time></trkpt><trkpt lat="42.9422698" lon="2.4932041"><ele>408.0</ele><time>2026-04-26T10:02:59.731Z</time></trkpt><trkpt lat="42.9423837" lon="2.4931196"><ele>408.0</ele><time>2026-04-26T10:03:00.728Z</time></trkpt><trkpt lat="42.9425002" lon="2.4930428"><ele>405.75</ele><time>2026-04-26T10:03:01.73Z</time></trkpt><trkpt lat="42.9426127" lon="2.4929698"><ele>403.5</ele><time>2026-04-26T10:03:02.729Z</time></trkpt><trkpt lat="42.9427149" lon="2.492885"><ele>401.25</ele><time>2026-04-26T10:03:03.729Z</time></trkpt><trkpt lat="42.9428071" lon="2.4927798"><ele>399.0</ele><time>2026-04-26T10:03:04.729Z</time></trkpt><trkpt lat="42.9429013" lon="2.4926731"><ele>399.0</ele><time>2026-04-26T10:03:05.729Z</time></trkpt><trkpt lat="42.9430039" lon="2.4925727"><ele>399.0</ele><time>2026-04-26T10:03:06.728Z</time></trkpt><trkpt lat="42.9431154" lon="2.4924899"><ele>399.0</ele><time>2026-04-26T10:03:07.729Z</time></trkpt><trkpt lat="42.9432191" lon="2.4924074"><ele>399.0</ele><time>2026-04-26T10:03:08.73Z</time></trkpt><trkpt lat="42.943315" lon="2.4923217"><ele>398.2</ele><time>2026-04-26T10:03:09.73Z</time></trkpt><trkpt lat="42.9434117" lon="2.4922533"><ele>397.4</ele><time>2026-04-26T10:03:10.728Z</time></trkpt><trkpt lat="42.9435083" lon="2.4922233"><ele>396.6</ele><time>2026-04-26T10:03:11.728Z</time></trkpt><trkpt lat="42.9436117" lon="2.4922433"><ele>395.8</ele><time>2026-04-26T10:03:12.728Z</time></trkpt><trkpt lat="42.9437133" lon="2.4923217"><ele>395.0</ele><time>2026-04-26T10:03:13.729Z</time></trkpt><trkpt lat="42.9438267" lon="2.4924517"><ele>395.0</ele><time>2026-04-26T10:03:14.728Z</time></trkpt><trkpt lat="42.94394" lon="2.49255"><ele>395.0</ele><time>2026-04-26T10:03:15.728Z</time></trkpt><trkpt lat="42.94406" lon="2.4926383"><ele>395.0</ele><time>2026-04-26T10:03:16.727Z</time></trkpt><trkpt lat="42.9441883" lon="2.492705"><ele>395.0</ele><time>2026-04-26T10:03:17.728Z</time></trkpt><trkpt lat="42.94432" lon="2.4927667"><ele>395.0</ele><time>2026-04-26T10:03:18.728Z</time></trkpt><trkpt lat="42.9444533" lon="2.4928417"><ele>395.0</ele><time>2026-04-26T10:03:19.729Z</time></trkpt><trkpt lat="42.9445817" lon="2.492925"><ele>395.0</ele><time>2026-04-26T10:03:20.729Z</time></trkpt><trkpt lat="42.9446933" lon="2.4930233"><ele>395.0</ele><time>2026-04-26T10:03:21.729Z</time></trkpt><trkpt lat="42.9448083" lon="2.49312"><ele>394.0</ele><time>2026-04-26T10:03:22.728Z</time></trkpt><trkpt lat="42.9449267" lon="2.4931983"><ele>393.0</ele><time>2026-04-26T10:03:23.728Z</time></trkpt><trkpt lat="42.9450417" lon="2.4932667"><ele>392.0</ele><time>2026-04-26T10:03:24.729Z</time></trkpt><trkpt lat="42.945155" lon="2.4933483"><ele>391.0</ele><time>2026-04-26T10:03:25.728Z</time></trkpt><trkpt lat="42.9452633" lon="2.4934567"><ele>391.0</ele><time>2026-04-26T10:03:26.73Z</time></trkpt><trkpt lat="42.9453667" lon="2.493595"><ele>391.0</ele><time>2026-04-26T10:03:27.729Z</time></trkpt><trkpt lat="42.94546" lon="2.4937533"><ele>391.0</ele><time>2026-04-26T10:03:28.727Z</time></trkpt><trkpt lat="42.945555" lon="2.4939133"><ele>391.0</ele><time>2026-04-26T10:03:29.729Z</time></trkpt><trkpt lat="42.9456483" lon="2.4940783"><ele>391.33333333333337</ele><time>2026-04-26T10:03:30.728Z</time></trkpt><trkpt lat="42.9457633" lon="2.4942433"><ele>391.66666666666663</ele><time>2026-04-26T10:03:31.73Z</time></trkpt><trkpt lat="42.945895" lon="2.4943767"><ele>392.0</ele><time>2026-04-26T10:03:32.73Z</time></trkpt><trkpt lat="42.9460283" lon="2.4944967"><ele>391.0</ele><time>2026-04-26T10:03:33.732Z</time></trkpt><trkpt lat="42.94614" lon="2.4946167"><ele>390.0</ele><time>2026-04-26T10:03:34.73Z</time></trkpt><trkpt lat="42.9462367" lon="2.4947683"><ele>389.0</ele><time>2026-04-26T10:03:35.73Z</time></trkpt><trkpt lat="42.9463217" lon="2.4949417"><ele>388.0</ele><time>2026-04-26T10:03:36.729Z</time></trkpt><trkpt lat="42.9463983" lon="2.4951217"><ele>388.0</ele><time>2026-04-26T10:03:37.73Z</time></trkpt><trkpt lat="42.9464717" lon="2.495305"><ele>388.0</ele><time>2026-04-26T10:03:38.731Z</time></trkpt><trkpt lat="42.9465267" lon="2.4954917"><ele>388.0</ele><time>2026-04-26T10:03:39.73Z</time></trkpt><trkpt lat="42.9465583" lon="2.4956967"><ele>388.0</ele><time>2026-04-26T10:03:40.728Z</time></trkpt><trkpt lat="42.94658" lon="2.4959083"><ele>388.0</ele><time>2026-04-26T10:03:41.729Z</time></trkpt><trkpt lat="42.946595" lon="2.4961267"><ele>388.0</ele><time>2026-04-26T10:03:42.731Z</time></trkpt><trkpt lat="42.9466033" lon="2.4963483"><ele>388.6666666666667</ele><time>2026-04-26T10:03:43.733Z</time></trkpt><trkpt lat="42.9466083" lon="2.4965667"><ele>389.33333333333337</ele><time>2026-04-26T10:03:44.728Z</time></trkpt><trkpt lat="42.94661" lon="2.49678"><ele>390.0</ele><time>2026-04-26T10:03:45.729Z</time></trkpt><trkpt lat="42.946615" lon="2.4969833"><ele>392.75</ele><time>2026-04-26T10:03:46.728Z</time></trkpt><trkpt lat="42.94661" lon="2.497175"><ele>395.5</ele><time>2026-04-26T10:03:47.728Z</time></trkpt><trkpt lat="42.946615" lon="2.4973567"><ele>398.25</ele><time>2026-04-26T10:03:48.728Z</time></trkpt><trkpt lat="42.9466383" lon="2.4975217"><ele>401.0</ele><time>2026-04-26T10:03:49.727Z</time></trkpt><trkpt lat="42.94669" lon="2.4976667"><ele>398.5</ele><time>2026-04-26T10:03:50.728Z</time></trkpt><trkpt lat="42.9467717" lon="2.4977833"><ele>396.0</ele><time>2026-04-26T10:03:51.729Z</time></trkpt><trkpt lat="42.946875" lon="2.4978433"><ele>393.5</ele><time>2026-04-26T10:03:52.729Z</time></trkpt><trkpt lat="42.9469917" lon="2.497845"><ele>391.0</ele><time>2026-04-26T10:03:53.728Z</time></trkpt><trkpt lat="42.9471133" lon="2.49778"><ele>391.0</ele><time>2026-04-26T10:03:54.729Z</time></trkpt><trkpt lat="42.9472233" lon="2.4977"><ele>391.0</ele><time>2026-04-26T10:03:55.73Z</time></trkpt><trkpt lat="42.947315" lon="2.4976417"><ele>391.0</ele><time>2026-04-26T10:03:56.728Z</time></trkpt><trkpt lat="42.9474117" lon="2.4976283"><ele>391.0</ele><time>2026-04-26T10:03:57.728Z</time></trkpt><trkpt lat="42.9475017" lon="2.4976367"><ele>391.0</ele><time>2026-04-26T10:03:58.728Z</time></trkpt><trkpt lat="42.9475817" lon="2.4976867"><ele>390.5</ele><time>2026-04-26T10:03:59.728Z</time></trkpt><trkpt lat="42.9476567" lon="2.4977333"><ele>390.0</ele><time>2026-04-26T10:04:00.728Z</time></trkpt><trkpt lat="42.94773" lon="2.4978533"><ele>389.5</ele><time>2026-04-26T10:04:01.729Z</time></trkpt><trkpt lat="42.947825" lon="2.4979733"><ele>389.0</ele><time>2026-04-26T10:04:02.729Z</time></trkpt><trkpt lat="42.947945" lon="2.4980733"><ele>389.0</ele><time>2026-04-26T10:04:03.729Z</time></trkpt><trkpt lat="42.9480733" lon="2.498135"><ele>389.0</ele><time>2026-04-26T10:04:04.728Z</time></trkpt><trkpt lat="42.9482033" lon="2.4981717"><ele>389.0</ele><time>2026-04-26T10:04:05.73Z</time></trkpt><trkpt lat="42.9483233" lon="2.4981817"><ele>389.0</ele><time>2026-04-26T10:04:06.728Z</time></trkpt><trkpt lat="42.9484317" lon="2.49815"><ele>390.25</ele><time>2026-04-26T10:04:07.73Z</time></trkpt><trkpt lat="42.9485367" lon="2.4980683"><ele>391.5</ele><time>2026-04-26T10:04:08.729Z</time></trkpt><trkpt lat="42.9486267" lon="2.4979517"><ele>392.75</ele><time>2026-04-26T10:04:09.732Z</time></trkpt><trkpt lat="42.9487033" lon="2.4978033"><ele>394.0</ele><time>2026-04-26T10:04:10.728Z</time></trkpt><trkpt lat="42.94878" lon="2.4976567"><ele>394.0</ele><time>2026-04-26T10:04:11.729Z</time></trkpt><trkpt lat="42.948875" lon="2.4975267"><ele>394.0</ele><time>2026-04-26T10:04:12.729Z</time></trkpt><trkpt lat="42.9489933" lon="2.4974317"><ele>394.0</ele><time>2026-04-26T10:04:13.73Z</time></trkpt><trkpt lat="42.9491283" lon="2.4973683"><ele>394.0</ele><time>2026-04-26T10:04:14.731Z</time></trkpt><trkpt lat="42.9492717" lon="2.49734"><ele>392.6666666666667</ele><time>2026-04-26T10:04:15.729Z</time></trkpt><trkpt lat="42.9494217" lon="2.49734"><ele>391.33333333333337</ele><time>2026-04-26T10:04:16.731Z</time></trkpt><trkpt lat="42.9495733" lon="2.4973517"><ele>390.0</ele><time>2026-04-26T10:04:17.73Z</time></trkpt><trkpt lat="42.9497333" lon="2.4973533"><ele>390.0</ele><time>2026-04-26T10:04:18.731Z</time></trkpt><trkpt lat="42.9498883" lon="2.49733"><ele>390.0</ele><time>2026-04-26T10:04:19.732Z</time></trkpt><trkpt lat="42.9500483" lon="2.497295"><ele>390.0</ele><time>2026-04-26T10:04:20.728Z</time></trkpt><trkpt lat="42.9502017" lon="2.49726"><ele>389.25</ele><time>2026-04-26T10:04:21.73Z</time></trkpt><trkpt lat="42.95035" lon="2.497255"><ele>388.5</ele><time>2026-04-26T10:04:22.729Z</time></trkpt><trkpt lat="42.9504967" lon="2.4972533"><ele>387.75</ele><time>2026-04-26T10:04:23.729Z</time></trkpt><trkpt lat="42.9506417" lon="2.4972383"><ele>387.0</ele><time>2026-04-26T10:04:24.728Z</time></trkpt><trkpt lat="42.9507883" lon="2.4971983"><ele>387.75</ele><time>2026-04-26T10:04:25.73Z</time></trkpt><trkpt lat="42.9509133" lon="2.4971133"><ele>388.5</ele><time>2026-04-26T10:04:26.73Z</time></trkpt><trkpt lat="42.95103" lon="2.4970067"><ele>389.25</ele><time>2026-04-26T10:04:27.728Z</time></trkpt><trkpt lat="42.9511367" lon="2.4968867"><ele>390.0</ele><time>2026-04-26T10:04:28.729Z</time></trkpt><trkpt lat="42.9512417" lon="2.4967683"><ele>390.0</ele><time>2026-04-26T10:04:29.73Z</time></trkpt><trkpt lat="42.95135" lon="2.4966583"><ele>390.0</ele><time>2026-04-26T10:04:30.729Z</time></trkpt><trkpt lat="42.9514583" lon="2.496565"><ele>390.0</ele><time>2026-04-26T10:04:31.73Z</time></trkpt><trkpt lat="42.9515733" lon="2.4965117"><ele>390.0</ele><time>2026-04-26T10:04:32.729Z</time></trkpt><trkpt lat="42.9516933" lon="2.4965017"><ele>388.75</ele><time>2026-04-26T10:04:33.729Z</time></trkpt><trkpt lat="42.9518233" lon="2.49654"><ele>387.5</ele><time>2026-04-26T10:04:34.728Z</time></trkpt><trkpt lat="42.95196" lon="2.4965783"><ele>386.25</ele><time>2026-04-26T10:04:35.731Z</time></trkpt><trkpt lat="42.952105" lon="2.49659"><ele>385.0</ele><time>2026-04-26T10:04:36.728Z</time></trkpt><trkpt lat="42.95224" lon="2.4965733"><ele>385.0</ele><time>2026-04-26T10:04:37.729Z</time></trkpt><trkpt lat="42.9523783" lon="2.496565"><ele>385.0</ele><time>2026-04-26T10:04:38.73Z</time></trkpt><trkpt lat="42.952515" lon="2.4965667"><ele>385.0</ele><time>2026-04-26T10:04:39.731Z</time></trkpt><trkpt lat="42.9526483" lon="2.4966"><ele>385.0</ele><time>2026-04-26T10:04:40.728Z</time></trkpt><trkpt lat="42.9527717" lon="2.49668"><ele>383.25</ele><time>2026-04-26T10:04:41.73Z</time></trkpt><trkpt lat="42.9528817" lon="2.496795"><ele>381.5</ele><time>2026-04-26T10:04:42.734Z</time></trkpt><trkpt lat="42.9529883" lon="2.4969283"><ele>379.75</ele><time>2026-04-26T10:04:43.728Z</time></trkpt><trkpt lat="42.953085" lon="2.4970783"><ele>378.0</ele><time>2026-04-26T10:04:44.729Z</time></trkpt><trkpt lat="42.9531933" lon="2.4972233"><ele>378.0</ele><time>2026-04-26T10:04:45.728Z</time></trkpt><trkpt lat="42.95331" lon="2.4973333"><ele>378.0</ele><time>2026-04-26T10:04:46.728Z</time></trkpt><trkpt lat="42.9534433" lon="2.49743"><ele>378.0</ele><time>2026-04-26T10:04:47.73Z</time></trkpt><trkpt lat="42.9535767" lon="2.4975117"><ele>378.0</ele><time>2026-04-26T10:04:48.729Z</time></trkpt><trkpt lat="42.9537083" lon="2.4975733"><ele>376.75</ele><time>2026-04-26T10:04:49.73Z</time></trkpt><trkpt lat="42.9538367" lon="2.49763"><ele>375.5</ele><time>2026-04-26T10:04:50.728Z</time></trkpt><trkpt lat="42.953975" lon="2.4976683"><ele>374.25</ele><time>2026-04-26T10:04:51.728Z</time></trkpt><trkpt lat="42.9541033" lon="2.49768"><ele>373.0</ele><time>2026-04-26T10:04:52.728Z</time></trkpt><trkpt lat="42.954215" lon="2.4976533"><ele>372.0</ele><time>2026-04-26T10:04:53.729Z</time></trkpt><trkpt lat="42.9543133" lon="2.497565"><ele>371.0</ele><time>2026-04-26T10:04:54.728Z</time></trkpt><trkpt lat="42.9543617" lon="2.49744"><ele>370.0</ele><time>2026-04-26T10:04:55.73Z</time></trkpt><trkpt lat="42.9543567" lon="2.497275"><ele>369.0</ele><time>2026-04-26T10:04:56.73Z</time></trkpt><trkpt lat="42.9543267" lon="2.4970967"><ele>368.25</ele><time>2026-04-26T10:04:57.73Z</time></trkpt><trkpt lat="42.9542817" lon="2.4969167"><ele>367.5</ele><time>2026-04-26T10:04:58.734Z</time></trkpt><trkpt lat="42.9542333" lon="2.496735"><ele>366.75</ele><time>2026-04-26T10:04:59.732Z</time></trkpt><trkpt lat="42.9541817" lon="2.496555"><ele>366.0</ele><time>2026-04-26T10:05:00.729Z</time></trkpt><trkpt lat="42.9541283" lon="2.4963733"><ele>367.25</ele><time>2026-04-26T10:05:01.73Z</time></trkpt><trkpt lat="42.9540783" lon="2.496195"><ele>368.5</ele><time>2026-04-26T10:05:02.729Z</time></trkpt><trkpt lat="42.9540417" lon="2.4960317"><ele>369.75</ele><time>2026-04-26T10:05:03.728Z</time></trkpt><trkpt lat="42.954015" lon="2.4958683"><ele>371.0</ele><time>2026-04-26T10:05:04.728Z</time></trkpt><trkpt lat="42.954015" lon="2.4957033"><ele>371.0</ele><time>2026-04-26T10:05:05.728Z</time></trkpt><trkpt lat="42.95405" lon="2.495555"><ele>371.0</ele><time>2026-04-26T10:05:06.728Z</time></trkpt><trkpt lat="42.9541083" lon="2.495425"><ele>371.0</ele><time>2026-04-26T10:05:07.728Z</time></trkpt><trkpt lat="42.954195" lon="2.49533"><ele>371.0</ele><time>2026-04-26T10:05:08.728Z</time></trkpt><trkpt lat="42.95431" lon="2.49526"><ele>371.0</ele><time>2026-04-26T10:05:09.729Z</time></trkpt><trkpt lat="42.95444" lon="2.49519"><ele>371.0</ele><time>2026-04-26T10:05:10.729Z</time></trkpt><trkpt lat="42.9545733" lon="2.4951167"><ele>371.0</ele><time>2026-04-26T10:05:11.728Z</time></trkpt><trkpt lat="42.9546983" lon="2.49504"><ele>371.0</ele><time>2026-04-26T10:05:12.73Z</time></trkpt><trkpt lat="42.9548067" lon="2.4949333"><ele>371.0</ele><time>2026-04-26T10:05:13.732Z</time></trkpt><trkpt lat="42.9549" lon="2.4948183"><ele>371.0</ele><time>2026-04-26T10:05:14.73Z</time></trkpt><trkpt lat="42.9549817" lon="2.494715"><ele>371.0</ele><time>2026-04-26T10:05:15.731Z</time></trkpt><trkpt lat="42.9550683" lon="2.4946333"><ele>371.0</ele><time>2026-04-26T10:05:16.729Z</time></trkpt><trkpt lat="42.95516" lon="2.4945867"><ele>371.0</ele><time>2026-04-26T10:05:17.729Z</time></trkpt><trkpt lat="42.9552383" lon="2.4945983"><ele>369.4</ele><time>2026-04-26T10:05:18.731Z</time></trkpt><trkpt lat="42.9553067" lon="2.4946417"><ele>367.8</ele><time>2026-04-26T10:05:19.73Z</time></trkpt><trkpt lat="42.9553683" lon="2.49471"><ele>366.2</ele><time>2026-04-26T10:05:20.731Z</time></trkpt><trkpt lat="42.9554017" lon="2.49483"><ele>364.59999999999997</ele><time>2026-04-26T10:05:21.732Z</time></trkpt><trkpt lat="42.9554183" lon="2.49498"><ele>363.0</ele><time>2026-04-26T10:05:22.731Z</time></trkpt><trkpt lat="42.955435" lon="2.49512"><ele>363.0</ele><time>2026-04-26T10:05:23.73Z</time></trkpt><trkpt lat="42.955455" lon="2.49523"><ele>363.0</ele><time>2026-04-26T10:05:24.733Z</time></trkpt><trkpt lat="42.9554833" lon="2.495325"><ele>363.0</ele><time>2026-04-26T10:05:25.731Z</time></trkpt><trkpt lat="42.9555917" lon="2.4954117"><ele>363.0</ele><time>2026-04-26T10:05:27.73Z</time></trkpt><trkpt lat="42.9556867" lon="2.4954067"><ele>363.0</ele><time>2026-04-26T10:05:28.732Z</time></trkpt><trkpt lat="42.9557933" lon="2.4953683"><ele>362.5</ele><time>2026-04-26T10:05:29.73Z</time></trkpt><trkpt lat="42.9559033" lon="2.4953467"><ele>362.0</ele><time>2026-04-26T10:05:30.729Z</time></trkpt><trkpt lat="42.95602" lon="2.4953317"><ele>361.5</ele><time>2026-04-26T10:05:31.731Z</time></trkpt><trkpt lat="42.9561433" lon="2.49533"><ele>361.0</ele><time>2026-04-26T10:05:32.73Z</time></trkpt><trkpt lat="42.95628" lon="2.495365"><ele>361.0</ele><time>2026-04-26T10:05:33.73Z</time></trkpt><trkpt lat="42.9564117" lon="2.4954017"><ele>361.0</ele><time>2026-04-26T10:05:34.73Z</time></trkpt><trkpt lat="42.9565383" lon="2.4954467"><ele>361.0</ele><time>2026-04-26T10:05:35.732Z</time></trkpt><trkpt lat="42.9566683" lon="2.49547"><ele>361.0</ele><time>2026-04-26T10:05:36.731Z</time></trkpt><trkpt lat="42.9568033" lon="2.4954533"><ele>362.0</ele><time>2026-04-26T10:05:37.732Z</time></trkpt><trkpt lat="42.956945" lon="2.49542"><ele>363.0</ele><time>2026-04-26T10:05:38.73Z</time></trkpt><trkpt lat="42.95708" lon="2.4953533"><ele>364.0</ele><time>2026-04-26T10:05:39.73Z</time></trkpt><trkpt lat="42.9572183" lon="2.495275"><ele>365.0</ele><time>2026-04-26T10:05:40.729Z</time></trkpt><trkpt lat="42.9573467" lon="2.4951933"><ele>365.0</ele><time>2026-04-26T10:05:41.73Z</time></trkpt><trkpt lat="42.9574617" lon="2.49509"><ele>365.0</ele><time>2026-04-26T10:05:42.732Z</time></trkpt><trkpt lat="42.957565" lon="2.4949867"><ele>365.0</ele><time>2026-04-26T10:05:43.731Z</time></trkpt><trkpt lat="42.957665" lon="2.4949117"><ele>365.0</ele><time>2026-04-26T10:05:44.73Z</time></trkpt><trkpt lat="42.9577733" lon="2.4948783"><ele>365.6</ele><time>2026-04-26T10:05:45.73Z</time></trkpt><trkpt lat="42.9578867" lon="2.4948967"><ele>366.2</ele><time>2026-04-26T10:05:46.729Z</time></trkpt><trkpt lat="42.9579917" lon="2.4949367"><ele>366.79999999999995</ele><time>2026-04-26T10:05:47.73Z</time></trkpt><trkpt lat="42.9580917" lon="2.4949633"><ele>367.4</ele><time>2026-04-26T10:05:48.731Z</time></trkpt><trkpt lat="42.95818" lon="2.4949517"><ele>368.0</ele><time>2026-04-26T10:05:49.731Z</time></trkpt><trkpt lat="42.9582617" lon="2.4948817"><ele>368.0</ele><time>2026-04-26T10:05:50.73Z</time></trkpt><trkpt lat="42.9583233" lon="2.4947583"><ele>368.0</ele><time>2026-04-26T10:05:51.729Z</time></trkpt><trkpt lat="42.95835" lon="2.494605"><ele>368.0</ele><time>2026-04-26T10:05:52.729Z</time></trkpt><trkpt lat="42.958335" lon="2.4944533"><ele>368.0</ele><time>2026-04-26T10:05:53.73Z</time></trkpt><trkpt lat="42.9582983" lon="2.4943183"><ele>368.0</ele><time>2026-04-26T10:05:54.731Z</time></trkpt><trkpt lat="42.9582683" lon="2.49419"><ele>367.79999999999995</ele><time>2026-04-26T10:05:55.732Z</time></trkpt><trkpt lat="42.9582617" lon="2.4940617"><ele>367.6</ele><time>2026-04-26T10:05:56.73Z</time></trkpt><trkpt lat="42.95829" lon="2.493935"><ele>367.4</ele><time>2026-04-26T10:05:57.731Z</time></trkpt><trkpt lat="42.958345" lon="2.4938117"><ele>367.20000000000005</ele><time>2026-04-26T10:05:58.731Z</time></trkpt><trkpt lat="42.95842" lon="2.4936933"><ele>367.0</ele><time>2026-04-26T10:05:59.731Z</time></trkpt><trkpt lat="42.9585167" lon="2.4935817"><ele>369.0</ele><time>2026-04-26T10:06:00.729Z</time></trkpt><trkpt lat="42.9586183" lon="2.49346"><ele>371.0</ele><time>2026-04-26T10:06:01.732Z</time></trkpt><trkpt lat="42.9587317" lon="2.4933467"><ele>373.0</ele><time>2026-04-26T10:06:02.73Z</time></trkpt><trkpt lat="42.9588533" lon="2.49324"><ele>375.0</ele><time>2026-04-26T10:06:03.734Z</time></trkpt><trkpt lat="42.9589783" lon="2.4931383"><ele>375.0</ele><time>2026-04-26T10:06:04.73Z</time></trkpt><trkpt lat="42.9591183" lon="2.4930583"><ele>375.0</ele><time>2026-04-26T10:06:05.73Z</time></trkpt><trkpt lat="42.9592633" lon="2.492995"><ele>375.0</ele><time>2026-04-26T10:06:06.729Z</time></trkpt><trkpt lat="42.9594017" lon="2.4929317"><ele>369.75</ele><time>2026-04-26T10:06:07.73Z</time></trkpt><trkpt lat="42.95954" lon="2.4928717"><ele>364.5</ele><time>2026-04-26T10:06:08.73Z</time></trkpt><trkpt lat="42.95968" lon="2.492825"><ele>359.25</ele><time>2026-04-26T10:06:09.73Z</time></trkpt><trkpt lat="42.9598283" lon="2.4928067"><ele>354.0</ele><time>2026-04-26T10:06:10.737Z</time></trkpt><trkpt lat="42.95998" lon="2.492805"><ele>353.6666666666667</ele><time>2026-04-26T10:06:11.729Z</time></trkpt><trkpt lat="42.96014" lon="2.492845"><ele>353.33333333333337</ele><time>2026-04-26T10:06:12.73Z</time></trkpt><trkpt lat="42.9602967" lon="2.4928717"><ele>353.0</ele><time>2026-04-26T10:06:13.734Z</time></trkpt><trkpt lat="42.9604517" lon="2.4928983"><ele>354.75</ele><time>2026-04-26T10:06:14.733Z</time></trkpt><trkpt lat="42.9606033" lon="2.4929283"><ele>356.5</ele><time>2026-04-26T10:06:15.73Z</time></trkpt><trkpt lat="42.9607533" lon="2.4929667"><ele>358.25</ele><time>2026-04-26T10:06:16.73Z</time></trkpt><trkpt lat="42.96089" lon="2.4930217"><ele>360.0</ele><time>2026-04-26T10:06:17.731Z</time></trkpt><trkpt lat="42.9610217" lon="2.4930733"><ele>360.0</ele><time>2026-04-26T10:06:18.729Z</time></trkpt><trkpt lat="42.96115" lon="2.4931217"><ele>360.0</ele><time>2026-04-26T10:06:19.732Z</time></trkpt><trkpt lat="42.9612783" lon="2.4931767"><ele>360.0</ele><time>2026-04-26T10:06:20.73Z</time></trkpt><trkpt lat="42.961405" lon="2.4932333"><ele>360.0</ele><time>2026-04-26T10:06:21.732Z</time></trkpt><trkpt lat="42.96153" lon="2.4932933"><ele>360.0</ele><time>2026-04-26T10:06:22.731Z</time></trkpt><trkpt lat="42.9616467" lon="2.4933617"><ele>360.0</ele><time>2026-04-26T10:06:23.73Z</time></trkpt><trkpt lat="42.9617667" lon="2.4934283"><ele>360.0</ele><time>2026-04-26T10:06:24.731Z</time></trkpt><trkpt lat="42.9618783" lon="2.4935117"><ele>360.0</ele><time>2026-04-26T10:06:25.732Z</time></trkpt><trkpt lat="42.961985" lon="2.493605"><ele>359.0</ele><time>2026-04-26T10:06:26.73Z</time></trkpt><trkpt lat="42.962085" lon="2.493705"><ele>358.0</ele><time>2026-04-26T10:06:27.731Z</time></trkpt><trkpt lat="42.9621817" lon="2.4938083"><ele>357.0</ele><time>2026-04-26T10:06:28.729Z</time></trkpt><trkpt lat="42.962275" lon="2.4939183"><ele>356.0</ele><time>2026-04-26T10:06:29.729Z</time></trkpt><trkpt lat="42.9623683" lon="2.4940367"><ele>356.0</ele><time>2026-04-26T10:06:30.731Z</time></trkpt><trkpt lat="42.962455" lon="2.4941667"><ele>356.0</ele><time>2026-04-26T10:06:31.732Z</time></trkpt><trkpt lat="42.9625317" lon="2.4943083"><ele>356.0</ele><time>2026-04-26T10:06:32.732Z</time></trkpt><trkpt lat="42.9626067" lon="2.4944567"><ele>356.0</ele><time>2026-04-26T10:06:33.73Z</time></trkpt><trkpt lat="42.9626833" lon="2.4946067"><ele>358.25</ele><time>2026-04-26T10:06:34.731Z</time></trkpt><trkpt lat="42.9627583" lon="2.4947617"><ele>360.5</ele><time>2026-04-26T10:06:35.73Z</time></trkpt><trkpt lat="42.9628333" lon="2.494915"><ele>362.75</ele><time>2026-04-26T10:06:36.732Z</time></trkpt><trkpt lat="42.9629017" lon="2.495055"><ele>365.0</ele><time>2026-04-26T10:06:37.73Z</time></trkpt><trkpt lat="42.962965" lon="2.4951867"><ele>365.0</ele><time>2026-04-26T10:06:38.732Z</time></trkpt><trkpt lat="42.9630267" lon="2.49531"><ele>365.0</ele><time>2026-04-26T10:06:39.732Z</time></trkpt><trkpt lat="42.9630967" lon="2.4954033"><ele>365.0</ele><time>2026-04-26T10:06:40.731Z</time></trkpt><trkpt lat="42.9631717" lon="2.49545"><ele>365.0</ele><time>2026-04-26T10:06:41.73Z</time></trkpt><trkpt lat="42.9633033" lon="2.495415"><ele>365.0</ele><time>2026-04-26T10:06:43.73Z</time></trkpt><trkpt lat="42.9633717" lon="2.4953367"><ele>366.2</ele><time>2026-04-26T10:06:44.73Z</time></trkpt><trkpt lat="42.9634133" lon="2.495195"><ele>367.4</ele><time>2026-04-26T10:06:45.731Z</time></trkpt><trkpt lat="42.9634417" lon="2.4950533"><ele>368.6</ele><time>2026-04-26T10:06:46.731Z</time></trkpt><trkpt lat="42.9634483" lon="2.4949133"><ele>369.8</ele><time>2026-04-26T10:06:47.73Z</time></trkpt><trkpt lat="42.9634617" lon="2.49478"><ele>371.0</ele><time>2026-04-26T10:06:48.73Z</time></trkpt><trkpt lat="42.9634733" lon="2.49465"><ele>369.5</ele><time>2026-04-26T10:06:49.731Z</time></trkpt><trkpt lat="42.9635017" lon="2.4945317"><ele>368.0</ele><time>2026-04-26T10:06:50.729Z</time></trkpt><trkpt lat="42.9635417" lon="2.494425"><ele>366.5</ele><time>2026-04-26T10:06:51.731Z</time></trkpt><trkpt lat="42.9635883" lon="2.49434"><ele>365.0</ele><time>2026-04-26T10:06:52.731Z</time></trkpt><trkpt lat="42.9636333" lon="2.494245"><ele>363.5</ele><time>2026-04-26T10:06:53.731Z</time></trkpt><trkpt lat="42.9636917" lon="2.494175"><ele>362.0</ele><time>2026-04-26T10:06:54.73Z</time></trkpt><trkpt lat="42.9637483" lon="2.4941067"><ele>362.0</ele><time>2026-04-26T10:06:55.73Z</time></trkpt><trkpt lat="42.9638033" lon="2.4940417"><ele>362.0</ele><time>2026-04-26T10:06:56.73Z</time></trkpt><trkpt lat="42.96385" lon="2.4939667"><ele>362.0</ele><time>2026-04-26T10:06:57.731Z</time></trkpt><trkpt lat="42.9638933" lon="2.4938867"><ele>362.0</ele><time>2026-04-26T10:06:58.731Z</time></trkpt><trkpt lat="42.96394" lon="2.4937567"><ele>362.0</ele><time>2026-04-26T10:07:00.729Z</time></trkpt><trkpt lat="42.9639033" lon="2.4936633"><ele>362.0</ele><time>2026-04-26T10:07:02.73Z</time></trkpt><trkpt lat="42.963805" lon="2.49363"><ele>359.7142857142857</ele><time>2026-04-26T10:07:04.729Z</time></trkpt><trkpt lat="42.9637417" lon="2.49361"><ele>357.42857142857144</ele><time>2026-04-26T10:07:05.731Z</time></trkpt><trkpt lat="42.9636733" lon="2.4935883"><ele>355.1428571428571</ele><time>2026-04-26T10:07:06.729Z</time></trkpt><trkpt lat="42.9636117" lon="2.4935167"><ele>352.8571428571429</ele><time>2026-04-26T10:07:07.729Z</time></trkpt><trkpt lat="42.9635717" lon="2.4934217"><ele>350.5714285714286</ele><time>2026-04-26T10:07:08.731Z</time></trkpt><trkpt lat="42.9635367" lon="2.4933283"><ele>348.2857142857143</ele><time>2026-04-26T10:07:09.729Z</time></trkpt><trkpt lat="42.9634983" lon="2.4932417"><ele>346.0</ele><time>2026-04-26T10:07:10.729Z</time></trkpt><trkpt lat="42.96346" lon="2.4931683"><ele>346.0</ele><time>2026-04-26T10:07:11.731Z</time></trkpt><trkpt lat="42.963395" lon="2.49314"><ele>346.0</ele><time>2026-04-26T10:07:12.731Z</time></trkpt><trkpt lat="42.963265" lon="2.49318"><ele>346.0</ele><time>2026-04-26T10:07:14.729Z</time></trkpt><trkpt lat="42.9631883" lon="2.4932383"><ele>346.0</ele><time>2026-04-26T10:07:15.731Z</time></trkpt><trkpt lat="42.9631117" lon="2.493275"><ele>346.0</ele><time>2026-04-26T10:07:16.731Z</time></trkpt><trkpt lat="42.9630283" lon="2.493305"><ele>345.8333333333333</ele><time>2026-04-26T10:07:17.73Z</time></trkpt><trkpt lat="42.9629483" lon="2.4933167"><ele>345.66666666666663</ele><time>2026-04-26T10:07:18.731Z</time></trkpt><trkpt lat="42.9628683" lon="2.4933033"><ele>345.5</ele><time>2026-04-26T10:07:19.73Z</time></trkpt><trkpt lat="42.9628" lon="2.4932433"><ele>345.3333333333333</ele><time>2026-04-26T10:07:20.729Z</time></trkpt><trkpt lat="42.9627283" lon="2.4931567"><ele>345.1666666666667</ele><time>2026-04-26T10:07:21.73Z</time></trkpt><trkpt lat="42.9626667" lon="2.4930367"><ele>345.0</ele><time>2026-04-26T10:07:22.729Z</time></trkpt><trkpt lat="42.9625933" lon="2.49293"><ele>349.0</ele><time>2026-04-26T10:07:23.729Z</time></trkpt><trkpt lat="42.962515" lon="2.4928317"><ele>353.0</ele><time>2026-04-26T10:07:24.732Z</time></trkpt><trkpt lat="42.9624383" lon="2.4927183"><ele>357.0</ele><time>2026-04-26T10:07:25.729Z</time></trkpt><trkpt lat="42.962355" lon="2.4926067"><ele>361.0</ele><time>2026-04-26T10:07:26.73Z</time></trkpt><trkpt lat="42.9622533" lon="2.4925017"><ele>361.0</ele><time>2026-04-26T10:07:27.73Z</time></trkpt><trkpt lat="42.9621317" lon="2.4923967"><ele>361.0</ele><time>2026-04-26T10:07:28.73Z</time></trkpt><trkpt lat="42.9620033" lon="2.4922967"><ele>361.0</ele><time>2026-04-26T10:07:29.731Z</time></trkpt><trkpt lat="42.9618583" lon="2.4922183"><ele>361.0</ele><time>2026-04-26T10:07:30.734Z</time></trkpt><trkpt lat="42.961735" lon="2.492135"><ele>368.3333333333333</ele><time>2026-04-26T10:07:31.731Z</time></trkpt><trkpt lat="42.9615983" lon="2.4920467"><ele>375.6666666666667</ele><time>2026-04-26T10:07:32.736Z</time></trkpt><trkpt lat="42.96146" lon="2.49194"><ele>383.0</ele><time>2026-04-26T10:07:33.729Z</time></trkpt><trkpt lat="42.9613183" lon="2.491835"><ele>383.0</ele><time>2026-04-26T10:07:34.73Z</time></trkpt><trkpt lat="42.9611867" lon="2.4917383"><ele>383.0</ele><time>2026-04-26T10:07:35.734Z</time></trkpt><trkpt lat="42.9610467" lon="2.49165"><ele>383.0</ele><time>2026-04-26T10:07:36.73Z</time></trkpt><trkpt lat="42.9609067" lon="2.4915583"><ele>379.75</ele><time>2026-04-26T10:07:37.731Z</time></trkpt><trkpt lat="42.9607583" lon="2.4914833"><ele>376.5</ele><time>2026-04-26T10:07:38.732Z</time></trkpt><trkpt lat="42.9606233" lon="2.4914117"><ele>373.25</ele><time>2026-04-26T10:07:39.731Z</time></trkpt><trkpt lat="42.9605017" lon="2.4913483"><ele>370.0</ele><time>2026-04-26T10:07:40.729Z</time></trkpt><trkpt lat="42.96042" lon="2.491275"><ele>374.4</ele><time>2026-04-26T10:07:41.732Z</time></trkpt><trkpt lat="42.9603683" lon="2.4911667"><ele>378.8</ele><time>2026-04-26T10:07:42.73Z</time></trkpt><trkpt lat="42.96035" lon="2.4910283"><ele>383.20000000000005</ele><time>2026-04-26T10:07:43.73Z</time></trkpt><trkpt lat="42.9603283" lon="2.490895"><ele>387.6</ele><time>2026-04-26T10:07:44.73Z</time></trkpt><trkpt lat="42.9603533" lon="2.490765"><ele>392.0</ele><time>2026-04-26T10:07:45.731Z</time></trkpt><trkpt lat="42.9603767" lon="2.49064"><ele>392.0</ele><time>2026-04-26T10:07:46.73Z</time></trkpt><trkpt lat="42.9604317" lon="2.4905"><ele>392.0</ele><time>2026-04-26T10:07:47.734Z</time></trkpt><trkpt lat="42.9604733" lon="2.4903567"><ele>392.0</ele><time>2026-04-26T10:07:48.731Z</time></trkpt><trkpt lat="42.9605083" lon="2.4902"><ele>392.0</ele><time>2026-04-26T10:07:49.733Z</time></trkpt><trkpt lat="42.9605483" lon="2.49004"><ele>394.5</ele><time>2026-04-26T10:07:50.732Z</time></trkpt><trkpt lat="42.9605983" lon="2.4898767"><ele>397.0</ele><time>2026-04-26T10:07:51.731Z</time></trkpt><trkpt lat="42.960645" lon="2.4897167"><ele>399.5</ele><time>2026-04-26T10:07:52.731Z</time></trkpt><trkpt lat="42.9606983" lon="2.4895533"><ele>402.0</ele><time>2026-04-26T10:07:53.729Z</time></trkpt><trkpt lat="42.960745" lon="2.4893867"><ele>402.40000000000003</ele><time>2026-04-26T10:07:54.729Z</time></trkpt><trkpt lat="42.9607883" lon="2.4892333"><ele>402.8</ele><time>2026-04-26T10:07:55.73Z</time></trkpt><trkpt lat="42.9608267" lon="2.4891"><ele>403.2</ele><time>2026-04-26T10:07:56.731Z</time></trkpt><trkpt lat="42.960855" lon="2.488985"><ele>403.6</ele><time>2026-04-26T10:07:57.73Z</time></trkpt><trkpt lat="42.9608783" lon="2.4888883"><ele>404.0</ele><time>2026-04-26T10:07:58.729Z</time></trkpt><trkpt lat="42.960865" lon="2.488745"><ele>404.75</ele><time>2026-04-26T10:08:00.733Z</time></trkpt><trkpt lat="42.9607567" lon="2.488745"><ele>405.5</ele><time>2026-04-26T10:08:02.73Z</time></trkpt><trkpt lat="42.9606567" lon="2.488825"><ele>406.25</ele><time>2026-04-26T10:08:03.73Z</time></trkpt><trkpt lat="42.9605417" lon="2.4888917"><ele>407.0</ele><time>2026-04-26T10:08:04.73Z</time></trkpt><trkpt lat="42.960435" lon="2.488975"><ele>407.0</ele><time>2026-04-26T10:08:05.734Z</time></trkpt><trkpt lat="42.9603567" lon="2.4890767"><ele>407.0</ele><time>2026-04-26T10:08:06.73Z</time></trkpt><trkpt lat="42.9602867" lon="2.48922"><ele>407.0</ele><time>2026-04-26T10:08:07.732Z</time></trkpt><trkpt lat="42.9602317" lon="2.48938"><ele>407.0</ele><time>2026-04-26T10:08:08.73Z</time></trkpt><trkpt lat="42.9601583" lon="2.4895333"><ele>407.0</ele><time>2026-04-26T10:08:09.731Z</time></trkpt><trkpt lat="42.96008" lon="2.4896483"><ele>407.0</ele><time>2026-04-26T10:08:10.734Z</time></trkpt><trkpt lat="42.9599883" lon="2.489745"><ele>407.0</ele><time>2026-04-26T10:08:11.73Z</time></trkpt><trkpt lat="42.9598883" lon="2.489835"><ele>407.0</ele><time>2026-04-26T10:08:12.73Z</time></trkpt><trkpt lat="42.9597933" lon="2.489915"><ele>407.0</ele><time>2026-04-26T10:08:13.73Z</time></trkpt><trkpt lat="42.9597" lon="2.4899733"><ele>407.0</ele><time>2026-04-26T10:08:14.73Z</time></trkpt><trkpt lat="42.9595967" lon="2.490005"><ele>407.0</ele><time>2026-04-26T10:08:15.732Z</time></trkpt><trkpt lat="42.9594817" lon="2.49002"><ele>407.0</ele><time>2026-04-26T10:08:16.73Z</time></trkpt><trkpt lat="42.9593667" lon="2.4900333"><ele>407.0</ele><time>2026-04-26T10:08:17.73Z</time></trkpt><trkpt lat="42.95925" lon="2.4900483"><ele>412.25</ele><time>2026-04-26T10:08:18.729Z</time></trkpt><trkpt lat="42.959125" lon="2.490075"><ele>417.5</ele><time>2026-04-26T10:08:19.73Z</time></trkpt><trkpt lat="42.9589967" lon="2.490105"><ele>422.75</ele><time>2026-04-26T10:08:20.73Z</time></trkpt><trkpt lat="42.9588633" lon="2.4901333"><ele>428.0</ele><time>2026-04-26T10:08:21.731Z</time></trkpt><trkpt lat="42.9587267" lon="2.4901567"><ele>428.0</ele><time>2026-04-26T10:08:22.729Z</time></trkpt><trkpt lat="42.9586017" lon="2.4901683"><ele>428.0</ele><time>2026-04-26T10:08:23.733Z</time></trkpt><trkpt lat="42.9584783" lon="2.4901917"><ele>428.0</ele><time>2026-04-26T10:08:24.73Z</time></trkpt><trkpt lat="42.9583517" lon="2.49024"><ele>428.0</ele><time>2026-04-26T10:08:25.731Z</time></trkpt><trkpt lat="42.958235" lon="2.4902967"><ele>429.2</ele><time>2026-04-26T10:08:26.731Z</time></trkpt><trkpt lat="42.9581233" lon="2.490355"><ele>430.4</ele><time>2026-04-26T10:08:27.73Z</time></trkpt><trkpt lat="42.9580183" lon="2.490405"><ele>431.59999999999997</ele><time>2026-04-26T10:08:28.73Z</time></trkpt><trkpt lat="42.9579167" lon="2.490445"><ele>432.79999999999995</ele><time>2026-04-26T10:08:29.729Z</time></trkpt><trkpt lat="42.957835" lon="2.4904617"><ele>434.0</ele><time>2026-04-26T10:08:30.729Z</time></trkpt><trkpt lat="42.95773" lon="2.4904633"><ele>434.0</ele><time>2026-04-26T10:08:32.73Z</time></trkpt><trkpt lat="42.9576717" lon="2.490325"><ele>434.0</ele><time>2026-04-26T10:09:27.733Z</time></trkpt><trkpt lat="42.95765" lon="2.4901917"><ele>434.0</ele><time>2026-04-26T10:09:29.731Z</time></trkpt><trkpt lat="42.95763" lon="2.4900733"><ele>434.0</ele><time>2026-04-26T10:09:30.728Z</time></trkpt><trkpt lat="42.9575867" lon="2.4899367"><ele>434.0</ele><time>2026-04-26T10:09:31.73Z</time></trkpt><trkpt lat="42.9575267" lon="2.4898017"><ele>434.4</ele><time>2026-04-26T10:09:32.73Z</time></trkpt><trkpt lat="42.9574717" lon="2.4896817"><ele>434.79999999999995</ele><time>2026-04-26T10:09:33.729Z</time></trkpt><trkpt lat="42.9574367" lon="2.4895617"><ele>435.20000000000005</ele><time>2026-04-26T10:09:34.728Z</time></trkpt><trkpt lat="42.95742" lon="2.489435"><ele>435.6</ele><time>2026-04-26T10:09:35.729Z</time></trkpt><trkpt lat="42.957435" lon="2.4892783"><ele>436.0</ele><time>2026-04-26T10:09:36.729Z</time></trkpt><trkpt lat="42.9574683" lon="2.489105"><ele>436.0</ele><time>2026-04-26T10:09:37.729Z</time></trkpt><trkpt lat="42.95749" lon="2.4889217"><ele>436.0</ele><time>2026-04-26T10:09:38.728Z</time></trkpt><trkpt lat="42.9574917" lon="2.48874"><ele>436.0</ele><time>2026-04-26T10:09:39.73Z</time></trkpt><trkpt lat="42.9574717" lon="2.4885717"><ele>436.0</ele><time>2026-04-26T10:09:40.729Z</time></trkpt><trkpt lat="42.95745" lon="2.4884267"><ele>436.50000000000006</ele><time>2026-04-26T10:09:41.728Z</time></trkpt><trkpt lat="42.9574417" lon="2.4882983"><ele>437.0</ele><time>2026-04-26T10:09:42.73Z</time></trkpt><trkpt lat="42.9574433" lon="2.4881867"><ele>437.5</ele><time>2026-04-26T10:09:43.731Z</time></trkpt><trkpt lat="42.9574683" lon="2.4880933"><ele>438.0</ele><time>2026-04-26T10:09:44.729Z</time></trkpt><trkpt lat="42.95752" lon="2.4880017"><ele>438.50000000000006</ele><time>2026-04-26T10:09:45.729Z</time></trkpt><trkpt lat="42.9575983" lon="2.4879033"><ele>439.0</ele><time>2026-04-26T10:09:46.728Z</time></trkpt><trkpt lat="42.9576917" lon="2.4877933"><ele>441.5</ele><time>2026-04-26T10:09:47.729Z</time></trkpt><trkpt lat="42.9577833" lon="2.4876783"><ele>444.0</ele><time>2026-04-26T10:09:48.729Z</time></trkpt><trkpt lat="42.9578733" lon="2.4875617"><ele>446.5</ele><time>2026-04-26T10:09:49.732Z</time></trkpt><trkpt lat="42.9579567" lon="2.4874467"><ele>449.0</ele><time>2026-04-26T10:09:50.729Z</time></trkpt><trkpt lat="42.9580367" lon="2.4873467"><ele>449.0</ele><time>2026-04-26T10:09:51.729Z</time></trkpt><trkpt lat="42.9581233" lon="2.487275"><ele>449.0</ele><time>2026-04-26T10:09:52.729Z</time></trkpt><trkpt lat="42.95822" lon="2.4872283"><ele>449.0</ele><time>2026-04-26T10:09:53.73Z</time></trkpt><trkpt lat="42.95832" lon="2.487195"><ele>449.0</ele><time>2026-04-26T10:09:54.729Z</time></trkpt><trkpt lat="42.95842" lon="2.487145"><ele>449.0</ele><time>2026-04-26T10:09:55.73Z</time></trkpt><trkpt lat="42.9585067" lon="2.4870633"><ele>450.4</ele><time>2026-04-26T10:09:56.727Z</time></trkpt><trkpt lat="42.95857" lon="2.4869567"><ele>451.79999999999995</ele><time>2026-04-26T10:09:57.728Z</time></trkpt><trkpt lat="42.9586217" lon="2.4868317"><ele>453.20000000000005</ele><time>2026-04-26T10:09:58.727Z</time></trkpt><trkpt lat="42.9586767" lon="2.4866933"><ele>454.6</ele><time>2026-04-26T10:09:59.728Z</time></trkpt><trkpt lat="42.9587483" lon="2.4865633"><ele>456.0</ele><time>2026-04-26T10:10:00.729Z</time></trkpt><trkpt lat="42.958825" lon="2.4864183"><ele>456.0</ele><time>2026-04-26T10:10:01.73Z</time></trkpt><trkpt lat="42.9588933" lon="2.486265"><ele>456.0</ele><time>2026-04-26T10:10:02.729Z</time></trkpt><trkpt lat="42.9589433" lon="2.4861133"><ele>456.0</ele><time>2026-04-26T10:10:03.728Z</time></trkpt><trkpt lat="42.9589833" lon="2.4859667"><ele>456.0</ele><time>2026-04-26T10:10:04.728Z</time></trkpt><trkpt lat="42.9590083" lon="2.4858333"><ele>457.0</ele><time>2026-04-26T10:10:05.729Z</time></trkpt><trkpt lat="42.95901" lon="2.4856983"><ele>458.0</ele><time>2026-04-26T10:10:06.729Z</time></trkpt><trkpt lat="42.95899" lon="2.4855683"><ele>459.0</ele><time>2026-04-26T10:10:07.732Z</time></trkpt><trkpt lat="42.958935" lon="2.4854433"><ele>460.0</ele><time>2026-04-26T10:10:08.73Z</time></trkpt><trkpt lat="42.95886" lon="2.4853333"><ele>461.0</ele><time>2026-04-26T10:10:09.728Z</time></trkpt><trkpt lat="42.9587867" lon="2.485225"><ele>462.20000000000005</ele><time>2026-04-26T10:10:10.728Z</time></trkpt><trkpt lat="42.9587283" lon="2.4851217"><ele>463.40000000000003</ele><time>2026-04-26T10:10:11.728Z</time></trkpt><trkpt lat="42.9586933" lon="2.4850067"><ele>464.6</ele><time>2026-04-26T10:10:12.728Z</time></trkpt><trkpt lat="42.9586883" lon="2.4848733"><ele>465.8</ele><time>2026-04-26T10:10:13.728Z</time></trkpt><trkpt lat="42.9587083" lon="2.4847217"><ele>467.0</ele><time>2026-04-26T10:10:14.727Z</time></trkpt><trkpt lat="42.95875" lon="2.4845633"><ele>467.0</ele><time>2026-04-26T10:10:15.728Z</time></trkpt><trkpt lat="42.9588133" lon="2.4843983"><ele>467.0</ele><time>2026-04-26T10:10:16.727Z</time></trkpt><trkpt lat="42.95889" lon="2.484235"><ele>467.0</ele><time>2026-04-26T10:10:17.729Z</time></trkpt><trkpt lat="42.9589767" lon="2.4840667"><ele>467.0</ele><time>2026-04-26T10:10:18.728Z</time></trkpt><trkpt lat="42.9590717" lon="2.4839"><ele>467.5</ele><time>2026-04-26T10:10:19.73Z</time></trkpt><trkpt lat="42.95917" lon="2.48374"><ele>468.0</ele><time>2026-04-26T10:10:20.729Z</time></trkpt><trkpt lat="42.95925" lon="2.4835817"><ele>468.5</ele><time>2026-04-26T10:10:21.728Z</time></trkpt><trkpt lat="42.9593" lon="2.4834317"><ele>469.0</ele><time>2026-04-26T10:10:22.73Z</time></trkpt><trkpt lat="42.9593167" lon="2.4832767"><ele>469.5</ele><time>2026-04-26T10:10:23.729Z</time></trkpt><trkpt lat="42.95931" lon="2.483115"><ele>470.0</ele><time>2026-04-26T10:10:24.728Z</time></trkpt><trkpt lat="42.959295" lon="2.4829417"><ele>470.5</ele><time>2026-04-26T10:10:25.73Z</time></trkpt><trkpt lat="42.9593033" lon="2.4827633"><ele>471.0</ele><time>2026-04-26T10:10:26.727Z</time></trkpt><trkpt lat="42.9593333" lon="2.4825783"><ele>472.0</ele><time>2026-04-26T10:10:27.728Z</time></trkpt><trkpt lat="42.9593733" lon="2.4823867"><ele>473.0</ele><time>2026-04-26T10:10:28.728Z</time></trkpt><trkpt lat="42.9594183" lon="2.4821867"><ele>474.0</ele><time>2026-04-26T10:10:29.73Z</time></trkpt><trkpt lat="42.9594567" lon="2.4819817"><ele>474.66666666666663</ele><time>2026-04-26T10:10:30.728Z</time></trkpt><trkpt lat="42.959485" lon="2.4817717"><ele>475.3333333333333</ele><time>2026-04-26T10:10:31.727Z</time></trkpt><trkpt lat="42.95951" lon="2.4815567"><ele>476.0</ele><time>2026-04-26T10:10:32.729Z</time></trkpt><trkpt lat="42.95954" lon="2.4813417"><ele>477.0</ele><time>2026-04-26T10:10:33.727Z</time></trkpt><trkpt lat="42.9595683" lon="2.481125"><ele>478.0</ele><time>2026-04-26T10:10:34.727Z</time></trkpt><trkpt lat="42.9595917" lon="2.4808983"><ele>479.0</ele><time>2026-04-26T10:10:35.73Z</time></trkpt><trkpt lat="42.9596083" lon="2.4806733"><ele>479.0</ele><time>2026-04-26T10:10:36.727Z</time></trkpt><trkpt lat="42.9596333" lon="2.4804667"><ele>479.0</ele><time>2026-04-26T10:10:37.731Z</time></trkpt><trkpt lat="42.959655" lon="2.4802817"><ele>479.0</ele><time>2026-04-26T10:10:38.727Z</time></trkpt><trkpt lat="42.9596883" lon="2.4801017"><ele>479.0</ele><time>2026-04-26T10:10:39.727Z</time></trkpt><trkpt lat="42.9597333" lon="2.4799283"><ele>480.5</ele><time>2026-04-26T10:10:40.729Z</time></trkpt><trkpt lat="42.9597883" lon="2.4797533"><ele>482.0</ele><time>2026-04-26T10:10:41.728Z</time></trkpt><trkpt lat="42.959845" lon="2.4795767"><ele>483.5</ele><time>2026-04-26T10:10:42.73Z</time></trkpt><trkpt lat="42.9599" lon="2.4794017"><ele>485.0</ele><time>2026-04-26T10:10:43.728Z</time></trkpt><trkpt lat="42.9599567" lon="2.479235"><ele>485.6</ele><time>2026-04-26T10:10:44.731Z</time></trkpt><trkpt lat="42.960005" lon="2.4790833"><ele>486.2</ele><time>2026-04-26T10:10:45.73Z</time></trkpt><trkpt lat="42.9600333" lon="2.4789517"><ele>486.79999999999995</ele><time>2026-04-26T10:10:46.728Z</time></trkpt><trkpt lat="42.9600383" lon="2.478815"><ele>487.4</ele><time>2026-04-26T10:10:47.73Z</time></trkpt><trkpt lat="42.960025" lon="2.4786733"><ele>488.0</ele><time>2026-04-26T10:10:48.731Z</time></trkpt><trkpt lat="42.9599983" lon="2.4785333"><ele>490.0</ele><time>2026-04-26T10:10:49.733Z</time></trkpt><trkpt lat="42.95997" lon="2.4783867"><ele>492.0</ele><time>2026-04-26T10:10:50.73Z</time></trkpt><trkpt lat="42.9599533" lon="2.4782383"><ele>494.0</ele><time>2026-04-26T10:10:51.728Z</time></trkpt><trkpt lat="42.95995" lon="2.4780733"><ele>496.0</ele><time>2026-04-26T10:10:52.728Z</time></trkpt><trkpt lat="42.9599667" lon="2.47791"><ele>497.0</ele><time>2026-04-26T10:10:53.728Z</time></trkpt><trkpt lat="42.9600067" lon="2.4777483"><ele>498.0</ele><time>2026-04-26T10:10:54.728Z</time></trkpt><trkpt lat="42.96006" lon="2.4775933"><ele>499.0</ele><time>2026-04-26T10:10:55.728Z</time></trkpt><trkpt lat="42.9601267" lon="2.4774383"><ele>500.0</ele><time>2026-04-26T10:10:56.73Z</time></trkpt><trkpt lat="42.9601967" lon="2.4772817"><ele>501.75</ele><time>2026-04-26T10:10:57.728Z</time></trkpt><trkpt lat="42.9602617" lon="2.477125"><ele>503.5</ele><time>2026-04-26T10:10:58.727Z</time></trkpt><trkpt lat="42.96032" lon="2.4769733"><ele>505.25</ele><time>2026-04-26T10:10:59.728Z</time></trkpt><trkpt lat="42.9603767" lon="2.4768283"><ele>507.0</ele><time>2026-04-26T10:11:00.73Z</time></trkpt><trkpt lat="42.960445" lon="2.4766917"><ele>507.25</ele><time>2026-04-26T10:11:01.731Z</time></trkpt><trkpt lat="42.9605283" lon="2.47656"><ele>507.5</ele><time>2026-04-26T10:11:02.73Z</time></trkpt><trkpt lat="42.9606233" lon="2.4764283"><ele>507.75</ele><time>2026-04-26T10:11:03.731Z</time></trkpt><trkpt lat="42.9607317" lon="2.4763067"><ele>508.0</ele><time>2026-04-26T10:11:04.729Z</time></trkpt><trkpt lat="42.9608567" lon="2.4761917"><ele>512.6666666666667</ele><time>2026-04-26T10:11:05.728Z</time></trkpt><trkpt lat="42.9609867" lon="2.4760933"><ele>517.3333333333334</ele><time>2026-04-26T10:11:06.728Z</time></trkpt><trkpt lat="42.9611183" lon="2.475995"><ele>522.0</ele><time>2026-04-26T10:11:07.732Z</time></trkpt><trkpt lat="42.961245" lon="2.4758767"><ele>522.0</ele><time>2026-04-26T10:11:08.731Z</time></trkpt><trkpt lat="42.9613567" lon="2.4757583"><ele>522.0</ele><time>2026-04-26T10:11:09.732Z</time></trkpt><trkpt lat="42.9614583" lon="2.4756583"><ele>522.0</ele><time>2026-04-26T10:11:10.728Z</time></trkpt><trkpt lat="42.961555" lon="2.4755917"><ele>522.0</ele><time>2026-04-26T10:11:11.729Z</time></trkpt><trkpt lat="42.9616517" lon="2.4755467"><ele>523.6</ele><time>2026-04-26T10:11:12.73Z</time></trkpt><trkpt lat="42.9617633" lon="2.475535"><ele>525.2</ele><time>2026-04-26T10:11:13.727Z</time></trkpt><trkpt lat="42.96188" lon="2.475555"><ele>526.8</ele><time>2026-04-26T10:11:14.728Z</time></trkpt><trkpt lat="42.9619917" lon="2.47557"><ele>528.4</ele><time>2026-04-26T10:11:15.73Z</time></trkpt><trkpt lat="42.9620783" lon="2.4755633"><ele>530.0</ele><time>2026-04-26T10:11:16.728Z</time></trkpt><trkpt lat="42.9621633" lon="2.4755433"><ele>530.0</ele><time>2026-04-26T10:11:17.728Z</time></trkpt><trkpt lat="42.9622533" lon="2.4755033"><ele>530.0</ele><time>2026-04-26T10:11:18.728Z</time></trkpt><trkpt lat="42.9623317" lon="2.4754333"><ele>530.0</ele><time>2026-04-26T10:11:19.727Z</time></trkpt><trkpt lat="42.962395" lon="2.47536"><ele>530.0</ele><time>2026-04-26T10:11:20.729Z</time></trkpt><trkpt lat="42.96245" lon="2.47528"><ele>530.0</ele><time>2026-04-26T10:11:21.728Z</time></trkpt><trkpt lat="42.96251" lon="2.4752"><ele>530.0</ele><time>2026-04-26T10:11:22.728Z</time></trkpt><trkpt lat="42.96257" lon="2.4751283"><ele>530.6</ele><time>2026-04-26T10:11:23.728Z</time></trkpt><trkpt lat="42.9626383" lon="2.4750567"><ele>531.2</ele><time>2026-04-26T10:11:24.728Z</time></trkpt><trkpt lat="42.9627283" lon="2.4749833"><ele>531.8</ele><time>2026-04-26T10:11:25.729Z</time></trkpt><trkpt lat="42.962835" lon="2.4749133"><ele>532.4</ele><time>2026-04-26T10:11:26.729Z</time></trkpt><trkpt lat="42.9629367" lon="2.4748333"><ele>533.0</ele><time>2026-04-26T10:11:27.728Z</time></trkpt><trkpt lat="42.9630333" lon="2.4747483"><ele>533.0</ele><time>2026-04-26T10:11:28.729Z</time></trkpt><trkpt lat="42.963125" lon="2.4746683"><ele>533.0</ele><time>2026-04-26T10:11:29.729Z</time></trkpt><trkpt lat="42.9632117" lon="2.4746033"><ele>533.0</ele><time>2026-04-26T10:11:30.728Z</time></trkpt><trkpt lat="42.9632967" lon="2.4745633"><ele>533.0</ele><time>2026-04-26T10:11:31.728Z</time></trkpt><trkpt lat="42.9633883" lon="2.4745617"><ele>533.0</ele><time>2026-04-26T10:11:32.729Z</time></trkpt><trkpt lat="42.96349" lon="2.4745733"><ele>534.5</ele><time>2026-04-26T10:11:33.729Z</time></trkpt><trkpt lat="42.963595" lon="2.4745867"><ele>536.0</ele><time>2026-04-26T10:11:34.727Z</time></trkpt><trkpt lat="42.9637333" lon="2.4745717"><ele>537.5</ele><time>2026-04-26T10:11:35.729Z</time></trkpt><trkpt lat="42.9638433" lon="2.474585"><ele>539.0</ele><time>2026-04-26T10:11:36.73Z</time></trkpt><trkpt lat="42.9639617" lon="2.4746"><ele>539.0</ele><time>2026-04-26T10:11:37.73Z</time></trkpt><trkpt lat="42.9640667" lon="2.4746067"><ele>539.0</ele><time>2026-04-26T10:11:38.728Z</time></trkpt><trkpt lat="42.96417" lon="2.4745983"><ele>539.0</ele><time>2026-04-26T10:11:39.729Z</time></trkpt><trkpt lat="42.96429" lon="2.47454"><ele>539.0</ele><time>2026-04-26T10:11:40.728Z</time></trkpt><trkpt lat="42.9644017" lon="2.474415"><ele>541.0</ele><time>2026-04-26T10:11:41.73Z</time></trkpt><trkpt lat="42.9645167" lon="2.4742967"><ele>543.0</ele><time>2026-04-26T10:11:42.73Z</time></trkpt><trkpt lat="42.9646367" lon="2.474185"><ele>545.0</ele><time>2026-04-26T10:11:43.729Z</time></trkpt><trkpt lat="42.9647533" lon="2.4740667"><ele>547.0</ele><time>2026-04-26T10:11:44.73Z</time></trkpt><trkpt lat="42.9648633" lon="2.4739417"><ele>547.0</ele><time>2026-04-26T10:11:45.728Z</time></trkpt><trkpt lat="42.9649717" lon="2.4738183"><ele>547.0</ele><time>2026-04-26T10:11:46.728Z</time></trkpt><trkpt lat="42.9650683" lon="2.4737"><ele>547.0</ele><time>2026-04-26T10:11:47.736Z</time></trkpt><trkpt lat="42.9651467" lon="2.473595"><ele>547.0</ele><time>2026-04-26T10:11:48.73Z</time></trkpt><trkpt lat="42.965225" lon="2.4734917"><ele>548.75</ele><time>2026-04-26T10:11:49.73Z</time></trkpt><trkpt lat="42.9653067" lon="2.4733717"><ele>550.5</ele><time>2026-04-26T10:11:50.731Z</time></trkpt><trkpt lat="42.9653833" lon="2.47323"><ele>552.25</ele><time>2026-04-26T10:11:51.731Z</time></trkpt><trkpt lat="42.96546" lon="2.4730717"><ele>554.0</ele><time>2026-04-26T10:11:52.729Z</time></trkpt><trkpt lat="42.9655267" lon="2.4729"><ele>556.0</ele><time>2026-04-26T10:11:53.732Z</time></trkpt><trkpt lat="42.9655983" lon="2.4727233"><ele>558.0</ele><time>2026-04-26T10:11:54.729Z</time></trkpt><trkpt lat="42.9656767" lon="2.4725433"><ele>560.0</ele><time>2026-04-26T10:11:55.728Z</time></trkpt><trkpt lat="42.96576" lon="2.4723617"><ele>560.0</ele><time>2026-04-26T10:11:56.728Z</time></trkpt><trkpt lat="42.965845" lon="2.4721767"><ele>560.0</ele><time>2026-04-26T10:11:57.728Z</time></trkpt><trkpt lat="42.965925" lon="2.471985"><ele>560.0</ele><time>2026-04-26T10:11:58.731Z</time></trkpt><trkpt lat="42.9660033" lon="2.4717883"><ele>563.6666666666666</ele><time>2026-04-26T10:11:59.729Z</time></trkpt><trkpt lat="42.9660817" lon="2.471595"><ele>567.3333333333334</ele><time>2026-04-26T10:12:00.729Z</time></trkpt><trkpt lat="42.9661767" lon="2.471415"><ele>571.0</ele><time>2026-04-26T10:12:01.73Z</time></trkpt><trkpt lat="42.9662817" lon="2.47124"><ele>573.5</ele><time>2026-04-26T10:12:02.73Z</time></trkpt><trkpt lat="42.9663633" lon="2.4710783"><ele>576.0</ele><time>2026-04-26T10:12:03.734Z</time></trkpt><trkpt lat="42.9664333" lon="2.4709017"><ele>578.5</ele><time>2026-04-26T10:12:04.729Z</time></trkpt><trkpt lat="42.966485" lon="2.4707133"><ele>581.0</ele><time>2026-04-26T10:12:05.729Z</time></trkpt><trkpt lat="42.9665217" lon="2.4705283"><ele>580.0</ele><time>2026-04-26T10:12:06.731Z</time></trkpt><trkpt lat="42.9665667" lon="2.47034"><ele>579.0</ele><time>2026-04-26T10:12:07.731Z</time></trkpt><trkpt lat="42.9666183" lon="2.4701483"><ele>578.0</ele><time>2026-04-26T10:12:08.73Z</time></trkpt><trkpt lat="42.966665" lon="2.4699617"><ele>577.0</ele><time>2026-04-26T10:12:09.73Z</time></trkpt><trkpt lat="42.9667217" lon="2.4697833"><ele>577.0</ele><time>2026-04-26T10:12:10.73Z</time></trkpt><trkpt lat="42.9667767" lon="2.4696183"><ele>577.0</ele><time>2026-04-26T10:12:11.73Z</time></trkpt><trkpt lat="42.9668083" lon="2.4694517"><ele>577.0</ele><time>2026-04-26T10:12:12.727Z</time></trkpt><trkpt lat="42.9668217" lon="2.4692667"><ele>577.0</ele><time>2026-04-26T10:12:13.732Z</time></trkpt><trkpt lat="42.9668283" lon="2.46908"><ele>580.5</ele><time>2026-04-26T10:12:14.729Z</time></trkpt><trkpt lat="42.96684" lon="2.4688983"><ele>584.0</ele><time>2026-04-26T10:12:15.728Z</time></trkpt><trkpt lat="42.9668667" lon="2.468725"><ele>587.5</ele><time>2026-04-26T10:12:16.731Z</time></trkpt><trkpt lat="42.96691" lon="2.4685483"><ele>591.0</ele><time>2026-04-26T10:12:17.73Z</time></trkpt><trkpt lat="42.9669667" lon="2.4683717"><ele>593.75</ele><time>2026-04-26T10:12:18.729Z</time></trkpt><trkpt lat="42.96703" lon="2.4681967"><ele>596.5</ele><time>2026-04-26T10:12:19.73Z</time></trkpt><trkpt lat="42.9670967" lon="2.468045"><ele>599.25</ele><time>2026-04-26T10:12:20.729Z</time></trkpt><trkpt lat="42.9671683" lon="2.4679183"><ele>602.0</ele><time>2026-04-26T10:12:21.729Z</time></trkpt><trkpt lat="42.9672533" lon="2.467825"><ele>604.0</ele><time>2026-04-26T10:12:22.728Z</time></trkpt><trkpt lat="42.9673433" lon="2.4677483"><ele>606.0</ele><time>2026-04-26T10:12:23.729Z</time></trkpt><trkpt lat="42.9674533" lon="2.4676967"><ele>608.0</ele><time>2026-04-26T10:12:24.728Z</time></trkpt><trkpt lat="42.9675717" lon="2.4676467"><ele>610.0</ele><time>2026-04-26T10:12:25.729Z</time></trkpt><trkpt lat="42.9676933" lon="2.467585"><ele>613.5</ele><time>2026-04-26T10:12:26.732Z</time></trkpt><trkpt lat="42.9678233" lon="2.4675233"><ele>617.0</ele><time>2026-04-26T10:12:27.729Z</time></trkpt><trkpt lat="42.9679533" lon="2.4674817"><ele>620.5</ele><time>2026-04-26T10:12:28.728Z</time></trkpt><trkpt lat="42.96809" lon="2.467455"><ele>624.0</ele><time>2026-04-26T10:12:29.73Z</time></trkpt><trkpt lat="42.9682233" lon="2.4674267"><ele>624.0</ele><time>2026-04-26T10:12:30.728Z</time></trkpt><trkpt lat="42.9683583" lon="2.4673883"><ele>624.0</ele><time>2026-04-26T10:12:31.73Z</time></trkpt><trkpt lat="42.9684983" lon="2.46735"><ele>624.0</ele><time>2026-04-26T10:12:32.729Z</time></trkpt><trkpt lat="42.9686333" lon="2.46731"><ele>624.0</ele><time>2026-04-26T10:12:33.727Z</time></trkpt><trkpt lat="42.9687683" lon="2.467275"><ele>626.0</ele><time>2026-04-26T10:12:34.729Z</time></trkpt><trkpt lat="42.9689167" lon="2.4672283"><ele>628.0</ele><time>2026-04-26T10:12:35.73Z</time></trkpt><trkpt lat="42.9690583" lon="2.4671983"><ele>630.0</ele><time>2026-04-26T10:12:36.73Z</time></trkpt><trkpt lat="42.9691883" lon="2.4671667"><ele>632.0</ele><time>2026-04-26T10:12:37.727Z</time></trkpt><trkpt lat="42.9693167" lon="2.4671467"><ele>633.75</ele><time>2026-04-26T10:12:38.727Z</time></trkpt><trkpt lat="42.9694483" lon="2.46712"><ele>635.5</ele><time>2026-04-26T10:12:39.728Z</time></trkpt><trkpt lat="42.9695783" lon="2.46709"><ele>637.25</ele><time>2026-04-26T10:12:40.729Z</time></trkpt><trkpt lat="42.969715" lon="2.46705"><ele>639.0</ele><time>2026-04-26T10:12:41.729Z</time></trkpt><trkpt lat="42.969855" lon="2.4670317"><ele>640.4</ele><time>2026-04-26T10:12:42.728Z</time></trkpt><trkpt lat="42.9699867" lon="2.4670133"><ele>641.8</ele><time>2026-04-26T10:12:43.727Z</time></trkpt><trkpt lat="42.9701017" lon="2.4670017"><ele>643.1999999999999</ele><time>2026-04-26T10:12:44.729Z</time></trkpt><trkpt lat="42.9702117" lon="2.4669917"><ele>644.5999999999999</ele><time>2026-04-26T10:12:45.727Z</time></trkpt><trkpt lat="42.97028" lon="2.46697"><ele>646.0</ele><time>2026-04-26T10:12:46.728Z</time></trkpt><trkpt lat="42.9703567" lon="2.4668567"><ele>646.0</ele><time>2026-04-26T10:12:48.728Z</time></trkpt><trkpt lat="42.9703083" lon="2.46669"><ele>646.0</ele><time>2026-04-26T10:12:50.73Z</time></trkpt><trkpt lat="42.9702533" lon="2.466615"><ele>646.0</ele><time>2026-04-26T10:12:51.73Z</time></trkpt><trkpt lat="42.9701717" lon="2.466525"><ele>646.0</ele><time>2026-04-26T10:12:52.729Z</time></trkpt><trkpt lat="42.970105" lon="2.4664017"><ele>646.0</ele><time>2026-04-26T10:12:53.731Z</time></trkpt><trkpt lat="42.9700517" lon="2.4662517"><ele>647.5</ele><time>2026-04-26T10:12:54.728Z</time></trkpt><trkpt lat="42.9700017" lon="2.4660867"><ele>649.0</ele><time>2026-04-26T10:12:55.731Z</time></trkpt><trkpt lat="42.9699483" lon="2.4659233"><ele>650.5</ele><time>2026-04-26T10:12:56.728Z</time></trkpt><trkpt lat="42.9699" lon="2.465765"><ele>652.0</ele><time>2026-04-26T10:12:57.728Z</time></trkpt><trkpt lat="42.969855" lon="2.46562"><ele>652.0</ele><time>2026-04-26T10:12:58.727Z</time></trkpt><trkpt lat="42.9698117" lon="2.4654833"><ele>652.0</ele><time>2026-04-26T10:12:59.729Z</time></trkpt><trkpt lat="42.9697617" lon="2.46535"><ele>652.0</ele><time>2026-04-26T10:13:00.728Z</time></trkpt><trkpt lat="42.9696967" lon="2.4652183"><ele>652.0</ele><time>2026-04-26T10:13:01.729Z</time></trkpt><trkpt lat="42.96962" lon="2.4650783"><ele>651.0</ele><time>2026-04-26T10:13:02.73Z</time></trkpt><trkpt lat="42.969545" lon="2.46492"><ele>650.0</ele><time>2026-04-26T10:13:03.73Z</time></trkpt><trkpt lat="42.9694967" lon="2.46476"><ele>649.0</ele><time>2026-04-26T10:13:04.728Z</time></trkpt><trkpt lat="42.9694633" lon="2.464595"><ele>648.0</ele><time>2026-04-26T10:13:05.728Z</time></trkpt><trkpt lat="42.969455" lon="2.46443"><ele>649.5999999999999</ele><time>2026-04-26T10:13:06.728Z</time></trkpt><trkpt lat="42.9694617" lon="2.46429"><ele>651.1999999999999</ele><time>2026-04-26T10:13:07.729Z</time></trkpt><trkpt lat="42.9695017" lon="2.46419"><ele>652.8</ele><time>2026-04-26T10:13:08.728Z</time></trkpt><trkpt lat="42.96957" lon="2.4641117"><ele>654.4</ele><time>2026-04-26T10:13:09.729Z</time></trkpt><trkpt lat="42.969645" lon="2.4640267"><ele>656.0</ele><time>2026-04-26T10:13:10.727Z</time></trkpt><trkpt lat="42.9697267" lon="2.4639267"><ele>656.0</ele><time>2026-04-26T10:13:11.728Z</time></trkpt><trkpt lat="42.9698" lon="2.4638033"><ele>656.0</ele><time>2026-04-26T10:13:12.727Z</time></trkpt><trkpt lat="42.96987" lon="2.4636483"><ele>656.0</ele><time>2026-04-26T10:13:13.732Z</time></trkpt><trkpt lat="42.96994" lon="2.463485"><ele>656.0</ele><time>2026-04-26T10:13:14.731Z</time></trkpt><trkpt lat="42.9700167" lon="2.4633217"><ele>656.5</ele><time>2026-04-26T10:13:15.729Z</time></trkpt><trkpt lat="42.9700967" lon="2.4631617"><ele>657.0</ele><time>2026-04-26T10:13:16.729Z</time></trkpt><trkpt lat="42.97019" lon="2.4630067"><ele>657.5</ele><time>2026-04-26T10:13:17.729Z</time></trkpt><trkpt lat="42.97029" lon="2.4628567"><ele>658.0</ele><time>2026-04-26T10:13:18.729Z</time></trkpt><trkpt lat="42.970405" lon="2.46273"><ele>661.5</ele><time>2026-04-26T10:13:19.729Z</time></trkpt><trkpt lat="42.9705183" lon="2.46261"><ele>665.0</ele><time>2026-04-26T10:13:20.731Z</time></trkpt><trkpt lat="42.9706183" lon="2.46248"><ele>668.5</ele><time>2026-04-26T10:13:21.73Z</time></trkpt><trkpt lat="42.9707117" lon="2.46235"><ele>672.0</ele><time>2026-04-26T10:13:22.727Z</time></trkpt><trkpt lat="42.9707917" lon="2.4622067"><ele>670.6</ele><time>2026-04-26T10:13:23.731Z</time></trkpt><trkpt lat="42.970855" lon="2.462065"><ele>669.2</ele><time>2026-04-26T10:13:24.729Z</time></trkpt><trkpt lat="42.9708867" lon="2.4619367"><ele>667.8</ele><time>2026-04-26T10:13:25.729Z</time></trkpt><trkpt lat="42.9709133" lon="2.461825"><ele>666.4</ele><time>2026-04-26T10:13:26.729Z</time></trkpt><trkpt lat="42.9709367" lon="2.4617367"><ele>665.0</ele><time>2026-04-26T10:13:27.729Z</time></trkpt><trkpt lat="42.97097" lon="2.4616033"><ele>665.0</ele><time>2026-04-26T10:13:29.732Z</time></trkpt><trkpt lat="42.971005" lon="2.4615017"><ele>665.0</ele><time>2026-04-26T10:13:32.73Z</time></trkpt><trkpt lat="42.9710367" lon="2.4613867"><ele>665.0</ele><time>2026-04-26T10:13:35.729Z</time></trkpt><trkpt lat="42.97107" lon="2.46126"><ele>665.0</ele><time>2026-04-26T10:13:37.73Z</time></trkpt><trkpt lat="42.9710917" lon="2.4610733"><ele>665.0</ele><time>2026-04-26T10:13:39.73Z</time></trkpt><trkpt lat="42.97111" lon="2.4609567"><ele>667.3333333333333</ele><time>2026-04-26T10:13:40.728Z</time></trkpt><trkpt lat="42.971115" lon="2.46084"><ele>669.6666666666666</ele><time>2026-04-26T10:13:41.735Z</time></trkpt><trkpt lat="42.9711267" lon="2.46072"><ele>672.0</ele><time>2026-04-26T10:13:42.729Z</time></trkpt><trkpt lat="42.9711333" lon="2.4606067"><ele>674.3333333333334</ele><time>2026-04-26T10:13:43.729Z</time></trkpt><trkpt lat="42.97114" lon="2.460495"><ele>676.6666666666667</ele><time>2026-04-26T10:13:44.73Z</time></trkpt><trkpt lat="42.9711433" lon="2.4603817"><ele>679.0</ele><time>2026-04-26T10:13:45.728Z</time></trkpt><trkpt lat="42.9711483" lon="2.460265"><ele>681.8000000000001</ele><time>2026-04-26T10:13:46.728Z</time></trkpt><trkpt lat="42.97116" lon="2.4601483"><ele>684.6</ele><time>2026-04-26T10:13:47.729Z</time></trkpt><trkpt lat="42.9711967" lon="2.460045"><ele>687.4</ele><time>2026-04-26T10:13:48.729Z</time></trkpt><trkpt lat="42.971255" lon="2.45995"><ele>690.2</ele><time>2026-04-26T10:13:49.729Z</time></trkpt><trkpt lat="42.9713333" lon="2.4598667"><ele>693.0</ele><time>2026-04-26T10:13:50.731Z</time></trkpt><trkpt lat="42.97145" lon="2.4597883"><ele>693.0</ele><time>2026-04-26T10:13:51.729Z</time></trkpt><trkpt lat="42.971565" lon="2.4597167"><ele>693.0</ele><time>2026-04-26T10:13:52.728Z</time></trkpt><trkpt lat="42.9716917" lon="2.4596583"><ele>693.0</ele><time>2026-04-26T10:13:53.728Z</time></trkpt><trkpt lat="42.9718183" lon="2.4596033"><ele>693.0</ele><time>2026-04-26T10:13:54.728Z</time></trkpt><trkpt lat="42.97194" lon="2.4595367"><ele>695.25</ele><time>2026-04-26T10:13:55.731Z</time></trkpt><trkpt lat="42.9720583" lon="2.4594583"><ele>697.5</ele><time>2026-04-26T10:13:56.728Z</time></trkpt><trkpt lat="42.9721767" lon="2.459375"><ele>699.75</ele><time>2026-04-26T10:13:57.728Z</time></trkpt><trkpt lat="42.9722967" lon="2.4592833"><ele>702.0</ele><time>2026-04-26T10:13:58.729Z</time></trkpt><trkpt lat="42.9724283" lon="2.4591867"><ele>703.0</ele><time>2026-04-26T10:13:59.728Z</time></trkpt><trkpt lat="42.9725583" lon="2.4590867"><ele>704.0</ele><time>2026-04-26T10:14:00.73Z</time></trkpt><trkpt lat="42.9726833" lon="2.4589917"><ele>705.0</ele><time>2026-04-26T10:14:01.727Z</time></trkpt><trkpt lat="42.9728117" lon="2.4588967"><ele>706.0</ele><time>2026-04-26T10:14:02.73Z</time></trkpt><trkpt lat="42.9729433" lon="2.4588033"><ele>706.5</ele><time>2026-04-26T10:14:03.728Z</time></trkpt><trkpt lat="42.9730617" lon="2.4587083"><ele>707.0</ele><time>2026-04-26T10:14:04.728Z</time></trkpt><trkpt lat="42.97317" lon="2.4586117"><ele>707.5</ele><time>2026-04-26T10:14:05.731Z</time></trkpt><trkpt lat="42.97327" lon="2.4585133"><ele>708.0</ele><time>2026-04-26T10:14:06.728Z</time></trkpt><trkpt lat="42.973365" lon="2.4584217"><ele>709.2</ele><time>2026-04-26T10:14:07.728Z</time></trkpt><trkpt lat="42.9734467" lon="2.458335"><ele>710.4</ele><time>2026-04-26T10:14:08.73Z</time></trkpt><trkpt lat="42.9735233" lon="2.4582467"><ele>711.6</ele><time>2026-04-26T10:14:09.728Z</time></trkpt><trkpt lat="42.9736" lon="2.4581567"><ele>712.8000000000001</ele><time>2026-04-26T10:14:10.73Z</time></trkpt><trkpt lat="42.9736717" lon="2.458065"><ele>714.0</ele><time>2026-04-26T10:14:11.728Z</time></trkpt><trkpt lat="42.973745" lon="2.457975"><ele>712.75</ele><time>2026-04-26T10:14:12.728Z</time></trkpt><trkpt lat="42.97382" lon="2.4578767"><ele>711.5</ele><time>2026-04-26T10:14:13.727Z</time></trkpt><trkpt lat="42.9739017" lon="2.4577733"><ele>710.25</ele><time>2026-04-26T10:14:14.727Z</time></trkpt><trkpt lat="42.9739933" lon="2.4576733"><ele>709.0</ele><time>2026-04-26T10:14:15.73Z</time></trkpt><trkpt lat="42.9740933" lon="2.4575683"><ele>709.25</ele><time>2026-04-26T10:14:16.729Z</time></trkpt><trkpt lat="42.9741933" lon="2.4574633"><ele>709.5</ele><time>2026-04-26T10:14:17.729Z</time></trkpt><trkpt lat="42.9742933" lon="2.457365"><ele>709.75</ele><time>2026-04-26T10:14:18.729Z</time></trkpt><trkpt lat="42.9743917" lon="2.457265"><ele>710.0</ele><time>2026-04-26T10:14:19.729Z</time></trkpt><trkpt lat="42.97449" lon="2.45717"><ele>708.8</ele><time>2026-04-26T10:14:20.73Z</time></trkpt><trkpt lat="42.97459" lon="2.4570817"><ele>707.6</ele><time>2026-04-26T10:14:21.728Z</time></trkpt><trkpt lat="42.974685" lon="2.45702"><ele>706.4000000000001</ele><time>2026-04-26T10:14:22.728Z</time></trkpt><trkpt lat="42.9747833" lon="2.45696"><ele>705.2</ele><time>2026-04-26T10:14:23.736Z</time></trkpt><trkpt lat="42.9748883" lon="2.4569017"><ele>704.0</ele><time>2026-04-26T10:14:24.731Z</time></trkpt><trkpt lat="42.9750017" lon="2.4568417"><ele>704.0</ele><time>2026-04-26T10:14:25.731Z</time></trkpt><trkpt lat="42.9751217" lon="2.4567883"><ele>704.0</ele><time>2026-04-26T10:14:26.73Z</time></trkpt><trkpt lat="42.9752433" lon="2.456745"><ele>704.0</ele><time>2026-04-26T10:14:27.728Z</time></trkpt><trkpt lat="42.975355" lon="2.4566933"><ele>704.0</ele><time>2026-04-26T10:14:28.727Z</time></trkpt><trkpt lat="42.9754683" lon="2.4566467"><ele>704.0</ele><time>2026-04-26T10:14:29.731Z</time></trkpt><trkpt lat="42.9755833" lon="2.4566033"><ele>704.0</ele><time>2026-04-26T10:14:30.728Z</time></trkpt><trkpt lat="42.9756917" lon="2.4565667"><ele>704.0</ele><time>2026-04-26T10:14:31.73Z</time></trkpt><trkpt lat="42.9758" lon="2.4565317"><ele>704.0</ele><time>2026-04-26T10:14:32.732Z</time></trkpt><trkpt lat="42.9759033" lon="2.456495"><ele>704.0</ele><time>2026-04-26T10:14:33.731Z</time></trkpt><trkpt lat="42.97601" lon="2.4564517"><ele>704.0</ele><time>2026-04-26T10:14:34.727Z</time></trkpt><trkpt lat="42.9761133" lon="2.4564117"><ele>704.0</ele><time>2026-04-26T10:14:35.727Z</time></trkpt><trkpt lat="42.97621" lon="2.4563733"><ele>704.0</ele><time>2026-04-26T10:14:36.728Z</time></trkpt><trkpt lat="42.9763067" lon="2.456325"><ele>704.0</ele><time>2026-04-26T10:14:37.728Z</time></trkpt><trkpt lat="42.9764017" lon="2.4562517"><ele>704.0</ele><time>2026-04-26T10:14:38.727Z</time></trkpt><trkpt lat="42.9764933" lon="2.456185"><ele>703.25</ele><time>2026-04-26T10:14:39.731Z</time></trkpt><trkpt lat="42.976595" lon="2.4561133"><ele>702.5</ele><time>2026-04-26T10:14:40.729Z</time></trkpt><trkpt lat="42.9766983" lon="2.4560417"><ele>701.75</ele><time>2026-04-26T10:14:41.732Z</time></trkpt><trkpt lat="42.9768033" lon="2.4559767"><ele>701.0</ele><time>2026-04-26T10:14:42.73Z</time></trkpt><trkpt lat="42.9769" lon="2.4559033"><ele>701.0</ele><time>2026-04-26T10:14:43.728Z</time></trkpt><trkpt lat="42.97698" lon="2.4558183"><ele>701.0</ele><time>2026-04-26T10:14:44.728Z</time></trkpt><trkpt lat="42.9770567" lon="2.4557267"><ele>701.0</ele><time>2026-04-26T10:14:45.73Z</time></trkpt><trkpt lat="42.97713" lon="2.4556433"><ele>701.0</ele><time>2026-04-26T10:14:46.729Z</time></trkpt><trkpt lat="42.9772167" lon="2.4555683"><ele>701.0</ele><time>2026-04-26T10:14:47.73Z</time></trkpt><trkpt lat="42.9773217" lon="2.4555033"><ele>700.5999999999999</ele><time>2026-04-26T10:14:48.73Z</time></trkpt><trkpt lat="42.9774367" lon="2.4554317"><ele>700.2</ele><time>2026-04-26T10:14:49.731Z</time></trkpt><trkpt lat="42.97754" lon="2.4553717"><ele>699.8</ele><time>2026-04-26T10:14:50.728Z</time></trkpt><trkpt lat="42.9776383" lon="2.455315"><ele>699.4000000000001</ele><time>2026-04-26T10:14:51.729Z</time></trkpt><trkpt lat="42.9777233" lon="2.4552717"><ele>699.0</ele><time>2026-04-26T10:14:52.729Z</time></trkpt><trkpt lat="42.97781" lon="2.4552367"><ele>698.6</ele><time>2026-04-26T10:14:53.728Z</time></trkpt><trkpt lat="42.9778983" lon="2.4552083"><ele>698.2</ele><time>2026-04-26T10:14:54.731Z</time></trkpt><trkpt lat="42.97799" lon="2.455185"><ele>697.8000000000001</ele><time>2026-04-26T10:14:55.729Z</time></trkpt><trkpt lat="42.978075" lon="2.4551633"><ele>697.4000000000001</ele><time>2026-04-26T10:14:56.73Z</time></trkpt><trkpt lat="42.9781583" lon="2.455115"><ele>697.0</ele><time>2026-04-26T10:14:57.73Z</time></trkpt><trkpt lat="42.978235" lon="2.4550467"><ele>697.0</ele><time>2026-04-26T10:14:58.73Z</time></trkpt><trkpt lat="42.97831" lon="2.45497"><ele>697.0</ele><time>2026-04-26T10:14:59.729Z</time></trkpt><trkpt lat="42.97839" lon="2.4548933"><ele>697.0</ele><time>2026-04-26T10:15:00.73Z</time></trkpt><trkpt lat="42.9784833" lon="2.45481"><ele>697.0</ele><time>2026-04-26T10:15:01.727Z</time></trkpt><trkpt lat="42.9785867" lon="2.4547133"><ele>697.0</ele><time>2026-04-26T10:15:02.728Z</time></trkpt><trkpt lat="42.97869" lon="2.454605"><ele>695.8</ele><time>2026-04-26T10:15:03.728Z</time></trkpt><trkpt lat="42.9787933" lon="2.4544983"><ele>694.6</ele><time>2026-04-26T10:15:04.729Z</time></trkpt><trkpt lat="42.9788867" lon="2.4544"><ele>693.4</ele><time>2026-04-26T10:15:05.732Z</time></trkpt><trkpt lat="42.9789733" lon="2.4543217"><ele>692.1999999999999</ele><time>2026-04-26T10:15:06.728Z</time></trkpt><trkpt lat="42.9790517" lon="2.4542483"><ele>691.0</ele><time>2026-04-26T10:15:07.731Z</time></trkpt><trkpt lat="42.9791283" lon="2.454185"><ele>689.6666666666667</ele><time>2026-04-26T10:15:08.728Z</time></trkpt><trkpt lat="42.9791967" lon="2.454125"><ele>688.3333333333334</ele><time>2026-04-26T10:15:09.729Z</time></trkpt><trkpt lat="42.9792617" lon="2.4540633"><ele>687.0</ele><time>2026-04-26T10:15:10.728Z</time></trkpt><trkpt lat="42.9793267" lon="2.4539983"><ele>685.6666666666666</ele><time>2026-04-26T10:15:11.729Z</time></trkpt><trkpt lat="42.9793933" lon="2.4539267"><ele>684.3333333333333</ele><time>2026-04-26T10:15:12.728Z</time></trkpt><trkpt lat="42.97946" lon="2.45386"><ele>683.0</ele><time>2026-04-26T10:15:13.729Z</time></trkpt><trkpt lat="42.97953" lon="2.4537883"><ele>683.0</ele><time>2026-04-26T10:15:14.728Z</time></trkpt><trkpt lat="42.9795933" lon="2.4537167"><ele>683.0</ele><time>2026-04-26T10:15:15.729Z</time></trkpt><trkpt lat="42.9796533" lon="2.4536367"><ele>683.0</ele><time>2026-04-26T10:15:16.727Z</time></trkpt><trkpt lat="42.97971" lon="2.4535367"><ele>683.0</ele><time>2026-04-26T10:15:17.73Z</time></trkpt><trkpt lat="42.9797667" lon="2.4534233"><ele>683.0</ele><time>2026-04-26T10:15:18.729Z</time></trkpt><trkpt lat="42.97982" lon="2.4533017"><ele>683.0</ele><time>2026-04-26T10:15:19.727Z</time></trkpt><trkpt lat="42.9798817" lon="2.4531683"><ele>683.0</ele><time>2026-04-26T10:15:20.728Z</time></trkpt><trkpt lat="42.9799483" lon="2.453045"><ele>683.0</ele><time>2026-04-26T10:15:21.727Z</time></trkpt><trkpt lat="42.98002" lon="2.452945"><ele>683.0</ele><time>2026-04-26T10:15:22.728Z</time></trkpt><trkpt lat="42.9800867" lon="2.4528517"><ele>683.0</ele><time>2026-04-26T10:15:23.728Z</time></trkpt><trkpt lat="42.98015" lon="2.4527583"><ele>681.5999999999999</ele><time>2026-04-26T10:15:24.73Z</time></trkpt><trkpt lat="42.9802083" lon="2.4526617"><ele>680.1999999999999</ele><time>2026-04-26T10:15:25.73Z</time></trkpt><trkpt lat="42.9802767" lon="2.4525617"><ele>678.8</ele><time>2026-04-26T10:15:26.728Z</time></trkpt><trkpt lat="42.980355" lon="2.4524667"><ele>677.4</ele><time>2026-04-26T10:15:27.728Z</time></trkpt><trkpt lat="42.98044" lon="2.4523933"><ele>676.0</ele><time>2026-04-26T10:15:28.73Z</time></trkpt><trkpt lat="42.9805267" lon="2.452325"><ele>676.0</ele><time>2026-04-26T10:15:29.728Z</time></trkpt><trkpt lat="42.9806117" lon="2.4522717"><ele>676.0</ele><time>2026-04-26T10:15:30.727Z</time></trkpt><trkpt lat="42.9806983" lon="2.4522233"><ele>676.0</ele><time>2026-04-26T10:15:31.729Z</time></trkpt><trkpt lat="42.9807767" lon="2.4522"><ele>676.0</ele><time>2026-04-26T10:15:32.729Z</time></trkpt><trkpt lat="42.9808617" lon="2.4521883"><ele>676.0</ele><time>2026-04-26T10:15:33.728Z</time></trkpt><trkpt lat="42.9809467" lon="2.4521817"><ele>676.0</ele><time>2026-04-26T10:15:34.728Z</time></trkpt><trkpt lat="42.9810283" lon="2.4521733"><ele>677.0</ele><time>2026-04-26T10:15:35.729Z</time></trkpt><trkpt lat="42.9811017" lon="2.452155"><ele>678.0</ele><time>2026-04-26T10:15:36.73Z</time></trkpt><trkpt lat="42.98118" lon="2.4521233"><ele>679.0</ele><time>2026-04-26T10:15:37.728Z</time></trkpt><trkpt lat="42.9812717" lon="2.4520783"><ele>680.0</ele><time>2026-04-26T10:15:38.728Z</time></trkpt><trkpt lat="42.9813633" lon="2.4520217"><ele>681.0</ele><time>2026-04-26T10:15:39.731Z</time></trkpt><trkpt lat="42.981455" lon="2.451965"><ele>679.6666666666666</ele><time>2026-04-26T10:15:40.732Z</time></trkpt><trkpt lat="42.9815433" lon="2.4519117"><ele>678.3333333333334</ele><time>2026-04-26T10:15:41.731Z</time></trkpt><trkpt lat="42.9816283" lon="2.45186"><ele>677.0</ele><time>2026-04-26T10:15:42.727Z</time></trkpt><trkpt lat="42.9817033" lon="2.4518083"><ele>675.6666666666667</ele><time>2026-04-26T10:15:43.728Z</time></trkpt><trkpt lat="42.9817733" lon="2.4517517"><ele>674.3333333333334</ele><time>2026-04-26T10:15:44.731Z</time></trkpt><trkpt lat="42.9818317" lon="2.4516817"><ele>673.0</ele><time>2026-04-26T10:15:45.73Z</time></trkpt><trkpt lat="42.9818767" lon="2.45159"><ele>673.0</ele><time>2026-04-26T10:15:46.73Z</time></trkpt><trkpt lat="42.9819183" lon="2.4515067"><ele>673.0</ele><time>2026-04-26T10:15:47.728Z</time></trkpt><trkpt lat="42.981955" lon="2.4514233"><ele>673.0</ele><time>2026-04-26T10:15:48.729Z</time></trkpt><trkpt lat="42.981995" lon="2.4513417"><ele>673.0</ele><time>2026-04-26T10:15:49.729Z</time></trkpt><trkpt lat="42.9820517" lon="2.4512833"><ele>673.0</ele><time>2026-04-26T10:15:50.729Z</time></trkpt><trkpt lat="42.9821217" lon="2.45123"><ele>673.0</ele><time>2026-04-26T10:15:51.73Z</time></trkpt><trkpt lat="42.98221" lon="2.451175"><ele>667.75</ele><time>2026-04-26T10:15:52.728Z</time></trkpt><trkpt lat="42.98231" lon="2.4511"><ele>662.5</ele><time>2026-04-26T10:15:53.728Z</time></trkpt><trkpt lat="42.9824133" lon="2.4510283"><ele>657.25</ele><time>2026-04-26T10:15:54.73Z</time></trkpt><trkpt lat="42.9825167" lon="2.45096"><ele>652.0</ele><time>2026-04-26T10:15:55.731Z</time></trkpt><trkpt lat="42.98261" lon="2.4508917"><ele>651.6</ele><time>2026-04-26T10:15:56.728Z</time></trkpt><trkpt lat="42.9827" lon="2.45084"><ele>651.2</ele><time>2026-04-26T10:15:57.729Z</time></trkpt><trkpt lat="42.9827933" lon="2.4508"><ele>650.8</ele><time>2026-04-26T10:15:58.73Z</time></trkpt><trkpt lat="42.982885" lon="2.4507767"><ele>650.4</ele><time>2026-04-26T10:15:59.73Z</time></trkpt><trkpt lat="42.9829833" lon="2.45075"><ele>650.0</ele><time>2026-04-26T10:16:00.728Z</time></trkpt><trkpt lat="42.983085" lon="2.4507433"><ele>650.0</ele><time>2026-04-26T10:16:01.73Z</time></trkpt><trkpt lat="42.9831883" lon="2.450745"><ele>650.0</ele><time>2026-04-26T10:16:02.729Z</time></trkpt><trkpt lat="42.9832867" lon="2.45076"><ele>650.0</ele><time>2026-04-26T10:16:03.729Z</time></trkpt><trkpt lat="42.9833783" lon="2.45078"><ele>650.0</ele><time>2026-04-26T10:16:04.728Z</time></trkpt><trkpt lat="42.98346" lon="2.4507867"><ele>650.0</ele><time>2026-04-26T10:16:05.728Z</time></trkpt><trkpt lat="42.9835317" lon="2.4507817"><ele>650.0</ele><time>2026-04-26T10:16:06.729Z</time></trkpt><trkpt lat="42.983615" lon="2.4506583"><ele>649.6</ele><time>2026-04-26T10:16:08.73Z</time></trkpt><trkpt lat="42.983655" lon="2.45058"><ele>649.2</ele><time>2026-04-26T10:16:09.728Z</time></trkpt><trkpt lat="42.983745" lon="2.4504917"><ele>648.8</ele><time>2026-04-26T10:16:11.73Z</time></trkpt><trkpt lat="42.9838733" lon="2.4505183"><ele>648.4</ele><time>2026-04-26T10:16:13.731Z</time></trkpt><trkpt lat="42.98395" lon="2.45056"><ele>648.0</ele><time>2026-04-26T10:16:14.729Z</time></trkpt><trkpt lat="42.9840383" lon="2.450595"><ele>648.0</ele><time>2026-04-26T10:16:15.729Z</time></trkpt><trkpt lat="42.9841333" lon="2.4506317"><ele>648.0</ele><time>2026-04-26T10:16:16.727Z</time></trkpt><trkpt lat="42.9842417" lon="2.45064"><ele>648.0</ele><time>2026-04-26T10:16:17.728Z</time></trkpt><trkpt lat="42.984345" lon="2.4506433"><ele>648.0</ele><time>2026-04-26T10:16:18.728Z</time></trkpt><trkpt lat="42.9844467" lon="2.4506483"><ele>648.0</ele><time>2026-04-26T10:16:19.728Z</time></trkpt><trkpt lat="42.9845567" lon="2.450645"><ele>646.5999999999999</ele><time>2026-04-26T10:16:20.732Z</time></trkpt><trkpt lat="42.9846617" lon="2.4506817"><ele>645.1999999999999</ele><time>2026-04-26T10:16:21.729Z</time></trkpt><trkpt lat="42.9847383" lon="2.4507733"><ele>643.8</ele><time>2026-04-26T10:16:22.729Z</time></trkpt><trkpt lat="42.9848" lon="2.4509"><ele>642.4</ele><time>2026-04-26T10:16:23.728Z</time></trkpt><trkpt lat="42.9848617" lon="2.4510367"><ele>641.0</ele><time>2026-04-26T10:16:24.728Z</time></trkpt><trkpt lat="42.98493" lon="2.4511783"><ele>640.5</ele><time>2026-04-26T10:16:25.729Z</time></trkpt><trkpt lat="42.985005" lon="2.4513233"><ele>640.0</ele><time>2026-04-26T10:16:26.731Z</time></trkpt><trkpt lat="42.98508" lon="2.4514667"><ele>639.5</ele><time>2026-04-26T10:16:27.728Z</time></trkpt><trkpt lat="42.9851667" lon="2.4516017"><ele>639.0</ele><time>2026-04-26T10:16:28.729Z</time></trkpt><trkpt lat="42.98526" lon="2.4517217"><ele>639.0</ele><time>2026-04-26T10:16:29.728Z</time></trkpt><trkpt lat="42.9853583" lon="2.4518283"><ele>639.0</ele><time>2026-04-26T10:16:30.728Z</time></trkpt><trkpt lat="42.9854533" lon="2.4519233"><ele>639.0</ele><time>2026-04-26T10:16:31.729Z</time></trkpt><trkpt lat="42.9855533" lon="2.4519983"><ele>639.0</ele><time>2026-04-26T10:16:32.729Z</time></trkpt><trkpt lat="42.9856583" lon="2.45204"><ele>639.0</ele><time>2026-04-26T10:16:33.728Z</time></trkpt><trkpt lat="42.9857717" lon="2.45207"><ele>639.0</ele><time>2026-04-26T10:16:34.728Z</time></trkpt><trkpt lat="42.985875" lon="2.4520883"><ele>639.0</ele><time>2026-04-26T10:16:35.728Z</time></trkpt><trkpt lat="42.98597" lon="2.45211"><ele>639.0</ele><time>2026-04-26T10:16:36.729Z</time></trkpt><trkpt lat="42.9860517" lon="2.4521317"><ele>639.0</ele><time>2026-04-26T10:16:37.728Z</time></trkpt><trkpt lat="42.986125" lon="2.4521517"><ele>639.1666666666666</ele><time>2026-04-26T10:16:38.728Z</time></trkpt><trkpt lat="42.9861917" lon="2.4521867"><ele>639.3333333333334</ele><time>2026-04-26T10:16:39.729Z</time></trkpt><trkpt lat="42.98626" lon="2.4522283"><ele>639.5</ele><time>2026-04-26T10:16:40.729Z</time></trkpt><trkpt lat="42.98632" lon="2.4522883"><ele>639.6666666666667</ele><time>2026-04-26T10:16:41.728Z</time></trkpt><trkpt lat="42.9864033" lon="2.45234"><ele>639.8333333333334</ele><time>2026-04-26T10:16:42.732Z</time></trkpt><trkpt lat="42.9864867" lon="2.4524033"><ele>640.0</ele><time>2026-04-26T10:16:43.728Z</time></trkpt><trkpt lat="42.9865667" lon="2.4524617"><ele>640.0</ele><time>2026-04-26T10:16:44.729Z</time></trkpt><trkpt lat="42.9866367" lon="2.4525217"><ele>640.0</ele><time>2026-04-26T10:16:45.728Z</time></trkpt><trkpt lat="42.9867083" lon="2.4525733"><ele>640.0</ele><time>2026-04-26T10:16:46.728Z</time></trkpt><trkpt lat="42.9867717" lon="2.4526233"><ele>640.0</ele><time>2026-04-26T10:16:47.727Z</time></trkpt><trkpt lat="42.98683" lon="2.4526733"><ele>640.0</ele><time>2026-04-26T10:16:48.728Z</time></trkpt><trkpt lat="42.9869217" lon="2.4527767"><ele>640.0</ele><time>2026-04-26T10:16:50.73Z</time></trkpt><trkpt lat="42.98702" lon="2.4528183"><ele>640.6666666666667</ele><time>2026-04-26T10:16:52.727Z</time></trkpt><trkpt lat="42.9871317" lon="2.452765"><ele>641.3333333333334</ele><time>2026-04-26T10:16:54.73Z</time></trkpt><trkpt lat="42.9871817" lon="2.4526883"><ele>642.0</ele><time>2026-04-26T10:16:55.73Z</time></trkpt><trkpt lat="42.9872417" lon="2.452615"><ele>642.6666666666666</ele><time>2026-04-26T10:16:56.728Z</time></trkpt><trkpt lat="42.9873" lon="2.4525633"><ele>643.3333333333333</ele><time>2026-04-26T10:16:57.73Z</time></trkpt><trkpt lat="42.9873583" lon="2.4525283"><ele>644.0</ele><time>2026-04-26T10:16:58.728Z</time></trkpt><trkpt lat="42.9874883" lon="2.4524917"><ele>645.0</ele><time>2026-04-26T10:17:00.728Z</time></trkpt><trkpt lat="42.987575" lon="2.4524817"><ele>646.0</ele><time>2026-04-26T10:17:01.728Z</time></trkpt><trkpt lat="42.987665" lon="2.4524667"><ele>647.0</ele><time>2026-04-26T10:17:02.727Z</time></trkpt><trkpt lat="42.9877567" lon="2.4524583"><ele>648.0</ele><time>2026-04-26T10:17:03.729Z</time></trkpt><trkpt lat="42.987845" lon="2.45245"><ele>649.0</ele><time>2026-04-26T10:17:04.728Z</time></trkpt><trkpt lat="42.9879383" lon="2.452425"><ele>649.0</ele><time>2026-04-26T10:17:05.729Z</time></trkpt><trkpt lat="42.9880383" lon="2.4523833"><ele>649.0</ele><time>2026-04-26T10:17:06.731Z</time></trkpt><trkpt lat="42.9881417" lon="2.4523317"><ele>649.0</ele><time>2026-04-26T10:17:07.728Z</time></trkpt><trkpt lat="42.9882483" lon="2.45228"><ele>649.0</ele><time>2026-04-26T10:17:08.728Z</time></trkpt><trkpt lat="42.9883517" lon="2.4522283"><ele>649.0</ele><time>2026-04-26T10:17:09.731Z</time></trkpt><trkpt lat="42.9884583" lon="2.4521667"><ele>648.6</ele><time>2026-04-26T10:17:10.73Z</time></trkpt><trkpt lat="42.9885633" lon="2.4520933"><ele>648.2</ele><time>2026-04-26T10:17:11.731Z</time></trkpt><trkpt lat="42.9886633" lon="2.4520233"><ele>647.8000000000001</ele><time>2026-04-26T10:17:12.729Z</time></trkpt><trkpt lat="42.9887583" lon="2.4519633"><ele>647.4000000000001</ele><time>2026-04-26T10:17:13.73Z</time></trkpt><trkpt lat="42.9888533" lon="2.45193"><ele>647.0</ele><time>2026-04-26T10:17:14.728Z</time></trkpt><trkpt lat="42.9889533" lon="2.4519083"><ele>647.0</ele><time>2026-04-26T10:17:15.728Z</time></trkpt><trkpt lat="42.9890533" lon="2.45189"><ele>647.0</ele><time>2026-04-26T10:17:16.729Z</time></trkpt><trkpt lat="42.989145" lon="2.45187"><ele>647.0</ele><time>2026-04-26T10:17:17.728Z</time></trkpt><trkpt lat="42.989235" lon="2.45186"><ele>647.0</ele><time>2026-04-26T10:17:18.73Z</time></trkpt><trkpt lat="42.9893167" lon="2.4518667"><ele>647.0</ele><time>2026-04-26T10:17:19.728Z</time></trkpt><trkpt lat="42.989385" lon="2.4519133"><ele>647.0</ele><time>2026-04-26T10:17:20.728Z</time></trkpt><trkpt lat="42.9894433" lon="2.451975"><ele>648.2</ele><time>2026-04-26T10:17:21.733Z</time></trkpt><trkpt lat="42.9895133" lon="2.4520283"><ele>649.4000000000001</ele><time>2026-04-26T10:17:22.729Z</time></trkpt><trkpt lat="42.9896" lon="2.4520617"><ele>650.5999999999999</ele><time>2026-04-26T10:17:23.731Z</time></trkpt><trkpt lat="42.9897033" lon="2.4520733"><ele>651.8</ele><time>2026-04-26T10:17:24.73Z</time></trkpt><trkpt lat="42.9898067" lon="2.4520617"><ele>653.0</ele><time>2026-04-26T10:17:25.729Z</time></trkpt><trkpt lat="42.989915" lon="2.4520317"><ele>653.75</ele><time>2026-04-26T10:17:26.731Z</time></trkpt><trkpt lat="42.990025" lon="2.4519917"><ele>654.5</ele><time>2026-04-26T10:17:27.731Z</time></trkpt><trkpt lat="42.99014" lon="2.4519467"><ele>655.25</ele><time>2026-04-26T10:17:28.729Z</time></trkpt><trkpt lat="42.9902533" lon="2.45191"><ele>656.0</ele><time>2026-04-26T10:17:29.731Z</time></trkpt><trkpt lat="42.9903667" lon="2.4518883"><ele>656.0</ele><time>2026-04-26T10:17:30.73Z</time></trkpt><trkpt lat="42.9904733" lon="2.4518717"><ele>656.0</ele><time>2026-04-26T10:17:31.728Z</time></trkpt><trkpt lat="42.9905817" lon="2.4518433"><ele>656.0</ele><time>2026-04-26T10:17:32.728Z</time></trkpt><trkpt lat="42.9906983" lon="2.4517983"><ele>656.0</ele><time>2026-04-26T10:17:33.729Z</time></trkpt><trkpt lat="42.990795" lon="2.451745"><ele>656.0</ele><time>2026-04-26T10:17:34.727Z</time></trkpt><trkpt lat="42.9909033" lon="2.451685"><ele>655.0</ele><time>2026-04-26T10:17:35.729Z</time></trkpt><trkpt lat="42.99101" lon="2.45162"><ele>654.0</ele><time>2026-04-26T10:17:36.728Z</time></trkpt><trkpt lat="42.9911217" lon="2.4515583"><ele>653.0</ele><time>2026-04-26T10:17:37.728Z</time></trkpt><trkpt lat="42.9912267" lon="2.451495"><ele>652.0</ele><time>2026-04-26T10:17:38.729Z</time></trkpt><trkpt lat="42.9913317" lon="2.4514167"><ele>652.0</ele><time>2026-04-26T10:17:39.728Z</time></trkpt><trkpt lat="42.991435" lon="2.4513117"><ele>652.0</ele><time>2026-04-26T10:17:40.728Z</time></trkpt><trkpt lat="42.9915317" lon="2.4511983"><ele>652.0</ele><time>2026-04-26T10:17:41.727Z</time></trkpt><trkpt lat="42.99162" lon="2.4510883"><ele>652.0</ele><time>2026-04-26T10:17:42.729Z</time></trkpt><trkpt lat="42.9917033" lon="2.4509767"><ele>653.5</ele><time>2026-04-26T10:17:43.727Z</time></trkpt><trkpt lat="42.9917783" lon="2.450855"><ele>655.0</ele><time>2026-04-26T10:17:44.728Z</time></trkpt><trkpt lat="42.9918517" lon="2.4507233"><ele>656.5</ele><time>2026-04-26T10:17:45.728Z</time></trkpt><trkpt lat="42.991935" lon="2.45059"><ele>658.0</ele><time>2026-04-26T10:17:46.728Z</time></trkpt><trkpt lat="42.99201" lon="2.45046"><ele>658.75</ele><time>2026-04-26T10:17:47.728Z</time></trkpt><trkpt lat="42.99209" lon="2.4503433"><ele>659.5</ele><time>2026-04-26T10:17:48.728Z</time></trkpt><trkpt lat="42.9921767" lon="2.450245"><ele>660.25</ele><time>2026-04-26T10:17:49.728Z</time></trkpt><trkpt lat="42.9922717" lon="2.4501633"><ele>661.0</ele><time>2026-04-26T10:17:50.728Z</time></trkpt><trkpt lat="42.9923717" lon="2.4500933"><ele>661.0</ele><time>2026-04-26T10:17:51.728Z</time></trkpt><trkpt lat="42.9924817" lon="2.4500367"><ele>661.0</ele><time>2026-04-26T10:17:52.728Z</time></trkpt><trkpt lat="42.99259" lon="2.44999"><ele>661.0</ele><time>2026-04-26T10:17:53.728Z</time></trkpt><trkpt lat="42.9926933" lon="2.4499317"><ele>661.0</ele><time>2026-04-26T10:17:54.728Z</time></trkpt><trkpt lat="42.9927883" lon="2.4498683"><ele>661.0</ele><time>2026-04-26T10:17:55.727Z</time></trkpt><trkpt lat="42.9928633" lon="2.4497917"><ele>662.5999999999999</ele><time>2026-04-26T10:17:56.728Z</time></trkpt><trkpt lat="42.9929117" lon="2.4496983"><ele>664.2</ele><time>2026-04-26T10:17:57.728Z</time></trkpt><trkpt lat="42.992965" lon="2.449595"><ele>665.8</ele><time>2026-04-26T10:17:58.728Z</time></trkpt><trkpt lat="42.9930167" lon="2.4494967"><ele>667.4000000000001</ele><time>2026-04-26T10:17:59.728Z</time></trkpt><trkpt lat="42.9930683" lon="2.449395"><ele>669.0</ele><time>2026-04-26T10:18:00.727Z</time></trkpt><trkpt lat="42.9931233" lon="2.4492867"><ele>669.0</ele><time>2026-04-26T10:18:01.73Z</time></trkpt><trkpt lat="42.9931883" lon="2.449185"><ele>669.0</ele><time>2026-04-26T10:18:02.73Z</time></trkpt><trkpt lat="42.9932567" lon="2.4490833"><ele>669.0</ele><time>2026-04-26T10:18:03.728Z</time></trkpt><trkpt lat="42.9933333" lon="2.4489967"><ele>669.0</ele><time>2026-04-26T10:18:04.729Z</time></trkpt><trkpt lat="42.9934033" lon="2.4488933"><ele>669.0</ele><time>2026-04-26T10:18:05.73Z</time></trkpt><trkpt lat="42.9934667" lon="2.448775"><ele>671.2</ele><time>2026-04-26T10:18:06.73Z</time></trkpt><trkpt lat="42.9935333" lon="2.44865"><ele>673.4000000000001</ele><time>2026-04-26T10:18:07.731Z</time></trkpt><trkpt lat="42.9936" lon="2.4485283"><ele>675.6</ele><time>2026-04-26T10:18:08.729Z</time></trkpt><trkpt lat="42.9936567" lon="2.4484033"><ele>677.8</ele><time>2026-04-26T10:18:09.729Z</time></trkpt><trkpt lat="42.99372" lon="2.4482883"><ele>680.0</ele><time>2026-04-26T10:18:10.728Z</time></trkpt><trkpt lat="42.993785" lon="2.4481717"><ele>680.0</ele><time>2026-04-26T10:18:11.729Z</time></trkpt><trkpt lat="42.99386" lon="2.44808"><ele>680.0</ele><time>2026-04-26T10:18:12.728Z</time></trkpt><trkpt lat="42.9939383" lon="2.448005"><ele>680.0</ele><time>2026-04-26T10:18:13.731Z</time></trkpt><trkpt lat="42.9940233" lon="2.447925"><ele>680.0</ele><time>2026-04-26T10:18:14.73Z</time></trkpt><trkpt lat="42.9941133" lon="2.44785"><ele>680.0</ele><time>2026-04-26T10:18:15.728Z</time></trkpt><trkpt lat="42.9942067" lon="2.4477717"><ele>681.8333333333333</ele><time>2026-04-26T10:18:16.728Z</time></trkpt><trkpt lat="42.9942917" lon="2.4477083"><ele>683.6666666666666</ele><time>2026-04-26T10:18:17.729Z</time></trkpt><trkpt lat="42.9943733" lon="2.4476517"><ele>685.5</ele><time>2026-04-26T10:18:18.727Z</time></trkpt><trkpt lat="42.99445" lon="2.4476067"><ele>687.3333333333334</ele><time>2026-04-26T10:18:19.728Z</time></trkpt><trkpt lat="42.9945317" lon="2.44757"><ele>689.1666666666667</ele><time>2026-04-26T10:18:20.73Z</time></trkpt><trkpt lat="42.9946117" lon="2.44754"><ele>691.0</ele><time>2026-04-26T10:18:21.728Z</time></trkpt><trkpt lat="42.9946967" lon="2.4475033"><ele>691.0</ele><time>2026-04-26T10:18:22.73Z</time></trkpt><trkpt lat="42.994785" lon="2.4474617"><ele>691.0</ele><time>2026-04-26T10:18:23.731Z</time></trkpt><trkpt lat="42.99488" lon="2.4474367"><ele>691.0</ele><time>2026-04-26T10:18:24.728Z</time></trkpt><trkpt lat="42.9949883" lon="2.4474167"><ele>691.0</ele><time>2026-04-26T10:18:25.727Z</time></trkpt><trkpt lat="42.9951017" lon="2.4474"><ele>691.0</ele><time>2026-04-26T10:18:26.729Z</time></trkpt><trkpt lat="42.9952083" lon="2.4473767"><ele>692.8</ele><time>2026-04-26T10:18:27.729Z</time></trkpt><trkpt lat="42.9953167" lon="2.447355"><ele>694.5999999999999</ele><time>2026-04-26T10:18:28.73Z</time></trkpt><trkpt lat="42.99543" lon="2.447335"><ele>696.4</ele><time>2026-04-26T10:18:29.73Z</time></trkpt><trkpt lat="42.9955417" lon="2.4473233"><ele>698.2</ele><time>2026-04-26T10:18:30.729Z</time></trkpt><trkpt lat="42.9956483" lon="2.4473117"><ele>700.0</ele><time>2026-04-26T10:18:31.729Z</time></trkpt><trkpt lat="42.9957517" lon="2.447295"><ele>701.25</ele><time>2026-04-26T10:18:32.731Z</time></trkpt><trkpt lat="42.995855" lon="2.447275"><ele>702.5</ele><time>2026-04-26T10:18:33.73Z</time></trkpt><trkpt lat="42.9959683" lon="2.4472583"><ele>703.75</ele><time>2026-04-26T10:18:34.73Z</time></trkpt><trkpt lat="42.9960883" lon="2.44724"><ele>705.0</ele><time>2026-04-26T10:18:35.729Z</time></trkpt><trkpt lat="42.9962067" lon="2.44722"><ele>705.0</ele><time>2026-04-26T10:18:36.731Z</time></trkpt><trkpt lat="42.9963233" lon="2.4472033"><ele>705.0</ele><time>2026-04-26T10:18:37.729Z</time></trkpt><trkpt lat="42.9964367" lon="2.4471967"><ele>705.0</ele><time>2026-04-26T10:18:38.729Z</time></trkpt><trkpt lat="42.99654" lon="2.4472017"><ele>705.0</ele><time>2026-04-26T10:18:39.729Z</time></trkpt><trkpt lat="42.99663" lon="2.4472083"><ele>705.0</ele><time>2026-04-26T10:18:40.728Z</time></trkpt><trkpt lat="42.9967133" lon="2.4472067"><ele>705.2857142857142</ele><time>2026-04-26T10:18:41.73Z</time></trkpt><trkpt lat="42.9967833" lon="2.4471883"><ele>705.5714285714286</ele><time>2026-04-26T10:18:42.729Z</time></trkpt><trkpt lat="42.9968433" lon="2.447155"><ele>705.8571428571429</ele><time>2026-04-26T10:18:43.732Z</time></trkpt><trkpt lat="42.9969017" lon="2.4471067"><ele>706.1428571428571</ele><time>2026-04-26T10:18:44.729Z</time></trkpt><trkpt lat="42.9969667" lon="2.4470533"><ele>706.4285714285714</ele><time>2026-04-26T10:18:45.729Z</time></trkpt><trkpt lat="42.9970317" lon="2.4470133"><ele>706.7142857142857</ele><time>2026-04-26T10:18:46.727Z</time></trkpt><trkpt lat="42.997095" lon="2.4469883"><ele>707.0</ele><time>2026-04-26T10:18:47.729Z</time></trkpt><trkpt lat="42.9971617" lon="2.4469717"><ele>708.4000000000001</ele><time>2026-04-26T10:18:48.728Z</time></trkpt><trkpt lat="42.9972267" lon="2.4469667"><ele>709.8000000000001</ele><time>2026-04-26T10:18:49.727Z</time></trkpt><trkpt lat="42.997345" lon="2.4469883"><ele>711.2</ele><time>2026-04-26T10:18:51.727Z</time></trkpt><trkpt lat="42.9974517" lon="2.4470167"><ele>712.6</ele><time>2026-04-26T10:18:53.729Z</time></trkpt><trkpt lat="42.997515" lon="2.4470133"><ele>714.0</ele><time>2026-04-26T10:18:54.727Z</time></trkpt><trkpt lat="42.9976367" lon="2.4470033"><ele>718.2</ele><time>2026-04-26T10:18:56.73Z</time></trkpt><trkpt lat="42.997705" lon="2.44701"><ele>722.4000000000001</ele><time>2026-04-26T10:18:57.729Z</time></trkpt><trkpt lat="42.9977683" lon="2.4470383"><ele>726.6</ele><time>2026-04-26T10:18:58.729Z</time></trkpt><trkpt lat="42.997885" lon="2.4470783"><ele>730.8</ele><time>2026-04-26T10:19:00.729Z</time></trkpt><trkpt lat="42.9979567" lon="2.4470183"><ele>735.0</ele><time>2026-04-26T10:19:02.731Z</time></trkpt><trkpt lat="42.9980067" lon="2.44686"><ele>735.0</ele><time>2026-04-26T10:19:04.73Z</time></trkpt><trkpt lat="42.9980233" lon="2.446775"><ele>735.0</ele><time>2026-04-26T10:19:05.731Z</time></trkpt><trkpt lat="42.9980467" lon="2.4466933"><ele>735.0</ele><time>2026-04-26T10:19:06.73Z</time></trkpt><trkpt lat="42.9980767" lon="2.4466017"><ele>735.0</ele><time>2026-04-26T10:19:07.731Z</time></trkpt><trkpt lat="42.99811" lon="2.446505"><ele>735.0</ele><time>2026-04-26T10:19:08.731Z</time></trkpt><trkpt lat="42.998145" lon="2.4464067"><ele>735.0</ele><time>2026-04-26T10:19:09.73Z</time></trkpt><trkpt lat="42.9981783" lon="2.44631"><ele>735.0</ele><time>2026-04-26T10:19:10.729Z</time></trkpt><trkpt lat="42.998215" lon="2.44621"><ele>735.5</ele><time>2026-04-26T10:19:11.731Z</time></trkpt><trkpt lat="42.9982467" lon="2.44611"><ele>736.0</ele><time>2026-04-26T10:19:12.732Z</time></trkpt><trkpt lat="42.9982833" lon="2.4460167"><ele>736.5</ele><time>2026-04-26T10:19:13.731Z</time></trkpt><trkpt lat="42.9983317" lon="2.4459317"><ele>737.0</ele><time>2026-04-26T10:19:14.729Z</time></trkpt><trkpt lat="42.998385" lon="2.4458483"><ele>737.5</ele><time>2026-04-26T10:19:15.729Z</time></trkpt><trkpt lat="42.99844" lon="2.44576"><ele>738.0</ele><time>2026-04-26T10:19:16.731Z</time></trkpt><trkpt lat="42.9984917" lon="2.4456683"><ele>742.3333333333334</ele><time>2026-04-26T10:19:17.729Z</time></trkpt><trkpt lat="42.9985367" lon="2.4455833"><ele>746.6666666666666</ele><time>2026-04-26T10:19:18.727Z</time></trkpt><trkpt lat="42.99859" lon="2.445485"><ele>751.0</ele><time>2026-04-26T10:19:19.73Z</time></trkpt><trkpt lat="42.99864" lon="2.445395"><ele>755.3333333333333</ele><time>2026-04-26T10:19:20.73Z</time></trkpt><trkpt lat="42.9986783" lon="2.4452983"><ele>759.6666666666666</ele><time>2026-04-26T10:19:21.728Z</time></trkpt><trkpt lat="42.9987167" lon="2.44521"><ele>764.0</ele><time>2026-04-26T10:19:22.728Z</time></trkpt><trkpt lat="42.998755" lon="2.4451317"><ele>764.0</ele><time>2026-04-26T10:19:23.728Z</time></trkpt><trkpt lat="42.9987933" lon="2.4450383"><ele>764.0</ele><time>2026-04-26T10:19:24.731Z</time></trkpt><trkpt lat="42.99883" lon="2.444925"><ele>764.0</ele><time>2026-04-26T10:19:25.73Z</time></trkpt><trkpt lat="42.9988667" lon="2.4448017"><ele>764.0</ele><time>2026-04-26T10:19:26.73Z</time></trkpt><trkpt lat="42.9988983" lon="2.4446817"><ele>764.0</ele><time>2026-04-26T10:19:27.728Z</time></trkpt><trkpt lat="42.99892" lon="2.4445667"><ele>764.0</ele><time>2026-04-26T10:19:28.729Z</time></trkpt><trkpt lat="42.998935" lon="2.4444533"><ele>764.6666666666666</ele><time>2026-04-26T10:19:29.729Z</time></trkpt><trkpt lat="42.9989483" lon="2.4443367"><ele>765.3333333333333</ele><time>2026-04-26T10:19:30.729Z</time></trkpt><trkpt lat="42.9989533" lon="2.44422"><ele>766.0</ele><time>2026-04-26T10:19:31.729Z</time></trkpt><trkpt lat="42.99896" lon="2.4441117"><ele>766.6666666666666</ele><time>2026-04-26T10:19:32.73Z</time></trkpt><trkpt lat="42.998975" lon="2.4440033"><ele>767.3333333333334</ele><time>2026-04-26T10:19:33.728Z</time></trkpt><trkpt lat="42.9989867" lon="2.4438983"><ele>768.0</ele><time>2026-04-26T10:19:34.728Z</time></trkpt><trkpt lat="42.9990083" lon="2.443805"><ele>768.5</ele><time>2026-04-26T10:19:35.73Z</time></trkpt><trkpt lat="42.999035" lon="2.4437183"><ele>769.0</ele><time>2026-04-26T10:19:36.729Z</time></trkpt><trkpt lat="42.9990867" lon="2.44364"><ele>769.5</ele><time>2026-04-26T10:19:37.729Z</time></trkpt><trkpt lat="42.99915" lon="2.44356"><ele>770.0</ele><time>2026-04-26T10:19:38.728Z</time></trkpt><trkpt lat="42.9992083" lon="2.4434867"><ele>770.5</ele><time>2026-04-26T10:19:39.729Z</time></trkpt><trkpt lat="42.9992633" lon="2.4434317"><ele>771.0</ele><time>2026-04-26T10:19:40.729Z</time></trkpt><trkpt lat="42.9993917" lon="2.4434383"><ele>772.1999999999999</ele><time>2026-04-26T10:19:42.728Z</time></trkpt><trkpt lat="42.99947" lon="2.4434783"><ele>773.4</ele><time>2026-04-26T10:19:43.73Z</time></trkpt><trkpt lat="42.9995533" lon="2.443545"><ele>774.6</ele><time>2026-04-26T10:19:44.731Z</time></trkpt><trkpt lat="42.9996333" lon="2.4436383"><ele>775.8</ele><time>2026-04-26T10:19:45.73Z</time></trkpt><trkpt lat="42.999715" lon="2.4437483"><ele>777.0</ele><time>2026-04-26T10:19:46.728Z</time></trkpt><trkpt lat="42.9997983" lon="2.44386"><ele>778.25</ele><time>2026-04-26T10:19:47.728Z</time></trkpt><trkpt lat="42.999885" lon="2.44397"><ele>779.5</ele><time>2026-04-26T10:19:48.728Z</time></trkpt><trkpt lat="42.9999667" lon="2.4440833"><ele>780.75</ele><time>2026-04-26T10:19:49.73Z</time></trkpt><trkpt lat="43.0000367" lon="2.4442067"><ele>782.0</ele><time>2026-04-26T10:19:50.727Z</time></trkpt><trkpt lat="43.0000933" lon="2.4443367"><ele>782.0</ele><time>2026-04-26T10:19:51.727Z</time></trkpt><trkpt lat="43.0001433" lon="2.444465"><ele>782.0</ele><time>2026-04-26T10:19:52.728Z</time></trkpt><trkpt lat="43.00018" lon="2.4445933"><ele>782.0</ele><time>2026-04-26T10:19:53.728Z</time></trkpt><trkpt lat="43.0002083" lon="2.444715"><ele>782.0</ele><time>2026-04-26T10:19:54.73Z</time></trkpt><trkpt lat="43.0002283" lon="2.4448317"><ele>782.0</ele><time>2026-04-26T10:19:55.729Z</time></trkpt><trkpt lat="43.0002433" lon="2.44495"><ele>782.6</ele><time>2026-04-26T10:19:56.729Z</time></trkpt><trkpt lat="43.0002617" lon="2.44507"><ele>783.2</ele><time>2026-04-26T10:19:57.728Z</time></trkpt><trkpt lat="43.0002817" lon="2.4451933"><ele>783.8</ele><time>2026-04-26T10:19:58.728Z</time></trkpt><trkpt lat="43.0003033" lon="2.4453217"><ele>784.4</ele><time>2026-04-26T10:19:59.731Z</time></trkpt><trkpt lat="43.0003217" lon="2.4454533"><ele>785.0</ele><time>2026-04-26T10:20:00.73Z</time></trkpt><trkpt lat="43.000335" lon="2.4455833"><ele>786.2</ele><time>2026-04-26T10:20:01.73Z</time></trkpt><trkpt lat="43.0003433" lon="2.4457033"><ele>787.4</ele><time>2026-04-26T10:20:02.729Z</time></trkpt><trkpt lat="43.0003467" lon="2.445825"><ele>788.5999999999999</ele><time>2026-04-26T10:20:03.73Z</time></trkpt><trkpt lat="43.000345" lon="2.4459617"><ele>789.8</ele><time>2026-04-26T10:20:04.729Z</time></trkpt><trkpt lat="43.00034" lon="2.446105"><ele>791.0</ele><time>2026-04-26T10:20:05.731Z</time></trkpt><trkpt lat="43.000335" lon="2.4462533"><ele>791.5999999999999</ele><time>2026-04-26T10:20:06.729Z</time></trkpt><trkpt lat="43.00033" lon="2.4464"><ele>792.2</ele><time>2026-04-26T10:20:07.729Z</time></trkpt><trkpt lat="43.0003283" lon="2.4465433"><ele>792.8</ele><time>2026-04-26T10:20:08.729Z</time></trkpt><trkpt lat="43.000325" lon="2.4466783"><ele>793.4000000000001</ele><time>2026-04-26T10:20:09.729Z</time></trkpt><trkpt lat="43.0003183" lon="2.446805"><ele>794.0</ele><time>2026-04-26T10:20:10.73Z</time></trkpt><trkpt lat="43.0003083" lon="2.446925"><ele>794.0000000000001</ele><time>2026-04-26T10:20:11.732Z</time></trkpt><trkpt lat="43.0002983" lon="2.4470283"><ele>794.0</ele><time>2026-04-26T10:20:12.731Z</time></trkpt><trkpt lat="43.0002983" lon="2.4471217"><ele>794.0</ele><time>2026-04-26T10:20:13.729Z</time></trkpt><trkpt lat="43.000335" lon="2.4472467"><ele>794.0</ele><time>2026-04-26T10:20:15.728Z</time></trkpt><trkpt lat="43.00044" lon="2.44733"><ele>794.0000000000001</ele><time>2026-04-26T10:20:17.729Z</time></trkpt><trkpt lat="43.0004983" lon="2.4473817"><ele>794.0</ele><time>2026-04-26T10:20:18.727Z</time></trkpt><trkpt lat="43.000555" lon="2.447465"><ele>793.6666666666667</ele><time>2026-04-26T10:20:19.731Z</time></trkpt><trkpt lat="43.0006033" lon="2.4475733"><ele>793.3333333333334</ele><time>2026-04-26T10:20:20.728Z</time></trkpt><trkpt lat="43.0006517" lon="2.4476733"><ele>793.0</ele><time>2026-04-26T10:20:21.728Z</time></trkpt><trkpt lat="43.0007" lon="2.4477633"><ele>792.6666666666667</ele><time>2026-04-26T10:20:22.728Z</time></trkpt><trkpt lat="43.0007433" lon="2.447835"><ele>792.3333333333334</ele><time>2026-04-26T10:20:23.729Z</time></trkpt><trkpt lat="43.0007967" lon="2.447885"><ele>792.0</ele><time>2026-04-26T10:20:24.73Z</time></trkpt><trkpt lat="43.0008583" lon="2.44793"><ele>794.1666666666666</ele><time>2026-04-26T10:20:25.729Z</time></trkpt><trkpt lat="43.000915" lon="2.44798"><ele>796.3333333333333</ele><time>2026-04-26T10:20:26.728Z</time></trkpt><trkpt lat="43.0009717" lon="2.4480217"><ele>798.5</ele><time>2026-04-26T10:20:27.737Z</time></trkpt><trkpt lat="43.001055" lon="2.4480517"><ele>800.6666666666666</ele><time>2026-04-26T10:20:28.728Z</time></trkpt><trkpt lat="43.0011467" lon="2.4480867"><ele>802.8333333333333</ele><time>2026-04-26T10:20:29.729Z</time></trkpt><trkpt lat="43.00124" lon="2.4481233"><ele>805.0</ele><time>2026-04-26T10:20:30.73Z</time></trkpt><trkpt lat="43.0013267" lon="2.4481567"><ele>804.9999999999999</ele><time>2026-04-26T10:20:31.729Z</time></trkpt><trkpt lat="43.0013983" lon="2.44819"><ele>805.0</ele><time>2026-04-26T10:20:32.73Z</time></trkpt><trkpt lat="43.0014917" lon="2.4483"><ele>805.0</ele><time>2026-04-26T10:20:34.728Z</time></trkpt><trkpt lat="43.001515" lon="2.4483967"><ele>805.0</ele><time>2026-04-26T10:20:35.729Z</time></trkpt><trkpt lat="43.0015417" lon="2.4485017"><ele>804.9999999999999</ele><time>2026-04-26T10:20:36.733Z</time></trkpt><trkpt lat="43.0015683" lon="2.4486217"><ele>805.0</ele><time>2026-04-26T10:20:37.731Z</time></trkpt><trkpt lat="43.001605" lon="2.4487367"><ele>804.8333333333333</ele><time>2026-04-26T10:20:38.729Z</time></trkpt><trkpt lat="43.0016483" lon="2.4488367"><ele>804.6666666666666</ele><time>2026-04-26T10:20:39.728Z</time></trkpt><trkpt lat="43.00169" lon="2.4489317"><ele>804.5</ele><time>2026-04-26T10:20:40.734Z</time></trkpt><trkpt lat="43.0017167" lon="2.449025"><ele>804.3333333333333</ele><time>2026-04-26T10:20:41.73Z</time></trkpt><trkpt lat="43.0017217" lon="2.4491233"><ele>804.1666666666666</ele><time>2026-04-26T10:20:42.729Z</time></trkpt><trkpt lat="43.0016967" lon="2.4492333"><ele>804.0</ele><time>2026-04-26T10:20:43.728Z</time></trkpt><trkpt lat="43.0016583" lon="2.4493583"><ele>804.0</ele><time>2026-04-26T10:20:44.728Z</time></trkpt><trkpt lat="43.0016167" lon="2.4495"><ele>804.0</ele><time>2026-04-26T10:20:45.73Z</time></trkpt><trkpt lat="43.00158" lon="2.4496383"><ele>804.0</ele><time>2026-04-26T10:20:46.73Z</time></trkpt><trkpt lat="43.00155" lon="2.4497617"><ele>804.0</ele><time>2026-04-26T10:20:47.727Z</time></trkpt><trkpt lat="43.00152" lon="2.44988"><ele>804.0</ele><time>2026-04-26T10:20:48.729Z</time></trkpt><trkpt lat="43.0014967" lon="2.45"><ele>804.0</ele><time>2026-04-26T10:20:49.727Z</time></trkpt><trkpt lat="43.0014783" lon="2.4501317"><ele>804.0</ele><time>2026-04-26T10:20:50.729Z</time></trkpt><trkpt lat="43.00146" lon="2.4502667"><ele>804.0</ele><time>2026-04-26T10:20:51.729Z</time></trkpt><trkpt lat="43.0014417" lon="2.4504033"><ele>804.0</ele><time>2026-04-26T10:20:52.73Z</time></trkpt><trkpt lat="43.0014317" lon="2.4505533"><ele>804.0</ele><time>2026-04-26T10:20:53.73Z</time></trkpt><trkpt lat="43.0014333" lon="2.45071"><ele>803.0</ele><time>2026-04-26T10:20:54.728Z</time></trkpt><trkpt lat="43.0014333" lon="2.4508583"><ele>802.0</ele><time>2026-04-26T10:20:55.729Z</time></trkpt><trkpt lat="43.0014417" lon="2.4509983"><ele>801.0</ele><time>2026-04-26T10:20:56.73Z</time></trkpt><trkpt lat="43.0014633" lon="2.4511267"><ele>800.0</ele><time>2026-04-26T10:20:57.728Z</time></trkpt><trkpt lat="43.0015067" lon="2.451245"><ele>799.0</ele><time>2026-04-26T10:20:58.73Z</time></trkpt><trkpt lat="43.0015717" lon="2.4513533"><ele>797.75</ele><time>2026-04-26T10:20:59.73Z</time></trkpt><trkpt lat="43.0016583" lon="2.4514517"><ele>796.5</ele><time>2026-04-26T10:21:00.73Z</time></trkpt><trkpt lat="43.0017533" lon="2.4515483"><ele>795.25</ele><time>2026-04-26T10:21:01.728Z</time></trkpt><trkpt lat="43.0018567" lon="2.4516433"><ele>794.0</ele><time>2026-04-26T10:21:02.728Z</time></trkpt><trkpt lat="43.0019667" lon="2.4517367"><ele>797.25</ele><time>2026-04-26T10:21:03.729Z</time></trkpt><trkpt lat="43.002085" lon="2.451825"><ele>800.5</ele><time>2026-04-26T10:21:04.728Z</time></trkpt><trkpt lat="43.0022017" lon="2.4519067"><ele>803.75</ele><time>2026-04-26T10:21:05.73Z</time></trkpt><trkpt lat="43.002295" lon="2.4519983"><ele>807.0</ele><time>2026-04-26T10:21:06.729Z</time></trkpt><trkpt lat="43.002375" lon="2.452105"><ele>806.4000000000001</ele><time>2026-04-26T10:21:07.732Z</time></trkpt><trkpt lat="43.0024517" lon="2.45221"><ele>805.8000000000001</ele><time>2026-04-26T10:21:08.73Z</time></trkpt><trkpt lat="43.00253" lon="2.4523"><ele>805.2</ele><time>2026-04-26T10:21:09.73Z</time></trkpt><trkpt lat="43.0026167" lon="2.45239"><ele>804.6</ele><time>2026-04-26T10:21:10.728Z</time></trkpt><trkpt lat="43.0027033" lon="2.4524983"><ele>804.0</ele><time>2026-04-26T10:21:11.729Z</time></trkpt><trkpt lat="43.002795" lon="2.4526233"><ele>807.5</ele><time>2026-04-26T10:21:12.729Z</time></trkpt><trkpt lat="43.002885" lon="2.4527483"><ele>811.0</ele><time>2026-04-26T10:21:13.729Z</time></trkpt><trkpt lat="43.0029683" lon="2.4528617"><ele>814.5</ele><time>2026-04-26T10:21:14.728Z</time></trkpt><trkpt lat="43.00305" lon="2.4529833"><ele>818.0</ele><time>2026-04-26T10:21:15.729Z</time></trkpt><trkpt lat="43.0031267" lon="2.453115"><ele>818.0</ele><time>2026-04-26T10:21:16.727Z</time></trkpt><trkpt lat="43.0031983" lon="2.4532583"><ele>818.0</ele><time>2026-04-26T10:21:17.729Z</time></trkpt><trkpt lat="43.0032667" lon="2.4534033"><ele>818.0</ele><time>2026-04-26T10:21:18.728Z</time></trkpt><trkpt lat="43.003335" lon="2.453525"><ele>818.0</ele><time>2026-04-26T10:21:19.729Z</time></trkpt><trkpt lat="43.003395" lon="2.4536217"><ele>819.8</ele><time>2026-04-26T10:21:20.729Z</time></trkpt><trkpt lat="43.0034517" lon="2.4537217"><ele>821.5999999999999</ele><time>2026-04-26T10:21:21.727Z</time></trkpt><trkpt lat="43.0035117" lon="2.4538433"><ele>823.4000000000001</ele><time>2026-04-26T10:21:22.728Z</time></trkpt><trkpt lat="43.0035767" lon="2.4539717"><ele>825.2</ele><time>2026-04-26T10:21:23.729Z</time></trkpt><trkpt lat="43.003655" lon="2.4540983"><ele>827.0</ele><time>2026-04-26T10:21:24.729Z</time></trkpt><trkpt lat="43.0037333" lon="2.4542067"><ele>827.0</ele><time>2026-04-26T10:21:25.733Z</time></trkpt><trkpt lat="43.0038117" lon="2.45429"><ele>827.0</ele><time>2026-04-26T10:21:26.729Z</time></trkpt><trkpt lat="43.003895" lon="2.4543567"><ele>827.0</ele><time>2026-04-26T10:21:27.73Z</time></trkpt><trkpt lat="43.00398" lon="2.4544083"><ele>827.0</ele><time>2026-04-26T10:21:28.728Z</time></trkpt><trkpt lat="43.0040683" lon="2.454445"><ele>827.0</ele><time>2026-04-26T10:21:29.729Z</time></trkpt><trkpt lat="43.0041683" lon="2.4544817"><ele>830.6</ele><time>2026-04-26T10:21:30.728Z</time></trkpt><trkpt lat="43.0042567" lon="2.4545333"><ele>834.2</ele><time>2026-04-26T10:21:31.728Z</time></trkpt><trkpt lat="43.0043367" lon="2.4546"><ele>837.8</ele><time>2026-04-26T10:21:32.727Z</time></trkpt><trkpt lat="43.0044067" lon="2.4546817"><ele>841.4</ele><time>2026-04-26T10:21:33.729Z</time></trkpt><trkpt lat="43.004475" lon="2.4547683"><ele>845.0</ele><time>2026-04-26T10:21:34.728Z</time></trkpt><trkpt lat="43.004545" lon="2.4548517"><ele>845.6</ele><time>2026-04-26T10:21:35.728Z</time></trkpt><trkpt lat="43.0046233" lon="2.45492"><ele>846.2</ele><time>2026-04-26T10:21:36.728Z</time></trkpt><trkpt lat="43.0047083" lon="2.4549733"><ele>846.8</ele><time>2026-04-26T10:21:37.728Z</time></trkpt><trkpt lat="43.0048033" lon="2.4550167"><ele>847.4</ele><time>2026-04-26T10:21:38.728Z</time></trkpt><trkpt lat="43.0048983" lon="2.45506"><ele>848.0</ele><time>2026-04-26T10:21:39.73Z</time></trkpt><trkpt lat="43.0049967" lon="2.4551033"><ele>851.75</ele><time>2026-04-26T10:21:40.729Z</time></trkpt><trkpt lat="43.0051017" lon="2.45514"><ele>855.5</ele><time>2026-04-26T10:21:41.729Z</time></trkpt><trkpt lat="43.00521" lon="2.4551833"><ele>859.25</ele><time>2026-04-26T10:21:42.733Z</time></trkpt><trkpt lat="43.005325" lon="2.4552317"><ele>863.0</ele><time>2026-04-26T10:21:43.729Z</time></trkpt><trkpt lat="43.0054383" lon="2.45527"><ele>863.0</ele><time>2026-04-26T10:21:44.731Z</time></trkpt><trkpt lat="43.0055417" lon="2.4552883"><ele>863.0</ele><time>2026-04-26T10:21:45.729Z</time></trkpt><trkpt lat="43.0056483" lon="2.455295"><ele>863.0</ele><time>2026-04-26T10:21:46.729Z</time></trkpt><trkpt lat="43.0057633" lon="2.4552983"><ele>863.0</ele><time>2026-04-26T10:21:47.729Z</time></trkpt><trkpt lat="43.0058917" lon="2.455295"><ele>863.5999999999999</ele><time>2026-04-26T10:21:48.731Z</time></trkpt><trkpt lat="43.00602" lon="2.4552833"><ele>864.1999999999999</ele><time>2026-04-26T10:21:49.731Z</time></trkpt><trkpt lat="43.00613" lon="2.4552567"><ele>864.8</ele><time>2026-04-26T10:21:50.729Z</time></trkpt><trkpt lat="43.0062217" lon="2.45521"><ele>865.4</ele><time>2026-04-26T10:21:51.729Z</time></trkpt><trkpt lat="43.0062883" lon="2.4551633"><ele>866.0</ele><time>2026-04-26T10:21:52.728Z</time></trkpt><trkpt lat="43.0063433" lon="2.4551183"><ele>866.0</ele><time>2026-04-26T10:21:53.73Z</time></trkpt><trkpt lat="43.0064233" lon="2.4550167"><ele>865.9999999999999</ele><time>2026-04-26T10:21:55.73Z</time></trkpt><trkpt lat="43.0065033" lon="2.454915"><ele>865.9999999999999</ele><time>2026-04-26T10:21:57.728Z</time></trkpt><trkpt lat="43.006585" lon="2.454815"><ele>866.0</ele><time>2026-04-26T10:21:59.728Z</time></trkpt><trkpt lat="43.0066333" lon="2.454755"><ele>866.0</ele><time>2026-04-26T10:22:00.729Z</time></trkpt><trkpt lat="43.006685" lon="2.4546867"><ele>863.5999999999999</ele><time>2026-04-26T10:22:01.73Z</time></trkpt><trkpt lat="43.006745" lon="2.4546133"><ele>861.1999999999999</ele><time>2026-04-26T10:22:02.729Z</time></trkpt><trkpt lat="43.0068167" lon="2.4545283"><ele>858.8000000000001</ele><time>2026-04-26T10:22:03.73Z</time></trkpt><trkpt lat="43.00689" lon="2.4544417"><ele>856.4000000000001</ele><time>2026-04-26T10:22:04.729Z</time></trkpt><trkpt lat="43.0069617" lon="2.4543667"><ele>854.0</ele><time>2026-04-26T10:22:05.729Z</time></trkpt><trkpt lat="43.0070367" lon="2.4543017"><ele>854.0000000000001</ele><time>2026-04-26T10:22:06.729Z</time></trkpt><trkpt lat="43.0071117" lon="2.4542367"><ele>854.0</ele><time>2026-04-26T10:22:07.728Z</time></trkpt><trkpt lat="43.007185" lon="2.45417"><ele>854.0</ele><time>2026-04-26T10:22:08.73Z</time></trkpt><trkpt lat="43.0072467" lon="2.45411"><ele>854.0</ele><time>2026-04-26T10:22:09.73Z</time></trkpt><trkpt lat="43.0073017" lon="2.4540583"><ele>854.0000000000001</ele><time>2026-04-26T10:22:10.727Z</time></trkpt><trkpt lat="43.0074083" lon="2.4539933"><ele>854.0</ele><time>2026-04-26T10:22:12.728Z</time></trkpt><trkpt lat="43.0075067" lon="2.4539533"><ele>854.0</ele><time>2026-04-26T10:22:14.729Z</time></trkpt><trkpt lat="43.007595" lon="2.4539283"><ele>854.0000000000001</ele><time>2026-04-26T10:22:16.729Z</time></trkpt><trkpt lat="43.0076967" lon="2.4539067"><ele>854.0000000000001</ele><time>2026-04-26T10:22:18.727Z</time></trkpt><trkpt lat="43.0078117" lon="2.4538583"><ele>854.0</ele><time>2026-04-26T10:22:20.73Z</time></trkpt><trkpt lat="43.0078983" lon="2.45376"><ele>854.0</ele><time>2026-04-26T10:22:22.727Z</time></trkpt><trkpt lat="43.0079683" lon="2.4536683"><ele>852.2</ele><time>2026-04-26T10:22:24.728Z</time></trkpt><trkpt lat="43.0080517" lon="2.4535767"><ele>850.4000000000001</ele><time>2026-04-26T10:22:26.728Z</time></trkpt><trkpt lat="43.0081383" lon="2.4534883"><ele>848.6</ele><time>2026-04-26T10:22:28.729Z</time></trkpt><trkpt lat="43.0082083" lon="2.4534"><ele>846.8</ele><time>2026-04-26T10:22:30.729Z</time></trkpt><trkpt lat="43.0082717" lon="2.453295"><ele>845.0</ele><time>2026-04-26T10:22:32.728Z</time></trkpt><trkpt lat="43.00833" lon="2.4531767"><ele>844.5000000000001</ele><time>2026-04-26T10:22:34.729Z</time></trkpt><trkpt lat="43.0083533" lon="2.4530517"><ele>844.0</ele><time>2026-04-26T10:22:36.728Z</time></trkpt><trkpt lat="43.0083883" lon="2.4529367"><ele>843.5</ele><time>2026-04-26T10:22:38.73Z</time></trkpt><trkpt lat="43.0084367" lon="2.4528583"><ele>843.0</ele><time>2026-04-26T10:22:41.728Z</time></trkpt><trkpt lat="43.0084917" lon="2.45293"><ele>842.5000000000001</ele><time>2026-04-26T10:28:44.729Z</time></trkpt><trkpt lat="43.0085467" lon="2.453025"><ele>842.0</ele><time>2026-04-26T10:28:46.728Z</time></trkpt><trkpt lat="43.0086" lon="2.4531733"><ele>842.0</ele><time>2026-04-26T10:28:48.729Z</time></trkpt><trkpt lat="43.0086467" lon="2.4533283"><ele>842.0</ele><time>2026-04-26T10:28:50.729Z</time></trkpt><trkpt lat="43.0087217" lon="2.453475"><ele>842.0</ele><time>2026-04-26T10:28:52.728Z</time></trkpt><trkpt lat="43.0087633" lon="2.4535483"><ele>842.0</ele><time>2026-04-26T10:28:53.73Z</time></trkpt><trkpt lat="43.0088033" lon="2.453625"><ele>842.0</ele><time>2026-04-26T10:28:54.729Z</time></trkpt><trkpt lat="43.00884" lon="2.4537"><ele>842.0000000000001</ele><time>2026-04-26T10:28:55.729Z</time></trkpt><trkpt lat="43.0088783" lon="2.4537733"><ele>842.0</ele><time>2026-04-26T10:28:56.729Z</time></trkpt><trkpt lat="43.00892" lon="2.45384"><ele>842.0</ele><time>2026-04-26T10:28:57.729Z</time></trkpt><trkpt lat="43.0089983" lon="2.45397"><ele>842.0</ele><time>2026-04-26T10:28:59.728Z</time></trkpt><trkpt lat="43.0090483" lon="2.4540917"><ele>842.0000000000001</ele><time>2026-04-26T10:29:01.729Z</time></trkpt><trkpt lat="43.0091033" lon="2.454195"><ele>842.0</ele><time>2026-04-26T10:29:03.727Z</time></trkpt><trkpt lat="43.00918" lon="2.45425"><ele>839.5714285714287</ele><time>2026-04-26T10:29:05.728Z</time></trkpt><trkpt lat="43.0092633" lon="2.454235"><ele>837.1428571428571</ele><time>2026-04-26T10:29:07.729Z</time></trkpt><trkpt lat="43.0093117" lon="2.4541767"><ele>834.7142857142858</ele><time>2026-04-26T10:29:08.727Z</time></trkpt><trkpt lat="43.0093633" lon="2.4541167"><ele>832.2857142857143</ele><time>2026-04-26T10:29:09.728Z</time></trkpt><trkpt lat="43.00943" lon="2.4540817"><ele>829.8571428571429</ele><time>2026-04-26T10:29:10.728Z</time></trkpt><trkpt lat="43.0094983" lon="2.4540833"><ele>827.4285714285714</ele><time>2026-04-26T10:29:11.727Z</time></trkpt><trkpt lat="43.009565" lon="2.4541133"><ele>825.0</ele><time>2026-04-26T10:29:12.729Z</time></trkpt><trkpt lat="43.0096217" lon="2.4541683"><ele>825.0</ele><time>2026-04-26T10:29:13.728Z</time></trkpt><trkpt lat="43.00967" lon="2.4542367"><ele>825.0</ele><time>2026-04-26T10:29:14.729Z</time></trkpt><trkpt lat="43.009715" lon="2.4543167"><ele>825.0</ele><time>2026-04-26T10:29:15.734Z</time></trkpt><trkpt lat="43.0097583" lon="2.4544017"><ele>825.0</ele><time>2026-04-26T10:29:16.729Z</time></trkpt><trkpt lat="43.0098017" lon="2.4544717"><ele>825.0</ele><time>2026-04-26T10:29:17.731Z</time></trkpt><trkpt lat="43.0098667" lon="2.4545283"><ele>825.0</ele><time>2026-04-26T10:29:18.729Z</time></trkpt><trkpt lat="43.009935" lon="2.4545717"><ele>825.0</ele><time>2026-04-26T10:29:19.729Z</time></trkpt><trkpt lat="43.0100033" lon="2.4546033"><ele>821.0</ele><time>2026-04-26T10:29:20.728Z</time></trkpt><trkpt lat="43.0100683" lon="2.454625"><ele>817.0</ele><time>2026-04-26T10:29:21.729Z</time></trkpt><trkpt lat="43.010145" lon="2.45464"><ele>813.0</ele><time>2026-04-26T10:29:22.727Z</time></trkpt><trkpt lat="43.0102267" lon="2.4546567"><ele>809.0</ele><time>2026-04-26T10:29:23.727Z</time></trkpt><trkpt lat="43.0103067" lon="2.454685"><ele>805.0</ele><time>2026-04-26T10:29:24.729Z</time></trkpt><trkpt lat="43.010385" lon="2.4547117"><ele>801.0</ele><time>2026-04-26T10:29:25.727Z</time></trkpt><trkpt lat="43.010455" lon="2.45475"><ele>801.0</ele><time>2026-04-26T10:29:26.728Z</time></trkpt><trkpt lat="43.0105017" lon="2.4548267"><ele>801.0</ele><time>2026-04-26T10:29:27.728Z</time></trkpt><trkpt lat="43.010545" lon="2.4549233"><ele>801.0</ele><time>2026-04-26T10:29:28.728Z</time></trkpt><trkpt lat="43.01059" lon="2.455015"><ele>801.0</ele><time>2026-04-26T10:29:29.728Z</time></trkpt><trkpt lat="43.0106417" lon="2.4551067"><ele>801.0</ele><time>2026-04-26T10:29:30.727Z</time></trkpt><trkpt lat="43.0106983" lon="2.4551983"><ele>801.0</ele><time>2026-04-26T10:29:31.727Z</time></trkpt><trkpt lat="43.01076" lon="2.4552917"><ele>801.0</ele><time>2026-04-26T10:29:32.729Z</time></trkpt><trkpt lat="43.0108183" lon="2.4553883"><ele>801.0</ele><time>2026-04-26T10:29:33.73Z</time></trkpt><trkpt lat="43.0108733" lon="2.4554917"><ele>801.0</ele><time>2026-04-26T10:29:34.728Z</time></trkpt><trkpt lat="43.0109267" lon="2.4555917"><ele>801.0</ele><time>2026-04-26T10:29:35.728Z</time></trkpt><trkpt lat="43.010985" lon="2.4556867"><ele>801.0</ele><time>2026-04-26T10:29:36.73Z</time></trkpt><trkpt lat="43.01105" lon="2.4557717"><ele>800.0</ele><time>2026-04-26T10:29:37.728Z</time></trkpt><trkpt lat="43.01112" lon="2.4558483"><ele>799.0</ele><time>2026-04-26T10:29:38.73Z</time></trkpt><trkpt lat="43.011195" lon="2.4559083"><ele>798.0</ele><time>2026-04-26T10:29:39.729Z</time></trkpt><trkpt lat="43.011275" lon="2.45596"><ele>797.0</ele><time>2026-04-26T10:29:40.729Z</time></trkpt><trkpt lat="43.0113583" lon="2.455995"><ele>796.0</ele><time>2026-04-26T10:29:41.727Z</time></trkpt><trkpt lat="43.0114467" lon="2.4560133"><ele>795.0</ele><time>2026-04-26T10:29:42.729Z</time></trkpt><trkpt lat="43.011535" lon="2.4560067"><ele>795.0</ele><time>2026-04-26T10:29:43.731Z</time></trkpt><trkpt lat="43.0116233" lon="2.4559833"><ele>795.0</ele><time>2026-04-26T10:29:44.728Z</time></trkpt><trkpt lat="43.011705" lon="2.4559483"><ele>795.0</ele><time>2026-04-26T10:29:45.732Z</time></trkpt><trkpt lat="43.011785" lon="2.4559017"><ele>795.0</ele><time>2026-04-26T10:29:46.729Z</time></trkpt><trkpt lat="43.0118617" lon="2.4558467"><ele>795.0</ele><time>2026-04-26T10:29:47.729Z</time></trkpt><trkpt lat="43.01194" lon="2.4557833"><ele>795.0</ele><time>2026-04-26T10:29:48.73Z</time></trkpt><trkpt lat="43.0120117" lon="2.4557133"><ele>792.6666666666666</ele><time>2026-04-26T10:29:49.727Z</time></trkpt><trkpt lat="43.0120817" lon="2.455655"><ele>790.3333333333333</ele><time>2026-04-26T10:29:50.73Z</time></trkpt><trkpt lat="43.0121517" lon="2.4556"><ele>788.0</ele><time>2026-04-26T10:29:51.73Z</time></trkpt><trkpt lat="43.0122217" lon="2.455555"><ele>785.6666666666666</ele><time>2026-04-26T10:29:52.729Z</time></trkpt><trkpt lat="43.012285" lon="2.4555183"><ele>783.3333333333333</ele><time>2026-04-26T10:29:53.727Z</time></trkpt><trkpt lat="43.0123467" lon="2.4554817"><ele>781.0</ele><time>2026-04-26T10:29:54.728Z</time></trkpt><trkpt lat="43.0124133" lon="2.45542"><ele>779.4999999999999</ele><time>2026-04-26T10:29:55.728Z</time></trkpt><trkpt lat="43.0124817" lon="2.4553533"><ele>778.0</ele><time>2026-04-26T10:29:56.728Z</time></trkpt><trkpt lat="43.01255" lon="2.4552817"><ele>776.5</ele><time>2026-04-26T10:29:57.728Z</time></trkpt><trkpt lat="43.0126183" lon="2.4552067"><ele>775.0</ele><time>2026-04-26T10:29:58.727Z</time></trkpt><trkpt lat="43.0126833" lon="2.4551333"><ele>773.4999999999999</ele><time>2026-04-26T10:29:59.729Z</time></trkpt><trkpt lat="43.0127417" lon="2.45505"><ele>772.0</ele><time>2026-04-26T10:30:00.728Z</time></trkpt><trkpt lat="43.0127933" lon="2.4549567"><ele>769.6</ele><time>2026-04-26T10:30:01.728Z</time></trkpt><trkpt lat="43.01284" lon="2.4548533"><ele>767.2</ele><time>2026-04-26T10:30:02.731Z</time></trkpt><trkpt lat="43.0128817" lon="2.454735"><ele>764.8</ele><time>2026-04-26T10:30:03.731Z</time></trkpt><trkpt lat="43.0129217" lon="2.45461"><ele>762.4</ele><time>2026-04-26T10:30:04.728Z</time></trkpt><trkpt lat="43.0129617" lon="2.45448"><ele>760.0</ele><time>2026-04-26T10:30:05.728Z</time></trkpt><trkpt lat="43.0130017" lon="2.4543517"><ele>757.8</ele><time>2026-04-26T10:30:06.73Z</time></trkpt><trkpt lat="43.013035" lon="2.4542217"><ele>755.6</ele><time>2026-04-26T10:30:07.728Z</time></trkpt><trkpt lat="43.01306" lon="2.45409"><ele>753.4000000000001</ele><time>2026-04-26T10:30:08.729Z</time></trkpt><trkpt lat="43.01308" lon="2.4539517"><ele>751.2</ele><time>2026-04-26T10:30:09.729Z</time></trkpt><trkpt lat="43.0130917" lon="2.4538167"><ele>749.0</ele><time>2026-04-26T10:30:10.728Z</time></trkpt><trkpt lat="43.0130967" lon="2.4536833"><ele>747.3333333333333</ele><time>2026-04-26T10:30:11.728Z</time></trkpt><trkpt lat="43.01309" lon="2.4535633"><ele>745.6666666666666</ele><time>2026-04-26T10:30:12.728Z</time></trkpt><trkpt lat="43.0130833" lon="2.45344"><ele>744.0</ele><time>2026-04-26T10:30:13.727Z</time></trkpt><trkpt lat="43.0130833" lon="2.453335"><ele>742.3333333333334</ele><time>2026-04-26T10:30:14.728Z</time></trkpt><trkpt lat="43.013095" lon="2.4532283"><ele>740.6666666666667</ele><time>2026-04-26T10:30:15.729Z</time></trkpt><trkpt lat="43.01312" lon="2.45313"><ele>739.0</ele><time>2026-04-26T10:30:16.727Z</time></trkpt><trkpt lat="43.01314" lon="2.453015"><ele>737.0</ele><time>2026-04-26T10:30:17.727Z</time></trkpt><trkpt lat="43.013135" lon="2.4528917"><ele>735.0</ele><time>2026-04-26T10:30:18.729Z</time></trkpt><trkpt lat="43.013105" lon="2.4527733"><ele>733.0</ele><time>2026-04-26T10:30:19.727Z</time></trkpt><trkpt lat="43.0130733" lon="2.45265"><ele>731.0</ele><time>2026-04-26T10:30:20.728Z</time></trkpt><trkpt lat="43.013035" lon="2.4525283"><ele>729.0</ele><time>2026-04-26T10:30:21.729Z</time></trkpt><trkpt lat="43.0129967" lon="2.4524033"><ele>729.0</ele><time>2026-04-26T10:30:22.726Z</time></trkpt><trkpt lat="43.012965" lon="2.4522767"><ele>729.0</ele><time>2026-04-26T10:30:23.727Z</time></trkpt><trkpt lat="43.012935" lon="2.4521517"><ele>729.0</ele><time>2026-04-26T10:30:24.729Z</time></trkpt><trkpt lat="43.012905" lon="2.4520267"><ele>729.0</ele><time>2026-04-26T10:30:25.728Z</time></trkpt><trkpt lat="43.0128883" lon="2.4519017"><ele>729.0</ele><time>2026-04-26T10:30:26.728Z</time></trkpt><trkpt lat="43.0128967" lon="2.4517817"><ele>728.3333333333334</ele><time>2026-04-26T10:30:27.727Z</time></trkpt><trkpt lat="43.0129133" lon="2.4516733"><ele>727.6666666666666</ele><time>2026-04-26T10:30:28.727Z</time></trkpt><trkpt lat="43.0129283" lon="2.4515783"><ele>727.0</ele><time>2026-04-26T10:30:29.729Z</time></trkpt><trkpt lat="43.0129383" lon="2.4514467"><ele>726.3333333333333</ele><time>2026-04-26T10:30:31.728Z</time></trkpt><trkpt lat="43.013015" lon="2.45144"><ele>725.6666666666666</ele><time>2026-04-26T10:30:34.728Z</time></trkpt><trkpt lat="43.0130967" lon="2.4514717"><ele>725.0</ele><time>2026-04-26T10:30:36.728Z</time></trkpt><trkpt lat="43.0132083" lon="2.45141"><ele>725.0</ele><time>2026-04-26T10:30:38.729Z</time></trkpt><trkpt lat="43.0132683" lon="2.4513633"><ele>725.0</ele><time>2026-04-26T10:30:39.727Z</time></trkpt><trkpt lat="43.0133433" lon="2.4513"><ele>725.0</ele><time>2026-04-26T10:30:40.727Z</time></trkpt><trkpt lat="43.01342" lon="2.4512067"><ele>725.0</ele><time>2026-04-26T10:30:41.728Z</time></trkpt><trkpt lat="43.0134967" lon="2.4511183"><ele>725.0</ele><time>2026-04-26T10:30:42.728Z</time></trkpt><trkpt lat="43.013565" lon="2.45104"><ele>725.0</ele><time>2026-04-26T10:30:43.727Z</time></trkpt><trkpt lat="43.01364" lon="2.451"><ele>727.5</ele><time>2026-04-26T10:30:44.73Z</time></trkpt><trkpt lat="43.0137183" lon="2.45099"><ele>730.0</ele><time>2026-04-26T10:30:45.73Z</time></trkpt><trkpt lat="43.0138033" lon="2.4510133"><ele>732.5</ele><time>2026-04-26T10:30:46.727Z</time></trkpt><trkpt lat="43.0138867" lon="2.4510783"><ele>735.0</ele><time>2026-04-26T10:30:47.727Z</time></trkpt><trkpt lat="43.0139617" lon="2.4511283"><ele>737.5</ele><time>2026-04-26T10:30:48.728Z</time></trkpt><trkpt lat="43.0140367" lon="2.45115"><ele>740.0</ele><time>2026-04-26T10:30:49.729Z</time></trkpt><trkpt lat="43.01412" lon="2.4511583"><ele>738.3333333333333</ele><time>2026-04-26T10:30:50.729Z</time></trkpt><trkpt lat="43.0142017" lon="2.4511217"><ele>736.6666666666666</ele><time>2026-04-26T10:30:51.728Z</time></trkpt><trkpt lat="43.0142767" lon="2.4510667"><ele>735.0</ele><time>2026-04-26T10:30:52.727Z</time></trkpt><trkpt lat="43.0143367" lon="2.4510183"><ele>733.3333333333334</ele><time>2026-04-26T10:30:53.731Z</time></trkpt><trkpt lat="43.0144317" lon="2.450955"><ele>731.6666666666667</ele><time>2026-04-26T10:30:55.729Z</time></trkpt><trkpt lat="43.01449" lon="2.4508717"><ele>730.0</ele><time>2026-04-26T10:30:57.728Z</time></trkpt><trkpt lat="43.01453" lon="2.4507367"><ele>730.0</ele><time>2026-04-26T10:30:59.731Z</time></trkpt><trkpt lat="43.0145483" lon="2.450645"><ele>730.0</ele><time>2026-04-26T10:31:00.729Z</time></trkpt><trkpt lat="43.0145817" lon="2.4505183"><ele>730.0</ele><time>2026-04-26T10:31:01.735Z</time></trkpt><trkpt lat="43.0146167" lon="2.4504233"><ele>730.0</ele><time>2026-04-26T10:31:02.729Z</time></trkpt><trkpt lat="43.014645" lon="2.450305"><ele>730.0</ele><time>2026-04-26T10:31:03.729Z</time></trkpt><trkpt lat="43.0146833" lon="2.4501917"><ele>730.0</ele><time>2026-04-26T10:31:04.73Z</time></trkpt><trkpt lat="43.01471" lon="2.4500633"><ele>731.0</ele><time>2026-04-26T10:31:05.73Z</time></trkpt><trkpt lat="43.0147317" lon="2.4499483"><ele>732.0</ele><time>2026-04-26T10:31:06.729Z</time></trkpt><trkpt lat="43.0147633" lon="2.4497517"><ele>733.0</ele><time>2026-04-26T10:31:08.731Z</time></trkpt><trkpt lat="43.0147833" lon="2.449625"><ele>734.0</ele><time>2026-04-26T10:31:09.729Z</time></trkpt><trkpt lat="43.0148067" lon="2.4495017"><ele>735.0</ele><time>2026-04-26T10:31:10.728Z</time></trkpt><trkpt lat="43.0148333" lon="2.4493783"><ele>735.5</ele><time>2026-04-26T10:31:11.73Z</time></trkpt><trkpt lat="43.01486" lon="2.4492467"><ele>736.0</ele><time>2026-04-26T10:31:12.73Z</time></trkpt><trkpt lat="43.0148867" lon="2.4491267"><ele>736.5</ele><time>2026-04-26T10:31:13.729Z</time></trkpt><trkpt lat="43.01491" lon="2.44901"><ele>737.0</ele><time>2026-04-26T10:31:14.729Z</time></trkpt><trkpt lat="43.0149367" lon="2.4488967"><ele>737.5</ele><time>2026-04-26T10:31:15.728Z</time></trkpt><trkpt lat="43.0149583" lon="2.4488"><ele>738.0</ele><time>2026-04-26T10:31:16.727Z</time></trkpt><trkpt lat="43.0149817" lon="2.448705"><ele>735.3333333333334</ele><time>2026-04-26T10:31:17.73Z</time></trkpt><trkpt lat="43.015015" lon="2.448625"><ele>732.6666666666666</ele><time>2026-04-26T10:31:18.728Z</time></trkpt><trkpt lat="43.0150833" lon="2.44853"><ele>730.0</ele><time>2026-04-26T10:31:20.729Z</time></trkpt><trkpt lat="43.0151317" lon="2.44846"><ele>727.3333333333333</ele><time>2026-04-26T10:31:21.728Z</time></trkpt><trkpt lat="43.01519" lon="2.4483683"><ele>724.6666666666666</ele><time>2026-04-26T10:31:22.73Z</time></trkpt><trkpt lat="43.0152433" lon="2.4482683"><ele>722.0</ele><time>2026-04-26T10:31:23.728Z</time></trkpt><trkpt lat="43.0153" lon="2.4481683"><ele>722.0</ele><time>2026-04-26T10:31:24.727Z</time></trkpt><trkpt lat="43.0153567" lon="2.4480567"><ele>722.0</ele><time>2026-04-26T10:31:25.73Z</time></trkpt><trkpt lat="43.01541" lon="2.4479367"><ele>722.0</ele><time>2026-04-26T10:31:26.73Z</time></trkpt><trkpt lat="43.01546" lon="2.4478183"><ele>722.0</ele><time>2026-04-26T10:31:27.729Z</time></trkpt><trkpt lat="43.0155083" lon="2.4477017"><ele>722.0</ele><time>2026-04-26T10:31:28.727Z</time></trkpt><trkpt lat="43.0155583" lon="2.4475767"><ele>724.2</ele><time>2026-04-26T10:31:29.727Z</time></trkpt><trkpt lat="43.0156117" lon="2.4474483"><ele>726.4000000000001</ele><time>2026-04-26T10:31:30.728Z</time></trkpt><trkpt lat="43.0156583" lon="2.44732"><ele>728.5999999999999</ele><time>2026-04-26T10:31:31.728Z</time></trkpt><trkpt lat="43.0156983" lon="2.4471883"><ele>730.8</ele><time>2026-04-26T10:31:32.728Z</time></trkpt><trkpt lat="43.0157283" lon="2.4470633"><ele>733.0</ele><time>2026-04-26T10:31:33.728Z</time></trkpt><trkpt lat="43.0157533" lon="2.4469367"><ele>733.2</ele><time>2026-04-26T10:31:34.728Z</time></trkpt><trkpt lat="43.0157567" lon="2.4468083"><ele>733.4</ele><time>2026-04-26T10:31:35.729Z</time></trkpt><trkpt lat="43.0157517" lon="2.44667"><ele>733.6</ele><time>2026-04-26T10:31:36.728Z</time></trkpt><trkpt lat="43.0157433" lon="2.4465283"><ele>733.8000000000001</ele><time>2026-04-26T10:31:37.73Z</time></trkpt><trkpt lat="43.015735" lon="2.4463817"><ele>734.0</ele><time>2026-04-26T10:31:38.728Z</time></trkpt><trkpt lat="43.015735" lon="2.446235"><ele>734.0</ele><time>2026-04-26T10:31:39.728Z</time></trkpt><trkpt lat="43.0157417" lon="2.4460933"><ele>734.0</ele><time>2026-04-26T10:31:40.728Z</time></trkpt><trkpt lat="43.01575" lon="2.4459417"><ele>734.0</ele><time>2026-04-26T10:31:41.728Z</time></trkpt><trkpt lat="43.0157617" lon="2.4457883"><ele>734.0</ele><time>2026-04-26T10:31:42.728Z</time></trkpt><trkpt lat="43.015775" lon="2.4456367"><ele>734.0</ele><time>2026-04-26T10:31:43.728Z</time></trkpt><trkpt lat="43.0157867" lon="2.4454783"><ele>734.4000000000001</ele><time>2026-04-26T10:31:44.728Z</time></trkpt><trkpt lat="43.0157933" lon="2.4453317"><ele>734.8</ele><time>2026-04-26T10:31:45.727Z</time></trkpt><trkpt lat="43.0157967" lon="2.4451983"><ele>735.2</ele><time>2026-04-26T10:31:46.727Z</time></trkpt><trkpt lat="43.0158" lon="2.4450667"><ele>735.5999999999999</ele><time>2026-04-26T10:31:47.727Z</time></trkpt><trkpt lat="43.0158033" lon="2.44493"><ele>736.0</ele><time>2026-04-26T10:31:48.727Z</time></trkpt><trkpt lat="43.01581" lon="2.44479"><ele>731.1999999999999</ele><time>2026-04-26T10:31:49.727Z</time></trkpt><trkpt lat="43.015825" lon="2.4446483"><ele>726.4</ele><time>2026-04-26T10:31:50.728Z</time></trkpt><trkpt lat="43.0158417" lon="2.4445117"><ele>721.6</ele><time>2026-04-26T10:31:51.727Z</time></trkpt><trkpt lat="43.0158717" lon="2.4443817"><ele>716.8</ele><time>2026-04-26T10:31:52.727Z</time></trkpt><trkpt lat="43.0159017" lon="2.444245"><ele>712.0</ele><time>2026-04-26T10:31:53.728Z</time></trkpt><trkpt lat="43.01593" lon="2.4441083"><ele>712.0</ele><time>2026-04-26T10:31:54.729Z</time></trkpt><trkpt lat="43.0159517" lon="2.44399"><ele>712.0</ele><time>2026-04-26T10:31:55.727Z</time></trkpt><trkpt lat="43.0159683" lon="2.4438683"><ele>712.0</ele><time>2026-04-26T10:31:56.728Z</time></trkpt><trkpt lat="43.0159783" lon="2.4437483"><ele>712.0</ele><time>2026-04-26T10:31:57.728Z</time></trkpt><trkpt lat="43.01598" lon="2.4436333"><ele>712.0</ele><time>2026-04-26T10:31:58.729Z</time></trkpt><trkpt lat="43.015975" lon="2.44352"><ele>712.0</ele><time>2026-04-26T10:31:59.729Z</time></trkpt><trkpt lat="43.0159683" lon="2.4434117"><ele>712.1666666666667</ele><time>2026-04-26T10:32:00.727Z</time></trkpt><trkpt lat="43.0159567" lon="2.4433083"><ele>712.3333333333334</ele><time>2026-04-26T10:32:01.728Z</time></trkpt><trkpt lat="43.0159467" lon="2.4432067"><ele>712.5</ele><time>2026-04-26T10:32:02.727Z</time></trkpt><trkpt lat="43.0159367" lon="2.4431083"><ele>712.6666666666666</ele><time>2026-04-26T10:32:03.727Z</time></trkpt><trkpt lat="43.015925" lon="2.4430183"><ele>712.8333333333333</ele><time>2026-04-26T10:32:04.727Z</time></trkpt><trkpt lat="43.0158883" lon="2.442855"><ele>713.0</ele><time>2026-04-26T10:32:06.729Z</time></trkpt><trkpt lat="43.0158683" lon="2.44277"><ele>713.0</ele><time>2026-04-26T10:32:07.728Z</time></trkpt><trkpt lat="43.0158533" lon="2.4426733"><ele>713.0</ele><time>2026-04-26T10:32:08.729Z</time></trkpt><trkpt lat="43.01583" lon="2.442565"><ele>713.0</ele><time>2026-04-26T10:32:09.728Z</time></trkpt><trkpt lat="43.0158033" lon="2.44246"><ele>713.0</ele><time>2026-04-26T10:32:10.729Z</time></trkpt><trkpt lat="43.01577" lon="2.4423617"><ele>713.0</ele><time>2026-04-26T10:32:11.73Z</time></trkpt><trkpt lat="43.0157417" lon="2.442275"><ele>713.0</ele><time>2026-04-26T10:32:12.728Z</time></trkpt><trkpt lat="43.01571" lon="2.4421967"><ele>712.75</ele><time>2026-04-26T10:32:13.728Z</time></trkpt><trkpt lat="43.0156467" lon="2.44207"><ele>712.5</ele><time>2026-04-26T10:32:15.731Z</time></trkpt><trkpt lat="43.0156217" lon="2.4419367"><ele>712.25</ele><time>2026-04-26T10:32:17.728Z</time></trkpt><trkpt lat="43.0156433" lon="2.4417833"><ele>712.0</ele><time>2026-04-26T10:32:19.727Z</time></trkpt><trkpt lat="43.0156433" lon="2.441615"><ele>712.0</ele><time>2026-04-26T10:32:21.729Z</time></trkpt><trkpt lat="43.01564" lon="2.4415183"><ele>712.0</ele><time>2026-04-26T10:32:22.727Z</time></trkpt><trkpt lat="43.0156533" lon="2.4414167"><ele>712.0</ele><time>2026-04-26T10:32:23.729Z</time></trkpt><trkpt lat="43.015685" lon="2.4413067"><ele>712.0</ele><time>2026-04-26T10:32:24.729Z</time></trkpt><trkpt lat="43.0157133" lon="2.4411883"><ele>712.0</ele><time>2026-04-26T10:32:25.728Z</time></trkpt><trkpt lat="43.0157583" lon="2.4410967"><ele>712.0</ele><time>2026-04-26T10:32:26.728Z</time></trkpt><trkpt lat="43.0157817" lon="2.44098"><ele>710.8</ele><time>2026-04-26T10:32:27.728Z</time></trkpt><trkpt lat="43.0157983" lon="2.4408583"><ele>709.6</ele><time>2026-04-26T10:32:28.728Z</time></trkpt><trkpt lat="43.01581" lon="2.44076"><ele>708.4</ele><time>2026-04-26T10:32:29.729Z</time></trkpt><trkpt lat="43.0158133" lon="2.44063"><ele>707.1999999999999</ele><time>2026-04-26T10:32:31.73Z</time></trkpt><trkpt lat="43.015885" lon="2.4407133"><ele>706.0</ele><time>2026-04-26T10:32:36.73Z</time></trkpt><trkpt lat="43.01596" lon="2.4408133"><ele>706.0</ele><time>2026-04-26T10:32:38.728Z</time></trkpt><trkpt lat="43.0160117" lon="2.4408717"><ele>706.0</ele><time>2026-04-26T10:32:39.728Z</time></trkpt><trkpt lat="43.0160733" lon="2.44094"><ele>706.0</ele><time>2026-04-26T10:32:40.729Z</time></trkpt><trkpt lat="43.01615" lon="2.4410133"><ele>706.0</ele><time>2026-04-26T10:32:41.729Z</time></trkpt><trkpt lat="43.01623" lon="2.4410867"><ele>706.0</ele><time>2026-04-26T10:32:42.728Z</time></trkpt><trkpt lat="43.0163133" lon="2.4411567"><ele>706.0</ele><time>2026-04-26T10:32:43.727Z</time></trkpt><trkpt lat="43.0163867" lon="2.4412217"><ele>706.0</ele><time>2026-04-26T10:32:44.73Z</time></trkpt><trkpt lat="43.0164583" lon="2.441285"><ele>706.0</ele><time>2026-04-26T10:32:45.729Z</time></trkpt><trkpt lat="43.0165067" lon="2.441345"><ele>706.0</ele><time>2026-04-26T10:32:46.729Z</time></trkpt><trkpt lat="43.01655" lon="2.4414117"><ele>706.0</ele><time>2026-04-26T10:32:47.729Z</time></trkpt><trkpt lat="43.016575" lon="2.4414933"><ele>706.0</ele><time>2026-04-26T10:32:48.727Z</time></trkpt><trkpt lat="43.0166033" lon="2.4415783"><ele>706.0</ele><time>2026-04-26T10:32:49.73Z</time></trkpt><trkpt lat="43.01664" lon="2.4416583"><ele>706.0</ele><time>2026-04-26T10:32:50.729Z</time></trkpt><trkpt lat="43.0166933" lon="2.4417383"><ele>704.8</ele><time>2026-04-26T10:32:51.729Z</time></trkpt><trkpt lat="43.016755" lon="2.4418233"><ele>703.5999999999999</ele><time>2026-04-26T10:32:52.728Z</time></trkpt><trkpt lat="43.0168183" lon="2.4419083"><ele>702.4</ele><time>2026-04-26T10:32:53.727Z</time></trkpt><trkpt lat="43.0168833" lon="2.44199"><ele>701.2</ele><time>2026-04-26T10:32:54.729Z</time></trkpt><trkpt lat="43.0169517" lon="2.4420767"><ele>700.0</ele><time>2026-04-26T10:32:55.729Z</time></trkpt><trkpt lat="43.0170217" lon="2.4421683"><ele>700.0</ele><time>2026-04-26T10:32:56.731Z</time></trkpt><trkpt lat="43.0170967" lon="2.4422617"><ele>700.0</ele><time>2026-04-26T10:32:57.729Z</time></trkpt><trkpt lat="43.0171767" lon="2.4423467"><ele>700.0</ele><time>2026-04-26T10:32:58.727Z</time></trkpt><trkpt lat="43.0172583" lon="2.44243"><ele>700.0</ele><time>2026-04-26T10:32:59.729Z</time></trkpt><trkpt lat="43.0173383" lon="2.4425117"><ele>700.0</ele><time>2026-04-26T10:33:00.728Z</time></trkpt><trkpt lat="43.0174183" lon="2.442595"><ele>698.0</ele><time>2026-04-26T10:33:01.727Z</time></trkpt><trkpt lat="43.0174933" lon="2.4426883"><ele>696.0</ele><time>2026-04-26T10:33:02.728Z</time></trkpt><trkpt lat="43.01757" lon="2.4427917"><ele>694.0</ele><time>2026-04-26T10:33:03.731Z</time></trkpt><trkpt lat="43.0176483" lon="2.4428983"><ele>692.0</ele><time>2026-04-26T10:33:04.727Z</time></trkpt><trkpt lat="43.01772" lon="2.4430033"><ele>690.0</ele><time>2026-04-26T10:33:05.728Z</time></trkpt><trkpt lat="43.0177833" lon="2.443105"><ele>690.0</ele><time>2026-04-26T10:33:06.729Z</time></trkpt><trkpt lat="43.0178483" lon="2.4432033"><ele>690.0</ele><time>2026-04-26T10:33:07.728Z</time></trkpt><trkpt lat="43.01791" lon="2.4432967"><ele>690.0</ele><time>2026-04-26T10:33:08.728Z</time></trkpt><trkpt lat="43.0179733" lon="2.44339"><ele>690.0</ele><time>2026-04-26T10:33:09.728Z</time></trkpt><trkpt lat="43.0180333" lon="2.44348"><ele>690.0</ele><time>2026-04-26T10:33:10.727Z</time></trkpt><trkpt lat="43.0180933" lon="2.44357"><ele>690.0</ele><time>2026-04-26T10:33:11.729Z</time></trkpt><trkpt lat="43.0181517" lon="2.4436533"><ele>690.0</ele><time>2026-04-26T10:33:12.728Z</time></trkpt><trkpt lat="43.0181967" lon="2.4437333"><ele>690.0</ele><time>2026-04-26T10:33:13.727Z</time></trkpt><trkpt lat="43.01823" lon="2.443815"><ele>690.0</ele><time>2026-04-26T10:33:14.728Z</time></trkpt><trkpt lat="43.0182283" lon="2.44399"><ele>690.0</ele><time>2026-04-26T10:33:16.728Z</time></trkpt><trkpt lat="43.0182133" lon="2.4440817"><ele>690.0</ele><time>2026-04-26T10:33:17.727Z</time></trkpt><trkpt lat="43.0182183" lon="2.4441733"><ele>689.6</ele><time>2026-04-26T10:33:18.726Z</time></trkpt><trkpt lat="43.01824" lon="2.44427"><ele>689.2</ele><time>2026-04-26T10:33:19.727Z</time></trkpt><trkpt lat="43.01828" lon="2.44438"><ele>688.8</ele><time>2026-04-26T10:33:20.727Z</time></trkpt><trkpt lat="43.0183267" lon="2.4444967"><ele>688.4</ele><time>2026-04-26T10:33:21.729Z</time></trkpt><trkpt lat="43.0183783" lon="2.44461"><ele>688.0</ele><time>2026-04-26T10:33:22.728Z</time></trkpt><trkpt lat="43.01843" lon="2.444715"><ele>684.6666666666667</ele><time>2026-04-26T10:33:23.727Z</time></trkpt><trkpt lat="43.0184817" lon="2.4448117"><ele>681.3333333333334</ele><time>2026-04-26T10:33:24.727Z</time></trkpt><trkpt lat="43.0185367" lon="2.4448983"><ele>678.0</ele><time>2026-04-26T10:33:25.728Z</time></trkpt><trkpt lat="43.0186067" lon="2.4449617"><ele>674.6666666666666</ele><time>2026-04-26T10:33:26.728Z</time></trkpt><trkpt lat="43.018695" lon="2.4449883"><ele>671.3333333333333</ele><time>2026-04-26T10:33:27.728Z</time></trkpt><trkpt lat="43.0187867" lon="2.4449967"><ele>668.0</ele><time>2026-04-26T10:33:28.728Z</time></trkpt><trkpt lat="43.0188817" lon="2.4449983"><ele>668.0</ele><time>2026-04-26T10:33:29.729Z</time></trkpt><trkpt lat="43.0189683" lon="2.4449917"><ele>668.0</ele><time>2026-04-26T10:33:30.732Z</time></trkpt><trkpt lat="43.01905" lon="2.444975"><ele>668.0</ele><time>2026-04-26T10:33:31.728Z</time></trkpt><trkpt lat="43.0191283" lon="2.4449533"><ele>668.0</ele><time>2026-04-26T10:33:32.728Z</time></trkpt><trkpt lat="43.0192" lon="2.444915"><ele>668.0</ele><time>2026-04-26T10:33:33.727Z</time></trkpt><trkpt lat="43.0192567" lon="2.4448367"><ele>668.0</ele><time>2026-04-26T10:33:34.729Z</time></trkpt><trkpt lat="43.0193133" lon="2.4447233"><ele>667.4</ele><time>2026-04-26T10:33:35.727Z</time></trkpt><trkpt lat="43.0193767" lon="2.44461"><ele>666.8</ele><time>2026-04-26T10:33:36.728Z</time></trkpt><trkpt lat="43.0194383" lon="2.44449"><ele>666.2</ele><time>2026-04-26T10:33:37.728Z</time></trkpt><trkpt lat="43.0194983" lon="2.4443783"><ele>665.6</ele><time>2026-04-26T10:33:38.73Z</time></trkpt><trkpt lat="43.019555" lon="2.4442733"><ele>665.0</ele><time>2026-04-26T10:33:39.728Z</time></trkpt><trkpt lat="43.0196067" lon="2.444185"><ele>665.0</ele><time>2026-04-26T10:33:40.727Z</time></trkpt><trkpt lat="43.0196583" lon="2.4441167"><ele>665.0</ele><time>2026-04-26T10:33:41.728Z</time></trkpt><trkpt lat="43.019715" lon="2.4440617"><ele>665.0</ele><time>2026-04-26T10:33:42.728Z</time></trkpt><trkpt lat="43.0197767" lon="2.4440117"><ele>665.0</ele><time>2026-04-26T10:33:43.729Z</time></trkpt><trkpt lat="43.019845" lon="2.443965"><ele>665.0</ele><time>2026-04-26T10:33:44.729Z</time></trkpt><trkpt lat="43.0199133" lon="2.44392"><ele>665.0</ele><time>2026-04-26T10:33:45.727Z</time></trkpt><trkpt lat="43.0199833" lon="2.44388"><ele>665.0</ele><time>2026-04-26T10:33:46.731Z</time></trkpt><trkpt lat="43.0200483" lon="2.44384"><ele>665.1666666666666</ele><time>2026-04-26T10:33:47.73Z</time></trkpt><trkpt lat="43.0201083" lon="2.4438033"><ele>665.3333333333333</ele><time>2026-04-26T10:33:48.729Z</time></trkpt><trkpt lat="43.0202083" lon="2.4437467"><ele>665.5</ele><time>2026-04-26T10:33:50.729Z</time></trkpt><trkpt lat="43.0202667" lon="2.4436983"><ele>665.6666666666666</ele><time>2026-04-26T10:33:52.729Z</time></trkpt><trkpt lat="43.0203117" lon="2.4436117"><ele>665.8333333333334</ele><time>2026-04-26T10:34:20.729Z</time></trkpt><trkpt lat="43.02036" lon="2.44351"><ele>666.0</ele><time>2026-04-26T10:42:00.727Z</time></trkpt><trkpt lat="43.0204133" lon="2.443375"><ele>665.8</ele><time>2026-04-26T10:42:02.727Z</time></trkpt><trkpt lat="43.0204283" lon="2.443265"><ele>665.5999999999999</ele><time>2026-04-26T10:42:03.727Z</time></trkpt><trkpt lat="43.0204383" lon="2.44314"><ele>665.4</ele><time>2026-04-26T10:42:04.727Z</time></trkpt><trkpt lat="43.0204567" lon="2.44301"><ele>665.2</ele><time>2026-04-26T10:42:05.727Z</time></trkpt><trkpt lat="43.0204867" lon="2.442865"><ele>665.0</ele><time>2026-04-26T10:42:06.727Z</time></trkpt><trkpt lat="43.0205267" lon="2.4427167"><ele>665.0</ele><time>2026-04-26T10:42:07.73Z</time></trkpt><trkpt lat="43.0205767" lon="2.442575"><ele>665.0</ele><time>2026-04-26T10:42:08.727Z</time></trkpt><trkpt lat="43.0206217" lon="2.4424433"><ele>665.0</ele><time>2026-04-26T10:42:09.73Z</time></trkpt><trkpt lat="43.020665" lon="2.4423167"><ele>665.0</ele><time>2026-04-26T10:42:10.727Z</time></trkpt><trkpt lat="43.0207067" lon="2.4421933"><ele>665.0</ele><time>2026-04-26T10:42:11.729Z</time></trkpt><trkpt lat="43.02075" lon="2.442075"><ele>664.4</ele><time>2026-04-26T10:42:12.728Z</time></trkpt><trkpt lat="43.0207933" lon="2.4419667"><ele>663.8</ele><time>2026-04-26T10:42:13.727Z</time></trkpt><trkpt lat="43.0208367" lon="2.4418533"><ele>663.2</ele><time>2026-04-26T10:42:14.727Z</time></trkpt><trkpt lat="43.02088" lon="2.4417383"><ele>662.6</ele><time>2026-04-26T10:42:15.729Z</time></trkpt><trkpt lat="43.0209217" lon="2.441615"><ele>662.0</ele><time>2026-04-26T10:42:16.729Z</time></trkpt><trkpt lat="43.0209483" lon="2.4414883"><ele>662.0</ele><time>2026-04-26T10:42:17.728Z</time></trkpt><trkpt lat="43.02097" lon="2.44136"><ele>662.0</ele><time>2026-04-26T10:42:18.728Z</time></trkpt><trkpt lat="43.0209867" lon="2.441235"><ele>662.0</ele><time>2026-04-26T10:42:19.729Z</time></trkpt><trkpt lat="43.021" lon="2.4411083"><ele>662.0</ele><time>2026-04-26T10:42:20.728Z</time></trkpt><trkpt lat="43.0210067" lon="2.4409633"><ele>662.0</ele><time>2026-04-26T10:42:21.728Z</time></trkpt><trkpt lat="43.0210167" lon="2.4408167"><ele>664.6</ele><time>2026-04-26T10:42:22.732Z</time></trkpt><trkpt lat="43.0210267" lon="2.4406683"><ele>667.2</ele><time>2026-04-26T10:42:23.728Z</time></trkpt><trkpt lat="43.0210383" lon="2.4405117"><ele>669.8</ele><time>2026-04-26T10:42:24.73Z</time></trkpt><trkpt lat="43.0210417" lon="2.4403533"><ele>672.4</ele><time>2026-04-26T10:42:25.729Z</time></trkpt><trkpt lat="43.0210333" lon="2.440205"><ele>675.0</ele><time>2026-04-26T10:42:26.729Z</time></trkpt><trkpt lat="43.0210183" lon="2.4400683"><ele>676.0</ele><time>2026-04-26T10:42:27.727Z</time></trkpt><trkpt lat="43.0209983" lon="2.43995"><ele>677.0</ele><time>2026-04-26T10:42:28.73Z</time></trkpt><trkpt lat="43.0209767" lon="2.4398317"><ele>678.0</ele><time>2026-04-26T10:42:29.73Z</time></trkpt><trkpt lat="43.0209483" lon="2.439705"><ele>679.0</ele><time>2026-04-26T10:42:30.727Z</time></trkpt><trkpt lat="43.0209317" lon="2.439585"><ele>680.0</ele><time>2026-04-26T10:42:31.73Z</time></trkpt><trkpt lat="43.0209133" lon="2.4394733"><ele>681.0</ele><time>2026-04-26T10:42:32.728Z</time></trkpt><trkpt lat="43.0209033" lon="2.4393717"><ele>681.0</ele><time>2026-04-26T10:42:33.728Z</time></trkpt><trkpt lat="43.02089" lon="2.4392117"><ele>681.0</ele><time>2026-04-26T10:42:35.728Z</time></trkpt><trkpt lat="43.02089" lon="2.4390583"><ele>681.0</ele><time>2026-04-26T10:42:37.728Z</time></trkpt><trkpt lat="43.0209233" lon="2.4389083"><ele>681.0</ele><time>2026-04-26T10:42:39.729Z</time></trkpt><trkpt lat="43.020965" lon="2.4388417"><ele>681.0</ele><time>2026-04-26T10:42:40.728Z</time></trkpt><trkpt lat="43.0209933" lon="2.4387617"><ele>679.1999999999999</ele><time>2026-04-26T10:42:41.728Z</time></trkpt><trkpt lat="43.0210167" lon="2.4386783"><ele>677.4</ele><time>2026-04-26T10:42:42.727Z</time></trkpt><trkpt lat="43.0210767" lon="2.43853"><ele>675.6</ele><time>2026-04-26T10:42:44.729Z</time></trkpt><trkpt lat="43.0211467" lon="2.4383817"><ele>673.8</ele><time>2026-04-26T10:42:46.727Z</time></trkpt><trkpt lat="43.0211983" lon="2.4383083"><ele>672.0</ele><time>2026-04-26T10:42:47.728Z</time></trkpt><trkpt lat="43.0212667" lon="2.438245"><ele>672.0</ele><time>2026-04-26T10:42:48.727Z</time></trkpt><trkpt lat="43.0213417" lon="2.4381817"><ele>672.0</ele><time>2026-04-26T10:42:49.728Z</time></trkpt><trkpt lat="43.021415" lon="2.4381317"><ele>672.0</ele><time>2026-04-26T10:42:50.73Z</time></trkpt><trkpt lat="43.0214817" lon="2.4380717"><ele>672.0</ele><time>2026-04-26T10:42:51.728Z</time></trkpt><trkpt lat="43.0215417" lon="2.438005"><ele>672.0</ele><time>2026-04-26T10:42:52.728Z</time></trkpt><trkpt lat="43.0215767" lon="2.4378917"><ele>672.0</ele><time>2026-04-26T10:42:53.728Z</time></trkpt><trkpt lat="43.0216033" lon="2.4377817"><ele>670.8</ele><time>2026-04-26T10:42:54.727Z</time></trkpt><trkpt lat="43.0216367" lon="2.4376633"><ele>669.6</ele><time>2026-04-26T10:42:55.728Z</time></trkpt><trkpt lat="43.0216683" lon="2.437545"><ele>668.4</ele><time>2026-04-26T10:42:56.727Z</time></trkpt><trkpt lat="43.0217" lon="2.4374183"><ele>667.1999999999999</ele><time>2026-04-26T10:42:57.729Z</time></trkpt><trkpt lat="43.0217333" lon="2.4372867"><ele>666.0</ele><time>2026-04-26T10:42:58.727Z</time></trkpt><trkpt lat="43.02177" lon="2.4371583"><ele>663.1999999999999</ele><time>2026-04-26T10:42:59.728Z</time></trkpt><trkpt lat="43.0218083" lon="2.4370383"><ele>660.4</ele><time>2026-04-26T10:43:00.727Z</time></trkpt><trkpt lat="43.0218583" lon="2.4369217"><ele>657.6</ele><time>2026-04-26T10:43:01.728Z</time></trkpt><trkpt lat="43.0219183" lon="2.436805"><ele>654.8</ele><time>2026-04-26T10:43:02.727Z</time></trkpt><trkpt lat="43.02198" lon="2.4367"><ele>652.0</ele><time>2026-04-26T10:43:03.729Z</time></trkpt><trkpt lat="43.0220467" lon="2.4366067"><ele>652.0</ele><time>2026-04-26T10:43:04.729Z</time></trkpt><trkpt lat="43.02211" lon="2.436515"><ele>652.0</ele><time>2026-04-26T10:43:05.727Z</time></trkpt><trkpt lat="43.0221683" lon="2.4364217"><ele>652.0</ele><time>2026-04-26T10:43:06.727Z</time></trkpt><trkpt lat="43.02222" lon="2.436335"><ele>652.0</ele><time>2026-04-26T10:43:07.727Z</time></trkpt><trkpt lat="43.02227" lon="2.43626"><ele>652.0</ele><time>2026-04-26T10:43:08.728Z</time></trkpt><trkpt lat="43.0223117" lon="2.436185"><ele>652.0</ele><time>2026-04-26T10:43:09.728Z</time></trkpt><trkpt lat="43.0223483" lon="2.4361017"><ele>652.6</ele><time>2026-04-26T10:43:10.728Z</time></trkpt><trkpt lat="43.022375" lon="2.4360017"><ele>653.2</ele><time>2026-04-26T10:43:11.728Z</time></trkpt><trkpt lat="43.0224067" lon="2.4358833"><ele>653.8</ele><time>2026-04-26T10:43:12.727Z</time></trkpt><trkpt lat="43.02244" lon="2.435755"><ele>654.4</ele><time>2026-04-26T10:43:13.727Z</time></trkpt><trkpt lat="43.02247" lon="2.43563"><ele>655.0</ele><time>2026-04-26T10:43:14.727Z</time></trkpt><trkpt lat="43.0224933" lon="2.4355117"><ele>652.8333333333334</ele><time>2026-04-26T10:43:15.729Z</time></trkpt><trkpt lat="43.0225117" lon="2.435395"><ele>650.6666666666667</ele><time>2026-04-26T10:43:16.727Z</time></trkpt><trkpt lat="43.0225183" lon="2.43528"><ele>648.5</ele><time>2026-04-26T10:43:17.728Z</time></trkpt><trkpt lat="43.022525" lon="2.4351667"><ele>646.3333333333334</ele><time>2026-04-26T10:43:18.728Z</time></trkpt><trkpt lat="43.0225233" lon="2.4350533"><ele>644.1666666666666</ele><time>2026-04-26T10:43:19.727Z</time></trkpt><trkpt lat="43.0225217" lon="2.4349417"><ele>642.0</ele><time>2026-04-26T10:43:20.727Z</time></trkpt><trkpt lat="43.0225317" lon="2.4348483"><ele>641.9999999999999</ele><time>2026-04-26T10:43:21.729Z</time></trkpt><trkpt lat="43.0225383" lon="2.434755"><ele>642.0</ele><time>2026-04-26T10:43:22.73Z</time></trkpt><trkpt lat="43.0225467" lon="2.4346617"><ele>642.0</ele><time>2026-04-26T10:43:23.73Z</time></trkpt><trkpt lat="43.02256" lon="2.43457"><ele>642.0</ele><time>2026-04-26T10:43:24.727Z</time></trkpt><trkpt lat="43.0225817" lon="2.4344717"><ele>642.0</ele><time>2026-04-26T10:43:25.727Z</time></trkpt><trkpt lat="43.0226117" lon="2.434385"><ele>641.9999999999999</ele><time>2026-04-26T10:43:26.73Z</time></trkpt><trkpt lat="43.0226433" lon="2.4343067"><ele>642.0</ele><time>2026-04-26T10:43:27.73Z</time></trkpt><trkpt lat="43.022735" lon="2.4342167"><ele>640.6666666666666</ele><time>2026-04-26T10:43:29.728Z</time></trkpt><trkpt lat="43.0228" lon="2.434215"><ele>639.3333333333334</ele><time>2026-04-26T10:43:30.731Z</time></trkpt><trkpt lat="43.02287" lon="2.43424"><ele>638.0</ele><time>2026-04-26T10:43:31.727Z</time></trkpt><trkpt lat="43.022935" lon="2.4342783"><ele>636.6666666666667</ele><time>2026-04-26T10:43:32.728Z</time></trkpt><trkpt lat="43.02301" lon="2.43431"><ele>635.3333333333334</ele><time>2026-04-26T10:43:33.728Z</time></trkpt><trkpt lat="43.023095" lon="2.4343433"><ele>634.0</ele><time>2026-04-26T10:43:34.728Z</time></trkpt><trkpt lat="43.0231767" lon="2.434375"><ele>634.0</ele><time>2026-04-26T10:43:35.729Z</time></trkpt><trkpt lat="43.0232667" lon="2.43439"><ele>634.0</ele><time>2026-04-26T10:43:36.727Z</time></trkpt><trkpt lat="43.0233617" lon="2.4343967"><ele>634.0</ele><time>2026-04-26T10:43:37.73Z</time></trkpt><trkpt lat="43.0234533" lon="2.434385"><ele>634.0</ele><time>2026-04-26T10:43:38.732Z</time></trkpt><trkpt lat="43.02354" lon="2.4343683"><ele>634.0</ele><time>2026-04-26T10:43:39.728Z</time></trkpt><trkpt lat="43.02363" lon="2.434355"><ele>634.4</ele><time>2026-04-26T10:43:40.728Z</time></trkpt><trkpt lat="43.0237217" lon="2.4343433"><ele>634.8</ele><time>2026-04-26T10:43:41.729Z</time></trkpt><trkpt lat="43.0238183" lon="2.434325"><ele>635.2</ele><time>2026-04-26T10:43:42.73Z</time></trkpt><trkpt lat="43.0239183" lon="2.434305"><ele>635.6</ele><time>2026-04-26T10:43:43.728Z</time></trkpt><trkpt lat="43.02402" lon="2.43426"><ele>636.0</ele><time>2026-04-26T10:43:44.728Z</time></trkpt><trkpt lat="43.0241233" lon="2.4342"><ele>635.3333333333334</ele><time>2026-04-26T10:43:45.728Z</time></trkpt><trkpt lat="43.0242183" lon="2.4341383"><ele>634.6666666666666</ele><time>2026-04-26T10:43:46.728Z</time></trkpt><trkpt lat="43.0242917" lon="2.4340733"><ele>634.0</ele><time>2026-04-26T10:43:47.727Z</time></trkpt><trkpt lat="43.02435" lon="2.43402"><ele>633.3333333333333</ele><time>2026-04-26T10:43:48.727Z</time></trkpt><trkpt lat="43.0244033" lon="2.4339617"><ele>632.6666666666666</ele><time>2026-04-26T10:43:49.728Z</time></trkpt><trkpt lat="43.02445" lon="2.4338983"><ele>632.0</ele><time>2026-04-26T10:43:50.728Z</time></trkpt><trkpt lat="43.0244833" lon="2.4338067"><ele>631.6666666666666</ele><time>2026-04-26T10:43:51.728Z</time></trkpt><trkpt lat="43.02452" lon="2.4337"><ele>631.3333333333333</ele><time>2026-04-26T10:43:52.728Z</time></trkpt><trkpt lat="43.024555" lon="2.4336"><ele>631.0</ele><time>2026-04-26T10:43:53.729Z</time></trkpt><trkpt lat="43.024585" lon="2.43351"><ele>630.6666666666666</ele><time>2026-04-26T10:43:54.728Z</time></trkpt><trkpt lat="43.0246483" lon="2.4334183"><ele>630.3333333333334</ele><time>2026-04-26T10:43:56.729Z</time></trkpt><trkpt lat="43.0247083" lon="2.433445"><ele>630.0</ele><time>2026-04-26T10:43:58.729Z</time></trkpt><trkpt lat="43.0247133" lon="2.433545"><ele>630.0</ele><time>2026-04-26T10:44:00.729Z</time></trkpt><trkpt lat="43.0246867" lon="2.433695"><ele>630.0</ele><time>2026-04-26T10:44:02.728Z</time></trkpt><trkpt lat="43.0246817" lon="2.4337867"><ele>630.0</ele><time>2026-04-26T10:44:03.73Z</time></trkpt><trkpt lat="43.0246833" lon="2.433895"><ele>630.0</ele><time>2026-04-26T10:44:04.728Z</time></trkpt><trkpt lat="43.02469" lon="2.4340167"><ele>630.0</ele><time>2026-04-26T10:44:05.727Z</time></trkpt><trkpt lat="43.0247017" lon="2.4341367"><ele>630.0</ele><time>2026-04-26T10:44:06.727Z</time></trkpt><trkpt lat="43.0247283" lon="2.4342683"><ele>630.5</ele><time>2026-04-26T10:44:07.729Z</time></trkpt><trkpt lat="43.0247617" lon="2.4344117"><ele>631.0</ele><time>2026-04-26T10:44:08.727Z</time></trkpt><trkpt lat="43.0248017" lon="2.4345683"><ele>631.5</ele><time>2026-04-26T10:44:09.728Z</time></trkpt><trkpt lat="43.0248333" lon="2.4347233"><ele>632.0</ele><time>2026-04-26T10:44:10.728Z</time></trkpt><trkpt lat="43.0248617" lon="2.43487"><ele>634.25</ele><time>2026-04-26T10:44:11.728Z</time></trkpt><trkpt lat="43.0249017" lon="2.43503"><ele>636.5</ele><time>2026-04-26T10:44:12.727Z</time></trkpt><trkpt lat="43.024935" lon="2.43518"><ele>638.75</ele><time>2026-04-26T10:44:13.727Z</time></trkpt><trkpt lat="43.02496" lon="2.4353217"><ele>641.0</ele><time>2026-04-26T10:44:14.729Z</time></trkpt><trkpt lat="43.024995" lon="2.4354617"><ele>636.5999999999999</ele><time>2026-04-26T10:44:15.729Z</time></trkpt><trkpt lat="43.02503" lon="2.4356"><ele>632.1999999999999</ele><time>2026-04-26T10:44:16.729Z</time></trkpt><trkpt lat="43.0250667" lon="2.4357317"><ele>627.8</ele><time>2026-04-26T10:44:17.728Z</time></trkpt><trkpt lat="43.02511" lon="2.4358617"><ele>623.4</ele><time>2026-04-26T10:44:18.727Z</time></trkpt><trkpt lat="43.025165" lon="2.4360017"><ele>619.0</ele><time>2026-04-26T10:44:19.728Z</time></trkpt><trkpt lat="43.0252117" lon="2.4361367"><ele>619.0</ele><time>2026-04-26T10:44:20.727Z</time></trkpt><trkpt lat="43.0252467" lon="2.4362617"><ele>619.0</ele><time>2026-04-26T10:44:21.73Z</time></trkpt><trkpt lat="43.02529" lon="2.4363817"><ele>619.0</ele><time>2026-04-26T10:44:22.727Z</time></trkpt><trkpt lat="43.0253383" lon="2.43651"><ele>619.0</ele><time>2026-04-26T10:44:23.727Z</time></trkpt><trkpt lat="43.0253667" lon="2.4366367"><ele>619.0</ele><time>2026-04-26T10:44:24.73Z</time></trkpt><trkpt lat="43.0254267" lon="2.4367467"><ele>621.4</ele><time>2026-04-26T10:44:25.732Z</time></trkpt><trkpt lat="43.0255067" lon="2.4368383"><ele>623.8</ele><time>2026-04-26T10:44:26.729Z</time></trkpt><trkpt lat="43.0256017" lon="2.4369217"><ele>626.2</ele><time>2026-04-26T10:44:27.729Z</time></trkpt><trkpt lat="43.02569" lon="2.437"><ele>628.6</ele><time>2026-04-26T10:44:28.728Z</time></trkpt><trkpt lat="43.0257933" lon="2.4370733"><ele>631.0</ele><time>2026-04-26T10:44:29.729Z</time></trkpt><trkpt lat="43.0258767" lon="2.4371183"><ele>629.0</ele><time>2026-04-26T10:44:30.729Z</time></trkpt><trkpt lat="43.0259733" lon="2.4371383"><ele>627.0</ele><time>2026-04-26T10:44:31.73Z</time></trkpt><trkpt lat="43.026065" lon="2.437135"><ele>625.0</ele><time>2026-04-26T10:44:32.73Z</time></trkpt><trkpt lat="43.026145" lon="2.4370783"><ele>623.0</ele><time>2026-04-26T10:44:33.728Z</time></trkpt><trkpt lat="43.0262167" lon="2.4369817"><ele>621.0</ele><time>2026-04-26T10:44:34.729Z</time></trkpt><trkpt lat="43.0262583" lon="2.43689"><ele>618.2</ele><time>2026-04-26T10:44:35.728Z</time></trkpt><trkpt lat="43.0262917" lon="2.4367617"><ele>615.4000000000001</ele><time>2026-04-26T10:44:36.728Z</time></trkpt><trkpt lat="43.02631" lon="2.4366217"><ele>612.6</ele><time>2026-04-26T10:44:37.729Z</time></trkpt><trkpt lat="43.0263283" lon="2.4364733"><ele>609.8000000000001</ele><time>2026-04-26T10:44:38.729Z</time></trkpt><trkpt lat="43.0263483" lon="2.43634"><ele>607.0</ele><time>2026-04-26T10:44:39.729Z</time></trkpt><trkpt lat="43.02636" lon="2.4362083"><ele>604.6666666666667</ele><time>2026-04-26T10:44:40.729Z</time></trkpt><trkpt lat="43.0263683" lon="2.4360833"><ele>602.3333333333334</ele><time>2026-04-26T10:44:41.727Z</time></trkpt><trkpt lat="43.02637" lon="2.4359617"><ele>600.0</ele><time>2026-04-26T10:44:42.727Z</time></trkpt><trkpt lat="43.0263683" lon="2.43585"><ele>597.6666666666666</ele><time>2026-04-26T10:44:43.727Z</time></trkpt><trkpt lat="43.0263733" lon="2.4357533"><ele>595.3333333333333</ele><time>2026-04-26T10:44:44.728Z</time></trkpt><trkpt lat="43.0263933" lon="2.4356683"><ele>593.0</ele><time>2026-04-26T10:44:45.728Z</time></trkpt><trkpt lat="43.0264267" lon="2.4355917"><ele>593.0</ele><time>2026-04-26T10:44:46.729Z</time></trkpt><trkpt lat="43.0265217" lon="2.4354783"><ele>593.0</ele><time>2026-04-26T10:44:48.728Z</time></trkpt><trkpt lat="43.0265967" lon="2.4354667"><ele>593.0</ele><time>2026-04-26T10:44:49.728Z</time></trkpt><trkpt lat="43.0266633" lon="2.4355083"><ele>593.0</ele><time>2026-04-26T10:44:50.729Z</time></trkpt><trkpt lat="43.0267183" lon="2.43556"><ele>593.0</ele><time>2026-04-26T10:44:51.73Z</time></trkpt><trkpt lat="43.0267733" lon="2.4356217"><ele>593.0</ele><time>2026-04-26T10:44:52.729Z</time></trkpt><trkpt lat="43.026825" lon="2.4357017"><ele>592.8333333333333</ele><time>2026-04-26T10:44:53.728Z</time></trkpt><trkpt lat="43.026865" lon="2.4357967"><ele>592.6666666666666</ele><time>2026-04-26T10:44:54.729Z</time></trkpt><trkpt lat="43.0268983" lon="2.4359017"><ele>592.5</ele><time>2026-04-26T10:44:55.729Z</time></trkpt><trkpt lat="43.0269283" lon="2.436015"><ele>592.3333333333334</ele><time>2026-04-26T10:44:56.727Z</time></trkpt><trkpt lat="43.0269517" lon="2.4361317"><ele>592.1666666666667</ele><time>2026-04-26T10:44:57.728Z</time></trkpt><trkpt lat="43.0269767" lon="2.4362483"><ele>592.0</ele><time>2026-04-26T10:44:58.729Z</time></trkpt><trkpt lat="43.0269967" lon="2.4363683"><ele>592.6666666666667</ele><time>2026-04-26T10:44:59.728Z</time></trkpt><trkpt lat="43.0270167" lon="2.4364867"><ele>593.3333333333334</ele><time>2026-04-26T10:45:00.728Z</time></trkpt><trkpt lat="43.027035" lon="2.4366067"><ele>594.0</ele><time>2026-04-26T10:45:01.728Z</time></trkpt><trkpt lat="43.0270467" lon="2.43673"><ele>594.6666666666666</ele><time>2026-04-26T10:45:02.728Z</time></trkpt><trkpt lat="43.02705" lon="2.43684"><ele>595.3333333333333</ele><time>2026-04-26T10:45:03.729Z</time></trkpt><trkpt lat="43.0270467" lon="2.436975"><ele>596.0</ele><time>2026-04-26T10:45:05.728Z</time></trkpt><trkpt lat="43.027045" lon="2.43714"><ele>596.0</ele><time>2026-04-26T10:45:39.728Z</time></trkpt><trkpt lat="43.0270633" lon="2.4372683"><ele>596.0</ele><time>2026-04-26T10:45:41.73Z</time></trkpt><trkpt lat="43.0271317" lon="2.4374233"><ele>596.0</ele><time>2026-04-26T10:45:43.728Z</time></trkpt><trkpt lat="43.0271733" lon="2.437495"><ele>596.0</ele><time>2026-04-26T10:45:44.729Z</time></trkpt><trkpt lat="43.02724" lon="2.4376317"><ele>596.0</ele><time>2026-04-26T10:45:46.729Z</time></trkpt><trkpt lat="43.027265" lon="2.437715"><ele>596.0</ele><time>2026-04-26T10:45:47.729Z</time></trkpt><trkpt lat="43.0272817" lon="2.4378083"><ele>596.0</ele><time>2026-04-26T10:45:48.729Z</time></trkpt><trkpt lat="43.0272967" lon="2.4379083"><ele>596.0</ele><time>2026-04-26T10:45:49.729Z</time></trkpt><trkpt lat="43.0273133" lon="2.4380183"><ele>596.0</ele><time>2026-04-26T10:45:50.728Z</time></trkpt><trkpt lat="43.027325" lon="2.43814"><ele>596.0</ele><time>2026-04-26T10:45:51.73Z</time></trkpt><trkpt lat="43.0273333" lon="2.4382717"><ele>596.0</ele><time>2026-04-26T10:45:52.727Z</time></trkpt><trkpt lat="43.0273333" lon="2.4384133"><ele>596.0</ele><time>2026-04-26T10:45:53.73Z</time></trkpt><trkpt lat="43.02734" lon="2.4385633"><ele>596.0</ele><time>2026-04-26T10:45:54.73Z</time></trkpt><trkpt lat="43.0273433" lon="2.4387183"><ele>596.0</ele><time>2026-04-26T10:45:55.728Z</time></trkpt><trkpt lat="43.027335" lon="2.4388683"><ele>596.0</ele><time>2026-04-26T10:45:56.729Z</time></trkpt><trkpt lat="43.027325" lon="2.43902"><ele>596.0</ele><time>2026-04-26T10:45:57.728Z</time></trkpt><trkpt lat="43.02731" lon="2.439165"><ele>594.75</ele><time>2026-04-26T10:45:58.729Z</time></trkpt><trkpt lat="43.0272883" lon="2.4393183"><ele>593.5</ele><time>2026-04-26T10:45:59.731Z</time></trkpt><trkpt lat="43.027265" lon="2.43948"><ele>592.25</ele><time>2026-04-26T10:46:00.728Z</time></trkpt><trkpt lat="43.0272367" lon="2.4396517"><ele>591.0</ele><time>2026-04-26T10:46:01.728Z</time></trkpt><trkpt lat="43.027205" lon="2.4398217"><ele>590.25</ele><time>2026-04-26T10:46:02.73Z</time></trkpt><trkpt lat="43.0271733" lon="2.4399833"><ele>589.5</ele><time>2026-04-26T10:46:03.732Z</time></trkpt><trkpt lat="43.0271367" lon="2.4401383"><ele>588.75</ele><time>2026-04-26T10:46:04.729Z</time></trkpt><trkpt lat="43.0270983" lon="2.4402917"><ele>588.0</ele><time>2026-04-26T10:46:05.729Z</time></trkpt><trkpt lat="43.02706" lon="2.440445"><ele>586.75</ele><time>2026-04-26T10:46:06.729Z</time></trkpt><trkpt lat="43.0270217" lon="2.4406017"><ele>585.5</ele><time>2026-04-26T10:46:07.728Z</time></trkpt><trkpt lat="43.026985" lon="2.4407583"><ele>584.25</ele><time>2026-04-26T10:46:08.728Z</time></trkpt><trkpt lat="43.02694" lon="2.44092"><ele>583.0</ele><time>2026-04-26T10:46:09.731Z</time></trkpt><trkpt lat="43.0268883" lon="2.4410867"><ele>583.0</ele><time>2026-04-26T10:46:10.727Z</time></trkpt><trkpt lat="43.0268367" lon="2.4412583"><ele>583.0</ele><time>2026-04-26T10:46:11.731Z</time></trkpt><trkpt lat="43.026785" lon="2.4414333"><ele>583.0</ele><time>2026-04-26T10:46:12.729Z</time></trkpt><trkpt lat="43.0267333" lon="2.4416017"><ele>583.0</ele><time>2026-04-26T10:46:13.729Z</time></trkpt><trkpt lat="43.0266833" lon="2.441765"><ele>585.6</ele><time>2026-04-26T10:46:14.732Z</time></trkpt><trkpt lat="43.0266383" lon="2.4419167"><ele>588.1999999999999</ele><time>2026-04-26T10:46:15.729Z</time></trkpt><trkpt lat="43.026595" lon="2.442055"><ele>590.8</ele><time>2026-04-26T10:46:16.728Z</time></trkpt><trkpt lat="43.0265483" lon="2.442185"><ele>593.4</ele><time>2026-04-26T10:46:17.73Z</time></trkpt><trkpt lat="43.026495" lon="2.44231"><ele>596.0</ele><time>2026-04-26T10:46:18.728Z</time></trkpt><trkpt lat="43.0264333" lon="2.442425"><ele>596.0</ele><time>2026-04-26T10:46:19.728Z</time></trkpt><trkpt lat="43.0263683" lon="2.4425317"><ele>596.0</ele><time>2026-04-26T10:46:20.728Z</time></trkpt><trkpt lat="43.0263017" lon="2.4426233"><ele>596.0</ele><time>2026-04-26T10:46:21.73Z</time></trkpt><trkpt lat="43.0262433" lon="2.4427083"><ele>596.0</ele><time>2026-04-26T10:46:22.728Z</time></trkpt><trkpt lat="43.026195" lon="2.4427933"><ele>596.0</ele><time>2026-04-26T10:46:23.728Z</time></trkpt><trkpt lat="43.0262083" lon="2.4429267"><ele>596.0</ele><time>2026-04-26T10:46:25.73Z</time></trkpt><trkpt lat="43.0262867" lon="2.4429533"><ele>596.0</ele><time>2026-04-26T10:46:26.729Z</time></trkpt><trkpt lat="43.02637" lon="2.4429483"><ele>596.0</ele><time>2026-04-26T10:46:27.728Z</time></trkpt><trkpt lat="43.026465" lon="2.442935"><ele>596.0</ele><time>2026-04-26T10:46:28.728Z</time></trkpt><trkpt lat="43.0265733" lon="2.442915"><ele>596.0</ele><time>2026-04-26T10:46:29.728Z</time></trkpt><trkpt lat="43.0267" lon="2.44288"><ele>589.0</ele><time>2026-04-26T10:46:30.729Z</time></trkpt><trkpt lat="43.0268383" lon="2.4428383"><ele>582.0</ele><time>2026-04-26T10:46:31.728Z</time></trkpt><trkpt lat="43.0269733" lon="2.4427883"><ele>575.0</ele><time>2026-04-26T10:46:32.729Z</time></trkpt><trkpt lat="43.0270983" lon="2.442735"><ele>568.0</ele><time>2026-04-26T10:46:33.728Z</time></trkpt><trkpt lat="43.027215" lon="2.4426833"><ele>568.0</ele><time>2026-04-26T10:46:34.729Z</time></trkpt><trkpt lat="43.027315" lon="2.4426283"><ele>568.0</ele><time>2026-04-26T10:46:35.729Z</time></trkpt><trkpt lat="43.0273967" lon="2.4425517"><ele>568.0</ele><time>2026-04-26T10:46:36.727Z</time></trkpt><trkpt lat="43.0274617" lon="2.4424467"><ele>568.0</ele><time>2026-04-26T10:46:37.729Z</time></trkpt><trkpt lat="43.027505" lon="2.44232"><ele>568.0</ele><time>2026-04-26T10:46:38.729Z</time></trkpt><trkpt lat="43.0275483" lon="2.44219"><ele>565.0</ele><time>2026-04-26T10:46:39.728Z</time></trkpt><trkpt lat="43.02761" lon="2.4420617"><ele>562.0</ele><time>2026-04-26T10:46:40.729Z</time></trkpt><trkpt lat="43.0276817" lon="2.4419433"><ele>559.0</ele><time>2026-04-26T10:46:41.727Z</time></trkpt><trkpt lat="43.0277733" lon="2.4418333"><ele>556.0</ele><time>2026-04-26T10:46:42.727Z</time></trkpt><trkpt lat="43.0278833" lon="2.44174"><ele>556.0</ele><time>2026-04-26T10:46:43.731Z</time></trkpt><trkpt lat="43.028005" lon="2.4416533"><ele>556.0</ele><time>2026-04-26T10:46:44.729Z</time></trkpt><trkpt lat="43.028135" lon="2.4415633"><ele>556.0</ele><time>2026-04-26T10:46:45.73Z</time></trkpt><trkpt lat="43.0282567" lon="2.44147"><ele>556.0</ele><time>2026-04-26T10:46:46.728Z</time></trkpt><trkpt lat="43.02836" lon="2.441375"><ele>555.25</ele><time>2026-04-26T10:46:47.73Z</time></trkpt><trkpt lat="43.0284517" lon="2.44128"><ele>554.5</ele><time>2026-04-26T10:46:48.73Z</time></trkpt><trkpt lat="43.02853" lon="2.4411717"><ele>553.75</ele><time>2026-04-26T10:46:49.731Z</time></trkpt><trkpt lat="43.028585" lon="2.4410367"><ele>553.0</ele><time>2026-04-26T10:46:50.731Z</time></trkpt><trkpt lat="43.028635" lon="2.4408917"><ele>553.0</ele><time>2026-04-26T10:46:51.731Z</time></trkpt><trkpt lat="43.02869" lon="2.4407433"><ele>553.0</ele><time>2026-04-26T10:46:52.73Z</time></trkpt><trkpt lat="43.0287567" lon="2.440595"><ele>553.0</ele><time>2026-04-26T10:46:53.73Z</time></trkpt><trkpt lat="43.0288367" lon="2.440445"><ele>553.0</ele><time>2026-04-26T10:46:54.728Z</time></trkpt><trkpt lat="43.028925" lon="2.4402933"><ele>552.25</ele><time>2026-04-26T10:46:55.728Z</time></trkpt><trkpt lat="43.0290167" lon="2.440135"><ele>551.5</ele><time>2026-04-26T10:46:56.728Z</time></trkpt><trkpt lat="43.029105" lon="2.43999"><ele>550.75</ele><time>2026-04-26T10:46:57.727Z</time></trkpt><trkpt lat="43.0291883" lon="2.43986"><ele>550.0</ele><time>2026-04-26T10:46:58.728Z</time></trkpt><trkpt lat="43.0292617" lon="2.4397433"><ele>551.4</ele><time>2026-04-26T10:46:59.733Z</time></trkpt><trkpt lat="43.02932" lon="2.4396233"><ele>552.8</ele><time>2026-04-26T10:47:00.728Z</time></trkpt><trkpt lat="43.0293617" lon="2.4395117"><ele>554.2</ele><time>2026-04-26T10:47:01.728Z</time></trkpt><trkpt lat="43.0293883" lon="2.4394083"><ele>555.6</ele><time>2026-04-26T10:47:02.728Z</time></trkpt><trkpt lat="43.0294117" lon="2.4393183"><ele>557.0</ele><time>2026-04-26T10:47:03.73Z</time></trkpt><trkpt lat="43.029455" lon="2.439185"><ele>557.0</ele><time>2026-04-26T10:47:05.727Z</time></trkpt><trkpt lat="43.029535" lon="2.4392417"><ele>557.0</ele><time>2026-04-26T10:47:08.729Z</time></trkpt><trkpt lat="43.0295167" lon="2.43941"><ele>557.0</ele><time>2026-04-26T10:47:10.728Z</time></trkpt><trkpt lat="43.0294783" lon="2.4395183"><ele>557.0</ele><time>2026-04-26T10:47:11.729Z</time></trkpt><trkpt lat="43.0294267" lon="2.4396533"><ele>557.0</ele><time>2026-04-26T10:47:12.728Z</time></trkpt><trkpt lat="43.0293733" lon="2.4398083"><ele>558.0</ele><time>2026-04-26T10:47:13.728Z</time></trkpt><trkpt lat="43.02932" lon="2.4399683"><ele>559.0</ele><time>2026-04-26T10:47:14.733Z</time></trkpt><trkpt lat="43.0292667" lon="2.4401367"><ele>560.0</ele><time>2026-04-26T10:47:15.73Z</time></trkpt><trkpt lat="43.0292167" lon="2.440305"><ele>561.0</ele><time>2026-04-26T10:47:16.727Z</time></trkpt><trkpt lat="43.029165" lon="2.44047"><ele>559.0</ele><time>2026-04-26T10:47:17.729Z</time></trkpt><trkpt lat="43.0291217" lon="2.44064"><ele>557.0</ele><time>2026-04-26T10:47:18.728Z</time></trkpt><trkpt lat="43.0290983" lon="2.4408117"><ele>555.0</ele><time>2026-04-26T10:47:19.729Z</time></trkpt><trkpt lat="43.0290967" lon="2.44098"><ele>553.0</ele><time>2026-04-26T10:47:20.729Z</time></trkpt><trkpt lat="43.0291067" lon="2.4411383"><ele>553.0</ele><time>2026-04-26T10:47:21.73Z</time></trkpt><trkpt lat="43.0291217" lon="2.4412917"><ele>553.0</ele><time>2026-04-26T10:47:22.729Z</time></trkpt><trkpt lat="43.029125" lon="2.4414417"><ele>553.0</ele><time>2026-04-26T10:47:23.729Z</time></trkpt><trkpt lat="43.0291067" lon="2.4415733"><ele>553.0</ele><time>2026-04-26T10:47:24.73Z</time></trkpt><trkpt lat="43.02905" lon="2.441685"><ele>553.0</ele><time>2026-04-26T10:47:25.729Z</time></trkpt><trkpt lat="43.02895" lon="2.4417617"><ele>553.25</ele><time>2026-04-26T10:47:26.728Z</time></trkpt><trkpt lat="43.0288433" lon="2.4418367"><ele>553.5</ele><time>2026-04-26T10:47:27.729Z</time></trkpt><trkpt lat="43.0287483" lon="2.4419433"><ele>553.75</ele><time>2026-04-26T10:47:28.729Z</time></trkpt><trkpt lat="43.02867" lon="2.4421033"><ele>554.0</ele><time>2026-04-26T10:47:29.731Z</time></trkpt><trkpt lat="43.0286083" lon="2.4422983"><ele>555.6666666666666</ele><time>2026-04-26T10:47:30.73Z</time></trkpt><trkpt lat="43.028565" lon="2.4425117"><ele>557.3333333333334</ele><time>2026-04-26T10:47:31.728Z</time></trkpt><trkpt lat="43.0285233" lon="2.44273"><ele>559.0</ele><time>2026-04-26T10:47:32.73Z</time></trkpt><trkpt lat="43.0284667" lon="2.4429517"><ele>558.6666666666667</ele><time>2026-04-26T10:47:33.729Z</time></trkpt><trkpt lat="43.0284" lon="2.4431733"><ele>558.3333333333334</ele><time>2026-04-26T10:47:34.729Z</time></trkpt><trkpt lat="43.0283183" lon="2.4433883"><ele>558.0</ele><time>2026-04-26T10:47:35.727Z</time></trkpt><trkpt lat="43.0282367" lon="2.4436"><ele>559.3333333333334</ele><time>2026-04-26T10:47:36.728Z</time></trkpt><trkpt lat="43.0281583" lon="2.44381"><ele>560.6666666666667</ele><time>2026-04-26T10:47:37.727Z</time></trkpt><trkpt lat="43.0280767" lon="2.444015"><ele>562.0</ele><time>2026-04-26T10:47:38.729Z</time></trkpt><trkpt lat="43.0279867" lon="2.4442067"><ele>562.0</ele><time>2026-04-26T10:47:39.728Z</time></trkpt><trkpt lat="43.027875" lon="2.4443717"><ele>562.0</ele><time>2026-04-26T10:47:40.728Z</time></trkpt><trkpt lat="43.0277583" lon="2.4445267"><ele>562.0</ele><time>2026-04-26T10:47:41.729Z</time></trkpt><trkpt lat="43.02765" lon="2.4446717"><ele>562.3333333333334</ele><time>2026-04-26T10:47:42.729Z</time></trkpt><trkpt lat="43.027545" lon="2.4448217"><ele>562.6666666666666</ele><time>2026-04-26T10:47:43.73Z</time></trkpt><trkpt lat="43.0274483" lon="2.444985"><ele>563.0</ele><time>2026-04-26T10:47:44.727Z</time></trkpt><trkpt lat="43.0273783" lon="2.44518"><ele>563.0</ele><time>2026-04-26T10:47:45.73Z</time></trkpt><trkpt lat="43.027325" lon="2.4453917"><ele>563.0</ele><time>2026-04-26T10:47:46.727Z</time></trkpt><trkpt lat="43.0272817" lon="2.4456033"><ele>563.0</ele><time>2026-04-26T10:47:47.729Z</time></trkpt><trkpt lat="43.0272433" lon="2.4458067"><ele>563.0</ele><time>2026-04-26T10:47:48.73Z</time></trkpt><trkpt lat="43.0272167" lon="2.4460017"><ele>563.0</ele><time>2026-04-26T10:47:49.728Z</time></trkpt><trkpt lat="43.02721" lon="2.44619"><ele>563.0</ele><time>2026-04-26T10:47:50.727Z</time></trkpt><trkpt lat="43.02724" lon="2.4463683"><ele>563.0</ele><time>2026-04-26T10:47:51.727Z</time></trkpt><trkpt lat="43.02731" lon="2.4464967"><ele>563.0</ele><time>2026-04-26T10:47:52.73Z</time></trkpt><trkpt lat="43.0273867" lon="2.4466183"><ele>563.0</ele><time>2026-04-26T10:47:53.727Z</time></trkpt><trkpt lat="43.027435" lon="2.4467383"><ele>563.0</ele><time>2026-04-26T10:47:54.728Z</time></trkpt><trkpt lat="43.0274383" lon="2.44687"><ele>563.0</ele><time>2026-04-26T10:47:55.727Z</time></trkpt><trkpt lat="43.02741" lon="2.4470067"><ele>563.0</ele><time>2026-04-26T10:47:56.728Z</time></trkpt><trkpt lat="43.027315" lon="2.447125"><ele>564.0</ele><time>2026-04-26T10:47:57.728Z</time></trkpt><trkpt lat="43.0272167" lon="2.4472233"><ele>565.0</ele><time>2026-04-26T10:47:58.73Z</time></trkpt><trkpt lat="43.02712" lon="2.4473767"><ele>566.0</ele><time>2026-04-26T10:47:59.727Z</time></trkpt><trkpt lat="43.0270367" lon="2.4475467"><ele>567.0</ele><time>2026-04-26T10:48:00.727Z</time></trkpt><trkpt lat="43.0269767" lon="2.4477433"><ele>567.0</ele><time>2026-04-26T10:48:01.728Z</time></trkpt><trkpt lat="43.0269367" lon="2.4479433"><ele>567.0</ele><time>2026-04-26T10:48:02.727Z</time></trkpt><trkpt lat="43.0268983" lon="2.4481583"><ele>567.0</ele><time>2026-04-26T10:48:03.727Z</time></trkpt><trkpt lat="43.0268667" lon="2.448385"><ele>570.0</ele><time>2026-04-26T10:48:04.728Z</time></trkpt><trkpt lat="43.02683" lon="2.4486233"><ele>573.0</ele><time>2026-04-26T10:48:05.728Z</time></trkpt><trkpt lat="43.026795" lon="2.448855"><ele>576.0</ele><time>2026-04-26T10:48:06.728Z</time></trkpt><trkpt lat="43.0267617" lon="2.4490983"><ele>578.0</ele><time>2026-04-26T10:48:07.728Z</time></trkpt><trkpt lat="43.0267283" lon="2.4493417"><ele>580.0</ele><time>2026-04-26T10:48:08.728Z</time></trkpt><trkpt lat="43.0266917" lon="2.4495833"><ele>582.0</ele><time>2026-04-26T10:48:09.729Z</time></trkpt><trkpt lat="43.0266567" lon="2.449825"><ele>582.3333333333334</ele><time>2026-04-26T10:48:10.726Z</time></trkpt><trkpt lat="43.0265883" lon="2.4500467"><ele>582.6666666666667</ele><time>2026-04-26T10:48:11.726Z</time></trkpt><trkpt lat="43.026505" lon="2.45026"><ele>583.0</ele><time>2026-04-26T10:48:12.726Z</time></trkpt><trkpt lat="43.026415" lon="2.4504717"><ele>583.0</ele><time>2026-04-26T10:48:13.728Z</time></trkpt><trkpt lat="43.026335" lon="2.4506817"><ele>583.0</ele><time>2026-04-26T10:48:14.727Z</time></trkpt><trkpt lat="43.02626" lon="2.450905"><ele>583.0</ele><time>2026-04-26T10:48:15.728Z</time></trkpt><trkpt lat="43.0261867" lon="2.451135"><ele>585.3333333333334</ele><time>2026-04-26T10:48:16.727Z</time></trkpt><trkpt lat="43.026115" lon="2.4513633"><ele>587.6666666666666</ele><time>2026-04-26T10:48:17.727Z</time></trkpt><trkpt lat="43.02603" lon="2.4515817"><ele>590.0</ele><time>2026-04-26T10:48:18.728Z</time></trkpt><trkpt lat="43.0259483" lon="2.4517967"><ele>590.0</ele><time>2026-04-26T10:48:19.728Z</time></trkpt><trkpt lat="43.02587" lon="2.4520217"><ele>590.0</ele><time>2026-04-26T10:48:20.729Z</time></trkpt><trkpt lat="43.0257983" lon="2.4522483"><ele>590.0</ele><time>2026-04-26T10:48:21.729Z</time></trkpt><trkpt lat="43.02572" lon="2.4524667"><ele>592.0</ele><time>2026-04-26T10:48:22.727Z</time></trkpt><trkpt lat="43.0256317" lon="2.4526783"><ele>594.0</ele><time>2026-04-26T10:48:23.728Z</time></trkpt><trkpt lat="43.0255367" lon="2.452885"><ele>596.0</ele><time>2026-04-26T10:48:24.728Z</time></trkpt><trkpt lat="43.02544" lon="2.4530917"><ele>596.3333333333333</ele><time>2026-04-26T10:48:25.728Z</time></trkpt><trkpt lat="43.02534" lon="2.4533"><ele>596.6666666666666</ele><time>2026-04-26T10:48:26.731Z</time></trkpt><trkpt lat="43.0252417" lon="2.4535"><ele>597.0</ele><time>2026-04-26T10:48:27.729Z</time></trkpt><trkpt lat="43.0251467" lon="2.4536833"><ele>597.75</ele><time>2026-04-26T10:48:28.727Z</time></trkpt><trkpt lat="43.0250633" lon="2.4538517"><ele>598.5</ele><time>2026-04-26T10:48:29.728Z</time></trkpt><trkpt lat="43.024985" lon="2.4540083"><ele>599.25</ele><time>2026-04-26T10:48:30.729Z</time></trkpt><trkpt lat="43.02491" lon="2.4541617"><ele>600.0</ele><time>2026-04-26T10:48:31.728Z</time></trkpt><trkpt lat="43.02484" lon="2.4543033"><ele>601.75</ele><time>2026-04-26T10:48:32.727Z</time></trkpt><trkpt lat="43.0247583" lon="2.4544433"><ele>603.5</ele><time>2026-04-26T10:48:33.727Z</time></trkpt><trkpt lat="43.0246567" lon="2.454555"><ele>605.25</ele><time>2026-04-26T10:48:34.727Z</time></trkpt><trkpt lat="43.0245433" lon="2.454655"><ele>607.0</ele><time>2026-04-26T10:48:35.728Z</time></trkpt><trkpt lat="43.02443" lon="2.4547483"><ele>607.0</ele><time>2026-04-26T10:48:36.728Z</time></trkpt><trkpt lat="43.0243233" lon="2.4548417"><ele>607.0</ele><time>2026-04-26T10:48:37.73Z</time></trkpt><trkpt lat="43.0242217" lon="2.4549583"><ele>607.0</ele><time>2026-04-26T10:48:38.728Z</time></trkpt><trkpt lat="43.0241367" lon="2.4551017"><ele>607.0</ele><time>2026-04-26T10:48:39.733Z</time></trkpt><trkpt lat="43.024065" lon="2.4552683"><ele>608.5</ele><time>2026-04-26T10:48:40.728Z</time></trkpt><trkpt lat="43.02403" lon="2.455455"><ele>610.0</ele><time>2026-04-26T10:48:41.73Z</time></trkpt><trkpt lat="43.0239983" lon="2.4556517"><ele>611.5</ele><time>2026-04-26T10:48:42.728Z</time></trkpt><trkpt lat="43.0239817" lon="2.45585"><ele>613.0</ele><time>2026-04-26T10:48:43.73Z</time></trkpt><trkpt lat="43.02399" lon="2.456045"><ele>613.0</ele><time>2026-04-26T10:48:44.731Z</time></trkpt><trkpt lat="43.02402" lon="2.4562383"><ele>613.0</ele><time>2026-04-26T10:48:45.729Z</time></trkpt><trkpt lat="43.0240417" lon="2.4564217"><ele>613.0</ele><time>2026-04-26T10:48:46.729Z</time></trkpt><trkpt lat="43.0240417" lon="2.4566133"><ele>613.0</ele><time>2026-04-26T10:48:47.727Z</time></trkpt><trkpt lat="43.024035" lon="2.4568017"><ele>611.1999999999999</ele><time>2026-04-26T10:48:48.729Z</time></trkpt><trkpt lat="43.02403" lon="2.4569783"><ele>609.4</ele><time>2026-04-26T10:48:49.733Z</time></trkpt><trkpt lat="43.0240183" lon="2.45714"><ele>607.5999999999999</ele><time>2026-04-26T10:48:50.729Z</time></trkpt><trkpt lat="43.0239883" lon="2.457275"><ele>605.8</ele><time>2026-04-26T10:48:51.729Z</time></trkpt><trkpt lat="43.0239317" lon="2.4573833"><ele>604.0</ele><time>2026-04-26T10:48:52.728Z</time></trkpt><trkpt lat="43.0238467" lon="2.4574517"><ele>600.0</ele><time>2026-04-26T10:48:53.731Z</time></trkpt><trkpt lat="43.02374" lon="2.4574683"><ele>596.0</ele><time>2026-04-26T10:48:54.728Z</time></trkpt><trkpt lat="43.0236283" lon="2.4574783"><ele>592.0</ele><time>2026-04-26T10:48:55.728Z</time></trkpt><trkpt lat="43.02352" lon="2.4575283"><ele>588.0</ele><time>2026-04-26T10:48:56.729Z</time></trkpt><trkpt lat="43.0234217" lon="2.457625"><ele>588.0</ele><time>2026-04-26T10:48:57.733Z</time></trkpt><trkpt lat="43.02333" lon="2.457745"><ele>588.0</ele><time>2026-04-26T10:48:58.729Z</time></trkpt><trkpt lat="43.02325" lon="2.4578883"><ele>588.0</ele><time>2026-04-26T10:48:59.729Z</time></trkpt><trkpt lat="43.0231717" lon="2.4580483"><ele>588.0</ele><time>2026-04-26T10:49:00.729Z</time></trkpt><trkpt lat="43.0230833" lon="2.4582217"><ele>586.5</ele><time>2026-04-26T10:49:01.727Z</time></trkpt><trkpt lat="43.0229883" lon="2.4583817"><ele>585.0</ele><time>2026-04-26T10:49:02.73Z</time></trkpt><trkpt lat="43.0228967" lon="2.4585367"><ele>583.5</ele><time>2026-04-26T10:49:03.729Z</time></trkpt><trkpt lat="43.0228233" lon="2.4586817"><ele>582.0</ele><time>2026-04-26T10:49:04.73Z</time></trkpt><trkpt lat="43.022775" lon="2.4588217"><ele>582.0</ele><time>2026-04-26T10:49:05.727Z</time></trkpt><trkpt lat="43.0227333" lon="2.4589633"><ele>582.0</ele><time>2026-04-26T10:49:06.729Z</time></trkpt><trkpt lat="43.02269" lon="2.4591083"><ele>582.0</ele><time>2026-04-26T10:49:07.728Z</time></trkpt><trkpt lat="43.0226333" lon="2.4592517"><ele>582.0</ele><time>2026-04-26T10:49:08.728Z</time></trkpt><trkpt lat="43.0225533" lon="2.4593767"><ele>586.5</ele><time>2026-04-26T10:49:09.729Z</time></trkpt><trkpt lat="43.0224583" lon="2.4594783"><ele>591.0</ele><time>2026-04-26T10:49:10.727Z</time></trkpt><trkpt lat="43.0223617" lon="2.4595667"><ele>595.5</ele><time>2026-04-26T10:49:11.73Z</time></trkpt><trkpt lat="43.02228" lon="2.4596683"><ele>600.0</ele><time>2026-04-26T10:49:12.727Z</time></trkpt><trkpt lat="43.0222117" lon="2.4597817"><ele>600.0</ele><time>2026-04-26T10:49:13.73Z</time></trkpt><trkpt lat="43.022175" lon="2.4599233"><ele>600.0</ele><time>2026-04-26T10:49:14.729Z</time></trkpt><trkpt lat="43.0221917" lon="2.4601033"><ele>600.0</ele><time>2026-04-26T10:49:15.728Z</time></trkpt><trkpt lat="43.022245" lon="2.4602767"><ele>600.0</ele><time>2026-04-26T10:49:16.728Z</time></trkpt><trkpt lat="43.022315" lon="2.4604483"><ele>603.0</ele><time>2026-04-26T10:49:17.729Z</time></trkpt><trkpt lat="43.0223817" lon="2.4606283"><ele>606.0</ele><time>2026-04-26T10:49:18.731Z</time></trkpt><trkpt lat="43.0224317" lon="2.4608183"><ele>609.0</ele><time>2026-04-26T10:49:19.729Z</time></trkpt><trkpt lat="43.0224617" lon="2.4610283"><ele>609.0</ele><time>2026-04-26T10:49:20.728Z</time></trkpt><trkpt lat="43.022475" lon="2.46125"><ele>609.0</ele><time>2026-04-26T10:49:21.728Z</time></trkpt><trkpt lat="43.0224817" lon="2.4614783"><ele>609.0</ele><time>2026-04-26T10:49:22.736Z</time></trkpt><trkpt lat="43.0224767" lon="2.4617183"><ele>608.6666666666666</ele><time>2026-04-26T10:49:23.729Z</time></trkpt><trkpt lat="43.0224617" lon="2.4619517"><ele>608.3333333333333</ele><time>2026-04-26T10:49:24.727Z</time></trkpt><trkpt lat="43.0224417" lon="2.462185"><ele>608.0</ele><time>2026-04-26T10:49:25.729Z</time></trkpt><trkpt lat="43.0224217" lon="2.4624217"><ele>606.0</ele><time>2026-04-26T10:49:26.727Z</time></trkpt><trkpt lat="43.0224033" lon="2.4626483"><ele>604.0</ele><time>2026-04-26T10:49:27.729Z</time></trkpt><trkpt lat="43.0223783" lon="2.462865"><ele>602.0</ele><time>2026-04-26T10:49:28.728Z</time></trkpt><trkpt lat="43.0223383" lon="2.4630733"><ele>599.3333333333333</ele><time>2026-04-26T10:49:29.731Z</time></trkpt><trkpt lat="43.0223" lon="2.4632783"><ele>596.6666666666666</ele><time>2026-04-26T10:49:30.733Z</time></trkpt><trkpt lat="43.0222633" lon="2.46349"><ele>594.0</ele><time>2026-04-26T10:49:31.728Z</time></trkpt><trkpt lat="43.0222433" lon="2.4637117"><ele>593.3333333333334</ele><time>2026-04-26T10:49:32.73Z</time></trkpt><trkpt lat="43.0222367" lon="2.4639367"><ele>592.6666666666667</ele><time>2026-04-26T10:49:33.728Z</time></trkpt><trkpt lat="43.0222617" lon="2.4641683"><ele>592.0</ele><time>2026-04-26T10:49:34.727Z</time></trkpt><trkpt lat="43.02231" lon="2.4643967"><ele>592.6666666666667</ele><time>2026-04-26T10:49:35.727Z</time></trkpt><trkpt lat="43.0223717" lon="2.46462"><ele>593.3333333333334</ele><time>2026-04-26T10:49:36.729Z</time></trkpt><trkpt lat="43.0224417" lon="2.46484"><ele>594.0</ele><time>2026-04-26T10:49:37.73Z</time></trkpt><trkpt lat="43.0225067" lon="2.4650533"><ele>576.3333333333334</ele><time>2026-04-26T10:49:38.729Z</time></trkpt><trkpt lat="43.0225633" lon="2.465265"><ele>558.6666666666667</ele><time>2026-04-26T10:49:39.73Z</time></trkpt><trkpt lat="43.02261" lon="2.4654817"><ele>541.0</ele><time>2026-04-26T10:49:40.727Z</time></trkpt><trkpt lat="43.0226433" lon="2.4657067"><ele>539.6666666666667</ele><time>2026-04-26T10:49:41.733Z</time></trkpt><trkpt lat="43.0226533" lon="2.4659383"><ele>538.3333333333334</ele><time>2026-04-26T10:49:42.729Z</time></trkpt><trkpt lat="43.0226567" lon="2.4661817"><ele>537.0</ele><time>2026-04-26T10:49:43.727Z</time></trkpt><trkpt lat="43.0226633" lon="2.4664133"><ele>534.0</ele><time>2026-04-26T10:49:44.729Z</time></trkpt><trkpt lat="43.02267" lon="2.466635"><ele>531.0</ele><time>2026-04-26T10:49:45.732Z</time></trkpt><trkpt lat="43.0226483" lon="2.4668567"><ele>528.0</ele><time>2026-04-26T10:49:46.729Z</time></trkpt><trkpt lat="43.022595" lon="2.4670817"><ele>525.3333333333334</ele><time>2026-04-26T10:49:47.729Z</time></trkpt><trkpt lat="43.022525" lon="2.4673067"><ele>522.6666666666667</ele><time>2026-04-26T10:49:48.727Z</time></trkpt><trkpt lat="43.0224617" lon="2.46753"><ele>520.0</ele><time>2026-04-26T10:49:49.727Z</time></trkpt><trkpt lat="43.0224" lon="2.4677533"><ele>532.3333333333334</ele><time>2026-04-26T10:49:50.73Z</time></trkpt><trkpt lat="43.0223367" lon="2.4679833"><ele>544.6666666666666</ele><time>2026-04-26T10:49:51.727Z</time></trkpt><trkpt lat="43.0222817" lon="2.4682117"><ele>557.0</ele><time>2026-04-26T10:49:52.728Z</time></trkpt><trkpt lat="43.0222267" lon="2.4684483"><ele>557.0</ele><time>2026-04-26T10:49:53.728Z</time></trkpt><trkpt lat="43.022185" lon="2.4686883"><ele>557.0</ele><time>2026-04-26T10:49:54.728Z</time></trkpt><trkpt lat="43.02216" lon="2.4689317"><ele>557.0</ele><time>2026-04-26T10:49:55.729Z</time></trkpt><trkpt lat="43.0221183" lon="2.4691633"><ele>552.3333333333333</ele><time>2026-04-26T10:49:56.728Z</time></trkpt><trkpt lat="43.022075" lon="2.469395"><ele>547.6666666666666</ele><time>2026-04-26T10:49:57.727Z</time></trkpt><trkpt lat="43.0220217" lon="2.469625"><ele>543.0</ele><time>2026-04-26T10:49:58.728Z</time></trkpt><trkpt lat="43.0219633" lon="2.4698533"><ele>536.6666666666666</ele><time>2026-04-26T10:49:59.729Z</time></trkpt><trkpt lat="43.0218983" lon="2.47008"><ele>530.3333333333333</ele><time>2026-04-26T10:50:00.728Z</time></trkpt><trkpt lat="43.021835" lon="2.470305"><ele>524.0</ele><time>2026-04-26T10:50:01.729Z</time></trkpt><trkpt lat="43.0217667" lon="2.4705267"><ele>528.3333333333333</ele><time>2026-04-26T10:50:02.728Z</time></trkpt><trkpt lat="43.02168" lon="2.47074"><ele>532.6666666666666</ele><time>2026-04-26T10:50:03.729Z</time></trkpt><trkpt lat="43.021595" lon="2.4709517"><ele>537.0</ele><time>2026-04-26T10:50:04.727Z</time></trkpt><trkpt lat="43.021515" lon="2.4711567"><ele>528.6666666666666</ele><time>2026-04-26T10:50:05.731Z</time></trkpt><trkpt lat="43.0214383" lon="2.4713517"><ele>520.3333333333333</ele><time>2026-04-26T10:50:06.73Z</time></trkpt><trkpt lat="43.021365" lon="2.4715367"><ele>512.0</ele><time>2026-04-26T10:50:07.73Z</time></trkpt><trkpt lat="43.0213133" lon="2.47172"><ele>512.0</ele><time>2026-04-26T10:50:08.729Z</time></trkpt><trkpt lat="43.0212617" lon="2.471905"><ele>512.0</ele><time>2026-04-26T10:50:09.729Z</time></trkpt><trkpt lat="43.0212117" lon="2.472075"><ele>512.0</ele><time>2026-04-26T10:50:10.729Z</time></trkpt><trkpt lat="43.021155" lon="2.47222"><ele>512.0</ele><time>2026-04-26T10:50:11.727Z</time></trkpt><trkpt lat="43.0210967" lon="2.472335"><ele>510.8</ele><time>2026-04-26T10:50:12.727Z</time></trkpt><trkpt lat="43.021015" lon="2.4724067"><ele>509.6</ele><time>2026-04-26T10:50:13.729Z</time></trkpt><trkpt lat="43.0209267" lon="2.472435"><ele>508.40000000000003</ele><time>2026-04-26T10:50:14.729Z</time></trkpt><trkpt lat="43.0208333" lon="2.4724367"><ele>507.20000000000005</ele><time>2026-04-26T10:50:15.729Z</time></trkpt><trkpt lat="43.0207133" lon="2.47237"><ele>506.0</ele><time>2026-04-26T10:50:16.729Z</time></trkpt><trkpt lat="43.0205983" lon="2.47237"><ele>506.0</ele><time>2026-04-26T10:50:17.729Z</time></trkpt><trkpt lat="43.0204767" lon="2.4724083"><ele>506.0</ele><time>2026-04-26T10:50:18.728Z</time></trkpt><trkpt lat="43.020365" lon="2.4725"><ele>506.0</ele><time>2026-04-26T10:50:19.728Z</time></trkpt><trkpt lat="43.02026" lon="2.472625"><ele>506.0</ele><time>2026-04-26T10:50:20.728Z</time></trkpt><trkpt lat="43.02015" lon="2.47276"><ele>506.0</ele><time>2026-04-26T10:50:21.73Z</time></trkpt><trkpt lat="43.0200483" lon="2.4729033"><ele>506.0</ele><time>2026-04-26T10:50:22.729Z</time></trkpt><trkpt lat="43.0199483" lon="2.4730267"><ele>506.0</ele><time>2026-04-26T10:50:23.73Z</time></trkpt><trkpt lat="43.0198517" lon="2.4731583"><ele>506.0</ele><time>2026-04-26T10:50:24.728Z</time></trkpt><trkpt lat="43.019765" lon="2.4733083"><ele>504.25</ele><time>2026-04-26T10:50:25.729Z</time></trkpt><trkpt lat="43.0196933" lon="2.473485"><ele>502.5</ele><time>2026-04-26T10:50:26.728Z</time></trkpt><trkpt lat="43.0196233" lon="2.473665"><ele>500.75</ele><time>2026-04-26T10:50:27.73Z</time></trkpt><trkpt lat="43.0195517" lon="2.4738417"><ele>499.0</ele><time>2026-04-26T10:50:28.727Z</time></trkpt><trkpt lat="43.0194967" lon="2.4740183"><ele>499.0</ele><time>2026-04-26T10:50:29.73Z</time></trkpt><trkpt lat="43.0194617" lon="2.474185"><ele>499.0</ele><time>2026-04-26T10:50:30.728Z</time></trkpt><trkpt lat="43.0194517" lon="2.4743733"><ele>499.0</ele><time>2026-04-26T10:50:31.728Z</time></trkpt><trkpt lat="43.0194483" lon="2.4745633"><ele>499.0</ele><time>2026-04-26T10:50:32.728Z</time></trkpt><trkpt lat="43.0194333" lon="2.4747417"><ele>495.75</ele><time>2026-04-26T10:50:33.731Z</time></trkpt><trkpt lat="43.01939" lon="2.4749117"><ele>492.5</ele><time>2026-04-26T10:50:34.727Z</time></trkpt><trkpt lat="43.0193233" lon="2.4750617"><ele>489.25</ele><time>2026-04-26T10:50:35.728Z</time></trkpt><trkpt lat="43.0192383" lon="2.4752283"><ele>486.0</ele><time>2026-04-26T10:50:36.729Z</time></trkpt><trkpt lat="43.0191467" lon="2.475405"><ele>483.33333333333337</ele><time>2026-04-26T10:50:37.73Z</time></trkpt><trkpt lat="43.019055" lon="2.475585"><ele>480.6666666666667</ele><time>2026-04-26T10:50:38.729Z</time></trkpt><trkpt lat="43.0189683" lon="2.47577"><ele>478.0</ele><time>2026-04-26T10:50:39.729Z</time></trkpt><trkpt lat="43.0188817" lon="2.4759533"><ele>478.0</ele><time>2026-04-26T10:50:40.728Z</time></trkpt><trkpt lat="43.01879" lon="2.4761317"><ele>478.0</ele><time>2026-04-26T10:50:41.727Z</time></trkpt><trkpt lat="43.0186883" lon="2.4763133"><ele>478.0</ele><time>2026-04-26T10:50:42.728Z</time></trkpt><trkpt lat="43.018575" lon="2.4764967"><ele>474.0</ele><time>2026-04-26T10:50:43.728Z</time></trkpt><trkpt lat="43.01846" lon="2.4766717"><ele>470.0</ele><time>2026-04-26T10:50:44.729Z</time></trkpt><trkpt lat="43.0183517" lon="2.47682"><ele>466.0</ele><time>2026-04-26T10:50:45.728Z</time></trkpt><trkpt lat="43.018245" lon="2.4769717"><ele>459.0</ele><time>2026-04-26T10:50:46.728Z</time></trkpt><trkpt lat="43.0181383" lon="2.477105"><ele>452.0</ele><time>2026-04-26T10:50:47.727Z</time></trkpt><trkpt lat="43.01803" lon="2.477225"><ele>445.0</ele><time>2026-04-26T10:50:48.727Z</time></trkpt><trkpt lat="43.0179133" lon="2.4773233"><ele>438.0</ele><time>2026-04-26T10:50:49.729Z</time></trkpt><trkpt lat="43.01781" lon="2.4774383"><ele>438.0</ele><time>2026-04-26T10:50:50.729Z</time></trkpt><trkpt lat="43.017735" lon="2.4775733"><ele>437.99999999999994</ele><time>2026-04-26T10:50:51.729Z</time></trkpt><trkpt lat="43.0176983" lon="2.4777083"><ele>437.99999999999994</ele><time>2026-04-26T10:50:52.729Z</time></trkpt><trkpt lat="43.0177017" lon="2.4778267"><ele>438.0</ele><time>2026-04-26T10:50:53.728Z</time></trkpt><trkpt lat="43.0177267" lon="2.477935"><ele>438.0</ele><time>2026-04-26T10:50:54.727Z</time></trkpt><trkpt lat="43.017775" lon="2.4780217"><ele>438.0</ele><time>2026-04-26T10:50:55.731Z</time></trkpt><trkpt lat="43.01784" lon="2.4780633"><ele>438.0</ele><time>2026-04-26T10:50:56.727Z</time></trkpt><trkpt lat="43.0179367" lon="2.47801"><ele>438.0</ele><time>2026-04-26T10:50:57.728Z</time></trkpt><trkpt lat="43.0180733" lon="2.4778717"><ele>438.0</ele><time>2026-04-26T10:50:58.727Z</time></trkpt><trkpt lat="43.0182083" lon="2.47771"><ele>442.66666666666663</ele><time>2026-04-26T10:50:59.729Z</time></trkpt><trkpt lat="43.0183383" lon="2.4775467"><ele>447.3333333333333</ele><time>2026-04-26T10:51:00.728Z</time></trkpt><trkpt lat="43.018475" lon="2.4773733"><ele>452.0</ele><time>2026-04-26T10:51:01.728Z</time></trkpt><trkpt lat="43.0186233" lon="2.4772"><ele>456.66666666666663</ele><time>2026-04-26T10:51:02.728Z</time></trkpt><trkpt lat="43.0187583" lon="2.4770517"><ele>461.33333333333337</ele><time>2026-04-26T10:51:03.729Z</time></trkpt><trkpt lat="43.0188867" lon="2.4769067"><ele>466.0</ele><time>2026-04-26T10:51:04.727Z</time></trkpt><trkpt lat="43.0190083" lon="2.476765"><ele>466.0</ele><time>2026-04-26T10:51:05.729Z</time></trkpt><trkpt lat="43.01912" lon="2.4766167"><ele>466.0</ele><time>2026-04-26T10:51:06.727Z</time></trkpt><trkpt lat="43.019225" lon="2.4764717"><ele>466.0</ele><time>2026-04-26T10:51:07.728Z</time></trkpt><trkpt lat="43.0193267" lon="2.4763283"><ele>465.6</ele><time>2026-04-26T10:51:08.729Z</time></trkpt><trkpt lat="43.019395" lon="2.4761783"><ele>465.20000000000005</ele><time>2026-04-26T10:51:09.727Z</time></trkpt><trkpt lat="43.01945" lon="2.476055"><ele>464.79999999999995</ele><time>2026-04-26T10:51:10.728Z</time></trkpt><trkpt lat="43.0195067" lon="2.475965"><ele>464.4</ele><time>2026-04-26T10:51:11.727Z</time></trkpt><trkpt lat="43.019575" lon="2.4759417"><ele>464.0</ele><time>2026-04-26T10:51:12.73Z</time></trkpt><trkpt lat="43.0196317" lon="2.4760717"><ele>464.0</ele><time>2026-04-26T10:51:14.728Z</time></trkpt><trkpt lat="43.0195583" lon="2.476195"><ele>464.0</ele><time>2026-04-26T10:51:15.728Z</time></trkpt><trkpt lat="43.0194767" lon="2.4763317"><ele>464.0</ele><time>2026-04-26T10:51:16.728Z</time></trkpt><trkpt lat="43.0193933" lon="2.47648"><ele>464.0</ele><time>2026-04-26T10:51:17.728Z</time></trkpt><trkpt lat="43.0193133" lon="2.4766417"><ele>464.66666666666663</ele><time>2026-04-26T10:51:18.728Z</time></trkpt><trkpt lat="43.01923" lon="2.4768133"><ele>465.33333333333337</ele><time>2026-04-26T10:51:19.729Z</time></trkpt><trkpt lat="43.0191417" lon="2.47699"><ele>466.0</ele><time>2026-04-26T10:51:20.73Z</time></trkpt><trkpt lat="43.0190583" lon="2.477175"><ele>461.33333333333337</ele><time>2026-04-26T10:51:21.73Z</time></trkpt><trkpt lat="43.0189817" lon="2.4773633"><ele>456.66666666666663</ele><time>2026-04-26T10:51:22.728Z</time></trkpt><trkpt lat="43.0189283" lon="2.47755"><ele>452.0</ele><time>2026-04-26T10:51:23.728Z</time></trkpt><trkpt lat="43.01888" lon="2.4777417"><ele>446.3333333333333</ele><time>2026-04-26T10:51:24.729Z</time></trkpt><trkpt lat="43.0188267" lon="2.4779367"><ele>440.66666666666663</ele><time>2026-04-26T10:51:25.728Z</time></trkpt><trkpt lat="43.01876" lon="2.4781283"><ele>435.0</ele><time>2026-04-26T10:51:26.729Z</time></trkpt><trkpt lat="43.0186767" lon="2.47832"><ele>435.0</ele><time>2026-04-26T10:51:27.728Z</time></trkpt><trkpt lat="43.0185867" lon="2.4785067"><ele>435.0</ele><time>2026-04-26T10:51:28.729Z</time></trkpt><trkpt lat="43.0184967" lon="2.478695"><ele>435.0</ele><time>2026-04-26T10:51:29.728Z</time></trkpt><trkpt lat="43.0184117" lon="2.4788767"><ele>428.66666666666663</ele><time>2026-04-26T10:51:30.73Z</time></trkpt><trkpt lat="43.0183317" lon="2.4790533"><ele>422.3333333333333</ele><time>2026-04-26T10:51:31.731Z</time></trkpt><trkpt lat="43.01825" lon="2.4792283"><ele>416.0</ele><time>2026-04-26T10:51:32.728Z</time></trkpt><trkpt lat="43.0181717" lon="2.4793967"><ele>416.0</ele><time>2026-04-26T10:51:33.733Z</time></trkpt><trkpt lat="43.0180917" lon="2.4795617"><ele>416.0</ele><time>2026-04-26T10:51:34.728Z</time></trkpt><trkpt lat="43.0180167" lon="2.479725"><ele>416.0</ele><time>2026-04-26T10:51:35.729Z</time></trkpt><trkpt lat="43.017945" lon="2.4798767"><ele>416.0</ele><time>2026-04-26T10:51:36.727Z</time></trkpt><trkpt lat="43.0178783" lon="2.4800267"><ele>414.5</ele><time>2026-04-26T10:51:37.728Z</time></trkpt><trkpt lat="43.0178133" lon="2.480165"><ele>413.0</ele><time>2026-04-26T10:51:38.728Z</time></trkpt><trkpt lat="43.0177467" lon="2.48029"><ele>411.5</ele><time>2026-04-26T10:51:39.728Z</time></trkpt><trkpt lat="43.0176683" lon="2.4803933"><ele>410.0</ele><time>2026-04-26T10:51:40.727Z</time></trkpt><trkpt lat="43.0175767" lon="2.4804717"><ele>409.4</ele><time>2026-04-26T10:51:41.727Z</time></trkpt><trkpt lat="43.0174783" lon="2.4805167"><ele>408.8</ele><time>2026-04-26T10:51:42.728Z</time></trkpt><trkpt lat="43.0173733" lon="2.4805567"><ele>408.20000000000005</ele><time>2026-04-26T10:51:43.728Z</time></trkpt><trkpt lat="43.0172733" lon="2.4805917"><ele>407.6</ele><time>2026-04-26T10:51:44.728Z</time></trkpt><trkpt lat="43.0171767" lon="2.4806283"><ele>407.0</ele><time>2026-04-26T10:51:45.728Z</time></trkpt><trkpt lat="43.0170817" lon="2.4806617"><ele>407.0</ele><time>2026-04-26T10:51:46.728Z</time></trkpt><trkpt lat="43.0169933" lon="2.4806933"><ele>407.0</ele><time>2026-04-26T10:51:47.729Z</time></trkpt><trkpt lat="43.0169117" lon="2.480735"><ele>407.0</ele><time>2026-04-26T10:51:48.729Z</time></trkpt><trkpt lat="43.0168351" lon="2.4807968"><ele>407.0</ele><time>2026-04-26T10:51:49.728Z</time></trkpt><trkpt lat="43.0167723" lon="2.4808864"><ele>407.0</ele><time>2026-04-26T10:51:50.73Z</time></trkpt><trkpt lat="43.016722" lon="2.4809965"><ele>407.0</ele><time>2026-04-26T10:51:51.729Z</time></trkpt><trkpt lat="43.0166816" lon="2.4811176"><ele>407.0</ele><time>2026-04-26T10:51:52.728Z</time></trkpt><trkpt lat="43.0166481" lon="2.4812499"><ele>407.0</ele><time>2026-04-26T10:51:53.73Z</time></trkpt><trkpt lat="43.0166144" lon="2.4813804"><ele>407.0</ele><time>2026-04-26T10:51:54.73Z</time></trkpt><trkpt lat="43.0165825" lon="2.4815106"><ele>407.0</ele><time>2026-04-26T10:51:55.731Z</time></trkpt><trkpt lat="43.0165508" lon="2.4816468"><ele>407.40000000000003</ele><time>2026-04-26T10:51:56.729Z</time></trkpt><trkpt lat="43.0165196" lon="2.4817831"><ele>407.8</ele><time>2026-04-26T10:51:57.729Z</time></trkpt><trkpt lat="43.0164882" lon="2.4819215"><ele>408.2</ele><time>2026-04-26T10:51:58.727Z</time></trkpt><trkpt lat="43.0164519" lon="2.4820684"><ele>408.6</ele><time>2026-04-26T10:51:59.729Z</time></trkpt><trkpt lat="43.0164117" lon="2.4822149"><ele>409.0</ele><time>2026-04-26T10:52:00.728Z</time></trkpt><trkpt lat="43.0163719" lon="2.482355"><ele>409.0</ele><time>2026-04-26T10:52:01.728Z</time></trkpt><trkpt lat="43.0163345" lon="2.4825045"><ele>409.0</ele><time>2026-04-26T10:52:02.729Z</time></trkpt><trkpt lat="43.0162963" lon="2.4826533"><ele>409.0</ele><time>2026-04-26T10:52:03.728Z</time></trkpt><trkpt lat="43.0162555" lon="2.4827963"><ele>409.0</ele><time>2026-04-26T10:52:04.727Z</time></trkpt><trkpt lat="43.0162088" lon="2.482934"><ele>405.79999999999995</ele><time>2026-04-26T10:52:05.728Z</time></trkpt><trkpt lat="43.016151" lon="2.4830576"><ele>402.59999999999997</ele><time>2026-04-26T10:52:06.728Z</time></trkpt><trkpt lat="43.016083" lon="2.4831681"><ele>399.4</ele><time>2026-04-26T10:52:07.728Z</time></trkpt><trkpt lat="43.0160154" lon="2.4832637"><ele>396.2</ele><time>2026-04-26T10:52:08.727Z</time></trkpt><trkpt lat="43.0159603" lon="2.4833612"><ele>393.0</ele><time>2026-04-26T10:52:09.729Z</time></trkpt><trkpt lat="43.0159129" lon="2.4834671"><ele>393.0</ele><time>2026-04-26T10:52:10.729Z</time></trkpt><trkpt lat="43.0158701" lon="2.4835564"><ele>393.0</ele><time>2026-04-26T10:52:11.728Z</time></trkpt><trkpt lat="43.0158498" lon="2.4836398"><ele>393.0</ele><time>2026-04-26T10:52:12.731Z</time></trkpt><trkpt lat="43.0158128" lon="2.483781"><ele>370.0</ele><time>2026-04-26T10:52:14.729Z</time></trkpt><trkpt lat="43.0157866" lon="2.48387"><ele>370.0</ele><time>2026-04-26T10:52:16.727Z</time></trkpt><trkpt lat="43.0158292" lon="2.4839619"><ele>381.0</ele><time>2026-04-26T10:52:20.728Z</time></trkpt></trkseg><trkseg><trkpt lat="43.0158483" lon="2.4841433"><ele>381.0</ele><time>2026-04-26T11:16:00.545Z</time></trkpt><trkpt lat="43.0157767" lon="2.4842867"><ele>381.0</ele><time>2026-04-26T11:16:02.545Z</time></trkpt><trkpt lat="43.01587" lon="2.484255"><ele>381.0</ele><time>2026-04-26T11:16:05.544Z</time></trkpt><trkpt lat="43.0158333" lon="2.4840767"><ele>381.0</ele><time>2026-04-26T11:16:10.544Z</time></trkpt><trkpt lat="43.0158167" lon="2.4839833"><ele>381.0</ele><time>2026-04-26T11:17:06.729Z</time></trkpt><trkpt lat="43.0158717" lon="2.4839367"><ele>379.1666666666667</ele><time>2026-04-26T11:17:09.728Z</time></trkpt><trkpt lat="43.0157967" lon="2.48394"><ele>377.3333333333333</ele><time>2026-04-26T11:17:25.728Z</time></trkpt><trkpt lat="43.0157333" lon="2.484"><ele>375.5</ele><time>2026-04-26T11:17:29.728Z</time></trkpt><trkpt lat="43.0157" lon="2.4840917"><ele>373.66666666666663</ele><time>2026-04-26T11:17:33.727Z</time></trkpt><trkpt lat="43.0156983" lon="2.4841983"><ele>371.8333333333333</ele><time>2026-04-26T11:17:48.73Z</time></trkpt><trkpt lat="43.01561" lon="2.4843117"><ele>370.0</ele><time>2026-04-26T11:17:50.729Z</time></trkpt><trkpt lat="43.0155167" lon="2.4844183"><ele>370.0</ele><time>2026-04-26T11:17:52.73Z</time></trkpt><trkpt lat="43.01547" lon="2.4844833"><ele>370.0</ele><time>2026-04-26T11:17:53.729Z</time></trkpt><trkpt lat="43.0154317" lon="2.484575"><ele>370.0</ele><time>2026-04-26T11:17:54.729Z</time></trkpt><trkpt lat="43.0153967" lon="2.4846717"><ele>370.0</ele><time>2026-04-26T11:17:55.728Z</time></trkpt><trkpt lat="43.01536" lon="2.4847833"><ele>370.0</ele><time>2026-04-26T11:17:56.731Z</time></trkpt><trkpt lat="43.015325" lon="2.4849033"><ele>370.0</ele><time>2026-04-26T11:17:57.728Z</time></trkpt><trkpt lat="43.01529" lon="2.4850233"><ele>370.25</ele><time>2026-04-26T11:17:58.731Z</time></trkpt><trkpt lat="43.0152517" lon="2.48516"><ele>370.5</ele><time>2026-04-26T11:17:59.728Z</time></trkpt><trkpt lat="43.01518" lon="2.4852783"><ele>370.75</ele><time>2026-04-26T11:18:00.73Z</time></trkpt><trkpt lat="43.0151083" lon="2.4853983"><ele>371.0</ele><time>2026-04-26T11:18:01.729Z</time></trkpt><trkpt lat="43.0150183" lon="2.4855233"><ele>372.25</ele><time>2026-04-26T11:18:02.729Z</time></trkpt><trkpt lat="43.0149167" lon="2.4856367"><ele>373.5</ele><time>2026-04-26T11:18:03.729Z</time></trkpt><trkpt lat="43.01482" lon="2.4857483"><ele>374.75</ele><time>2026-04-26T11:18:04.729Z</time></trkpt><trkpt lat="43.0147233" lon="2.48586"><ele>376.0</ele><time>2026-04-26T11:18:05.728Z</time></trkpt><trkpt lat="43.01462" lon="2.4859767"><ele>376.0</ele><time>2026-04-26T11:18:06.728Z</time></trkpt><trkpt lat="43.014515" lon="2.4860967"><ele>376.0</ele><time>2026-04-26T11:18:07.729Z</time></trkpt><trkpt lat="43.0144117" lon="2.4862217"><ele>376.0</ele><time>2026-04-26T11:18:08.732Z</time></trkpt><trkpt lat="43.014315" lon="2.48635"><ele>376.0</ele><time>2026-04-26T11:18:09.728Z</time></trkpt><trkpt lat="43.0142217" lon="2.486485"><ele>372.25</ele><time>2026-04-26T11:18:10.729Z</time></trkpt><trkpt lat="43.0141317" lon="2.48662"><ele>368.5</ele><time>2026-04-26T11:18:11.727Z</time></trkpt><trkpt lat="43.0140467" lon="2.48677"><ele>364.75</ele><time>2026-04-26T11:18:12.727Z</time></trkpt><trkpt lat="43.0139783" lon="2.4869267"><ele>361.0</ele><time>2026-04-26T11:18:13.729Z</time></trkpt><trkpt lat="43.01393" lon="2.4870917"><ele>360.5</ele><time>2026-04-26T11:18:14.731Z</time></trkpt><trkpt lat="43.0138917" lon="2.48725"><ele>360.0</ele><time>2026-04-26T11:18:15.728Z</time></trkpt><trkpt lat="43.0138633" lon="2.4874167"><ele>359.5</ele><time>2026-04-26T11:18:16.731Z</time></trkpt><trkpt lat="43.013825" lon="2.4875767"><ele>359.0</ele><time>2026-04-26T11:18:17.729Z</time></trkpt><trkpt lat="43.0137783" lon="2.4877167"><ele>359.0</ele><time>2026-04-26T11:18:18.735Z</time></trkpt><trkpt lat="43.013725" lon="2.4878333"><ele>359.0</ele><time>2026-04-26T11:18:19.727Z</time></trkpt><trkpt lat="43.0136517" lon="2.4879167"><ele>359.0</ele><time>2026-04-26T11:18:20.728Z</time></trkpt><trkpt lat="43.0135683" lon="2.4879433"><ele>359.0</ele><time>2026-04-26T11:18:21.728Z</time></trkpt><trkpt lat="43.0134883" lon="2.4879183"><ele>359.0</ele><time>2026-04-26T11:18:22.729Z</time></trkpt><trkpt lat="43.0134267" lon="2.4878383"><ele>359.0</ele><time>2026-04-26T11:18:23.729Z</time></trkpt><trkpt lat="43.0133733" lon="2.4877283"><ele>359.0</ele><time>2026-04-26T11:18:24.728Z</time></trkpt><trkpt lat="43.0133383" lon="2.4876"><ele>359.0</ele><time>2026-04-26T11:18:25.731Z</time></trkpt><trkpt lat="43.0133183" lon="2.4874717"><ele>359.0</ele><time>2026-04-26T11:18:26.728Z</time></trkpt><trkpt lat="43.0133083" lon="2.4873433"><ele>359.0</ele><time>2026-04-26T11:18:27.729Z</time></trkpt><trkpt lat="43.0132967" lon="2.4871867"><ele>359.0</ele><time>2026-04-26T11:18:28.73Z</time></trkpt><trkpt lat="43.01329" lon="2.4870333"><ele>351.25</ele><time>2026-04-26T11:18:29.727Z</time></trkpt><trkpt lat="43.013275" lon="2.48689"><ele>343.5</ele><time>2026-04-26T11:18:30.729Z</time></trkpt><trkpt lat="43.0132417" lon="2.4867417"><ele>335.75</ele><time>2026-04-26T11:18:31.729Z</time></trkpt><trkpt lat="43.0131967" lon="2.4865917"><ele>328.0</ele><time>2026-04-26T11:18:32.728Z</time></trkpt><trkpt lat="43.0131417" lon="2.4864333"><ele>328.0</ele><time>2026-04-26T11:18:33.729Z</time></trkpt><trkpt lat="43.0130817" lon="2.4862883"><ele>328.0</ele><time>2026-04-26T11:18:34.728Z</time></trkpt><trkpt lat="43.013015" lon="2.48616"><ele>328.0</ele><time>2026-04-26T11:18:35.729Z</time></trkpt><trkpt lat="43.0129383" lon="2.4860383"><ele>328.0</ele><time>2026-04-26T11:18:36.732Z</time></trkpt><trkpt lat="43.0128417" lon="2.4859517"><ele>331.0</ele><time>2026-04-26T11:18:37.728Z</time></trkpt><trkpt lat="43.0127483" lon="2.4858883"><ele>334.0</ele><time>2026-04-26T11:18:38.732Z</time></trkpt><trkpt lat="43.012655" lon="2.4858367"><ele>337.0</ele><time>2026-04-26T11:18:39.727Z</time></trkpt><trkpt lat="43.012575" lon="2.48577"><ele>340.0</ele><time>2026-04-26T11:18:40.728Z</time></trkpt><trkpt lat="43.0125183" lon="2.4856683"><ele>343.0</ele><time>2026-04-26T11:18:41.73Z</time></trkpt><trkpt lat="43.0124833" lon="2.4855633"><ele>343.5</ele><time>2026-04-26T11:18:42.729Z</time></trkpt><trkpt lat="43.0124683" lon="2.4854533"><ele>344.0</ele><time>2026-04-26T11:18:43.728Z</time></trkpt><trkpt lat="43.0124733" lon="2.4853383"><ele>344.5</ele><time>2026-04-26T11:18:44.73Z</time></trkpt><trkpt lat="43.012485" lon="2.4852133"><ele>345.0</ele><time>2026-04-26T11:18:45.728Z</time></trkpt><trkpt lat="43.0124833" lon="2.485095"><ele>345.5</ele><time>2026-04-26T11:18:46.729Z</time></trkpt><trkpt lat="43.0124967" lon="2.484975"><ele>346.0</ele><time>2026-04-26T11:18:47.729Z</time></trkpt><trkpt lat="43.012515" lon="2.4848517"><ele>346.0</ele><time>2026-04-26T11:18:48.73Z</time></trkpt><trkpt lat="43.0125333" lon="2.484715"><ele>346.0</ele><time>2026-04-26T11:18:49.729Z</time></trkpt><trkpt lat="43.0125483" lon="2.4845733"><ele>346.0</ele><time>2026-04-26T11:18:50.728Z</time></trkpt><trkpt lat="43.01256" lon="2.4844367"><ele>346.0</ele><time>2026-04-26T11:18:51.729Z</time></trkpt><trkpt lat="43.012575" lon="2.48429"><ele>346.0</ele><time>2026-04-26T11:18:52.729Z</time></trkpt><trkpt lat="43.0126" lon="2.48414"><ele>344.0</ele><time>2026-04-26T11:18:53.729Z</time></trkpt><trkpt lat="43.0126283" lon="2.4839917"><ele>342.0</ele><time>2026-04-26T11:18:54.728Z</time></trkpt><trkpt lat="43.012665" lon="2.483845"><ele>340.0</ele><time>2026-04-26T11:18:55.729Z</time></trkpt><trkpt lat="43.0127267" lon="2.48371"><ele>338.0</ele><time>2026-04-26T11:18:56.73Z</time></trkpt><trkpt lat="43.01282" lon="2.483595"><ele>334.75</ele><time>2026-04-26T11:18:57.728Z</time></trkpt><trkpt lat="43.0129317" lon="2.483515"><ele>331.5</ele><time>2026-04-26T11:18:58.728Z</time></trkpt><trkpt lat="43.0130533" lon="2.483455"><ele>328.25</ele><time>2026-04-26T11:18:59.728Z</time></trkpt><trkpt lat="43.0131717" lon="2.4834133"><ele>325.0</ele><time>2026-04-26T11:19:00.73Z</time></trkpt><trkpt lat="43.0132867" lon="2.4833933"><ele>328.4</ele><time>2026-04-26T11:19:01.73Z</time></trkpt><trkpt lat="43.0134017" lon="2.4834067"><ele>331.8</ele><time>2026-04-26T11:19:02.73Z</time></trkpt><trkpt lat="43.0134967" lon="2.4834283"><ele>335.20000000000005</ele><time>2026-04-26T11:19:03.731Z</time></trkpt><trkpt lat="43.0135883" lon="2.483425"><ele>338.6</ele><time>2026-04-26T11:19:04.729Z</time></trkpt><trkpt lat="43.0136617" lon="2.48338"><ele>342.0</ele><time>2026-04-26T11:19:05.727Z</time></trkpt><trkpt lat="43.0136983" lon="2.4832783"><ele>342.0</ele><time>2026-04-26T11:19:06.729Z</time></trkpt><trkpt lat="43.01369" lon="2.483155"><ele>342.0</ele><time>2026-04-26T11:19:07.731Z</time></trkpt><trkpt lat="43.013645" lon="2.4830367"><ele>342.0</ele><time>2026-04-26T11:19:08.731Z</time></trkpt><trkpt lat="43.0135283" lon="2.48294"><ele>342.0</ele><time>2026-04-26T11:19:09.728Z</time></trkpt><trkpt lat="43.0134233" lon="2.4828533"><ele>342.0</ele><time>2026-04-26T11:19:10.73Z</time></trkpt><trkpt lat="43.0133183" lon="2.4827633"><ele>337.25</ele><time>2026-04-26T11:19:11.728Z</time></trkpt><trkpt lat="43.0132083" lon="2.4826783"><ele>332.5</ele><time>2026-04-26T11:19:12.736Z</time></trkpt><trkpt lat="43.0130933" lon="2.4825933"><ele>327.75</ele><time>2026-04-26T11:19:13.73Z</time></trkpt><trkpt lat="43.0129833" lon="2.4824983"><ele>323.0</ele><time>2026-04-26T11:19:14.728Z</time></trkpt><trkpt lat="43.0128683" lon="2.4824267"><ele>323.0</ele><time>2026-04-26T11:19:15.728Z</time></trkpt><trkpt lat="43.0127617" lon="2.4823417"><ele>323.0</ele><time>2026-04-26T11:19:16.729Z</time></trkpt><trkpt lat="43.01268" lon="2.4822467"><ele>323.0</ele><time>2026-04-26T11:19:17.729Z</time></trkpt><trkpt lat="43.0126367" lon="2.4821217"><ele>323.0</ele><time>2026-04-26T11:19:18.731Z</time></trkpt><trkpt lat="43.01263" lon="2.4819733"><ele>323.0</ele><time>2026-04-26T11:19:19.731Z</time></trkpt><trkpt lat="43.0126483" lon="2.4818083"><ele>324.25</ele><time>2026-04-26T11:19:20.734Z</time></trkpt><trkpt lat="43.0126917" lon="2.481645"><ele>325.5</ele><time>2026-04-26T11:19:21.728Z</time></trkpt><trkpt lat="43.01274" lon="2.4814817"><ele>326.75</ele><time>2026-04-26T11:19:22.729Z</time></trkpt><trkpt lat="43.0127817" lon="2.4813067"><ele>328.0</ele><time>2026-04-26T11:19:23.729Z</time></trkpt><trkpt lat="43.0128267" lon="2.481135"><ele>330.0</ele><time>2026-04-26T11:19:24.729Z</time></trkpt><trkpt lat="43.0128717" lon="2.480965"><ele>332.0</ele><time>2026-04-26T11:19:25.73Z</time></trkpt><trkpt lat="43.01293" lon="2.48082"><ele>334.0</ele><time>2026-04-26T11:19:26.728Z</time></trkpt><trkpt lat="43.013005" lon="2.4807033"><ele>336.0</ele><time>2026-04-26T11:19:27.727Z</time></trkpt><trkpt lat="43.013065" lon="2.4805967"><ele>336.0</ele><time>2026-04-26T11:19:28.728Z</time></trkpt><trkpt lat="43.0131017" lon="2.48049"><ele>336.0</ele><time>2026-04-26T11:19:29.728Z</time></trkpt><trkpt lat="43.0130983" lon="2.4804"><ele>336.0</ele><time>2026-04-26T11:19:30.728Z</time></trkpt><trkpt lat="43.013065" lon="2.480325"><ele>336.0</ele><time>2026-04-26T11:19:31.729Z</time></trkpt><trkpt lat="43.0129167" lon="2.4803733"><ele>336.0</ele><time>2026-04-26T11:19:33.729Z</time></trkpt><trkpt lat="43.0128217" lon="2.48048"><ele>336.0</ele><time>2026-04-26T11:19:34.729Z</time></trkpt><trkpt lat="43.0127267" lon="2.480625"><ele>336.0</ele><time>2026-04-26T11:19:35.73Z</time></trkpt><trkpt lat="43.01263" lon="2.48078"><ele>336.0</ele><time>2026-04-26T11:19:36.728Z</time></trkpt><trkpt lat="43.0125417" lon="2.4809483"><ele>336.0</ele><time>2026-04-26T11:19:37.728Z</time></trkpt><trkpt lat="43.0124417" lon="2.4811083"><ele>332.6666666666667</ele><time>2026-04-26T11:19:38.729Z</time></trkpt><trkpt lat="43.012345" lon="2.48128"><ele>329.33333333333337</ele><time>2026-04-26T11:19:39.734Z</time></trkpt><trkpt lat="43.0122483" lon="2.481465"><ele>326.0</ele><time>2026-04-26T11:19:40.729Z</time></trkpt><trkpt lat="43.01215" lon="2.481655"><ele>326.0</ele><time>2026-04-26T11:19:41.729Z</time></trkpt><trkpt lat="43.01206" lon="2.4818483"><ele>326.0</ele><time>2026-04-26T11:19:42.73Z</time></trkpt><trkpt lat="43.0119767" lon="2.4820567"><ele>326.0</ele><time>2026-04-26T11:19:43.728Z</time></trkpt><trkpt lat="43.0119033" lon="2.4822733"><ele>323.6666666666667</ele><time>2026-04-26T11:19:44.734Z</time></trkpt><trkpt lat="43.0118383" lon="2.4824817"><ele>321.3333333333333</ele><time>2026-04-26T11:19:45.729Z</time></trkpt><trkpt lat="43.011785" lon="2.4827033"><ele>319.0</ele><time>2026-04-26T11:19:46.728Z</time></trkpt><trkpt lat="43.01173" lon="2.4829183"><ele>316.3333333333333</ele><time>2026-04-26T11:19:47.729Z</time></trkpt><trkpt lat="43.01168" lon="2.4831333"><ele>313.6666666666667</ele><time>2026-04-26T11:19:48.729Z</time></trkpt><trkpt lat="43.0116267" lon="2.48335"><ele>311.0</ele><time>2026-04-26T11:19:49.73Z</time></trkpt><trkpt lat="43.01157" lon="2.48357"><ele>308.6666666666667</ele><time>2026-04-26T11:19:50.735Z</time></trkpt><trkpt lat="43.011515" lon="2.4837883"><ele>306.3333333333333</ele><time>2026-04-26T11:19:51.729Z</time></trkpt><trkpt lat="43.0114567" lon="2.483995"><ele>304.0</ele><time>2026-04-26T11:19:52.729Z</time></trkpt><trkpt lat="43.011405" lon="2.4841967"><ele>304.0</ele><time>2026-04-26T11:19:53.733Z</time></trkpt><trkpt lat="43.0113517" lon="2.4843983"><ele>304.0</ele><time>2026-04-26T11:19:54.73Z</time></trkpt><trkpt lat="43.0113" lon="2.48459"><ele>304.0</ele><time>2026-04-26T11:19:55.731Z</time></trkpt><trkpt lat="43.0112733" lon="2.48478"><ele>304.0</ele><time>2026-04-26T11:19:56.729Z</time></trkpt><trkpt lat="43.0112833" lon="2.4849633"><ele>303.25</ele><time>2026-04-26T11:19:57.728Z</time></trkpt><trkpt lat="43.0113133" lon="2.4851383"><ele>302.5</ele><time>2026-04-26T11:19:58.729Z</time></trkpt><trkpt lat="43.01134" lon="2.48531"><ele>301.75</ele><time>2026-04-26T11:19:59.729Z</time></trkpt><trkpt lat="43.0113467" lon="2.4854817"><ele>301.0</ele><time>2026-04-26T11:20:00.729Z</time></trkpt><trkpt lat="43.0113333" lon="2.4856533"><ele>300.75</ele><time>2026-04-26T11:20:01.728Z</time></trkpt><trkpt lat="43.011335" lon="2.485835"><ele>300.5</ele><time>2026-04-26T11:20:02.73Z</time></trkpt><trkpt lat="43.0113567" lon="2.4860233"><ele>300.25</ele><time>2026-04-26T11:20:03.728Z</time></trkpt><trkpt lat="43.0114117" lon="2.486205"><ele>300.0</ele><time>2026-04-26T11:20:04.728Z</time></trkpt><trkpt lat="43.0114883" lon="2.4863783"><ele>300.0</ele><time>2026-04-26T11:20:05.729Z</time></trkpt><trkpt lat="43.01156" lon="2.4865567"><ele>300.0</ele><time>2026-04-26T11:20:06.73Z</time></trkpt><trkpt lat="43.011615" lon="2.4867433"><ele>300.0</ele><time>2026-04-26T11:20:07.729Z</time></trkpt><trkpt lat="43.0116467" lon="2.4869533"><ele>298.6666666666667</ele><time>2026-04-26T11:20:08.728Z</time></trkpt><trkpt lat="43.0116617" lon="2.4871767"><ele>297.33333333333337</ele><time>2026-04-26T11:20:09.728Z</time></trkpt><trkpt lat="43.0116683" lon="2.4873983"><ele>296.0</ele><time>2026-04-26T11:20:10.729Z</time></trkpt><trkpt lat="43.01168" lon="2.4876217"><ele>296.0</ele><time>2026-04-26T11:20:11.728Z</time></trkpt><trkpt lat="43.0116967" lon="2.4878367"><ele>296.0</ele><time>2026-04-26T11:20:12.729Z</time></trkpt><trkpt lat="43.0117183" lon="2.48804"><ele>296.0</ele><time>2026-04-26T11:20:13.731Z</time></trkpt><trkpt lat="43.01174" lon="2.4882367"><ele>295.6666666666667</ele><time>2026-04-26T11:20:14.73Z</time></trkpt><trkpt lat="43.0117467" lon="2.4884317"><ele>295.3333333333333</ele><time>2026-04-26T11:20:15.729Z</time></trkpt><trkpt lat="43.0117367" lon="2.4886417"><ele>295.0</ele><time>2026-04-26T11:20:16.732Z</time></trkpt><trkpt lat="43.0117083" lon="2.4888533"><ele>296.0</ele><time>2026-04-26T11:20:17.728Z</time></trkpt><trkpt lat="43.0116617" lon="2.4890533"><ele>297.0</ele><time>2026-04-26T11:20:18.729Z</time></trkpt><trkpt lat="43.0116133" lon="2.4892567"><ele>298.0</ele><time>2026-04-26T11:20:19.729Z</time></trkpt><trkpt lat="43.011575" lon="2.489455"><ele>298.25</ele><time>2026-04-26T11:20:20.73Z</time></trkpt><trkpt lat="43.0115567" lon="2.4896533"><ele>298.5</ele><time>2026-04-26T11:20:21.729Z</time></trkpt><trkpt lat="43.0115617" lon="2.489845"><ele>298.75</ele><time>2026-04-26T11:20:22.728Z</time></trkpt><trkpt lat="43.011575" lon="2.4900317"><ele>299.0</ele><time>2026-04-26T11:20:23.73Z</time></trkpt><trkpt lat="43.0115733" lon="2.490215"><ele>299.0</ele><time>2026-04-26T11:20:24.728Z</time></trkpt><trkpt lat="43.011535" lon="2.490385"><ele>299.0</ele><time>2026-04-26T11:20:25.729Z</time></trkpt><trkpt lat="43.011475" lon="2.490545"><ele>299.0</ele><time>2026-04-26T11:20:26.732Z</time></trkpt><trkpt lat="43.0114117" lon="2.4907017"><ele>299.0</ele><time>2026-04-26T11:20:27.729Z</time></trkpt><trkpt lat="43.0113533" lon="2.4908633"><ele>297.75</ele><time>2026-04-26T11:20:28.73Z</time></trkpt><trkpt lat="43.0113083" lon="2.4910317"><ele>296.5</ele><time>2026-04-26T11:20:29.73Z</time></trkpt><trkpt lat="43.0112733" lon="2.491195"><ele>295.25</ele><time>2026-04-26T11:20:30.729Z</time></trkpt><trkpt lat="43.011255" lon="2.4913683"><ele>294.0</ele><time>2026-04-26T11:20:31.731Z</time></trkpt><trkpt lat="43.0112717" lon="2.4915483"><ele>294.0</ele><time>2026-04-26T11:20:32.73Z</time></trkpt><trkpt lat="43.0113167" lon="2.4917217"><ele>294.0</ele><time>2026-04-26T11:20:33.728Z</time></trkpt><trkpt lat="43.011375" lon="2.4918783"><ele>294.0</ele><time>2026-04-26T11:20:34.731Z</time></trkpt><trkpt lat="43.0114217" lon="2.4920217"><ele>294.0</ele><time>2026-04-26T11:20:35.729Z</time></trkpt><trkpt lat="43.0114167" lon="2.4921617"><ele>295.0</ele><time>2026-04-26T11:20:36.729Z</time></trkpt><trkpt lat="43.0113667" lon="2.4922883"><ele>296.0</ele><time>2026-04-26T11:20:37.728Z</time></trkpt><trkpt lat="43.011285" lon="2.4923867"><ele>297.0</ele><time>2026-04-26T11:20:38.733Z</time></trkpt><trkpt lat="43.0112083" lon="2.4925017"><ele>298.0</ele><time>2026-04-26T11:20:39.729Z</time></trkpt><trkpt lat="43.01116" lon="2.4926467"><ele>299.0</ele><time>2026-04-26T11:20:40.728Z</time></trkpt><trkpt lat="43.01115" lon="2.4928217"><ele>298.0</ele><time>2026-04-26T11:20:41.728Z</time></trkpt><trkpt lat="43.0111733" lon="2.4930117"><ele>297.0</ele><time>2026-04-26T11:20:42.728Z</time></trkpt><trkpt lat="43.0112017" lon="2.4932083"><ele>296.0</ele><time>2026-04-26T11:20:43.729Z</time></trkpt><trkpt lat="43.0112317" lon="2.49341"><ele>295.0</ele><time>2026-04-26T11:20:44.731Z</time></trkpt><trkpt lat="43.0112633" lon="2.4936167"><ele>296.3333333333333</ele><time>2026-04-26T11:20:45.729Z</time></trkpt><trkpt lat="43.0112983" lon="2.49383"><ele>297.6666666666667</ele><time>2026-04-26T11:20:46.734Z</time></trkpt><trkpt lat="43.0113383" lon="2.494045"><ele>299.0</ele><time>2026-04-26T11:20:47.73Z</time></trkpt><trkpt lat="43.0113783" lon="2.4942617"><ele>299.0</ele><time>2026-04-26T11:20:48.728Z</time></trkpt><trkpt lat="43.0114117" lon="2.4944767"><ele>299.0</ele><time>2026-04-26T11:20:49.73Z</time></trkpt><trkpt lat="43.0114417" lon="2.4946867"><ele>299.0</ele><time>2026-04-26T11:20:50.728Z</time></trkpt><trkpt lat="43.0114733" lon="2.49489"><ele>298.25</ele><time>2026-04-26T11:20:51.729Z</time></trkpt><trkpt lat="43.0114983" lon="2.495085"><ele>297.5</ele><time>2026-04-26T11:20:52.731Z</time></trkpt><trkpt lat="43.011505" lon="2.495285"><ele>296.75</ele><time>2026-04-26T11:20:53.728Z</time></trkpt><trkpt lat="43.0114767" lon="2.49549"><ele>296.0</ele><time>2026-04-26T11:20:54.73Z</time></trkpt><trkpt lat="43.0114267" lon="2.4956983"><ele>293.6666666666667</ele><time>2026-04-26T11:20:55.729Z</time></trkpt><trkpt lat="43.0113633" lon="2.4959117"><ele>291.3333333333333</ele><time>2026-04-26T11:20:56.728Z</time></trkpt><trkpt lat="43.0112967" lon="2.496125"><ele>289.0</ele><time>2026-04-26T11:20:57.729Z</time></trkpt><trkpt lat="43.0112217" lon="2.4963233"><ele>285.0</ele><time>2026-04-26T11:20:58.729Z</time></trkpt><trkpt lat="43.01114" lon="2.49652"><ele>281.0</ele><time>2026-04-26T11:20:59.728Z</time></trkpt><trkpt lat="43.01106" lon="2.496725"><ele>277.0</ele><time>2026-04-26T11:21:00.728Z</time></trkpt><trkpt lat="43.0109867" lon="2.496935"><ele>272.66666666666663</ele><time>2026-04-26T11:21:01.727Z</time></trkpt><trkpt lat="43.010905" lon="2.4971417"><ele>268.3333333333333</ele><time>2026-04-26T11:21:02.727Z</time></trkpt><trkpt lat="43.010825" lon="2.4973483"><ele>264.0</ele><time>2026-04-26T11:21:03.727Z</time></trkpt><trkpt lat="43.0107483" lon="2.4975617"><ele>270.0</ele><time>2026-04-26T11:21:04.729Z</time></trkpt><trkpt lat="43.0106617" lon="2.4977767"><ele>276.0</ele><time>2026-04-26T11:21:05.727Z</time></trkpt><trkpt lat="43.0105783" lon="2.4979867"><ele>282.0</ele><time>2026-04-26T11:21:06.728Z</time></trkpt><trkpt lat="43.0104767" lon="2.49818"><ele>282.0</ele><time>2026-04-26T11:21:07.728Z</time></trkpt><trkpt lat="43.0103783" lon="2.49838"><ele>282.0</ele><time>2026-04-26T11:21:08.728Z</time></trkpt><trkpt lat="43.0102783" lon="2.4985767"><ele>282.0</ele><time>2026-04-26T11:21:09.729Z</time></trkpt><trkpt lat="43.0101817" lon="2.4987783"><ele>285.0</ele><time>2026-04-26T11:21:10.728Z</time></trkpt><trkpt lat="43.010095" lon="2.4989717"><ele>288.0</ele><time>2026-04-26T11:21:11.728Z</time></trkpt><trkpt lat="43.0100267" lon="2.49917"><ele>291.0</ele><time>2026-04-26T11:21:12.732Z</time></trkpt><trkpt lat="43.00997" lon="2.4993633"><ele>291.0</ele><time>2026-04-26T11:21:13.729Z</time></trkpt><trkpt lat="43.00992" lon="2.4995533"><ele>291.0</ele><time>2026-04-26T11:21:14.727Z</time></trkpt><trkpt lat="43.00987" lon="2.499735"><ele>291.0</ele><time>2026-04-26T11:21:15.729Z</time></trkpt><trkpt lat="43.00981" lon="2.4999017"><ele>291.0</ele><time>2026-04-26T11:21:16.728Z</time></trkpt><trkpt lat="43.009735" lon="2.5000633"><ele>286.5</ele><time>2026-04-26T11:21:17.73Z</time></trkpt><trkpt lat="43.0096517" lon="2.5002183"><ele>282.0</ele><time>2026-04-26T11:21:18.729Z</time></trkpt><trkpt lat="43.0095633" lon="2.5003667"><ele>277.5</ele><time>2026-04-26T11:21:19.729Z</time></trkpt><trkpt lat="43.009475" lon="2.5005083"><ele>273.0</ele><time>2026-04-26T11:21:20.73Z</time></trkpt><trkpt lat="43.0093917" lon="2.50065"><ele>268.75</ele><time>2026-04-26T11:21:21.73Z</time></trkpt><trkpt lat="43.0093083" lon="2.5007733"><ele>264.5</ele><time>2026-04-26T11:21:22.729Z</time></trkpt><trkpt lat="43.0092183" lon="2.500885"><ele>260.25</ele><time>2026-04-26T11:21:23.728Z</time></trkpt><trkpt lat="43.009135" lon="2.501015"><ele>256.0</ele><time>2026-04-26T11:21:24.728Z</time></trkpt><trkpt lat="43.00904" lon="2.5010933"><ele>255.66666666666666</ele><time>2026-04-26T11:21:25.729Z</time></trkpt><trkpt lat="43.0089467" lon="2.5011617"><ele>255.33333333333331</ele><time>2026-04-26T11:21:26.733Z</time></trkpt><trkpt lat="43.0088633" lon="2.501225"><ele>255.0</ele><time>2026-04-26T11:21:27.728Z</time></trkpt><trkpt lat="43.0087917" lon="2.5012833"><ele>254.66666666666669</ele><time>2026-04-26T11:21:28.729Z</time></trkpt><trkpt lat="43.008725" lon="2.50133"><ele>254.33333333333334</ele><time>2026-04-26T11:21:29.728Z</time></trkpt><trkpt lat="43.0086617" lon="2.5013783"><ele>254.0</ele><time>2026-04-26T11:21:30.727Z</time></trkpt><trkpt lat="43.0085683" lon="2.501395"><ele>253.50000000000003</ele><time>2026-04-26T11:21:32.729Z</time></trkpt><trkpt lat="43.0085667" lon="2.5014883"><ele>253.0</ele><time>2026-04-26T11:21:36.73Z</time></trkpt><trkpt lat="43.00859" lon="2.50158"><ele>252.5</ele><time>2026-04-26T11:21:37.727Z</time></trkpt><trkpt lat="43.008615" lon="2.5016833"><ele>252.0</ele><time>2026-04-26T11:21:38.728Z</time></trkpt><trkpt lat="43.00864" lon="2.5018017"><ele>251.50000000000003</ele><time>2026-04-26T11:21:39.727Z</time></trkpt><trkpt lat="43.008665" lon="2.5019333"><ele>251.0</ele><time>2026-04-26T11:21:40.728Z</time></trkpt><trkpt lat="43.0086883" lon="2.5020733"><ele>251.0</ele><time>2026-04-26T11:21:41.729Z</time></trkpt><trkpt lat="43.0087133" lon="2.502215"><ele>251.00000000000003</ele><time>2026-04-26T11:21:42.727Z</time></trkpt><trkpt lat="43.0087383" lon="2.5023517"><ele>251.00000000000003</ele><time>2026-04-26T11:21:43.729Z</time></trkpt><trkpt lat="43.0087317" lon="2.5024883"><ele>251.0</ele><time>2026-04-26T11:21:44.728Z</time></trkpt><trkpt lat="43.0086817" lon="2.5026217"><ele>251.0</ele><time>2026-04-26T11:21:45.728Z</time></trkpt><trkpt lat="43.0086" lon="2.502745"><ele>251.0</ele><time>2026-04-26T11:21:46.728Z</time></trkpt><trkpt lat="43.008515" lon="2.5028783"><ele>251.0</ele><time>2026-04-26T11:21:47.729Z</time></trkpt><trkpt lat="43.0084433" lon="2.503035"><ele>251.0</ele><time>2026-04-26T11:21:48.733Z</time></trkpt><trkpt lat="43.0083933" lon="2.50321"><ele>251.0</ele><time>2026-04-26T11:21:49.727Z</time></trkpt><trkpt lat="43.00837" lon="2.5034083"><ele>251.0</ele><time>2026-04-26T11:21:50.73Z</time></trkpt><trkpt lat="43.0083617" lon="2.5036183"><ele>251.0</ele><time>2026-04-26T11:21:51.727Z</time></trkpt><trkpt lat="43.008365" lon="2.5038317"><ele>251.0</ele><time>2026-04-26T11:21:52.73Z</time></trkpt><trkpt lat="43.00838" lon="2.50404"><ele>251.0</ele><time>2026-04-26T11:21:53.731Z</time></trkpt><trkpt lat="43.0084" lon="2.504245"><ele>251.0</ele><time>2026-04-26T11:21:54.729Z</time></trkpt><trkpt lat="43.0084267" lon="2.5044567"><ele>251.0</ele><time>2026-04-26T11:21:55.729Z</time></trkpt><trkpt lat="43.0084567" lon="2.5046683"><ele>250.0</ele><time>2026-04-26T11:21:56.729Z</time></trkpt><trkpt lat="43.0084917" lon="2.5048883"><ele>249.0</ele><time>2026-04-26T11:21:57.727Z</time></trkpt><trkpt lat="43.008515" lon="2.5051017"><ele>248.0</ele><time>2026-04-26T11:21:58.728Z</time></trkpt><trkpt lat="43.0085017" lon="2.50531"><ele>248.0</ele><time>2026-04-26T11:21:59.729Z</time></trkpt><trkpt lat="43.008455" lon="2.5055133"><ele>248.0</ele><time>2026-04-26T11:22:00.729Z</time></trkpt><trkpt lat="43.0083983" lon="2.5057133"><ele>248.0</ele><time>2026-04-26T11:22:01.728Z</time></trkpt><trkpt lat="43.0083467" lon="2.5059183"><ele>248.0</ele><time>2026-04-26T11:22:02.728Z</time></trkpt><trkpt lat="43.0083117" lon="2.5061333"><ele>248.0</ele><time>2026-04-26T11:22:03.731Z</time></trkpt><trkpt lat="43.008295" lon="2.5063533"><ele>248.0</ele><time>2026-04-26T11:22:04.733Z</time></trkpt><trkpt lat="43.0082933" lon="2.5065867"><ele>248.0</ele><time>2026-04-26T11:22:05.727Z</time></trkpt><trkpt lat="43.0082833" lon="2.5068183"><ele>248.0</ele><time>2026-04-26T11:22:06.73Z</time></trkpt><trkpt lat="43.0082667" lon="2.50705"><ele>248.0</ele><time>2026-04-26T11:22:07.729Z</time></trkpt><trkpt lat="43.00824" lon="2.50728"><ele>247.33333333333334</ele><time>2026-04-26T11:22:08.728Z</time></trkpt><trkpt lat="43.0082133" lon="2.5075067"><ele>246.66666666666669</ele><time>2026-04-26T11:22:09.729Z</time></trkpt><trkpt lat="43.0081917" lon="2.5077383"><ele>246.0</ele><time>2026-04-26T11:22:10.729Z</time></trkpt><trkpt lat="43.0081783" lon="2.50797"><ele>246.0</ele><time>2026-04-26T11:22:11.728Z</time></trkpt><trkpt lat="43.0081683" lon="2.5082017"><ele>246.0</ele><time>2026-04-26T11:22:12.727Z</time></trkpt><trkpt lat="43.0081517" lon="2.508435"><ele>246.0</ele><time>2026-04-26T11:22:13.729Z</time></trkpt><trkpt lat="43.0081167" lon="2.508665"><ele>245.0</ele><time>2026-04-26T11:22:14.74Z</time></trkpt><trkpt lat="43.0080683" lon="2.5088917"><ele>244.0</ele><time>2026-04-26T11:22:15.727Z</time></trkpt><trkpt lat="43.0080167" lon="2.5091167"><ele>243.0</ele><time>2026-04-26T11:22:16.728Z</time></trkpt><trkpt lat="43.007975" lon="2.5093467"><ele>242.33333333333331</ele><time>2026-04-26T11:22:17.737Z</time></trkpt><trkpt lat="43.00794" lon="2.5095767"><ele>241.66666666666666</ele><time>2026-04-26T11:22:18.73Z</time></trkpt><trkpt lat="43.0079017" lon="2.5098117"><ele>241.0</ele><time>2026-04-26T11:22:19.73Z</time></trkpt><trkpt lat="43.00788" lon="2.5100517"><ele>241.0</ele><time>2026-04-26T11:22:20.732Z</time></trkpt><trkpt lat="43.0078533" lon="2.5102933"><ele>241.0</ele><time>2026-04-26T11:22:21.73Z</time></trkpt><trkpt lat="43.007825" lon="2.5105267"><ele>241.0</ele><time>2026-04-26T11:22:22.727Z</time></trkpt><trkpt lat="43.0078067" lon="2.510765"><ele>241.33333333333331</ele><time>2026-04-26T11:22:23.732Z</time></trkpt><trkpt lat="43.007775" lon="2.510985"><ele>241.66666666666669</ele><time>2026-04-26T11:22:24.728Z</time></trkpt><trkpt lat="43.0077483" lon="2.5112067"><ele>242.0</ele><time>2026-04-26T11:22:25.728Z</time></trkpt><trkpt lat="43.0077217" lon="2.51143"><ele>243.0</ele><time>2026-04-26T11:22:26.728Z</time></trkpt><trkpt lat="43.0076967" lon="2.511645"><ele>244.0</ele><time>2026-04-26T11:22:27.728Z</time></trkpt><trkpt lat="43.0076533" lon="2.5118533"><ele>245.0</ele><time>2026-04-26T11:22:28.727Z</time></trkpt><trkpt lat="43.007595" lon="2.5120567"><ele>245.0</ele><time>2026-04-26T11:22:29.728Z</time></trkpt><trkpt lat="43.007525" lon="2.512255"><ele>245.0</ele><time>2026-04-26T11:22:30.729Z</time></trkpt><trkpt lat="43.007475" lon="2.5124583"><ele>245.0</ele><time>2026-04-26T11:22:31.728Z</time></trkpt><trkpt lat="43.007445" lon="2.51267"><ele>245.0</ele><time>2026-04-26T11:22:32.729Z</time></trkpt><trkpt lat="43.0074283" lon="2.5128933"><ele>245.0</ele><time>2026-04-26T11:22:33.729Z</time></trkpt><trkpt lat="43.0074133" lon="2.5131183"><ele>245.0</ele><time>2026-04-26T11:22:34.731Z</time></trkpt><trkpt lat="43.0073917" lon="2.5133367"><ele>244.25</ele><time>2026-04-26T11:22:35.728Z</time></trkpt><trkpt lat="43.0073617" lon="2.5135467"><ele>243.5</ele><time>2026-04-26T11:22:36.728Z</time></trkpt><trkpt lat="43.0073233" lon="2.5137367"><ele>242.75</ele><time>2026-04-26T11:22:37.727Z</time></trkpt><trkpt lat="43.00728" lon="2.5139083"><ele>242.0</ele><time>2026-04-26T11:22:38.727Z</time></trkpt><trkpt lat="43.0072283" lon="2.5140633"><ele>241.8</ele><time>2026-04-26T11:22:39.727Z</time></trkpt><trkpt lat="43.0071817" lon="2.5142067"><ele>241.6</ele><time>2026-04-26T11:22:40.727Z</time></trkpt><trkpt lat="43.007135" lon="2.5143333"><ele>241.40000000000003</ele><time>2026-04-26T11:22:41.728Z</time></trkpt><trkpt lat="43.0071" lon="2.5144483"><ele>241.20000000000002</ele><time>2026-04-26T11:22:42.727Z</time></trkpt><trkpt lat="43.0070733" lon="2.514555"><ele>241.0</ele><time>2026-04-26T11:22:43.727Z</time></trkpt><trkpt lat="43.00705" lon="2.5146467"><ele>240.99999999999997</ele><time>2026-04-26T11:22:44.728Z</time></trkpt><trkpt lat="43.0070217" lon="2.5147783"><ele>241.0</ele><time>2026-04-26T11:22:46.728Z</time></trkpt><trkpt lat="43.0070967" lon="2.514805"><ele>241.0</ele><time>2026-04-26T11:23:18.731Z</time></trkpt><trkpt lat="43.0071017" lon="2.5147"><ele>241.0</ele><time>2026-04-26T11:23:34.73Z</time></trkpt><trkpt lat="43.0071383" lon="2.5145817"><ele>240.99999999999997</ele><time>2026-04-26T11:23:36.728Z</time></trkpt><trkpt lat="43.0071667" lon="2.5145033"><ele>241.0</ele><time>2026-04-26T11:23:37.729Z</time></trkpt><trkpt lat="43.0072117" lon="2.514415"><ele>240.75</ele><time>2026-04-26T11:23:38.728Z</time></trkpt><trkpt lat="43.0072717" lon="2.5143"><ele>240.5</ele><time>2026-04-26T11:23:39.73Z</time></trkpt><trkpt lat="43.0073517" lon="2.514165"><ele>240.25</ele><time>2026-04-26T11:23:40.728Z</time></trkpt><trkpt lat="43.0074383" lon="2.5140283"><ele>240.0</ele><time>2026-04-26T11:23:41.728Z</time></trkpt><trkpt lat="43.0075217" lon="2.5138783"><ele>242.5</ele><time>2026-04-26T11:23:42.729Z</time></trkpt><trkpt lat="43.0075867" lon="2.5137267"><ele>245.0</ele><time>2026-04-26T11:23:43.728Z</time></trkpt><trkpt lat="43.0076333" lon="2.5135633"><ele>247.5</ele><time>2026-04-26T11:23:44.728Z</time></trkpt><trkpt lat="43.0076583" lon="2.5134"><ele>250.0</ele><time>2026-04-26T11:23:45.728Z</time></trkpt><trkpt lat="43.0076817" lon="2.5132367"><ele>250.0</ele><time>2026-04-26T11:23:46.728Z</time></trkpt><trkpt lat="43.0077133" lon="2.513085"><ele>250.0</ele><time>2026-04-26T11:23:47.728Z</time></trkpt><trkpt lat="43.0077667" lon="2.51295"><ele>250.0</ele><time>2026-04-26T11:23:48.728Z</time></trkpt><trkpt lat="43.00783" lon="2.5128067"><ele>250.0</ele><time>2026-04-26T11:23:49.728Z</time></trkpt><trkpt lat="43.007895" lon="2.5126533"><ele>249.75</ele><time>2026-04-26T11:23:50.73Z</time></trkpt><trkpt lat="43.0079517" lon="2.5124967"><ele>249.5</ele><time>2026-04-26T11:23:51.729Z</time></trkpt><trkpt lat="43.0080083" lon="2.5123533"><ele>249.25</ele><time>2026-04-26T11:23:52.734Z</time></trkpt><trkpt lat="43.0080783" lon="2.5122333"><ele>249.0</ele><time>2026-04-26T11:23:53.728Z</time></trkpt><trkpt lat="43.0081633" lon="2.5121367"><ele>248.33333333333334</ele><time>2026-04-26T11:23:54.729Z</time></trkpt><trkpt lat="43.008245" lon="2.5120417"><ele>247.66666666666669</ele><time>2026-04-26T11:23:55.728Z</time></trkpt><trkpt lat="43.0083133" lon="2.5119867"><ele>247.0</ele><time>2026-04-26T11:23:56.729Z</time></trkpt><trkpt lat="43.0083967" lon="2.51201"><ele>246.33333333333334</ele><time>2026-04-26T11:23:58.734Z</time></trkpt><trkpt lat="43.0084183" lon="2.5121417"><ele>245.66666666666669</ele><time>2026-04-26T11:24:00.727Z</time></trkpt><trkpt lat="43.0083917" lon="2.5122367"><ele>245.0</ele><time>2026-04-26T11:24:01.727Z</time></trkpt><trkpt lat="43.0083567" lon="2.512345"><ele>245.8</ele><time>2026-04-26T11:24:02.728Z</time></trkpt><trkpt lat="43.00833" lon="2.5124717"><ele>246.6</ele><time>2026-04-26T11:24:03.728Z</time></trkpt><trkpt lat="43.0083117" lon="2.5126"><ele>247.39999999999998</ele><time>2026-04-26T11:24:04.728Z</time></trkpt><trkpt lat="43.008335" lon="2.5127633"><ele>248.2</ele><time>2026-04-26T11:24:05.727Z</time></trkpt><trkpt lat="43.008345" lon="2.5129183"><ele>249.0</ele><time>2026-04-26T11:24:06.734Z</time></trkpt><trkpt lat="43.008345" lon="2.5130733"><ele>249.25</ele><time>2026-04-26T11:24:07.729Z</time></trkpt><trkpt lat="43.00833" lon="2.5132517"><ele>249.5</ele><time>2026-04-26T11:24:08.728Z</time></trkpt><trkpt lat="43.0083117" lon="2.5134483"><ele>249.75</ele><time>2026-04-26T11:24:09.728Z</time></trkpt><trkpt lat="43.0082933" lon="2.5136483"><ele>250.0</ele><time>2026-04-26T11:24:10.728Z</time></trkpt><trkpt lat="43.0082817" lon="2.5138633"><ele>251.33333333333331</ele><time>2026-04-26T11:24:11.729Z</time></trkpt><trkpt lat="43.0082667" lon="2.514085"><ele>252.66666666666669</ele><time>2026-04-26T11:24:12.727Z</time></trkpt><trkpt lat="43.0082517" lon="2.5143083"><ele>254.0</ele><time>2026-04-26T11:24:13.727Z</time></trkpt><trkpt lat="43.008235" lon="2.5145167"><ele>255.5</ele><time>2026-04-26T11:24:14.729Z</time></trkpt><trkpt lat="43.008215" lon="2.5147083"><ele>257.0</ele><time>2026-04-26T11:24:15.728Z</time></trkpt><trkpt lat="43.008185" lon="2.5148783"><ele>258.5</ele><time>2026-04-26T11:24:16.729Z</time></trkpt><trkpt lat="43.00817" lon="2.515045"><ele>260.0</ele><time>2026-04-26T11:24:17.732Z</time></trkpt><trkpt lat="43.0081617" lon="2.5152017"><ele>260.0</ele><time>2026-04-26T11:24:18.731Z</time></trkpt><trkpt lat="43.00813" lon="2.51535"><ele>260.0</ele><time>2026-04-26T11:24:19.729Z</time></trkpt><trkpt lat="43.00809" lon="2.515475"><ele>260.0</ele><time>2026-04-26T11:24:20.731Z</time></trkpt><trkpt lat="43.0080217" lon="2.5155683"><ele>260.0</ele><time>2026-04-26T11:24:21.729Z</time></trkpt><trkpt lat="43.007945" lon="2.5156517"><ele>260.0</ele><time>2026-04-26T11:24:22.728Z</time></trkpt><trkpt lat="43.0078683" lon="2.5157567"><ele>262.4</ele><time>2026-04-26T11:24:23.729Z</time></trkpt><trkpt lat="43.0078033" lon="2.5158917"><ele>264.8</ele><time>2026-04-26T11:24:24.731Z</time></trkpt><trkpt lat="43.0077383" lon="2.5160317"><ele>267.2</ele><time>2026-04-26T11:24:25.728Z</time></trkpt><trkpt lat="43.0076767" lon="2.5161567"><ele>269.6</ele><time>2026-04-26T11:24:26.729Z</time></trkpt><trkpt lat="43.0076383" lon="2.5162733"><ele>272.0</ele><time>2026-04-26T11:24:27.728Z</time></trkpt><trkpt lat="43.00761" lon="2.516385"><ele>273.2</ele><time>2026-04-26T11:24:28.729Z</time></trkpt><trkpt lat="43.0075967" lon="2.5164967"><ele>274.4</ele><time>2026-04-26T11:24:29.727Z</time></trkpt><trkpt lat="43.007605" lon="2.51661"><ele>275.6</ele><time>2026-04-26T11:24:30.731Z</time></trkpt><trkpt lat="43.007665" lon="2.516735"><ele>276.8</ele><time>2026-04-26T11:24:31.729Z</time></trkpt><trkpt lat="43.0077483" lon="2.5168517"><ele>278.0</ele><time>2026-04-26T11:24:32.729Z</time></trkpt><trkpt lat="43.00783" lon="2.5169583"><ele>278.2</ele><time>2026-04-26T11:24:33.728Z</time></trkpt><trkpt lat="43.00789" lon="2.51707"><ele>278.4</ele><time>2026-04-26T11:24:34.731Z</time></trkpt><trkpt lat="43.0079167" lon="2.5171883"><ele>278.59999999999997</ele><time>2026-04-26T11:24:35.727Z</time></trkpt><trkpt lat="43.0079433" lon="2.5173117"><ele>278.8</ele><time>2026-04-26T11:24:36.732Z</time></trkpt><trkpt lat="43.0079867" lon="2.51743"><ele>279.0</ele><time>2026-04-26T11:24:37.728Z</time></trkpt><trkpt lat="43.0080467" lon="2.5175317"><ele>279.0</ele><time>2026-04-26T11:24:38.73Z</time></trkpt><trkpt lat="43.0080967" lon="2.5176383"><ele>279.0</ele><time>2026-04-26T11:24:39.727Z</time></trkpt><trkpt lat="43.0081467" lon="2.5177667"><ele>279.0</ele><time>2026-04-26T11:24:40.73Z</time></trkpt><trkpt lat="43.008195" lon="2.5179033"><ele>279.0</ele><time>2026-04-26T11:24:41.727Z</time></trkpt><trkpt lat="43.0082367" lon="2.5180383"><ele>279.0</ele><time>2026-04-26T11:24:42.729Z</time></trkpt><trkpt lat="43.0082667" lon="2.5181767"><ele>279.0</ele><time>2026-04-26T11:24:43.728Z</time></trkpt><trkpt lat="43.0082733" lon="2.5183267"><ele>279.0</ele><time>2026-04-26T11:24:44.729Z</time></trkpt><trkpt lat="43.0082767" lon="2.5184833"><ele>279.0</ele><time>2026-04-26T11:24:45.729Z</time></trkpt><trkpt lat="43.0082933" lon="2.518635"><ele>279.0</ele><time>2026-04-26T11:24:46.729Z</time></trkpt><trkpt lat="43.0083183" lon="2.518795"><ele>278.5</ele><time>2026-04-26T11:24:47.729Z</time></trkpt><trkpt lat="43.0083417" lon="2.5189583"><ele>278.0</ele><time>2026-04-26T11:24:48.731Z</time></trkpt><trkpt lat="43.00834" lon="2.5191167"><ele>277.5</ele><time>2026-04-26T11:24:49.729Z</time></trkpt><trkpt lat="43.0083283" lon="2.5192767"><ele>277.0</ele><time>2026-04-26T11:24:50.73Z</time></trkpt><trkpt lat="43.0083167" lon="2.5194233"><ele>277.0</ele><time>2026-04-26T11:24:51.728Z</time></trkpt><trkpt lat="43.0083133" lon="2.519565"><ele>277.0</ele><time>2026-04-26T11:24:52.73Z</time></trkpt><trkpt lat="43.0083283" lon="2.519705"><ele>277.0</ele><time>2026-04-26T11:24:53.728Z</time></trkpt><trkpt lat="43.0083567" lon="2.519855"><ele>277.0</ele><time>2026-04-26T11:24:54.729Z</time></trkpt><trkpt lat="43.0083833" lon="2.52001"><ele>277.0</ele><time>2026-04-26T11:24:55.729Z</time></trkpt><trkpt lat="43.0084083" lon="2.5201733"><ele>279.6</ele><time>2026-04-26T11:24:56.728Z</time></trkpt><trkpt lat="43.0084367" lon="2.520335"><ele>282.2</ele><time>2026-04-26T11:24:57.73Z</time></trkpt><trkpt lat="43.0084617" lon="2.5204867"><ele>284.8</ele><time>2026-04-26T11:24:58.729Z</time></trkpt><trkpt lat="43.008485" lon="2.5206317"><ele>287.4</ele><time>2026-04-26T11:24:59.731Z</time></trkpt><trkpt lat="43.0085133" lon="2.5207667"><ele>290.0</ele><time>2026-04-26T11:25:00.728Z</time></trkpt><trkpt lat="43.008545" lon="2.52089"><ele>290.0</ele><time>2026-04-26T11:25:01.729Z</time></trkpt><trkpt lat="43.0085783" lon="2.5210033"><ele>290.0</ele><time>2026-04-26T11:25:02.729Z</time></trkpt><trkpt lat="43.00865" lon="2.5210433"><ele>290.0</ele><time>2026-04-26T11:25:03.729Z</time></trkpt><trkpt lat="43.0087317" lon="2.5210617"><ele>290.0</ele><time>2026-04-26T11:25:04.727Z</time></trkpt><trkpt lat="43.0088283" lon="2.521045"><ele>290.0</ele><time>2026-04-26T11:25:05.729Z</time></trkpt><trkpt lat="43.008945" lon="2.521005"><ele>290.0</ele><time>2026-04-26T11:25:06.73Z</time></trkpt><trkpt lat="43.0090633" lon="2.520965"><ele>290.0</ele><time>2026-04-26T11:25:07.728Z</time></trkpt><trkpt lat="43.0091767" lon="2.52092"><ele>290.0</ele><time>2026-04-26T11:25:08.729Z</time></trkpt><trkpt lat="43.0092767" lon="2.5208717"><ele>290.0</ele><time>2026-04-26T11:25:09.728Z</time></trkpt><trkpt lat="43.0093717" lon="2.5208117"><ele>292.33333333333337</ele><time>2026-04-26T11:25:10.727Z</time></trkpt><trkpt lat="43.009455" lon="2.52074"><ele>294.6666666666667</ele><time>2026-04-26T11:25:11.728Z</time></trkpt><trkpt lat="43.009525" lon="2.520655"><ele>297.0</ele><time>2026-04-26T11:25:12.735Z</time></trkpt><trkpt lat="43.0095767" lon="2.52056"><ele>299.3333333333333</ele><time>2026-04-26T11:25:13.728Z</time></trkpt><trkpt lat="43.00961" lon="2.5204567"><ele>301.66666666666663</ele><time>2026-04-26T11:25:14.728Z</time></trkpt><trkpt lat="43.0096417" lon="2.520345"><ele>304.0</ele><time>2026-04-26T11:25:15.729Z</time></trkpt><trkpt lat="43.0096733" lon="2.5202217"><ele>306.25</ele><time>2026-04-26T11:25:16.728Z</time></trkpt><trkpt lat="43.0097117" lon="2.52007"><ele>308.5</ele><time>2026-04-26T11:25:17.728Z</time></trkpt><trkpt lat="43.0097667" lon="2.5199283"><ele>310.75</ele><time>2026-04-26T11:25:18.728Z</time></trkpt><trkpt lat="43.0098167" lon="2.51979"><ele>313.0</ele><time>2026-04-26T11:25:19.728Z</time></trkpt><trkpt lat="43.0098833" lon="2.5196667"><ele>313.2</ele><time>2026-04-26T11:25:20.734Z</time></trkpt><trkpt lat="43.009955" lon="2.51955"><ele>313.4</ele><time>2026-04-26T11:25:21.728Z</time></trkpt><trkpt lat="43.010025" lon="2.519465"><ele>313.59999999999997</ele><time>2026-04-26T11:25:22.727Z</time></trkpt><trkpt lat="43.0101017" lon="2.5194017"><ele>313.8</ele><time>2026-04-26T11:25:23.727Z</time></trkpt><trkpt lat="43.0101833" lon="2.51934"><ele>314.0</ele><time>2026-04-26T11:25:24.729Z</time></trkpt><trkpt lat="43.0102833" lon="2.5192633"><ele>313.4</ele><time>2026-04-26T11:25:25.729Z</time></trkpt><trkpt lat="43.0103833" lon="2.519185"><ele>312.79999999999995</ele><time>2026-04-26T11:25:26.728Z</time></trkpt><trkpt lat="43.0104767" lon="2.5190933"><ele>312.20000000000005</ele><time>2026-04-26T11:25:27.729Z</time></trkpt><trkpt lat="43.0105717" lon="2.519"><ele>311.6</ele><time>2026-04-26T11:25:28.73Z</time></trkpt><trkpt lat="43.0106533" lon="2.5189217"><ele>311.0</ele><time>2026-04-26T11:25:29.727Z</time></trkpt><trkpt lat="43.0107217" lon="2.5188833"><ele>311.0</ele><time>2026-04-26T11:25:30.728Z</time></trkpt><trkpt lat="43.0107883" lon="2.5188633"><ele>311.0</ele><time>2026-04-26T11:25:31.729Z</time></trkpt><trkpt lat="43.0108583" lon="2.518845"><ele>311.0</ele><time>2026-04-26T11:25:32.728Z</time></trkpt><trkpt lat="43.010925" lon="2.5188183"><ele>311.0</ele><time>2026-04-26T11:25:33.728Z</time></trkpt><trkpt lat="43.0109933" lon="2.51874"><ele>311.0</ele><time>2026-04-26T11:25:34.729Z</time></trkpt><trkpt lat="43.01105" lon="2.5186417"><ele>311.0</ele><time>2026-04-26T11:25:35.729Z</time></trkpt><trkpt lat="43.0111117" lon="2.5185433"><ele>312.0</ele><time>2026-04-26T11:25:36.729Z</time></trkpt><trkpt lat="43.01118" lon="2.5184433"><ele>313.0</ele><time>2026-04-26T11:25:37.728Z</time></trkpt><trkpt lat="43.0112517" lon="2.5183433"><ele>314.0</ele><time>2026-04-26T11:25:38.733Z</time></trkpt><trkpt lat="43.0113217" lon="2.51823"><ele>315.0</ele><time>2026-04-26T11:25:39.728Z</time></trkpt><trkpt lat="43.0114017" lon="2.5180933"><ele>316.0</ele><time>2026-04-26T11:25:40.727Z</time></trkpt><trkpt lat="43.01148" lon="2.5179617"><ele>316.0</ele><time>2026-04-26T11:25:41.728Z</time></trkpt><trkpt lat="43.011565" lon="2.51783"><ele>316.0</ele><time>2026-04-26T11:25:42.727Z</time></trkpt><trkpt lat="43.0116533" lon="2.5176933"><ele>316.0</ele><time>2026-04-26T11:25:43.729Z</time></trkpt><trkpt lat="43.0117283" lon="2.517575"><ele>316.0</ele><time>2026-04-26T11:25:44.729Z</time></trkpt><trkpt lat="43.01179" lon="2.5174433"><ele>316.0</ele><time>2026-04-26T11:25:45.728Z</time></trkpt><trkpt lat="43.0118417" lon="2.5173033"><ele>316.0</ele><time>2026-04-26T11:25:46.728Z</time></trkpt><trkpt lat="43.0118817" lon="2.517165"><ele>316.0</ele><time>2026-04-26T11:25:47.727Z</time></trkpt><trkpt lat="43.011905" lon="2.5170267"><ele>316.0</ele><time>2026-04-26T11:25:48.735Z</time></trkpt><trkpt lat="43.01193" lon="2.51688"><ele>316.0</ele><time>2026-04-26T11:25:49.731Z</time></trkpt><trkpt lat="43.0119567" lon="2.5167217"><ele>316.5</ele><time>2026-04-26T11:25:50.731Z</time></trkpt><trkpt lat="43.0119883" lon="2.5165517"><ele>317.0</ele><time>2026-04-26T11:25:51.727Z</time></trkpt><trkpt lat="43.012025" lon="2.5163817"><ele>317.5</ele><time>2026-04-26T11:25:52.729Z</time></trkpt><trkpt lat="43.0120833" lon="2.5161833"><ele>318.0</ele><time>2026-04-26T11:25:53.729Z</time></trkpt><trkpt lat="43.0121533" lon="2.51602"><ele>316.0</ele><time>2026-04-26T11:25:54.728Z</time></trkpt><trkpt lat="43.0122233" lon="2.5158667"><ele>314.0</ele><time>2026-04-26T11:25:55.728Z</time></trkpt><trkpt lat="43.0123" lon="2.5157333"><ele>312.0</ele><time>2026-04-26T11:25:56.729Z</time></trkpt><trkpt lat="43.0123783" lon="2.5156217"><ele>310.0</ele><time>2026-04-26T11:25:57.729Z</time></trkpt><trkpt lat="43.0124733" lon="2.5155267"><ele>311.0</ele><time>2026-04-26T11:25:58.73Z</time></trkpt><trkpt lat="43.0125767" lon="2.5154333"><ele>312.0</ele><time>2026-04-26T11:25:59.728Z</time></trkpt><trkpt lat="43.01267" lon="2.5153467"><ele>313.0</ele><time>2026-04-26T11:26:00.728Z</time></trkpt><trkpt lat="43.0127567" lon="2.5152583"><ele>314.0</ele><time>2026-04-26T11:26:01.731Z</time></trkpt><trkpt lat="43.012825" lon="2.5151683"><ele>315.0</ele><time>2026-04-26T11:26:02.729Z</time></trkpt><trkpt lat="43.0128983" lon="2.5151"><ele>315.0</ele><time>2026-04-26T11:26:03.728Z</time></trkpt><trkpt lat="43.012985" lon="2.5150483"><ele>315.0</ele><time>2026-04-26T11:26:04.729Z</time></trkpt><trkpt lat="43.0130867" lon="2.5150117"><ele>315.0</ele><time>2026-04-26T11:26:05.73Z</time></trkpt><trkpt lat="43.0132017" lon="2.5149733"><ele>315.0</ele><time>2026-04-26T11:26:06.729Z</time></trkpt><trkpt lat="43.01331" lon="2.5149267"><ele>315.0</ele><time>2026-04-26T11:26:07.729Z</time></trkpt><trkpt lat="43.0134133" lon="2.5148417"><ele>315.25</ele><time>2026-04-26T11:26:08.728Z</time></trkpt><trkpt lat="43.0135033" lon="2.5147317"><ele>315.5</ele><time>2026-04-26T11:26:09.727Z</time></trkpt><trkpt lat="43.0135883" lon="2.5146283"><ele>315.75</ele><time>2026-04-26T11:26:10.729Z</time></trkpt><trkpt lat="43.0136817" lon="2.5145383"><ele>316.0</ele><time>2026-04-26T11:26:11.728Z</time></trkpt><trkpt lat="43.0137833" lon="2.51448"><ele>316.0</ele><time>2026-04-26T11:26:12.729Z</time></trkpt><trkpt lat="43.0138883" lon="2.5144483"><ele>316.0</ele><time>2026-04-26T11:26:13.728Z</time></trkpt><trkpt lat="43.0139883" lon="2.51443"><ele>316.0</ele><time>2026-04-26T11:26:14.73Z</time></trkpt><trkpt lat="43.0140833" lon="2.5143967"><ele>316.0</ele><time>2026-04-26T11:26:15.729Z</time></trkpt><trkpt lat="43.0141667" lon="2.5143367"><ele>316.0</ele><time>2026-04-26T11:26:16.729Z</time></trkpt><trkpt lat="43.0142417" lon="2.5142483"><ele>319.0</ele><time>2026-04-26T11:26:17.728Z</time></trkpt><trkpt lat="43.0143" lon="2.5141333"><ele>322.0</ele><time>2026-04-26T11:26:18.729Z</time></trkpt><trkpt lat="43.0143433" lon="2.5139917"><ele>325.0</ele><time>2026-04-26T11:26:19.728Z</time></trkpt><trkpt lat="43.0143767" lon="2.513835"><ele>328.0</ele><time>2026-04-26T11:26:20.728Z</time></trkpt><trkpt lat="43.0144117" lon="2.5136817"><ele>329.4</ele><time>2026-04-26T11:26:21.728Z</time></trkpt><trkpt lat="43.014465" lon="2.5135367"><ele>330.79999999999995</ele><time>2026-04-26T11:26:22.728Z</time></trkpt><trkpt lat="43.01453" lon="2.5134233"><ele>332.2</ele><time>2026-04-26T11:26:23.728Z</time></trkpt><trkpt lat="43.0146083" lon="2.51333"><ele>333.6</ele><time>2026-04-26T11:26:24.728Z</time></trkpt><trkpt lat="43.0147" lon="2.5132483"><ele>335.0</ele><time>2026-04-26T11:26:25.728Z</time></trkpt><trkpt lat="43.01478" lon="2.5131617"><ele>335.0</ele><time>2026-04-26T11:26:26.728Z</time></trkpt><trkpt lat="43.0148467" lon="2.5130767"><ele>335.0</ele><time>2026-04-26T11:26:27.729Z</time></trkpt><trkpt lat="43.014905" lon="2.51302"><ele>335.0</ele><time>2026-04-26T11:26:28.728Z</time></trkpt><trkpt lat="43.01503" lon="2.5130533"><ele>335.0</ele><time>2026-04-26T11:26:30.729Z</time></trkpt><trkpt lat="43.0150983" lon="2.5131317"><ele>335.0</ele><time>2026-04-26T11:26:31.728Z</time></trkpt><trkpt lat="43.0151633" lon="2.5132117"><ele>335.4</ele><time>2026-04-26T11:26:32.729Z</time></trkpt><trkpt lat="43.0152617" lon="2.5131983"><ele>335.8</ele><time>2026-04-26T11:26:34.729Z</time></trkpt><trkpt lat="43.0153017" lon="2.513105"><ele>336.20000000000005</ele><time>2026-04-26T11:26:35.729Z</time></trkpt><trkpt lat="43.01534" lon="2.5129883"><ele>336.6</ele><time>2026-04-26T11:26:36.727Z</time></trkpt><trkpt lat="43.0153867" lon="2.512845"><ele>337.0</ele><time>2026-04-26T11:26:37.729Z</time></trkpt><trkpt lat="43.0154367" lon="2.5126883"><ele>340.75</ele><time>2026-04-26T11:26:38.728Z</time></trkpt><trkpt lat="43.0154833" lon="2.5125217"><ele>344.5</ele><time>2026-04-26T11:26:39.728Z</time></trkpt><trkpt lat="43.015525" lon="2.5123533"><ele>348.25</ele><time>2026-04-26T11:26:40.729Z</time></trkpt><trkpt lat="43.01556" lon="2.5121817"><ele>352.0</ele><time>2026-04-26T11:26:41.728Z</time></trkpt><trkpt lat="43.0155833" lon="2.5120167"><ele>352.0</ele><time>2026-04-26T11:26:42.728Z</time></trkpt><trkpt lat="43.015605" lon="2.5118633"><ele>352.0</ele><time>2026-04-26T11:26:43.728Z</time></trkpt><trkpt lat="43.01565" lon="2.5117333"><ele>352.0</ele><time>2026-04-26T11:26:44.728Z</time></trkpt><trkpt lat="43.0157133" lon="2.5116117"><ele>352.0</ele><time>2026-04-26T11:26:45.73Z</time></trkpt><trkpt lat="43.0157833" lon="2.511505"><ele>352.0</ele><time>2026-04-26T11:26:46.728Z</time></trkpt><trkpt lat="43.0158533" lon="2.5114117"><ele>351.40000000000003</ele><time>2026-04-26T11:26:47.728Z</time></trkpt><trkpt lat="43.0159233" lon="2.511345"><ele>350.8</ele><time>2026-04-26T11:26:48.728Z</time></trkpt><trkpt lat="43.0159867" lon="2.511305"><ele>350.2</ele><time>2026-04-26T11:26:49.73Z</time></trkpt><trkpt lat="43.0160917" lon="2.511385"><ele>349.6</ele><time>2026-04-26T11:26:51.727Z</time></trkpt><trkpt lat="43.01613" lon="2.5114933"><ele>349.0</ele><time>2026-04-26T11:26:52.728Z</time></trkpt><trkpt lat="43.0161617" lon="2.5116283"><ele>349.0</ele><time>2026-04-26T11:26:53.729Z</time></trkpt><trkpt lat="43.0162" lon="2.5117533"><ele>349.0</ele><time>2026-04-26T11:26:54.728Z</time></trkpt><trkpt lat="43.0162633" lon="2.5118633"><ele>349.0</ele><time>2026-04-26T11:26:55.728Z</time></trkpt><trkpt lat="43.01634" lon="2.5119583"><ele>349.0</ele><time>2026-04-26T11:26:56.73Z</time></trkpt><trkpt lat="43.016415" lon="2.5120417"><ele>349.0</ele><time>2026-04-26T11:26:57.728Z</time></trkpt><trkpt lat="43.01647" lon="2.5121267"><ele>347.6</ele><time>2026-04-26T11:26:58.729Z</time></trkpt><trkpt lat="43.0165083" lon="2.5122283"><ele>346.2</ele><time>2026-04-26T11:26:59.728Z</time></trkpt><trkpt lat="43.0165317" lon="2.5123367"><ele>344.8</ele><time>2026-04-26T11:27:00.729Z</time></trkpt><trkpt lat="43.01656" lon="2.512465"><ele>343.40000000000003</ele><time>2026-04-26T11:27:01.733Z</time></trkpt><trkpt lat="43.0165967" lon="2.5125983"><ele>342.0</ele><time>2026-04-26T11:27:02.729Z</time></trkpt><trkpt lat="43.01664" lon="2.5127167"><ele>341.40000000000003</ele><time>2026-04-26T11:27:03.728Z</time></trkpt><trkpt lat="43.0166817" lon="2.51282"><ele>340.8</ele><time>2026-04-26T11:27:04.729Z</time></trkpt><trkpt lat="43.0167233" lon="2.5129067"><ele>340.2</ele><time>2026-04-26T11:27:05.728Z</time></trkpt><trkpt lat="43.0168" lon="2.512945"><ele>339.6</ele><time>2026-04-26T11:27:07.73Z</time></trkpt><trkpt lat="43.0168983" lon="2.51286"><ele>339.0</ele><time>2026-04-26T11:27:09.729Z</time></trkpt><trkpt lat="43.01697" lon="2.5127833"><ele>341.2</ele><time>2026-04-26T11:27:10.73Z</time></trkpt><trkpt lat="43.01705" lon="2.512705"><ele>343.4</ele><time>2026-04-26T11:27:11.731Z</time></trkpt><trkpt lat="43.01713" lon="2.5126483"><ele>345.6</ele><time>2026-04-26T11:27:12.73Z</time></trkpt><trkpt lat="43.0172117" lon="2.5126267"><ele>347.8</ele><time>2026-04-26T11:27:13.731Z</time></trkpt><trkpt lat="43.017295" lon="2.5126367"><ele>350.0</ele><time>2026-04-26T11:27:14.734Z</time></trkpt><trkpt lat="43.0173817" lon="2.512695"><ele>350.0</ele><time>2026-04-26T11:27:15.728Z</time></trkpt><trkpt lat="43.017485" lon="2.5127667"><ele>350.0</ele><time>2026-04-26T11:27:16.733Z</time></trkpt><trkpt lat="43.0175833" lon="2.51284"><ele>350.0</ele><time>2026-04-26T11:27:17.728Z</time></trkpt><trkpt lat="43.0176633" lon="2.51292"><ele>350.0</ele><time>2026-04-26T11:27:18.731Z</time></trkpt><trkpt lat="43.0177417" lon="2.512995"><ele>350.0</ele><time>2026-04-26T11:27:19.73Z</time></trkpt><trkpt lat="43.017815" lon="2.5130517"><ele>348.5</ele><time>2026-04-26T11:27:20.731Z</time></trkpt><trkpt lat="43.01788" lon="2.51309"><ele>347.0</ele><time>2026-04-26T11:27:21.733Z</time></trkpt><trkpt lat="43.0179483" lon="2.5130717"><ele>345.5</ele><time>2026-04-26T11:27:22.728Z</time></trkpt><trkpt lat="43.0180183" lon="2.5130467"><ele>344.0</ele><time>2026-04-26T11:27:23.728Z</time></trkpt><trkpt lat="43.01811" lon="2.5129967"><ele>342.5</ele><time>2026-04-26T11:27:24.73Z</time></trkpt><trkpt lat="43.0181983" lon="2.51296"><ele>341.0</ele><time>2026-04-26T11:27:25.728Z</time></trkpt><trkpt lat="43.018275" lon="2.512925"><ele>341.0</ele><time>2026-04-26T11:27:26.738Z</time></trkpt><trkpt lat="43.0183483" lon="2.5129"><ele>341.0</ele><time>2026-04-26T11:27:27.728Z</time></trkpt><trkpt lat="43.0184167" lon="2.512895"><ele>341.0</ele><time>2026-04-26T11:27:28.731Z</time></trkpt><trkpt lat="43.01847" lon="2.512945"><ele>341.0</ele><time>2026-04-26T11:27:29.729Z</time></trkpt><trkpt lat="43.0185167" lon="2.513035"><ele>341.0</ele><time>2026-04-26T11:27:30.729Z</time></trkpt><trkpt lat="43.0185633" lon="2.5131433"><ele>341.0</ele><time>2026-04-26T11:27:31.73Z</time></trkpt><trkpt lat="43.0186233" lon="2.5132483"><ele>341.0</ele><time>2026-04-26T11:27:32.73Z</time></trkpt><trkpt lat="43.01869" lon="2.5133383"><ele>341.0</ele><time>2026-04-26T11:27:33.729Z</time></trkpt><trkpt lat="43.0187583" lon="2.5133983"><ele>341.0</ele><time>2026-04-26T11:27:34.735Z</time></trkpt><trkpt lat="43.01886" lon="2.5133967"><ele>341.0</ele><time>2026-04-26T11:27:36.728Z</time></trkpt><trkpt lat="43.01891" lon="2.5133333"><ele>341.0</ele><time>2026-04-26T11:27:37.729Z</time></trkpt><trkpt lat="43.0189567" lon="2.5132517"><ele>341.0</ele><time>2026-04-26T11:27:38.728Z</time></trkpt><trkpt lat="43.0190033" lon="2.51317"><ele>341.0</ele><time>2026-04-26T11:27:39.73Z</time></trkpt><trkpt lat="43.0190683" lon="2.513055"><ele>341.0</ele><time>2026-04-26T11:27:40.73Z</time></trkpt><trkpt lat="43.0191083" lon="2.5129717"><ele>341.0</ele><time>2026-04-26T11:27:41.728Z</time></trkpt><trkpt lat="43.0191683" lon="2.5128533"><ele>341.0</ele><time>2026-04-26T11:27:43.728Z</time></trkpt><trkpt lat="43.0192567" lon="2.51287"><ele>341.0</ele><time>2026-04-26T11:27:45.729Z</time></trkpt><trkpt lat="43.019295" lon="2.5129533"><ele>341.0</ele><time>2026-04-26T11:27:46.73Z</time></trkpt><trkpt lat="43.019335" lon="2.5130783"><ele>341.0</ele><time>2026-04-26T11:27:47.729Z</time></trkpt><trkpt lat="43.01937" lon="2.5132033"><ele>341.0</ele><time>2026-04-26T11:27:48.734Z</time></trkpt><trkpt lat="43.019415" lon="2.513325"><ele>341.0</ele><time>2026-04-26T11:27:49.729Z</time></trkpt><trkpt lat="43.019475" lon="2.5134233"><ele>341.0</ele><time>2026-04-26T11:27:50.73Z</time></trkpt><trkpt lat="43.01955" lon="2.5135067"><ele>341.0</ele><time>2026-04-26T11:27:51.729Z</time></trkpt><trkpt lat="43.01963" lon="2.513565"><ele>341.0</ele><time>2026-04-26T11:27:52.728Z</time></trkpt><trkpt lat="43.019715" lon="2.51362"><ele>341.0</ele><time>2026-04-26T11:27:53.729Z</time></trkpt><trkpt lat="43.0198017" lon="2.5136817"><ele>341.0</ele><time>2026-04-26T11:27:54.736Z</time></trkpt><trkpt lat="43.0198983" lon="2.5137533"><ele>341.0</ele><time>2026-04-26T11:27:55.729Z</time></trkpt><trkpt lat="43.0200017" lon="2.5138317"><ele>341.0</ele><time>2026-04-26T11:27:56.729Z</time></trkpt><trkpt lat="43.0200983" lon="2.513905"><ele>337.6</ele><time>2026-04-26T11:27:57.729Z</time></trkpt><trkpt lat="43.02019" lon="2.513975"><ele>334.20000000000005</ele><time>2026-04-26T11:27:58.73Z</time></trkpt><trkpt lat="43.0202783" lon="2.51406"><ele>330.79999999999995</ele><time>2026-04-26T11:27:59.729Z</time></trkpt><trkpt lat="43.0203617" lon="2.5141567"><ele>327.4</ele><time>2026-04-26T11:28:00.728Z</time></trkpt><trkpt lat="43.020435" lon="2.5142517"><ele>324.0</ele><time>2026-04-26T11:28:01.728Z</time></trkpt><trkpt lat="43.020495" lon="2.5143417"><ele>324.0</ele><time>2026-04-26T11:28:02.729Z</time></trkpt><trkpt lat="43.020555" lon="2.5144133"><ele>324.0</ele><time>2026-04-26T11:28:03.727Z</time></trkpt><trkpt lat="43.0206183" lon="2.5144683"><ele>324.0</ele><time>2026-04-26T11:28:04.729Z</time></trkpt><trkpt lat="43.0206783" lon="2.5145"><ele>324.0</ele><time>2026-04-26T11:28:05.727Z</time></trkpt><trkpt lat="43.0208" lon="2.5144817"><ele>324.0</ele><time>2026-04-26T11:28:07.729Z</time></trkpt><trkpt lat="43.0208767" lon="2.5144267"><ele>324.0</ele><time>2026-04-26T11:28:08.728Z</time></trkpt><trkpt lat="43.0209683" lon="2.5143583"><ele>326.25</ele><time>2026-04-26T11:28:09.727Z</time></trkpt><trkpt lat="43.0210767" lon="2.51429"><ele>328.5</ele><time>2026-04-26T11:28:10.728Z</time></trkpt><trkpt lat="43.021185" lon="2.5142217"><ele>330.75</ele><time>2026-04-26T11:28:11.729Z</time></trkpt><trkpt lat="43.0212967" lon="2.5141483"><ele>333.0</ele><time>2026-04-26T11:28:12.728Z</time></trkpt><trkpt lat="43.0214033" lon="2.5140683"><ele>333.0</ele><time>2026-04-26T11:28:13.728Z</time></trkpt><trkpt lat="43.0214983" lon="2.513995"><ele>333.0</ele><time>2026-04-26T11:28:14.728Z</time></trkpt><trkpt lat="43.0215933" lon="2.513925"><ele>333.0</ele><time>2026-04-26T11:28:15.729Z</time></trkpt><trkpt lat="43.0216767" lon="2.5138667"><ele>333.0</ele><time>2026-04-26T11:28:16.727Z</time></trkpt><trkpt lat="43.02176" lon="2.5138233"><ele>333.0</ele><time>2026-04-26T11:28:17.732Z</time></trkpt><trkpt lat="43.0218367" lon="2.513795"><ele>332.5</ele><time>2026-04-26T11:28:18.728Z</time></trkpt><trkpt lat="43.0219083" lon="2.5137817"><ele>332.0</ele><time>2026-04-26T11:28:19.728Z</time></trkpt><trkpt lat="43.0219733" lon="2.51378"><ele>331.5</ele><time>2026-04-26T11:28:20.729Z</time></trkpt><trkpt lat="43.0220217" lon="2.513875"><ele>331.0</ele><time>2026-04-26T11:28:22.73Z</time></trkpt><trkpt lat="43.02195" lon="2.514025"><ele>330.5</ele><time>2026-04-26T11:28:24.729Z</time></trkpt><trkpt lat="43.0219117" lon="2.5141217"><ele>330.0</ele><time>2026-04-26T11:28:25.729Z</time></trkpt><trkpt lat="43.021875" lon="2.5142433"><ele>330.0</ele><time>2026-04-26T11:28:26.73Z</time></trkpt><trkpt lat="43.02185" lon="2.514375"><ele>330.0</ele><time>2026-04-26T11:28:27.728Z</time></trkpt><trkpt lat="43.0218233" lon="2.5145033"><ele>330.0</ele><time>2026-04-26T11:28:28.728Z</time></trkpt><trkpt lat="43.021795" lon="2.5146283"><ele>330.0</ele><time>2026-04-26T11:28:29.729Z</time></trkpt><trkpt lat="43.0217683" lon="2.514745"><ele>330.0</ele><time>2026-04-26T11:28:30.729Z</time></trkpt><trkpt lat="43.0217533" lon="2.5148483"><ele>330.0</ele><time>2026-04-26T11:28:31.728Z</time></trkpt><trkpt lat="43.0217383" lon="2.5149417"><ele>330.0</ele><time>2026-04-26T11:28:32.73Z</time></trkpt><trkpt lat="43.0217367" lon="2.5150417"><ele>330.0</ele><time>2026-04-26T11:28:33.728Z</time></trkpt><trkpt lat="43.0217483" lon="2.5151533"><ele>330.0</ele><time>2026-04-26T11:28:34.728Z</time></trkpt><trkpt lat="43.0217633" lon="2.51527"><ele>330.0</ele><time>2026-04-26T11:28:35.731Z</time></trkpt><trkpt lat="43.0217767" lon="2.5153817"><ele>330.0</ele><time>2026-04-26T11:28:36.729Z</time></trkpt><trkpt lat="43.02178" lon="2.5154683"><ele>330.6666666666667</ele><time>2026-04-26T11:28:37.727Z</time></trkpt><trkpt lat="43.0216933" lon="2.5155283"><ele>331.3333333333333</ele><time>2026-04-26T11:28:39.727Z</time></trkpt><trkpt lat="43.0216233" lon="2.515535"><ele>332.0</ele><time>2026-04-26T11:28:40.729Z</time></trkpt><trkpt lat="43.0215383" lon="2.5155317"><ele>332.66666666666663</ele><time>2026-04-26T11:28:41.73Z</time></trkpt><trkpt lat="43.0214783" lon="2.5155867"><ele>333.3333333333333</ele><time>2026-04-26T11:28:42.729Z</time></trkpt><trkpt lat="43.0214167" lon="2.5156667"><ele>334.0</ele><time>2026-04-26T11:28:43.727Z</time></trkpt><trkpt lat="43.0213467" lon="2.5157517"><ele>334.0</ele><time>2026-04-26T11:28:44.735Z</time></trkpt><trkpt lat="43.0212767" lon="2.5158533"><ele>334.0</ele><time>2026-04-26T11:28:45.727Z</time></trkpt><trkpt lat="43.021215" lon="2.5159733"><ele>334.0</ele><time>2026-04-26T11:28:46.728Z</time></trkpt><trkpt lat="43.0211617" lon="2.5160917"><ele>334.0</ele><time>2026-04-26T11:28:47.73Z</time></trkpt><trkpt lat="43.0211117" lon="2.5162"><ele>334.0</ele><time>2026-04-26T11:28:48.729Z</time></trkpt><trkpt lat="43.0210583" lon="2.51629"><ele>336.0</ele><time>2026-04-26T11:28:49.73Z</time></trkpt><trkpt lat="43.0209667" lon="2.51636"><ele>338.0</ele><time>2026-04-26T11:28:51.73Z</time></trkpt><trkpt lat="43.0208617" lon="2.5162867"><ele>340.0</ele><time>2026-04-26T11:28:53.73Z</time></trkpt><trkpt lat="43.0208017" lon="2.5162117"><ele>342.0</ele><time>2026-04-26T11:28:54.731Z</time></trkpt><trkpt lat="43.0207233" lon="2.51613"><ele>344.0</ele><time>2026-04-26T11:28:55.728Z</time></trkpt><trkpt lat="43.0206367" lon="2.5160533"><ele>344.0</ele><time>2026-04-26T11:28:56.73Z</time></trkpt><trkpt lat="43.0205417" lon="2.515995"><ele>344.0</ele><time>2026-04-26T11:28:57.73Z</time></trkpt><trkpt lat="43.0204467" lon="2.51594"><ele>344.0</ele><time>2026-04-26T11:28:58.73Z</time></trkpt><trkpt lat="43.0203467" lon="2.5158817"><ele>344.0</ele><time>2026-04-26T11:28:59.731Z</time></trkpt><trkpt lat="43.02025" lon="2.5158233"><ele>344.0</ele><time>2026-04-26T11:29:00.729Z</time></trkpt><trkpt lat="43.020155" lon="2.5158"><ele>344.0</ele><time>2026-04-26T11:29:01.73Z</time></trkpt><trkpt lat="43.0200633" lon="2.5157917"><ele>344.0</ele><time>2026-04-26T11:29:02.729Z</time></trkpt><trkpt lat="43.0199683" lon="2.5157967"><ele>344.0</ele><time>2026-04-26T11:29:03.728Z</time></trkpt><trkpt lat="43.01988" lon="2.51581"><ele>344.0</ele><time>2026-04-26T11:29:04.728Z</time></trkpt><trkpt lat="43.0197883" lon="2.5158333"><ele>344.0</ele><time>2026-04-26T11:29:05.73Z</time></trkpt><trkpt lat="43.0197" lon="2.5158867"><ele>340.75</ele><time>2026-04-26T11:29:06.728Z</time></trkpt><trkpt lat="43.0196083" lon="2.5159617"><ele>337.5</ele><time>2026-04-26T11:29:07.731Z</time></trkpt><trkpt lat="43.0195167" lon="2.5160617"><ele>334.25</ele><time>2026-04-26T11:29:08.731Z</time></trkpt><trkpt lat="43.019425" lon="2.51616"><ele>331.0</ele><time>2026-04-26T11:29:09.727Z</time></trkpt><trkpt lat="43.0193317" lon="2.5162617"><ele>335.5</ele><time>2026-04-26T11:29:10.731Z</time></trkpt><trkpt lat="43.0192267" lon="2.5163617"><ele>340.0</ele><time>2026-04-26T11:29:11.728Z</time></trkpt><trkpt lat="43.0191183" lon="2.51646"><ele>344.5</ele><time>2026-04-26T11:29:12.729Z</time></trkpt><trkpt lat="43.0190133" lon="2.5165533"><ele>349.0</ele><time>2026-04-26T11:29:13.729Z</time></trkpt><trkpt lat="43.01891" lon="2.5166333"><ele>349.0</ele><time>2026-04-26T11:29:14.728Z</time></trkpt><trkpt lat="43.018825" lon="2.51671"><ele>349.0</ele><time>2026-04-26T11:29:15.729Z</time></trkpt><trkpt lat="43.0187617" lon="2.51679"><ele>349.0</ele><time>2026-04-26T11:29:16.729Z</time></trkpt><trkpt lat="43.0187117" lon="2.5168683"><ele>349.0</ele><time>2026-04-26T11:29:17.73Z</time></trkpt><trkpt lat="43.01867" lon="2.5169617"><ele>349.0</ele><time>2026-04-26T11:29:18.73Z</time></trkpt><trkpt lat="43.01863" lon="2.5170433"><ele>349.0</ele><time>2026-04-26T11:29:19.731Z</time></trkpt><trkpt lat="43.0185417" lon="2.5171433"><ele>351.2</ele><time>2026-04-26T11:29:21.729Z</time></trkpt><trkpt lat="43.0184567" lon="2.5171567"><ele>353.4</ele><time>2026-04-26T11:29:22.735Z</time></trkpt><trkpt lat="43.0183533" lon="2.5171717"><ele>355.6</ele><time>2026-04-26T11:29:23.728Z</time></trkpt><trkpt lat="43.0182467" lon="2.5172083"><ele>357.8</ele><time>2026-04-26T11:29:24.728Z</time></trkpt><trkpt lat="43.018145" lon="2.51725"><ele>360.0</ele><time>2026-04-26T11:29:25.727Z</time></trkpt><trkpt lat="43.018055" lon="2.5172817"><ele>360.0</ele><time>2026-04-26T11:29:26.731Z</time></trkpt><trkpt lat="43.01797" lon="2.5172933"><ele>360.0</ele><time>2026-04-26T11:29:27.727Z</time></trkpt><trkpt lat="43.0178917" lon="2.51731"><ele>360.0</ele><time>2026-04-26T11:29:28.736Z</time></trkpt><trkpt lat="43.0178183" lon="2.5173467"><ele>360.0</ele><time>2026-04-26T11:29:29.729Z</time></trkpt><trkpt lat="43.0177433" lon="2.5174183"><ele>360.0</ele><time>2026-04-26T11:29:30.727Z</time></trkpt><trkpt lat="43.017665" lon="2.5175217"><ele>360.0</ele><time>2026-04-26T11:29:31.728Z</time></trkpt><trkpt lat="43.0175817" lon="2.5176367"><ele>360.0</ele><time>2026-04-26T11:29:32.728Z</time></trkpt><trkpt lat="43.0175" lon="2.5177567"><ele>360.0</ele><time>2026-04-26T11:29:33.728Z</time></trkpt><trkpt lat="43.0174283" lon="2.5178933"><ele>360.0</ele><time>2026-04-26T11:29:34.728Z</time></trkpt><trkpt lat="43.01736" lon="2.51804"><ele>360.0</ele><time>2026-04-26T11:29:35.728Z</time></trkpt><trkpt lat="43.017305" lon="2.5181917"><ele>361.5</ele><time>2026-04-26T11:29:36.73Z</time></trkpt><trkpt lat="43.0172533" lon="2.518355"><ele>363.0</ele><time>2026-04-26T11:29:37.728Z</time></trkpt><trkpt lat="43.0172067" lon="2.518525"><ele>364.5</ele><time>2026-04-26T11:29:38.735Z</time></trkpt><trkpt lat="43.0171533" lon="2.5186767"><ele>366.0</ele><time>2026-04-26T11:29:39.73Z</time></trkpt><trkpt lat="43.0171017" lon="2.518825"><ele>366.0</ele><time>2026-04-26T11:29:40.727Z</time></trkpt><trkpt lat="43.01706" lon="2.518995"><ele>366.0</ele><time>2026-04-26T11:29:41.727Z</time></trkpt><trkpt lat="43.017015" lon="2.5191717"><ele>366.0</ele><time>2026-04-26T11:29:42.729Z</time></trkpt><trkpt lat="43.0169717" lon="2.5193567"><ele>366.0</ele><time>2026-04-26T11:29:43.726Z</time></trkpt><trkpt lat="43.01694" lon="2.5195483"><ele>369.25</ele><time>2026-04-26T11:29:44.728Z</time></trkpt><trkpt lat="43.0169117" lon="2.5197467"><ele>372.5</ele><time>2026-04-26T11:29:45.727Z</time></trkpt><trkpt lat="43.016885" lon="2.5199367"><ele>375.75</ele><time>2026-04-26T11:29:46.733Z</time></trkpt><trkpt lat="43.0168583" lon="2.5201383"><ele>379.0</ele><time>2026-04-26T11:29:47.728Z</time></trkpt><trkpt lat="43.0168333" lon="2.5203433"><ele>380.75</ele><time>2026-04-26T11:29:48.731Z</time></trkpt><trkpt lat="43.01681" lon="2.52056"><ele>382.5</ele><time>2026-04-26T11:29:49.73Z</time></trkpt><trkpt lat="43.0167883" lon="2.5207567"><ele>384.25</ele><time>2026-04-26T11:29:50.73Z</time></trkpt><trkpt lat="43.0167717" lon="2.5209283"><ele>386.0</ele><time>2026-04-26T11:29:51.73Z</time></trkpt><trkpt lat="43.0167617" lon="2.521085"><ele>387.0</ele><time>2026-04-26T11:29:52.729Z</time></trkpt><trkpt lat="43.0167867" lon="2.52124"><ele>388.0</ele><time>2026-04-26T11:29:53.73Z</time></trkpt><trkpt lat="43.016805" lon="2.5214133"><ele>389.0</ele><time>2026-04-26T11:29:54.728Z</time></trkpt><trkpt lat="43.016825" lon="2.5215983"><ele>390.0</ele><time>2026-04-26T11:29:55.727Z</time></trkpt><trkpt lat="43.0168433" lon="2.5217733"><ele>390.0</ele><time>2026-04-26T11:29:56.731Z</time></trkpt><trkpt lat="43.01685" lon="2.5219367"><ele>390.0</ele><time>2026-04-26T11:29:57.727Z</time></trkpt><trkpt lat="43.0168433" lon="2.5220817"><ele>390.0</ele><time>2026-04-26T11:29:58.728Z</time></trkpt><trkpt lat="43.01683" lon="2.5222067"><ele>390.0</ele><time>2026-04-26T11:29:59.729Z</time></trkpt><trkpt lat="43.0168267" lon="2.522325"><ele>390.0</ele><time>2026-04-26T11:30:00.727Z</time></trkpt><trkpt lat="43.0168367" lon="2.5224517"><ele>391.0</ele><time>2026-04-26T11:30:01.727Z</time></trkpt><trkpt lat="43.0168483" lon="2.52258"><ele>392.0</ele><time>2026-04-26T11:30:02.733Z</time></trkpt><trkpt lat="43.016855" lon="2.5227133"><ele>393.0</ele><time>2026-04-26T11:30:03.728Z</time></trkpt><trkpt lat="43.01685" lon="2.52285"><ele>394.0</ele><time>2026-04-26T11:30:04.728Z</time></trkpt><trkpt lat="43.0168333" lon="2.523"><ele>395.0</ele><time>2026-04-26T11:30:05.727Z</time></trkpt><trkpt lat="43.01681" lon="2.5231617"><ele>396.25</ele><time>2026-04-26T11:30:06.728Z</time></trkpt><trkpt lat="43.0167867" lon="2.5233333"><ele>397.5</ele><time>2026-04-26T11:30:07.728Z</time></trkpt><trkpt lat="43.01678" lon="2.52351"><ele>398.75</ele><time>2026-04-26T11:30:08.73Z</time></trkpt><trkpt lat="43.0167917" lon="2.5236783"><ele>400.0</ele><time>2026-04-26T11:30:09.733Z</time></trkpt><trkpt lat="43.016815" lon="2.5238233"><ele>400.4</ele><time>2026-04-26T11:30:10.729Z</time></trkpt><trkpt lat="43.0168467" lon="2.52394"><ele>400.8</ele><time>2026-04-26T11:30:11.729Z</time></trkpt><trkpt lat="43.01688" lon="2.524025"><ele>401.20000000000005</ele><time>2026-04-26T11:30:12.732Z</time></trkpt><trkpt lat="43.0169917" lon="2.5240933"><ele>401.6</ele><time>2026-04-26T11:30:14.729Z</time></trkpt><trkpt lat="43.0170683" lon="2.5241117"><ele>402.0</ele><time>2026-04-26T11:30:15.727Z</time></trkpt><trkpt lat="43.017165" lon="2.52412"><ele>402.0</ele><time>2026-04-26T11:30:16.728Z</time></trkpt><trkpt lat="43.0172617" lon="2.5241517"><ele>402.0</ele><time>2026-04-26T11:30:17.728Z</time></trkpt><trkpt lat="43.017365" lon="2.5242017"><ele>402.0</ele><time>2026-04-26T11:30:18.729Z</time></trkpt><trkpt lat="43.01745" lon="2.524265"><ele>402.0</ele><time>2026-04-26T11:30:19.732Z</time></trkpt><trkpt lat="43.017535" lon="2.5243117"><ele>402.0</ele><time>2026-04-26T11:30:20.73Z</time></trkpt><trkpt lat="43.0176367" lon="2.5243317"><ele>404.6</ele><time>2026-04-26T11:30:21.727Z</time></trkpt><trkpt lat="43.0177467" lon="2.5243467"><ele>407.20000000000005</ele><time>2026-04-26T11:30:22.73Z</time></trkpt><trkpt lat="43.0178567" lon="2.524345"><ele>409.8</ele><time>2026-04-26T11:30:23.727Z</time></trkpt><trkpt lat="43.0179583" lon="2.5243317"><ele>412.4</ele><time>2026-04-26T11:30:24.728Z</time></trkpt><trkpt lat="43.0180633" lon="2.5243033"><ele>415.0</ele><time>2026-04-26T11:30:25.728Z</time></trkpt><trkpt lat="43.0181667" lon="2.5242683"><ele>415.0</ele><time>2026-04-26T11:30:26.728Z</time></trkpt><trkpt lat="43.0182683" lon="2.5242567"><ele>415.0</ele><time>2026-04-26T11:30:27.728Z</time></trkpt><trkpt lat="43.018365" lon="2.5242367"><ele>415.0</ele><time>2026-04-26T11:30:28.735Z</time></trkpt><trkpt lat="43.018455" lon="2.5242117"><ele>415.0</ele><time>2026-04-26T11:30:29.729Z</time></trkpt><trkpt lat="43.0185367" lon="2.5241617"><ele>415.0</ele><time>2026-04-26T11:30:30.73Z</time></trkpt><trkpt lat="43.0186217" lon="2.524095"><ele>417.2</ele><time>2026-04-26T11:30:31.728Z</time></trkpt><trkpt lat="43.0187117" lon="2.52401"><ele>419.4</ele><time>2026-04-26T11:30:32.728Z</time></trkpt><trkpt lat="43.0188" lon="2.5239117"><ele>421.6</ele><time>2026-04-26T11:30:33.73Z</time></trkpt><trkpt lat="43.01888" lon="2.5238217"><ele>423.8</ele><time>2026-04-26T11:30:34.729Z</time></trkpt><trkpt lat="43.0189533" lon="2.5237583"><ele>426.0</ele><time>2026-04-26T11:30:35.728Z</time></trkpt><trkpt lat="43.0190167" lon="2.5237167"><ele>426.0</ele><time>2026-04-26T11:30:36.73Z</time></trkpt><trkpt lat="43.0191183" lon="2.5237583"><ele>426.0</ele><time>2026-04-26T11:30:38.728Z</time></trkpt><trkpt lat="43.019175" lon="2.5237967"><ele>426.0</ele><time>2026-04-26T11:30:39.727Z</time></trkpt><trkpt lat="43.019285" lon="2.5238117"><ele>426.0</ele><time>2026-04-26T11:30:41.728Z</time></trkpt><trkpt lat="43.0193517" lon="2.5237667"><ele>426.0</ele><time>2026-04-26T11:30:42.729Z</time></trkpt><trkpt lat="43.0194167" lon="2.5236933"><ele>426.0</ele><time>2026-04-26T11:30:43.729Z</time></trkpt><trkpt lat="43.0194983" lon="2.5236067"><ele>430.75</ele><time>2026-04-26T11:30:44.728Z</time></trkpt><trkpt lat="43.01958" lon="2.52351"><ele>435.5</ele><time>2026-04-26T11:30:45.727Z</time></trkpt><trkpt lat="43.0196683" lon="2.5234117"><ele>440.25</ele><time>2026-04-26T11:30:46.728Z</time></trkpt><trkpt lat="43.0197567" lon="2.523305"><ele>445.0</ele><time>2026-04-26T11:30:47.728Z</time></trkpt><trkpt lat="43.0198483" lon="2.52321"><ele>445.0</ele><time>2026-04-26T11:30:48.728Z</time></trkpt><trkpt lat="43.019935" lon="2.523125"><ele>445.0</ele><time>2026-04-26T11:30:49.729Z</time></trkpt><trkpt lat="43.0200267" lon="2.52306"><ele>445.0</ele><time>2026-04-26T11:30:50.728Z</time></trkpt><trkpt lat="43.0201217" lon="2.523025"><ele>445.0</ele><time>2026-04-26T11:30:51.729Z</time></trkpt><trkpt lat="43.020215" lon="2.523025"><ele>445.0</ele><time>2026-04-26T11:30:52.727Z</time></trkpt><trkpt lat="43.0203033" lon="2.52304"><ele>444.2</ele><time>2026-04-26T11:30:53.728Z</time></trkpt><trkpt lat="43.02039" lon="2.523075"><ele>443.4</ele><time>2026-04-26T11:30:54.728Z</time></trkpt><trkpt lat="43.02048" lon="2.5231367"><ele>442.6</ele><time>2026-04-26T11:30:55.73Z</time></trkpt><trkpt lat="43.0205717" lon="2.5232017"><ele>441.8</ele><time>2026-04-26T11:30:56.728Z</time></trkpt><trkpt lat="43.02067" lon="2.5232667"><ele>441.0</ele><time>2026-04-26T11:30:57.728Z</time></trkpt><trkpt lat="43.0207717" lon="2.5233433"><ele>442.6</ele><time>2026-04-26T11:30:58.727Z</time></trkpt><trkpt lat="43.0208767" lon="2.5234183"><ele>444.20000000000005</ele><time>2026-04-26T11:30:59.727Z</time></trkpt><trkpt lat="43.0209667" lon="2.52348"><ele>445.79999999999995</ele><time>2026-04-26T11:31:00.727Z</time></trkpt><trkpt lat="43.02105" lon="2.523505"><ele>447.4</ele><time>2026-04-26T11:31:01.727Z</time></trkpt><trkpt lat="43.0211333" lon="2.5235"><ele>449.0</ele><time>2026-04-26T11:31:02.728Z</time></trkpt><trkpt lat="43.0212183" lon="2.5234683"><ele>448.99999999999994</ele><time>2026-04-26T11:31:03.728Z</time></trkpt><trkpt lat="43.021295" lon="2.5234217"><ele>449.0</ele><time>2026-04-26T11:31:04.729Z</time></trkpt><trkpt lat="43.021365" lon="2.5233817"><ele>449.0</ele><time>2026-04-26T11:31:05.729Z</time></trkpt><trkpt lat="43.02143" lon="2.52338"><ele>449.0</ele><time>2026-04-26T11:31:06.734Z</time></trkpt><trkpt lat="43.0215" lon="2.523415"><ele>448.99999999999994</ele><time>2026-04-26T11:31:07.727Z</time></trkpt><trkpt lat="43.0215767" lon="2.5234567"><ele>449.0</ele><time>2026-04-26T11:31:08.729Z</time></trkpt><trkpt lat="43.0216467" lon="2.52345"><ele>449.49999999999994</ele><time>2026-04-26T11:31:09.728Z</time></trkpt><trkpt lat="43.0217167" lon="2.52342"><ele>450.0</ele><time>2026-04-26T11:31:10.728Z</time></trkpt><trkpt lat="43.0217733" lon="2.5233533"><ele>450.5</ele><time>2026-04-26T11:31:11.727Z</time></trkpt><trkpt lat="43.0218033" lon="2.5232267"><ele>451.0</ele><time>2026-04-26T11:31:12.73Z</time></trkpt><trkpt lat="43.0218367" lon="2.523095"><ele>451.49999999999994</ele><time>2026-04-26T11:31:13.729Z</time></trkpt><trkpt lat="43.021875" lon="2.5229767"><ele>452.0</ele><time>2026-04-26T11:31:14.73Z</time></trkpt><trkpt lat="43.0219217" lon="2.5228617"><ele>453.8</ele><time>2026-04-26T11:31:15.728Z</time></trkpt><trkpt lat="43.02198" lon="2.5227517"><ele>455.6</ele><time>2026-04-26T11:31:16.729Z</time></trkpt><trkpt lat="43.02205" lon="2.5226483"><ele>457.40000000000003</ele><time>2026-04-26T11:31:17.729Z</time></trkpt><trkpt lat="43.0221183" lon="2.522535"><ele>459.20000000000005</ele><time>2026-04-26T11:31:18.736Z</time></trkpt><trkpt lat="43.0221817" lon="2.5224183"><ele>461.0</ele><time>2026-04-26T11:31:19.728Z</time></trkpt><trkpt lat="43.0222467" lon="2.5223033"><ele>461.0</ele><time>2026-04-26T11:31:20.728Z</time></trkpt><trkpt lat="43.0223117" lon="2.5221883"><ele>461.0</ele><time>2026-04-26T11:31:21.728Z</time></trkpt><trkpt lat="43.0223617" lon="2.5220767"><ele>461.0</ele><time>2026-04-26T11:31:22.729Z</time></trkpt><trkpt lat="43.0224167" lon="2.521985"><ele>461.0</ele><time>2026-04-26T11:31:23.729Z</time></trkpt><trkpt lat="43.0224717" lon="2.521905"><ele>461.0</ele><time>2026-04-26T11:31:24.727Z</time></trkpt><trkpt lat="43.022555" lon="2.52183"><ele>460.5</ele><time>2026-04-26T11:31:25.729Z</time></trkpt><trkpt lat="43.0226383" lon="2.5217267"><ele>460.0</ele><time>2026-04-26T11:31:26.73Z</time></trkpt><trkpt lat="43.02271" lon="2.5216017"><ele>459.5</ele><time>2026-04-26T11:31:27.727Z</time></trkpt><trkpt lat="43.0227883" lon="2.5214617"><ele>459.0</ele><time>2026-04-26T11:31:28.73Z</time></trkpt><trkpt lat="43.0228567" lon="2.5213217"><ele>461.25</ele><time>2026-04-26T11:31:29.727Z</time></trkpt><trkpt lat="43.0229233" lon="2.5211967"><ele>463.5</ele><time>2026-04-26T11:31:30.728Z</time></trkpt><trkpt lat="43.022985" lon="2.5210567"><ele>465.75</ele><time>2026-04-26T11:31:31.729Z</time></trkpt><trkpt lat="43.0230283" lon="2.5209117"><ele>468.0</ele><time>2026-04-26T11:31:32.728Z</time></trkpt><trkpt lat="43.0230667" lon="2.5207633"><ele>468.0</ele><time>2026-04-26T11:31:33.73Z</time></trkpt><trkpt lat="43.0231033" lon="2.52062"><ele>467.99999999999994</ele><time>2026-04-26T11:31:34.73Z</time></trkpt><trkpt lat="43.0231583" lon="2.520485"><ele>467.99999999999994</ele><time>2026-04-26T11:31:35.729Z</time></trkpt><trkpt lat="43.0232117" lon="2.5203533"><ele>468.0</ele><time>2026-04-26T11:31:36.729Z</time></trkpt><trkpt lat="43.023265" lon="2.52022"><ele>468.0</ele><time>2026-04-26T11:31:37.727Z</time></trkpt><trkpt lat="43.0233183" lon="2.5200917"><ele>465.2</ele><time>2026-04-26T11:31:38.731Z</time></trkpt><trkpt lat="43.0233683" lon="2.5199667"><ele>462.4</ele><time>2026-04-26T11:31:39.727Z</time></trkpt><trkpt lat="43.0234233" lon="2.519855"><ele>459.59999999999997</ele><time>2026-04-26T11:31:40.731Z</time></trkpt><trkpt lat="43.0234883" lon="2.5197517"><ele>456.79999999999995</ele><time>2026-04-26T11:31:41.728Z</time></trkpt><trkpt lat="43.02357" lon="2.5196617"><ele>454.0</ele><time>2026-04-26T11:31:42.727Z</time></trkpt><trkpt lat="43.0236617" lon="2.51958"><ele>452.6</ele><time>2026-04-26T11:31:43.728Z</time></trkpt><trkpt lat="43.0237533" lon="2.5194833"><ele>451.2</ele><time>2026-04-26T11:31:44.734Z</time></trkpt><trkpt lat="43.02383" lon="2.5193733"><ele>449.80000000000007</ele><time>2026-04-26T11:31:45.727Z</time></trkpt><trkpt lat="43.0238883" lon="2.5192583"><ele>448.40000000000003</ele><time>2026-04-26T11:31:46.729Z</time></trkpt><trkpt lat="43.0239433" lon="2.51914"><ele>447.0</ele><time>2026-04-26T11:31:47.728Z</time></trkpt><trkpt lat="43.0239917" lon="2.5190533"><ele>447.0</ele><time>2026-04-26T11:31:48.73Z</time></trkpt><trkpt lat="43.024045" lon="2.5189967"><ele>447.00000000000006</ele><time>2026-04-26T11:31:49.728Z</time></trkpt><trkpt lat="43.0241217" lon="2.5189583"><ele>447.00000000000006</ele><time>2026-04-26T11:31:50.728Z</time></trkpt><trkpt lat="43.02421" lon="2.518935"><ele>447.0</ele><time>2026-04-26T11:31:51.727Z</time></trkpt><trkpt lat="43.02431" lon="2.5189333"><ele>447.0</ele><time>2026-04-26T11:31:52.728Z</time></trkpt><trkpt lat="43.0244217" lon="2.51894"><ele>448.0</ele><time>2026-04-26T11:31:53.728Z</time></trkpt><trkpt lat="43.0245317" lon="2.5189583"><ele>449.00000000000006</ele><time>2026-04-26T11:31:54.727Z</time></trkpt><trkpt lat="43.024635" lon="2.5189917"><ele>450.00000000000006</ele><time>2026-04-26T11:31:55.728Z</time></trkpt><trkpt lat="43.0247283" lon="2.5190117"><ele>451.0</ele><time>2026-04-26T11:31:56.728Z</time></trkpt><trkpt lat="43.024815" lon="2.5189983"><ele>452.0</ele><time>2026-04-26T11:31:57.729Z</time></trkpt><trkpt lat="43.0249033" lon="2.518955"><ele>452.0</ele><time>2026-04-26T11:31:58.734Z</time></trkpt><trkpt lat="43.0249817" lon="2.5188633"><ele>452.00000000000006</ele><time>2026-04-26T11:31:59.73Z</time></trkpt><trkpt lat="43.0250583" lon="2.5187567"><ele>452.00000000000006</ele><time>2026-04-26T11:32:00.729Z</time></trkpt><trkpt lat="43.0251367" lon="2.518645"><ele>452.0</ele><time>2026-04-26T11:32:01.731Z</time></trkpt><trkpt lat="43.0252033" lon="2.5185133"><ele>452.0</ele><time>2026-04-26T11:32:02.731Z</time></trkpt><trkpt lat="43.025255" lon="2.5183567"><ele>454.0</ele><time>2026-04-26T11:32:03.731Z</time></trkpt><trkpt lat="43.0252867" lon="2.5181917"><ele>456.0</ele><time>2026-04-26T11:32:04.731Z</time></trkpt><trkpt lat="43.025305" lon="2.51803"><ele>458.0</ele><time>2026-04-26T11:32:05.729Z</time></trkpt><trkpt lat="43.0253233" lon="2.51787"><ele>460.0</ele><time>2026-04-26T11:32:06.73Z</time></trkpt><trkpt lat="43.0253417" lon="2.51772"><ele>460.75</ele><time>2026-04-26T11:32:07.729Z</time></trkpt><trkpt lat="43.025365" lon="2.5175717"><ele>461.5</ele><time>2026-04-26T11:32:08.731Z</time></trkpt><trkpt lat="43.0254" lon="2.51742"><ele>462.25</ele><time>2026-04-26T11:32:09.73Z</time></trkpt><trkpt lat="43.0254383" lon="2.5172667"><ele>463.0</ele><time>2026-04-26T11:32:10.728Z</time></trkpt><trkpt lat="43.025475" lon="2.51712"><ele>463.4</ele><time>2026-04-26T11:32:11.728Z</time></trkpt><trkpt lat="43.025515" lon="2.5169767"><ele>463.79999999999995</ele><time>2026-04-26T11:32:12.728Z</time></trkpt><trkpt lat="43.0255483" lon="2.5168467"><ele>464.2</ele><time>2026-04-26T11:32:13.727Z</time></trkpt><trkpt lat="43.0255717" lon="2.5167267"><ele>464.6</ele><time>2026-04-26T11:32:14.729Z</time></trkpt><trkpt lat="43.025605" lon="2.51661"><ele>465.0</ele><time>2026-04-26T11:32:15.727Z</time></trkpt><trkpt lat="43.02564" lon="2.516505"><ele>465.0</ele><time>2026-04-26T11:32:16.729Z</time></trkpt><trkpt lat="43.0256967" lon="2.51645"><ele>465.0</ele><time>2026-04-26T11:32:17.729Z</time></trkpt><trkpt lat="43.025775" lon="2.5163967"><ele>465.0</ele><time>2026-04-26T11:32:18.729Z</time></trkpt><trkpt lat="43.02586" lon="2.5163617"><ele>465.0</ele><time>2026-04-26T11:32:19.728Z</time></trkpt><trkpt lat="43.025975" lon="2.5163817"><ele>465.0</ele><time>2026-04-26T11:32:20.729Z</time></trkpt><trkpt lat="43.0260617" lon="2.5163933"><ele>465.0</ele><time>2026-04-26T11:32:21.729Z</time></trkpt><trkpt lat="43.0261383" lon="2.5163883"><ele>462.0</ele><time>2026-04-26T11:32:22.727Z</time></trkpt><trkpt lat="43.0261967" lon="2.5163283"><ele>459.0</ele><time>2026-04-26T11:32:23.728Z</time></trkpt><trkpt lat="43.026245" lon="2.5162283"><ele>456.0</ele><time>2026-04-26T11:32:24.729Z</time></trkpt><trkpt lat="43.0262833" lon="2.5161083"><ele>453.0</ele><time>2026-04-26T11:32:25.734Z</time></trkpt><trkpt lat="43.0263083" lon="2.5159883"><ele>450.0</ele><time>2026-04-26T11:32:26.727Z</time></trkpt><trkpt lat="43.0263333" lon="2.5159017"><ele>447.0</ele><time>2026-04-26T11:32:27.728Z</time></trkpt><trkpt lat="43.0264067" lon="2.5158383"><ele>447.0</ele><time>2026-04-26T11:32:29.732Z</time></trkpt><trkpt lat="43.02649" lon="2.515945"><ele>447.0</ele><time>2026-04-26T11:32:31.728Z</time></trkpt><trkpt lat="43.02652" lon="2.516035"><ele>447.0</ele><time>2026-04-26T11:32:32.729Z</time></trkpt><trkpt lat="43.0265267" lon="2.5161333"><ele>447.0</ele><time>2026-04-26T11:32:33.728Z</time></trkpt><trkpt lat="43.02655" lon="2.516215"><ele>447.0</ele><time>2026-04-26T11:32:34.729Z</time></trkpt><trkpt lat="43.02664" lon="2.516315"><ele>447.0</ele><time>2026-04-26T11:32:36.728Z</time></trkpt><trkpt lat="43.0267083" lon="2.5163583"><ele>445.5</ele><time>2026-04-26T11:32:37.728Z</time></trkpt><trkpt lat="43.0268033" lon="2.516415"><ele>444.0</ele><time>2026-04-26T11:32:38.729Z</time></trkpt><trkpt lat="43.0269133" lon="2.516475"><ele>442.5</ele><time>2026-04-26T11:32:39.731Z</time></trkpt><trkpt lat="43.027025" lon="2.5165417"><ele>441.0</ele><time>2026-04-26T11:32:40.73Z</time></trkpt><trkpt lat="43.0271433" lon="2.5166117"><ele>441.0</ele><time>2026-04-26T11:32:41.727Z</time></trkpt><trkpt lat="43.027265" lon="2.5166833"><ele>441.0</ele><time>2026-04-26T11:32:42.73Z</time></trkpt><trkpt lat="43.0273967" lon="2.5167467"><ele>441.0</ele><time>2026-04-26T11:32:43.728Z</time></trkpt><trkpt lat="43.027525" lon="2.5167933"><ele>441.0</ele><time>2026-04-26T11:32:44.729Z</time></trkpt><trkpt lat="43.0276517" lon="2.5168383"><ele>439.0</ele><time>2026-04-26T11:32:45.728Z</time></trkpt><trkpt lat="43.027775" lon="2.5168833"><ele>437.0</ele><time>2026-04-26T11:32:46.73Z</time></trkpt><trkpt lat="43.0278933" lon="2.5169533"><ele>435.0</ele><time>2026-04-26T11:32:47.729Z</time></trkpt><trkpt lat="43.0280017" lon="2.5170483"><ele>433.0</ele><time>2026-04-26T11:32:48.736Z</time></trkpt><trkpt lat="43.0280967" lon="2.5171617"><ele>433.0</ele><time>2026-04-26T11:32:49.731Z</time></trkpt><trkpt lat="43.0281817" lon="2.5172783"><ele>433.0</ele><time>2026-04-26T11:32:50.728Z</time></trkpt><trkpt lat="43.0282667" lon="2.5174133"><ele>433.0</ele><time>2026-04-26T11:32:51.729Z</time></trkpt><trkpt lat="43.0283567" lon="2.517565"><ele>433.0</ele><time>2026-04-26T11:32:52.73Z</time></trkpt><trkpt lat="43.0284367" lon="2.5177233"><ele>437.25</ele><time>2026-04-26T11:32:53.728Z</time></trkpt><trkpt lat="43.0285067" lon="2.5178833"><ele>441.5</ele><time>2026-04-26T11:32:54.73Z</time></trkpt><trkpt lat="43.0285717" lon="2.5180383"><ele>445.75</ele><time>2026-04-26T11:32:55.728Z</time></trkpt><trkpt lat="43.0286117" lon="2.518175"><ele>450.0</ele><time>2026-04-26T11:32:56.728Z</time></trkpt><trkpt lat="43.0286317" lon="2.5183167"><ele>450.0</ele><time>2026-04-26T11:32:57.729Z</time></trkpt><trkpt lat="43.028635" lon="2.5184383"><ele>450.0</ele><time>2026-04-26T11:32:58.73Z</time></trkpt><trkpt lat="43.0286333" lon="2.51854"><ele>450.0</ele><time>2026-04-26T11:32:59.728Z</time></trkpt><trkpt lat="43.02864" lon="2.51864"><ele>450.0</ele><time>2026-04-26T11:33:00.728Z</time></trkpt><trkpt lat="43.0287167" lon="2.5187533"><ele>450.0</ele><time>2026-04-26T11:33:02.731Z</time></trkpt><trkpt lat="43.0287783" lon="2.5187883"><ele>450.0</ele><time>2026-04-26T11:33:03.729Z</time></trkpt><trkpt lat="43.0288683" lon="2.518795"><ele>448.8</ele><time>2026-04-26T11:33:04.728Z</time></trkpt><trkpt lat="43.0289533" lon="2.5188283"><ele>447.6</ele><time>2026-04-26T11:33:05.727Z</time></trkpt><trkpt lat="43.0290417" lon="2.5189117"><ele>446.4</ele><time>2026-04-26T11:33:06.731Z</time></trkpt><trkpt lat="43.029125" lon="2.5190067"><ele>445.2</ele><time>2026-04-26T11:33:07.73Z</time></trkpt><trkpt lat="43.0292067" lon="2.5191033"><ele>444.0</ele><time>2026-04-26T11:33:08.731Z</time></trkpt><trkpt lat="43.0292883" lon="2.5191933"><ele>445.1666666666667</ele><time>2026-04-26T11:33:09.73Z</time></trkpt><trkpt lat="43.0293633" lon="2.5192717"><ele>446.33333333333337</ele><time>2026-04-26T11:33:10.729Z</time></trkpt><trkpt lat="43.0294317" lon="2.5193367"><ele>447.5</ele><time>2026-04-26T11:33:11.727Z</time></trkpt><trkpt lat="43.0294983" lon="2.5193967"><ele>448.6666666666667</ele><time>2026-04-26T11:33:12.728Z</time></trkpt><trkpt lat="43.029545" lon="2.5194717"><ele>449.83333333333337</ele><time>2026-04-26T11:33:13.728Z</time></trkpt><trkpt lat="43.0295883" lon="2.5195583"><ele>451.0</ele><time>2026-04-26T11:33:14.728Z</time></trkpt><trkpt lat="43.0295967" lon="2.5196667"><ele>451.0</ele><time>2026-04-26T11:33:15.729Z</time></trkpt><trkpt lat="43.0295917" lon="2.51978"><ele>451.0</ele><time>2026-04-26T11:33:16.729Z</time></trkpt><trkpt lat="43.02953" lon="2.51992"><ele>451.0</ele><time>2026-04-26T11:33:17.727Z</time></trkpt><trkpt lat="43.0294783" lon="2.5200533"><ele>451.0</ele><time>2026-04-26T11:33:18.727Z</time></trkpt><trkpt lat="43.0294483" lon="2.5201767"><ele>451.0</ele><time>2026-04-26T11:33:19.727Z</time></trkpt><trkpt lat="43.0294367" lon="2.5203"><ele>448.8</ele><time>2026-04-26T11:33:20.728Z</time></trkpt><trkpt lat="43.0294483" lon="2.52041"><ele>446.6</ele><time>2026-04-26T11:33:21.729Z</time></trkpt><trkpt lat="43.0294767" lon="2.520525"><ele>444.4</ele><time>2026-04-26T11:33:22.727Z</time></trkpt><trkpt lat="43.0295433" lon="2.5206183"><ele>442.2</ele><time>2026-04-26T11:33:23.727Z</time></trkpt><trkpt lat="43.0296483" lon="2.5206833"><ele>440.0</ele><time>2026-04-26T11:33:24.729Z</time></trkpt><trkpt lat="43.0297483" lon="2.5207533"><ele>440.0</ele><time>2026-04-26T11:33:25.728Z</time></trkpt><trkpt lat="43.029845" lon="2.5208233"><ele>440.0</ele><time>2026-04-26T11:33:26.728Z</time></trkpt><trkpt lat="43.029935" lon="2.5209133"><ele>440.0</ele><time>2026-04-26T11:33:27.728Z</time></trkpt><trkpt lat="43.0300183" lon="2.5210233"><ele>440.0</ele><time>2026-04-26T11:33:28.728Z</time></trkpt><trkpt lat="43.0300833" lon="2.52116"><ele>443.6</ele><time>2026-04-26T11:33:29.728Z</time></trkpt><trkpt lat="43.0301333" lon="2.5213083"><ele>447.2</ele><time>2026-04-26T11:33:30.728Z</time></trkpt><trkpt lat="43.0301567" lon="2.5214583"><ele>450.79999999999995</ele><time>2026-04-26T11:33:31.728Z</time></trkpt><trkpt lat="43.0301633" lon="2.5216033"><ele>454.4</ele><time>2026-04-26T11:33:32.728Z</time></trkpt><trkpt lat="43.0301583" lon="2.5217517"><ele>458.0</ele><time>2026-04-26T11:33:33.728Z</time></trkpt><trkpt lat="43.0301267" lon="2.5219083"><ele>457.5</ele><time>2026-04-26T11:33:34.728Z</time></trkpt><trkpt lat="43.0300783" lon="2.5220717"><ele>457.0</ele><time>2026-04-26T11:33:35.729Z</time></trkpt><trkpt lat="43.0300283" lon="2.5222567"><ele>456.5</ele><time>2026-04-26T11:33:36.728Z</time></trkpt><trkpt lat="43.0299767" lon="2.5224483"><ele>456.0</ele><time>2026-04-26T11:33:37.729Z</time></trkpt><trkpt lat="43.0299167" lon="2.5226267"><ele>450.75</ele><time>2026-04-26T11:33:38.729Z</time></trkpt><trkpt lat="43.029855" lon="2.5227983"><ele>445.5</ele><time>2026-04-26T11:33:39.728Z</time></trkpt><trkpt lat="43.0297967" lon="2.52296"><ele>440.25</ele><time>2026-04-26T11:33:40.728Z</time></trkpt><trkpt lat="43.029765" lon="2.523125"><ele>435.0</ele><time>2026-04-26T11:33:41.728Z</time></trkpt><trkpt lat="43.02976" lon="2.52329"><ele>435.0</ele><time>2026-04-26T11:33:42.728Z</time></trkpt><trkpt lat="43.029785" lon="2.5234533"><ele>435.0</ele><time>2026-04-26T11:33:43.727Z</time></trkpt><trkpt lat="43.0298483" lon="2.5235983"><ele>435.0</ele><time>2026-04-26T11:33:44.738Z</time></trkpt><trkpt lat="43.0299417" lon="2.5237417"><ele>435.0</ele><time>2026-04-26T11:33:45.727Z</time></trkpt><trkpt lat="43.0300483" lon="2.523885"><ele>439.0</ele><time>2026-04-26T11:33:46.731Z</time></trkpt><trkpt lat="43.0301483" lon="2.5240467"><ele>443.0</ele><time>2026-04-26T11:33:47.728Z</time></trkpt><trkpt lat="43.0302483" lon="2.52422"><ele>447.0</ele><time>2026-04-26T11:33:48.729Z</time></trkpt><trkpt lat="43.0303533" lon="2.5243867"><ele>447.0</ele><time>2026-04-26T11:33:49.728Z</time></trkpt><trkpt lat="43.0304667" lon="2.524525"><ele>447.0</ele><time>2026-04-26T11:33:50.73Z</time></trkpt><trkpt lat="43.030575" lon="2.52465"><ele>447.0</ele><time>2026-04-26T11:33:51.728Z</time></trkpt><trkpt lat="43.0306683" lon="2.5247833"><ele>447.0</ele><time>2026-04-26T11:33:52.729Z</time></trkpt><trkpt lat="43.0307417" lon="2.52493"><ele>449.75</ele><time>2026-04-26T11:33:53.728Z</time></trkpt><trkpt lat="43.0308017" lon="2.525085"><ele>452.5</ele><time>2026-04-26T11:33:54.73Z</time></trkpt><trkpt lat="43.0308433" lon="2.52524"><ele>455.25</ele><time>2026-04-26T11:33:55.731Z</time></trkpt><trkpt lat="43.03086" lon="2.5254133"><ele>458.0</ele><time>2026-04-26T11:33:56.73Z</time></trkpt><trkpt lat="43.0308567" lon="2.5256067"><ele>458.0</ele><time>2026-04-26T11:33:57.729Z</time></trkpt><trkpt lat="43.0308483" lon="2.52581"><ele>458.0</ele><time>2026-04-26T11:33:58.73Z</time></trkpt><trkpt lat="43.0308383" lon="2.5260183"><ele>458.0</ele><time>2026-04-26T11:33:59.728Z</time></trkpt><trkpt lat="43.030835" lon="2.52623"><ele>458.25</ele><time>2026-04-26T11:34:00.733Z</time></trkpt><trkpt lat="43.030835" lon="2.5264417"><ele>458.5</ele><time>2026-04-26T11:34:01.73Z</time></trkpt><trkpt lat="43.030835" lon="2.5266417"><ele>458.75</ele><time>2026-04-26T11:34:02.739Z</time></trkpt><trkpt lat="43.0308317" lon="2.5268267"><ele>459.0</ele><time>2026-04-26T11:34:03.729Z</time></trkpt><trkpt lat="43.0308333" lon="2.527"><ele>458.5</ele><time>2026-04-26T11:34:04.728Z</time></trkpt><trkpt lat="43.0308383" lon="2.5271733"><ele>458.0</ele><time>2026-04-26T11:34:05.728Z</time></trkpt><trkpt lat="43.0308533" lon="2.52735"><ele>457.5</ele><time>2026-04-26T11:34:06.729Z</time></trkpt><trkpt lat="43.0308867" lon="2.5275117"><ele>457.0</ele><time>2026-04-26T11:34:07.728Z</time></trkpt><trkpt lat="43.03095" lon="2.5276633"><ele>457.0</ele><time>2026-04-26T11:34:08.729Z</time></trkpt><trkpt lat="43.031035" lon="2.5278083"><ele>457.0</ele><time>2026-04-26T11:34:09.729Z</time></trkpt><trkpt lat="43.0311317" lon="2.52795"><ele>457.0</ele><time>2026-04-26T11:34:10.73Z</time></trkpt><trkpt lat="43.03123" lon="2.5280833"><ele>457.0</ele><time>2026-04-26T11:34:11.728Z</time></trkpt><trkpt lat="43.03132" lon="2.5282117"><ele>452.5</ele><time>2026-04-26T11:34:12.728Z</time></trkpt><trkpt lat="43.0313967" lon="2.5283467"><ele>448.0</ele><time>2026-04-26T11:34:13.731Z</time></trkpt><trkpt lat="43.03146" lon="2.528495"><ele>443.5</ele><time>2026-04-26T11:34:14.729Z</time></trkpt><trkpt lat="43.0315083" lon="2.5286567"><ele>439.0</ele><time>2026-04-26T11:34:15.728Z</time></trkpt><trkpt lat="43.0315467" lon="2.5288333"><ele>435.75</ele><time>2026-04-26T11:34:16.732Z</time></trkpt><trkpt lat="43.03158" lon="2.529015"><ele>432.5</ele><time>2026-04-26T11:34:17.729Z</time></trkpt><trkpt lat="43.0316067" lon="2.529195"><ele>429.25</ele><time>2026-04-26T11:34:18.729Z</time></trkpt><trkpt lat="43.03162" lon="2.5293683"><ele>426.0</ele><time>2026-04-26T11:34:19.728Z</time></trkpt><trkpt lat="43.0316217" lon="2.529535"><ele>426.75</ele><time>2026-04-26T11:34:20.73Z</time></trkpt><trkpt lat="43.031595" lon="2.52969"><ele>427.5</ele><time>2026-04-26T11:34:21.728Z</time></trkpt><trkpt lat="43.03155" lon="2.5298383"><ele>428.25</ele><time>2026-04-26T11:34:22.727Z</time></trkpt><trkpt lat="43.03151" lon="2.529995"><ele>429.0</ele><time>2026-04-26T11:34:23.729Z</time></trkpt><trkpt lat="43.031485" lon="2.53016"><ele>429.0</ele><time>2026-04-26T11:34:24.729Z</time></trkpt><trkpt lat="43.0314767" lon="2.530325"><ele>429.0</ele><time>2026-04-26T11:34:25.728Z</time></trkpt><trkpt lat="43.0314817" lon="2.5304883"><ele>429.0</ele><time>2026-04-26T11:34:26.73Z</time></trkpt><trkpt lat="43.0315133" lon="2.5306433"><ele>429.0</ele><time>2026-04-26T11:34:27.727Z</time></trkpt><trkpt lat="43.0315683" lon="2.5307967"><ele>430.75</ele><time>2026-04-26T11:34:28.729Z</time></trkpt><trkpt lat="43.0316433" lon="2.53095"><ele>432.5</ele><time>2026-04-26T11:34:29.731Z</time></trkpt><trkpt lat="43.0317217" lon="2.5310983"><ele>434.25</ele><time>2026-04-26T11:34:30.728Z</time></trkpt><trkpt lat="43.0318" lon="2.5312433"><ele>436.0</ele><time>2026-04-26T11:34:31.728Z</time></trkpt><trkpt lat="43.0318633" lon="2.5313783"><ele>436.0</ele><time>2026-04-26T11:34:32.729Z</time></trkpt><trkpt lat="43.0319067" lon="2.5315233"><ele>436.0</ele><time>2026-04-26T11:34:33.729Z</time></trkpt><trkpt lat="43.0319267" lon="2.5316783"><ele>436.0</ele><time>2026-04-26T11:34:34.729Z</time></trkpt><trkpt lat="43.0319367" lon="2.5318367"><ele>436.0</ele><time>2026-04-26T11:34:35.731Z</time></trkpt><trkpt lat="43.03196" lon="2.5319883"><ele>433.25</ele><time>2026-04-26T11:34:36.729Z</time></trkpt><trkpt lat="43.0320017" lon="2.5321383"><ele>430.5</ele><time>2026-04-26T11:34:37.728Z</time></trkpt><trkpt lat="43.03207" lon="2.5322733"><ele>427.75</ele><time>2026-04-26T11:34:38.733Z</time></trkpt><trkpt lat="43.0321417" lon="2.5324017"><ele>425.0</ele><time>2026-04-26T11:34:39.729Z</time></trkpt><trkpt lat="43.0321917" lon="2.5325267"><ele>425.0</ele><time>2026-04-26T11:34:40.728Z</time></trkpt><trkpt lat="43.032225" lon="2.5326583"><ele>425.0</ele><time>2026-04-26T11:34:41.728Z</time></trkpt><trkpt lat="43.0322217" lon="2.5327967"><ele>425.0</ele><time>2026-04-26T11:34:42.728Z</time></trkpt><trkpt lat="43.0322033" lon="2.5329367"><ele>425.0</ele><time>2026-04-26T11:34:43.728Z</time></trkpt><trkpt lat="43.0321767" lon="2.53307"><ele>425.0</ele><time>2026-04-26T11:34:44.728Z</time></trkpt><trkpt lat="43.032165" lon="2.5332217"><ele>424.75</ele><time>2026-04-26T11:34:45.728Z</time></trkpt><trkpt lat="43.0321667" lon="2.5333933"><ele>424.5</ele><time>2026-04-26T11:34:46.728Z</time></trkpt><trkpt lat="43.0321717" lon="2.533575"><ele>424.25</ele><time>2026-04-26T11:34:47.73Z</time></trkpt><trkpt lat="43.032185" lon="2.5337517"><ele>424.0</ele><time>2026-04-26T11:34:48.729Z</time></trkpt><trkpt lat="43.0322117" lon="2.5339167"><ele>425.00000000000006</ele><time>2026-04-26T11:34:49.728Z</time></trkpt><trkpt lat="43.032245" lon="2.53406"><ele>426.0</ele><time>2026-04-26T11:34:50.729Z</time></trkpt><trkpt lat="43.032275" lon="2.5341733"><ele>427.0</ele><time>2026-04-26T11:34:51.729Z</time></trkpt><trkpt lat="43.0323017" lon="2.5342717"><ele>428.0</ele><time>2026-04-26T11:34:52.728Z</time></trkpt><trkpt lat="43.0323217" lon="2.5343617"><ele>429.00000000000006</ele><time>2026-04-26T11:34:53.729Z</time></trkpt><trkpt lat="43.0322967" lon="2.5344967"><ele>430.0</ele><time>2026-04-26T11:34:55.729Z</time></trkpt><trkpt lat="43.0321783" lon="2.53457"><ele>432.5</ele><time>2026-04-26T11:34:57.73Z</time></trkpt><trkpt lat="43.03209" lon="2.5345933"><ele>435.0</ele><time>2026-04-26T11:34:58.729Z</time></trkpt><trkpt lat="43.0319867" lon="2.5346283"><ele>437.5</ele><time>2026-04-26T11:34:59.729Z</time></trkpt><trkpt lat="43.031855" lon="2.5346717"><ele>440.0</ele><time>2026-04-26T11:35:00.728Z</time></trkpt><trkpt lat="43.0317317" lon="2.534715"><ele>437.25</ele><time>2026-04-26T11:35:01.73Z</time></trkpt><trkpt lat="43.031595" lon="2.5347417"><ele>434.5</ele><time>2026-04-26T11:35:02.73Z</time></trkpt><trkpt lat="43.0314767" lon="2.5347517"><ele>431.75</ele><time>2026-04-26T11:35:03.73Z</time></trkpt><trkpt lat="43.03136" lon="2.534755"><ele>429.0</ele><time>2026-04-26T11:35:04.73Z</time></trkpt><trkpt lat="43.0312383" lon="2.534765"><ele>429.0</ele><time>2026-04-26T11:35:05.73Z</time></trkpt><trkpt lat="43.0311167" lon="2.5347917"><ele>429.0</ele><time>2026-04-26T11:35:06.728Z</time></trkpt><trkpt lat="43.0310083" lon="2.5348367"><ele>429.0</ele><time>2026-04-26T11:35:07.728Z</time></trkpt><trkpt lat="43.0309033" lon="2.534895"><ele>429.0</ele><time>2026-04-26T11:35:08.73Z</time></trkpt><trkpt lat="43.0307933" lon="2.5349433"><ele>429.4</ele><time>2026-04-26T11:35:09.73Z</time></trkpt><trkpt lat="43.0306933" lon="2.5349833"><ele>429.79999999999995</ele><time>2026-04-26T11:35:10.728Z</time></trkpt><trkpt lat="43.0306" lon="2.5350067"><ele>430.20000000000005</ele><time>2026-04-26T11:35:11.728Z</time></trkpt><trkpt lat="43.0305167" lon="2.5350067"><ele>430.6</ele><time>2026-04-26T11:35:12.728Z</time></trkpt><trkpt lat="43.0304367" lon="2.534955"><ele>431.0</ele><time>2026-04-26T11:35:13.728Z</time></trkpt><trkpt lat="43.0303567" lon="2.534875"><ele>431.0</ele><time>2026-04-26T11:35:14.73Z</time></trkpt><trkpt lat="43.0302767" lon="2.5347817"><ele>431.0</ele><time>2026-04-26T11:35:15.73Z</time></trkpt><trkpt lat="43.0301883" lon="2.5346983"><ele>431.0</ele><time>2026-04-26T11:35:16.728Z</time></trkpt><trkpt lat="43.0300917" lon="2.5346333"><ele>431.0</ele><time>2026-04-26T11:35:17.728Z</time></trkpt><trkpt lat="43.0299867" lon="2.5345867"><ele>431.0</ele><time>2026-04-26T11:35:18.73Z</time></trkpt><trkpt lat="43.0298733" lon="2.5345483"><ele>422.75</ele><time>2026-04-26T11:35:19.73Z</time></trkpt><trkpt lat="43.0297517" lon="2.5345067"><ele>414.5</ele><time>2026-04-26T11:35:20.728Z</time></trkpt><trkpt lat="43.02963" lon="2.534475"><ele>406.25</ele><time>2026-04-26T11:35:21.728Z</time></trkpt><trkpt lat="43.0295083" lon="2.5344667"><ele>398.0</ele><time>2026-04-26T11:35:22.728Z</time></trkpt><trkpt lat="43.02939" lon="2.534465"><ele>398.0</ele><time>2026-04-26T11:35:23.728Z</time></trkpt><trkpt lat="43.029275" lon="2.5344717"><ele>398.0</ele><time>2026-04-26T11:35:24.73Z</time></trkpt><trkpt lat="43.02916" lon="2.5344883"><ele>398.0</ele><time>2026-04-26T11:35:25.73Z</time></trkpt><trkpt lat="43.02905" lon="2.5345283"><ele>398.0</ele><time>2026-04-26T11:35:26.728Z</time></trkpt><trkpt lat="43.0289383" lon="2.5345983"><ele>396.0</ele><time>2026-04-26T11:35:27.73Z</time></trkpt><trkpt lat="43.02883" lon="2.5346917"><ele>394.0</ele><time>2026-04-26T11:35:28.729Z</time></trkpt><trkpt lat="43.02873" lon="2.53481"><ele>392.0</ele><time>2026-04-26T11:35:29.729Z</time></trkpt><trkpt lat="43.0286367" lon="2.53494"><ele>390.0</ele><time>2026-04-26T11:35:30.73Z</time></trkpt><trkpt lat="43.0285567" lon="2.5350767"><ele>390.0</ele><time>2026-04-26T11:35:31.728Z</time></trkpt><trkpt lat="43.0284933" lon="2.5352217"><ele>390.0</ele><time>2026-04-26T11:35:32.729Z</time></trkpt><trkpt lat="43.0284367" lon="2.5353767"><ele>390.0</ele><time>2026-04-26T11:35:33.728Z</time></trkpt><trkpt lat="43.0283933" lon="2.5355517"><ele>390.0</ele><time>2026-04-26T11:35:34.729Z</time></trkpt><trkpt lat="43.02837" lon="2.535745"><ele>392.25</ele><time>2026-04-26T11:35:35.729Z</time></trkpt><trkpt lat="43.02836" lon="2.5359417"><ele>394.5</ele><time>2026-04-26T11:35:36.729Z</time></trkpt><trkpt lat="43.028345" lon="2.5361483"><ele>396.75</ele><time>2026-04-26T11:35:37.728Z</time></trkpt><trkpt lat="43.0283267" lon="2.5363533"><ele>399.0</ele><time>2026-04-26T11:35:38.728Z</time></trkpt><trkpt lat="43.028295" lon="2.5365517"><ele>386.6666666666667</ele><time>2026-04-26T11:35:39.729Z</time></trkpt><trkpt lat="43.028255" lon="2.536755"><ele>374.33333333333337</ele><time>2026-04-26T11:35:40.728Z</time></trkpt><trkpt lat="43.028205" lon="2.53696"><ele>362.0</ele><time>2026-04-26T11:35:41.728Z</time></trkpt><trkpt lat="43.02816" lon="2.5371583"><ele>362.0</ele><time>2026-04-26T11:35:42.728Z</time></trkpt><trkpt lat="43.02812" lon="2.5373583"><ele>362.0</ele><time>2026-04-26T11:35:43.729Z</time></trkpt><trkpt lat="43.0280933" lon="2.53756"><ele>362.0</ele><time>2026-04-26T11:35:44.728Z</time></trkpt><trkpt lat="43.0280483" lon="2.53776"><ele>364.25</ele><time>2026-04-26T11:35:45.73Z</time></trkpt><trkpt lat="43.0279867" lon="2.53792"><ele>366.5</ele><time>2026-04-26T11:35:46.729Z</time></trkpt><trkpt lat="43.0279217" lon="2.5381017"><ele>368.75</ele><time>2026-04-26T11:35:47.729Z</time></trkpt><trkpt lat="43.027855" lon="2.5382783"><ele>371.0</ele><time>2026-04-26T11:35:48.73Z</time></trkpt><trkpt lat="43.0278" lon="2.5384467"><ele>371.0</ele><time>2026-04-26T11:35:49.73Z</time></trkpt><trkpt lat="43.0277583" lon="2.5386267"><ele>371.0</ele><time>2026-04-26T11:35:50.73Z</time></trkpt><trkpt lat="43.0277383" lon="2.5387883"><ele>371.0</ele><time>2026-04-26T11:35:51.729Z</time></trkpt><trkpt lat="43.0277267" lon="2.538935"><ele>371.0</ele><time>2026-04-26T11:35:52.728Z</time></trkpt><trkpt lat="43.027745" lon="2.5390517"><ele>372.20000000000005</ele><time>2026-04-26T11:35:53.728Z</time></trkpt><trkpt lat="43.0278" lon="2.5391683"><ele>373.40000000000003</ele><time>2026-04-26T11:35:54.729Z</time></trkpt><trkpt lat="43.0278767" lon="2.5392683"><ele>374.6</ele><time>2026-04-26T11:35:55.728Z</time></trkpt><trkpt lat="43.0279617" lon="2.539355"><ele>375.8</ele><time>2026-04-26T11:35:56.729Z</time></trkpt><trkpt lat="43.028065" lon="2.539415"><ele>377.0</ele><time>2026-04-26T11:35:57.728Z</time></trkpt><trkpt lat="43.0281667" lon="2.5394467"><ele>377.0</ele><time>2026-04-26T11:35:58.729Z</time></trkpt><trkpt lat="43.028265" lon="2.5394567"><ele>377.0</ele><time>2026-04-26T11:35:59.728Z</time></trkpt><trkpt lat="43.0283833" lon="2.5394133"><ele>377.0</ele><time>2026-04-26T11:36:00.73Z</time></trkpt><trkpt lat="43.028485" lon="2.5393967"><ele>377.0</ele><time>2026-04-26T11:36:01.728Z</time></trkpt><trkpt lat="43.0285717" lon="2.5394117"><ele>377.0</ele><time>2026-04-26T11:36:02.731Z</time></trkpt><trkpt lat="43.0286567" lon="2.53947"><ele>376.75</ele><time>2026-04-26T11:36:03.728Z</time></trkpt><trkpt lat="43.0287567" lon="2.5395717"><ele>376.5</ele><time>2026-04-26T11:36:04.73Z</time></trkpt><trkpt lat="43.0288483" lon="2.5396817"><ele>376.25</ele><time>2026-04-26T11:36:05.729Z</time></trkpt><trkpt lat="43.0289383" lon="2.5397867"><ele>376.0</ele><time>2026-04-26T11:36:06.73Z</time></trkpt><trkpt lat="43.0290233" lon="2.5398883"><ele>376.0</ele><time>2026-04-26T11:36:07.728Z</time></trkpt><trkpt lat="43.029105" lon="2.5399867"><ele>376.0</ele><time>2026-04-26T11:36:08.733Z</time></trkpt><trkpt lat="43.02918" lon="2.540095"><ele>376.0</ele><time>2026-04-26T11:36:09.731Z</time></trkpt><trkpt lat="43.0292317" lon="2.54024"><ele>376.0</ele><time>2026-04-26T11:36:10.731Z</time></trkpt><trkpt lat="43.0292683" lon="2.5404117"><ele>375.5</ele><time>2026-04-26T11:36:11.73Z</time></trkpt><trkpt lat="43.0293167" lon="2.54059"><ele>375.0</ele><time>2026-04-26T11:36:12.731Z</time></trkpt><trkpt lat="43.0293817" lon="2.5407667"><ele>374.5</ele><time>2026-04-26T11:36:13.728Z</time></trkpt><trkpt lat="43.0294517" lon="2.540935"><ele>374.0</ele><time>2026-04-26T11:36:14.728Z</time></trkpt><trkpt lat="43.0295233" lon="2.5411017"><ele>370.0</ele><time>2026-04-26T11:36:15.729Z</time></trkpt><trkpt lat="43.029595" lon="2.54126"><ele>366.0</ele><time>2026-04-26T11:36:16.729Z</time></trkpt><trkpt lat="43.0296733" lon="2.5414133"><ele>362.0</ele><time>2026-04-26T11:36:17.73Z</time></trkpt><trkpt lat="43.029765" lon="2.5415667"><ele>358.0</ele><time>2026-04-26T11:36:18.73Z</time></trkpt><trkpt lat="43.029855" lon="2.541715"><ele>358.0</ele><time>2026-04-26T11:36:19.73Z</time></trkpt><trkpt lat="43.02996" lon="2.5418467"><ele>358.0</ele><time>2026-04-26T11:36:20.73Z</time></trkpt><trkpt lat="43.0300667" lon="2.5419667"><ele>358.0</ele><time>2026-04-26T11:36:21.73Z</time></trkpt><trkpt lat="43.0301733" lon="2.5420833"><ele>358.0</ele><time>2026-04-26T11:36:22.729Z</time></trkpt><trkpt lat="43.0302783" lon="2.5421983"><ele>359.25</ele><time>2026-04-26T11:36:23.729Z</time></trkpt><trkpt lat="43.0303717" lon="2.5423117"><ele>360.5</ele><time>2026-04-26T11:36:24.729Z</time></trkpt><trkpt lat="43.0304617" lon="2.5424233"><ele>361.75</ele><time>2026-04-26T11:36:25.729Z</time></trkpt><trkpt lat="43.0305317" lon="2.542545"><ele>363.0</ele><time>2026-04-26T11:36:26.729Z</time></trkpt><trkpt lat="43.0305783" lon="2.5426717"><ele>363.0</ele><time>2026-04-26T11:36:27.728Z</time></trkpt><trkpt lat="43.03062" lon="2.5427967"><ele>363.0</ele><time>2026-04-26T11:36:28.729Z</time></trkpt><trkpt lat="43.0306383" lon="2.5429067"><ele>363.0</ele><time>2026-04-26T11:36:29.729Z</time></trkpt><trkpt lat="43.0306633" lon="2.542995"><ele>363.0</ele><time>2026-04-26T11:36:30.73Z</time></trkpt><trkpt lat="43.030755" lon="2.543075"><ele>363.0</ele><time>2026-04-26T11:36:32.73Z</time></trkpt><trkpt lat="43.030845" lon="2.54306"><ele>362.2</ele><time>2026-04-26T11:36:33.729Z</time></trkpt><trkpt lat="43.0309367" lon="2.5430283"><ele>361.4</ele><time>2026-04-26T11:36:34.729Z</time></trkpt><trkpt lat="43.0310367" lon="2.5429833"><ele>360.59999999999997</ele><time>2026-04-26T11:36:35.729Z</time></trkpt><trkpt lat="43.0311383" lon="2.54292"><ele>359.79999999999995</ele><time>2026-04-26T11:36:36.729Z</time></trkpt><trkpt lat="43.0312383" lon="2.5428217"><ele>359.0</ele><time>2026-04-26T11:36:37.729Z</time></trkpt><trkpt lat="43.0313233" lon="2.54269"><ele>360.6666666666667</ele><time>2026-04-26T11:36:38.731Z</time></trkpt><trkpt lat="43.03138" lon="2.5425783"><ele>362.33333333333337</ele><time>2026-04-26T11:36:39.729Z</time></trkpt><trkpt lat="43.031435" lon="2.542485"><ele>364.0</ele><time>2026-04-26T11:36:40.729Z</time></trkpt><trkpt lat="43.0315017" lon="2.5424417"><ele>365.6666666666667</ele><time>2026-04-26T11:36:41.728Z</time></trkpt><trkpt lat="43.03158" lon="2.542545"><ele>367.3333333333333</ele><time>2026-04-26T11:36:43.728Z</time></trkpt><trkpt lat="43.0315667" lon="2.54264"><ele>369.0</ele><time>2026-04-26T11:36:44.729Z</time></trkpt><trkpt lat="43.0315367" lon="2.5427417"><ele>369.0</ele><time>2026-04-26T11:36:45.729Z</time></trkpt><trkpt lat="43.0314917" lon="2.5428567"><ele>369.0</ele><time>2026-04-26T11:36:46.728Z</time></trkpt><trkpt lat="43.03143" lon="2.5429883"><ele>369.0</ele><time>2026-04-26T11:36:47.728Z</time></trkpt><trkpt lat="43.0313833" lon="2.543125"><ele>369.0</ele><time>2026-04-26T11:36:48.73Z</time></trkpt><trkpt lat="43.0313367" lon="2.5432617"><ele>369.0</ele><time>2026-04-26T11:36:49.73Z</time></trkpt><trkpt lat="43.0312933" lon="2.5433933"><ele>367.0</ele><time>2026-04-26T11:36:50.729Z</time></trkpt><trkpt lat="43.0312633" lon="2.543525"><ele>365.0</ele><time>2026-04-26T11:36:51.73Z</time></trkpt><trkpt lat="43.03126" lon="2.5436717"><ele>363.0</ele><time>2026-04-26T11:36:52.728Z</time></trkpt><trkpt lat="43.0312733" lon="2.5438133"><ele>361.0</ele><time>2026-04-26T11:36:53.728Z</time></trkpt><trkpt lat="43.0313" lon="2.543955"><ele>359.0</ele><time>2026-04-26T11:36:54.728Z</time></trkpt><trkpt lat="43.0313517" lon="2.5440933"><ele>357.6</ele><time>2026-04-26T11:36:55.736Z</time></trkpt><trkpt lat="43.0314167" lon="2.5442217"><ele>356.2</ele><time>2026-04-26T11:36:56.73Z</time></trkpt><trkpt lat="43.0314883" lon="2.5443433"><ele>354.8</ele><time>2026-04-26T11:36:57.729Z</time></trkpt><trkpt lat="43.031545" lon="2.5444617"><ele>353.40000000000003</ele><time>2026-04-26T11:36:58.729Z</time></trkpt><trkpt lat="43.03158" lon="2.54457"><ele>352.0</ele><time>2026-04-26T11:36:59.73Z</time></trkpt><trkpt lat="43.0316017" lon="2.5446667"><ele>349.40000000000003</ele><time>2026-04-26T11:37:00.729Z</time></trkpt><trkpt lat="43.0315717" lon="2.5448033"><ele>346.8</ele><time>2026-04-26T11:37:02.729Z</time></trkpt><trkpt lat="43.0314483" lon="2.5448367"><ele>344.2</ele><time>2026-04-26T11:37:04.728Z</time></trkpt><trkpt lat="43.0313583" lon="2.5448383"><ele>341.6</ele><time>2026-04-26T11:37:05.729Z</time></trkpt><trkpt lat="43.0312617" lon="2.5448467"><ele>339.0</ele><time>2026-04-26T11:37:06.732Z</time></trkpt><trkpt lat="43.03115" lon="2.5448933"><ele>339.0</ele><time>2026-04-26T11:37:07.728Z</time></trkpt><trkpt lat="43.031045" lon="2.544965"><ele>339.0</ele><time>2026-04-26T11:37:08.73Z</time></trkpt><trkpt lat="43.03094" lon="2.54505"><ele>339.0</ele><time>2026-04-26T11:37:09.729Z</time></trkpt><trkpt lat="43.0308333" lon="2.5451317"><ele>339.0</ele><time>2026-04-26T11:37:10.729Z</time></trkpt><trkpt lat="43.0307267" lon="2.5451833"><ele>335.0</ele><time>2026-04-26T11:37:11.728Z</time></trkpt><trkpt lat="43.0306383" lon="2.5451817"><ele>331.0</ele><time>2026-04-26T11:37:12.735Z</time></trkpt><trkpt lat="43.0305483" lon="2.5451467"><ele>327.0</ele><time>2026-04-26T11:37:13.728Z</time></trkpt><trkpt lat="43.0304633" lon="2.54507"><ele>323.0</ele><time>2026-04-26T11:37:14.732Z</time></trkpt><trkpt lat="43.0303833" lon="2.544965"><ele>319.0</ele><time>2026-04-26T11:37:15.73Z</time></trkpt><trkpt lat="43.0303083" lon="2.544855"><ele>319.0</ele><time>2026-04-26T11:37:16.73Z</time></trkpt><trkpt lat="43.0302333" lon="2.5447483"><ele>319.0</ele><time>2026-04-26T11:37:17.73Z</time></trkpt><trkpt lat="43.0301567" lon="2.54464"><ele>319.0</ele><time>2026-04-26T11:37:18.729Z</time></trkpt><trkpt lat="43.0300817" lon="2.5445233"><ele>319.0</ele><time>2026-04-26T11:37:19.729Z</time></trkpt><trkpt lat="43.0300067" lon="2.544405"><ele>319.0</ele><time>2026-04-26T11:37:20.73Z</time></trkpt><trkpt lat="43.0299283" lon="2.5442833"><ele>318.5</ele><time>2026-04-26T11:37:21.728Z</time></trkpt><trkpt lat="43.0298617" lon="2.5441683"><ele>318.0</ele><time>2026-04-26T11:37:22.731Z</time></trkpt><trkpt lat="43.029785" lon="2.5440467"><ele>317.5</ele><time>2026-04-26T11:37:23.73Z</time></trkpt><trkpt lat="43.0297067" lon="2.5439283"><ele>317.0</ele><time>2026-04-26T11:37:24.728Z</time></trkpt><trkpt lat="43.029635" lon="2.5438133"><ele>322.0</ele><time>2026-04-26T11:37:25.728Z</time></trkpt><trkpt lat="43.0295583" lon="2.543705"><ele>327.0</ele><time>2026-04-26T11:37:26.735Z</time></trkpt><trkpt lat="43.0294733" lon="2.5436083"><ele>332.0</ele><time>2026-04-26T11:37:27.732Z</time></trkpt><trkpt lat="43.02937" lon="2.543535"><ele>337.0</ele><time>2026-04-26T11:37:28.731Z</time></trkpt><trkpt lat="43.029265" lon="2.543475"><ele>337.0</ele><time>2026-04-26T11:37:29.731Z</time></trkpt><trkpt lat="43.0291617" lon="2.5434233"><ele>337.0</ele><time>2026-04-26T11:37:30.732Z</time></trkpt><trkpt lat="43.02906" lon="2.5433767"><ele>337.0</ele><time>2026-04-26T11:37:31.732Z</time></trkpt><trkpt lat="43.0289767" lon="2.543355"><ele>337.0</ele><time>2026-04-26T11:37:32.731Z</time></trkpt><trkpt lat="43.0289033" lon="2.5433683"><ele>337.0</ele><time>2026-04-26T11:37:33.728Z</time></trkpt><trkpt lat="43.028845" lon="2.5434367"><ele>335.66666666666663</ele><time>2026-04-26T11:37:34.732Z</time></trkpt><trkpt lat="43.0287867" lon="2.5435183"><ele>334.3333333333333</ele><time>2026-04-26T11:37:35.729Z</time></trkpt><trkpt lat="43.0287417" lon="2.5436267"><ele>333.0</ele><time>2026-04-26T11:37:36.731Z</time></trkpt><trkpt lat="43.0286933" lon="2.5437233"><ele>331.6666666666667</ele><time>2026-04-26T11:37:37.728Z</time></trkpt><trkpt lat="43.0286333" lon="2.543795"><ele>330.33333333333337</ele><time>2026-04-26T11:37:38.728Z</time></trkpt><trkpt lat="43.0285667" lon="2.54384"><ele>329.0</ele><time>2026-04-26T11:37:39.729Z</time></trkpt><trkpt lat="43.0284933" lon="2.5438517"><ele>326.7142857142857</ele><time>2026-04-26T11:37:40.731Z</time></trkpt><trkpt lat="43.0284217" lon="2.543825"><ele>324.42857142857144</ele><time>2026-04-26T11:37:41.728Z</time></trkpt><trkpt lat="43.0283567" lon="2.5437783"><ele>322.1428571428571</ele><time>2026-04-26T11:37:42.729Z</time></trkpt><trkpt lat="43.0283" lon="2.5437183"><ele>319.8571428571429</ele><time>2026-04-26T11:37:43.728Z</time></trkpt><trkpt lat="43.0282467" lon="2.5436567"><ele>317.57142857142856</ele><time>2026-04-26T11:37:44.73Z</time></trkpt><trkpt lat="43.0281967" lon="2.5435967"><ele>315.2857142857143</ele><time>2026-04-26T11:37:45.729Z</time></trkpt><trkpt lat="43.028135" lon="2.54355"><ele>313.0</ele><time>2026-04-26T11:37:46.727Z</time></trkpt><trkpt lat="43.0280733" lon="2.54352"><ele>313.0</ele><time>2026-04-26T11:37:47.728Z</time></trkpt><trkpt lat="43.028005" lon="2.5435033"><ele>313.0</ele><time>2026-04-26T11:37:48.728Z</time></trkpt><trkpt lat="43.027925" lon="2.54348"><ele>313.0</ele><time>2026-04-26T11:37:49.728Z</time></trkpt><trkpt lat="43.0278367" lon="2.5434417"><ele>313.0</ele><time>2026-04-26T11:37:50.728Z</time></trkpt><trkpt lat="43.02774" lon="2.5433817"><ele>313.0</ele><time>2026-04-26T11:37:51.728Z</time></trkpt><trkpt lat="43.02764" lon="2.5432933"><ele>313.0</ele><time>2026-04-26T11:37:52.727Z</time></trkpt><trkpt lat="43.0275367" lon="2.5432017"><ele>313.0</ele><time>2026-04-26T11:37:53.728Z</time></trkpt><trkpt lat="43.0274233" lon="2.54313"><ele>313.0</ele><time>2026-04-26T11:37:54.728Z</time></trkpt><trkpt lat="43.0273" lon="2.5430783"><ele>313.0</ele><time>2026-04-26T11:37:55.727Z</time></trkpt><trkpt lat="43.0271733" lon="2.5430317"><ele>308.25</ele><time>2026-04-26T11:37:56.729Z</time></trkpt><trkpt lat="43.0270483" lon="2.542995"><ele>303.5</ele><time>2026-04-26T11:37:57.728Z</time></trkpt><trkpt lat="43.0269167" lon="2.542975"><ele>298.75</ele><time>2026-04-26T11:37:58.728Z</time></trkpt><trkpt lat="43.026785" lon="2.542965"><ele>294.0</ele><time>2026-04-26T11:37:59.729Z</time></trkpt><trkpt lat="43.0266533" lon="2.5429433"><ele>291.5</ele><time>2026-04-26T11:38:00.73Z</time></trkpt><trkpt lat="43.02652" lon="2.54291"><ele>289.0</ele><time>2026-04-26T11:38:01.729Z</time></trkpt><trkpt lat="43.0263967" lon="2.5428617"><ele>286.5</ele><time>2026-04-26T11:38:02.73Z</time></trkpt><trkpt lat="43.0262817" lon="2.54281"><ele>284.0</ele><time>2026-04-26T11:38:03.729Z</time></trkpt><trkpt lat="43.0261667" lon="2.5427633"><ele>286.0</ele><time>2026-04-26T11:38:04.729Z</time></trkpt><trkpt lat="43.02605" lon="2.54272"><ele>288.0</ele><time>2026-04-26T11:38:05.728Z</time></trkpt><trkpt lat="43.025935" lon="2.5426933"><ele>290.0</ele><time>2026-04-26T11:38:06.729Z</time></trkpt><trkpt lat="43.0258233" lon="2.5426817"><ele>292.0</ele><time>2026-04-26T11:38:07.728Z</time></trkpt><trkpt lat="43.0257183" lon="2.54266"><ele>292.0</ele><time>2026-04-26T11:38:08.73Z</time></trkpt><trkpt lat="43.0256117" lon="2.5426183"><ele>292.0</ele><time>2026-04-26T11:38:09.729Z</time></trkpt><trkpt lat="43.0255033" lon="2.54256"><ele>292.0</ele><time>2026-04-26T11:38:10.729Z</time></trkpt><trkpt lat="43.025395" lon="2.5424833"><ele>292.0</ele><time>2026-04-26T11:38:11.728Z</time></trkpt><trkpt lat="43.025295" lon="2.5423917"><ele>292.0</ele><time>2026-04-26T11:38:12.727Z</time></trkpt><trkpt lat="43.02519" lon="2.5422867"><ele>292.0</ele><time>2026-04-26T11:38:13.728Z</time></trkpt><trkpt lat="43.0250917" lon="2.5421883"><ele>292.0</ele><time>2026-04-26T11:38:14.729Z</time></trkpt><trkpt lat="43.0249883" lon="2.5421083"><ele>292.0</ele><time>2026-04-26T11:38:15.728Z</time></trkpt><trkpt lat="43.0248883" lon="2.5420333"><ele>293.0</ele><time>2026-04-26T11:38:16.729Z</time></trkpt><trkpt lat="43.0248067" lon="2.5419467"><ele>294.0</ele><time>2026-04-26T11:38:17.729Z</time></trkpt><trkpt lat="43.02474" lon="2.5418383"><ele>295.0</ele><time>2026-04-26T11:38:18.728Z</time></trkpt><trkpt lat="43.0246733" lon="2.54171"><ele>296.0</ele><time>2026-04-26T11:38:19.728Z</time></trkpt><trkpt lat="43.0245983" lon="2.541595"><ele>297.0</ele><time>2026-04-26T11:38:20.728Z</time></trkpt><trkpt lat="43.024525" lon="2.5415117"><ele>297.0</ele><time>2026-04-26T11:38:21.728Z</time></trkpt><trkpt lat="43.024465" lon="2.541435"><ele>297.0</ele><time>2026-04-26T11:38:22.728Z</time></trkpt><trkpt lat="43.02443" lon="2.5413517"><ele>297.0</ele><time>2026-04-26T11:38:23.728Z</time></trkpt><trkpt lat="43.0244133" lon="2.5412467"><ele>297.0</ele><time>2026-04-26T11:38:24.727Z</time></trkpt><trkpt lat="43.0244217" lon="2.541125"><ele>297.0</ele><time>2026-04-26T11:38:25.729Z</time></trkpt><trkpt lat="43.0244717" lon="2.5409983"><ele>297.0</ele><time>2026-04-26T11:38:26.728Z</time></trkpt><trkpt lat="43.0245317" lon="2.5408733"><ele>296.5</ele><time>2026-04-26T11:38:27.728Z</time></trkpt><trkpt lat="43.0245933" lon="2.5407533"><ele>296.0</ele><time>2026-04-26T11:38:28.728Z</time></trkpt><trkpt lat="43.024645" lon="2.5406267"><ele>295.5</ele><time>2026-04-26T11:38:29.728Z</time></trkpt><trkpt lat="43.0246417" lon="2.54046"><ele>295.0</ele><time>2026-04-26T11:38:30.727Z</time></trkpt><trkpt lat="43.0246267" lon="2.5403"><ele>292.8</ele><time>2026-04-26T11:38:31.727Z</time></trkpt><trkpt lat="43.0245933" lon="2.54015"><ele>290.6</ele><time>2026-04-26T11:38:32.728Z</time></trkpt><trkpt lat="43.0245667" lon="2.540005"><ele>288.4</ele><time>2026-04-26T11:38:33.728Z</time></trkpt><trkpt lat="43.0245583" lon="2.539865"><ele>286.2</ele><time>2026-04-26T11:38:34.728Z</time></trkpt><trkpt lat="43.02456" lon="2.5397233"><ele>284.0</ele><time>2026-04-26T11:38:35.727Z</time></trkpt><trkpt lat="43.024555" lon="2.5395933"><ele>283.2</ele><time>2026-04-26T11:38:36.728Z</time></trkpt><trkpt lat="43.0245267" lon="2.5394867"><ele>282.4</ele><time>2026-04-26T11:38:37.729Z</time></trkpt><trkpt lat="43.02447" lon="2.5393833"><ele>281.6</ele><time>2026-04-26T11:38:38.727Z</time></trkpt><trkpt lat="43.02438" lon="2.53928"><ele>280.8</ele><time>2026-04-26T11:38:39.73Z</time></trkpt><trkpt lat="43.024295" lon="2.53918"><ele>280.0</ele><time>2026-04-26T11:38:40.731Z</time></trkpt><trkpt lat="43.0242217" lon="2.5390783"><ele>280.0</ele><time>2026-04-26T11:38:41.728Z</time></trkpt><trkpt lat="43.0241683" lon="2.53897"><ele>280.0</ele><time>2026-04-26T11:38:42.73Z</time></trkpt><trkpt lat="43.0241333" lon="2.5388417"><ele>280.0</ele><time>2026-04-26T11:38:43.728Z</time></trkpt><trkpt lat="43.0241183" lon="2.5386967"><ele>280.0</ele><time>2026-04-26T11:38:44.728Z</time></trkpt><trkpt lat="43.0241167" lon="2.5385433"><ele>280.0</ele><time>2026-04-26T11:38:45.727Z</time></trkpt><trkpt lat="43.0241217" lon="2.5383983"><ele>279.4</ele><time>2026-04-26T11:38:46.729Z</time></trkpt><trkpt lat="43.0241383" lon="2.53826"><ele>278.8</ele><time>2026-04-26T11:38:47.729Z</time></trkpt><trkpt lat="43.0241733" lon="2.538135"><ele>278.2</ele><time>2026-04-26T11:38:48.728Z</time></trkpt><trkpt lat="43.024225" lon="2.538015"><ele>277.6</ele><time>2026-04-26T11:38:49.73Z</time></trkpt><trkpt lat="43.024295" lon="2.537905"><ele>277.0</ele><time>2026-04-26T11:38:50.728Z</time></trkpt><trkpt lat="43.024385" lon="2.5378117"><ele>274.8</ele><time>2026-04-26T11:38:51.728Z</time></trkpt><trkpt lat="43.0244817" lon="2.53772"><ele>272.6</ele><time>2026-04-26T11:38:52.728Z</time></trkpt><trkpt lat="43.0245767" lon="2.53764"><ele>270.40000000000003</ele><time>2026-04-26T11:38:53.728Z</time></trkpt><trkpt lat="43.0246683" lon="2.5375783"><ele>268.2</ele><time>2026-04-26T11:38:54.734Z</time></trkpt><trkpt lat="43.0247483" lon="2.53753"><ele>266.0</ele><time>2026-04-26T11:38:55.728Z</time></trkpt><trkpt lat="43.02482" lon="2.537495"><ele>266.0</ele><time>2026-04-26T11:38:56.729Z</time></trkpt><trkpt lat="43.0248833" lon="2.537465"><ele>266.0</ele><time>2026-04-26T11:38:57.731Z</time></trkpt><trkpt lat="43.0249533" lon="2.5373783"><ele>266.0</ele><time>2026-04-26T11:38:59.729Z</time></trkpt><trkpt lat="43.024895" lon="2.5372233"><ele>266.0</ele><time>2026-04-26T11:39:01.729Z</time></trkpt><trkpt lat="43.02484" lon="2.5371333"><ele>266.0</ele><time>2026-04-26T11:39:02.728Z</time></trkpt><trkpt lat="43.0247833" lon="2.5370283"><ele>264.2</ele><time>2026-04-26T11:39:03.729Z</time></trkpt><trkpt lat="43.02474" lon="2.5369117"><ele>262.40000000000003</ele><time>2026-04-26T11:39:04.729Z</time></trkpt><trkpt lat="43.0247233" lon="2.5367883"><ele>260.6</ele><time>2026-04-26T11:39:05.73Z</time></trkpt><trkpt lat="43.024745" lon="2.536655"><ele>258.8</ele><time>2026-04-26T11:39:06.729Z</time></trkpt><trkpt lat="43.02479" lon="2.5365117"><ele>257.0</ele><time>2026-04-26T11:39:07.728Z</time></trkpt><trkpt lat="43.0248517" lon="2.5363683"><ele>257.5</ele><time>2026-04-26T11:39:08.727Z</time></trkpt><trkpt lat="43.0249167" lon="2.5362183"><ele>258.0</ele><time>2026-04-26T11:39:09.727Z</time></trkpt><trkpt lat="43.0249733" lon="2.5360667"><ele>258.5</ele><time>2026-04-26T11:39:10.728Z</time></trkpt><trkpt lat="43.02502" lon="2.5359167"><ele>259.0</ele><time>2026-04-26T11:39:11.731Z</time></trkpt><trkpt lat="43.0250617" lon="2.5357733"><ele>260.8</ele><time>2026-04-26T11:39:12.728Z</time></trkpt><trkpt lat="43.0251" lon="2.5356417"><ele>262.59999999999997</ele><time>2026-04-26T11:39:13.728Z</time></trkpt><trkpt lat="43.025135" lon="2.53553"><ele>264.4</ele><time>2026-04-26T11:39:14.737Z</time></trkpt><trkpt lat="43.02516" lon="2.5354433"><ele>266.2</ele><time>2026-04-26T11:39:15.73Z</time></trkpt><trkpt lat="43.02515" lon="2.5353267"><ele>268.0</ele><time>2026-04-26T11:39:17.731Z</time></trkpt><trkpt lat="43.025045" lon="2.5353367"><ele>268.0</ele><time>2026-04-26T11:39:19.729Z</time></trkpt><trkpt lat="43.0249833" lon="2.5354133"><ele>268.0</ele><time>2026-04-26T11:39:20.729Z</time></trkpt><trkpt lat="43.0249317" lon="2.5355133"><ele>268.0</ele><time>2026-04-26T11:39:21.728Z</time></trkpt><trkpt lat="43.024875" lon="2.53562"><ele>268.0</ele><time>2026-04-26T11:39:22.728Z</time></trkpt><trkpt lat="43.0248067" lon="2.53572"><ele>268.0</ele><time>2026-04-26T11:39:23.728Z</time></trkpt><trkpt lat="43.0247217" lon="2.535805"><ele>266.2</ele><time>2026-04-26T11:39:24.728Z</time></trkpt><trkpt lat="43.0246367" lon="2.5358783"><ele>264.4</ele><time>2026-04-26T11:39:25.728Z</time></trkpt><trkpt lat="43.0245433" lon="2.5359683"><ele>262.59999999999997</ele><time>2026-04-26T11:39:26.729Z</time></trkpt><trkpt lat="43.0244483" lon="2.5360633"><ele>260.8</ele><time>2026-04-26T11:39:27.73Z</time></trkpt><trkpt lat="43.0243533" lon="2.5361517"><ele>259.0</ele><time>2026-04-26T11:39:28.729Z</time></trkpt><trkpt lat="43.024255" lon="2.5362183"><ele>258.59999999999997</ele><time>2026-04-26T11:39:29.729Z</time></trkpt><trkpt lat="43.0241583" lon="2.5362733"><ele>258.2</ele><time>2026-04-26T11:39:30.729Z</time></trkpt><trkpt lat="43.0240683" lon="2.5363317"><ele>257.79999999999995</ele><time>2026-04-26T11:39:31.728Z</time></trkpt><trkpt lat="43.0239917" lon="2.5363983"><ele>257.4</ele><time>2026-04-26T11:39:32.728Z</time></trkpt><trkpt lat="43.0239283" lon="2.5364833"><ele>257.0</ele><time>2026-04-26T11:39:33.73Z</time></trkpt><trkpt lat="43.0238717" lon="2.5365933"><ele>256.75</ele><time>2026-04-26T11:39:34.729Z</time></trkpt><trkpt lat="43.0238117" lon="2.5367533"><ele>256.5</ele><time>2026-04-26T11:39:35.729Z</time></trkpt><trkpt lat="43.0237433" lon="2.536915"><ele>256.25</ele><time>2026-04-26T11:39:36.731Z</time></trkpt><trkpt lat="43.0236767" lon="2.5370667"><ele>256.0</ele><time>2026-04-26T11:39:37.728Z</time></trkpt><trkpt lat="43.0236133" lon="2.5372183"><ele>256.0</ele><time>2026-04-26T11:39:38.729Z</time></trkpt><trkpt lat="43.0235567" lon="2.5373733"><ele>256.0</ele><time>2026-04-26T11:39:39.729Z</time></trkpt><trkpt lat="43.0235067" lon="2.537545"><ele>256.0</ele><time>2026-04-26T11:39:40.728Z</time></trkpt><trkpt lat="43.0234567" lon="2.5377417"><ele>256.0</ele><time>2026-04-26T11:39:41.728Z</time></trkpt><trkpt lat="43.0234183" lon="2.537935"><ele>255.25</ele><time>2026-04-26T11:39:42.728Z</time></trkpt><trkpt lat="43.023375" lon="2.53812"><ele>254.5</ele><time>2026-04-26T11:39:43.728Z</time></trkpt><trkpt lat="43.0233567" lon="2.538305"><ele>253.75</ele><time>2026-04-26T11:39:44.73Z</time></trkpt><trkpt lat="43.0233417" lon="2.5384783"><ele>253.0</ele><time>2026-04-26T11:39:45.728Z</time></trkpt><trkpt lat="43.0233317" lon="2.5386467"><ele>252.5</ele><time>2026-04-26T11:39:46.727Z</time></trkpt><trkpt lat="43.023315" lon="2.5388033"><ele>252.0</ele><time>2026-04-26T11:39:47.728Z</time></trkpt><trkpt lat="43.02328" lon="2.5389533"><ele>251.5</ele><time>2026-04-26T11:39:48.728Z</time></trkpt><trkpt lat="43.0232283" lon="2.5391"><ele>251.0</ele><time>2026-04-26T11:39:49.728Z</time></trkpt><trkpt lat="43.0231667" lon="2.5392367"><ele>250.83333333333334</ele><time>2026-04-26T11:39:50.73Z</time></trkpt><trkpt lat="43.0231017" lon="2.53935"><ele>250.66666666666669</ele><time>2026-04-26T11:39:51.729Z</time></trkpt><trkpt lat="43.02304" lon="2.539435"><ele>250.5</ele><time>2026-04-26T11:39:52.729Z</time></trkpt><trkpt lat="43.02298" lon="2.539495"><ele>250.33333333333331</ele><time>2026-04-26T11:39:53.729Z</time></trkpt><trkpt lat="43.022915" lon="2.5395283"><ele>250.16666666666666</ele><time>2026-04-26T11:39:54.729Z</time></trkpt><trkpt lat="43.0228417" lon="2.5395233"><ele>250.0</ele><time>2026-04-26T11:39:55.729Z</time></trkpt><trkpt lat="43.02276" lon="2.5395017"><ele>250.0</ele><time>2026-04-26T11:39:56.729Z</time></trkpt><trkpt lat="43.0226767" lon="2.5394983"><ele>250.0</ele><time>2026-04-26T11:39:57.729Z</time></trkpt><trkpt lat="43.02259" lon="2.53951"><ele>250.0</ele><time>2026-04-26T11:39:58.727Z</time></trkpt><trkpt lat="43.0225" lon="2.5395367"><ele>250.0</ele><time>2026-04-26T11:39:59.735Z</time></trkpt><trkpt lat="43.0224067" lon="2.539625"><ele>250.0</ele><time>2026-04-26T11:40:00.729Z</time></trkpt><trkpt lat="43.0223067" lon="2.53973"><ele>247.75</ele><time>2026-04-26T11:40:01.728Z</time></trkpt><trkpt lat="43.022195" lon="2.5398467"><ele>245.5</ele><time>2026-04-26T11:40:02.728Z</time></trkpt><trkpt lat="43.0220767" lon="2.5399683"><ele>243.25</ele><time>2026-04-26T11:40:03.727Z</time></trkpt><trkpt lat="43.0219667" lon="2.5400867"><ele>241.0</ele><time>2026-04-26T11:40:04.728Z</time></trkpt><trkpt lat="43.02186" lon="2.540195"><ele>241.0</ele><time>2026-04-26T11:40:05.73Z</time></trkpt><trkpt lat="43.021755" lon="2.5403183"><ele>241.0</ele><time>2026-04-26T11:40:06.729Z</time></trkpt><trkpt lat="43.0216583" lon="2.540465"><ele>241.0</ele><time>2026-04-26T11:40:07.729Z</time></trkpt><trkpt lat="43.0215767" lon="2.5406133"><ele>241.0</ele><time>2026-04-26T11:40:08.728Z</time></trkpt><trkpt lat="43.0215017" lon="2.5407667"><ele>243.75</ele><time>2026-04-26T11:40:09.728Z</time></trkpt><trkpt lat="43.0214417" lon="2.54094"><ele>246.5</ele><time>2026-04-26T11:40:10.73Z</time></trkpt><trkpt lat="43.0214033" lon="2.541115"><ele>249.25</ele><time>2026-04-26T11:40:11.729Z</time></trkpt><trkpt lat="43.0213767" lon="2.5412917"><ele>252.0</ele><time>2026-04-26T11:40:12.729Z</time></trkpt><trkpt lat="43.0213583" lon="2.5414683"><ele>252.0</ele><time>2026-04-26T11:40:13.728Z</time></trkpt><trkpt lat="43.0213483" lon="2.5416617"><ele>252.0</ele><time>2026-04-26T11:40:14.729Z</time></trkpt><trkpt lat="43.02133" lon="2.54186"><ele>252.0</ele><time>2026-04-26T11:40:15.731Z</time></trkpt><trkpt lat="43.0212967" lon="2.5420617"><ele>252.0</ele><time>2026-04-26T11:40:16.732Z</time></trkpt><trkpt lat="43.0212517" lon="2.54226"><ele>249.25</ele><time>2026-04-26T11:40:17.729Z</time></trkpt><trkpt lat="43.0212" lon="2.5424533"><ele>246.5</ele><time>2026-04-26T11:40:18.729Z</time></trkpt><trkpt lat="43.021135" lon="2.5426317"><ele>243.75</ele><time>2026-04-26T11:40:19.728Z</time></trkpt><trkpt lat="43.021065" lon="2.5428017"><ele>241.0</ele><time>2026-04-26T11:40:20.728Z</time></trkpt><trkpt lat="43.0209883" lon="2.5429533"><ele>239.75</ele><time>2026-04-26T11:40:21.73Z</time></trkpt><trkpt lat="43.02091" lon="2.5430983"><ele>238.5</ele><time>2026-04-26T11:40:22.728Z</time></trkpt><trkpt lat="43.02082" lon="2.5432317"><ele>237.25</ele><time>2026-04-26T11:40:23.728Z</time></trkpt><trkpt lat="43.0207367" lon="2.543355"><ele>236.0</ele><time>2026-04-26T11:40:24.728Z</time></trkpt><trkpt lat="43.0206683" lon="2.5434767"><ele>236.0</ele><time>2026-04-26T11:40:25.73Z</time></trkpt><trkpt lat="43.0206183" lon="2.543595"><ele>236.00000000000003</ele><time>2026-04-26T11:40:26.729Z</time></trkpt><trkpt lat="43.0205833" lon="2.5437083"><ele>236.00000000000003</ele><time>2026-04-26T11:40:27.73Z</time></trkpt><trkpt lat="43.0205467" lon="2.5438067"><ele>236.0</ele><time>2026-04-26T11:40:28.727Z</time></trkpt><trkpt lat="43.0205217" lon="2.5439367"><ele>236.0</ele><time>2026-04-26T11:40:30.729Z</time></trkpt><trkpt lat="43.0206" lon="2.5440317"><ele>233.60000000000002</ele><time>2026-04-26T11:40:32.732Z</time></trkpt><trkpt lat="43.0206617" lon="2.5440833"><ele>231.20000000000002</ele><time>2026-04-26T11:40:33.729Z</time></trkpt><trkpt lat="43.0207233" lon="2.5441633"><ele>228.79999999999998</ele><time>2026-04-26T11:40:34.73Z</time></trkpt><trkpt lat="43.0207683" lon="2.5442817"><ele>226.39999999999998</ele><time>2026-04-26T11:40:35.728Z</time></trkpt><trkpt lat="43.0207883" lon="2.54442"><ele>224.0</ele><time>2026-04-26T11:40:36.729Z</time></trkpt><trkpt lat="43.0207817" lon="2.5445717"><ele>223.39999999999998</ele><time>2026-04-26T11:40:37.728Z</time></trkpt><trkpt lat="43.0207433" lon="2.5447083"><ele>222.79999999999998</ele><time>2026-04-26T11:40:38.729Z</time></trkpt><trkpt lat="43.0206683" lon="2.544815"><ele>222.20000000000002</ele><time>2026-04-26T11:40:39.729Z</time></trkpt><trkpt lat="43.0205683" lon="2.5448833"><ele>221.60000000000002</ele><time>2026-04-26T11:40:40.733Z</time></trkpt><trkpt lat="43.0204567" lon="2.5449233"><ele>221.0</ele><time>2026-04-26T11:40:41.728Z</time></trkpt><trkpt lat="43.020335" lon="2.5449583"><ele>221.0</ele><time>2026-04-26T11:40:42.727Z</time></trkpt><trkpt lat="43.0202067" lon="2.54499"><ele>221.0</ele><time>2026-04-26T11:40:43.728Z</time></trkpt><trkpt lat="43.0200783" lon="2.5450167"><ele>221.0</ele><time>2026-04-26T11:40:44.729Z</time></trkpt><trkpt lat="43.0199517" lon="2.545055"><ele>221.0</ele><time>2026-04-26T11:40:45.728Z</time></trkpt><trkpt lat="43.0198417" lon="2.5451367"><ele>219.75</ele><time>2026-04-26T11:40:46.729Z</time></trkpt><trkpt lat="43.01975" lon="2.5452567"><ele>218.5</ele><time>2026-04-26T11:40:47.729Z</time></trkpt><trkpt lat="43.019695" lon="2.545405"><ele>217.25</ele><time>2026-04-26T11:40:48.736Z</time></trkpt><trkpt lat="43.0196867" lon="2.54557"><ele>216.0</ele><time>2026-04-26T11:40:49.729Z</time></trkpt><trkpt lat="43.0196933" lon="2.545745"><ele>215.75</ele><time>2026-04-26T11:40:50.729Z</time></trkpt><trkpt lat="43.019705" lon="2.545925"><ele>215.5</ele><time>2026-04-26T11:40:51.728Z</time></trkpt><trkpt lat="43.0197167" lon="2.5461117"><ele>215.25</ele><time>2026-04-26T11:40:52.728Z</time></trkpt><trkpt lat="43.01972" lon="2.5463"><ele>215.0</ele><time>2026-04-26T11:40:53.729Z</time></trkpt><trkpt lat="43.0197067" lon="2.5464867"><ele>215.0</ele><time>2026-04-26T11:40:54.731Z</time></trkpt><trkpt lat="43.0196667" lon="2.5466683"><ele>215.0</ele><time>2026-04-26T11:40:55.73Z</time></trkpt><trkpt lat="43.0196017" lon="2.54684"><ele>215.0</ele><time>2026-04-26T11:40:56.73Z</time></trkpt><trkpt lat="43.0195217" lon="2.5470067"><ele>215.0</ele><time>2026-04-26T11:40:57.728Z</time></trkpt><trkpt lat="43.0194417" lon="2.5471733"><ele>215.0</ele><time>2026-04-26T11:40:58.734Z</time></trkpt><trkpt lat="43.01936" lon="2.547335"><ele>215.0</ele><time>2026-04-26T11:40:59.729Z</time></trkpt><trkpt lat="43.01928" lon="2.547495"><ele>215.0</ele><time>2026-04-26T11:41:00.73Z</time></trkpt><trkpt lat="43.0192033" lon="2.547655"><ele>215.0</ele><time>2026-04-26T11:41:01.729Z</time></trkpt><trkpt lat="43.01914" lon="2.5477917"><ele>215.75</ele><time>2026-04-26T11:41:02.728Z</time></trkpt><trkpt lat="43.0190917" lon="2.54793"><ele>216.5</ele><time>2026-04-26T11:41:03.728Z</time></trkpt><trkpt lat="43.0190717" lon="2.5480717"><ele>217.25</ele><time>2026-04-26T11:41:04.728Z</time></trkpt><trkpt lat="43.019085" lon="2.5482267"><ele>218.0</ele><time>2026-04-26T11:41:05.728Z</time></trkpt><trkpt lat="43.019125" lon="2.548385"><ele>217.5</ele><time>2026-04-26T11:41:06.729Z</time></trkpt><trkpt lat="43.0191733" lon="2.548555"><ele>217.0</ele><time>2026-04-26T11:41:07.728Z</time></trkpt><trkpt lat="43.0192283" lon="2.54873"><ele>216.5</ele><time>2026-04-26T11:41:08.729Z</time></trkpt><trkpt lat="43.01928" lon="2.5489033"><ele>216.0</ele><time>2026-04-26T11:41:09.73Z</time></trkpt><trkpt lat="43.019335" lon="2.54907"><ele>216.0</ele><time>2026-04-26T11:41:10.736Z</time></trkpt><trkpt lat="43.0194033" lon="2.5492167"><ele>216.0</ele><time>2026-04-26T11:41:11.729Z</time></trkpt><trkpt lat="43.0194967" lon="2.5493283"><ele>216.0</ele><time>2026-04-26T11:41:12.729Z</time></trkpt><trkpt lat="43.0196167" lon="2.549395"><ele>216.0</ele><time>2026-04-26T11:41:13.728Z</time></trkpt><trkpt lat="43.0197417" lon="2.549405"><ele>216.0</ele><time>2026-04-26T11:41:14.729Z</time></trkpt><trkpt lat="43.0198617" lon="2.5493617"><ele>216.0</ele><time>2026-04-26T11:41:15.728Z</time></trkpt><trkpt lat="43.0199767" lon="2.5492683"><ele>216.0</ele><time>2026-04-26T11:41:16.733Z</time></trkpt><trkpt lat="43.0200917" lon="2.5491667"><ele>216.0</ele><time>2026-04-26T11:41:17.728Z</time></trkpt><trkpt lat="43.0202133" lon="2.5490767"><ele>217.75</ele><time>2026-04-26T11:41:18.73Z</time></trkpt><trkpt lat="43.0203367" lon="2.5489883"><ele>219.5</ele><time>2026-04-26T11:41:19.729Z</time></trkpt><trkpt lat="43.0204517" lon="2.5488967"><ele>221.25</ele><time>2026-04-26T11:41:20.73Z</time></trkpt><trkpt lat="43.0205583" lon="2.5487967"><ele>223.0</ele><time>2026-04-26T11:41:21.729Z</time></trkpt><trkpt lat="43.020665" lon="2.5487233"><ele>220.0</ele><time>2026-04-26T11:41:22.728Z</time></trkpt><trkpt lat="43.0207817" lon="2.5487033"><ele>217.0</ele><time>2026-04-26T11:41:23.731Z</time></trkpt><trkpt lat="43.0209" lon="2.5487267"><ele>214.0</ele><time>2026-04-26T11:41:24.729Z</time></trkpt><trkpt lat="43.0210233" lon="2.548765"><ele>211.0</ele><time>2026-04-26T11:41:25.728Z</time></trkpt><trkpt lat="43.0211517" lon="2.548795"><ele>211.0</ele><time>2026-04-26T11:41:26.729Z</time></trkpt><trkpt lat="43.0212917" lon="2.5487917"><ele>211.0</ele><time>2026-04-26T11:41:27.727Z</time></trkpt><trkpt lat="43.0214383" lon="2.548765"><ele>211.0</ele><time>2026-04-26T11:41:28.729Z</time></trkpt><trkpt lat="43.021595" lon="2.548735"><ele>211.0</ele><time>2026-04-26T11:41:29.728Z</time></trkpt><trkpt lat="43.0217633" lon="2.548705"><ele>217.66666666666666</ele><time>2026-04-26T11:41:30.728Z</time></trkpt><trkpt lat="43.0219317" lon="2.5486833"><ele>224.33333333333331</ele><time>2026-04-26T11:41:31.729Z</time></trkpt><trkpt lat="43.0221017" lon="2.54868"><ele>231.0</ele><time>2026-04-26T11:41:32.733Z</time></trkpt><trkpt lat="43.0222767" lon="2.5486883"><ele>231.0</ele><time>2026-04-26T11:41:33.729Z</time></trkpt><trkpt lat="43.0224483" lon="2.54869"><ele>231.0</ele><time>2026-04-26T11:41:34.728Z</time></trkpt><trkpt lat="43.022595" lon="2.548675"><ele>231.0</ele><time>2026-04-26T11:41:35.73Z</time></trkpt><trkpt lat="43.0227233" lon="2.5486283"><ele>228.25</ele><time>2026-04-26T11:41:36.728Z</time></trkpt><trkpt lat="43.0228533" lon="2.5485517"><ele>225.5</ele><time>2026-04-26T11:41:37.73Z</time></trkpt><trkpt lat="43.0229667" lon="2.5484167"><ele>222.75</ele><time>2026-04-26T11:41:38.729Z</time></trkpt><trkpt lat="43.0230467" lon="2.5482533"><ele>220.0</ele><time>2026-04-26T11:41:39.727Z</time></trkpt><trkpt lat="43.0230933" lon="2.5480717"><ele>220.0</ele><time>2026-04-26T11:41:40.729Z</time></trkpt><trkpt lat="43.0231283" lon="2.5478983"><ele>220.0</ele><time>2026-04-26T11:41:41.729Z</time></trkpt><trkpt lat="43.02318" lon="2.54772"><ele>220.0</ele><time>2026-04-26T11:41:42.733Z</time></trkpt><trkpt lat="43.023245" lon="2.5475533"><ele>220.0</ele><time>2026-04-26T11:41:43.731Z</time></trkpt><trkpt lat="43.02331" lon="2.5473917"><ele>218.75</ele><time>2026-04-26T11:41:44.733Z</time></trkpt><trkpt lat="43.02339" lon="2.5472417"><ele>217.5</ele><time>2026-04-26T11:41:45.728Z</time></trkpt><trkpt lat="43.0234933" lon="2.547125"><ele>216.25</ele><time>2026-04-26T11:41:46.727Z</time></trkpt><trkpt lat="43.0236017" lon="2.54702"><ele>215.0</ele><time>2026-04-26T11:41:47.729Z</time></trkpt><trkpt lat="43.02369" lon="2.5469"><ele>219.25</ele><time>2026-04-26T11:41:48.73Z</time></trkpt><trkpt lat="43.0237733" lon="2.54677"><ele>223.5</ele><time>2026-04-26T11:41:49.731Z</time></trkpt><trkpt lat="43.02386" lon="2.5466567"><ele>227.75</ele><time>2026-04-26T11:41:50.73Z</time></trkpt><trkpt lat="43.0239667" lon="2.5465783"><ele>232.0</ele><time>2026-04-26T11:41:51.731Z</time></trkpt><trkpt lat="43.0240883" lon="2.5465183"><ele>226.0</ele><time>2026-04-26T11:41:52.732Z</time></trkpt><trkpt lat="43.0242133" lon="2.5464583"><ele>220.0</ele><time>2026-04-26T11:41:53.73Z</time></trkpt><trkpt lat="43.0243483" lon="2.5464017"><ele>214.0</ele><time>2026-04-26T11:41:54.729Z</time></trkpt><trkpt lat="43.02449" lon="2.5463567"><ele>208.0</ele><time>2026-04-26T11:41:55.731Z</time></trkpt><trkpt lat="43.0246367" lon="2.5463067"><ele>208.0</ele><time>2026-04-26T11:41:56.729Z</time></trkpt><trkpt lat="43.024785" lon="2.5462467"><ele>208.0</ele><time>2026-04-26T11:41:57.727Z</time></trkpt><trkpt lat="43.02494" lon="2.5462083"><ele>208.0</ele><time>2026-04-26T11:41:58.729Z</time></trkpt><trkpt lat="43.0251033" lon="2.5461917"><ele>210.66666666666666</ele><time>2026-04-26T11:41:59.727Z</time></trkpt><trkpt lat="43.02527" lon="2.5461683"><ele>213.33333333333331</ele><time>2026-04-26T11:42:00.727Z</time></trkpt><trkpt lat="43.02544" lon="2.5461333"><ele>216.0</ele><time>2026-04-26T11:42:01.728Z</time></trkpt><trkpt lat="43.02561" lon="2.546095"><ele>216.0</ele><time>2026-04-26T11:42:02.729Z</time></trkpt><trkpt lat="43.0257733" lon="2.546055"><ele>216.0</ele><time>2026-04-26T11:42:03.73Z</time></trkpt><trkpt lat="43.025925" lon="2.5460133"><ele>216.0</ele><time>2026-04-26T11:42:04.727Z</time></trkpt><trkpt lat="43.0260717" lon="2.545975"><ele>215.0</ele><time>2026-04-26T11:42:05.729Z</time></trkpt><trkpt lat="43.0262067" lon="2.5459367"><ele>214.0</ele><time>2026-04-26T11:42:06.731Z</time></trkpt><trkpt lat="43.02634" lon="2.5459017"><ele>213.0</ele><time>2026-04-26T11:42:07.731Z</time></trkpt><trkpt lat="43.02647" lon="2.5458667"><ele>212.0</ele><time>2026-04-26T11:42:08.731Z</time></trkpt><trkpt lat="43.02658" lon="2.5458683"><ele>210.6</ele><time>2026-04-26T11:42:09.728Z</time></trkpt><trkpt lat="43.0266683" lon="2.5459183"><ele>209.2</ele><time>2026-04-26T11:42:10.729Z</time></trkpt><trkpt lat="43.02674" lon="2.5460267"><ele>207.8</ele><time>2026-04-26T11:42:11.731Z</time></trkpt><trkpt lat="43.0267733" lon="2.5461467"><ele>206.4</ele><time>2026-04-26T11:42:12.729Z</time></trkpt><trkpt lat="43.0267917" lon="2.5462683"><ele>205.0</ele><time>2026-04-26T11:42:13.729Z</time></trkpt><trkpt lat="43.0268167" lon="2.54638"><ele>204.6</ele><time>2026-04-26T11:42:14.733Z</time></trkpt><trkpt lat="43.02684" lon="2.5464767"><ele>204.2</ele><time>2026-04-26T11:42:15.73Z</time></trkpt><trkpt lat="43.0268783" lon="2.5466183"><ele>203.8</ele><time>2026-04-26T11:42:17.729Z</time></trkpt><trkpt lat="43.0268083" lon="2.5466917"><ele>203.4</ele><time>2026-04-26T11:42:20.732Z</time></trkpt><trkpt lat="43.0266983" lon="2.5466533"><ele>203.0</ele><time>2026-04-26T11:42:22.728Z</time></trkpt><trkpt lat="43.026655" lon="2.5467233"><ele>203.00000000000003</ele><time>2026-04-26T11:42:25.729Z</time></trkpt><trkpt lat="43.02675" lon="2.5467967"><ele>203.0</ele><time>2026-04-26T11:42:27.728Z</time></trkpt><trkpt lat="43.02681" lon="2.5468333"><ele>203.0</ele><time>2026-04-26T11:42:28.729Z</time></trkpt><trkpt lat="43.0268833" lon="2.5468683"><ele>203.0</ele><time>2026-04-26T11:42:29.729Z</time></trkpt><trkpt lat="43.0269567" lon="2.5469067"><ele>203.00000000000003</ele><time>2026-04-26T11:42:30.728Z</time></trkpt><trkpt lat="43.027025" lon="2.5469467"><ele>203.0</ele><time>2026-04-26T11:42:31.732Z</time></trkpt><trkpt lat="43.0270917" lon="2.546985"><ele>203.0</ele><time>2026-04-26T11:42:32.729Z</time></trkpt><trkpt lat="43.0271617" lon="2.5469833"><ele>203.0</ele><time>2026-04-26T11:42:33.729Z</time></trkpt><trkpt lat="43.027265" lon="2.5470317"><ele>203.0</ele><time>2026-04-26T11:42:35.729Z</time></trkpt><trkpt lat="43.02739" lon="2.5470733"><ele>203.0</ele><time>2026-04-26T11:42:37.729Z</time></trkpt><trkpt lat="43.0274567" lon="2.5471233"><ele>203.0</ele><time>2026-04-26T11:42:38.729Z</time></trkpt><trkpt lat="43.0275233" lon="2.5471717"><ele>205.71428571428572</ele><time>2026-04-26T11:42:39.73Z</time></trkpt><trkpt lat="43.0275917" lon="2.54722"><ele>208.42857142857144</ele><time>2026-04-26T11:42:40.729Z</time></trkpt><trkpt lat="43.02766" lon="2.5472567"><ele>211.14285714285714</ele><time>2026-04-26T11:42:41.731Z</time></trkpt><trkpt lat="43.0277267" lon="2.5472833"><ele>213.85714285714286</ele><time>2026-04-26T11:42:42.728Z</time></trkpt><trkpt lat="43.0278117" lon="2.5473467"><ele>216.57142857142858</ele><time>2026-04-26T11:42:44.731Z</time></trkpt><trkpt lat="43.0278483" lon="2.5474183"><ele>219.28571428571428</ele><time>2026-04-26T11:42:47.728Z</time></trkpt><trkpt lat="43.027785" lon="2.5474517"><ele>222.0</ele><time>2026-04-26T11:42:50.735Z</time></trkpt><trkpt lat="43.0277133" lon="2.547425"><ele>222.0</ele><time>2026-04-26T11:42:52.73Z</time></trkpt><trkpt lat="43.02765" lon="2.5474083"><ele>222.0</ele><time>2026-04-26T11:42:54.728Z</time></trkpt><trkpt lat="43.02757" lon="2.547355"><ele>222.0</ele><time>2026-04-26T11:43:03.729Z</time></trkpt><trkpt lat="43.0274983" lon="2.5473267"><ele>222.0</ele><time>2026-04-26T11:43:04.73Z</time></trkpt><trkpt lat="43.0274" lon="2.5472983"><ele>222.0</ele><time>2026-04-26T11:43:05.732Z</time></trkpt><trkpt lat="43.027265" lon="2.54729"><ele>223.25</ele><time>2026-04-26T11:43:06.73Z</time></trkpt><trkpt lat="43.0271433" lon="2.5472717"><ele>224.5</ele><time>2026-04-26T11:43:07.73Z</time></trkpt><trkpt lat="43.02702" lon="2.5472583"><ele>225.75</ele><time>2026-04-26T11:43:08.73Z</time></trkpt><trkpt lat="43.026905" lon="2.5472383"><ele>227.0</ele><time>2026-04-26T11:43:09.73Z</time></trkpt><trkpt lat="43.0267933" lon="2.547225"><ele>227.0</ele><time>2026-04-26T11:43:10.733Z</time></trkpt><trkpt lat="43.0266817" lon="2.5472117"><ele>227.0</ele><time>2026-04-26T11:43:11.73Z</time></trkpt><trkpt lat="43.0265783" lon="2.5472117"><ele>227.0</ele><time>2026-04-26T11:43:12.73Z</time></trkpt><trkpt lat="43.026485" lon="2.547225"><ele>227.0</ele><time>2026-04-26T11:43:13.731Z</time></trkpt><trkpt lat="43.0263933" lon="2.5472567"><ele>227.0</ele><time>2026-04-26T11:43:14.734Z</time></trkpt><trkpt lat="43.0263033" lon="2.54731"><ele>225.39999999999998</ele><time>2026-04-26T11:43:15.732Z</time></trkpt><trkpt lat="43.0262183" lon="2.5473967"><ele>223.79999999999998</ele><time>2026-04-26T11:43:16.732Z</time></trkpt><trkpt lat="43.0261367" lon="2.5475"><ele>222.2</ele><time>2026-04-26T11:43:17.732Z</time></trkpt><trkpt lat="43.02605" lon="2.547605"><ele>220.6</ele><time>2026-04-26T11:43:18.731Z</time></trkpt><trkpt lat="43.025965" lon="2.5477017"><ele>219.0</ele><time>2026-04-26T11:43:19.73Z</time></trkpt><trkpt lat="43.0258817" lon="2.547805"><ele>220.25</ele><time>2026-04-26T11:43:20.731Z</time></trkpt><trkpt lat="43.0257983" lon="2.5479217"><ele>221.5</ele><time>2026-04-26T11:43:21.731Z</time></trkpt><trkpt lat="43.0257217" lon="2.54805"><ele>222.75</ele><time>2026-04-26T11:43:22.728Z</time></trkpt><trkpt lat="43.025645" lon="2.54819"><ele>224.0</ele><time>2026-04-26T11:43:23.728Z</time></trkpt><trkpt lat="43.0255617" lon="2.5483333"><ele>224.0</ele><time>2026-04-26T11:43:24.731Z</time></trkpt><trkpt lat="43.0254783" lon="2.5484783"><ele>224.0</ele><time>2026-04-26T11:43:25.726Z</time></trkpt><trkpt lat="43.0253867" lon="2.5486167"><ele>224.0</ele><time>2026-04-26T11:43:26.737Z</time></trkpt><trkpt lat="43.0252917" lon="2.548755"><ele>224.0</ele><time>2026-04-26T11:43:27.728Z</time></trkpt><trkpt lat="43.025195" lon="2.548905"><ele>221.5</ele><time>2026-04-26T11:43:28.729Z</time></trkpt><trkpt lat="43.02511" lon="2.5490583"><ele>219.0</ele><time>2026-04-26T11:43:29.728Z</time></trkpt><trkpt lat="43.0250367" lon="2.5492067"><ele>216.5</ele><time>2026-04-26T11:43:30.73Z</time></trkpt><trkpt lat="43.02497" lon="2.5493433"><ele>214.0</ele><time>2026-04-26T11:43:31.728Z</time></trkpt><trkpt lat="43.0249267" lon="2.5494733"><ele>213.83333333333331</ele><time>2026-04-26T11:43:32.729Z</time></trkpt><trkpt lat="43.0249033" lon="2.5495917"><ele>213.66666666666666</ele><time>2026-04-26T11:43:33.729Z</time></trkpt><trkpt lat="43.024885" lon="2.5497033"><ele>213.5</ele><time>2026-04-26T11:43:34.729Z</time></trkpt><trkpt lat="43.0248767" lon="2.5498167"><ele>213.33333333333331</ele><time>2026-04-26T11:43:35.729Z</time></trkpt><trkpt lat="43.0248867" lon="2.5499433"><ele>213.16666666666666</ele><time>2026-04-26T11:43:36.728Z</time></trkpt><trkpt lat="43.02491" lon="2.5500617"><ele>213.0</ele><time>2026-04-26T11:43:37.728Z</time></trkpt><trkpt lat="43.02495" lon="2.55017"><ele>218.0</ele><time>2026-04-26T11:43:38.729Z</time></trkpt><trkpt lat="43.0249883" lon="2.5502583"><ele>223.0</ele><time>2026-04-26T11:43:39.728Z</time></trkpt><trkpt lat="43.0250367" lon="2.5503367"><ele>228.0</ele><time>2026-04-26T11:43:40.73Z</time></trkpt><trkpt lat="43.0251233" lon="2.5504033"><ele>233.0</ele><time>2026-04-26T11:43:41.731Z</time></trkpt><trkpt lat="43.025195" lon="2.5504917"><ele>238.0</ele><time>2026-04-26T11:43:42.73Z</time></trkpt><trkpt lat="43.0252533" lon="2.5506033"><ele>243.0</ele><time>2026-04-26T11:43:43.73Z</time></trkpt><trkpt lat="43.025305" lon="2.55073"><ele>243.5</ele><time>2026-04-26T11:43:44.729Z</time></trkpt><trkpt lat="43.025345" lon="2.5508667"><ele>244.0</ele><time>2026-04-26T11:43:45.729Z</time></trkpt><trkpt lat="43.0253833" lon="2.55098"><ele>244.5</ele><time>2026-04-26T11:43:46.728Z</time></trkpt><trkpt lat="43.0254167" lon="2.5510717"><ele>245.0</ele><time>2026-04-26T11:43:47.728Z</time></trkpt><trkpt lat="43.02544" lon="2.5511517"><ele>245.5</ele><time>2026-04-26T11:43:48.731Z</time></trkpt><trkpt lat="43.0254233" lon="2.5512917"><ele>246.0</ele><time>2026-04-26T11:43:50.729Z</time></trkpt><trkpt lat="43.0253633" lon="2.551325"><ele>248.5</ele><time>2026-04-26T11:43:51.73Z</time></trkpt><trkpt lat="43.0252817" lon="2.5513233"><ele>251.0</ele><time>2026-04-26T11:43:52.729Z</time></trkpt><trkpt lat="43.0251933" lon="2.5512967"><ele>253.5</ele><time>2026-04-26T11:43:53.728Z</time></trkpt><trkpt lat="43.0251033" lon="2.55125"><ele>256.0</ele><time>2026-04-26T11:43:54.736Z</time></trkpt><trkpt lat="43.025015" lon="2.5512183"><ele>258.5</ele><time>2026-04-26T11:43:55.728Z</time></trkpt><trkpt lat="43.0249417" lon="2.55122"><ele>261.0</ele><time>2026-04-26T11:43:56.729Z</time></trkpt><trkpt lat="43.0248767" lon="2.5512767"><ele>253.25</ele><time>2026-04-26T11:43:57.729Z</time></trkpt><trkpt lat="43.0248067" lon="2.551365"><ele>245.5</ele><time>2026-04-26T11:43:58.729Z</time></trkpt><trkpt lat="43.0247433" lon="2.5515083"><ele>237.75</ele><time>2026-04-26T11:43:59.73Z</time></trkpt><trkpt lat="43.02468" lon="2.5516633"><ele>230.0</ele><time>2026-04-26T11:44:00.728Z</time></trkpt><trkpt lat="43.02462" lon="2.55183"><ele>230.0</ele><time>2026-04-26T11:44:01.728Z</time></trkpt><trkpt lat="43.024555" lon="2.552"><ele>230.0</ele><time>2026-04-26T11:44:02.73Z</time></trkpt><trkpt lat="43.0244833" lon="2.5521617"><ele>230.0</ele><time>2026-04-26T11:44:03.728Z</time></trkpt><trkpt lat="43.0244067" lon="2.552325"><ele>230.0</ele><time>2026-04-26T11:44:04.729Z</time></trkpt><trkpt lat="43.0243267" lon="2.55249"><ele>234.75</ele><time>2026-04-26T11:44:05.729Z</time></trkpt><trkpt lat="43.024245" lon="2.5526567"><ele>239.5</ele><time>2026-04-26T11:44:06.729Z</time></trkpt><trkpt lat="43.0241717" lon="2.5528167"><ele>244.25</ele><time>2026-04-26T11:44:07.728Z</time></trkpt><trkpt lat="43.02411" lon="2.5529617"><ele>249.0</ele><time>2026-04-26T11:44:08.728Z</time></trkpt><trkpt lat="43.0240583" lon="2.553095"><ele>249.0</ele><time>2026-04-26T11:44:09.73Z</time></trkpt><trkpt lat="43.024" lon="2.5532167"><ele>248.99999999999997</ele><time>2026-04-26T11:44:10.729Z</time></trkpt><trkpt lat="43.023925" lon="2.5533117"><ele>248.99999999999997</ele><time>2026-04-26T11:44:11.728Z</time></trkpt><trkpt lat="43.0238333" lon="2.553385"><ele>249.0</ele><time>2026-04-26T11:44:12.729Z</time></trkpt><trkpt lat="43.02373" lon="2.5534433"><ele>249.0</ele><time>2026-04-26T11:44:13.73Z</time></trkpt><trkpt lat="43.0236117" lon="2.5535"><ele>249.0</ele><time>2026-04-26T11:44:14.731Z</time></trkpt><trkpt lat="43.0234833" lon="2.553545"><ele>248.99999999999997</ele><time>2026-04-26T11:44:15.728Z</time></trkpt><trkpt lat="43.02339" lon="2.55358"><ele>248.99999999999997</ele><time>2026-04-26T11:44:16.736Z</time></trkpt><trkpt lat="43.023315" lon="2.553635"><ele>249.0</ele><time>2026-04-26T11:44:17.729Z</time></trkpt><trkpt lat="43.0232567" lon="2.5537333"><ele>249.0</ele><time>2026-04-26T11:44:18.73Z</time></trkpt><trkpt lat="43.0232133" lon="2.5538683"><ele>250.2</ele><time>2026-04-26T11:44:19.73Z</time></trkpt><trkpt lat="43.0231783" lon="2.5540133"><ele>251.39999999999998</ele><time>2026-04-26T11:44:20.729Z</time></trkpt><trkpt lat="43.023165" lon="2.5541583"><ele>252.6</ele><time>2026-04-26T11:44:21.728Z</time></trkpt><trkpt lat="43.02315" lon="2.5542967"><ele>253.8</ele><time>2026-04-26T11:44:22.731Z</time></trkpt><trkpt lat="43.0231233" lon="2.5544367"><ele>255.0</ele><time>2026-04-26T11:44:23.728Z</time></trkpt><trkpt lat="43.0230733" lon="2.5545683"><ele>255.0</ele><time>2026-04-26T11:44:24.729Z</time></trkpt><trkpt lat="43.0230267" lon="2.5547133"><ele>255.0</ele><time>2026-04-26T11:44:25.728Z</time></trkpt><trkpt lat="43.022995" lon="2.55486"><ele>255.0</ele><time>2026-04-26T11:44:26.73Z</time></trkpt><trkpt lat="43.0229733" lon="2.554995"><ele>255.0</ele><time>2026-04-26T11:44:27.729Z</time></trkpt><trkpt lat="43.0229417" lon="2.55512"><ele>255.0</ele><time>2026-04-26T11:44:28.728Z</time></trkpt><trkpt lat="43.0229017" lon="2.5552367"><ele>255.0</ele><time>2026-04-26T11:44:29.731Z</time></trkpt><trkpt lat="43.022835" lon="2.55533"><ele>255.0</ele><time>2026-04-26T11:44:30.728Z</time></trkpt><trkpt lat="43.0227383" lon="2.5554067"><ele>255.0</ele><time>2026-04-26T11:44:31.729Z</time></trkpt><trkpt lat="43.022655" lon="2.5555133"><ele>255.0</ele><time>2026-04-26T11:44:32.732Z</time></trkpt><trkpt lat="43.0225733" lon="2.5556317"><ele>255.0</ele><time>2026-04-26T11:44:33.729Z</time></trkpt><trkpt lat="43.0224933" lon="2.55576"><ele>256.0</ele><time>2026-04-26T11:44:34.734Z</time></trkpt><trkpt lat="43.0224183" lon="2.555905"><ele>257.0</ele><time>2026-04-26T11:44:35.728Z</time></trkpt><trkpt lat="43.022345" lon="2.5560567"><ele>258.0</ele><time>2026-04-26T11:44:36.728Z</time></trkpt><trkpt lat="43.0222667" lon="2.5561967"><ele>259.0</ele><time>2026-04-26T11:44:37.73Z</time></trkpt><trkpt lat="43.0221867" lon="2.556325"><ele>261.25</ele><time>2026-04-26T11:44:38.73Z</time></trkpt><trkpt lat="43.022105" lon="2.556435"><ele>263.5</ele><time>2026-04-26T11:44:39.728Z</time></trkpt><trkpt lat="43.02202" lon="2.5565383"><ele>265.75</ele><time>2026-04-26T11:44:40.736Z</time></trkpt><trkpt lat="43.0219433" lon="2.5566483"><ele>268.0</ele><time>2026-04-26T11:44:41.73Z</time></trkpt><trkpt lat="43.02188" lon="2.5567733"><ele>268.0</ele><time>2026-04-26T11:44:42.73Z</time></trkpt><trkpt lat="43.0218433" lon="2.5569083"><ele>268.0</ele><time>2026-04-26T11:44:43.732Z</time></trkpt><trkpt lat="43.0218283" lon="2.55705"><ele>268.0</ele><time>2026-04-26T11:44:44.729Z</time></trkpt><trkpt lat="43.0218267" lon="2.5571933"><ele>268.0</ele><time>2026-04-26T11:44:45.729Z</time></trkpt><trkpt lat="43.0218283" lon="2.5573317"><ele>268.0</ele><time>2026-04-26T11:44:46.73Z</time></trkpt><trkpt lat="43.02183" lon="2.5574733"><ele>268.5</ele><time>2026-04-26T11:44:47.729Z</time></trkpt><trkpt lat="43.0218217" lon="2.557625"><ele>269.0</ele><time>2026-04-26T11:44:48.73Z</time></trkpt><trkpt lat="43.0218017" lon="2.5577833"><ele>269.5</ele><time>2026-04-26T11:44:49.732Z</time></trkpt><trkpt lat="43.0217817" lon="2.557945"><ele>270.0</ele><time>2026-04-26T11:44:50.733Z</time></trkpt><trkpt lat="43.021765" lon="2.5580933"><ele>270.4</ele><time>2026-04-26T11:44:51.731Z</time></trkpt><trkpt lat="43.0217517" lon="2.5582217"><ele>270.8</ele><time>2026-04-26T11:44:52.731Z</time></trkpt><trkpt lat="43.0217517" lon="2.55834"><ele>271.2</ele><time>2026-04-26T11:44:53.728Z</time></trkpt><trkpt lat="43.021765" lon="2.5584533"><ele>271.6</ele><time>2026-04-26T11:44:54.729Z</time></trkpt><trkpt lat="43.0218117" lon="2.5585683"><ele>272.0</ele><time>2026-04-26T11:44:55.732Z</time></trkpt><trkpt lat="43.021875" lon="2.5586683"><ele>272.0</ele><time>2026-04-26T11:44:56.729Z</time></trkpt><trkpt lat="43.021935" lon="2.5587717"><ele>272.0</ele><time>2026-04-26T11:44:57.731Z</time></trkpt><trkpt lat="43.0219783" lon="2.5588933"><ele>272.0</ele><time>2026-04-26T11:44:58.729Z</time></trkpt><trkpt lat="43.0220067" lon="2.55903"><ele>272.0</ele><time>2026-04-26T11:44:59.73Z</time></trkpt><trkpt lat="43.022005" lon="2.5591717"><ele>272.0</ele><time>2026-04-26T11:45:00.728Z</time></trkpt><trkpt lat="43.0219867" lon="2.55932"><ele>272.0</ele><time>2026-04-26T11:45:01.73Z</time></trkpt><trkpt lat="43.0219533" lon="2.5594783"><ele>272.0</ele><time>2026-04-26T11:45:02.731Z</time></trkpt><trkpt lat="43.0219183" lon="2.5596333"><ele>272.0</ele><time>2026-04-26T11:45:03.729Z</time></trkpt><trkpt lat="43.0218733" lon="2.5597783"><ele>272.0</ele><time>2026-04-26T11:45:04.728Z</time></trkpt><trkpt lat="43.0218267" lon="2.55991"><ele>273.33333333333337</ele><time>2026-04-26T11:45:05.728Z</time></trkpt><trkpt lat="43.0217967" lon="2.5600467"><ele>274.6666666666667</ele><time>2026-04-26T11:45:06.73Z</time></trkpt><trkpt lat="43.02178" lon="2.5601717"><ele>276.0</ele><time>2026-04-26T11:45:07.73Z</time></trkpt><trkpt lat="43.0217633" lon="2.5602767"><ele>277.3333333333333</ele><time>2026-04-26T11:45:08.73Z</time></trkpt><trkpt lat="43.0217333" lon="2.5603633"><ele>278.66666666666663</ele><time>2026-04-26T11:45:09.73Z</time></trkpt><trkpt lat="43.021665" lon="2.5604217"><ele>280.0</ele><time>2026-04-26T11:45:10.728Z</time></trkpt><trkpt lat="43.0215817" lon="2.5604583"><ele>280.16666666666663</ele><time>2026-04-26T11:45:11.728Z</time></trkpt><trkpt lat="43.0215033" lon="2.560455"><ele>280.3333333333333</ele><time>2026-04-26T11:45:12.729Z</time></trkpt><trkpt lat="43.021435" lon="2.5603883"><ele>280.5</ele><time>2026-04-26T11:45:13.73Z</time></trkpt><trkpt lat="43.02137" lon="2.5603033"><ele>280.6666666666667</ele><time>2026-04-26T11:45:14.73Z</time></trkpt><trkpt lat="43.0213117" lon="2.560235"><ele>280.83333333333337</ele><time>2026-04-26T11:45:15.728Z</time></trkpt><trkpt lat="43.0212467" lon="2.5602133"><ele>281.0</ele><time>2026-04-26T11:45:16.729Z</time></trkpt><trkpt lat="43.0211833" lon="2.5602433"><ele>281.0</ele><time>2026-04-26T11:45:17.729Z</time></trkpt><trkpt lat="43.0211267" lon="2.5603017"><ele>281.0</ele><time>2026-04-26T11:45:18.731Z</time></trkpt><trkpt lat="43.0210883" lon="2.560405"><ele>281.0</ele><time>2026-04-26T11:45:19.728Z</time></trkpt><trkpt lat="43.0210617" lon="2.5605333"><ele>281.0</ele><time>2026-04-26T11:45:20.737Z</time></trkpt><trkpt lat="43.0210433" lon="2.560675"><ele>281.0</ele><time>2026-04-26T11:45:21.728Z</time></trkpt><trkpt lat="43.02103" lon="2.56082"><ele>281.0</ele><time>2026-04-26T11:45:22.728Z</time></trkpt><trkpt lat="43.0209983" lon="2.560955"><ele>281.0</ele><time>2026-04-26T11:45:23.729Z</time></trkpt><trkpt lat="43.0209517" lon="2.5610883"><ele>281.0</ele><time>2026-04-26T11:45:24.727Z</time></trkpt><trkpt lat="43.0209" lon="2.5612283"><ele>281.0</ele><time>2026-04-26T11:45:25.728Z</time></trkpt><trkpt lat="43.0208483" lon="2.561375"><ele>281.0</ele><time>2026-04-26T11:45:26.73Z</time></trkpt><trkpt lat="43.0207967" lon="2.5615217"><ele>280.25</ele><time>2026-04-26T11:45:27.728Z</time></trkpt><trkpt lat="43.020745" lon="2.5616733"><ele>279.5</ele><time>2026-04-26T11:45:28.728Z</time></trkpt><trkpt lat="43.0206933" lon="2.5618333"><ele>278.75</ele><time>2026-04-26T11:45:29.729Z</time></trkpt><trkpt lat="43.0206417" lon="2.5619833"><ele>278.0</ele><time>2026-04-26T11:45:30.728Z</time></trkpt><trkpt lat="43.0205967" lon="2.5621117"><ele>278.0</ele><time>2026-04-26T11:45:31.727Z</time></trkpt><trkpt lat="43.020565" lon="2.5622267"><ele>278.0</ele><time>2026-04-26T11:45:32.729Z</time></trkpt><trkpt lat="43.0205517" lon="2.56234"><ele>278.0</ele><time>2026-04-26T11:45:33.728Z</time></trkpt><trkpt lat="43.0205583" lon="2.56246"><ele>278.0</ele><time>2026-04-26T11:45:34.728Z</time></trkpt><trkpt lat="43.0205833" lon="2.56258"><ele>278.0</ele><time>2026-04-26T11:45:35.73Z</time></trkpt><trkpt lat="43.020635" lon="2.5627033"><ele>278.0</ele><time>2026-04-26T11:45:36.728Z</time></trkpt><trkpt lat="43.0206883" lon="2.5628117"><ele>278.0</ele><time>2026-04-26T11:45:37.727Z</time></trkpt><trkpt lat="43.0207317" lon="2.56292"><ele>278.0</ele><time>2026-04-26T11:45:38.731Z</time></trkpt><trkpt lat="43.0207667" lon="2.5630383"><ele>278.0</ele><time>2026-04-26T11:45:39.729Z</time></trkpt><trkpt lat="43.0207683" lon="2.5631733"><ele>278.0</ele><time>2026-04-26T11:45:40.73Z</time></trkpt><trkpt lat="43.0207467" lon="2.5633133"><ele>280.33333333333337</ele><time>2026-04-26T11:45:41.728Z</time></trkpt><trkpt lat="43.0207133" lon="2.56345"><ele>282.6666666666667</ele><time>2026-04-26T11:45:42.729Z</time></trkpt><trkpt lat="43.0206767" lon="2.5635767"><ele>285.0</ele><time>2026-04-26T11:45:43.727Z</time></trkpt><trkpt lat="43.0206483" lon="2.5636917"><ele>287.3333333333333</ele><time>2026-04-26T11:45:44.727Z</time></trkpt><trkpt lat="43.02062" lon="2.5637767"><ele>289.66666666666663</ele><time>2026-04-26T11:45:45.727Z</time></trkpt><trkpt lat="43.0205383" lon="2.5637683"><ele>292.0</ele><time>2026-04-26T11:45:47.728Z</time></trkpt><trkpt lat="43.0204883" lon="2.5636967"><ele>292.0</ele><time>2026-04-26T11:45:49.73Z</time></trkpt><trkpt lat="43.0204667" lon="2.563595"><ele>292.0</ele><time>2026-04-26T11:45:59.732Z</time></trkpt><trkpt lat="43.02047" lon="2.5634867"><ele>292.0</ele><time>2026-04-26T11:46:03.727Z</time></trkpt><trkpt lat="43.0204517" lon="2.5633817"><ele>292.0</ele><time>2026-04-26T11:46:05.727Z</time></trkpt><trkpt lat="43.0203833" lon="2.5633267"><ele>292.0</ele><time>2026-04-26T11:46:07.732Z</time></trkpt><trkpt lat="43.0203167" lon="2.56331"><ele>292.0</ele><time>2026-04-26T11:50:01.731Z</time></trkpt><trkpt lat="43.02018" lon="2.5633183"><ele>292.0</ele><time>2026-04-26T11:50:03.728Z</time></trkpt><trkpt lat="43.0201" lon="2.5633683"><ele>292.0</ele><time>2026-04-26T11:50:04.73Z</time></trkpt><trkpt lat="43.020025" lon="2.5634383"><ele>292.0</ele><time>2026-04-26T11:50:05.729Z</time></trkpt><trkpt lat="43.019945" lon="2.563535"><ele>292.0</ele><time>2026-04-26T11:50:06.733Z</time></trkpt><trkpt lat="43.0198667" lon="2.5636633"><ele>292.0</ele><time>2026-04-26T11:50:07.728Z</time></trkpt><trkpt lat="43.0198" lon="2.5638033"><ele>291.4</ele><time>2026-04-26T11:50:08.73Z</time></trkpt><trkpt lat="43.0197417" lon="2.563925"><ele>290.79999999999995</ele><time>2026-04-26T11:50:09.727Z</time></trkpt><trkpt lat="43.0196783" lon="2.5640467"><ele>290.2</ele><time>2026-04-26T11:50:10.73Z</time></trkpt><trkpt lat="43.0196117" lon="2.5641567"><ele>289.59999999999997</ele><time>2026-04-26T11:50:11.728Z</time></trkpt><trkpt lat="43.01954" lon="2.5642517"><ele>289.0</ele><time>2026-04-26T11:50:12.729Z</time></trkpt><trkpt lat="43.0194617" lon="2.5643383"><ele>289.0</ele><time>2026-04-26T11:50:13.731Z</time></trkpt><trkpt lat="43.019385" lon="2.5644333"><ele>289.0</ele><time>2026-04-26T11:50:14.73Z</time></trkpt><trkpt lat="43.0193067" lon="2.564535"><ele>289.0</ele><time>2026-04-26T11:50:15.729Z</time></trkpt><trkpt lat="43.01922" lon="2.5646417"><ele>289.0</ele><time>2026-04-26T11:50:16.729Z</time></trkpt><trkpt lat="43.0191267" lon="2.56474"><ele>289.0</ele><time>2026-04-26T11:50:17.728Z</time></trkpt><trkpt lat="43.0190367" lon="2.5648367"><ele>288.25</ele><time>2026-04-26T11:50:18.728Z</time></trkpt><trkpt lat="43.0189567" lon="2.564945"><ele>287.5</ele><time>2026-04-26T11:50:19.728Z</time></trkpt><trkpt lat="43.0188867" lon="2.56507"><ele>286.75</ele><time>2026-04-26T11:50:20.73Z</time></trkpt><trkpt lat="43.0188133" lon="2.5652133"><ele>286.0</ele><time>2026-04-26T11:50:21.73Z</time></trkpt><trkpt lat="43.01875" lon="2.5653617"><ele>290.25</ele><time>2026-04-26T11:50:22.73Z</time></trkpt><trkpt lat="43.0187017" lon="2.5655067"><ele>294.5</ele><time>2026-04-26T11:50:23.729Z</time></trkpt><trkpt lat="43.018655" lon="2.5656567"><ele>298.75</ele><time>2026-04-26T11:50:24.728Z</time></trkpt><trkpt lat="43.0185983" lon="2.5657933"><ele>303.0</ele><time>2026-04-26T11:50:25.728Z</time></trkpt><trkpt lat="43.0185283" lon="2.56592"><ele>303.0</ele><time>2026-04-26T11:50:26.734Z</time></trkpt><trkpt lat="43.018455" lon="2.5660417"><ele>303.0</ele><time>2026-04-26T11:50:27.728Z</time></trkpt><trkpt lat="43.0183833" lon="2.56615"><ele>303.0</ele><time>2026-04-26T11:50:28.731Z</time></trkpt><trkpt lat="43.01831" lon="2.5662417"><ele>303.0</ele><time>2026-04-26T11:50:29.728Z</time></trkpt><trkpt lat="43.01824" lon="2.5663367"><ele>303.0</ele><time>2026-04-26T11:50:30.728Z</time></trkpt><trkpt lat="43.0181817" lon="2.56645"><ele>300.2</ele><time>2026-04-26T11:50:31.731Z</time></trkpt><trkpt lat="43.0181383" lon="2.5665683"><ele>297.4</ele><time>2026-04-26T11:50:32.729Z</time></trkpt><trkpt lat="43.01812" lon="2.5666883"><ele>294.59999999999997</ele><time>2026-04-26T11:50:33.728Z</time></trkpt><trkpt lat="43.0181217" lon="2.56681"><ele>291.8</ele><time>2026-04-26T11:50:34.727Z</time></trkpt><trkpt lat="43.0181467" lon="2.5669417"><ele>289.0</ele><time>2026-04-26T11:50:35.729Z</time></trkpt><trkpt lat="43.0181783" lon="2.5670867"><ele>289.0</ele><time>2026-04-26T11:50:36.729Z</time></trkpt><trkpt lat="43.0182067" lon="2.56724"><ele>289.0</ele><time>2026-04-26T11:50:37.728Z</time></trkpt><trkpt lat="43.01823" lon="2.567395"><ele>289.0</ele><time>2026-04-26T11:50:38.73Z</time></trkpt><trkpt lat="43.0182567" lon="2.5675483"><ele>289.0</ele><time>2026-04-26T11:50:39.731Z</time></trkpt><trkpt lat="43.0182833" lon="2.5677017"><ele>289.0</ele><time>2026-04-26T11:50:40.737Z</time></trkpt><trkpt lat="43.0182983" lon="2.5678517"><ele>289.0</ele><time>2026-04-26T11:50:41.729Z</time></trkpt><trkpt lat="43.018305" lon="2.5679933"><ele>289.0</ele><time>2026-04-26T11:50:42.728Z</time></trkpt><trkpt lat="43.0182967" lon="2.5681133"><ele>289.0</ele><time>2026-04-26T11:50:43.729Z</time></trkpt><trkpt lat="43.01826" lon="2.56825"><ele>289.0</ele><time>2026-04-26T11:50:45.727Z</time></trkpt><trkpt lat="43.0181633" lon="2.5682667"><ele>293.0</ele><time>2026-04-26T11:50:47.727Z</time></trkpt><trkpt lat="43.0180367" lon="2.5682033"><ele>297.0</ele><time>2026-04-26T11:50:49.729Z</time></trkpt><trkpt lat="43.01797" lon="2.568195"><ele>301.0</ele><time>2026-04-26T11:50:50.729Z</time></trkpt><trkpt lat="43.017905" lon="2.568255"><ele>305.0</ele><time>2026-04-26T11:50:51.729Z</time></trkpt><trkpt lat="43.01785" lon="2.56836"><ele>309.0</ele><time>2026-04-26T11:50:52.733Z</time></trkpt><trkpt lat="43.0178117" lon="2.5685117"><ele>309.0</ele><time>2026-04-26T11:50:53.728Z</time></trkpt><trkpt lat="43.0177783" lon="2.5686717"><ele>309.0</ele><time>2026-04-26T11:50:54.729Z</time></trkpt><trkpt lat="43.0177433" lon="2.5688333"><ele>309.0</ele><time>2026-04-26T11:50:55.728Z</time></trkpt><trkpt lat="43.0177033" lon="2.5689867"><ele>309.0</ele><time>2026-04-26T11:50:56.729Z</time></trkpt><trkpt lat="43.01765" lon="2.5691367"><ele>307.75</ele><time>2026-04-26T11:50:57.731Z</time></trkpt><trkpt lat="43.0175783" lon="2.5692733"><ele>306.5</ele><time>2026-04-26T11:50:58.731Z</time></trkpt><trkpt lat="43.0175067" lon="2.569415"><ele>305.25</ele><time>2026-04-26T11:50:59.729Z</time></trkpt><trkpt lat="43.0174483" lon="2.5695733"><ele>304.0</ele><time>2026-04-26T11:51:00.728Z</time></trkpt><trkpt lat="43.0174133" lon="2.5697367"><ele>304.0</ele><time>2026-04-26T11:51:01.729Z</time></trkpt><trkpt lat="43.017395" lon="2.56991"><ele>304.0</ele><time>2026-04-26T11:51:02.73Z</time></trkpt><trkpt lat="43.0173883" lon="2.570095"><ele>304.0</ele><time>2026-04-26T11:51:03.732Z</time></trkpt><trkpt lat="43.0173767" lon="2.570275"><ele>304.0</ele><time>2026-04-26T11:51:04.73Z</time></trkpt><trkpt lat="43.01736" lon="2.570445"><ele>305.4</ele><time>2026-04-26T11:51:05.729Z</time></trkpt><trkpt lat="43.0173417" lon="2.5705967"><ele>306.79999999999995</ele><time>2026-04-26T11:51:06.73Z</time></trkpt><trkpt lat="43.0173367" lon="2.5707383"><ele>308.20000000000005</ele><time>2026-04-26T11:51:07.728Z</time></trkpt><trkpt lat="43.017335" lon="2.5708733"><ele>309.6</ele><time>2026-04-26T11:51:08.734Z</time></trkpt><trkpt lat="43.0173233" lon="2.570995"><ele>311.0</ele><time>2026-04-26T11:51:09.73Z</time></trkpt><trkpt lat="43.0173" lon="2.5711117"><ele>311.8</ele><time>2026-04-26T11:51:10.733Z</time></trkpt><trkpt lat="43.01726" lon="2.5712333"><ele>312.6</ele><time>2026-04-26T11:51:11.73Z</time></trkpt><trkpt lat="43.0172217" lon="2.571375"><ele>313.4</ele><time>2026-04-26T11:51:12.731Z</time></trkpt><trkpt lat="43.0171917" lon="2.5715333"><ele>314.2</ele><time>2026-04-26T11:51:13.731Z</time></trkpt><trkpt lat="43.0171783" lon="2.571685"><ele>315.0</ele><time>2026-04-26T11:51:14.732Z</time></trkpt><trkpt lat="43.017175" lon="2.571825"><ele>315.0</ele><time>2026-04-26T11:51:15.73Z</time></trkpt><trkpt lat="43.0172" lon="2.5719433"><ele>315.0</ele><time>2026-04-26T11:51:16.73Z</time></trkpt><trkpt lat="43.01724" lon="2.572055"><ele>315.0</ele><time>2026-04-26T11:51:17.729Z</time></trkpt><trkpt lat="43.01727" lon="2.5721633"><ele>315.0</ele><time>2026-04-26T11:51:18.729Z</time></trkpt><trkpt lat="43.0172767" lon="2.572275"><ele>315.0</ele><time>2026-04-26T11:51:19.729Z</time></trkpt><trkpt lat="43.01727" lon="2.5723883"><ele>315.0</ele><time>2026-04-26T11:51:20.731Z</time></trkpt><trkpt lat="43.0172517" lon="2.572515"><ele>316.4</ele><time>2026-04-26T11:51:21.731Z</time></trkpt><trkpt lat="43.01722" lon="2.572645"><ele>317.8</ele><time>2026-04-26T11:51:22.73Z</time></trkpt><trkpt lat="43.0171917" lon="2.5727733"><ele>319.20000000000005</ele><time>2026-04-26T11:51:23.731Z</time></trkpt><trkpt lat="43.01717" lon="2.57291"><ele>320.6</ele><time>2026-04-26T11:51:24.731Z</time></trkpt><trkpt lat="43.017175" lon="2.573055"><ele>322.0</ele><time>2026-04-26T11:51:25.728Z</time></trkpt><trkpt lat="43.0172017" lon="2.5732017"><ele>322.0</ele><time>2026-04-26T11:51:26.728Z</time></trkpt><trkpt lat="43.0172317" lon="2.573365"><ele>322.0</ele><time>2026-04-26T11:51:27.729Z</time></trkpt><trkpt lat="43.01726" lon="2.57354"><ele>322.0</ele><time>2026-04-26T11:51:28.73Z</time></trkpt><trkpt lat="43.0172817" lon="2.57371"><ele>322.0</ele><time>2026-04-26T11:51:29.727Z</time></trkpt><trkpt lat="43.0173033" lon="2.57387"><ele>322.66666666666663</ele><time>2026-04-26T11:51:30.73Z</time></trkpt><trkpt lat="43.01732" lon="2.5740117"><ele>323.3333333333333</ele><time>2026-04-26T11:51:31.728Z</time></trkpt><trkpt lat="43.0173533" lon="2.5741167"><ele>324.0</ele><time>2026-04-26T11:51:32.728Z</time></trkpt><trkpt lat="43.01739" lon="2.5742117"><ele>324.6666666666667</ele><time>2026-04-26T11:51:33.728Z</time></trkpt><trkpt lat="43.0174283" lon="2.57429"><ele>325.33333333333337</ele><time>2026-04-26T11:51:34.73Z</time></trkpt><trkpt lat="43.0174583" lon="2.5743667"><ele>326.0</ele><time>2026-04-26T11:51:35.729Z</time></trkpt><trkpt lat="43.0174883" lon="2.5744467"><ele>325.83333333333337</ele><time>2026-04-26T11:51:36.728Z</time></trkpt><trkpt lat="43.0175167" lon="2.5745367"><ele>325.6666666666667</ele><time>2026-04-26T11:51:37.728Z</time></trkpt><trkpt lat="43.0175033" lon="2.5746267"><ele>325.5</ele><time>2026-04-26T11:51:38.73Z</time></trkpt><trkpt lat="43.0174733" lon="2.5747333"><ele>325.3333333333333</ele><time>2026-04-26T11:51:39.729Z</time></trkpt><trkpt lat="43.017445" lon="2.5748617"><ele>325.16666666666663</ele><time>2026-04-26T11:51:40.729Z</time></trkpt><trkpt lat="43.0174083" lon="2.5749933"><ele>325.0</ele><time>2026-04-26T11:51:41.729Z</time></trkpt><trkpt lat="43.0173767" lon="2.5751117"><ele>325.0</ele><time>2026-04-26T11:51:42.727Z</time></trkpt><trkpt lat="43.017335" lon="2.5752067"><ele>325.0</ele><time>2026-04-26T11:51:43.731Z</time></trkpt><trkpt lat="43.01728" lon="2.5752733"><ele>325.0</ele><time>2026-04-26T11:51:44.728Z</time></trkpt><trkpt lat="43.017205" lon="2.5753317"><ele>325.0</ele><time>2026-04-26T11:51:45.727Z</time></trkpt><trkpt lat="43.0171417" lon="2.5753933"><ele>325.0</ele><time>2026-04-26T11:51:46.728Z</time></trkpt><trkpt lat="43.0170833" lon="2.5754917"><ele>325.0</ele><time>2026-04-26T11:51:47.727Z</time></trkpt><trkpt lat="43.0170333" lon="2.5756083"><ele>325.0</ele><time>2026-04-26T11:51:48.728Z</time></trkpt><trkpt lat="43.01699" lon="2.5757333"><ele>325.0</ele><time>2026-04-26T11:51:49.729Z</time></trkpt><trkpt lat="43.0169717" lon="2.5758683"><ele>325.0</ele><time>2026-04-26T11:51:50.728Z</time></trkpt><trkpt lat="43.01696" lon="2.5760133"><ele>325.0</ele><time>2026-04-26T11:51:51.728Z</time></trkpt><trkpt lat="43.01695" lon="2.5761567"><ele>325.0</ele><time>2026-04-26T11:51:52.729Z</time></trkpt><trkpt lat="43.01692" lon="2.5763017"><ele>326.25</ele><time>2026-04-26T11:51:53.728Z</time></trkpt><trkpt lat="43.0168717" lon="2.576445"><ele>327.5</ele><time>2026-04-26T11:51:54.729Z</time></trkpt><trkpt lat="43.0168217" lon="2.5765867"><ele>328.75</ele><time>2026-04-26T11:51:55.728Z</time></trkpt><trkpt lat="43.016775" lon="2.576725"><ele>330.0</ele><time>2026-04-26T11:51:56.728Z</time></trkpt><trkpt lat="43.01673" lon="2.57686"><ele>330.0</ele><time>2026-04-26T11:51:57.728Z</time></trkpt><trkpt lat="43.016685" lon="2.5769917"><ele>330.0</ele><time>2026-04-26T11:51:58.727Z</time></trkpt><trkpt lat="43.0166467" lon="2.5771317"><ele>330.0</ele><time>2026-04-26T11:51:59.729Z</time></trkpt><trkpt lat="43.016615" lon="2.57728"><ele>330.0</ele><time>2026-04-26T11:52:00.728Z</time></trkpt><trkpt lat="43.0166" lon="2.5774317"><ele>330.0</ele><time>2026-04-26T11:52:01.727Z</time></trkpt><trkpt lat="43.0165983" lon="2.5775933"><ele>325.25</ele><time>2026-04-26T11:52:02.728Z</time></trkpt><trkpt lat="43.016605" lon="2.5777533"><ele>320.5</ele><time>2026-04-26T11:52:03.728Z</time></trkpt><trkpt lat="43.0166083" lon="2.5779183"><ele>315.75</ele><time>2026-04-26T11:52:04.728Z</time></trkpt><trkpt lat="43.0165783" lon="2.5780717"><ele>311.0</ele><time>2026-04-26T11:52:05.727Z</time></trkpt><trkpt lat="43.0165467" lon="2.5782167"><ele>311.0</ele><time>2026-04-26T11:52:06.731Z</time></trkpt><trkpt lat="43.0165167" lon="2.5783533"><ele>311.0</ele><time>2026-04-26T11:52:07.729Z</time></trkpt><trkpt lat="43.0164967" lon="2.57849"><ele>311.0</ele><time>2026-04-26T11:52:08.728Z</time></trkpt><trkpt lat="43.0164783" lon="2.5786117"><ele>311.0</ele><time>2026-04-26T11:52:09.728Z</time></trkpt><trkpt lat="43.0164517" lon="2.5787183"><ele>311.0</ele><time>2026-04-26T11:52:10.728Z</time></trkpt><trkpt lat="43.0164233" lon="2.5788183"><ele>312.0</ele><time>2026-04-26T11:52:11.729Z</time></trkpt><trkpt lat="43.0163367" lon="2.57893"><ele>313.0</ele><time>2026-04-26T11:52:13.728Z</time></trkpt><trkpt lat="43.016275" lon="2.5789633"><ele>314.0</ele><time>2026-04-26T11:52:14.729Z</time></trkpt><trkpt lat="43.0162033" lon="2.57899"><ele>315.0</ele><time>2026-04-26T11:52:15.728Z</time></trkpt><trkpt lat="43.016125" lon="2.5789867"><ele>316.0</ele><time>2026-04-26T11:52:16.73Z</time></trkpt><trkpt lat="43.0160483" lon="2.5789683"><ele>317.0</ele><time>2026-04-26T11:52:17.727Z</time></trkpt><trkpt lat="43.0159817" lon="2.5789633"><ele>317.0</ele><time>2026-04-26T11:52:18.727Z</time></trkpt><trkpt lat="43.0158967" lon="2.57903"><ele>317.0</ele><time>2026-04-26T11:52:20.728Z</time></trkpt><trkpt lat="43.01581" lon="2.57914"><ele>317.0</ele><time>2026-04-26T11:52:22.735Z</time></trkpt><trkpt lat="43.0156917" lon="2.5791033"><ele>317.0</ele><time>2026-04-26T11:52:24.731Z</time></trkpt><trkpt lat="43.0156233" lon="2.5790433"><ele>317.0</ele><time>2026-04-26T11:52:25.728Z</time></trkpt><trkpt lat="43.015545" lon="2.578965"><ele>314.5</ele><time>2026-04-26T11:52:26.728Z</time></trkpt><trkpt lat="43.0154583" lon="2.5788833"><ele>312.0</ele><time>2026-04-26T11:52:27.727Z</time></trkpt><trkpt lat="43.01537" lon="2.578795"><ele>309.5</ele><time>2026-04-26T11:52:28.729Z</time></trkpt><trkpt lat="43.0152767" lon="2.5786933"><ele>307.0</ele><time>2026-04-26T11:52:29.727Z</time></trkpt><trkpt lat="43.01518" lon="2.5785967"><ele>307.0</ele><time>2026-04-26T11:52:30.737Z</time></trkpt><trkpt lat="43.01509" lon="2.5785117"><ele>307.0</ele><time>2026-04-26T11:52:31.727Z</time></trkpt><trkpt lat="43.0150067" lon="2.57844"><ele>307.0</ele><time>2026-04-26T11:52:32.73Z</time></trkpt><trkpt lat="43.0149283" lon="2.5783833"><ele>307.0</ele><time>2026-04-26T11:52:33.728Z</time></trkpt><trkpt lat="43.0148467" lon="2.57834"><ele>307.0</ele><time>2026-04-26T11:52:34.73Z</time></trkpt><trkpt lat="43.014755" lon="2.5783217"><ele>307.6</ele><time>2026-04-26T11:52:35.729Z</time></trkpt><trkpt lat="43.0146517" lon="2.5783117"><ele>308.2</ele><time>2026-04-26T11:52:36.729Z</time></trkpt><trkpt lat="43.01453" lon="2.578295"><ele>308.8</ele><time>2026-04-26T11:52:37.729Z</time></trkpt><trkpt lat="43.0144133" lon="2.5782617"><ele>309.4</ele><time>2026-04-26T11:52:38.728Z</time></trkpt><trkpt lat="43.014315" lon="2.578215"><ele>310.0</ele><time>2026-04-26T11:52:39.728Z</time></trkpt><trkpt lat="43.014225" lon="2.5781583"><ele>308.3333333333333</ele><time>2026-04-26T11:52:40.728Z</time></trkpt><trkpt lat="43.01413" lon="2.5781117"><ele>306.66666666666663</ele><time>2026-04-26T11:52:41.73Z</time></trkpt><trkpt lat="43.0140433" lon="2.5781"><ele>305.0</ele><time>2026-04-26T11:52:42.729Z</time></trkpt><trkpt lat="43.013965" lon="2.5781133"><ele>303.3333333333333</ele><time>2026-04-26T11:52:43.727Z</time></trkpt><trkpt lat="43.0139033" lon="2.57815"><ele>301.6666666666667</ele><time>2026-04-26T11:52:44.73Z</time></trkpt><trkpt lat="43.01385" lon="2.5782217"><ele>300.0</ele><time>2026-04-26T11:52:45.73Z</time></trkpt><trkpt lat="43.013815" lon="2.57833"><ele>300.0</ele><time>2026-04-26T11:52:46.729Z</time></trkpt><trkpt lat="43.01379" lon="2.5784483"><ele>300.0</ele><time>2026-04-26T11:52:47.731Z</time></trkpt><trkpt lat="43.013755" lon="2.5785533"><ele>300.0</ele><time>2026-04-26T11:52:48.73Z</time></trkpt><trkpt lat="43.013705" lon="2.578645"><ele>300.0</ele><time>2026-04-26T11:52:49.729Z</time></trkpt><trkpt lat="43.0136433" lon="2.578715"><ele>300.0</ele><time>2026-04-26T11:52:50.73Z</time></trkpt><trkpt lat="43.01357" lon="2.578755"><ele>300.0</ele><time>2026-04-26T11:52:51.731Z</time></trkpt><trkpt lat="43.013495" lon="2.5788067"><ele>300.2</ele><time>2026-04-26T11:52:52.73Z</time></trkpt><trkpt lat="43.01342" lon="2.57889"><ele>300.4</ele><time>2026-04-26T11:52:53.73Z</time></trkpt><trkpt lat="43.013345" lon="2.5789933"><ele>300.6</ele><time>2026-04-26T11:52:54.732Z</time></trkpt><trkpt lat="43.0132683" lon="2.5791017"><ele>300.8</ele><time>2026-04-26T11:52:55.729Z</time></trkpt><trkpt lat="43.0131883" lon="2.5791967"><ele>301.0</ele><time>2026-04-26T11:52:56.729Z</time></trkpt><trkpt lat="43.0131083" lon="2.57927"><ele>301.0</ele><time>2026-04-26T11:52:57.729Z</time></trkpt><trkpt lat="43.0130317" lon="2.57934"><ele>301.0</ele><time>2026-04-26T11:52:58.727Z</time></trkpt><trkpt lat="43.0129717" lon="2.5794167"><ele>301.0</ele><time>2026-04-26T11:52:59.73Z</time></trkpt><trkpt lat="43.0129283" lon="2.5795167"><ele>301.0</ele><time>2026-04-26T11:53:00.73Z</time></trkpt><trkpt lat="43.0128933" lon="2.579605"><ele>301.0</ele><time>2026-04-26T11:53:01.731Z</time></trkpt><trkpt lat="43.01285" lon="2.5796783"><ele>301.0</ele><time>2026-04-26T11:53:02.73Z</time></trkpt><trkpt lat="43.012795" lon="2.5797333"><ele>300.8333333333333</ele><time>2026-04-26T11:53:03.729Z</time></trkpt><trkpt lat="43.0127317" lon="2.579755"><ele>300.66666666666663</ele><time>2026-04-26T11:53:04.73Z</time></trkpt><trkpt lat="43.01266" lon="2.57974"><ele>300.5</ele><time>2026-04-26T11:53:05.73Z</time></trkpt><trkpt lat="43.0125783" lon="2.5797"><ele>300.3333333333333</ele><time>2026-04-26T11:53:06.731Z</time></trkpt><trkpt lat="43.0124967" lon="2.5796533"><ele>300.1666666666667</ele><time>2026-04-26T11:53:07.729Z</time></trkpt><trkpt lat="43.0124267" lon="2.579605"><ele>300.0</ele><time>2026-04-26T11:53:08.73Z</time></trkpt><trkpt lat="43.0123667" lon="2.5795467"><ele>300.8</ele><time>2026-04-26T11:53:09.73Z</time></trkpt><trkpt lat="43.0123267" lon="2.5794767"><ele>301.6</ele><time>2026-04-26T11:53:10.731Z</time></trkpt><trkpt lat="43.01231" lon="2.5793783"><ele>302.4</ele><time>2026-04-26T11:53:11.729Z</time></trkpt><trkpt lat="43.0123117" lon="2.5792467"><ele>303.2</ele><time>2026-04-26T11:53:12.734Z</time></trkpt><trkpt lat="43.0123233" lon="2.5790917"><ele>304.0</ele><time>2026-04-26T11:53:13.73Z</time></trkpt><trkpt lat="43.0123417" lon="2.5789383"><ele>304.0</ele><time>2026-04-26T11:53:14.731Z</time></trkpt><trkpt lat="43.0123517" lon="2.5787983"><ele>304.0</ele><time>2026-04-26T11:53:15.729Z</time></trkpt><trkpt lat="43.01235" lon="2.57866"><ele>304.0</ele><time>2026-04-26T11:53:16.727Z</time></trkpt><trkpt lat="43.01234" lon="2.5785183"><ele>304.0</ele><time>2026-04-26T11:53:17.731Z</time></trkpt><trkpt lat="43.0123183" lon="2.5783967"><ele>304.0</ele><time>2026-04-26T11:53:18.729Z</time></trkpt><trkpt lat="43.0122667" lon="2.5783"><ele>304.59999999999997</ele><time>2026-04-26T11:53:19.728Z</time></trkpt><trkpt lat="43.012195" lon="2.5782333"><ele>305.2</ele><time>2026-04-26T11:53:20.728Z</time></trkpt><trkpt lat="43.0121033" lon="2.5781967"><ele>305.79999999999995</ele><time>2026-04-26T11:53:21.73Z</time></trkpt><trkpt lat="43.0119983" lon="2.5781883"><ele>306.4</ele><time>2026-04-26T11:53:22.729Z</time></trkpt><trkpt lat="43.0119" lon="2.5781817"><ele>307.0</ele><time>2026-04-26T11:53:23.728Z</time></trkpt><trkpt lat="43.0118033" lon="2.5781583"><ele>307.0</ele><time>2026-04-26T11:53:24.729Z</time></trkpt><trkpt lat="43.0117183" lon="2.578105"><ele>307.0</ele><time>2026-04-26T11:53:25.728Z</time></trkpt><trkpt lat="43.0116617" lon="2.578035"><ele>307.0</ele><time>2026-04-26T11:53:26.731Z</time></trkpt><trkpt lat="43.011625" lon="2.5779533"><ele>307.0</ele><time>2026-04-26T11:53:27.728Z</time></trkpt><trkpt lat="43.0116167" lon="2.57786"><ele>307.0</ele><time>2026-04-26T11:53:28.728Z</time></trkpt><trkpt lat="43.0116217" lon="2.5777317"><ele>307.0</ele><time>2026-04-26T11:53:29.727Z</time></trkpt><trkpt lat="43.01162" lon="2.5775817"><ele>307.5</ele><time>2026-04-26T11:53:30.728Z</time></trkpt><trkpt lat="43.0116083" lon="2.5774317"><ele>308.0</ele><time>2026-04-26T11:53:31.727Z</time></trkpt><trkpt lat="43.0115967" lon="2.5773"><ele>308.5</ele><time>2026-04-26T11:53:32.729Z</time></trkpt><trkpt lat="43.0115933" lon="2.5771933"><ele>309.0</ele><time>2026-04-26T11:53:33.727Z</time></trkpt><trkpt lat="43.0116217" lon="2.5771133"><ele>309.5</ele><time>2026-04-26T11:53:34.728Z</time></trkpt><trkpt lat="43.01167" lon="2.5770567"><ele>310.0</ele><time>2026-04-26T11:53:35.727Z</time></trkpt><trkpt lat="43.0117283" lon="2.5770117"><ele>310.66666666666663</ele><time>2026-04-26T11:53:36.728Z</time></trkpt><trkpt lat="43.01178" lon="2.576955"><ele>311.3333333333333</ele><time>2026-04-26T11:53:37.728Z</time></trkpt><trkpt lat="43.0118133" lon="2.5768633"><ele>312.0</ele><time>2026-04-26T11:53:38.729Z</time></trkpt><trkpt lat="43.0118383" lon="2.5767567"><ele>312.6666666666667</ele><time>2026-04-26T11:53:39.728Z</time></trkpt><trkpt lat="43.0118633" lon="2.5766433"><ele>313.33333333333337</ele><time>2026-04-26T11:53:40.729Z</time></trkpt><trkpt lat="43.0119017" lon="2.57655"><ele>314.0</ele><time>2026-04-26T11:53:41.727Z</time></trkpt><trkpt lat="43.011945" lon="2.5764567"><ele>314.0</ele><time>2026-04-26T11:53:42.73Z</time></trkpt><trkpt lat="43.01199" lon="2.5763467"><ele>314.0</ele><time>2026-04-26T11:53:43.727Z</time></trkpt><trkpt lat="43.01202" lon="2.5762183"><ele>314.0</ele><time>2026-04-26T11:53:44.735Z</time></trkpt><trkpt lat="43.01201" lon="2.57608"><ele>314.0</ele><time>2026-04-26T11:53:45.727Z</time></trkpt><trkpt lat="43.0119767" lon="2.5759433"><ele>314.0</ele><time>2026-04-26T11:53:46.73Z</time></trkpt><trkpt lat="43.011935" lon="2.5757867"><ele>316.0</ele><time>2026-04-26T11:53:47.729Z</time></trkpt><trkpt lat="43.011905" lon="2.5756183"><ele>318.0</ele><time>2026-04-26T11:53:48.729Z</time></trkpt><trkpt lat="43.01189" lon="2.5754483"><ele>320.0</ele><time>2026-04-26T11:53:49.729Z</time></trkpt><trkpt lat="43.01189" lon="2.5752717"><ele>322.0</ele><time>2026-04-26T11:53:50.73Z</time></trkpt><trkpt lat="43.011905" lon="2.5750817"><ele>323.25</ele><time>2026-04-26T11:53:51.727Z</time></trkpt><trkpt lat="43.01193" lon="2.574895"><ele>324.5</ele><time>2026-04-26T11:53:52.728Z</time></trkpt><trkpt lat="43.0119633" lon="2.5747033"><ele>325.75</ele><time>2026-04-26T11:53:53.728Z</time></trkpt><trkpt lat="43.0120133" lon="2.5745117"><ele>327.0</ele><time>2026-04-26T11:53:54.73Z</time></trkpt><trkpt lat="43.01207" lon="2.5743333"><ele>328.25</ele><time>2026-04-26T11:53:55.728Z</time></trkpt><trkpt lat="43.01212" lon="2.5741867"><ele>329.5</ele><time>2026-04-26T11:53:56.728Z</time></trkpt><trkpt lat="43.0121567" lon="2.574035"><ele>330.75</ele><time>2026-04-26T11:53:57.727Z</time></trkpt><trkpt lat="43.0121733" lon="2.573885"><ele>332.0</ele><time>2026-04-26T11:53:58.727Z</time></trkpt><trkpt lat="43.01217" lon="2.57373"><ele>332.33333333333337</ele><time>2026-04-26T11:53:59.727Z</time></trkpt><trkpt lat="43.0121583" lon="2.5735833"><ele>332.6666666666667</ele><time>2026-04-26T11:54:00.729Z</time></trkpt><trkpt lat="43.012165" lon="2.5734533"><ele>333.0</ele><time>2026-04-26T11:54:01.728Z</time></trkpt><trkpt lat="43.01219" lon="2.5733533"><ele>333.3333333333333</ele><time>2026-04-26T11:54:02.729Z</time></trkpt><trkpt lat="43.0122067" lon="2.573265"><ele>333.66666666666663</ele><time>2026-04-26T11:54:03.73Z</time></trkpt><trkpt lat="43.012185" lon="2.5731533"><ele>334.0</ele><time>2026-04-26T11:54:05.731Z</time></trkpt><trkpt lat="43.0121183" lon="2.5732483"><ele>334.0</ele><time>2026-04-26T11:54:07.727Z</time></trkpt><trkpt lat="43.0121033" lon="2.5733483"><ele>334.0</ele><time>2026-04-26T11:54:08.73Z</time></trkpt><trkpt lat="43.012095" lon="2.5734617"><ele>334.0</ele><time>2026-04-26T11:54:09.728Z</time></trkpt><trkpt lat="43.0120733" lon="2.57361"><ele>334.0</ele><time>2026-04-26T11:54:10.735Z</time></trkpt><trkpt lat="43.01204" lon="2.5737817"><ele>334.0</ele><time>2026-04-26T11:54:11.731Z</time></trkpt><trkpt lat="43.012" lon="2.5739483"><ele>333.5</ele><time>2026-04-26T11:54:12.729Z</time></trkpt><trkpt lat="43.0119417" lon="2.5741033"><ele>333.0</ele><time>2026-04-26T11:54:13.728Z</time></trkpt><trkpt lat="43.0118767" lon="2.574255"><ele>332.5</ele><time>2026-04-26T11:54:14.729Z</time></trkpt><trkpt lat="43.01182" lon="2.5744067"><ele>332.0</ele><time>2026-04-26T11:54:15.729Z</time></trkpt><trkpt lat="43.01176" lon="2.5745517"><ele>330.75</ele><time>2026-04-26T11:54:16.73Z</time></trkpt><trkpt lat="43.0116817" lon="2.5746783"><ele>329.5</ele><time>2026-04-26T11:54:17.731Z</time></trkpt><trkpt lat="43.0115783" lon="2.574775"><ele>328.25</ele><time>2026-04-26T11:54:18.729Z</time></trkpt><trkpt lat="43.0114617" lon="2.574865"><ele>327.0</ele><time>2026-04-26T11:54:19.73Z</time></trkpt><trkpt lat="43.011935" lon="2.5757867"><ele>327.0</ele><time>2026-04-26T11:53:47.729Z</time></trkpt><trkpt lat="43.011905" lon="2.5756183"><ele>327.0</ele><time>2026-04-26T11:53:48.729Z</time></trkpt><trkpt lat="43.01189" lon="2.5754483"><ele>327.0</ele><time>2026-04-26T11:53:49.729Z</time></trkpt><trkpt lat="43.01189" lon="2.5752717"><ele>327.0</ele><time>2026-04-26T11:53:50.73Z</time></trkpt><trkpt lat="43.011905" lon="2.5750817"><ele>327.0</ele><time>2026-04-26T11:53:51.727Z</time></trkpt><trkpt lat="43.01193" lon="2.574895"><ele>327.0</ele><time>2026-04-26T11:53:52.728Z</time></trkpt><trkpt lat="43.0119633" lon="2.5747033"><ele>327.0</ele><time>2026-04-26T11:53:53.728Z</time></trkpt><trkpt lat="43.0120133" lon="2.5745117"><ele>327.0</ele><time>2026-04-26T11:53:54.73Z</time></trkpt><trkpt lat="43.01207" lon="2.5743333"><ele>328.25</ele><time>2026-04-26T11:53:55.728Z</time></trkpt><trkpt lat="43.01212" lon="2.5741867"><ele>329.5</ele><time>2026-04-26T11:53:56.728Z</time></trkpt><trkpt lat="43.0121567" lon="2.574035"><ele>330.75</ele><time>2026-04-26T11:53:57.727Z</time></trkpt><trkpt lat="43.0121733" lon="2.573885"><ele>332.0</ele><time>2026-04-26T11:53:58.727Z</time></trkpt><trkpt lat="43.01217" lon="2.57373"><ele>332.33333333333337</ele><time>2026-04-26T11:53:59.727Z</time></trkpt><trkpt lat="43.0121583" lon="2.5735833"><ele>332.6666666666667</ele><time>2026-04-26T11:54:00.729Z</time></trkpt><trkpt lat="43.012165" lon="2.5734533"><ele>333.0</ele><time>2026-04-26T11:54:01.728Z</time></trkpt><trkpt lat="43.01219" lon="2.5733533"><ele>333.3333333333333</ele><time>2026-04-26T11:54:02.729Z</time></trkpt><trkpt lat="43.0122067" lon="2.573265"><ele>333.66666666666663</ele><time>2026-04-26T11:54:03.73Z</time></trkpt><trkpt lat="43.012185" lon="2.5731533"><ele>334.0</ele><time>2026-04-26T11:54:05.731Z</time></trkpt><trkpt lat="43.0121183" lon="2.5732483"><ele>334.0</ele><time>2026-04-26T11:54:07.727Z</time></trkpt><trkpt lat="43.0121033" lon="2.5733483"><ele>334.0</ele><time>2026-04-26T11:54:08.73Z</time></trkpt><trkpt lat="43.012095" lon="2.5734617"><ele>334.0</ele><time>2026-04-26T11:54:09.728Z</time></trkpt><trkpt lat="43.0120733" lon="2.57361"><ele>334.0</ele><time>2026-04-26T11:54:10.735Z</time></trkpt><trkpt lat="43.01204" lon="2.5737817"><ele>334.0</ele><time>2026-04-26T11:54:11.731Z</time></trkpt><trkpt lat="43.012" lon="2.5739483"><ele>333.5</ele><time>2026-04-26T11:54:12.729Z</time></trkpt><trkpt lat="43.0119417" lon="2.5741033"><ele>333.0</ele><time>2026-04-26T11:54:13.728Z</time></trkpt><trkpt lat="43.0118767" lon="2.574255"><ele>332.5</ele><time>2026-04-26T11:54:14.729Z</time></trkpt><trkpt lat="43.01182" lon="2.5744067"><ele>332.0</ele><time>2026-04-26T11:54:15.729Z</time></trkpt><trkpt lat="43.01176" lon="2.5745517"><ele>330.75</ele><time>2026-04-26T11:54:16.73Z</time></trkpt><trkpt lat="43.0116817" lon="2.5746783"><ele>329.5</ele><time>2026-04-26T11:54:17.731Z</time></trkpt><trkpt lat="43.0115783" lon="2.574775"><ele>328.25</ele><time>2026-04-26T11:54:18.729Z</time></trkpt><trkpt lat="43.0114617" lon="2.574865"><ele>327.0</ele><time>2026-04-26T11:54:19.73Z</time></trkpt><trkpt lat="43.0113583" lon="2.5749517"><ele>330.25</ele><time>2026-04-26T11:54:20.73Z</time></trkpt><trkpt lat="43.01128" lon="2.5750583"><ele>333.5</ele><time>2026-04-26T11:54:21.729Z</time></trkpt><trkpt lat="43.0112233" lon="2.5751917"><ele>336.75</ele><time>2026-04-26T11:54:22.729Z</time></trkpt><trkpt lat="43.01118" lon="2.5753433"><ele>340.0</ele><time>2026-04-26T11:54:23.729Z</time></trkpt><trkpt lat="43.0111433" lon="2.5755033"><ele>340.0</ele><time>2026-04-26T11:54:24.729Z</time></trkpt><trkpt lat="43.0110983" lon="2.5756683"><ele>340.0</ele><time>2026-04-26T11:54:25.728Z</time></trkpt><trkpt lat="43.0110367" lon="2.5758283"><ele>340.0</ele><time>2026-04-26T11:54:26.73Z</time></trkpt><trkpt lat="43.0109617" lon="2.575985"><ele>340.0</ele><time>2026-04-26T11:54:27.729Z</time></trkpt><trkpt lat="43.010875" lon="2.57613"><ele>345.0</ele><time>2026-04-26T11:54:28.729Z</time></trkpt><trkpt lat="43.0108017" lon="2.57626"><ele>350.0</ele><time>2026-04-26T11:54:29.728Z</time></trkpt><trkpt lat="43.0107417" lon="2.5763867"><ele>355.0</ele><time>2026-04-26T11:54:30.728Z</time></trkpt><trkpt lat="43.0106967" lon="2.5765"><ele>360.0</ele><time>2026-04-26T11:54:31.728Z</time></trkpt><trkpt lat="43.0106533" lon="2.5765867"><ele>365.0</ele><time>2026-04-26T11:54:32.728Z</time></trkpt><trkpt lat="43.0105683" lon="2.5766467"><ele>365.0</ele><time>2026-04-26T11:54:34.736Z</time></trkpt><trkpt lat="43.010525" lon="2.576545"><ele>365.0</ele><time>2026-04-26T11:54:36.73Z</time></trkpt><trkpt lat="43.0105383" lon="2.57642"><ele>365.0</ele><time>2026-04-26T11:54:37.728Z</time></trkpt><trkpt lat="43.0105417" lon="2.5762833"><ele>365.0</ele><time>2026-04-26T11:54:38.731Z</time></trkpt><trkpt lat="43.0105317" lon="2.57613"><ele>365.0</ele><time>2026-04-26T11:54:39.728Z</time></trkpt><trkpt lat="43.0105283" lon="2.575945"><ele>367.0</ele><time>2026-04-26T11:54:40.728Z</time></trkpt><trkpt lat="43.0105283" lon="2.5757767"><ele>369.0</ele><time>2026-04-26T11:54:41.727Z</time></trkpt><trkpt lat="43.01052" lon="2.5756133"><ele>371.0</ele><time>2026-04-26T11:54:42.728Z</time></trkpt><trkpt lat="43.01049" lon="2.5754467"><ele>373.0</ele><time>2026-04-26T11:54:43.73Z</time></trkpt><trkpt lat="43.01044" lon="2.5752883"><ele>373.0</ele><time>2026-04-26T11:54:44.728Z</time></trkpt><trkpt lat="43.0103833" lon="2.575125"><ele>373.0</ele><time>2026-04-26T11:54:45.728Z</time></trkpt><trkpt lat="43.0103367" lon="2.5749567"><ele>373.0</ele><time>2026-04-26T11:54:46.73Z</time></trkpt><trkpt lat="43.0103033" lon="2.5747833"><ele>373.0</ele><time>2026-04-26T11:54:47.728Z</time></trkpt><trkpt lat="43.01028" lon="2.57461"><ele>373.0</ele><time>2026-04-26T11:54:48.729Z</time></trkpt><trkpt lat="43.010265" lon="2.5744417"><ele>373.0</ele><time>2026-04-26T11:54:49.728Z</time></trkpt><trkpt lat="43.0102733" lon="2.5742783"><ele>373.0</ele><time>2026-04-26T11:54:50.73Z</time></trkpt><trkpt lat="43.0102883" lon="2.5741167"><ele>373.0</ele><time>2026-04-26T11:54:51.731Z</time></trkpt><trkpt lat="43.0103167" lon="2.573985"><ele>373.0</ele><time>2026-04-26T11:54:52.728Z</time></trkpt><trkpt lat="43.0103383" lon="2.5738667"><ele>373.0</ele><time>2026-04-26T11:54:53.728Z</time></trkpt><trkpt lat="43.0103367" lon="2.5737317"><ele>373.0</ele><time>2026-04-26T11:54:54.732Z</time></trkpt><trkpt lat="43.0103133" lon="2.5735967"><ele>373.0</ele><time>2026-04-26T11:54:55.728Z</time></trkpt><trkpt lat="43.01028" lon="2.573455"><ele>373.0</ele><time>2026-04-26T11:54:56.731Z</time></trkpt><trkpt lat="43.0102517" lon="2.5733117"><ele>373.79999999999995</ele><time>2026-04-26T11:54:57.727Z</time></trkpt><trkpt lat="43.0102383" lon="2.5731683"><ele>374.6</ele><time>2026-04-26T11:54:58.73Z</time></trkpt><trkpt lat="43.010255" lon="2.57302"><ele>375.4</ele><time>2026-04-26T11:54:59.728Z</time></trkpt><trkpt lat="43.010275" lon="2.57287"><ele>376.20000000000005</ele><time>2026-04-26T11:55:00.735Z</time></trkpt><trkpt lat="43.010285" lon="2.5727117"><ele>377.0</ele><time>2026-04-26T11:55:01.728Z</time></trkpt><trkpt lat="43.0102917" lon="2.57255"><ele>378.6</ele><time>2026-04-26T11:55:02.729Z</time></trkpt><trkpt lat="43.010295" lon="2.572395"><ele>380.20000000000005</ele><time>2026-04-26T11:55:03.728Z</time></trkpt><trkpt lat="43.0103217" lon="2.572255"><ele>381.8</ele><time>2026-04-26T11:55:04.73Z</time></trkpt><trkpt lat="43.0103617" lon="2.5721267"><ele>383.4</ele><time>2026-04-26T11:55:05.732Z</time></trkpt><trkpt lat="43.0104083" lon="2.5720017"><ele>385.0</ele><time>2026-04-26T11:55:06.73Z</time></trkpt><trkpt lat="43.0104433" lon="2.5718817"><ele>386.4</ele><time>2026-04-26T11:55:07.728Z</time></trkpt><trkpt lat="43.0104567" lon="2.5717433"><ele>387.8</ele><time>2026-04-26T11:55:08.728Z</time></trkpt><trkpt lat="43.0104533" lon="2.5716033"><ele>389.20000000000005</ele><time>2026-04-26T11:55:09.729Z</time></trkpt><trkpt lat="43.0104317" lon="2.5714733"><ele>390.6</ele><time>2026-04-26T11:55:10.731Z</time></trkpt><trkpt lat="43.010405" lon="2.57135"><ele>392.0</ele><time>2026-04-26T11:55:11.728Z</time></trkpt><trkpt lat="43.0103933" lon="2.5712233"><ele>392.8</ele><time>2026-04-26T11:55:12.729Z</time></trkpt><trkpt lat="43.0103917" lon="2.571095"><ele>393.6</ele><time>2026-04-26T11:55:13.73Z</time></trkpt><trkpt lat="43.010385" lon="2.5709617"><ele>394.40000000000003</ele><time>2026-04-26T11:55:14.73Z</time></trkpt><trkpt lat="43.01037" lon="2.5708167"><ele>395.20000000000005</ele><time>2026-04-26T11:55:15.728Z</time></trkpt><trkpt lat="43.0103483" lon="2.5706583"><ele>396.0</ele><time>2026-04-26T11:55:16.731Z</time></trkpt><trkpt lat="43.0103233" lon="2.5704983"><ele>396.0</ele><time>2026-04-26T11:55:17.734Z</time></trkpt><trkpt lat="43.0102933" lon="2.5703333"><ele>396.0</ele><time>2026-04-26T11:55:18.73Z</time></trkpt><trkpt lat="43.0102567" lon="2.5701683"><ele>396.0</ele><time>2026-04-26T11:55:19.729Z</time></trkpt><trkpt lat="43.0102383" lon="2.5700067"><ele>396.0</ele><time>2026-04-26T11:55:20.731Z</time></trkpt><trkpt lat="43.0102383" lon="2.569845"><ele>396.0</ele><time>2026-04-26T11:55:21.73Z</time></trkpt><trkpt lat="43.0102583" lon="2.5696917"><ele>396.0</ele><time>2026-04-26T11:55:22.735Z</time></trkpt><trkpt lat="43.0102883" lon="2.5695533"><ele>396.0</ele><time>2026-04-26T11:55:23.727Z</time></trkpt><trkpt lat="43.0103" lon="2.5694267"><ele>396.0</ele><time>2026-04-26T11:55:24.728Z</time></trkpt><trkpt lat="43.010305" lon="2.5693033"><ele>396.0</ele><time>2026-04-26T11:55:25.73Z</time></trkpt><trkpt lat="43.0102833" lon="2.5691783"><ele>396.0</ele><time>2026-04-26T11:55:26.729Z</time></trkpt><trkpt lat="43.0102383" lon="2.5690467"><ele>396.0</ele><time>2026-04-26T11:55:27.729Z</time></trkpt><trkpt lat="43.01019" lon="2.5689133"><ele>396.0</ele><time>2026-04-26T11:55:28.73Z</time></trkpt><trkpt lat="43.01016" lon="2.568765"><ele>396.0</ele><time>2026-04-26T11:55:29.728Z</time></trkpt><trkpt lat="43.0101483" lon="2.568605"><ele>396.0</ele><time>2026-04-26T11:55:30.734Z</time></trkpt><trkpt lat="43.0101517" lon="2.56844"><ele>397.5</ele><time>2026-04-26T11:55:31.728Z</time></trkpt><trkpt lat="43.01018" lon="2.56828"><ele>399.0</ele><time>2026-04-26T11:55:32.729Z</time></trkpt><trkpt lat="43.010225" lon="2.5681283"><ele>400.5</ele><time>2026-04-26T11:55:33.728Z</time></trkpt><trkpt lat="43.0102633" lon="2.56798"><ele>402.0</ele><time>2026-04-26T11:55:34.73Z</time></trkpt><trkpt lat="43.0102983" lon="2.5678217"><ele>404.5</ele><time>2026-04-26T11:55:35.729Z</time></trkpt><trkpt lat="43.010325" lon="2.5676483"><ele>407.0</ele><time>2026-04-26T11:55:36.729Z</time></trkpt><trkpt lat="43.0103433" lon="2.5674683"><ele>409.5</ele><time>2026-04-26T11:55:37.729Z</time></trkpt><trkpt lat="43.0103567" lon="2.567275"><ele>412.0</ele><time>2026-04-26T11:55:38.728Z</time></trkpt><trkpt lat="43.01038" lon="2.567075"><ele>412.75</ele><time>2026-04-26T11:55:39.727Z</time></trkpt><trkpt lat="43.0104083" lon="2.5668867"><ele>413.5</ele><time>2026-04-26T11:55:40.732Z</time></trkpt><trkpt lat="43.0104367" lon="2.5667133"><ele>414.25</ele><time>2026-04-26T11:55:41.728Z</time></trkpt><trkpt lat="43.010465" lon="2.566565"><ele>415.0</ele><time>2026-04-26T11:55:42.729Z</time></trkpt><trkpt lat="43.0104867" lon="2.5664217"><ele>415.0</ele><time>2026-04-26T11:55:43.73Z</time></trkpt><trkpt lat="43.0105" lon="2.5662783"><ele>415.0</ele><time>2026-04-26T11:55:44.728Z</time></trkpt><trkpt lat="43.010495" lon="2.5661283"><ele>415.0</ele><time>2026-04-26T11:55:45.727Z</time></trkpt><trkpt lat="43.0104833" lon="2.5659667"><ele>415.0</ele><time>2026-04-26T11:55:46.728Z</time></trkpt><trkpt lat="43.010485" lon="2.5657967"><ele>415.25</ele><time>2026-04-26T11:55:47.728Z</time></trkpt><trkpt lat="43.0105067" lon="2.5656383"><ele>415.5</ele><time>2026-04-26T11:55:48.729Z</time></trkpt><trkpt lat="43.0105467" lon="2.56549"><ele>415.75</ele><time>2026-04-26T11:55:49.73Z</time></trkpt><trkpt lat="43.0106067" lon="2.56535"><ele>416.0</ele><time>2026-04-26T11:55:50.728Z</time></trkpt><trkpt lat="43.0106833" lon="2.565235"><ele>416.49999999999994</ele><time>2026-04-26T11:55:51.727Z</time></trkpt><trkpt lat="43.010755" lon="2.5651317"><ele>417.0</ele><time>2026-04-26T11:55:52.727Z</time></trkpt><trkpt lat="43.0108033" lon="2.565025"><ele>417.5</ele><time>2026-04-26T11:55:53.729Z</time></trkpt><trkpt lat="43.0108283" lon="2.56492"><ele>418.0</ele><time>2026-04-26T11:55:54.727Z</time></trkpt><trkpt lat="43.0108233" lon="2.564825"><ele>418.49999999999994</ele><time>2026-04-26T11:55:55.727Z</time></trkpt><trkpt lat="43.0107633" lon="2.5647517"><ele>419.0</ele><time>2026-04-26T11:55:56.73Z</time></trkpt><trkpt lat="43.0106767" lon="2.5647017"><ele>419.0</ele><time>2026-04-26T11:55:57.73Z</time></trkpt><trkpt lat="43.01056" lon="2.5647233"><ele>419.0</ele><time>2026-04-26T11:55:58.731Z</time></trkpt><trkpt lat="43.01045" lon="2.5647967"><ele>419.0</ele><time>2026-04-26T11:55:59.727Z</time></trkpt><trkpt lat="43.0103583" lon="2.5649117"><ele>419.0</ele><time>2026-04-26T11:56:00.73Z</time></trkpt><trkpt lat="43.0102817" lon="2.5650667"><ele>419.0</ele><time>2026-04-26T11:56:01.729Z</time></trkpt><trkpt lat="43.0102167" lon="2.5652367"><ele>419.0</ele><time>2026-04-26T11:56:02.729Z</time></trkpt><trkpt lat="43.0101667" lon="2.565425"><ele>419.0</ele><time>2026-04-26T11:56:03.727Z</time></trkpt><trkpt lat="43.0101417" lon="2.5656233"><ele>419.0</ele><time>2026-04-26T11:56:04.733Z</time></trkpt><trkpt lat="43.0101433" lon="2.5658233"><ele>418.25</ele><time>2026-04-26T11:56:05.727Z</time></trkpt><trkpt lat="43.0101667" lon="2.566005"><ele>417.5</ele><time>2026-04-26T11:56:06.729Z</time></trkpt><trkpt lat="43.0101983" lon="2.5661633"><ele>416.75</ele><time>2026-04-26T11:56:07.728Z</time></trkpt><trkpt lat="43.0102217" lon="2.5663017"><ele>416.0</ele><time>2026-04-26T11:56:08.73Z</time></trkpt><trkpt lat="43.010225" lon="2.5664283"><ele>415.75</ele><time>2026-04-26T11:56:09.728Z</time></trkpt><trkpt lat="43.0102067" lon="2.5665583"><ele>415.5</ele><time>2026-04-26T11:56:10.73Z</time></trkpt><trkpt lat="43.01016" lon="2.5667017"><ele>415.25</ele><time>2026-04-26T11:56:11.728Z</time></trkpt><trkpt lat="43.01011" lon="2.5668583"><ele>415.0</ele><time>2026-04-26T11:56:12.733Z</time></trkpt><trkpt lat="43.0100667" lon="2.5670383"><ele>414.25</ele><time>2026-04-26T11:56:13.728Z</time></trkpt><trkpt lat="43.0100133" lon="2.567225"><ele>413.5</ele><time>2026-04-26T11:56:14.733Z</time></trkpt><trkpt lat="43.009955" lon="2.5674083"><ele>412.75</ele><time>2026-04-26T11:56:15.729Z</time></trkpt><trkpt lat="43.00989" lon="2.5675917"><ele>412.0</ele><time>2026-04-26T11:56:16.73Z</time></trkpt><trkpt lat="43.0098067" lon="2.56779"><ele>424.33333333333337</ele><time>2026-04-26T11:56:17.728Z</time></trkpt><trkpt lat="43.00972" lon="2.5680017"><ele>436.66666666666663</ele><time>2026-04-26T11:56:18.729Z</time></trkpt><trkpt lat="43.00965" lon="2.56823"><ele>449.0</ele><time>2026-04-26T11:56:19.728Z</time></trkpt><trkpt lat="43.0095967" lon="2.5684567"><ele>449.0</ele><time>2026-04-26T11:56:20.731Z</time></trkpt><trkpt lat="43.0095617" lon="2.5686833"><ele>449.0</ele><time>2026-04-26T11:56:21.736Z</time></trkpt><trkpt lat="43.0095367" lon="2.568915"><ele>449.0</ele><time>2026-04-26T11:56:22.732Z</time></trkpt><trkpt lat="43.0095267" lon="2.5691567"><ele>447.0</ele><time>2026-04-26T11:56:23.732Z</time></trkpt><trkpt lat="43.0095167" lon="2.5694"><ele>445.0</ele><time>2026-04-26T11:56:24.73Z</time></trkpt><trkpt lat="43.0095067" lon="2.5696467"><ele>443.0</ele><time>2026-04-26T11:56:25.731Z</time></trkpt><trkpt lat="43.0094867" lon="2.5698933"><ele>442.66666666666663</ele><time>2026-04-26T11:56:26.731Z</time></trkpt><trkpt lat="43.0094583" lon="2.5701317"><ele>442.33333333333337</ele><time>2026-04-26T11:56:27.73Z</time></trkpt><trkpt lat="43.0094267" lon="2.5703683"><ele>442.0</ele><time>2026-04-26T11:56:28.729Z</time></trkpt><trkpt lat="43.0094033" lon="2.5706117"><ele>441.6666666666667</ele><time>2026-04-26T11:56:29.727Z</time></trkpt><trkpt lat="43.0093983" lon="2.5708617"><ele>441.33333333333337</ele><time>2026-04-26T11:56:30.73Z</time></trkpt><trkpt lat="43.0094" lon="2.5711183"><ele>441.0</ele><time>2026-04-26T11:56:31.729Z</time></trkpt><trkpt lat="43.0093917" lon="2.571375"><ele>441.0</ele><time>2026-04-26T11:56:32.73Z</time></trkpt><trkpt lat="43.0093717" lon="2.5716317"><ele>441.0</ele><time>2026-04-26T11:56:33.731Z</time></trkpt><trkpt lat="43.009345" lon="2.57188"><ele>441.0</ele><time>2026-04-26T11:56:34.728Z</time></trkpt><trkpt lat="43.009315" lon="2.5721133"><ele>439.75</ele><time>2026-04-26T11:56:35.729Z</time></trkpt><trkpt lat="43.0092733" lon="2.5723183"><ele>438.5</ele><time>2026-04-26T11:56:36.733Z</time></trkpt><trkpt lat="43.0092417" lon="2.5725083"><ele>437.25</ele><time>2026-04-26T11:56:37.731Z</time></trkpt><trkpt lat="43.009225" lon="2.57267"><ele>436.0</ele><time>2026-04-26T11:56:38.736Z</time></trkpt><trkpt lat="43.0092117" lon="2.572815"><ele>434.8</ele><time>2026-04-26T11:56:39.729Z</time></trkpt><trkpt lat="43.0091817" lon="2.572945"><ele>433.6</ele><time>2026-04-26T11:56:40.728Z</time></trkpt><trkpt lat="43.0091333" lon="2.5730817"><ele>432.4</ele><time>2026-04-26T11:56:41.729Z</time></trkpt><trkpt lat="43.009085" lon="2.5732233"><ele>431.2</ele><time>2026-04-26T11:56:42.73Z</time></trkpt><trkpt lat="43.009045" lon="2.5733733"><ele>430.0</ele><time>2026-04-26T11:56:43.73Z</time></trkpt><trkpt lat="43.0090233" lon="2.5735317"><ele>433.5</ele><time>2026-04-26T11:56:44.732Z</time></trkpt><trkpt lat="43.0090133" lon="2.5736817"><ele>437.0</ele><time>2026-04-26T11:56:45.731Z</time></trkpt><trkpt lat="43.0090017" lon="2.573825"><ele>440.5</ele><time>2026-04-26T11:56:46.729Z</time></trkpt><trkpt lat="43.008975" lon="2.573975"><ele>444.0</ele><time>2026-04-26T11:56:47.729Z</time></trkpt><trkpt lat="43.0089233" lon="2.5741383"><ele>444.0</ele><time>2026-04-26T11:56:48.73Z</time></trkpt><trkpt lat="43.00887" lon="2.574305"><ele>444.0</ele><time>2026-04-26T11:56:49.728Z</time></trkpt><trkpt lat="43.0088267" lon="2.5744667"><ele>444.0</ele><time>2026-04-26T11:56:50.73Z</time></trkpt><trkpt lat="43.0087917" lon="2.5746283"><ele>444.0</ele><time>2026-04-26T11:56:51.729Z</time></trkpt><trkpt lat="43.0087583" lon="2.57477"><ele>442.1666666666667</ele><time>2026-04-26T11:56:52.728Z</time></trkpt><trkpt lat="43.0087033" lon="2.5748933"><ele>440.33333333333337</ele><time>2026-04-26T11:56:53.728Z</time></trkpt><trkpt lat="43.0086433" lon="2.5749883"><ele>438.5</ele><time>2026-04-26T11:56:54.728Z</time></trkpt><trkpt lat="43.0085733" lon="2.575055"><ele>436.6666666666667</ele><time>2026-04-26T11:56:55.731Z</time></trkpt><trkpt lat="43.0085033" lon="2.57508"><ele>434.83333333333337</ele><time>2026-04-26T11:56:56.73Z</time></trkpt><trkpt lat="43.008435" lon="2.5750733"><ele>433.0</ele><time>2026-04-26T11:56:57.728Z</time></trkpt><trkpt lat="43.0083617" lon="2.5749917"><ele>433.5</ele><time>2026-04-26T11:56:58.729Z</time></trkpt><trkpt lat="43.0082883" lon="2.574885"><ele>434.0</ele><time>2026-04-26T11:56:59.73Z</time></trkpt><trkpt lat="43.008225" lon="2.574755"><ele>434.5</ele><time>2026-04-26T11:57:00.731Z</time></trkpt><trkpt lat="43.008155" lon="2.5746017"><ele>435.0</ele><time>2026-04-26T11:57:01.73Z</time></trkpt><trkpt lat="43.0080817" lon="2.5744467"><ele>437.75</ele><time>2026-04-26T11:57:02.738Z</time></trkpt><trkpt lat="43.00801" lon="2.5742983"><ele>440.5</ele><time>2026-04-26T11:57:03.73Z</time></trkpt><trkpt lat="43.007945" lon="2.5741617"><ele>443.25</ele><time>2026-04-26T11:57:04.729Z</time></trkpt><trkpt lat="43.0078783" lon="2.5740417"><ele>446.0</ele><time>2026-04-26T11:57:05.728Z</time></trkpt><trkpt lat="43.0078117" lon="2.5739517"><ele>446.0</ele><time>2026-04-26T11:57:06.729Z</time></trkpt><trkpt lat="43.0077367" lon="2.573915"><ele>446.0</ele><time>2026-04-26T11:57:07.727Z</time></trkpt><trkpt lat="43.0076683" lon="2.57391"><ele>446.0</ele><time>2026-04-26T11:57:08.734Z</time></trkpt><trkpt lat="43.0075833" lon="2.5740733"><ele>446.0</ele><time>2026-04-26T11:57:10.729Z</time></trkpt><trkpt lat="43.0075733" lon="2.5742117"><ele>446.0</ele><time>2026-04-26T11:57:11.728Z</time></trkpt><trkpt lat="43.007555" lon="2.5743367"><ele>446.0</ele><time>2026-04-26T11:57:12.729Z</time></trkpt><trkpt lat="43.0075417" lon="2.574445"><ele>446.0</ele><time>2026-04-26T11:57:13.728Z</time></trkpt><trkpt lat="43.0075167" lon="2.574525"><ele>446.0</ele><time>2026-04-26T11:57:14.729Z</time></trkpt><trkpt lat="43.0073983" lon="2.5745567"><ele>446.0</ele><time>2026-04-26T11:57:16.728Z</time></trkpt><trkpt lat="43.0073083" lon="2.5745033"><ele>446.0</ele><time>2026-04-26T11:57:17.728Z</time></trkpt><trkpt lat="43.0072017" lon="2.5744133"><ele>447.20000000000005</ele><time>2026-04-26T11:57:18.728Z</time></trkpt><trkpt lat="43.0071033" lon="2.5743467"><ele>448.40000000000003</ele><time>2026-04-26T11:57:19.73Z</time></trkpt><trkpt lat="43.0070083" lon="2.5742867"><ele>449.6</ele><time>2026-04-26T11:57:20.727Z</time></trkpt><trkpt lat="43.0069233" lon="2.5742467"><ele>450.8</ele><time>2026-04-26T11:57:21.727Z</time></trkpt><trkpt lat="43.0068367" lon="2.57423"><ele>452.0</ele><time>2026-04-26T11:57:22.727Z</time></trkpt><trkpt lat="43.0067583" lon="2.5742583"><ele>452.0</ele><time>2026-04-26T11:57:23.727Z</time></trkpt><trkpt lat="43.0066833" lon="2.5742967"><ele>452.00000000000006</ele><time>2026-04-26T11:57:24.728Z</time></trkpt><trkpt lat="43.0066017" lon="2.5743217"><ele>452.00000000000006</ele><time>2026-04-26T11:57:25.727Z</time></trkpt><trkpt lat="43.0065067" lon="2.5743083"><ele>452.0</ele><time>2026-04-26T11:57:26.729Z</time></trkpt><trkpt lat="43.0063967" lon="2.57425"><ele>452.0</ele><time>2026-04-26T11:57:27.727Z</time></trkpt><trkpt lat="43.006285" lon="2.5741883"><ele>450.0</ele><time>2026-04-26T11:57:28.727Z</time></trkpt><trkpt lat="43.0061767" lon="2.5741283"><ele>448.00000000000006</ele><time>2026-04-26T11:57:29.727Z</time></trkpt><trkpt lat="43.006075" lon="2.574065"><ele>446.00000000000006</ele><time>2026-04-26T11:57:30.728Z</time></trkpt><trkpt lat="43.0059817" lon="2.5739917"><ele>444.0</ele><time>2026-04-26T11:57:31.727Z</time></trkpt><trkpt lat="43.0059133" lon="2.5738817"><ele>442.0</ele><time>2026-04-26T11:57:32.728Z</time></trkpt><trkpt lat="43.0058583" lon="2.5737417"><ele>447.0</ele><time>2026-04-26T11:57:33.729Z</time></trkpt><trkpt lat="43.0058117" lon="2.57359"><ele>452.0</ele><time>2026-04-26T11:57:34.727Z</time></trkpt><trkpt lat="43.00576" lon="2.573445"><ele>457.0</ele><time>2026-04-26T11:57:35.727Z</time></trkpt><trkpt lat="43.0056983" lon="2.573315"><ele>462.0</ele><time>2026-04-26T11:57:36.729Z</time></trkpt><trkpt lat="43.0056333" lon="2.5731983"><ele>462.0</ele><time>2026-04-26T11:57:37.73Z</time></trkpt><trkpt lat="43.0055533" lon="2.5731083"><ele>462.0</ele><time>2026-04-26T11:57:38.727Z</time></trkpt><trkpt lat="43.0054517" lon="2.5730583"><ele>462.0</ele><time>2026-04-26T11:57:39.728Z</time></trkpt><trkpt lat="43.0053367" lon="2.5730533"><ele>462.0</ele><time>2026-04-26T11:57:40.727Z</time></trkpt><trkpt lat="43.0052117" lon="2.5730883"><ele>462.0</ele><time>2026-04-26T11:57:41.727Z</time></trkpt><trkpt lat="43.0050783" lon="2.5731533"><ele>462.0</ele><time>2026-04-26T11:57:42.73Z</time></trkpt><trkpt lat="43.0049467" lon="2.5732333"><ele>462.0</ele><time>2026-04-26T11:57:43.728Z</time></trkpt><trkpt lat="43.00482" lon="2.573335"><ele>462.0</ele><time>2026-04-26T11:57:44.731Z</time></trkpt><trkpt lat="43.004695" lon="2.5734683"><ele>462.75</ele><time>2026-04-26T11:57:45.727Z</time></trkpt><trkpt lat="43.0045717" lon="2.5736083"><ele>463.5</ele><time>2026-04-26T11:57:46.728Z</time></trkpt><trkpt lat="43.0044633" lon="2.5737433"><ele>464.25</ele><time>2026-04-26T11:57:47.727Z</time></trkpt><trkpt lat="43.00436" lon="2.5738667"><ele>465.0</ele><time>2026-04-26T11:57:48.728Z</time></trkpt><trkpt lat="43.004265" lon="2.5739817"><ele>465.0</ele><time>2026-04-26T11:57:49.732Z</time></trkpt><trkpt lat="43.004165" lon="2.5740717"><ele>465.0</ele><time>2026-04-26T11:57:50.727Z</time></trkpt><trkpt lat="43.0040533" lon="2.5741383"><ele>465.0</ele><time>2026-04-26T11:57:51.729Z</time></trkpt><trkpt lat="43.003925" lon="2.5741933"><ele>465.0</ele><time>2026-04-26T11:57:52.731Z</time></trkpt><trkpt lat="43.00379" lon="2.57426"><ele>466.5</ele><time>2026-04-26T11:57:53.727Z</time></trkpt><trkpt lat="43.003665" lon="2.57433"><ele>468.0</ele><time>2026-04-26T11:57:54.727Z</time></trkpt><trkpt lat="43.0035467" lon="2.5743833"><ele>469.5</ele><time>2026-04-26T11:57:55.731Z</time></trkpt><trkpt lat="43.0034317" lon="2.5744183"><ele>471.0</ele><time>2026-04-26T11:57:56.732Z</time></trkpt><trkpt lat="43.0033283" lon="2.5744283"><ele>471.0</ele><time>2026-04-26T11:57:57.73Z</time></trkpt><trkpt lat="43.0032267" lon="2.57441"><ele>471.0</ele><time>2026-04-26T11:57:58.729Z</time></trkpt><trkpt lat="43.0031417" lon="2.574365"><ele>471.0</ele><time>2026-04-26T11:57:59.729Z</time></trkpt><trkpt lat="43.003035" lon="2.5743"><ele>471.0</ele><time>2026-04-26T11:58:01.728Z</time></trkpt><trkpt lat="43.0029767" lon="2.5743417"><ele>471.0</ele><time>2026-04-26T11:58:02.731Z</time></trkpt><trkpt lat="43.0029233" lon="2.57441"><ele>471.0</ele><time>2026-04-26T11:58:03.727Z</time></trkpt><trkpt lat="43.0028867" lon="2.5745367"><ele>472.75</ele><time>2026-04-26T11:58:04.73Z</time></trkpt><trkpt lat="43.0028267" lon="2.5746783"><ele>474.5</ele><time>2026-04-26T11:58:05.727Z</time></trkpt><trkpt lat="43.0027517" lon="2.5748017"><ele>476.25</ele><time>2026-04-26T11:58:06.729Z</time></trkpt><trkpt lat="43.0026533" lon="2.5749217"><ele>478.0</ele><time>2026-04-26T11:58:07.727Z</time></trkpt><trkpt lat="43.0025483" lon="2.5750267"><ele>478.25</ele><time>2026-04-26T11:58:08.729Z</time></trkpt><trkpt lat="43.0024267" lon="2.575095"><ele>478.5</ele><time>2026-04-26T11:58:09.727Z</time></trkpt><trkpt lat="43.0022883" lon="2.5751317"><ele>478.75</ele><time>2026-04-26T11:58:10.731Z</time></trkpt><trkpt lat="43.0021383" lon="2.57515"><ele>479.0</ele><time>2026-04-26T11:58:11.73Z</time></trkpt><trkpt lat="43.0019933" lon="2.5751967"><ele>479.0</ele><time>2026-04-26T11:58:12.728Z</time></trkpt><trkpt lat="43.0018633" lon="2.575295"><ele>479.0</ele><time>2026-04-26T11:58:13.727Z</time></trkpt><trkpt lat="43.0017417" lon="2.5754367"><ele>479.0</ele><time>2026-04-26T11:58:14.729Z</time></trkpt><trkpt lat="43.0016533" lon="2.575625"><ele>473.66666666666663</ele><time>2026-04-26T11:58:15.729Z</time></trkpt><trkpt lat="43.00159" lon="2.57584"><ele>468.33333333333337</ele><time>2026-04-26T11:58:16.729Z</time></trkpt><trkpt lat="43.0015433" lon="2.57607"><ele>463.0</ele><time>2026-04-26T11:58:17.727Z</time></trkpt><trkpt lat="43.0014933" lon="2.5763067"><ele>463.0</ele><time>2026-04-26T11:58:18.728Z</time></trkpt><trkpt lat="43.001425" lon="2.57654"><ele>463.0</ele><time>2026-04-26T11:58:19.729Z</time></trkpt><trkpt lat="43.0013567" lon="2.576775"><ele>463.0</ele><time>2026-04-26T11:58:20.73Z</time></trkpt><trkpt lat="43.00129" lon="2.5770133"><ele>466.0</ele><time>2026-04-26T11:58:21.729Z</time></trkpt><trkpt lat="43.0012233" lon="2.57725"><ele>469.0</ele><time>2026-04-26T11:58:22.727Z</time></trkpt><trkpt lat="43.0011567" lon="2.5774817"><ele>472.0</ele><time>2026-04-26T11:58:23.727Z</time></trkpt><trkpt lat="43.0010817" lon="2.577695"><ele>477.6666666666667</ele><time>2026-04-26T11:58:24.727Z</time></trkpt><trkpt lat="43.00099" lon="2.57789"><ele>483.33333333333337</ele><time>2026-04-26T11:58:25.731Z</time></trkpt><trkpt lat="43.0008883" lon="2.5780733"><ele>489.0</ele><time>2026-04-26T11:58:26.729Z</time></trkpt><trkpt lat="43.0007783" lon="2.57825"><ele>489.0</ele><time>2026-04-26T11:58:27.728Z</time></trkpt><trkpt lat="43.0006717" lon="2.578415"><ele>489.0</ele><time>2026-04-26T11:58:28.73Z</time></trkpt><trkpt lat="43.0005733" lon="2.578565"><ele>489.0</ele><time>2026-04-26T11:58:29.728Z</time></trkpt><trkpt lat="43.0004733" lon="2.5786833"><ele>489.0</ele><time>2026-04-26T11:58:30.728Z</time></trkpt><trkpt lat="43.0003683" lon="2.5787467"><ele>489.0</ele><time>2026-04-26T11:58:31.731Z</time></trkpt><trkpt lat="43.000265" lon="2.57874"><ele>489.0</ele><time>2026-04-26T11:58:32.728Z</time></trkpt><trkpt lat="43.00017" lon="2.57866"><ele>489.0</ele><time>2026-04-26T11:58:33.728Z</time></trkpt><trkpt lat="43.0000967" lon="2.578525"><ele>489.0</ele><time>2026-04-26T11:58:34.727Z</time></trkpt><trkpt lat="43.0000267" lon="2.5783833"><ele>489.0</ele><time>2026-04-26T11:58:35.727Z</time></trkpt><trkpt lat="42.999945" lon="2.5782633"><ele>489.0</ele><time>2026-04-26T11:58:36.728Z</time></trkpt><trkpt lat="42.9998383" lon="2.57819"><ele>489.0</ele><time>2026-04-26T11:58:37.728Z</time></trkpt><trkpt lat="42.999715" lon="2.5781867"><ele>489.0</ele><time>2026-04-26T11:58:38.729Z</time></trkpt><trkpt lat="42.9995867" lon="2.5782417"><ele>489.0</ele><time>2026-04-26T11:58:39.728Z</time></trkpt><trkpt lat="42.999465" lon="2.5783483"><ele>489.0</ele><time>2026-04-26T11:58:40.727Z</time></trkpt><trkpt lat="42.9993617" lon="2.5784883"><ele>489.0</ele><time>2026-04-26T11:58:41.728Z</time></trkpt><trkpt lat="42.999265" lon="2.578655"><ele>489.0</ele><time>2026-04-26T11:58:42.729Z</time></trkpt><trkpt lat="42.9991667" lon="2.5788283"><ele>493.66666666666663</ele><time>2026-04-26T11:58:43.728Z</time></trkpt><trkpt lat="42.9990567" lon="2.57898"><ele>498.3333333333333</ele><time>2026-04-26T11:58:44.73Z</time></trkpt><trkpt lat="42.9989333" lon="2.5791017"><ele>503.0</ele><time>2026-04-26T11:58:45.727Z</time></trkpt><trkpt lat="42.9988083" lon="2.5792283"><ele>503.0</ele><time>2026-04-26T11:58:46.727Z</time></trkpt><trkpt lat="42.998705" lon="2.57939"><ele>503.0</ele><time>2026-04-26T11:58:47.729Z</time></trkpt><trkpt lat="42.9986283" lon="2.57957"><ele>503.0</ele><time>2026-04-26T11:58:48.731Z</time></trkpt><trkpt lat="42.9985583" lon="2.5797467"><ele>502.0</ele><time>2026-04-26T11:58:49.729Z</time></trkpt><trkpt lat="42.99846" lon="2.5798967"><ele>501.0</ele><time>2026-04-26T11:58:50.73Z</time></trkpt><trkpt lat="42.99833" lon="2.5800083"><ele>500.0</ele><time>2026-04-26T11:58:51.728Z</time></trkpt><trkpt lat="42.99819" lon="2.5801167"><ele>500.0</ele><time>2026-04-26T11:58:52.734Z</time></trkpt><trkpt lat="42.9980567" lon="2.5802483"><ele>500.0</ele><time>2026-04-26T11:58:53.727Z</time></trkpt><trkpt lat="42.9979367" lon="2.58039"><ele>500.0</ele><time>2026-04-26T11:58:54.729Z</time></trkpt><trkpt lat="42.9978383" lon="2.58054"><ele>504.0</ele><time>2026-04-26T11:58:55.729Z</time></trkpt><trkpt lat="42.997775" lon="2.5807217"><ele>508.0</ele><time>2026-04-26T11:58:56.73Z</time></trkpt><trkpt lat="42.9977533" lon="2.5809167"><ele>512.0</ele><time>2026-04-26T11:58:57.73Z</time></trkpt><trkpt lat="42.9977467" lon="2.58111"><ele>516.0</ele><time>2026-04-26T11:58:58.728Z</time></trkpt><trkpt lat="42.997725" lon="2.58128"><ele>516.25</ele><time>2026-04-26T11:58:59.727Z</time></trkpt><trkpt lat="42.9976633" lon="2.581405"><ele>516.5</ele><time>2026-04-26T11:59:00.727Z</time></trkpt><trkpt lat="42.9975583" lon="2.5814567"><ele>516.75</ele><time>2026-04-26T11:59:01.733Z</time></trkpt><trkpt lat="42.9974333" lon="2.58145"><ele>517.0</ele><time>2026-04-26T11:59:02.729Z</time></trkpt><trkpt lat="42.9973033" lon="2.5813767"><ele>517.0</ele><time>2026-04-26T11:59:03.727Z</time></trkpt><trkpt lat="42.997165" lon="2.581285"><ele>517.0</ele><time>2026-04-26T11:59:04.729Z</time></trkpt><trkpt lat="42.9970233" lon="2.5812033"><ele>517.0</ele><time>2026-04-26T11:59:05.728Z</time></trkpt><trkpt lat="42.996875" lon="2.58116"><ele>516.0</ele><time>2026-04-26T11:59:06.728Z</time></trkpt><trkpt lat="42.9967233" lon="2.5811817"><ele>515.0</ele><time>2026-04-26T11:59:07.73Z</time></trkpt><trkpt lat="42.9965783" lon="2.581265"><ele>514.0</ele><time>2026-04-26T11:59:08.728Z</time></trkpt><trkpt lat="42.9964467" lon="2.5813933"><ele>514.0</ele><time>2026-04-26T11:59:09.728Z</time></trkpt><trkpt lat="42.9963167" lon="2.581545"><ele>514.0</ele><time>2026-04-26T11:59:10.729Z</time></trkpt><trkpt lat="42.996185" lon="2.5816883"><ele>514.0</ele><time>2026-04-26T11:59:11.731Z</time></trkpt><trkpt lat="42.9960467" lon="2.5818067"><ele>514.0</ele><time>2026-04-26T11:59:12.73Z</time></trkpt><trkpt lat="42.9959033" lon="2.5818983"><ele>514.0</ele><time>2026-04-26T11:59:13.728Z</time></trkpt><trkpt lat="42.9957567" lon="2.581965"><ele>514.0</ele><time>2026-04-26T11:59:14.728Z</time></trkpt><trkpt lat="42.9956083" lon="2.5819983"><ele>513.3333333333334</ele><time>2026-04-26T11:59:15.729Z</time></trkpt><trkpt lat="42.9954567" lon="2.58199"><ele>512.6666666666666</ele><time>2026-04-26T11:59:16.729Z</time></trkpt><trkpt lat="42.9953033" lon="2.5819383"><ele>512.0</ele><time>2026-04-26T11:59:17.73Z</time></trkpt><trkpt lat="42.99516" lon="2.5818433"><ele>512.0</ele><time>2026-04-26T11:59:18.732Z</time></trkpt><trkpt lat="42.9950367" lon="2.5816867"><ele>512.0</ele><time>2026-04-26T11:59:19.732Z</time></trkpt><trkpt lat="42.9949217" lon="2.58151"><ele>512.0</ele><time>2026-04-26T11:59:20.729Z</time></trkpt><trkpt lat="42.9948083" lon="2.5813233"><ele>514.0</ele><time>2026-04-26T11:59:21.729Z</time></trkpt><trkpt lat="42.994695" lon="2.5811367"><ele>516.0</ele><time>2026-04-26T11:59:22.728Z</time></trkpt><trkpt lat="42.9945817" lon="2.5809533"><ele>518.0</ele><time>2026-04-26T11:59:23.73Z</time></trkpt><trkpt lat="42.99447" lon="2.5807817"><ele>518.0</ele><time>2026-04-26T11:59:24.729Z</time></trkpt><trkpt lat="42.9943567" lon="2.58062"><ele>518.0</ele><time>2026-04-26T11:59:25.728Z</time></trkpt><trkpt lat="42.9942317" lon="2.5804733"><ele>518.0</ele><time>2026-04-26T11:59:26.727Z</time></trkpt><trkpt lat="42.9940983" lon="2.58034"><ele>519.3333333333333</ele><time>2026-04-26T11:59:27.729Z</time></trkpt><trkpt lat="42.99396" lon="2.580215"><ele>520.6666666666666</ele><time>2026-04-26T11:59:28.729Z</time></trkpt><trkpt lat="42.993815" lon="2.5801017"><ele>522.0</ele><time>2026-04-26T11:59:29.731Z</time></trkpt><trkpt lat="42.9936633" lon="2.5800067"><ele>522.0</ele><time>2026-04-26T11:59:30.73Z</time></trkpt><trkpt lat="42.993515" lon="2.57992"><ele>522.0</ele><time>2026-04-26T11:59:31.73Z</time></trkpt><trkpt lat="42.99337" lon="2.5798383"><ele>522.0</ele><time>2026-04-26T11:59:32.729Z</time></trkpt><trkpt lat="42.9932317" lon="2.5797567"><ele>522.75</ele><time>2026-04-26T11:59:33.728Z</time></trkpt><trkpt lat="42.993095" lon="2.5796717"><ele>523.5</ele><time>2026-04-26T11:59:34.731Z</time></trkpt><trkpt lat="42.99296" lon="2.5795917"><ele>524.25</ele><time>2026-04-26T11:59:35.727Z</time></trkpt><trkpt lat="42.9928233" lon="2.579525"><ele>525.0</ele><time>2026-04-26T11:59:36.729Z</time></trkpt><trkpt lat="42.9926817" lon="2.5794633"><ele>525.0</ele><time>2026-04-26T11:59:37.73Z</time></trkpt><trkpt lat="42.9925483" lon="2.5793783"><ele>525.0</ele><time>2026-04-26T11:59:38.729Z</time></trkpt><trkpt lat="42.9924283" lon="2.5792583"><ele>525.0</ele><time>2026-04-26T11:59:39.729Z</time></trkpt><trkpt lat="42.9923267" lon="2.579115"><ele>525.0</ele><time>2026-04-26T11:59:40.728Z</time></trkpt><trkpt lat="42.9922417" lon="2.5789583"><ele>523.0</ele><time>2026-04-26T11:59:41.728Z</time></trkpt><trkpt lat="42.992175" lon="2.5787933"><ele>521.0</ele><time>2026-04-26T11:59:42.728Z</time></trkpt><trkpt lat="42.9921267" lon="2.5786333"><ele>519.0</ele><time>2026-04-26T11:59:43.728Z</time></trkpt><trkpt lat="42.992085" lon="2.5784983"><ele>517.0</ele><time>2026-04-26T11:59:44.728Z</time></trkpt><trkpt lat="42.9920267" lon="2.578415"><ele>517.0</ele><time>2026-04-26T11:59:45.727Z</time></trkpt><trkpt lat="42.9919483" lon="2.57839"><ele>517.0</ele><time>2026-04-26T11:59:46.728Z</time></trkpt><trkpt lat="42.9918683" lon="2.5784183"><ele>517.0</ele><time>2026-04-26T11:59:47.729Z</time></trkpt><trkpt lat="42.99178" lon="2.57849"><ele>517.0</ele><time>2026-04-26T11:59:48.729Z</time></trkpt><trkpt lat="42.991675" lon="2.5785617"><ele>517.0</ele><time>2026-04-26T11:59:49.73Z</time></trkpt><trkpt lat="42.991555" lon="2.5785917"><ele>513.5</ele><time>2026-04-26T11:59:50.732Z</time></trkpt><trkpt lat="42.991425" lon="2.5785767"><ele>510.0</ele><time>2026-04-26T11:59:51.73Z</time></trkpt><trkpt lat="42.9913017" lon="2.5785133"><ele>506.5</ele><time>2026-04-26T11:59:52.728Z</time></trkpt><trkpt lat="42.99118" lon="2.5784167"><ele>503.0</ele><time>2026-04-26T11:59:53.728Z</time></trkpt><trkpt lat="42.9910583" lon="2.5783"><ele>503.0</ele><time>2026-04-26T11:59:54.73Z</time></trkpt><trkpt lat="42.9909433" lon="2.578175"><ele>503.0</ele><time>2026-04-26T11:59:55.73Z</time></trkpt><trkpt lat="42.9908417" lon="2.5780233"><ele>503.0</ele><time>2026-04-26T11:59:56.728Z</time></trkpt><trkpt lat="42.9907583" lon="2.5778483"><ele>502.3333333333333</ele><time>2026-04-26T11:59:57.728Z</time></trkpt><trkpt lat="42.99069" lon="2.577655"><ele>501.66666666666663</ele><time>2026-04-26T11:59:58.728Z</time></trkpt><trkpt lat="42.990625" lon="2.5774583"><ele>501.0</ele><time>2026-04-26T11:59:59.729Z</time></trkpt><trkpt lat="42.9905633" lon="2.5772617"><ele>501.0</ele><time>2026-04-26T12:00:00.73Z</time></trkpt><trkpt lat="42.9904967" lon="2.5770717"><ele>501.0</ele><time>2026-04-26T12:00:01.729Z</time></trkpt><trkpt lat="42.9904233" lon="2.5768933"><ele>501.0</ele><time>2026-04-26T12:00:02.729Z</time></trkpt><trkpt lat="42.99033" lon="2.576745"><ele>501.0</ele><time>2026-04-26T12:00:03.729Z</time></trkpt><trkpt lat="42.99021" lon="2.5766417"><ele>505.0</ele><time>2026-04-26T12:00:04.728Z</time></trkpt><trkpt lat="42.9900633" lon="2.5765933"><ele>509.0</ele><time>2026-04-26T12:00:05.73Z</time></trkpt><trkpt lat="42.9899117" lon="2.576575"><ele>513.0</ele><time>2026-04-26T12:00:06.728Z</time></trkpt><trkpt lat="42.9897633" lon="2.5765583"><ele>503.33333333333337</ele><time>2026-04-26T12:00:07.732Z</time></trkpt><trkpt lat="42.9896117" lon="2.576525"><ele>493.6666666666667</ele><time>2026-04-26T12:00:08.728Z</time></trkpt><trkpt lat="42.9894667" lon="2.5764533"><ele>484.0</ele><time>2026-04-26T12:00:09.729Z</time></trkpt><trkpt lat="42.98933" lon="2.5763517"><ele>484.0</ele><time>2026-04-26T12:00:10.728Z</time></trkpt><trkpt lat="42.9891983" lon="2.576235"><ele>484.0</ele><time>2026-04-26T12:00:11.728Z</time></trkpt><trkpt lat="42.9890683" lon="2.5761183"><ele>484.0</ele><time>2026-04-26T12:00:12.728Z</time></trkpt><trkpt lat="42.9889233" lon="2.5760317"><ele>486.33333333333337</ele><time>2026-04-26T12:00:13.73Z</time></trkpt><trkpt lat="42.988765" lon="2.5759717"><ele>488.66666666666663</ele><time>2026-04-26T12:00:14.728Z</time></trkpt><trkpt lat="42.988595" lon="2.57593"><ele>491.0</ele><time>2026-04-26T12:00:15.728Z</time></trkpt><trkpt lat="42.98842" lon="2.5758933"><ele>484.66666666666663</ele><time>2026-04-26T12:00:16.729Z</time></trkpt><trkpt lat="42.9882467" lon="2.5758467"><ele>478.33333333333337</ele><time>2026-04-26T12:00:17.728Z</time></trkpt><trkpt lat="42.9880833" lon="2.5757867"><ele>472.0</ele><time>2026-04-26T12:00:18.728Z</time></trkpt><trkpt lat="42.9879283" lon="2.5757117"><ele>472.0</ele><time>2026-04-26T12:00:19.729Z</time></trkpt><trkpt lat="42.9877883" lon="2.5756117"><ele>472.0</ele><time>2026-04-26T12:00:20.731Z</time></trkpt><trkpt lat="42.9876533" lon="2.5754917"><ele>472.0</ele><time>2026-04-26T12:00:21.73Z</time></trkpt><trkpt lat="42.987525" lon="2.57535"><ele>471.33333333333337</ele><time>2026-04-26T12:00:22.733Z</time></trkpt><trkpt lat="42.9874" lon="2.57519"><ele>470.66666666666663</ele><time>2026-04-26T12:00:23.729Z</time></trkpt><trkpt lat="42.9872783" lon="2.57502"><ele>470.0</ele><time>2026-04-26T12:00:24.73Z</time></trkpt><trkpt lat="42.9871533" lon="2.5748517"><ele>470.0</ele><time>2026-04-26T12:00:25.729Z</time></trkpt><trkpt lat="42.9870267" lon="2.5746917"><ele>470.0</ele><time>2026-04-26T12:00:26.729Z</time></trkpt><trkpt lat="42.9869017" lon="2.5745417"><ele>470.0</ele><time>2026-04-26T12:00:27.729Z</time></trkpt><trkpt lat="42.986775" lon="2.57441"><ele>468.0</ele><time>2026-04-26T12:00:28.735Z</time></trkpt><trkpt lat="42.9866467" lon="2.5743033"><ele>466.0</ele><time>2026-04-26T12:00:29.729Z</time></trkpt><trkpt lat="42.9865117" lon="2.5742367"><ele>464.0</ele><time>2026-04-26T12:00:30.729Z</time></trkpt><trkpt lat="42.986375" lon="2.5742317"><ele>462.0</ele><time>2026-04-26T12:00:31.728Z</time></trkpt><trkpt lat="42.9862533" lon="2.5742817"><ele>462.0</ele><time>2026-04-26T12:00:32.731Z</time></trkpt><trkpt lat="42.9861567" lon="2.5743933"><ele>462.0</ele><time>2026-04-26T12:00:33.73Z</time></trkpt><trkpt lat="42.9860817" lon="2.5745517"><ele>462.0</ele><time>2026-04-26T12:00:34.733Z</time></trkpt><trkpt lat="42.9860067" lon="2.5747183"><ele>462.0</ele><time>2026-04-26T12:00:35.73Z</time></trkpt><trkpt lat="42.9859167" lon="2.5748683"><ele>459.5</ele><time>2026-04-26T12:00:36.729Z</time></trkpt><trkpt lat="42.98582" lon="2.575"><ele>457.0</ele><time>2026-04-26T12:00:37.729Z</time></trkpt><trkpt lat="42.98572" lon="2.5751133"><ele>454.5</ele><time>2026-04-26T12:00:38.729Z</time></trkpt><trkpt lat="42.98561" lon="2.575195"><ele>452.0</ele><time>2026-04-26T12:00:39.729Z</time></trkpt><trkpt lat="42.985485" lon="2.575225"><ele>452.0</ele><time>2026-04-26T12:00:40.729Z</time></trkpt><trkpt lat="42.98535" lon="2.5752117"><ele>452.0</ele><time>2026-04-26T12:00:41.729Z</time></trkpt><trkpt lat="42.985215" lon="2.5751733"><ele>452.0</ele><time>2026-04-26T12:00:42.736Z</time></trkpt><trkpt lat="42.985085" lon="2.5751167"><ele>452.0</ele><time>2026-04-26T12:00:43.728Z</time></trkpt><trkpt lat="42.98497" lon="2.5750267"><ele>451.0</ele><time>2026-04-26T12:00:44.729Z</time></trkpt><trkpt lat="42.9848717" lon="2.574895"><ele>450.0</ele><time>2026-04-26T12:00:45.728Z</time></trkpt><trkpt lat="42.9847817" lon="2.5747417"><ele>449.0</ele><time>2026-04-26T12:00:46.729Z</time></trkpt><trkpt lat="42.9846883" lon="2.5745867"><ele>448.0</ele><time>2026-04-26T12:00:47.728Z</time></trkpt><trkpt lat="42.9845817" lon="2.5744317"><ele>451.0</ele><time>2026-04-26T12:00:48.736Z</time></trkpt><trkpt lat="42.9844633" lon="2.57429"><ele>454.0</ele><time>2026-04-26T12:00:49.73Z</time></trkpt><trkpt lat="42.98434" lon="2.5741717"><ele>457.0</ele><time>2026-04-26T12:00:50.73Z</time></trkpt><trkpt lat="42.98421" lon="2.5740733"><ele>454.0</ele><time>2026-04-26T12:00:51.728Z</time></trkpt><trkpt lat="42.9840733" lon="2.574"><ele>451.0</ele><time>2026-04-26T12:00:52.729Z</time></trkpt><trkpt lat="42.9839317" lon="2.573955"><ele>448.0</ele><time>2026-04-26T12:00:53.729Z</time></trkpt><trkpt lat="42.9837917" lon="2.573935"><ele>445.0</ele><time>2026-04-26T12:00:54.728Z</time></trkpt><trkpt lat="42.9836533" lon="2.573945"><ele>445.0</ele><time>2026-04-26T12:00:55.729Z</time></trkpt><trkpt lat="42.9835233" lon="2.5739833"><ele>445.0</ele><time>2026-04-26T12:00:56.729Z</time></trkpt><trkpt lat="42.9834017" lon="2.5740533"><ele>445.0</ele><time>2026-04-26T12:00:57.728Z</time></trkpt><trkpt lat="42.9832933" lon="2.5741583"><ele>445.0</ele><time>2026-04-26T12:00:58.729Z</time></trkpt><trkpt lat="42.9831933" lon="2.574285"><ele>444.75</ele><time>2026-04-26T12:00:59.73Z</time></trkpt><trkpt lat="42.9830833" lon="2.57441"><ele>444.5</ele><time>2026-04-26T12:01:00.729Z</time></trkpt><trkpt lat="42.98296" lon="2.5745183"><ele>444.25</ele><time>2026-04-26T12:01:01.728Z</time></trkpt><trkpt lat="42.98283" lon="2.57462"><ele>444.0</ele><time>2026-04-26T12:01:02.73Z</time></trkpt><trkpt lat="42.9827067" lon="2.5747417"><ele>443.66666666666663</ele><time>2026-04-26T12:01:03.729Z</time></trkpt><trkpt lat="42.9825967" lon="2.574895"><ele>443.3333333333333</ele><time>2026-04-26T12:01:04.728Z</time></trkpt><trkpt lat="42.9824983" lon="2.5750717"><ele>443.0</ele><time>2026-04-26T12:01:05.729Z</time></trkpt><trkpt lat="42.982405" lon="2.5752567"><ele>438.3333333333333</ele><time>2026-04-26T12:01:06.731Z</time></trkpt><trkpt lat="42.9823117" lon="2.5754367"><ele>433.66666666666663</ele><time>2026-04-26T12:01:07.729Z</time></trkpt><trkpt lat="42.982215" lon="2.5756017"><ele>429.0</ele><time>2026-04-26T12:01:08.729Z</time></trkpt><trkpt lat="42.9821217" lon="2.5757583"><ele>429.0</ele><time>2026-04-26T12:01:09.729Z</time></trkpt><trkpt lat="42.9820267" lon="2.5758983"><ele>429.0</ele><time>2026-04-26T12:01:10.728Z</time></trkpt><trkpt lat="42.981925" lon="2.5760033"><ele>429.0</ele><time>2026-04-26T12:01:11.728Z</time></trkpt><trkpt lat="42.9818117" lon="2.57606"><ele>429.0</ele><time>2026-04-26T12:01:12.728Z</time></trkpt><trkpt lat="42.9816933" lon="2.5760833"><ele>430.3333333333333</ele><time>2026-04-26T12:01:13.728Z</time></trkpt><trkpt lat="42.98158" lon="2.5761"><ele>431.66666666666663</ele><time>2026-04-26T12:01:14.729Z</time></trkpt><trkpt lat="42.9814783" lon="2.5761167"><ele>433.0</ele><time>2026-04-26T12:01:15.728Z</time></trkpt><trkpt lat="42.9813917" lon="2.5761383"><ele>434.3333333333333</ele><time>2026-04-26T12:01:16.728Z</time></trkpt><trkpt lat="42.9813183" lon="2.5761433"><ele>435.66666666666663</ele><time>2026-04-26T12:01:17.729Z</time></trkpt><trkpt lat="42.981255" lon="2.576115"><ele>437.0</ele><time>2026-04-26T12:01:18.73Z</time></trkpt><trkpt lat="42.981195" lon="2.5760533"><ele>437.0</ele><time>2026-04-26T12:01:19.728Z</time></trkpt><trkpt lat="42.9811367" lon="2.5759633"><ele>437.00000000000006</ele><time>2026-04-26T12:01:20.733Z</time></trkpt><trkpt lat="42.9810733" lon="2.5758667"><ele>437.00000000000006</ele><time>2026-04-26T12:01:21.729Z</time></trkpt><trkpt lat="42.98101" lon="2.5757667"><ele>437.0</ele><time>2026-04-26T12:01:22.728Z</time></trkpt><trkpt lat="42.9809483" lon="2.5756733"><ele>437.0</ele><time>2026-04-26T12:01:23.728Z</time></trkpt><trkpt lat="42.980905" lon="2.5755717"><ele>437.0</ele><time>2026-04-26T12:01:24.728Z</time></trkpt><trkpt lat="42.98088" lon="2.5754567"><ele>437.00000000000006</ele><time>2026-04-26T12:01:25.728Z</time></trkpt><trkpt lat="42.9808767" lon="2.5753183"><ele>437.00000000000006</ele><time>2026-04-26T12:01:26.737Z</time></trkpt><trkpt lat="42.980885" lon="2.5751667"><ele>437.0</ele><time>2026-04-26T12:01:27.728Z</time></trkpt><trkpt lat="42.980905" lon="2.5750167"><ele>437.0</ele><time>2026-04-26T12:01:28.728Z</time></trkpt><trkpt lat="42.9809333" lon="2.5748617"><ele>436.75</ele><time>2026-04-26T12:01:29.729Z</time></trkpt><trkpt lat="42.980965" lon="2.574705"><ele>436.5</ele><time>2026-04-26T12:01:30.729Z</time></trkpt><trkpt lat="42.98099" lon="2.5745433"><ele>436.25</ele><time>2026-04-26T12:01:31.728Z</time></trkpt><trkpt lat="42.9810117" lon="2.57439"><ele>436.0</ele><time>2026-04-26T12:01:32.73Z</time></trkpt><trkpt lat="42.9810333" lon="2.5742433"><ele>436.0</ele><time>2026-04-26T12:01:33.728Z</time></trkpt><trkpt lat="42.9810567" lon="2.574095"><ele>436.0</ele><time>2026-04-26T12:01:34.732Z</time></trkpt><trkpt lat="42.981085" lon="2.573955"><ele>436.0</ele><time>2026-04-26T12:01:35.73Z</time></trkpt><trkpt lat="42.9811233" lon="2.573835"><ele>436.0</ele><time>2026-04-26T12:01:36.729Z</time></trkpt><trkpt lat="42.98116" lon="2.5737283"><ele>436.0</ele><time>2026-04-26T12:01:37.728Z</time></trkpt><trkpt lat="42.9812033" lon="2.5736367"><ele>432.4</ele><time>2026-04-26T12:01:38.729Z</time></trkpt><trkpt lat="42.9812483" lon="2.573545"><ele>428.8</ele><time>2026-04-26T12:01:39.73Z</time></trkpt><trkpt lat="42.9813167" lon="2.5734517"><ele>425.2</ele><time>2026-04-26T12:01:40.735Z</time></trkpt><trkpt lat="42.9814083" lon="2.5733517"><ele>421.59999999999997</ele><time>2026-04-26T12:01:41.729Z</time></trkpt><trkpt lat="42.981505" lon="2.573245"><ele>418.0</ele><time>2026-04-26T12:01:42.729Z</time></trkpt><trkpt lat="42.9816083" lon="2.5731317"><ele>418.5</ele><time>2026-04-26T12:01:43.728Z</time></trkpt><trkpt lat="42.9817117" lon="2.5730067"><ele>419.0</ele><time>2026-04-26T12:01:44.73Z</time></trkpt><trkpt lat="42.981815" lon="2.5728767"><ele>419.5</ele><time>2026-04-26T12:01:45.73Z</time></trkpt><trkpt lat="42.9819217" lon="2.57275"><ele>420.0</ele><time>2026-04-26T12:01:46.729Z</time></trkpt><trkpt lat="42.9820333" lon="2.5726283"><ele>420.0</ele><time>2026-04-26T12:01:47.728Z</time></trkpt><trkpt lat="42.9821383" lon="2.5724983"><ele>420.0</ele><time>2026-04-26T12:01:48.732Z</time></trkpt><trkpt lat="42.98223" lon="2.5723583"><ele>420.0</ele><time>2026-04-26T12:01:49.728Z</time></trkpt><trkpt lat="42.9823133" lon="2.5722267"><ele>420.0</ele><time>2026-04-26T12:01:50.728Z</time></trkpt><trkpt lat="42.98239" lon="2.57211"><ele>418.75</ele><time>2026-04-26T12:01:51.729Z</time></trkpt><trkpt lat="42.9824733" lon="2.5720183"><ele>417.5</ele><time>2026-04-26T12:01:52.729Z</time></trkpt><trkpt lat="42.9825667" lon="2.5719283"><ele>416.25</ele><time>2026-04-26T12:01:53.73Z</time></trkpt><trkpt lat="42.98267" lon="2.5718367"><ele>415.0</ele><time>2026-04-26T12:01:54.729Z</time></trkpt><trkpt lat="42.9827767" lon="2.5717433"><ele>415.0</ele><time>2026-04-26T12:01:55.729Z</time></trkpt><trkpt lat="42.9828783" lon="2.5716567"><ele>415.0</ele><time>2026-04-26T12:01:56.73Z</time></trkpt><trkpt lat="42.9829767" lon="2.571575"><ele>415.0</ele><time>2026-04-26T12:01:57.728Z</time></trkpt><trkpt lat="42.9830767" lon="2.571505"><ele>415.0</ele><time>2026-04-26T12:01:58.729Z</time></trkpt><trkpt lat="42.9831683" lon="2.5714483"><ele>415.0</ele><time>2026-04-26T12:01:59.728Z</time></trkpt><trkpt lat="42.983255" lon="2.5714133"><ele>415.0</ele><time>2026-04-26T12:02:00.734Z</time></trkpt><trkpt lat="42.9833417" lon="2.5714067"><ele>415.0</ele><time>2026-04-26T12:02:01.729Z</time></trkpt><trkpt lat="42.983435" lon="2.5714433"><ele>415.0</ele><time>2026-04-26T12:02:02.73Z</time></trkpt><trkpt lat="42.9835367" lon="2.5714883"><ele>415.0</ele><time>2026-04-26T12:02:03.729Z</time></trkpt><trkpt lat="42.98364" lon="2.571525"><ele>415.0</ele><time>2026-04-26T12:02:04.73Z</time></trkpt><trkpt lat="42.98375" lon="2.5715517"><ele>415.0</ele><time>2026-04-26T12:02:05.733Z</time></trkpt><trkpt lat="42.9838733" lon="2.5715717"><ele>415.0</ele><time>2026-04-26T12:02:06.73Z</time></trkpt><trkpt lat="42.984" lon="2.57159"><ele>415.0</ele><time>2026-04-26T12:02:07.733Z</time></trkpt><trkpt lat="42.984125" lon="2.5715967"><ele>415.0</ele><time>2026-04-26T12:02:08.728Z</time></trkpt><trkpt lat="42.9842483" lon="2.571585"><ele>415.83333333333337</ele><time>2026-04-26T12:02:09.73Z</time></trkpt><trkpt lat="42.984355" lon="2.5715617"><ele>416.6666666666667</ele><time>2026-04-26T12:02:10.729Z</time></trkpt><trkpt lat="42.98445" lon="2.5715267"><ele>417.5</ele><time>2026-04-26T12:02:11.729Z</time></trkpt><trkpt lat="42.9845167" lon="2.5714767"><ele>418.33333333333337</ele><time>2026-04-26T12:02:12.735Z</time></trkpt><trkpt lat="42.9845733" lon="2.5714183"><ele>419.1666666666667</ele><time>2026-04-26T12:02:13.731Z</time></trkpt><trkpt lat="42.9846033" lon="2.5713233"><ele>420.0</ele><time>2026-04-26T12:02:14.728Z</time></trkpt><trkpt lat="42.9846267" lon="2.5712133"><ele>418.5</ele><time>2026-04-26T12:02:15.728Z</time></trkpt><trkpt lat="42.9846483" lon="2.5710967"><ele>417.0</ele><time>2026-04-26T12:02:16.728Z</time></trkpt><trkpt lat="42.9846817" lon="2.5709783"><ele>415.5</ele><time>2026-04-26T12:02:17.73Z</time></trkpt><trkpt lat="42.9847333" lon="2.57088"><ele>414.0</ele><time>2026-04-26T12:02:18.729Z</time></trkpt><trkpt lat="42.9847833" lon="2.570795"><ele>412.5</ele><time>2026-04-26T12:02:19.729Z</time></trkpt><trkpt lat="42.9848233" lon="2.5707167"><ele>411.0</ele><time>2026-04-26T12:02:20.728Z</time></trkpt><trkpt lat="42.9848417" lon="2.5705983"><ele>411.0</ele><time>2026-04-26T12:02:22.728Z</time></trkpt><trkpt lat="42.9847867" lon="2.5705133"><ele>411.0</ele><time>2026-04-26T12:02:25.728Z</time></trkpt><trkpt lat="42.9847467" lon="2.570445"><ele>411.0</ele><time>2026-04-26T12:02:27.728Z</time></trkpt><trkpt lat="42.9846617" lon="2.570435"><ele>411.0</ele><time>2026-04-26T12:02:29.729Z</time></trkpt><trkpt lat="42.984525" lon="2.5705017"><ele>411.0</ele><time>2026-04-26T12:02:31.73Z</time></trkpt><trkpt lat="42.9844383" lon="2.5705417"><ele>411.0</ele><time>2026-04-26T12:02:32.73Z</time></trkpt><trkpt lat="42.9843433" lon="2.5705617"><ele>411.0</ele><time>2026-04-26T12:02:33.728Z</time></trkpt><trkpt lat="42.9842367" lon="2.5705617"><ele>411.0</ele><time>2026-04-26T12:02:34.728Z</time></trkpt><trkpt lat="42.9841167" lon="2.5705483"><ele>411.0</ele><time>2026-04-26T12:02:35.729Z</time></trkpt><trkpt lat="42.983985" lon="2.5705367"><ele>410.75</ele><time>2026-04-26T12:02:36.736Z</time></trkpt><trkpt lat="42.98385" lon="2.5705283"><ele>410.5</ele><time>2026-04-26T12:02:37.729Z</time></trkpt><trkpt lat="42.9837083" lon="2.5705267"><ele>410.25</ele><time>2026-04-26T12:02:38.728Z</time></trkpt><trkpt lat="42.983565" lon="2.5705267"><ele>410.0</ele><time>2026-04-26T12:02:39.731Z</time></trkpt><trkpt lat="42.9834283" lon="2.57051"><ele>410.0</ele><time>2026-04-26T12:02:40.728Z</time></trkpt><trkpt lat="42.983285" lon="2.5705083"><ele>410.0</ele><time>2026-04-26T12:02:41.729Z</time></trkpt><trkpt lat="42.9831367" lon="2.5705217"><ele>410.0</ele><time>2026-04-26T12:02:42.73Z</time></trkpt><trkpt lat="42.9829867" lon="2.5705283"><ele>410.0</ele><time>2026-04-26T12:02:43.729Z</time></trkpt><trkpt lat="42.9828267" lon="2.5705333"><ele>410.0</ele><time>2026-04-26T12:02:44.728Z</time></trkpt><trkpt lat="42.9826633" lon="2.57053"><ele>410.0</ele><time>2026-04-26T12:02:45.728Z</time></trkpt><trkpt lat="42.9824983" lon="2.5705317"><ele>410.0</ele><time>2026-04-26T12:02:46.728Z</time></trkpt><trkpt lat="42.9823467" lon="2.5705433"><ele>412.25</ele><time>2026-04-26T12:02:47.729Z</time></trkpt><trkpt lat="42.982205" lon="2.57056"><ele>414.5</ele><time>2026-04-26T12:02:48.813Z</time></trkpt><trkpt lat="42.9820683" lon="2.5705733"><ele>416.75</ele><time>2026-04-26T12:02:49.729Z</time></trkpt><trkpt lat="42.981945" lon="2.5705867"><ele>419.0</ele><time>2026-04-26T12:02:50.73Z</time></trkpt><trkpt lat="42.981835" lon="2.570615"><ele>418.99999999999994</ele><time>2026-04-26T12:02:51.728Z</time></trkpt><trkpt lat="42.9817217" lon="2.5706433"><ele>419.0</ele><time>2026-04-26T12:02:52.728Z</time></trkpt><trkpt lat="42.9816217" lon="2.5706633"><ele>419.0</ele><time>2026-04-26T12:02:53.729Z</time></trkpt><trkpt lat="42.9815433" lon="2.5706767"><ele>419.0</ele><time>2026-04-26T12:02:54.728Z</time></trkpt><trkpt lat="42.981475" lon="2.57067"><ele>418.99999999999994</ele><time>2026-04-26T12:02:55.73Z</time></trkpt><trkpt lat="42.9814183" lon="2.5706233"><ele>419.0</ele><time>2026-04-26T12:02:56.73Z</time></trkpt><trkpt lat="42.98137" lon="2.5705433"><ele>421.0</ele><time>2026-04-26T12:02:57.729Z</time></trkpt><trkpt lat="42.9813383" lon="2.5704333"><ele>423.0</ele><time>2026-04-26T12:02:58.728Z</time></trkpt><trkpt lat="42.981345" lon="2.5702817"><ele>425.0</ele><time>2026-04-26T12:02:59.729Z</time></trkpt><trkpt lat="42.9813417" lon="2.5701183"><ele>427.0</ele><time>2026-04-26T12:03:00.73Z</time></trkpt><trkpt lat="42.981335" lon="2.5699383"><ele>429.0</ele><time>2026-04-26T12:03:01.73Z</time></trkpt><trkpt lat="42.9813167" lon="2.5697567"><ele>432.5</ele><time>2026-04-26T12:03:02.731Z</time></trkpt><trkpt lat="42.9812783" lon="2.569575"><ele>436.0</ele><time>2026-04-26T12:03:03.73Z</time></trkpt><trkpt lat="42.9812283" lon="2.56939"><ele>439.5</ele><time>2026-04-26T12:03:04.728Z</time></trkpt><trkpt lat="42.98118" lon="2.5692033"><ele>443.0</ele><time>2026-04-26T12:03:05.73Z</time></trkpt><trkpt lat="42.981135" lon="2.56902"><ele>446.25</ele><time>2026-04-26T12:03:06.735Z</time></trkpt><trkpt lat="42.981085" lon="2.5688317"><ele>449.5</ele><time>2026-04-26T12:03:07.729Z</time></trkpt><trkpt lat="42.9810233" lon="2.5686467"><ele>452.75</ele><time>2026-04-26T12:03:08.73Z</time></trkpt><trkpt lat="42.980955" lon="2.5684667"><ele>456.0</ele><time>2026-04-26T12:03:09.733Z</time></trkpt><trkpt lat="42.9808933" lon="2.5683017"><ele>454.5</ele><time>2026-04-26T12:03:10.73Z</time></trkpt><trkpt lat="42.980835" lon="2.568145"><ele>453.0</ele><time>2026-04-26T12:03:11.735Z</time></trkpt><trkpt lat="42.9807767" lon="2.5680067"><ele>451.5</ele><time>2026-04-26T12:03:12.73Z</time></trkpt><trkpt lat="42.9806967" lon="2.5679"><ele>450.0</ele><time>2026-04-26T12:03:13.731Z</time></trkpt><trkpt lat="42.980595" lon="2.5678017"><ele>454.5</ele><time>2026-04-26T12:03:14.73Z</time></trkpt><trkpt lat="42.9804833" lon="2.5677067"><ele>459.0</ele><time>2026-04-26T12:03:15.729Z</time></trkpt><trkpt lat="42.9803833" lon="2.567595"><ele>463.5</ele><time>2026-04-26T12:03:16.73Z</time></trkpt><trkpt lat="42.98028" lon="2.56748"><ele>468.0</ele><time>2026-04-26T12:03:17.732Z</time></trkpt><trkpt lat="42.9801683" lon="2.5673667"><ele>468.0</ele><time>2026-04-26T12:03:18.73Z</time></trkpt><trkpt lat="42.9800483" lon="2.5672683"><ele>468.0</ele><time>2026-04-26T12:03:19.729Z</time></trkpt><trkpt lat="42.9799283" lon="2.5671817"><ele>468.0</ele><time>2026-04-26T12:03:20.729Z</time></trkpt><trkpt lat="42.9798217" lon="2.56708"><ele>468.0</ele><time>2026-04-26T12:03:21.73Z</time></trkpt><trkpt lat="42.9797283" lon="2.5669467"><ele>469.25</ele><time>2026-04-26T12:03:22.73Z</time></trkpt><trkpt lat="42.9796433" lon="2.5668"><ele>470.5</ele><time>2026-04-26T12:03:23.731Z</time></trkpt><trkpt lat="42.9795583" lon="2.566665"><ele>471.75</ele><time>2026-04-26T12:03:24.734Z</time></trkpt><trkpt lat="42.9794733" lon="2.5665617"><ele>473.0</ele><time>2026-04-26T12:03:25.729Z</time></trkpt><trkpt lat="42.9793983" lon="2.5664767"><ele>472.99999999999994</ele><time>2026-04-26T12:03:26.73Z</time></trkpt><trkpt lat="42.97934" lon="2.5663833"><ele>473.0</ele><time>2026-04-26T12:03:27.728Z</time></trkpt><trkpt lat="42.9793" lon="2.5662783"><ele>473.0</ele><time>2026-04-26T12:03:28.73Z</time></trkpt><trkpt lat="42.9792783" lon="2.566155"><ele>473.0</ele><time>2026-04-26T12:03:29.729Z</time></trkpt><trkpt lat="42.9792617" lon="2.5660383"><ele>472.99999999999994</ele><time>2026-04-26T12:03:30.734Z</time></trkpt><trkpt lat="42.9792267" lon="2.565945"><ele>473.0</ele><time>2026-04-26T12:03:31.728Z</time></trkpt><trkpt lat="42.9791917" lon="2.5658533"><ele>472.4</ele><time>2026-04-26T12:03:32.73Z</time></trkpt><trkpt lat="42.9791283" lon="2.56576"><ele>471.79999999999995</ele><time>2026-04-26T12:03:33.73Z</time></trkpt><trkpt lat="42.9790467" lon="2.5656533"><ele>471.2</ele><time>2026-04-26T12:03:34.729Z</time></trkpt><trkpt lat="42.9789733" lon="2.5655283"><ele>470.6</ele><time>2026-04-26T12:03:35.729Z</time></trkpt><trkpt lat="42.97891" lon="2.5653917"><ele>470.0</ele><time>2026-04-26T12:03:36.731Z</time></trkpt><trkpt lat="42.978875" lon="2.5652533"><ele>471.16666666666663</ele><time>2026-04-26T12:03:37.728Z</time></trkpt><trkpt lat="42.9788667" lon="2.5651267"><ele>472.3333333333333</ele><time>2026-04-26T12:03:38.729Z</time></trkpt><trkpt lat="42.9788817" lon="2.5650167"><ele>473.5</ele><time>2026-04-26T12:03:39.73Z</time></trkpt><trkpt lat="42.978915" lon="2.5649233"><ele>474.66666666666663</ele><time>2026-04-26T12:03:40.731Z</time></trkpt><trkpt lat="42.9789783" lon="2.56484"><ele>475.8333333333333</ele><time>2026-04-26T12:03:41.729Z</time></trkpt><trkpt lat="42.97905" lon="2.5647567"><ele>477.0</ele><time>2026-04-26T12:03:42.729Z</time></trkpt><trkpt lat="42.9791133" lon="2.56466"><ele>477.0</ele><time>2026-04-26T12:03:43.728Z</time></trkpt><trkpt lat="42.9791417" lon="2.5645517"><ele>477.00000000000006</ele><time>2026-04-26T12:03:44.728Z</time></trkpt><trkpt lat="42.9791567" lon="2.56443"><ele>477.00000000000006</ele><time>2026-04-26T12:03:45.729Z</time></trkpt><trkpt lat="42.97915" lon="2.564275"><ele>477.0</ele><time>2026-04-26T12:03:46.728Z</time></trkpt><trkpt lat="42.9791433" lon="2.5641117"><ele>477.0</ele><time>2026-04-26T12:03:47.73Z</time></trkpt><trkpt lat="42.9791283" lon="2.56395"><ele>477.0</ele><time>2026-04-26T12:03:48.728Z</time></trkpt><trkpt lat="42.97911" lon="2.563795"><ele>477.0</ele><time>2026-04-26T12:03:49.73Z</time></trkpt><trkpt lat="42.9791033" lon="2.5636367"><ele>477.0</ele><time>2026-04-26T12:03:50.73Z</time></trkpt><trkpt lat="42.97912" lon="2.5634717"><ele>477.0</ele><time>2026-04-26T12:03:51.728Z</time></trkpt><trkpt lat="42.97916" lon="2.5633"><ele>486.5</ele><time>2026-04-26T12:03:52.728Z</time></trkpt><trkpt lat="42.9791983" lon="2.5631233"><ele>496.0</ele><time>2026-04-26T12:03:53.731Z</time></trkpt><trkpt lat="42.9792317" lon="2.5629467"><ele>505.5</ele><time>2026-04-26T12:03:54.729Z</time></trkpt><trkpt lat="42.9792667" lon="2.56278"><ele>515.0</ele><time>2026-04-26T12:03:55.731Z</time></trkpt><trkpt lat="42.9793083" lon="2.5626467"><ele>515.0</ele><time>2026-04-26T12:03:56.73Z</time></trkpt><trkpt lat="42.9793467" lon="2.56254"><ele>515.0</ele><time>2026-04-26T12:03:57.729Z</time></trkpt><trkpt lat="42.979375" lon="2.5624567"><ele>515.0</ele><time>2026-04-26T12:03:58.728Z</time></trkpt><trkpt lat="42.9793333" lon="2.5623433"><ele>515.0</ele><time>2026-04-26T12:04:00.73Z</time></trkpt><trkpt lat="42.9792583" lon="2.5623283"><ele>515.0</ele><time>2026-04-26T12:04:01.731Z</time></trkpt><trkpt lat="42.9791617" lon="2.5623583"><ele>515.0</ele><time>2026-04-26T12:04:02.733Z</time></trkpt><trkpt lat="42.979045" lon="2.5624167"><ele>508.75</ele><time>2026-04-26T12:04:03.728Z</time></trkpt><trkpt lat="42.9789217" lon="2.5624717"><ele>502.5</ele><time>2026-04-26T12:04:04.729Z</time></trkpt><trkpt lat="42.9787967" lon="2.5625067"><ele>496.25</ele><time>2026-04-26T12:04:05.73Z</time></trkpt><trkpt lat="42.9786733" lon="2.5625083"><ele>490.0</ele><time>2026-04-26T12:04:06.73Z</time></trkpt><trkpt lat="42.9785583" lon="2.5624867"><ele>490.0</ele><time>2026-04-26T12:04:07.73Z</time></trkpt><trkpt lat="42.978455" lon="2.5624383"><ele>490.0</ele><time>2026-04-26T12:04:08.728Z</time></trkpt><trkpt lat="42.9783633" lon="2.5623617"><ele>490.0</ele><time>2026-04-26T12:04:09.73Z</time></trkpt><trkpt lat="42.9782883" lon="2.5622567"><ele>490.0</ele><time>2026-04-26T12:04:10.728Z</time></trkpt><trkpt lat="42.9782317" lon="2.5621433"><ele>490.0</ele><time>2026-04-26T12:04:11.728Z</time></trkpt><trkpt lat="42.9781967" lon="2.5620233"><ele>490.8</ele><time>2026-04-26T12:04:12.728Z</time></trkpt><trkpt lat="42.9781883" lon="2.5618967"><ele>491.6</ele><time>2026-04-26T12:04:13.732Z</time></trkpt><trkpt lat="42.9782067" lon="2.5617533"><ele>492.4</ele><time>2026-04-26T12:04:14.729Z</time></trkpt><trkpt lat="42.9782317" lon="2.5615917"><ele>493.2</ele><time>2026-04-26T12:04:15.73Z</time></trkpt><trkpt lat="42.9782483" lon="2.5614233"><ele>494.0</ele><time>2026-04-26T12:04:16.727Z</time></trkpt><trkpt lat="42.9782667" lon="2.56126"><ele>495.66666666666663</ele><time>2026-04-26T12:04:17.727Z</time></trkpt><trkpt lat="42.9782967" lon="2.5611167"><ele>497.3333333333333</ele><time>2026-04-26T12:04:18.729Z</time></trkpt><trkpt lat="42.97832" lon="2.5609983"><ele>499.0</ele><time>2026-04-26T12:04:19.729Z</time></trkpt><trkpt lat="42.978335" lon="2.56091"><ele>500.66666666666663</ele><time>2026-04-26T12:04:20.728Z</time></trkpt><trkpt lat="42.97829" lon="2.5607867"><ele>502.3333333333333</ele><time>2026-04-26T12:04:22.728Z</time></trkpt><trkpt lat="42.9782217" lon="2.5607483"><ele>504.0</ele><time>2026-04-26T12:04:23.728Z</time></trkpt><trkpt lat="42.9781183" lon="2.5607433"><ele>504.0</ele><time>2026-04-26T12:04:24.73Z</time></trkpt><trkpt lat="42.97801" lon="2.5607333"><ele>504.0</ele><time>2026-04-26T12:04:25.727Z</time></trkpt><trkpt lat="42.9778883" lon="2.5607183"><ele>504.0</ele><time>2026-04-26T12:04:26.729Z</time></trkpt><trkpt lat="42.9777733" lon="2.560685"><ele>504.0</ele><time>2026-04-26T12:04:27.729Z</time></trkpt><trkpt lat="42.9776617" lon="2.56064"><ele>504.0</ele><time>2026-04-26T12:04:28.73Z</time></trkpt><trkpt lat="42.9775667" lon="2.560565"><ele>504.0</ele><time>2026-04-26T12:04:29.727Z</time></trkpt><trkpt lat="42.9774917" lon="2.5604483"><ele>504.0</ele><time>2026-04-26T12:04:30.728Z</time></trkpt><trkpt lat="42.97743" lon="2.560305"><ele>504.0</ele><time>2026-04-26T12:04:31.727Z</time></trkpt><trkpt lat="42.9773733" lon="2.5601433"><ele>505.25</ele><time>2026-04-26T12:04:32.736Z</time></trkpt><trkpt lat="42.9773183" lon="2.5599733"><ele>506.5</ele><time>2026-04-26T12:04:33.728Z</time></trkpt><trkpt lat="42.9772633" lon="2.5598017"><ele>507.75</ele><time>2026-04-26T12:04:34.728Z</time></trkpt><trkpt lat="42.977215" lon="2.559635"><ele>509.0</ele><time>2026-04-26T12:04:35.73Z</time></trkpt><trkpt lat="42.977175" lon="2.55948"><ele>511.2</ele><time>2026-04-26T12:04:36.73Z</time></trkpt><trkpt lat="42.9771367" lon="2.5593417"><ele>513.4</ele><time>2026-04-26T12:04:37.728Z</time></trkpt><trkpt lat="42.9770883" lon="2.5592167"><ele>515.6</ele><time>2026-04-26T12:04:38.728Z</time></trkpt><trkpt lat="42.9770217" lon="2.559095"><ele>517.8</ele><time>2026-04-26T12:04:39.731Z</time></trkpt><trkpt lat="42.976955" lon="2.5589733"><ele>520.0</ele><time>2026-04-26T12:04:40.731Z</time></trkpt><trkpt lat="42.9768917" lon="2.558845"><ele>523.25</ele><time>2026-04-26T12:04:41.73Z</time></trkpt><trkpt lat="42.9768383" lon="2.55869"><ele>526.5</ele><time>2026-04-26T12:04:42.73Z</time></trkpt><trkpt lat="42.976795" lon="2.5585233"><ele>529.75</ele><time>2026-04-26T12:04:43.729Z</time></trkpt><trkpt lat="42.9767583" lon="2.5583533"><ele>533.0</ele><time>2026-04-26T12:04:44.731Z</time></trkpt><trkpt lat="42.9767167" lon="2.5581983"><ele>531.0</ele><time>2026-04-26T12:04:45.729Z</time></trkpt><trkpt lat="42.97667" lon="2.5580717"><ele>529.0</ele><time>2026-04-26T12:04:46.73Z</time></trkpt><trkpt lat="42.9766217" lon="2.5579667"><ele>527.0</ele><time>2026-04-26T12:04:47.73Z</time></trkpt><trkpt lat="42.976565" lon="2.5578933"><ele>525.0</ele><time>2026-04-26T12:04:48.729Z</time></trkpt><trkpt lat="42.9765033" lon="2.5578417"><ele>523.0</ele><time>2026-04-26T12:04:49.729Z</time></trkpt><trkpt lat="42.9764283" lon="2.5578017"><ele>521.0</ele><time>2026-04-26T12:04:50.731Z</time></trkpt><trkpt lat="42.976345" lon="2.55777"><ele>521.0</ele><time>2026-04-26T12:04:51.73Z</time></trkpt><trkpt lat="42.97625" lon="2.5577367"><ele>521.0</ele><time>2026-04-26T12:04:52.728Z</time></trkpt><trkpt lat="42.9761533" lon="2.5576817"><ele>521.0</ele><time>2026-04-26T12:04:53.735Z</time></trkpt><trkpt lat="42.97606" lon="2.5576"><ele>521.0</ele><time>2026-04-26T12:04:54.729Z</time></trkpt><trkpt lat="42.975975" lon="2.5574833"><ele>521.0</ele><time>2026-04-26T12:04:55.73Z</time></trkpt><trkpt lat="42.9758933" lon="2.5573517"><ele>519.25</ele><time>2026-04-26T12:04:56.729Z</time></trkpt><trkpt lat="42.9758133" lon="2.557215"><ele>517.5</ele><time>2026-04-26T12:04:57.728Z</time></trkpt><trkpt lat="42.9757333" lon="2.5570733"><ele>515.75</ele><time>2026-04-26T12:04:58.729Z</time></trkpt><trkpt lat="42.975635" lon="2.55693"><ele>514.0</ele><time>2026-04-26T12:04:59.729Z</time></trkpt><trkpt lat="42.97555" lon="2.5567583"><ele>514.0</ele><time>2026-04-26T12:05:00.73Z</time></trkpt><trkpt lat="42.9754767" lon="2.5565817"><ele>514.0</ele><time>2026-04-26T12:05:01.733Z</time></trkpt><trkpt lat="42.975395" lon="2.556415"><ele>514.0</ele><time>2026-04-26T12:05:02.729Z</time></trkpt><trkpt lat="42.9753067" lon="2.556245"><ele>514.0</ele><time>2026-04-26T12:05:03.73Z</time></trkpt><trkpt lat="42.9752117" lon="2.5560683"><ele>515.75</ele><time>2026-04-26T12:05:04.731Z</time></trkpt><trkpt lat="42.9751267" lon="2.5558883"><ele>517.5</ele><time>2026-04-26T12:05:05.73Z</time></trkpt><trkpt lat="42.9750417" lon="2.55572"><ele>519.25</ele><time>2026-04-26T12:05:06.731Z</time></trkpt><trkpt lat="42.9749633" lon="2.5555633"><ele>521.0</ele><time>2026-04-26T12:05:07.729Z</time></trkpt><trkpt lat="42.9748917" lon="2.5554183"><ele>518.0</ele><time>2026-04-26T12:05:08.729Z</time></trkpt><trkpt lat="42.9748183" lon="2.5553"><ele>515.0</ele><time>2026-04-26T12:05:09.73Z</time></trkpt><trkpt lat="42.974745" lon="2.5552017"><ele>512.0</ele><time>2026-04-26T12:05:10.729Z</time></trkpt><trkpt lat="42.9746767" lon="2.5551133"><ele>509.0</ele><time>2026-04-26T12:05:11.729Z</time></trkpt><trkpt lat="42.974595" lon="2.5550433"><ele>506.0</ele><time>2026-04-26T12:05:12.73Z</time></trkpt><trkpt lat="42.9745" lon="2.5549883"><ele>506.0</ele><time>2026-04-26T12:05:13.729Z</time></trkpt><trkpt lat="42.9743933" lon="2.55494"><ele>506.0</ele><time>2026-04-26T12:05:14.732Z</time></trkpt><trkpt lat="42.97428" lon="2.55488"><ele>506.0</ele><time>2026-04-26T12:05:15.731Z</time></trkpt><trkpt lat="42.9741617" lon="2.5548133"><ele>506.0</ele><time>2026-04-26T12:05:16.736Z</time></trkpt><trkpt lat="42.9740417" lon="2.5547433"><ele>505.5</ele><time>2026-04-26T12:05:17.729Z</time></trkpt><trkpt lat="42.9739167" lon="2.5546733"><ele>505.0</ele><time>2026-04-26T12:05:18.729Z</time></trkpt><trkpt lat="42.9737833" lon="2.5545867"><ele>504.5</ele><time>2026-04-26T12:05:19.728Z</time></trkpt><trkpt lat="42.973665" lon="2.5544917"><ele>504.0</ele><time>2026-04-26T12:05:20.733Z</time></trkpt><trkpt lat="42.9735533" lon="2.55438"><ele>504.0</ele><time>2026-04-26T12:05:21.73Z</time></trkpt><trkpt lat="42.97344" lon="2.554255"><ele>504.0</ele><time>2026-04-26T12:05:22.73Z</time></trkpt><trkpt lat="42.973315" lon="2.5541417"><ele>504.0</ele><time>2026-04-26T12:05:23.728Z</time></trkpt><trkpt lat="42.973175" lon="2.5540433"><ele>505.33333333333337</ele><time>2026-04-26T12:05:24.731Z</time></trkpt><trkpt lat="42.9730333" lon="2.5539483"><ele>506.6666666666667</ele><time>2026-04-26T12:05:25.729Z</time></trkpt><trkpt lat="42.9728767" lon="2.5538667"><ele>508.0</ele><time>2026-04-26T12:05:26.731Z</time></trkpt><trkpt lat="42.9727233" lon="2.5538133"><ele>508.0</ele><time>2026-04-26T12:05:27.729Z</time></trkpt><trkpt lat="42.9725867" lon="2.55376"><ele>508.0</ele><time>2026-04-26T12:05:28.73Z</time></trkpt><trkpt lat="42.9724567" lon="2.5537267"><ele>508.0</ele><time>2026-04-26T12:05:29.73Z</time></trkpt><trkpt lat="42.97234" lon="2.5537133"><ele>508.0</ele><time>2026-04-26T12:05:30.731Z</time></trkpt><trkpt lat="42.9722083" lon="2.55373"><ele>508.75</ele><time>2026-04-26T12:05:31.729Z</time></trkpt><trkpt lat="42.972075" lon="2.5537683"><ele>509.5</ele><time>2026-04-26T12:05:32.732Z</time></trkpt><trkpt lat="42.9719483" lon="2.55381"><ele>510.25</ele><time>2026-04-26T12:05:33.729Z</time></trkpt><trkpt lat="42.97183" lon="2.55384"><ele>511.0</ele><time>2026-04-26T12:05:34.731Z</time></trkpt><trkpt lat="42.9717183" lon="2.5538533"><ele>510.4</ele><time>2026-04-26T12:05:35.731Z</time></trkpt><trkpt lat="42.9716067" lon="2.553845"><ele>509.8</ele><time>2026-04-26T12:05:36.732Z</time></trkpt><trkpt lat="42.971505" lon="2.5538117"><ele>509.19999999999993</ele><time>2026-04-26T12:05:37.729Z</time></trkpt><trkpt lat="42.9714133" lon="2.5537483"><ele>508.59999999999997</ele><time>2026-04-26T12:05:38.731Z</time></trkpt><trkpt lat="42.9713267" lon="2.5536617"><ele>508.0</ele><time>2026-04-26T12:05:39.728Z</time></trkpt><trkpt lat="42.97125" lon="2.5535467"><ele>510.75</ele><time>2026-04-26T12:05:40.736Z</time></trkpt><trkpt lat="42.9711783" lon="2.5534117"><ele>513.5</ele><time>2026-04-26T12:05:41.729Z</time></trkpt><trkpt lat="42.971115" lon="2.5532617"><ele>516.25</ele><time>2026-04-26T12:05:42.729Z</time></trkpt><trkpt lat="42.971045" lon="2.5531083"><ele>519.0</ele><time>2026-04-26T12:05:43.73Z</time></trkpt><trkpt lat="42.9709783" lon="2.5529583"><ele>518.6</ele><time>2026-04-26T12:05:44.729Z</time></trkpt><trkpt lat="42.97091" lon="2.5528167"><ele>518.2</ele><time>2026-04-26T12:05:45.729Z</time></trkpt><trkpt lat="42.9708417" lon="2.5526917"><ele>517.8000000000001</ele><time>2026-04-26T12:05:46.729Z</time></trkpt><trkpt lat="42.970765" lon="2.552595"><ele>517.4</ele><time>2026-04-26T12:05:47.731Z</time></trkpt><trkpt lat="42.9706817" lon="2.5525317"><ele>517.0</ele><time>2026-04-26T12:05:48.73Z</time></trkpt><trkpt lat="42.9705967" lon="2.5525067"><ele>517.0</ele><time>2026-04-26T12:05:49.73Z</time></trkpt><trkpt lat="42.97051" lon="2.55251"><ele>517.0</ele><time>2026-04-26T12:05:50.731Z</time></trkpt><trkpt lat="42.970415" lon="2.5525517"><ele>517.0</ele><time>2026-04-26T12:05:51.732Z</time></trkpt><trkpt lat="42.97031" lon="2.5526033"><ele>517.0</ele><time>2026-04-26T12:05:52.729Z</time></trkpt><trkpt lat="42.97019" lon="2.5526383"><ele>517.0</ele><time>2026-04-26T12:05:53.73Z</time></trkpt><trkpt lat="42.9700583" lon="2.5526717"><ele>517.5</ele><time>2026-04-26T12:05:54.731Z</time></trkpt><trkpt lat="42.9699217" lon="2.5526883"><ele>518.0</ele><time>2026-04-26T12:05:55.73Z</time></trkpt><trkpt lat="42.9697833" lon="2.5526833"><ele>518.5</ele><time>2026-04-26T12:05:56.729Z</time></trkpt><trkpt lat="42.96964" lon="2.5526567"><ele>519.0</ele><time>2026-04-26T12:05:57.732Z</time></trkpt><trkpt lat="42.9695033" lon="2.5526283"><ele>519.0</ele><time>2026-04-26T12:05:58.73Z</time></trkpt><trkpt lat="42.96938" lon="2.5525933"><ele>519.0</ele><time>2026-04-26T12:05:59.731Z</time></trkpt><trkpt lat="42.9692617" lon="2.5525483"><ele>519.0</ele><time>2026-04-26T12:06:00.73Z</time></trkpt><trkpt lat="42.9691417" lon="2.5525167"><ele>519.0</ele><time>2026-04-26T12:06:01.73Z</time></trkpt><trkpt lat="42.969015" lon="2.5525033"><ele>519.25</ele><time>2026-04-26T12:06:02.729Z</time></trkpt><trkpt lat="42.9688967" lon="2.5524983"><ele>519.5</ele><time>2026-04-26T12:06:03.73Z</time></trkpt><trkpt lat="42.9687833" lon="2.55249"><ele>519.75</ele><time>2026-04-26T12:06:04.73Z</time></trkpt><trkpt lat="42.9686717" lon="2.55248"><ele>520.0</ele><time>2026-04-26T12:06:05.729Z</time></trkpt><trkpt lat="42.968565" lon="2.5524933"><ele>520.0</ele><time>2026-04-26T12:06:06.73Z</time></trkpt><trkpt lat="42.968465" lon="2.5525383"><ele>520.0</ele><time>2026-04-26T12:06:07.729Z</time></trkpt><trkpt lat="42.968385" lon="2.55261"><ele>520.0</ele><time>2026-04-26T12:06:08.731Z</time></trkpt><trkpt lat="42.9683333" lon="2.5527033"><ele>520.0</ele><time>2026-04-26T12:06:09.73Z</time></trkpt><trkpt lat="42.968295" lon="2.5528067"><ele>520.0</ele><time>2026-04-26T12:06:10.73Z</time></trkpt><trkpt lat="42.96828" lon="2.5529217"><ele>520.5</ele><time>2026-04-26T12:06:11.73Z</time></trkpt><trkpt lat="42.9683033" lon="2.5530583"><ele>521.0</ele><time>2026-04-26T12:06:12.731Z</time></trkpt><trkpt lat="42.9683417" lon="2.5532117"><ele>521.5</ele><time>2026-04-26T12:06:13.729Z</time></trkpt><trkpt lat="42.96838" lon="2.5533767"><ele>522.0</ele><time>2026-04-26T12:06:14.735Z</time></trkpt><trkpt lat="42.9684283" lon="2.5535383"><ele>519.75</ele><time>2026-04-26T12:06:15.73Z</time></trkpt><trkpt lat="42.968475" lon="2.5537"><ele>517.5</ele><time>2026-04-26T12:06:16.728Z</time></trkpt><trkpt lat="42.9685117" lon="2.553875"><ele>515.25</ele><time>2026-04-26T12:06:17.727Z</time></trkpt><trkpt lat="42.96854" lon="2.554045"><ele>513.0</ele><time>2026-04-26T12:06:18.73Z</time></trkpt><trkpt lat="42.9685867" lon="2.554215"><ele>513.0</ele><time>2026-04-26T12:06:19.73Z</time></trkpt><trkpt lat="42.9686533" lon="2.5543767"><ele>513.0</ele><time>2026-04-26T12:06:20.728Z</time></trkpt><trkpt lat="42.9687267" lon="2.5545383"><ele>513.0</ele><time>2026-04-26T12:06:21.727Z</time></trkpt><trkpt lat="42.9687783" lon="2.55469"><ele>513.0</ele><time>2026-04-26T12:06:22.728Z</time></trkpt><trkpt lat="42.968815" lon="2.5548283"><ele>514.8333333333334</ele><time>2026-04-26T12:06:23.729Z</time></trkpt><trkpt lat="42.9688333" lon="2.5549467"><ele>516.6666666666666</ele><time>2026-04-26T12:06:24.729Z</time></trkpt><trkpt lat="42.968845" lon="2.5550383"><ele>518.5</ele><time>2026-04-26T12:06:25.729Z</time></trkpt><trkpt lat="42.9687833" lon="2.555115"><ele>520.3333333333333</ele><time>2026-04-26T12:06:27.728Z</time></trkpt><trkpt lat="42.9687167" lon="2.5551017"><ele>522.1666666666666</ele><time>2026-04-26T12:06:28.729Z</time></trkpt><trkpt lat="42.9686467" lon="2.5550567"><ele>524.0</ele><time>2026-04-26T12:06:29.731Z</time></trkpt><trkpt lat="42.96857" lon="2.554985"><ele>524.0</ele><time>2026-04-26T12:06:30.729Z</time></trkpt><trkpt lat="42.9684817" lon="2.5548983"><ele>524.0</ele><time>2026-04-26T12:06:31.73Z</time></trkpt><trkpt lat="42.968385" lon="2.55478"><ele>524.0</ele><time>2026-04-26T12:06:32.731Z</time></trkpt><trkpt lat="42.9682883" lon="2.55464"><ele>524.0</ele><time>2026-04-26T12:06:33.731Z</time></trkpt><trkpt lat="42.9681983" lon="2.55448"><ele>524.5</ele><time>2026-04-26T12:06:34.73Z</time></trkpt><trkpt lat="42.9681133" lon="2.55431"><ele>525.0</ele><time>2026-04-26T12:06:35.728Z</time></trkpt><trkpt lat="42.9680417" lon="2.5541383"><ele>525.5</ele><time>2026-04-26T12:06:36.73Z</time></trkpt><trkpt lat="42.9679917" lon="2.5539717"><ele>526.0</ele><time>2026-04-26T12:06:37.731Z</time></trkpt><trkpt lat="42.9679617" lon="2.5538167"><ele>525.2</ele><time>2026-04-26T12:06:38.731Z</time></trkpt><trkpt lat="42.96794" lon="2.5536733"><ele>524.4000000000001</ele><time>2026-04-26T12:06:39.731Z</time></trkpt><trkpt lat="42.9679117" lon="2.5535417"><ele>523.6</ele><time>2026-04-26T12:06:40.728Z</time></trkpt><trkpt lat="42.96786" lon="2.5534383"><ele>522.8000000000001</ele><time>2026-04-26T12:06:41.73Z</time></trkpt><trkpt lat="42.9677783" lon="2.553345"><ele>522.0</ele><time>2026-04-26T12:06:42.73Z</time></trkpt><trkpt lat="42.9676783" lon="2.5532483"><ele>522.0</ele><time>2026-04-26T12:06:43.728Z</time></trkpt><trkpt lat="42.9675767" lon="2.553135"><ele>522.0</ele><time>2026-04-26T12:06:44.731Z</time></trkpt><trkpt lat="42.96748" lon="2.5530017"><ele>522.0</ele><time>2026-04-26T12:06:45.729Z</time></trkpt><trkpt lat="42.9673817" lon="2.552865"><ele>522.0</ele><time>2026-04-26T12:06:46.728Z</time></trkpt><trkpt lat="42.96727" lon="2.5527417"><ele>526.5</ele><time>2026-04-26T12:06:47.729Z</time></trkpt><trkpt lat="42.9671467" lon="2.5526317"><ele>531.0</ele><time>2026-04-26T12:06:48.728Z</time></trkpt><trkpt lat="42.967015" lon="2.5525383"><ele>535.5</ele><time>2026-04-26T12:06:49.728Z</time></trkpt><trkpt lat="42.96688" lon="2.5524567"><ele>540.0</ele><time>2026-04-26T12:06:50.734Z</time></trkpt><trkpt lat="42.96675" lon="2.552365"><ele>541.75</ele><time>2026-04-26T12:06:51.728Z</time></trkpt><trkpt lat="42.9666317" lon="2.5522683"><ele>543.5</ele><time>2026-04-26T12:06:52.728Z</time></trkpt><trkpt lat="42.9665283" lon="2.55218"><ele>545.25</ele><time>2026-04-26T12:06:53.729Z</time></trkpt><trkpt lat="42.9664183" lon="2.552115"><ele>547.0</ele><time>2026-04-26T12:06:54.731Z</time></trkpt><trkpt lat="42.966295" lon="2.5520867"><ele>547.0</ele><time>2026-04-26T12:06:55.729Z</time></trkpt><trkpt lat="42.9661683" lon="2.5520883"><ele>547.0</ele><time>2026-04-26T12:06:56.728Z</time></trkpt><trkpt lat="42.9660483" lon="2.5521067"><ele>547.0</ele><time>2026-04-26T12:06:57.728Z</time></trkpt><trkpt lat="42.9659383" lon="2.5521133"><ele>547.0</ele><time>2026-04-26T12:06:58.728Z</time></trkpt><trkpt lat="42.9658433" lon="2.552095"><ele>547.4</ele><time>2026-04-26T12:06:59.729Z</time></trkpt><trkpt lat="42.9657583" lon="2.5520517"><ele>547.8000000000001</ele><time>2026-04-26T12:07:00.729Z</time></trkpt><trkpt lat="42.965685" lon="2.551965"><ele>548.2</ele><time>2026-04-26T12:07:01.729Z</time></trkpt><trkpt lat="42.965625" lon="2.5518367"><ele>548.6</ele><time>2026-04-26T12:07:02.738Z</time></trkpt><trkpt lat="42.9655717" lon="2.551675"><ele>549.0</ele><time>2026-04-26T12:07:03.729Z</time></trkpt><trkpt lat="42.9655267" lon="2.5514983"><ele>550.25</ele><time>2026-04-26T12:07:04.73Z</time></trkpt><trkpt lat="42.9654817" lon="2.5513083"><ele>551.5</ele><time>2026-04-26T12:07:05.731Z</time></trkpt><trkpt lat="42.9654283" lon="2.5511133"><ele>552.75</ele><time>2026-04-26T12:07:06.731Z</time></trkpt><trkpt lat="42.9653717" lon="2.5509383"><ele>554.0</ele><time>2026-04-26T12:07:07.732Z</time></trkpt><trkpt lat="42.9653183" lon="2.55078"><ele>554.8</ele><time>2026-04-26T12:07:08.731Z</time></trkpt><trkpt lat="42.9652717" lon="2.5506333"><ele>555.5999999999999</ele><time>2026-04-26T12:07:09.732Z</time></trkpt><trkpt lat="42.9652233" lon="2.550505"><ele>556.4</ele><time>2026-04-26T12:07:10.728Z</time></trkpt><trkpt lat="42.965165" lon="2.5504067"><ele>557.1999999999999</ele><time>2026-04-26T12:07:11.729Z</time></trkpt><trkpt lat="42.9650833" lon="2.5503583"><ele>558.0</ele><time>2026-04-26T12:07:12.731Z</time></trkpt><trkpt lat="42.9649867" lon="2.5503417"><ele>558.0</ele><time>2026-04-26T12:07:13.731Z</time></trkpt><trkpt lat="42.96487" lon="2.5503417"><ele>558.0</ele><time>2026-04-26T12:07:14.73Z</time></trkpt><trkpt lat="42.9647533" lon="2.5503217"><ele>558.0</ele><time>2026-04-26T12:07:15.728Z</time></trkpt><trkpt lat="42.9646467" lon="2.55027"><ele>558.0</ele><time>2026-04-26T12:07:16.729Z</time></trkpt><trkpt lat="42.9645583" lon="2.5501917"><ele>558.0</ele><time>2026-04-26T12:07:17.728Z</time></trkpt><trkpt lat="42.9644883" lon="2.550075"><ele>558.0</ele><time>2026-04-26T12:07:18.733Z</time></trkpt><trkpt lat="42.9644283" lon="2.5499233"><ele>558.0</ele><time>2026-04-26T12:07:19.729Z</time></trkpt><trkpt lat="42.9643683" lon="2.5497617"><ele>558.0</ele><time>2026-04-26T12:07:20.73Z</time></trkpt><trkpt lat="42.964295" lon="2.5496117"><ele>556.5</ele><time>2026-04-26T12:07:21.728Z</time></trkpt><trkpt lat="42.9642233" lon="2.5494717"><ele>555.0</ele><time>2026-04-26T12:07:22.732Z</time></trkpt><trkpt lat="42.9641583" lon="2.54934"><ele>553.5</ele><time>2026-04-26T12:07:23.73Z</time></trkpt><trkpt lat="42.964095" lon="2.5492183"><ele>552.0</ele><time>2026-04-26T12:07:24.73Z</time></trkpt><trkpt lat="42.96403" lon="2.5491067"><ele>552.0</ele><time>2026-04-26T12:07:25.728Z</time></trkpt><trkpt lat="42.9639633" lon="2.5490183"><ele>552.0</ele><time>2026-04-26T12:07:26.73Z</time></trkpt><trkpt lat="42.9638867" lon="2.54897"><ele>552.0</ele><time>2026-04-26T12:07:27.73Z</time></trkpt><trkpt lat="42.9637883" lon="2.5489583"><ele>552.0</ele><time>2026-04-26T12:07:28.731Z</time></trkpt><trkpt lat="42.963685" lon="2.5489783"><ele>552.0</ele><time>2026-04-26T12:07:29.73Z</time></trkpt><trkpt lat="42.9635867" lon="2.5490333"><ele>552.0</ele><time>2026-04-26T12:07:30.73Z</time></trkpt><trkpt lat="42.96349" lon="2.54912"><ele>552.0</ele><time>2026-04-26T12:07:31.731Z</time></trkpt><trkpt lat="42.9633967" lon="2.54923"><ele>552.0</ele><time>2026-04-26T12:07:32.731Z</time></trkpt><trkpt lat="42.9632983" lon="2.54933"><ele>552.0</ele><time>2026-04-26T12:07:33.731Z</time></trkpt><trkpt lat="42.96319" lon="2.549415"><ele>551.4</ele><time>2026-04-26T12:07:34.729Z</time></trkpt><trkpt lat="42.963085" lon="2.5494767"><ele>550.8000000000001</ele><time>2026-04-26T12:07:35.729Z</time></trkpt><trkpt lat="42.9629883" lon="2.549515"><ele>550.2</ele><time>2026-04-26T12:07:36.729Z</time></trkpt><trkpt lat="42.9629" lon="2.5495367"><ele>549.6</ele><time>2026-04-26T12:07:37.73Z</time></trkpt><trkpt lat="42.9628267" lon="2.5495183"><ele>549.0</ele><time>2026-04-26T12:07:38.729Z</time></trkpt><trkpt lat="42.96276" lon="2.54947"><ele>549.0</ele><time>2026-04-26T12:07:39.731Z</time></trkpt><trkpt lat="42.9627017" lon="2.549395"><ele>549.0</ele><time>2026-04-26T12:07:40.731Z</time></trkpt><trkpt lat="42.9626283" lon="2.5493"><ele>549.0</ele><time>2026-04-26T12:07:41.735Z</time></trkpt><trkpt lat="42.9625483" lon="2.5492"><ele>549.0</ele><time>2026-04-26T12:07:42.732Z</time></trkpt><trkpt lat="42.9624483" lon="2.5491133"><ele>549.0</ele><time>2026-04-26T12:07:43.73Z</time></trkpt><trkpt lat="42.962335" lon="2.5490317"><ele>548.5</ele><time>2026-04-26T12:07:44.732Z</time></trkpt><trkpt lat="42.9622233" lon="2.5489483"><ele>548.0</ele><time>2026-04-26T12:07:45.731Z</time></trkpt><trkpt lat="42.9621183" lon="2.54886"><ele>547.5</ele><time>2026-04-26T12:07:46.731Z</time></trkpt><trkpt lat="42.9620133" lon="2.5487817"><ele>547.0</ele><time>2026-04-26T12:07:47.73Z</time></trkpt><trkpt lat="42.9619167" lon="2.54873"><ele>547.0</ele><time>2026-04-26T12:07:48.731Z</time></trkpt><trkpt lat="42.9618267" lon="2.548715"><ele>547.0</ele><time>2026-04-26T12:07:49.729Z</time></trkpt><trkpt lat="42.961745" lon="2.5486967"><ele>547.0</ele><time>2026-04-26T12:07:50.73Z</time></trkpt><trkpt lat="42.9616767" lon="2.5486733"><ele>547.0</ele><time>2026-04-26T12:07:51.729Z</time></trkpt><trkpt lat="42.96158" lon="2.5486617"><ele>547.0</ele><time>2026-04-26T12:07:53.73Z</time></trkpt><trkpt lat="42.9615267" lon="2.5487833"><ele>547.0</ele><time>2026-04-26T12:07:56.73Z</time></trkpt><trkpt lat="42.9615333" lon="2.5488733"><ele>545.0</ele><time>2026-04-26T12:07:57.729Z</time></trkpt><trkpt lat="42.9615567" lon="2.54899"><ele>543.0</ele><time>2026-04-26T12:07:58.729Z</time></trkpt><trkpt lat="42.961585" lon="2.5491267"><ele>541.0</ele><time>2026-04-26T12:07:59.729Z</time></trkpt><trkpt lat="42.9616133" lon="2.5492917"><ele>539.0</ele><time>2026-04-26T12:08:00.729Z</time></trkpt><trkpt lat="42.96164" lon="2.5494767"><ele>539.0</ele><time>2026-04-26T12:08:01.729Z</time></trkpt><trkpt lat="42.9616617" lon="2.5496767"><ele>539.0</ele><time>2026-04-26T12:08:02.736Z</time></trkpt><trkpt lat="42.9616783" lon="2.5498867"><ele>539.0</ele><time>2026-04-26T12:08:03.731Z</time></trkpt><trkpt lat="42.9617" lon="2.5501"><ele>541.0</ele><time>2026-04-26T12:08:04.732Z</time></trkpt><trkpt lat="42.9617483" lon="2.550305"><ele>543.0</ele><time>2026-04-26T12:08:05.729Z</time></trkpt><trkpt lat="42.9618183" lon="2.5505083"><ele>545.0</ele><time>2026-04-26T12:08:06.729Z</time></trkpt><trkpt lat="42.9618967" lon="2.550705"><ele>545.0</ele><time>2026-04-26T12:08:07.728Z</time></trkpt><trkpt lat="42.9619733" lon="2.55092"><ele>545.0</ele><time>2026-04-26T12:08:08.73Z</time></trkpt><trkpt lat="42.9620433" lon="2.5511417"><ele>545.0</ele><time>2026-04-26T12:08:09.728Z</time></trkpt><trkpt lat="42.9621" lon="2.551365"><ele>543.0</ele><time>2026-04-26T12:08:10.728Z</time></trkpt><trkpt lat="42.9621583" lon="2.5515917"><ele>541.0</ele><time>2026-04-26T12:08:11.728Z</time></trkpt><trkpt lat="42.9622133" lon="2.5518117"><ele>539.0</ele><time>2026-04-26T12:08:12.728Z</time></trkpt><trkpt lat="42.9622683" lon="2.5520317"><ele>535.6666666666666</ele><time>2026-04-26T12:08:13.729Z</time></trkpt><trkpt lat="42.9623183" lon="2.5522533"><ele>532.3333333333334</ele><time>2026-04-26T12:08:14.729Z</time></trkpt><trkpt lat="42.9623683" lon="2.5524767"><ele>529.0</ele><time>2026-04-26T12:08:15.732Z</time></trkpt><trkpt lat="42.9624" lon="2.552705"><ele>528.6666666666667</ele><time>2026-04-26T12:08:16.73Z</time></trkpt><trkpt lat="42.962405" lon="2.55294"><ele>528.3333333333334</ele><time>2026-04-26T12:08:17.73Z</time></trkpt><trkpt lat="42.962385" lon="2.5531767"><ele>528.0</ele><time>2026-04-26T12:08:18.734Z</time></trkpt><trkpt lat="42.96235" lon="2.553405"><ele>528.0</ele><time>2026-04-26T12:08:19.73Z</time></trkpt><trkpt lat="42.9623067" lon="2.5536267"><ele>528.0</ele><time>2026-04-26T12:08:20.737Z</time></trkpt><trkpt lat="42.9622683" lon="2.55385"><ele>528.0</ele><time>2026-04-26T12:08:21.731Z</time></trkpt><trkpt lat="42.9622433" lon="2.554075"><ele>528.0</ele><time>2026-04-26T12:08:22.728Z</time></trkpt><trkpt lat="42.9622367" lon="2.5543083"><ele>528.0</ele><time>2026-04-26T12:08:23.728Z</time></trkpt><trkpt lat="42.962255" lon="2.554545"><ele>528.0</ele><time>2026-04-26T12:08:24.728Z</time></trkpt><trkpt lat="42.96229" lon="2.5547817"><ele>526.3333333333334</ele><time>2026-04-26T12:08:25.729Z</time></trkpt><trkpt lat="42.9623217" lon="2.55502"><ele>524.6666666666667</ele><time>2026-04-26T12:08:26.729Z</time></trkpt><trkpt lat="42.9623383" lon="2.555255"><ele>523.0</ele><time>2026-04-26T12:08:27.729Z</time></trkpt><trkpt lat="42.9623283" lon="2.5554917"><ele>523.0</ele><time>2026-04-26T12:08:28.729Z</time></trkpt><trkpt lat="42.9622883" lon="2.5557233"><ele>523.0</ele><time>2026-04-26T12:08:29.728Z</time></trkpt><trkpt lat="42.9622267" lon="2.5559533"><ele>523.0</ele><time>2026-04-26T12:08:30.728Z</time></trkpt><trkpt lat="42.9621517" lon="2.5561783"><ele>523.3333333333334</ele><time>2026-04-26T12:08:31.728Z</time></trkpt><trkpt lat="42.9620717" lon="2.5564067"><ele>523.6666666666666</ele><time>2026-04-26T12:08:32.728Z</time></trkpt><trkpt lat="42.9619867" lon="2.556635"><ele>524.0</ele><time>2026-04-26T12:08:33.729Z</time></trkpt><trkpt lat="42.9619033" lon="2.5568633"><ele>525.6666666666666</ele><time>2026-04-26T12:08:34.733Z</time></trkpt><trkpt lat="42.9618233" lon="2.5570933"><ele>527.3333333333334</ele><time>2026-04-26T12:08:35.732Z</time></trkpt><trkpt lat="42.96175" lon="2.55732"><ele>529.0</ele><time>2026-04-26T12:08:36.729Z</time></trkpt><trkpt lat="42.9616767" lon="2.5575433"><ele>523.6666666666667</ele><time>2026-04-26T12:08:37.729Z</time></trkpt><trkpt lat="42.9616017" lon="2.5577633"><ele>518.3333333333334</ele><time>2026-04-26T12:08:38.728Z</time></trkpt><trkpt lat="42.9615217" lon="2.5579733"><ele>513.0</ele><time>2026-04-26T12:08:39.73Z</time></trkpt><trkpt lat="42.961435" lon="2.5581717"><ele>513.0</ele><time>2026-04-26T12:08:40.729Z</time></trkpt><trkpt lat="42.96134" lon="2.5583567"><ele>513.0</ele><time>2026-04-26T12:08:41.729Z</time></trkpt><trkpt lat="42.9612417" lon="2.5585233"><ele>513.0</ele><time>2026-04-26T12:08:42.729Z</time></trkpt><trkpt lat="42.961145" lon="2.5586817"><ele>514.5</ele><time>2026-04-26T12:08:43.73Z</time></trkpt><trkpt lat="42.9610683" lon="2.5588433"><ele>516.0</ele><time>2026-04-26T12:08:44.729Z</time></trkpt><trkpt lat="42.9610133" lon="2.55902"><ele>517.5</ele><time>2026-04-26T12:08:45.734Z</time></trkpt><trkpt lat="42.960995" lon="2.5592083"><ele>519.0</ele><time>2026-04-26T12:08:46.728Z</time></trkpt><trkpt lat="42.961005" lon="2.5594"><ele>516.0</ele><time>2026-04-26T12:08:47.729Z</time></trkpt><trkpt lat="42.9610283" lon="2.5596"><ele>513.0</ele><time>2026-04-26T12:08:48.729Z</time></trkpt><trkpt lat="42.96104" lon="2.55981"><ele>510.0</ele><time>2026-04-26T12:08:49.73Z</time></trkpt><trkpt lat="42.961035" lon="2.5600283"><ele>510.0</ele><time>2026-04-26T12:08:50.73Z</time></trkpt><trkpt lat="42.9610167" lon="2.5602467"><ele>510.0</ele><time>2026-04-26T12:08:51.73Z</time></trkpt><trkpt lat="42.9609983" lon="2.5604683"><ele>510.0</ele><time>2026-04-26T12:08:52.73Z</time></trkpt><trkpt lat="42.9609883" lon="2.5606883"><ele>505.33333333333337</ele><time>2026-04-26T12:08:53.73Z</time></trkpt><trkpt lat="42.960995" lon="2.5609033"><ele>500.6666666666667</ele><time>2026-04-26T12:08:54.729Z</time></trkpt><trkpt lat="42.9610067" lon="2.56111"><ele>496.0</ele><time>2026-04-26T12:08:55.732Z</time></trkpt><trkpt lat="42.9610083" lon="2.5613133"><ele>493.6666666666667</ele><time>2026-04-26T12:08:56.731Z</time></trkpt><trkpt lat="42.96098" lon="2.561515"><ele>491.33333333333337</ele><time>2026-04-26T12:08:57.729Z</time></trkpt><trkpt lat="42.960915" lon="2.5617033"><ele>489.0</ele><time>2026-04-26T12:08:58.729Z</time></trkpt><trkpt lat="42.9608133" lon="2.5618683"><ele>486.0</ele><time>2026-04-26T12:08:59.73Z</time></trkpt><trkpt lat="42.9606883" lon="2.5620067"><ele>483.0</ele><time>2026-04-26T12:09:00.729Z</time></trkpt><trkpt lat="42.9605517" lon="2.5621317"><ele>480.0</ele><time>2026-04-26T12:09:01.73Z</time></trkpt><trkpt lat="42.9604067" lon="2.5622467"><ele>478.66666666666663</ele><time>2026-04-26T12:09:02.733Z</time></trkpt><trkpt lat="42.9602583" lon="2.5623533"><ele>477.3333333333333</ele><time>2026-04-26T12:09:03.729Z</time></trkpt><trkpt lat="42.9601117" lon="2.5624433"><ele>476.0</ele><time>2026-04-26T12:09:04.73Z</time></trkpt><trkpt lat="42.95996" lon="2.5625133"><ele>474.0</ele><time>2026-04-26T12:09:05.731Z</time></trkpt><trkpt lat="42.9598017" lon="2.562565"><ele>472.0</ele><time>2026-04-26T12:09:06.728Z</time></trkpt><trkpt lat="42.959635" lon="2.5626"><ele>470.0</ele><time>2026-04-26T12:09:07.73Z</time></trkpt><trkpt lat="42.9594633" lon="2.56262"><ele>470.0</ele><time>2026-04-26T12:09:08.73Z</time></trkpt><trkpt lat="42.95929" lon="2.56263"><ele>470.0</ele><time>2026-04-26T12:09:09.73Z</time></trkpt><trkpt lat="42.9591183" lon="2.562635"><ele>470.0</ele><time>2026-04-26T12:09:10.729Z</time></trkpt><trkpt lat="42.9589517" lon="2.562645"><ele>469.3333333333333</ele><time>2026-04-26T12:09:11.728Z</time></trkpt><trkpt lat="42.958795" lon="2.5626517"><ele>468.66666666666663</ele><time>2026-04-26T12:09:12.729Z</time></trkpt><trkpt lat="42.958645" lon="2.5626633"><ele>468.0</ele><time>2026-04-26T12:09:13.731Z</time></trkpt><trkpt lat="42.9585" lon="2.5626817"><ele>467.75</ele><time>2026-04-26T12:09:14.73Z</time></trkpt><trkpt lat="42.9583567" lon="2.5627083"><ele>467.5</ele><time>2026-04-26T12:09:15.73Z</time></trkpt><trkpt lat="42.958215" lon="2.5627417"><ele>467.25</ele><time>2026-04-26T12:09:16.736Z</time></trkpt><trkpt lat="42.9580717" lon="2.5627717"><ele>467.0</ele><time>2026-04-26T12:09:17.729Z</time></trkpt><trkpt lat="42.9579233" lon="2.562805"><ele>467.0</ele><time>2026-04-26T12:09:18.728Z</time></trkpt><trkpt lat="42.95777" lon="2.5628533"><ele>467.0</ele><time>2026-04-26T12:09:19.728Z</time></trkpt><trkpt lat="42.95762" lon="2.56291"><ele>467.0</ele><time>2026-04-26T12:09:20.731Z</time></trkpt><trkpt lat="42.9574767" lon="2.5629667"><ele>466.0</ele><time>2026-04-26T12:09:21.73Z</time></trkpt><trkpt lat="42.9573433" lon="2.5630183"><ele>465.0</ele><time>2026-04-26T12:09:22.729Z</time></trkpt><trkpt lat="42.9572117" lon="2.56307"><ele>464.0</ele><time>2026-04-26T12:09:23.729Z</time></trkpt><trkpt lat="42.9570867" lon="2.5631217"><ele>463.0</ele><time>2026-04-26T12:09:24.728Z</time></trkpt><trkpt lat="42.9569717" lon="2.5631683"><ele>463.0</ele><time>2026-04-26T12:09:25.732Z</time></trkpt><trkpt lat="42.9568583" lon="2.5632133"><ele>463.0</ele><time>2026-04-26T12:09:26.729Z</time></trkpt><trkpt lat="42.956745" lon="2.5632583"><ele>463.0</ele><time>2026-04-26T12:09:27.729Z</time></trkpt><trkpt lat="42.9566333" lon="2.5632967"><ele>463.0</ele><time>2026-04-26T12:09:28.73Z</time></trkpt><trkpt lat="42.9565233" lon="2.5633367"><ele>462.5</ele><time>2026-04-26T12:09:29.729Z</time></trkpt><trkpt lat="42.9564083" lon="2.5633817"><ele>462.0</ele><time>2026-04-26T12:09:30.729Z</time></trkpt><trkpt lat="42.9562917" lon="2.5634317"><ele>461.5</ele><time>2026-04-26T12:09:31.733Z</time></trkpt><trkpt lat="42.9561817" lon="2.5634867"><ele>461.0</ele><time>2026-04-26T12:09:32.728Z</time></trkpt><trkpt lat="42.9560833" lon="2.5635533"><ele>461.0</ele><time>2026-04-26T12:09:33.728Z</time></trkpt><trkpt lat="42.9559883" lon="2.563635"><ele>461.0</ele><time>2026-04-26T12:09:34.728Z</time></trkpt><trkpt lat="42.9559017" lon="2.5637367"><ele>461.0</ele><time>2026-04-26T12:09:35.729Z</time></trkpt><trkpt lat="42.95583" lon="2.5638483"><ele>461.0</ele><time>2026-04-26T12:09:36.729Z</time></trkpt><trkpt lat="42.9557783" lon="2.5639667"><ele>461.0</ele><time>2026-04-26T12:09:37.729Z</time></trkpt><trkpt lat="42.955735" lon="2.5640817"><ele>460.66666666666663</ele><time>2026-04-26T12:09:38.728Z</time></trkpt><trkpt lat="42.9557" lon="2.564185"><ele>460.3333333333333</ele><time>2026-04-26T12:09:39.729Z</time></trkpt><trkpt lat="42.95566" lon="2.56426"><ele>460.0</ele><time>2026-04-26T12:09:40.728Z</time></trkpt><trkpt lat="42.9555467" lon="2.5642767"><ele>459.66666666666663</ele><time>2026-04-26T12:09:42.729Z</time></trkpt><trkpt lat="42.9554817" lon="2.5642333"><ele>459.3333333333333</ele><time>2026-04-26T12:09:43.731Z</time></trkpt><trkpt lat="42.9554133" lon="2.5641717"><ele>459.0</ele><time>2026-04-26T12:09:44.732Z</time></trkpt><trkpt lat="42.955335" lon="2.564105"><ele>459.0</ele><time>2026-04-26T12:09:45.729Z</time></trkpt><trkpt lat="42.9552583" lon="2.564035"><ele>459.0</ele><time>2026-04-26T12:09:46.732Z</time></trkpt><trkpt lat="42.9551617" lon="2.5639733"><ele>459.0</ele><time>2026-04-26T12:09:47.728Z</time></trkpt><trkpt lat="42.9550517" lon="2.5639367"><ele>459.0</ele><time>2026-04-26T12:09:48.728Z</time></trkpt><trkpt lat="42.954935" lon="2.5639233"><ele>459.0</ele><time>2026-04-26T12:09:49.728Z</time></trkpt><trkpt lat="42.9548233" lon="2.5639267"><ele>459.75</ele><time>2026-04-26T12:09:50.728Z</time></trkpt><trkpt lat="42.9547133" lon="2.5639183"><ele>460.5</ele><time>2026-04-26T12:09:51.728Z</time></trkpt><trkpt lat="42.954605" lon="2.5638817"><ele>461.25</ele><time>2026-04-26T12:09:52.733Z</time></trkpt><trkpt lat="42.9545017" lon="2.5638067"><ele>462.0</ele><time>2026-04-26T12:09:53.729Z</time></trkpt><trkpt lat="42.9544083" lon="2.5637017"><ele>461.0</ele><time>2026-04-26T12:09:54.737Z</time></trkpt><trkpt lat="42.9543217" lon="2.5635733"><ele>460.0</ele><time>2026-04-26T12:09:55.73Z</time></trkpt><trkpt lat="42.9542417" lon="2.5634267"><ele>459.0</ele><time>2026-04-26T12:09:56.731Z</time></trkpt><trkpt lat="42.9541583" lon="2.5632833"><ele>458.0</ele><time>2026-04-26T12:09:57.732Z</time></trkpt><trkpt lat="42.9540617" lon="2.5631533"><ele>458.0</ele><time>2026-04-26T12:09:58.732Z</time></trkpt><trkpt lat="42.9539583" lon="2.5630267"><ele>458.0</ele><time>2026-04-26T12:09:59.73Z</time></trkpt><trkpt lat="42.95385" lon="2.562905"><ele>458.0</ele><time>2026-04-26T12:10:00.728Z</time></trkpt><trkpt lat="42.95374" lon="2.5627967"><ele>458.0</ele><time>2026-04-26T12:10:01.731Z</time></trkpt><trkpt lat="42.953625" lon="2.5627217"><ele>458.0</ele><time>2026-04-26T12:10:02.729Z</time></trkpt><trkpt lat="42.9535033" lon="2.5626867"><ele>458.0</ele><time>2026-04-26T12:10:03.729Z</time></trkpt><trkpt lat="42.9533767" lon="2.562705"><ele>458.0</ele><time>2026-04-26T12:10:04.73Z</time></trkpt><trkpt lat="42.9532583" lon="2.562765"><ele>458.0</ele><time>2026-04-26T12:10:05.731Z</time></trkpt><trkpt lat="42.9531433" lon="2.5628567"><ele>462.0</ele><time>2026-04-26T12:10:06.73Z</time></trkpt><trkpt lat="42.953035" lon="2.5629633"><ele>466.0</ele><time>2026-04-26T12:10:07.73Z</time></trkpt><trkpt lat="42.9529267" lon="2.5630783"><ele>470.0</ele><time>2026-04-26T12:10:08.733Z</time></trkpt><trkpt lat="42.9528117" lon="2.56318"><ele>474.0</ele><time>2026-04-26T12:10:09.729Z</time></trkpt><trkpt lat="42.9526933" lon="2.5632683"><ele>474.0</ele><time>2026-04-26T12:10:10.729Z</time></trkpt><trkpt lat="42.9525783" lon="2.5633483"><ele>474.0</ele><time>2026-04-26T12:10:11.729Z</time></trkpt><trkpt lat="42.9524667" lon="2.5634367"><ele>474.0</ele><time>2026-04-26T12:10:12.729Z</time></trkpt><trkpt lat="42.9523683" lon="2.5635533"><ele>474.0</ele><time>2026-04-26T12:10:13.728Z</time></trkpt><trkpt lat="42.9522783" lon="2.56369"><ele>474.5</ele><time>2026-04-26T12:10:14.729Z</time></trkpt><trkpt lat="42.9521933" lon="2.56383"><ele>475.0</ele><time>2026-04-26T12:10:15.732Z</time></trkpt><trkpt lat="42.9521017" lon="2.5639633"><ele>475.5</ele><time>2026-04-26T12:10:16.733Z</time></trkpt><trkpt lat="42.9520033" lon="2.56408"><ele>476.0</ele><time>2026-04-26T12:10:17.73Z</time></trkpt><trkpt lat="42.9519067" lon="2.5641767"><ele>476.0</ele><time>2026-04-26T12:10:18.731Z</time></trkpt><trkpt lat="42.9518117" lon="2.5642517"><ele>476.0</ele><time>2026-04-26T12:10:19.73Z</time></trkpt><trkpt lat="42.9517217" lon="2.5642983"><ele>476.0</ele><time>2026-04-26T12:10:20.731Z</time></trkpt><trkpt lat="42.9516283" lon="2.564315"><ele>476.0</ele><time>2026-04-26T12:10:21.73Z</time></trkpt><trkpt lat="42.9515333" lon="2.5642917"><ele>476.0</ele><time>2026-04-26T12:10:22.729Z</time></trkpt><trkpt lat="42.9514367" lon="2.5642467"><ele>474.4</ele><time>2026-04-26T12:10:23.731Z</time></trkpt><trkpt lat="42.9513383" lon="2.5642017"><ele>472.8</ele><time>2026-04-26T12:10:24.729Z</time></trkpt><trkpt lat="42.951235" lon="2.5641633"><ele>471.19999999999993</ele><time>2026-04-26T12:10:25.73Z</time></trkpt><trkpt lat="42.9511283" lon="2.564135"><ele>469.59999999999997</ele><time>2026-04-26T12:10:26.734Z</time></trkpt><trkpt lat="42.9510167" lon="2.5641233"><ele>468.0</ele><time>2026-04-26T12:10:27.731Z</time></trkpt><trkpt lat="42.9509033" lon="2.56414"><ele>469.2</ele><time>2026-04-26T12:10:28.73Z</time></trkpt><trkpt lat="42.9507933" lon="2.56419"><ele>470.4</ele><time>2026-04-26T12:10:29.73Z</time></trkpt><trkpt lat="42.9506983" lon="2.564265"><ele>471.59999999999997</ele><time>2026-04-26T12:10:30.73Z</time></trkpt><trkpt lat="42.9506133" lon="2.564345"><ele>472.79999999999995</ele><time>2026-04-26T12:10:31.73Z</time></trkpt><trkpt lat="42.9505333" lon="2.5644217"><ele>474.0</ele><time>2026-04-26T12:10:32.731Z</time></trkpt><trkpt lat="42.95046" lon="2.56449"><ele>476.6</ele><time>2026-04-26T12:10:33.73Z</time></trkpt><trkpt lat="42.9503933" lon="2.5645383"><ele>479.2</ele><time>2026-04-26T12:10:34.729Z</time></trkpt><trkpt lat="42.95028" lon="2.5646"><ele>481.80000000000007</ele><time>2026-04-26T12:10:36.73Z</time></trkpt><trkpt lat="42.9502067" lon="2.5647083"><ele>484.40000000000003</ele><time>2026-04-26T12:10:38.731Z</time></trkpt><trkpt lat="42.9501917" lon="2.5647983"><ele>487.0</ele><time>2026-04-26T12:10:39.73Z</time></trkpt><trkpt lat="42.9502" lon="2.56493"><ele>487.0</ele><time>2026-04-26T12:10:40.731Z</time></trkpt><trkpt lat="42.9502167" lon="2.565055"><ele>487.00000000000006</ele><time>2026-04-26T12:10:41.729Z</time></trkpt><trkpt lat="42.9502267" lon="2.5651817"><ele>487.00000000000006</ele><time>2026-04-26T12:10:42.728Z</time></trkpt><trkpt lat="42.9502267" lon="2.5653217"><ele>487.0</ele><time>2026-04-26T12:10:43.729Z</time></trkpt><trkpt lat="42.950205" lon="2.5654717"><ele>487.0</ele><time>2026-04-26T12:10:44.729Z</time></trkpt><trkpt lat="42.950175" lon="2.5656167"><ele>487.6</ele><time>2026-04-26T12:10:45.73Z</time></trkpt><trkpt lat="42.9501267" lon="2.56576"><ele>488.20000000000005</ele><time>2026-04-26T12:10:46.729Z</time></trkpt><trkpt lat="42.95008" lon="2.565885"><ele>488.8</ele><time>2026-04-26T12:10:47.73Z</time></trkpt><trkpt lat="42.950025" lon="2.565995"><ele>489.4</ele><time>2026-04-26T12:10:48.738Z</time></trkpt><trkpt lat="42.9499533" lon="2.5660933"><ele>490.0</ele><time>2026-04-26T12:10:49.73Z</time></trkpt><trkpt lat="42.9498717" lon="2.5661783"><ele>492.4</ele><time>2026-04-26T12:10:50.728Z</time></trkpt><trkpt lat="42.9497867" lon="2.56626"><ele>494.8</ele><time>2026-04-26T12:10:51.73Z</time></trkpt><trkpt lat="42.9496983" lon="2.5663383"><ele>497.20000000000005</ele><time>2026-04-26T12:10:52.729Z</time></trkpt><trkpt lat="42.9496" lon="2.5664117"><ele>499.6</ele><time>2026-04-26T12:10:53.729Z</time></trkpt><trkpt lat="42.9494983" lon="2.56649"><ele>502.0</ele><time>2026-04-26T12:10:54.729Z</time></trkpt><trkpt lat="42.949405" lon="2.5665617"><ele>502.0</ele><time>2026-04-26T12:10:55.729Z</time></trkpt><trkpt lat="42.9493167" lon="2.566635"><ele>502.00000000000006</ele><time>2026-04-26T12:10:56.729Z</time></trkpt><trkpt lat="42.9492433" lon="2.5667233"><ele>502.00000000000006</ele><time>2026-04-26T12:10:57.73Z</time></trkpt><trkpt lat="42.9491833" lon="2.5668233"><ele>502.0</ele><time>2026-04-26T12:10:58.728Z</time></trkpt><trkpt lat="42.9491833" lon="2.5669383"><ele>502.0</ele><time>2026-04-26T12:10:59.729Z</time></trkpt><trkpt lat="42.9492033" lon="2.5670517"><ele>504.1666666666667</ele><time>2026-04-26T12:11:00.73Z</time></trkpt><trkpt lat="42.949255" lon="2.5671483"><ele>506.33333333333337</ele><time>2026-04-26T12:11:01.73Z</time></trkpt><trkpt lat="42.94932" lon="2.5672317"><ele>508.5</ele><time>2026-04-26T12:11:02.729Z</time></trkpt><trkpt lat="42.9494067" lon="2.567255"><ele>510.66666666666663</ele><time>2026-04-26T12:11:03.729Z</time></trkpt><trkpt lat="42.949495" lon="2.5672467"><ele>512.8333333333333</ele><time>2026-04-26T12:11:04.729Z</time></trkpt><trkpt lat="42.949575" lon="2.56722"><ele>515.0</ele><time>2026-04-26T12:11:05.731Z</time></trkpt><trkpt lat="42.9496467" lon="2.5672"><ele>515.0</ele><time>2026-04-26T12:11:06.729Z</time></trkpt><trkpt lat="42.9497567" lon="2.567295"><ele>515.0</ele><time>2026-04-26T12:11:08.728Z</time></trkpt><trkpt lat="42.94981" lon="2.5674017"><ele>515.0</ele><time>2026-04-26T12:11:09.729Z</time></trkpt><trkpt lat="42.949865" lon="2.5675233"><ele>515.0</ele><time>2026-04-26T12:11:10.729Z</time></trkpt><trkpt lat="42.9499217" lon="2.5676483"><ele>515.0</ele><time>2026-04-26T12:11:11.729Z</time></trkpt><trkpt lat="42.94998" lon="2.56777"><ele>515.2</ele><time>2026-04-26T12:11:12.728Z</time></trkpt><trkpt lat="42.9500333" lon="2.56789"><ele>515.4</ele><time>2026-04-26T12:11:13.729Z</time></trkpt><trkpt lat="42.950085" lon="2.568015"><ele>515.6</ele><time>2026-04-26T12:11:14.728Z</time></trkpt><trkpt lat="42.9501367" lon="2.56814"><ele>515.8</ele><time>2026-04-26T12:11:15.729Z</time></trkpt><trkpt lat="42.95018" lon="2.5682633"><ele>516.0</ele><time>2026-04-26T12:11:16.734Z</time></trkpt><trkpt lat="42.9502083" lon="2.5683917"><ele>517.6</ele><time>2026-04-26T12:11:17.729Z</time></trkpt><trkpt lat="42.9502267" lon="2.568535"><ele>519.2</ele><time>2026-04-26T12:11:18.728Z</time></trkpt><trkpt lat="42.9502433" lon="2.568675"><ele>520.8</ele><time>2026-04-26T12:11:19.728Z</time></trkpt><trkpt lat="42.950255" lon="2.5688167"><ele>522.4</ele><time>2026-04-26T12:11:20.731Z</time></trkpt><trkpt lat="42.9502517" lon="2.5689617"><ele>524.0</ele><time>2026-04-26T12:11:21.728Z</time></trkpt><trkpt lat="42.950235" lon="2.569115"><ele>525.4</ele><time>2026-04-26T12:11:22.728Z</time></trkpt><trkpt lat="42.95021" lon="2.5692633"><ele>526.8</ele><time>2026-04-26T12:11:23.728Z</time></trkpt><trkpt lat="42.9501867" lon="2.56941"><ele>528.2</ele><time>2026-04-26T12:11:24.727Z</time></trkpt><trkpt lat="42.9501617" lon="2.5695417"><ele>529.6</ele><time>2026-04-26T12:11:25.728Z</time></trkpt><trkpt lat="42.9501333" lon="2.5696583"><ele>531.0</ele><time>2026-04-26T12:11:26.728Z</time></trkpt><trkpt lat="42.9500967" lon="2.5697667"><ele>530.2</ele><time>2026-04-26T12:11:27.731Z</time></trkpt><trkpt lat="42.950055" lon="2.56988"><ele>529.4000000000001</ele><time>2026-04-26T12:11:28.73Z</time></trkpt><trkpt lat="42.9500033" lon="2.57"><ele>528.6</ele><time>2026-04-26T12:11:29.73Z</time></trkpt><trkpt lat="42.9499483" lon="2.5701133"><ele>527.8000000000001</ele><time>2026-04-26T12:11:30.73Z</time></trkpt><trkpt lat="42.9498883" lon="2.5702283"><ele>527.0</ele><time>2026-04-26T12:11:31.73Z</time></trkpt><trkpt lat="42.9498283" lon="2.5703433"><ele>527.4</ele><time>2026-04-26T12:11:32.731Z</time></trkpt><trkpt lat="42.9497783" lon="2.5704667"><ele>527.8000000000001</ele><time>2026-04-26T12:11:33.729Z</time></trkpt><trkpt lat="42.9497517" lon="2.5706"><ele>528.2</ele><time>2026-04-26T12:11:34.727Z</time></trkpt><trkpt lat="42.9497317" lon="2.5707417"><ele>528.6</ele><time>2026-04-26T12:11:35.727Z</time></trkpt><trkpt lat="42.949715" lon="2.5708833"><ele>529.0</ele><time>2026-04-26T12:11:36.728Z</time></trkpt><trkpt lat="42.9497067" lon="2.571045"><ele>529.5</ele><time>2026-04-26T12:11:37.728Z</time></trkpt><trkpt lat="42.9497083" lon="2.5712133"><ele>530.0</ele><time>2026-04-26T12:11:38.73Z</time></trkpt><trkpt lat="42.9497067" lon="2.5713817"><ele>530.5</ele><time>2026-04-26T12:11:39.729Z</time></trkpt><trkpt lat="42.9497083" lon="2.57155"><ele>531.0</ele><time>2026-04-26T12:11:40.727Z</time></trkpt><trkpt lat="42.949715" lon="2.5717133"><ele>531.0</ele><time>2026-04-26T12:11:41.727Z</time></trkpt><trkpt lat="42.949715" lon="2.5718683"><ele>531.0</ele><time>2026-04-26T12:11:42.728Z</time></trkpt><trkpt lat="42.9496967" lon="2.5720167"><ele>531.0</ele><time>2026-04-26T12:11:43.729Z</time></trkpt><trkpt lat="42.9496617" lon="2.572155"><ele>531.0</ele><time>2026-04-26T12:11:44.729Z</time></trkpt><trkpt lat="42.9496267" lon="2.57228"><ele>531.0</ele><time>2026-04-26T12:11:45.727Z</time></trkpt><trkpt lat="42.9495867" lon="2.572395"><ele>531.8333333333334</ele><time>2026-04-26T12:11:46.73Z</time></trkpt><trkpt lat="42.949535" lon="2.572495"><ele>532.6666666666666</ele><time>2026-04-26T12:11:47.728Z</time></trkpt><trkpt lat="42.94948" lon="2.5725833"><ele>533.5</ele><time>2026-04-26T12:11:48.734Z</time></trkpt><trkpt lat="42.9494217" lon="2.5726683"><ele>534.3333333333333</ele><time>2026-04-26T12:11:49.73Z</time></trkpt><trkpt lat="42.9493683" lon="2.5727517"><ele>535.1666666666666</ele><time>2026-04-26T12:11:50.728Z</time></trkpt><trkpt lat="42.949325" lon="2.5728367"><ele>536.0</ele><time>2026-04-26T12:11:51.73Z</time></trkpt><trkpt lat="42.9492867" lon="2.5729067"><ele>538.1666666666666</ele><time>2026-04-26T12:11:52.729Z</time></trkpt><trkpt lat="42.9491833" lon="2.5728967"><ele>540.3333333333333</ele><time>2026-04-26T12:11:54.729Z</time></trkpt><trkpt lat="42.9491567" lon="2.5728133"><ele>542.5</ele><time>2026-04-26T12:11:55.729Z</time></trkpt><trkpt lat="42.9491483" lon="2.572725"><ele>544.6666666666666</ele><time>2026-04-26T12:11:56.73Z</time></trkpt><trkpt lat="42.9491467" lon="2.5726133"><ele>546.8333333333334</ele><time>2026-04-26T12:11:57.73Z</time></trkpt><trkpt lat="42.9491417" lon="2.5725083"><ele>549.0</ele><time>2026-04-26T12:11:58.734Z</time></trkpt><trkpt lat="42.9490533" lon="2.57252"><ele>549.0</ele><time>2026-04-26T12:12:01.73Z</time></trkpt><trkpt lat="42.9490133" lon="2.572595"><ele>549.0</ele><time>2026-04-26T12:12:02.736Z</time></trkpt><trkpt lat="42.94898" lon="2.5726767"><ele>549.0</ele><time>2026-04-26T12:12:03.729Z</time></trkpt><trkpt lat="42.9489633" lon="2.5727717"><ele>549.0</ele><time>2026-04-26T12:12:04.729Z</time></trkpt><trkpt lat="42.9489467" lon="2.572855"><ele>549.0</ele><time>2026-04-26T12:12:05.728Z</time></trkpt><trkpt lat="42.9488783" lon="2.5729417"><ele>549.0</ele><time>2026-04-26T12:12:07.731Z</time></trkpt><trkpt lat="42.9488433" lon="2.5728333"><ele>549.0</ele><time>2026-04-26T12:12:09.731Z</time></trkpt><trkpt lat="42.9488583" lon="2.5726933"><ele>549.0</ele><time>2026-04-26T12:12:10.731Z</time></trkpt><trkpt lat="42.9488783" lon="2.5725517"><ele>549.0</ele><time>2026-04-26T12:12:11.73Z</time></trkpt><trkpt lat="42.9489" lon="2.572425"><ele>549.0</ele><time>2026-04-26T12:12:12.73Z</time></trkpt><trkpt lat="42.94891" lon="2.5723217"><ele>549.0</ele><time>2026-04-26T12:12:13.731Z</time></trkpt><trkpt lat="42.94887" lon="2.5722"><ele>549.0</ele><time>2026-04-26T12:12:15.729Z</time></trkpt><trkpt lat="42.9487617" lon="2.57228"><ele>549.0</ele><time>2026-04-26T12:12:17.73Z</time></trkpt><trkpt lat="42.9487" lon="2.57237"><ele>549.0</ele><time>2026-04-26T12:12:18.728Z</time></trkpt><trkpt lat="42.9486333" lon="2.5724783"><ele>549.0</ele><time>2026-04-26T12:12:19.731Z</time></trkpt><trkpt lat="42.9485583" lon="2.57259"><ele>549.0</ele><time>2026-04-26T12:12:20.73Z</time></trkpt><trkpt lat="42.948475" lon="2.5727017"><ele>549.0</ele><time>2026-04-26T12:12:21.729Z</time></trkpt><trkpt lat="42.9484" lon="2.5728167"><ele>549.0</ele><time>2026-04-26T12:12:22.733Z</time></trkpt><trkpt lat="42.94835" lon="2.5729283"><ele>549.0</ele><time>2026-04-26T12:12:23.729Z</time></trkpt><trkpt lat="42.948325" lon="2.5730367"><ele>549.0</ele><time>2026-04-26T12:12:24.73Z</time></trkpt><trkpt lat="42.948345" lon="2.5731333"><ele>549.0</ele><time>2026-04-26T12:12:25.73Z</time></trkpt><trkpt lat="42.94839" lon="2.5732367"><ele>550.1666666666666</ele><time>2026-04-26T12:12:26.729Z</time></trkpt><trkpt lat="42.9484283" lon="2.5733517"><ele>551.3333333333334</ele><time>2026-04-26T12:12:27.729Z</time></trkpt><trkpt lat="42.94845" lon="2.5734683"><ele>552.5</ele><time>2026-04-26T12:12:28.73Z</time></trkpt><trkpt lat="42.9484483" lon="2.5735833"><ele>553.6666666666667</ele><time>2026-04-26T12:12:29.729Z</time></trkpt><trkpt lat="42.948425" lon="2.5736817"><ele>554.8333333333334</ele><time>2026-04-26T12:12:30.73Z</time></trkpt><trkpt lat="42.9483817" lon="2.5737683"><ele>556.0</ele><time>2026-04-26T12:12:31.729Z</time></trkpt><trkpt lat="42.948315" lon="2.5738467"><ele>559.75</ele><time>2026-04-26T12:12:32.731Z</time></trkpt><trkpt lat="42.9482283" lon="2.5739233"><ele>563.5</ele><time>2026-04-26T12:12:33.731Z</time></trkpt><trkpt lat="42.9481367" lon="2.5740183"><ele>567.25</ele><time>2026-04-26T12:12:34.731Z</time></trkpt><trkpt lat="42.948055" lon="2.574135"><ele>571.0</ele><time>2026-04-26T12:12:35.73Z</time></trkpt><trkpt lat="42.9479833" lon="2.5742733"><ele>571.0</ele><time>2026-04-26T12:12:36.729Z</time></trkpt><trkpt lat="42.9479233" lon="2.5744267"><ele>571.0</ele><time>2026-04-26T12:12:37.73Z</time></trkpt><trkpt lat="42.947865" lon="2.5745767"><ele>571.0</ele><time>2026-04-26T12:12:38.732Z</time></trkpt><trkpt lat="42.9478067" lon="2.574735"><ele>571.0</ele><time>2026-04-26T12:12:39.729Z</time></trkpt><trkpt lat="42.9477533" lon="2.57489"><ele>572.8</ele><time>2026-04-26T12:12:40.731Z</time></trkpt><trkpt lat="42.9477033" lon="2.5750367"><ele>574.6</ele><time>2026-04-26T12:12:41.729Z</time></trkpt><trkpt lat="42.9476567" lon="2.5751667"><ele>576.4</ele><time>2026-04-26T12:12:42.729Z</time></trkpt><trkpt lat="42.9476" lon="2.575285"><ele>578.2</ele><time>2026-04-26T12:12:43.729Z</time></trkpt><trkpt lat="42.9475233" lon="2.5753883"><ele>580.0</ele><time>2026-04-26T12:12:44.73Z</time></trkpt><trkpt lat="42.9474317" lon="2.5754933"><ele>580.6</ele><time>2026-04-26T12:12:45.731Z</time></trkpt><trkpt lat="42.947335" lon="2.5755883"><ele>581.2</ele><time>2026-04-26T12:12:46.728Z</time></trkpt><trkpt lat="42.947245" lon="2.5756717"><ele>581.8</ele><time>2026-04-26T12:12:47.732Z</time></trkpt><trkpt lat="42.94716" lon="2.5757567"><ele>582.4</ele><time>2026-04-26T12:12:48.73Z</time></trkpt><trkpt lat="42.9470783" lon="2.5758367"><ele>583.0</ele><time>2026-04-26T12:12:49.731Z</time></trkpt><trkpt lat="42.9469867" lon="2.5759183"><ele>583.0</ele><time>2026-04-26T12:12:50.731Z</time></trkpt><trkpt lat="42.946895" lon="2.5759983"><ele>583.0</ele><time>2026-04-26T12:12:51.731Z</time></trkpt><trkpt lat="42.9468217" lon="2.5760733"><ele>583.0</ele><time>2026-04-26T12:12:52.732Z</time></trkpt><trkpt lat="42.9467733" lon="2.576165"><ele>583.0</ele><time>2026-04-26T12:12:53.73Z</time></trkpt><trkpt lat="42.94673" lon="2.5762717"><ele>583.0</ele><time>2026-04-26T12:12:54.73Z</time></trkpt><trkpt lat="42.9466867" lon="2.5763817"><ele>584.5</ele><time>2026-04-26T12:12:55.731Z</time></trkpt><trkpt lat="42.9466367" lon="2.576465"><ele>586.0</ele><time>2026-04-26T12:12:56.733Z</time></trkpt><trkpt lat="42.9465717" lon="2.57653"><ele>587.5</ele><time>2026-04-26T12:12:57.73Z</time></trkpt><trkpt lat="42.946495" lon="2.5765583"><ele>589.0</ele><time>2026-04-26T12:12:58.731Z</time></trkpt><trkpt lat="42.94642" lon="2.5765817"><ele>590.5</ele><time>2026-04-26T12:12:59.729Z</time></trkpt><trkpt lat="42.9463533" lon="2.5766233"><ele>592.0</ele><time>2026-04-26T12:13:00.733Z</time></trkpt><trkpt lat="42.94627" lon="2.576725"><ele>592.0</ele><time>2026-04-26T12:13:02.73Z</time></trkpt><trkpt lat="42.94619" lon="2.5767967"><ele>592.0</ele><time>2026-04-26T12:13:04.728Z</time></trkpt><trkpt lat="42.94606" lon="2.5767917"><ele>592.0</ele><time>2026-04-26T12:13:06.73Z</time></trkpt><trkpt lat="42.945985" lon="2.57676"><ele>592.0</ele><time>2026-04-26T12:13:07.731Z</time></trkpt><trkpt lat="42.94592" lon="2.5766967"><ele>592.0</ele><time>2026-04-26T12:13:08.732Z</time></trkpt><trkpt lat="42.9458617" lon="2.5766283"><ele>592.2</ele><time>2026-04-26T12:13:09.731Z</time></trkpt><trkpt lat="42.945805" lon="2.5765483"><ele>592.4000000000001</ele><time>2026-04-26T12:13:10.73Z</time></trkpt><trkpt lat="42.9457417" lon="2.5764433"><ele>592.5999999999999</ele><time>2026-04-26T12:13:11.732Z</time></trkpt><trkpt lat="42.9456733" lon="2.57635"><ele>592.8</ele><time>2026-04-26T12:13:12.731Z</time></trkpt><trkpt lat="42.9456017" lon="2.5762567"><ele>593.0</ele><time>2026-04-26T12:13:13.731Z</time></trkpt><trkpt lat="42.9455217" lon="2.5761617"><ele>593.6</ele><time>2026-04-26T12:13:14.73Z</time></trkpt><trkpt lat="42.9454333" lon="2.5760683"><ele>594.1999999999999</ele><time>2026-04-26T12:13:15.728Z</time></trkpt><trkpt lat="42.9453517" lon="2.5759667"><ele>594.8</ele><time>2026-04-26T12:13:16.729Z</time></trkpt><trkpt lat="42.9452733" lon="2.5758583"><ele>595.4</ele><time>2026-04-26T12:13:17.73Z</time></trkpt><trkpt lat="42.9451917" lon="2.5757517"><ele>596.0</ele><time>2026-04-26T12:13:18.73Z</time></trkpt><trkpt lat="42.9451067" lon="2.575645"><ele>596.0</ele><time>2026-04-26T12:13:19.732Z</time></trkpt><trkpt lat="42.9450167" lon="2.5755367"><ele>596.0</ele><time>2026-04-26T12:13:20.73Z</time></trkpt><trkpt lat="42.9449183" lon="2.5754333"><ele>596.0</ele><time>2026-04-26T12:13:21.729Z</time></trkpt><trkpt lat="42.9448217" lon="2.5753283"><ele>596.0</ele><time>2026-04-26T12:13:22.73Z</time></trkpt><trkpt lat="42.9447317" lon="2.5752167"><ele>598.0</ele><time>2026-04-26T12:13:23.728Z</time></trkpt><trkpt lat="42.9446317" lon="2.57511"><ele>600.0</ele><time>2026-04-26T12:13:24.731Z</time></trkpt><trkpt lat="42.9445267" lon="2.5750217"><ele>602.0</ele><time>2026-04-26T12:13:25.73Z</time></trkpt><trkpt lat="42.9444017" lon="2.5749617"><ele>604.0</ele><time>2026-04-26T12:13:26.731Z</time></trkpt><trkpt lat="42.9442633" lon="2.5749267"><ele>604.3333333333334</ele><time>2026-04-26T12:13:27.731Z</time></trkpt><trkpt lat="42.9441167" lon="2.5749"><ele>604.6666666666666</ele><time>2026-04-26T12:13:28.73Z</time></trkpt><trkpt lat="42.9439633" lon="2.57488"><ele>605.0</ele><time>2026-04-26T12:13:29.731Z</time></trkpt><trkpt lat="42.9438083" lon="2.5748683"><ele>605.0</ele><time>2026-04-26T12:13:30.732Z</time></trkpt><trkpt lat="42.94366" lon="2.574855"><ele>605.0</ele><time>2026-04-26T12:13:31.73Z</time></trkpt><trkpt lat="42.9435133" lon="2.5748383"><ele>605.0</ele><time>2026-04-26T12:13:32.73Z</time></trkpt><trkpt lat="42.9433667" lon="2.5748217"><ele>605.0</ele><time>2026-04-26T12:13:33.729Z</time></trkpt><trkpt lat="42.9432167" lon="2.5748"><ele>605.25</ele><time>2026-04-26T12:13:34.728Z</time></trkpt><trkpt lat="42.9430717" lon="2.57478"><ele>605.5</ele><time>2026-04-26T12:13:35.729Z</time></trkpt><trkpt lat="42.9429317" lon="2.574765"><ele>605.75</ele><time>2026-04-26T12:13:36.73Z</time></trkpt><trkpt lat="42.9427933" lon="2.5747517"><ele>606.0</ele><time>2026-04-26T12:13:37.728Z</time></trkpt><trkpt lat="42.94267" lon="2.5747317"><ele>606.0</ele><time>2026-04-26T12:13:38.731Z</time></trkpt><trkpt lat="42.94256" lon="2.57469"><ele>606.0</ele><time>2026-04-26T12:13:39.731Z</time></trkpt><trkpt lat="42.9424617" lon="2.57462"><ele>606.0</ele><time>2026-04-26T12:13:40.729Z</time></trkpt><trkpt lat="42.9423683" lon="2.5745267"><ele>606.0</ele><time>2026-04-26T12:13:41.73Z</time></trkpt><trkpt lat="42.9422883" lon="2.57442"><ele>607.0</ele><time>2026-04-26T12:13:42.734Z</time></trkpt><trkpt lat="42.94222" lon="2.57431"><ele>608.0</ele><time>2026-04-26T12:13:43.728Z</time></trkpt><trkpt lat="42.942155" lon="2.5741983"><ele>609.0</ele><time>2026-04-26T12:13:44.73Z</time></trkpt><trkpt lat="42.9420783" lon="2.5741117"><ele>610.0</ele><time>2026-04-26T12:13:45.73Z</time></trkpt><trkpt lat="42.9419933" lon="2.57406"><ele>611.0</ele><time>2026-04-26T12:13:46.73Z</time></trkpt><trkpt lat="42.9418917" lon="2.5740283"><ele>611.0</ele><time>2026-04-26T12:13:47.729Z</time></trkpt><trkpt lat="42.9417833" lon="2.5740067"><ele>611.0</ele><time>2026-04-26T12:13:48.729Z</time></trkpt><trkpt lat="42.9416717" lon="2.573985"><ele>611.0</ele><time>2026-04-26T12:13:49.728Z</time></trkpt><trkpt lat="42.9415517" lon="2.5739767"><ele>611.0</ele><time>2026-04-26T12:13:50.735Z</time></trkpt><trkpt lat="42.9414333" lon="2.573975"><ele>611.0</ele><time>2026-04-26T12:13:51.73Z</time></trkpt><trkpt lat="42.9413083" lon="2.5739683"><ele>611.0</ele><time>2026-04-26T12:13:52.727Z</time></trkpt><trkpt lat="42.9411783" lon="2.57395"><ele>611.0</ele><time>2026-04-26T12:13:53.729Z</time></trkpt><trkpt lat="42.94105" lon="2.5739167"><ele>611.0</ele><time>2026-04-26T12:13:54.729Z</time></trkpt><trkpt lat="42.9409283" lon="2.5738817"><ele>611.2</ele><time>2026-04-26T12:13:55.729Z</time></trkpt><trkpt lat="42.9408167" lon="2.573845"><ele>611.4000000000001</ele><time>2026-04-26T12:13:56.728Z</time></trkpt><trkpt lat="42.9407217" lon="2.5737933"><ele>611.6</ele><time>2026-04-26T12:13:57.73Z</time></trkpt><trkpt lat="42.9406467" lon="2.5737183"><ele>611.8000000000001</ele><time>2026-04-26T12:13:58.728Z</time></trkpt><trkpt lat="42.9405883" lon="2.5736133"><ele>612.0</ele><time>2026-04-26T12:13:59.729Z</time></trkpt><trkpt lat="42.9405417" lon="2.5735017"><ele>612.5</ele><time>2026-04-26T12:14:00.729Z</time></trkpt><trkpt lat="42.940505" lon="2.5734017"><ele>613.0</ele><time>2026-04-26T12:14:01.728Z</time></trkpt><trkpt lat="42.9404633" lon="2.5733167"><ele>613.5</ele><time>2026-04-26T12:14:02.729Z</time></trkpt><trkpt lat="42.9404017" lon="2.5732583"><ele>614.0</ele><time>2026-04-26T12:14:03.728Z</time></trkpt><trkpt lat="42.940325" lon="2.5732367"><ele>614.5</ele><time>2026-04-26T12:14:04.735Z</time></trkpt><trkpt lat="42.9402417" lon="2.5732217"><ele>615.0</ele><time>2026-04-26T12:14:05.729Z</time></trkpt><trkpt lat="42.9401433" lon="2.5732183"><ele>615.5</ele><time>2026-04-26T12:14:06.728Z</time></trkpt><trkpt lat="42.940035" lon="2.5731983"><ele>616.0</ele><time>2026-04-26T12:14:07.728Z</time></trkpt><trkpt lat="42.93992" lon="2.5731533"><ele>616.5</ele><time>2026-04-26T12:14:08.73Z</time></trkpt><trkpt lat="42.9398167" lon="2.5730817"><ele>617.0</ele><time>2026-04-26T12:14:09.73Z</time></trkpt><trkpt lat="42.9397233" lon="2.5730133"><ele>617.0</ele><time>2026-04-26T12:14:10.73Z</time></trkpt><trkpt lat="42.9396433" lon="2.5729433"><ele>617.0</ele><time>2026-04-26T12:14:11.728Z</time></trkpt><trkpt lat="42.939575" lon="2.5728583"><ele>617.0</ele><time>2026-04-26T12:14:12.73Z</time></trkpt><trkpt lat="42.9395117" lon="2.572765"><ele>617.0</ele><time>2026-04-26T12:14:13.729Z</time></trkpt><trkpt lat="42.93945" lon="2.5726783"><ele>617.0</ele><time>2026-04-26T12:14:14.729Z</time></trkpt><trkpt lat="42.939385" lon="2.5726083"><ele>616.4</ele><time>2026-04-26T12:14:15.729Z</time></trkpt><trkpt lat="42.939325" lon="2.572555"><ele>615.8000000000001</ele><time>2026-04-26T12:14:16.728Z</time></trkpt><trkpt lat="42.9392133" lon="2.5725617"><ele>615.2</ele><time>2026-04-26T12:14:18.727Z</time></trkpt><trkpt lat="42.93915" lon="2.5726517"><ele>614.6</ele><time>2026-04-26T12:14:19.728Z</time></trkpt><trkpt lat="42.93908" lon="2.5727483"><ele>614.0</ele><time>2026-04-26T12:14:20.728Z</time></trkpt><trkpt lat="42.939" lon="2.5728333"><ele>615.25</ele><time>2026-04-26T12:14:21.73Z</time></trkpt><trkpt lat="42.938905" lon="2.5729183"><ele>616.5</ele><time>2026-04-26T12:14:22.728Z</time></trkpt><trkpt lat="42.9388033" lon="2.5730033"><ele>617.75</ele><time>2026-04-26T12:14:23.729Z</time></trkpt><trkpt lat="42.93869" lon="2.5730933"><ele>619.0</ele><time>2026-04-26T12:14:24.728Z</time></trkpt><trkpt lat="42.9385733" lon="2.5731783"><ele>619.0</ele><time>2026-04-26T12:14:25.729Z</time></trkpt><trkpt lat="42.9384567" lon="2.5732617"><ele>619.0</ele><time>2026-04-26T12:14:26.73Z</time></trkpt><trkpt lat="42.9383433" lon="2.5733417"><ele>619.0</ele><time>2026-04-26T12:14:27.728Z</time></trkpt><trkpt lat="42.9382283" lon="2.5734167"><ele>619.0</ele><time>2026-04-26T12:14:28.728Z</time></trkpt><trkpt lat="42.9381217" lon="2.573485"><ele>621.4</ele><time>2026-04-26T12:14:29.728Z</time></trkpt><trkpt lat="42.9380233" lon="2.5735283"><ele>623.8</ele><time>2026-04-26T12:14:30.728Z</time></trkpt><trkpt lat="42.9379333" lon="2.573535"><ele>626.2</ele><time>2026-04-26T12:14:31.729Z</time></trkpt><trkpt lat="42.9378433" lon="2.5735117"><ele>628.6</ele><time>2026-04-26T12:14:32.731Z</time></trkpt><trkpt lat="42.9377567" lon="2.5734567"><ele>631.0</ele><time>2026-04-26T12:14:33.728Z</time></trkpt><trkpt lat="42.9376667" lon="2.5733933"><ele>631.0</ele><time>2026-04-26T12:14:34.728Z</time></trkpt><trkpt lat="42.9375667" lon="2.573325"><ele>631.0</ele><time>2026-04-26T12:14:35.729Z</time></trkpt><trkpt lat="42.9374583" lon="2.5732583"><ele>631.0</ele><time>2026-04-26T12:14:36.729Z</time></trkpt><trkpt lat="42.9373583" lon="2.57319"><ele>631.0</ele><time>2026-04-26T12:14:37.728Z</time></trkpt><trkpt lat="42.937255" lon="2.5731167"><ele>631.8</ele><time>2026-04-26T12:14:38.73Z</time></trkpt><trkpt lat="42.93716" lon="2.5730383"><ele>632.6</ele><time>2026-04-26T12:14:39.729Z</time></trkpt><trkpt lat="42.9370817" lon="2.57296"><ele>633.4</ele><time>2026-04-26T12:14:40.728Z</time></trkpt><trkpt lat="42.937005" lon="2.5728833"><ele>634.2</ele><time>2026-04-26T12:14:41.73Z</time></trkpt><trkpt lat="42.9369417" lon="2.57281"><ele>635.0</ele><time>2026-04-26T12:14:42.73Z</time></trkpt><trkpt lat="42.936885" lon="2.5727433"><ele>635.0</ele><time>2026-04-26T12:14:43.729Z</time></trkpt><trkpt lat="42.936835" lon="2.5726867"><ele>635.0</ele><time>2026-04-26T12:14:44.728Z</time></trkpt><trkpt lat="42.93677" lon="2.5725917"><ele>635.0</ele><time>2026-04-26T12:14:46.733Z</time></trkpt><trkpt lat="42.9367367" lon="2.57249"><ele>635.0</ele><time>2026-04-26T12:14:49.728Z</time></trkpt><trkpt lat="42.93669" lon="2.5725567"><ele>635.0</ele><time>2026-04-26T12:14:52.728Z</time></trkpt><trkpt lat="42.9366183" lon="2.5726417"><ele>635.0</ele><time>2026-04-26T12:14:54.731Z</time></trkpt><trkpt lat="42.9365583" lon="2.572685"><ele>634.8333333333333</ele><time>2026-04-26T12:14:55.729Z</time></trkpt><trkpt lat="42.936485" lon="2.5727317"><ele>634.6666666666666</ele><time>2026-04-26T12:14:56.731Z</time></trkpt><trkpt lat="42.9364233" lon="2.572785"><ele>634.5</ele><time>2026-04-26T12:14:57.729Z</time></trkpt><trkpt lat="42.9363683" lon="2.5728417"><ele>634.3333333333334</ele><time>2026-04-26T12:14:58.736Z</time></trkpt><trkpt lat="42.9363417" lon="2.5729267"><ele>634.1666666666667</ele><time>2026-04-26T12:14:59.73Z</time></trkpt><trkpt lat="42.9363383" lon="2.573025"><ele>634.0</ele><time>2026-04-26T12:15:00.73Z</time></trkpt><trkpt lat="42.936365" lon="2.5731417"><ele>634.0</ele><time>2026-04-26T12:15:01.728Z</time></trkpt><trkpt lat="42.93642" lon="2.5732867"><ele>634.0</ele><time>2026-04-26T12:15:02.73Z</time></trkpt><trkpt lat="42.9364733" lon="2.5734283"><ele>634.0</ele><time>2026-04-26T12:15:03.73Z</time></trkpt><trkpt lat="42.9365183" lon="2.573565"><ele>634.0</ele><time>2026-04-26T12:15:04.729Z</time></trkpt><trkpt lat="42.9365583" lon="2.5736883"><ele>634.0</ele><time>2026-04-26T12:15:05.732Z</time></trkpt><trkpt lat="42.93659" lon="2.5738033"><ele>633.6666666666667</ele><time>2026-04-26T12:15:06.731Z</time></trkpt><trkpt lat="42.936625" lon="2.5739117"><ele>633.3333333333334</ele><time>2026-04-26T12:15:07.731Z</time></trkpt><trkpt lat="42.93667" lon="2.57401"><ele>633.0</ele><time>2026-04-26T12:15:08.731Z</time></trkpt><trkpt lat="42.9367233" lon="2.5741033"><ele>632.6666666666666</ele><time>2026-04-26T12:15:09.731Z</time></trkpt><trkpt lat="42.9367833" lon="2.574195"><ele>632.3333333333333</ele><time>2026-04-26T12:15:10.729Z</time></trkpt><trkpt lat="42.9368417" lon="2.5742867"><ele>632.0</ele><time>2026-04-26T12:15:11.729Z</time></trkpt><trkpt lat="42.93691" lon="2.574365"><ele>632.0</ele><time>2026-04-26T12:15:12.734Z</time></trkpt><trkpt lat="42.9369783" lon="2.5744333"><ele>632.0</ele><time>2026-04-26T12:15:13.73Z</time></trkpt><trkpt lat="42.9370533" lon="2.5744883"><ele>632.0</ele><time>2026-04-26T12:15:14.73Z</time></trkpt><trkpt lat="42.93714" lon="2.5745483"><ele>632.0</ele><time>2026-04-26T12:15:15.729Z</time></trkpt><trkpt lat="42.93724" lon="2.5746133"><ele>632.0</ele><time>2026-04-26T12:15:16.73Z</time></trkpt><trkpt lat="42.9373383" lon="2.5746833"><ele>629.8000000000001</ele><time>2026-04-26T12:15:17.729Z</time></trkpt><trkpt lat="42.9374317" lon="2.5747467"><ele>627.6</ele><time>2026-04-26T12:15:18.728Z</time></trkpt><trkpt lat="42.9375217" lon="2.5748067"><ele>625.4000000000001</ele><time>2026-04-26T12:15:19.729Z</time></trkpt><trkpt lat="42.937615" lon="2.5748583"><ele>623.2</ele><time>2026-04-26T12:15:20.729Z</time></trkpt><trkpt lat="42.9377133" lon="2.574905"><ele>621.0</ele><time>2026-04-26T12:15:21.73Z</time></trkpt><trkpt lat="42.9378133" lon="2.574945"><ele>620.6</ele><time>2026-04-26T12:15:22.728Z</time></trkpt><trkpt lat="42.9379167" lon="2.57498"><ele>620.2</ele><time>2026-04-26T12:15:23.729Z</time></trkpt><trkpt lat="42.9380183" lon="2.5750067"><ele>619.8</ele><time>2026-04-26T12:15:24.729Z</time></trkpt><trkpt lat="42.9381133" lon="2.5750417"><ele>619.4</ele><time>2026-04-26T12:15:25.731Z</time></trkpt><trkpt lat="42.93821" lon="2.5750967"><ele>619.0</ele><time>2026-04-26T12:15:26.731Z</time></trkpt><trkpt lat="42.9383133" lon="2.5751617"><ele>618.75</ele><time>2026-04-26T12:15:27.729Z</time></trkpt><trkpt lat="42.9384183" lon="2.5752283"><ele>618.5</ele><time>2026-04-26T12:15:28.728Z</time></trkpt><trkpt lat="42.938525" lon="2.5752933"><ele>618.25</ele><time>2026-04-26T12:15:29.729Z</time></trkpt><trkpt lat="42.9386417" lon="2.575355"><ele>618.0</ele><time>2026-04-26T12:15:30.728Z</time></trkpt><trkpt lat="42.9387667" lon="2.5754067"><ele>617.75</ele><time>2026-04-26T12:15:31.729Z</time></trkpt><trkpt lat="42.9388983" lon="2.5754517"><ele>617.5</ele><time>2026-04-26T12:15:32.729Z</time></trkpt><trkpt lat="42.9390183" lon="2.5754967"><ele>617.25</ele><time>2026-04-26T12:15:33.729Z</time></trkpt><trkpt lat="42.9391267" lon="2.57555"><ele>617.0</ele><time>2026-04-26T12:15:34.733Z</time></trkpt><trkpt lat="42.93922" lon="2.5756017"><ele>616.8000000000001</ele><time>2026-04-26T12:15:35.728Z</time></trkpt><trkpt lat="42.9393067" lon="2.5756533"><ele>616.6</ele><time>2026-04-26T12:15:36.731Z</time></trkpt><trkpt lat="42.9393933" lon="2.575715"><ele>616.4000000000001</ele><time>2026-04-26T12:15:37.729Z</time></trkpt><trkpt lat="42.9394733" lon="2.5757833"><ele>616.2</ele><time>2026-04-26T12:15:38.729Z</time></trkpt><trkpt lat="42.93955" lon="2.575865"><ele>616.0</ele><time>2026-04-26T12:15:39.729Z</time></trkpt><trkpt lat="42.9396267" lon="2.5759567"><ele>616.0</ele><time>2026-04-26T12:15:40.728Z</time></trkpt><trkpt lat="42.9397067" lon="2.5760517"><ele>616.0</ele><time>2026-04-26T12:15:41.729Z</time></trkpt><trkpt lat="42.9397967" lon="2.5761417"><ele>616.0</ele><time>2026-04-26T12:15:42.734Z</time></trkpt><trkpt lat="42.9398883" lon="2.5762283"><ele>616.0</ele><time>2026-04-26T12:15:43.735Z</time></trkpt><trkpt lat="42.93997" lon="2.5763167"><ele>616.0</ele><time>2026-04-26T12:15:44.73Z</time></trkpt><trkpt lat="42.9400317" lon="2.5764033"><ele>615.5</ele><time>2026-04-26T12:15:45.727Z</time></trkpt><trkpt lat="42.940065" lon="2.5764917"><ele>615.0</ele><time>2026-04-26T12:15:46.729Z</time></trkpt><trkpt lat="42.94007" lon="2.57659"><ele>614.5</ele><time>2026-04-26T12:15:47.73Z</time></trkpt><trkpt lat="42.9400583" lon="2.576695"><ele>614.0</ele><time>2026-04-26T12:15:48.73Z</time></trkpt><trkpt lat="42.9400583" lon="2.5768117"><ele>613.5</ele><time>2026-04-26T12:15:49.73Z</time></trkpt><trkpt lat="42.9400683" lon="2.5769267"><ele>613.0</ele><time>2026-04-26T12:15:50.731Z</time></trkpt><trkpt lat="42.9400883" lon="2.5770417"><ele>612.6</ele><time>2026-04-26T12:15:51.728Z</time></trkpt><trkpt lat="42.9401167" lon="2.577155"><ele>612.1999999999999</ele><time>2026-04-26T12:15:52.732Z</time></trkpt><trkpt lat="42.940155" lon="2.5772717"><ele>611.8</ele><time>2026-04-26T12:15:53.729Z</time></trkpt><trkpt lat="42.94019" lon="2.577395"><ele>611.4</ele><time>2026-04-26T12:15:54.73Z</time></trkpt><trkpt lat="42.940215" lon="2.5775117"><ele>611.0</ele><time>2026-04-26T12:15:55.73Z</time></trkpt><trkpt lat="42.9402317" lon="2.5776317"><ele>611.0</ele><time>2026-04-26T12:15:56.73Z</time></trkpt><trkpt lat="42.9402367" lon="2.5777567"><ele>611.0</ele><time>2026-04-26T12:15:57.729Z</time></trkpt><trkpt lat="42.9402267" lon="2.5778767"><ele>611.0</ele><time>2026-04-26T12:15:58.731Z</time></trkpt><trkpt lat="42.94022" lon="2.5779967"><ele>611.0</ele><time>2026-04-26T12:15:59.729Z</time></trkpt><trkpt lat="42.94022" lon="2.5781183"><ele>611.0</ele><time>2026-04-26T12:16:00.734Z</time></trkpt><trkpt lat="42.94023" lon="2.5782433"><ele>611.0</ele><time>2026-04-26T12:16:01.73Z</time></trkpt><trkpt lat="42.9402517" lon="2.5783683"><ele>610.4</ele><time>2026-04-26T12:16:02.731Z</time></trkpt><trkpt lat="42.9402783" lon="2.57849"><ele>609.8</ele><time>2026-04-26T12:16:03.73Z</time></trkpt><trkpt lat="42.9403133" lon="2.578605"><ele>609.1999999999999</ele><time>2026-04-26T12:16:04.729Z</time></trkpt><trkpt lat="42.9403617" lon="2.57873"><ele>608.6</ele><time>2026-04-26T12:16:05.729Z</time></trkpt><trkpt lat="42.9404233" lon="2.5788617"><ele>608.0</ele><time>2026-04-26T12:16:06.729Z</time></trkpt><trkpt lat="42.940485" lon="2.5789917"><ele>606.0</ele><time>2026-04-26T12:16:07.728Z</time></trkpt><trkpt lat="42.9405467" lon="2.579115"><ele>604.0</ele><time>2026-04-26T12:16:08.729Z</time></trkpt><trkpt lat="42.9406033" lon="2.5792367"><ele>602.0</ele><time>2026-04-26T12:16:09.732Z</time></trkpt><trkpt lat="42.94066" lon="2.5793467"><ele>600.0</ele><time>2026-04-26T12:16:10.729Z</time></trkpt><trkpt lat="42.9407117" lon="2.5794467"><ele>598.0</ele><time>2026-04-26T12:16:11.729Z</time></trkpt><trkpt lat="42.94076" lon="2.5795417"><ele>597.0</ele><time>2026-04-26T12:16:12.729Z</time></trkpt><trkpt lat="42.9408067" lon="2.5796183"><ele>596.0</ele><time>2026-04-26T12:16:13.728Z</time></trkpt><trkpt lat="42.9409117" lon="2.5796933"><ele>595.0</ele><time>2026-04-26T12:16:15.729Z</time></trkpt><trkpt lat="42.94104" lon="2.5796783"><ele>594.0</ele><time>2026-04-26T12:16:17.728Z</time></trkpt><trkpt lat="42.9411067" lon="2.5796333"><ele>593.0</ele><time>2026-04-26T12:16:18.729Z</time></trkpt><trkpt lat="42.941205" lon="2.5795983"><ele>593.0</ele><time>2026-04-26T12:16:20.73Z</time></trkpt><trkpt lat="42.9412567" lon="2.5796933"><ele>593.0</ele><time>2026-04-26T12:16:22.729Z</time></trkpt><trkpt lat="42.9412667" lon="2.5797817"><ele>593.0</ele><time>2026-04-26T12:16:23.73Z</time></trkpt><trkpt lat="42.94127" lon="2.5798883"><ele>593.0</ele><time>2026-04-26T12:16:24.729Z</time></trkpt><trkpt lat="42.941275" lon="2.5799967"><ele>593.0</ele><time>2026-04-26T12:16:25.73Z</time></trkpt><trkpt lat="42.9412867" lon="2.5801083"><ele>593.0</ele><time>2026-04-26T12:16:26.729Z</time></trkpt><trkpt lat="42.9413033" lon="2.580225"><ele>593.0</ele><time>2026-04-26T12:16:27.729Z</time></trkpt><trkpt lat="42.9413233" lon="2.5803367"><ele>593.0</ele><time>2026-04-26T12:16:28.729Z</time></trkpt><trkpt lat="42.941345" lon="2.580445"><ele>593.0</ele><time>2026-04-26T12:16:29.728Z</time></trkpt><trkpt lat="42.9413567" lon="2.5805483"><ele>593.0</ele><time>2026-04-26T12:16:30.728Z</time></trkpt><trkpt lat="42.9413533" lon="2.58066"><ele>593.0</ele><time>2026-04-26T12:16:31.729Z</time></trkpt><trkpt lat="42.94135" lon="2.5807833"><ele>593.0</ele><time>2026-04-26T12:16:32.729Z</time></trkpt><trkpt lat="42.9413417" lon="2.5809067"><ele>592.3333333333333</ele><time>2026-04-26T12:16:33.73Z</time></trkpt><trkpt lat="42.9413383" lon="2.5810283"><ele>591.6666666666666</ele><time>2026-04-26T12:16:34.729Z</time></trkpt><trkpt lat="42.9413383" lon="2.58114"><ele>591.0</ele><time>2026-04-26T12:16:35.728Z</time></trkpt><trkpt lat="42.9413383" lon="2.5812283"><ele>590.3333333333334</ele><time>2026-04-26T12:16:36.73Z</time></trkpt><trkpt lat="42.9413117" lon="2.5813317"><ele>589.6666666666667</ele><time>2026-04-26T12:16:38.73Z</time></trkpt><trkpt lat="42.9412267" lon="2.5812683"><ele>589.0</ele><time>2026-04-26T12:16:40.73Z</time></trkpt><trkpt lat="42.9411917" lon="2.58119"><ele>589.0</ele><time>2026-04-26T12:16:41.734Z</time></trkpt><trkpt lat="42.9411533" lon="2.58109"><ele>589.0</ele><time>2026-04-26T12:16:42.73Z</time></trkpt><trkpt lat="42.941115" lon="2.580985"><ele>589.0</ele><time>2026-04-26T12:16:43.729Z</time></trkpt><trkpt lat="42.9410733" lon="2.5808767"><ele>589.0</ele><time>2026-04-26T12:16:44.733Z</time></trkpt><trkpt lat="42.9410367" lon="2.5807733"><ele>589.0</ele><time>2026-04-26T12:16:45.728Z</time></trkpt><trkpt lat="42.9409933" lon="2.580685"><ele>589.0</ele><time>2026-04-26T12:16:46.736Z</time></trkpt><trkpt lat="42.9409333" lon="2.5806183"><ele>587.5</ele><time>2026-04-26T12:16:47.729Z</time></trkpt><trkpt lat="42.9408583" lon="2.5805883"><ele>586.0</ele><time>2026-04-26T12:16:48.729Z</time></trkpt><trkpt lat="42.9407767" lon="2.580595"><ele>584.5</ele><time>2026-04-26T12:16:49.729Z</time></trkpt><trkpt lat="42.940685" lon="2.5806267"><ele>583.0</ele><time>2026-04-26T12:16:50.731Z</time></trkpt><trkpt lat="42.940595" lon="2.5806867"><ele>581.5</ele><time>2026-04-26T12:16:51.73Z</time></trkpt><trkpt lat="42.9405233" lon="2.580755"><ele>580.0</ele><time>2026-04-26T12:16:52.73Z</time></trkpt><trkpt lat="42.9404667" lon="2.5808367"><ele>580.0</ele><time>2026-04-26T12:16:53.729Z</time></trkpt><trkpt lat="42.94042" lon="2.58094"><ele>580.0</ele><time>2026-04-26T12:16:54.729Z</time></trkpt><trkpt lat="42.9403767" lon="2.5810483"><ele>580.0</ele><time>2026-04-26T12:16:55.728Z</time></trkpt><trkpt lat="42.94033" lon="2.5811567"><ele>580.0</ele><time>2026-04-26T12:16:56.731Z</time></trkpt><trkpt lat="42.9402767" lon="2.5812617"><ele>580.0</ele><time>2026-04-26T12:16:57.729Z</time></trkpt><trkpt lat="42.9402167" lon="2.58137"><ele>578.4</ele><time>2026-04-26T12:16:58.728Z</time></trkpt><trkpt lat="42.9401533" lon="2.581485"><ele>576.8</ele><time>2026-04-26T12:16:59.728Z</time></trkpt><trkpt lat="42.94009" lon="2.58159"><ele>575.2</ele><time>2026-04-26T12:17:00.729Z</time></trkpt><trkpt lat="42.9400333" lon="2.5816933"><ele>573.6</ele><time>2026-04-26T12:17:01.728Z</time></trkpt><trkpt lat="42.9399733" lon="2.5817983"><ele>572.0</ele><time>2026-04-26T12:17:02.73Z</time></trkpt><trkpt lat="42.939905" lon="2.5818867"><ele>571.2</ele><time>2026-04-26T12:17:03.729Z</time></trkpt><trkpt lat="42.9398183" lon="2.5819517"><ele>570.4000000000001</ele><time>2026-04-26T12:17:04.728Z</time></trkpt><trkpt lat="42.9397233" lon="2.58199"><ele>569.5999999999999</ele><time>2026-04-26T12:17:05.728Z</time></trkpt><trkpt lat="42.9396267" lon="2.58202"><ele>568.8</ele><time>2026-04-26T12:17:06.729Z</time></trkpt><trkpt lat="42.93954" lon="2.5820583"><ele>568.0</ele><time>2026-04-26T12:17:07.728Z</time></trkpt><trkpt lat="42.93946" lon="2.5821117"><ele>567.4</ele><time>2026-04-26T12:17:08.733Z</time></trkpt><trkpt lat="42.9393867" lon="2.58217"><ele>566.8</ele><time>2026-04-26T12:17:09.73Z</time></trkpt><trkpt lat="42.9393233" lon="2.5822433"><ele>566.2</ele><time>2026-04-26T12:17:10.731Z</time></trkpt><trkpt lat="42.9392667" lon="2.582335"><ele>565.6</ele><time>2026-04-26T12:17:11.73Z</time></trkpt><trkpt lat="42.9392283" lon="2.582465"><ele>565.0</ele><time>2026-04-26T12:17:12.734Z</time></trkpt><trkpt lat="42.9392067" lon="2.5825967"><ele>564.8</ele><time>2026-04-26T12:17:13.731Z</time></trkpt><trkpt lat="42.9391783" lon="2.5827183"><ele>564.6</ele><time>2026-04-26T12:17:14.729Z</time></trkpt><trkpt lat="42.9391317" lon="2.582835"><ele>564.4</ele><time>2026-04-26T12:17:15.732Z</time></trkpt><trkpt lat="42.9390733" lon="2.58295"><ele>564.2</ele><time>2026-04-26T12:17:16.733Z</time></trkpt><trkpt lat="42.93901" lon="2.583075"><ele>564.0</ele><time>2026-04-26T12:17:17.728Z</time></trkpt><trkpt lat="42.9389533" lon="2.5832067"><ele>563.5</ele><time>2026-04-26T12:17:18.733Z</time></trkpt><trkpt lat="42.9389083" lon="2.5833533"><ele>563.0</ele><time>2026-04-26T12:17:19.732Z</time></trkpt><trkpt lat="42.93888" lon="2.5835117"><ele>562.5</ele><time>2026-04-26T12:17:20.73Z</time></trkpt><trkpt lat="42.938865" lon="2.5836717"><ele>562.0</ele><time>2026-04-26T12:17:21.731Z</time></trkpt><trkpt lat="42.93885" lon="2.583825"><ele>561.8000000000001</ele><time>2026-04-26T12:17:22.73Z</time></trkpt><trkpt lat="42.938835" lon="2.5839683"><ele>561.6</ele><time>2026-04-26T12:17:23.73Z</time></trkpt><trkpt lat="42.9388167" lon="2.5841033"><ele>561.4000000000001</ele><time>2026-04-26T12:17:24.731Z</time></trkpt><trkpt lat="42.9387967" lon="2.58423"><ele>561.2</ele><time>2026-04-26T12:17:25.73Z</time></trkpt><trkpt lat="42.9387717" lon="2.58435"><ele>561.0</ele><time>2026-04-26T12:17:26.734Z</time></trkpt><trkpt lat="42.93875" lon="2.5844633"><ele>560.6</ele><time>2026-04-26T12:17:27.731Z</time></trkpt><trkpt lat="42.93873" lon="2.5845783"><ele>560.2</ele><time>2026-04-26T12:17:28.729Z</time></trkpt><trkpt lat="42.93871" lon="2.5847017"><ele>559.8</ele><time>2026-04-26T12:17:29.732Z</time></trkpt><trkpt lat="42.9386833" lon="2.5848317"><ele>559.4</ele><time>2026-04-26T12:17:30.73Z</time></trkpt><trkpt lat="42.9386483" lon="2.5849683"><ele>559.0</ele><time>2026-04-26T12:17:31.73Z</time></trkpt><trkpt lat="42.9386083" lon="2.5850967"><ele>559.0</ele><time>2026-04-26T12:17:32.732Z</time></trkpt><trkpt lat="42.9385683" lon="2.585215"><ele>559.0</ele><time>2026-04-26T12:17:33.731Z</time></trkpt><trkpt lat="42.9385317" lon="2.5853333"><ele>559.0</ele><time>2026-04-26T12:17:34.73Z</time></trkpt><trkpt lat="42.9385117" lon="2.5854417"><ele>559.0</ele><time>2026-04-26T12:17:35.731Z</time></trkpt><trkpt lat="42.9385117" lon="2.5855433"><ele>559.0</ele><time>2026-04-26T12:17:36.73Z</time></trkpt><trkpt lat="42.93853" lon="2.5856383"><ele>559.0</ele><time>2026-04-26T12:17:37.731Z</time></trkpt><trkpt lat="42.9385633" lon="2.585715"><ele>558.8</ele><time>2026-04-26T12:17:38.73Z</time></trkpt><trkpt lat="42.9386067" lon="2.58579"><ele>558.5999999999999</ele><time>2026-04-26T12:17:39.73Z</time></trkpt><trkpt lat="42.9386517" lon="2.5858817"><ele>558.4</ele><time>2026-04-26T12:17:40.729Z</time></trkpt><trkpt lat="42.9386967" lon="2.5859983"><ele>558.1999999999999</ele><time>2026-04-26T12:17:41.73Z</time></trkpt><trkpt lat="42.938725" lon="2.5861417"><ele>558.0</ele><time>2026-04-26T12:17:42.731Z</time></trkpt><trkpt lat="42.9387467" lon="2.5862933"><ele>558.0</ele><time>2026-04-26T12:17:43.73Z</time></trkpt><trkpt lat="42.9387667" lon="2.5864467"><ele>558.0</ele><time>2026-04-26T12:17:44.73Z</time></trkpt><trkpt lat="42.9387983" lon="2.5866067"><ele>558.0</ele><time>2026-04-26T12:17:45.729Z</time></trkpt><trkpt lat="42.93885" lon="2.5867683"><ele>558.0</ele><time>2026-04-26T12:17:46.729Z</time></trkpt><trkpt lat="42.9389" lon="2.5869317"><ele>558.0</ele><time>2026-04-26T12:17:47.73Z</time></trkpt><trkpt lat="42.9389417" lon="2.5871017"><ele>558.0</ele><time>2026-04-26T12:17:48.729Z</time></trkpt><trkpt lat="42.9389767" lon="2.5872767"><ele>558.0</ele><time>2026-04-26T12:17:49.73Z</time></trkpt><trkpt lat="42.9390017" lon="2.5874533"><ele>558.0</ele><time>2026-04-26T12:17:50.732Z</time></trkpt><trkpt lat="42.9390133" lon="2.5876233"><ele>558.0</ele><time>2026-04-26T12:17:51.729Z</time></trkpt><trkpt lat="42.9390217" lon="2.58779"><ele>558.0</ele><time>2026-04-26T12:17:52.729Z</time></trkpt><trkpt lat="42.939045" lon="2.5879517"><ele>558.0</ele><time>2026-04-26T12:17:53.729Z</time></trkpt><trkpt lat="42.9390783" lon="2.5881067"><ele>558.0</ele><time>2026-04-26T12:17:54.73Z</time></trkpt><trkpt lat="42.9391117" lon="2.588255"><ele>558.1999999999999</ele><time>2026-04-26T12:17:55.728Z</time></trkpt><trkpt lat="42.9391467" lon="2.5884"><ele>558.4</ele><time>2026-04-26T12:17:56.731Z</time></trkpt><trkpt lat="42.9391783" lon="2.5885417"><ele>558.5999999999999</ele><time>2026-04-26T12:17:57.731Z</time></trkpt><trkpt lat="42.9392117" lon="2.58867"><ele>558.8</ele><time>2026-04-26T12:17:58.734Z</time></trkpt><trkpt lat="42.93926" lon="2.5887817"><ele>559.0</ele><time>2026-04-26T12:17:59.729Z</time></trkpt><trkpt lat="42.939335" lon="2.5888617"><ele>559.0</ele><time>2026-04-26T12:18:00.729Z</time></trkpt><trkpt lat="42.939415" lon="2.5889367"><ele>559.0</ele><time>2026-04-26T12:18:01.73Z</time></trkpt><trkpt lat="42.939475" lon="2.58903"><ele>559.0</ele><time>2026-04-26T12:18:02.731Z</time></trkpt><trkpt lat="42.9395233" lon="2.5891433"><ele>559.0</ele><time>2026-04-26T12:18:03.73Z</time></trkpt><trkpt lat="42.9395467" lon="2.5892833"><ele>559.0</ele><time>2026-04-26T12:18:04.733Z</time></trkpt><trkpt lat="42.9395517" lon="2.5894417"><ele>556.4</ele><time>2026-04-26T12:18:05.728Z</time></trkpt><trkpt lat="42.939545" lon="2.5895933"><ele>553.8</ele><time>2026-04-26T12:18:06.73Z</time></trkpt><trkpt lat="42.93954" lon="2.5897417"><ele>551.2</ele><time>2026-04-26T12:18:07.728Z</time></trkpt><trkpt lat="42.9395417" lon="2.5898867"><ele>548.6</ele><time>2026-04-26T12:18:08.73Z</time></trkpt><trkpt lat="42.9395517" lon="2.5900283"><ele>546.0</ele><time>2026-04-26T12:18:09.729Z</time></trkpt><trkpt lat="42.93958" lon="2.5901683"><ele>546.0</ele><time>2026-04-26T12:18:10.728Z</time></trkpt><trkpt lat="42.9396117" lon="2.5902933"><ele>546.0</ele><time>2026-04-26T12:18:11.727Z</time></trkpt><trkpt lat="42.9396483" lon="2.5904017"><ele>546.0</ele><time>2026-04-26T12:18:12.736Z</time></trkpt><trkpt lat="42.9396883" lon="2.5904883"><ele>546.0</ele><time>2026-04-26T12:18:13.728Z</time></trkpt><trkpt lat="42.9397583" lon="2.5905283"><ele>546.0</ele><time>2026-04-26T12:18:14.728Z</time></trkpt><trkpt lat="42.9398333" lon="2.5905467"><ele>546.0</ele><time>2026-04-26T12:18:15.729Z</time></trkpt><trkpt lat="42.93992" lon="2.5905283"><ele>546.75</ele><time>2026-04-26T12:18:16.727Z</time></trkpt><trkpt lat="42.9400283" lon="2.5904917"><ele>547.5</ele><time>2026-04-26T12:18:17.727Z</time></trkpt><trkpt lat="42.9401683" lon="2.5904617"><ele>548.25</ele><time>2026-04-26T12:18:18.728Z</time></trkpt><trkpt lat="42.9403183" lon="2.5904517"><ele>549.0</ele><time>2026-04-26T12:18:19.73Z</time></trkpt><trkpt lat="42.9404733" lon="2.590465"><ele>547.0</ele><time>2026-04-26T12:18:20.729Z</time></trkpt><trkpt lat="42.94063" lon="2.59049"><ele>545.0</ele><time>2026-04-26T12:18:21.729Z</time></trkpt><trkpt lat="42.9407817" lon="2.5905183"><ele>543.0</ele><time>2026-04-26T12:18:22.728Z</time></trkpt><trkpt lat="42.9409317" lon="2.59054"><ele>541.0</ele><time>2026-04-26T12:18:23.728Z</time></trkpt><trkpt lat="42.9410833" lon="2.5905517"><ele>539.0</ele><time>2026-04-26T12:18:24.729Z</time></trkpt><trkpt lat="42.9412233" lon="2.590565"><ele>537.0</ele><time>2026-04-26T12:18:25.728Z</time></trkpt><trkpt lat="42.9413583" lon="2.5905783"><ele>535.0</ele><time>2026-04-26T12:18:26.728Z</time></trkpt><trkpt lat="42.94149" lon="2.590605"><ele>535.0</ele><time>2026-04-26T12:18:27.727Z</time></trkpt><trkpt lat="42.9416183" lon="2.59065"><ele>535.0</ele><time>2026-04-26T12:18:28.729Z</time></trkpt><trkpt lat="42.9417383" lon="2.590705"><ele>535.0</ele><time>2026-04-26T12:18:29.727Z</time></trkpt><trkpt lat="42.94186" lon="2.5907733"><ele>535.0</ele><time>2026-04-26T12:18:30.734Z</time></trkpt><trkpt lat="42.941975" lon="2.5908533"><ele>533.4</ele><time>2026-04-26T12:18:31.727Z</time></trkpt><trkpt lat="42.9420817" lon="2.59092"><ele>531.8</ele><time>2026-04-26T12:18:32.728Z</time></trkpt><trkpt lat="42.942185" lon="2.5909667"><ele>530.2</ele><time>2026-04-26T12:18:33.729Z</time></trkpt><trkpt lat="42.9422883" lon="2.590995"><ele>528.6</ele><time>2026-04-26T12:18:34.728Z</time></trkpt><trkpt lat="42.9423933" lon="2.591005"><ele>527.0</ele><time>2026-04-26T12:18:35.728Z</time></trkpt><trkpt lat="42.9425033" lon="2.5909917"><ele>527.4</ele><time>2026-04-26T12:18:36.728Z</time></trkpt><trkpt lat="42.9426167" lon="2.5909667"><ele>527.8000000000001</ele><time>2026-04-26T12:18:37.727Z</time></trkpt><trkpt lat="42.9427267" lon="2.59093"><ele>528.2</ele><time>2026-04-26T12:18:38.729Z</time></trkpt><trkpt lat="42.9428333" lon="2.5908967"><ele>528.6</ele><time>2026-04-26T12:18:39.729Z</time></trkpt><trkpt lat="42.942935" lon="2.59086"><ele>529.0</ele><time>2026-04-26T12:18:40.728Z</time></trkpt><trkpt lat="42.943025" lon="2.5908367"><ele>529.0</ele><time>2026-04-26T12:18:41.73Z</time></trkpt><trkpt lat="42.9431133" lon="2.59083"><ele>529.0</ele><time>2026-04-26T12:18:42.731Z</time></trkpt><trkpt lat="42.9431983" lon="2.5908333"><ele>529.0</ele><time>2026-04-26T12:18:43.727Z</time></trkpt><trkpt lat="42.9432867" lon="2.59087"><ele>529.0</ele><time>2026-04-26T12:18:44.729Z</time></trkpt><trkpt lat="42.94338" lon="2.5909133"><ele>529.0</ele><time>2026-04-26T12:18:45.727Z</time></trkpt><trkpt lat="42.9434783" lon="2.5909667"><ele>529.25</ele><time>2026-04-26T12:18:46.729Z</time></trkpt><trkpt lat="42.9435867" lon="2.5910133"><ele>529.5</ele><time>2026-04-26T12:18:47.729Z</time></trkpt><trkpt lat="42.9437" lon="2.5910533"><ele>529.75</ele><time>2026-04-26T12:18:48.728Z</time></trkpt><trkpt lat="42.9438133" lon="2.5910833"><ele>530.0</ele><time>2026-04-26T12:18:49.728Z</time></trkpt><trkpt lat="42.9439267" lon="2.5911"><ele>530.0</ele><time>2026-04-26T12:18:50.73Z</time></trkpt><trkpt lat="42.9440367" lon="2.5911217"><ele>530.0</ele><time>2026-04-26T12:18:51.73Z</time></trkpt><trkpt lat="42.9441317" lon="2.5911467"><ele>530.0</ele><time>2026-04-26T12:18:52.729Z</time></trkpt><trkpt lat="42.9442167" lon="2.5911867"><ele>530.0</ele><time>2026-04-26T12:18:53.731Z</time></trkpt><trkpt lat="42.9442933" lon="2.591255"><ele>530.0</ele><time>2026-04-26T12:18:54.729Z</time></trkpt><trkpt lat="42.94436" lon="2.5913467"><ele>530.0</ele><time>2026-04-26T12:18:55.729Z</time></trkpt><trkpt lat="42.9444283" lon="2.591445"><ele>530.0</ele><time>2026-04-26T12:18:56.729Z</time></trkpt><trkpt lat="42.9445017" lon="2.5915533"><ele>530.0</ele><time>2026-04-26T12:18:57.73Z</time></trkpt><trkpt lat="42.94458" lon="2.5916583"><ele>530.0</ele><time>2026-04-26T12:18:58.734Z</time></trkpt><trkpt lat="42.9446583" lon="2.5917583"><ele>530.0</ele><time>2026-04-26T12:18:59.729Z</time></trkpt><trkpt lat="42.9447317" lon="2.591855"><ele>530.0</ele><time>2026-04-26T12:19:00.73Z</time></trkpt><trkpt lat="42.9448017" lon="2.5919533"><ele>530.0</ele><time>2026-04-26T12:19:01.73Z</time></trkpt><trkpt lat="42.9448683" lon="2.5920633"><ele>530.0</ele><time>2026-04-26T12:19:02.729Z</time></trkpt><trkpt lat="42.9449217" lon="2.59219"><ele>530.0</ele><time>2026-04-26T12:19:03.729Z</time></trkpt><trkpt lat="42.9449667" lon="2.592325"><ele>530.0</ele><time>2026-04-26T12:19:04.729Z</time></trkpt><trkpt lat="42.9449983" lon="2.59246"><ele>528.6</ele><time>2026-04-26T12:19:05.731Z</time></trkpt><trkpt lat="42.945005" lon="2.5926067"><ele>527.2</ele><time>2026-04-26T12:19:06.73Z</time></trkpt><trkpt lat="42.9449833" lon="2.5927533"><ele>525.8</ele><time>2026-04-26T12:19:07.73Z</time></trkpt><trkpt lat="42.9449667" lon="2.5929"><ele>524.4</ele><time>2026-04-26T12:19:08.73Z</time></trkpt><trkpt lat="42.9449417" lon="2.5930567"><ele>523.0</ele><time>2026-04-26T12:19:09.729Z</time></trkpt><trkpt lat="42.9449233" lon="2.5932167"><ele>522.25</ele><time>2026-04-26T12:19:10.734Z</time></trkpt><trkpt lat="42.9449133" lon="2.593375"><ele>521.5</ele><time>2026-04-26T12:19:11.73Z</time></trkpt><trkpt lat="42.9449033" lon="2.5935433"><ele>520.75</ele><time>2026-04-26T12:19:12.73Z</time></trkpt><trkpt lat="42.9449017" lon="2.5937"><ele>520.0</ele><time>2026-04-26T12:19:13.73Z</time></trkpt><trkpt lat="42.9449217" lon="2.5938633"><ele>519.0</ele><time>2026-04-26T12:19:14.73Z</time></trkpt><trkpt lat="42.9449467" lon="2.594025"><ele>518.0</ele><time>2026-04-26T12:19:15.731Z</time></trkpt><trkpt lat="42.9449883" lon="2.594195"><ele>517.0</ele><time>2026-04-26T12:19:16.73Z</time></trkpt><trkpt lat="42.9450317" lon="2.5943567"><ele>516.0</ele><time>2026-04-26T12:19:17.73Z</time></trkpt><trkpt lat="42.94508" lon="2.5945217"><ele>516.0</ele><time>2026-04-26T12:19:18.732Z</time></trkpt><trkpt lat="42.9451333" lon="2.59469"><ele>516.0</ele><time>2026-04-26T12:19:19.73Z</time></trkpt><trkpt lat="42.9451833" lon="2.5948517"><ele>516.0</ele><time>2026-04-26T12:19:20.73Z</time></trkpt><trkpt lat="42.9452333" lon="2.595005"><ele>516.0</ele><time>2026-04-26T12:19:21.729Z</time></trkpt><trkpt lat="42.945275" lon="2.5951467"><ele>516.0</ele><time>2026-04-26T12:19:22.73Z</time></trkpt><trkpt lat="42.9453233" lon="2.5952817"><ele>516.0</ele><time>2026-04-26T12:19:23.729Z</time></trkpt><trkpt lat="42.9453783" lon="2.5953967"><ele>516.0</ele><time>2026-04-26T12:19:24.732Z</time></trkpt><trkpt lat="42.9454367" lon="2.595515"><ele>516.0</ele><time>2026-04-26T12:19:25.73Z</time></trkpt><trkpt lat="42.9442933" lon="2.591255"><ele>518.8</ele><time>2026-04-26T12:18:54.729Z</time></trkpt><trkpt lat="42.94436" lon="2.5913467"><ele>521.6</ele><time>2026-04-26T12:18:55.729Z</time></trkpt><trkpt lat="42.9444283" lon="2.591445"><ele>524.4</ele><time>2026-04-26T12:18:56.729Z</time></trkpt><trkpt lat="42.9445017" lon="2.5915533"><ele>527.2</ele><time>2026-04-26T12:18:57.73Z</time></trkpt><trkpt lat="42.94458" lon="2.5916583"><ele>530.0</ele><time>2026-04-26T12:18:58.734Z</time></trkpt><trkpt lat="42.9446583" lon="2.5917583"><ele>530.0</ele><time>2026-04-26T12:18:59.729Z</time></trkpt><trkpt lat="42.9447317" lon="2.591855"><ele>530.0</ele><time>2026-04-26T12:19:00.73Z</time></trkpt><trkpt lat="42.9448017" lon="2.5919533"><ele>530.0</ele><time>2026-04-26T12:19:01.73Z</time></trkpt><trkpt lat="42.9448683" lon="2.5920633"><ele>530.0</ele><time>2026-04-26T12:19:02.729Z</time></trkpt><trkpt lat="42.9449217" lon="2.59219"><ele>530.0</ele><time>2026-04-26T12:19:03.729Z</time></trkpt><trkpt lat="42.9449667" lon="2.592325"><ele>528.6</ele><time>2026-04-26T12:19:04.729Z</time></trkpt><trkpt lat="42.9449983" lon="2.59246"><ele>527.2</ele><time>2026-04-26T12:19:05.731Z</time></trkpt><trkpt lat="42.945005" lon="2.5926067"><ele>525.8</ele><time>2026-04-26T12:19:06.73Z</time></trkpt><trkpt lat="42.9449833" lon="2.5927533"><ele>524.4</ele><time>2026-04-26T12:19:07.73Z</time></trkpt><trkpt lat="42.9449667" lon="2.5929"><ele>523.0</ele><time>2026-04-26T12:19:08.73Z</time></trkpt><trkpt lat="42.9449417" lon="2.5930567"><ele>522.25</ele><time>2026-04-26T12:19:09.729Z</time></trkpt><trkpt lat="42.9449233" lon="2.5932167"><ele>521.5</ele><time>2026-04-26T12:19:10.734Z</time></trkpt><trkpt lat="42.9449133" lon="2.593375"><ele>520.75</ele><time>2026-04-26T12:19:11.73Z</time></trkpt><trkpt lat="42.9449033" lon="2.5935433"><ele>520.0</ele><time>2026-04-26T12:19:12.73Z</time></trkpt><trkpt lat="42.9449017" lon="2.5937"><ele>519.0</ele><time>2026-04-26T12:19:13.73Z</time></trkpt><trkpt lat="42.9449217" lon="2.5938633"><ele>518.0</ele><time>2026-04-26T12:19:14.73Z</time></trkpt><trkpt lat="42.9449467" lon="2.594025"><ele>517.0</ele><time>2026-04-26T12:19:15.731Z</time></trkpt><trkpt lat="42.9449883" lon="2.594195"><ele>516.0</ele><time>2026-04-26T12:19:16.73Z</time></trkpt><trkpt lat="42.9450317" lon="2.5943567"><ele>516.0</ele><time>2026-04-26T12:19:17.73Z</time></trkpt><trkpt lat="42.94508" lon="2.5945217"><ele>516.0</ele><time>2026-04-26T12:19:18.732Z</time></trkpt><trkpt lat="42.9451333" lon="2.59469"><ele>516.0</ele><time>2026-04-26T12:19:19.73Z</time></trkpt><trkpt lat="42.9451833" lon="2.5948517"><ele>516.0</ele><time>2026-04-26T12:19:20.73Z</time></trkpt><trkpt lat="42.9452333" lon="2.595005"><ele>516.0</ele><time>2026-04-26T12:19:21.729Z</time></trkpt><trkpt lat="42.945275" lon="2.5951467"><ele>516.0</ele><time>2026-04-26T12:19:22.73Z</time></trkpt><trkpt lat="42.9453233" lon="2.5952817"><ele>516.0</ele><time>2026-04-26T12:19:23.729Z</time></trkpt><trkpt lat="42.9453783" lon="2.5953967"><ele>516.0</ele><time>2026-04-26T12:19:24.732Z</time></trkpt><trkpt lat="42.9454367" lon="2.595515"><ele>516.0</ele><time>2026-04-26T12:19:25.73Z</time></trkpt><trkpt lat="42.9454783" lon="2.5956433"><ele>514.6</ele><time>2026-04-26T12:19:26.736Z</time></trkpt><trkpt lat="42.945495" lon="2.5957833"><ele>513.2</ele><time>2026-04-26T12:19:27.729Z</time></trkpt><trkpt lat="42.9454983" lon="2.5959267"><ele>511.79999999999995</ele><time>2026-04-26T12:19:28.729Z</time></trkpt><trkpt lat="42.9454983" lon="2.5960617"><ele>510.4</ele><time>2026-04-26T12:19:29.729Z</time></trkpt><trkpt lat="42.94551" lon="2.5961983"><ele>509.0</ele><time>2026-04-26T12:19:30.732Z</time></trkpt><trkpt lat="42.9455433" lon="2.5963267"><ele>508.2</ele><time>2026-04-26T12:19:31.731Z</time></trkpt><trkpt lat="42.945565" lon="2.5964633"><ele>507.4</ele><time>2026-04-26T12:19:32.733Z</time></trkpt><trkpt lat="42.9456483" lon="2.5965417"><ele>506.6</ele><time>2026-04-26T12:19:33.729Z</time></trkpt><trkpt lat="42.9457367" lon="2.5966067"><ele>505.8</ele><time>2026-04-26T12:19:34.73Z</time></trkpt><trkpt lat="42.94582" lon="2.59666"><ele>505.0</ele><time>2026-04-26T12:19:35.732Z</time></trkpt><trkpt lat="42.9459083" lon="2.5967033"><ele>507.50000000000006</ele><time>2026-04-26T12:19:36.729Z</time></trkpt><trkpt lat="42.9459717" lon="2.5967583"><ele>510.0</ele><time>2026-04-26T12:19:37.73Z</time></trkpt><trkpt lat="42.946015" lon="2.5968283"><ele>512.5</ele><time>2026-04-26T12:19:38.731Z</time></trkpt><trkpt lat="42.9460317" lon="2.5969333"><ele>515.0</ele><time>2026-04-26T12:19:39.73Z</time></trkpt><trkpt lat="42.946035" lon="2.5970633"><ele>517.5</ele><time>2026-04-26T12:19:40.729Z</time></trkpt><trkpt lat="42.9460183" lon="2.5972133"><ele>520.0</ele><time>2026-04-26T12:19:41.728Z</time></trkpt><trkpt lat="42.9460067" lon="2.5973667"><ele>521.0</ele><time>2026-04-26T12:19:42.73Z</time></trkpt><trkpt lat="42.9459983" lon="2.59753"><ele>522.0</ele><time>2026-04-26T12:19:43.732Z</time></trkpt><trkpt lat="42.9459883" lon="2.5976983"><ele>523.0</ele><time>2026-04-26T12:19:44.73Z</time></trkpt><trkpt lat="42.9459783" lon="2.5978717"><ele>524.0</ele><time>2026-04-26T12:19:45.73Z</time></trkpt><trkpt lat="42.9459567" lon="2.5980483"><ele>524.25</ele><time>2026-04-26T12:19:46.729Z</time></trkpt><trkpt lat="42.945935" lon="2.59822"><ele>524.5</ele><time>2026-04-26T12:19:47.73Z</time></trkpt><trkpt lat="42.9459083" lon="2.598395"><ele>524.75</ele><time>2026-04-26T12:19:48.729Z</time></trkpt><trkpt lat="42.9458767" lon="2.5985717"><ele>525.0</ele><time>2026-04-26T12:19:49.729Z</time></trkpt><trkpt lat="42.945855" lon="2.5987533"><ele>520.5</ele><time>2026-04-26T12:19:50.732Z</time></trkpt><trkpt lat="42.9458483" lon="2.5989217"><ele>516.0</ele><time>2026-04-26T12:19:51.728Z</time></trkpt><trkpt lat="42.9458367" lon="2.5990833"><ele>511.5</ele><time>2026-04-26T12:19:52.738Z</time></trkpt><trkpt lat="42.9458217" lon="2.5992417"><ele>507.0</ele><time>2026-04-26T12:19:53.73Z</time></trkpt><trkpt lat="42.9457983" lon="2.5993733"><ele>507.0</ele><time>2026-04-26T12:19:54.73Z</time></trkpt><trkpt lat="42.9457733" lon="2.5994917"><ele>507.0</ele><time>2026-04-26T12:19:55.729Z</time></trkpt><trkpt lat="42.9457583" lon="2.5995967"><ele>507.0</ele><time>2026-04-26T12:19:56.73Z</time></trkpt><trkpt lat="42.9457617" lon="2.5997"><ele>507.0</ele><time>2026-04-26T12:19:57.729Z</time></trkpt><trkpt lat="42.9457817" lon="2.5997917"><ele>507.0</ele><time>2026-04-26T12:19:58.731Z</time></trkpt><trkpt lat="42.9458267" lon="2.5998667"><ele>507.0</ele><time>2026-04-26T12:19:59.73Z</time></trkpt><trkpt lat="42.94589" lon="2.59994"><ele>510.20000000000005</ele><time>2026-04-26T12:20:00.729Z</time></trkpt><trkpt lat="42.9459717" lon="2.60001"><ele>513.4000000000001</ele><time>2026-04-26T12:20:01.729Z</time></trkpt><trkpt lat="42.9460633" lon="2.6000633"><ele>516.5999999999999</ele><time>2026-04-26T12:20:02.729Z</time></trkpt><trkpt lat="42.9461583" lon="2.6000767"><ele>519.8</ele><time>2026-04-26T12:20:03.729Z</time></trkpt><trkpt lat="42.9462483" lon="2.6000583"><ele>523.0</ele><time>2026-04-26T12:20:04.73Z</time></trkpt><trkpt lat="42.94634" lon="2.6000283"><ele>523.0</ele><time>2026-04-26T12:20:05.729Z</time></trkpt><trkpt lat="42.946445" lon="2.6000183"><ele>523.0</ele><time>2026-04-26T12:20:07.729Z</time></trkpt><trkpt lat="42.9464967" lon="2.600105"><ele>523.0</ele><time>2026-04-26T12:20:09.732Z</time></trkpt><trkpt lat="42.94647" lon="2.6002683"><ele>523.0</ele><time>2026-04-26T12:20:11.729Z</time></trkpt><trkpt lat="42.9464533" lon="2.6003733"><ele>523.0</ele><time>2026-04-26T12:20:12.729Z</time></trkpt><trkpt lat="42.946455" lon="2.60048"><ele>521.6</ele><time>2026-04-26T12:20:13.73Z</time></trkpt><trkpt lat="42.94648" lon="2.60059"><ele>520.1999999999999</ele><time>2026-04-26T12:20:14.734Z</time></trkpt><trkpt lat="42.9465183" lon="2.6007017"><ele>518.8</ele><time>2026-04-26T12:20:15.73Z</time></trkpt><trkpt lat="42.9465617" lon="2.600815"><ele>517.4</ele><time>2026-04-26T12:20:16.728Z</time></trkpt><trkpt lat="42.9466217" lon="2.600945"><ele>516.0</ele><time>2026-04-26T12:20:17.729Z</time></trkpt><trkpt lat="42.94668" lon="2.601075"><ele>519.5</ele><time>2026-04-26T12:20:18.732Z</time></trkpt><trkpt lat="42.9467467" lon="2.60121"><ele>523.0</ele><time>2026-04-26T12:20:19.732Z</time></trkpt><trkpt lat="42.9468233" lon="2.60134"><ele>526.5</ele><time>2026-04-26T12:20:20.73Z</time></trkpt><trkpt lat="42.946905" lon="2.6014733"><ele>530.0</ele><time>2026-04-26T12:20:21.729Z</time></trkpt><trkpt lat="42.9469783" lon="2.6016033"><ele>530.0</ele><time>2026-04-26T12:20:22.729Z</time></trkpt><trkpt lat="42.9470467" lon="2.6017267"><ele>530.0</ele><time>2026-04-26T12:20:23.73Z</time></trkpt><trkpt lat="42.9471167" lon="2.601825"><ele>530.0</ele><time>2026-04-26T12:20:24.729Z</time></trkpt><trkpt lat="42.9471917" lon="2.601895"><ele>530.0</ele><time>2026-04-26T12:20:25.73Z</time></trkpt><trkpt lat="42.94728" lon="2.6019333"><ele>530.0</ele><time>2026-04-26T12:20:26.732Z</time></trkpt><trkpt lat="42.94738" lon="2.6019383"><ele>530.0</ele><time>2026-04-26T12:20:27.729Z</time></trkpt><trkpt lat="42.9474783" lon="2.6019233"><ele>530.0</ele><time>2026-04-26T12:20:28.728Z</time></trkpt><trkpt lat="42.947575" lon="2.6018967"><ele>530.0</ele><time>2026-04-26T12:20:29.729Z</time></trkpt><trkpt lat="42.9476583" lon="2.6018717"><ele>530.0</ele><time>2026-04-26T12:20:30.729Z</time></trkpt><trkpt lat="42.9477317" lon="2.6018567"><ele>530.0</ele><time>2026-04-26T12:20:31.73Z</time></trkpt><trkpt lat="42.9478067" lon="2.6019267"><ele>530.0</ele><time>2026-04-26T12:20:33.728Z</time></trkpt><trkpt lat="42.9478033" lon="2.6020967"><ele>529.0</ele><time>2026-04-26T12:20:35.73Z</time></trkpt><trkpt lat="42.9478083" lon="2.6021867"><ele>528.0</ele><time>2026-04-26T12:20:36.73Z</time></trkpt><trkpt lat="42.94784" lon="2.60227"><ele>527.0</ele><time>2026-04-26T12:20:37.729Z</time></trkpt><trkpt lat="42.9478917" lon="2.6023317"><ele>526.0</ele><time>2026-04-26T12:20:38.73Z</time></trkpt><trkpt lat="42.947965" lon="2.6023667"><ele>525.0</ele><time>2026-04-26T12:20:39.73Z</time></trkpt><trkpt lat="42.9480633" lon="2.6023483"><ele>524.0</ele><time>2026-04-26T12:20:40.728Z</time></trkpt><trkpt lat="42.9481633" lon="2.6022983"><ele>524.0</ele><time>2026-04-26T12:20:41.728Z</time></trkpt><trkpt lat="42.9482633" lon="2.6022233"><ele>524.0</ele><time>2026-04-26T12:20:42.728Z</time></trkpt><trkpt lat="42.9483683" lon="2.60214"><ele>524.0</ele><time>2026-04-26T12:20:43.729Z</time></trkpt><trkpt lat="42.9484733" lon="2.6020617"><ele>524.0</ele><time>2026-04-26T12:20:44.729Z</time></trkpt><trkpt lat="42.948575" lon="2.6019867"><ele>526.3333333333333</ele><time>2026-04-26T12:20:45.728Z</time></trkpt><trkpt lat="42.9486717" lon="2.60192"><ele>528.6666666666666</ele><time>2026-04-26T12:20:46.729Z</time></trkpt><trkpt lat="42.9487567" lon="2.6018717"><ele>531.0</ele><time>2026-04-26T12:20:47.728Z</time></trkpt><trkpt lat="42.94884" lon="2.6018533"><ele>533.3333333333334</ele><time>2026-04-26T12:20:48.732Z</time></trkpt><trkpt lat="42.948915" lon="2.6018667"><ele>535.6666666666667</ele><time>2026-04-26T12:20:49.728Z</time></trkpt><trkpt lat="42.948975" lon="2.60194"><ele>538.0</ele><time>2026-04-26T12:20:50.738Z</time></trkpt><trkpt lat="42.9490283" lon="2.60203"><ele>538.0</ele><time>2026-04-26T12:20:51.73Z</time></trkpt><trkpt lat="42.9490633" lon="2.6021567"><ele>538.0</ele><time>2026-04-26T12:20:52.729Z</time></trkpt><trkpt lat="42.949095" lon="2.6023017"><ele>538.0</ele><time>2026-04-26T12:20:53.729Z</time></trkpt><trkpt lat="42.9491317" lon="2.602455"><ele>538.0</ele><time>2026-04-26T12:20:54.729Z</time></trkpt><trkpt lat="42.9491633" lon="2.6026017"><ele>538.0</ele><time>2026-04-26T12:20:55.73Z</time></trkpt><trkpt lat="42.94919" lon="2.6027433"><ele>536.4</ele><time>2026-04-26T12:20:56.731Z</time></trkpt><trkpt lat="42.9492" lon="2.602885"><ele>534.8</ele><time>2026-04-26T12:20:57.729Z</time></trkpt><trkpt lat="42.949195" lon="2.60302"><ele>533.2</ele><time>2026-04-26T12:20:58.728Z</time></trkpt><trkpt lat="42.94919" lon="2.603155"><ele>531.6</ele><time>2026-04-26T12:20:59.729Z</time></trkpt><trkpt lat="42.94919" lon="2.6032783"><ele>530.0</ele><time>2026-04-26T12:21:00.729Z</time></trkpt><trkpt lat="42.9491967" lon="2.6033983"><ele>529.4285714285713</ele><time>2026-04-26T12:21:01.728Z</time></trkpt><trkpt lat="42.949215" lon="2.60351"><ele>528.8571428571429</ele><time>2026-04-26T12:21:02.73Z</time></trkpt><trkpt lat="42.94925" lon="2.6036083"><ele>528.2857142857142</ele><time>2026-04-26T12:21:03.728Z</time></trkpt><trkpt lat="42.94929" lon="2.6036867"><ele>527.7142857142857</ele><time>2026-04-26T12:21:04.728Z</time></trkpt><trkpt lat="42.9493333" lon="2.6037633"><ele>527.1428571428571</ele><time>2026-04-26T12:21:05.729Z</time></trkpt><trkpt lat="42.949375" lon="2.60384"><ele>526.5714285714286</ele><time>2026-04-26T12:21:06.729Z</time></trkpt><trkpt lat="42.9494167" lon="2.60391"><ele>526.0</ele><time>2026-04-26T12:21:07.729Z</time></trkpt><trkpt lat="42.9494617" lon="2.6039733"><ele>526.0</ele><time>2026-04-26T12:21:08.728Z</time></trkpt><trkpt lat="42.9495133" lon="2.6040483"><ele>526.0</ele><time>2026-04-26T12:21:09.73Z</time></trkpt><trkpt lat="42.949565" lon="2.604135"><ele>526.0</ele><time>2026-04-26T12:21:10.73Z</time></trkpt><trkpt lat="42.9496167" lon="2.60423"><ele>526.0</ele><time>2026-04-26T12:21:11.73Z</time></trkpt><trkpt lat="42.94967" lon="2.6043317"><ele>526.0</ele><time>2026-04-26T12:21:12.73Z</time></trkpt><trkpt lat="42.949715" lon="2.6044433"><ele>526.0</ele><time>2026-04-26T12:21:13.73Z</time></trkpt><trkpt lat="42.9497467" lon="2.6045683"><ele>527.4</ele><time>2026-04-26T12:21:14.731Z</time></trkpt><trkpt lat="42.9497717" lon="2.604695"><ele>528.8</ele><time>2026-04-26T12:21:15.729Z</time></trkpt><trkpt lat="42.9497917" lon="2.604825"><ele>530.1999999999999</ele><time>2026-04-26T12:21:16.73Z</time></trkpt><trkpt lat="42.949805" lon="2.60496"><ele>531.6</ele><time>2026-04-26T12:21:17.728Z</time></trkpt><trkpt lat="42.9498267" lon="2.6051"><ele>533.0</ele><time>2026-04-26T12:21:18.73Z</time></trkpt><trkpt lat="42.9498467" lon="2.6052383"><ele>532.3333333333333</ele><time>2026-04-26T12:21:19.73Z</time></trkpt><trkpt lat="42.9498617" lon="2.6053733"><ele>531.6666666666666</ele><time>2026-04-26T12:21:20.729Z</time></trkpt><trkpt lat="42.9498633" lon="2.6055017"><ele>531.0</ele><time>2026-04-26T12:21:21.729Z</time></trkpt><trkpt lat="42.9498517" lon="2.605615"><ele>530.3333333333334</ele><time>2026-04-26T12:21:22.73Z</time></trkpt><trkpt lat="42.9498267" lon="2.605715"><ele>529.6666666666667</ele><time>2026-04-26T12:21:23.731Z</time></trkpt><trkpt lat="42.949805" lon="2.6058067"><ele>529.0</ele><time>2026-04-26T12:21:24.728Z</time></trkpt><trkpt lat="42.9497817" lon="2.6058883"><ele>529.0</ele><time>2026-04-26T12:21:25.734Z</time></trkpt><trkpt lat="42.9497783" lon="2.6060317"><ele>529.0</ele><time>2026-04-26T12:21:27.729Z</time></trkpt><trkpt lat="42.9498283" lon="2.6061017"><ele>529.0</ele><time>2026-04-26T12:21:28.728Z</time></trkpt><trkpt lat="42.94992" lon="2.6061717"><ele>529.0</ele><time>2026-04-26T12:21:29.73Z</time></trkpt><trkpt lat="42.950015" lon="2.60624"><ele>529.0</ele><time>2026-04-26T12:21:30.73Z</time></trkpt><trkpt lat="42.950105" lon="2.60631"><ele>528.8333333333334</ele><time>2026-04-26T12:21:31.729Z</time></trkpt><trkpt lat="42.950185" lon="2.60637"><ele>528.6666666666667</ele><time>2026-04-26T12:21:32.731Z</time></trkpt><trkpt lat="42.950265" lon="2.6064217"><ele>528.5</ele><time>2026-04-26T12:21:33.73Z</time></trkpt><trkpt lat="42.9503433" lon="2.606465"><ele>528.3333333333334</ele><time>2026-04-26T12:21:34.73Z</time></trkpt><trkpt lat="42.95042" lon="2.6064983"><ele>528.1666666666666</ele><time>2026-04-26T12:21:35.729Z</time></trkpt><trkpt lat="42.9504917" lon="2.6065233"><ele>528.0</ele><time>2026-04-26T12:21:36.729Z</time></trkpt><trkpt lat="42.9506067" lon="2.6065233"><ele>528.0</ele><time>2026-04-26T12:21:38.73Z</time></trkpt><trkpt lat="42.9507033" lon="2.6064617"><ele>528.0</ele><time>2026-04-26T12:21:40.729Z</time></trkpt><trkpt lat="42.9508183" lon="2.6063883"><ele>528.0</ele><time>2026-04-26T12:21:42.728Z</time></trkpt><trkpt lat="42.9508817" lon="2.6063517"><ele>528.0</ele><time>2026-04-26T12:21:43.729Z</time></trkpt><trkpt lat="42.9509417" lon="2.6063167"><ele>528.0</ele><time>2026-04-26T12:21:44.731Z</time></trkpt><trkpt lat="42.951" lon="2.6062817"><ele>528.0</ele><time>2026-04-26T12:21:45.728Z</time></trkpt><trkpt lat="42.9510717" lon="2.606255"><ele>527.6666666666666</ele><time>2026-04-26T12:21:46.728Z</time></trkpt><trkpt lat="42.9511483" lon="2.60624"><ele>527.3333333333334</ele><time>2026-04-26T12:21:47.73Z</time></trkpt><trkpt lat="42.95123" lon="2.6062283"><ele>527.0</ele><time>2026-04-26T12:21:48.729Z</time></trkpt><trkpt lat="42.9513067" lon="2.60622"><ele>526.6666666666667</ele><time>2026-04-26T12:21:49.73Z</time></trkpt><trkpt lat="42.95138" lon="2.60621"><ele>526.3333333333334</ele><time>2026-04-26T12:21:50.733Z</time></trkpt><trkpt lat="42.95145" lon="2.606195"><ele>526.0</ele><time>2026-04-26T12:21:51.73Z</time></trkpt><trkpt lat="42.9515333" lon="2.6061717"><ele>522.5</ele><time>2026-04-26T12:21:52.73Z</time></trkpt><trkpt lat="42.9516133" lon="2.606155"><ele>519.0</ele><time>2026-04-26T12:21:53.729Z</time></trkpt><trkpt lat="42.95169" lon="2.6061383"><ele>515.5</ele><time>2026-04-26T12:21:54.731Z</time></trkpt><trkpt lat="42.9517633" lon="2.6061217"><ele>512.0</ele><time>2026-04-26T12:21:55.728Z</time></trkpt><trkpt lat="42.9518483" lon="2.60611"><ele>508.50000000000006</ele><time>2026-04-26T12:21:56.733Z</time></trkpt><trkpt lat="42.9519383" lon="2.6060917"><ele>505.0</ele><time>2026-04-26T12:21:57.73Z</time></trkpt><trkpt lat="42.9520317" lon="2.6060733"><ele>503.4</ele><time>2026-04-26T12:21:58.73Z</time></trkpt><trkpt lat="42.9521183" lon="2.6060567"><ele>501.8</ele><time>2026-04-26T12:21:59.728Z</time></trkpt><trkpt lat="42.9522067" lon="2.606045"><ele>500.20000000000005</ele><time>2026-04-26T12:22:00.73Z</time></trkpt><trkpt lat="42.952285" lon="2.6060217"><ele>498.6</ele><time>2026-04-26T12:22:01.729Z</time></trkpt><trkpt lat="42.9523867" lon="2.6059767"><ele>497.0</ele><time>2026-04-26T12:22:02.731Z</time></trkpt><trkpt lat="42.95248" lon="2.605935"><ele>495.8</ele><time>2026-04-26T12:22:03.728Z</time></trkpt><trkpt lat="42.9525733" lon="2.6058983"><ele>494.6</ele><time>2026-04-26T12:22:04.729Z</time></trkpt><trkpt lat="42.952665" lon="2.605875"><ele>493.40000000000003</ele><time>2026-04-26T12:22:05.729Z</time></trkpt><trkpt lat="42.9527733" lon="2.605865"><ele>492.20000000000005</ele><time>2026-04-26T12:22:06.73Z</time></trkpt><trkpt lat="42.9528733" lon="2.6058617"><ele>491.0</ele><time>2026-04-26T12:22:07.731Z</time></trkpt><trkpt lat="42.95297" lon="2.6058633"><ele>491.0</ele><time>2026-04-26T12:22:08.731Z</time></trkpt><trkpt lat="42.953065" lon="2.605865"><ele>491.0</ele><time>2026-04-26T12:22:09.729Z</time></trkpt><trkpt lat="42.953155" lon="2.6058617"><ele>491.0</ele><time>2026-04-26T12:22:10.731Z</time></trkpt><trkpt lat="42.9532417" lon="2.60586"><ele>491.0</ele><time>2026-04-26T12:22:11.73Z</time></trkpt><trkpt lat="42.9533333" lon="2.605855"><ele>491.0</ele><time>2026-04-26T12:22:12.732Z</time></trkpt><trkpt lat="42.9534217" lon="2.6058483"><ele>490.16666666666663</ele><time>2026-04-26T12:22:13.731Z</time></trkpt><trkpt lat="42.9535117" lon="2.60585"><ele>489.3333333333333</ele><time>2026-04-26T12:22:14.734Z</time></trkpt><trkpt lat="42.9536" lon="2.60585"><ele>488.5</ele><time>2026-04-26T12:22:15.731Z</time></trkpt><trkpt lat="42.9536883" lon="2.6058567"><ele>487.66666666666663</ele><time>2026-04-26T12:22:16.73Z</time></trkpt><trkpt lat="42.953775" lon="2.605865"><ele>486.8333333333333</ele><time>2026-04-26T12:22:17.729Z</time></trkpt><trkpt lat="42.9538667" lon="2.605865"><ele>486.0</ele><time>2026-04-26T12:22:18.729Z</time></trkpt><trkpt lat="42.95395" lon="2.605865"><ele>486.0</ele><time>2026-04-26T12:22:19.728Z</time></trkpt><trkpt lat="42.9540367" lon="2.60587"><ele>486.0</ele><time>2026-04-26T12:22:20.73Z</time></trkpt><trkpt lat="42.9541317" lon="2.6058783"><ele>486.0</ele><time>2026-04-26T12:22:21.728Z</time></trkpt><trkpt lat="42.954225" lon="2.605895"><ele>486.0</ele><time>2026-04-26T12:22:22.728Z</time></trkpt><trkpt lat="42.9543" lon="2.6059067"><ele>486.0</ele><time>2026-04-26T12:22:23.729Z</time></trkpt><trkpt lat="42.954365" lon="2.605925"><ele>486.0</ele><time>2026-04-26T12:22:24.729Z</time></trkpt><trkpt lat="42.954445" lon="2.60595"><ele>483.4</ele><time>2026-04-26T12:22:26.73Z</time></trkpt><trkpt lat="42.9545433" lon="2.6059767"><ele>480.8</ele><time>2026-04-26T12:22:28.73Z</time></trkpt><trkpt lat="42.9546567" lon="2.6060133"><ele>478.19999999999993</ele><time>2026-04-26T12:22:30.73Z</time></trkpt><trkpt lat="42.9547717" lon="2.606045"><ele>475.59999999999997</ele><time>2026-04-26T12:22:32.731Z</time></trkpt><trkpt lat="42.9548367" lon="2.6060633"><ele>473.0</ele><time>2026-04-26T12:22:33.731Z</time></trkpt><trkpt lat="42.9549033" lon="2.6060783"><ele>472.99999999999994</ele><time>2026-04-26T12:22:34.732Z</time></trkpt><trkpt lat="42.9549767" lon="2.60609"><ele>473.0</ele><time>2026-04-26T12:22:35.729Z</time></trkpt><trkpt lat="42.955055" lon="2.606095"><ele>473.0</ele><time>2026-04-26T12:22:36.737Z</time></trkpt><trkpt lat="42.95513" lon="2.6061067"><ele>473.0</ele><time>2026-04-26T12:22:37.731Z</time></trkpt><trkpt lat="42.9552083" lon="2.6061317"><ele>472.99999999999994</ele><time>2026-04-26T12:22:38.729Z</time></trkpt><trkpt lat="42.9552867" lon="2.60616"><ele>473.0</ele><time>2026-04-26T12:22:39.731Z</time></trkpt><trkpt lat="42.9553667" lon="2.60619"><ele>471.99999999999994</ele><time>2026-04-26T12:22:40.73Z</time></trkpt><trkpt lat="42.9554417" lon="2.60624"><ele>471.0</ele><time>2026-04-26T12:22:41.73Z</time></trkpt><trkpt lat="42.9555117" lon="2.606295"><ele>470.0</ele><time>2026-04-26T12:22:42.729Z</time></trkpt><trkpt lat="42.955575" lon="2.6063533"><ele>469.0</ele><time>2026-04-26T12:22:43.729Z</time></trkpt><trkpt lat="42.9556383" lon="2.6064117"><ele>467.99999999999994</ele><time>2026-04-26T12:22:44.73Z</time></trkpt><trkpt lat="42.9557017" lon="2.6064717"><ele>467.0</ele><time>2026-04-26T12:22:45.73Z</time></trkpt><trkpt lat="42.95576" lon="2.6065367"><ele>466.99999999999994</ele><time>2026-04-26T12:22:46.729Z</time></trkpt><trkpt lat="42.9558133" lon="2.6065983"><ele>467.0</ele><time>2026-04-26T12:22:47.73Z</time></trkpt><trkpt lat="42.9558733" lon="2.60665"><ele>467.0</ele><time>2026-04-26T12:22:48.729Z</time></trkpt><trkpt lat="42.955925" lon="2.6067017"><ele>467.0</ele><time>2026-04-26T12:22:49.729Z</time></trkpt><trkpt lat="42.9560083" lon="2.6068133"><ele>466.99999999999994</ele><time>2026-04-26T12:22:51.729Z</time></trkpt><trkpt lat="42.956055" lon="2.60688"><ele>467.0</ele><time>2026-04-26T12:22:52.73Z</time></trkpt><trkpt lat="42.956105" lon="2.60695"><ele>463.16666666666663</ele><time>2026-04-26T12:22:53.73Z</time></trkpt><trkpt lat="42.9561433" lon="2.607025"><ele>459.3333333333333</ele><time>2026-04-26T12:22:54.73Z</time></trkpt><trkpt lat="42.9561717" lon="2.607115"><ele>455.5</ele><time>2026-04-26T12:22:55.729Z</time></trkpt><trkpt lat="42.9562033" lon="2.6072133"><ele>451.66666666666663</ele><time>2026-04-26T12:22:56.733Z</time></trkpt><trkpt lat="42.95623" lon="2.607315"><ele>447.8333333333333</ele><time>2026-04-26T12:22:57.729Z</time></trkpt><trkpt lat="42.9562533" lon="2.6074183"><ele>444.0</ele><time>2026-04-26T12:22:58.731Z</time></trkpt><trkpt lat="42.95628" lon="2.6075267"><ele>444.0</ele><time>2026-04-26T12:22:59.729Z</time></trkpt><trkpt lat="42.956305" lon="2.6076367"><ele>444.0</ele><time>2026-04-26T12:23:00.729Z</time></trkpt><trkpt lat="42.956325" lon="2.60774"><ele>444.0</ele><time>2026-04-26T12:23:01.729Z</time></trkpt><trkpt lat="42.9563483" lon="2.6078433"><ele>444.0</ele><time>2026-04-26T12:23:02.731Z</time></trkpt><trkpt lat="42.9563767" lon="2.6079483"><ele>444.0</ele><time>2026-04-26T12:23:03.73Z</time></trkpt><trkpt lat="42.9564" lon="2.60805"><ele>444.0</ele><time>2026-04-26T12:23:04.736Z</time></trkpt><trkpt lat="42.95642" lon="2.60814"><ele>444.0</ele><time>2026-04-26T12:23:05.73Z</time></trkpt><trkpt lat="42.9564333" lon="2.6082267"><ele>444.0</ele><time>2026-04-26T12:23:06.73Z</time></trkpt><trkpt lat="42.9564433" lon="2.608405"><ele>444.0</ele><time>2026-04-26T12:23:08.731Z</time></trkpt><trkpt lat="42.95645" lon="2.6084967"><ele>444.0</ele><time>2026-04-26T12:23:09.73Z</time></trkpt><trkpt lat="42.956455" lon="2.6085833"><ele>444.0</ele><time>2026-04-26T12:23:10.73Z</time></trkpt><trkpt lat="42.9564683" lon="2.6087"><ele>444.0</ele><time>2026-04-26T12:23:12.73Z</time></trkpt><trkpt lat="42.9565383" lon="2.6086583"><ele>444.0</ele><time>2026-04-26T12:23:15.731Z</time></trkpt><trkpt lat="42.9566067" lon="2.6085533"><ele>444.0</ele><time>2026-04-26T12:23:17.73Z</time></trkpt><trkpt lat="42.9567" lon="2.6084267"><ele>444.0</ele><time>2026-04-26T12:23:19.73Z</time></trkpt><trkpt lat="42.95675" lon="2.60834"><ele>444.0</ele><time>2026-04-26T12:23:20.735Z</time></trkpt><trkpt lat="42.9568017" lon="2.6082583"><ele>444.0</ele><time>2026-04-26T12:23:21.73Z</time></trkpt><trkpt lat="42.956855" lon="2.60818"><ele>440.8333333333333</ele><time>2026-04-26T12:23:22.73Z</time></trkpt><trkpt lat="42.9569083" lon="2.6081067"><ele>437.66666666666663</ele><time>2026-04-26T12:23:23.73Z</time></trkpt><trkpt lat="42.95696" lon="2.6080283"><ele>434.5</ele><time>2026-04-26T12:23:24.731Z</time></trkpt><trkpt lat="42.957005" lon="2.60794"><ele>431.3333333333333</ele><time>2026-04-26T12:23:25.73Z</time></trkpt><trkpt lat="42.9570517" lon="2.607835"><ele>428.16666666666663</ele><time>2026-04-26T12:23:26.73Z</time></trkpt><trkpt lat="42.9571" lon="2.6077267"><ele>425.0</ele><time>2026-04-26T12:23:27.732Z</time></trkpt><trkpt lat="42.9571483" lon="2.60762"><ele>424.66666666666663</ele><time>2026-04-26T12:23:28.732Z</time></trkpt><trkpt lat="42.957195" lon="2.6075217"><ele>424.3333333333333</ele><time>2026-04-26T12:23:29.731Z</time></trkpt><trkpt lat="42.9572417" lon="2.6074233"><ele>424.0</ele><time>2026-04-26T12:23:30.732Z</time></trkpt><trkpt lat="42.9572917" lon="2.6073283"><ele>423.66666666666663</ele><time>2026-04-26T12:23:31.73Z</time></trkpt><trkpt lat="42.957335" lon="2.6072317"><ele>423.3333333333333</ele><time>2026-04-26T12:23:32.732Z</time></trkpt><trkpt lat="42.9573783" lon="2.6071333"><ele>423.0</ele><time>2026-04-26T12:23:33.732Z</time></trkpt><trkpt lat="42.9574167" lon="2.60704"><ele>423.0</ele><time>2026-04-26T12:23:34.732Z</time></trkpt><trkpt lat="42.9574517" lon="2.6069633"><ele>423.0</ele><time>2026-04-26T12:23:35.731Z</time></trkpt><trkpt lat="42.957485" lon="2.6068883"><ele>423.0</ele><time>2026-04-26T12:23:36.731Z</time></trkpt><trkpt lat="42.9575333" lon="2.6068017"><ele>423.0</ele><time>2026-04-26T12:23:38.731Z</time></trkpt><trkpt lat="42.9576283" lon="2.60663"><ele>423.0</ele><time>2026-04-26T12:24:50.729Z</time></trkpt><trkpt lat="42.9576417" lon="2.6064583"><ele>420.4</ele><time>2026-04-26T12:24:52.729Z</time></trkpt><trkpt lat="42.9576533" lon="2.6063333"><ele>417.79999999999995</ele><time>2026-04-26T12:24:53.729Z</time></trkpt><trkpt lat="42.95766" lon="2.6062017"><ele>415.2</ele><time>2026-04-26T12:24:54.729Z</time></trkpt><trkpt lat="42.95766" lon="2.6060683"><ele>412.6</ele><time>2026-04-26T12:24:55.728Z</time></trkpt><trkpt lat="42.9576533" lon="2.605945"><ele>410.0</ele><time>2026-04-26T12:24:56.731Z</time></trkpt><trkpt lat="42.9576483" lon="2.60583"><ele>409.49999999999994</ele><time>2026-04-26T12:24:57.731Z</time></trkpt><trkpt lat="42.9576567" lon="2.6057217"><ele>409.0</ele><time>2026-04-26T12:24:58.73Z</time></trkpt><trkpt lat="42.95769" lon="2.6056317"><ele>408.5</ele><time>2026-04-26T12:24:59.729Z</time></trkpt><trkpt lat="42.9577717" lon="2.6056083"><ele>408.0</ele><time>2026-04-26T12:25:00.73Z</time></trkpt><trkpt lat="42.9578567" lon="2.6056417"><ele>407.49999999999994</ele><time>2026-04-26T12:25:01.728Z</time></trkpt><trkpt lat="42.957925" lon="2.60574"><ele>407.0</ele><time>2026-04-26T12:25:02.73Z</time></trkpt><trkpt lat="42.9579717" lon="2.6058767"><ele>407.0</ele><time>2026-04-26T12:25:03.728Z</time></trkpt><trkpt lat="42.9580083" lon="2.6060283"><ele>407.0</ele><time>2026-04-26T12:25:04.729Z</time></trkpt><trkpt lat="42.9580467" lon="2.6061833"><ele>407.0</ele><time>2026-04-26T12:25:05.731Z</time></trkpt><trkpt lat="42.958085" lon="2.60634"><ele>407.0</ele><time>2026-04-26T12:25:06.729Z</time></trkpt><trkpt lat="42.95813" lon="2.606495"><ele>407.75</ele><time>2026-04-26T12:25:07.728Z</time></trkpt><trkpt lat="42.9581867" lon="2.60665"><ele>408.5</ele><time>2026-04-26T12:25:08.729Z</time></trkpt><trkpt lat="42.9582633" lon="2.6067983"><ele>409.25</ele><time>2026-04-26T12:25:09.728Z</time></trkpt><trkpt lat="42.9583533" lon="2.606925"><ele>410.0</ele><time>2026-04-26T12:25:10.729Z</time></trkpt><trkpt lat="42.9584583" lon="2.607025"><ele>408.25</ele><time>2026-04-26T12:25:11.731Z</time></trkpt><trkpt lat="42.9585783" lon="2.6070883"><ele>406.5</ele><time>2026-04-26T12:25:12.729Z</time></trkpt><trkpt lat="42.9587" lon="2.6071117"><ele>404.75</ele><time>2026-04-26T12:25:13.729Z</time></trkpt><trkpt lat="42.9588217" lon="2.6071017"><ele>403.0</ele><time>2026-04-26T12:25:14.73Z</time></trkpt><trkpt lat="42.9589383" lon="2.6070717"><ele>403.0</ele><time>2026-04-26T12:25:15.731Z</time></trkpt><trkpt lat="42.959045" lon="2.60704"><ele>403.0</ele><time>2026-04-26T12:25:16.732Z</time></trkpt><trkpt lat="42.9591483" lon="2.6070117"><ele>403.0</ele><time>2026-04-26T12:25:17.729Z</time></trkpt><trkpt lat="42.9592517" lon="2.6069867"><ele>403.0</ele><time>2026-04-26T12:25:18.731Z</time></trkpt><trkpt lat="42.9593533" lon="2.6069517"><ele>403.0</ele><time>2026-04-26T12:25:19.73Z</time></trkpt><trkpt lat="42.9594483" lon="2.6069167"><ele>403.00000000000006</ele><time>2026-04-26T12:25:20.731Z</time></trkpt><trkpt lat="42.95954" lon="2.606875"><ele>403.0</ele><time>2026-04-26T12:25:21.728Z</time></trkpt><trkpt lat="42.9596233" lon="2.606825"><ele>403.0</ele><time>2026-04-26T12:25:22.732Z</time></trkpt><trkpt lat="42.9596983" lon="2.6067717"><ele>403.0</ele><time>2026-04-26T12:25:23.729Z</time></trkpt><trkpt lat="42.9597633" lon="2.6067167"><ele>403.00000000000006</ele><time>2026-04-26T12:25:24.729Z</time></trkpt><trkpt lat="42.9598283" lon="2.6066633"><ele>403.0</ele><time>2026-04-26T12:25:25.73Z</time></trkpt><trkpt lat="42.9598817" lon="2.6065983"><ele>403.00000000000006</ele><time>2026-04-26T12:25:26.735Z</time></trkpt><trkpt lat="42.9599433" lon="2.6065283"><ele>403.0</ele><time>2026-04-26T12:25:27.73Z</time></trkpt><trkpt lat="42.9600133" lon="2.606475"><ele>403.0</ele><time>2026-04-26T12:25:28.73Z</time></trkpt><trkpt lat="42.9600833" lon="2.6064083"><ele>403.0</ele><time>2026-04-26T12:25:29.732Z</time></trkpt><trkpt lat="42.96015" lon="2.606345"><ele>403.00000000000006</ele><time>2026-04-26T12:25:30.73Z</time></trkpt><trkpt lat="42.9602083" lon="2.6062817"><ele>403.0</ele><time>2026-04-26T12:25:31.729Z</time></trkpt><trkpt lat="42.9602733" lon="2.6062333"><ele>403.1666666666667</ele><time>2026-04-26T12:25:32.73Z</time></trkpt><trkpt lat="42.960335" lon="2.6061833"><ele>403.33333333333337</ele><time>2026-04-26T12:25:33.731Z</time></trkpt><trkpt lat="42.9603967" lon="2.6061167"><ele>403.5</ele><time>2026-04-26T12:25:34.728Z</time></trkpt><trkpt lat="42.9604683" lon="2.6060733"><ele>403.66666666666663</ele><time>2026-04-26T12:25:35.729Z</time></trkpt><trkpt lat="42.96054" lon="2.606015"><ele>403.8333333333333</ele><time>2026-04-26T12:25:36.727Z</time></trkpt><trkpt lat="42.9606133" lon="2.6059583"><ele>404.0</ele><time>2026-04-26T12:25:37.727Z</time></trkpt><trkpt lat="42.9606917" lon="2.6059133"><ele>403.99999999999994</ele><time>2026-04-26T12:25:38.73Z</time></trkpt><trkpt lat="42.960775" lon="2.605885"><ele>404.0</ele><time>2026-04-26T12:25:39.728Z</time></trkpt><trkpt lat="42.9608583" lon="2.6058633"><ele>404.0</ele><time>2026-04-26T12:25:40.727Z</time></trkpt><trkpt lat="42.9609817" lon="2.6058167"><ele>404.0</ele><time>2026-04-26T12:25:42.729Z</time></trkpt><trkpt lat="42.9610483" lon="2.6058467"><ele>403.99999999999994</ele><time>2026-04-26T12:25:44.728Z</time></trkpt><trkpt lat="42.9611067" lon="2.605885"><ele>404.0</ele><time>2026-04-26T12:25:46.729Z</time></trkpt><trkpt lat="42.96118" lon="2.605935"><ele>402.3333333333333</ele><time>2026-04-26T12:25:48.729Z</time></trkpt><trkpt lat="42.961285" lon="2.6059133"><ele>400.66666666666663</ele><time>2026-04-26T12:25:50.728Z</time></trkpt><trkpt lat="42.9613517" lon="2.6059"><ele>399.0</ele><time>2026-04-26T12:25:51.727Z</time></trkpt><trkpt lat="42.9614283" lon="2.605885"><ele>397.33333333333337</ele><time>2026-04-26T12:25:52.729Z</time></trkpt><trkpt lat="42.9615133" lon="2.6058667"><ele>395.6666666666667</ele><time>2026-04-26T12:25:53.728Z</time></trkpt><trkpt lat="42.9616117" lon="2.605835"><ele>394.0</ele><time>2026-04-26T12:25:54.728Z</time></trkpt><trkpt lat="42.9617233" lon="2.6057883"><ele>392.5</ele><time>2026-04-26T12:25:55.727Z</time></trkpt><trkpt lat="42.961835" lon="2.605725"><ele>391.0</ele><time>2026-04-26T12:25:56.728Z</time></trkpt><trkpt lat="42.9619367" lon="2.605655"><ele>389.5</ele><time>2026-04-26T12:25:57.728Z</time></trkpt><trkpt lat="42.9620367" lon="2.6055767"><ele>388.0</ele><time>2026-04-26T12:25:58.731Z</time></trkpt><trkpt lat="42.9621233" lon="2.6054767"><ele>388.0</ele><time>2026-04-26T12:25:59.728Z</time></trkpt><trkpt lat="42.9621983" lon="2.6053717"><ele>388.0</ele><time>2026-04-26T12:26:00.728Z</time></trkpt><trkpt lat="42.962275" lon="2.6052633"><ele>388.0</ele><time>2026-04-26T12:26:01.73Z</time></trkpt><trkpt lat="42.9623517" lon="2.6051633"><ele>388.0</ele><time>2026-04-26T12:26:02.728Z</time></trkpt><trkpt lat="42.9624267" lon="2.605075"><ele>388.0</ele><time>2026-04-26T12:26:03.728Z</time></trkpt><trkpt lat="42.962495" lon="2.6049933"><ele>386.33333333333337</ele><time>2026-04-26T12:26:04.729Z</time></trkpt><trkpt lat="42.9625383" lon="2.6049083"><ele>384.6666666666667</ele><time>2026-04-26T12:26:05.728Z</time></trkpt><trkpt lat="42.9625367" lon="2.6048117"><ele>383.0</ele><time>2026-04-26T12:26:06.73Z</time></trkpt><trkpt lat="42.96254" lon="2.6047133"><ele>381.33333333333337</ele><time>2026-04-26T12:26:07.729Z</time></trkpt><trkpt lat="42.9625383" lon="2.6046267"><ele>379.6666666666667</ele><time>2026-04-26T12:26:08.731Z</time></trkpt><trkpt lat="42.96258" lon="2.60451"><ele>378.0</ele><time>2026-04-26T12:26:10.728Z</time></trkpt><trkpt lat="42.9626783" lon="2.6045167"><ele>378.0</ele><time>2026-04-26T12:26:12.728Z</time></trkpt><trkpt lat="42.9627467" lon="2.60457"><ele>378.0</ele><time>2026-04-26T12:26:13.729Z</time></trkpt><trkpt lat="42.9628183" lon="2.6046367"><ele>378.0</ele><time>2026-04-26T12:26:14.729Z</time></trkpt><trkpt lat="42.9629083" lon="2.6047"><ele>378.0</ele><time>2026-04-26T12:26:15.729Z</time></trkpt><trkpt lat="42.9630117" lon="2.6047517"><ele>378.0</ele><time>2026-04-26T12:26:16.728Z</time></trkpt><trkpt lat="42.9631167" lon="2.6048"><ele>378.0</ele><time>2026-04-26T12:26:17.729Z</time></trkpt><trkpt lat="42.9632167" lon="2.6048583"><ele>378.0</ele><time>2026-04-26T12:26:18.729Z</time></trkpt><trkpt lat="42.963305" lon="2.6049367"><ele>378.0</ele><time>2026-04-26T12:26:19.73Z</time></trkpt><trkpt lat="42.9633867" lon="2.60501"><ele>378.0</ele><time>2026-04-26T12:26:20.729Z</time></trkpt><trkpt lat="42.9634717" lon="2.6050667"><ele>378.0</ele><time>2026-04-26T12:26:21.73Z</time></trkpt><trkpt lat="42.9635617" lon="2.6050917"><ele>377.59999999999997</ele><time>2026-04-26T12:26:22.73Z</time></trkpt><trkpt lat="42.9636533" lon="2.60509"><ele>377.2</ele><time>2026-04-26T12:26:23.731Z</time></trkpt><trkpt lat="42.963755" lon="2.6050583"><ele>376.8</ele><time>2026-04-26T12:26:24.73Z</time></trkpt><trkpt lat="42.9638717" lon="2.6049933"><ele>376.4</ele><time>2026-04-26T12:26:25.728Z</time></trkpt><trkpt lat="42.9639817" lon="2.6049233"><ele>376.0</ele><time>2026-04-26T12:26:26.731Z</time></trkpt><trkpt lat="42.9640767" lon="2.6048583"><ele>376.0</ele><time>2026-04-26T12:26:27.729Z</time></trkpt><trkpt lat="42.9641617" lon="2.6048"><ele>376.0</ele><time>2026-04-26T12:26:28.73Z</time></trkpt><trkpt lat="42.9642367" lon="2.604765"><ele>376.0</ele><time>2026-04-26T12:26:29.729Z</time></trkpt><trkpt lat="42.9643117" lon="2.6047517"><ele>376.0</ele><time>2026-04-26T12:26:30.728Z</time></trkpt><trkpt lat="42.9643917" lon="2.6047617"><ele>376.0</ele><time>2026-04-26T12:26:31.729Z</time></trkpt><trkpt lat="42.964485" lon="2.604795"><ele>376.0</ele><time>2026-04-26T12:26:32.729Z</time></trkpt><trkpt lat="42.964585" lon="2.6048417"><ele>376.5</ele><time>2026-04-26T12:26:33.728Z</time></trkpt><trkpt lat="42.9647017" lon="2.6048867"><ele>377.0</ele><time>2026-04-26T12:26:34.729Z</time></trkpt><trkpt lat="42.9648217" lon="2.6049233"><ele>377.5</ele><time>2026-04-26T12:26:35.729Z</time></trkpt><trkpt lat="42.9649517" lon="2.604945"><ele>378.0</ele><time>2026-04-26T12:26:36.728Z</time></trkpt><trkpt lat="42.9650917" lon="2.6049583"><ele>378.0</ele><time>2026-04-26T12:26:37.728Z</time></trkpt><trkpt lat="42.9652267" lon="2.6049483"><ele>378.0</ele><time>2026-04-26T12:26:38.73Z</time></trkpt><trkpt lat="42.9653633" lon="2.6049233"><ele>378.0</ele><time>2026-04-26T12:26:39.729Z</time></trkpt><trkpt lat="42.9655067" lon="2.6048867"><ele>378.0</ele><time>2026-04-26T12:26:40.728Z</time></trkpt><trkpt lat="42.96564" lon="2.604855"><ele>378.0</ele><time>2026-04-26T12:26:41.727Z</time></trkpt><trkpt lat="42.96576" lon="2.60484"><ele>378.0</ele><time>2026-04-26T12:26:42.73Z</time></trkpt><trkpt lat="42.9658733" lon="2.60484"><ele>378.0</ele><time>2026-04-26T12:26:43.729Z</time></trkpt><trkpt lat="42.965975" lon="2.6048483"><ele>378.0</ele><time>2026-04-26T12:26:44.728Z</time></trkpt><trkpt lat="42.9660617" lon="2.6048617"><ele>378.0</ele><time>2026-04-26T12:26:45.729Z</time></trkpt><trkpt lat="42.9661367" lon="2.60488"><ele>377.79999999999995</ele><time>2026-04-26T12:26:46.728Z</time></trkpt><trkpt lat="42.9662367" lon="2.604945"><ele>377.6</ele><time>2026-04-26T12:26:48.728Z</time></trkpt><trkpt lat="42.9662667" lon="2.6050217"><ele>377.4</ele><time>2026-04-26T12:26:49.728Z</time></trkpt><trkpt lat="42.9662983" lon="2.6051417"><ele>377.20000000000005</ele><time>2026-04-26T12:26:50.728Z</time></trkpt><trkpt lat="42.9663217" lon="2.60529"><ele>377.0</ele><time>2026-04-26T12:26:51.728Z</time></trkpt><trkpt lat="42.96633" lon="2.60545"><ele>377.0</ele><time>2026-04-26T12:26:52.73Z</time></trkpt><trkpt lat="42.96634" lon="2.6056033"><ele>377.0</ele><time>2026-04-26T12:26:53.728Z</time></trkpt><trkpt lat="42.966345" lon="2.6057583"><ele>377.0</ele><time>2026-04-26T12:26:54.729Z</time></trkpt><trkpt lat="42.9663467" lon="2.6059167"><ele>377.0</ele><time>2026-04-26T12:26:55.729Z</time></trkpt><trkpt lat="42.9663583" lon="2.606075"><ele>377.40000000000003</ele><time>2026-04-26T12:26:56.73Z</time></trkpt><trkpt lat="42.96637" lon="2.6062283"><ele>377.8</ele><time>2026-04-26T12:26:57.728Z</time></trkpt><trkpt lat="42.96637" lon="2.6063717"><ele>378.2</ele><time>2026-04-26T12:26:58.735Z</time></trkpt><trkpt lat="42.9663717" lon="2.6065133"><ele>378.6</ele><time>2026-04-26T12:26:59.728Z</time></trkpt><trkpt lat="42.9663533" lon="2.6066567"><ele>379.0</ele><time>2026-04-26T12:27:00.728Z</time></trkpt><trkpt lat="42.966325" lon="2.6068033"><ele>379.0</ele><time>2026-04-26T12:27:01.727Z</time></trkpt><trkpt lat="42.966285" lon="2.6069567"><ele>379.0</ele><time>2026-04-26T12:27:02.73Z</time></trkpt><trkpt lat="42.9662517" lon="2.6071033"><ele>379.0</ele><time>2026-04-26T12:27:03.728Z</time></trkpt><trkpt lat="42.9662167" lon="2.6072367"><ele>379.0</ele><time>2026-04-26T12:27:04.728Z</time></trkpt><trkpt lat="42.9661833" lon="2.6073567"><ele>379.0</ele><time>2026-04-26T12:27:05.729Z</time></trkpt><trkpt lat="42.96614" lon="2.6074667"><ele>379.6</ele><time>2026-04-26T12:27:06.728Z</time></trkpt><trkpt lat="42.9660967" lon="2.607575"><ele>380.2</ele><time>2026-04-26T12:27:07.728Z</time></trkpt><trkpt lat="42.9660533" lon="2.6076917"><ele>380.8</ele><time>2026-04-26T12:27:08.731Z</time></trkpt><trkpt lat="42.96603" lon="2.6078167"><ele>381.40000000000003</ele><time>2026-04-26T12:27:09.728Z</time></trkpt><trkpt lat="42.9660233" lon="2.607945"><ele>382.0</ele><time>2026-04-26T12:27:10.73Z</time></trkpt><trkpt lat="42.96602" lon="2.6080517"><ele>383.3333333333333</ele><time>2026-04-26T12:27:11.728Z</time></trkpt><trkpt lat="42.96603" lon="2.608145"><ele>384.66666666666663</ele><time>2026-04-26T12:27:12.729Z</time></trkpt><trkpt lat="42.9661133" lon="2.6082783"><ele>386.0</ele><time>2026-04-26T12:27:14.732Z</time></trkpt><trkpt lat="42.9661617" lon="2.6083517"><ele>387.3333333333333</ele><time>2026-04-26T12:27:15.728Z</time></trkpt><trkpt lat="42.9662117" lon="2.6084417"><ele>388.6666666666667</ele><time>2026-04-26T12:27:16.732Z</time></trkpt><trkpt lat="42.966245" lon="2.6085467"><ele>390.0</ele><time>2026-04-26T12:27:17.727Z</time></trkpt><trkpt lat="42.9662783" lon="2.6086517"><ele>391.6</ele><time>2026-04-26T12:27:18.73Z</time></trkpt><trkpt lat="42.9663133" lon="2.6087633"><ele>393.2</ele><time>2026-04-26T12:27:19.728Z</time></trkpt><trkpt lat="42.9663517" lon="2.60888"><ele>394.79999999999995</ele><time>2026-04-26T12:27:20.73Z</time></trkpt><trkpt lat="42.9664067" lon="2.6089933"><ele>396.4</ele><time>2026-04-26T12:27:21.728Z</time></trkpt><trkpt lat="42.9664617" lon="2.6091083"><ele>398.0</ele><time>2026-04-26T12:27:22.73Z</time></trkpt><trkpt lat="42.9665183" lon="2.6092233"><ele>398.0</ele><time>2026-04-26T12:27:23.728Z</time></trkpt><trkpt lat="42.9665883" lon="2.609335"><ele>398.0</ele><time>2026-04-26T12:27:24.731Z</time></trkpt><trkpt lat="42.9666717" lon="2.6094417"><ele>398.0</ele><time>2026-04-26T12:27:25.729Z</time></trkpt><trkpt lat="42.96676" lon="2.6095383"><ele>398.0</ele><time>2026-04-26T12:27:26.73Z</time></trkpt><trkpt lat="42.9668417" lon="2.609625"><ele>398.0</ele><time>2026-04-26T12:27:27.731Z</time></trkpt><trkpt lat="42.9669083" lon="2.6097133"><ele>399.99999999999994</ele><time>2026-04-26T12:27:28.73Z</time></trkpt><trkpt lat="42.9669617" lon="2.6098017"><ele>402.0</ele><time>2026-04-26T12:27:29.73Z</time></trkpt><trkpt lat="42.967015" lon="2.6098833"><ele>404.0</ele><time>2026-04-26T12:27:30.729Z</time></trkpt><trkpt lat="42.9670667" lon="2.609965"><ele>406.0</ele><time>2026-04-26T12:27:31.73Z</time></trkpt><trkpt lat="42.96712" lon="2.61004"><ele>407.99999999999994</ele><time>2026-04-26T12:27:32.729Z</time></trkpt><trkpt lat="42.9671817" lon="2.61012"><ele>410.0</ele><time>2026-04-26T12:27:33.729Z</time></trkpt><trkpt lat="42.967245" lon="2.610205"><ele>409.99999999999994</ele><time>2026-04-26T12:27:34.728Z</time></trkpt><trkpt lat="42.9672983" lon="2.610295"><ele>410.0</ele><time>2026-04-26T12:27:35.729Z</time></trkpt><trkpt lat="42.9673433" lon="2.6104367"><ele>410.0</ele><time>2026-04-26T12:27:37.73Z</time></trkpt><trkpt lat="42.9673267" lon="2.6105317"><ele>410.0</ele><time>2026-04-26T12:27:38.732Z</time></trkpt><trkpt lat="42.9672983" lon="2.6106433"><ele>409.99999999999994</ele><time>2026-04-26T12:27:39.729Z</time></trkpt><trkpt lat="42.9672667" lon="2.61076"><ele>410.0</ele><time>2026-04-26T12:27:40.735Z</time></trkpt><trkpt lat="42.9672333" lon="2.6108733"><ele>410.2</ele><time>2026-04-26T12:27:41.729Z</time></trkpt><trkpt lat="42.9671967" lon="2.6109783"><ele>410.4</ele><time>2026-04-26T12:27:42.729Z</time></trkpt><trkpt lat="42.9671583" lon="2.6110967"><ele>410.6</ele><time>2026-04-26T12:27:43.73Z</time></trkpt><trkpt lat="42.9671233" lon="2.6112317"><ele>410.8</ele><time>2026-04-26T12:27:44.731Z</time></trkpt><trkpt lat="42.9670983" lon="2.6113733"><ele>411.0</ele><time>2026-04-26T12:27:45.73Z</time></trkpt><trkpt lat="42.96708" lon="2.6115067"><ele>411.0</ele><time>2026-04-26T12:27:46.728Z</time></trkpt><trkpt lat="42.9670717" lon="2.6116317"><ele>411.0</ele><time>2026-04-26T12:27:47.73Z</time></trkpt><trkpt lat="42.967075" lon="2.61175"><ele>411.0</ele><time>2026-04-26T12:27:48.731Z</time></trkpt><trkpt lat="42.9671017" lon="2.6118717"><ele>411.0</ele><time>2026-04-26T12:27:49.729Z</time></trkpt><trkpt lat="42.96714" lon="2.612"><ele>411.0</ele><time>2026-04-26T12:27:50.729Z</time></trkpt><trkpt lat="42.9671783" lon="2.6121333"><ele>410.0</ele><time>2026-04-26T12:27:51.728Z</time></trkpt><trkpt lat="42.9672133" lon="2.6122633"><ele>409.0</ele><time>2026-04-26T12:27:52.728Z</time></trkpt><trkpt lat="42.9672483" lon="2.6123933"><ele>408.0</ele><time>2026-04-26T12:27:53.731Z</time></trkpt><trkpt lat="42.967285" lon="2.612515"><ele>407.0</ele><time>2026-04-26T12:27:54.728Z</time></trkpt><trkpt lat="42.9673183" lon="2.6126217"><ele>406.0</ele><time>2026-04-26T12:27:55.73Z</time></trkpt><trkpt lat="42.96734" lon="2.6127183"><ele>406.00000000000006</ele><time>2026-04-26T12:27:56.728Z</time></trkpt><trkpt lat="42.9673483" lon="2.6128133"><ele>406.0</ele><time>2026-04-26T12:27:57.729Z</time></trkpt><trkpt lat="42.9673333" lon="2.61291"><ele>406.0</ele><time>2026-04-26T12:27:58.728Z</time></trkpt><trkpt lat="42.9673017" lon="2.6130183"><ele>406.0</ele><time>2026-04-26T12:27:59.728Z</time></trkpt><trkpt lat="42.9672583" lon="2.61312"><ele>406.00000000000006</ele><time>2026-04-26T12:28:00.729Z</time></trkpt><trkpt lat="42.96722" lon="2.6132267"><ele>406.0</ele><time>2026-04-26T12:28:01.728Z</time></trkpt><trkpt lat="42.9671933" lon="2.613335"><ele>403.83333333333337</ele><time>2026-04-26T12:28:02.728Z</time></trkpt><trkpt lat="42.9671767" lon="2.6134417"><ele>401.6666666666667</ele><time>2026-04-26T12:28:03.729Z</time></trkpt><trkpt lat="42.9671617" lon="2.61356"><ele>399.5</ele><time>2026-04-26T12:28:04.729Z</time></trkpt><trkpt lat="42.9671433" lon="2.61368"><ele>397.33333333333337</ele><time>2026-04-26T12:28:05.73Z</time></trkpt><trkpt lat="42.96712" lon="2.613795"><ele>395.1666666666667</ele><time>2026-04-26T12:28:06.729Z</time></trkpt><trkpt lat="42.9670883" lon="2.61391"><ele>393.0</ele><time>2026-04-26T12:28:07.728Z</time></trkpt><trkpt lat="42.9670483" lon="2.61402"><ele>390.8333333333333</ele><time>2026-04-26T12:28:08.731Z</time></trkpt><trkpt lat="42.967" lon="2.6141167"><ele>388.6666666666667</ele><time>2026-04-26T12:28:09.728Z</time></trkpt><trkpt lat="42.966945" lon="2.6141917"><ele>386.5</ele><time>2026-04-26T12:28:10.73Z</time></trkpt><trkpt lat="42.966895" lon="2.6142533"><ele>384.33333333333337</ele><time>2026-04-26T12:28:11.728Z</time></trkpt><trkpt lat="42.96685" lon="2.614315"><ele>382.1666666666667</ele><time>2026-04-26T12:28:12.73Z</time></trkpt><trkpt lat="42.9667867" lon="2.61442"><ele>380.0</ele><time>2026-04-26T12:28:14.73Z</time></trkpt><trkpt lat="42.9667883" lon="2.6145383"><ele>378.6</ele><time>2026-04-26T12:28:16.73Z</time></trkpt><trkpt lat="42.9668133" lon="2.6146567"><ele>377.2</ele><time>2026-04-26T12:28:18.728Z</time></trkpt><trkpt lat="42.9667733" lon="2.6147633"><ele>375.79999999999995</ele><time>2026-04-26T12:28:21.73Z</time></trkpt><trkpt lat="42.9666767" lon="2.61484"><ele>374.4</ele><time>2026-04-26T12:28:23.728Z</time></trkpt><trkpt lat="42.9666283" lon="2.6149"><ele>373.0</ele><time>2026-04-26T12:28:24.731Z</time></trkpt><trkpt lat="42.9665417" lon="2.6150217"><ele>373.0</ele><time>2026-04-26T12:28:26.731Z</time></trkpt><trkpt lat="42.966515" lon="2.6151267"><ele>373.0</ele><time>2026-04-26T12:28:28.73Z</time></trkpt><trkpt lat="42.9666317" lon="2.61517"><ele>373.0</ele><time>2026-04-26T12:28:31.728Z</time></trkpt><trkpt lat="42.96671" lon="2.6151667"><ele>373.0</ele><time>2026-04-26T12:28:32.732Z</time></trkpt><trkpt lat="42.96679" lon="2.6151983"><ele>373.0</ele><time>2026-04-26T12:28:33.729Z</time></trkpt><trkpt lat="42.9668667" lon="2.6152633"><ele>372.5</ele><time>2026-04-26T12:28:34.728Z</time></trkpt><trkpt lat="42.966945" lon="2.6153683"><ele>372.0</ele><time>2026-04-26T12:28:35.729Z</time></trkpt><trkpt lat="42.9670167" lon="2.6155067"><ele>371.5</ele><time>2026-04-26T12:28:36.728Z</time></trkpt><trkpt lat="42.9670783" lon="2.6156633"><ele>371.0</ele><time>2026-04-26T12:28:37.729Z</time></trkpt><trkpt lat="42.9671433" lon="2.61582"><ele>371.0</ele><time>2026-04-26T12:28:38.729Z</time></trkpt><trkpt lat="42.9672067" lon="2.6159667"><ele>371.0</ele><time>2026-04-26T12:28:39.729Z</time></trkpt><trkpt lat="42.96727" lon="2.6160967"><ele>371.0</ele><time>2026-04-26T12:28:40.73Z</time></trkpt><trkpt lat="42.9673233" lon="2.6162117"><ele>371.0</ele><time>2026-04-26T12:28:41.729Z</time></trkpt><trkpt lat="42.967365" lon="2.6163267"><ele>371.0</ele><time>2026-04-26T12:28:42.73Z</time></trkpt><trkpt lat="42.9673817" lon="2.6164533"><ele>372.8</ele><time>2026-04-26T12:28:43.73Z</time></trkpt><trkpt lat="42.9673617" lon="2.61658"><ele>374.6</ele><time>2026-04-26T12:28:44.732Z</time></trkpt><trkpt lat="42.9672967" lon="2.6166867"><ele>376.4</ele><time>2026-04-26T12:28:45.73Z</time></trkpt><trkpt lat="42.967205" lon="2.61677"><ele>378.2</ele><time>2026-04-26T12:28:46.73Z</time></trkpt><trkpt lat="42.9671067" lon="2.6168617"><ele>380.0</ele><time>2026-04-26T12:28:47.73Z</time></trkpt><trkpt lat="42.9670167" lon="2.61698"><ele>384.75</ele><time>2026-04-26T12:28:48.736Z</time></trkpt><trkpt lat="42.9669367" lon="2.6171283"><ele>389.5</ele><time>2026-04-26T12:28:49.73Z</time></trkpt><trkpt lat="42.9668583" lon="2.6172933"><ele>394.25</ele><time>2026-04-26T12:28:50.731Z</time></trkpt><trkpt lat="42.9667817" lon="2.6174767"><ele>399.0</ele><time>2026-04-26T12:28:51.728Z</time></trkpt><trkpt lat="42.966705" lon="2.6176667"><ele>395.0</ele><time>2026-04-26T12:28:52.729Z</time></trkpt><trkpt lat="42.9666333" lon="2.6178617"><ele>391.0</ele><time>2026-04-26T12:28:53.729Z</time></trkpt><trkpt lat="42.9665617" lon="2.6180633"><ele>387.0</ele><time>2026-04-26T12:28:54.729Z</time></trkpt><trkpt lat="42.96648" lon="2.61826"><ele>387.0</ele><time>2026-04-26T12:28:55.73Z</time></trkpt><trkpt lat="42.9663867" lon="2.61845"><ele>387.0</ele><time>2026-04-26T12:28:56.73Z</time></trkpt><trkpt lat="42.966295" lon="2.6186417"><ele>387.0</ele><time>2026-04-26T12:28:57.729Z</time></trkpt><trkpt lat="42.9662017" lon="2.6188367"><ele>391.66666666666663</ele><time>2026-04-26T12:28:58.736Z</time></trkpt><trkpt lat="42.9661167" lon="2.6190383"><ele>396.3333333333333</ele><time>2026-04-26T12:28:59.731Z</time></trkpt><trkpt lat="42.9660283" lon="2.6192317"><ele>401.0</ele><time>2026-04-26T12:29:00.731Z</time></trkpt><trkpt lat="42.965965" lon="2.619425"><ele>402.66666666666663</ele><time>2026-04-26T12:29:01.73Z</time></trkpt><trkpt lat="42.965895" lon="2.6196067"><ele>404.33333333333337</ele><time>2026-04-26T12:29:02.731Z</time></trkpt><trkpt lat="42.9658033" lon="2.619765"><ele>406.0</ele><time>2026-04-26T12:29:03.728Z</time></trkpt><trkpt lat="42.9657017" lon="2.61992"><ele>403.33333333333337</ele><time>2026-04-26T12:29:04.729Z</time></trkpt><trkpt lat="42.9656033" lon="2.6200917"><ele>400.66666666666663</ele><time>2026-04-26T12:29:05.731Z</time></trkpt><trkpt lat="42.9655183" lon="2.6202783"><ele>398.0</ele><time>2026-04-26T12:29:06.731Z</time></trkpt><trkpt lat="42.9654367" lon="2.6204717"><ele>398.0</ele><time>2026-04-26T12:29:07.729Z</time></trkpt><trkpt lat="42.96535" lon="2.62066"><ele>398.0</ele><time>2026-04-26T12:29:08.729Z</time></trkpt><trkpt lat="42.96526" lon="2.620845"><ele>398.0</ele><time>2026-04-26T12:29:09.729Z</time></trkpt><trkpt lat="42.9651717" lon="2.6210267"><ele>395.66666666666663</ele><time>2026-04-26T12:29:10.731Z</time></trkpt><trkpt lat="42.9650733" lon="2.6211917"><ele>393.33333333333337</ele><time>2026-04-26T12:29:11.73Z</time></trkpt><trkpt lat="42.9649567" lon="2.6213383"><ele>391.0</ele><time>2026-04-26T12:29:12.735Z</time></trkpt><trkpt lat="42.964835" lon="2.621485"><ele>391.0</ele><time>2026-04-26T12:29:13.73Z</time></trkpt><trkpt lat="42.96473" lon="2.6216517"><ele>391.0</ele><time>2026-04-26T12:29:14.729Z</time></trkpt><trkpt lat="42.9646367" lon="2.6218267"><ele>391.0</ele><time>2026-04-26T12:29:15.729Z</time></trkpt><trkpt lat="42.9645433" lon="2.6219933"><ele>391.0</ele><time>2026-04-26T12:29:16.729Z</time></trkpt><trkpt lat="42.9644233" lon="2.6221383"><ele>391.0</ele><time>2026-04-26T12:29:17.729Z</time></trkpt><trkpt lat="42.9642867" lon="2.62227"><ele>391.0</ele><time>2026-04-26T12:29:18.736Z</time></trkpt><trkpt lat="42.96415" lon="2.6224133"><ele>391.0</ele><time>2026-04-26T12:29:19.73Z</time></trkpt><trkpt lat="42.96401" lon="2.62256"><ele>391.0</ele><time>2026-04-26T12:29:20.73Z</time></trkpt><trkpt lat="42.9638567" lon="2.62269"><ele>391.0</ele><time>2026-04-26T12:29:21.73Z</time></trkpt><trkpt lat="42.963695" lon="2.622805"><ele>394.0</ele><time>2026-04-26T12:29:22.729Z</time></trkpt><trkpt lat="42.96353" lon="2.622915"><ele>397.0</ele><time>2026-04-26T12:29:23.729Z</time></trkpt><trkpt lat="42.9633683" lon="2.6230267"><ele>400.0</ele><time>2026-04-26T12:29:24.729Z</time></trkpt><trkpt lat="42.9632133" lon="2.6231483"><ele>400.0</ele><time>2026-04-26T12:29:25.729Z</time></trkpt><trkpt lat="42.963065" lon="2.6232833"><ele>400.0</ele><time>2026-04-26T12:29:26.729Z</time></trkpt><trkpt lat="42.962925" lon="2.6234233"><ele>400.0</ele><time>2026-04-26T12:29:27.729Z</time></trkpt><trkpt lat="42.9627933" lon="2.62356"><ele>403.0</ele><time>2026-04-26T12:29:28.729Z</time></trkpt><trkpt lat="42.96267" lon="2.623695"><ele>406.0</ele><time>2026-04-26T12:29:29.729Z</time></trkpt><trkpt lat="42.9625567" lon="2.623835"><ele>409.0</ele><time>2026-04-26T12:29:30.729Z</time></trkpt><trkpt lat="42.96245" lon="2.623985"><ele>409.0</ele><time>2026-04-26T12:29:31.729Z</time></trkpt><trkpt lat="42.9623517" lon="2.62415"><ele>409.0</ele><time>2026-04-26T12:29:32.729Z</time></trkpt><trkpt lat="42.9622683" lon="2.6243183"><ele>409.0</ele><time>2026-04-26T12:29:33.728Z</time></trkpt><trkpt lat="42.962195" lon="2.62449"><ele>412.0</ele><time>2026-04-26T12:29:34.73Z</time></trkpt><trkpt lat="42.962115" lon="2.6246533"><ele>415.0</ele><time>2026-04-26T12:29:35.728Z</time></trkpt><trkpt lat="42.962015" lon="2.6247983"><ele>418.0</ele><time>2026-04-26T12:29:36.731Z</time></trkpt><trkpt lat="42.9618933" lon="2.624915"><ele>421.0</ele><time>2026-04-26T12:29:37.728Z</time></trkpt><trkpt lat="42.9617567" lon="2.625025"><ele>418.33333333333337</ele><time>2026-04-26T12:29:38.729Z</time></trkpt><trkpt lat="42.9616183" lon="2.625135"><ele>415.66666666666663</ele><time>2026-04-26T12:29:39.729Z</time></trkpt><trkpt lat="42.9614933" lon="2.6252517"><ele>413.0</ele><time>2026-04-26T12:29:40.729Z</time></trkpt><trkpt lat="42.9613817" lon="2.625375"><ele>413.0</ele><time>2026-04-26T12:29:41.728Z</time></trkpt><trkpt lat="42.9612917" lon="2.6255217"><ele>413.0</ele><time>2026-04-26T12:29:42.729Z</time></trkpt><trkpt lat="42.96122" lon="2.6256867"><ele>413.0</ele><time>2026-04-26T12:29:43.727Z</time></trkpt><trkpt lat="42.9611467" lon="2.625865"><ele>413.0</ele><time>2026-04-26T12:29:44.729Z</time></trkpt><trkpt lat="42.9610567" lon="2.6260317"><ele>415.66666666666663</ele><time>2026-04-26T12:29:45.728Z</time></trkpt><trkpt lat="42.9609517" lon="2.6261817"><ele>418.33333333333337</ele><time>2026-04-26T12:29:46.735Z</time></trkpt><trkpt lat="42.9608233" lon="2.626305"><ele>421.0</ele><time>2026-04-26T12:29:47.729Z</time></trkpt><trkpt lat="42.960675" lon="2.6263983"><ele>421.0</ele><time>2026-04-26T12:29:48.728Z</time></trkpt><trkpt lat="42.9605167" lon="2.6264833"><ele>421.0</ele><time>2026-04-26T12:29:49.728Z</time></trkpt><trkpt lat="42.9603567" lon="2.6265667"><ele>421.0</ele><time>2026-04-26T12:29:50.73Z</time></trkpt><trkpt lat="42.9602033" lon="2.62665"><ele>421.0</ele><time>2026-04-26T12:29:51.728Z</time></trkpt><trkpt lat="42.9600567" lon="2.6267333"><ele>421.0</ele><time>2026-04-26T12:29:52.727Z</time></trkpt><trkpt lat="42.9599183" lon="2.6268417"><ele>421.0</ele><time>2026-04-26T12:29:53.73Z</time></trkpt><trkpt lat="42.9597983" lon="2.6269883"><ele>423.0</ele><time>2026-04-26T12:29:54.73Z</time></trkpt><trkpt lat="42.959685" lon="2.6271533"><ele>425.0</ele><time>2026-04-26T12:29:55.727Z</time></trkpt><trkpt lat="42.959565" lon="2.6273117"><ele>427.0</ele><time>2026-04-26T12:29:56.736Z</time></trkpt><trkpt lat="42.95944" lon="2.627455"><ele>427.0</ele><time>2026-04-26T12:29:57.728Z</time></trkpt><trkpt lat="42.9593217" lon="2.627595"><ele>427.0</ele><time>2026-04-26T12:29:58.731Z</time></trkpt><trkpt lat="42.95922" lon="2.627745"><ele>427.0</ele><time>2026-04-26T12:29:59.727Z</time></trkpt><trkpt lat="42.9591433" lon="2.62791"><ele>427.0</ele><time>2026-04-26T12:30:00.73Z</time></trkpt><trkpt lat="42.959095" lon="2.6280933"><ele>427.0</ele><time>2026-04-26T12:30:01.728Z</time></trkpt><trkpt lat="42.9590733" lon="2.6282917"><ele>427.0</ele><time>2026-04-26T12:30:02.73Z</time></trkpt><trkpt lat="42.9590617" lon="2.62849"><ele>427.0</ele><time>2026-04-26T12:30:03.728Z</time></trkpt><trkpt lat="42.9590483" lon="2.6286733"><ele>427.0</ele><time>2026-04-26T12:30:04.729Z</time></trkpt><trkpt lat="42.959025" lon="2.6288367"><ele>429.40000000000003</ele><time>2026-04-26T12:30:05.728Z</time></trkpt><trkpt lat="42.9589817" lon="2.62897"><ele>431.80000000000007</ele><time>2026-04-26T12:30:06.73Z</time></trkpt><trkpt lat="42.958915" lon="2.6290517"><ele>434.2</ele><time>2026-04-26T12:30:07.727Z</time></trkpt><trkpt lat="42.958825" lon="2.62905"><ele>436.6</ele><time>2026-04-26T12:30:08.731Z</time></trkpt><trkpt lat="42.958735" lon="2.6289967"><ele>439.0</ele><time>2026-04-26T12:30:09.728Z</time></trkpt><trkpt lat="42.9586567" lon="2.628875"><ele>439.0</ele><time>2026-04-26T12:30:10.729Z</time></trkpt><trkpt lat="42.9585633" lon="2.6287417"><ele>439.0</ele><time>2026-04-26T12:30:11.728Z</time></trkpt><trkpt lat="42.9584583" lon="2.6286217"><ele>439.0</ele><time>2026-04-26T12:30:12.729Z</time></trkpt><trkpt lat="42.958345" lon="2.6285283"><ele>439.0</ele><time>2026-04-26T12:30:13.727Z</time></trkpt><trkpt lat="42.9582167" lon="2.6284783"><ele>436.5</ele><time>2026-04-26T12:30:14.728Z</time></trkpt><trkpt lat="42.9580767" lon="2.6284633"><ele>434.0</ele><time>2026-04-26T12:30:15.729Z</time></trkpt><trkpt lat="42.9579267" lon="2.62848"><ele>431.5</ele><time>2026-04-26T12:30:16.73Z</time></trkpt><trkpt lat="42.9577783" lon="2.6285183"><ele>429.0</ele><time>2026-04-26T12:30:17.729Z</time></trkpt><trkpt lat="42.9576333" lon="2.6285667"><ele>428.0</ele><time>2026-04-26T12:30:18.729Z</time></trkpt><trkpt lat="42.95749" lon="2.6286217"><ele>427.0</ele><time>2026-04-26T12:30:19.731Z</time></trkpt><trkpt lat="42.9573483" lon="2.62869"><ele>426.0</ele><time>2026-04-26T12:30:20.73Z</time></trkpt><trkpt lat="42.9572083" lon="2.6287867"><ele>433.66666666666663</ele><time>2026-04-26T12:30:21.728Z</time></trkpt><trkpt lat="42.9570783" lon="2.6289033"><ele>441.3333333333333</ele><time>2026-04-26T12:30:22.728Z</time></trkpt><trkpt lat="42.956955" lon="2.629035"><ele>449.0</ele><time>2026-04-26T12:30:23.727Z</time></trkpt><trkpt lat="42.9568417" lon="2.6291833"><ele>449.0</ele><time>2026-04-26T12:30:24.728Z</time></trkpt><trkpt lat="42.9567367" lon="2.62935"><ele>449.0</ele><time>2026-04-26T12:30:25.728Z</time></trkpt><trkpt lat="42.9566333" lon="2.6295283"><ele>449.0</ele><time>2026-04-26T12:30:26.729Z</time></trkpt><trkpt lat="42.9565317" lon="2.6297183"><ele>448.66666666666663</ele><time>2026-04-26T12:30:27.728Z</time></trkpt><trkpt lat="42.9564367" lon="2.62992"><ele>448.33333333333337</ele><time>2026-04-26T12:30:28.728Z</time></trkpt><trkpt lat="42.9563483" lon="2.6301317"><ele>448.0</ele><time>2026-04-26T12:30:29.73Z</time></trkpt><trkpt lat="42.9562667" lon="2.6303467"><ele>453.0</ele><time>2026-04-26T12:30:30.733Z</time></trkpt><trkpt lat="42.9561883" lon="2.6305533"><ele>458.0</ele><time>2026-04-26T12:30:31.727Z</time></trkpt><trkpt lat="42.9560983" lon="2.6307367"><ele>463.0</ele><time>2026-04-26T12:30:32.731Z</time></trkpt><trkpt lat="42.9559883" lon="2.6308917"><ele>462.6666666666667</ele><time>2026-04-26T12:30:33.729Z</time></trkpt><trkpt lat="42.9558583" lon="2.6310217"><ele>462.33333333333337</ele><time>2026-04-26T12:30:34.728Z</time></trkpt><trkpt lat="42.955715" lon="2.631125"><ele>462.0</ele><time>2026-04-26T12:30:35.73Z</time></trkpt><trkpt lat="42.9555683" lon="2.6312067"><ele>462.0</ele><time>2026-04-26T12:30:36.731Z</time></trkpt><trkpt lat="42.9554233" lon="2.63129"><ele>462.0</ele><time>2026-04-26T12:30:37.728Z</time></trkpt><trkpt lat="42.955285" lon="2.631395"><ele>462.0</ele><time>2026-04-26T12:30:38.729Z</time></trkpt><trkpt lat="42.9551517" lon="2.6315133"><ele>461.75</ele><time>2026-04-26T12:30:39.729Z</time></trkpt><trkpt lat="42.9550317" lon="2.63164"><ele>461.5</ele><time>2026-04-26T12:30:40.728Z</time></trkpt><trkpt lat="42.9549267" lon="2.6317717"><ele>461.25</ele><time>2026-04-26T12:30:41.728Z</time></trkpt><trkpt lat="42.954845" lon="2.63191"><ele>461.0</ele><time>2026-04-26T12:30:42.729Z</time></trkpt><trkpt lat="42.954795" lon="2.6320483"><ele>460.99999999999994</ele><time>2026-04-26T12:30:43.728Z</time></trkpt><trkpt lat="42.954785" lon="2.6321733"><ele>461.0</ele><time>2026-04-26T12:30:44.729Z</time></trkpt><trkpt lat="42.9548033" lon="2.632285"><ele>461.0</ele><time>2026-04-26T12:30:45.73Z</time></trkpt><trkpt lat="42.9548733" lon="2.6323433"><ele>461.0</ele><time>2026-04-26T12:30:46.727Z</time></trkpt><trkpt lat="42.9549683" lon="2.63238"><ele>460.99999999999994</ele><time>2026-04-26T12:30:47.727Z</time></trkpt><trkpt lat="42.955035" lon="2.63246"><ele>461.0</ele><time>2026-04-26T12:30:48.728Z</time></trkpt><trkpt lat="42.9550667" lon="2.6325833"><ele>463.20000000000005</ele><time>2026-04-26T12:30:49.729Z</time></trkpt><trkpt lat="42.9550567" lon="2.632725"><ele>465.40000000000003</ele><time>2026-04-26T12:30:50.729Z</time></trkpt><trkpt lat="42.955015" lon="2.6328617"><ele>467.6</ele><time>2026-04-26T12:30:51.727Z</time></trkpt><trkpt lat="42.954945" lon="2.632985"><ele>469.8</ele><time>2026-04-26T12:30:52.729Z</time></trkpt><trkpt lat="42.9548533" lon="2.63307"><ele>472.0</ele><time>2026-04-26T12:30:53.728Z</time></trkpt><trkpt lat="42.95476" lon="2.6331217"><ele>472.00000000000006</ele><time>2026-04-26T12:30:54.727Z</time></trkpt><trkpt lat="42.954675" lon="2.6331583"><ele>472.0</ele><time>2026-04-26T12:30:55.727Z</time></trkpt><trkpt lat="42.9546067" lon="2.6332033"><ele>472.0</ele><time>2026-04-26T12:30:56.729Z</time></trkpt><trkpt lat="42.9545567" lon="2.6332633"><ele>472.0</ele><time>2026-04-26T12:30:57.729Z</time></trkpt><trkpt lat="42.9545183" lon="2.6333867"><ele>472.00000000000006</ele><time>2026-04-26T12:30:59.728Z</time></trkpt><trkpt lat="42.9545633" lon="2.6335067"><ele>472.0</ele><time>2026-04-26T12:31:01.728Z</time></trkpt><trkpt lat="42.954655" lon="2.6335733"><ele>472.00000000000006</ele><time>2026-04-26T12:31:03.729Z</time></trkpt><trkpt lat="42.9547183" lon="2.63359"><ele>472.0</ele><time>2026-04-26T12:31:04.727Z</time></trkpt><trkpt lat="42.9547967" lon="2.633605"><ele>472.0</ele><time>2026-04-26T12:31:05.727Z</time></trkpt><trkpt lat="42.954885" lon="2.6336217"><ele>472.0</ele><time>2026-04-26T12:31:06.729Z</time></trkpt><trkpt lat="42.9549833" lon="2.633645"><ele>472.00000000000006</ele><time>2026-04-26T12:31:07.729Z</time></trkpt><trkpt lat="42.9550933" lon="2.63368"><ele>472.0</ele><time>2026-04-26T12:31:08.729Z</time></trkpt><trkpt lat="42.955205" lon="2.6337217"><ele>475.20000000000005</ele><time>2026-04-26T12:31:09.728Z</time></trkpt><trkpt lat="42.955315" lon="2.6337717"><ele>478.40000000000003</ele><time>2026-04-26T12:31:10.728Z</time></trkpt><trkpt lat="42.955425" lon="2.6338283"><ele>481.59999999999997</ele><time>2026-04-26T12:31:11.727Z</time></trkpt><trkpt lat="42.9555317" lon="2.6338933"><ele>484.79999999999995</ele><time>2026-04-26T12:31:12.73Z</time></trkpt><trkpt lat="42.9556183" lon="2.6339583"><ele>488.0</ele><time>2026-04-26T12:31:13.729Z</time></trkpt><trkpt lat="42.955695" lon="2.63403"><ele>487.99999999999994</ele><time>2026-04-26T12:31:14.731Z</time></trkpt><trkpt lat="42.9557633" lon="2.6341017"><ele>488.0</ele><time>2026-04-26T12:31:15.729Z</time></trkpt><trkpt lat="42.9558117" lon="2.6341883"><ele>488.0</ele><time>2026-04-26T12:31:16.731Z</time></trkpt><trkpt lat="42.95586" lon="2.6342867"><ele>488.0</ele><time>2026-04-26T12:31:17.73Z</time></trkpt><trkpt lat="42.955905" lon="2.6343933"><ele>487.99999999999994</ele><time>2026-04-26T12:31:18.73Z</time></trkpt><trkpt lat="42.95596" lon="2.6345167"><ele>488.0</ele><time>2026-04-26T12:31:19.729Z</time></trkpt><trkpt lat="42.9560017" lon="2.6346433"><ele>486.79999999999995</ele><time>2026-04-26T12:31:20.729Z</time></trkpt><trkpt lat="42.9560533" lon="2.6347733"><ele>485.59999999999997</ele><time>2026-04-26T12:31:21.729Z</time></trkpt><trkpt lat="42.95609" lon="2.6349133"><ele>484.40000000000003</ele><time>2026-04-26T12:31:22.73Z</time></trkpt><trkpt lat="42.9561083" lon="2.6350533"><ele>483.20000000000005</ele><time>2026-04-26T12:31:23.729Z</time></trkpt><trkpt lat="42.9561333" lon="2.6351833"><ele>482.0</ele><time>2026-04-26T12:31:24.732Z</time></trkpt><trkpt lat="42.9561683" lon="2.6352933"><ele>483.8333333333333</ele><time>2026-04-26T12:31:25.729Z</time></trkpt><trkpt lat="42.9562117" lon="2.6353817"><ele>485.66666666666663</ele><time>2026-04-26T12:31:26.728Z</time></trkpt><trkpt lat="42.95627" lon="2.6354417"><ele>487.5</ele><time>2026-04-26T12:31:27.728Z</time></trkpt><trkpt lat="42.9563633" lon="2.6354383"><ele>489.33333333333337</ele><time>2026-04-26T12:31:28.728Z</time></trkpt><trkpt lat="42.9564533" lon="2.6354317"><ele>491.1666666666667</ele><time>2026-04-26T12:31:29.73Z</time></trkpt><trkpt lat="42.95654" lon="2.6354367"><ele>493.0</ele><time>2026-04-26T12:31:30.729Z</time></trkpt><trkpt lat="42.9566033" lon="2.635465"><ele>493.0</ele><time>2026-04-26T12:31:31.728Z</time></trkpt><trkpt lat="42.9566967" lon="2.6355617"><ele>492.99999999999994</ele><time>2026-04-26T12:31:33.729Z</time></trkpt><trkpt lat="42.956695" lon="2.6357233"><ele>492.99999999999994</ele><time>2026-04-26T12:31:35.729Z</time></trkpt><trkpt lat="42.9566683" lon="2.6358333"><ele>493.0</ele><time>2026-04-26T12:31:36.73Z</time></trkpt><trkpt lat="42.9566383" lon="2.6359517"><ele>493.0</ele><time>2026-04-26T12:31:37.729Z</time></trkpt><trkpt lat="42.95661" lon="2.636085"><ele>493.0</ele><time>2026-04-26T12:31:38.729Z</time></trkpt><trkpt lat="42.95659" lon="2.636235"><ele>492.99999999999994</ele><time>2026-04-26T12:31:39.73Z</time></trkpt><trkpt lat="42.956575" lon="2.6363733"><ele>492.99999999999994</ele><time>2026-04-26T12:31:40.729Z</time></trkpt><trkpt lat="42.95655" lon="2.636505"><ele>493.0</ele><time>2026-04-26T12:31:41.728Z</time></trkpt><trkpt lat="42.95652" lon="2.6366267"><ele>493.0</ele><time>2026-04-26T12:31:42.73Z</time></trkpt><trkpt lat="42.9564783" lon="2.6367433"><ele>493.0</ele><time>2026-04-26T12:31:43.728Z</time></trkpt><trkpt lat="42.9564267" lon="2.6368617"><ele>492.99999999999994</ele><time>2026-04-26T12:31:44.728Z</time></trkpt><trkpt lat="42.9563667" lon="2.6369733"><ele>492.99999999999994</ele><time>2026-04-26T12:31:45.728Z</time></trkpt><trkpt lat="42.9563017" lon="2.63707"><ele>493.0</ele><time>2026-04-26T12:31:46.728Z</time></trkpt><trkpt lat="42.9562367" lon="2.6371533"><ele>493.0</ele><time>2026-04-26T12:31:47.729Z</time></trkpt><trkpt lat="42.95618" lon="2.63723"><ele>494.57142857142856</ele><time>2026-04-26T12:31:48.73Z</time></trkpt><trkpt lat="42.95613" lon="2.6373133"><ele>496.14285714285717</ele><time>2026-04-26T12:31:49.73Z</time></trkpt><trkpt lat="42.9560833" lon="2.63741"><ele>497.7142857142857</ele><time>2026-04-26T12:31:50.735Z</time></trkpt><trkpt lat="42.956055" lon="2.6375017"><ele>499.2857142857143</ele><time>2026-04-26T12:31:51.728Z</time></trkpt><trkpt lat="42.956035" lon="2.6375933"><ele>500.8571428571429</ele><time>2026-04-26T12:31:52.731Z</time></trkpt><trkpt lat="42.9560417" lon="2.63768"><ele>502.42857142857144</ele><time>2026-04-26T12:31:53.729Z</time></trkpt><trkpt lat="42.9560917" lon="2.6377483"><ele>504.0</ele><time>2026-04-26T12:31:54.729Z</time></trkpt><trkpt lat="42.9562083" lon="2.6377617"><ele>504.0</ele><time>2026-04-26T12:31:55.729Z</time></trkpt><trkpt lat="42.9563233" lon="2.637765"><ele>504.0</ele><time>2026-04-26T12:31:56.729Z</time></trkpt><trkpt lat="42.9564317" lon="2.6377567"><ele>504.0</ele><time>2026-04-26T12:31:57.728Z</time></trkpt><trkpt lat="42.9565267" lon="2.6377533"><ele>504.0</ele><time>2026-04-26T12:31:58.729Z</time></trkpt><trkpt lat="42.9566133" lon="2.6377633"><ele>504.0</ele><time>2026-04-26T12:31:59.727Z</time></trkpt><trkpt lat="42.9566983" lon="2.6377717"><ele>505.8333333333333</ele><time>2026-04-26T12:32:00.728Z</time></trkpt><trkpt lat="42.95678" lon="2.637755"><ele>507.66666666666663</ele><time>2026-04-26T12:32:01.731Z</time></trkpt><trkpt lat="42.95684" lon="2.63769"><ele>509.5</ele><time>2026-04-26T12:32:02.729Z</time></trkpt><trkpt lat="42.9569" lon="2.637625"><ele>511.3333333333333</ele><time>2026-04-26T12:32:03.729Z</time></trkpt><trkpt lat="42.9569683" lon="2.63756"><ele>513.1666666666666</ele><time>2026-04-26T12:32:04.73Z</time></trkpt><trkpt lat="42.957045" lon="2.63749"><ele>515.0</ele><time>2026-04-26T12:32:05.728Z</time></trkpt><trkpt lat="42.9571283" lon="2.6374183"><ele>515.0</ele><time>2026-04-26T12:32:06.73Z</time></trkpt><trkpt lat="42.957225" lon="2.63736"><ele>515.0</ele><time>2026-04-26T12:32:07.729Z</time></trkpt><trkpt lat="42.9573333" lon="2.6373033"><ele>515.0</ele><time>2026-04-26T12:32:08.728Z</time></trkpt><trkpt lat="42.9574433" lon="2.63726"><ele>515.0</ele><time>2026-04-26T12:32:09.73Z</time></trkpt><trkpt lat="42.95755" lon="2.6372317"><ele>515.0</ele><time>2026-04-26T12:32:10.728Z</time></trkpt><trkpt lat="42.9576567" lon="2.63721"><ele>515.5</ele><time>2026-04-26T12:32:11.729Z</time></trkpt><trkpt lat="42.957775" lon="2.6372"><ele>516.0</ele><time>2026-04-26T12:32:12.728Z</time></trkpt><trkpt lat="42.9578983" lon="2.6372"><ele>516.5</ele><time>2026-04-26T12:32:13.728Z</time></trkpt><trkpt lat="42.9580183" lon="2.6372167"><ele>517.0</ele><time>2026-04-26T12:32:14.728Z</time></trkpt><trkpt lat="42.9581433" lon="2.6372317"><ele>517.0</ele><time>2026-04-26T12:32:15.728Z</time></trkpt><trkpt lat="42.9582683" lon="2.6372433"><ele>517.0</ele><time>2026-04-26T12:32:16.73Z</time></trkpt><trkpt lat="42.9583917" lon="2.63726"><ele>517.0</ele><time>2026-04-26T12:32:17.729Z</time></trkpt><trkpt lat="42.9585017" lon="2.63728"><ele>517.0</ele><time>2026-04-26T12:32:18.729Z</time></trkpt><trkpt lat="42.9585983" lon="2.637295"><ele>516.4</ele><time>2026-04-26T12:32:19.728Z</time></trkpt><trkpt lat="42.9586983" lon="2.63729"><ele>515.8000000000001</ele><time>2026-04-26T12:32:20.728Z</time></trkpt><trkpt lat="42.95881" lon="2.6372633"><ele>515.2</ele><time>2026-04-26T12:32:21.728Z</time></trkpt><trkpt lat="42.9589233" lon="2.6372267"><ele>514.6</ele><time>2026-04-26T12:32:22.731Z</time></trkpt><trkpt lat="42.959035" lon="2.6371883"><ele>514.0</ele><time>2026-04-26T12:32:23.728Z</time></trkpt><trkpt lat="42.95914" lon="2.6371533"><ele>514.75</ele><time>2026-04-26T12:32:24.73Z</time></trkpt><trkpt lat="42.9592517" lon="2.6371233"><ele>515.5</ele><time>2026-04-26T12:32:25.727Z</time></trkpt><trkpt lat="42.95938" lon="2.6371"><ele>516.25</ele><time>2026-04-26T12:32:26.73Z</time></trkpt><trkpt lat="42.9595083" lon="2.6370767"><ele>517.0</ele><time>2026-04-26T12:32:27.728Z</time></trkpt><trkpt lat="42.9596417" lon="2.637055"><ele>517.0</ele><time>2026-04-26T12:32:28.734Z</time></trkpt><trkpt lat="42.9597583" lon="2.6370333"><ele>517.0</ele><time>2026-04-26T12:32:29.732Z</time></trkpt><trkpt lat="42.9598583" lon="2.637025"><ele>517.0</ele><time>2026-04-26T12:32:30.728Z</time></trkpt><trkpt lat="42.9599567" lon="2.6370317"><ele>517.0</ele><time>2026-04-26T12:32:31.728Z</time></trkpt><trkpt lat="42.9600533" lon="2.6370633"><ele>517.0</ele><time>2026-04-26T12:32:32.73Z</time></trkpt><trkpt lat="42.9601367" lon="2.637125"><ele>519.2</ele><time>2026-04-26T12:32:33.729Z</time></trkpt><trkpt lat="42.960205" lon="2.6372083"><ele>521.4000000000001</ele><time>2026-04-26T12:32:34.728Z</time></trkpt><trkpt lat="42.96026" lon="2.6373117"><ele>523.5999999999999</ele><time>2026-04-26T12:32:35.729Z</time></trkpt><trkpt lat="42.9603083" lon="2.6374283"><ele>525.8</ele><time>2026-04-26T12:32:36.732Z</time></trkpt><trkpt lat="42.9603517" lon="2.6375467"><ele>528.0</ele><time>2026-04-26T12:32:37.729Z</time></trkpt><trkpt lat="42.9604083" lon="2.6376583"><ele>528.0</ele><time>2026-04-26T12:32:38.729Z</time></trkpt><trkpt lat="42.96048" lon="2.6377633"><ele>528.0</ele><time>2026-04-26T12:32:39.734Z</time></trkpt><trkpt lat="42.960555" lon="2.63785"><ele>528.0</ele><time>2026-04-26T12:32:40.728Z</time></trkpt><trkpt lat="42.96063" lon="2.637915"><ele>528.0</ele><time>2026-04-26T12:32:41.728Z</time></trkpt><trkpt lat="42.9607" lon="2.6379567"><ele>528.0</ele><time>2026-04-26T12:32:42.729Z</time></trkpt><trkpt lat="42.9607683" lon="2.6379733"><ele>528.0</ele><time>2026-04-26T12:32:43.729Z</time></trkpt><trkpt lat="42.9608333" lon="2.63796"><ele>527.8571428571429</ele><time>2026-04-26T12:32:44.728Z</time></trkpt><trkpt lat="42.9608967" lon="2.637915"><ele>527.7142857142858</ele><time>2026-04-26T12:32:45.729Z</time></trkpt><trkpt lat="42.960945" lon="2.63784"><ele>527.5714285714287</ele><time>2026-04-26T12:32:46.729Z</time></trkpt><trkpt lat="42.9609783" lon="2.637755"><ele>527.4285714285714</ele><time>2026-04-26T12:32:47.729Z</time></trkpt><trkpt lat="42.9610017" lon="2.6376583"><ele>527.2857142857143</ele><time>2026-04-26T12:32:48.728Z</time></trkpt><trkpt lat="42.9610217" lon="2.63756"><ele>527.1428571428572</ele><time>2026-04-26T12:32:49.73Z</time></trkpt><trkpt lat="42.9610383" lon="2.6374583"><ele>527.0</ele><time>2026-04-26T12:32:50.731Z</time></trkpt><trkpt lat="42.961055" lon="2.6373517"><ele>527.0</ele><time>2026-04-26T12:32:51.73Z</time></trkpt><trkpt lat="42.9610833" lon="2.6372433"><ele>527.0</ele><time>2026-04-26T12:32:52.729Z</time></trkpt><trkpt lat="42.9611217" lon="2.6371333"><ele>527.0</ele><time>2026-04-26T12:32:53.729Z</time></trkpt><trkpt lat="42.9611667" lon="2.6370217"><ele>527.0</ele><time>2026-04-26T12:32:54.729Z</time></trkpt><trkpt lat="42.9612183" lon="2.6369067"><ele>527.0</ele><time>2026-04-26T12:32:55.728Z</time></trkpt><trkpt lat="42.9612767" lon="2.6368067"><ele>530.0</ele><time>2026-04-26T12:32:56.729Z</time></trkpt><trkpt lat="42.9613367" lon="2.6367317"><ele>533.0</ele><time>2026-04-26T12:32:57.729Z</time></trkpt><trkpt lat="42.9613933" lon="2.6366833"><ele>536.0</ele><time>2026-04-26T12:32:58.729Z</time></trkpt><trkpt lat="42.9615217" lon="2.6366917"><ele>539.0</ele><time>2026-04-26T12:33:00.728Z</time></trkpt><trkpt lat="42.96161" lon="2.6367083"><ele>542.0</ele><time>2026-04-26T12:33:01.81Z</time></trkpt><trkpt lat="42.9617067" lon="2.6367167"><ele>542.0</ele><time>2026-04-26T12:33:02.729Z</time></trkpt><trkpt lat="42.961825" lon="2.63672"><ele>542.0</ele><time>2026-04-26T12:33:03.729Z</time></trkpt><trkpt lat="42.9619383" lon="2.63672"><ele>542.0</ele><time>2026-04-26T12:33:04.728Z</time></trkpt><trkpt lat="42.9620467" lon="2.6367117"><ele>542.0</ele><time>2026-04-26T12:33:05.729Z</time></trkpt><trkpt lat="42.962155" lon="2.6366833"><ele>542.0</ele><time>2026-04-26T12:33:06.729Z</time></trkpt><trkpt lat="42.96223" lon="2.636645"><ele>542.0</ele><time>2026-04-26T12:33:07.729Z</time></trkpt><trkpt lat="42.9623033" lon="2.6365817"><ele>542.0</ele><time>2026-04-26T12:33:08.73Z</time></trkpt><trkpt lat="42.9623717" lon="2.636505"><ele>542.0</ele><time>2026-04-26T12:33:09.729Z</time></trkpt><trkpt lat="42.96243" lon="2.636415"><ele>542.0</ele><time>2026-04-26T12:33:10.729Z</time></trkpt><trkpt lat="42.9624683" lon="2.6363083"><ele>542.0</ele><time>2026-04-26T12:33:11.729Z</time></trkpt><trkpt lat="42.9625" lon="2.6361983"><ele>543.4</ele><time>2026-04-26T12:33:12.728Z</time></trkpt><trkpt lat="42.9625433" lon="2.6360867"><ele>544.8000000000001</ele><time>2026-04-26T12:33:13.729Z</time></trkpt><trkpt lat="42.9625967" lon="2.6359733"><ele>546.2</ele><time>2026-04-26T12:33:14.73Z</time></trkpt><trkpt lat="42.962665" lon="2.6358633"><ele>547.6</ele><time>2026-04-26T12:33:15.73Z</time></trkpt><trkpt lat="42.962735" lon="2.6357533"><ele>549.0</ele><time>2026-04-26T12:33:16.727Z</time></trkpt><trkpt lat="42.9628083" lon="2.635655"><ele>549.0</ele><time>2026-04-26T12:33:17.728Z</time></trkpt><trkpt lat="42.962885" lon="2.63557"><ele>549.0</ele><time>2026-04-26T12:33:18.728Z</time></trkpt><trkpt lat="42.96297" lon="2.6354933"><ele>549.0</ele><time>2026-04-26T12:33:19.728Z</time></trkpt><trkpt lat="42.963055" lon="2.6354217"><ele>549.0</ele><time>2026-04-26T12:33:20.728Z</time></trkpt><trkpt lat="42.9631383" lon="2.6353433"><ele>549.0</ele><time>2026-04-26T12:33:21.727Z</time></trkpt><trkpt lat="42.9632117" lon="2.6352617"><ele>549.8</ele><time>2026-04-26T12:33:22.731Z</time></trkpt><trkpt lat="42.9632683" lon="2.6351633"><ele>550.5999999999999</ele><time>2026-04-26T12:33:23.727Z</time></trkpt><trkpt lat="42.9633167" lon="2.6350417"><ele>551.4</ele><time>2026-04-26T12:33:24.729Z</time></trkpt><trkpt lat="42.9633583" lon="2.634905"><ele>552.1999999999999</ele><time>2026-04-26T12:33:25.729Z</time></trkpt><trkpt lat="42.9634" lon="2.6347583"><ele>553.0</ele><time>2026-04-26T12:33:26.732Z</time></trkpt><trkpt lat="42.9634517" lon="2.6346133"><ele>554.4</ele><time>2026-04-26T12:33:27.728Z</time></trkpt><trkpt lat="42.9634867" lon="2.6344683"><ele>555.8</ele><time>2026-04-26T12:33:28.728Z</time></trkpt><trkpt lat="42.9635083" lon="2.6343417"><ele>557.2</ele><time>2026-04-26T12:33:29.732Z</time></trkpt><trkpt lat="42.9635317" lon="2.6342267"><ele>558.6</ele><time>2026-04-26T12:33:30.729Z</time></trkpt><trkpt lat="42.963575" lon="2.6341317"><ele>560.0</ele><time>2026-04-26T12:33:31.729Z</time></trkpt><trkpt lat="42.9636317" lon="2.63406"><ele>560.0</ele><time>2026-04-26T12:33:32.729Z</time></trkpt><trkpt lat="42.963715" lon="2.63402"><ele>560.0</ele><time>2026-04-26T12:33:33.73Z</time></trkpt><trkpt lat="42.9638183" lon="2.6339883"><ele>560.0</ele><time>2026-04-26T12:33:34.73Z</time></trkpt><trkpt lat="42.9639233" lon="2.6339483"><ele>560.0</ele><time>2026-04-26T12:33:35.733Z</time></trkpt><trkpt lat="42.9640317" lon="2.6339017"><ele>560.0</ele><time>2026-04-26T12:33:36.729Z</time></trkpt><trkpt lat="42.96413" lon="2.6338483"><ele>560.4</ele><time>2026-04-26T12:33:37.73Z</time></trkpt><trkpt lat="42.9642233" lon="2.633795"><ele>560.8</ele><time>2026-04-26T12:33:38.731Z</time></trkpt><trkpt lat="42.9643217" lon="2.6337617"><ele>561.2</ele><time>2026-04-26T12:33:39.729Z</time></trkpt><trkpt lat="42.9644367" lon="2.6337383"><ele>561.6</ele><time>2026-04-26T12:33:40.735Z</time></trkpt><trkpt lat="42.9645583" lon="2.63371"><ele>562.0</ele><time>2026-04-26T12:33:41.727Z</time></trkpt><trkpt lat="42.964685" lon="2.6336733"><ele>562.0</ele><time>2026-04-26T12:33:42.728Z</time></trkpt><trkpt lat="42.96482" lon="2.6336333"><ele>562.0</ele><time>2026-04-26T12:33:43.729Z</time></trkpt><trkpt lat="42.9649467" lon="2.6335917"><ele>562.0</ele><time>2026-04-26T12:33:44.728Z</time></trkpt><trkpt lat="42.9650567" lon="2.6335517"><ele>562.0</ele><time>2026-04-26T12:33:45.727Z</time></trkpt><trkpt lat="42.965155" lon="2.6335267"><ele>563.0</ele><time>2026-04-26T12:33:46.732Z</time></trkpt><trkpt lat="42.9652483" lon="2.63352"><ele>564.0</ele><time>2026-04-26T12:33:47.729Z</time></trkpt><trkpt lat="42.96535" lon="2.6335383"><ele>565.0</ele><time>2026-04-26T12:33:48.735Z</time></trkpt><trkpt lat="42.9654583" lon="2.63359"><ele>566.0</ele><time>2026-04-26T12:33:49.728Z</time></trkpt><trkpt lat="42.9655683" lon="2.6336517"><ele>567.0</ele><time>2026-04-26T12:33:50.731Z</time></trkpt><trkpt lat="42.9656717" lon="2.6337283"><ele>567.25</ele><time>2026-04-26T12:33:51.728Z</time></trkpt><trkpt lat="42.9657733" lon="2.63383"><ele>567.5</ele><time>2026-04-26T12:33:52.728Z</time></trkpt><trkpt lat="42.965875" lon="2.6339567"><ele>567.75</ele><time>2026-04-26T12:33:53.727Z</time></trkpt><trkpt lat="42.9659717" lon="2.6340933"><ele>568.0</ele><time>2026-04-26T12:33:54.729Z</time></trkpt><trkpt lat="42.9660683" lon="2.634235"><ele>570.0</ele><time>2026-04-26T12:33:55.73Z</time></trkpt><trkpt lat="42.9661567" lon="2.6343733"><ele>572.0</ele><time>2026-04-26T12:33:56.729Z</time></trkpt><trkpt lat="42.96624" lon="2.6345"><ele>574.0</ele><time>2026-04-26T12:33:57.729Z</time></trkpt><trkpt lat="42.966325" lon="2.6346217"><ele>576.0</ele><time>2026-04-26T12:33:58.729Z</time></trkpt><trkpt lat="42.96641" lon="2.6347333"><ele>576.0</ele><time>2026-04-26T12:33:59.728Z</time></trkpt><trkpt lat="42.9664917" lon="2.6348283"><ele>576.0</ele><time>2026-04-26T12:34:00.731Z</time></trkpt><trkpt lat="42.96657" lon="2.6349033"><ele>576.0</ele><time>2026-04-26T12:34:01.728Z</time></trkpt><trkpt lat="42.9666433" lon="2.6349533"><ele>576.0</ele><time>2026-04-26T12:34:02.732Z</time></trkpt><trkpt lat="42.9667267" lon="2.6349833"><ele>576.0</ele><time>2026-04-26T12:34:03.729Z</time></trkpt><trkpt lat="42.9668183" lon="2.6349867"><ele>578.4</ele><time>2026-04-26T12:34:04.733Z</time></trkpt><trkpt lat="42.9669183" lon="2.6349617"><ele>580.8</ele><time>2026-04-26T12:34:05.728Z</time></trkpt><trkpt lat="42.96702" lon="2.6349"><ele>583.1999999999999</ele><time>2026-04-26T12:34:06.732Z</time></trkpt><trkpt lat="42.9671083" lon="2.63483"><ele>585.6</ele><time>2026-04-26T12:34:07.731Z</time></trkpt><trkpt lat="42.9671917" lon="2.63476"><ele>588.0</ele><time>2026-04-26T12:34:08.728Z</time></trkpt><trkpt lat="42.9672717" lon="2.6347"><ele>588.0</ele><time>2026-04-26T12:34:09.728Z</time></trkpt><trkpt lat="42.9673583" lon="2.634655"><ele>588.0</ele><time>2026-04-26T12:34:10.729Z</time></trkpt><trkpt lat="42.96746" lon="2.6346217"><ele>588.0</ele><time>2026-04-26T12:34:11.729Z</time></trkpt><trkpt lat="42.967565" lon="2.6345783"><ele>588.0</ele><time>2026-04-26T12:34:12.728Z</time></trkpt><trkpt lat="42.9676733" lon="2.63452"><ele>588.0</ele><time>2026-04-26T12:34:13.73Z</time></trkpt><trkpt lat="42.9677833" lon="2.63445"><ele>589.25</ele><time>2026-04-26T12:34:14.73Z</time></trkpt><trkpt lat="42.9679033" lon="2.63438"><ele>590.5</ele><time>2026-04-26T12:34:15.728Z</time></trkpt><trkpt lat="42.968025" lon="2.6343183"><ele>591.75</ele><time>2026-04-26T12:34:16.728Z</time></trkpt><trkpt lat="42.9681483" lon="2.6342733"><ele>593.0</ele><time>2026-04-26T12:34:17.729Z</time></trkpt><trkpt lat="42.96827" lon="2.6342467"><ele>594.1999999999999</ele><time>2026-04-26T12:34:18.729Z</time></trkpt><trkpt lat="42.9683817" lon="2.6342283"><ele>595.4</ele><time>2026-04-26T12:34:19.731Z</time></trkpt><trkpt lat="42.9684783" lon="2.6342033"><ele>596.5999999999999</ele><time>2026-04-26T12:34:20.737Z</time></trkpt><trkpt lat="42.968575" lon="2.6341517"><ele>597.8</ele><time>2026-04-26T12:34:21.728Z</time></trkpt><trkpt lat="42.9686567" lon="2.634085"><ele>599.0</ele><time>2026-04-26T12:34:22.728Z</time></trkpt><trkpt lat="42.9687283" lon="2.6340217"><ele>599.0</ele><time>2026-04-26T12:34:23.73Z</time></trkpt><trkpt lat="42.968795" lon="2.6339783"><ele>599.0</ele><time>2026-04-26T12:34:24.731Z</time></trkpt><trkpt lat="42.9688617" lon="2.6339633"><ele>599.0</ele><time>2026-04-26T12:34:25.729Z</time></trkpt><trkpt lat="42.96893" lon="2.6339717"><ele>599.0</ele><time>2026-04-26T12:34:26.731Z</time></trkpt><trkpt lat="42.9690067" lon="2.633995"><ele>599.0</ele><time>2026-04-26T12:34:27.729Z</time></trkpt><trkpt lat="42.9691067" lon="2.6340017"><ele>599.0</ele><time>2026-04-26T12:34:28.73Z</time></trkpt><trkpt lat="42.9692233" lon="2.6339683"><ele>599.75</ele><time>2026-04-26T12:34:29.732Z</time></trkpt><trkpt lat="42.969345" lon="2.633905"><ele>600.5</ele><time>2026-04-26T12:34:30.728Z</time></trkpt><trkpt lat="42.969465" lon="2.6338333"><ele>601.25</ele><time>2026-04-26T12:34:31.729Z</time></trkpt><trkpt lat="42.9695833" lon="2.6337567"><ele>602.0</ele><time>2026-04-26T12:34:32.73Z</time></trkpt><trkpt lat="42.969695" lon="2.6336817"><ele>602.2</ele><time>2026-04-26T12:34:33.731Z</time></trkpt><trkpt lat="42.969795" lon="2.6336217"><ele>602.4000000000001</ele><time>2026-04-26T12:34:34.735Z</time></trkpt><trkpt lat="42.9698883" lon="2.6335883"><ele>602.5999999999999</ele><time>2026-04-26T12:34:35.728Z</time></trkpt><trkpt lat="42.96998" lon="2.6335817"><ele>602.8</ele><time>2026-04-26T12:34:36.731Z</time></trkpt><trkpt lat="42.9700733" lon="2.633605"><ele>603.0</ele><time>2026-04-26T12:34:37.728Z</time></trkpt><trkpt lat="42.9701733" lon="2.6336433"><ele>603.4</ele><time>2026-04-26T12:34:38.73Z</time></trkpt><trkpt lat="42.9702717" lon="2.6336783"><ele>603.8</ele><time>2026-04-26T12:34:39.731Z</time></trkpt><trkpt lat="42.9703683" lon="2.633695"><ele>604.2</ele><time>2026-04-26T12:34:40.734Z</time></trkpt><trkpt lat="42.970465" lon="2.63368"><ele>604.6</ele><time>2026-04-26T12:34:41.728Z</time></trkpt><trkpt lat="42.9705583" lon="2.6336417"><ele>605.0</ele><time>2026-04-26T12:34:42.728Z</time></trkpt><trkpt lat="42.97066" lon="2.6336"><ele>605.0</ele><time>2026-04-26T12:34:43.729Z</time></trkpt><trkpt lat="42.9707733" lon="2.63357"><ele>605.0</ele><time>2026-04-26T12:34:44.732Z</time></trkpt><trkpt lat="42.9709017" lon="2.6335367"><ele>605.0</ele><time>2026-04-26T12:34:45.73Z</time></trkpt><trkpt lat="42.9710317" lon="2.6335083"><ele>605.0</ele><time>2026-04-26T12:34:46.73Z</time></trkpt><trkpt lat="42.9711633" lon="2.6334833"><ele>604.0</ele><time>2026-04-26T12:34:47.728Z</time></trkpt><trkpt lat="42.9713133" lon="2.6334467"><ele>603.0</ele><time>2026-04-26T12:34:48.729Z</time></trkpt><trkpt lat="42.9714667" lon="2.6333983"><ele>602.0</ele><time>2026-04-26T12:34:49.728Z</time></trkpt><trkpt lat="42.97162" lon="2.63334"><ele>601.0</ele><time>2026-04-26T12:34:50.735Z</time></trkpt><trkpt lat="42.971775" lon="2.6332817"><ele>600.0</ele><time>2026-04-26T12:34:51.729Z</time></trkpt><trkpt lat="42.9719283" lon="2.6332317"><ele>599.0</ele><time>2026-04-26T12:34:52.728Z</time></trkpt><trkpt lat="42.972075" lon="2.6331917"><ele>599.0</ele><time>2026-04-26T12:34:53.728Z</time></trkpt><trkpt lat="42.9722167" lon="2.6331467"><ele>599.0</ele><time>2026-04-26T12:34:54.729Z</time></trkpt><trkpt lat="42.9723483" lon="2.63311"><ele>599.0</ele><time>2026-04-26T12:34:55.729Z</time></trkpt><trkpt lat="42.9724717" lon="2.6330867"><ele>599.0</ele><time>2026-04-26T12:34:56.734Z</time></trkpt><trkpt lat="42.9725983" lon="2.63306"><ele>597.75</ele><time>2026-04-26T12:34:57.728Z</time></trkpt><trkpt lat="42.9727233" lon="2.6330217"><ele>596.5</ele><time>2026-04-26T12:34:58.728Z</time></trkpt><trkpt lat="42.9728433" lon="2.6329817"><ele>595.25</ele><time>2026-04-26T12:34:59.732Z</time></trkpt><trkpt lat="42.9729633" lon="2.6329533"><ele>594.0</ele><time>2026-04-26T12:35:00.733Z</time></trkpt><trkpt lat="42.973075" lon="2.6329367"><ele>594.0</ele><time>2026-04-26T12:35:01.732Z</time></trkpt><trkpt lat="42.9731883" lon="2.6329417"><ele>594.0</ele><time>2026-04-26T12:35:02.731Z</time></trkpt><trkpt lat="42.973305" lon="2.6329617"><ele>594.0</ele><time>2026-04-26T12:35:03.73Z</time></trkpt><trkpt lat="42.9734233" lon="2.633"><ele>594.0</ele><time>2026-04-26T12:35:04.73Z</time></trkpt><trkpt lat="42.9735317" lon="2.6330617"><ele>593.5</ele><time>2026-04-26T12:35:05.73Z</time></trkpt><trkpt lat="42.973635" lon="2.63313"><ele>593.0</ele><time>2026-04-26T12:35:06.731Z</time></trkpt><trkpt lat="42.97374" lon="2.6331933"><ele>592.5</ele><time>2026-04-26T12:35:07.729Z</time></trkpt><trkpt lat="42.9738483" lon="2.6332433"><ele>592.0</ele><time>2026-04-26T12:35:08.732Z</time></trkpt><trkpt lat="42.9739533" lon="2.6332817"><ele>592.0</ele><time>2026-04-26T12:35:09.729Z</time></trkpt><trkpt lat="42.9740517" lon="2.6333233"><ele>592.0</ele><time>2026-04-26T12:35:10.73Z</time></trkpt><trkpt lat="42.97414" lon="2.6333933"><ele>592.0</ele><time>2026-04-26T12:35:11.73Z</time></trkpt><trkpt lat="42.9742283" lon="2.6334917"><ele>592.0</ele><time>2026-04-26T12:35:12.732Z</time></trkpt><trkpt lat="42.9743233" lon="2.6336017"><ele>592.0</ele><time>2026-04-26T12:35:13.729Z</time></trkpt><trkpt lat="42.9744183" lon="2.6337167"><ele>592.25</ele><time>2026-04-26T12:35:14.729Z</time></trkpt><trkpt lat="42.97452" lon="2.6338283"><ele>592.5</ele><time>2026-04-26T12:35:15.729Z</time></trkpt><trkpt lat="42.9746233" lon="2.6339383"><ele>592.75</ele><time>2026-04-26T12:35:16.729Z</time></trkpt><trkpt lat="42.974725" lon="2.6340417"><ele>593.0</ele><time>2026-04-26T12:35:17.728Z</time></trkpt><trkpt lat="42.9748233" lon="2.63413"><ele>593.0</ele><time>2026-04-26T12:35:18.731Z</time></trkpt><trkpt lat="42.9749233" lon="2.634205"><ele>593.0</ele><time>2026-04-26T12:35:19.729Z</time></trkpt><trkpt lat="42.97501" lon="2.6342867"><ele>593.0</ele><time>2026-04-26T12:35:20.729Z</time></trkpt><trkpt lat="42.9750983" lon="2.6343917"><ele>593.0</ele><time>2026-04-26T12:35:21.728Z</time></trkpt><trkpt lat="42.9751933" lon="2.63451"><ele>593.25</ele><time>2026-04-26T12:35:22.73Z</time></trkpt><trkpt lat="42.9753" lon="2.6346233"><ele>593.5</ele><time>2026-04-26T12:35:23.73Z</time></trkpt><trkpt lat="42.9754117" lon="2.6347467"><ele>593.75</ele><time>2026-04-26T12:35:24.737Z</time></trkpt><trkpt lat="42.975515" lon="2.634875"><ele>594.0</ele><time>2026-04-26T12:35:25.731Z</time></trkpt><trkpt lat="42.9756167" lon="2.6349967"><ele>594.0</ele><time>2026-04-26T12:35:26.73Z</time></trkpt><trkpt lat="42.9757217" lon="2.635115"><ele>594.0</ele><time>2026-04-26T12:35:27.729Z</time></trkpt><trkpt lat="42.9758217" lon="2.6352167"><ele>594.0</ele><time>2026-04-26T12:35:28.731Z</time></trkpt><trkpt lat="42.9759217" lon="2.6353167"><ele>594.0</ele><time>2026-04-26T12:35:29.731Z</time></trkpt><trkpt lat="42.9760033" lon="2.63542"><ele>594.75</ele><time>2026-04-26T12:35:30.729Z</time></trkpt><trkpt lat="42.9760717" lon="2.6355383"><ele>595.5</ele><time>2026-04-26T12:35:31.729Z</time></trkpt><trkpt lat="42.9761367" lon="2.6356783"><ele>596.25</ele><time>2026-04-26T12:35:32.731Z</time></trkpt><trkpt lat="42.9761917" lon="2.6358283"><ele>597.0</ele><time>2026-04-26T12:35:33.728Z</time></trkpt><trkpt lat="42.976235" lon="2.63597"><ele>597.0</ele><time>2026-04-26T12:35:34.731Z</time></trkpt><trkpt lat="42.9762767" lon="2.6360883"><ele>597.0</ele><time>2026-04-26T12:35:35.728Z</time></trkpt><trkpt lat="42.9763167" lon="2.636185"><ele>597.0</ele><time>2026-04-26T12:35:36.736Z</time></trkpt><trkpt lat="42.976365" lon="2.6362683"><ele>597.0</ele><time>2026-04-26T12:35:37.731Z</time></trkpt><trkpt lat="42.9764217" lon="2.6363283"><ele>597.0</ele><time>2026-04-26T12:35:38.73Z</time></trkpt><trkpt lat="42.9764767" lon="2.6364017"><ele>597.0</ele><time>2026-04-26T12:35:39.729Z</time></trkpt><trkpt lat="42.97653" lon="2.636485"><ele>596.6</ele><time>2026-04-26T12:35:40.728Z</time></trkpt><trkpt lat="42.976575" lon="2.6365867"><ele>596.2</ele><time>2026-04-26T12:35:41.731Z</time></trkpt><trkpt lat="42.9765983" lon="2.6367117"><ele>595.8</ele><time>2026-04-26T12:35:42.729Z</time></trkpt><trkpt lat="42.9766" lon="2.6368433"><ele>595.4</ele><time>2026-04-26T12:35:43.729Z</time></trkpt><trkpt lat="42.9765817" lon="2.636975"><ele>595.0</ele><time>2026-04-26T12:35:44.73Z</time></trkpt><trkpt lat="42.9765567" lon="2.63711"><ele>595.0</ele><time>2026-04-26T12:35:45.73Z</time></trkpt><trkpt lat="42.9765267" lon="2.6372417"><ele>595.0</ele><time>2026-04-26T12:35:46.728Z</time></trkpt><trkpt lat="42.9765067" lon="2.637375"><ele>595.0</ele><time>2026-04-26T12:35:47.73Z</time></trkpt><trkpt lat="42.9765" lon="2.637515"><ele>595.0</ele><time>2026-04-26T12:35:48.731Z</time></trkpt><trkpt lat="42.9765033" lon="2.6376633"><ele>595.0</ele><time>2026-04-26T12:35:49.729Z</time></trkpt><trkpt lat="42.9765017" lon="2.6378133"><ele>595.75</ele><time>2026-04-26T12:35:50.728Z</time></trkpt><trkpt lat="42.9765017" lon="2.6379717"><ele>596.5</ele><time>2026-04-26T12:35:51.729Z</time></trkpt><trkpt lat="42.9764983" lon="2.6381333"><ele>597.25</ele><time>2026-04-26T12:35:52.729Z</time></trkpt><trkpt lat="42.9765017" lon="2.6383033"><ele>598.0</ele><time>2026-04-26T12:35:53.732Z</time></trkpt><trkpt lat="42.9765067" lon="2.6384633"><ele>598.0</ele><time>2026-04-26T12:35:54.731Z</time></trkpt><trkpt lat="42.97651" lon="2.6386233"><ele>598.0</ele><time>2026-04-26T12:35:55.729Z</time></trkpt><trkpt lat="42.9765017" lon="2.6387667"><ele>598.0</ele><time>2026-04-26T12:35:56.729Z</time></trkpt><trkpt lat="42.9764833" lon="2.638895"><ele>598.0</ele><time>2026-04-26T12:35:57.728Z</time></trkpt><trkpt lat="42.97648" lon="2.6390217"><ele>598.0</ele><time>2026-04-26T12:35:58.729Z</time></trkpt><trkpt lat="42.97649" lon="2.6391517"><ele>597.6666666666667</ele><time>2026-04-26T12:35:59.729Z</time></trkpt><trkpt lat="42.976505" lon="2.639265"><ele>597.3333333333334</ele><time>2026-04-26T12:36:00.734Z</time></trkpt><trkpt lat="42.976525" lon="2.6393783"><ele>597.0</ele><time>2026-04-26T12:36:01.73Z</time></trkpt><trkpt lat="42.976545" lon="2.639475"><ele>596.6666666666666</ele><time>2026-04-26T12:36:02.731Z</time></trkpt><trkpt lat="42.976565" lon="2.6395633"><ele>596.3333333333333</ele><time>2026-04-26T12:36:03.729Z</time></trkpt><trkpt lat="42.9765883" lon="2.63965"><ele>596.0</ele><time>2026-04-26T12:36:04.734Z</time></trkpt><trkpt lat="42.9766383" lon="2.6397683"><ele>594.3333333333333</ele><time>2026-04-26T12:36:06.73Z</time></trkpt><trkpt lat="42.97672" lon="2.6398817"><ele>592.6666666666666</ele><time>2026-04-26T12:36:08.728Z</time></trkpt><trkpt lat="42.9767817" lon="2.6399417"><ele>591.0</ele><time>2026-04-26T12:36:09.727Z</time></trkpt><trkpt lat="42.9768483" lon="2.6399983"><ele>589.3333333333334</ele><time>2026-04-26T12:36:10.735Z</time></trkpt><trkpt lat="42.9769167" lon="2.640045"><ele>587.6666666666667</ele><time>2026-04-26T12:36:11.727Z</time></trkpt><trkpt lat="42.9769917" lon="2.6400717"><ele>586.0</ele><time>2026-04-26T12:36:12.727Z</time></trkpt><trkpt lat="42.9770767" lon="2.64009"><ele>586.0</ele><time>2026-04-26T12:36:13.729Z</time></trkpt><trkpt lat="42.9771717" lon="2.6401167"><ele>586.0</ele><time>2026-04-26T12:36:14.729Z</time></trkpt><trkpt lat="42.9772817" lon="2.640165"><ele>586.0</ele><time>2026-04-26T12:36:15.727Z</time></trkpt><trkpt lat="42.977385" lon="2.6402333"><ele>586.0</ele><time>2026-04-26T12:36:16.727Z</time></trkpt><trkpt lat="42.977485" lon="2.6403167"><ele>586.0</ele><time>2026-04-26T12:36:17.731Z</time></trkpt><trkpt lat="42.9775667" lon="2.6404083"><ele>584.6666666666667</ele><time>2026-04-26T12:36:18.731Z</time></trkpt><trkpt lat="42.97764" lon="2.6405"><ele>583.3333333333334</ele><time>2026-04-26T12:36:19.729Z</time></trkpt><trkpt lat="42.9777" lon="2.64059"><ele>582.0</ele><time>2026-04-26T12:36:20.731Z</time></trkpt><trkpt lat="42.97775" lon="2.6406767"><ele>580.6666666666666</ele><time>2026-04-26T12:36:21.729Z</time></trkpt><trkpt lat="42.9778083" lon="2.6407433"><ele>579.3333333333333</ele><time>2026-04-26T12:36:22.73Z</time></trkpt><trkpt lat="42.977885" lon="2.64078"><ele>578.0</ele><time>2026-04-26T12:36:23.73Z</time></trkpt><trkpt lat="42.97797" lon="2.6408017"><ele>578.0</ele><time>2026-04-26T12:36:24.728Z</time></trkpt><trkpt lat="42.9780683" lon="2.640815"><ele>578.0</ele><time>2026-04-26T12:36:25.729Z</time></trkpt><trkpt lat="42.9781567" lon="2.640845"><ele>578.0</ele><time>2026-04-26T12:36:26.729Z</time></trkpt><trkpt lat="42.9782467" lon="2.6409017"><ele>578.0</ele><time>2026-04-26T12:36:27.73Z</time></trkpt><trkpt lat="42.97833" lon="2.64098"><ele>578.0</ele><time>2026-04-26T12:36:28.728Z</time></trkpt><trkpt lat="42.978405" lon="2.6410633"><ele>576.3333333333333</ele><time>2026-04-26T12:36:29.728Z</time></trkpt><trkpt lat="42.9784817" lon="2.641135"><ele>574.6666666666666</ele><time>2026-04-26T12:36:30.729Z</time></trkpt><trkpt lat="42.9785583" lon="2.6411867"><ele>573.0</ele><time>2026-04-26T12:36:31.729Z</time></trkpt><trkpt lat="42.9786417" lon="2.641205"><ele>571.3333333333334</ele><time>2026-04-26T12:36:32.73Z</time></trkpt><trkpt lat="42.9787217" lon="2.6411883"><ele>569.6666666666667</ele><time>2026-04-26T12:36:33.727Z</time></trkpt><trkpt lat="42.9787867" lon="2.6411817"><ele>568.0</ele><time>2026-04-26T12:36:34.727Z</time></trkpt><trkpt lat="42.978885" lon="2.641225"><ele>568.0</ele><time>2026-04-26T12:36:36.733Z</time></trkpt><trkpt lat="42.9789" lon="2.641335"><ele>568.0</ele><time>2026-04-26T12:36:38.731Z</time></trkpt><trkpt lat="42.9788483" lon="2.6414933"><ele>568.0</ele><time>2026-04-26T12:36:40.727Z</time></trkpt><trkpt lat="42.9788217" lon="2.64159"><ele>568.0</ele><time>2026-04-26T12:36:41.728Z</time></trkpt><trkpt lat="42.97882" lon="2.641695"><ele>568.0</ele><time>2026-04-26T12:36:42.729Z</time></trkpt><trkpt lat="42.9788283" lon="2.6418033"><ele>568.0</ele><time>2026-04-26T12:36:43.729Z</time></trkpt><trkpt lat="42.97885" lon="2.64191"><ele>567.1428571428571</ele><time>2026-04-26T12:36:44.728Z</time></trkpt><trkpt lat="42.9788783" lon="2.642"><ele>566.2857142857142</ele><time>2026-04-26T12:36:45.728Z</time></trkpt><trkpt lat="42.9789183" lon="2.642075"><ele>565.4285714285714</ele><time>2026-04-26T12:36:46.728Z</time></trkpt><trkpt lat="42.9789617" lon="2.64214"><ele>564.5714285714286</ele><time>2026-04-26T12:36:47.729Z</time></trkpt><trkpt lat="42.979025" lon="2.6421983"><ele>563.7142857142858</ele><time>2026-04-26T12:36:48.728Z</time></trkpt><trkpt lat="42.9790917" lon="2.6422467"><ele>562.8571428571429</ele><time>2026-04-26T12:36:49.729Z</time></trkpt><trkpt lat="42.9791717" lon="2.6422783"><ele>562.0</ele><time>2026-04-26T12:36:50.729Z</time></trkpt><trkpt lat="42.9792617" lon="2.6422817"><ele>562.0</ele><time>2026-04-26T12:36:51.731Z</time></trkpt><trkpt lat="42.97936" lon="2.6422517"><ele>562.0</ele><time>2026-04-26T12:36:52.729Z</time></trkpt><trkpt lat="42.9794433" lon="2.6421767"><ele>562.0</ele><time>2026-04-26T12:36:53.728Z</time></trkpt><trkpt lat="42.97953" lon="2.6420767"><ele>562.0</ele><time>2026-04-26T12:36:54.729Z</time></trkpt><trkpt lat="42.9796117" lon="2.6419817"><ele>562.0</ele><time>2026-04-26T12:36:55.728Z</time></trkpt><trkpt lat="42.9796833" lon="2.641885"><ele>563.0</ele><time>2026-04-26T12:36:56.729Z</time></trkpt><trkpt lat="42.9797233" lon="2.6417883"><ele>564.0</ele><time>2026-04-26T12:36:57.728Z</time></trkpt><trkpt lat="42.9797533" lon="2.641675"><ele>565.0</ele><time>2026-04-26T12:36:58.73Z</time></trkpt><trkpt lat="42.97975" lon="2.6415417"><ele>566.0</ele><time>2026-04-26T12:36:59.729Z</time></trkpt><trkpt lat="42.9797267" lon="2.6413983"><ele>567.0</ele><time>2026-04-26T12:37:00.728Z</time></trkpt><trkpt lat="42.97971" lon="2.6412683"><ele>567.0</ele><time>2026-04-26T12:37:01.729Z</time></trkpt><trkpt lat="42.9796933" lon="2.6411483"><ele>567.0</ele><time>2026-04-26T12:37:02.729Z</time></trkpt><trkpt lat="42.9796733" lon="2.6410417"><ele>567.0</ele><time>2026-04-26T12:37:03.73Z</time></trkpt><trkpt lat="42.97965" lon="2.6409533"><ele>567.0</ele><time>2026-04-26T12:37:04.729Z</time></trkpt><trkpt lat="42.97963" lon="2.6408683"><ele>567.0</ele><time>2026-04-26T12:37:05.728Z</time></trkpt><trkpt lat="42.97964" lon="2.64076"><ele>567.0</ele><time>2026-04-26T12:37:07.73Z</time></trkpt><trkpt lat="42.9797217" lon="2.6407233"><ele>566.1666666666666</ele><time>2026-04-26T12:37:09.73Z</time></trkpt><trkpt lat="42.9797883" lon="2.6407183"><ele>565.3333333333334</ele><time>2026-04-26T12:37:10.732Z</time></trkpt><trkpt lat="42.9798517" lon="2.640695"><ele>564.5</ele><time>2026-04-26T12:37:11.727Z</time></trkpt><trkpt lat="42.97991" lon="2.6406417"><ele>563.6666666666667</ele><time>2026-04-26T12:37:12.728Z</time></trkpt><trkpt lat="42.9799617" lon="2.6405533"><ele>562.8333333333334</ele><time>2026-04-26T12:37:13.729Z</time></trkpt><trkpt lat="42.9800017" lon="2.6404217"><ele>562.0</ele><time>2026-04-26T12:37:14.729Z</time></trkpt><trkpt lat="42.9800533" lon="2.6402767"><ele>565.0</ele><time>2026-04-26T12:37:15.727Z</time></trkpt><trkpt lat="42.9801167" lon="2.6401217"><ele>568.0</ele><time>2026-04-26T12:37:16.728Z</time></trkpt><trkpt lat="42.98019" lon="2.6399633"><ele>571.0</ele><time>2026-04-26T12:37:17.731Z</time></trkpt><trkpt lat="42.9802783" lon="2.6398217"><ele>574.0</ele><time>2026-04-26T12:37:18.732Z</time></trkpt><trkpt lat="42.9803817" lon="2.6396917"><ele>574.0</ele><time>2026-04-26T12:37:19.729Z</time></trkpt><trkpt lat="42.980505" lon="2.63958"><ele>574.0</ele><time>2026-04-26T12:37:20.733Z</time></trkpt><trkpt lat="42.9806367" lon="2.6394683"><ele>574.0</ele><time>2026-04-26T12:37:21.73Z</time></trkpt><trkpt lat="42.98078" lon="2.6393617"><ele>573.3333333333334</ele><time>2026-04-26T12:37:22.729Z</time></trkpt><trkpt lat="42.9809267" lon="2.63925"><ele>572.6666666666666</ele><time>2026-04-26T12:37:23.73Z</time></trkpt><trkpt lat="42.981065" lon="2.639135"><ele>572.0</ele><time>2026-04-26T12:37:24.731Z</time></trkpt><trkpt lat="42.981195" lon="2.6390067"><ele>572.0</ele><time>2026-04-26T12:37:25.728Z</time></trkpt><trkpt lat="42.981315" lon="2.638885"><ele>572.0</ele><time>2026-04-26T12:37:26.731Z</time></trkpt><trkpt lat="42.981425" lon="2.6387817"><ele>572.0</ele><time>2026-04-26T12:37:27.73Z</time></trkpt><trkpt lat="42.981525" lon="2.63872"><ele>572.0</ele><time>2026-04-26T12:37:28.733Z</time></trkpt><trkpt lat="42.9816267" lon="2.6386817"><ele>571.6</ele><time>2026-04-26T12:37:29.728Z</time></trkpt><trkpt lat="42.9817217" lon="2.638675"><ele>571.2</ele><time>2026-04-26T12:37:30.729Z</time></trkpt><trkpt lat="42.9818067" lon="2.6386867"><ele>570.8</ele><time>2026-04-26T12:37:31.73Z</time></trkpt><trkpt lat="42.981885" lon="2.6387683"><ele>570.4</ele><time>2026-04-26T12:37:32.732Z</time></trkpt><trkpt lat="42.9819567" lon="2.6388733"><ele>570.0</ele><time>2026-04-26T12:37:33.729Z</time></trkpt><trkpt lat="42.9820283" lon="2.6389983"><ele>570.0</ele><time>2026-04-26T12:37:34.73Z</time></trkpt><trkpt lat="42.9820967" lon="2.63914"><ele>570.0</ele><time>2026-04-26T12:37:35.73Z</time></trkpt><trkpt lat="42.9821683" lon="2.6392767"><ele>570.0</ele><time>2026-04-26T12:37:36.733Z</time></trkpt><trkpt lat="42.9822383" lon="2.6393983"><ele>570.0</ele><time>2026-04-26T12:37:37.729Z</time></trkpt><trkpt lat="42.98231" lon="2.6395017"><ele>572.0</ele><time>2026-04-26T12:37:38.737Z</time></trkpt><trkpt lat="42.98239" lon="2.6395767"><ele>574.0</ele><time>2026-04-26T12:37:39.73Z</time></trkpt><trkpt lat="42.982475" lon="2.6396067"><ele>576.0</ele><time>2026-04-26T12:37:40.729Z</time></trkpt><trkpt lat="42.98257" lon="2.6395983"><ele>578.0</ele><time>2026-04-26T12:37:41.728Z</time></trkpt><trkpt lat="42.9826833" lon="2.639535"><ele>580.0</ele><time>2026-04-26T12:37:42.73Z</time></trkpt><trkpt lat="42.9827967" lon="2.6394817"><ele>580.2</ele><time>2026-04-26T12:37:43.73Z</time></trkpt><trkpt lat="42.98291" lon="2.6394467"><ele>580.4</ele><time>2026-04-26T12:37:44.729Z</time></trkpt><trkpt lat="42.98302" lon="2.6394567"><ele>580.6</ele><time>2026-04-26T12:37:45.728Z</time></trkpt><trkpt lat="42.9831167" lon="2.6395017"><ele>580.8</ele><time>2026-04-26T12:37:46.728Z</time></trkpt><trkpt lat="42.9831983" lon="2.6395833"><ele>581.0</ele><time>2026-04-26T12:37:47.73Z</time></trkpt><trkpt lat="42.9832667" lon="2.6396967"><ele>581.0</ele><time>2026-04-26T12:37:48.73Z</time></trkpt><trkpt lat="42.9833217" lon="2.6398417"><ele>581.0</ele><time>2026-04-26T12:37:49.728Z</time></trkpt><trkpt lat="42.9833667" lon="2.6400067"><ele>581.0</ele><time>2026-04-26T12:37:50.731Z</time></trkpt><trkpt lat="42.9834233" lon="2.6401717"><ele>581.0</ele><time>2026-04-26T12:37:51.728Z</time></trkpt><trkpt lat="42.9834967" lon="2.6403317"><ele>580.5</ele><time>2026-04-26T12:37:52.73Z</time></trkpt><trkpt lat="42.9835883" lon="2.6404817"><ele>580.0</ele><time>2026-04-26T12:37:53.728Z</time></trkpt><trkpt lat="42.9836883" lon="2.6406283"><ele>579.5</ele><time>2026-04-26T12:37:54.731Z</time></trkpt><trkpt lat="42.9837933" lon="2.640775"><ele>579.0</ele><time>2026-04-26T12:37:55.728Z</time></trkpt><trkpt lat="42.9839017" lon="2.64092"><ele>579.0</ele><time>2026-04-26T12:37:56.73Z</time></trkpt><trkpt lat="42.9840183" lon="2.6410533"><ele>579.0</ele><time>2026-04-26T12:37:57.727Z</time></trkpt><trkpt lat="42.9841367" lon="2.6411717"><ele>579.0</ele><time>2026-04-26T12:37:58.732Z</time></trkpt><trkpt lat="42.9842567" lon="2.64129"><ele>579.0</ele><time>2026-04-26T12:37:59.73Z</time></trkpt><trkpt lat="42.984365" lon="2.64142"><ele>582.0</ele><time>2026-04-26T12:38:00.73Z</time></trkpt><trkpt lat="42.9844717" lon="2.6415417"><ele>585.0</ele><time>2026-04-26T12:38:01.731Z</time></trkpt><trkpt lat="42.984575" lon="2.6416583"><ele>588.0</ele><time>2026-04-26T12:38:02.73Z</time></trkpt><trkpt lat="42.984675" lon="2.641765"><ele>591.0</ele><time>2026-04-26T12:38:03.729Z</time></trkpt><trkpt lat="42.9847783" lon="2.64184"><ele>591.0</ele><time>2026-04-26T12:38:04.729Z</time></trkpt><trkpt lat="42.98489" lon="2.6418783"><ele>591.0</ele><time>2026-04-26T12:38:05.728Z</time></trkpt><trkpt lat="42.9850083" lon="2.6418883"><ele>591.0</ele><time>2026-04-26T12:38:06.729Z</time></trkpt><trkpt lat="42.98513" lon="2.6418833"><ele>591.0</ele><time>2026-04-26T12:38:07.73Z</time></trkpt><trkpt lat="42.98525" lon="2.6418567"><ele>590.25</ele><time>2026-04-26T12:38:08.73Z</time></trkpt><trkpt lat="42.985365" lon="2.6418067"><ele>589.5</ele><time>2026-04-26T12:38:09.727Z</time></trkpt><trkpt lat="42.98548" lon="2.6417433"><ele>588.75</ele><time>2026-04-26T12:38:10.731Z</time></trkpt><trkpt lat="42.9855967" lon="2.64169"><ele>588.0</ele><time>2026-04-26T12:38:11.729Z</time></trkpt><trkpt lat="42.985715" lon="2.64166"><ele>588.0</ele><time>2026-04-26T12:38:12.729Z</time></trkpt><trkpt lat="42.9858283" lon="2.6416683"><ele>588.0</ele><time>2026-04-26T12:38:13.729Z</time></trkpt><trkpt lat="42.985935" lon="2.6417117"><ele>588.0</ele><time>2026-04-26T12:38:14.731Z</time></trkpt><trkpt lat="42.9860383" lon="2.641785"><ele>588.0</ele><time>2026-04-26T12:38:15.728Z</time></trkpt><trkpt lat="42.9861367" lon="2.6418883"><ele>587.5</ele><time>2026-04-26T12:38:16.728Z</time></trkpt><trkpt lat="42.9862267" lon="2.64202"><ele>587.0</ele><time>2026-04-26T12:38:17.729Z</time></trkpt><trkpt lat="42.98631" lon="2.642165"><ele>586.5</ele><time>2026-04-26T12:38:18.735Z</time></trkpt><trkpt lat="42.9863867" lon="2.6423083"><ele>586.0</ele><time>2026-04-26T12:38:19.73Z</time></trkpt><trkpt lat="42.986465" lon="2.6424317"><ele>586.0</ele><time>2026-04-26T12:38:20.729Z</time></trkpt><trkpt lat="42.98656" lon="2.642535"><ele>586.0</ele><time>2026-04-26T12:38:21.727Z</time></trkpt><trkpt lat="42.9866683" lon="2.642625"><ele>586.0</ele><time>2026-04-26T12:38:22.731Z</time></trkpt><trkpt lat="42.986785" lon="2.6426983"><ele>586.0</ele><time>2026-04-26T12:38:23.727Z</time></trkpt><trkpt lat="42.9869133" lon="2.642745"><ele>583.25</ele><time>2026-04-26T12:38:24.729Z</time></trkpt><trkpt lat="42.9870467" lon="2.6427717"><ele>580.5</ele><time>2026-04-26T12:38:25.728Z</time></trkpt><trkpt lat="42.987185" lon="2.6427867"><ele>577.75</ele><time>2026-04-26T12:38:26.729Z</time></trkpt><trkpt lat="42.987315" lon="2.6427933"><ele>575.0</ele><time>2026-04-26T12:38:27.728Z</time></trkpt><trkpt lat="42.9874483" lon="2.6427733"><ele>571.8</ele><time>2026-04-26T12:38:28.728Z</time></trkpt><trkpt lat="42.9875667" lon="2.6427483"><ele>568.6</ele><time>2026-04-26T12:38:29.728Z</time></trkpt><trkpt lat="42.9876767" lon="2.64273"><ele>565.4</ele><time>2026-04-26T12:38:30.733Z</time></trkpt><trkpt lat="42.98778" lon="2.6427267"><ele>562.2</ele><time>2026-04-26T12:38:31.729Z</time></trkpt><trkpt lat="42.9878767" lon="2.64274"><ele>559.0</ele><time>2026-04-26T12:38:32.732Z</time></trkpt><trkpt lat="42.9879733" lon="2.6427767"><ele>562.0</ele><time>2026-04-26T12:38:33.728Z</time></trkpt><trkpt lat="42.988065" lon="2.642855"><ele>565.0</ele><time>2026-04-26T12:38:34.73Z</time></trkpt><trkpt lat="42.9881483" lon="2.6429583"><ele>568.0</ele><time>2026-04-26T12:38:35.728Z</time></trkpt><trkpt lat="42.9882317" lon="2.643075"><ele>571.0</ele><time>2026-04-26T12:38:36.729Z</time></trkpt><trkpt lat="42.9883" lon="2.6432017"><ele>564.0</ele><time>2026-04-26T12:38:37.73Z</time></trkpt><trkpt lat="42.9883483" lon="2.6433417"><ele>557.0</ele><time>2026-04-26T12:38:38.731Z</time></trkpt><trkpt lat="42.988375" lon="2.64349"><ele>550.0</ele><time>2026-04-26T12:38:39.729Z</time></trkpt><trkpt lat="42.988385" lon="2.6436467"><ele>543.0</ele><time>2026-04-26T12:38:40.729Z</time></trkpt><trkpt lat="42.9883833" lon="2.64381"><ele>543.0</ele><time>2026-04-26T12:38:41.728Z</time></trkpt><trkpt lat="42.988365" lon="2.64398"><ele>543.0</ele><time>2026-04-26T12:38:42.729Z</time></trkpt><trkpt lat="42.9883367" lon="2.6441517"><ele>543.0</ele><time>2026-04-26T12:38:43.728Z</time></trkpt><trkpt lat="42.9883" lon="2.6443133"><ele>543.0</ele><time>2026-04-26T12:38:44.729Z</time></trkpt><trkpt lat="42.9882633" lon="2.6444667"><ele>548.75</ele><time>2026-04-26T12:38:45.727Z</time></trkpt><trkpt lat="42.9882367" lon="2.64461"><ele>554.5</ele><time>2026-04-26T12:38:46.728Z</time></trkpt><trkpt lat="42.9882317" lon="2.6447567"><ele>560.25</ele><time>2026-04-26T12:38:47.731Z</time></trkpt><trkpt lat="42.9882483" lon="2.6449117"><ele>566.0</ele><time>2026-04-26T12:38:48.73Z</time></trkpt><trkpt lat="42.9882967" lon="2.6450717"><ele>561.0</ele><time>2026-04-26T12:38:49.728Z</time></trkpt><trkpt lat="42.9883583" lon="2.645235"><ele>556.0</ele><time>2026-04-26T12:38:50.729Z</time></trkpt><trkpt lat="42.9884283" lon="2.6454017"><ele>551.0</ele><time>2026-04-26T12:38:51.727Z</time></trkpt><trkpt lat="42.9885017" lon="2.64557"><ele>546.0</ele><time>2026-04-26T12:38:52.729Z</time></trkpt><trkpt lat="42.988565" lon="2.6457383"><ele>546.0</ele><time>2026-04-26T12:38:53.727Z</time></trkpt><trkpt lat="42.98861" lon="2.64591"><ele>546.0</ele><time>2026-04-26T12:38:54.727Z</time></trkpt><trkpt lat="42.988645" lon="2.646075"><ele>546.0</ele><time>2026-04-26T12:38:55.728Z</time></trkpt><trkpt lat="42.9886717" lon="2.6462283"><ele>546.0</ele><time>2026-04-26T12:38:56.73Z</time></trkpt><trkpt lat="42.9886917" lon="2.6463633"><ele>547.1666666666666</ele><time>2026-04-26T12:38:57.727Z</time></trkpt><trkpt lat="42.9887183" lon="2.646485"><ele>548.3333333333334</ele><time>2026-04-26T12:38:58.728Z</time></trkpt><trkpt lat="42.988755" lon="2.6465867"><ele>549.5</ele><time>2026-04-26T12:38:59.729Z</time></trkpt><trkpt lat="42.9887967" lon="2.6466583"><ele>550.6666666666667</ele><time>2026-04-26T12:39:00.731Z</time></trkpt><trkpt lat="42.9888483" lon="2.6467117"><ele>551.8333333333334</ele><time>2026-04-26T12:39:01.73Z</time></trkpt><trkpt lat="42.9889167" lon="2.6467467"><ele>553.0</ele><time>2026-04-26T12:39:02.732Z</time></trkpt><trkpt lat="42.988995" lon="2.6467733"><ele>553.0</ele><time>2026-04-26T12:39:03.731Z</time></trkpt><trkpt lat="42.9890983" lon="2.6467767"><ele>553.0</ele><time>2026-04-26T12:39:04.729Z</time></trkpt><trkpt lat="42.9892183" lon="2.6467817"><ele>553.0</ele><time>2026-04-26T12:39:05.73Z</time></trkpt><trkpt lat="42.9893467" lon="2.646785"><ele>553.0</ele><time>2026-04-26T12:39:06.731Z</time></trkpt><trkpt lat="42.9894717" lon="2.6467883"><ele>552.5</ele><time>2026-04-26T12:39:07.73Z</time></trkpt><trkpt lat="42.9895933" lon="2.64678"><ele>552.0</ele><time>2026-04-26T12:39:08.729Z</time></trkpt><trkpt lat="42.989715" lon="2.646765"><ele>551.5</ele><time>2026-04-26T12:39:09.73Z</time></trkpt><trkpt lat="42.989845" lon="2.64674"><ele>551.0</ele><time>2026-04-26T12:39:10.73Z</time></trkpt><trkpt lat="42.9899733" lon="2.6467283"><ele>550.75</ele><time>2026-04-26T12:39:11.729Z</time></trkpt><trkpt lat="42.9900967" lon="2.646735"><ele>550.5</ele><time>2026-04-26T12:39:12.729Z</time></trkpt><trkpt lat="42.9902167" lon="2.6467483"><ele>550.25</ele><time>2026-04-26T12:39:13.73Z</time></trkpt><trkpt lat="42.9903383" lon="2.6467433"><ele>550.0</ele><time>2026-04-26T12:39:14.729Z</time></trkpt><trkpt lat="42.99046" lon="2.64671"><ele>550.0</ele><time>2026-04-26T12:39:15.731Z</time></trkpt><trkpt lat="42.9905817" lon="2.6466567"><ele>550.0</ele><time>2026-04-26T12:39:16.728Z</time></trkpt><trkpt lat="42.9907067" lon="2.64658"><ele>550.0</ele><time>2026-04-26T12:39:17.729Z</time></trkpt><trkpt lat="42.9908283" lon="2.6464933"><ele>550.0</ele><time>2026-04-26T12:39:18.729Z</time></trkpt><trkpt lat="42.99094" lon="2.6464267"><ele>547.8</ele><time>2026-04-26T12:39:19.729Z</time></trkpt><trkpt lat="42.9910433" lon="2.6463767"><ele>545.6</ele><time>2026-04-26T12:39:20.729Z</time></trkpt><trkpt lat="42.991135" lon="2.6463417"><ele>543.4</ele><time>2026-04-26T12:39:21.731Z</time></trkpt><trkpt lat="42.9912183" lon="2.6463267"><ele>541.2</ele><time>2026-04-26T12:39:22.729Z</time></trkpt><trkpt lat="42.9913067" lon="2.64634"><ele>539.0</ele><time>2026-04-26T12:39:23.729Z</time></trkpt><trkpt lat="42.9913833" lon="2.6463917"><ele>539.0</ele><time>2026-04-26T12:39:24.73Z</time></trkpt><trkpt lat="42.9914567" lon="2.6464817"><ele>539.0</ele><time>2026-04-26T12:39:25.73Z</time></trkpt><trkpt lat="42.9915267" lon="2.6465983"><ele>539.0</ele><time>2026-04-26T12:39:26.729Z</time></trkpt><trkpt lat="42.9915933" lon="2.6467183"><ele>539.0</ele><time>2026-04-26T12:39:27.729Z</time></trkpt><trkpt lat="42.9916617" lon="2.6468317"><ele>539.0</ele><time>2026-04-26T12:39:28.729Z</time></trkpt><trkpt lat="42.99173" lon="2.646935"><ele>539.4</ele><time>2026-04-26T12:39:29.729Z</time></trkpt><trkpt lat="42.9918017" lon="2.6470217"><ele>539.8</ele><time>2026-04-26T12:39:30.728Z</time></trkpt><trkpt lat="42.9918783" lon="2.6470783"><ele>540.2</ele><time>2026-04-26T12:39:31.729Z</time></trkpt><trkpt lat="42.99196" lon="2.64711"><ele>540.6</ele><time>2026-04-26T12:39:32.731Z</time></trkpt><trkpt lat="42.9920517" lon="2.6471083"><ele>541.0</ele><time>2026-04-26T12:39:33.728Z</time></trkpt><trkpt lat="42.99216" lon="2.64707"><ele>541.0</ele><time>2026-04-26T12:39:34.728Z</time></trkpt><trkpt lat="42.9922717" lon="2.6470267"><ele>541.0</ele><time>2026-04-26T12:39:35.73Z</time></trkpt><trkpt lat="42.9923767" lon="2.6469983"><ele>541.0</ele><time>2026-04-26T12:39:36.728Z</time></trkpt><trkpt lat="42.992475" lon="2.6469883"><ele>541.0</ele><time>2026-04-26T12:39:37.728Z</time></trkpt><trkpt lat="42.9925633" lon="2.6469967"><ele>541.0</ele><time>2026-04-26T12:39:38.729Z</time></trkpt><trkpt lat="42.992645" lon="2.6470317"><ele>534.2</ele><time>2026-04-26T12:39:39.73Z</time></trkpt><trkpt lat="42.9927067" lon="2.647095"><ele>527.4000000000001</ele><time>2026-04-26T12:39:40.728Z</time></trkpt><trkpt lat="42.9927433" lon="2.6471833"><ele>520.6</ele><time>2026-04-26T12:39:41.729Z</time></trkpt><trkpt lat="42.992765" lon="2.6473"><ele>513.8000000000001</ele><time>2026-04-26T12:39:42.729Z</time></trkpt><trkpt lat="42.9927833" lon="2.6474483"><ele>507.0</ele><time>2026-04-26T12:39:43.728Z</time></trkpt><trkpt lat="42.99281" lon="2.6476"><ele>507.0</ele><time>2026-04-26T12:39:44.733Z</time></trkpt><trkpt lat="42.992845" lon="2.64775"><ele>507.0</ele><time>2026-04-26T12:39:45.728Z</time></trkpt><trkpt lat="42.9928883" lon="2.6478933"><ele>507.0</ele><time>2026-04-26T12:39:46.729Z</time></trkpt><trkpt lat="42.9929483" lon="2.6480217"><ele>507.0</ele><time>2026-04-26T12:39:47.728Z</time></trkpt><trkpt lat="42.993035" lon="2.64814"><ele>509.0</ele><time>2026-04-26T12:39:48.73Z</time></trkpt><trkpt lat="42.9931433" lon="2.648245"><ele>511.0</ele><time>2026-04-26T12:39:49.729Z</time></trkpt><trkpt lat="42.99326" lon="2.648335"><ele>513.0</ele><time>2026-04-26T12:39:50.73Z</time></trkpt><trkpt lat="42.9933733" lon="2.6484183"><ele>515.0</ele><time>2026-04-26T12:39:51.729Z</time></trkpt><trkpt lat="42.9934817" lon="2.6485033"><ele>515.0</ele><time>2026-04-26T12:39:52.729Z</time></trkpt><trkpt lat="42.99359" lon="2.6485683"><ele>515.0</ele><time>2026-04-26T12:39:53.734Z</time></trkpt><trkpt lat="42.9937017" lon="2.6485967"><ele>515.0</ele><time>2026-04-26T12:39:54.731Z</time></trkpt><trkpt lat="42.993815" lon="2.6485833"><ele>515.0</ele><time>2026-04-26T12:39:55.729Z</time></trkpt><trkpt lat="42.9939283" lon="2.6485367"><ele>515.0</ele><time>2026-04-26T12:39:56.73Z</time></trkpt><trkpt lat="42.9940417" lon="2.6484867"><ele>515.0</ele><time>2026-04-26T12:39:57.73Z</time></trkpt><trkpt lat="42.9941533" lon="2.6484533"><ele>515.0</ele><time>2026-04-26T12:39:58.728Z</time></trkpt><trkpt lat="42.994265" lon="2.6484367"><ele>515.0</ele><time>2026-04-26T12:39:59.729Z</time></trkpt><trkpt lat="42.9943717" lon="2.64843"><ele>513.0</ele><time>2026-04-26T12:40:00.729Z</time></trkpt><trkpt lat="42.99447" lon="2.64846"><ele>511.0</ele><time>2026-04-26T12:40:01.728Z</time></trkpt><trkpt lat="42.9945733" lon="2.648515"><ele>509.0</ele><time>2026-04-26T12:40:02.729Z</time></trkpt><trkpt lat="42.99468" lon="2.6485817"><ele>507.0</ele><time>2026-04-26T12:40:03.728Z</time></trkpt><trkpt lat="42.994795" lon="2.6486433"><ele>504.75</ele><time>2026-04-26T12:40:04.729Z</time></trkpt><trkpt lat="42.99492" lon="2.6486833"><ele>502.5</ele><time>2026-04-26T12:40:05.73Z</time></trkpt><trkpt lat="42.995045" lon="2.6487083"><ele>500.25</ele><time>2026-04-26T12:40:06.728Z</time></trkpt><trkpt lat="42.9951717" lon="2.648735"><ele>498.0</ele><time>2026-04-26T12:40:07.729Z</time></trkpt><trkpt lat="42.9952933" lon="2.648765"><ele>498.0</ele><time>2026-04-26T12:40:08.731Z</time></trkpt><trkpt lat="42.9953917" lon="2.6488167"><ele>497.99999999999994</ele><time>2026-04-26T12:40:09.728Z</time></trkpt><trkpt lat="42.9954733" lon="2.6488933"><ele>497.99999999999994</ele><time>2026-04-26T12:40:10.728Z</time></trkpt><trkpt lat="42.995545" lon="2.64899"><ele>498.0</ele><time>2026-04-26T12:40:11.733Z</time></trkpt><trkpt lat="42.995605" lon="2.6491083"><ele>498.0</ele><time>2026-04-26T12:40:12.731Z</time></trkpt><trkpt lat="42.9956467" lon="2.6492367"><ele>498.0</ele><time>2026-04-26T12:40:13.73Z</time></trkpt><trkpt lat="42.9956717" lon="2.649365"><ele>498.0</ele><time>2026-04-26T12:40:14.73Z</time></trkpt><trkpt lat="42.9956767" lon="2.649485"><ele>498.0</ele><time>2026-04-26T12:40:15.728Z</time></trkpt><trkpt lat="42.9956617" lon="2.649595"><ele>498.0</ele><time>2026-04-26T12:40:16.73Z</time></trkpt><trkpt lat="42.9956217" lon="2.6496933"><ele>498.0</ele><time>2026-04-26T12:40:17.728Z</time></trkpt><trkpt lat="42.995555" lon="2.64978"><ele>498.0</ele><time>2026-04-26T12:40:18.731Z</time></trkpt><trkpt lat="42.9954667" lon="2.6498583"><ele>496.0</ele><time>2026-04-26T12:40:19.728Z</time></trkpt><trkpt lat="42.9953783" lon="2.64995"><ele>494.0</ele><time>2026-04-26T12:40:20.73Z</time></trkpt><trkpt lat="42.99529" lon="2.6500533"><ele>492.0</ele><time>2026-04-26T12:40:21.731Z</time></trkpt><trkpt lat="42.99521" lon="2.6501567"><ele>490.0</ele><time>2026-04-26T12:40:22.73Z</time></trkpt><trkpt lat="42.9951367" lon="2.650275"><ele>493.0</ele><time>2026-04-26T12:40:23.729Z</time></trkpt><trkpt lat="42.9950733" lon="2.6504083"><ele>496.0</ele><time>2026-04-26T12:40:24.732Z</time></trkpt><trkpt lat="42.9950217" lon="2.6505433"><ele>499.0</ele><time>2026-04-26T12:40:25.728Z</time></trkpt><trkpt lat="42.9949783" lon="2.6506783"><ele>502.0</ele><time>2026-04-26T12:40:26.731Z</time></trkpt><trkpt lat="42.994955" lon="2.6508283"><ele>505.0</ele><time>2026-04-26T12:40:27.729Z</time></trkpt><trkpt lat="42.9949567" lon="2.6509633"><ele>505.0</ele><time>2026-04-26T12:40:28.73Z</time></trkpt><trkpt lat="42.994975" lon="2.6511083"><ele>505.0</ele><time>2026-04-26T12:40:29.728Z</time></trkpt><trkpt lat="42.9950133" lon="2.6512583"><ele>505.0</ele><time>2026-04-26T12:40:30.728Z</time></trkpt><trkpt lat="42.99507" lon="2.6514233"><ele>505.0</ele><time>2026-04-26T12:40:31.729Z</time></trkpt><trkpt lat="42.995125" lon="2.6515783"><ele>495.75</ele><time>2026-04-26T12:40:32.728Z</time></trkpt><trkpt lat="42.99517" lon="2.651735"><ele>486.5</ele><time>2026-04-26T12:40:33.73Z</time></trkpt><trkpt lat="42.9952167" lon="2.6518833"><ele>477.25</ele><time>2026-04-26T12:40:34.728Z</time></trkpt><trkpt lat="42.9952583" lon="2.65203"><ele>468.0</ele><time>2026-04-26T12:40:35.728Z</time></trkpt><trkpt lat="42.9952817" lon="2.6521667"><ele>467.79999999999995</ele><time>2026-04-26T12:40:36.73Z</time></trkpt><trkpt lat="42.995275" lon="2.652295"><ele>467.59999999999997</ele><time>2026-04-26T12:40:37.728Z</time></trkpt><trkpt lat="42.9952417" lon="2.6524117"><ele>467.40000000000003</ele><time>2026-04-26T12:40:38.729Z</time></trkpt><trkpt lat="42.9951783" lon="2.6525017"><ele>467.20000000000005</ele><time>2026-04-26T12:40:39.729Z</time></trkpt><trkpt lat="42.9950917" lon="2.652575"><ele>467.0</ele><time>2026-04-26T12:40:40.73Z</time></trkpt><trkpt lat="42.9949883" lon="2.65264"><ele>466.75</ele><time>2026-04-26T12:40:41.729Z</time></trkpt><trkpt lat="42.9948833" lon="2.6526983"><ele>466.5</ele><time>2026-04-26T12:40:42.729Z</time></trkpt><trkpt lat="42.9947767" lon="2.6527717"><ele>466.25</ele><time>2026-04-26T12:40:43.729Z</time></trkpt><trkpt lat="42.9946683" lon="2.6528733"><ele>466.0</ele><time>2026-04-26T12:40:44.732Z</time></trkpt><trkpt lat="42.994565" lon="2.6529933"><ele>466.0</ele><time>2026-04-26T12:40:45.728Z</time></trkpt><trkpt lat="42.9944733" lon="2.6531133"><ele>466.0</ele><time>2026-04-26T12:40:46.732Z</time></trkpt><trkpt lat="42.9943867" lon="2.653225"><ele>466.0</ele><time>2026-04-26T12:40:47.729Z</time></trkpt><trkpt lat="42.9943067" lon="2.65333"><ele>466.0</ele><time>2026-04-26T12:40:48.728Z</time></trkpt><trkpt lat="42.9942417" lon="2.6534317"><ele>466.0</ele><time>2026-04-26T12:40:49.728Z</time></trkpt><trkpt lat="42.9941967" lon="2.653545"><ele>466.0</ele><time>2026-04-26T12:40:50.729Z</time></trkpt><trkpt lat="42.9941783" lon="2.6536717"><ele>466.0</ele><time>2026-04-26T12:40:51.729Z</time></trkpt><trkpt lat="42.9941833" lon="2.6537967"><ele>466.0</ele><time>2026-04-26T12:40:52.729Z</time></trkpt><trkpt lat="42.99424" lon="2.65393"><ele>466.0</ele><time>2026-04-26T12:40:53.729Z</time></trkpt><trkpt lat="42.994305" lon="2.6540667"><ele>464.5</ele><time>2026-04-26T12:40:54.738Z</time></trkpt><trkpt lat="42.9943767" lon="2.654205"><ele>463.0</ele><time>2026-04-26T12:40:55.73Z</time></trkpt><trkpt lat="42.9944417" lon="2.6543433"><ele>461.5</ele><time>2026-04-26T12:40:56.729Z</time></trkpt><trkpt lat="42.9945067" lon="2.654485"><ele>460.0</ele><time>2026-04-26T12:40:57.728Z</time></trkpt><trkpt lat="42.9945717" lon="2.6546267"><ele>460.0</ele><time>2026-04-26T12:40:58.729Z</time></trkpt><trkpt lat="42.99462" lon="2.6547783"><ele>460.0</ele><time>2026-04-26T12:40:59.729Z</time></trkpt><trkpt lat="42.9946483" lon="2.6549367"><ele>460.0</ele><time>2026-04-26T12:41:00.728Z</time></trkpt><trkpt lat="42.9946483" lon="2.6551017"><ele>460.0</ele><time>2026-04-26T12:41:01.73Z</time></trkpt><trkpt lat="42.9946317" lon="2.6552717"><ele>463.0</ele><time>2026-04-26T12:41:02.728Z</time></trkpt><trkpt lat="42.9946017" lon="2.6554433"><ele>466.0</ele><time>2026-04-26T12:41:03.728Z</time></trkpt><trkpt lat="42.9945683" lon="2.655605"><ele>469.0</ele><time>2026-04-26T12:41:04.728Z</time></trkpt><trkpt lat="42.9945317" lon="2.65575"><ele>472.0</ele><time>2026-04-26T12:41:05.729Z</time></trkpt><trkpt lat="42.9945017" lon="2.6558867"><ele>472.0</ele><time>2026-04-26T12:41:06.729Z</time></trkpt><trkpt lat="42.9944867" lon="2.6560217"><ele>472.00000000000006</ele><time>2026-04-26T12:41:07.729Z</time></trkpt><trkpt lat="42.9944917" lon="2.6561483"><ele>472.00000000000006</ele><time>2026-04-26T12:41:08.728Z</time></trkpt><trkpt lat="42.9945217" lon="2.6562767"><ele>472.0</ele><time>2026-04-26T12:41:09.729Z</time></trkpt><trkpt lat="42.994575" lon="2.6564117"><ele>472.0</ele><time>2026-04-26T12:41:10.729Z</time></trkpt><trkpt lat="42.9946467" lon="2.65655"><ele>473.75</ele><time>2026-04-26T12:41:11.731Z</time></trkpt><trkpt lat="42.9947217" lon="2.6566917"><ele>475.5</ele><time>2026-04-26T12:41:12.731Z</time></trkpt><trkpt lat="42.9948" lon="2.65683"><ele>477.25</ele><time>2026-04-26T12:41:13.731Z</time></trkpt><trkpt lat="42.9948783" lon="2.6569583"><ele>479.0</ele><time>2026-04-26T12:41:14.732Z</time></trkpt><trkpt lat="42.9949717" lon="2.6570767"><ele>477.5</ele><time>2026-04-26T12:41:15.729Z</time></trkpt><trkpt lat="42.9950783" lon="2.65718"><ele>476.0</ele><time>2026-04-26T12:41:16.728Z</time></trkpt><trkpt lat="42.9952033" lon="2.6572633"><ele>474.5</ele><time>2026-04-26T12:41:17.731Z</time></trkpt><trkpt lat="42.9953317" lon="2.657325"><ele>473.0</ele><time>2026-04-26T12:41:18.729Z</time></trkpt><trkpt lat="42.9954617" lon="2.6573733"><ele>473.0</ele><time>2026-04-26T12:41:19.729Z</time></trkpt><trkpt lat="42.9955867" lon="2.657415"><ele>473.0</ele><time>2026-04-26T12:41:20.731Z</time></trkpt><trkpt lat="42.99572" lon="2.6574567"><ele>473.0</ele><time>2026-04-26T12:41:21.73Z</time></trkpt><trkpt lat="42.9958617" lon="2.6574783"><ele>473.0</ele><time>2026-04-26T12:41:22.809Z</time></trkpt><trkpt lat="42.9960083" lon="2.6574717"><ele>472.25</ele><time>2026-04-26T12:41:23.729Z</time></trkpt><trkpt lat="42.9961583" lon="2.6574633"><ele>471.5</ele><time>2026-04-26T12:41:24.728Z</time></trkpt><trkpt lat="42.9963083" lon="2.6574583"><ele>470.75</ele><time>2026-04-26T12:41:25.728Z</time></trkpt><trkpt lat="42.9964517" lon="2.6574633"><ele>470.0</ele><time>2026-04-26T12:41:26.73Z</time></trkpt><trkpt lat="42.9965867" lon="2.6574833"><ele>467.75</ele><time>2026-04-26T12:41:27.73Z</time></trkpt><trkpt lat="42.9967183" lon="2.657525"><ele>465.5</ele><time>2026-04-26T12:41:28.73Z</time></trkpt><trkpt lat="42.9968517" lon="2.65759"><ele>463.25</ele><time>2026-04-26T12:41:29.731Z</time></trkpt><trkpt lat="42.9969817" lon="2.65766"><ele>461.0</ele><time>2026-04-26T12:41:30.728Z</time></trkpt><trkpt lat="42.9970983" lon="2.6577233"><ele>462.5</ele><time>2026-04-26T12:41:31.729Z</time></trkpt><trkpt lat="42.9972117" lon="2.6577967"><ele>464.0</ele><time>2026-04-26T12:41:32.73Z</time></trkpt><trkpt lat="42.9973133" lon="2.65789"><ele>465.5</ele><time>2026-04-26T12:41:33.73Z</time></trkpt><trkpt lat="42.99741" lon="2.6579933"><ele>467.0</ele><time>2026-04-26T12:41:34.729Z</time></trkpt><trkpt lat="42.99751" lon="2.6580783"><ele>467.0</ele><time>2026-04-26T12:41:35.73Z</time></trkpt><trkpt lat="42.99761" lon="2.6581233"><ele>467.00000000000006</ele><time>2026-04-26T12:41:36.731Z</time></trkpt><trkpt lat="42.99771" lon="2.6581217"><ele>467.00000000000006</ele><time>2026-04-26T12:41:37.728Z</time></trkpt><trkpt lat="42.9978067" lon="2.6580767"><ele>467.0</ele><time>2026-04-26T12:41:38.729Z</time></trkpt><trkpt lat="42.9978967" lon="2.65801"><ele>467.0</ele><time>2026-04-26T12:41:39.729Z</time></trkpt><trkpt lat="42.9979783" lon="2.6579567"><ele>466.99999999999994</ele><time>2026-04-26T12:41:40.729Z</time></trkpt><trkpt lat="42.9980533" lon="2.6579233"><ele>467.0</ele><time>2026-04-26T12:41:41.729Z</time></trkpt><trkpt lat="42.99812" lon="2.6579317"><ele>467.0</ele><time>2026-04-26T12:41:42.731Z</time></trkpt><trkpt lat="42.9981667" lon="2.658"><ele>467.0</ele><time>2026-04-26T12:41:43.73Z</time></trkpt><trkpt lat="42.99818" lon="2.6581117"><ele>466.99999999999994</ele><time>2026-04-26T12:41:44.729Z</time></trkpt><trkpt lat="42.9981733" lon="2.6582433"><ele>467.0</ele><time>2026-04-26T12:41:45.73Z</time></trkpt><trkpt lat="42.9981233" lon="2.658385"><ele>467.0</ele><time>2026-04-26T12:41:46.729Z</time></trkpt><trkpt lat="42.9980817" lon="2.6585317"><ele>467.00000000000006</ele><time>2026-04-26T12:41:47.729Z</time></trkpt><trkpt lat="42.998065" lon="2.6586867"><ele>467.00000000000006</ele><time>2026-04-26T12:41:48.731Z</time></trkpt><trkpt lat="42.99807" lon="2.6588383"><ele>467.0</ele><time>2026-04-26T12:41:49.729Z</time></trkpt><trkpt lat="42.9980917" lon="2.6589683"><ele>467.0</ele><time>2026-04-26T12:41:50.73Z</time></trkpt><trkpt lat="42.9981467" lon="2.6590733"><ele>468.6</ele><time>2026-04-26T12:41:51.729Z</time></trkpt><trkpt lat="42.998215" lon="2.6591517"><ele>470.20000000000005</ele><time>2026-04-26T12:41:52.728Z</time></trkpt><trkpt lat="42.9983" lon="2.65917"><ele>471.8</ele><time>2026-04-26T12:41:53.729Z</time></trkpt><trkpt lat="42.9984017" lon="2.65913"><ele>473.4</ele><time>2026-04-26T12:41:54.729Z</time></trkpt><trkpt lat="42.9985117" lon="2.6590417"><ele>475.0</ele><time>2026-04-26T12:41:55.729Z</time></trkpt><trkpt lat="42.9986267" lon="2.6589283"><ele>476.25</ele><time>2026-04-26T12:41:56.729Z</time></trkpt><trkpt lat="42.9987517" lon="2.6588167"><ele>477.5</ele><time>2026-04-26T12:41:57.732Z</time></trkpt><trkpt lat="42.998875" lon="2.658715"><ele>478.75</ele><time>2026-04-26T12:41:58.73Z</time></trkpt><trkpt lat="42.998995" lon="2.6586183"><ele>480.0</ele><time>2026-04-26T12:41:59.729Z</time></trkpt><trkpt lat="42.9991067" lon="2.65852"><ele>472.75</ele><time>2026-04-26T12:42:00.729Z</time></trkpt><trkpt lat="42.99922" lon="2.658425"><ele>465.5</ele><time>2026-04-26T12:42:01.728Z</time></trkpt><trkpt lat="42.9993417" lon="2.6583233"><ele>458.25</ele><time>2026-04-26T12:42:02.729Z</time></trkpt><trkpt lat="42.99947" lon="2.6582217"><ele>451.0</ele><time>2026-04-26T12:42:03.728Z</time></trkpt><trkpt lat="42.99961" lon="2.658125"><ele>451.0</ele><time>2026-04-26T12:42:04.729Z</time></trkpt><trkpt lat="42.99975" lon="2.6580217"><ele>451.0</ele><time>2026-04-26T12:42:05.728Z</time></trkpt><trkpt lat="42.999885" lon="2.6579083"><ele>451.0</ele><time>2026-04-26T12:42:06.728Z</time></trkpt><trkpt lat="43.0000167" lon="2.6577917"><ele>447.0</ele><time>2026-04-26T12:42:07.728Z</time></trkpt><trkpt lat="43.0001417" lon="2.6576817"><ele>443.0</ele><time>2026-04-26T12:42:08.728Z</time></trkpt><trkpt lat="43.0002617" lon="2.6575733"><ele>439.0</ele><time>2026-04-26T12:42:09.728Z</time></trkpt><trkpt lat="43.00037" lon="2.6574667"><ele>435.0</ele><time>2026-04-26T12:42:10.728Z</time></trkpt><trkpt lat="43.000465" lon="2.6573467"><ele>435.0</ele><time>2026-04-26T12:42:11.729Z</time></trkpt><trkpt lat="43.0005117" lon="2.6572017"><ele>435.0</ele><time>2026-04-26T12:42:12.727Z</time></trkpt><trkpt lat="43.0005233" lon="2.6570583"><ele>435.0</ele><time>2026-04-26T12:42:13.729Z</time></trkpt><trkpt lat="43.000505" lon="2.656915"><ele>435.0</ele><time>2026-04-26T12:42:14.728Z</time></trkpt><trkpt lat="43.00048" lon="2.6567767"><ele>435.0</ele><time>2026-04-26T12:42:15.727Z</time></trkpt><trkpt lat="43.0004717" lon="2.6566283"><ele>432.25</ele><time>2026-04-26T12:42:16.727Z</time></trkpt><trkpt lat="43.0004833" lon="2.6564633"><ele>429.5</ele><time>2026-04-26T12:42:17.728Z</time></trkpt><trkpt lat="43.000505" lon="2.656285"><ele>426.75</ele><time>2026-04-26T12:42:18.727Z</time></trkpt><trkpt lat="43.0005233" lon="2.6560867"><ele>424.0</ele><time>2026-04-26T12:42:19.727Z</time></trkpt><trkpt lat="43.0005367" lon="2.65587"><ele>422.6666666666667</ele><time>2026-04-26T12:42:20.727Z</time></trkpt><trkpt lat="43.00054" lon="2.65564"><ele>421.33333333333337</ele><time>2026-04-26T12:42:21.728Z</time></trkpt><trkpt lat="43.0005417" lon="2.6554133"><ele>420.0</ele><time>2026-04-26T12:42:22.729Z</time></trkpt><trkpt lat="43.0005367" lon="2.6551933"><ele>420.0</ele><time>2026-04-26T12:42:23.728Z</time></trkpt><trkpt lat="43.0005367" lon="2.6549683"><ele>420.0</ele><time>2026-04-26T12:42:24.728Z</time></trkpt><trkpt lat="43.0005533" lon="2.6547383"><ele>420.0</ele><time>2026-04-26T12:42:25.729Z</time></trkpt><trkpt lat="43.0005733" lon="2.6545183"><ele>421.5</ele><time>2026-04-26T12:42:26.729Z</time></trkpt><trkpt lat="43.0005783" lon="2.6543067"><ele>423.0</ele><time>2026-04-26T12:42:27.729Z</time></trkpt><trkpt lat="43.0005817" lon="2.6541133"><ele>424.5</ele><time>2026-04-26T12:42:28.728Z</time></trkpt><trkpt lat="43.0006" lon="2.6539517"><ele>426.0</ele><time>2026-04-26T12:42:29.729Z</time></trkpt><trkpt lat="43.000635" lon="2.6538117"><ele>426.0</ele><time>2026-04-26T12:42:30.729Z</time></trkpt><trkpt lat="43.0006967" lon="2.6536883"><ele>426.0</ele><time>2026-04-26T12:42:31.728Z</time></trkpt><trkpt lat="43.0007767" lon="2.6535583"><ele>426.0</ele><time>2026-04-26T12:42:32.729Z</time></trkpt><trkpt lat="43.0008567" lon="2.65341"><ele>426.0</ele><time>2026-04-26T12:42:33.727Z</time></trkpt><trkpt lat="43.000925" lon="2.653245"><ele>427.0</ele><time>2026-04-26T12:42:34.727Z</time></trkpt><trkpt lat="43.000995" lon="2.6530733"><ele>428.0</ele><time>2026-04-26T12:42:35.727Z</time></trkpt><trkpt lat="43.0010683" lon="2.6529"><ele>429.0</ele><time>2026-04-26T12:42:36.727Z</time></trkpt><trkpt lat="43.0011417" lon="2.6527183"><ele>430.0</ele><time>2026-04-26T12:42:37.728Z</time></trkpt><trkpt lat="43.00121" lon="2.6525417"><ele>430.0</ele><time>2026-04-26T12:42:38.729Z</time></trkpt><trkpt lat="43.0012783" lon="2.65237"><ele>430.0</ele><time>2026-04-26T12:42:39.728Z</time></trkpt><trkpt lat="43.0013467" lon="2.652205"><ele>430.0</ele><time>2026-04-26T12:42:40.728Z</time></trkpt><trkpt lat="43.00142" lon="2.6520517"><ele>430.0</ele><time>2026-04-26T12:42:41.728Z</time></trkpt><trkpt lat="43.0014967" lon="2.6519"><ele>427.5</ele><time>2026-04-26T12:42:42.728Z</time></trkpt><trkpt lat="43.0015717" lon="2.6517367"><ele>425.0</ele><time>2026-04-26T12:42:43.734Z</time></trkpt><trkpt lat="43.0016433" lon="2.6515567"><ele>422.5</ele><time>2026-04-26T12:42:44.729Z</time></trkpt><trkpt lat="43.0017033" lon="2.6513667"><ele>420.0</ele><time>2026-04-26T12:42:45.729Z</time></trkpt><trkpt lat="43.001765" lon="2.6511717"><ele>418.5</ele><time>2026-04-26T12:42:46.727Z</time></trkpt><trkpt lat="43.0018167" lon="2.6509767"><ele>417.0</ele><time>2026-04-26T12:42:47.728Z</time></trkpt><trkpt lat="43.0018417" lon="2.6507683"><ele>415.5</ele><time>2026-04-26T12:42:48.732Z</time></trkpt><trkpt lat="43.001875" lon="2.6505783"><ele>414.0</ele><time>2026-04-26T12:42:49.727Z</time></trkpt><trkpt lat="43.001915" lon="2.6503833"><ele>411.25</ele><time>2026-04-26T12:42:50.728Z</time></trkpt><trkpt lat="43.0019567" lon="2.65019"><ele>408.5</ele><time>2026-04-26T12:42:51.729Z</time></trkpt><trkpt lat="43.002005" lon="2.6500017"><ele>405.75</ele><time>2026-04-26T12:42:52.729Z</time></trkpt><trkpt lat="43.0020583" lon="2.649825"><ele>403.0</ele><time>2026-04-26T12:42:53.729Z</time></trkpt><trkpt lat="43.00212" lon="2.64966"><ele>403.0</ele><time>2026-04-26T12:42:54.732Z</time></trkpt><trkpt lat="43.002195" lon="2.6495017"><ele>403.0</ele><time>2026-04-26T12:42:55.732Z</time></trkpt><trkpt lat="43.0022817" lon="2.64935"><ele>403.0</ele><time>2026-04-26T12:42:56.728Z</time></trkpt><trkpt lat="43.0023833" lon="2.6492033"><ele>403.0</ele><time>2026-04-26T12:42:57.73Z</time></trkpt><trkpt lat="43.0025" lon="2.64906"><ele>402.33333333333337</ele><time>2026-04-26T12:42:58.729Z</time></trkpt><trkpt lat="43.00262" lon="2.648925"><ele>401.66666666666663</ele><time>2026-04-26T12:42:59.728Z</time></trkpt><trkpt lat="43.00274" lon="2.6487933"><ele>401.0</ele><time>2026-04-26T12:43:00.73Z</time></trkpt><trkpt lat="43.002855" lon="2.64866"><ele>398.5</ele><time>2026-04-26T12:43:01.729Z</time></trkpt><trkpt lat="43.0029717" lon="2.6485317"><ele>396.0</ele><time>2026-04-26T12:43:02.729Z</time></trkpt><trkpt lat="43.0030933" lon="2.6484083"><ele>393.5</ele><time>2026-04-26T12:43:03.727Z</time></trkpt><trkpt lat="43.0032167" lon="2.6482967"><ele>391.0</ele><time>2026-04-26T12:43:04.73Z</time></trkpt><trkpt lat="43.00333" lon="2.6482"><ele>391.0</ele><time>2026-04-26T12:43:05.727Z</time></trkpt><trkpt lat="43.0034333" lon="2.6481133"><ele>391.0</ele><time>2026-04-26T12:43:06.735Z</time></trkpt><trkpt lat="43.0035333" lon="2.64803"><ele>391.0</ele><time>2026-04-26T12:43:07.727Z</time></trkpt><trkpt lat="43.0036233" lon="2.6479483"><ele>391.0</ele><time>2026-04-26T12:43:08.728Z</time></trkpt><trkpt lat="43.0037017" lon="2.6478467"><ele>389.25</ele><time>2026-04-26T12:43:09.728Z</time></trkpt><trkpt lat="43.00377" lon="2.6477233"><ele>387.5</ele><time>2026-04-26T12:43:10.728Z</time></trkpt><trkpt lat="43.003825" lon="2.64758"><ele>385.75</ele><time>2026-04-26T12:43:11.729Z</time></trkpt><trkpt lat="43.003875" lon="2.6474217"><ele>384.0</ele><time>2026-04-26T12:43:12.729Z</time></trkpt><trkpt lat="43.00391" lon="2.6472617"><ele>384.0</ele><time>2026-04-26T12:43:13.728Z</time></trkpt><trkpt lat="43.0039383" lon="2.6471067"><ele>384.0</ele><time>2026-04-26T12:43:14.731Z</time></trkpt><trkpt lat="43.00397" lon="2.6469583"><ele>384.0</ele><time>2026-04-26T12:43:15.73Z</time></trkpt><trkpt lat="43.0040033" lon="2.646815"><ele>384.0</ele><time>2026-04-26T12:43:16.732Z</time></trkpt><trkpt lat="43.0040633" lon="2.646675"><ele>382.5</ele><time>2026-04-26T12:43:17.729Z</time></trkpt><trkpt lat="43.0041583" lon="2.6465517"><ele>381.0</ele><time>2026-04-26T12:43:18.727Z</time></trkpt><trkpt lat="43.004265" lon="2.6464233"><ele>379.5</ele><time>2026-04-26T12:43:19.731Z</time></trkpt><trkpt lat="43.0043683" lon="2.6462783"><ele>378.0</ele><time>2026-04-26T12:43:20.729Z</time></trkpt><trkpt lat="43.0044683" lon="2.646115"><ele>375.75</ele><time>2026-04-26T12:43:21.729Z</time></trkpt><trkpt lat="43.0045683" lon="2.6459517"><ele>373.5</ele><time>2026-04-26T12:43:22.728Z</time></trkpt><trkpt lat="43.0046683" lon="2.6458"><ele>371.25</ele><time>2026-04-26T12:43:23.728Z</time></trkpt><trkpt lat="43.00477" lon="2.6456667"><ele>369.0</ele><time>2026-04-26T12:43:24.727Z</time></trkpt><trkpt lat="43.0048733" lon="2.6455433"><ele>369.0</ele><time>2026-04-26T12:43:25.729Z</time></trkpt><trkpt lat="43.0049717" lon="2.6454167"><ele>369.0</ele><time>2026-04-26T12:43:26.729Z</time></trkpt><trkpt lat="43.005065" lon="2.64529"><ele>369.0</ele><time>2026-04-26T12:43:27.728Z</time></trkpt><trkpt lat="43.0051583" lon="2.64516"><ele>369.0</ele><time>2026-04-26T12:43:28.727Z</time></trkpt><trkpt lat="43.0052467" lon="2.64503"><ele>368.25</ele><time>2026-04-26T12:43:29.727Z</time></trkpt><trkpt lat="43.0053367" lon="2.6448967"><ele>367.5</ele><time>2026-04-26T12:43:30.729Z</time></trkpt><trkpt lat="43.0054217" lon="2.64475"><ele>366.75</ele><time>2026-04-26T12:43:31.728Z</time></trkpt><trkpt lat="43.0055" lon="2.644595"><ele>366.0</ele><time>2026-04-26T12:43:32.73Z</time></trkpt><trkpt lat="43.00557" lon="2.64442"><ele>364.75</ele><time>2026-04-26T12:43:33.729Z</time></trkpt><trkpt lat="43.0056283" lon="2.6442333"><ele>363.5</ele><time>2026-04-26T12:43:34.735Z</time></trkpt><trkpt lat="43.00569" lon="2.6440467"><ele>362.25</ele><time>2026-04-26T12:43:35.727Z</time></trkpt><trkpt lat="43.00576" lon="2.6438683"><ele>361.0</ele><time>2026-04-26T12:43:36.728Z</time></trkpt><trkpt lat="43.0058367" lon="2.6436933"><ele>359.0</ele><time>2026-04-26T12:43:37.729Z</time></trkpt><trkpt lat="43.005925" lon="2.6435267"><ele>357.0</ele><time>2026-04-26T12:43:38.732Z</time></trkpt><trkpt lat="43.00602" lon="2.643365"><ele>355.0</ele><time>2026-04-26T12:43:39.729Z</time></trkpt><trkpt lat="43.0061233" lon="2.643225"><ele>353.0</ele><time>2026-04-26T12:43:40.728Z</time></trkpt><trkpt lat="43.0062183" lon="2.6430717"><ele>353.0</ele><time>2026-04-26T12:43:41.727Z</time></trkpt><trkpt lat="43.006305" lon="2.64291"><ele>353.0</ele><time>2026-04-26T12:43:42.73Z</time></trkpt><trkpt lat="43.006385" lon="2.6427533"><ele>353.0</ele><time>2026-04-26T12:43:43.73Z</time></trkpt><trkpt lat="43.0064683" lon="2.6426067"><ele>353.0</ele><time>2026-04-26T12:43:44.73Z</time></trkpt><trkpt lat="43.0065583" lon="2.6424733"><ele>353.79999999999995</ele><time>2026-04-26T12:43:45.728Z</time></trkpt><trkpt lat="43.0066483" lon="2.6423533"><ele>354.6</ele><time>2026-04-26T12:43:46.728Z</time></trkpt><trkpt lat="43.0067283" lon="2.64225"><ele>355.4</ele><time>2026-04-26T12:43:47.727Z</time></trkpt><trkpt lat="43.0067933" lon="2.642145"><ele>356.20000000000005</ele><time>2026-04-26T12:43:48.728Z</time></trkpt><trkpt lat="43.0068333" lon="2.6420267"><ele>357.0</ele><time>2026-04-26T12:43:49.727Z</time></trkpt><trkpt lat="43.00686" lon="2.6419133"><ele>355.20000000000005</ele><time>2026-04-26T12:43:50.731Z</time></trkpt><trkpt lat="43.0069" lon="2.6418033"><ele>353.4</ele><time>2026-04-26T12:43:51.727Z</time></trkpt><trkpt lat="43.0069667" lon="2.64171"><ele>351.6</ele><time>2026-04-26T12:43:52.73Z</time></trkpt><trkpt lat="43.0070333" lon="2.6416267"><ele>349.79999999999995</ele><time>2026-04-26T12:43:53.727Z</time></trkpt><trkpt lat="43.0070867" lon="2.6415233"><ele>348.0</ele><time>2026-04-26T12:43:54.728Z</time></trkpt><trkpt lat="43.0071183" lon="2.641405"><ele>348.0</ele><time>2026-04-26T12:43:55.728Z</time></trkpt><trkpt lat="43.00713" lon="2.6412833"><ele>348.0</ele><time>2026-04-26T12:43:56.729Z</time></trkpt><trkpt lat="43.0070983" lon="2.64114"><ele>348.0</ele><time>2026-04-26T12:43:57.729Z</time></trkpt><trkpt lat="43.007075" lon="2.641005"><ele>348.0</ele><time>2026-04-26T12:43:58.727Z</time></trkpt><trkpt lat="43.0070733" lon="2.6408733"><ele>348.0</ele><time>2026-04-26T12:43:59.731Z</time></trkpt><trkpt lat="43.0070933" lon="2.6407383"><ele>348.25</ele><time>2026-04-26T12:44:00.727Z</time></trkpt><trkpt lat="43.0071317" lon="2.6406"><ele>348.5</ele><time>2026-04-26T12:44:01.729Z</time></trkpt><trkpt lat="43.0071733" lon="2.64045"><ele>348.75</ele><time>2026-04-26T12:44:02.729Z</time></trkpt><trkpt lat="43.0072117" lon="2.640285"><ele>349.0</ele><time>2026-04-26T12:44:03.729Z</time></trkpt><trkpt lat="43.0072467" lon="2.6401083"><ele>349.75</ele><time>2026-04-26T12:44:04.727Z</time></trkpt><trkpt lat="43.00728" lon="2.63993"><ele>350.5</ele><time>2026-04-26T12:44:05.728Z</time></trkpt><trkpt lat="43.0073117" lon="2.6397667"><ele>351.25</ele><time>2026-04-26T12:44:06.728Z</time></trkpt><trkpt lat="43.007345" lon="2.6396183"><ele>352.0</ele><time>2026-04-26T12:44:07.728Z</time></trkpt><trkpt lat="43.0073833" lon="2.63947"><ele>351.25</ele><time>2026-04-26T12:44:08.729Z</time></trkpt><trkpt lat="43.007425" lon="2.6393233"><ele>350.5</ele><time>2026-04-26T12:44:09.732Z</time></trkpt><trkpt lat="43.0074683" lon="2.6391733"><ele>349.75</ele><time>2026-04-26T12:44:10.731Z</time></trkpt><trkpt lat="43.007515" lon="2.639015"><ele>349.0</ele><time>2026-04-26T12:44:11.729Z</time></trkpt><trkpt lat="43.00756" lon="2.63884"><ele>349.0</ele><time>2026-04-26T12:44:12.728Z</time></trkpt><trkpt lat="43.0076" lon="2.6386583"><ele>349.0</ele><time>2026-04-26T12:44:13.73Z</time></trkpt><trkpt lat="43.0076333" lon="2.638475"><ele>349.0</ele><time>2026-04-26T12:44:14.729Z</time></trkpt><trkpt lat="43.0076633" lon="2.6382983"><ele>349.0</ele><time>2026-04-26T12:44:15.729Z</time></trkpt><trkpt lat="43.0076967" lon="2.6381283"><ele>348.0</ele><time>2026-04-26T12:44:16.733Z</time></trkpt><trkpt lat="43.0077383" lon="2.63797"><ele>347.0</ele><time>2026-04-26T12:44:17.73Z</time></trkpt><trkpt lat="43.007795" lon="2.6378317"><ele>346.0</ele><time>2026-04-26T12:44:18.729Z</time></trkpt><trkpt lat="43.0078567" lon="2.6377017"><ele>345.0</ele><time>2026-04-26T12:44:19.728Z</time></trkpt><trkpt lat="43.0079233" lon="2.6375817"><ele>345.0</ele><time>2026-04-26T12:44:20.73Z</time></trkpt><trkpt lat="43.00799" lon="2.6374617"><ele>345.0</ele><time>2026-04-26T12:44:21.732Z</time></trkpt><trkpt lat="43.0080583" lon="2.6373317"><ele>345.0</ele><time>2026-04-26T12:44:22.731Z</time></trkpt><trkpt lat="43.008125" lon="2.637185"><ele>345.0</ele><time>2026-04-26T12:44:23.728Z</time></trkpt><trkpt lat="43.008185" lon="2.6370217"><ele>346.0</ele><time>2026-04-26T12:44:24.73Z</time></trkpt><trkpt lat="43.00823" lon="2.6368517"><ele>347.0</ele><time>2026-04-26T12:44:25.729Z</time></trkpt><trkpt lat="43.0082683" lon="2.6366883"><ele>348.0</ele><time>2026-04-26T12:44:26.729Z</time></trkpt><trkpt lat="43.0083033" lon="2.6365383"><ele>349.0</ele><time>2026-04-26T12:44:27.729Z</time></trkpt><trkpt lat="43.0083333" lon="2.6364033"><ele>349.4</ele><time>2026-04-26T12:44:28.734Z</time></trkpt><trkpt lat="43.0083583" lon="2.6362883"><ele>349.79999999999995</ele><time>2026-04-26T12:44:29.73Z</time></trkpt><trkpt lat="43.0083783" lon="2.6361933"><ele>350.20000000000005</ele><time>2026-04-26T12:44:30.729Z</time></trkpt><trkpt lat="43.0084133" lon="2.6360567"><ele>350.6</ele><time>2026-04-26T12:44:32.73Z</time></trkpt><trkpt lat="43.008385" lon="2.63589"><ele>351.0</ele><time>2026-04-26T12:44:34.73Z</time></trkpt><trkpt lat="43.0083349" lon="2.635795"><ele>351.20000000000005</ele><time>2026-04-26T12:44:35.729Z</time></trkpt><trkpt lat="43.0082666" lon="2.6356888"><ele>351.40000000000003</ele><time>2026-04-26T12:44:36.73Z</time></trkpt><trkpt lat="43.0081981" lon="2.6355794"><ele>351.6</ele><time>2026-04-26T12:44:37.73Z</time></trkpt><trkpt lat="43.0081324" lon="2.6354829"><ele>351.8</ele><time>2026-04-26T12:44:38.732Z</time></trkpt><trkpt lat="43.0080811" lon="2.6354098"><ele>352.0</ele><time>2026-04-26T12:44:39.73Z</time></trkpt><trkpt lat="43.0080291" lon="2.635306"><ele>352.0</ele><time>2026-04-26T12:44:41.73Z</time></trkpt><trkpt lat="43.008098" lon="2.6352724"><ele>352.0</ele><time>2026-04-26T12:44:44.729Z</time></trkpt><trkpt lat="43.0082075" lon="2.6353126"><ele>352.0</ele><time>2026-04-26T12:44:46.729Z</time></trkpt><trkpt lat="43.0082844" lon="2.6352185"><ele>352.0</ele><time>2026-04-26T12:44:48.73Z</time></trkpt><trkpt lat="43.0082997" lon="2.6351156"><ele>352.0</ele><time>2026-04-26T12:44:49.729Z</time></trkpt><trkpt lat="43.0083065" lon="2.6349825"><ele>350.8</ele><time>2026-04-26T12:44:50.729Z</time></trkpt><trkpt lat="43.0083165" lon="2.6348384"><ele>349.6</ele><time>2026-04-26T12:44:51.729Z</time></trkpt><trkpt lat="43.0083296" lon="2.6346958"><ele>348.40000000000003</ele><time>2026-04-26T12:44:52.73Z</time></trkpt><trkpt lat="43.0083501" lon="2.6345553"><ele>347.20000000000005</ele><time>2026-04-26T12:44:53.728Z</time></trkpt><trkpt lat="43.0083973" lon="2.6344187"><ele>346.0</ele><time>2026-04-26T12:44:54.729Z</time></trkpt><trkpt lat="43.0084613" lon="2.6342844"><ele>345.0</ele><time>2026-04-26T12:44:55.73Z</time></trkpt><trkpt lat="43.008527" lon="2.6341458"><ele>344.0</ele><time>2026-04-26T12:44:56.729Z</time></trkpt><trkpt lat="43.0085833" lon="2.6340009"><ele>343.0</ele><time>2026-04-26T12:44:57.73Z</time></trkpt><trkpt lat="43.0086286" lon="2.6338656"><ele>342.0</ele><time>2026-04-26T12:44:58.73Z</time></trkpt><trkpt lat="43.0086748" lon="2.6337501"><ele>341.0</ele><time>2026-04-26T12:44:59.731Z</time></trkpt><trkpt lat="43.0087167" lon="2.6336733"><ele>341.0</ele><time>2026-04-26T12:45:00.73Z</time></trkpt><trkpt lat="43.0088217" lon="2.63362"><ele>341.0</ele><time>2026-04-26T12:45:02.728Z</time></trkpt><trkpt lat="43.00889" lon="2.63364"><ele>341.0</ele><time>2026-04-26T12:45:03.727Z</time></trkpt><trkpt lat="43.00896" lon="2.633685"><ele>341.0</ele><time>2026-04-26T12:45:04.729Z</time></trkpt><trkpt lat="43.0090333" lon="2.6337517"><ele>341.0</ele><time>2026-04-26T12:45:05.727Z</time></trkpt><trkpt lat="43.0091067" lon="2.633825"><ele>341.0</ele><time>2026-04-26T12:45:06.728Z</time></trkpt><trkpt lat="43.00918" lon="2.633855"><ele>341.20000000000005</ele><time>2026-04-26T12:45:07.729Z</time></trkpt><trkpt lat="43.009255" lon="2.6338333"><ele>341.40000000000003</ele><time>2026-04-26T12:45:08.728Z</time></trkpt><trkpt lat="43.0093317" lon="2.633765"><ele>341.6</ele><time>2026-04-26T12:45:09.728Z</time></trkpt><trkpt lat="43.0094" lon="2.633655"><ele>341.8</ele><time>2026-04-26T12:45:10.728Z</time></trkpt><trkpt lat="43.0094633" lon="2.633515"><ele>342.0</ele><time>2026-04-26T12:45:11.728Z</time></trkpt><trkpt lat="43.0095317" lon="2.633365"><ele>341.0</ele><time>2026-04-26T12:45:12.729Z</time></trkpt><trkpt lat="43.0096017" lon="2.6332183"><ele>340.0</ele><time>2026-04-26T12:45:13.729Z</time></trkpt><trkpt lat="43.0096733" lon="2.6330817"><ele>339.0</ele><time>2026-04-26T12:45:14.73Z</time></trkpt><trkpt lat="43.0097417" lon="2.632955"><ele>338.0</ele><time>2026-04-26T12:45:15.728Z</time></trkpt><trkpt lat="43.0098133" lon="2.63284"><ele>337.59999999999997</ele><time>2026-04-26T12:45:16.729Z</time></trkpt><trkpt lat="43.0098883" lon="2.632745"><ele>337.2</ele><time>2026-04-26T12:45:17.729Z</time></trkpt><trkpt lat="43.009965" lon="2.632655"><ele>336.8</ele><time>2026-04-26T12:45:18.729Z</time></trkpt><trkpt lat="43.0100383" lon="2.6325767"><ele>336.4</ele><time>2026-04-26T12:45:19.731Z</time></trkpt><trkpt lat="43.010105" lon="2.6324917"><ele>336.0</ele><time>2026-04-26T12:45:20.73Z</time></trkpt><trkpt lat="43.0101617" lon="2.6323867"><ele>336.8</ele><time>2026-04-26T12:45:21.728Z</time></trkpt><trkpt lat="43.0102017" lon="2.6322583"><ele>337.6</ele><time>2026-04-26T12:45:22.728Z</time></trkpt><trkpt lat="43.0102417" lon="2.63213"><ele>338.4</ele><time>2026-04-26T12:45:23.728Z</time></trkpt><trkpt lat="43.0102833" lon="2.632015"><ele>339.2</ele><time>2026-04-26T12:45:24.729Z</time></trkpt><trkpt lat="43.0103167" lon="2.63191"><ele>340.0</ele><time>2026-04-26T12:45:25.73Z</time></trkpt><trkpt lat="43.01033" lon="2.6318017"><ele>340.5</ele><time>2026-04-26T12:45:26.728Z</time></trkpt><trkpt lat="43.0103133" lon="2.63169"><ele>341.0</ele><time>2026-04-26T12:45:27.729Z</time></trkpt><trkpt lat="43.0102967" lon="2.6315933"><ele>341.5</ele><time>2026-04-26T12:45:28.729Z</time></trkpt><trkpt lat="43.01032" lon="2.6314433"><ele>342.0</ele><time>2026-04-26T12:45:30.73Z</time></trkpt><trkpt lat="43.0103783" lon="2.6313283"><ele>342.5</ele><time>2026-04-26T12:45:32.728Z</time></trkpt><trkpt lat="43.0103483" lon="2.6312483"><ele>343.0</ele><time>2026-04-26T12:45:34.731Z</time></trkpt><trkpt lat="43.0102117" lon="2.6312783"><ele>343.0</ele><time>2026-04-26T12:45:36.73Z</time></trkpt><trkpt lat="43.010135" lon="2.6313"><ele>343.0</ele><time>2026-04-26T12:45:37.729Z</time></trkpt><trkpt lat="43.01006" lon="2.63129"><ele>343.0</ele><time>2026-04-26T12:45:38.731Z</time></trkpt><trkpt lat="43.0099983" lon="2.63125"><ele>343.0</ele><time>2026-04-26T12:45:39.73Z</time></trkpt><trkpt lat="43.00995" lon="2.6311817"><ele>343.0</ele><time>2026-04-26T12:45:40.731Z</time></trkpt><trkpt lat="43.009905" lon="2.6311083"><ele>343.0</ele><time>2026-04-26T12:45:41.729Z</time></trkpt><trkpt lat="43.0098483" lon="2.6310233"><ele>343.0</ele><time>2026-04-26T12:45:42.728Z</time></trkpt><trkpt lat="43.0097717" lon="2.63093"><ele>342.79999999999995</ele><time>2026-04-26T12:45:43.728Z</time></trkpt><trkpt lat="43.0096883" lon="2.630835"><ele>342.6</ele><time>2026-04-26T12:45:44.731Z</time></trkpt><trkpt lat="43.0096" lon="2.6307283"><ele>342.4</ele><time>2026-04-26T12:45:45.728Z</time></trkpt><trkpt lat="43.0095217" lon="2.630615"><ele>342.20000000000005</ele><time>2026-04-26T12:45:46.728Z</time></trkpt><trkpt lat="43.0094667" lon="2.630495"><ele>342.0</ele><time>2026-04-26T12:45:47.728Z</time></trkpt><trkpt lat="43.0094333" lon="2.630365"><ele>342.40000000000003</ele><time>2026-04-26T12:45:48.728Z</time></trkpt><trkpt lat="43.0094083" lon="2.630235"><ele>342.8</ele><time>2026-04-26T12:45:49.731Z</time></trkpt><trkpt lat="43.00939" lon="2.630125"><ele>343.2</ele><time>2026-04-26T12:45:50.729Z</time></trkpt><trkpt lat="43.009375" lon="2.6299917"><ele>343.6</ele><time>2026-04-26T12:45:52.727Z</time></trkpt><trkpt lat="43.0094283" lon="2.6299367"><ele>344.0</ele><time>2026-04-26T12:45:54.73Z</time></trkpt><trkpt lat="43.0095317" lon="2.6299833"><ele>344.0</ele><time>2026-04-26T12:45:56.729Z</time></trkpt><trkpt lat="43.0095967" lon="2.6300267"><ele>344.0</ele><time>2026-04-26T12:45:57.728Z</time></trkpt><trkpt lat="43.0096883" lon="2.6300433"><ele>344.0</ele><time>2026-04-26T12:45:58.73Z</time></trkpt><trkpt lat="43.0098033" lon="2.63005"><ele>344.0</ele><time>2026-04-26T12:45:59.729Z</time></trkpt><trkpt lat="43.0099283" lon="2.6300517"><ele>344.0</ele><time>2026-04-26T12:46:00.729Z</time></trkpt><trkpt lat="43.010065" lon="2.63004"><ele>345.0</ele><time>2026-04-26T12:46:01.728Z</time></trkpt><trkpt lat="43.01021" lon="2.6300067"><ele>346.0</ele><time>2026-04-26T12:46:02.731Z</time></trkpt><trkpt lat="43.0103533" lon="2.629965"><ele>347.0</ele><time>2026-04-26T12:46:03.729Z</time></trkpt><trkpt lat="43.0104967" lon="2.6299283"><ele>348.0</ele><time>2026-04-26T12:46:04.73Z</time></trkpt><trkpt lat="43.0106417" lon="2.6298933"><ele>348.0</ele><time>2026-04-26T12:46:05.728Z</time></trkpt><trkpt lat="43.01079" lon="2.629875"><ele>348.0</ele><time>2026-04-26T12:46:06.728Z</time></trkpt><trkpt lat="43.0109433" lon="2.62988"><ele>348.0</ele><time>2026-04-26T12:46:07.729Z</time></trkpt><trkpt lat="43.0111017" lon="2.6298933"><ele>348.0</ele><time>2026-04-26T12:46:08.729Z</time></trkpt><trkpt lat="43.01125" lon="2.629905"><ele>348.0</ele><time>2026-04-26T12:46:09.729Z</time></trkpt><trkpt lat="43.0113767" lon="2.6299133"><ele>348.0</ele><time>2026-04-26T12:46:10.73Z</time></trkpt><trkpt lat="43.0114867" lon="2.6299217"><ele>348.0</ele><time>2026-04-26T12:46:11.729Z</time></trkpt><trkpt lat="43.0115767" lon="2.62995"><ele>348.79999999999995</ele><time>2026-04-26T12:46:12.73Z</time></trkpt><trkpt lat="43.0116583" lon="2.6300067"><ele>349.6</ele><time>2026-04-26T12:46:13.727Z</time></trkpt><trkpt lat="43.0117417" lon="2.630085"><ele>350.4</ele><time>2026-04-26T12:46:14.729Z</time></trkpt><trkpt lat="43.01183" lon="2.6301717"><ele>351.20000000000005</ele><time>2026-04-26T12:46:15.728Z</time></trkpt><trkpt lat="43.01193" lon="2.6302617"><ele>352.0</ele><time>2026-04-26T12:46:16.728Z</time></trkpt><trkpt lat="43.0120383" lon="2.6303467"><ele>352.0</ele><time>2026-04-26T12:46:17.73Z</time></trkpt><trkpt lat="43.0121533" lon="2.6304333"><ele>352.0</ele><time>2026-04-26T12:46:18.729Z</time></trkpt><trkpt lat="43.01227" lon="2.6305333"><ele>352.0</ele><time>2026-04-26T12:46:19.728Z</time></trkpt><trkpt lat="43.01237" lon="2.6306467"><ele>352.0</ele><time>2026-04-26T12:46:20.729Z</time></trkpt><trkpt lat="43.0124517" lon="2.6307633"><ele>354.20000000000005</ele><time>2026-04-26T12:46:21.73Z</time></trkpt><trkpt lat="43.0125233" lon="2.6308683"><ele>356.4</ele><time>2026-04-26T12:46:22.735Z</time></trkpt><trkpt lat="43.0125983" lon="2.6309483"><ele>358.6</ele><time>2026-04-26T12:46:23.728Z</time></trkpt><trkpt lat="43.0126817" lon="2.631005"><ele>360.79999999999995</ele><time>2026-04-26T12:46:24.731Z</time></trkpt><trkpt lat="43.01277" lon="2.6310267"><ele>363.0</ele><time>2026-04-26T12:46:25.728Z</time></trkpt><trkpt lat="43.012855" lon="2.6310467"><ele>363.0</ele><time>2026-04-26T12:46:26.73Z</time></trkpt><trkpt lat="43.0129417" lon="2.6310883"><ele>363.0</ele><time>2026-04-26T12:46:27.728Z</time></trkpt><trkpt lat="43.0130033" lon="2.63117"><ele>363.0</ele><time>2026-04-26T12:46:28.732Z</time></trkpt><trkpt lat="43.0130483" lon="2.6312867"><ele>363.0</ele><time>2026-04-26T12:46:29.729Z</time></trkpt><trkpt lat="43.0130867" lon="2.631435"><ele>363.0</ele><time>2026-04-26T12:46:30.731Z</time></trkpt><trkpt lat="43.0131217" lon="2.6315967"><ele>363.59999999999997</ele><time>2026-04-26T12:46:31.728Z</time></trkpt><trkpt lat="43.0131533" lon="2.6317617"><ele>364.2</ele><time>2026-04-26T12:46:32.729Z</time></trkpt><trkpt lat="43.0131767" lon="2.631925"><ele>364.8</ele><time>2026-04-26T12:46:33.728Z</time></trkpt><trkpt lat="43.013195" lon="2.6320717"><ele>365.4</ele><time>2026-04-26T12:46:34.73Z</time></trkpt><trkpt lat="43.0132233" lon="2.6321867"><ele>366.0</ele><time>2026-04-26T12:46:35.728Z</time></trkpt><trkpt lat="43.01326" lon="2.6322767"><ele>368.0</ele><time>2026-04-26T12:46:36.73Z</time></trkpt><trkpt lat="43.0133783" lon="2.6323317"><ele>370.0</ele><time>2026-04-26T12:46:38.731Z</time></trkpt><trkpt lat="43.0134517" lon="2.63232"><ele>372.0</ele><time>2026-04-26T12:46:39.727Z</time></trkpt><trkpt lat="43.0135417" lon="2.63227"><ele>374.0</ele><time>2026-04-26T12:46:40.729Z</time></trkpt><trkpt lat="43.0136433" lon="2.6322217"><ele>376.0</ele><time>2026-04-26T12:46:41.728Z</time></trkpt><trkpt lat="43.01375" lon="2.6322"><ele>376.0</ele><time>2026-04-26T12:46:42.729Z</time></trkpt><trkpt lat="43.0138583" lon="2.6322033"><ele>376.0</ele><time>2026-04-26T12:46:43.728Z</time></trkpt><trkpt lat="43.0139783" lon="2.6322133"><ele>376.0</ele><time>2026-04-26T12:46:44.73Z</time></trkpt><trkpt lat="43.0140967" lon="2.6322417"><ele>376.0</ele><time>2026-04-26T12:46:45.729Z</time></trkpt><trkpt lat="43.0142067" lon="2.6322883"><ele>379.25</ele><time>2026-04-26T12:46:46.731Z</time></trkpt><trkpt lat="43.014305" lon="2.632355"><ele>382.5</ele><time>2026-04-26T12:46:47.728Z</time></trkpt><trkpt lat="43.0143967" lon="2.6324483"><ele>385.75</ele><time>2026-04-26T12:46:48.729Z</time></trkpt><trkpt lat="43.0144917" lon="2.6325617"><ele>389.0</ele><time>2026-04-26T12:46:49.73Z</time></trkpt><trkpt lat="43.0145883" lon="2.6326833"><ele>389.0</ele><time>2026-04-26T12:46:50.729Z</time></trkpt><trkpt lat="43.01469" lon="2.6328033"><ele>389.0</ele><time>2026-04-26T12:46:51.728Z</time></trkpt><trkpt lat="43.0147883" lon="2.63292"><ele>389.0</ele><time>2026-04-26T12:46:52.728Z</time></trkpt><trkpt lat="43.0148833" lon="2.63304"><ele>389.0</ele><time>2026-04-26T12:46:53.729Z</time></trkpt><trkpt lat="43.014965" lon="2.6331617"><ele>391.2</ele><time>2026-04-26T12:46:54.73Z</time></trkpt><trkpt lat="43.0150417" lon="2.633265"><ele>393.4</ele><time>2026-04-26T12:46:55.728Z</time></trkpt><trkpt lat="43.0151283" lon="2.6333483"><ele>395.6</ele><time>2026-04-26T12:46:56.732Z</time></trkpt><trkpt lat="43.0152283" lon="2.6334083"><ele>397.8</ele><time>2026-04-26T12:46:57.73Z</time></trkpt><trkpt lat="43.0153283" lon="2.63345"><ele>400.0</ele><time>2026-04-26T12:46:58.728Z</time></trkpt><trkpt lat="43.0154133" lon="2.633485"><ele>400.0</ele><time>2026-04-26T12:46:59.731Z</time></trkpt><trkpt lat="43.01549" lon="2.6335267"><ele>400.0</ele><time>2026-04-26T12:47:00.728Z</time></trkpt><trkpt lat="43.0155633" lon="2.6335817"><ele>400.0</ele><time>2026-04-26T12:47:01.729Z</time></trkpt><trkpt lat="43.0156417" lon="2.6336467"><ele>400.0</ele><time>2026-04-26T12:47:02.73Z</time></trkpt><trkpt lat="43.01573" lon="2.63371"><ele>400.0</ele><time>2026-04-26T12:47:03.729Z</time></trkpt><trkpt lat="43.01583" lon="2.6337867"><ele>401.75</ele><time>2026-04-26T12:47:04.729Z</time></trkpt><trkpt lat="43.0159217" lon="2.6338883"><ele>403.5</ele><time>2026-04-26T12:47:05.728Z</time></trkpt><trkpt lat="43.015995" lon="2.6340217"><ele>405.25</ele><time>2026-04-26T12:47:06.73Z</time></trkpt><trkpt lat="43.0160467" lon="2.6341833"><ele>407.0</ele><time>2026-04-26T12:47:07.731Z</time></trkpt><trkpt lat="43.0160767" lon="2.6343633"><ele>404.25</ele><time>2026-04-26T12:47:08.736Z</time></trkpt><trkpt lat="43.0160883" lon="2.634555"><ele>401.5</ele><time>2026-04-26T12:47:09.729Z</time></trkpt><trkpt lat="43.016105" lon="2.63475"><ele>398.75</ele><time>2026-04-26T12:47:10.731Z</time></trkpt><trkpt lat="43.0161417" lon="2.6349433"><ele>396.0</ele><time>2026-04-26T12:47:11.731Z</time></trkpt><trkpt lat="43.01621" lon="2.6351267"><ele>396.0</ele><time>2026-04-26T12:47:12.731Z</time></trkpt><trkpt lat="43.0163083" lon="2.6352917"><ele>396.0</ele><time>2026-04-26T12:47:13.731Z</time></trkpt><trkpt lat="43.0164267" lon="2.6354333"><ele>396.0</ele><time>2026-04-26T12:47:14.729Z</time></trkpt><trkpt lat="43.0165617" lon="2.6355317"><ele>393.5</ele><time>2026-04-26T12:47:15.729Z</time></trkpt><trkpt lat="43.0167033" lon="2.63558"><ele>391.0</ele><time>2026-04-26T12:47:16.73Z</time></trkpt><trkpt lat="43.0168483" lon="2.6355883"><ele>388.5</ele><time>2026-04-26T12:47:17.73Z</time></trkpt><trkpt lat="43.01699" lon="2.6355717"><ele>386.0</ele><time>2026-04-26T12:47:18.729Z</time></trkpt><trkpt lat="43.0171317" lon="2.6355283"><ele>386.0</ele><time>2026-04-26T12:47:19.729Z</time></trkpt><trkpt lat="43.0172667" lon="2.6354517"><ele>386.0</ele><time>2026-04-26T12:47:20.731Z</time></trkpt><trkpt lat="43.0173867" lon="2.6353467"><ele>386.0</ele><time>2026-04-26T12:47:21.728Z</time></trkpt><trkpt lat="43.0174967" lon="2.63522"><ele>386.0</ele><time>2026-04-26T12:47:22.73Z</time></trkpt><trkpt lat="43.017605" lon="2.6350917"><ele>388.5</ele><time>2026-04-26T12:47:23.728Z</time></trkpt><trkpt lat="43.01772" lon="2.6349683"><ele>391.0</ele><time>2026-04-26T12:47:24.734Z</time></trkpt><trkpt lat="43.0178483" lon="2.634875"><ele>393.5</ele><time>2026-04-26T12:47:25.73Z</time></trkpt><trkpt lat="43.0179867" lon="2.6348167"><ele>396.0</ele><time>2026-04-26T12:47:26.732Z</time></trkpt><trkpt lat="43.0181267" lon="2.6348033"><ele>396.0</ele><time>2026-04-26T12:47:27.73Z</time></trkpt><trkpt lat="43.0182567" lon="2.6348567"><ele>396.0</ele><time>2026-04-26T12:47:28.731Z</time></trkpt><trkpt lat="43.018375" lon="2.6349617"><ele>396.0</ele><time>2026-04-26T12:47:29.73Z</time></trkpt><trkpt lat="43.01848" lon="2.6351033"><ele>396.0</ele><time>2026-04-26T12:47:30.733Z</time></trkpt><trkpt lat="43.0185783" lon="2.63526"><ele>390.75</ele><time>2026-04-26T12:47:31.731Z</time></trkpt><trkpt lat="43.0186767" lon="2.6354133"><ele>385.5</ele><time>2026-04-26T12:47:32.731Z</time></trkpt><trkpt lat="43.0187767" lon="2.635565"><ele>380.25</ele><time>2026-04-26T12:47:33.73Z</time></trkpt><trkpt lat="43.0188733" lon="2.6357167"><ele>375.0</ele><time>2026-04-26T12:47:34.728Z</time></trkpt><trkpt lat="43.0189683" lon="2.6358633"><ele>375.0</ele><time>2026-04-26T12:47:35.729Z</time></trkpt><trkpt lat="43.0190433" lon="2.6360217"><ele>375.0</ele><time>2026-04-26T12:47:36.731Z</time></trkpt><trkpt lat="43.0190767" lon="2.6362017"><ele>375.0</ele><time>2026-04-26T12:47:37.733Z</time></trkpt><trkpt lat="43.0190767" lon="2.636385"><ele>375.0</ele><time>2026-04-26T12:47:38.73Z</time></trkpt><trkpt lat="43.0190517" lon="2.6365517"><ele>374.4</ele><time>2026-04-26T12:47:39.729Z</time></trkpt><trkpt lat="43.0190117" lon="2.6366983"><ele>373.8</ele><time>2026-04-26T12:47:40.729Z</time></trkpt><trkpt lat="43.01896" lon="2.6368283"><ele>373.20000000000005</ele><time>2026-04-26T12:47:41.729Z</time></trkpt><trkpt lat="43.0189" lon="2.63694"><ele>372.6</ele><time>2026-04-26T12:47:42.728Z</time></trkpt><trkpt lat="43.0188333" lon="2.6370333"><ele>372.0</ele><time>2026-04-26T12:47:43.729Z</time></trkpt><trkpt lat="43.0187583" lon="2.6370983"><ele>373.5</ele><time>2026-04-26T12:47:44.73Z</time></trkpt><trkpt lat="43.0186783" lon="2.637145"><ele>375.0</ele><time>2026-04-26T12:47:45.731Z</time></trkpt><trkpt lat="43.0185967" lon="2.63718"><ele>376.5</ele><time>2026-04-26T12:47:46.73Z</time></trkpt><trkpt lat="43.0185117" lon="2.6372017"><ele>378.0</ele><time>2026-04-26T12:47:47.731Z</time></trkpt><trkpt lat="43.018425" lon="2.6372317"><ele>379.5</ele><time>2026-04-26T12:47:48.731Z</time></trkpt><trkpt lat="43.0183467" lon="2.6372917"><ele>381.0</ele><time>2026-04-26T12:47:49.729Z</time></trkpt><trkpt lat="43.0182717" lon="2.6373867"><ele>373.75</ele><time>2026-04-26T12:47:50.731Z</time></trkpt><trkpt lat="43.0182383" lon="2.6375283"><ele>366.5</ele><time>2026-04-26T12:47:51.73Z</time></trkpt><trkpt lat="43.018235" lon="2.6376967"><ele>359.25</ele><time>2026-04-26T12:47:52.735Z</time></trkpt><trkpt lat="43.01825" lon="2.6378733"><ele>352.0</ele><time>2026-04-26T12:47:53.729Z</time></trkpt><trkpt lat="43.0182917" lon="2.63805"><ele>357.20000000000005</ele><time>2026-04-26T12:47:54.729Z</time></trkpt><trkpt lat="43.01835" lon="2.6381967"><ele>362.4</ele><time>2026-04-26T12:47:55.73Z</time></trkpt><trkpt lat="43.01841" lon="2.6383133"><ele>367.6</ele><time>2026-04-26T12:47:56.73Z</time></trkpt><trkpt lat="43.01847" lon="2.63841"><ele>372.79999999999995</ele><time>2026-04-26T12:47:57.73Z</time></trkpt><trkpt lat="43.0185233" lon="2.63849"><ele>378.0</ele><time>2026-04-26T12:47:58.73Z</time></trkpt><trkpt lat="43.0185717" lon="2.63856"><ele>378.0</ele><time>2026-04-26T12:47:59.73Z</time></trkpt><trkpt lat="43.01862" lon="2.6386233"><ele>378.0</ele><time>2026-04-26T12:48:00.731Z</time></trkpt><trkpt lat="43.0187033" lon="2.6387483"><ele>378.0</ele><time>2026-04-26T12:48:02.732Z</time></trkpt><trkpt lat="43.0187833" lon="2.63887"><ele>378.0</ele><time>2026-04-26T12:48:04.735Z</time></trkpt><trkpt lat="43.0188217" lon="2.6390183"><ele>378.0</ele><time>2026-04-26T12:48:06.731Z</time></trkpt><trkpt lat="43.0188167" lon="2.6391067"><ele>376.6666666666667</ele><time>2026-04-26T12:48:07.728Z</time></trkpt><trkpt lat="43.0188017" lon="2.6392067"><ele>375.3333333333333</ele><time>2026-04-26T12:48:08.731Z</time></trkpt><trkpt lat="43.0187833" lon="2.6393083"><ele>374.0</ele><time>2026-04-26T12:48:09.729Z</time></trkpt><trkpt lat="43.018765" lon="2.63941"><ele>372.66666666666663</ele><time>2026-04-26T12:48:10.729Z</time></trkpt><trkpt lat="43.0187483" lon="2.6395133"><ele>371.3333333333333</ele><time>2026-04-26T12:48:11.727Z</time></trkpt><trkpt lat="43.0187317" lon="2.6396117"><ele>370.0</ele><time>2026-04-26T12:48:12.728Z</time></trkpt><trkpt lat="43.01872" lon="2.6397083"><ele>367.8</ele><time>2026-04-26T12:48:13.728Z</time></trkpt><trkpt lat="43.0187117" lon="2.639805"><ele>365.6</ele><time>2026-04-26T12:48:14.729Z</time></trkpt><trkpt lat="43.0187133" lon="2.6399667"><ele>363.4</ele><time>2026-04-26T12:48:16.728Z</time></trkpt><trkpt lat="43.018745" lon="2.6400867"><ele>361.2</ele><time>2026-04-26T12:48:18.729Z</time></trkpt><trkpt lat="43.0188233" lon="2.6401883"><ele>359.0</ele><time>2026-04-26T12:48:20.728Z</time></trkpt><trkpt lat="43.0189283" lon="2.6402833"><ele>357.1666666666667</ele><time>2026-04-26T12:48:22.73Z</time></trkpt><trkpt lat="43.0189983" lon="2.6403333"><ele>355.33333333333337</ele><time>2026-04-26T12:48:23.731Z</time></trkpt><trkpt lat="43.0190667" lon="2.6403933"><ele>353.5</ele><time>2026-04-26T12:48:24.729Z</time></trkpt><trkpt lat="43.01913" lon="2.64046"><ele>351.6666666666667</ele><time>2026-04-26T12:48:25.728Z</time></trkpt><trkpt lat="43.01918" lon="2.64054"><ele>349.8333333333333</ele><time>2026-04-26T12:48:26.73Z</time></trkpt><trkpt lat="43.0192117" lon="2.6406283"><ele>348.0</ele><time>2026-04-26T12:48:27.732Z</time></trkpt><trkpt lat="43.0192167" lon="2.6407167"><ele>347.8333333333333</ele><time>2026-04-26T12:48:28.732Z</time></trkpt><trkpt lat="43.01915" lon="2.64086"><ele>347.6666666666667</ele><time>2026-04-26T12:48:30.731Z</time></trkpt><trkpt lat="43.0191" lon="2.6409217"><ele>347.5</ele><time>2026-04-26T12:48:31.727Z</time></trkpt><trkpt lat="43.0190533" lon="2.64099"><ele>347.33333333333337</ele><time>2026-04-26T12:48:32.729Z</time></trkpt><trkpt lat="43.0190133" lon="2.6410617"><ele>347.1666666666667</ele><time>2026-04-26T12:48:33.729Z</time></trkpt><trkpt lat="43.0189883" lon="2.6411533"><ele>347.0</ele><time>2026-04-26T12:48:34.728Z</time></trkpt><trkpt lat="43.0189617" lon="2.6412383"><ele>345.5714285714286</ele><time>2026-04-26T12:48:35.73Z</time></trkpt><trkpt lat="43.0189367" lon="2.6413267"><ele>344.1428571428571</ele><time>2026-04-26T12:48:36.728Z</time></trkpt><trkpt lat="43.018925" lon="2.6414167"><ele>342.7142857142857</ele><time>2026-04-26T12:48:37.729Z</time></trkpt><trkpt lat="43.0189283" lon="2.6415117"><ele>341.28571428571433</ele><time>2026-04-26T12:48:38.73Z</time></trkpt><trkpt lat="43.0189233" lon="2.64161"><ele>339.8571428571429</ele><time>2026-04-26T12:48:39.729Z</time></trkpt><trkpt lat="43.01891" lon="2.641715"><ele>338.42857142857144</ele><time>2026-04-26T12:48:40.73Z</time></trkpt><trkpt lat="43.0188917" lon="2.64181"><ele>337.0</ele><time>2026-04-26T12:48:41.729Z</time></trkpt><trkpt lat="43.0188567" lon="2.6419017"><ele>335.8</ele><time>2026-04-26T12:48:42.728Z</time></trkpt><trkpt lat="43.0188017" lon="2.6420017"><ele>334.6</ele><time>2026-04-26T12:48:43.729Z</time></trkpt><trkpt lat="43.0187417" lon="2.6421033"><ele>333.40000000000003</ele><time>2026-04-26T12:48:44.73Z</time></trkpt><trkpt lat="43.018695" lon="2.6422067"><ele>332.20000000000005</ele><time>2026-04-26T12:48:45.727Z</time></trkpt><trkpt lat="43.018665" lon="2.642325"><ele>331.0</ele><time>2026-04-26T12:48:46.728Z</time></trkpt><trkpt lat="43.0186567" lon="2.6424517"><ele>331.0</ele><time>2026-04-26T12:48:47.728Z</time></trkpt><trkpt lat="43.018665" lon="2.64258"><ele>331.0</ele><time>2026-04-26T12:48:48.731Z</time></trkpt><trkpt lat="43.01867" lon="2.6426917"><ele>331.0</ele><time>2026-04-26T12:48:49.729Z</time></trkpt><trkpt lat="43.0186683" lon="2.6428"><ele>331.0</ele><time>2026-04-26T12:48:50.728Z</time></trkpt><trkpt lat="43.0186533" lon="2.6429433"><ele>331.0</ele><time>2026-04-26T12:48:51.73Z</time></trkpt><trkpt lat="43.0186317" lon="2.64307"><ele>329.6</ele><time>2026-04-26T12:48:52.729Z</time></trkpt><trkpt lat="43.018605" lon="2.6432033"><ele>328.20000000000005</ele><time>2026-04-26T12:48:53.73Z</time></trkpt><trkpt lat="43.0185833" lon="2.6433383"><ele>326.79999999999995</ele><time>2026-04-26T12:48:54.73Z</time></trkpt><trkpt lat="43.0185583" lon="2.6434683"><ele>325.4</ele><time>2026-04-26T12:48:55.728Z</time></trkpt><trkpt lat="43.0185367" lon="2.6436033"><ele>324.0</ele><time>2026-04-26T12:48:56.728Z</time></trkpt><trkpt lat="43.0185117" lon="2.643735"><ele>323.1666666666667</ele><time>2026-04-26T12:48:57.73Z</time></trkpt><trkpt lat="43.0184867" lon="2.6438633"><ele>322.3333333333333</ele><time>2026-04-26T12:48:58.732Z</time></trkpt><trkpt lat="43.018455" lon="2.64398"><ele>321.5</ele><time>2026-04-26T12:48:59.731Z</time></trkpt><trkpt lat="43.0184167" lon="2.64409"><ele>320.66666666666663</ele><time>2026-04-26T12:49:00.73Z</time></trkpt><trkpt lat="43.01837" lon="2.644195"><ele>319.8333333333333</ele><time>2026-04-26T12:49:01.728Z</time></trkpt><trkpt lat="43.01833" lon="2.6442883"><ele>319.0</ele><time>2026-04-26T12:49:02.73Z</time></trkpt><trkpt lat="43.0183017" lon="2.6443767"><ele>318.4</ele><time>2026-04-26T12:49:03.728Z</time></trkpt><trkpt lat="43.0183" lon="2.6445383"><ele>317.79999999999995</ele><time>2026-04-26T12:49:05.728Z</time></trkpt><trkpt lat="43.0183167" lon="2.6446483"><ele>317.20000000000005</ele><time>2026-04-26T12:49:06.731Z</time></trkpt><trkpt lat="43.0183383" lon="2.64477"><ele>316.6</ele><time>2026-04-26T12:49:07.729Z</time></trkpt><trkpt lat="43.0183617" lon="2.6449017"><ele>316.0</ele><time>2026-04-26T12:49:08.729Z</time></trkpt><trkpt lat="43.0183767" lon="2.6450367"><ele>316.0</ele><time>2026-04-26T12:49:09.728Z</time></trkpt><trkpt lat="43.0183817" lon="2.6451667"><ele>316.0</ele><time>2026-04-26T12:49:10.728Z</time></trkpt><trkpt lat="43.0183833" lon="2.6453"><ele>316.0</ele><time>2026-04-26T12:49:11.729Z</time></trkpt><trkpt lat="43.0183783" lon="2.645435"><ele>316.0</ele><time>2026-04-26T12:49:12.729Z</time></trkpt><trkpt lat="43.01837" lon="2.645575"><ele>316.0</ele><time>2026-04-26T12:49:13.728Z</time></trkpt><trkpt lat="43.0183583" lon="2.6457"><ele>315.5</ele><time>2026-04-26T12:49:14.729Z</time></trkpt><trkpt lat="43.018345" lon="2.6458017"><ele>315.0</ele><time>2026-04-26T12:49:15.727Z</time></trkpt><trkpt lat="43.0183417" lon="2.6459017"><ele>314.5</ele><time>2026-04-26T12:49:16.727Z</time></trkpt><trkpt lat="43.01835" lon="2.646"><ele>314.0</ele><time>2026-04-26T12:49:17.728Z</time></trkpt><trkpt lat="43.0183683" lon="2.64609"><ele>313.5</ele><time>2026-04-26T12:49:18.728Z</time></trkpt><trkpt lat="43.0183917" lon="2.64617"><ele>313.0</ele><time>2026-04-26T12:49:19.729Z</time></trkpt><trkpt lat="43.0184533" lon="2.6462883"><ele>312.2</ele><time>2026-04-26T12:49:21.728Z</time></trkpt><trkpt lat="43.018525" lon="2.6463"><ele>311.4</ele><time>2026-04-26T12:49:24.732Z</time></trkpt><trkpt lat="43.0186233" lon="2.6463117"><ele>310.59999999999997</ele><time>2026-04-26T12:49:26.73Z</time></trkpt><trkpt lat="43.0187367" lon="2.6463617"><ele>309.8</ele><time>2026-04-26T12:49:28.728Z</time></trkpt><trkpt lat="43.0188333" lon="2.6464483"><ele>309.0</ele><time>2026-04-26T12:49:30.729Z</time></trkpt><trkpt lat="43.0189167" lon="2.64649"><ele>309.0</ele><time>2026-04-26T12:49:32.73Z</time></trkpt><trkpt lat="43.0189883" lon="2.6464367"><ele>309.0</ele><time>2026-04-26T12:49:34.728Z</time></trkpt><trkpt lat="43.01905" lon="2.6463317"><ele>309.0</ele><time>2026-04-26T12:49:36.728Z</time></trkpt><trkpt lat="43.0191433" lon="2.6462267"><ele>309.0</ele><time>2026-04-26T12:49:38.728Z</time></trkpt><trkpt lat="43.0192033" lon="2.6461767"><ele>309.0</ele><time>2026-04-26T12:49:39.728Z</time></trkpt><trkpt lat="43.019265" lon="2.6461183"><ele>309.0</ele><time>2026-04-26T12:49:40.729Z</time></trkpt><trkpt lat="43.0193233" lon="2.6460467"><ele>308.1666666666667</ele><time>2026-04-26T12:49:41.727Z</time></trkpt><trkpt lat="43.01938" lon="2.6459667"><ele>307.3333333333333</ele><time>2026-04-26T12:49:42.73Z</time></trkpt><trkpt lat="43.0194333" lon="2.645905"><ele>306.5</ele><time>2026-04-26T12:49:43.728Z</time></trkpt><trkpt lat="43.0195533" lon="2.6458767"><ele>305.66666666666663</ele><time>2026-04-26T12:49:45.729Z</time></trkpt><trkpt lat="43.01962" lon="2.6458767"><ele>304.8333333333333</ele><time>2026-04-26T12:49:46.728Z</time></trkpt><trkpt lat="43.0196867" lon="2.6458567"><ele>304.0</ele><time>2026-04-26T12:49:47.728Z</time></trkpt><trkpt lat="43.0197483" lon="2.6457967"><ele>304.0</ele><time>2026-04-26T12:49:48.73Z</time></trkpt><trkpt lat="43.01981" lon="2.6457233"><ele>304.0</ele><time>2026-04-26T12:49:49.727Z</time></trkpt><trkpt lat="43.019865" lon="2.6456517"><ele>304.0</ele><time>2026-04-26T12:49:50.729Z</time></trkpt><trkpt lat="43.01992" lon="2.64558"><ele>304.0</ele><time>2026-04-26T12:49:51.727Z</time></trkpt><trkpt lat="43.0199817" lon="2.6455267"><ele>304.0</ele><time>2026-04-26T12:49:52.73Z</time></trkpt><trkpt lat="43.0200533" lon="2.6454833"><ele>304.0</ele><time>2026-04-26T12:49:53.728Z</time></trkpt><trkpt lat="43.0201167" lon="2.6454267"><ele>302.8</ele><time>2026-04-26T12:49:54.73Z</time></trkpt><trkpt lat="43.0201933" lon="2.645365"><ele>301.59999999999997</ele><time>2026-04-26T12:49:55.733Z</time></trkpt><trkpt lat="43.0202783" lon="2.6453033"><ele>300.4</ele><time>2026-04-26T12:49:56.729Z</time></trkpt><trkpt lat="43.0203617" lon="2.6452383"><ele>299.2</ele><time>2026-04-26T12:49:57.728Z</time></trkpt><trkpt lat="43.0204467" lon="2.6451717"><ele>298.0</ele><time>2026-04-26T12:49:58.73Z</time></trkpt><trkpt lat="43.0205317" lon="2.6451"><ele>298.0</ele><time>2026-04-26T12:49:59.729Z</time></trkpt><trkpt lat="43.0206167" lon="2.6450267"><ele>298.0</ele><time>2026-04-26T12:50:00.728Z</time></trkpt><trkpt lat="43.0207033" lon="2.6449433"><ele>298.0</ele><time>2026-04-26T12:50:01.73Z</time></trkpt><trkpt lat="43.0207917" lon="2.6448533"><ele>298.0</ele><time>2026-04-26T12:50:02.729Z</time></trkpt><trkpt lat="43.02088" lon="2.64476"><ele>298.0</ele><time>2026-04-26T12:50:03.728Z</time></trkpt><trkpt lat="43.0209633" lon="2.6446767"><ele>297.8333333333333</ele><time>2026-04-26T12:50:04.731Z</time></trkpt><trkpt lat="43.0210383" lon="2.6445983"><ele>297.66666666666663</ele><time>2026-04-26T12:50:05.728Z</time></trkpt><trkpt lat="43.0211017" lon="2.6445133"><ele>297.5</ele><time>2026-04-26T12:50:06.731Z</time></trkpt><trkpt lat="43.0211483" lon="2.6444233"><ele>297.3333333333333</ele><time>2026-04-26T12:50:07.729Z</time></trkpt><trkpt lat="43.02118" lon="2.6443333"><ele>297.1666666666667</ele><time>2026-04-26T12:50:08.73Z</time></trkpt><trkpt lat="43.021215" lon="2.64425"><ele>297.0</ele><time>2026-04-26T12:50:09.73Z</time></trkpt><trkpt lat="43.0212567" lon="2.6441767"><ele>297.0</ele><time>2026-04-26T12:50:10.73Z</time></trkpt><trkpt lat="43.02131" lon="2.6441067"><ele>297.0</ele><time>2026-04-26T12:50:11.73Z</time></trkpt><trkpt lat="43.0213817" lon="2.6440333"><ele>297.0</ele><time>2026-04-26T12:50:12.73Z</time></trkpt><trkpt lat="43.021465" lon="2.6439583"><ele>297.0</ele><time>2026-04-26T12:50:13.73Z</time></trkpt><trkpt lat="43.0215583" lon="2.6438967"><ele>297.0</ele><time>2026-04-26T12:50:14.73Z</time></trkpt><trkpt lat="43.0216633" lon="2.6438367"><ele>296.75</ele><time>2026-04-26T12:50:15.73Z</time></trkpt><trkpt lat="43.0217767" lon="2.6437717"><ele>296.5</ele><time>2026-04-26T12:50:16.729Z</time></trkpt><trkpt lat="43.0219" lon="2.643705"><ele>296.25</ele><time>2026-04-26T12:50:17.727Z</time></trkpt><trkpt lat="43.022025" lon="2.6436483"><ele>296.0</ele><time>2026-04-26T12:50:18.729Z</time></trkpt><trkpt lat="43.0221567" lon="2.6436"><ele>298.25</ele><time>2026-04-26T12:50:19.728Z</time></trkpt><trkpt lat="43.0222867" lon="2.64356"><ele>300.5</ele><time>2026-04-26T12:50:20.728Z</time></trkpt><trkpt lat="43.0224083" lon="2.6435167"><ele>302.75</ele><time>2026-04-26T12:50:21.728Z</time></trkpt><trkpt lat="43.02252" lon="2.6434817"><ele>305.0</ele><time>2026-04-26T12:50:22.728Z</time></trkpt><trkpt lat="43.02262" lon="2.6434517"><ele>305.0</ele><time>2026-04-26T12:50:23.729Z</time></trkpt><trkpt lat="43.0227117" lon="2.6434133"><ele>305.0</ele><time>2026-04-26T12:50:24.728Z</time></trkpt><trkpt lat="43.0227933" lon="2.6433533"><ele>305.0</ele><time>2026-04-26T12:50:25.728Z</time></trkpt><trkpt lat="43.0228717" lon="2.6432733"><ele>305.0</ele><time>2026-04-26T12:50:26.73Z</time></trkpt><trkpt lat="43.0229417" lon="2.6431867"><ele>305.0</ele><time>2026-04-26T12:50:27.733Z</time></trkpt><trkpt lat="43.0229667" lon="2.6431033"><ele>305.0</ele><time>2026-04-26T12:50:28.728Z</time></trkpt><trkpt lat="43.0229533" lon="2.6429617"><ele>305.0</ele><time>2026-04-26T12:50:30.73Z</time></trkpt><trkpt lat="43.0229" lon="2.6429117"><ele>305.0</ele><time>2026-04-26T12:50:31.728Z</time></trkpt><trkpt lat="43.0228217" lon="2.6428733"><ele>305.0</ele><time>2026-04-26T12:50:32.729Z</time></trkpt><trkpt lat="43.02275" lon="2.6428383"><ele>305.0</ele><time>2026-04-26T12:50:33.731Z</time></trkpt><trkpt lat="43.0226767" lon="2.642775"><ele>305.0</ele><time>2026-04-26T12:50:35.729Z</time></trkpt><trkpt lat="43.02278" lon="2.64278"><ele>305.0</ele><time>2026-04-26T12:50:38.729Z</time></trkpt><trkpt lat="43.0228517" lon="2.6428333"><ele>305.0</ele><time>2026-04-26T12:50:39.728Z</time></trkpt><trkpt lat="43.0229283" lon="2.6429"><ele>305.0</ele><time>2026-04-26T12:50:40.729Z</time></trkpt><trkpt lat="43.0230183" lon="2.6429767"><ele>305.0</ele><time>2026-04-26T12:50:41.729Z</time></trkpt><trkpt lat="43.0231083" lon="2.643055"><ele>305.0</ele><time>2026-04-26T12:50:42.73Z</time></trkpt><trkpt lat="43.0231917" lon="2.6431367"><ele>305.0</ele><time>2026-04-26T12:50:43.728Z</time></trkpt><trkpt lat="43.023265" lon="2.643205"><ele>304.1666666666667</ele><time>2026-04-26T12:50:44.729Z</time></trkpt><trkpt lat="43.02334" lon="2.6432683"><ele>303.33333333333337</ele><time>2026-04-26T12:50:45.729Z</time></trkpt><trkpt lat="43.02342" lon="2.6433183"><ele>302.5</ele><time>2026-04-26T12:50:46.73Z</time></trkpt><trkpt lat="43.023505" lon="2.6433483"><ele>301.6666666666667</ele><time>2026-04-26T12:50:47.728Z</time></trkpt><trkpt lat="43.0235917" lon="2.6433467"><ele>300.8333333333333</ele><time>2026-04-26T12:50:48.729Z</time></trkpt><trkpt lat="43.02368" lon="2.64336"><ele>300.0</ele><time>2026-04-26T12:50:49.728Z</time></trkpt><trkpt lat="43.023775" lon="2.6433967"><ele>300.0</ele><time>2026-04-26T12:50:50.729Z</time></trkpt><trkpt lat="43.02387" lon="2.64345"><ele>300.0</ele><time>2026-04-26T12:50:51.727Z</time></trkpt><trkpt lat="43.0239583" lon="2.643515"><ele>300.0</ele><time>2026-04-26T12:50:52.728Z</time></trkpt><trkpt lat="43.0240367" lon="2.6435867"><ele>300.0</ele><time>2026-04-26T12:50:53.729Z</time></trkpt><trkpt lat="43.0241083" lon="2.6436517"><ele>300.0</ele><time>2026-04-26T12:50:54.729Z</time></trkpt><trkpt lat="43.02418" lon="2.6436983"><ele>297.4</ele><time>2026-04-26T12:50:55.729Z</time></trkpt><trkpt lat="43.0242633" lon="2.6437233"><ele>294.8</ele><time>2026-04-26T12:50:56.728Z</time></trkpt><trkpt lat="43.0243617" lon="2.6437333"><ele>292.2</ele><time>2026-04-26T12:50:57.727Z</time></trkpt><trkpt lat="43.0244667" lon="2.6437483"><ele>289.6</ele><time>2026-04-26T12:50:58.729Z</time></trkpt><trkpt lat="43.0245783" lon="2.6437767"><ele>287.0</ele><time>2026-04-26T12:50:59.728Z</time></trkpt><trkpt lat="43.02469" lon="2.6438117"><ele>287.0</ele><time>2026-04-26T12:51:00.729Z</time></trkpt><trkpt lat="43.024795" lon="2.6438533"><ele>287.0</ele><time>2026-04-26T12:51:01.728Z</time></trkpt><trkpt lat="43.0249017" lon="2.6439033"><ele>287.0</ele><time>2026-04-26T12:51:02.729Z</time></trkpt><trkpt lat="43.0250133" lon="2.6439617"><ele>287.0</ele><time>2026-04-26T12:51:03.728Z</time></trkpt><trkpt lat="43.0251217" lon="2.6440217"><ele>286.4</ele><time>2026-04-26T12:51:04.731Z</time></trkpt><trkpt lat="43.025225" lon="2.64408"><ele>285.79999999999995</ele><time>2026-04-26T12:51:05.729Z</time></trkpt><trkpt lat="43.0253183" lon="2.644125"><ele>285.2</ele><time>2026-04-26T12:51:06.728Z</time></trkpt><trkpt lat="43.0254033" lon="2.6441567"><ele>284.59999999999997</ele><time>2026-04-26T12:51:07.732Z</time></trkpt><trkpt lat="43.02548" lon="2.6441833"><ele>284.0</ele><time>2026-04-26T12:51:08.731Z</time></trkpt><trkpt lat="43.0255517" lon="2.6442"><ele>284.0</ele><time>2026-04-26T12:51:09.729Z</time></trkpt><trkpt lat="43.0256183" lon="2.6442067"><ele>284.0</ele><time>2026-04-26T12:51:10.729Z</time></trkpt><trkpt lat="43.0257183" lon="2.64419"><ele>284.0</ele><time>2026-04-26T12:51:12.728Z</time></trkpt><trkpt lat="43.025755" lon="2.6440367"><ele>284.0</ele><time>2026-04-26T12:51:14.729Z</time></trkpt><trkpt lat="43.0257617" lon="2.643915"><ele>284.0</ele><time>2026-04-26T12:51:15.731Z</time></trkpt><trkpt lat="43.0257817" lon="2.6437767"><ele>284.0</ele><time>2026-04-26T12:51:16.729Z</time></trkpt><trkpt lat="43.025795" lon="2.6436417"><ele>284.0</ele><time>2026-04-26T12:51:17.729Z</time></trkpt><trkpt lat="43.0257883" lon="2.6435083"><ele>284.0</ele><time>2026-04-26T12:51:18.729Z</time></trkpt><trkpt lat="43.0257567" lon="2.64338"><ele>284.0</ele><time>2026-04-26T12:51:19.73Z</time></trkpt><trkpt lat="43.0257067" lon="2.6432517"><ele>284.0</ele><time>2026-04-26T12:51:20.731Z</time></trkpt><trkpt lat="43.0256467" lon="2.6431417"><ele>284.2</ele><time>2026-04-26T12:51:21.73Z</time></trkpt><trkpt lat="43.0255783" lon="2.64305"><ele>284.4</ele><time>2026-04-26T12:51:22.729Z</time></trkpt><trkpt lat="43.0254917" lon="2.6429833"><ele>284.6</ele><time>2026-04-26T12:51:23.73Z</time></trkpt><trkpt lat="43.0253967" lon="2.6429433"><ele>284.8</ele><time>2026-04-26T12:51:24.733Z</time></trkpt><trkpt lat="43.0252983" lon="2.64293"><ele>285.0</ele><time>2026-04-26T12:51:25.729Z</time></trkpt><trkpt lat="43.0252133" lon="2.6429133"><ele>285.0</ele><time>2026-04-26T12:51:26.73Z</time></trkpt><trkpt lat="43.0251483" lon="2.6428733"><ele>285.0</ele><time>2026-04-26T12:51:27.733Z</time></trkpt><trkpt lat="43.025115" lon="2.6426967"><ele>285.0</ele><time>2026-04-26T12:51:29.731Z</time></trkpt><trkpt lat="43.0251383" lon="2.642565"><ele>285.0</ele><time>2026-04-26T12:51:30.731Z</time></trkpt><trkpt lat="43.02517" lon="2.6424217"><ele>285.0</ele><time>2026-04-26T12:51:31.73Z</time></trkpt><trkpt lat="43.025205" lon="2.6422683"><ele>285.0</ele><time>2026-04-26T12:51:32.729Z</time></trkpt><trkpt lat="43.0252417" lon="2.642115"><ele>285.0</ele><time>2026-04-26T12:51:33.731Z</time></trkpt><trkpt lat="43.0252717" lon="2.6419617"><ele>285.0</ele><time>2026-04-26T12:51:34.729Z</time></trkpt><trkpt lat="43.0252917" lon="2.6418067"><ele>285.0</ele><time>2026-04-26T12:51:35.73Z</time></trkpt><trkpt lat="43.02532" lon="2.6416767"><ele>285.0</ele><time>2026-04-26T12:51:36.731Z</time></trkpt><trkpt lat="43.0253683" lon="2.64158"><ele>285.0</ele><time>2026-04-26T12:51:37.729Z</time></trkpt><trkpt lat="43.0254283" lon="2.6415133"><ele>285.0</ele><time>2026-04-26T12:51:38.729Z</time></trkpt><trkpt lat="43.0255017" lon="2.6414717"><ele>285.0</ele><time>2026-04-26T12:51:39.734Z</time></trkpt><trkpt lat="43.0255917" lon="2.64146"><ele>285.0</ele><time>2026-04-26T12:51:40.729Z</time></trkpt><trkpt lat="43.0256967" lon="2.64148"><ele>285.0</ele><time>2026-04-26T12:51:41.729Z</time></trkpt><trkpt lat="43.0258" lon="2.6415"><ele>283.2</ele><time>2026-04-26T12:51:42.729Z</time></trkpt><trkpt lat="43.025895" lon="2.641505"><ele>281.4</ele><time>2026-04-26T12:51:43.73Z</time></trkpt><trkpt lat="43.02599" lon="2.6414767"><ele>279.6</ele><time>2026-04-26T12:51:44.729Z</time></trkpt><trkpt lat="43.02609" lon="2.6414133"><ele>277.8</ele><time>2026-04-26T12:51:45.728Z</time></trkpt><trkpt lat="43.0261983" lon="2.641335"><ele>276.0</ele><time>2026-04-26T12:51:46.728Z</time></trkpt><trkpt lat="43.0263083" lon="2.6412733"><ele>276.0</ele><time>2026-04-26T12:51:47.729Z</time></trkpt><trkpt lat="43.0264117" lon="2.6412267"><ele>276.0</ele><time>2026-04-26T12:51:48.729Z</time></trkpt><trkpt lat="43.0265067" lon="2.6411917"><ele>276.0</ele><time>2026-04-26T12:51:49.73Z</time></trkpt><trkpt lat="43.026585" lon="2.6411783"><ele>276.0</ele><time>2026-04-26T12:51:50.728Z</time></trkpt><trkpt lat="43.0266533" lon="2.6411933"><ele>276.0</ele><time>2026-04-26T12:51:51.729Z</time></trkpt><trkpt lat="43.026725" lon="2.64125"><ele>276.0</ele><time>2026-04-26T12:51:52.73Z</time></trkpt><trkpt lat="43.0267983" lon="2.6413217"><ele>275.6</ele><time>2026-04-26T12:51:53.73Z</time></trkpt><trkpt lat="43.0268833" lon="2.64137"><ele>275.20000000000005</ele><time>2026-04-26T12:51:54.73Z</time></trkpt><trkpt lat="43.026975" lon="2.64139"><ele>274.79999999999995</ele><time>2026-04-26T12:51:55.731Z</time></trkpt><trkpt lat="43.0270683" lon="2.6413667"><ele>274.4</ele><time>2026-04-26T12:51:56.729Z</time></trkpt><trkpt lat="43.0271533" lon="2.6413067"><ele>274.0</ele><time>2026-04-26T12:51:57.729Z</time></trkpt><trkpt lat="43.0272233" lon="2.6412283"><ele>274.0</ele><time>2026-04-26T12:51:58.729Z</time></trkpt><trkpt lat="43.0272867" lon="2.6411483"><ele>274.0</ele><time>2026-04-26T12:51:59.73Z</time></trkpt><trkpt lat="43.0273483" lon="2.6410733"><ele>274.0</ele><time>2026-04-26T12:52:00.73Z</time></trkpt><trkpt lat="43.02741" lon="2.6410217"><ele>274.0</ele><time>2026-04-26T12:52:01.728Z</time></trkpt><trkpt lat="43.0274783" lon="2.64103"><ele>274.0</ele><time>2026-04-26T12:52:02.728Z</time></trkpt><trkpt lat="43.02756" lon="2.641085"><ele>274.0</ele><time>2026-04-26T12:52:03.729Z</time></trkpt><trkpt lat="43.02764" lon="2.6411517"><ele>273.4</ele><time>2026-04-26T12:52:04.728Z</time></trkpt><trkpt lat="43.02772" lon="2.6412333"><ele>272.79999999999995</ele><time>2026-04-26T12:52:05.728Z</time></trkpt><trkpt lat="43.0278033" lon="2.6413183"><ele>272.20000000000005</ele><time>2026-04-26T12:52:06.728Z</time></trkpt><trkpt lat="43.0278867" lon="2.6413883"><ele>271.6</ele><time>2026-04-26T12:52:07.728Z</time></trkpt><trkpt lat="43.0279667" lon="2.6414567"><ele>271.0</ele><time>2026-04-26T12:52:08.729Z</time></trkpt><trkpt lat="43.02804" lon="2.6415367"><ele>271.0</ele><time>2026-04-26T12:52:09.729Z</time></trkpt><trkpt lat="43.0280933" lon="2.6416533"><ele>271.0</ele><time>2026-04-26T12:52:10.729Z</time></trkpt><trkpt lat="43.0281417" lon="2.6417767"><ele>271.0</ele><time>2026-04-26T12:52:11.729Z</time></trkpt><trkpt lat="43.0281917" lon="2.6418817"><ele>271.0</ele><time>2026-04-26T12:52:12.73Z</time></trkpt><trkpt lat="43.02825" lon="2.6419667"><ele>271.0</ele><time>2026-04-26T12:52:13.729Z</time></trkpt><trkpt lat="43.0283167" lon="2.642025"><ele>270.8333333333333</ele><time>2026-04-26T12:52:14.729Z</time></trkpt><trkpt lat="43.0283733" lon="2.6420633"><ele>270.66666666666663</ele><time>2026-04-26T12:52:15.816Z</time></trkpt><trkpt lat="43.0284333" lon="2.6421517"><ele>270.5</ele><time>2026-04-26T12:52:17.728Z</time></trkpt><trkpt lat="43.0283517" lon="2.64228"><ele>270.3333333333333</ele><time>2026-04-26T12:52:19.729Z</time></trkpt><trkpt lat="43.0282933" lon="2.6423567"><ele>270.1666666666667</ele><time>2026-04-26T12:52:20.731Z</time></trkpt><trkpt lat="43.0282433" lon="2.6424617"><ele>270.0</ele><time>2026-04-26T12:52:21.729Z</time></trkpt><trkpt lat="43.028205" lon="2.6425867"><ele>270.0</ele><time>2026-04-26T12:52:22.731Z</time></trkpt><trkpt lat="43.0281867" lon="2.64275"><ele>270.0</ele><time>2026-04-26T12:52:23.728Z</time></trkpt><trkpt lat="43.02817" lon="2.6429183"><ele>270.0</ele><time>2026-04-26T12:52:24.731Z</time></trkpt><trkpt lat="43.0281517" lon="2.64308"><ele>270.0</ele><time>2026-04-26T12:52:25.729Z</time></trkpt><trkpt lat="43.0281417" lon="2.6432317"><ele>269.2</ele><time>2026-04-26T12:52:26.73Z</time></trkpt><trkpt lat="43.0281433" lon="2.6433783"><ele>268.4</ele><time>2026-04-26T12:52:27.729Z</time></trkpt><trkpt lat="43.028155" lon="2.6435133"><ele>267.6</ele><time>2026-04-26T12:52:28.728Z</time></trkpt><trkpt lat="43.028185" lon="2.6436367"><ele>266.8</ele><time>2026-04-26T12:52:29.732Z</time></trkpt><trkpt lat="43.02824" lon="2.6437483"><ele>266.0</ele><time>2026-04-26T12:52:30.729Z</time></trkpt><trkpt lat="43.0283117" lon="2.6438583"><ele>266.0</ele><time>2026-04-26T12:52:31.729Z</time></trkpt><trkpt lat="43.0283917" lon="2.643975"><ele>266.0</ele><time>2026-04-26T12:52:32.728Z</time></trkpt><trkpt lat="43.0284683" lon="2.644095"><ele>266.0</ele><time>2026-04-26T12:52:33.728Z</time></trkpt><trkpt lat="43.0285383" lon="2.6442167"><ele>266.0</ele><time>2026-04-26T12:52:34.732Z</time></trkpt><trkpt lat="43.028595" lon="2.64434"><ele>265.75</ele><time>2026-04-26T12:52:35.729Z</time></trkpt><trkpt lat="43.02863" lon="2.64448"><ele>265.5</ele><time>2026-04-26T12:52:36.73Z</time></trkpt><trkpt lat="43.028645" lon="2.64464"><ele>265.25</ele><time>2026-04-26T12:52:37.729Z</time></trkpt><trkpt lat="43.0286533" lon="2.6448017"><ele>265.0</ele><time>2026-04-26T12:52:38.731Z</time></trkpt><trkpt lat="43.0286567" lon="2.644955"><ele>265.0</ele><time>2026-04-26T12:52:39.729Z</time></trkpt><trkpt lat="43.028645" lon="2.6450933"><ele>265.0</ele><time>2026-04-26T12:52:40.728Z</time></trkpt><trkpt lat="43.028625" lon="2.645225"><ele>265.0</ele><time>2026-04-26T12:52:41.729Z</time></trkpt><trkpt lat="43.0286167" lon="2.6453533"><ele>265.0</ele><time>2026-04-26T12:52:42.73Z</time></trkpt><trkpt lat="43.0286267" lon="2.6454933"><ele>265.0</ele><time>2026-04-26T12:52:43.729Z</time></trkpt><trkpt lat="43.0286567" lon="2.64563"><ele>264.0</ele><time>2026-04-26T12:52:44.729Z</time></trkpt><trkpt lat="43.028705" lon="2.645755"><ele>263.0</ele><time>2026-04-26T12:52:45.731Z</time></trkpt><trkpt lat="43.0287717" lon="2.6458583"><ele>262.0</ele><time>2026-04-26T12:52:46.733Z</time></trkpt><trkpt lat="43.028845" lon="2.6459517"><ele>261.0</ele><time>2026-04-26T12:52:47.729Z</time></trkpt><trkpt lat="43.0289083" lon="2.64605"><ele>260.0</ele><time>2026-04-26T12:52:48.729Z</time></trkpt><trkpt lat="43.028955" lon="2.6461633"><ele>258.8</ele><time>2026-04-26T12:52:49.731Z</time></trkpt><trkpt lat="43.02898" lon="2.6463"><ele>257.6</ele><time>2026-04-26T12:52:50.73Z</time></trkpt><trkpt lat="43.0289917" lon="2.64645"><ele>256.4</ele><time>2026-04-26T12:52:51.73Z</time></trkpt><trkpt lat="43.029" lon="2.6466067"><ele>255.2</ele><time>2026-04-26T12:52:52.73Z</time></trkpt><trkpt lat="43.0290117" lon="2.6467583"><ele>254.0</ele><time>2026-04-26T12:52:53.732Z</time></trkpt><trkpt lat="43.02902" lon="2.6469017"><ele>254.0</ele><time>2026-04-26T12:52:54.73Z</time></trkpt><trkpt lat="43.029025" lon="2.6470333"><ele>253.99999999999997</ele><time>2026-04-26T12:52:55.729Z</time></trkpt><trkpt lat="43.0290267" lon="2.6471567"><ele>253.99999999999997</ele><time>2026-04-26T12:52:56.731Z</time></trkpt><trkpt lat="43.0290333" lon="2.6472917"><ele>254.0</ele><time>2026-04-26T12:52:57.729Z</time></trkpt><trkpt lat="43.029045" lon="2.6474483"><ele>254.0</ele><time>2026-04-26T12:52:58.729Z</time></trkpt><trkpt lat="43.0290633" lon="2.6476217"><ele>254.5</ele><time>2026-04-26T12:52:59.732Z</time></trkpt><trkpt lat="43.0290883" lon="2.6478067"><ele>255.0</ele><time>2026-04-26T12:53:00.73Z</time></trkpt><trkpt lat="43.0291233" lon="2.6479983"><ele>255.5</ele><time>2026-04-26T12:53:01.73Z</time></trkpt><trkpt lat="43.029165" lon="2.6481933"><ele>256.0</ele><time>2026-04-26T12:53:02.73Z</time></trkpt><trkpt lat="43.0292017" lon="2.64839"><ele>254.5</ele><time>2026-04-26T12:53:03.73Z</time></trkpt><trkpt lat="43.0292283" lon="2.6485883"><ele>253.0</ele><time>2026-04-26T12:53:04.729Z</time></trkpt><trkpt lat="43.0292483" lon="2.64878"><ele>251.5</ele><time>2026-04-26T12:53:05.728Z</time></trkpt><trkpt lat="43.0292717" lon="2.6489733"><ele>250.0</ele><time>2026-04-26T12:53:06.73Z</time></trkpt><trkpt lat="43.0292983" lon="2.6491617"><ele>249.5</ele><time>2026-04-26T12:53:07.729Z</time></trkpt><trkpt lat="43.0293167" lon="2.649335"><ele>249.0</ele><time>2026-04-26T12:53:08.731Z</time></trkpt><trkpt lat="43.029325" lon="2.6494983"><ele>248.5</ele><time>2026-04-26T12:53:09.73Z</time></trkpt><trkpt lat="43.029325" lon="2.649655"><ele>248.0</ele><time>2026-04-26T12:53:10.729Z</time></trkpt><trkpt lat="43.0293267" lon="2.6498083"><ele>248.4</ele><time>2026-04-26T12:53:11.728Z</time></trkpt><trkpt lat="43.0293367" lon="2.6499617"><ele>248.8</ele><time>2026-04-26T12:53:12.73Z</time></trkpt><trkpt lat="43.0293567" lon="2.6501167"><ele>249.2</ele><time>2026-04-26T12:53:13.729Z</time></trkpt><trkpt lat="43.0293817" lon="2.65026"><ele>249.6</ele><time>2026-04-26T12:53:14.728Z</time></trkpt><trkpt lat="43.0294" lon="2.65039"><ele>250.0</ele><time>2026-04-26T12:53:15.728Z</time></trkpt><trkpt lat="43.0294033" lon="2.6505"><ele>250.0</ele><time>2026-04-26T12:53:16.729Z</time></trkpt><trkpt lat="43.02939" lon="2.6506"><ele>250.0</ele><time>2026-04-26T12:53:17.729Z</time></trkpt><trkpt lat="43.0293567" lon="2.6507"><ele>250.0</ele><time>2026-04-26T12:53:18.729Z</time></trkpt><trkpt lat="43.0292967" lon="2.6508"><ele>250.0</ele><time>2026-04-26T12:53:19.732Z</time></trkpt><trkpt lat="43.029205" lon="2.6509067"><ele>250.0</ele><time>2026-04-26T12:53:20.728Z</time></trkpt><trkpt lat="43.0291217" lon="2.6510267"><ele>246.75</ele><time>2026-04-26T12:53:21.727Z</time></trkpt><trkpt lat="43.0290467" lon="2.6511717"><ele>243.5</ele><time>2026-04-26T12:53:22.728Z</time></trkpt><trkpt lat="43.0289783" lon="2.6513283"><ele>240.25</ele><time>2026-04-26T12:53:23.729Z</time></trkpt><trkpt lat="43.0289183" lon="2.6514867"><ele>237.0</ele><time>2026-04-26T12:53:24.731Z</time></trkpt><trkpt lat="43.028865" lon="2.651645"><ele>237.0</ele><time>2026-04-26T12:53:25.729Z</time></trkpt><trkpt lat="43.028805" lon="2.6517933"><ele>237.0</ele><time>2026-04-26T12:53:26.729Z</time></trkpt><trkpt lat="43.0287383" lon="2.6519433"><ele>237.0</ele><time>2026-04-26T12:53:27.728Z</time></trkpt><trkpt lat="43.02868" lon="2.652095"><ele>237.0</ele><time>2026-04-26T12:53:28.729Z</time></trkpt><trkpt lat="43.0286317" lon="2.6522433"><ele>237.25</ele><time>2026-04-26T12:53:29.728Z</time></trkpt><trkpt lat="43.028595" lon="2.6523967"><ele>237.5</ele><time>2026-04-26T12:53:30.728Z</time></trkpt><trkpt lat="43.02857" lon="2.6525633"><ele>237.75</ele><time>2026-04-26T12:53:31.729Z</time></trkpt><trkpt lat="43.02856" lon="2.65273"><ele>238.0</ele><time>2026-04-26T12:53:32.737Z</time></trkpt><trkpt lat="43.0285417" lon="2.6528983"><ele>238.5</ele><time>2026-04-26T12:53:33.731Z</time></trkpt><trkpt lat="43.0285183" lon="2.6530667"><ele>239.0</ele><time>2026-04-26T12:53:34.729Z</time></trkpt><trkpt lat="43.0284883" lon="2.6532383"><ele>239.5</ele><time>2026-04-26T12:53:35.728Z</time></trkpt><trkpt lat="43.0284533" lon="2.6534083"><ele>240.0</ele><time>2026-04-26T12:53:36.729Z</time></trkpt><trkpt lat="43.0284133" lon="2.6535817"><ele>240.0</ele><time>2026-04-26T12:53:37.727Z</time></trkpt><trkpt lat="43.02838" lon="2.6537517"><ele>240.0</ele><time>2026-04-26T12:53:38.731Z</time></trkpt><trkpt lat="43.0283567" lon="2.65392"><ele>240.0</ele><time>2026-04-26T12:53:39.728Z</time></trkpt><trkpt lat="43.0283417" lon="2.6540867"><ele>240.0</ele><time>2026-04-26T12:53:40.728Z</time></trkpt><trkpt lat="43.028345" lon="2.6542433"><ele>240.0</ele><time>2026-04-26T12:53:41.729Z</time></trkpt><trkpt lat="43.0283667" lon="2.654405"><ele>240.0</ele><time>2026-04-26T12:53:42.728Z</time></trkpt><trkpt lat="43.0283967" lon="2.6545617"><ele>240.0</ele><time>2026-04-26T12:53:43.728Z</time></trkpt><trkpt lat="43.0284317" lon="2.654705"><ele>240.0</ele><time>2026-04-26T12:53:44.729Z</time></trkpt><trkpt lat="43.0284767" lon="2.6548317"><ele>240.0</ele><time>2026-04-26T12:53:45.727Z</time></trkpt><trkpt lat="43.028535" lon="2.6549317"><ele>240.0</ele><time>2026-04-26T12:53:46.728Z</time></trkpt><trkpt lat="43.028595" lon="2.6550217"><ele>240.0</ele><time>2026-04-26T12:53:47.729Z</time></trkpt><trkpt lat="43.0286483" lon="2.65511"><ele>240.0</ele><time>2026-04-26T12:53:48.728Z</time></trkpt><trkpt lat="43.02869" lon="2.6552083"><ele>240.0</ele><time>2026-04-26T12:53:49.731Z</time></trkpt><trkpt lat="43.0287133" lon="2.65532"><ele>240.0</ele><time>2026-04-26T12:53:50.729Z</time></trkpt><trkpt lat="43.0287133" lon="2.6554417"><ele>238.6</ele><time>2026-04-26T12:53:51.73Z</time></trkpt><trkpt lat="43.0286983" lon="2.65556"><ele>237.2</ele><time>2026-04-26T12:53:52.73Z</time></trkpt><trkpt lat="43.0286783" lon="2.6556717"><ele>235.8</ele><time>2026-04-26T12:53:53.729Z</time></trkpt><trkpt lat="43.0286667" lon="2.655775"><ele>234.4</ele><time>2026-04-26T12:53:54.73Z</time></trkpt><trkpt lat="43.02868" lon="2.6559233"><ele>233.0</ele><time>2026-04-26T12:53:56.731Z</time></trkpt><trkpt lat="43.02877" lon="2.65599"><ele>233.0</ele><time>2026-04-26T12:53:58.728Z</time></trkpt><trkpt lat="43.0288567" lon="2.6560083"><ele>233.0</ele><time>2026-04-26T12:53:59.73Z</time></trkpt><trkpt lat="43.0289683" lon="2.6560333"><ele>233.0</ele><time>2026-04-26T12:54:00.728Z</time></trkpt><trkpt lat="43.0290883" lon="2.65607"><ele>233.0</ele><time>2026-04-26T12:54:01.732Z</time></trkpt><trkpt lat="43.02922" lon="2.6561133"><ele>233.66666666666669</ele><time>2026-04-26T12:54:02.732Z</time></trkpt><trkpt lat="43.0293617" lon="2.65616"><ele>234.33333333333331</ele><time>2026-04-26T12:54:03.73Z</time></trkpt><trkpt lat="43.02951" lon="2.65621"><ele>235.0</ele><time>2026-04-26T12:54:04.729Z</time></trkpt><trkpt lat="43.0296583" lon="2.65626"><ele>235.0</ele><time>2026-04-26T12:54:05.73Z</time></trkpt><trkpt lat="43.0298083" lon="2.656315"><ele>235.0</ele><time>2026-04-26T12:54:06.731Z</time></trkpt><trkpt lat="43.0299617" lon="2.6563667"><ele>235.0</ele><time>2026-04-26T12:54:07.73Z</time></trkpt><trkpt lat="43.0301083" lon="2.656415"><ele>233.75</ele><time>2026-04-26T12:54:08.731Z</time></trkpt><trkpt lat="43.030245" lon="2.6564667"><ele>232.5</ele><time>2026-04-26T12:54:09.729Z</time></trkpt><trkpt lat="43.0303717" lon="2.6565183"><ele>231.25</ele><time>2026-04-26T12:54:10.728Z</time></trkpt><trkpt lat="43.0304917" lon="2.656565"><ele>230.0</ele><time>2026-04-26T12:54:11.736Z</time></trkpt><trkpt lat="43.0306033" lon="2.6566017"><ele>230.0</ele><time>2026-04-26T12:54:12.73Z</time></trkpt><trkpt lat="43.0307033" lon="2.6566383"><ele>230.0</ele><time>2026-04-26T12:54:13.729Z</time></trkpt><trkpt lat="43.0307883" lon="2.656665"><ele>230.0</ele><time>2026-04-26T12:54:14.732Z</time></trkpt><trkpt lat="43.0308533" lon="2.65667"><ele>230.0</ele><time>2026-04-26T12:54:15.729Z</time></trkpt><trkpt lat="43.030945" lon="2.6566317"><ele>230.0</ele><time>2026-04-26T12:54:17.73Z</time></trkpt><trkpt lat="43.0310367" lon="2.6565117"><ele>229.4</ele><time>2026-04-26T12:54:19.731Z</time></trkpt><trkpt lat="43.031105" lon="2.65644"><ele>228.8</ele><time>2026-04-26T12:54:20.728Z</time></trkpt><trkpt lat="43.0311917" lon="2.6563633"><ele>228.2</ele><time>2026-04-26T12:54:21.728Z</time></trkpt><trkpt lat="43.0312833" lon="2.6562883"><ele>227.6</ele><time>2026-04-26T12:54:22.727Z</time></trkpt><trkpt lat="43.0313783" lon="2.6562217"><ele>227.0</ele><time>2026-04-26T12:54:23.728Z</time></trkpt><trkpt lat="43.0314817" lon="2.6561767"><ele>227.0</ele><time>2026-04-26T12:54:24.73Z</time></trkpt><trkpt lat="43.0315883" lon="2.6561567"><ele>227.0</ele><time>2026-04-26T12:54:25.729Z</time></trkpt><trkpt lat="43.0317067" lon="2.656145"><ele>227.0</ele><time>2026-04-26T12:54:26.728Z</time></trkpt><trkpt lat="43.0318283" lon="2.6561167"><ele>227.0</ele><time>2026-04-26T12:54:27.727Z</time></trkpt><trkpt lat="43.0319417" lon="2.65607"><ele>228.2</ele><time>2026-04-26T12:54:28.729Z</time></trkpt><trkpt lat="43.0320467" lon="2.656005"><ele>229.39999999999998</ele><time>2026-04-26T12:54:29.729Z</time></trkpt><trkpt lat="43.0321433" lon="2.655915"><ele>230.60000000000002</ele><time>2026-04-26T12:54:30.729Z</time></trkpt><trkpt lat="43.0322333" lon="2.6558233"><ele>231.8</ele><time>2026-04-26T12:54:31.729Z</time></trkpt><trkpt lat="43.0323217" lon="2.6557467"><ele>233.0</ele><time>2026-04-26T12:54:32.73Z</time></trkpt><trkpt lat="43.0324217" lon="2.655705"><ele>233.8</ele><time>2026-04-26T12:54:33.729Z</time></trkpt><trkpt lat="43.0325233" lon="2.65568"><ele>234.60000000000002</ele><time>2026-04-26T12:54:34.729Z</time></trkpt><trkpt lat="43.0326117" lon="2.6556467"><ele>235.39999999999998</ele><time>2026-04-26T12:54:35.729Z</time></trkpt><trkpt lat="43.032685" lon="2.6555833"><ele>236.2</ele><time>2026-04-26T12:54:36.729Z</time></trkpt><trkpt lat="43.0327467" lon="2.65548"><ele>237.0</ele><time>2026-04-26T12:54:37.729Z</time></trkpt><trkpt lat="43.0327983" lon="2.65535"><ele>237.75</ele><time>2026-04-26T12:54:38.73Z</time></trkpt><trkpt lat="43.0328433" lon="2.65519"><ele>238.5</ele><time>2026-04-26T12:54:39.733Z</time></trkpt><trkpt lat="43.0328833" lon="2.6550217"><ele>239.25</ele><time>2026-04-26T12:54:40.73Z</time></trkpt><trkpt lat="43.032925" lon="2.6548467"><ele>240.0</ele><time>2026-04-26T12:54:41.729Z</time></trkpt><trkpt lat="43.0329783" lon="2.65467"><ele>240.0</ele><time>2026-04-26T12:54:42.732Z</time></trkpt><trkpt lat="43.0330317" lon="2.654495"><ele>240.0</ele><time>2026-04-26T12:54:43.728Z</time></trkpt><trkpt lat="43.0330767" lon="2.65433"><ele>240.0</ele><time>2026-04-26T12:54:44.731Z</time></trkpt><trkpt lat="43.03312" lon="2.6541883"><ele>240.0</ele><time>2026-04-26T12:54:45.728Z</time></trkpt><trkpt lat="43.0331617" lon="2.65407"><ele>240.0</ele><time>2026-04-26T12:54:46.727Z</time></trkpt><trkpt lat="43.03321" lon="2.653985"><ele>240.0</ele><time>2026-04-26T12:54:47.731Z</time></trkpt><trkpt lat="43.0332667" lon="2.6539183"><ele>240.0</ele><time>2026-04-26T12:54:48.732Z</time></trkpt><trkpt lat="43.0333283" lon="2.6538617"><ele>240.0</ele><time>2026-04-26T12:54:49.728Z</time></trkpt><trkpt lat="43.0333883" lon="2.65379"><ele>240.0</ele><time>2026-04-26T12:54:50.728Z</time></trkpt><trkpt lat="43.0334383" lon="2.653695"><ele>240.0</ele><time>2026-04-26T12:54:51.728Z</time></trkpt><trkpt lat="43.0334933" lon="2.6535933"><ele>240.2</ele><time>2026-04-26T12:54:52.729Z</time></trkpt><trkpt lat="43.0335667" lon="2.6535"><ele>240.4</ele><time>2026-04-26T12:54:53.728Z</time></trkpt><trkpt lat="43.0336467" lon="2.6534317"><ele>240.60000000000002</ele><time>2026-04-26T12:54:54.728Z</time></trkpt><trkpt lat="43.0337283" lon="2.653395"><ele>240.8</ele><time>2026-04-26T12:54:55.728Z</time></trkpt><trkpt lat="43.0338167" lon="2.6533967"><ele>241.0</ele><time>2026-04-26T12:54:56.729Z</time></trkpt><trkpt lat="43.03392" lon="2.653445"><ele>241.0</ele><time>2026-04-26T12:54:57.729Z</time></trkpt><trkpt lat="43.0340267" lon="2.6535133"><ele>241.0</ele><time>2026-04-26T12:54:58.729Z</time></trkpt><trkpt lat="43.034135" lon="2.653575"><ele>241.0</ele><time>2026-04-26T12:54:59.728Z</time></trkpt><trkpt lat="43.0342417" lon="2.653635"><ele>241.0</ele><time>2026-04-26T12:55:00.728Z</time></trkpt><trkpt lat="43.034345" lon="2.6536883"><ele>239.60000000000002</ele><time>2026-04-26T12:55:01.73Z</time></trkpt><trkpt lat="43.0344417" lon="2.653735"><ele>238.20000000000002</ele><time>2026-04-26T12:55:02.733Z</time></trkpt><trkpt lat="43.0345383" lon="2.65378"><ele>236.79999999999998</ele><time>2026-04-26T12:55:03.728Z</time></trkpt><trkpt lat="43.034625" lon="2.6538217"><ele>235.39999999999998</ele><time>2026-04-26T12:55:04.734Z</time></trkpt><trkpt lat="43.0347033" lon="2.6538567"><ele>234.0</ele><time>2026-04-26T12:55:05.729Z</time></trkpt><trkpt lat="43.0347733" lon="2.65387"><ele>234.0</ele><time>2026-04-26T12:55:06.729Z</time></trkpt><trkpt lat="43.0348583" lon="2.6537783"><ele>234.0</ele><time>2026-04-26T12:55:08.729Z</time></trkpt><trkpt lat="43.0349533" lon="2.6537117"><ele>234.0</ele><time>2026-04-26T12:55:10.729Z</time></trkpt><trkpt lat="43.0350717" lon="2.653825"><ele>234.0</ele><time>2026-04-26T12:55:12.728Z</time></trkpt><trkpt lat="43.0351467" lon="2.6539"><ele>233.2</ele><time>2026-04-26T12:55:13.728Z</time></trkpt><trkpt lat="43.0352283" lon="2.653975"><ele>232.39999999999998</ele><time>2026-04-26T12:55:14.73Z</time></trkpt><trkpt lat="43.0353117" lon="2.65405"><ele>231.6</ele><time>2026-04-26T12:55:15.728Z</time></trkpt><trkpt lat="43.03539" lon="2.6541167"><ele>230.8</ele><time>2026-04-26T12:55:16.728Z</time></trkpt><trkpt lat="43.0354717" lon="2.65417"><ele>230.0</ele><time>2026-04-26T12:55:17.729Z</time></trkpt><trkpt lat="43.0355517" lon="2.65421"><ele>230.0</ele><time>2026-04-26T12:55:18.73Z</time></trkpt><trkpt lat="43.0356383" lon="2.65423"><ele>230.0</ele><time>2026-04-26T12:55:19.729Z</time></trkpt><trkpt lat="43.03573" lon="2.6542283"><ele>230.0</ele><time>2026-04-26T12:55:20.73Z</time></trkpt><trkpt lat="43.0358333" lon="2.6542067"><ele>230.0</ele><time>2026-04-26T12:55:21.729Z</time></trkpt><trkpt lat="43.03593" lon="2.654185"><ele>230.0</ele><time>2026-04-26T12:55:22.729Z</time></trkpt><trkpt lat="43.036015" lon="2.6541767"><ele>229.6</ele><time>2026-04-26T12:55:23.729Z</time></trkpt><trkpt lat="43.0360833" lon="2.654195"><ele>229.2</ele><time>2026-04-26T12:55:24.732Z</time></trkpt><trkpt lat="43.0361483" lon="2.6542583"><ele>228.8</ele><time>2026-04-26T12:55:25.727Z</time></trkpt><trkpt lat="43.036215" lon="2.6543433"><ele>228.4</ele><time>2026-04-26T12:55:26.729Z</time></trkpt><trkpt lat="43.0363033" lon="2.65442"><ele>228.0</ele><time>2026-04-26T12:55:27.729Z</time></trkpt><trkpt lat="43.0364133" lon="2.6544817"><ele>227.2</ele><time>2026-04-26T12:55:28.731Z</time></trkpt><trkpt lat="43.036515" lon="2.65454"><ele>226.4</ele><time>2026-04-26T12:55:29.731Z</time></trkpt><trkpt lat="43.03661" lon="2.6546033"><ele>225.59999999999997</ele><time>2026-04-26T12:55:30.728Z</time></trkpt><trkpt lat="43.0366867" lon="2.6546767"><ele>224.79999999999998</ele><time>2026-04-26T12:55:31.728Z</time></trkpt><trkpt lat="43.03674" lon="2.6547567"><ele>224.0</ele><time>2026-04-26T12:55:32.731Z</time></trkpt><trkpt lat="43.0367817" lon="2.6548367"><ele>223.6</ele><time>2026-04-26T12:55:33.732Z</time></trkpt><trkpt lat="43.03679" lon="2.6550133"><ele>223.2</ele><time>2026-04-26T12:55:35.728Z</time></trkpt><trkpt lat="43.0367733" lon="2.6551283"><ele>222.79999999999998</ele><time>2026-04-26T12:55:36.729Z</time></trkpt><trkpt lat="43.03676" lon="2.655245"><ele>222.39999999999998</ele><time>2026-04-26T12:55:37.731Z</time></trkpt><trkpt lat="43.0367533" lon="2.6553517"><ele>222.0</ele><time>2026-04-26T12:55:38.731Z</time></trkpt><trkpt lat="43.0367817" lon="2.6554833"><ele>222.0</ele><time>2026-04-26T12:55:40.73Z</time></trkpt><trkpt lat="43.0368883" lon="2.6555417"><ele>222.0</ele><time>2026-04-26T12:55:42.733Z</time></trkpt><trkpt lat="43.0369667" lon="2.6555817"><ele>222.0</ele><time>2026-04-26T12:55:43.728Z</time></trkpt><trkpt lat="43.03705" lon="2.6556417"><ele>222.0</ele><time>2026-04-26T12:55:44.73Z</time></trkpt><trkpt lat="43.03712" lon="2.6557167"><ele>222.0</ele><time>2026-04-26T12:55:45.729Z</time></trkpt><trkpt lat="43.0371767" lon="2.6558017"><ele>222.0</ele><time>2026-04-26T12:55:46.729Z</time></trkpt><trkpt lat="43.037205" lon="2.655895"><ele>222.0</ele><time>2026-04-26T12:55:47.729Z</time></trkpt><trkpt lat="43.03721" lon="2.656"><ele>222.0</ele><time>2026-04-26T12:55:48.728Z</time></trkpt><trkpt lat="43.0372117" lon="2.6560983"><ele>222.0</ele><time>2026-04-26T12:55:49.73Z</time></trkpt><trkpt lat="43.037235" lon="2.6561933"><ele>222.0</ele><time>2026-04-26T12:55:50.73Z</time></trkpt><trkpt lat="43.03728" lon="2.656275"><ele>222.0</ele><time>2026-04-26T12:55:51.728Z</time></trkpt><trkpt lat="43.0373467" lon="2.656345"><ele>219.75</ele><time>2026-04-26T12:55:52.728Z</time></trkpt><trkpt lat="43.037435" lon="2.6563967"><ele>217.5</ele><time>2026-04-26T12:55:53.729Z</time></trkpt><trkpt lat="43.0375467" lon="2.6564417"><ele>215.25</ele><time>2026-04-26T12:55:54.729Z</time></trkpt><trkpt lat="43.0376583" lon="2.6564933"><ele>213.0</ele><time>2026-04-26T12:55:55.728Z</time></trkpt><trkpt lat="43.03777" lon="2.6565633"><ele>212.75</ele><time>2026-04-26T12:55:56.73Z</time></trkpt><trkpt lat="43.0378683" lon="2.656655"><ele>212.5</ele><time>2026-04-26T12:55:57.728Z</time></trkpt><trkpt lat="43.0379567" lon="2.6567583"><ele>212.25</ele><time>2026-04-26T12:55:58.728Z</time></trkpt><trkpt lat="43.0380433" lon="2.6568533"><ele>212.0</ele><time>2026-04-26T12:55:59.728Z</time></trkpt><trkpt lat="43.0381217" lon="2.6569517"><ele>210.6</ele><time>2026-04-26T12:56:00.728Z</time></trkpt><trkpt lat="43.0381917" lon="2.6570633"><ele>209.2</ele><time>2026-04-26T12:56:01.729Z</time></trkpt><trkpt lat="43.03825" lon="2.6571917"><ele>207.8</ele><time>2026-04-26T12:56:02.728Z</time></trkpt><trkpt lat="43.0383" lon="2.657325"><ele>206.4</ele><time>2026-04-26T12:56:03.728Z</time></trkpt><trkpt lat="43.0383483" lon="2.6574583"><ele>205.0</ele><time>2026-04-26T12:56:04.728Z</time></trkpt><trkpt lat="43.0383883" lon="2.6575883"><ele>204.2</ele><time>2026-04-26T12:56:05.728Z</time></trkpt><trkpt lat="43.0384083" lon="2.657715"><ele>203.4</ele><time>2026-04-26T12:56:06.731Z</time></trkpt><trkpt lat="43.0383917" lon="2.65784"><ele>202.60000000000002</ele><time>2026-04-26T12:56:07.728Z</time></trkpt><trkpt lat="43.0383517" lon="2.6579667"><ele>201.8</ele><time>2026-04-26T12:56:08.728Z</time></trkpt><trkpt lat="43.0382933" lon="2.6580967"><ele>201.0</ele><time>2026-04-26T12:56:09.729Z</time></trkpt><trkpt lat="43.0382367" lon="2.6582333"><ele>201.0</ele><time>2026-04-26T12:56:10.729Z</time></trkpt><trkpt lat="43.038195" lon="2.6583733"><ele>201.0</ele><time>2026-04-26T12:56:11.728Z</time></trkpt><trkpt lat="43.038175" lon="2.6585117"><ele>201.0</ele><time>2026-04-26T12:56:12.73Z</time></trkpt><trkpt lat="43.0381667" lon="2.6586433"><ele>201.0</ele><time>2026-04-26T12:56:13.728Z</time></trkpt><trkpt lat="43.0381717" lon="2.6587617"><ele>201.0</ele><time>2026-04-26T12:56:14.728Z</time></trkpt><trkpt lat="43.038185" lon="2.6588517"><ele>200.8</ele><time>2026-04-26T12:56:15.729Z</time></trkpt><trkpt lat="43.0382767" lon="2.6589417"><ele>200.60000000000002</ele><time>2026-04-26T12:56:17.732Z</time></trkpt><trkpt lat="43.0383567" lon="2.65894"><ele>200.4</ele><time>2026-04-26T12:56:18.729Z</time></trkpt><trkpt lat="43.03845" lon="2.65892"><ele>200.2</ele><time>2026-04-26T12:56:19.728Z</time></trkpt><trkpt lat="43.0385767" lon="2.65888"><ele>200.0</ele><time>2026-04-26T12:56:20.73Z</time></trkpt><trkpt lat="43.038715" lon="2.6588417"><ele>200.0</ele><time>2026-04-26T12:56:21.732Z</time></trkpt><trkpt lat="43.0388683" lon="2.6588033"><ele>200.0</ele><time>2026-04-26T12:56:22.731Z</time></trkpt><trkpt lat="43.0390283" lon="2.65876"><ele>200.0</ele><time>2026-04-26T12:56:23.728Z</time></trkpt><trkpt lat="43.0391883" lon="2.6587183"><ele>198.33333333333334</ele><time>2026-04-26T12:56:24.729Z</time></trkpt><trkpt lat="43.039345" lon="2.6586767"><ele>196.66666666666669</ele><time>2026-04-26T12:56:25.728Z</time></trkpt><trkpt lat="43.0394983" lon="2.65863"><ele>195.0</ele><time>2026-04-26T12:56:26.73Z</time></trkpt><trkpt lat="43.0396433" lon="2.6585633"><ele>194.66666666666669</ele><time>2026-04-26T12:56:27.73Z</time></trkpt><trkpt lat="43.0397817" lon="2.6584567"><ele>194.33333333333334</ele><time>2026-04-26T12:56:28.73Z</time></trkpt><trkpt lat="43.0399133" lon="2.6583267"><ele>194.0</ele><time>2026-04-26T12:56:29.733Z</time></trkpt><trkpt lat="43.0400467" lon="2.658205"><ele>193.25</ele><time>2026-04-26T12:56:30.731Z</time></trkpt><trkpt lat="43.040175" lon="2.6580983"><ele>192.5</ele><time>2026-04-26T12:56:31.729Z</time></trkpt><trkpt lat="43.0403017" lon="2.658005"><ele>191.75</ele><time>2026-04-26T12:56:32.731Z</time></trkpt><trkpt lat="43.0404483" lon="2.6579433"><ele>191.0</ele><time>2026-04-26T12:56:33.73Z</time></trkpt><trkpt lat="43.040605" lon="2.65791"><ele>191.0</ele><time>2026-04-26T12:56:34.731Z</time></trkpt><trkpt lat="43.0407667" lon="2.6578983"><ele>191.0</ele><time>2026-04-26T12:56:35.731Z</time></trkpt><trkpt lat="43.0409233" lon="2.6579"><ele>191.0</ele><time>2026-04-26T12:56:36.73Z</time></trkpt><trkpt lat="43.0410717" lon="2.6579067"><ele>190.75</ele><time>2026-04-26T12:56:37.731Z</time></trkpt><trkpt lat="43.0412117" lon="2.6579117"><ele>190.5</ele><time>2026-04-26T12:56:38.731Z</time></trkpt><trkpt lat="43.04135" lon="2.6579167"><ele>190.25</ele><time>2026-04-26T12:56:39.731Z</time></trkpt><trkpt lat="43.0414833" lon="2.6579233"><ele>190.0</ele><time>2026-04-26T12:56:40.73Z</time></trkpt><trkpt lat="43.0416167" lon="2.6579283"><ele>189.25</ele><time>2026-04-26T12:56:41.728Z</time></trkpt><trkpt lat="43.0417567" lon="2.6579467"><ele>188.5</ele><time>2026-04-26T12:56:42.728Z</time></trkpt><trkpt lat="43.0418967" lon="2.6579883"><ele>187.75</ele><time>2026-04-26T12:56:43.731Z</time></trkpt><trkpt lat="43.0420367" lon="2.6580433"><ele>187.0</ele><time>2026-04-26T12:56:44.73Z</time></trkpt><trkpt lat="43.0421817" lon="2.658105"><ele>187.0</ele><time>2026-04-26T12:56:45.73Z</time></trkpt><trkpt lat="43.0423317" lon="2.6581783"><ele>187.0</ele><time>2026-04-26T12:56:46.731Z</time></trkpt><trkpt lat="43.0424883" lon="2.65826"><ele>187.0</ele><time>2026-04-26T12:56:47.731Z</time></trkpt><trkpt lat="43.0426483" lon="2.6583517"><ele>187.0</ele><time>2026-04-26T12:56:48.731Z</time></trkpt><trkpt lat="43.0428083" lon="2.6584483"><ele>187.0</ele><time>2026-04-26T12:56:49.732Z</time></trkpt><trkpt lat="43.0429667" lon="2.6585433"><ele>187.0</ele><time>2026-04-26T12:56:50.73Z</time></trkpt><trkpt lat="43.0431233" lon="2.65864"><ele>186.33333333333334</ele><time>2026-04-26T12:56:51.731Z</time></trkpt><trkpt lat="43.04327" lon="2.6587383"><ele>185.66666666666666</ele><time>2026-04-26T12:56:52.73Z</time></trkpt><trkpt lat="43.0434033" lon="2.6588533"><ele>185.0</ele><time>2026-04-26T12:56:53.728Z</time></trkpt><trkpt lat="43.0435283" lon="2.6589883"><ele>184.66666666666666</ele><time>2026-04-26T12:56:54.729Z</time></trkpt><trkpt lat="43.04365" lon="2.6591317"><ele>184.33333333333334</ele><time>2026-04-26T12:56:55.729Z</time></trkpt><trkpt lat="43.04377" lon="2.6592733"><ele>184.0</ele><time>2026-04-26T12:56:56.73Z</time></trkpt><trkpt lat="43.0439033" lon="2.6594017"><ele>183.66666666666669</ele><time>2026-04-26T12:56:57.731Z</time></trkpt><trkpt lat="43.0440517" lon="2.65951"><ele>183.33333333333334</ele><time>2026-04-26T12:56:58.73Z</time></trkpt><trkpt lat="43.0442167" lon="2.6596017"><ele>183.0</ele><time>2026-04-26T12:56:59.729Z</time></trkpt><trkpt lat="43.044385" lon="2.6596933"><ele>182.66666666666666</ele><time>2026-04-26T12:57:00.729Z</time></trkpt><trkpt lat="43.0445567" lon="2.65979"><ele>182.33333333333331</ele><time>2026-04-26T12:57:01.729Z</time></trkpt><trkpt lat="43.0447333" lon="2.659885"><ele>182.0</ele><time>2026-04-26T12:57:02.732Z</time></trkpt><trkpt lat="43.0449133" lon="2.6599733"><ele>182.0</ele><time>2026-04-26T12:57:03.729Z</time></trkpt><trkpt lat="43.0450967" lon="2.6600467"><ele>182.0</ele><time>2026-04-26T12:57:04.729Z</time></trkpt><trkpt lat="43.0452833" lon="2.6601067"><ele>182.0</ele><time>2026-04-26T12:57:05.73Z</time></trkpt><trkpt lat="43.0454667" lon="2.66016"><ele>182.0</ele><time>2026-04-26T12:57:06.729Z</time></trkpt><trkpt lat="43.0456517" lon="2.6602067"><ele>182.0</ele><time>2026-04-26T12:57:07.73Z</time></trkpt><trkpt lat="43.0458367" lon="2.6602433"><ele>182.0</ele><time>2026-04-26T12:57:08.733Z</time></trkpt><trkpt lat="43.0460233" lon="2.6602733"><ele>183.0</ele><time>2026-04-26T12:57:09.73Z</time></trkpt><trkpt lat="43.0462117" lon="2.660295"><ele>184.0</ele><time>2026-04-26T12:57:10.731Z</time></trkpt><trkpt lat="43.0463967" lon="2.6603067"><ele>185.0</ele><time>2026-04-26T12:57:11.728Z</time></trkpt><trkpt lat="43.0465767" lon="2.6603033"><ele>185.33333333333331</ele><time>2026-04-26T12:57:12.731Z</time></trkpt><trkpt lat="43.046745" lon="2.660285"><ele>185.66666666666666</ele><time>2026-04-26T12:57:13.73Z</time></trkpt><trkpt lat="43.0469017" lon="2.6602583"><ele>186.0</ele><time>2026-04-26T12:57:14.729Z</time></trkpt><trkpt lat="43.0470517" lon="2.6602283"><ele>186.0</ele><time>2026-04-26T12:57:15.731Z</time></trkpt><trkpt lat="43.047195" lon="2.6602017"><ele>186.0</ele><time>2026-04-26T12:57:16.729Z</time></trkpt><trkpt lat="43.04733" lon="2.6601833"><ele>186.0</ele><time>2026-04-26T12:57:17.73Z</time></trkpt><trkpt lat="43.0474567" lon="2.66019"><ele>186.0</ele><time>2026-04-26T12:57:18.731Z</time></trkpt><trkpt lat="43.047575" lon="2.6602233"><ele>186.4</ele><time>2026-04-26T12:57:19.728Z</time></trkpt><trkpt lat="43.04768" lon="2.6602667"><ele>186.8</ele><time>2026-04-26T12:57:20.729Z</time></trkpt><trkpt lat="43.0477833" lon="2.6603067"><ele>187.20000000000002</ele><time>2026-04-26T12:57:21.729Z</time></trkpt><trkpt lat="43.047885" lon="2.6603383"><ele>187.60000000000002</ele><time>2026-04-26T12:57:22.73Z</time></trkpt><trkpt lat="43.0479867" lon="2.6603633"><ele>188.0</ele><time>2026-04-26T12:57:23.729Z</time></trkpt><trkpt lat="43.048085" lon="2.6603883"><ele>188.0</ele><time>2026-04-26T12:57:24.73Z</time></trkpt><trkpt lat="43.0481817" lon="2.660415"><ele>188.0</ele><time>2026-04-26T12:57:25.728Z</time></trkpt><trkpt lat="43.04828" lon="2.6604467"><ele>188.0</ele><time>2026-04-26T12:57:26.728Z</time></trkpt><trkpt lat="43.048375" lon="2.6604767"><ele>188.0</ele><time>2026-04-26T12:57:27.729Z</time></trkpt><trkpt lat="43.048475" lon="2.6605033"><ele>188.0</ele><time>2026-04-26T12:57:28.729Z</time></trkpt><trkpt lat="43.048575" lon="2.6605383"><ele>188.60000000000002</ele><time>2026-04-26T12:57:29.728Z</time></trkpt><trkpt lat="43.0486783" lon="2.6605833"><ele>189.20000000000002</ele><time>2026-04-26T12:57:30.728Z</time></trkpt><trkpt lat="43.0487817" lon="2.6606367"><ele>189.8</ele><time>2026-04-26T12:57:31.727Z</time></trkpt><trkpt lat="43.0488867" lon="2.660695"><ele>190.4</ele><time>2026-04-26T12:57:32.73Z</time></trkpt><trkpt lat="43.0489917" lon="2.6607483"><ele>191.0</ele><time>2026-04-26T12:57:33.729Z</time></trkpt><trkpt lat="43.0490867" lon="2.6607933"><ele>190.4</ele><time>2026-04-26T12:57:34.728Z</time></trkpt><trkpt lat="43.0491733" lon="2.6608417"><ele>189.8</ele><time>2026-04-26T12:57:35.728Z</time></trkpt><trkpt lat="43.0492567" lon="2.6609"><ele>189.20000000000002</ele><time>2026-04-26T12:57:36.731Z</time></trkpt><trkpt lat="43.0493267" lon="2.66098"><ele>188.60000000000002</ele><time>2026-04-26T12:57:37.728Z</time></trkpt><trkpt lat="43.0493867" lon="2.6610667"><ele>188.0</ele><time>2026-04-26T12:57:38.728Z</time></trkpt><trkpt lat="43.04945" lon="2.661155"><ele>187.60000000000002</ele><time>2026-04-26T12:57:39.727Z</time></trkpt><trkpt lat="43.0495233" lon="2.6612283"><ele>187.20000000000002</ele><time>2026-04-26T12:57:40.729Z</time></trkpt><trkpt lat="43.0496083" lon="2.6612867"><ele>186.8</ele><time>2026-04-26T12:57:41.729Z</time></trkpt><trkpt lat="43.0496967" lon="2.6613433"><ele>186.4</ele><time>2026-04-26T12:57:42.728Z</time></trkpt><trkpt lat="43.04979" lon="2.6614067"><ele>186.0</ele><time>2026-04-26T12:57:43.729Z</time></trkpt><trkpt lat="43.049885" lon="2.6614783"><ele>186.0</ele><time>2026-04-26T12:57:44.732Z</time></trkpt><trkpt lat="43.049985" lon="2.661545"><ele>186.0</ele><time>2026-04-26T12:57:45.727Z</time></trkpt><trkpt lat="43.0500833" lon="2.6616033"><ele>186.0</ele><time>2026-04-26T12:57:46.728Z</time></trkpt><trkpt lat="43.050175" lon="2.6616683"><ele>186.0</ele><time>2026-04-26T12:57:47.728Z</time></trkpt><trkpt lat="43.0502583" lon="2.6617333"><ele>186.0</ele><time>2026-04-26T12:57:48.728Z</time></trkpt><trkpt lat="43.05034" lon="2.6617883"><ele>186.0</ele><time>2026-04-26T12:57:49.729Z</time></trkpt><trkpt lat="43.0504167" lon="2.6618383"><ele>186.0</ele><time>2026-04-26T12:57:50.728Z</time></trkpt><trkpt lat="43.0504983" lon="2.6618617"><ele>186.0</ele><time>2026-04-26T12:57:51.732Z</time></trkpt><trkpt lat="43.05059" lon="2.6618633"><ele>186.0</ele><time>2026-04-26T12:57:52.729Z</time></trkpt><trkpt lat="43.05068" lon="2.6618633"><ele>186.0</ele><time>2026-04-26T12:57:53.728Z</time></trkpt><trkpt lat="43.050765" lon="2.661865"><ele>186.0</ele><time>2026-04-26T12:57:54.731Z</time></trkpt><trkpt lat="43.050845" lon="2.66187"><ele>186.00000000000003</ele><time>2026-04-26T12:57:55.728Z</time></trkpt><trkpt lat="43.0509217" lon="2.66187"><ele>186.0</ele><time>2026-04-26T12:57:56.729Z</time></trkpt><trkpt lat="43.0509983" lon="2.6618783"><ele>186.0</ele><time>2026-04-26T12:57:57.73Z</time></trkpt><trkpt lat="43.051075" lon="2.6618783"><ele>186.0</ele><time>2026-04-26T12:57:58.73Z</time></trkpt><trkpt lat="43.0511483" lon="2.6618717"><ele>186.0</ele><time>2026-04-26T12:57:59.731Z</time></trkpt><trkpt lat="43.051215" lon="2.661875"><ele>186.00000000000003</ele><time>2026-04-26T12:58:00.729Z</time></trkpt><trkpt lat="43.051285" lon="2.6618783"><ele>186.0</ele><time>2026-04-26T12:58:01.728Z</time></trkpt><trkpt lat="43.05135" lon="2.6618767"><ele>186.0</ele><time>2026-04-26T12:58:02.728Z</time></trkpt><trkpt lat="43.0514417" lon="2.6618683"><ele>186.0</ele><time>2026-04-26T12:58:04.729Z</time></trkpt><trkpt lat="43.051525" lon="2.661785"><ele>186.0</ele><time>2026-04-26T12:58:17.728Z</time></trkpt><trkpt lat="43.0516217" lon="2.6617167"><ele>186.0</ele><time>2026-04-26T12:58:19.728Z</time></trkpt><trkpt lat="43.0516983" lon="2.66174"><ele>186.0</ele><time>2026-04-26T12:58:20.73Z</time></trkpt><trkpt lat="43.0517917" lon="2.6617767"><ele>185.0</ele><time>2026-04-26T12:58:21.729Z</time></trkpt><trkpt lat="43.0519017" lon="2.6618133"><ele>184.0</ele><time>2026-04-26T12:58:22.727Z</time></trkpt><trkpt lat="43.05202" lon="2.6618467"><ele>183.0</ele><time>2026-04-26T12:58:23.728Z</time></trkpt><trkpt lat="43.0521467" lon="2.6618817"><ele>182.0</ele><time>2026-04-26T12:58:24.728Z</time></trkpt><trkpt lat="43.0522867" lon="2.66192"><ele>182.66666666666666</ele><time>2026-04-26T12:58:25.728Z</time></trkpt><trkpt lat="43.0524333" lon="2.66196"><ele>183.33333333333334</ele><time>2026-04-26T12:58:26.729Z</time></trkpt><trkpt lat="43.0525833" lon="2.6619983"><ele>184.0</ele><time>2026-04-26T12:58:27.727Z</time></trkpt><trkpt lat="43.052735" lon="2.6620333"><ele>182.66666666666669</ele><time>2026-04-26T12:58:28.729Z</time></trkpt><trkpt lat="43.0528867" lon="2.6620683"><ele>181.33333333333334</ele><time>2026-04-26T12:58:29.731Z</time></trkpt><trkpt lat="43.0530383" lon="2.6621017"><ele>180.0</ele><time>2026-04-26T12:58:30.729Z</time></trkpt><trkpt lat="43.0531833" lon="2.662135"><ele>179.25</ele><time>2026-04-26T12:58:31.727Z</time></trkpt><trkpt lat="43.053325" lon="2.662175"><ele>178.5</ele><time>2026-04-26T12:58:32.729Z</time></trkpt><trkpt lat="43.0534683" lon="2.6622233"><ele>177.75</ele><time>2026-04-26T12:58:33.731Z</time></trkpt><trkpt lat="43.0536133" lon="2.6622767"><ele>177.0</ele><time>2026-04-26T12:58:34.729Z</time></trkpt><trkpt lat="43.0537683" lon="2.6623367"><ele>177.0</ele><time>2026-04-26T12:58:35.729Z</time></trkpt><trkpt lat="43.0539183" lon="2.6624117"><ele>177.0</ele><time>2026-04-26T12:58:36.735Z</time></trkpt><trkpt lat="43.0540667" lon="2.6624817"><ele>177.0</ele><time>2026-04-26T12:58:37.727Z</time></trkpt><trkpt lat="43.0542117" lon="2.66256"><ele>177.0</ele><time>2026-04-26T12:58:38.73Z</time></trkpt><trkpt lat="43.0543567" lon="2.66264"><ele>177.0</ele><time>2026-04-26T12:58:39.729Z</time></trkpt><trkpt lat="43.0545033" lon="2.6627217"><ele>177.0</ele><time>2026-04-26T12:58:40.728Z</time></trkpt><trkpt lat="43.054645" lon="2.6628"><ele>177.0</ele><time>2026-04-26T12:58:41.729Z</time></trkpt><trkpt lat="43.0547867" lon="2.66287"><ele>177.0</ele><time>2026-04-26T12:58:42.728Z</time></trkpt><trkpt lat="43.0549283" lon="2.6629283"><ele>177.0</ele><time>2026-04-26T12:58:43.729Z</time></trkpt><trkpt lat="43.0550717" lon="2.662975"><ele>177.0</ele><time>2026-04-26T12:58:44.73Z</time></trkpt><trkpt lat="43.0552183" lon="2.66301"><ele>177.25</ele><time>2026-04-26T12:58:45.728Z</time></trkpt><trkpt lat="43.0553683" lon="2.6630367"><ele>177.5</ele><time>2026-04-26T12:58:46.733Z</time></trkpt><trkpt lat="43.055515" lon="2.6630633"><ele>177.75</ele><time>2026-04-26T12:58:47.732Z</time></trkpt><trkpt lat="43.0556583" lon="2.663095"><ele>178.0</ele><time>2026-04-26T12:58:48.73Z</time></trkpt><trkpt lat="43.0558" lon="2.6631517"><ele>178.0</ele><time>2026-04-26T12:58:49.728Z</time></trkpt><trkpt lat="43.0559383" lon="2.6632383"><ele>178.0</ele><time>2026-04-26T12:58:50.729Z</time></trkpt><trkpt lat="43.05606" lon="2.66336"><ele>178.0</ele><time>2026-04-26T12:58:51.728Z</time></trkpt><trkpt lat="43.05617" lon="2.663505"><ele>177.75</ele><time>2026-04-26T12:58:52.729Z</time></trkpt><trkpt lat="43.0562817" lon="2.663645"><ele>177.5</ele><time>2026-04-26T12:58:53.729Z</time></trkpt><trkpt lat="43.0563933" lon="2.6637617"><ele>177.25</ele><time>2026-04-26T12:58:54.728Z</time></trkpt><trkpt lat="43.056505" lon="2.6638433"><ele>177.0</ele><time>2026-04-26T12:58:55.729Z</time></trkpt><trkpt lat="43.0566333" lon="2.663885"><ele>177.0</ele><time>2026-04-26T12:58:56.728Z</time></trkpt><trkpt lat="43.0567717" lon="2.6638867"><ele>177.0</ele><time>2026-04-26T12:58:57.727Z</time></trkpt><trkpt lat="43.0569167" lon="2.6638667"><ele>177.0</ele><time>2026-04-26T12:58:58.728Z</time></trkpt><trkpt lat="43.0570567" lon="2.6638433"><ele>177.0</ele><time>2026-04-26T12:58:59.729Z</time></trkpt><trkpt lat="43.05719" lon="2.6638233"><ele>177.0</ele><time>2026-04-26T12:59:00.729Z</time></trkpt><trkpt lat="43.0573183" lon="2.6638033"><ele>177.0</ele><time>2026-04-26T12:59:01.728Z</time></trkpt><trkpt lat="43.05744" lon="2.6637583"><ele>177.0</ele><time>2026-04-26T12:59:02.731Z</time></trkpt><trkpt lat="43.0575517" lon="2.6636717"><ele>177.0</ele><time>2026-04-26T12:59:03.727Z</time></trkpt><trkpt lat="43.0576483" lon="2.6635467"><ele>176.75</ele><time>2026-04-26T12:59:04.728Z</time></trkpt><trkpt lat="43.0577233" lon="2.6633833"><ele>176.5</ele><time>2026-04-26T12:59:05.728Z</time></trkpt><trkpt lat="43.0577767" lon="2.6631983"><ele>176.25</ele><time>2026-04-26T12:59:06.727Z</time></trkpt><trkpt lat="43.0578317" lon="2.663015"><ele>176.0</ele><time>2026-04-26T12:59:07.728Z</time></trkpt><trkpt lat="43.05791" lon="2.6628433"><ele>177.0</ele><time>2026-04-26T12:59:08.728Z</time></trkpt><trkpt lat="43.0580117" lon="2.662685"><ele>178.0</ele><time>2026-04-26T12:59:09.727Z</time></trkpt><trkpt lat="43.0581283" lon="2.6625383"><ele>179.0</ele><time>2026-04-26T12:59:10.729Z</time></trkpt><trkpt lat="43.058245" lon="2.6623933"><ele>176.33333333333331</ele><time>2026-04-26T12:59:11.728Z</time></trkpt><trkpt lat="43.0583617" lon="2.6622517"><ele>173.66666666666666</ele><time>2026-04-26T12:59:12.727Z</time></trkpt><trkpt lat="43.0584817" lon="2.6621133"><ele>171.0</ele><time>2026-04-26T12:59:13.727Z</time></trkpt><trkpt lat="43.0586183" lon="2.661995"><ele>172.66666666666666</ele><time>2026-04-26T12:59:14.73Z</time></trkpt><trkpt lat="43.0587733" lon="2.661915"><ele>174.33333333333331</ele><time>2026-04-26T12:59:15.727Z</time></trkpt><trkpt lat="43.058935" lon="2.6618567"><ele>176.0</ele><time>2026-04-26T12:59:16.734Z</time></trkpt><trkpt lat="43.0591033" lon="2.6617983"><ele>173.33333333333331</ele><time>2026-04-26T12:59:17.728Z</time></trkpt><trkpt lat="43.05927" lon="2.66174"><ele>170.66666666666666</ele><time>2026-04-26T12:59:18.73Z</time></trkpt><trkpt lat="43.0594367" lon="2.6616817"><ele>168.0</ele><time>2026-04-26T12:59:19.733Z</time></trkpt><trkpt lat="43.0596033" lon="2.6616267"><ele>168.0</ele><time>2026-04-26T12:59:20.729Z</time></trkpt><trkpt lat="43.0597683" lon="2.6615733"><ele>168.0</ele><time>2026-04-26T12:59:21.73Z</time></trkpt><trkpt lat="43.059925" lon="2.6615267"><ele>168.0</ele><time>2026-04-26T12:59:22.729Z</time></trkpt><trkpt lat="43.0600733" lon="2.6614817"><ele>166.5</ele><time>2026-04-26T12:59:23.729Z</time></trkpt><trkpt lat="43.060215" lon="2.6614383"><ele>165.0</ele><time>2026-04-26T12:59:24.734Z</time></trkpt><trkpt lat="43.0603533" lon="2.66141"><ele>163.5</ele><time>2026-04-26T12:59:25.728Z</time></trkpt><trkpt lat="43.0604917" lon="2.6614167"><ele>162.0</ele><time>2026-04-26T12:59:26.728Z</time></trkpt><trkpt lat="43.0606167" lon="2.66147"><ele>162.0</ele><time>2026-04-26T12:59:27.729Z</time></trkpt><trkpt lat="43.0607167" lon="2.6615733"><ele>162.0</ele><time>2026-04-26T12:59:28.727Z</time></trkpt><trkpt lat="43.0607883" lon="2.661715"><ele>162.0</ele><time>2026-04-26T12:59:29.728Z</time></trkpt><trkpt lat="43.0608367" lon="2.6618767"><ele>162.0</ele><time>2026-04-26T12:59:30.727Z</time></trkpt><trkpt lat="43.06088" lon="2.66203"><ele>161.8</ele><time>2026-04-26T12:59:31.728Z</time></trkpt><trkpt lat="43.0609333" lon="2.6621633"><ele>161.6</ele><time>2026-04-26T12:59:32.731Z</time></trkpt><trkpt lat="43.06101" lon="2.6622683"><ele>161.4</ele><time>2026-04-26T12:59:33.728Z</time></trkpt><trkpt lat="43.06111" lon="2.6623217"><ele>161.20000000000002</ele><time>2026-04-26T12:59:34.728Z</time></trkpt><trkpt lat="43.0612217" lon="2.6623083"><ele>161.0</ele><time>2026-04-26T12:59:35.729Z</time></trkpt><trkpt lat="43.06133" lon="2.6622183"><ele>161.0</ele><time>2026-04-26T12:59:36.729Z</time></trkpt><trkpt lat="43.0614383" lon="2.6620983"><ele>161.0</ele><time>2026-04-26T12:59:37.729Z</time></trkpt><trkpt lat="43.061555" lon="2.66196"><ele>161.0</ele><time>2026-04-26T12:59:38.728Z</time></trkpt><trkpt lat="43.06167" lon="2.6618317"><ele>161.0</ele><time>2026-04-26T12:59:39.729Z</time></trkpt><trkpt lat="43.0617733" lon="2.6617133"><ele>164.0</ele><time>2026-04-26T12:59:40.73Z</time></trkpt><trkpt lat="43.0618417" lon="2.6615783"><ele>167.0</ele><time>2026-04-26T12:59:41.727Z</time></trkpt><trkpt lat="43.0618667" lon="2.6614217"><ele>170.0</ele><time>2026-04-26T12:59:42.731Z</time></trkpt><trkpt lat="43.0618417" lon="2.6612517"><ele>173.0</ele><time>2026-04-26T12:59:43.727Z</time></trkpt><trkpt lat="43.0617767" lon="2.66109"><ele>173.75</ele><time>2026-04-26T12:59:44.73Z</time></trkpt><trkpt lat="43.0616967" lon="2.6609333"><ele>174.5</ele><time>2026-04-26T12:59:45.728Z</time></trkpt><trkpt lat="43.0616217" lon="2.660785"><ele>175.25</ele><time>2026-04-26T12:59:46.731Z</time></trkpt><trkpt lat="43.06156" lon="2.660635"><ele>176.0</ele><time>2026-04-26T12:59:47.731Z</time></trkpt><trkpt lat="43.0615167" lon="2.660475"><ele>175.25</ele><time>2026-04-26T12:59:48.733Z</time></trkpt><trkpt lat="43.06149" lon="2.6603183"><ele>174.5</ele><time>2026-04-26T12:59:49.728Z</time></trkpt><trkpt lat="43.0614767" lon="2.6601683"><ele>173.75</ele><time>2026-04-26T12:59:50.734Z</time></trkpt><trkpt lat="43.0614883" lon="2.660025"><ele>173.0</ele><time>2026-04-26T12:59:51.734Z</time></trkpt><trkpt lat="43.0615383" lon="2.65988"><ele>173.0</ele><time>2026-04-26T12:59:52.73Z</time></trkpt><trkpt lat="43.061605" lon="2.6597367"><ele>173.0</ele><time>2026-04-26T12:59:53.729Z</time></trkpt><trkpt lat="43.0616867" lon="2.6595933"><ele>173.0</ele><time>2026-04-26T12:59:54.73Z</time></trkpt><trkpt lat="43.0617783" lon="2.6594517"><ele>173.0</ele><time>2026-04-26T12:59:55.728Z</time></trkpt><trkpt lat="43.06188" lon="2.6593083"><ele>178.33333333333331</ele><time>2026-04-26T12:59:56.731Z</time></trkpt><trkpt lat="43.0619967" lon="2.6591667"><ele>183.66666666666666</ele><time>2026-04-26T12:59:57.729Z</time></trkpt><trkpt lat="43.062125" lon="2.6590367"><ele>189.0</ele><time>2026-04-26T12:59:58.729Z</time></trkpt><trkpt lat="43.06226" lon="2.658925"><ele>189.0</ele><time>2026-04-26T12:59:59.728Z</time></trkpt><trkpt lat="43.0623967" lon="2.6588167"><ele>189.0</ele><time>2026-04-26T13:00:00.729Z</time></trkpt><trkpt lat="43.0625317" lon="2.6587017"><ele>189.0</ele><time>2026-04-26T13:00:01.728Z</time></trkpt><trkpt lat="43.0626667" lon="2.6585783"><ele>189.33333333333334</ele><time>2026-04-26T13:00:02.731Z</time></trkpt><trkpt lat="43.062805" lon="2.6584517"><ele>189.66666666666669</ele><time>2026-04-26T13:00:03.73Z</time></trkpt><trkpt lat="43.0629383" lon="2.6583233"><ele>190.0</ele><time>2026-04-26T13:00:04.731Z</time></trkpt><trkpt lat="43.06306" lon="2.658185"><ele>190.0</ele><time>2026-04-26T13:00:05.73Z</time></trkpt><trkpt lat="43.063165" lon="2.6580233"><ele>190.0</ele><time>2026-04-26T13:00:06.73Z</time></trkpt><trkpt lat="43.063245" lon="2.6578333"><ele>190.0</ele><time>2026-04-26T13:00:07.729Z</time></trkpt><trkpt lat="43.0633133" lon="2.6576317"><ele>191.66666666666669</ele><time>2026-04-26T13:00:08.73Z</time></trkpt><trkpt lat="43.0633783" lon="2.6574333"><ele>193.33333333333334</ele><time>2026-04-26T13:00:09.729Z</time></trkpt><trkpt lat="43.0634417" lon="2.6572417"><ele>195.0</ele><time>2026-04-26T13:00:10.73Z</time></trkpt><trkpt lat="43.0634983" lon="2.6570617"><ele>196.25</ele><time>2026-04-26T13:00:11.729Z</time></trkpt><trkpt lat="43.06356" lon="2.6568983"><ele>197.5</ele><time>2026-04-26T13:00:12.73Z</time></trkpt><trkpt lat="43.0636433" lon="2.656755"><ele>198.75</ele><time>2026-04-26T13:00:13.728Z</time></trkpt><trkpt lat="43.063745" lon="2.6566417"><ele>200.0</ele><time>2026-04-26T13:00:14.729Z</time></trkpt><trkpt lat="43.063855" lon="2.6565533"><ele>200.0</ele><time>2026-04-26T13:00:15.73Z</time></trkpt><trkpt lat="43.0639617" lon="2.6564917"><ele>200.0</ele><time>2026-04-26T13:00:16.73Z</time></trkpt><trkpt lat="43.0640683" lon="2.6564733"><ele>200.0</ele><time>2026-04-26T13:00:17.73Z</time></trkpt><trkpt lat="43.0641667" lon="2.65653"><ele>200.0</ele><time>2026-04-26T13:00:18.73Z</time></trkpt><trkpt lat="43.0642383" lon="2.6566533"><ele>200.0</ele><time>2026-04-26T13:00:19.729Z</time></trkpt><trkpt lat="43.0642883" lon="2.6568083"><ele>200.75</ele><time>2026-04-26T13:00:20.73Z</time></trkpt><trkpt lat="43.0643333" lon="2.65698"><ele>201.5</ele><time>2026-04-26T13:00:21.73Z</time></trkpt><trkpt lat="43.0643717" lon="2.6571633"><ele>202.25</ele><time>2026-04-26T13:00:22.73Z</time></trkpt><trkpt lat="43.064395" lon="2.6573467"><ele>203.0</ele><time>2026-04-26T13:00:23.729Z</time></trkpt><trkpt lat="43.0644083" lon="2.6575367"><ele>203.0</ele><time>2026-04-26T13:00:24.736Z</time></trkpt><trkpt lat="43.0644067" lon="2.6577283"><ele>203.0</ele><time>2026-04-26T13:00:25.729Z</time></trkpt><trkpt lat="43.0643833" lon="2.6579217"><ele>203.0</ele><time>2026-04-26T13:00:26.731Z</time></trkpt><trkpt lat="43.0643383" lon="2.6581133"><ele>203.0</ele><time>2026-04-26T13:00:27.728Z</time></trkpt><trkpt lat="43.0642833" lon="2.65829"><ele>203.0</ele><time>2026-04-26T13:00:28.728Z</time></trkpt><trkpt lat="43.0642333" lon="2.658455"><ele>203.0</ele><time>2026-04-26T13:00:29.728Z</time></trkpt><trkpt lat="43.064205" lon="2.6586233"><ele>203.0</ele><time>2026-04-26T13:00:30.729Z</time></trkpt><trkpt lat="43.064215" lon="2.6587917"><ele>203.0</ele><time>2026-04-26T13:00:31.728Z</time></trkpt><trkpt lat="43.0642633" lon="2.6589483"><ele>203.0</ele><time>2026-04-26T13:00:32.731Z</time></trkpt><trkpt lat="43.0643317" lon="2.6590917"><ele>203.0</ele><time>2026-04-26T13:00:33.729Z</time></trkpt><trkpt lat="43.0644167" lon="2.6592267"><ele>203.0</ele><time>2026-04-26T13:00:34.729Z</time></trkpt><trkpt lat="43.06451" lon="2.6593517"><ele>203.0</ele><time>2026-04-26T13:00:35.728Z</time></trkpt><trkpt lat="43.06461" lon="2.659465"><ele>205.0</ele><time>2026-04-26T13:00:36.731Z</time></trkpt><trkpt lat="43.0647117" lon="2.6595733"><ele>207.0</ele><time>2026-04-26T13:00:37.729Z</time></trkpt><trkpt lat="43.064815" lon="2.659675"><ele>209.0</ele><time>2026-04-26T13:00:38.73Z</time></trkpt><trkpt lat="43.0649167" lon="2.6597567"><ele>211.0</ele><time>2026-04-26T13:00:39.728Z</time></trkpt><trkpt lat="43.065015" lon="2.65981"><ele>211.20000000000002</ele><time>2026-04-26T13:00:40.733Z</time></trkpt><trkpt lat="43.06512" lon="2.6598283"><ele>211.4</ele><time>2026-04-26T13:00:41.728Z</time></trkpt><trkpt lat="43.0652217" lon="2.6598067"><ele>211.6</ele><time>2026-04-26T13:00:42.728Z</time></trkpt><trkpt lat="43.065325" lon="2.65975"><ele>211.8</ele><time>2026-04-26T13:00:43.729Z</time></trkpt><trkpt lat="43.065425" lon="2.6596867"><ele>212.0</ele><time>2026-04-26T13:00:44.735Z</time></trkpt><trkpt lat="43.06551" lon="2.65963"><ele>212.0</ele><time>2026-04-26T13:00:45.729Z</time></trkpt><trkpt lat="43.0655767" lon="2.659575"><ele>212.0</ele><time>2026-04-26T13:00:46.73Z</time></trkpt><trkpt lat="43.0656333" lon="2.65943"><ele>212.0</ele><time>2026-04-26T13:00:48.729Z</time></trkpt><trkpt lat="43.0655883" lon="2.6592683"><ele>212.0</ele><time>2026-04-26T13:00:50.728Z</time></trkpt><trkpt lat="43.0655517" lon="2.6591833"><ele>212.0</ele><time>2026-04-26T13:00:51.729Z</time></trkpt><trkpt lat="43.0655233" lon="2.65908"><ele>212.39999999999998</ele><time>2026-04-26T13:00:52.729Z</time></trkpt><trkpt lat="43.0655033" lon="2.6589583"><ele>212.79999999999998</ele><time>2026-04-26T13:00:53.73Z</time></trkpt><trkpt lat="43.0654767" lon="2.6588317"><ele>213.2</ele><time>2026-04-26T13:00:54.729Z</time></trkpt><trkpt lat="43.06543" lon="2.658705"><ele>213.6</ele><time>2026-04-26T13:00:55.728Z</time></trkpt><trkpt lat="43.065355" lon="2.6585883"><ele>214.0</ele><time>2026-04-26T13:00:56.729Z</time></trkpt><trkpt lat="43.065265" lon="2.6584883"><ele>214.79999999999998</ele><time>2026-04-26T13:00:57.729Z</time></trkpt><trkpt lat="43.0651783" lon="2.6584083"><ele>215.59999999999997</ele><time>2026-04-26T13:00:58.728Z</time></trkpt><trkpt lat="43.0650983" lon="2.6583383"><ele>216.4</ele><time>2026-04-26T13:00:59.728Z</time></trkpt><trkpt lat="43.0650317" lon="2.65827"><ele>217.2</ele><time>2026-04-26T13:01:00.732Z</time></trkpt><trkpt lat="43.06499" lon="2.6582033"><ele>218.0</ele><time>2026-04-26T13:01:01.728Z</time></trkpt><trkpt lat="43.064985" lon="2.6580483"><ele>218.0</ele><time>2026-04-26T13:01:03.729Z</time></trkpt><trkpt lat="43.0650217" lon="2.6579533"><ele>218.0</ele><time>2026-04-26T13:01:04.729Z</time></trkpt><trkpt lat="43.0650733" lon="2.6578367"><ele>218.0</ele><time>2026-04-26T13:01:05.728Z</time></trkpt><trkpt lat="43.06512" lon="2.6576933"><ele>218.0</ele><time>2026-04-26T13:01:06.735Z</time></trkpt><trkpt lat="43.0651567" lon="2.6575433"><ele>218.0</ele><time>2026-04-26T13:01:07.728Z</time></trkpt><trkpt lat="43.065185" lon="2.657385"><ele>218.0</ele><time>2026-04-26T13:01:08.729Z</time></trkpt><trkpt lat="43.065205" lon="2.6572133"><ele>218.0</ele><time>2026-04-26T13:01:09.73Z</time></trkpt><trkpt lat="43.0652117" lon="2.65703"><ele>218.0</ele><time>2026-04-26T13:01:10.729Z</time></trkpt><trkpt lat="43.0652117" lon="2.6568333"><ele>218.0</ele><time>2026-04-26T13:01:11.731Z</time></trkpt><trkpt lat="43.0652117" lon="2.6566367"><ele>219.5</ele><time>2026-04-26T13:01:12.73Z</time></trkpt><trkpt lat="43.0652133" lon="2.6564433"><ele>221.0</ele><time>2026-04-26T13:01:13.728Z</time></trkpt><trkpt lat="43.065215" lon="2.656255"><ele>222.5</ele><time>2026-04-26T13:01:14.729Z</time></trkpt><trkpt lat="43.065215" lon="2.6560783"><ele>224.0</ele><time>2026-04-26T13:01:15.729Z</time></trkpt><trkpt lat="43.065215" lon="2.6559083"><ele>224.6</ele><time>2026-04-26T13:01:16.73Z</time></trkpt><trkpt lat="43.06521" lon="2.655755"><ele>225.2</ele><time>2026-04-26T13:01:17.728Z</time></trkpt><trkpt lat="43.0651983" lon="2.655625"><ele>225.79999999999998</ele><time>2026-04-26T13:01:18.73Z</time></trkpt><trkpt lat="43.0651683" lon="2.6555167"><ele>226.39999999999998</ele><time>2026-04-26T13:01:19.73Z</time></trkpt><trkpt lat="43.0651183" lon="2.655415"><ele>227.0</ele><time>2026-04-26T13:01:20.732Z</time></trkpt><trkpt lat="43.0650583" lon="2.6553"><ele>228.0</ele><time>2026-04-26T13:01:21.729Z</time></trkpt><trkpt lat="43.06499" lon="2.65516"><ele>229.0</ele><time>2026-04-26T13:01:22.731Z</time></trkpt><trkpt lat="43.0649333" lon="2.6550033"><ele>230.0</ele><time>2026-04-26T13:01:23.731Z</time></trkpt><trkpt lat="43.06488" lon="2.6548433"><ele>231.0</ele><time>2026-04-26T13:01:24.73Z</time></trkpt><trkpt lat="43.0648283" lon="2.6546933"><ele>231.0</ele><time>2026-04-26T13:01:25.729Z</time></trkpt><trkpt lat="43.0647833" lon="2.654565"><ele>231.0</ele><time>2026-04-26T13:01:26.729Z</time></trkpt><trkpt lat="43.0647583" lon="2.6544567"><ele>231.0</ele><time>2026-04-26T13:01:27.73Z</time></trkpt><trkpt lat="43.0647517" lon="2.65436"><ele>231.0</ele><time>2026-04-26T13:01:28.729Z</time></trkpt><trkpt lat="43.0647767" lon="2.6542733"><ele>231.0</ele><time>2026-04-26T13:01:29.731Z</time></trkpt><trkpt lat="43.06483" lon="2.6542"><ele>231.0</ele><time>2026-04-26T13:01:30.731Z</time></trkpt><trkpt lat="43.0649017" lon="2.6541267"><ele>231.8</ele><time>2026-04-26T13:01:31.728Z</time></trkpt><trkpt lat="43.0649633" lon="2.65403"><ele>232.60000000000002</ele><time>2026-04-26T13:01:32.732Z</time></trkpt><trkpt lat="43.0649967" lon="2.6538917"><ele>233.4</ele><time>2026-04-26T13:01:33.729Z</time></trkpt><trkpt lat="43.0649883" lon="2.65373"><ele>234.2</ele><time>2026-04-26T13:01:34.732Z</time></trkpt><trkpt lat="43.0649617" lon="2.653555"><ele>235.0</ele><time>2026-04-26T13:01:35.728Z</time></trkpt><trkpt lat="43.0649283" lon="2.6533717"><ele>232.75</ele><time>2026-04-26T13:01:36.73Z</time></trkpt><trkpt lat="43.064905" lon="2.653185"><ele>230.5</ele><time>2026-04-26T13:01:37.73Z</time></trkpt><trkpt lat="43.0648817" lon="2.6529933"><ele>228.25</ele><time>2026-04-26T13:01:38.729Z</time></trkpt><trkpt lat="43.06486" lon="2.652795"><ele>226.0</ele><time>2026-04-26T13:01:39.73Z</time></trkpt><trkpt lat="43.0648667" lon="2.6525917"><ele>226.0</ele><time>2026-04-26T13:01:40.73Z</time></trkpt><trkpt lat="43.06488" lon="2.6523817"><ele>226.0</ele><time>2026-04-26T13:01:41.733Z</time></trkpt><trkpt lat="43.0648867" lon="2.6521633"><ele>226.0</ele><time>2026-04-26T13:01:42.729Z</time></trkpt><trkpt lat="43.0648883" lon="2.6519417"><ele>227.0</ele><time>2026-04-26T13:01:43.728Z</time></trkpt><trkpt lat="43.06489" lon="2.6517167"><ele>228.0</ele><time>2026-04-26T13:01:44.73Z</time></trkpt><trkpt lat="43.064895" lon="2.6514933"><ele>229.0</ele><time>2026-04-26T13:01:45.731Z</time></trkpt><trkpt lat="43.0648983" lon="2.651275"><ele>229.25</ele><time>2026-04-26T13:01:46.729Z</time></trkpt><trkpt lat="43.0648933" lon="2.651065"><ele>229.5</ele><time>2026-04-26T13:01:47.728Z</time></trkpt><trkpt lat="43.0648833" lon="2.6508783"><ele>229.75</ele><time>2026-04-26T13:01:48.731Z</time></trkpt><trkpt lat="43.0648817" lon="2.65071"><ele>230.0</ele><time>2026-04-26T13:01:49.73Z</time></trkpt><trkpt lat="43.0648933" lon="2.6505667"><ele>230.0</ele><time>2026-04-26T13:01:50.729Z</time></trkpt><trkpt lat="43.0649183" lon="2.6504383"><ele>230.0</ele><time>2026-04-26T13:01:51.729Z</time></trkpt><trkpt lat="43.0649617" lon="2.6503367"><ele>230.0</ele><time>2026-04-26T13:01:52.729Z</time></trkpt><trkpt lat="43.0650283" lon="2.6502567"><ele>230.0</ele><time>2026-04-26T13:01:53.729Z</time></trkpt><trkpt lat="43.065125" lon="2.6502017"><ele>230.0</ele><time>2026-04-26T13:01:54.728Z</time></trkpt><trkpt lat="43.0652367" lon="2.650165"><ele>234.0</ele><time>2026-04-26T13:01:55.729Z</time></trkpt><trkpt lat="43.0653467" lon="2.6501383"><ele>238.0</ele><time>2026-04-26T13:01:56.729Z</time></trkpt><trkpt lat="43.0654517" lon="2.650125"><ele>242.0</ele><time>2026-04-26T13:01:57.728Z</time></trkpt><trkpt lat="43.0655533" lon="2.6501033"><ele>246.0</ele><time>2026-04-26T13:01:58.729Z</time></trkpt><trkpt lat="43.0656517" lon="2.6500683"><ele>250.0</ele><time>2026-04-26T13:01:59.729Z</time></trkpt><trkpt lat="43.065745" lon="2.65001"><ele>250.4</ele><time>2026-04-26T13:02:00.731Z</time></trkpt><trkpt lat="43.0658333" lon="2.6499333"><ele>250.8</ele><time>2026-04-26T13:02:01.731Z</time></trkpt><trkpt lat="43.06591" lon="2.649845"><ele>251.2</ele><time>2026-04-26T13:02:02.733Z</time></trkpt><trkpt lat="43.0659667" lon="2.6497467"><ele>251.6</ele><time>2026-04-26T13:02:03.729Z</time></trkpt><trkpt lat="43.066" lon="2.6496267"><ele>252.0</ele><time>2026-04-26T13:02:04.73Z</time></trkpt><trkpt lat="43.0660033" lon="2.64949"><ele>253.25</ele><time>2026-04-26T13:02:05.73Z</time></trkpt><trkpt lat="43.066" lon="2.6493467"><ele>254.5</ele><time>2026-04-26T13:02:06.73Z</time></trkpt><trkpt lat="43.0660017" lon="2.64919"><ele>255.75</ele><time>2026-04-26T13:02:07.73Z</time></trkpt><trkpt lat="43.0660083" lon="2.6490217"><ele>257.0</ele><time>2026-04-26T13:02:08.732Z</time></trkpt><trkpt lat="43.0660083" lon="2.6488467"><ele>257.0</ele><time>2026-04-26T13:02:09.729Z</time></trkpt><trkpt lat="43.065995" lon="2.64867"><ele>257.0</ele><time>2026-04-26T13:02:10.73Z</time></trkpt><trkpt lat="43.0659767" lon="2.64849"><ele>257.0</ele><time>2026-04-26T13:02:11.731Z</time></trkpt><trkpt lat="43.0659533" lon="2.648305"><ele>257.0</ele><time>2026-04-26T13:02:12.73Z</time></trkpt><trkpt lat="43.0659283" lon="2.6481267"><ele>257.0</ele><time>2026-04-26T13:02:13.73Z</time></trkpt><trkpt lat="43.0659017" lon="2.6479567"><ele>257.0</ele><time>2026-04-26T13:02:14.73Z</time></trkpt><trkpt lat="43.0658717" lon="2.6477917"><ele>257.0</ele><time>2026-04-26T13:02:15.73Z</time></trkpt><trkpt lat="43.06585" lon="2.6476317"><ele>257.0</ele><time>2026-04-26T13:02:16.732Z</time></trkpt><trkpt lat="43.065835" lon="2.6474767"><ele>256.8</ele><time>2026-04-26T13:02:17.729Z</time></trkpt><trkpt lat="43.0658167" lon="2.6473267"><ele>256.6</ele><time>2026-04-26T13:02:18.732Z</time></trkpt><trkpt lat="43.0657833" lon="2.647175"><ele>256.40000000000003</ele><time>2026-04-26T13:02:19.732Z</time></trkpt><trkpt lat="43.065745" lon="2.64703"><ele>256.2</ele><time>2026-04-26T13:02:20.73Z</time></trkpt><trkpt lat="43.06571" lon="2.6468917"><ele>256.0</ele><time>2026-04-26T13:02:21.729Z</time></trkpt><trkpt lat="43.0656717" lon="2.64676"><ele>255.60000000000002</ele><time>2026-04-26T13:02:22.729Z</time></trkpt><trkpt lat="43.065635" lon="2.6466467"><ele>255.20000000000002</ele><time>2026-04-26T13:02:23.731Z</time></trkpt><trkpt lat="43.0655883" lon="2.6465467"><ele>254.79999999999998</ele><time>2026-04-26T13:02:24.728Z</time></trkpt><trkpt lat="43.0655283" lon="2.6464667"><ele>254.39999999999998</ele><time>2026-04-26T13:02:25.73Z</time></trkpt><trkpt lat="43.0654383" lon="2.6464167"><ele>254.0</ele><time>2026-04-26T13:02:26.728Z</time></trkpt><trkpt lat="43.06533" lon="2.64637"><ele>254.0</ele><time>2026-04-26T13:02:27.729Z</time></trkpt><trkpt lat="43.0652133" lon="2.6463267"><ele>254.0</ele><time>2026-04-26T13:02:28.728Z</time></trkpt><trkpt lat="43.06509" lon="2.6462833"><ele>254.0</ele><time>2026-04-26T13:02:29.729Z</time></trkpt><trkpt lat="43.0649717" lon="2.6462383"><ele>254.0</ele><time>2026-04-26T13:02:30.729Z</time></trkpt><trkpt lat="43.0648633" lon="2.6462017"><ele>253.66666666666669</ele><time>2026-04-26T13:02:31.728Z</time></trkpt><trkpt lat="43.0647783" lon="2.6461633"><ele>253.33333333333334</ele><time>2026-04-26T13:02:32.729Z</time></trkpt><trkpt lat="43.0647117" lon="2.6461067"><ele>253.0</ele><time>2026-04-26T13:02:33.728Z</time></trkpt><trkpt lat="43.0646917" lon="2.6460183"><ele>252.66666666666669</ele><time>2026-04-26T13:02:34.729Z</time></trkpt><trkpt lat="43.0646917" lon="2.6459067"><ele>252.33333333333334</ele><time>2026-04-26T13:02:35.729Z</time></trkpt><trkpt lat="43.064695" lon="2.6457767"><ele>252.0</ele><time>2026-04-26T13:02:36.73Z</time></trkpt><trkpt lat="43.0647033" lon="2.6456333"><ele>253.39999999999998</ele><time>2026-04-26T13:02:37.731Z</time></trkpt><trkpt lat="43.0647133" lon="2.64549"><ele>254.79999999999998</ele><time>2026-04-26T13:02:38.734Z</time></trkpt><trkpt lat="43.064725" lon="2.645355"><ele>256.2</ele><time>2026-04-26T13:02:39.73Z</time></trkpt><trkpt lat="43.064745" lon="2.6452183"><ele>257.59999999999997</ele><time>2026-04-26T13:02:40.728Z</time></trkpt><trkpt lat="43.06478" lon="2.64508"><ele>259.0</ele><time>2026-04-26T13:02:41.73Z</time></trkpt><trkpt lat="43.06482" lon="2.6449417"><ele>260.2</ele><time>2026-04-26T13:02:42.732Z</time></trkpt><trkpt lat="43.0648583" lon="2.6448067"><ele>261.4</ele><time>2026-04-26T13:02:43.729Z</time></trkpt><trkpt lat="43.0648717" lon="2.6446717"><ele>262.6</ele><time>2026-04-26T13:02:44.731Z</time></trkpt><trkpt lat="43.0648633" lon="2.644545"><ele>263.8</ele><time>2026-04-26T13:02:45.73Z</time></trkpt><trkpt lat="43.0648567" lon="2.64443"><ele>265.0</ele><time>2026-04-26T13:02:46.728Z</time></trkpt><trkpt lat="43.06487" lon="2.6443183"><ele>266.0</ele><time>2026-04-26T13:02:47.727Z</time></trkpt><trkpt lat="43.06489" lon="2.6442167"><ele>267.0</ele><time>2026-04-26T13:02:48.729Z</time></trkpt><trkpt lat="43.064905" lon="2.6441183"><ele>268.0</ele><time>2026-04-26T13:02:49.728Z</time></trkpt><trkpt lat="43.0649" lon="2.64401"><ele>269.0</ele><time>2026-04-26T13:02:50.731Z</time></trkpt><trkpt lat="43.064885" lon="2.6438967"><ele>270.0</ele><time>2026-04-26T13:02:51.729Z</time></trkpt><trkpt lat="43.0648567" lon="2.6437883"><ele>271.0</ele><time>2026-04-26T13:02:52.731Z</time></trkpt><trkpt lat="43.06481" lon="2.6436983"><ele>271.0</ele><time>2026-04-26T13:02:53.73Z</time></trkpt><trkpt lat="43.0647667" lon="2.6436167"><ele>271.0</ele><time>2026-04-26T13:02:54.74Z</time></trkpt><trkpt lat="43.0647383" lon="2.6435317"><ele>271.0</ele><time>2026-04-26T13:02:55.731Z</time></trkpt><trkpt lat="43.0647383" lon="2.6433917"><ele>271.0</ele><time>2026-04-26T13:02:57.729Z</time></trkpt><trkpt lat="43.0647867" lon="2.6433267"><ele>271.0</ele><time>2026-04-26T13:02:59.73Z</time></trkpt><trkpt lat="43.064875" lon="2.6432417"><ele>271.0</ele><time>2026-04-26T13:03:01.732Z</time></trkpt><trkpt lat="43.064945" lon="2.64319"><ele>269.66666666666663</ele><time>2026-04-26T13:03:02.731Z</time></trkpt><trkpt lat="43.0650233" lon="2.6431317"><ele>268.3333333333333</ele><time>2026-04-26T13:03:03.73Z</time></trkpt><trkpt lat="43.0650983" lon="2.643065"><ele>267.0</ele><time>2026-04-26T13:03:04.73Z</time></trkpt><trkpt lat="43.06515" lon="2.642975"><ele>265.6666666666667</ele><time>2026-04-26T13:03:05.731Z</time></trkpt><trkpt lat="43.0651883" lon="2.6428617"><ele>264.33333333333337</ele><time>2026-04-26T13:03:06.729Z</time></trkpt><trkpt lat="43.0652217" lon="2.64274"><ele>263.0</ele><time>2026-04-26T13:03:07.731Z</time></trkpt><trkpt lat="43.0652583" lon="2.6426233"><ele>263.0</ele><time>2026-04-26T13:03:08.737Z</time></trkpt><trkpt lat="43.0652933" lon="2.6425083"><ele>263.0</ele><time>2026-04-26T13:03:09.73Z</time></trkpt><trkpt lat="43.065315" lon="2.6423867"><ele>263.0</ele><time>2026-04-26T13:03:10.731Z</time></trkpt><trkpt lat="43.0653233" lon="2.6422633"><ele>263.0</ele><time>2026-04-26T13:03:11.729Z</time></trkpt><trkpt lat="43.06532" lon="2.6421417"><ele>263.0</ele><time>2026-04-26T13:03:12.729Z</time></trkpt><trkpt lat="43.0653083" lon="2.6420233"><ele>263.0</ele><time>2026-04-26T13:03:13.727Z</time></trkpt><trkpt lat="43.065285" lon="2.6418983"><ele>264.0</ele><time>2026-04-26T13:03:14.73Z</time></trkpt><trkpt lat="43.065255" lon="2.6417783"><ele>265.0</ele><time>2026-04-26T13:03:15.729Z</time></trkpt><trkpt lat="43.0652267" lon="2.6416633"><ele>266.0</ele><time>2026-04-26T13:03:16.728Z</time></trkpt><trkpt lat="43.0652067" lon="2.641545"><ele>267.0</ele><time>2026-04-26T13:03:17.727Z</time></trkpt><trkpt lat="43.06519" lon="2.6414217"><ele>268.0</ele><time>2026-04-26T13:03:18.729Z</time></trkpt><trkpt lat="43.0651533" lon="2.6412967"><ele>268.0</ele><time>2026-04-26T13:03:19.729Z</time></trkpt><trkpt lat="43.065115" lon="2.6411817"><ele>268.0</ele><time>2026-04-26T13:03:20.729Z</time></trkpt><trkpt lat="43.0650783" lon="2.6410633"><ele>268.0</ele><time>2026-04-26T13:03:21.729Z</time></trkpt><trkpt lat="43.0650533" lon="2.64094"><ele>268.0</ele><time>2026-04-26T13:03:22.729Z</time></trkpt><trkpt lat="43.0650533" lon="2.640815"><ele>268.0</ele><time>2026-04-26T13:03:23.727Z</time></trkpt><trkpt lat="43.065065" lon="2.6406833"><ele>268.3333333333333</ele><time>2026-04-26T13:03:24.728Z</time></trkpt><trkpt lat="43.0650833" lon="2.6405433"><ele>268.66666666666663</ele><time>2026-04-26T13:03:25.727Z</time></trkpt><trkpt lat="43.065105" lon="2.6404133"><ele>269.0</ele><time>2026-04-26T13:03:26.731Z</time></trkpt><trkpt lat="43.06512" lon="2.6402917"><ele>269.3333333333333</ele><time>2026-04-26T13:03:27.728Z</time></trkpt><trkpt lat="43.06513" lon="2.6401867"><ele>269.6666666666667</ele><time>2026-04-26T13:03:28.736Z</time></trkpt><trkpt lat="43.0651333" lon="2.6400933"><ele>270.0</ele><time>2026-04-26T13:03:29.728Z</time></trkpt><trkpt lat="43.065135" lon="2.6400017"><ele>270.6</ele><time>2026-04-26T13:03:30.728Z</time></trkpt><trkpt lat="43.0651317" lon="2.6398617"><ele>271.2</ele><time>2026-04-26T13:03:32.729Z</time></trkpt><trkpt lat="43.065195" lon="2.63978"><ele>271.8</ele><time>2026-04-26T13:03:34.729Z</time></trkpt><trkpt lat="43.0653117" lon="2.6396867"><ele>272.4</ele><time>2026-04-26T13:03:36.729Z</time></trkpt><trkpt lat="43.0653833" lon="2.6396167"><ele>273.0</ele><time>2026-04-26T13:03:37.727Z</time></trkpt><trkpt lat="43.0654617" lon="2.639535"><ele>273.4</ele><time>2026-04-26T13:03:38.729Z</time></trkpt><trkpt lat="43.0655433" lon="2.6394533"><ele>273.8</ele><time>2026-04-26T13:03:39.727Z</time></trkpt><trkpt lat="43.06562" lon="2.6393667"><ele>274.2</ele><time>2026-04-26T13:03:40.729Z</time></trkpt><trkpt lat="43.065685" lon="2.639275"><ele>274.6</ele><time>2026-04-26T13:03:41.728Z</time></trkpt><trkpt lat="43.0657483" lon="2.63919"><ele>275.0</ele><time>2026-04-26T13:03:42.728Z</time></trkpt><trkpt lat="43.0658217" lon="2.639115"><ele>274.1666666666667</ele><time>2026-04-26T13:03:43.729Z</time></trkpt><trkpt lat="43.0658967" lon="2.6390533"><ele>273.33333333333337</ele><time>2026-04-26T13:03:44.73Z</time></trkpt><trkpt lat="43.0659683" lon="2.6389933"><ele>272.5</ele><time>2026-04-26T13:03:45.729Z</time></trkpt><trkpt lat="43.06603" lon="2.6389283"><ele>271.6666666666667</ele><time>2026-04-26T13:03:46.73Z</time></trkpt><trkpt lat="43.06609" lon="2.6388583"><ele>270.8333333333333</ele><time>2026-04-26T13:03:47.727Z</time></trkpt><trkpt lat="43.06615" lon="2.6387817"><ele>270.0</ele><time>2026-04-26T13:03:48.742Z</time></trkpt><trkpt lat="43.0662067" lon="2.6387"><ele>270.3333333333333</ele><time>2026-04-26T13:03:49.729Z</time></trkpt><trkpt lat="43.0662583" lon="2.6386267"><ele>270.6666666666667</ele><time>2026-04-26T13:03:50.732Z</time></trkpt><trkpt lat="43.06631" lon="2.63856"><ele>271.0</ele><time>2026-04-26T13:03:51.728Z</time></trkpt><trkpt lat="43.066365" lon="2.63851"><ele>271.33333333333337</ele><time>2026-04-26T13:03:52.729Z</time></trkpt><trkpt lat="43.06649" lon="2.6385017"><ele>271.6666666666667</ele><time>2026-04-26T13:03:54.73Z</time></trkpt><trkpt lat="43.0665583" lon="2.6385383"><ele>272.0</ele><time>2026-04-26T13:03:55.727Z</time></trkpt><trkpt lat="43.066625" lon="2.6385817"><ele>270.57142857142856</ele><time>2026-04-26T13:03:56.735Z</time></trkpt><trkpt lat="43.0666983" lon="2.6386117"><ele>269.1428571428571</ele><time>2026-04-26T13:03:57.73Z</time></trkpt><trkpt lat="43.066775" lon="2.6386267"><ele>267.7142857142857</ele><time>2026-04-26T13:03:58.728Z</time></trkpt><trkpt lat="43.0668483" lon="2.638635"><ele>266.2857142857143</ele><time>2026-04-26T13:03:59.728Z</time></trkpt><trkpt lat="43.0669233" lon="2.6386383"><ele>264.8571428571429</ele><time>2026-04-26T13:04:00.73Z</time></trkpt><trkpt lat="43.066995" lon="2.638635"><ele>263.42857142857144</ele><time>2026-04-26T13:04:01.73Z</time></trkpt><trkpt lat="43.0670633" lon="2.6386283"><ele>262.0</ele><time>2026-04-26T13:04:02.73Z</time></trkpt><trkpt lat="43.0671283" lon="2.63862"><ele>262.0</ele><time>2026-04-26T13:04:03.728Z</time></trkpt><trkpt lat="43.0671933" lon="2.6386083"><ele>262.0</ele><time>2026-04-26T13:04:04.729Z</time></trkpt><trkpt lat="43.0672767" lon="2.6386183"><ele>262.0</ele><time>2026-04-26T13:04:06.728Z</time></trkpt><trkpt lat="43.06732" lon="2.6387133"><ele>262.0</ele><time>2026-04-26T13:04:08.731Z</time></trkpt><trkpt lat="43.0673417" lon="2.6388417"><ele>262.0</ele><time>2026-04-26T13:04:10.73Z</time></trkpt><trkpt lat="43.0673883" lon="2.638985"><ele>262.0</ele><time>2026-04-26T13:04:12.733Z</time></trkpt><trkpt lat="43.0674267" lon="2.639115"><ele>258.0</ele><time>2026-04-26T13:04:14.73Z</time></trkpt><trkpt lat="43.0674567" lon="2.63928"><ele>254.0</ele><time>2026-04-26T13:04:16.73Z</time></trkpt><trkpt lat="43.0674783" lon="2.6393883"><ele>250.0</ele><time>2026-04-26T13:04:17.729Z</time></trkpt><trkpt lat="43.0675067" lon="2.6394983"><ele>246.0</ele><time>2026-04-26T13:04:18.728Z</time></trkpt><trkpt lat="43.06754" lon="2.6396067"><ele>242.0</ele><time>2026-04-26T13:04:19.728Z</time></trkpt><trkpt lat="43.0675783" lon="2.639705"><ele>241.0</ele><time>2026-04-26T13:04:20.73Z</time></trkpt><trkpt lat="43.06762" lon="2.6397933"><ele>240.0</ele><time>2026-04-26T13:04:21.729Z</time></trkpt><trkpt lat="43.06768" lon="2.6398767"><ele>239.0</ele><time>2026-04-26T13:04:22.732Z</time></trkpt><trkpt lat="43.0677483" lon="2.639955"><ele>238.0</ele><time>2026-04-26T13:04:23.728Z</time></trkpt><trkpt lat="43.067825" lon="2.6400467"><ele>237.0</ele><time>2026-04-26T13:04:24.729Z</time></trkpt><trkpt lat="43.0678967" lon="2.6401483"><ele>237.0</ele><time>2026-04-26T13:04:25.729Z</time></trkpt><trkpt lat="43.0679633" lon="2.6402583"><ele>237.0</ele><time>2026-04-26T13:04:26.729Z</time></trkpt><trkpt lat="43.0680317" lon="2.64038"><ele>237.0</ele><time>2026-04-26T13:04:27.731Z</time></trkpt><trkpt lat="43.0680983" lon="2.6405033"><ele>237.0</ele><time>2026-04-26T13:04:28.73Z</time></trkpt><trkpt lat="43.0681633" lon="2.6406417"><ele>237.0</ele><time>2026-04-26T13:04:29.729Z</time></trkpt><trkpt lat="43.06823" lon="2.6407917"><ele>235.5</ele><time>2026-04-26T13:04:30.73Z</time></trkpt><trkpt lat="43.0682917" lon="2.6409517"><ele>234.0</ele><time>2026-04-26T13:04:31.728Z</time></trkpt><trkpt lat="43.0683517" lon="2.6411167"><ele>232.5</ele><time>2026-04-26T13:04:32.729Z</time></trkpt><trkpt lat="43.0684267" lon="2.6412917"><ele>231.0</ele><time>2026-04-26T13:04:33.729Z</time></trkpt><trkpt lat="43.0685033" lon="2.6414717"><ele>230.25</ele><time>2026-04-26T13:04:34.729Z</time></trkpt><trkpt lat="43.06857" lon="2.641645"><ele>229.5</ele><time>2026-04-26T13:04:35.73Z</time></trkpt><trkpt lat="43.0686217" lon="2.6418117"><ele>228.75</ele><time>2026-04-26T13:04:36.729Z</time></trkpt><trkpt lat="43.0686683" lon="2.6419667"><ele>228.0</ele><time>2026-04-26T13:04:37.729Z</time></trkpt><trkpt lat="43.0687167" lon="2.6421167"><ele>227.0</ele><time>2026-04-26T13:04:38.729Z</time></trkpt><trkpt lat="43.0687683" lon="2.642265"><ele>226.0</ele><time>2026-04-26T13:04:39.728Z</time></trkpt><trkpt lat="43.068835" lon="2.642415"><ele>225.0</ele><time>2026-04-26T13:04:40.731Z</time></trkpt><trkpt lat="43.0689133" lon="2.64256"><ele>224.0</ele><time>2026-04-26T13:04:41.729Z</time></trkpt><trkpt lat="43.0689917" lon="2.64271"><ele>223.5</ele><time>2026-04-26T13:04:42.731Z</time></trkpt><trkpt lat="43.06908" lon="2.6428667"><ele>223.0</ele><time>2026-04-26T13:04:43.728Z</time></trkpt><trkpt lat="43.0691733" lon="2.643015"><ele>222.5</ele><time>2026-04-26T13:04:44.729Z</time></trkpt><trkpt lat="43.069265" lon="2.643165"><ele>222.0</ele><time>2026-04-26T13:04:45.728Z</time></trkpt><trkpt lat="43.0693483" lon="2.64332"><ele>222.0</ele><time>2026-04-26T13:04:46.729Z</time></trkpt><trkpt lat="43.0694233" lon="2.643485"><ele>222.0</ele><time>2026-04-26T13:04:47.73Z</time></trkpt><trkpt lat="43.0694883" lon="2.643665"><ele>222.0</ele><time>2026-04-26T13:04:48.728Z</time></trkpt><trkpt lat="43.0695467" lon="2.643845"><ele>222.0</ele><time>2026-04-26T13:04:49.729Z</time></trkpt><trkpt lat="43.0696017" lon="2.64402"><ele>220.75</ele><time>2026-04-26T13:04:50.728Z</time></trkpt><trkpt lat="43.0696517" lon="2.64419"><ele>219.5</ele><time>2026-04-26T13:04:51.73Z</time></trkpt><trkpt lat="43.0697" lon="2.6443583"><ele>218.25</ele><time>2026-04-26T13:04:52.728Z</time></trkpt><trkpt lat="43.069755" lon="2.64453"><ele>217.0</ele><time>2026-04-26T13:04:53.728Z</time></trkpt><trkpt lat="43.0698117" lon="2.64471"><ele>216.33333333333331</ele><time>2026-04-26T13:04:54.729Z</time></trkpt><trkpt lat="43.0698733" lon="2.6448967"><ele>215.66666666666669</ele><time>2026-04-26T13:04:55.729Z</time></trkpt><trkpt lat="43.0699383" lon="2.6450917"><ele>215.0</ele><time>2026-04-26T13:04:56.728Z</time></trkpt><trkpt lat="43.0700167" lon="2.6452833"><ele>213.0</ele><time>2026-04-26T13:04:57.728Z</time></trkpt><trkpt lat="43.070105" lon="2.6454683"><ele>211.0</ele><time>2026-04-26T13:04:58.729Z</time></trkpt><trkpt lat="43.0701917" lon="2.6456533"><ele>209.0</ele><time>2026-04-26T13:04:59.73Z</time></trkpt><trkpt lat="43.07027" lon="2.6458333"><ele>209.0</ele><time>2026-04-26T13:05:00.728Z</time></trkpt><trkpt lat="43.070345" lon="2.6460117"><ele>209.0</ele><time>2026-04-26T13:05:01.728Z</time></trkpt><trkpt lat="43.070415" lon="2.6461833"><ele>209.0</ele><time>2026-04-26T13:05:02.729Z</time></trkpt><trkpt lat="43.07049" lon="2.6463617"><ele>209.0</ele><time>2026-04-26T13:05:03.73Z</time></trkpt><trkpt lat="43.07058" lon="2.6465333"><ele>208.0</ele><time>2026-04-26T13:05:04.728Z</time></trkpt><trkpt lat="43.0706817" lon="2.646615"><ele>207.0</ele><time>2026-04-26T13:05:05.728Z</time></trkpt><trkpt lat="43.0707833" lon="2.6467167"><ele>206.0</ele><time>2026-04-26T13:05:06.728Z</time></trkpt><trkpt lat="43.070875" lon="2.6468367"><ele>205.0</ele><time>2026-04-26T13:05:07.728Z</time></trkpt><trkpt lat="43.0709583" lon="2.6469817"><ele>204.0</ele><time>2026-04-26T13:05:08.73Z</time></trkpt><trkpt lat="43.0710383" lon="2.6471433"><ele>203.0</ele><time>2026-04-26T13:05:09.728Z</time></trkpt><trkpt lat="43.071115" lon="2.6473067"><ele>202.0</ele><time>2026-04-26T13:05:10.727Z</time></trkpt><trkpt lat="43.0712" lon="2.6474733"><ele>201.0</ele><time>2026-04-26T13:05:11.728Z</time></trkpt><trkpt lat="43.0712933" lon="2.6476467"><ele>200.33333333333331</ele><time>2026-04-26T13:05:12.728Z</time></trkpt><trkpt lat="43.0713933" lon="2.6478133"><ele>199.66666666666666</ele><time>2026-04-26T13:05:13.728Z</time></trkpt><trkpt lat="43.071505" lon="2.64797"><ele>199.0</ele><time>2026-04-26T13:05:14.73Z</time></trkpt><trkpt lat="43.071625" lon="2.6481267"><ele>197.33333333333331</ele><time>2026-04-26T13:05:15.728Z</time></trkpt><trkpt lat="43.0717417" lon="2.6482767"><ele>195.66666666666669</ele><time>2026-04-26T13:05:16.728Z</time></trkpt><trkpt lat="43.071865" lon="2.6484133"><ele>194.0</ele><time>2026-04-26T13:05:17.728Z</time></trkpt><trkpt lat="43.0719833" lon="2.648545"><ele>194.0</ele><time>2026-04-26T13:05:18.731Z</time></trkpt><trkpt lat="43.07209" lon="2.6486867"><ele>194.0</ele><time>2026-04-26T13:05:19.728Z</time></trkpt><trkpt lat="43.07218" lon="2.6488467"><ele>194.0</ele><time>2026-04-26T13:05:20.735Z</time></trkpt><trkpt lat="43.072265" lon="2.6490133"><ele>194.0</ele><time>2026-04-26T13:05:21.728Z</time></trkpt><trkpt lat="43.0723517" lon="2.6491817"><ele>193.0</ele><time>2026-04-26T13:05:22.729Z</time></trkpt><trkpt lat="43.0724417" lon="2.6493467"><ele>192.0</ele><time>2026-04-26T13:05:23.728Z</time></trkpt><trkpt lat="43.0725283" lon="2.64951"><ele>191.0</ele><time>2026-04-26T13:05:24.73Z</time></trkpt><trkpt lat="43.0726083" lon="2.6496667"><ele>190.0</ele><time>2026-04-26T13:05:25.728Z</time></trkpt><trkpt lat="43.0726833" lon="2.6498133"><ele>190.0</ele><time>2026-04-26T13:05:26.73Z</time></trkpt><trkpt lat="43.0727533" lon="2.6499517"><ele>190.0</ele><time>2026-04-26T13:05:27.728Z</time></trkpt><trkpt lat="43.0728233" lon="2.6500833"><ele>190.0</ele><time>2026-04-26T13:05:28.729Z</time></trkpt><trkpt lat="43.0728917" lon="2.6502067"><ele>190.0</ele><time>2026-04-26T13:05:29.728Z</time></trkpt><trkpt lat="43.0729583" lon="2.6503267"><ele>189.75</ele><time>2026-04-26T13:05:30.73Z</time></trkpt><trkpt lat="43.0730267" lon="2.6504483"><ele>189.5</ele><time>2026-04-26T13:05:31.728Z</time></trkpt><trkpt lat="43.0731017" lon="2.650575"><ele>189.25</ele><time>2026-04-26T13:05:32.734Z</time></trkpt><trkpt lat="43.0731767" lon="2.65071"><ele>189.0</ele><time>2026-04-26T13:05:33.728Z</time></trkpt><trkpt lat="43.0732583" lon="2.6508583"><ele>188.0</ele><time>2026-04-26T13:05:34.731Z</time></trkpt><trkpt lat="43.073345" lon="2.6510083"><ele>187.0</ele><time>2026-04-26T13:05:35.727Z</time></trkpt><trkpt lat="43.0734367" lon="2.6511483"><ele>186.0</ele><time>2026-04-26T13:05:36.732Z</time></trkpt><trkpt lat="43.0735367" lon="2.6512733"><ele>185.0</ele><time>2026-04-26T13:05:37.729Z</time></trkpt><trkpt lat="43.073635" lon="2.6513933"><ele>184.25</ele><time>2026-04-26T13:05:38.728Z</time></trkpt><trkpt lat="43.073745" lon="2.65151"><ele>183.5</ele><time>2026-04-26T13:05:39.731Z</time></trkpt><trkpt lat="43.0738533" lon="2.6516533"><ele>182.75</ele><time>2026-04-26T13:05:40.729Z</time></trkpt><trkpt lat="43.0739517" lon="2.6518133"><ele>182.0</ele><time>2026-04-26T13:05:41.728Z</time></trkpt><trkpt lat="43.0740517" lon="2.6519867"><ele>181.0</ele><time>2026-04-26T13:05:42.73Z</time></trkpt><trkpt lat="43.0741567" lon="2.6521683"><ele>180.0</ele><time>2026-04-26T13:05:43.729Z</time></trkpt><trkpt lat="43.0742617" lon="2.6523567"><ele>179.0</ele><time>2026-04-26T13:05:44.737Z</time></trkpt><trkpt lat="43.0743683" lon="2.652535"><ele>179.0</ele><time>2026-04-26T13:05:45.727Z</time></trkpt><trkpt lat="43.074475" lon="2.6527233"><ele>179.0</ele><time>2026-04-26T13:05:46.73Z</time></trkpt><trkpt lat="43.0745833" lon="2.652915"><ele>179.0</ele><time>2026-04-26T13:05:47.73Z</time></trkpt><trkpt lat="43.0746883" lon="2.6531017"><ele>177.66666666666666</ele><time>2026-04-26T13:05:48.729Z</time></trkpt><trkpt lat="43.0747867" lon="2.653285"><ele>176.33333333333334</ele><time>2026-04-26T13:05:49.729Z</time></trkpt><trkpt lat="43.0748817" lon="2.6534633"><ele>175.0</ele><time>2026-04-26T13:05:50.731Z</time></trkpt><trkpt lat="43.0749733" lon="2.6536367"><ele>173.0</ele><time>2026-04-26T13:05:51.73Z</time></trkpt><trkpt lat="43.0750667" lon="2.6538067"><ele>171.0</ele><time>2026-04-26T13:05:52.73Z</time></trkpt><trkpt lat="43.0751667" lon="2.653965"><ele>169.0</ele><time>2026-04-26T13:05:53.73Z</time></trkpt><trkpt lat="43.0752717" lon="2.6541133"><ele>169.0</ele><time>2026-04-26T13:05:54.728Z</time></trkpt><trkpt lat="43.0753817" lon="2.6542583"><ele>169.0</ele><time>2026-04-26T13:05:55.728Z</time></trkpt><trkpt lat="43.075495" lon="2.6544083"><ele>169.0</ele><time>2026-04-26T13:05:56.729Z</time></trkpt><trkpt lat="43.0756067" lon="2.6545683"><ele>168.66666666666669</ele><time>2026-04-26T13:05:57.729Z</time></trkpt><trkpt lat="43.075715" lon="2.6547283"><ele>168.33333333333334</ele><time>2026-04-26T13:05:58.731Z</time></trkpt><trkpt lat="43.0758183" lon="2.6548867"><ele>168.0</ele><time>2026-04-26T13:05:59.729Z</time></trkpt><trkpt lat="43.0759217" lon="2.6550483"><ele>167.33333333333334</ele><time>2026-04-26T13:06:00.736Z</time></trkpt><trkpt lat="43.0760217" lon="2.6552183"><ele>166.66666666666669</ele><time>2026-04-26T13:06:01.728Z</time></trkpt><trkpt lat="43.07612" lon="2.6554017"><ele>166.0</ele><time>2026-04-26T13:06:02.728Z</time></trkpt><trkpt lat="43.076215" lon="2.6555933"><ele>165.66666666666669</ele><time>2026-04-26T13:06:03.728Z</time></trkpt><trkpt lat="43.076305" lon="2.6557867"><ele>165.33333333333334</ele><time>2026-04-26T13:06:04.729Z</time></trkpt><trkpt lat="43.076395" lon="2.6559767"><ele>165.0</ele><time>2026-04-26T13:06:05.729Z</time></trkpt><trkpt lat="43.076485" lon="2.65617"><ele>165.0</ele><time>2026-04-26T13:06:06.729Z</time></trkpt><trkpt lat="43.0765817" lon="2.6563567"><ele>165.0</ele><time>2026-04-26T13:06:07.728Z</time></trkpt><trkpt lat="43.0766817" lon="2.656535"><ele>165.0</ele><time>2026-04-26T13:06:08.729Z</time></trkpt><trkpt lat="43.0767833" lon="2.6567067"><ele>162.25</ele><time>2026-04-26T13:06:09.73Z</time></trkpt><trkpt lat="43.0768767" lon="2.656875"><ele>159.5</ele><time>2026-04-26T13:06:10.728Z</time></trkpt><trkpt lat="43.07696" lon="2.6570417"><ele>156.75</ele><time>2026-04-26T13:06:11.729Z</time></trkpt><trkpt lat="43.0770367" lon="2.6572067"><ele>154.0</ele><time>2026-04-26T13:06:12.728Z</time></trkpt><trkpt lat="43.0771017" lon="2.65738"><ele>153.66666666666669</ele><time>2026-04-26T13:06:13.729Z</time></trkpt><trkpt lat="43.0771617" lon="2.6575683"><ele>153.33333333333334</ele><time>2026-04-26T13:06:14.73Z</time></trkpt><trkpt lat="43.0772267" lon="2.657765"><ele>153.0</ele><time>2026-04-26T13:06:15.727Z</time></trkpt><trkpt lat="43.0772883" lon="2.6579533"><ele>153.66666666666666</ele><time>2026-04-26T13:06:16.727Z</time></trkpt><trkpt lat="43.07735" lon="2.6581433"><ele>154.33333333333331</ele><time>2026-04-26T13:06:17.732Z</time></trkpt><trkpt lat="43.0774133" lon="2.6583367"><ele>155.0</ele><time>2026-04-26T13:06:18.727Z</time></trkpt><trkpt lat="43.0774917" lon="2.6585217"><ele>154.5</ele><time>2026-04-26T13:06:19.728Z</time></trkpt><trkpt lat="43.0775767" lon="2.658695"><ele>154.0</ele><time>2026-04-26T13:06:20.728Z</time></trkpt><trkpt lat="43.0776633" lon="2.6588533"><ele>153.5</ele><time>2026-04-26T13:06:21.727Z</time></trkpt><trkpt lat="43.07775" lon="2.6590017"><ele>153.0</ele><time>2026-04-26T13:06:22.728Z</time></trkpt><trkpt lat="43.0778317" lon="2.6591533"><ele>153.0</ele><time>2026-04-26T13:06:23.727Z</time></trkpt><trkpt lat="43.0779017" lon="2.6593033"><ele>153.0</ele><time>2026-04-26T13:06:24.729Z</time></trkpt><trkpt lat="43.07797" lon="2.659445"><ele>153.0</ele><time>2026-04-26T13:06:25.728Z</time></trkpt><trkpt lat="43.07805" lon="2.6595683"><ele>153.0</ele><time>2026-04-26T13:06:26.729Z</time></trkpt><trkpt lat="43.0781517" lon="2.6596717"><ele>152.5</ele><time>2026-04-26T13:06:27.727Z</time></trkpt><trkpt lat="43.078255" lon="2.6597533"><ele>152.0</ele><time>2026-04-26T13:06:28.733Z</time></trkpt><trkpt lat="43.0783533" lon="2.6598333"><ele>151.5</ele><time>2026-04-26T13:06:29.728Z</time></trkpt><trkpt lat="43.0784383" lon="2.659925"><ele>151.0</ele><time>2026-04-26T13:06:30.728Z</time></trkpt><trkpt lat="43.0785133" lon="2.66004"><ele>151.0</ele><time>2026-04-26T13:06:31.728Z</time></trkpt><trkpt lat="43.07858" lon="2.6601817"><ele>151.0</ele><time>2026-04-26T13:06:32.729Z</time></trkpt><trkpt lat="43.0786433" lon="2.6603367"><ele>151.0</ele><time>2026-04-26T13:06:33.729Z</time></trkpt><trkpt lat="43.0787017" lon="2.6604967"><ele>151.0</ele><time>2026-04-26T13:06:34.727Z</time></trkpt><trkpt lat="43.07875" lon="2.660665"><ele>151.5</ele><time>2026-04-26T13:06:35.728Z</time></trkpt><trkpt lat="43.078785" lon="2.6608483"><ele>152.0</ele><time>2026-04-26T13:06:36.727Z</time></trkpt><trkpt lat="43.078825" lon="2.6610383"><ele>152.5</ele><time>2026-04-26T13:06:37.727Z</time></trkpt><trkpt lat="43.0788783" lon="2.66122"><ele>153.0</ele><time>2026-04-26T13:06:38.728Z</time></trkpt><trkpt lat="43.0789317" lon="2.661395"><ele>153.75</ele><time>2026-04-26T13:06:39.728Z</time></trkpt><trkpt lat="43.0789733" lon="2.661565"><ele>154.5</ele><time>2026-04-26T13:06:40.729Z</time></trkpt><trkpt lat="43.07901" lon="2.66174"><ele>155.25</ele><time>2026-04-26T13:06:41.73Z</time></trkpt><trkpt lat="43.0790467" lon="2.6619033"><ele>156.0</ele><time>2026-04-26T13:06:42.728Z</time></trkpt><trkpt lat="43.0790867" lon="2.66205"><ele>156.0</ele><time>2026-04-26T13:06:43.727Z</time></trkpt><trkpt lat="43.0791367" lon="2.66218"><ele>156.0</ele><time>2026-04-26T13:06:44.733Z</time></trkpt><trkpt lat="43.0792033" lon="2.66229"><ele>156.0</ele><time>2026-04-26T13:06:45.728Z</time></trkpt><trkpt lat="43.0792733" lon="2.6623833"><ele>156.0</ele><time>2026-04-26T13:06:46.729Z</time></trkpt><trkpt lat="43.0793317" lon="2.6624683"><ele>156.0</ele><time>2026-04-26T13:06:47.727Z</time></trkpt><trkpt lat="43.079385" lon="2.6625433"><ele>156.0</ele><time>2026-04-26T13:06:48.728Z</time></trkpt><trkpt lat="43.0794283" lon="2.662625"><ele>156.0</ele><time>2026-04-26T13:06:49.727Z</time></trkpt><trkpt lat="43.0794783" lon="2.662715"><ele>156.0</ele><time>2026-04-26T13:06:50.729Z</time></trkpt><trkpt lat="43.07953" lon="2.6628167"><ele>156.0</ele><time>2026-04-26T13:06:51.731Z</time></trkpt><trkpt lat="43.0795817" lon="2.6629367"><ele>156.0</ele><time>2026-04-26T13:06:52.729Z</time></trkpt><trkpt lat="43.0796333" lon="2.6630717"><ele>156.0</ele><time>2026-04-26T13:06:53.728Z</time></trkpt><trkpt lat="43.0796867" lon="2.663215"><ele>156.0</ele><time>2026-04-26T13:06:54.728Z</time></trkpt><trkpt lat="43.0797333" lon="2.66337"><ele>156.0</ele><time>2026-04-26T13:06:55.728Z</time></trkpt><trkpt lat="43.0797717" lon="2.6635267"><ele>156.0</ele><time>2026-04-26T13:06:56.73Z</time></trkpt><trkpt lat="43.0798033" lon="2.66368"><ele>156.0</ele><time>2026-04-26T13:06:57.728Z</time></trkpt><trkpt lat="43.0798367" lon="2.6638233"><ele>156.0</ele><time>2026-04-26T13:06:58.729Z</time></trkpt><trkpt lat="43.07987" lon="2.66396"><ele>156.0</ele><time>2026-04-26T13:06:59.73Z</time></trkpt><trkpt lat="43.0798967" lon="2.6640933"><ele>156.0</ele><time>2026-04-26T13:07:00.73Z</time></trkpt><trkpt lat="43.0799317" lon="2.6642117"><ele>156.0</ele><time>2026-04-26T13:07:01.73Z</time></trkpt><trkpt lat="43.0799717" lon="2.6643117"><ele>154.16666666666666</ele><time>2026-04-26T13:07:02.731Z</time></trkpt><trkpt lat="43.080025" lon="2.6643883"><ele>152.33333333333334</ele><time>2026-04-26T13:07:03.731Z</time></trkpt><trkpt lat="43.0800917" lon="2.6644567"><ele>150.5</ele><time>2026-04-26T13:07:04.729Z</time></trkpt><trkpt lat="43.0801567" lon="2.6645217"><ele>148.66666666666669</ele><time>2026-04-26T13:07:05.732Z</time></trkpt><trkpt lat="43.08022" lon="2.664585"><ele>146.83333333333334</ele><time>2026-04-26T13:07:06.733Z</time></trkpt><trkpt lat="43.080285" lon="2.6646367"><ele>145.0</ele><time>2026-04-26T13:07:07.732Z</time></trkpt><trkpt lat="43.0803433" lon="2.6646783"><ele>145.0</ele><time>2026-04-26T13:07:08.73Z</time></trkpt><trkpt lat="43.08041" lon="2.6646983"><ele>145.0</ele><time>2026-04-26T13:07:09.73Z</time></trkpt><trkpt lat="43.0804933" lon="2.6646867"><ele>145.0</ele><time>2026-04-26T13:07:10.731Z</time></trkpt><trkpt lat="43.0805767" lon="2.6646617"><ele>145.0</ele><time>2026-04-26T13:07:11.731Z</time></trkpt><trkpt lat="43.0806583" lon="2.6646433"><ele>145.0</ele><time>2026-04-26T13:07:12.73Z</time></trkpt><trkpt lat="43.080735" lon="2.6646367"><ele>145.0</ele><time>2026-04-26T13:07:13.731Z</time></trkpt><trkpt lat="43.0808067" lon="2.6646317"><ele>143.8</ele><time>2026-04-26T13:07:14.731Z</time></trkpt><trkpt lat="43.08091" lon="2.664625"><ele>142.6</ele><time>2026-04-26T13:07:16.731Z</time></trkpt><trkpt lat="43.081" lon="2.6646717"><ele>141.4</ele><time>2026-04-26T13:07:19.731Z</time></trkpt><trkpt lat="43.0810167" lon="2.6648133"><ele>140.2</ele><time>2026-04-26T13:07:21.732Z</time></trkpt><trkpt lat="43.08102" lon="2.6649167"><ele>139.0</ele><time>2026-04-26T13:07:22.73Z</time></trkpt><trkpt lat="43.0810217" lon="2.6650383"><ele>139.0</ele><time>2026-04-26T13:07:23.732Z</time></trkpt><trkpt lat="43.081025" lon="2.665165"><ele>139.0</ele><time>2026-04-26T13:07:24.731Z</time></trkpt><trkpt lat="43.0810333" lon="2.6652833"><ele>139.0</ele><time>2026-04-26T13:07:25.731Z</time></trkpt><trkpt lat="43.08104" lon="2.6654"><ele>139.0</ele><time>2026-04-26T13:07:26.73Z</time></trkpt><trkpt lat="43.081045" lon="2.6655217"><ele>139.0</ele><time>2026-04-26T13:07:27.731Z</time></trkpt><trkpt lat="43.0810483" lon="2.665645"><ele>139.0</ele><time>2026-04-26T13:07:28.73Z</time></trkpt><trkpt lat="43.0810517" lon="2.66577"><ele>139.0</ele><time>2026-04-26T13:07:29.732Z</time></trkpt><trkpt lat="43.08106" lon="2.66591"><ele>139.0</ele><time>2026-04-26T13:07:30.731Z</time></trkpt><trkpt lat="43.081065" lon="2.6660533"><ele>139.0</ele><time>2026-04-26T13:07:31.731Z</time></trkpt><trkpt lat="43.081075" lon="2.6662083"><ele>139.0</ele><time>2026-04-26T13:07:32.73Z</time></trkpt><trkpt lat="43.08109" lon="2.6663583"><ele>139.0</ele><time>2026-04-26T13:07:33.731Z</time></trkpt><trkpt lat="43.0810867" lon="2.6665133"><ele>139.0</ele><time>2026-04-26T13:07:34.73Z</time></trkpt><trkpt lat="43.0810933" lon="2.666665"><ele>139.0</ele><time>2026-04-26T13:07:35.731Z</time></trkpt><trkpt lat="43.081095" lon="2.66679"><ele>139.0</ele><time>2026-04-26T13:07:36.731Z</time></trkpt><trkpt lat="43.0810983" lon="2.6668983"><ele>139.0</ele><time>2026-04-26T13:07:37.73Z</time></trkpt><trkpt lat="43.0811017" lon="2.667"><ele>139.0</ele><time>2026-04-26T13:07:38.73Z</time></trkpt><trkpt lat="43.0811017" lon="2.6670967"><ele>139.0</ele><time>2026-04-26T13:07:39.73Z</time></trkpt><trkpt lat="43.0811033" lon="2.6671833"><ele>139.0</ele><time>2026-04-26T13:07:40.729Z</time></trkpt><trkpt lat="43.0810683" lon="2.6673133"><ele>139.0</ele><time>2026-04-26T13:07:42.731Z</time></trkpt><trkpt lat="43.080995" lon="2.6673883"><ele>139.0</ele><time>2026-04-26T13:07:44.728Z</time></trkpt><trkpt lat="43.0809617" lon="2.6675533"><ele>139.0</ele><time>2026-04-26T13:07:46.73Z</time></trkpt><trkpt lat="43.08096" lon="2.6676733"><ele>139.0</ele><time>2026-04-26T13:07:47.729Z</time></trkpt><trkpt lat="43.0809517" lon="2.667795"><ele>139.0</ele><time>2026-04-26T13:07:48.729Z</time></trkpt><trkpt lat="43.0809317" lon="2.6679333"><ele>139.0</ele><time>2026-04-26T13:07:49.728Z</time></trkpt><trkpt lat="43.0808967" lon="2.66808"><ele>139.0</ele><time>2026-04-26T13:07:50.728Z</time></trkpt><trkpt lat="43.0808583" lon="2.66823"><ele>139.0</ele><time>2026-04-26T13:07:51.729Z</time></trkpt><trkpt lat="43.08083" lon="2.668395"><ele>139.0</ele><time>2026-04-26T13:07:52.728Z</time></trkpt><trkpt lat="43.0807933" lon="2.668565"><ele>139.0</ele><time>2026-04-26T13:07:53.728Z</time></trkpt><trkpt lat="43.0807467" lon="2.6687317"><ele>139.0</ele><time>2026-04-26T13:07:54.728Z</time></trkpt><trkpt lat="43.0807065" lon="2.6688892"><ele>139.0</ele><time>2026-04-26T13:07:55.728Z</time></trkpt><trkpt lat="43.0806602" lon="2.6690441"><ele>141.8</ele><time>2026-04-26T13:07:56.729Z</time></trkpt><trkpt lat="43.0806041" lon="2.6691832"><ele>144.60000000000002</ele><time>2026-04-26T13:07:57.728Z</time></trkpt><trkpt lat="43.0805451" lon="2.6692935"><ele>147.4</ele><time>2026-04-26T13:07:58.728Z</time></trkpt><trkpt lat="43.0804821" lon="2.6693754"><ele>150.20000000000002</ele><time>2026-04-26T13:07:59.728Z</time></trkpt><trkpt lat="43.0804147" lon="2.6694387"><ele>153.0</ele><time>2026-04-26T13:08:00.728Z</time></trkpt><trkpt lat="43.08034" lon="2.6694944"><ele>153.20000000000002</ele><time>2026-04-26T13:08:01.728Z</time></trkpt><trkpt lat="43.0802658" lon="2.6695676"><ele>153.4</ele><time>2026-04-26T13:08:02.728Z</time></trkpt><trkpt lat="43.0801941" lon="2.6696693"><ele>153.60000000000002</ele><time>2026-04-26T13:08:03.728Z</time></trkpt><trkpt lat="43.0801212" lon="2.6697862"><ele>153.8</ele><time>2026-04-26T13:08:04.729Z</time></trkpt><trkpt lat="43.0800406" lon="2.6699111"><ele>154.0</ele><time>2026-04-26T13:08:05.73Z</time></trkpt><trkpt lat="43.0799563" lon="2.6700389"><ele>156.0</ele><time>2026-04-26T13:08:06.731Z</time></trkpt><trkpt lat="43.0798808" lon="2.6701694"><ele>158.0</ele><time>2026-04-26T13:08:07.731Z</time></trkpt><trkpt lat="43.0798206" lon="2.6702968"><ele>160.0</ele><time>2026-04-26T13:08:08.729Z</time></trkpt><trkpt lat="43.07978" lon="2.6704377"><ele>162.0</ele><time>2026-04-26T13:08:09.729Z</time></trkpt><trkpt lat="43.0797494" lon="2.6705785"><ele>162.0</ele><time>2026-04-26T13:08:10.728Z</time></trkpt><trkpt lat="43.0797243" lon="2.670699"><ele>162.0</ele><time>2026-04-26T13:08:11.727Z</time></trkpt><trkpt lat="43.0796982" lon="2.6708072"><ele>162.0</ele><time>2026-04-26T13:08:12.728Z</time></trkpt><trkpt lat="43.0796645" lon="2.6708995"><ele>162.0</ele><time>2026-04-26T13:08:13.729Z</time></trkpt><trkpt lat="43.0796116" lon="2.6709898"><ele>162.0</ele><time>2026-04-26T13:08:15.731Z</time></trkpt><trkpt lat="43.0796467" lon="2.6710817"><ele>162.0</ele><time>2026-04-26T13:08:19.729Z</time></trkpt><trkpt lat="43.07964" lon="2.6712383"><ele>162.0</ele><time>2026-04-26T13:08:21.728Z</time></trkpt><trkpt lat="43.0796283" lon="2.67135"><ele>162.0</ele><time>2026-04-26T13:08:22.728Z</time></trkpt><trkpt lat="43.07961" lon="2.6714817"><ele>162.0</ele><time>2026-04-26T13:08:23.728Z</time></trkpt><trkpt lat="43.0795933" lon="2.6716233"><ele>162.0</ele><time>2026-04-26T13:08:24.728Z</time></trkpt><trkpt lat="43.07958" lon="2.6717767"><ele>162.0</ele><time>2026-04-26T13:08:25.728Z</time></trkpt><trkpt lat="43.07957" lon="2.6719317"><ele>161.8</ele><time>2026-04-26T13:08:26.729Z</time></trkpt><trkpt lat="43.07956" lon="2.6720783"><ele>161.6</ele><time>2026-04-26T13:08:27.728Z</time></trkpt><trkpt lat="43.0795467" lon="2.672215"><ele>161.4</ele><time>2026-04-26T13:08:28.727Z</time></trkpt><trkpt lat="43.0795217" lon="2.6723383"><ele>161.20000000000002</ele><time>2026-04-26T13:08:29.732Z</time></trkpt><trkpt lat="43.0794883" lon="2.6724417"><ele>161.0</ele><time>2026-04-26T13:08:30.727Z</time></trkpt><trkpt lat="43.079455" lon="2.6725417"><ele>161.0</ele><time>2026-04-26T13:08:31.727Z</time></trkpt><trkpt lat="43.07943" lon="2.6726567"><ele>161.0</ele><time>2026-04-26T13:08:32.729Z</time></trkpt><trkpt lat="43.0794033" lon="2.6727867"><ele>161.0</ele><time>2026-04-26T13:08:33.729Z</time></trkpt><trkpt lat="43.0793817" lon="2.6729233"><ele>161.0</ele><time>2026-04-26T13:08:34.728Z</time></trkpt><trkpt lat="43.0793467" lon="2.6730683"><ele>161.0</ele><time>2026-04-26T13:08:35.729Z</time></trkpt><trkpt lat="43.0793033" lon="2.6731933"><ele>160.8</ele><time>2026-04-26T13:08:36.731Z</time></trkpt><trkpt lat="43.0792583" lon="2.6733117"><ele>160.60000000000002</ele><time>2026-04-26T13:08:37.727Z</time></trkpt><trkpt lat="43.0792233" lon="2.6734317"><ele>160.4</ele><time>2026-04-26T13:08:38.728Z</time></trkpt><trkpt lat="43.0792017" lon="2.6735467"><ele>160.2</ele><time>2026-04-26T13:08:39.729Z</time></trkpt><trkpt lat="43.0791967" lon="2.67367"><ele>160.0</ele><time>2026-04-26T13:08:40.728Z</time></trkpt><trkpt lat="43.0792033" lon="2.67382"><ele>160.0</ele><time>2026-04-26T13:08:41.729Z</time></trkpt><trkpt lat="43.07921" lon="2.6739767"><ele>160.0</ele><time>2026-04-26T13:08:42.73Z</time></trkpt><trkpt lat="43.0792183" lon="2.6741317"><ele>160.0</ele><time>2026-04-26T13:08:43.73Z</time></trkpt><trkpt lat="43.0792217" lon="2.6742783"><ele>160.0</ele><time>2026-04-26T13:08:44.731Z</time></trkpt><trkpt lat="43.079235" lon="2.6744283"><ele>160.0</ele><time>2026-04-26T13:08:45.728Z</time></trkpt><trkpt lat="43.079265" lon="2.674585"><ele>160.2</ele><time>2026-04-26T13:08:46.731Z</time></trkpt><trkpt lat="43.0792967" lon="2.6747333"><ele>160.4</ele><time>2026-04-26T13:08:47.728Z</time></trkpt><trkpt lat="43.0793233" lon="2.67488"><ele>160.60000000000002</ele><time>2026-04-26T13:08:48.729Z</time></trkpt><trkpt lat="43.0793433" lon="2.6750267"><ele>160.8</ele><time>2026-04-26T13:08:49.73Z</time></trkpt><trkpt lat="43.0793417" lon="2.67517"><ele>161.0</ele><time>2026-04-26T13:08:50.73Z</time></trkpt><trkpt lat="43.079335" lon="2.6753083"><ele>161.0</ele><time>2026-04-26T13:08:51.731Z</time></trkpt><trkpt lat="43.0793333" lon="2.6754317"><ele>161.0</ele><time>2026-04-26T13:08:52.729Z</time></trkpt><trkpt lat="43.0793383" lon="2.67554"><ele>161.0</ele><time>2026-04-26T13:08:53.728Z</time></trkpt><trkpt lat="43.0793383" lon="2.6756367"><ele>161.0</ele><time>2026-04-26T13:08:54.729Z</time></trkpt><trkpt lat="43.0793217" lon="2.6757417"><ele>161.0</ele><time>2026-04-26T13:08:55.731Z</time></trkpt><trkpt lat="43.0792967" lon="2.6758667"><ele>161.0</ele><time>2026-04-26T13:08:56.728Z</time></trkpt><trkpt lat="43.0792583" lon="2.6760117"><ele>161.75</ele><time>2026-04-26T13:08:57.731Z</time></trkpt><trkpt lat="43.0792133" lon="2.67617"><ele>162.5</ele><time>2026-04-26T13:08:58.733Z</time></trkpt><trkpt lat="43.0791633" lon="2.6763283"><ele>163.25</ele><time>2026-04-26T13:08:59.73Z</time></trkpt><trkpt lat="43.0791067" lon="2.67648"><ele>164.0</ele><time>2026-04-26T13:09:00.728Z</time></trkpt><trkpt lat="43.0790367" lon="2.67663"><ele>165.0</ele><time>2026-04-26T13:09:01.731Z</time></trkpt><trkpt lat="43.0789583" lon="2.6767733"><ele>166.0</ele><time>2026-04-26T13:09:02.731Z</time></trkpt><trkpt lat="43.0788717" lon="2.6769083"><ele>167.0</ele><time>2026-04-26T13:09:03.728Z</time></trkpt><trkpt lat="43.0787733" lon="2.6770383"><ele>168.0</ele><time>2026-04-26T13:09:04.729Z</time></trkpt><trkpt lat="43.078665" lon="2.6771733"><ele>168.0</ele><time>2026-04-26T13:09:05.729Z</time></trkpt><trkpt lat="43.0785483" lon="2.677305"><ele>168.0</ele><time>2026-04-26T13:09:06.728Z</time></trkpt><trkpt lat="43.0784367" lon="2.677435"><ele>168.0</ele><time>2026-04-26T13:09:07.728Z</time></trkpt><trkpt lat="43.07834" lon="2.677575"><ele>168.0</ele><time>2026-04-26T13:09:08.729Z</time></trkpt><trkpt lat="43.07826" lon="2.6777067"><ele>168.2</ele><time>2026-04-26T13:09:09.729Z</time></trkpt><trkpt lat="43.0781867" lon="2.6778333"><ele>168.4</ele><time>2026-04-26T13:09:10.727Z</time></trkpt><trkpt lat="43.0781233" lon="2.6779483"><ele>168.6</ele><time>2026-04-26T13:09:11.728Z</time></trkpt><trkpt lat="43.07805" lon="2.6780583"><ele>168.79999999999998</ele><time>2026-04-26T13:09:12.728Z</time></trkpt><trkpt lat="43.0779717" lon="2.6781683"><ele>169.0</ele><time>2026-04-26T13:09:13.728Z</time></trkpt><trkpt lat="43.0778867" lon="2.6782933"><ele>169.0</ele><time>2026-04-26T13:09:14.73Z</time></trkpt><trkpt lat="43.0778017" lon="2.6784283"><ele>169.0</ele><time>2026-04-26T13:09:15.728Z</time></trkpt><trkpt lat="43.0777183" lon="2.6785567"><ele>169.0</ele><time>2026-04-26T13:09:16.727Z</time></trkpt><trkpt lat="43.077635" lon="2.6786883"><ele>169.0</ele><time>2026-04-26T13:09:17.728Z</time></trkpt><trkpt lat="43.07755" lon="2.678815"><ele>168.2</ele><time>2026-04-26T13:09:18.73Z</time></trkpt><trkpt lat="43.0774683" lon="2.6789317"><ele>167.39999999999998</ele><time>2026-04-26T13:09:19.73Z</time></trkpt><trkpt lat="43.0773933" lon="2.679045"><ele>166.6</ele><time>2026-04-26T13:09:20.729Z</time></trkpt><trkpt lat="43.07732" lon="2.679155"><ele>165.8</ele><time>2026-04-26T13:09:21.728Z</time></trkpt><trkpt lat="43.077255" lon="2.6792683"><ele>165.0</ele><time>2026-04-26T13:09:22.729Z</time></trkpt><trkpt lat="43.0771917" lon="2.6793933"><ele>163.0</ele><time>2026-04-26T13:09:23.73Z</time></trkpt><trkpt lat="43.0771333" lon="2.6795267"><ele>161.0</ele><time>2026-04-26T13:09:24.73Z</time></trkpt><trkpt lat="43.0770783" lon="2.6796633"><ele>159.0</ele><time>2026-04-26T13:09:25.728Z</time></trkpt><trkpt lat="43.077025" lon="2.679805"><ele>157.0</ele><time>2026-04-26T13:09:26.731Z</time></trkpt><trkpt lat="43.0769717" lon="2.679945"><ele>157.0</ele><time>2026-04-26T13:09:27.728Z</time></trkpt><trkpt lat="43.0769217" lon="2.68007"><ele>157.0</ele><time>2026-04-26T13:09:28.728Z</time></trkpt><trkpt lat="43.0768683" lon="2.6801883"><ele>157.0</ele><time>2026-04-26T13:09:29.728Z</time></trkpt><trkpt lat="43.0768133" lon="2.680295"><ele>157.0</ele><time>2026-04-26T13:09:30.729Z</time></trkpt><trkpt lat="43.0767583" lon="2.6803867"><ele>157.0</ele><time>2026-04-26T13:09:31.727Z</time></trkpt><trkpt lat="43.0767133" lon="2.6804717"><ele>155.6</ele><time>2026-04-26T13:09:32.734Z</time></trkpt><trkpt lat="43.07667" lon="2.680625"><ele>154.2</ele><time>2026-04-26T13:09:34.728Z</time></trkpt><trkpt lat="43.0766783" lon="2.6807333"><ele>152.8</ele><time>2026-04-26T13:09:35.728Z</time></trkpt><trkpt lat="43.0766883" lon="2.6808617"><ele>151.4</ele><time>2026-04-26T13:09:36.729Z</time></trkpt><trkpt lat="43.0766683" lon="2.6810033"><ele>150.0</ele><time>2026-04-26T13:09:37.728Z</time></trkpt><trkpt lat="43.0766017" lon="2.6811417"><ele>148.75</ele><time>2026-04-26T13:09:38.729Z</time></trkpt><trkpt lat="43.0765117" lon="2.68128"><ele>147.5</ele><time>2026-04-26T13:09:39.727Z</time></trkpt><trkpt lat="43.0764167" lon="2.6814217"><ele>146.25</ele><time>2026-04-26T13:09:40.73Z</time></trkpt><trkpt lat="43.0763133" lon="2.6815683"><ele>145.0</ele><time>2026-04-26T13:09:41.729Z</time></trkpt><trkpt lat="43.0762067" lon="2.6817217"><ele>145.0</ele><time>2026-04-26T13:09:42.735Z</time></trkpt><trkpt lat="43.0760967" lon="2.6818833"><ele>145.0</ele><time>2026-04-26T13:09:43.728Z</time></trkpt><trkpt lat="43.075985" lon="2.68205"><ele>145.0</ele><time>2026-04-26T13:09:44.728Z</time></trkpt><trkpt lat="43.075875" lon="2.6822183"><ele>143.33333333333334</ele><time>2026-04-26T13:09:45.728Z</time></trkpt><trkpt lat="43.075775" lon="2.6823867"><ele>141.66666666666666</ele><time>2026-04-26T13:09:46.732Z</time></trkpt><trkpt lat="43.0756817" lon="2.6825517"><ele>140.0</ele><time>2026-04-26T13:09:47.727Z</time></trkpt><trkpt lat="43.0755917" lon="2.6827217"><ele>138.5</ele><time>2026-04-26T13:09:48.728Z</time></trkpt><trkpt lat="43.0755083" lon="2.6828833"><ele>137.0</ele><time>2026-04-26T13:09:49.727Z</time></trkpt><trkpt lat="43.0754283" lon="2.68304"><ele>135.5</ele><time>2026-04-26T13:09:50.729Z</time></trkpt><trkpt lat="43.0753517" lon="2.6831917"><ele>134.0</ele><time>2026-04-26T13:09:51.729Z</time></trkpt><trkpt lat="43.0752817" lon="2.6833283"><ele>134.0</ele><time>2026-04-26T13:09:52.727Z</time></trkpt><trkpt lat="43.0752233" lon="2.6834633"><ele>134.0</ele><time>2026-04-26T13:09:53.727Z</time></trkpt><trkpt lat="43.0751733" lon="2.6835933"><ele>134.0</ele><time>2026-04-26T13:09:54.727Z</time></trkpt><trkpt lat="43.0751283" lon="2.6837117"><ele>134.0</ele><time>2026-04-26T13:09:55.728Z</time></trkpt><trkpt lat="43.0750917" lon="2.6838083"><ele>134.0</ele><time>2026-04-26T13:09:56.728Z</time></trkpt><trkpt lat="43.0750567" lon="2.68389"><ele>133.8</ele><time>2026-04-26T13:09:57.728Z</time></trkpt><trkpt lat="43.07501" lon="2.683985"><ele>133.60000000000002</ele><time>2026-04-26T13:09:59.728Z</time></trkpt><trkpt lat="43.075015" lon="2.6841"><ele>133.4</ele><time>2026-04-26T13:10:02.728Z</time></trkpt><trkpt lat="43.0751283" lon="2.684215"><ele>133.20000000000002</ele><time>2026-04-26T13:10:04.733Z</time></trkpt><trkpt lat="43.0752167" lon="2.6843"><ele>133.0</ele><time>2026-04-26T13:10:05.727Z</time></trkpt><trkpt lat="43.07531" lon="2.6843967"><ele>132.5</ele><time>2026-04-26T13:10:06.728Z</time></trkpt><trkpt lat="43.0754133" lon="2.68451"><ele>132.0</ele><time>2026-04-26T13:10:07.727Z</time></trkpt><trkpt lat="43.0755217" lon="2.68464"><ele>131.5</ele><time>2026-04-26T13:10:08.728Z</time></trkpt><trkpt lat="43.07563" lon="2.68478"><ele>131.0</ele><time>2026-04-26T13:10:09.73Z</time></trkpt><trkpt lat="43.07573" lon="2.68495"><ele>131.66666666666666</ele><time>2026-04-26T13:10:10.728Z</time></trkpt><trkpt lat="43.0758167" lon="2.685145"><ele>132.33333333333334</ele><time>2026-04-26T13:10:11.727Z</time></trkpt><trkpt lat="43.0758817" lon="2.685365"><ele>133.0</ele><time>2026-04-26T13:10:12.727Z</time></trkpt><trkpt lat="43.0759317" lon="2.6856033"><ele>133.66666666666669</ele><time>2026-04-26T13:10:13.727Z</time></trkpt><trkpt lat="43.0759567" lon="2.6858617"><ele>134.33333333333334</ele><time>2026-04-26T13:10:14.73Z</time></trkpt><trkpt lat="43.0759533" lon="2.6861283"><ele>135.0</ele><time>2026-04-26T13:10:15.733Z</time></trkpt><trkpt lat="43.0759233" lon="2.6863983"><ele>135.0</ele><time>2026-04-26T13:10:16.728Z</time></trkpt><trkpt lat="43.075875" lon="2.6866733"><ele>135.0</ele><time>2026-04-26T13:10:17.73Z</time></trkpt><trkpt lat="43.0758183" lon="2.68694"><ele>135.0</ele><time>2026-04-26T13:10:18.729Z</time></trkpt><trkpt lat="43.0757633" lon="2.6872017"><ele>135.0</ele><time>2026-04-26T13:10:19.728Z</time></trkpt><trkpt lat="43.0757267" lon="2.68746"><ele>135.0</ele><time>2026-04-26T13:10:20.73Z</time></trkpt><trkpt lat="43.0757267" lon="2.6877217"><ele>135.0</ele><time>2026-04-26T13:10:21.729Z</time></trkpt><trkpt lat="43.0757567" lon="2.68798"><ele>135.0</ele><time>2026-04-26T13:10:22.728Z</time></trkpt><trkpt lat="43.0758117" lon="2.6882333"><ele>135.0</ele><time>2026-04-26T13:10:23.728Z</time></trkpt><trkpt lat="43.07588" lon="2.688485"><ele>135.0</ele><time>2026-04-26T13:10:24.732Z</time></trkpt><trkpt lat="43.0759517" lon="2.68874"><ele>135.0</ele><time>2026-04-26T13:10:25.73Z</time></trkpt><trkpt lat="43.07602" lon="2.6889967"><ele>135.0</ele><time>2026-04-26T13:10:26.729Z</time></trkpt><trkpt lat="43.0760833" lon="2.689245"><ele>135.0</ele><time>2026-04-26T13:10:27.731Z</time></trkpt><trkpt lat="43.0761467" lon="2.689485"><ele>133.0</ele><time>2026-04-26T13:10:28.731Z</time></trkpt><trkpt lat="43.0762083" lon="2.68972"><ele>131.0</ele><time>2026-04-26T13:10:29.729Z</time></trkpt><trkpt lat="43.076265" lon="2.6899483"><ele>129.0</ele><time>2026-04-26T13:10:30.728Z</time></trkpt><trkpt lat="43.076325" lon="2.690175"><ele>126.33333333333334</ele><time>2026-04-26T13:10:31.729Z</time></trkpt><trkpt lat="43.0763883" lon="2.6903967"><ele>123.66666666666667</ele><time>2026-04-26T13:10:32.731Z</time></trkpt><trkpt lat="43.0764633" lon="2.6906167"><ele>121.0</ele><time>2026-04-26T13:10:33.728Z</time></trkpt><trkpt lat="43.07655" lon="2.6908283"><ele>123.33333333333334</ele><time>2026-04-26T13:10:34.729Z</time></trkpt><trkpt lat="43.076655" lon="2.6910317"><ele>125.66666666666666</ele><time>2026-04-26T13:10:35.73Z</time></trkpt><trkpt lat="43.07677" lon="2.6912217"><ele>128.0</ele><time>2026-04-26T13:10:36.728Z</time></trkpt><trkpt lat="43.0769033" lon="2.6914033"><ele>128.0</ele><time>2026-04-26T13:10:37.728Z</time></trkpt><trkpt lat="43.077045" lon="2.6915833"><ele>128.0</ele><time>2026-04-26T13:10:38.728Z</time></trkpt><trkpt lat="43.0771883" lon="2.691755"><ele>128.0</ele><time>2026-04-26T13:10:39.728Z</time></trkpt><trkpt lat="43.0773517" lon="2.6919033"><ele>125.66666666666666</ele><time>2026-04-26T13:10:40.731Z</time></trkpt><trkpt lat="43.0775233" lon="2.69203"><ele>123.33333333333334</ele><time>2026-04-26T13:10:41.73Z</time></trkpt><trkpt lat="43.0777" lon="2.692145"><ele>121.0</ele><time>2026-04-26T13:10:42.728Z</time></trkpt><trkpt lat="43.0778833" lon="2.69225"><ele>121.0</ele><time>2026-04-26T13:10:43.727Z</time></trkpt><trkpt lat="43.07807" lon="2.6923517"><ele>121.0</ele><time>2026-04-26T13:10:44.728Z</time></trkpt><trkpt lat="43.0782583" lon="2.6924517"><ele>121.0</ele><time>2026-04-26T13:10:45.727Z</time></trkpt><trkpt lat="43.078445" lon="2.6925483"><ele>120.66666666666667</ele><time>2026-04-26T13:10:46.729Z</time></trkpt><trkpt lat="43.07863" lon="2.6926467"><ele>120.33333333333334</ele><time>2026-04-26T13:10:47.728Z</time></trkpt><trkpt lat="43.0788117" lon="2.6927483"><ele>120.0</ele><time>2026-04-26T13:10:48.728Z</time></trkpt><trkpt lat="43.078995" lon="2.6928467"><ele>119.0</ele><time>2026-04-26T13:10:49.732Z</time></trkpt><trkpt lat="43.07918" lon="2.69294"><ele>118.0</ele><time>2026-04-26T13:10:50.735Z</time></trkpt><trkpt lat="43.0793633" lon="2.6930367"><ele>117.0</ele><time>2026-04-26T13:10:51.729Z</time></trkpt><trkpt lat="43.079545" lon="2.6931367"><ele>117.0</ele><time>2026-04-26T13:10:52.728Z</time></trkpt><trkpt lat="43.07972" lon="2.69323"><ele>117.0</ele><time>2026-04-26T13:10:53.73Z</time></trkpt><trkpt lat="43.07989" lon="2.693325"><ele>117.0</ele><time>2026-04-26T13:10:54.729Z</time></trkpt><trkpt lat="43.080055" lon="2.6934133"><ele>117.66666666666666</ele><time>2026-04-26T13:10:55.727Z</time></trkpt><trkpt lat="43.0802117" lon="2.6935017"><ele>118.33333333333333</ele><time>2026-04-26T13:10:56.729Z</time></trkpt><trkpt lat="43.0803667" lon="2.6935867"><ele>119.0</ele><time>2026-04-26T13:10:57.727Z</time></trkpt><trkpt lat="43.08052" lon="2.6936717"><ele>118.33333333333333</ele><time>2026-04-26T13:10:58.728Z</time></trkpt><trkpt lat="43.080675" lon="2.6937583"><ele>117.66666666666666</ele><time>2026-04-26T13:10:59.727Z</time></trkpt><trkpt lat="43.0808267" lon="2.6938417"><ele>117.0</ele><time>2026-04-26T13:11:00.728Z</time></trkpt><trkpt lat="43.0809783" lon="2.6939233"><ele>117.0</ele><time>2026-04-26T13:11:01.727Z</time></trkpt><trkpt lat="43.0811233" lon="2.694"><ele>117.0</ele><time>2026-04-26T13:11:02.729Z</time></trkpt><trkpt lat="43.0812633" lon="2.694075"><ele>117.0</ele><time>2026-04-26T13:11:03.728Z</time></trkpt><trkpt lat="43.0813933" lon="2.6941467"><ele>117.0</ele><time>2026-04-26T13:11:04.73Z</time></trkpt><trkpt lat="43.08151" lon="2.6942133"><ele>117.75</ele><time>2026-04-26T13:11:05.728Z</time></trkpt><trkpt lat="43.0816217" lon="2.694275"><ele>118.5</ele><time>2026-04-26T13:11:06.728Z</time></trkpt><trkpt lat="43.0817317" lon="2.6943333"><ele>119.25</ele><time>2026-04-26T13:11:07.728Z</time></trkpt><trkpt lat="43.0818367" lon="2.6943883"><ele>120.0</ele><time>2026-04-26T13:11:08.73Z</time></trkpt><trkpt lat="43.0819383" lon="2.6944433"><ele>118.5</ele><time>2026-04-26T13:11:09.727Z</time></trkpt><trkpt lat="43.0820433" lon="2.6944883"><ele>117.0</ele><time>2026-04-26T13:11:10.729Z</time></trkpt><trkpt lat="43.08215" lon="2.6945317"><ele>115.5</ele><time>2026-04-26T13:11:11.727Z</time></trkpt><trkpt lat="43.0822583" lon="2.6945767"><ele>114.0</ele><time>2026-04-26T13:11:12.728Z</time></trkpt><trkpt lat="43.08237" lon="2.6946233"><ele>114.0</ele><time>2026-04-26T13:11:13.727Z</time></trkpt><trkpt lat="43.0824817" lon="2.6946667"><ele>114.0</ele><time>2026-04-26T13:11:14.734Z</time></trkpt><trkpt lat="43.0825867" lon="2.6947083"><ele>114.0</ele><time>2026-04-26T13:11:15.728Z</time></trkpt><trkpt lat="43.0826883" lon="2.69475"><ele>114.0</ele><time>2026-04-26T13:11:16.728Z</time></trkpt><trkpt lat="43.082795" lon="2.694795"><ele>114.0</ele><time>2026-04-26T13:11:17.728Z</time></trkpt><trkpt lat="43.0829067" lon="2.69484"><ele>114.0</ele><time>2026-04-26T13:11:18.73Z</time></trkpt><trkpt lat="43.0830167" lon="2.694885"><ele>114.0</ele><time>2026-04-26T13:11:19.731Z</time></trkpt><trkpt lat="43.0831233" lon="2.6949283"><ele>114.0</ele><time>2026-04-26T13:11:20.728Z</time></trkpt><trkpt lat="43.0832233" lon="2.6949683"><ele>114.0</ele><time>2026-04-26T13:11:21.733Z</time></trkpt><trkpt lat="43.0833167" lon="2.6950017"><ele>114.0</ele><time>2026-04-26T13:11:22.728Z</time></trkpt><trkpt lat="43.083405" lon="2.6950367"><ele>113.66666666666667</ele><time>2026-04-26T13:11:23.73Z</time></trkpt><trkpt lat="43.0834833" lon="2.6950683"><ele>113.33333333333334</ele><time>2026-04-26T13:11:24.73Z</time></trkpt><trkpt lat="43.0835583" lon="2.6951"><ele>113.0</ele><time>2026-04-26T13:11:25.729Z</time></trkpt><trkpt lat="43.0836283" lon="2.6951233"><ele>112.66666666666667</ele><time>2026-04-26T13:11:26.731Z</time></trkpt><trkpt lat="43.08369" lon="2.6951517"><ele>112.33333333333334</ele><time>2026-04-26T13:11:27.731Z</time></trkpt><trkpt lat="43.0837933" lon="2.6952033"><ele>112.0</ele><time>2026-04-26T13:11:29.729Z</time></trkpt><trkpt lat="43.083895" lon="2.6952667"><ele>112.00000000000001</ele><time>2026-04-26T13:11:31.729Z</time></trkpt><trkpt lat="43.0839533" lon="2.69531"><ele>112.0</ele><time>2026-04-26T13:11:32.728Z</time></trkpt><trkpt lat="43.0840183" lon="2.69537"><ele>112.0</ele><time>2026-04-26T13:11:33.729Z</time></trkpt><trkpt lat="43.0840817" lon="2.6954367"><ele>112.0</ele><time>2026-04-26T13:11:34.729Z</time></trkpt><trkpt lat="43.0841467" lon="2.6955033"><ele>112.00000000000001</ele><time>2026-04-26T13:11:35.728Z</time></trkpt><trkpt lat="43.0842117" lon="2.69557"><ele>112.0</ele><time>2026-04-26T13:11:36.73Z</time></trkpt><trkpt lat="43.0842817" lon="2.6956383"><ele>112.50000000000001</ele><time>2026-04-26T13:11:37.731Z</time></trkpt><trkpt lat="43.0843583" lon="2.6957067"><ele>113.0</ele><time>2026-04-26T13:11:38.728Z</time></trkpt><trkpt lat="43.08443" lon="2.6957767"><ele>113.5</ele><time>2026-04-26T13:11:39.727Z</time></trkpt><trkpt lat="43.0844983" lon="2.6958483"><ele>114.0</ele><time>2026-04-26T13:11:40.73Z</time></trkpt><trkpt lat="43.0845617" lon="2.6959133"><ele>114.50000000000001</ele><time>2026-04-26T13:11:41.729Z</time></trkpt><trkpt lat="43.0846133" lon="2.6959633"><ele>115.0</ele><time>2026-04-26T13:11:42.729Z</time></trkpt><trkpt lat="43.084685" lon="2.6960367"><ele>114.0</ele><time>2026-04-26T13:11:44.731Z</time></trkpt><trkpt lat="43.0847567" lon="2.6960883"><ele>113.0</ele><time>2026-04-26T13:13:39.728Z</time></trkpt><trkpt lat="43.0848133" lon="2.6961583"><ele>112.0</ele><time>2026-04-26T13:13:40.729Z</time></trkpt><trkpt lat="43.0848633" lon="2.6962567"><ele>111.0</ele><time>2026-04-26T13:13:41.728Z</time></trkpt><trkpt lat="43.0849133" lon="2.6963717"><ele>110.0</ele><time>2026-04-26T13:13:42.727Z</time></trkpt><trkpt lat="43.0849517" lon="2.6965133"><ele>110.0</ele><time>2026-04-26T13:13:43.728Z</time></trkpt><trkpt lat="43.08496" lon="2.696685"><ele>110.0</ele><time>2026-04-26T13:13:44.727Z</time></trkpt><trkpt lat="43.0849467" lon="2.696875"><ele>110.0</ele><time>2026-04-26T13:13:45.729Z</time></trkpt><trkpt lat="43.08492" lon="2.6970683"><ele>110.0</ele><time>2026-04-26T13:13:46.728Z</time></trkpt><trkpt lat="43.084895" lon="2.697255"><ele>107.25</ele><time>2026-04-26T13:13:47.727Z</time></trkpt><trkpt lat="43.0848733" lon="2.697435"><ele>104.5</ele><time>2026-04-26T13:13:48.727Z</time></trkpt><trkpt lat="43.0848533" lon="2.6976067"><ele>101.75</ele><time>2026-04-26T13:13:49.727Z</time></trkpt><trkpt lat="43.0848283" lon="2.6977767"><ele>99.0</ele><time>2026-04-26T13:13:50.732Z</time></trkpt><trkpt lat="43.0847917" lon="2.6979333"><ele>99.0</ele><time>2026-04-26T13:13:51.727Z</time></trkpt><trkpt lat="43.0847383" lon="2.6980817"><ele>99.0</ele><time>2026-04-26T13:13:52.732Z</time></trkpt><trkpt lat="43.084685" lon="2.6982283"><ele>99.0</ele><time>2026-04-26T13:13:53.728Z</time></trkpt><trkpt lat="43.0846383" lon="2.6983767"><ele>99.0</ele><time>2026-04-26T13:13:54.728Z</time></trkpt><trkpt lat="43.0846067" lon="2.6985283"><ele>101.25</ele><time>2026-04-26T13:13:55.727Z</time></trkpt><trkpt lat="43.0845883" lon="2.6986883"><ele>103.5</ele><time>2026-04-26T13:13:56.728Z</time></trkpt><trkpt lat="43.0845783" lon="2.69885"><ele>105.75</ele><time>2026-04-26T13:13:57.728Z</time></trkpt><trkpt lat="43.0845667" lon="2.6990117"><ele>108.0</ele><time>2026-04-26T13:13:58.728Z</time></trkpt><trkpt lat="43.0845583" lon="2.6991717"><ele>108.0</ele><time>2026-04-26T13:13:59.73Z</time></trkpt><trkpt lat="43.084555" lon="2.6993317"><ele>108.0</ele><time>2026-04-26T13:14:00.728Z</time></trkpt><trkpt lat="43.084555" lon="2.6994917"><ele>108.0</ele><time>2026-04-26T13:14:01.729Z</time></trkpt><trkpt lat="43.08457" lon="2.6996533"><ele>108.0</ele><time>2026-04-26T13:14:02.729Z</time></trkpt><trkpt lat="43.0845883" lon="2.6998117"><ele>108.0</ele><time>2026-04-26T13:14:03.727Z</time></trkpt><trkpt lat="43.0846033" lon="2.6999633"><ele>108.00000000000001</ele><time>2026-04-26T13:14:04.728Z</time></trkpt><trkpt lat="43.084625" lon="2.70011"><ele>108.00000000000001</ele><time>2026-04-26T13:14:05.727Z</time></trkpt><trkpt lat="43.0846533" lon="2.700255"><ele>108.0</ele><time>2026-04-26T13:14:06.727Z</time></trkpt><trkpt lat="43.0847067" lon="2.7003933"><ele>108.0</ele><time>2026-04-26T13:14:07.729Z</time></trkpt><trkpt lat="43.0847833" lon="2.700515"><ele>108.0</ele><time>2026-04-26T13:14:08.73Z</time></trkpt><trkpt lat="43.0848683" lon="2.7006317"><ele>108.0</ele><time>2026-04-26T13:14:09.728Z</time></trkpt><trkpt lat="43.08496" lon="2.7007367"><ele>108.0</ele><time>2026-04-26T13:14:10.727Z</time></trkpt><trkpt lat="43.0850533" lon="2.7008417"><ele>108.0</ele><time>2026-04-26T13:14:11.73Z</time></trkpt><trkpt lat="43.0851483" lon="2.700945"><ele>108.0</ele><time>2026-04-26T13:14:12.727Z</time></trkpt><trkpt lat="43.085235" lon="2.70105"><ele>108.0</ele><time>2026-04-26T13:14:13.728Z</time></trkpt><trkpt lat="43.0853167" lon="2.70116"><ele>108.0</ele><time>2026-04-26T13:14:14.729Z</time></trkpt><trkpt lat="43.0854" lon="2.7012667"><ele>108.0</ele><time>2026-04-26T13:14:15.731Z</time></trkpt><trkpt lat="43.085475" lon="2.7013783"><ele>108.0</ele><time>2026-04-26T13:14:16.73Z</time></trkpt><trkpt lat="43.08556" lon="2.70148"><ele>108.0</ele><time>2026-04-26T13:14:17.729Z</time></trkpt><trkpt lat="43.085645" lon="2.7015817"><ele>108.0</ele><time>2026-04-26T13:14:18.73Z</time></trkpt><trkpt lat="43.08573" lon="2.70169"><ele>108.0</ele><time>2026-04-26T13:14:19.729Z</time></trkpt><trkpt lat="43.08581" lon="2.7018017"><ele>108.0</ele><time>2026-04-26T13:14:20.73Z</time></trkpt><trkpt lat="43.0858933" lon="2.7019117"><ele>108.0</ele><time>2026-04-26T13:14:21.73Z</time></trkpt><trkpt lat="43.08599" lon="2.70202"><ele>108.0</ele><time>2026-04-26T13:14:22.727Z</time></trkpt><trkpt lat="43.086075" lon="2.702155"><ele>108.0</ele><time>2026-04-26T13:14:23.729Z</time></trkpt><trkpt lat="43.086165" lon="2.70226"><ele>108.2</ele><time>2026-04-26T13:14:24.728Z</time></trkpt><trkpt lat="43.0862433" lon="2.7023417"><ele>108.4</ele><time>2026-04-26T13:14:25.731Z</time></trkpt><trkpt lat="43.08633" lon="2.7024133"><ele>108.60000000000001</ele><time>2026-04-26T13:14:26.728Z</time></trkpt><trkpt lat="43.0863983" lon="2.7025"><ele>108.80000000000001</ele><time>2026-04-26T13:14:27.729Z</time></trkpt><trkpt lat="43.086475" lon="2.702585"><ele>109.0</ele><time>2026-04-26T13:14:28.729Z</time></trkpt><trkpt lat="43.0865467" lon="2.7026667"><ele>108.6</ele><time>2026-04-26T13:14:29.727Z</time></trkpt><trkpt lat="43.086615" lon="2.70276"><ele>108.2</ele><time>2026-04-26T13:14:30.728Z</time></trkpt><trkpt lat="43.0866867" lon="2.7028517"><ele>107.79999999999998</ele><time>2026-04-26T13:14:31.731Z</time></trkpt><trkpt lat="43.086765" lon="2.7029517"><ele>107.39999999999999</ele><time>2026-04-26T13:14:32.728Z</time></trkpt><trkpt lat="43.086845" lon="2.70306"><ele>107.0</ele><time>2026-04-26T13:14:33.731Z</time></trkpt><trkpt lat="43.0869283" lon="2.70317"><ele>107.0</ele><time>2026-04-26T13:14:34.728Z</time></trkpt><trkpt lat="43.08701" lon="2.703285"><ele>107.0</ele><time>2026-04-26T13:14:35.728Z</time></trkpt><trkpt lat="43.0870917" lon="2.7033983"><ele>107.0</ele><time>2026-04-26T13:14:36.729Z</time></trkpt><trkpt lat="43.0871767" lon="2.7035083"><ele>107.0</ele><time>2026-04-26T13:14:37.728Z</time></trkpt><trkpt lat="43.0872583" lon="2.703615"><ele>106.8</ele><time>2026-04-26T13:14:38.728Z</time></trkpt><trkpt lat="43.0873417" lon="2.7037183"><ele>106.6</ele><time>2026-04-26T13:14:39.727Z</time></trkpt><trkpt lat="43.0874217" lon="2.703815"><ele>106.39999999999999</ele><time>2026-04-26T13:14:40.729Z</time></trkpt><trkpt lat="43.0874967" lon="2.703905"><ele>106.19999999999999</ele><time>2026-04-26T13:14:41.727Z</time></trkpt><trkpt lat="43.0875683" lon="2.7039917"><ele>106.0</ele><time>2026-04-26T13:14:42.729Z</time></trkpt><trkpt lat="43.0876333" lon="2.7040733"><ele>106.00000000000001</ele><time>2026-04-26T13:14:43.728Z</time></trkpt><trkpt lat="43.0876967" lon="2.7041533"><ele>106.0</ele><time>2026-04-26T13:14:44.731Z</time></trkpt><trkpt lat="43.0877567" lon="2.7042267"><ele>106.0</ele><time>2026-04-26T13:14:45.73Z</time></trkpt><trkpt lat="43.087815" lon="2.7042933"><ele>106.0</ele><time>2026-04-26T13:14:46.728Z</time></trkpt><trkpt lat="43.0878717" lon="2.704345"><ele>106.00000000000001</ele><time>2026-04-26T13:14:47.729Z</time></trkpt><trkpt lat="43.0879783" lon="2.7043583"><ele>106.0</ele><time>2026-04-26T13:14:49.728Z</time></trkpt><trkpt lat="43.0880583" lon="2.7043583"><ele>106.0</ele><time>2026-04-26T13:14:51.728Z</time></trkpt><trkpt lat="43.0881167" lon="2.7044117"><ele>106.0</ele><time>2026-04-26T13:14:53.73Z</time></trkpt></trkseg><trkseg><trkpt lat="43.08809" lon="2.7043233"><ele>106.00000000000001</ele><time>2026-04-26T13:33:00.729Z</time></trkpt><trkpt lat="43.0880217" lon="2.70433"><ele>106.0</ele><time>2026-04-26T13:33:02.732Z</time></trkpt><trkpt lat="43.0879133" lon="2.7043283"><ele>106.0</ele><time>2026-04-26T13:33:05.73Z</time></trkpt><trkpt lat="43.08782" lon="2.7042983"><ele>106.0</ele><time>2026-04-26T13:33:07.73Z</time></trkpt><trkpt lat="43.0877633" lon="2.704225"><ele>106.00000000000001</ele><time>2026-04-26T13:33:08.727Z</time></trkpt><trkpt lat="43.08771" lon="2.70415"><ele>106.0</ele><time>2026-04-26T13:33:09.727Z</time></trkpt><trkpt lat="43.0876533" lon="2.7040817"><ele>106.0</ele><time>2026-04-26T13:33:10.728Z</time></trkpt><trkpt lat="43.0875917" lon="2.70401"><ele>106.0</ele><time>2026-04-26T13:33:11.727Z</time></trkpt><trkpt lat="43.087525" lon="2.7039233"><ele>106.0</ele><time>2026-04-26T13:33:12.738Z</time></trkpt><trkpt lat="43.0874533" lon="2.7038267"><ele>106.0</ele><time>2026-04-26T13:33:13.727Z</time></trkpt><trkpt lat="43.08738" lon="2.70373"><ele>106.0</ele><time>2026-04-26T13:33:14.729Z</time></trkpt><trkpt lat="43.0873017" lon="2.703635"><ele>106.19999999999999</ele><time>2026-04-26T13:33:15.728Z</time></trkpt><trkpt lat="43.0872217" lon="2.7035383"><ele>106.39999999999999</ele><time>2026-04-26T13:33:16.728Z</time></trkpt><trkpt lat="43.0871383" lon="2.7034417"><ele>106.6</ele><time>2026-04-26T13:33:17.729Z</time></trkpt><trkpt lat="43.087055" lon="2.70334"><ele>106.8</ele><time>2026-04-26T13:33:18.729Z</time></trkpt><trkpt lat="43.086975" lon="2.7032383"><ele>107.0</ele><time>2026-04-26T13:33:19.729Z</time></trkpt><trkpt lat="43.0869" lon="2.7031333"><ele>107.0</ele><time>2026-04-26T13:33:20.728Z</time></trkpt><trkpt lat="43.08682" lon="2.7030317"><ele>106.99999999999999</ele><time>2026-04-26T13:33:21.727Z</time></trkpt><trkpt lat="43.0867417" lon="2.7029333"><ele>106.99999999999999</ele><time>2026-04-26T13:33:22.727Z</time></trkpt><trkpt lat="43.086665" lon="2.7028383"><ele>107.0</ele><time>2026-04-26T13:33:23.727Z</time></trkpt><trkpt lat="43.0865917" lon="2.7027367"><ele>107.0</ele><time>2026-04-26T13:33:24.728Z</time></trkpt><trkpt lat="43.0865133" lon="2.702635"><ele>107.39999999999999</ele><time>2026-04-26T13:33:25.727Z</time></trkpt><trkpt lat="43.086435" lon="2.70254"><ele>107.79999999999998</ele><time>2026-04-26T13:33:26.728Z</time></trkpt><trkpt lat="43.0863533" lon="2.702445"><ele>108.2</ele><time>2026-04-26T13:33:27.728Z</time></trkpt><trkpt lat="43.0862717" lon="2.702345"><ele>108.6</ele><time>2026-04-26T13:33:28.728Z</time></trkpt><trkpt lat="43.0861917" lon="2.7022367"><ele>109.0</ele><time>2026-04-26T13:33:29.727Z</time></trkpt><trkpt lat="43.0861083" lon="2.7021283"><ele>109.0</ele><time>2026-04-26T13:33:30.727Z</time></trkpt><trkpt lat="43.0860183" lon="2.7020217"><ele>109.0</ele><time>2026-04-26T13:33:31.729Z</time></trkpt><trkpt lat="43.0859283" lon="2.7019133"><ele>109.0</ele><time>2026-04-26T13:33:32.727Z</time></trkpt><trkpt lat="43.0858433" lon="2.70181"><ele>109.0</ele><time>2026-04-26T13:33:33.727Z</time></trkpt><trkpt lat="43.08576" lon="2.7017083"><ele>109.25</ele><time>2026-04-26T13:33:34.729Z</time></trkpt><trkpt lat="43.0856683" lon="2.7016"><ele>109.5</ele><time>2026-04-26T13:33:35.728Z</time></trkpt><trkpt lat="43.08558" lon="2.7014867"><ele>109.75</ele><time>2026-04-26T13:33:36.728Z</time></trkpt><trkpt lat="43.085495" lon="2.7013733"><ele>110.0</ele><time>2026-04-26T13:33:37.727Z</time></trkpt><trkpt lat="43.0854083" lon="2.7012617"><ele>110.0</ele><time>2026-04-26T13:33:38.727Z</time></trkpt><trkpt lat="43.0853267" lon="2.7011517"><ele>110.0</ele><time>2026-04-26T13:33:39.728Z</time></trkpt><trkpt lat="43.0852483" lon="2.7010383"><ele>110.0</ele><time>2026-04-26T13:33:40.728Z</time></trkpt><trkpt lat="43.085165" lon="2.7009317"><ele>110.0</ele><time>2026-04-26T13:33:41.727Z</time></trkpt><trkpt lat="43.085085" lon="2.7008283"><ele>109.6</ele><time>2026-04-26T13:33:42.728Z</time></trkpt><trkpt lat="43.085" lon="2.7007283"><ele>109.2</ele><time>2026-04-26T13:33:43.727Z</time></trkpt><trkpt lat="43.0849267" lon="2.7006317"><ele>108.80000000000001</ele><time>2026-04-26T13:33:44.728Z</time></trkpt><trkpt lat="43.0848533" lon="2.7005367"><ele>108.4</ele><time>2026-04-26T13:33:45.729Z</time></trkpt><trkpt lat="43.084785" lon="2.7004433"><ele>108.0</ele><time>2026-04-26T13:33:46.728Z</time></trkpt><trkpt lat="43.0847167" lon="2.7003483"><ele>108.2</ele><time>2026-04-26T13:33:47.728Z</time></trkpt><trkpt lat="43.0846667" lon="2.7002383"><ele>108.4</ele><time>2026-04-26T13:33:48.727Z</time></trkpt><trkpt lat="43.0846283" lon="2.7001217"><ele>108.60000000000001</ele><time>2026-04-26T13:33:49.728Z</time></trkpt><trkpt lat="43.0845983" lon="2.699995"><ele>108.80000000000001</ele><time>2026-04-26T13:33:50.729Z</time></trkpt><trkpt lat="43.0845717" lon="2.69987"><ele>109.0</ele><time>2026-04-26T13:33:51.729Z</time></trkpt><trkpt lat="43.08456" lon="2.6997317"><ele>109.0</ele><time>2026-04-26T13:33:52.727Z</time></trkpt><trkpt lat="43.084545" lon="2.6995917"><ele>109.0</ele><time>2026-04-26T13:33:53.728Z</time></trkpt><trkpt lat="43.084535" lon="2.699445"><ele>109.0</ele><time>2026-04-26T13:33:54.727Z</time></trkpt><trkpt lat="43.084535" lon="2.6992983"><ele>109.0</ele><time>2026-04-26T13:33:55.727Z</time></trkpt><trkpt lat="43.0845383" lon="2.6991467"><ele>109.0</ele><time>2026-04-26T13:33:56.727Z</time></trkpt><trkpt lat="43.0845417" lon="2.6989917"><ele>108.75</ele><time>2026-04-26T13:33:57.728Z</time></trkpt><trkpt lat="43.0845426" lon="2.6988263"><ele>108.5</ele><time>2026-04-26T13:33:58.728Z</time></trkpt><trkpt lat="43.0845527" lon="2.6986629"><ele>108.25</ele><time>2026-04-26T13:33:59.727Z</time></trkpt><trkpt lat="43.0845721" lon="2.6985065"><ele>108.0</ele><time>2026-04-26T13:34:00.73Z</time></trkpt><trkpt lat="43.084601" lon="2.6983565"><ele>105.75</ele><time>2026-04-26T13:34:01.732Z</time></trkpt><trkpt lat="43.0846471" lon="2.6982154"><ele>103.5</ele><time>2026-04-26T13:34:02.729Z</time></trkpt><trkpt lat="43.084707" lon="2.698076"><ele>101.25</ele><time>2026-04-26T13:34:03.728Z</time></trkpt><trkpt lat="43.0847667" lon="2.6979311"><ele>99.0</ele><time>2026-04-26T13:34:04.727Z</time></trkpt><trkpt lat="43.0848193" lon="2.6977772"><ele>98.5</ele><time>2026-04-26T13:34:05.73Z</time></trkpt><trkpt lat="43.0848532" lon="2.6976179"><ele>98.0</ele><time>2026-04-26T13:34:06.727Z</time></trkpt><trkpt lat="43.0848719" lon="2.6974529"><ele>97.5</ele><time>2026-04-26T13:34:07.729Z</time></trkpt><trkpt lat="43.0848856" lon="2.697289"><ele>97.0</ele><time>2026-04-26T13:34:08.731Z</time></trkpt><trkpt lat="43.0849046" lon="2.6971251"><ele>97.0</ele><time>2026-04-26T13:34:09.729Z</time></trkpt><trkpt lat="43.0849245" lon="2.6969613"><ele>97.0</ele><time>2026-04-26T13:34:10.73Z</time></trkpt><trkpt lat="43.0849469" lon="2.6967983"><ele>97.0</ele><time>2026-04-26T13:34:11.727Z</time></trkpt><trkpt lat="43.0849619" lon="2.6966334"><ele>97.0</ele><time>2026-04-26T13:34:12.729Z</time></trkpt><trkpt lat="43.0849592" lon="2.696474"><ele>98.6</ele><time>2026-04-26T13:34:13.728Z</time></trkpt><trkpt lat="43.0849307" lon="2.6963375"><ele>100.19999999999999</ele><time>2026-04-26T13:34:14.73Z</time></trkpt><trkpt lat="43.0848861" lon="2.6962227"><ele>101.8</ele><time>2026-04-26T13:34:15.727Z</time></trkpt><trkpt lat="43.0848354" lon="2.6961327"><ele>103.4</ele><time>2026-04-26T13:34:16.727Z</time></trkpt><trkpt lat="43.0847862" lon="2.6960645"><ele>105.0</ele><time>2026-04-26T13:34:17.73Z</time></trkpt><trkpt lat="43.0847454" lon="2.6959331"><ele>106.66666666666667</ele><time>2026-04-26T13:34:19.729Z</time></trkpt><trkpt lat="43.0847506" lon="2.6958458"><ele>108.33333333333334</ele><time>2026-04-26T13:34:20.729Z</time></trkpt><trkpt lat="43.0847588" lon="2.6957487"><ele>110.0</ele><time>2026-04-26T13:34:21.729Z</time></trkpt><trkpt lat="43.084775" lon="2.6956367"><ele>111.66666666666667</ele><time>2026-04-26T13:34:22.729Z</time></trkpt><trkpt lat="43.084785" lon="2.6955083"><ele>113.33333333333334</ele><time>2026-04-26T13:34:23.727Z</time></trkpt><trkpt lat="43.0847833" lon="2.695365"><ele>115.0</ele><time>2026-04-26T13:34:24.728Z</time></trkpt><trkpt lat="43.08477" lon="2.69522"><ele>116.4</ele><time>2026-04-26T13:34:25.727Z</time></trkpt><trkpt lat="43.08475" lon="2.695075"><ele>117.8</ele><time>2026-04-26T13:34:26.729Z</time></trkpt><trkpt lat="43.0847267" lon="2.6949267"><ele>119.19999999999999</ele><time>2026-04-26T13:34:27.729Z</time></trkpt><trkpt lat="43.0847083" lon="2.694775"><ele>120.6</ele><time>2026-04-26T13:34:28.729Z</time></trkpt><trkpt lat="43.0846967" lon="2.6946183"><ele>122.0</ele><time>2026-04-26T13:34:29.73Z</time></trkpt><trkpt lat="43.0847083" lon="2.694465"><ele>122.25</ele><time>2026-04-26T13:34:30.729Z</time></trkpt><trkpt lat="43.0847367" lon="2.6943167"><ele>122.5</ele><time>2026-04-26T13:34:31.728Z</time></trkpt><trkpt lat="43.0847783" lon="2.6941683"><ele>122.75</ele><time>2026-04-26T13:34:32.734Z</time></trkpt><trkpt lat="43.0848333" lon="2.6940233"><ele>123.0</ele><time>2026-04-26T13:34:33.729Z</time></trkpt><trkpt lat="43.0848867" lon="2.6938867"><ele>122.80000000000001</ele><time>2026-04-26T13:34:34.73Z</time></trkpt><trkpt lat="43.0849383" lon="2.6937633"><ele>122.60000000000001</ele><time>2026-04-26T13:34:35.728Z</time></trkpt><trkpt lat="43.084985" lon="2.6936417"><ele>122.39999999999999</ele><time>2026-04-26T13:34:36.728Z</time></trkpt><trkpt lat="43.085035" lon="2.6935167"><ele>122.19999999999999</ele><time>2026-04-26T13:34:37.729Z</time></trkpt><trkpt lat="43.0850917" lon="2.6934017"><ele>122.0</ele><time>2026-04-26T13:34:38.729Z</time></trkpt><trkpt lat="43.08516" lon="2.693305"><ele>122.6</ele><time>2026-04-26T13:34:39.728Z</time></trkpt><trkpt lat="43.08525" lon="2.6932317"><ele>123.19999999999999</ele><time>2026-04-26T13:34:40.729Z</time></trkpt><trkpt lat="43.0853467" lon="2.69318"><ele>123.8</ele><time>2026-04-26T13:34:41.728Z</time></trkpt><trkpt lat="43.0854483" lon="2.693135"><ele>124.4</ele><time>2026-04-26T13:34:42.728Z</time></trkpt><trkpt lat="43.0855483" lon="2.6930683"><ele>125.0</ele><time>2026-04-26T13:34:43.728Z</time></trkpt><trkpt lat="43.085645" lon="2.6929817"><ele>125.0</ele><time>2026-04-26T13:34:44.728Z</time></trkpt><trkpt lat="43.0857367" lon="2.6928817"><ele>125.0</ele><time>2026-04-26T13:34:45.729Z</time></trkpt><trkpt lat="43.0858467" lon="2.69279"><ele>125.0</ele><time>2026-04-26T13:34:46.728Z</time></trkpt><trkpt lat="43.0859667" lon="2.6927033"><ele>125.0</ele><time>2026-04-26T13:34:47.729Z</time></trkpt><trkpt lat="43.0861017" lon="2.69264"><ele>123.0</ele><time>2026-04-26T13:34:48.729Z</time></trkpt><trkpt lat="43.0862483" lon="2.6925933"><ele>121.0</ele><time>2026-04-26T13:34:49.729Z</time></trkpt><trkpt lat="43.086395" lon="2.6925467"><ele>119.0</ele><time>2026-04-26T13:34:50.729Z</time></trkpt><trkpt lat="43.086535" lon="2.69249"><ele>117.0</ele><time>2026-04-26T13:34:51.73Z</time></trkpt><trkpt lat="43.0866633" lon="2.69244"><ele>114.39999999999999</ele><time>2026-04-26T13:34:52.728Z</time></trkpt><trkpt lat="43.086785" lon="2.692395"><ele>111.79999999999998</ele><time>2026-04-26T13:34:53.731Z</time></trkpt><trkpt lat="43.0868867" lon="2.6923633"><ele>109.2</ele><time>2026-04-26T13:34:54.729Z</time></trkpt><trkpt lat="43.0869717" lon="2.692345"><ele>106.6</ele><time>2026-04-26T13:34:55.728Z</time></trkpt><trkpt lat="43.0870383" lon="2.692325"><ele>104.0</ele><time>2026-04-26T13:34:56.728Z</time></trkpt><trkpt lat="43.087125" lon="2.69226"><ele>104.0</ele><time>2026-04-26T13:34:58.728Z</time></trkpt><trkpt lat="43.0871183" lon="2.6921383"><ele>104.0</ele><time>2026-04-26T13:35:00.728Z</time></trkpt><trkpt lat="43.08705" lon="2.69202"><ele>104.0</ele><time>2026-04-26T13:35:02.729Z</time></trkpt><trkpt lat="43.086995" lon="2.6919583"><ele>104.0</ele><time>2026-04-26T13:35:03.727Z</time></trkpt><trkpt lat="43.08693" lon="2.6918683"><ele>104.0</ele><time>2026-04-26T13:35:04.728Z</time></trkpt><trkpt lat="43.0868683" lon="2.69175"><ele>104.0</ele><time>2026-04-26T13:35:05.728Z</time></trkpt><trkpt lat="43.086815" lon="2.6916067"><ele>104.0</ele><time>2026-04-26T13:35:06.729Z</time></trkpt><trkpt lat="43.0867617" lon="2.6914517"><ele>104.0</ele><time>2026-04-26T13:35:07.727Z</time></trkpt><trkpt lat="43.086715" lon="2.6912933"><ele>104.0</ele><time>2026-04-26T13:35:08.733Z</time></trkpt><trkpt lat="43.086675" lon="2.6911317"><ele>104.75</ele><time>2026-04-26T13:35:09.728Z</time></trkpt><trkpt lat="43.0866383" lon="2.690965"><ele>105.5</ele><time>2026-04-26T13:35:10.728Z</time></trkpt><trkpt lat="43.0866067" lon="2.6907867"><ele>106.25</ele><time>2026-04-26T13:35:11.727Z</time></trkpt><trkpt lat="43.086585" lon="2.6906"><ele>107.0</ele><time>2026-04-26T13:35:12.728Z</time></trkpt><trkpt lat="43.0865733" lon="2.6904033"><ele>108.75</ele><time>2026-04-26T13:35:13.727Z</time></trkpt><trkpt lat="43.0865683" lon="2.6902067"><ele>110.5</ele><time>2026-04-26T13:35:14.729Z</time></trkpt><trkpt lat="43.0865667" lon="2.6900067"><ele>112.25</ele><time>2026-04-26T13:35:15.729Z</time></trkpt><trkpt lat="43.08657" lon="2.68981"><ele>114.0</ele><time>2026-04-26T13:35:16.728Z</time></trkpt><trkpt lat="43.0865817" lon="2.689615"><ele>112.75</ele><time>2026-04-26T13:35:17.727Z</time></trkpt><trkpt lat="43.0865983" lon="2.68942"><ele>111.5</ele><time>2026-04-26T13:35:18.73Z</time></trkpt><trkpt lat="43.08661" lon="2.68922"><ele>110.25</ele><time>2026-04-26T13:35:19.731Z</time></trkpt><trkpt lat="43.0866217" lon="2.6890383"><ele>109.0</ele><time>2026-04-26T13:35:20.729Z</time></trkpt><trkpt lat="43.0866333" lon="2.6888567"><ele>109.0</ele><time>2026-04-26T13:35:21.729Z</time></trkpt><trkpt lat="43.086645" lon="2.6886683"><ele>109.0</ele><time>2026-04-26T13:35:22.729Z</time></trkpt><trkpt lat="43.0866467" lon="2.6884817"><ele>109.0</ele><time>2026-04-26T13:35:23.729Z</time></trkpt><trkpt lat="43.0866333" lon="2.6883"><ele>109.0</ele><time>2026-04-26T13:35:24.73Z</time></trkpt><trkpt lat="43.0866117" lon="2.6881133"><ele>109.5</ele><time>2026-04-26T13:35:25.728Z</time></trkpt><trkpt lat="43.0865917" lon="2.6879283"><ele>110.0</ele><time>2026-04-26T13:35:26.736Z</time></trkpt><trkpt lat="43.08657" lon="2.6877533"><ele>110.5</ele><time>2026-04-26T13:35:27.727Z</time></trkpt><trkpt lat="43.0865517" lon="2.6875933"><ele>111.0</ele><time>2026-04-26T13:35:28.731Z</time></trkpt><trkpt lat="43.086535" lon="2.6874467"><ele>111.0</ele><time>2026-04-26T13:35:29.728Z</time></trkpt><trkpt lat="43.0865317" lon="2.6873183"><ele>111.0</ele><time>2026-04-26T13:35:30.731Z</time></trkpt><trkpt lat="43.0865467" lon="2.687215"><ele>111.0</ele><time>2026-04-26T13:35:31.732Z</time></trkpt><trkpt lat="43.0865867" lon="2.687135"><ele>111.0</ele><time>2026-04-26T13:35:32.729Z</time></trkpt><trkpt lat="43.0866433" lon="2.6870667"><ele>111.0</ele><time>2026-04-26T13:35:33.73Z</time></trkpt><trkpt lat="43.08669" lon="2.6869933"><ele>111.0</ele><time>2026-04-26T13:35:34.732Z</time></trkpt><trkpt lat="43.0867217" lon="2.6869133"><ele>111.19999999999999</ele><time>2026-04-26T13:35:35.728Z</time></trkpt><trkpt lat="43.086735" lon="2.6868167"><ele>111.39999999999999</ele><time>2026-04-26T13:35:36.729Z</time></trkpt><trkpt lat="43.086705" lon="2.6866933"><ele>111.6</ele><time>2026-04-26T13:35:37.729Z</time></trkpt><trkpt lat="43.0866583" lon="2.6865533"><ele>111.8</ele><time>2026-04-26T13:35:38.728Z</time></trkpt><trkpt lat="43.0866217" lon="2.6864067"><ele>112.0</ele><time>2026-04-26T13:35:39.728Z</time></trkpt><trkpt lat="43.0865867" lon="2.6862433"><ele>112.5</ele><time>2026-04-26T13:35:40.727Z</time></trkpt><trkpt lat="43.0865417" lon="2.6860667"><ele>113.0</ele><time>2026-04-26T13:35:41.727Z</time></trkpt><trkpt lat="43.0864833" lon="2.6858867"><ele>113.5</ele><time>2026-04-26T13:35:42.73Z</time></trkpt><trkpt lat="43.0864217" lon="2.6857167"><ele>114.0</ele><time>2026-04-26T13:35:43.728Z</time></trkpt><trkpt lat="43.0863617" lon="2.6855433"><ele>114.0</ele><time>2026-04-26T13:35:44.736Z</time></trkpt><trkpt lat="43.0863033" lon="2.685365"><ele>114.0</ele><time>2026-04-26T13:35:45.728Z</time></trkpt><trkpt lat="43.08625" lon="2.68518"><ele>114.0</ele><time>2026-04-26T13:35:46.729Z</time></trkpt><trkpt lat="43.0862033" lon="2.68499"><ele>114.0</ele><time>2026-04-26T13:35:47.729Z</time></trkpt><trkpt lat="43.0861533" lon="2.6847967"><ele>114.0</ele><time>2026-04-26T13:35:48.73Z</time></trkpt><trkpt lat="43.0860983" lon="2.6846"><ele>114.0</ele><time>2026-04-26T13:35:49.73Z</time></trkpt><trkpt lat="43.0860517" lon="2.684405"><ele>114.0</ele><time>2026-04-26T13:35:50.729Z</time></trkpt><trkpt lat="43.0860133" lon="2.6842183"><ele>114.0</ele><time>2026-04-26T13:35:51.728Z</time></trkpt><trkpt lat="43.0859767" lon="2.6840367"><ele>114.5</ele><time>2026-04-26T13:35:52.729Z</time></trkpt><trkpt lat="43.0859417" lon="2.6838533"><ele>115.0</ele><time>2026-04-26T13:35:53.728Z</time></trkpt><trkpt lat="43.085905" lon="2.6836817"><ele>115.5</ele><time>2026-04-26T13:35:54.729Z</time></trkpt><trkpt lat="43.085865" lon="2.6835183"><ele>116.0</ele><time>2026-04-26T13:35:55.727Z</time></trkpt><trkpt lat="43.08583" lon="2.6833533"><ele>116.5</ele><time>2026-04-26T13:35:56.73Z</time></trkpt><trkpt lat="43.0858067" lon="2.6831833"><ele>117.0</ele><time>2026-04-26T13:35:57.728Z</time></trkpt><trkpt lat="43.0857983" lon="2.6830067"><ele>117.5</ele><time>2026-04-26T13:35:58.73Z</time></trkpt><trkpt lat="43.0857933" lon="2.6828317"><ele>118.0</ele><time>2026-04-26T13:35:59.73Z</time></trkpt><trkpt lat="43.08578" lon="2.6826683"><ele>118.0</ele><time>2026-04-26T13:36:00.73Z</time></trkpt><trkpt lat="43.0857633" lon="2.6825217"><ele>118.00000000000001</ele><time>2026-04-26T13:36:01.727Z</time></trkpt><trkpt lat="43.085755" lon="2.6823833"><ele>118.00000000000001</ele><time>2026-04-26T13:36:02.729Z</time></trkpt><trkpt lat="43.085765" lon="2.68224"><ele>118.0</ele><time>2026-04-26T13:36:03.728Z</time></trkpt><trkpt lat="43.0857983" lon="2.6820933"><ele>118.0</ele><time>2026-04-26T13:36:04.728Z</time></trkpt><trkpt lat="43.0858433" lon="2.681955"><ele>118.2</ele><time>2026-04-26T13:36:05.728Z</time></trkpt><trkpt lat="43.0858917" lon="2.6818267"><ele>118.4</ele><time>2026-04-26T13:36:06.73Z</time></trkpt><trkpt lat="43.0859517" lon="2.6817167"><ele>118.60000000000001</ele><time>2026-04-26T13:36:07.728Z</time></trkpt><trkpt lat="43.0859967" lon="2.6816017"><ele>118.80000000000001</ele><time>2026-04-26T13:36:08.733Z</time></trkpt><trkpt lat="43.0860317" lon="2.681475"><ele>119.0</ele><time>2026-04-26T13:36:09.729Z</time></trkpt><trkpt lat="43.0860517" lon="2.6813567"><ele>118.99999999999999</ele><time>2026-04-26T13:36:10.729Z</time></trkpt><trkpt lat="43.0860533" lon="2.6812467"><ele>119.0</ele><time>2026-04-26T13:36:11.727Z</time></trkpt><trkpt lat="43.0860333" lon="2.6811483"><ele>119.0</ele><time>2026-04-26T13:36:12.731Z</time></trkpt><trkpt lat="43.0859933" lon="2.6810567"><ele>119.0</ele><time>2026-04-26T13:36:13.728Z</time></trkpt><trkpt lat="43.0859417" lon="2.6809483"><ele>118.99999999999999</ele><time>2026-04-26T13:36:14.728Z</time></trkpt><trkpt lat="43.085895" lon="2.6808183"><ele>119.0</ele><time>2026-04-26T13:36:15.727Z</time></trkpt><trkpt lat="43.0858483" lon="2.6806733"><ele>119.0</ele><time>2026-04-26T13:36:16.731Z</time></trkpt><trkpt lat="43.0858" lon="2.6805217"><ele>119.0</ele><time>2026-04-26T13:36:17.73Z</time></trkpt><trkpt lat="43.085755" lon="2.6803633"><ele>119.0</ele><time>2026-04-26T13:36:18.73Z</time></trkpt><trkpt lat="43.0857133" lon="2.680205"><ele>119.0</ele><time>2026-04-26T13:36:19.729Z</time></trkpt><trkpt lat="43.0856747" lon="2.6800409"><ele>119.0</ele><time>2026-04-26T13:36:20.732Z</time></trkpt><trkpt lat="43.0856444" lon="2.6798686"><ele>119.0</ele><time>2026-04-26T13:36:21.73Z</time></trkpt><trkpt lat="43.085623" lon="2.6796866"><ele>119.0</ele><time>2026-04-26T13:36:22.729Z</time></trkpt><trkpt lat="43.0856038" lon="2.6795016"><ele>119.0</ele><time>2026-04-26T13:36:23.729Z</time></trkpt><trkpt lat="43.0855842" lon="2.6793189"><ele>119.5</ele><time>2026-04-26T13:36:24.733Z</time></trkpt><trkpt lat="43.085562" lon="2.679135"><ele>120.0</ele><time>2026-04-26T13:36:25.727Z</time></trkpt><trkpt lat="43.0855362" lon="2.6789424"><ele>120.5</ele><time>2026-04-26T13:36:26.729Z</time></trkpt><trkpt lat="43.0855107" lon="2.678748"><ele>121.0</ele><time>2026-04-26T13:36:27.729Z</time></trkpt><trkpt lat="43.0854876" lon="2.678558"><ele>121.0</ele><time>2026-04-26T13:36:28.727Z</time></trkpt><trkpt lat="43.0854679" lon="2.6783718"><ele>121.0</ele><time>2026-04-26T13:36:29.728Z</time></trkpt><trkpt lat="43.0854507" lon="2.6781941"><ele>121.0</ele><time>2026-04-26T13:36:30.731Z</time></trkpt><trkpt lat="43.0854258" lon="2.6780224"><ele>121.0</ele><time>2026-04-26T13:36:31.728Z</time></trkpt><trkpt lat="43.0853909" lon="2.6778641"><ele>121.0</ele><time>2026-04-26T13:36:32.734Z</time></trkpt><trkpt lat="43.0853445" lon="2.6777207"><ele>121.0</ele><time>2026-04-26T13:36:33.727Z</time></trkpt><trkpt lat="43.0853073" lon="2.677586"><ele>121.0</ele><time>2026-04-26T13:36:34.733Z</time></trkpt><trkpt lat="43.0852904" lon="2.6774547"><ele>121.0</ele><time>2026-04-26T13:36:35.728Z</time></trkpt><trkpt lat="43.0852951" lon="2.6773159"><ele>121.0</ele><time>2026-04-26T13:36:36.728Z</time></trkpt><trkpt lat="43.0853176" lon="2.677169"><ele>121.0</ele><time>2026-04-26T13:36:37.73Z</time></trkpt><trkpt lat="43.0853388" lon="2.6770111"><ele>121.0</ele><time>2026-04-26T13:36:38.729Z</time></trkpt><trkpt lat="43.0853358" lon="2.6768435"><ele>121.0</ele><time>2026-04-26T13:36:39.728Z</time></trkpt><trkpt lat="43.0853087" lon="2.6766686"><ele>121.0</ele><time>2026-04-26T13:36:40.729Z</time></trkpt><trkpt lat="43.0852708" lon="2.6764891"><ele>121.25</ele><time>2026-04-26T13:36:41.728Z</time></trkpt><trkpt lat="43.0852289" lon="2.6763161"><ele>121.5</ele><time>2026-04-26T13:36:42.732Z</time></trkpt><trkpt lat="43.0851849" lon="2.6761493"><ele>121.75</ele><time>2026-04-26T13:36:43.727Z</time></trkpt><trkpt lat="43.0851482" lon="2.6759944"><ele>122.0</ele><time>2026-04-26T13:36:44.729Z</time></trkpt><trkpt lat="43.0851171" lon="2.675844"><ele>122.25</ele><time>2026-04-26T13:36:45.727Z</time></trkpt><trkpt lat="43.0850948" lon="2.6756814"><ele>122.5</ele><time>2026-04-26T13:36:46.73Z</time></trkpt><trkpt lat="43.0850926" lon="2.675509"><ele>122.75</ele><time>2026-04-26T13:36:47.728Z</time></trkpt><trkpt lat="43.0850951" lon="2.6753272"><ele>123.0</ele><time>2026-04-26T13:36:48.73Z</time></trkpt><trkpt lat="43.0850873" lon="2.6751367"><ele>123.5</ele><time>2026-04-26T13:36:49.729Z</time></trkpt><trkpt lat="43.0850781" lon="2.6749427"><ele>124.0</ele><time>2026-04-26T13:36:50.73Z</time></trkpt><trkpt lat="43.0850694" lon="2.6747414"><ele>124.5</ele><time>2026-04-26T13:36:51.731Z</time></trkpt><trkpt lat="43.0850616" lon="2.6745321"><ele>125.0</ele><time>2026-04-26T13:36:52.733Z</time></trkpt><trkpt lat="43.0850525" lon="2.6743155"><ele>125.66666666666666</ele><time>2026-04-26T13:36:53.731Z</time></trkpt><trkpt lat="43.0850482" lon="2.6740955"><ele>126.33333333333334</ele><time>2026-04-26T13:36:54.735Z</time></trkpt><trkpt lat="43.0850461" lon="2.6738717"><ele>127.0</ele><time>2026-04-26T13:36:55.73Z</time></trkpt><trkpt lat="43.0850356" lon="2.6736432"><ele>127.66666666666667</ele><time>2026-04-26T13:36:56.73Z</time></trkpt><trkpt lat="43.0850175" lon="2.6734117"><ele>128.33333333333334</ele><time>2026-04-26T13:36:57.729Z</time></trkpt><trkpt lat="43.0850067" lon="2.6731828"><ele>129.0</ele><time>2026-04-26T13:36:58.729Z</time></trkpt><trkpt lat="43.0850014" lon="2.6729502"><ele>130.0</ele><time>2026-04-26T13:36:59.728Z</time></trkpt><trkpt lat="43.0849973" lon="2.6727139"><ele>131.0</ele><time>2026-04-26T13:37:00.729Z</time></trkpt><trkpt lat="43.0849906" lon="2.67248"><ele>132.0</ele><time>2026-04-26T13:37:01.727Z</time></trkpt><trkpt lat="43.0849785" lon="2.6722674"><ele>132.0</ele><time>2026-04-26T13:37:02.733Z</time></trkpt><trkpt lat="43.0849644" lon="2.6720766"><ele>132.0</ele><time>2026-04-26T13:37:03.728Z</time></trkpt><trkpt lat="43.0849524" lon="2.6719075"><ele>132.0</ele><time>2026-04-26T13:37:04.73Z</time></trkpt><trkpt lat="43.0849443" lon="2.6717621"><ele>132.0</ele><time>2026-04-26T13:37:05.73Z</time></trkpt><trkpt lat="43.0849518" lon="2.671627"><ele>132.25</ele><time>2026-04-26T13:37:06.728Z</time></trkpt><trkpt lat="43.0849778" lon="2.6714859"><ele>132.5</ele><time>2026-04-26T13:37:07.73Z</time></trkpt><trkpt lat="43.0850061" lon="2.6713328"><ele>132.75</ele><time>2026-04-26T13:37:08.732Z</time></trkpt><trkpt lat="43.0850195" lon="2.6711674"><ele>133.0</ele><time>2026-04-26T13:37:09.728Z</time></trkpt><trkpt lat="43.085013" lon="2.6710008"><ele>132.5</ele><time>2026-04-26T13:37:10.73Z</time></trkpt><trkpt lat="43.0849812" lon="2.6708381"><ele>132.0</ele><time>2026-04-26T13:37:11.73Z</time></trkpt><trkpt lat="43.0849252" lon="2.670685"><ele>131.5</ele><time>2026-04-26T13:37:12.729Z</time></trkpt><trkpt lat="43.0848504" lon="2.6705481"><ele>131.0</ele><time>2026-04-26T13:37:13.729Z</time></trkpt><trkpt lat="43.0847569" lon="2.6704371"><ele>131.25</ele><time>2026-04-26T13:37:14.729Z</time></trkpt><trkpt lat="43.0846493" lon="2.6703461"><ele>131.5</ele><time>2026-04-26T13:37:15.728Z</time></trkpt><trkpt lat="43.0845308" lon="2.6702618"><ele>131.75</ele><time>2026-04-26T13:37:16.73Z</time></trkpt><trkpt lat="43.0844121" lon="2.670176"><ele>132.0</ele><time>2026-04-26T13:37:17.729Z</time></trkpt><trkpt lat="43.0842974" lon="2.6700841"><ele>132.0</ele><time>2026-04-26T13:37:18.729Z</time></trkpt><trkpt lat="43.0841849" lon="2.6699886"><ele>132.0</ele><time>2026-04-26T13:37:19.73Z</time></trkpt><trkpt lat="43.0840772" lon="2.6698951"><ele>132.0</ele><time>2026-04-26T13:37:20.73Z</time></trkpt><trkpt lat="43.0839838" lon="2.6698003"><ele>132.0</ele><time>2026-04-26T13:37:21.729Z</time></trkpt><trkpt lat="43.0839103" lon="2.6696982"><ele>131.6</ele><time>2026-04-26T13:37:22.73Z</time></trkpt><trkpt lat="43.0838623" lon="2.6695801"><ele>131.2</ele><time>2026-04-26T13:37:23.728Z</time></trkpt><trkpt lat="43.0838372" lon="2.6694427"><ele>130.8</ele><time>2026-04-26T13:37:24.729Z</time></trkpt><trkpt lat="43.0838196" lon="2.6692898"><ele>130.4</ele><time>2026-04-26T13:37:25.729Z</time></trkpt><trkpt lat="43.083807" lon="2.6691315"><ele>130.0</ele><time>2026-04-26T13:37:26.729Z</time></trkpt><trkpt lat="43.0837976" lon="2.6689761"><ele>130.0</ele><time>2026-04-26T13:37:27.728Z</time></trkpt><trkpt lat="43.0837853" lon="2.6688203"><ele>130.0</ele><time>2026-04-26T13:37:28.729Z</time></trkpt><trkpt lat="43.0837709" lon="2.6686593"><ele>130.0</ele><time>2026-04-26T13:37:29.729Z</time></trkpt><trkpt lat="43.0837517" lon="2.6684976"><ele>130.0</ele><time>2026-04-26T13:37:30.728Z</time></trkpt><trkpt lat="43.0837251" lon="2.6683383"><ele>131.25</ele><time>2026-04-26T13:37:31.728Z</time></trkpt><trkpt lat="43.0836961" lon="2.6681769"><ele>132.5</ele><time>2026-04-26T13:37:32.729Z</time></trkpt><trkpt lat="43.0836618" lon="2.6680112"><ele>133.75</ele><time>2026-04-26T13:37:33.729Z</time></trkpt><trkpt lat="43.0836251" lon="2.667847"><ele>135.0</ele><time>2026-04-26T13:37:34.728Z</time></trkpt><trkpt lat="43.0835866" lon="2.6676834"><ele>135.25</ele><time>2026-04-26T13:37:35.729Z</time></trkpt><trkpt lat="43.0835466" lon="2.6675231"><ele>135.5</ele><time>2026-04-26T13:37:36.729Z</time></trkpt><trkpt lat="43.0835063" lon="2.6673661"><ele>135.75</ele><time>2026-04-26T13:37:37.729Z</time></trkpt><trkpt lat="43.0834668" lon="2.667214"><ele>136.0</ele><time>2026-04-26T13:37:38.729Z</time></trkpt><trkpt lat="43.0834295" lon="2.6670656"><ele>136.4</ele><time>2026-04-26T13:37:39.728Z</time></trkpt><trkpt lat="43.0833963" lon="2.666919"><ele>136.8</ele><time>2026-04-26T13:37:40.729Z</time></trkpt><trkpt lat="43.0833654" lon="2.6667741"><ele>137.20000000000002</ele><time>2026-04-26T13:37:41.728Z</time></trkpt><trkpt lat="43.0833403" lon="2.6666392"><ele>137.6</ele><time>2026-04-26T13:37:42.729Z</time></trkpt><trkpt lat="43.0833174" lon="2.6665128"><ele>138.0</ele><time>2026-04-26T13:37:43.728Z</time></trkpt><trkpt lat="43.083296" lon="2.666393"><ele>138.0</ele><time>2026-04-26T13:37:44.735Z</time></trkpt><trkpt lat="43.0832749" lon="2.6662811"><ele>138.0</ele><time>2026-04-26T13:37:45.729Z</time></trkpt><trkpt lat="43.0832533" lon="2.6661688"><ele>138.0</ele><time>2026-04-26T13:37:46.729Z</time></trkpt><trkpt lat="43.0832294" lon="2.6660646"><ele>138.0</ele><time>2026-04-26T13:37:47.728Z</time></trkpt><trkpt lat="43.0832057" lon="2.6659708"><ele>138.0</ele><time>2026-04-26T13:37:48.729Z</time></trkpt><trkpt lat="43.083185" lon="2.665865"><ele>138.0</ele><time>2026-04-26T13:37:49.728Z</time></trkpt><trkpt lat="43.08316" lon="2.6657433"><ele>138.0</ele><time>2026-04-26T13:37:50.733Z</time></trkpt><trkpt lat="43.0831317" lon="2.6656183"><ele>138.0</ele><time>2026-04-26T13:37:51.73Z</time></trkpt><trkpt lat="43.083115" lon="2.6654933"><ele>138.0</ele><time>2026-04-26T13:37:52.736Z</time></trkpt><trkpt lat="43.08309" lon="2.6653583"><ele>138.0</ele><time>2026-04-26T13:37:53.729Z</time></trkpt><trkpt lat="43.08306" lon="2.6652067"><ele>138.0</ele><time>2026-04-26T13:37:54.729Z</time></trkpt><trkpt lat="43.083035" lon="2.665055"><ele>138.0</ele><time>2026-04-26T13:37:55.728Z</time></trkpt><trkpt lat="43.0830217" lon="2.6649033"><ele>138.0</ele><time>2026-04-26T13:37:56.729Z</time></trkpt><trkpt lat="43.08301" lon="2.6647533"><ele>138.0</ele><time>2026-04-26T13:37:57.728Z</time></trkpt><trkpt lat="43.0829983" lon="2.6646017"><ele>138.0</ele><time>2026-04-26T13:37:58.73Z</time></trkpt><trkpt lat="43.08299" lon="2.6644633"><ele>138.0</ele><time>2026-04-26T13:37:59.728Z</time></trkpt><trkpt lat="43.0829867" lon="2.6643333"><ele>137.83333333333334</ele><time>2026-04-26T13:38:00.73Z</time></trkpt><trkpt lat="43.0829933" lon="2.664205"><ele>137.66666666666666</ele><time>2026-04-26T13:38:01.728Z</time></trkpt><trkpt lat="43.083015" lon="2.66408"><ele>137.5</ele><time>2026-04-26T13:38:02.731Z</time></trkpt><trkpt lat="43.08304" lon="2.66396"><ele>137.33333333333331</ele><time>2026-04-26T13:38:03.728Z</time></trkpt><trkpt lat="43.083065" lon="2.6638533"><ele>137.16666666666666</ele><time>2026-04-26T13:38:04.728Z</time></trkpt><trkpt lat="43.0830817" lon="2.6637383"><ele>137.0</ele><time>2026-04-26T13:38:05.729Z</time></trkpt><trkpt lat="43.0830833" lon="2.6636183"><ele>137.0</ele><time>2026-04-26T13:38:06.728Z</time></trkpt><trkpt lat="43.0830567" lon="2.66348"><ele>137.0</ele><time>2026-04-26T13:38:07.728Z</time></trkpt><trkpt lat="43.0830233" lon="2.6633267"><ele>137.0</ele><time>2026-04-26T13:38:08.729Z</time></trkpt><trkpt lat="43.083" lon="2.6631767"><ele>137.0</ele><time>2026-04-26T13:38:09.728Z</time></trkpt><trkpt lat="43.0829833" lon="2.6630267"><ele>137.0</ele><time>2026-04-26T13:38:10.728Z</time></trkpt><trkpt lat="43.08296" lon="2.66287"><ele>137.0</ele><time>2026-04-26T13:38:11.73Z</time></trkpt><trkpt lat="43.0829383" lon="2.6627133"><ele>137.0</ele><time>2026-04-26T13:38:12.727Z</time></trkpt><trkpt lat="43.0829283" lon="2.6625733"><ele>137.0</ele><time>2026-04-26T13:38:13.727Z</time></trkpt><trkpt lat="43.0829067" lon="2.66244"><ele>137.0</ele><time>2026-04-26T13:38:14.728Z</time></trkpt><trkpt lat="43.0828867" lon="2.6623033"><ele>137.0</ele><time>2026-04-26T13:38:15.727Z</time></trkpt><trkpt lat="43.082865" lon="2.6621617"><ele>137.0</ele><time>2026-04-26T13:38:16.728Z</time></trkpt><trkpt lat="43.082845" lon="2.6620083"><ele>137.0</ele><time>2026-04-26T13:38:17.727Z</time></trkpt><trkpt lat="43.08283" lon="2.66185"><ele>137.0</ele><time>2026-04-26T13:38:18.729Z</time></trkpt><trkpt lat="43.0828183" lon="2.6616967"><ele>137.0</ele><time>2026-04-26T13:38:19.728Z</time></trkpt><trkpt lat="43.0828117" lon="2.66155"><ele>137.0</ele><time>2026-04-26T13:38:20.729Z</time></trkpt><trkpt lat="43.0828117" lon="2.66141"><ele>137.0</ele><time>2026-04-26T13:38:21.728Z</time></trkpt><trkpt lat="43.0828083" lon="2.6612783"><ele>137.0</ele><time>2026-04-26T13:38:22.728Z</time></trkpt><trkpt lat="43.082795" lon="2.6611567"><ele>137.0</ele><time>2026-04-26T13:38:23.728Z</time></trkpt><trkpt lat="43.08277" lon="2.661055"><ele>137.0</ele><time>2026-04-26T13:38:24.731Z</time></trkpt><trkpt lat="43.08273" lon="2.6609767"><ele>137.0</ele><time>2026-04-26T13:38:25.73Z</time></trkpt><trkpt lat="43.0826917" lon="2.6608933"><ele>136.79999999999998</ele><time>2026-04-26T13:38:26.728Z</time></trkpt><trkpt lat="43.0826733" lon="2.6607883"><ele>136.6</ele><time>2026-04-26T13:38:27.727Z</time></trkpt><trkpt lat="43.0826783" lon="2.660665"><ele>136.39999999999998</ele><time>2026-04-26T13:38:28.734Z</time></trkpt><trkpt lat="43.0826867" lon="2.6605283"><ele>136.2</ele><time>2026-04-26T13:38:29.728Z</time></trkpt><trkpt lat="43.082685" lon="2.6603883"><ele>136.0</ele><time>2026-04-26T13:38:30.731Z</time></trkpt><trkpt lat="43.08268" lon="2.6602467"><ele>136.0</ele><time>2026-04-26T13:38:31.727Z</time></trkpt><trkpt lat="43.082675" lon="2.6601033"><ele>136.0</ele><time>2026-04-26T13:38:32.728Z</time></trkpt><trkpt lat="43.0826783" lon="2.6599617"><ele>136.0</ele><time>2026-04-26T13:38:33.728Z</time></trkpt><trkpt lat="43.08269" lon="2.65981"><ele>136.0</ele><time>2026-04-26T13:38:34.727Z</time></trkpt><trkpt lat="43.08271" lon="2.6596467"><ele>136.0</ele><time>2026-04-26T13:38:35.727Z</time></trkpt><trkpt lat="43.0827317" lon="2.6594783"><ele>136.0</ele><time>2026-04-26T13:38:36.728Z</time></trkpt><trkpt lat="43.08275" lon="2.6593"><ele>136.0</ele><time>2026-04-26T13:38:37.728Z</time></trkpt><trkpt lat="43.0827583" lon="2.6591117"><ele>136.0</ele><time>2026-04-26T13:38:38.728Z</time></trkpt><trkpt lat="43.0827517" lon="2.6589067"><ele>136.0</ele><time>2026-04-26T13:38:39.728Z</time></trkpt><trkpt lat="43.0827391" lon="2.6586977"><ele>136.33333333333334</ele><time>2026-04-26T13:38:40.732Z</time></trkpt><trkpt lat="43.0827197" lon="2.6584922"><ele>136.66666666666666</ele><time>2026-04-26T13:38:41.727Z</time></trkpt><trkpt lat="43.0826912" lon="2.658291"><ele>137.0</ele><time>2026-04-26T13:38:42.729Z</time></trkpt><trkpt lat="43.0826539" lon="2.6580884"><ele>137.0</ele><time>2026-04-26T13:38:43.728Z</time></trkpt><trkpt lat="43.0826215" lon="2.6578868"><ele>137.0</ele><time>2026-04-26T13:38:44.728Z</time></trkpt><trkpt lat="43.082602" lon="2.6576835"><ele>137.0</ele><time>2026-04-26T13:38:45.729Z</time></trkpt><trkpt lat="43.0825953" lon="2.6574769"><ele>137.5</ele><time>2026-04-26T13:38:46.728Z</time></trkpt><trkpt lat="43.0826016" lon="2.65727"><ele>138.0</ele><time>2026-04-26T13:38:47.728Z</time></trkpt><trkpt lat="43.0826208" lon="2.657076"><ele>138.5</ele><time>2026-04-26T13:38:48.728Z</time></trkpt><trkpt lat="43.0826464" lon="2.6569034"><ele>139.0</ele><time>2026-04-26T13:38:49.728Z</time></trkpt><trkpt lat="43.0826704" lon="2.6567543"><ele>140.0</ele><time>2026-04-26T13:38:50.729Z</time></trkpt><trkpt lat="43.0826966" lon="2.6566107"><ele>141.0</ele><time>2026-04-26T13:38:51.73Z</time></trkpt><trkpt lat="43.0827276" lon="2.6564643"><ele>142.0</ele><time>2026-04-26T13:38:52.727Z</time></trkpt><trkpt lat="43.082761" lon="2.6563116"><ele>143.0</ele><time>2026-04-26T13:38:53.728Z</time></trkpt><trkpt lat="43.0827967" lon="2.6561479"><ele>143.75</ele><time>2026-04-26T13:38:54.729Z</time></trkpt><trkpt lat="43.0828273" lon="2.6559651"><ele>144.5</ele><time>2026-04-26T13:38:55.729Z</time></trkpt><trkpt lat="43.0828526" lon="2.6557702"><ele>145.25</ele><time>2026-04-26T13:38:56.728Z</time></trkpt><trkpt lat="43.0828632" lon="2.6555699"><ele>146.0</ele><time>2026-04-26T13:38:57.728Z</time></trkpt><trkpt lat="43.0828607" lon="2.6553711"><ele>146.5</ele><time>2026-04-26T13:38:58.728Z</time></trkpt><trkpt lat="43.0828445" lon="2.6551693"><ele>147.0</ele><time>2026-04-26T13:38:59.729Z</time></trkpt><trkpt lat="43.0828178" lon="2.6549738"><ele>147.5</ele><time>2026-04-26T13:39:00.728Z</time></trkpt><trkpt lat="43.0827799" lon="2.6547873"><ele>148.0</ele><time>2026-04-26T13:39:01.728Z</time></trkpt><trkpt lat="43.0827399" lon="2.6546033"><ele>148.25</ele><time>2026-04-26T13:39:02.729Z</time></trkpt><trkpt lat="43.0827047" lon="2.6544139"><ele>148.5</ele><time>2026-04-26T13:39:03.729Z</time></trkpt><trkpt lat="43.0826829" lon="2.6542132"><ele>148.75</ele><time>2026-04-26T13:39:04.729Z</time></trkpt><trkpt lat="43.0826777" lon="2.6540022"><ele>149.0</ele><time>2026-04-26T13:39:05.727Z</time></trkpt><trkpt lat="43.0826813" lon="2.6537858"><ele>148.33333333333331</ele><time>2026-04-26T13:39:06.729Z</time></trkpt><trkpt lat="43.0826873" lon="2.6535693"><ele>147.66666666666666</ele><time>2026-04-26T13:39:07.727Z</time></trkpt><trkpt lat="43.0827033" lon="2.6533526"><ele>147.0</ele><time>2026-04-26T13:39:08.731Z</time></trkpt><trkpt lat="43.0827331" lon="2.6531388"><ele>147.0</ele><time>2026-04-26T13:39:09.728Z</time></trkpt><trkpt lat="43.0827736" lon="2.652923"><ele>147.0</ele><time>2026-04-26T13:39:10.729Z</time></trkpt><trkpt lat="43.0828247" lon="2.6527085"><ele>147.0</ele><time>2026-04-26T13:39:11.727Z</time></trkpt><trkpt lat="43.0828785" lon="2.6524887"><ele>147.33333333333334</ele><time>2026-04-26T13:39:12.727Z</time></trkpt><trkpt lat="43.0829338" lon="2.6522673"><ele>147.66666666666669</ele><time>2026-04-26T13:39:13.727Z</time></trkpt><trkpt lat="43.0829877" lon="2.6520552"><ele>148.0</ele><time>2026-04-26T13:39:14.728Z</time></trkpt><trkpt lat="43.0830246" lon="2.6518512"><ele>148.0</ele><time>2026-04-26T13:39:15.727Z</time></trkpt><trkpt lat="43.0830397" lon="2.6516565"><ele>148.0</ele><time>2026-04-26T13:39:16.727Z</time></trkpt><trkpt lat="43.0830288" lon="2.6514718"><ele>148.0</ele><time>2026-04-26T13:39:17.728Z</time></trkpt><trkpt lat="43.0830237" lon="2.6512862"><ele>148.0</ele><time>2026-04-26T13:39:18.73Z</time></trkpt><trkpt lat="43.0830408" lon="2.6510919"><ele>148.33333333333334</ele><time>2026-04-26T13:39:19.729Z</time></trkpt><trkpt lat="43.0830792" lon="2.6508957"><ele>148.66666666666666</ele><time>2026-04-26T13:39:20.731Z</time></trkpt><trkpt lat="43.0831258" lon="2.6506961"><ele>149.0</ele><time>2026-04-26T13:39:21.729Z</time></trkpt><trkpt lat="43.0831719" lon="2.6504886"><ele>148.33333333333331</ele><time>2026-04-26T13:39:22.73Z</time></trkpt><trkpt lat="43.0832171" lon="2.6502741"><ele>147.66666666666666</ele><time>2026-04-26T13:39:23.729Z</time></trkpt><trkpt lat="43.0832741" lon="2.6500596"><ele>147.0</ele><time>2026-04-26T13:39:24.73Z</time></trkpt><trkpt lat="43.0833401" lon="2.6498486"><ele>148.33333333333334</ele><time>2026-04-26T13:39:25.729Z</time></trkpt><trkpt lat="43.0834063" lon="2.6496379"><ele>149.66666666666669</ele><time>2026-04-26T13:39:26.729Z</time></trkpt><trkpt lat="43.0834674" lon="2.6494249"><ele>151.0</ele><time>2026-04-26T13:39:27.732Z</time></trkpt><trkpt lat="43.0835167" lon="2.6492067"><ele>151.0</ele><time>2026-04-26T13:39:28.729Z</time></trkpt><trkpt lat="43.0835533" lon="2.648985"><ele>151.0</ele><time>2026-04-26T13:39:29.727Z</time></trkpt><trkpt lat="43.08358" lon="2.6487567"><ele>151.0</ele><time>2026-04-26T13:39:30.727Z</time></trkpt><trkpt lat="43.0836033" lon="2.64852"><ele>151.0</ele><time>2026-04-26T13:39:31.728Z</time></trkpt><trkpt lat="43.0836233" lon="2.64828"><ele>151.0</ele><time>2026-04-26T13:39:32.73Z</time></trkpt><trkpt lat="43.0836417" lon="2.64804"><ele>151.0</ele><time>2026-04-26T13:39:33.728Z</time></trkpt><trkpt lat="43.0836583" lon="2.6478067"><ele>151.33333333333334</ele><time>2026-04-26T13:39:34.728Z</time></trkpt><trkpt lat="43.083665" lon="2.647575"><ele>151.66666666666666</ele><time>2026-04-26T13:39:35.727Z</time></trkpt><trkpt lat="43.083665" lon="2.6473517"><ele>152.0</ele><time>2026-04-26T13:39:36.728Z</time></trkpt><trkpt lat="43.0836617" lon="2.6471333"><ele>152.0</ele><time>2026-04-26T13:39:37.727Z</time></trkpt><trkpt lat="43.08366" lon="2.6469133"><ele>152.0</ele><time>2026-04-26T13:39:38.727Z</time></trkpt><trkpt lat="43.08366" lon="2.6466867"><ele>152.0</ele><time>2026-04-26T13:39:39.728Z</time></trkpt><trkpt lat="43.083665" lon="2.6464583"><ele>152.0</ele><time>2026-04-26T13:39:40.728Z</time></trkpt><trkpt lat="43.08367" lon="2.6462233"><ele>152.0</ele><time>2026-04-26T13:39:41.728Z</time></trkpt><trkpt lat="43.0836683" lon="2.645995"><ele>152.0</ele><time>2026-04-26T13:39:42.728Z</time></trkpt><trkpt lat="43.0836583" lon="2.6457633"><ele>152.33333333333331</ele><time>2026-04-26T13:39:43.727Z</time></trkpt><trkpt lat="43.08365" lon="2.6455283"><ele>152.66666666666666</ele><time>2026-04-26T13:39:44.73Z</time></trkpt><trkpt lat="43.0836417" lon="2.6452917"><ele>153.0</ele><time>2026-04-26T13:39:45.727Z</time></trkpt><trkpt lat="43.0836333" lon="2.645055"><ele>153.33333333333334</ele><time>2026-04-26T13:39:46.735Z</time></trkpt><trkpt lat="43.0836267" lon="2.6448167"><ele>153.66666666666669</ele><time>2026-04-26T13:39:47.727Z</time></trkpt><trkpt lat="43.0836233" lon="2.644585"><ele>154.0</ele><time>2026-04-26T13:39:48.729Z</time></trkpt><trkpt lat="43.0836233" lon="2.6443617"><ele>154.33333333333334</ele><time>2026-04-26T13:39:49.729Z</time></trkpt><trkpt lat="43.083625" lon="2.6441417"><ele>154.66666666666666</ele><time>2026-04-26T13:39:50.729Z</time></trkpt><trkpt lat="43.08363" lon="2.643925"><ele>155.0</ele><time>2026-04-26T13:39:51.729Z</time></trkpt><trkpt lat="43.08364" lon="2.6437117"><ele>155.33333333333331</ele><time>2026-04-26T13:39:52.731Z</time></trkpt><trkpt lat="43.0836517" lon="2.6434983"><ele>155.66666666666666</ele><time>2026-04-26T13:39:53.728Z</time></trkpt><trkpt lat="43.083665" lon="2.6432867"><ele>156.0</ele><time>2026-04-26T13:39:54.731Z</time></trkpt><trkpt lat="43.0836733" lon="2.6430733"><ele>156.0</ele><time>2026-04-26T13:39:55.728Z</time></trkpt><trkpt lat="43.083675" lon="2.6428583"><ele>156.0</ele><time>2026-04-26T13:39:56.732Z</time></trkpt><trkpt lat="43.0836733" lon="2.6426483"><ele>156.0</ele><time>2026-04-26T13:39:57.729Z</time></trkpt><trkpt lat="43.083675" lon="2.64245"><ele>156.25</ele><time>2026-04-26T13:39:58.729Z</time></trkpt><trkpt lat="43.0836767" lon="2.6422583"><ele>156.5</ele><time>2026-04-26T13:39:59.729Z</time></trkpt><trkpt lat="43.08368" lon="2.6420833"><ele>156.75</ele><time>2026-04-26T13:40:00.728Z</time></trkpt><trkpt lat="43.0836833" lon="2.64192"><ele>157.0</ele><time>2026-04-26T13:40:01.727Z</time></trkpt><trkpt lat="43.083685" lon="2.64177"><ele>157.5</ele><time>2026-04-26T13:40:02.731Z</time></trkpt><trkpt lat="43.0836867" lon="2.641635"><ele>158.0</ele><time>2026-04-26T13:40:03.728Z</time></trkpt><trkpt lat="43.0836867" lon="2.641515"><ele>158.5</ele><time>2026-04-26T13:40:04.728Z</time></trkpt><trkpt lat="43.08368" lon="2.6414083"><ele>159.0</ele><time>2026-04-26T13:40:05.727Z</time></trkpt><trkpt lat="43.0836667" lon="2.6413183"><ele>159.5</ele><time>2026-04-26T13:40:06.728Z</time></trkpt><trkpt lat="43.0836" lon="2.6412083"><ele>160.0</ele><time>2026-04-26T13:40:08.729Z</time></trkpt><trkpt lat="43.0834883" lon="2.6412133"><ele>160.0</ele><time>2026-04-26T13:40:10.727Z</time></trkpt><trkpt lat="43.0834083" lon="2.641275"><ele>160.0</ele><time>2026-04-26T13:40:11.73Z</time></trkpt><trkpt lat="43.0833167" lon="2.6413333"><ele>160.0</ele><time>2026-04-26T13:40:12.729Z</time></trkpt><trkpt lat="43.0832167" lon="2.6413933"><ele>160.0</ele><time>2026-04-26T13:40:13.729Z</time></trkpt><trkpt lat="43.0831267" lon="2.64145"><ele>160.0</ele><time>2026-04-26T13:40:14.729Z</time></trkpt><trkpt lat="43.0830517" lon="2.641515"><ele>159.33333333333334</ele><time>2026-04-26T13:40:15.727Z</time></trkpt><trkpt lat="43.082995" lon="2.6415917"><ele>158.66666666666669</ele><time>2026-04-26T13:40:16.728Z</time></trkpt><trkpt lat="43.0829617" lon="2.6416833"><ele>158.0</ele><time>2026-04-26T13:40:17.73Z</time></trkpt><trkpt lat="43.082945" lon="2.64179"><ele>157.33333333333334</ele><time>2026-04-26T13:40:18.727Z</time></trkpt><trkpt lat="43.0829433" lon="2.64191"><ele>156.66666666666666</ele><time>2026-04-26T13:40:19.727Z</time></trkpt><trkpt lat="43.08296" lon="2.6420467"><ele>156.0</ele><time>2026-04-26T13:40:20.732Z</time></trkpt><trkpt lat="43.0829667" lon="2.6421717"><ele>155.83333333333334</ele><time>2026-04-26T13:40:21.728Z</time></trkpt><trkpt lat="43.0829517" lon="2.64228"><ele>155.66666666666666</ele><time>2026-04-26T13:40:22.728Z</time></trkpt><trkpt lat="43.0829083" lon="2.6423617"><ele>155.5</ele><time>2026-04-26T13:40:23.728Z</time></trkpt><trkpt lat="43.0828433" lon="2.642405"><ele>155.33333333333331</ele><time>2026-04-26T13:40:24.73Z</time></trkpt><trkpt lat="43.082755" lon="2.642415"><ele>155.16666666666666</ele><time>2026-04-26T13:40:25.728Z</time></trkpt><trkpt lat="43.0826617" lon="2.6424067"><ele>155.0</ele><time>2026-04-26T13:40:26.729Z</time></trkpt><trkpt lat="43.0825367" lon="2.6423683"><ele>155.0</ele><time>2026-04-26T13:40:27.728Z</time></trkpt><trkpt lat="43.0823967" lon="2.6423417"><ele>155.0</ele><time>2026-04-26T13:40:28.728Z</time></trkpt><trkpt lat="43.082255" lon="2.64232"><ele>155.0</ele><time>2026-04-26T13:40:29.727Z</time></trkpt><trkpt lat="43.0821233" lon="2.6422783"><ele>155.0</ele><time>2026-04-26T13:40:30.731Z</time></trkpt><trkpt lat="43.0819933" lon="2.6422083"><ele>155.0</ele><time>2026-04-26T13:40:31.727Z</time></trkpt><trkpt lat="43.08187" lon="2.6421133"><ele>155.0</ele><time>2026-04-26T13:40:32.728Z</time></trkpt><trkpt lat="43.08175" lon="2.6420267"><ele>155.0</ele><time>2026-04-26T13:40:33.729Z</time></trkpt><trkpt lat="43.0816217" lon="2.6419583"><ele>155.0</ele><time>2026-04-26T13:40:34.732Z</time></trkpt><trkpt lat="43.0814883" lon="2.6419083"><ele>154.0</ele><time>2026-04-26T13:40:35.729Z</time></trkpt><trkpt lat="43.0813567" lon="2.6418767"><ele>153.0</ele><time>2026-04-26T13:40:36.728Z</time></trkpt><trkpt lat="43.0812367" lon="2.6418483"><ele>152.0</ele><time>2026-04-26T13:40:37.727Z</time></trkpt><trkpt lat="43.0811267" lon="2.6418133"><ele>151.0</ele><time>2026-04-26T13:40:38.728Z</time></trkpt><trkpt lat="43.0810233" lon="2.6417817"><ele>151.0</ele><time>2026-04-26T13:40:39.727Z</time></trkpt><trkpt lat="43.0809183" lon="2.6417717"><ele>151.0</ele><time>2026-04-26T13:40:40.728Z</time></trkpt><trkpt lat="43.0808033" lon="2.641795"><ele>151.0</ele><time>2026-04-26T13:40:41.728Z</time></trkpt><trkpt lat="43.08068" lon="2.6418383"><ele>151.0</ele><time>2026-04-26T13:40:42.731Z</time></trkpt><trkpt lat="43.0805583" lon="2.64188"><ele>150.6</ele><time>2026-04-26T13:40:43.727Z</time></trkpt><trkpt lat="43.0804467" lon="2.6419217"><ele>150.2</ele><time>2026-04-26T13:40:44.729Z</time></trkpt><trkpt lat="43.08035" lon="2.6419767"><ele>149.8</ele><time>2026-04-26T13:40:45.727Z</time></trkpt><trkpt lat="43.0802717" lon="2.64206"><ele>149.4</ele><time>2026-04-26T13:40:46.728Z</time></trkpt><trkpt lat="43.0802033" lon="2.6421733"><ele>149.0</ele><time>2026-04-26T13:40:47.73Z</time></trkpt><trkpt lat="43.08014" lon="2.6422867"><ele>149.0</ele><time>2026-04-26T13:40:48.73Z</time></trkpt><trkpt lat="43.0800667" lon="2.6423983"><ele>149.0</ele><time>2026-04-26T13:40:49.729Z</time></trkpt><trkpt lat="43.07997" lon="2.6425"><ele>149.0</ele><time>2026-04-26T13:40:50.731Z</time></trkpt><trkpt lat="43.0798683" lon="2.6425917"><ele>149.0</ele><time>2026-04-26T13:40:51.729Z</time></trkpt><trkpt lat="43.0797717" lon="2.6426867"><ele>148.75</ele><time>2026-04-26T13:40:52.73Z</time></trkpt><trkpt lat="43.0796767" lon="2.642785"><ele>148.5</ele><time>2026-04-26T13:40:53.729Z</time></trkpt><trkpt lat="43.079585" lon="2.6428933"><ele>148.25</ele><time>2026-04-26T13:40:54.731Z</time></trkpt><trkpt lat="43.079505" lon="2.643005"><ele>148.0</ele><time>2026-04-26T13:40:55.73Z</time></trkpt><trkpt lat="43.0794433" lon="2.6431217"><ele>148.0</ele><time>2026-04-26T13:40:56.73Z</time></trkpt><trkpt lat="43.0793867" lon="2.6432433"><ele>148.0</ele><time>2026-04-26T13:40:57.73Z</time></trkpt><trkpt lat="43.0793333" lon="2.64335"><ele>148.0</ele><time>2026-04-26T13:40:58.73Z</time></trkpt><trkpt lat="43.0792783" lon="2.6434417"><ele>148.0</ele><time>2026-04-26T13:40:59.727Z</time></trkpt><trkpt lat="43.0792117" lon="2.6435133"><ele>148.0</ele><time>2026-04-26T13:41:00.728Z</time></trkpt><trkpt lat="43.07913" lon="2.6435567"><ele>148.0</ele><time>2026-04-26T13:41:01.729Z</time></trkpt><trkpt lat="43.07905" lon="2.6435833"><ele>148.0</ele><time>2026-04-26T13:41:02.728Z</time></trkpt><trkpt lat="43.0789833" lon="2.6436083"><ele>148.0</ele><time>2026-04-26T13:41:03.729Z</time></trkpt><trkpt lat="43.0788883" lon="2.6436433"><ele>148.0</ele><time>2026-04-26T13:41:05.729Z</time></trkpt><trkpt lat="43.0787967" lon="2.64368"><ele>148.0</ele><time>2026-04-26T13:41:07.732Z</time></trkpt><trkpt lat="43.0787333" lon="2.6436983"><ele>148.0</ele><time>2026-04-26T13:41:08.73Z</time></trkpt><trkpt lat="43.0786617" lon="2.6437333"><ele>148.0</ele><time>2026-04-26T13:41:09.728Z</time></trkpt><trkpt lat="43.0785783" lon="2.6437817"><ele>148.0</ele><time>2026-04-26T13:41:10.728Z</time></trkpt><trkpt lat="43.0784867" lon="2.6438317"><ele>148.0</ele><time>2026-04-26T13:41:11.727Z</time></trkpt><trkpt lat="43.0783917" lon="2.6438767"><ele>148.0</ele><time>2026-04-26T13:41:12.728Z</time></trkpt><trkpt lat="43.0782917" lon="2.643925"><ele>148.0</ele><time>2026-04-26T13:41:13.73Z</time></trkpt><trkpt lat="43.0781867" lon="2.64398"><ele>148.8</ele><time>2026-04-26T13:41:14.731Z</time></trkpt><trkpt lat="43.0780817" lon="2.6440333"><ele>149.60000000000002</ele><time>2026-04-26T13:41:15.728Z</time></trkpt><trkpt lat="43.077985" lon="2.6440783"><ele>150.39999999999998</ele><time>2026-04-26T13:41:16.731Z</time></trkpt><trkpt lat="43.0778983" lon="2.6441183"><ele>151.2</ele><time>2026-04-26T13:41:17.73Z</time></trkpt><trkpt lat="43.0778283" lon="2.6441583"><ele>152.0</ele><time>2026-04-26T13:41:18.729Z</time></trkpt><trkpt lat="43.0777383" lon="2.6442117"><ele>152.0</ele><time>2026-04-26T13:41:20.732Z</time></trkpt><trkpt lat="43.0776617" lon="2.6441617"><ele>152.0</ele><time>2026-04-26T13:41:22.733Z</time></trkpt><trkpt lat="43.077595" lon="2.6440283"><ele>152.0</ele><time>2026-04-26T13:41:24.728Z</time></trkpt><trkpt lat="43.0775433" lon="2.6439"><ele>152.0</ele><time>2026-04-26T13:41:25.728Z</time></trkpt><trkpt lat="43.0774817" lon="2.6437667"><ele>152.0</ele><time>2026-04-26T13:41:26.729Z</time></trkpt><trkpt lat="43.077415" lon="2.643635"><ele>152.75</ele><time>2026-04-26T13:41:27.728Z</time></trkpt><trkpt lat="43.077345" lon="2.64349"><ele>153.5</ele><time>2026-04-26T13:41:28.728Z</time></trkpt><trkpt lat="43.0772683" lon="2.6433317"><ele>154.25</ele><time>2026-04-26T13:41:29.729Z</time></trkpt><trkpt lat="43.07719" lon="2.6431667"><ele>155.0</ele><time>2026-04-26T13:41:30.728Z</time></trkpt><trkpt lat="43.077105" lon="2.6429983"><ele>155.0</ele><time>2026-04-26T13:41:31.73Z</time></trkpt><trkpt lat="43.0770117" lon="2.6428217"><ele>155.0</ele><time>2026-04-26T13:41:32.731Z</time></trkpt><trkpt lat="43.0769133" lon="2.6426267"><ele>155.0</ele><time>2026-04-26T13:41:33.728Z</time></trkpt><trkpt lat="43.076815" lon="2.64243"><ele>155.33333333333331</ele><time>2026-04-26T13:41:34.73Z</time></trkpt><trkpt lat="43.0767217" lon="2.64223"><ele>155.66666666666666</ele><time>2026-04-26T13:41:35.734Z</time></trkpt><trkpt lat="43.07662" lon="2.6420267"><ele>156.0</ele><time>2026-04-26T13:41:36.729Z</time></trkpt><trkpt lat="43.0765283" lon="2.6418117"><ele>156.0</ele><time>2026-04-26T13:41:37.728Z</time></trkpt><trkpt lat="43.0764483" lon="2.6415883"><ele>156.0</ele><time>2026-04-26T13:41:38.731Z</time></trkpt><trkpt lat="43.07638" lon="2.6413567"><ele>156.0</ele><time>2026-04-26T13:41:39.729Z</time></trkpt><trkpt lat="43.0763117" lon="2.6411183"><ele>156.33333333333334</ele><time>2026-04-26T13:41:40.729Z</time></trkpt><trkpt lat="43.0762467" lon="2.64088"><ele>156.66666666666669</ele><time>2026-04-26T13:41:41.729Z</time></trkpt><trkpt lat="43.0761833" lon="2.64064"><ele>157.0</ele><time>2026-04-26T13:41:42.73Z</time></trkpt><trkpt lat="43.0761233" lon="2.6403967"><ele>157.0</ele><time>2026-04-26T13:41:43.729Z</time></trkpt><trkpt lat="43.0760633" lon="2.640155"><ele>157.0</ele><time>2026-04-26T13:41:44.728Z</time></trkpt><trkpt lat="43.0760017" lon="2.6399067"><ele>157.0</ele><time>2026-04-26T13:41:45.729Z</time></trkpt><trkpt lat="43.0759433" lon="2.6396567"><ele>157.0</ele><time>2026-04-26T13:41:46.728Z</time></trkpt><trkpt lat="43.075885" lon="2.6394067"><ele>157.0</ele><time>2026-04-26T13:41:47.729Z</time></trkpt><trkpt lat="43.075825" lon="2.6391617"><ele>157.0</ele><time>2026-04-26T13:41:48.73Z</time></trkpt><trkpt lat="43.0757633" lon="2.6389167"><ele>158.0</ele><time>2026-04-26T13:41:49.728Z</time></trkpt><trkpt lat="43.0757033" lon="2.638675"><ele>159.0</ele><time>2026-04-26T13:41:50.729Z</time></trkpt><trkpt lat="43.0756417" lon="2.6384317"><ele>160.0</ele><time>2026-04-26T13:41:51.729Z</time></trkpt><trkpt lat="43.0755817" lon="2.63819"><ele>160.0</ele><time>2026-04-26T13:41:52.732Z</time></trkpt><trkpt lat="43.0755217" lon="2.6379467"><ele>160.0</ele><time>2026-04-26T13:41:53.728Z</time></trkpt><trkpt lat="43.075465" lon="2.637705"><ele>160.0</ele><time>2026-04-26T13:41:54.734Z</time></trkpt><trkpt lat="43.07541" lon="2.637465"><ele>159.66666666666669</ele><time>2026-04-26T13:41:55.727Z</time></trkpt><trkpt lat="43.075355" lon="2.6372267"><ele>159.33333333333334</ele><time>2026-04-26T13:41:56.73Z</time></trkpt><trkpt lat="43.0752967" lon="2.6369867"><ele>159.0</ele><time>2026-04-26T13:41:57.729Z</time></trkpt><trkpt lat="43.0752367" lon="2.636745"><ele>159.0</ele><time>2026-04-26T13:41:58.729Z</time></trkpt><trkpt lat="43.0751767" lon="2.6365017"><ele>159.0</ele><time>2026-04-26T13:41:59.729Z</time></trkpt><trkpt lat="43.0751167" lon="2.6362567"><ele>159.0</ele><time>2026-04-26T13:42:00.728Z</time></trkpt><trkpt lat="43.075055" lon="2.63601"><ele>159.33333333333334</ele><time>2026-04-26T13:42:01.728Z</time></trkpt><trkpt lat="43.07499" lon="2.6357633"><ele>159.66666666666669</ele><time>2026-04-26T13:42:02.728Z</time></trkpt><trkpt lat="43.074925" lon="2.6355167"><ele>160.0</ele><time>2026-04-26T13:42:03.728Z</time></trkpt><trkpt lat="43.0748617" lon="2.63527"><ele>161.0</ele><time>2026-04-26T13:42:04.728Z</time></trkpt><trkpt lat="43.0748" lon="2.6350233"><ele>162.0</ele><time>2026-04-26T13:42:05.727Z</time></trkpt><trkpt lat="43.0747367" lon="2.634775"><ele>163.0</ele><time>2026-04-26T13:42:06.731Z</time></trkpt><trkpt lat="43.074675" lon="2.6345283"><ele>164.0</ele><time>2026-04-26T13:42:07.727Z</time></trkpt><trkpt lat="43.0746133" lon="2.6342783"><ele>165.0</ele><time>2026-04-26T13:42:08.73Z</time></trkpt><trkpt lat="43.0745533" lon="2.63403"><ele>166.0</ele><time>2026-04-26T13:42:09.728Z</time></trkpt><trkpt lat="43.07449" lon="2.6337833"><ele>166.66666666666669</ele><time>2026-04-26T13:42:10.731Z</time></trkpt><trkpt lat="43.0744283" lon="2.633535"><ele>167.33333333333334</ele><time>2026-04-26T13:42:11.728Z</time></trkpt><trkpt lat="43.0743667" lon="2.6332883"><ele>168.0</ele><time>2026-04-26T13:42:12.733Z</time></trkpt><trkpt lat="43.074305" lon="2.63304"><ele>167.0</ele><time>2026-04-26T13:42:13.728Z</time></trkpt><trkpt lat="43.0742467" lon="2.63279"><ele>166.0</ele><time>2026-04-26T13:42:14.732Z</time></trkpt><trkpt lat="43.0741867" lon="2.63254"><ele>165.0</ele><time>2026-04-26T13:42:15.73Z</time></trkpt><trkpt lat="43.074125" lon="2.6322883"><ele>167.33333333333334</ele><time>2026-04-26T13:42:16.727Z</time></trkpt><trkpt lat="43.0740633" lon="2.6320367"><ele>169.66666666666669</ele><time>2026-04-26T13:42:17.729Z</time></trkpt><trkpt lat="43.0740017" lon="2.631785"><ele>172.0</ele><time>2026-04-26T13:42:18.729Z</time></trkpt><trkpt lat="43.0739383" lon="2.6315367"><ele>172.33333333333334</ele><time>2026-04-26T13:42:19.728Z</time></trkpt><trkpt lat="43.0738733" lon="2.6312883"><ele>172.66666666666666</ele><time>2026-04-26T13:42:20.729Z</time></trkpt><trkpt lat="43.0738117" lon="2.6310417"><ele>173.0</ele><time>2026-04-26T13:42:21.727Z</time></trkpt><trkpt lat="43.073755" lon="2.630795"><ele>174.66666666666666</ele><time>2026-04-26T13:42:22.731Z</time></trkpt><trkpt lat="43.0736967" lon="2.63055"><ele>176.33333333333334</ele><time>2026-04-26T13:42:23.729Z</time></trkpt><trkpt lat="43.073635" lon="2.6303067"><ele>178.0</ele><time>2026-04-26T13:42:24.728Z</time></trkpt><trkpt lat="43.073575" lon="2.63006"><ele>179.0</ele><time>2026-04-26T13:42:25.731Z</time></trkpt><trkpt lat="43.0735167" lon="2.629815"><ele>180.0</ele><time>2026-04-26T13:42:26.732Z</time></trkpt><trkpt lat="43.07346" lon="2.6295717"><ele>181.0</ele><time>2026-04-26T13:42:27.727Z</time></trkpt><trkpt lat="43.07341" lon="2.6293233"><ele>181.0</ele><time>2026-04-26T13:42:28.73Z</time></trkpt><trkpt lat="43.07337" lon="2.62907"><ele>181.0</ele><time>2026-04-26T13:42:29.727Z</time></trkpt><trkpt lat="43.0733417" lon="2.6288167"><ele>181.0</ele><time>2026-04-26T13:42:30.729Z</time></trkpt><trkpt lat="43.0733267" lon="2.6285583"><ele>179.33333333333334</ele><time>2026-04-26T13:42:31.728Z</time></trkpt><trkpt lat="43.0733217" lon="2.6282983"><ele>177.66666666666666</ele><time>2026-04-26T13:42:32.729Z</time></trkpt><trkpt lat="43.0733233" lon="2.62804"><ele>176.0</ele><time>2026-04-26T13:42:33.73Z</time></trkpt><trkpt lat="43.07333" lon="2.627785"><ele>176.0</ele><time>2026-04-26T13:42:34.733Z</time></trkpt><trkpt lat="43.0733367" lon="2.6275283"><ele>176.0</ele><time>2026-04-26T13:42:35.728Z</time></trkpt><trkpt lat="43.07334" lon="2.6272717"><ele>176.0</ele><time>2026-04-26T13:42:36.73Z</time></trkpt><trkpt lat="43.0733417" lon="2.6270133"><ele>177.0</ele><time>2026-04-26T13:42:37.729Z</time></trkpt><trkpt lat="43.073345" lon="2.626755"><ele>178.0</ele><time>2026-04-26T13:42:38.728Z</time></trkpt><trkpt lat="43.07335" lon="2.6265017"><ele>179.0</ele><time>2026-04-26T13:42:39.731Z</time></trkpt><trkpt lat="43.07335" lon="2.6262567"><ele>180.0</ele><time>2026-04-26T13:42:40.728Z</time></trkpt><trkpt lat="43.0733333" lon="2.6260217"><ele>181.0</ele><time>2026-04-26T13:42:41.727Z</time></trkpt><trkpt lat="43.0733" lon="2.6257933"><ele>182.0</ele><time>2026-04-26T13:42:42.73Z</time></trkpt><trkpt lat="43.0732433" lon="2.6255833"><ele>182.66666666666666</ele><time>2026-04-26T13:42:43.728Z</time></trkpt><trkpt lat="43.0731667" lon="2.625385"><ele>183.33333333333334</ele><time>2026-04-26T13:42:44.733Z</time></trkpt><trkpt lat="43.0730683" lon="2.6251983"><ele>184.0</ele><time>2026-04-26T13:42:45.732Z</time></trkpt><trkpt lat="43.07296" lon="2.6250167"><ele>184.0</ele><time>2026-04-26T13:42:46.728Z</time></trkpt><trkpt lat="43.0728417" lon="2.62484"><ele>184.0</ele><time>2026-04-26T13:42:47.728Z</time></trkpt><trkpt lat="43.0727217" lon="2.6246633"><ele>184.0</ele><time>2026-04-26T13:42:48.729Z</time></trkpt><trkpt lat="43.0726083" lon="2.6244767"><ele>183.33333333333334</ele><time>2026-04-26T13:42:49.729Z</time></trkpt><trkpt lat="43.0725083" lon="2.624275"><ele>182.66666666666666</ele><time>2026-04-26T13:42:50.729Z</time></trkpt><trkpt lat="43.072425" lon="2.6240617"><ele>182.0</ele><time>2026-04-26T13:42:51.729Z</time></trkpt><trkpt lat="43.0723617" lon="2.6238317"><ele>186.66666666666666</ele><time>2026-04-26T13:42:52.735Z</time></trkpt><trkpt lat="43.0723367" lon="2.6235933"><ele>191.33333333333331</ele><time>2026-04-26T13:42:53.729Z</time></trkpt><trkpt lat="43.072365" lon="2.6233533"><ele>196.0</ele><time>2026-04-26T13:42:54.732Z</time></trkpt><trkpt lat="43.07241" lon="2.6231183"><ele>190.33333333333331</ele><time>2026-04-26T13:42:55.729Z</time></trkpt><trkpt lat="43.0724567" lon="2.62289"><ele>184.66666666666666</ele><time>2026-04-26T13:42:56.729Z</time></trkpt><trkpt lat="43.0724767" lon="2.6226533"><ele>179.0</ele><time>2026-04-26T13:42:57.727Z</time></trkpt><trkpt lat="43.0724633" lon="2.6224117"><ele>180.33333333333331</ele><time>2026-04-26T13:42:58.729Z</time></trkpt><trkpt lat="43.072415" lon="2.6221717"><ele>181.66666666666666</ele><time>2026-04-26T13:42:59.73Z</time></trkpt><trkpt lat="43.072345" lon="2.6219367"><ele>183.0</ele><time>2026-04-26T13:43:00.729Z</time></trkpt><trkpt lat="43.07226" lon="2.6217083"><ele>183.0</ele><time>2026-04-26T13:43:01.728Z</time></trkpt><trkpt lat="43.072165" lon="2.6214817"><ele>183.0</ele><time>2026-04-26T13:43:02.731Z</time></trkpt><trkpt lat="43.07206" lon="2.62126"><ele>183.0</ele><time>2026-04-26T13:43:03.728Z</time></trkpt><trkpt lat="43.0719483" lon="2.6210417"><ele>180.66666666666666</ele><time>2026-04-26T13:43:04.732Z</time></trkpt><trkpt lat="43.0718333" lon="2.6208283"><ele>178.33333333333331</ele><time>2026-04-26T13:43:05.728Z</time></trkpt><trkpt lat="43.0717117" lon="2.6206233"><ele>176.0</ele><time>2026-04-26T13:43:06.729Z</time></trkpt><trkpt lat="43.071585" lon="2.6204217"><ele>179.33333333333331</ele><time>2026-04-26T13:43:07.73Z</time></trkpt><trkpt lat="43.0714617" lon="2.6202217"><ele>182.66666666666666</ele><time>2026-04-26T13:43:08.728Z</time></trkpt><trkpt lat="43.0713433" lon="2.62002"><ele>186.0</ele><time>2026-04-26T13:43:09.729Z</time></trkpt><trkpt lat="43.0712417" lon="2.6198083"><ele>186.0</ele><time>2026-04-26T13:43:10.729Z</time></trkpt><trkpt lat="43.0711567" lon="2.6195817"><ele>186.0</ele><time>2026-04-26T13:43:11.728Z</time></trkpt><trkpt lat="43.0710967" lon="2.6193417"><ele>186.0</ele><time>2026-04-26T13:43:12.728Z</time></trkpt><trkpt lat="43.0710583" lon="2.61909"><ele>183.0</ele><time>2026-04-26T13:43:13.729Z</time></trkpt><trkpt lat="43.0710517" lon="2.618835"><ele>180.0</ele><time>2026-04-26T13:43:14.736Z</time></trkpt><trkpt lat="43.0710733" lon="2.6185783"><ele>177.0</ele><time>2026-04-26T13:43:15.729Z</time></trkpt><trkpt lat="43.0711083" lon="2.6183267"><ele>175.66666666666666</ele><time>2026-04-26T13:43:16.729Z</time></trkpt><trkpt lat="43.0711467" lon="2.618075"><ele>174.33333333333331</ele><time>2026-04-26T13:43:17.728Z</time></trkpt><trkpt lat="43.0711683" lon="2.6178233"><ele>173.0</ele><time>2026-04-26T13:43:18.729Z</time></trkpt><trkpt lat="43.07118" lon="2.61757"><ele>172.0</ele><time>2026-04-26T13:43:19.729Z</time></trkpt><trkpt lat="43.0712067" lon="2.61732"><ele>171.0</ele><time>2026-04-26T13:43:20.728Z</time></trkpt><trkpt lat="43.0712533" lon="2.617085"><ele>170.0</ele><time>2026-04-26T13:43:21.729Z</time></trkpt><trkpt lat="43.0713183" lon="2.6168617"><ele>169.66666666666666</ele><time>2026-04-26T13:43:22.734Z</time></trkpt><trkpt lat="43.0713833" lon="2.6166433"><ele>169.33333333333334</ele><time>2026-04-26T13:43:23.728Z</time></trkpt><trkpt lat="43.07143" lon="2.6164133"><ele>169.0</ele><time>2026-04-26T13:43:24.732Z</time></trkpt><trkpt lat="43.071445" lon="2.6161683"><ele>169.66666666666669</ele><time>2026-04-26T13:43:25.728Z</time></trkpt><trkpt lat="43.0714367" lon="2.6159183"><ele>170.33333333333334</ele><time>2026-04-26T13:43:26.728Z</time></trkpt><trkpt lat="43.0714033" lon="2.6156617"><ele>171.0</ele><time>2026-04-26T13:43:27.728Z</time></trkpt><trkpt lat="43.0713567" lon="2.6154017"><ele>171.0</ele><time>2026-04-26T13:43:28.728Z</time></trkpt><trkpt lat="43.0713133" lon="2.615145"><ele>171.0</ele><time>2026-04-26T13:43:29.727Z</time></trkpt><trkpt lat="43.071295" lon="2.6148817"><ele>171.0</ele><time>2026-04-26T13:43:30.735Z</time></trkpt><trkpt lat="43.0712717" lon="2.6146233"><ele>169.66666666666666</ele><time>2026-04-26T13:43:31.728Z</time></trkpt><trkpt lat="43.0712767" lon="2.6143667"><ele>168.33333333333331</ele><time>2026-04-26T13:43:32.728Z</time></trkpt><trkpt lat="43.0712917" lon="2.614105"><ele>167.0</ele><time>2026-04-26T13:43:33.728Z</time></trkpt><trkpt lat="43.071315" lon="2.6138467"><ele>165.33333333333331</ele><time>2026-04-26T13:43:34.728Z</time></trkpt><trkpt lat="43.0713483" lon="2.6135833"><ele>163.66666666666666</ele><time>2026-04-26T13:43:35.73Z</time></trkpt><trkpt lat="43.071385" lon="2.613325"><ele>162.0</ele><time>2026-04-26T13:43:36.728Z</time></trkpt><trkpt lat="43.0714217" lon="2.6130633"><ele>161.0</ele><time>2026-04-26T13:43:37.728Z</time></trkpt><trkpt lat="43.07146" lon="2.612805"><ele>160.0</ele><time>2026-04-26T13:43:38.728Z</time></trkpt><trkpt lat="43.0714933" lon="2.6125533"><ele>159.0</ele><time>2026-04-26T13:43:39.729Z</time></trkpt><trkpt lat="43.0715167" lon="2.6123133"><ele>159.0</ele><time>2026-04-26T13:43:40.729Z</time></trkpt><trkpt lat="43.0715367" lon="2.61208"><ele>159.0</ele><time>2026-04-26T13:43:41.729Z</time></trkpt><trkpt lat="43.07154" lon="2.611855"><ele>159.0</ele><time>2026-04-26T13:43:42.729Z</time></trkpt><trkpt lat="43.0715267" lon="2.611645"><ele>158.5</ele><time>2026-04-26T13:43:43.728Z</time></trkpt><trkpt lat="43.0715033" lon="2.6114583"><ele>158.0</ele><time>2026-04-26T13:43:44.729Z</time></trkpt><trkpt lat="43.0714733" lon="2.61129"><ele>157.5</ele><time>2026-04-26T13:43:45.727Z</time></trkpt><trkpt lat="43.0714433" lon="2.611145"><ele>157.0</ele><time>2026-04-26T13:43:46.731Z</time></trkpt><trkpt lat="43.0714233" lon="2.611025"><ele>156.2</ele><time>2026-04-26T13:43:47.728Z</time></trkpt><trkpt lat="43.0714133" lon="2.6109233"><ele>155.39999999999998</ele><time>2026-04-26T13:43:48.729Z</time></trkpt><trkpt lat="43.0714067" lon="2.6108317"><ele>154.60000000000002</ele><time>2026-04-26T13:43:49.728Z</time></trkpt><trkpt lat="43.0713783" lon="2.6106933"><ele>153.8</ele><time>2026-04-26T13:43:51.728Z</time></trkpt><trkpt lat="43.0712667" lon="2.6106"><ele>153.0</ele><time>2026-04-26T13:43:53.729Z</time></trkpt><trkpt lat="43.071175" lon="2.6105767"><ele>153.0</ele><time>2026-04-26T13:43:54.728Z</time></trkpt><trkpt lat="43.07108" lon="2.610545"><ele>153.0</ele><time>2026-04-26T13:43:55.728Z</time></trkpt><trkpt lat="43.07099" lon="2.6104667"><ele>153.0</ele><time>2026-04-26T13:43:56.729Z</time></trkpt><trkpt lat="43.0709017" lon="2.6103767"><ele>153.0</ele><time>2026-04-26T13:43:57.728Z</time></trkpt><trkpt lat="43.0708083" lon="2.6102883"><ele>153.0</ele><time>2026-04-26T13:43:58.728Z</time></trkpt><trkpt lat="43.0707167" lon="2.610205"><ele>152.8</ele><time>2026-04-26T13:43:59.728Z</time></trkpt><trkpt lat="43.0706367" lon="2.610115"><ele>152.60000000000002</ele><time>2026-04-26T13:44:00.728Z</time></trkpt><trkpt lat="43.0705833" lon="2.6100033"><ele>152.39999999999998</ele><time>2026-04-26T13:44:01.728Z</time></trkpt><trkpt lat="43.0705667" lon="2.6098633"><ele>152.2</ele><time>2026-04-26T13:44:02.731Z</time></trkpt><trkpt lat="43.0705817" lon="2.6097033"><ele>152.0</ele><time>2026-04-26T13:44:03.73Z</time></trkpt><trkpt lat="43.07061" lon="2.60953"><ele>149.5</ele><time>2026-04-26T13:44:04.729Z</time></trkpt><trkpt lat="43.070635" lon="2.6093467"><ele>147.0</ele><time>2026-04-26T13:44:05.729Z</time></trkpt><trkpt lat="43.07066" lon="2.6091483"><ele>144.5</ele><time>2026-04-26T13:44:06.729Z</time></trkpt><trkpt lat="43.070685" lon="2.60894"><ele>142.0</ele><time>2026-04-26T13:44:07.728Z</time></trkpt><trkpt lat="43.070715" lon="2.608725"><ele>141.0</ele><time>2026-04-26T13:44:08.729Z</time></trkpt><trkpt lat="43.070745" lon="2.608505"><ele>140.0</ele><time>2026-04-26T13:44:09.728Z</time></trkpt><trkpt lat="43.07077" lon="2.6082817"><ele>139.0</ele><time>2026-04-26T13:44:10.73Z</time></trkpt><trkpt lat="43.0708" lon="2.6080517"><ele>138.0</ele><time>2026-04-26T13:44:11.729Z</time></trkpt><trkpt lat="43.0708317" lon="2.6078133"><ele>137.0</ele><time>2026-04-26T13:44:12.728Z</time></trkpt><trkpt lat="43.0708633" lon="2.60757"><ele>136.0</ele><time>2026-04-26T13:44:13.728Z</time></trkpt><trkpt lat="43.0708967" lon="2.6073233"><ele>136.0</ele><time>2026-04-26T13:44:14.729Z</time></trkpt><trkpt lat="43.0709283" lon="2.6070783"><ele>136.0</ele><time>2026-04-26T13:44:15.729Z</time></trkpt><trkpt lat="43.0709667" lon="2.606825"><ele>136.0</ele><time>2026-04-26T13:44:16.737Z</time></trkpt><trkpt lat="43.071" lon="2.6065783"><ele>135.66666666666669</ele><time>2026-04-26T13:44:17.729Z</time></trkpt><trkpt lat="43.07103" lon="2.60633"><ele>135.33333333333334</ele><time>2026-04-26T13:44:18.732Z</time></trkpt><trkpt lat="43.0710633" lon="2.6060783"><ele>135.0</ele><time>2026-04-26T13:44:19.73Z</time></trkpt><trkpt lat="43.0710967" lon="2.605825"><ele>136.66666666666666</ele><time>2026-04-26T13:44:20.729Z</time></trkpt><trkpt lat="43.07113" lon="2.6055717"><ele>138.33333333333331</ele><time>2026-04-26T13:44:21.73Z</time></trkpt><trkpt lat="43.07116" lon="2.6053183"><ele>140.0</ele><time>2026-04-26T13:44:22.731Z</time></trkpt><trkpt lat="43.07119" lon="2.6050633"><ele>142.66666666666666</ele><time>2026-04-26T13:44:23.73Z</time></trkpt><trkpt lat="43.07122" lon="2.6048067"><ele>145.33333333333334</ele><time>2026-04-26T13:44:24.729Z</time></trkpt><trkpt lat="43.0712383" lon="2.6045483"><ele>148.0</ele><time>2026-04-26T13:44:25.73Z</time></trkpt><trkpt lat="43.0712433" lon="2.6042917"><ele>150.33333333333334</ele><time>2026-04-26T13:44:26.728Z</time></trkpt><trkpt lat="43.0712433" lon="2.6040383"><ele>152.66666666666666</ele><time>2026-04-26T13:44:27.728Z</time></trkpt><trkpt lat="43.0712383" lon="2.603795"><ele>155.0</ele><time>2026-04-26T13:44:28.729Z</time></trkpt><trkpt lat="43.07123" lon="2.6035533"><ele>157.33333333333331</ele><time>2026-04-26T13:44:29.727Z</time></trkpt><trkpt lat="43.0712333" lon="2.6033133"><ele>159.66666666666666</ele><time>2026-04-26T13:44:30.731Z</time></trkpt><trkpt lat="43.07126" lon="2.6030767"><ele>162.0</ele><time>2026-04-26T13:44:31.728Z</time></trkpt><trkpt lat="43.0713133" lon="2.6028467"><ele>165.33333333333334</ele><time>2026-04-26T13:44:32.729Z</time></trkpt><trkpt lat="43.071385" lon="2.602625"><ele>168.66666666666669</ele><time>2026-04-26T13:44:33.728Z</time></trkpt><trkpt lat="43.0714617" lon="2.6024033"><ele>172.0</ele><time>2026-04-26T13:44:34.732Z</time></trkpt><trkpt lat="43.0715333" lon="2.6021767"><ele>174.66666666666669</ele><time>2026-04-26T13:44:35.728Z</time></trkpt><trkpt lat="43.0715933" lon="2.601945"><ele>177.33333333333334</ele><time>2026-04-26T13:44:36.729Z</time></trkpt><trkpt lat="43.0716433" lon="2.6017167"><ele>180.0</ele><time>2026-04-26T13:44:37.729Z</time></trkpt><trkpt lat="43.0716817" lon="2.6014917"><ele>177.0</ele><time>2026-04-26T13:44:38.729Z</time></trkpt><trkpt lat="43.07172" lon="2.6012667"><ele>174.0</ele><time>2026-04-26T13:44:39.729Z</time></trkpt><trkpt lat="43.0717717" lon="2.6010467"><ele>171.0</ele><time>2026-04-26T13:44:40.73Z</time></trkpt><trkpt lat="43.07185" lon="2.60084"><ele>171.0</ele><time>2026-04-26T13:44:41.73Z</time></trkpt><trkpt lat="43.0719483" lon="2.6006517"><ele>171.0</ele><time>2026-04-26T13:44:42.73Z</time></trkpt><trkpt lat="43.0720517" lon="2.6004833"><ele>171.0</ele><time>2026-04-26T13:44:43.727Z</time></trkpt><trkpt lat="43.0721533" lon="2.6003333"><ele>170.5</ele><time>2026-04-26T13:44:44.729Z</time></trkpt><trkpt lat="43.0722533" lon="2.6002017"><ele>170.0</ele><time>2026-04-26T13:44:45.728Z</time></trkpt><trkpt lat="43.072345" lon="2.6000867"><ele>169.5</ele><time>2026-04-26T13:44:46.728Z</time></trkpt><trkpt lat="43.0724083" lon="2.5999683"><ele>169.0</ele><time>2026-04-26T13:44:47.728Z</time></trkpt><trkpt lat="43.07244" lon="2.5998517"><ele>169.0</ele><time>2026-04-26T13:44:48.727Z</time></trkpt><trkpt lat="43.0724567" lon="2.5997467"><ele>169.0</ele><time>2026-04-26T13:44:49.729Z</time></trkpt><trkpt lat="43.0725017" lon="2.599615"><ele>169.0</ele><time>2026-04-26T13:44:51.727Z</time></trkpt><trkpt lat="43.0726033" lon="2.599695"><ele>169.0</ele><time>2026-04-26T13:44:53.728Z</time></trkpt><trkpt lat="43.072645" lon="2.5997933"><ele>169.0</ele><time>2026-04-26T13:44:54.728Z</time></trkpt><trkpt lat="43.07267" lon="2.5999283"><ele>169.0</ele><time>2026-04-26T13:44:55.73Z</time></trkpt><trkpt lat="43.0726567" lon="2.6000867"><ele>169.0</ele><time>2026-04-26T13:44:56.729Z</time></trkpt><trkpt lat="43.072615" lon="2.6002383"><ele>169.0</ele><time>2026-04-26T13:44:57.729Z</time></trkpt><trkpt lat="43.0725417" lon="2.6003933"><ele>169.0</ele><time>2026-04-26T13:44:58.73Z</time></trkpt><trkpt lat="43.0724633" lon="2.60053"><ele>169.39999999999998</ele><time>2026-04-26T13:44:59.728Z</time></trkpt><trkpt lat="43.0723783" lon="2.6006483"><ele>169.8</ele><time>2026-04-26T13:45:00.735Z</time></trkpt><trkpt lat="43.0722967" lon="2.6007583"><ele>170.2</ele><time>2026-04-26T13:45:01.727Z</time></trkpt><trkpt lat="43.07222" lon="2.6008517"><ele>170.60000000000002</ele><time>2026-04-26T13:45:02.728Z</time></trkpt><trkpt lat="43.0721633" lon="2.60095"><ele>171.0</ele><time>2026-04-26T13:45:03.728Z</time></trkpt><trkpt lat="43.0721267" lon="2.6010483"><ele>171.0</ele><time>2026-04-26T13:45:04.729Z</time></trkpt><trkpt lat="43.0721567" lon="2.60115"><ele>171.0</ele><time>2026-04-26T13:45:05.728Z</time></trkpt><trkpt lat="43.0722117" lon="2.6012383"><ele>171.0</ele><time>2026-04-26T13:45:06.727Z</time></trkpt><trkpt lat="43.072325" lon="2.601245"><ele>171.0</ele><time>2026-04-26T13:45:07.727Z</time></trkpt><trkpt lat="43.0724317" lon="2.6012033"><ele>171.0</ele><time>2026-04-26T13:45:08.737Z</time></trkpt><trkpt lat="43.0725383" lon="2.6011217"><ele>168.5</ele><time>2026-04-26T13:45:09.727Z</time></trkpt><trkpt lat="43.072645" lon="2.6010183"><ele>166.0</ele><time>2026-04-26T13:45:10.727Z</time></trkpt><trkpt lat="43.0727467" lon="2.6009017"><ele>163.5</ele><time>2026-04-26T13:45:11.728Z</time></trkpt><trkpt lat="43.0728317" lon="2.600755"><ele>161.0</ele><time>2026-04-26T13:45:12.728Z</time></trkpt><trkpt lat="43.0729" lon="2.6006067"><ele>161.0</ele><time>2026-04-26T13:45:13.73Z</time></trkpt><trkpt lat="43.0729683" lon="2.6004667"><ele>161.0</ele><time>2026-04-26T13:45:14.728Z</time></trkpt><trkpt lat="43.0730367" lon="2.60034"><ele>161.0</ele><time>2026-04-26T13:45:15.728Z</time></trkpt><trkpt lat="43.0731167" lon="2.600245"><ele>161.0</ele><time>2026-04-26T13:45:16.728Z</time></trkpt><trkpt lat="43.0731967" lon="2.60019"><ele>161.0</ele><time>2026-04-26T13:45:17.727Z</time></trkpt><trkpt lat="43.0732867" lon="2.600195"><ele>160.8</ele><time>2026-04-26T13:45:18.727Z</time></trkpt><trkpt lat="43.0733767" lon="2.6002483"><ele>160.60000000000002</ele><time>2026-04-26T13:45:19.727Z</time></trkpt><trkpt lat="43.0734633" lon="2.600305"><ele>160.4</ele><time>2026-04-26T13:45:20.731Z</time></trkpt><trkpt lat="43.07356" lon="2.6003283"><ele>160.2</ele><time>2026-04-26T13:45:21.728Z</time></trkpt><trkpt lat="43.07367" lon="2.6003017"><ele>160.0</ele><time>2026-04-26T13:45:22.727Z</time></trkpt><trkpt lat="43.0737867" lon="2.6002367"><ele>160.0</ele><time>2026-04-26T13:45:23.728Z</time></trkpt><trkpt lat="43.07391" lon="2.6001583"><ele>160.0</ele><time>2026-04-26T13:45:24.732Z</time></trkpt><trkpt lat="43.074055" lon="2.600095"><ele>160.0</ele><time>2026-04-26T13:45:25.729Z</time></trkpt><trkpt lat="43.07421" lon="2.6000633"><ele>160.0</ele><time>2026-04-26T13:45:26.735Z</time></trkpt><trkpt lat="43.0743733" lon="2.6000533"><ele>158.33333333333334</ele><time>2026-04-26T13:45:27.728Z</time></trkpt><trkpt lat="43.0745367" lon="2.6000483"><ele>156.66666666666666</ele><time>2026-04-26T13:45:28.729Z</time></trkpt><trkpt lat="43.0746917" lon="2.60003"><ele>155.0</ele><time>2026-04-26T13:45:29.727Z</time></trkpt><trkpt lat="43.0748417" lon="2.60001"><ele>154.0</ele><time>2026-04-26T13:45:30.727Z</time></trkpt><trkpt lat="43.074985" lon="2.6000167"><ele>153.0</ele><time>2026-04-26T13:45:31.728Z</time></trkpt><trkpt lat="43.0751217" lon="2.60004"><ele>152.0</ele><time>2026-04-26T13:45:32.727Z</time></trkpt><trkpt lat="43.07524" lon="2.600105"><ele>151.0</ele><time>2026-04-26T13:45:33.727Z</time></trkpt><trkpt lat="43.0753467" lon="2.6001517"><ele>151.0</ele><time>2026-04-26T13:45:34.727Z</time></trkpt><trkpt lat="43.07545" lon="2.600135"><ele>151.0</ele><time>2026-04-26T13:45:35.73Z</time></trkpt><trkpt lat="43.07557" lon="2.6000783"><ele>151.0</ele><time>2026-04-26T13:45:36.727Z</time></trkpt><trkpt lat="43.0756933" lon="2.6000283"><ele>151.0</ele><time>2026-04-26T13:45:37.727Z</time></trkpt><trkpt lat="43.0758267" lon="2.6000083"><ele>151.0</ele><time>2026-04-26T13:45:38.728Z</time></trkpt><trkpt lat="43.0759733" lon="2.600035"><ele>151.0</ele><time>2026-04-26T13:45:39.728Z</time></trkpt><trkpt lat="43.0761217" lon="2.60008"><ele>151.0</ele><time>2026-04-26T13:45:40.73Z</time></trkpt><trkpt lat="43.0762617" lon="2.6001217"><ele>151.0</ele><time>2026-04-26T13:45:41.728Z</time></trkpt><trkpt lat="43.0763967" lon="2.6001633"><ele>151.0</ele><time>2026-04-26T13:45:42.732Z</time></trkpt><trkpt lat="43.0765317" lon="2.6002233"><ele>151.0</ele><time>2026-04-26T13:45:43.728Z</time></trkpt><trkpt lat="43.0766567" lon="2.60032"><ele>151.0</ele><time>2026-04-26T13:45:44.728Z</time></trkpt><trkpt lat="43.0767617" lon="2.6004533"><ele>151.0</ele><time>2026-04-26T13:45:45.728Z</time></trkpt><trkpt lat="43.0768433" lon="2.6006117"><ele>148.75</ele><time>2026-04-26T13:45:46.728Z</time></trkpt><trkpt lat="43.0769" lon="2.6007783"><ele>146.5</ele><time>2026-04-26T13:45:47.729Z</time></trkpt><trkpt lat="43.0769333" lon="2.6009367"><ele>144.25</ele><time>2026-04-26T13:45:48.727Z</time></trkpt><trkpt lat="43.076965" lon="2.6010767"><ele>142.0</ele><time>2026-04-26T13:45:49.729Z</time></trkpt><trkpt lat="43.0770183" lon="2.6011867"><ele>141.0</ele><time>2026-04-26T13:45:50.729Z</time></trkpt><trkpt lat="43.0771" lon="2.6012533"><ele>140.0</ele><time>2026-04-26T13:45:51.727Z</time></trkpt><trkpt lat="43.0772083" lon="2.6012917"><ele>139.0</ele><time>2026-04-26T13:45:52.729Z</time></trkpt><trkpt lat="43.07733" lon="2.6013267"><ele>138.0</ele><time>2026-04-26T13:45:53.728Z</time></trkpt><trkpt lat="43.0774567" lon="2.6013883"><ele>138.0</ele><time>2026-04-26T13:45:54.729Z</time></trkpt><trkpt lat="43.0775833" lon="2.6014833"><ele>138.0</ele><time>2026-04-26T13:45:55.727Z</time></trkpt><trkpt lat="43.0776933" lon="2.6016033"><ele>138.0</ele><time>2026-04-26T13:45:56.734Z</time></trkpt><trkpt lat="43.0777833" lon="2.601745"><ele>138.0</ele><time>2026-04-26T13:45:57.728Z</time></trkpt><trkpt lat="43.077875" lon="2.6018817"><ele>138.0</ele><time>2026-04-26T13:45:58.729Z</time></trkpt><trkpt lat="43.077985" lon="2.6019917"><ele>138.0</ele><time>2026-04-26T13:45:59.732Z</time></trkpt><trkpt lat="43.0781083" lon="2.6020833"><ele>138.0</ele><time>2026-04-26T13:46:00.728Z</time></trkpt><trkpt lat="43.0782367" lon="2.6021817"><ele>138.0</ele><time>2026-04-26T13:46:01.728Z</time></trkpt><trkpt lat="43.078355" lon="2.6023017"><ele>138.0</ele><time>2026-04-26T13:46:02.731Z</time></trkpt><trkpt lat="43.0784717" lon="2.6024467"><ele>138.0</ele><time>2026-04-26T13:46:03.728Z</time></trkpt><trkpt lat="43.07859" lon="2.6026"><ele>138.0</ele><time>2026-04-26T13:46:04.729Z</time></trkpt><trkpt lat="43.0787133" lon="2.6027517"><ele>136.33333333333334</ele><time>2026-04-26T13:46:05.727Z</time></trkpt><trkpt lat="43.078835" lon="2.6029083"><ele>134.66666666666669</ele><time>2026-04-26T13:46:06.729Z</time></trkpt><trkpt lat="43.0789517" lon="2.60308"><ele>133.0</ele><time>2026-04-26T13:46:07.727Z</time></trkpt><trkpt lat="43.0790617" lon="2.6032667"><ele>132.33333333333334</ele><time>2026-04-26T13:46:08.729Z</time></trkpt><trkpt lat="43.079175" lon="2.6034533"><ele>131.66666666666666</ele><time>2026-04-26T13:46:09.729Z</time></trkpt><trkpt lat="43.079295" lon="2.603615"><ele>131.0</ele><time>2026-04-26T13:46:10.728Z</time></trkpt><trkpt lat="43.0794117" lon="2.60376"><ele>131.0</ele><time>2026-04-26T13:46:11.727Z</time></trkpt><trkpt lat="43.0795183" lon="2.6038967"><ele>131.0</ele><time>2026-04-26T13:46:12.728Z</time></trkpt><trkpt lat="43.0796133" lon="2.6040317"><ele>131.0</ele><time>2026-04-26T13:46:13.728Z</time></trkpt><trkpt lat="43.0796917" lon="2.6041767"><ele>131.0</ele><time>2026-04-26T13:46:14.728Z</time></trkpt><trkpt lat="43.0797467" lon="2.6043333"><ele>130.5</ele><time>2026-04-26T13:46:15.729Z</time></trkpt><trkpt lat="43.079775" lon="2.6045033"><ele>130.0</ele><time>2026-04-26T13:46:16.732Z</time></trkpt><trkpt lat="43.0797933" lon="2.60467"><ele>129.5</ele><time>2026-04-26T13:46:17.728Z</time></trkpt><trkpt lat="43.0798383" lon="2.6048233"><ele>129.0</ele><time>2026-04-26T13:46:18.727Z</time></trkpt><trkpt lat="43.079915" lon="2.6049633"><ele>129.5</ele><time>2026-04-26T13:46:19.729Z</time></trkpt><trkpt lat="43.0800117" lon="2.605085"><ele>130.0</ele><time>2026-04-26T13:46:20.728Z</time></trkpt><trkpt lat="43.08012" lon="2.6051917"><ele>130.5</ele><time>2026-04-26T13:46:21.73Z</time></trkpt><trkpt lat="43.0802167" lon="2.6053083"><ele>131.0</ele><time>2026-04-26T13:46:22.729Z</time></trkpt><trkpt lat="43.080285" lon="2.6054583"><ele>131.0</ele><time>2026-04-26T13:46:23.729Z</time></trkpt><trkpt lat="43.0803233" lon="2.6056383"><ele>131.0</ele><time>2026-04-26T13:46:24.729Z</time></trkpt><trkpt lat="43.0803417" lon="2.605835"><ele>131.0</ele><time>2026-04-26T13:46:25.727Z</time></trkpt><trkpt lat="43.080355" lon="2.6060467"><ele>131.0</ele><time>2026-04-26T13:46:26.73Z</time></trkpt><trkpt lat="43.0803733" lon="2.6062517"><ele>131.25</ele><time>2026-04-26T13:46:27.727Z</time></trkpt><trkpt lat="43.0803917" lon="2.6064433"><ele>131.5</ele><time>2026-04-26T13:46:28.729Z</time></trkpt><trkpt lat="43.08041" lon="2.6066183"><ele>131.75</ele><time>2026-04-26T13:46:29.728Z</time></trkpt><trkpt lat="43.0804417" lon="2.6067817"><ele>132.0</ele><time>2026-04-26T13:46:30.728Z</time></trkpt><trkpt lat="43.0804967" lon="2.6069183"><ele>132.0</ele><time>2026-04-26T13:46:31.727Z</time></trkpt><trkpt lat="43.08058" lon="2.60702"><ele>132.0</ele><time>2026-04-26T13:46:32.733Z</time></trkpt><trkpt lat="43.0806783" lon="2.6070767"><ele>132.0</ele><time>2026-04-26T13:46:33.728Z</time></trkpt><trkpt lat="43.0807967" lon="2.6070867"><ele>132.0</ele><time>2026-04-26T13:46:34.73Z</time></trkpt><trkpt lat="43.0809167" lon="2.6070633"><ele>133.6</ele><time>2026-04-26T13:46:35.731Z</time></trkpt><trkpt lat="43.0810283" lon="2.607025"><ele>135.2</ele><time>2026-04-26T13:46:36.727Z</time></trkpt><trkpt lat="43.0811283" lon="2.606995"><ele>136.8</ele><time>2026-04-26T13:46:37.729Z</time></trkpt><trkpt lat="43.0812183" lon="2.6069933"><ele>138.4</ele><time>2026-04-26T13:46:38.728Z</time></trkpt><trkpt lat="43.0812983" lon="2.6070333"><ele>140.0</ele><time>2026-04-26T13:46:39.727Z</time></trkpt><trkpt lat="43.081355" lon="2.6071183"><ele>140.0</ele><time>2026-04-26T13:46:40.731Z</time></trkpt><trkpt lat="43.0813817" lon="2.6072433"><ele>140.0</ele><time>2026-04-26T13:46:41.727Z</time></trkpt><trkpt lat="43.0813783" lon="2.607405"><ele>140.0</ele><time>2026-04-26T13:46:42.729Z</time></trkpt><trkpt lat="43.0813883" lon="2.607575"><ele>140.0</ele><time>2026-04-26T13:46:43.727Z</time></trkpt><trkpt lat="43.081425" lon="2.6077417"><ele>139.25</ele><time>2026-04-26T13:46:44.729Z</time></trkpt><trkpt lat="43.081495" lon="2.6078967"><ele>138.5</ele><time>2026-04-26T13:46:45.728Z</time></trkpt><trkpt lat="43.0815733" lon="2.60805"><ele>137.75</ele><time>2026-04-26T13:46:46.728Z</time></trkpt><trkpt lat="43.0816567" lon="2.6082017"><ele>137.0</ele><time>2026-04-26T13:46:47.729Z</time></trkpt><trkpt lat="43.0817383" lon="2.6083533"><ele>137.5</ele><time>2026-04-26T13:46:48.734Z</time></trkpt><trkpt lat="43.0818267" lon="2.6084983"><ele>138.0</ele><time>2026-04-26T13:46:49.728Z</time></trkpt><trkpt lat="43.0819333" lon="2.6086283"><ele>138.5</ele><time>2026-04-26T13:46:50.734Z</time></trkpt><trkpt lat="43.08205" lon="2.608745"><ele>139.0</ele><time>2026-04-26T13:46:51.728Z</time></trkpt><trkpt lat="43.0821683" lon="2.6088633"><ele>139.0</ele><time>2026-04-26T13:46:52.729Z</time></trkpt><trkpt lat="43.0822817" lon="2.6089967"><ele>139.0</ele><time>2026-04-26T13:46:53.728Z</time></trkpt><trkpt lat="43.0823833" lon="2.6091417"><ele>139.0</ele><time>2026-04-26T13:46:54.729Z</time></trkpt><trkpt lat="43.0824783" lon="2.6092983"><ele>139.0</ele><time>2026-04-26T13:46:55.727Z</time></trkpt><trkpt lat="43.08257" lon="2.6094533"><ele>139.0</ele><time>2026-04-26T13:46:56.728Z</time></trkpt><trkpt lat="43.0826533" lon="2.609605"><ele>139.0</ele><time>2026-04-26T13:46:57.728Z</time></trkpt><trkpt lat="43.0827333" lon="2.6097583"><ele>139.0</ele><time>2026-04-26T13:46:58.728Z</time></trkpt><trkpt lat="43.0828117" lon="2.609905"><ele>139.0</ele><time>2026-04-26T13:46:59.727Z</time></trkpt><trkpt lat="43.082885" lon="2.6100417"><ele>139.0</ele><time>2026-04-26T13:47:00.73Z</time></trkpt><trkpt lat="43.0829683" lon="2.6101633"><ele>139.0</ele><time>2026-04-26T13:47:01.727Z</time></trkpt><trkpt lat="43.0830683" lon="2.61025"><ele>139.0</ele><time>2026-04-26T13:47:02.729Z</time></trkpt><trkpt lat="43.0831767" lon="2.6103033"><ele>139.0</ele><time>2026-04-26T13:47:03.728Z</time></trkpt><trkpt lat="43.0832817" lon="2.610345"><ele>138.25</ele><time>2026-04-26T13:47:04.728Z</time></trkpt><trkpt lat="43.08338" lon="2.6104"><ele>137.5</ele><time>2026-04-26T13:47:05.731Z</time></trkpt><trkpt lat="43.0834733" lon="2.6104867"><ele>136.75</ele><time>2026-04-26T13:47:06.73Z</time></trkpt><trkpt lat="43.08356" lon="2.61061"><ele>136.0</ele><time>2026-04-26T13:47:07.727Z</time></trkpt><trkpt lat="43.0836467" lon="2.6107417"><ele>136.0</ele><time>2026-04-26T13:47:08.729Z</time></trkpt><trkpt lat="43.0837483" lon="2.6108617"><ele>136.0</ele><time>2026-04-26T13:47:09.728Z</time></trkpt><trkpt lat="43.0838567" lon="2.61098"><ele>136.0</ele><time>2026-04-26T13:47:10.729Z</time></trkpt><trkpt lat="43.083955" lon="2.6111033"><ele>136.0</ele><time>2026-04-26T13:47:11.728Z</time></trkpt><trkpt lat="43.0840283" lon="2.61124"><ele>135.0</ele><time>2026-04-26T13:47:12.729Z</time></trkpt><trkpt lat="43.084075" lon="2.61138"><ele>134.0</ele><time>2026-04-26T13:47:13.727Z</time></trkpt><trkpt lat="43.0841083" lon="2.6115167"><ele>133.0</ele><time>2026-04-26T13:47:14.729Z</time></trkpt><trkpt lat="43.084145" lon="2.6116483"><ele>132.0</ele><time>2026-04-26T13:47:15.727Z</time></trkpt><trkpt lat="43.084205" lon="2.6117583"><ele>131.0</ele><time>2026-04-26T13:47:16.729Z</time></trkpt><trkpt lat="43.0842967" lon="2.6118517"><ele>131.25</ele><time>2026-04-26T13:47:17.729Z</time></trkpt><trkpt lat="43.084405" lon="2.6119383"><ele>131.5</ele><time>2026-04-26T13:47:18.729Z</time></trkpt><trkpt lat="43.084525" lon="2.61203"><ele>131.75</ele><time>2026-04-26T13:47:19.731Z</time></trkpt><trkpt lat="43.0846417" lon="2.612135"><ele>132.0</ele><time>2026-04-26T13:47:20.731Z</time></trkpt><trkpt lat="43.0847483" lon="2.6122683"><ele>132.0</ele><time>2026-04-26T13:47:21.728Z</time></trkpt><trkpt lat="43.0848533" lon="2.6124167"><ele>132.0</ele><time>2026-04-26T13:47:22.728Z</time></trkpt><trkpt lat="43.0849717" lon="2.6125567"><ele>132.0</ele><time>2026-04-26T13:47:23.728Z</time></trkpt><trkpt lat="43.0850967" lon="2.612685"><ele>132.66666666666666</ele><time>2026-04-26T13:47:24.73Z</time></trkpt><trkpt lat="43.0852383" lon="2.6128033"><ele>133.33333333333331</ele><time>2026-04-26T13:47:25.728Z</time></trkpt><trkpt lat="43.0853817" lon="2.612915"><ele>134.0</ele><time>2026-04-26T13:47:26.73Z</time></trkpt><trkpt lat="43.08552" lon="2.6130183"><ele>134.0</ele><time>2026-04-26T13:47:27.729Z</time></trkpt><trkpt lat="43.0856517" lon="2.6131117"><ele>134.0</ele><time>2026-04-26T13:47:28.729Z</time></trkpt><trkpt lat="43.0857767" lon="2.613205"><ele>134.0</ele><time>2026-04-26T13:47:29.728Z</time></trkpt><trkpt lat="43.0858983" lon="2.613315"><ele>134.0</ele><time>2026-04-26T13:47:30.731Z</time></trkpt><trkpt lat="43.0860133" lon="2.6134417"><ele>133.75</ele><time>2026-04-26T13:47:31.73Z</time></trkpt><trkpt lat="43.0861133" lon="2.6135833"><ele>133.5</ele><time>2026-04-26T13:47:32.73Z</time></trkpt><trkpt lat="43.0862" lon="2.6137333"><ele>133.25</ele><time>2026-04-26T13:47:33.729Z</time></trkpt><trkpt lat="43.08627" lon="2.61389"><ele>133.0</ele><time>2026-04-26T13:47:34.73Z</time></trkpt><trkpt lat="43.08633" lon="2.6140483"><ele>133.0</ele><time>2026-04-26T13:47:35.728Z</time></trkpt><trkpt lat="43.0863933" lon="2.6141933"><ele>133.0</ele><time>2026-04-26T13:47:36.727Z</time></trkpt><trkpt lat="43.08646" lon="2.614315"><ele>133.0</ele><time>2026-04-26T13:47:37.729Z</time></trkpt><trkpt lat="43.08653" lon="2.6144"><ele>133.0</ele><time>2026-04-26T13:47:38.73Z</time></trkpt><trkpt lat="43.0866067" lon="2.6144583"><ele>133.0</ele><time>2026-04-26T13:47:39.729Z</time></trkpt><trkpt lat="43.0867033" lon="2.6144583"><ele>135.0</ele><time>2026-04-26T13:47:40.728Z</time></trkpt><trkpt lat="43.0868133" lon="2.6144467"><ele>137.0</ele><time>2026-04-26T13:47:41.729Z</time></trkpt><trkpt lat="43.086925" lon="2.614435"><ele>139.0</ele><time>2026-04-26T13:47:42.728Z</time></trkpt><trkpt lat="43.0870433" lon="2.61442"><ele>141.0</ele><time>2026-04-26T13:47:43.73Z</time></trkpt><trkpt lat="43.0871633" lon="2.6144133"><ele>141.0</ele><time>2026-04-26T13:47:44.729Z</time></trkpt><trkpt lat="43.0872817" lon="2.614415"><ele>141.0</ele><time>2026-04-26T13:47:45.727Z</time></trkpt><trkpt lat="43.0873933" lon="2.6144233"><ele>141.0</ele><time>2026-04-26T13:47:46.727Z</time></trkpt><trkpt lat="43.087495" lon="2.6144433"><ele>141.0</ele><time>2026-04-26T13:47:47.729Z</time></trkpt><trkpt lat="43.0875867" lon="2.61447"><ele>141.0</ele><time>2026-04-26T13:47:48.728Z</time></trkpt><trkpt lat="43.08767" lon="2.614505"><ele>140.16666666666666</ele><time>2026-04-26T13:47:49.728Z</time></trkpt><trkpt lat="43.0877483" lon="2.6145367"><ele>139.33333333333334</ele><time>2026-04-26T13:47:50.731Z</time></trkpt><trkpt lat="43.0878183" lon="2.6145667"><ele>138.5</ele><time>2026-04-26T13:47:51.728Z</time></trkpt><trkpt lat="43.0878867" lon="2.6145983"><ele>137.66666666666669</ele><time>2026-04-26T13:47:52.728Z</time></trkpt><trkpt lat="43.0879783" lon="2.6146433"><ele>136.83333333333334</ele><time>2026-04-26T13:47:54.728Z</time></trkpt><trkpt lat="43.0880433" lon="2.6146617"><ele>136.0</ele><time>2026-04-26T13:47:56.728Z</time></trkpt><trkpt lat="43.0880667" lon="2.6145583"><ele>137.8</ele><time>2026-04-26T13:48:02.728Z</time></trkpt><trkpt lat="43.0880083" lon="2.614475"><ele>139.6</ele><time>2026-04-26T13:48:04.729Z</time></trkpt><trkpt lat="43.087925" lon="2.6143483"><ele>141.4</ele><time>2026-04-26T13:48:06.728Z</time></trkpt><trkpt lat="43.087875" lon="2.6142767"><ele>143.2</ele><time>2026-04-26T13:48:07.729Z</time></trkpt><trkpt lat="43.0878183" lon="2.6141883"><ele>145.0</ele><time>2026-04-26T13:48:08.73Z</time></trkpt><trkpt lat="43.087755" lon="2.61409"><ele>145.0</ele><time>2026-04-26T13:48:09.728Z</time></trkpt><trkpt lat="43.08769" lon="2.6139867"><ele>145.0</ele><time>2026-04-26T13:48:10.729Z</time></trkpt><trkpt lat="43.0876233" lon="2.6138783"><ele>145.0</ele><time>2026-04-26T13:48:11.727Z</time></trkpt><trkpt lat="43.0875567" lon="2.6137683"><ele>145.0</ele><time>2026-04-26T13:48:12.73Z</time></trkpt><trkpt lat="43.08748" lon="2.6136517"><ele>145.0</ele><time>2026-04-26T13:48:13.729Z</time></trkpt><trkpt lat="43.0874067" lon="2.613525"><ele>146.5</ele><time>2026-04-26T13:48:14.736Z</time></trkpt><trkpt lat="43.0873317" lon="2.61339"><ele>148.0</ele><time>2026-04-26T13:48:15.729Z</time></trkpt><trkpt lat="43.08725" lon="2.6132583"><ele>149.5</ele><time>2026-04-26T13:48:16.728Z</time></trkpt><trkpt lat="43.08716" lon="2.613125"><ele>151.0</ele><time>2026-04-26T13:48:17.729Z</time></trkpt><trkpt lat="43.08707" lon="2.6130017"><ele>151.0</ele><time>2026-04-26T13:48:18.734Z</time></trkpt><trkpt lat="43.0869767" lon="2.6128817"><ele>151.0</ele><time>2026-04-26T13:48:19.728Z</time></trkpt><trkpt lat="43.0868833" lon="2.6127633"><ele>151.0</ele><time>2026-04-26T13:48:20.731Z</time></trkpt><trkpt lat="43.0867933" lon="2.6126467"><ele>151.0</ele><time>2026-04-26T13:48:21.73Z</time></trkpt><trkpt lat="43.0866983" lon="2.6125367"><ele>153.25</ele><time>2026-04-26T13:48:22.728Z</time></trkpt><trkpt lat="43.0866033" lon="2.612435"><ele>155.5</ele><time>2026-04-26T13:48:23.728Z</time></trkpt><trkpt lat="43.0865033" lon="2.612345"><ele>157.75</ele><time>2026-04-26T13:48:24.728Z</time></trkpt><trkpt lat="43.0864" lon="2.6122433"><ele>160.0</ele><time>2026-04-26T13:48:25.73Z</time></trkpt><trkpt lat="43.0862833" lon="2.6121333"><ele>160.0</ele><time>2026-04-26T13:48:26.73Z</time></trkpt><trkpt lat="43.0861767" lon="2.6120283"><ele>160.0</ele><time>2026-04-26T13:48:27.729Z</time></trkpt><trkpt lat="43.0860767" lon="2.6119267"><ele>160.0</ele><time>2026-04-26T13:48:28.732Z</time></trkpt><trkpt lat="43.085985" lon="2.61181"><ele>160.0</ele><time>2026-04-26T13:48:29.728Z</time></trkpt><trkpt lat="43.0859033" lon="2.6116883"><ele>160.0</ele><time>2026-04-26T13:48:30.729Z</time></trkpt><trkpt lat="43.0858167" lon="2.611565"><ele>160.0</ele><time>2026-04-26T13:48:31.73Z</time></trkpt><trkpt lat="43.0857167" lon="2.6114467"><ele>160.0</ele><time>2026-04-26T13:48:32.729Z</time></trkpt><trkpt lat="43.08562" lon="2.611335"><ele>160.0</ele><time>2026-04-26T13:48:33.728Z</time></trkpt><trkpt lat="43.0855317" lon="2.6112367"><ele>162.83333333333334</ele><time>2026-04-26T13:48:34.728Z</time></trkpt><trkpt lat="43.085455" lon="2.6111533"><ele>165.66666666666669</ele><time>2026-04-26T13:48:35.728Z</time></trkpt><trkpt lat="43.0853833" lon="2.6110933"><ele>168.5</ele><time>2026-04-26T13:48:36.728Z</time></trkpt><trkpt lat="43.0853133" lon="2.6110567"><ele>171.33333333333334</ele><time>2026-04-26T13:48:37.731Z</time></trkpt><trkpt lat="43.0852517" lon="2.6110367"><ele>174.16666666666666</ele><time>2026-04-26T13:48:38.73Z</time></trkpt><trkpt lat="43.08517" lon="2.610955"><ele>177.0</ele><time>2026-04-26T13:52:46.728Z</time></trkpt><trkpt lat="43.085115" lon="2.6108617"><ele>177.0</ele><time>2026-04-26T13:52:48.729Z</time></trkpt><trkpt lat="43.0850617" lon="2.6107517"><ele>177.0</ele><time>2026-04-26T13:52:50.73Z</time></trkpt><trkpt lat="43.0849967" lon="2.61064"><ele>177.0</ele><time>2026-04-26T13:52:52.731Z</time></trkpt><trkpt lat="43.08494" lon="2.6105017"><ele>177.0</ele><time>2026-04-26T13:52:54.733Z</time></trkpt><trkpt lat="43.0849233" lon="2.6104183"><ele>177.0</ele><time>2026-04-26T13:52:55.729Z</time></trkpt><trkpt lat="43.0849233" lon="2.610325"><ele>177.0</ele><time>2026-04-26T13:52:56.732Z</time></trkpt><trkpt lat="43.084935" lon="2.61023"><ele>178.39999999999998</ele><time>2026-04-26T13:52:57.729Z</time></trkpt><trkpt lat="43.0849567" lon="2.6101317"><ele>179.79999999999998</ele><time>2026-04-26T13:52:58.731Z</time></trkpt><trkpt lat="43.0849983" lon="2.61001"><ele>181.2</ele><time>2026-04-26T13:52:59.731Z</time></trkpt><trkpt lat="43.085045" lon="2.609865"><ele>182.6</ele><time>2026-04-26T13:53:00.732Z</time></trkpt><trkpt lat="43.0850783" lon="2.6097067"><ele>184.0</ele><time>2026-04-26T13:53:01.729Z</time></trkpt><trkpt lat="43.0851033" lon="2.6095367"><ele>184.5</ele><time>2026-04-26T13:53:02.728Z</time></trkpt><trkpt lat="43.08513" lon="2.6093633"><ele>185.0</ele><time>2026-04-26T13:53:03.73Z</time></trkpt><trkpt lat="43.08515" lon="2.6091883"><ele>185.5</ele><time>2026-04-26T13:53:04.735Z</time></trkpt><trkpt lat="43.08517" lon="2.60901"><ele>186.0</ele><time>2026-04-26T13:53:05.728Z</time></trkpt><trkpt lat="43.08519" lon="2.60884"><ele>186.0</ele><time>2026-04-26T13:53:06.728Z</time></trkpt><trkpt lat="43.085205" lon="2.6086783"><ele>186.0</ele><time>2026-04-26T13:53:07.728Z</time></trkpt><trkpt lat="43.08522" lon="2.6085267"><ele>186.0</ele><time>2026-04-26T13:53:08.728Z</time></trkpt><trkpt lat="43.085245" lon="2.6083767"><ele>186.0</ele><time>2026-04-26T13:53:09.73Z</time></trkpt><trkpt lat="43.085275" lon="2.608225"><ele>186.25</ele><time>2026-04-26T13:53:10.73Z</time></trkpt><trkpt lat="43.0853033" lon="2.6080583"><ele>186.5</ele><time>2026-04-26T13:53:11.728Z</time></trkpt><trkpt lat="43.0853267" lon="2.6078733"><ele>186.75</ele><time>2026-04-26T13:53:12.729Z</time></trkpt><trkpt lat="43.08534" lon="2.60768"><ele>187.0</ele><time>2026-04-26T13:53:13.729Z</time></trkpt><trkpt lat="43.085345" lon="2.6074967"><ele>187.0</ele><time>2026-04-26T13:53:14.73Z</time></trkpt><trkpt lat="43.0853517" lon="2.6073233"><ele>187.0</ele><time>2026-04-26T13:53:15.729Z</time></trkpt><trkpt lat="43.085365" lon="2.6071567"><ele>187.0</ele><time>2026-04-26T13:53:16.728Z</time></trkpt><trkpt lat="43.0853683" lon="2.606985"><ele>187.0</ele><time>2026-04-26T13:53:17.729Z</time></trkpt><trkpt lat="43.0853617" lon="2.60681"><ele>187.5</ele><time>2026-04-26T13:53:18.733Z</time></trkpt><trkpt lat="43.0853417" lon="2.6066217"><ele>188.0</ele><time>2026-04-26T13:53:19.729Z</time></trkpt><trkpt lat="43.0853167" lon="2.6064217"><ele>188.5</ele><time>2026-04-26T13:53:20.73Z</time></trkpt><trkpt lat="43.0853" lon="2.6062283"><ele>189.0</ele><time>2026-04-26T13:53:21.728Z</time></trkpt><trkpt lat="43.0852933" lon="2.606035"><ele>189.5</ele><time>2026-04-26T13:53:22.728Z</time></trkpt><trkpt lat="43.085295" lon="2.60585"><ele>190.0</ele><time>2026-04-26T13:53:23.729Z</time></trkpt><trkpt lat="43.0853083" lon="2.60567"><ele>190.5</ele><time>2026-04-26T13:53:24.732Z</time></trkpt><trkpt lat="43.0853367" lon="2.60549"><ele>191.0</ele><time>2026-04-26T13:53:25.729Z</time></trkpt><trkpt lat="43.08537" lon="2.6053083"><ele>192.25</ele><time>2026-04-26T13:53:26.729Z</time></trkpt><trkpt lat="43.0853917" lon="2.6051167"><ele>193.5</ele><time>2026-04-26T13:53:27.729Z</time></trkpt><trkpt lat="43.0854033" lon="2.6049267"><ele>194.75</ele><time>2026-04-26T13:53:28.731Z</time></trkpt><trkpt lat="43.0853967" lon="2.6047283"><ele>196.0</ele><time>2026-04-26T13:53:29.729Z</time></trkpt><trkpt lat="43.08539" lon="2.6045267"><ele>197.25</ele><time>2026-04-26T13:53:30.727Z</time></trkpt><trkpt lat="43.085395" lon="2.604335"><ele>198.5</ele><time>2026-04-26T13:53:31.728Z</time></trkpt><trkpt lat="43.08541" lon="2.604145"><ele>199.75</ele><time>2026-04-26T13:53:32.729Z</time></trkpt><trkpt lat="43.0854483" lon="2.603955"><ele>201.0</ele><time>2026-04-26T13:53:33.728Z</time></trkpt><trkpt lat="43.0854983" lon="2.603765"><ele>203.0</ele><time>2026-04-26T13:53:34.727Z</time></trkpt><trkpt lat="43.0855483" lon="2.60357"><ele>205.0</ele><time>2026-04-26T13:53:35.727Z</time></trkpt><trkpt lat="43.085595" lon="2.6033733"><ele>207.0</ele><time>2026-04-26T13:53:36.728Z</time></trkpt><trkpt lat="43.0856433" lon="2.6031767"><ele>207.0</ele><time>2026-04-26T13:53:37.728Z</time></trkpt><trkpt lat="43.0856967" lon="2.60298"><ele>207.0</ele><time>2026-04-26T13:53:38.73Z</time></trkpt><trkpt lat="43.0857617" lon="2.6028067"><ele>207.0</ele><time>2026-04-26T13:53:39.728Z</time></trkpt><trkpt lat="43.0858283" lon="2.60265"><ele>207.0</ele><time>2026-04-26T13:53:40.728Z</time></trkpt><trkpt lat="43.0858867" lon="2.6025033"><ele>212.0</ele><time>2026-04-26T13:53:41.728Z</time></trkpt><trkpt lat="43.0859283" lon="2.60235"><ele>217.0</ele><time>2026-04-26T13:53:42.727Z</time></trkpt><trkpt lat="43.0859517" lon="2.602185"><ele>222.0</ele><time>2026-04-26T13:53:43.728Z</time></trkpt><trkpt lat="43.0859617" lon="2.6020117"><ele>227.0</ele><time>2026-04-26T13:53:44.729Z</time></trkpt><trkpt lat="43.085955" lon="2.6018267"><ele>227.8</ele><time>2026-04-26T13:53:45.728Z</time></trkpt><trkpt lat="43.0859283" lon="2.60164"><ele>228.6</ele><time>2026-04-26T13:53:46.729Z</time></trkpt><trkpt lat="43.085895" lon="2.6014733"><ele>229.40000000000003</ele><time>2026-04-26T13:53:47.729Z</time></trkpt><trkpt lat="43.08586" lon="2.6013433"><ele>230.20000000000002</ele><time>2026-04-26T13:53:48.731Z</time></trkpt><trkpt lat="43.08583" lon="2.6012483"><ele>231.0</ele><time>2026-04-26T13:53:49.728Z</time></trkpt><trkpt lat="43.0858167" lon="2.60112"><ele>231.0</ele><time>2026-04-26T13:53:51.728Z</time></trkpt><trkpt lat="43.0858933" lon="2.6010983"><ele>231.00000000000003</ele><time>2026-04-26T13:53:53.73Z</time></trkpt><trkpt lat="43.0859517" lon="2.6011833"><ele>231.00000000000003</ele><time>2026-04-26T13:53:54.728Z</time></trkpt><trkpt lat="43.086005" lon="2.601295"><ele>231.0</ele><time>2026-04-26T13:53:55.729Z</time></trkpt><trkpt lat="43.0860517" lon="2.601405"><ele>231.0</ele><time>2026-04-26T13:53:56.729Z</time></trkpt><trkpt lat="43.0861167" lon="2.6015333"><ele>231.0</ele><time>2026-04-26T13:53:57.731Z</time></trkpt><trkpt lat="43.086175" lon="2.6016683"><ele>231.0</ele><time>2026-04-26T13:53:58.734Z</time></trkpt><trkpt lat="43.086225" lon="2.6018167"><ele>231.0</ele><time>2026-04-26T13:53:59.729Z</time></trkpt><trkpt lat="43.0862567" lon="2.6019867"><ele>231.0</ele><time>2026-04-26T13:54:00.729Z</time></trkpt><trkpt lat="43.08628" lon="2.60217"><ele>230.0</ele><time>2026-04-26T13:54:01.729Z</time></trkpt><trkpt lat="43.0863067" lon="2.602355"><ele>229.0</ele><time>2026-04-26T13:54:02.728Z</time></trkpt><trkpt lat="43.0863467" lon="2.6025417"><ele>228.0</ele><time>2026-04-26T13:54:03.729Z</time></trkpt><trkpt lat="43.086385" lon="2.6027367"><ele>227.0</ele><time>2026-04-26T13:54:04.728Z</time></trkpt><trkpt lat="43.0864217" lon="2.6029367"><ele>227.0</ele><time>2026-04-26T13:54:05.728Z</time></trkpt><trkpt lat="43.0864583" lon="2.60312"><ele>227.0</ele><time>2026-04-26T13:54:06.731Z</time></trkpt><trkpt lat="43.0864817" lon="2.60329"><ele>227.0</ele><time>2026-04-26T13:54:07.73Z</time></trkpt><trkpt lat="43.0864983" lon="2.6034533"><ele>227.0</ele><time>2026-04-26T13:54:08.729Z</time></trkpt><trkpt lat="43.0865133" lon="2.6036133"><ele>226.5</ele><time>2026-04-26T13:54:09.728Z</time></trkpt><trkpt lat="43.08653" lon="2.6037783"><ele>226.0</ele><time>2026-04-26T13:54:10.73Z</time></trkpt><trkpt lat="43.086555" lon="2.6039517"><ele>225.5</ele><time>2026-04-26T13:54:11.729Z</time></trkpt><trkpt lat="43.0865867" lon="2.6041367"><ele>225.0</ele><time>2026-04-26T13:54:12.73Z</time></trkpt><trkpt lat="43.0866117" lon="2.6043267"><ele>230.4</ele><time>2026-04-26T13:54:13.729Z</time></trkpt><trkpt lat="43.08662" lon="2.6045033"><ele>235.8</ele><time>2026-04-26T13:54:14.73Z</time></trkpt><trkpt lat="43.0866217" lon="2.60465"><ele>241.2</ele><time>2026-04-26T13:54:15.73Z</time></trkpt><trkpt lat="43.0866183" lon="2.6047633"><ele>246.6</ele><time>2026-04-26T13:54:16.735Z</time></trkpt><trkpt lat="43.0866167" lon="2.60485"><ele>252.0</ele><time>2026-04-26T13:54:17.729Z</time></trkpt><trkpt lat="43.0866617" lon="2.60492"><ele>252.0</ele><time>2026-04-26T13:54:20.731Z</time></trkpt><trkpt lat="43.0867017" lon="2.6048167"><ele>252.0</ele><time>2026-04-26T13:54:22.729Z</time></trkpt><trkpt lat="43.08671" lon="2.604725"><ele>252.0</ele><time>2026-04-26T13:54:23.731Z</time></trkpt><trkpt lat="43.0867117" lon="2.6046117"><ele>252.0</ele><time>2026-04-26T13:54:24.73Z</time></trkpt><trkpt lat="43.0867117" lon="2.604475"><ele>252.0</ele><time>2026-04-26T13:54:25.728Z</time></trkpt><trkpt lat="43.086715" lon="2.6043167"><ele>252.25</ele><time>2026-04-26T13:54:26.729Z</time></trkpt><trkpt lat="43.086725" lon="2.6041517"><ele>252.5</ele><time>2026-04-26T13:54:27.729Z</time></trkpt><trkpt lat="43.0867367" lon="2.6039883"><ele>252.75</ele><time>2026-04-26T13:54:28.729Z</time></trkpt><trkpt lat="43.0867467" lon="2.6038167"><ele>253.0</ele><time>2026-04-26T13:54:29.729Z</time></trkpt><trkpt lat="43.0867667" lon="2.6036317"><ele>253.25</ele><time>2026-04-26T13:54:30.729Z</time></trkpt><trkpt lat="43.0867983" lon="2.6034417"><ele>253.5</ele><time>2026-04-26T13:54:31.731Z</time></trkpt><trkpt lat="43.0868283" lon="2.60325"><ele>253.75</ele><time>2026-04-26T13:54:32.73Z</time></trkpt><trkpt lat="43.086855" lon="2.603055"><ele>254.0</ele><time>2026-04-26T13:54:33.729Z</time></trkpt><trkpt lat="43.086885" lon="2.6028583"><ele>254.33333333333334</ele><time>2026-04-26T13:54:34.73Z</time></trkpt><trkpt lat="43.0869233" lon="2.6026567"><ele>254.66666666666669</ele><time>2026-04-26T13:54:35.728Z</time></trkpt><trkpt lat="43.0869583" lon="2.6024533"><ele>255.0</ele><time>2026-04-26T13:54:36.731Z</time></trkpt><trkpt lat="43.0869883" lon="2.6022583"><ele>255.0</ele><time>2026-04-26T13:54:37.728Z</time></trkpt><trkpt lat="43.087015" lon="2.6020717"><ele>255.0</ele><time>2026-04-26T13:54:38.73Z</time></trkpt><trkpt lat="43.0870233" lon="2.6018833"><ele>255.0</ele><time>2026-04-26T13:54:39.728Z</time></trkpt><trkpt lat="43.0870283" lon="2.60169"><ele>255.0</ele><time>2026-04-26T13:54:40.731Z</time></trkpt><trkpt lat="43.0870333" lon="2.6014967"><ele>255.25</ele><time>2026-04-26T13:54:41.728Z</time></trkpt><trkpt lat="43.0870417" lon="2.60131"><ele>255.5</ele><time>2026-04-26T13:54:42.728Z</time></trkpt><trkpt lat="43.0870417" lon="2.6011417"><ele>255.75</ele><time>2026-04-26T13:54:43.728Z</time></trkpt><trkpt lat="43.0870267" lon="2.6009733"><ele>256.0</ele><time>2026-04-26T13:54:44.729Z</time></trkpt><trkpt lat="43.0869967" lon="2.6008033"><ele>257.75</ele><time>2026-04-26T13:54:45.729Z</time></trkpt><trkpt lat="43.0869583" lon="2.6006367"><ele>259.5</ele><time>2026-04-26T13:54:46.729Z</time></trkpt><trkpt lat="43.0869067" lon="2.6004667"><ele>261.25</ele><time>2026-04-26T13:54:47.728Z</time></trkpt><trkpt lat="43.0868433" lon="2.6002983"><ele>263.0</ele><time>2026-04-26T13:54:48.729Z</time></trkpt><trkpt lat="43.0867783" lon="2.60013"><ele>264.0</ele><time>2026-04-26T13:54:49.729Z</time></trkpt><trkpt lat="43.0867217" lon="2.5999633"><ele>265.0</ele><time>2026-04-26T13:54:50.73Z</time></trkpt><trkpt lat="43.0866733" lon="2.5997933"><ele>266.0</ele><time>2026-04-26T13:54:51.729Z</time></trkpt><trkpt lat="43.08663" lon="2.5996233"><ele>267.0</ele><time>2026-04-26T13:54:52.729Z</time></trkpt><trkpt lat="43.0865883" lon="2.5994433"><ele>267.0</ele><time>2026-04-26T13:54:53.729Z</time></trkpt><trkpt lat="43.0865567" lon="2.5992683"><ele>267.0</ele><time>2026-04-26T13:54:54.729Z</time></trkpt><trkpt lat="43.08654" lon="2.5991033"><ele>267.0</ele><time>2026-04-26T13:54:55.73Z</time></trkpt><trkpt lat="43.08653" lon="2.5989433"><ele>267.0</ele><time>2026-04-26T13:54:56.732Z</time></trkpt><trkpt lat="43.08651" lon="2.5988017"><ele>267.0</ele><time>2026-04-26T13:54:57.728Z</time></trkpt><trkpt lat="43.0864717" lon="2.598675"><ele>267.0</ele><time>2026-04-26T13:54:58.727Z</time></trkpt><trkpt lat="43.086415" lon="2.5985667"><ele>267.0</ele><time>2026-04-26T13:54:59.727Z</time></trkpt><trkpt lat="43.08634" lon="2.5984767"><ele>267.0</ele><time>2026-04-26T13:55:00.727Z</time></trkpt><trkpt lat="43.086265" lon="2.598395"><ele>267.0</ele><time>2026-04-26T13:55:01.732Z</time></trkpt><trkpt lat="43.0862" lon="2.5983133"><ele>269.0</ele><time>2026-04-26T13:55:02.728Z</time></trkpt><trkpt lat="43.0861467" lon="2.5982233"><ele>271.0</ele><time>2026-04-26T13:55:03.727Z</time></trkpt><trkpt lat="43.086105" lon="2.598125"><ele>273.0</ele><time>2026-04-26T13:55:04.728Z</time></trkpt><trkpt lat="43.0860733" lon="2.5980183"><ele>275.0</ele><time>2026-04-26T13:55:05.727Z</time></trkpt><trkpt lat="43.0860517" lon="2.5979067"><ele>277.0</ele><time>2026-04-26T13:55:06.728Z</time></trkpt><trkpt lat="43.0860383" lon="2.5977867"><ele>279.0</ele><time>2026-04-26T13:55:07.727Z</time></trkpt><trkpt lat="43.08605" lon="2.5976383"><ele>280.25</ele><time>2026-04-26T13:55:08.728Z</time></trkpt><trkpt lat="43.0860683" lon="2.5974733"><ele>281.5</ele><time>2026-04-26T13:55:09.728Z</time></trkpt><trkpt lat="43.0860783" lon="2.5973"><ele>282.75</ele><time>2026-04-26T13:55:10.728Z</time></trkpt><trkpt lat="43.086065" lon="2.597125"><ele>284.0</ele><time>2026-04-26T13:55:11.728Z</time></trkpt><trkpt lat="43.0860517" lon="2.5969467"><ele>285.5</ele><time>2026-04-26T13:55:12.727Z</time></trkpt><trkpt lat="43.086035" lon="2.5967683"><ele>287.0</ele><time>2026-04-26T13:55:13.727Z</time></trkpt><trkpt lat="43.0860333" lon="2.5965917"><ele>288.5</ele><time>2026-04-26T13:55:14.727Z</time></trkpt><trkpt lat="43.0860333" lon="2.596425"><ele>290.0</ele><time>2026-04-26T13:55:15.73Z</time></trkpt><trkpt lat="43.0860283" lon="2.5962583"><ele>291.25</ele><time>2026-04-26T13:55:16.728Z</time></trkpt><trkpt lat="43.0860333" lon="2.596085"><ele>292.5</ele><time>2026-04-26T13:55:17.727Z</time></trkpt><trkpt lat="43.0860433" lon="2.595905"><ele>293.75</ele><time>2026-04-26T13:55:18.728Z</time></trkpt><trkpt lat="43.0860433" lon="2.595735"><ele>295.0</ele><time>2026-04-26T13:55:19.727Z</time></trkpt><trkpt lat="43.0860467" lon="2.5955633"><ele>295.0</ele><time>2026-04-26T13:55:20.729Z</time></trkpt><trkpt lat="43.08605" lon="2.5953517"><ele>295.0</ele><time>2026-04-26T13:55:21.729Z</time></trkpt><trkpt lat="43.086055" lon="2.5951667"><ele>295.0</ele><time>2026-04-26T13:55:22.727Z</time></trkpt><trkpt lat="43.086075" lon="2.5950017"><ele>295.0</ele><time>2026-04-26T13:55:23.728Z</time></trkpt><trkpt lat="43.0860983" lon="2.59486"><ele>295.6</ele><time>2026-04-26T13:55:24.728Z</time></trkpt><trkpt lat="43.0861133" lon="2.59473"><ele>296.2</ele><time>2026-04-26T13:55:25.727Z</time></trkpt><trkpt lat="43.0861017" lon="2.5945933"><ele>296.8</ele><time>2026-04-26T13:55:26.727Z</time></trkpt><trkpt lat="43.0860633" lon="2.5944617"><ele>297.4</ele><time>2026-04-26T13:55:27.73Z</time></trkpt><trkpt lat="43.086005" lon="2.5943317"><ele>298.0</ele><time>2026-04-26T13:55:28.73Z</time></trkpt><trkpt lat="43.0859233" lon="2.5942167"><ele>299.0</ele><time>2026-04-26T13:55:29.727Z</time></trkpt><trkpt lat="43.0858367" lon="2.5941317"><ele>300.0</ele><time>2026-04-26T13:55:30.731Z</time></trkpt><trkpt lat="43.0857367" lon="2.59408"><ele>301.0</ele><time>2026-04-26T13:55:31.729Z</time></trkpt><trkpt lat="43.0856233" lon="2.59406"><ele>302.0</ele><time>2026-04-26T13:55:32.728Z</time></trkpt><trkpt lat="43.0855217" lon="2.5940617"><ele>303.0</ele><time>2026-04-26T13:55:33.73Z</time></trkpt><trkpt lat="43.0854367" lon="2.59405"><ele>303.2</ele><time>2026-04-26T13:55:34.728Z</time></trkpt><trkpt lat="43.0853767" lon="2.5940083"><ele>303.4</ele><time>2026-04-26T13:55:35.728Z</time></trkpt><trkpt lat="43.0853283" lon="2.593865"><ele>303.59999999999997</ele><time>2026-04-26T13:55:37.728Z</time></trkpt><trkpt lat="43.085345" lon="2.5937583"><ele>303.8</ele><time>2026-04-26T13:55:38.735Z</time></trkpt><trkpt lat="43.0853717" lon="2.5936433"><ele>304.0</ele><time>2026-04-26T13:55:39.727Z</time></trkpt><trkpt lat="43.0854083" lon="2.593515"><ele>305.0</ele><time>2026-04-26T13:55:40.727Z</time></trkpt><trkpt lat="43.085455" lon="2.5933733"><ele>306.0</ele><time>2026-04-26T13:55:41.728Z</time></trkpt><trkpt lat="43.0855033" lon="2.5932167"><ele>307.0</ele><time>2026-04-26T13:55:42.727Z</time></trkpt><trkpt lat="43.0855517" lon="2.5930517"><ele>308.0</ele><time>2026-04-26T13:55:43.728Z</time></trkpt><trkpt lat="43.085595" lon="2.5928917"><ele>308.25</ele><time>2026-04-26T13:55:44.731Z</time></trkpt><trkpt lat="43.0856367" lon="2.592735"><ele>308.5</ele><time>2026-04-26T13:55:45.731Z</time></trkpt><trkpt lat="43.0856717" lon="2.5925767"><ele>308.75</ele><time>2026-04-26T13:55:46.728Z</time></trkpt><trkpt lat="43.0856933" lon="2.5924033"><ele>309.0</ele><time>2026-04-26T13:55:47.729Z</time></trkpt><trkpt lat="43.085705" lon="2.5922183"><ele>309.0</ele><time>2026-04-26T13:55:48.729Z</time></trkpt><trkpt lat="43.0857167" lon="2.592015"><ele>309.0</ele><time>2026-04-26T13:55:49.728Z</time></trkpt><trkpt lat="43.08573" lon="2.5918017"><ele>309.0</ele><time>2026-04-26T13:55:50.728Z</time></trkpt><trkpt lat="43.0857483" lon="2.5915933"><ele>309.0</ele><time>2026-04-26T13:55:51.728Z</time></trkpt><trkpt lat="43.0857667" lon="2.59138"><ele>309.0</ele><time>2026-04-26T13:55:52.728Z</time></trkpt><trkpt lat="43.0857783" lon="2.5911583"><ele>309.0</ele><time>2026-04-26T13:55:53.729Z</time></trkpt><trkpt lat="43.0857833" lon="2.5909217"><ele>308.6666666666667</ele><time>2026-04-26T13:55:54.727Z</time></trkpt><trkpt lat="43.0857833" lon="2.590685"><ele>308.33333333333337</ele><time>2026-04-26T13:55:55.728Z</time></trkpt><trkpt lat="43.0857867" lon="2.5904417"><ele>308.0</ele><time>2026-04-26T13:55:56.729Z</time></trkpt><trkpt lat="43.085795" lon="2.5902"><ele>308.6666666666667</ele><time>2026-04-26T13:55:57.729Z</time></trkpt><trkpt lat="43.0858" lon="2.5899617"><ele>309.3333333333333</ele><time>2026-04-26T13:55:58.729Z</time></trkpt><trkpt lat="43.0858033" lon="2.58974"><ele>310.0</ele><time>2026-04-26T13:55:59.728Z</time></trkpt><trkpt lat="43.0858117" lon="2.5895283"><ele>310.75</ele><time>2026-04-26T13:56:00.729Z</time></trkpt><trkpt lat="43.08582" lon="2.58932"><ele>311.5</ele><time>2026-04-26T13:56:01.728Z</time></trkpt><trkpt lat="43.08582" lon="2.589115"><ele>312.25</ele><time>2026-04-26T13:56:02.728Z</time></trkpt><trkpt lat="43.0858167" lon="2.5889233"><ele>313.0</ele><time>2026-04-26T13:56:03.73Z</time></trkpt><trkpt lat="43.0857967" lon="2.588725"><ele>313.3333333333333</ele><time>2026-04-26T13:56:04.73Z</time></trkpt><trkpt lat="43.0857617" lon="2.58853"><ele>313.6666666666667</ele><time>2026-04-26T13:56:05.729Z</time></trkpt><trkpt lat="43.0857183" lon="2.588335"><ele>314.0</ele><time>2026-04-26T13:56:06.73Z</time></trkpt><trkpt lat="43.0856683" lon="2.5881317"><ele>314.0</ele><time>2026-04-26T13:56:07.731Z</time></trkpt><trkpt lat="43.0856167" lon="2.5879267"><ele>314.0</ele><time>2026-04-26T13:56:08.729Z</time></trkpt><trkpt lat="43.08556" lon="2.58772"><ele>314.0</ele><time>2026-04-26T13:56:09.728Z</time></trkpt><trkpt lat="43.0855067" lon="2.5875167"><ele>314.33333333333337</ele><time>2026-04-26T13:56:10.729Z</time></trkpt><trkpt lat="43.0854533" lon="2.58731"><ele>314.6666666666667</ele><time>2026-04-26T13:56:11.728Z</time></trkpt><trkpt lat="43.085405" lon="2.5871167"><ele>315.0</ele><time>2026-04-26T13:56:12.729Z</time></trkpt><trkpt lat="43.0853517" lon="2.5869333"><ele>315.5</ele><time>2026-04-26T13:56:13.728Z</time></trkpt><trkpt lat="43.0852867" lon="2.586775"><ele>316.0</ele><time>2026-04-26T13:56:14.729Z</time></trkpt><trkpt lat="43.0852017" lon="2.5866283"><ele>316.5</ele><time>2026-04-26T13:56:15.729Z</time></trkpt><trkpt lat="43.085115" lon="2.5865"><ele>317.0</ele><time>2026-04-26T13:56:16.729Z</time></trkpt><trkpt lat="43.0850217" lon="2.5863533"><ele>317.0</ele><time>2026-04-26T13:56:17.729Z</time></trkpt><trkpt lat="43.0849333" lon="2.5861867"><ele>317.0</ele><time>2026-04-26T13:56:18.729Z</time></trkpt><trkpt lat="43.084835" lon="2.5860117"><ele>317.0</ele><time>2026-04-26T13:56:19.729Z</time></trkpt><trkpt lat="43.0847433" lon="2.5858217"><ele>317.0</ele><time>2026-04-26T13:56:20.731Z</time></trkpt><trkpt lat="43.0846567" lon="2.5856233"><ele>317.0</ele><time>2026-04-26T13:56:21.727Z</time></trkpt><trkpt lat="43.0845667" lon="2.5854383"><ele>317.0</ele><time>2026-04-26T13:56:22.727Z</time></trkpt><trkpt lat="43.0844833" lon="2.585265"><ele>317.5</ele><time>2026-04-26T13:56:23.727Z</time></trkpt><trkpt lat="43.0843983" lon="2.5851033"><ele>318.0</ele><time>2026-04-26T13:56:24.728Z</time></trkpt><trkpt lat="43.0843183" lon="2.5849467"><ele>318.5</ele><time>2026-04-26T13:56:25.727Z</time></trkpt><trkpt lat="43.0842467" lon="2.58478"><ele>319.0</ele><time>2026-04-26T13:56:26.728Z</time></trkpt><trkpt lat="43.084195" lon="2.5846117"><ele>319.25</ele><time>2026-04-26T13:56:27.728Z</time></trkpt><trkpt lat="43.0841533" lon="2.58445"><ele>319.5</ele><time>2026-04-26T13:56:28.727Z</time></trkpt><trkpt lat="43.08413" lon="2.584295"><ele>319.75</ele><time>2026-04-26T13:56:29.728Z</time></trkpt><trkpt lat="43.084125" lon="2.5841467"><ele>320.0</ele><time>2026-04-26T13:56:30.728Z</time></trkpt><trkpt lat="43.0841417" lon="2.5839917"><ele>320.0</ele><time>2026-04-26T13:56:31.729Z</time></trkpt><trkpt lat="43.0841817" lon="2.58384"><ele>320.0</ele><time>2026-04-26T13:56:32.728Z</time></trkpt><trkpt lat="43.08423" lon="2.58369"><ele>320.0</ele><time>2026-04-26T13:56:33.728Z</time></trkpt><trkpt lat="43.0842733" lon="2.5835383"><ele>320.0</ele><time>2026-04-26T13:56:34.729Z</time></trkpt><trkpt lat="43.084305" lon="2.5833667"><ele>319.5</ele><time>2026-04-26T13:56:35.727Z</time></trkpt><trkpt lat="43.0843317" lon="2.58318"><ele>319.0</ele><time>2026-04-26T13:56:36.728Z</time></trkpt><trkpt lat="43.0843517" lon="2.5829783"><ele>318.5</ele><time>2026-04-26T13:56:37.728Z</time></trkpt><trkpt lat="43.0843633" lon="2.582765"><ele>318.0</ele><time>2026-04-26T13:56:38.728Z</time></trkpt><trkpt lat="43.08437" lon="2.5825483"><ele>318.0</ele><time>2026-04-26T13:56:39.727Z</time></trkpt><trkpt lat="43.084365" lon="2.5823267"><ele>318.0</ele><time>2026-04-26T13:56:40.728Z</time></trkpt><trkpt lat="43.0843533" lon="2.5821133"><ele>318.0</ele><time>2026-04-26T13:56:41.728Z</time></trkpt><trkpt lat="43.084345" lon="2.5819117"><ele>318.0</ele><time>2026-04-26T13:56:42.727Z</time></trkpt><trkpt lat="43.0843533" lon="2.5817133"><ele>318.0</ele><time>2026-04-26T13:56:43.728Z</time></trkpt><trkpt lat="43.08437" lon="2.5815133"><ele>318.0</ele><time>2026-04-26T13:56:44.73Z</time></trkpt><trkpt lat="43.0843817" lon="2.5813133"><ele>318.0</ele><time>2026-04-26T13:56:45.728Z</time></trkpt><trkpt lat="43.0843867" lon="2.5811217"><ele>318.25</ele><time>2026-04-26T13:56:46.728Z</time></trkpt><trkpt lat="43.0843967" lon="2.5809333"><ele>318.5</ele><time>2026-04-26T13:56:47.727Z</time></trkpt><trkpt lat="43.0844017" lon="2.5807333"><ele>318.75</ele><time>2026-04-26T13:56:48.728Z</time></trkpt><trkpt lat="43.0844067" lon="2.5805217"><ele>319.0</ele><time>2026-04-26T13:56:49.73Z</time></trkpt><trkpt lat="43.084415" lon="2.5802967"><ele>317.66666666666663</ele><time>2026-04-26T13:56:50.73Z</time></trkpt><trkpt lat="43.0844333" lon="2.5800683"><ele>316.3333333333333</ele><time>2026-04-26T13:56:51.727Z</time></trkpt><trkpt lat="43.0844533" lon="2.57985"><ele>315.0</ele><time>2026-04-26T13:56:52.729Z</time></trkpt><trkpt lat="43.0844633" lon="2.5796467"><ele>314.25</ele><time>2026-04-26T13:56:53.727Z</time></trkpt><trkpt lat="43.0844683" lon="2.5794533"><ele>313.5</ele><time>2026-04-26T13:56:54.727Z</time></trkpt><trkpt lat="43.0844733" lon="2.57927"><ele>312.75</ele><time>2026-04-26T13:56:55.727Z</time></trkpt><trkpt lat="43.084485" lon="2.5790883"><ele>312.0</ele><time>2026-04-26T13:56:56.731Z</time></trkpt><trkpt lat="43.0844983" lon="2.5789033"><ele>312.0</ele><time>2026-04-26T13:56:57.727Z</time></trkpt><trkpt lat="43.0845133" lon="2.5787183"><ele>312.0</ele><time>2026-04-26T13:56:58.729Z</time></trkpt><trkpt lat="43.08452" lon="2.5785283"><ele>312.0</ele><time>2026-04-26T13:56:59.729Z</time></trkpt><trkpt lat="43.0845283" lon="2.5783417"><ele>312.0</ele><time>2026-04-26T13:57:00.729Z</time></trkpt><trkpt lat="43.0845333" lon="2.578155"><ele>311.5</ele><time>2026-04-26T13:57:01.73Z</time></trkpt><trkpt lat="43.0845383" lon="2.5779717"><ele>311.0</ele><time>2026-04-26T13:57:02.731Z</time></trkpt><trkpt lat="43.084535" lon="2.5777817"><ele>310.5</ele><time>2026-04-26T13:57:03.729Z</time></trkpt><trkpt lat="43.08453" lon="2.5775983"><ele>310.0</ele><time>2026-04-26T13:57:04.729Z</time></trkpt><trkpt lat="43.0845267" lon="2.5774217"><ele>310.0</ele><time>2026-04-26T13:57:05.731Z</time></trkpt><trkpt lat="43.08453" lon="2.5772533"><ele>310.0</ele><time>2026-04-26T13:57:06.729Z</time></trkpt><trkpt lat="43.0845517" lon="2.5770867"><ele>310.0</ele><time>2026-04-26T13:57:07.729Z</time></trkpt><trkpt lat="43.0845817" lon="2.5769283"><ele>310.0</ele><time>2026-04-26T13:57:08.729Z</time></trkpt><trkpt lat="43.08462" lon="2.576795"><ele>310.16666666666663</ele><time>2026-04-26T13:57:09.73Z</time></trkpt><trkpt lat="43.0846617" lon="2.576675"><ele>310.3333333333333</ele><time>2026-04-26T13:57:10.729Z</time></trkpt><trkpt lat="43.08471" lon="2.576575"><ele>310.5</ele><time>2026-04-26T13:57:11.73Z</time></trkpt><trkpt lat="43.0847817" lon="2.5765083"><ele>310.6666666666667</ele><time>2026-04-26T13:57:12.731Z</time></trkpt><trkpt lat="43.0848467" lon="2.5764533"><ele>310.83333333333337</ele><time>2026-04-26T13:57:13.73Z</time></trkpt><trkpt lat="43.0849033" lon="2.57639"><ele>311.0</ele><time>2026-04-26T13:57:14.731Z</time></trkpt><trkpt lat="43.084945" lon="2.576315"><ele>310.6666666666667</ele><time>2026-04-26T13:57:15.732Z</time></trkpt><trkpt lat="43.0849717" lon="2.5762317"><ele>310.33333333333337</ele><time>2026-04-26T13:57:16.728Z</time></trkpt><trkpt lat="43.0849667" lon="2.5760667"><ele>310.0</ele><time>2026-04-26T13:57:18.729Z</time></trkpt><trkpt lat="43.0849267" lon="2.5759733"><ele>309.6666666666667</ele><time>2026-04-26T13:57:19.727Z</time></trkpt><trkpt lat="43.08487" lon="2.575885"><ele>309.3333333333333</ele><time>2026-04-26T13:57:20.729Z</time></trkpt><trkpt lat="43.0848183" lon="2.5758033"><ele>309.0</ele><time>2026-04-26T13:57:21.729Z</time></trkpt><trkpt lat="43.0847817" lon="2.5757317"><ele>309.0</ele><time>2026-04-26T13:57:22.73Z</time></trkpt><trkpt lat="43.0847783" lon="2.5756267"><ele>309.0</ele><time>2026-04-26T13:57:24.729Z</time></trkpt><trkpt lat="43.08485" lon="2.5756267"><ele>309.0</ele><time>2026-04-26T13:57:26.73Z</time></trkpt><trkpt lat="43.0849617" lon="2.5757"><ele>309.0</ele><time>2026-04-26T13:57:28.729Z</time></trkpt><trkpt lat="43.0850417" lon="2.5757733"><ele>309.0</ele><time>2026-04-26T13:57:29.728Z</time></trkpt><trkpt lat="43.0851383" lon="2.5758517"><ele>309.0</ele><time>2026-04-26T13:57:30.728Z</time></trkpt><trkpt lat="43.0852367" lon="2.57592"><ele>309.0</ele><time>2026-04-26T13:57:31.728Z</time></trkpt><trkpt lat="43.085345" lon="2.5759717"><ele>309.0</ele><time>2026-04-26T13:57:32.729Z</time></trkpt><trkpt lat="43.085455" lon="2.576005"><ele>309.0</ele><time>2026-04-26T13:57:33.729Z</time></trkpt><trkpt lat="43.0855683" lon="2.5760317"><ele>309.0</ele><time>2026-04-26T13:57:34.732Z</time></trkpt><trkpt lat="43.0856867" lon="2.5760617"><ele>309.0</ele><time>2026-04-26T13:57:35.729Z</time></trkpt><trkpt lat="43.0857967" lon="2.5760933"><ele>309.0</ele><time>2026-04-26T13:57:36.727Z</time></trkpt><trkpt lat="43.0859083" lon="2.576115"><ele>309.0</ele><time>2026-04-26T13:57:37.729Z</time></trkpt><trkpt lat="43.086025" lon="2.5761233"><ele>306.4</ele><time>2026-04-26T13:57:38.729Z</time></trkpt><trkpt lat="43.08614" lon="2.5761233"><ele>303.79999999999995</ele><time>2026-04-26T13:57:39.728Z</time></trkpt><trkpt lat="43.0862533" lon="2.5761183"><ele>301.20000000000005</ele><time>2026-04-26T13:57:40.728Z</time></trkpt><trkpt lat="43.0863533" lon="2.576115"><ele>298.6</ele><time>2026-04-26T13:57:41.728Z</time></trkpt><trkpt lat="43.08644" lon="2.57611"><ele>296.0</ele><time>2026-04-26T13:57:42.728Z</time></trkpt><trkpt lat="43.08652" lon="2.576115"><ele>296.0</ele><time>2026-04-26T13:57:43.729Z</time></trkpt><trkpt lat="43.08659" lon="2.5761117"><ele>296.0</ele><time>2026-04-26T13:57:44.729Z</time></trkpt><trkpt lat="43.0866533" lon="2.57605"><ele>296.0</ele><time>2026-04-26T13:57:46.728Z</time></trkpt><trkpt lat="43.0865667" lon="2.5759517"><ele>296.0</ele><time>2026-04-26T13:57:49.728Z</time></trkpt><trkpt lat="43.086485" lon="2.5759267"><ele>296.0</ele><time>2026-04-26T13:57:50.73Z</time></trkpt><trkpt lat="43.0863867" lon="2.5758917"><ele>296.0</ele><time>2026-04-26T13:57:51.727Z</time></trkpt><trkpt lat="43.0862733" lon="2.5758217"><ele>296.0</ele><time>2026-04-26T13:57:52.729Z</time></trkpt><trkpt lat="43.086165" lon="2.5757567"><ele>296.0</ele><time>2026-04-26T13:57:53.729Z</time></trkpt><trkpt lat="43.0860683" lon="2.5756883"><ele>296.0</ele><time>2026-04-26T13:57:54.73Z</time></trkpt><trkpt lat="43.08598" lon="2.5756167"><ele>296.0</ele><time>2026-04-26T13:57:55.728Z</time></trkpt><trkpt lat="43.0859133" lon="2.575525"><ele>296.0</ele><time>2026-04-26T13:57:56.737Z</time></trkpt><trkpt lat="43.085865" lon="2.57541"><ele>294.40000000000003</ele><time>2026-04-26T13:57:57.729Z</time></trkpt><trkpt lat="43.0858517" lon="2.5752783"><ele>292.8</ele><time>2026-04-26T13:57:58.729Z</time></trkpt><trkpt lat="43.0858633" lon="2.5751517"><ele>291.20000000000005</ele><time>2026-04-26T13:57:59.728Z</time></trkpt><trkpt lat="43.0859033" lon="2.5750433"><ele>289.6</ele><time>2026-04-26T13:58:00.729Z</time></trkpt><trkpt lat="43.0859617" lon="2.5749617"><ele>288.0</ele><time>2026-04-26T13:58:01.73Z</time></trkpt><trkpt lat="43.0860367" lon="2.574895"><ele>288.0</ele><time>2026-04-26T13:58:02.729Z</time></trkpt><trkpt lat="43.086115" lon="2.5748383"><ele>288.0</ele><time>2026-04-26T13:58:03.728Z</time></trkpt><trkpt lat="43.0861933" lon="2.5747783"><ele>288.0</ele><time>2026-04-26T13:58:04.73Z</time></trkpt><trkpt lat="43.086265" lon="2.57472"><ele>288.0</ele><time>2026-04-26T13:58:05.728Z</time></trkpt><trkpt lat="43.0863383" lon="2.5746567"><ele>288.0</ele><time>2026-04-26T13:58:06.729Z</time></trkpt><trkpt lat="43.0864033" lon="2.5745983"><ele>288.0</ele><time>2026-04-26T13:58:07.729Z</time></trkpt><trkpt lat="43.08647" lon="2.5745633"><ele>288.0</ele><time>2026-04-26T13:58:08.729Z</time></trkpt><trkpt lat="43.08654" lon="2.57455"><ele>288.0</ele><time>2026-04-26T13:58:09.727Z</time></trkpt><trkpt lat="43.08662" lon="2.5745583"><ele>288.0</ele><time>2026-04-26T13:58:10.729Z</time></trkpt><trkpt lat="43.08671" lon="2.5745933"><ele>288.0</ele><time>2026-04-26T13:58:11.729Z</time></trkpt><trkpt lat="43.0868033" lon="2.5746383"><ele>288.0</ele><time>2026-04-26T13:58:12.728Z</time></trkpt><trkpt lat="43.0868967" lon="2.5746717"><ele>288.0</ele><time>2026-04-26T13:58:13.728Z</time></trkpt><trkpt lat="43.0869867" lon="2.574695"><ele>286.8333333333333</ele><time>2026-04-26T13:58:14.729Z</time></trkpt><trkpt lat="43.08707" lon="2.57471"><ele>285.6666666666667</ele><time>2026-04-26T13:58:15.729Z</time></trkpt><trkpt lat="43.087145" lon="2.5747267"><ele>284.5</ele><time>2026-04-26T13:58:16.729Z</time></trkpt><trkpt lat="43.087205" lon="2.57476"><ele>283.33333333333337</ele><time>2026-04-26T13:58:17.729Z</time></trkpt><trkpt lat="43.0872767" lon="2.5748883"><ele>282.1666666666667</ele><time>2026-04-26T13:58:19.728Z</time></trkpt><trkpt lat="43.0872983" lon="2.5749833"><ele>281.0</ele><time>2026-04-26T13:58:20.729Z</time></trkpt><trkpt lat="43.0873317" lon="2.5751017"><ele>281.0</ele><time>2026-04-26T13:58:21.727Z</time></trkpt><trkpt lat="43.08738" lon="2.5752333"><ele>281.0</ele><time>2026-04-26T13:58:22.728Z</time></trkpt><trkpt lat="43.0874283" lon="2.5753733"><ele>281.0</ele><time>2026-04-26T13:58:23.728Z</time></trkpt><trkpt lat="43.08747" lon="2.5755317"><ele>281.0</ele><time>2026-04-26T13:58:24.729Z</time></trkpt><trkpt lat="43.0875083" lon="2.5757017"><ele>279.5</ele><time>2026-04-26T13:58:25.729Z</time></trkpt><trkpt lat="43.08755" lon="2.5758683"><ele>278.0</ele><time>2026-04-26T13:58:26.73Z</time></trkpt><trkpt lat="43.0876" lon="2.57603"><ele>276.5</ele><time>2026-04-26T13:58:27.728Z</time></trkpt><trkpt lat="43.0876433" lon="2.5761767"><ele>275.0</ele><time>2026-04-26T13:58:28.731Z</time></trkpt><trkpt lat="43.08769" lon="2.5763033"><ele>275.0</ele><time>2026-04-26T13:58:29.732Z</time></trkpt><trkpt lat="43.087745" lon="2.5764117"><ele>275.0</ele><time>2026-04-26T13:58:30.728Z</time></trkpt><trkpt lat="43.0878117" lon="2.5764983"><ele>275.0</ele><time>2026-04-26T13:58:31.728Z</time></trkpt><trkpt lat="43.087885" lon="2.576575"><ele>275.0</ele><time>2026-04-26T13:58:32.729Z</time></trkpt><trkpt lat="43.0879683" lon="2.5766317"><ele>275.0</ele><time>2026-04-26T13:58:33.731Z</time></trkpt><trkpt lat="43.0880417" lon="2.57669"><ele>275.0</ele><time>2026-04-26T13:58:34.729Z</time></trkpt><trkpt lat="43.0881083" lon="2.5767417"><ele>275.0</ele><time>2026-04-26T13:58:35.727Z</time></trkpt><trkpt lat="43.0881767" lon="2.576775"><ele>275.0</ele><time>2026-04-26T13:58:36.729Z</time></trkpt><trkpt lat="43.0882517" lon="2.5767867"><ele>275.0</ele><time>2026-04-26T13:58:37.729Z</time></trkpt><trkpt lat="43.0883267" lon="2.5767783"><ele>275.0</ele><time>2026-04-26T13:58:38.729Z</time></trkpt><trkpt lat="43.0884067" lon="2.57674"><ele>275.0</ele><time>2026-04-26T13:58:39.73Z</time></trkpt><trkpt lat="43.08848" lon="2.5766733"><ele>267.5</ele><time>2026-04-26T13:58:40.728Z</time></trkpt><trkpt lat="43.0885517" lon="2.576565"><ele>260.0</ele><time>2026-04-26T13:58:41.729Z</time></trkpt><trkpt lat="43.0886183" lon="2.57645"><ele>252.5</ele><time>2026-04-26T13:58:42.73Z</time></trkpt><trkpt lat="43.0887167" lon="2.5761867"><ele>245.0</ele><time>2026-04-26T13:58:44.729Z</time></trkpt><trkpt lat="43.0887517" lon="2.5760467"><ele>244.2</ele><time>2026-04-26T13:58:45.728Z</time></trkpt><trkpt lat="43.088805" lon="2.5759183"><ele>243.4</ele><time>2026-04-26T13:58:46.728Z</time></trkpt><trkpt lat="43.0888733" lon="2.5757917"><ele>242.60000000000002</ele><time>2026-04-26T13:58:47.728Z</time></trkpt><trkpt lat="43.0889467" lon="2.5756533"><ele>241.8</ele><time>2026-04-26T13:58:48.73Z</time></trkpt><trkpt lat="43.0890083" lon="2.575555"><ele>241.0</ele><time>2026-04-26T13:58:49.728Z</time></trkpt><trkpt lat="43.0890767" lon="2.5754717"><ele>241.99999999999997</ele><time>2026-04-26T13:58:50.73Z</time></trkpt><trkpt lat="43.0891383" lon="2.5753967"><ele>243.0</ele><time>2026-04-26T13:58:51.728Z</time></trkpt><trkpt lat="43.0892017" lon="2.5753017"><ele>244.0</ele><time>2026-04-26T13:58:52.729Z</time></trkpt><trkpt lat="43.0892583" lon="2.5752083"><ele>245.0</ele><time>2026-04-26T13:58:53.729Z</time></trkpt><trkpt lat="43.0893" lon="2.5751283"><ele>245.99999999999997</ele><time>2026-04-26T13:58:54.729Z</time></trkpt><trkpt lat="43.089345" lon="2.5750617"><ele>247.0</ele><time>2026-04-26T13:58:55.729Z</time></trkpt><trkpt lat="43.08942" lon="2.574945"><ele>246.99999999999997</ele><time>2026-04-26T13:58:57.728Z</time></trkpt><trkpt lat="43.0894467" lon="2.5748617"><ele>247.0</ele><time>2026-04-26T13:58:58.729Z</time></trkpt><trkpt lat="43.0894617" lon="2.5747633"><ele>247.0</ele><time>2026-04-26T13:58:59.729Z</time></trkpt><trkpt lat="43.0894683" lon="2.5746633"><ele>247.0</ele><time>2026-04-26T13:59:00.73Z</time></trkpt><trkpt lat="43.08949" lon="2.574515"><ele>246.99999999999997</ele><time>2026-04-26T13:59:02.735Z</time></trkpt><trkpt lat="43.0895533" lon="2.5744683"><ele>247.0</ele><time>2026-04-26T13:59:04.729Z</time></trkpt><trkpt lat="43.08962" lon="2.57449"><ele>246.99999999999997</ele><time>2026-04-26T13:59:06.728Z</time></trkpt><trkpt lat="43.0896833" lon="2.5745083"><ele>247.0</ele><time>2026-04-26T13:59:08.73Z</time></trkpt><trkpt lat="43.0897333" lon="2.5745767"><ele>247.0</ele><time>2026-04-26T13:59:10.728Z</time></trkpt><trkpt lat="43.0897617" lon="2.57469"><ele>247.0</ele><time>2026-04-26T13:59:12.729Z</time></trkpt><trkpt lat="43.0897983" lon="2.57479"><ele>246.99999999999997</ele><time>2026-04-26T13:59:14.73Z</time></trkpt><trkpt lat="43.0898883" lon="2.5748233"><ele>247.0</ele><time>2026-04-26T13:59:17.73Z</time></trkpt><trkpt lat="43.0899483" lon="2.5747533"><ele>247.2</ele><time>2026-04-26T13:59:19.728Z</time></trkpt><trkpt lat="43.0899983" lon="2.5746217"><ele>247.39999999999998</ele><time>2026-04-26T13:59:21.73Z</time></trkpt><trkpt lat="43.0900517" lon="2.5745383"><ele>247.60000000000002</ele><time>2026-04-26T13:59:23.728Z</time></trkpt><trkpt lat="43.09014" lon="2.5745683"><ele>247.8</ele><time>2026-04-26T13:59:25.728Z</time></trkpt><trkpt lat="43.0902367" lon="2.5746667"><ele>248.0</ele><time>2026-04-26T13:59:27.729Z</time></trkpt><trkpt lat="43.0903217" lon="2.5747767"><ele>248.0</ele><time>2026-04-26T13:59:29.729Z</time></trkpt><trkpt lat="43.0904017" lon="2.5748633"><ele>248.0</ele><time>2026-04-26T13:59:31.728Z</time></trkpt><trkpt lat="43.0904767" lon="2.5748933"><ele>248.0</ele><time>2026-04-26T13:59:33.728Z</time></trkpt><trkpt lat="43.0905583" lon="2.5748267"><ele>248.0</ele><time>2026-04-26T13:59:35.728Z</time></trkpt><trkpt lat="43.09061" lon="2.57471"><ele>248.0</ele><time>2026-04-26T13:59:37.73Z</time></trkpt><trkpt lat="43.09067" lon="2.5746333"><ele>248.0</ele><time>2026-04-26T13:59:39.73Z</time></trkpt><trkpt lat="43.0907533" lon="2.5746367"><ele>248.0</ele><time>2026-04-26T13:59:41.73Z</time></trkpt><trkpt lat="43.0908433" lon="2.5746983"><ele>248.0</ele><time>2026-04-26T13:59:43.729Z</time></trkpt><trkpt lat="43.0909317" lon="2.5747683"><ele>248.0</ele><time>2026-04-26T13:59:45.729Z</time></trkpt><trkpt lat="43.0909983" lon="2.57486"><ele>248.0</ele><time>2026-04-26T13:59:47.728Z</time></trkpt><trkpt lat="43.0910017" lon="2.5749867"><ele>244.83333333333334</ele><time>2026-04-26T13:59:49.73Z</time></trkpt><trkpt lat="43.090945" lon="2.57512"><ele>241.66666666666669</ele><time>2026-04-26T13:59:51.73Z</time></trkpt><trkpt lat="43.0909" lon="2.575225"><ele>238.5</ele><time>2026-04-26T13:59:53.729Z</time></trkpt><trkpt lat="43.09097" lon="2.5752233"><ele>235.33333333333331</ele><time>2026-04-26T13:59:58.73Z</time></trkpt><trkpt lat="43.0910383" lon="2.5751633"><ele>232.16666666666666</ele><time>2026-04-26T14:00:00.731Z</time></trkpt><trkpt lat="43.0910967" lon="2.57513"><ele>229.0</ele><time>2026-04-26T14:00:01.729Z</time></trkpt><trkpt lat="43.0911617" lon="2.5751"><ele>229.0</ele><time>2026-04-26T14:00:02.73Z</time></trkpt><trkpt lat="43.0912767" lon="2.57505"><ele>228.99999999999997</ele><time>2026-04-26T14:00:04.727Z</time></trkpt><trkpt lat="43.0913433" lon="2.5750383"><ele>228.99999999999997</ele><time>2026-04-26T14:00:05.731Z</time></trkpt><trkpt lat="43.09145" lon="2.5750183"><ele>229.0</ele><time>2026-04-26T14:00:07.729Z</time></trkpt><trkpt lat="43.0915317" lon="2.575015"><ele>229.0</ele><time>2026-04-26T14:00:09.727Z</time></trkpt><trkpt lat="43.0916067" lon="2.5750633"><ele>226.99999999999997</ele><time>2026-04-26T14:00:12.728Z</time></trkpt><trkpt lat="43.09167" lon="2.5750967"><ele>225.0</ele><time>2026-04-26T14:00:14.73Z</time></trkpt><trkpt lat="43.09174" lon="2.5751517"><ele>223.0</ele><time>2026-04-26T14:00:17.728Z</time></trkpt><trkpt lat="43.09173" lon="2.57528"><ele>221.0</ele><time>2026-04-26T14:00:20.729Z</time></trkpt><trkpt lat="43.091685" lon="2.5753683"><ele>218.99999999999997</ele><time>2026-04-26T14:00:22.729Z</time></trkpt><trkpt lat="43.0916367" lon="2.5754283"><ele>217.0</ele><time>2026-04-26T14:00:24.728Z</time></trkpt><trkpt lat="43.0915733" lon="2.575505"><ele>216.8</ele><time>2026-04-26T14:00:26.728Z</time></trkpt><trkpt lat="43.09149" lon="2.575605"><ele>216.6</ele><time>2026-04-26T14:00:28.73Z</time></trkpt><trkpt lat="43.0914467" lon="2.5756767"><ele>216.40000000000003</ele><time>2026-04-26T14:00:29.727Z</time></trkpt><trkpt lat="43.0913467" lon="2.5758083"><ele>216.20000000000002</ele><time>2026-04-26T14:00:31.73Z</time></trkpt><trkpt lat="43.0913033" lon="2.5758733"><ele>216.0</ele><time>2026-04-26T14:00:32.729Z</time></trkpt><trkpt lat="43.0912233" lon="2.57596"><ele>216.0</ele><time>2026-04-26T14:00:34.728Z</time></trkpt><trkpt lat="43.0911433" lon="2.5760033"><ele>216.00000000000003</ele><time>2026-04-26T14:00:36.728Z</time></trkpt><trkpt lat="43.091065" lon="2.5760817"><ele>216.00000000000003</ele><time>2026-04-26T14:00:38.731Z</time></trkpt><trkpt lat="43.09098" lon="2.5761933"><ele>216.0</ele><time>2026-04-26T14:00:40.727Z</time></trkpt><trkpt lat="43.0909183" lon="2.5762817"><ele>216.0</ele><time>2026-04-26T14:00:42.729Z</time></trkpt><trkpt lat="43.090875" lon="2.576355"><ele>212.16666666666666</ele><time>2026-04-26T14:00:44.73Z</time></trkpt><trkpt lat="43.09084" lon="2.5764417"><ele>208.33333333333331</ele><time>2026-04-26T14:00:48.731Z</time></trkpt><trkpt lat="43.0909033" lon="2.576455"><ele>204.5</ele><time>2026-04-26T14:00:51.73Z</time></trkpt><trkpt lat="43.0909717" lon="2.5764217"><ele>200.66666666666666</ele><time>2026-04-26T14:00:53.729Z</time></trkpt><trkpt lat="43.0910483" lon="2.5763783"><ele>196.83333333333331</ele><time>2026-04-26T14:00:55.73Z</time></trkpt><trkpt lat="43.0911367" lon="2.57634"><ele>193.0</ele><time>2026-04-26T14:00:57.729Z</time></trkpt><trkpt lat="43.0912183" lon="2.5763017"><ele>192.99999999999997</ele><time>2026-04-26T14:00:59.731Z</time></trkpt><trkpt lat="43.091325" lon="2.57628"><ele>193.0</ele><time>2026-04-26T14:01:01.73Z</time></trkpt><trkpt lat="43.0914517" lon="2.57625"><ele>193.0</ele><time>2026-04-26T14:01:03.731Z</time></trkpt><trkpt lat="43.091515" lon="2.57623"><ele>193.0</ele><time>2026-04-26T14:01:04.732Z</time></trkpt><trkpt lat="43.0915867" lon="2.5762317"><ele>192.99999999999997</ele><time>2026-04-26T14:01:05.731Z</time></trkpt><trkpt lat="43.091655" lon="2.5762467"><ele>193.0</ele><time>2026-04-26T14:01:06.729Z</time></trkpt><trkpt lat="43.0917267" lon="2.57626"><ele>190.49999999999997</ele><time>2026-04-26T14:01:07.731Z</time></trkpt><trkpt lat="43.0917933" lon="2.5762667"><ele>188.0</ele><time>2026-04-26T14:01:08.729Z</time></trkpt><trkpt lat="43.0918583" lon="2.5762667"><ele>185.5</ele><time>2026-04-26T14:01:09.729Z</time></trkpt><trkpt lat="43.0919717" lon="2.57626"><ele>183.0</ele><time>2026-04-26T14:01:11.728Z</time></trkpt><trkpt lat="43.092065" lon="2.576265"><ele>180.5</ele><time>2026-04-26T14:01:13.729Z</time></trkpt><trkpt lat="43.0921267" lon="2.5762867"><ele>178.0</ele><time>2026-04-26T14:01:15.731Z</time></trkpt><trkpt lat="43.0921017" lon="2.5763983"><ele>177.99999999999997</ele><time>2026-04-26T14:01:19.729Z</time></trkpt><trkpt lat="43.0920483" lon="2.5764633"><ele>178.0</ele><time>2026-04-26T14:01:21.73Z</time></trkpt><trkpt lat="43.09201" lon="2.5765367"><ele>178.0</ele><time>2026-04-26T14:01:23.729Z</time></trkpt><trkpt lat="43.0919733" lon="2.5766533"><ele>178.0</ele><time>2026-04-26T14:01:26.729Z</time></trkpt><trkpt lat="43.09194" lon="2.5767333"><ele>178.0</ele><time>2026-04-26T14:01:28.729Z</time></trkpt><trkpt lat="43.091885" lon="2.5767767"><ele>177.99999999999997</ele><time>2026-04-26T14:01:30.729Z</time></trkpt><trkpt lat="43.091825" lon="2.576845"><ele>178.0</ele><time>2026-04-26T14:01:32.729Z</time></trkpt><trkpt lat="43.0917633" lon="2.5769233"><ele>178.0</ele><time>2026-04-26T14:01:34.729Z</time></trkpt><trkpt lat="43.09171" lon="2.5769867"><ele>178.0</ele><time>2026-04-26T14:01:36.729Z</time></trkpt><trkpt lat="43.091645" lon="2.5770533"><ele>178.0</ele><time>2026-04-26T14:01:38.728Z</time></trkpt><trkpt lat="43.09158" lon="2.5771117"><ele>178.0</ele><time>2026-04-26T14:01:40.729Z</time></trkpt><trkpt lat="43.0915267" lon="2.5771583"><ele>178.0</ele><time>2026-04-26T14:01:42.73Z</time></trkpt><trkpt lat="43.091465" lon="2.57725"><ele>178.0</ele><time>2026-04-26T14:01:44.729Z</time></trkpt><trkpt lat="43.09141" lon="2.5773433"><ele>176.33333333333334</ele><time>2026-04-26T14:01:46.729Z</time></trkpt><trkpt lat="43.0913417" lon="2.5774033"><ele>174.66666666666669</ele><time>2026-04-26T14:01:48.729Z</time></trkpt><trkpt lat="43.091265" lon="2.577475"><ele>173.0</ele><time>2026-04-26T14:01:50.727Z</time></trkpt><trkpt lat="43.0912067" lon="2.57752"><ele>171.33333333333334</ele><time>2026-04-26T14:01:52.727Z</time></trkpt><trkpt lat="43.091265" lon="2.5775717"><ele>169.66666666666666</ele><time>2026-04-26T14:01:57.727Z</time></trkpt><trkpt lat="43.0913683" lon="2.5775533"><ele>168.0</ele><time>2026-04-26T14:01:59.728Z</time></trkpt><trkpt lat="43.0914383" lon="2.577535"><ele>168.0</ele><time>2026-04-26T14:02:00.728Z</time></trkpt><trkpt lat="43.0915033" lon="2.5775167"><ele>168.0</ele><time>2026-04-26T14:02:01.728Z</time></trkpt><trkpt lat="43.0916017" lon="2.5774967"><ele>168.0</ele><time>2026-04-26T14:02:03.731Z</time></trkpt><trkpt lat="43.0916" lon="2.5775967"><ele>168.0</ele><time>2026-04-26T14:02:07.727Z</time></trkpt><trkpt lat="43.0915417" lon="2.577635"><ele>168.0</ele><time>2026-04-26T14:02:08.729Z</time></trkpt><trkpt lat="43.0914733" lon="2.577675"><ele>168.0</ele><time>2026-04-26T14:02:09.728Z</time></trkpt><trkpt lat="43.09139" lon="2.5777217"><ele>168.0</ele><time>2026-04-26T14:02:10.73Z</time></trkpt><trkpt lat="43.0913017" lon="2.5777583"><ele>168.0</ele><time>2026-04-26T14:02:11.729Z</time></trkpt><trkpt lat="43.0911917" lon="2.577795"><ele>168.0</ele><time>2026-04-26T14:02:12.729Z</time></trkpt><trkpt lat="43.0910667" lon="2.577815"><ele>168.0</ele><time>2026-04-26T14:02:13.73Z</time></trkpt><trkpt lat="43.0909333" lon="2.5778267"><ele>168.0</ele><time>2026-04-26T14:02:14.729Z</time></trkpt><trkpt lat="43.090795" lon="2.5778433"><ele>168.0</ele><time>2026-04-26T14:02:15.729Z</time></trkpt><trkpt lat="43.090665" lon="2.5778633"><ele>168.0</ele><time>2026-04-26T14:02:16.729Z</time></trkpt><trkpt lat="43.0905467" lon="2.5779017"><ele>168.0</ele><time>2026-04-26T14:02:17.728Z</time></trkpt><trkpt lat="43.090445" lon="2.5779817"><ele>164.75</ele><time>2026-04-26T14:02:18.735Z</time></trkpt><trkpt lat="43.0903683" lon="2.5781067"><ele>161.5</ele><time>2026-04-26T14:02:19.728Z</time></trkpt><trkpt lat="43.090335" lon="2.57826"><ele>158.25</ele><time>2026-04-26T14:02:20.729Z</time></trkpt><trkpt lat="43.0903383" lon="2.57843"><ele>155.0</ele><time>2026-04-26T14:02:21.729Z</time></trkpt><trkpt lat="43.090355" lon="2.5786083"><ele>153.5</ele><time>2026-04-26T14:02:22.728Z</time></trkpt><trkpt lat="43.09038" lon="2.5787917"><ele>152.0</ele><time>2026-04-26T14:02:23.73Z</time></trkpt><trkpt lat="43.0903767" lon="2.5789883"><ele>150.5</ele><time>2026-04-26T14:02:24.729Z</time></trkpt><trkpt lat="43.09034" lon="2.57918"><ele>149.0</ele><time>2026-04-26T14:02:25.728Z</time></trkpt><trkpt lat="43.0902733" lon="2.5793733"><ele>150.0</ele><time>2026-04-26T14:02:26.729Z</time></trkpt><trkpt lat="43.0902" lon="2.5795767"><ele>151.0</ele><time>2026-04-26T14:02:27.73Z</time></trkpt><trkpt lat="43.0901417" lon="2.5797867"><ele>152.0</ele><time>2026-04-26T14:02:28.728Z</time></trkpt><trkpt lat="43.0900917" lon="2.580005"><ele>152.0</ele><time>2026-04-26T14:02:29.729Z</time></trkpt><trkpt lat="43.0900483" lon="2.5802267"><ele>152.0</ele><time>2026-04-26T14:02:30.729Z</time></trkpt><trkpt lat="43.0900167" lon="2.5804567"><ele>152.0</ele><time>2026-04-26T14:02:31.73Z</time></trkpt><trkpt lat="43.0900067" lon="2.5806917"><ele>152.0</ele><time>2026-04-26T14:02:32.729Z</time></trkpt><trkpt lat="43.0900267" lon="2.5809233"><ele>152.0</ele><time>2026-04-26T14:02:33.729Z</time></trkpt><trkpt lat="43.0900633" lon="2.5811533"><ele>152.0</ele><time>2026-04-26T14:02:34.73Z</time></trkpt><trkpt lat="43.0900817" lon="2.5813833"><ele>151.66666666666666</ele><time>2026-04-26T14:02:35.729Z</time></trkpt><trkpt lat="43.0900717" lon="2.5816217"><ele>151.33333333333334</ele><time>2026-04-26T14:02:36.73Z</time></trkpt><trkpt lat="43.0900417" lon="2.581855"><ele>151.0</ele><time>2026-04-26T14:02:37.73Z</time></trkpt><trkpt lat="43.0899917" lon="2.58209"><ele>151.33333333333334</ele><time>2026-04-26T14:02:38.729Z</time></trkpt><trkpt lat="43.0899267" lon="2.58232"><ele>151.66666666666666</ele><time>2026-04-26T14:02:39.73Z</time></trkpt><trkpt lat="43.0898833" lon="2.58255"><ele>152.0</ele><time>2026-04-26T14:02:40.731Z</time></trkpt><trkpt lat="43.08986" lon="2.582775"><ele>150.0</ele><time>2026-04-26T14:02:41.728Z</time></trkpt><trkpt lat="43.08985" lon="2.582995"><ele>148.0</ele><time>2026-04-26T14:02:42.728Z</time></trkpt><trkpt lat="43.089845" lon="2.5832083"><ele>146.0</ele><time>2026-04-26T14:02:43.73Z</time></trkpt><trkpt lat="43.0898383" lon="2.5834117"><ele>146.0</ele><time>2026-04-26T14:02:44.731Z</time></trkpt><trkpt lat="43.0898233" lon="2.583605"><ele>146.0</ele><time>2026-04-26T14:02:45.728Z</time></trkpt><trkpt lat="43.089795" lon="2.58379"><ele>146.0</ele><time>2026-04-26T14:02:46.735Z</time></trkpt><trkpt lat="43.0897567" lon="2.5839633"><ele>146.0</ele><time>2026-04-26T14:02:47.729Z</time></trkpt><trkpt lat="43.0897167" lon="2.5841267"><ele>145.75</ele><time>2026-04-26T14:02:48.728Z</time></trkpt><trkpt lat="43.0896967" lon="2.5842983"><ele>145.5</ele><time>2026-04-26T14:02:49.73Z</time></trkpt><trkpt lat="43.0897" lon="2.5844733"><ele>145.25</ele><time>2026-04-26T14:02:50.729Z</time></trkpt><trkpt lat="43.0897433" lon="2.58464"><ele>145.0</ele><time>2026-04-26T14:02:51.73Z</time></trkpt><trkpt lat="43.0898017" lon="2.584795"><ele>145.0</ele><time>2026-04-26T14:02:52.732Z</time></trkpt><trkpt lat="43.0898617" lon="2.5849317"><ele>145.0</ele><time>2026-04-26T14:02:53.731Z</time></trkpt><trkpt lat="43.089935" lon="2.5850467"><ele>145.0</ele><time>2026-04-26T14:02:54.733Z</time></trkpt><trkpt lat="43.0900283" lon="2.5851233"><ele>145.0</ele><time>2026-04-26T14:02:55.729Z</time></trkpt><trkpt lat="43.0901283" lon="2.58515"><ele>145.0</ele><time>2026-04-26T14:02:56.729Z</time></trkpt><trkpt lat="43.09023" lon="2.5851267"><ele>145.0</ele><time>2026-04-26T14:02:57.73Z</time></trkpt><trkpt lat="43.090325" lon="2.5850483"><ele>145.0</ele><time>2026-04-26T14:02:58.728Z</time></trkpt><trkpt lat="43.09041" lon="2.58493"><ele>145.0</ele><time>2026-04-26T14:02:59.728Z</time></trkpt><trkpt lat="43.0904733" lon="2.5847683"><ele>145.0</ele><time>2026-04-26T14:03:00.728Z</time></trkpt><trkpt lat="43.0905333" lon="2.5845717"><ele>145.66666666666669</ele><time>2026-04-26T14:03:01.728Z</time></trkpt><trkpt lat="43.090605" lon="2.5843683"><ele>146.33333333333334</ele><time>2026-04-26T14:03:02.729Z</time></trkpt><trkpt lat="43.0906933" lon="2.5841667"><ele>147.0</ele><time>2026-04-26T14:03:03.73Z</time></trkpt><trkpt lat="43.0907833" lon="2.5839667"><ele>147.0</ele><time>2026-04-26T14:03:04.729Z</time></trkpt><trkpt lat="43.09087" lon="2.5837617"><ele>147.0</ele><time>2026-04-26T14:03:05.729Z</time></trkpt><trkpt lat="43.0909767" lon="2.5835683"><ele>147.0</ele><time>2026-04-26T14:03:06.729Z</time></trkpt><trkpt lat="43.0911067" lon="2.5833917"><ele>149.0</ele><time>2026-04-26T14:03:07.73Z</time></trkpt><trkpt lat="43.09125" lon="2.5832317"><ele>151.0</ele><time>2026-04-26T14:03:08.728Z</time></trkpt><trkpt lat="43.0913983" lon="2.58309"><ele>153.0</ele><time>2026-04-26T14:03:09.729Z</time></trkpt><trkpt lat="43.0915583" lon="2.5829667"><ele>149.66666666666666</ele><time>2026-04-26T14:03:10.728Z</time></trkpt><trkpt lat="43.09173" lon="2.582885"><ele>146.33333333333331</ele><time>2026-04-26T14:03:11.728Z</time></trkpt><trkpt lat="43.09191" lon="2.5828517"><ele>143.0</ele><time>2026-04-26T14:03:12.731Z</time></trkpt><trkpt lat="43.09209" lon="2.5828733"><ele>143.0</ele><time>2026-04-26T14:03:13.73Z</time></trkpt><trkpt lat="43.0922667" lon="2.58295"><ele>143.0</ele><time>2026-04-26T14:03:14.736Z</time></trkpt><trkpt lat="43.0924383" lon="2.5830583"><ele>143.0</ele><time>2026-04-26T14:03:15.729Z</time></trkpt><trkpt lat="43.0926033" lon="2.5831883"><ele>144.33333333333331</ele><time>2026-04-26T14:03:16.729Z</time></trkpt><trkpt lat="43.0927617" lon="2.5833367"><ele>145.66666666666666</ele><time>2026-04-26T14:03:17.73Z</time></trkpt><trkpt lat="43.092905" lon="2.5835"><ele>147.0</ele><time>2026-04-26T14:03:18.729Z</time></trkpt><trkpt lat="43.0930333" lon="2.5836683"><ele>145.66666666666666</ele><time>2026-04-26T14:03:19.729Z</time></trkpt><trkpt lat="43.0931433" lon="2.5838433"><ele>144.33333333333331</ele><time>2026-04-26T14:03:20.728Z</time></trkpt><trkpt lat="43.093225" lon="2.5840383"><ele>143.0</ele><time>2026-04-26T14:03:21.731Z</time></trkpt><trkpt lat="43.09327" lon="2.5842583"><ele>145.33333333333331</ele><time>2026-04-26T14:03:22.728Z</time></trkpt><trkpt lat="43.0932683" lon="2.5844917"><ele>147.66666666666666</ele><time>2026-04-26T14:03:23.729Z</time></trkpt><trkpt lat="43.0932233" lon="2.5847333"><ele>150.0</ele><time>2026-04-26T14:03:24.729Z</time></trkpt><trkpt lat="43.093165" lon="2.5849767"><ele>150.0</ele><time>2026-04-26T14:03:25.733Z</time></trkpt><trkpt lat="43.093105" lon="2.5852267"><ele>150.0</ele><time>2026-04-26T14:03:26.73Z</time></trkpt><trkpt lat="43.0930483" lon="2.585485"><ele>150.0</ele><time>2026-04-26T14:03:27.728Z</time></trkpt><trkpt lat="43.092995" lon="2.58575"><ele>148.66666666666666</ele><time>2026-04-26T14:03:28.728Z</time></trkpt><trkpt lat="43.0929433" lon="2.5860183"><ele>147.33333333333331</ele><time>2026-04-26T14:03:29.729Z</time></trkpt><trkpt lat="43.092895" lon="2.586285"><ele>146.0</ele><time>2026-04-26T14:03:30.732Z</time></trkpt><trkpt lat="43.09285" lon="2.5865533"><ele>145.33333333333331</ele><time>2026-04-26T14:03:31.729Z</time></trkpt><trkpt lat="43.0928167" lon="2.5868283"><ele>144.66666666666666</ele><time>2026-04-26T14:03:32.73Z</time></trkpt><trkpt lat="43.0927817" lon="2.5871"><ele>144.0</ele><time>2026-04-26T14:03:33.728Z</time></trkpt><trkpt lat="43.0927483" lon="2.5873733"><ele>144.0</ele><time>2026-04-26T14:03:34.729Z</time></trkpt><trkpt lat="43.0927117" lon="2.587645"><ele>144.0</ele><time>2026-04-26T14:03:35.731Z</time></trkpt><trkpt lat="43.0926633" lon="2.5879117"><ele>144.0</ele><time>2026-04-26T14:03:36.729Z</time></trkpt><trkpt lat="43.0926033" lon="2.5881717"><ele>144.33333333333334</ele><time>2026-04-26T14:03:37.73Z</time></trkpt><trkpt lat="43.0925367" lon="2.5884333"><ele>144.66666666666669</ele><time>2026-04-26T14:03:38.728Z</time></trkpt><trkpt lat="43.0924667" lon="2.58869"><ele>145.0</ele><time>2026-04-26T14:03:39.728Z</time></trkpt><trkpt lat="43.0924" lon="2.5889483"><ele>145.66666666666669</ele><time>2026-04-26T14:03:40.729Z</time></trkpt><trkpt lat="43.0923317" lon="2.589205"><ele>146.33333333333334</ele><time>2026-04-26T14:03:41.729Z</time></trkpt><trkpt lat="43.092265" lon="2.5894633"><ele>147.0</ele><time>2026-04-26T14:03:42.733Z</time></trkpt><trkpt lat="43.0922067" lon="2.5897233"><ele>145.33333333333334</ele><time>2026-04-26T14:03:43.728Z</time></trkpt><trkpt lat="43.092165" lon="2.5899917"><ele>143.66666666666669</ele><time>2026-04-26T14:03:44.731Z</time></trkpt><trkpt lat="43.0921433" lon="2.590265"><ele>142.0</ele><time>2026-04-26T14:03:45.727Z</time></trkpt><trkpt lat="43.0921333" lon="2.59054"><ele>142.0</ele><time>2026-04-26T14:03:46.729Z</time></trkpt><trkpt lat="43.0921267" lon="2.5908183"><ele>142.0</ele><time>2026-04-26T14:03:47.73Z</time></trkpt><trkpt lat="43.0921167" lon="2.5910967"><ele>142.0</ele><time>2026-04-26T14:03:48.729Z</time></trkpt><trkpt lat="43.0921067" lon="2.591375"><ele>143.0</ele><time>2026-04-26T14:03:49.728Z</time></trkpt><trkpt lat="43.092105" lon="2.5916533"><ele>144.0</ele><time>2026-04-26T14:03:50.729Z</time></trkpt><trkpt lat="43.0921033" lon="2.59193"><ele>145.0</ele><time>2026-04-26T14:03:51.73Z</time></trkpt><trkpt lat="43.0921033" lon="2.5922067"><ele>142.66666666666669</ele><time>2026-04-26T14:03:52.729Z</time></trkpt><trkpt lat="43.092105" lon="2.5924817"><ele>140.33333333333334</ele><time>2026-04-26T14:03:53.737Z</time></trkpt><trkpt lat="43.0921067" lon="2.592755"><ele>138.0</ele><time>2026-04-26T14:03:54.73Z</time></trkpt><trkpt lat="43.0921" lon="2.5930217"><ele>137.66666666666666</ele><time>2026-04-26T14:03:55.73Z</time></trkpt><trkpt lat="43.0920783" lon="2.593285"><ele>137.33333333333331</ele><time>2026-04-26T14:03:56.729Z</time></trkpt><trkpt lat="43.0920333" lon="2.59353"><ele>137.0</ele><time>2026-04-26T14:03:57.73Z</time></trkpt><trkpt lat="43.091975" lon="2.5937583"><ele>136.0</ele><time>2026-04-26T14:03:58.73Z</time></trkpt><trkpt lat="43.091905" lon="2.59397"><ele>135.0</ele><time>2026-04-26T14:03:59.732Z</time></trkpt><trkpt lat="43.09183" lon="2.5941667"><ele>134.0</ele><time>2026-04-26T14:04:00.729Z</time></trkpt><trkpt lat="43.0917667" lon="2.594365"><ele>134.0</ele><time>2026-04-26T14:04:01.731Z</time></trkpt><trkpt lat="43.0917383" lon="2.5945733"><ele>134.0</ele><time>2026-04-26T14:04:02.73Z</time></trkpt><trkpt lat="43.0917583" lon="2.5947917"><ele>134.0</ele><time>2026-04-26T14:04:03.729Z</time></trkpt><trkpt lat="43.09181" lon="2.595"><ele>134.0</ele><time>2026-04-26T14:04:04.737Z</time></trkpt><trkpt lat="43.0918867" lon="2.5951833"><ele>134.0</ele><time>2026-04-26T14:04:05.729Z</time></trkpt><trkpt lat="43.09199" lon="2.5953283"><ele>134.0</ele><time>2026-04-26T14:04:06.73Z</time></trkpt><trkpt lat="43.0921283" lon="2.5954117"><ele>133.0</ele><time>2026-04-26T14:04:07.729Z</time></trkpt><trkpt lat="43.0922917" lon="2.5954467"><ele>132.0</ele><time>2026-04-26T14:04:08.729Z</time></trkpt><trkpt lat="43.09246" lon="2.595475"><ele>131.0</ele><time>2026-04-26T14:04:09.73Z</time></trkpt><trkpt lat="43.0926267" lon="2.59552"><ele>131.0</ele><time>2026-04-26T14:04:10.73Z</time></trkpt><trkpt lat="43.0927783" lon="2.5956017"><ele>131.0</ele><time>2026-04-26T14:04:11.728Z</time></trkpt><trkpt lat="43.092905" lon="2.5957333"><ele>131.0</ele><time>2026-04-26T14:04:12.731Z</time></trkpt><trkpt lat="43.0930017" lon="2.5959167"><ele>131.0</ele><time>2026-04-26T14:04:13.731Z</time></trkpt><trkpt lat="43.0930683" lon="2.5961267"><ele>131.0</ele><time>2026-04-26T14:04:14.73Z</time></trkpt><trkpt lat="43.093095" lon="2.5963417"><ele>131.0</ele><time>2026-04-26T14:04:15.729Z</time></trkpt><trkpt lat="43.09308" lon="2.596555"><ele>131.33333333333331</ele><time>2026-04-26T14:04:16.729Z</time></trkpt><trkpt lat="43.0930233" lon="2.5967617"><ele>131.66666666666666</ele><time>2026-04-26T14:04:17.729Z</time></trkpt><trkpt lat="43.0929317" lon="2.5969517"><ele>132.0</ele><time>2026-04-26T14:04:18.728Z</time></trkpt><trkpt lat="43.0928133" lon="2.5971367"><ele>132.0</ele><time>2026-04-26T14:04:19.729Z</time></trkpt><trkpt lat="43.09268" lon="2.59732"><ele>132.0</ele><time>2026-04-26T14:04:20.729Z</time></trkpt><trkpt lat="43.0925383" lon="2.5975033"><ele>132.0</ele><time>2026-04-26T14:04:21.73Z</time></trkpt><trkpt lat="43.0923867" lon="2.5976867"><ele>133.0</ele><time>2026-04-26T14:04:22.728Z</time></trkpt><trkpt lat="43.092235" lon="2.59787"><ele>134.0</ele><time>2026-04-26T14:04:23.729Z</time></trkpt><trkpt lat="43.092085" lon="2.59805"><ele>135.0</ele><time>2026-04-26T14:04:24.732Z</time></trkpt><trkpt lat="43.0919283" lon="2.59822"><ele>135.0</ele><time>2026-04-26T14:04:25.729Z</time></trkpt><trkpt lat="43.09177" lon="2.598385"><ele>135.0</ele><time>2026-04-26T14:04:26.729Z</time></trkpt><trkpt lat="43.0916117" lon="2.598555"><ele>135.0</ele><time>2026-04-26T14:04:27.729Z</time></trkpt><trkpt lat="43.0914633" lon="2.5987383"><ele>132.33333333333334</ele><time>2026-04-26T14:04:28.73Z</time></trkpt><trkpt lat="43.091325" lon="2.5989417"><ele>129.66666666666669</ele><time>2026-04-26T14:04:29.73Z</time></trkpt><trkpt lat="43.0912033" lon="2.5991633"><ele>127.0</ele><time>2026-04-26T14:04:30.729Z</time></trkpt><trkpt lat="43.0911017" lon="2.5993967"><ele>127.66666666666667</ele><time>2026-04-26T14:04:31.731Z</time></trkpt><trkpt lat="43.0910233" lon="2.5996383"><ele>128.33333333333334</ele><time>2026-04-26T14:04:32.729Z</time></trkpt><trkpt lat="43.090965" lon="2.5998767"><ele>129.0</ele><time>2026-04-26T14:04:33.728Z</time></trkpt><trkpt lat="43.090945" lon="2.6001133"><ele>128.0</ele><time>2026-04-26T14:04:34.727Z</time></trkpt><trkpt lat="43.0909683" lon="2.600345"><ele>127.0</ele><time>2026-04-26T14:04:35.729Z</time></trkpt><trkpt lat="43.0910367" lon="2.6005733"><ele>126.0</ele><time>2026-04-26T14:04:36.729Z</time></trkpt><trkpt lat="43.09114" lon="2.60077"><ele>126.0</ele><time>2026-04-26T14:04:37.727Z</time></trkpt><trkpt lat="43.09128" lon="2.6009283"><ele>126.0</ele><time>2026-04-26T14:04:38.73Z</time></trkpt><trkpt lat="43.0914533" lon="2.6010383"><ele>126.0</ele><time>2026-04-26T14:04:39.729Z</time></trkpt><trkpt lat="43.0916433" lon="2.6011067"><ele>125.0</ele><time>2026-04-26T14:04:40.73Z</time></trkpt><trkpt lat="43.091835" lon="2.6011533"><ele>124.0</ele><time>2026-04-26T14:04:41.729Z</time></trkpt><trkpt lat="43.0920267" lon="2.6012"><ele>123.0</ele><time>2026-04-26T14:04:42.727Z</time></trkpt><trkpt lat="43.0922133" lon="2.6012433"><ele>123.0</ele><time>2026-04-26T14:04:43.729Z</time></trkpt><trkpt lat="43.09239" lon="2.6012617"><ele>123.0</ele><time>2026-04-26T14:04:44.729Z</time></trkpt><trkpt lat="43.0925567" lon="2.601235"><ele>123.0</ele><time>2026-04-26T14:04:45.728Z</time></trkpt><trkpt lat="43.09271" lon="2.601145"><ele>127.0</ele><time>2026-04-26T14:04:46.728Z</time></trkpt><trkpt lat="43.0928433" lon="2.6009967"><ele>131.0</ele><time>2026-04-26T14:04:47.728Z</time></trkpt><trkpt lat="43.0929517" lon="2.6008067"><ele>135.0</ele><time>2026-04-26T14:04:48.727Z</time></trkpt><trkpt lat="43.0930317" lon="2.6005783"><ele>140.0</ele><time>2026-04-26T14:04:49.729Z</time></trkpt><trkpt lat="43.0930967" lon="2.6003267"><ele>145.0</ele><time>2026-04-26T14:04:50.73Z</time></trkpt><trkpt lat="43.0931633" lon="2.6000817"><ele>150.0</ele><time>2026-04-26T14:04:51.729Z</time></trkpt><trkpt lat="43.0932283" lon="2.599845"><ele>145.33333333333334</ele><time>2026-04-26T14:04:52.728Z</time></trkpt><trkpt lat="43.0932917" lon="2.59962"><ele>140.66666666666669</ele><time>2026-04-26T14:04:53.728Z</time></trkpt><trkpt lat="43.0933633" lon="2.5994183"><ele>136.0</ele><time>2026-04-26T14:04:54.728Z</time></trkpt><trkpt lat="43.093455" lon="2.5992467"><ele>136.0</ele><time>2026-04-26T14:04:55.729Z</time></trkpt><trkpt lat="43.0935633" lon="2.59911"><ele>136.0</ele><time>2026-04-26T14:04:56.73Z</time></trkpt><trkpt lat="43.0936917" lon="2.599045"><ele>136.0</ele><time>2026-04-26T14:04:57.727Z</time></trkpt><trkpt lat="43.0938233" lon="2.5990583"><ele>136.0</ele><time>2026-04-26T14:04:58.729Z</time></trkpt><trkpt lat="43.09396" lon="2.5991533"><ele>131.33333333333334</ele><time>2026-04-26T14:04:59.728Z</time></trkpt><trkpt lat="43.0940933" lon="2.59928"><ele>126.66666666666666</ele><time>2026-04-26T14:05:00.728Z</time></trkpt><trkpt lat="43.0942267" lon="2.599405"><ele>122.0</ele><time>2026-04-26T14:05:01.727Z</time></trkpt><trkpt lat="43.0943583" lon="2.5995433"><ele>122.0</ele><time>2026-04-26T14:05:02.73Z</time></trkpt><trkpt lat="43.094475" lon="2.5997033"><ele>122.0</ele><time>2026-04-26T14:05:03.728Z</time></trkpt><trkpt lat="43.09456" lon="2.5998983"><ele>122.0</ele><time>2026-04-26T14:05:04.727Z</time></trkpt><trkpt lat="43.0946033" lon="2.600125"><ele>124.66666666666666</ele><time>2026-04-26T14:05:05.729Z</time></trkpt><trkpt lat="43.094615" lon="2.6003717"><ele>127.33333333333334</ele><time>2026-04-26T14:05:06.731Z</time></trkpt><trkpt lat="43.094615" lon="2.6006267"><ele>130.0</ele><time>2026-04-26T14:05:07.727Z</time></trkpt><trkpt lat="43.0946083" lon="2.6008883"><ele>130.0</ele><time>2026-04-26T14:05:08.729Z</time></trkpt><trkpt lat="43.0946083" lon="2.6011567"><ele>130.0</ele><time>2026-04-26T14:05:09.73Z</time></trkpt><trkpt lat="43.0946133" lon="2.6014283"><ele>130.0</ele><time>2026-04-26T14:05:10.732Z</time></trkpt><trkpt lat="43.0946233" lon="2.6017033"><ele>133.33333333333334</ele><time>2026-04-26T14:05:11.73Z</time></trkpt><trkpt lat="43.0946317" lon="2.60198"><ele>136.66666666666666</ele><time>2026-04-26T14:05:12.728Z</time></trkpt><trkpt lat="43.09464" lon="2.6022567"><ele>140.0</ele><time>2026-04-26T14:05:13.729Z</time></trkpt><trkpt lat="43.09465" lon="2.6025333"><ele>143.0</ele><time>2026-04-26T14:05:14.728Z</time></trkpt><trkpt lat="43.0946583" lon="2.6028067"><ele>146.0</ele><time>2026-04-26T14:05:15.727Z</time></trkpt><trkpt lat="43.0946683" lon="2.603075"><ele>149.0</ele><time>2026-04-26T14:05:16.727Z</time></trkpt><trkpt lat="43.0946867" lon="2.6033367"><ele>153.0</ele><time>2026-04-26T14:05:17.73Z</time></trkpt><trkpt lat="43.0947183" lon="2.603595"><ele>157.0</ele><time>2026-04-26T14:05:18.731Z</time></trkpt><trkpt lat="43.0947683" lon="2.6038383"><ele>161.0</ele><time>2026-04-26T14:05:19.729Z</time></trkpt><trkpt lat="43.0948267" lon="2.6040617"><ele>166.33333333333331</ele><time>2026-04-26T14:05:20.729Z</time></trkpt><trkpt lat="43.094895" lon="2.6042667"><ele>171.66666666666666</ele><time>2026-04-26T14:05:21.729Z</time></trkpt><trkpt lat="43.0949683" lon="2.6044567"><ele>177.0</ele><time>2026-04-26T14:05:22.729Z</time></trkpt><trkpt lat="43.0950383" lon="2.60463"><ele>168.0</ele><time>2026-04-26T14:05:23.729Z</time></trkpt><trkpt lat="43.095105" lon="2.6047883"><ele>159.0</ele><time>2026-04-26T14:05:24.73Z</time></trkpt><trkpt lat="43.0951567" lon="2.60493"><ele>150.0</ele><time>2026-04-26T14:05:25.73Z</time></trkpt><trkpt lat="43.095205" lon="2.60505"><ele>141.0</ele><time>2026-04-26T14:05:26.73Z</time></trkpt><trkpt lat="43.0952483" lon="2.605155"><ele>132.0</ele><time>2026-04-26T14:05:27.728Z</time></trkpt><trkpt lat="43.09529" lon="2.6052367"><ele>132.0</ele><time>2026-04-26T14:05:28.729Z</time></trkpt><trkpt lat="43.095375" lon="2.6052867"><ele>132.0</ele><time>2026-04-26T14:05:30.728Z</time></trkpt><trkpt lat="43.09547" lon="2.605195"><ele>132.0</ele><time>2026-04-26T14:05:32.729Z</time></trkpt><trkpt lat="43.0955333" lon="2.6051283"><ele>132.0</ele><time>2026-04-26T14:05:33.728Z</time></trkpt><trkpt lat="43.0956167" lon="2.6050417"><ele>132.0</ele><time>2026-04-26T14:05:34.73Z</time></trkpt><trkpt lat="43.095715" lon="2.6049467"><ele>129.0</ele><time>2026-04-26T14:05:35.731Z</time></trkpt><trkpt lat="43.095815" lon="2.604855"><ele>125.99999999999999</ele><time>2026-04-26T14:05:36.728Z</time></trkpt><trkpt lat="43.0958983" lon="2.6047717"><ele>122.99999999999999</ele><time>2026-04-26T14:05:37.729Z</time></trkpt><trkpt lat="43.0959583" lon="2.6047067"><ele>120.0</ele><time>2026-04-26T14:05:38.728Z</time></trkpt><trkpt lat="43.0960283" lon="2.6046367"><ele>117.0</ele><time>2026-04-26T14:05:40.727Z</time></trkpt><trkpt lat="43.0961317" lon="2.6045567"><ele>118.19999999999999</ele><time>2026-04-26T14:07:22.728Z</time></trkpt><trkpt lat="43.096195" lon="2.60449"><ele>119.39999999999999</ele><time>2026-04-26T14:07:23.727Z</time></trkpt><trkpt lat="43.09627" lon="2.60442"><ele>120.60000000000001</ele><time>2026-04-26T14:07:24.73Z</time></trkpt><trkpt lat="43.0963583" lon="2.6043383"><ele>121.80000000000001</ele><time>2026-04-26T14:07:25.727Z</time></trkpt><trkpt lat="43.0964533" lon="2.6042583"><ele>123.0</ele><time>2026-04-26T14:07:26.728Z</time></trkpt><trkpt lat="43.0965417" lon="2.6041833"><ele>125.2</ele><time>2026-04-26T14:07:27.728Z</time></trkpt><trkpt lat="43.0966117" lon="2.6040917"><ele>127.4</ele><time>2026-04-26T14:07:28.728Z</time></trkpt><trkpt lat="43.0966567" lon="2.6039667"><ele>129.60000000000002</ele><time>2026-04-26T14:07:29.728Z</time></trkpt><trkpt lat="43.0966817" lon="2.6038283"><ele>131.8</ele><time>2026-04-26T14:07:30.727Z</time></trkpt><trkpt lat="43.0966783" lon="2.603675"><ele>134.0</ele><time>2026-04-26T14:07:31.728Z</time></trkpt><trkpt lat="43.096655" lon="2.6034983"><ele>132.66666666666666</ele><time>2026-04-26T14:07:32.728Z</time></trkpt><trkpt lat="43.09662" lon="2.6033033"><ele>131.33333333333334</ele><time>2026-04-26T14:07:33.728Z</time></trkpt><trkpt lat="43.0965867" lon="2.6030983"><ele>130.0</ele><time>2026-04-26T14:07:34.727Z</time></trkpt><trkpt lat="43.096555" lon="2.60289"><ele>132.0</ele><time>2026-04-26T14:07:35.728Z</time></trkpt><trkpt lat="43.0965167" lon="2.6026717"><ele>134.0</ele><time>2026-04-26T14:07:36.729Z</time></trkpt><trkpt lat="43.0964733" lon="2.602455"><ele>136.0</ele><time>2026-04-26T14:07:37.727Z</time></trkpt><trkpt lat="43.09643" lon="2.6022417"><ele>136.0</ele><time>2026-04-26T14:07:38.73Z</time></trkpt><trkpt lat="43.096385" lon="2.602025"><ele>136.0</ele><time>2026-04-26T14:07:39.728Z</time></trkpt><trkpt lat="43.0963517" lon="2.6018"><ele>136.0</ele><time>2026-04-26T14:07:40.736Z</time></trkpt><trkpt lat="43.0963367" lon="2.60157"><ele>138.0</ele><time>2026-04-26T14:07:41.728Z</time></trkpt><trkpt lat="43.0963383" lon="2.6013317"><ele>140.0</ele><time>2026-04-26T14:07:42.73Z</time></trkpt><trkpt lat="43.0963483" lon="2.6010883"><ele>142.0</ele><time>2026-04-26T14:07:43.728Z</time></trkpt><trkpt lat="43.0963633" lon="2.6008533"><ele>143.66666666666669</ele><time>2026-04-26T14:07:44.729Z</time></trkpt><trkpt lat="43.0963733" lon="2.6006267"><ele>145.33333333333334</ele><time>2026-04-26T14:07:45.729Z</time></trkpt><trkpt lat="43.09637" lon="2.60041"><ele>147.0</ele><time>2026-04-26T14:07:46.728Z</time></trkpt><trkpt lat="43.0963433" lon="2.6002033"><ele>148.0</ele><time>2026-04-26T14:07:47.728Z</time></trkpt><trkpt lat="43.0962883" lon="2.6000117"><ele>149.0</ele><time>2026-04-26T14:07:48.729Z</time></trkpt><trkpt lat="43.0962017" lon="2.599845"><ele>150.0</ele><time>2026-04-26T14:07:49.729Z</time></trkpt><trkpt lat="43.09609" lon="2.5997083"><ele>150.0</ele><time>2026-04-26T14:07:50.731Z</time></trkpt><trkpt lat="43.0959783" lon="2.5996033"><ele>150.0</ele><time>2026-04-26T14:07:51.73Z</time></trkpt><trkpt lat="43.0958817" lon="2.59951"><ele>150.0</ele><time>2026-04-26T14:07:52.728Z</time></trkpt><trkpt lat="43.0958117" lon="2.599415"><ele>150.0</ele><time>2026-04-26T14:07:53.73Z</time></trkpt><trkpt lat="43.0957717" lon="2.5993017"><ele>150.0</ele><time>2026-04-26T14:07:54.728Z</time></trkpt><trkpt lat="43.0957683" lon="2.5991583"><ele>152.5</ele><time>2026-04-26T14:07:55.727Z</time></trkpt><trkpt lat="43.0957867" lon="2.59899"><ele>155.0</ele><time>2026-04-26T14:07:56.73Z</time></trkpt><trkpt lat="43.0958" lon="2.5987983"><ele>157.5</ele><time>2026-04-26T14:07:57.728Z</time></trkpt><trkpt lat="43.0958033" lon="2.5986033"><ele>160.0</ele><time>2026-04-26T14:07:58.728Z</time></trkpt><trkpt lat="43.095785" lon="2.5984217"><ele>157.75</ele><time>2026-04-26T14:07:59.729Z</time></trkpt><trkpt lat="43.095735" lon="2.5982533"><ele>155.5</ele><time>2026-04-26T14:08:00.732Z</time></trkpt><trkpt lat="43.09566" lon="2.59809"><ele>153.25</ele><time>2026-04-26T14:08:01.728Z</time></trkpt><trkpt lat="43.0955733" lon="2.59793"><ele>151.0</ele><time>2026-04-26T14:08:02.729Z</time></trkpt><trkpt lat="43.0955067" lon="2.5977617"><ele>157.75</ele><time>2026-04-26T14:08:03.73Z</time></trkpt><trkpt lat="43.0954717" lon="2.59758"><ele>164.5</ele><time>2026-04-26T14:08:04.729Z</time></trkpt><trkpt lat="43.0954633" lon="2.597405"><ele>171.25</ele><time>2026-04-26T14:08:05.729Z</time></trkpt><trkpt lat="43.0954667" lon="2.5972467"><ele>178.0</ele><time>2026-04-26T14:08:06.73Z</time></trkpt><trkpt lat="43.0954533" lon="2.59711"><ele>181.0</ele><time>2026-04-26T14:08:07.728Z</time></trkpt><trkpt lat="43.0954217" lon="2.5969783"><ele>184.0</ele><time>2026-04-26T14:08:08.731Z</time></trkpt><trkpt lat="43.0954017" lon="2.596845"><ele>187.0</ele><time>2026-04-26T14:08:09.728Z</time></trkpt><trkpt lat="43.0954133" lon="2.5966983"><ele>190.0</ele><time>2026-04-26T14:08:10.731Z</time></trkpt><trkpt lat="43.09545" lon="2.5965417"><ele>193.0</ele><time>2026-04-26T14:08:11.729Z</time></trkpt><trkpt lat="43.095505" lon="2.59637"><ele>193.0</ele><time>2026-04-26T14:08:12.728Z</time></trkpt><trkpt lat="43.0955617" lon="2.5961933"><ele>193.0</ele><time>2026-04-26T14:08:13.729Z</time></trkpt><trkpt lat="43.0956117" lon="2.596005"><ele>193.0</ele><time>2026-04-26T14:08:14.728Z</time></trkpt><trkpt lat="43.0956567" lon="2.5958017"><ele>193.0</ele><time>2026-04-26T14:08:15.728Z</time></trkpt><trkpt lat="43.0957" lon="2.5955967"><ele>194.66666666666666</ele><time>2026-04-26T14:08:16.729Z</time></trkpt><trkpt lat="43.0957517" lon="2.5954"><ele>196.33333333333331</ele><time>2026-04-26T14:08:17.728Z</time></trkpt><trkpt lat="43.0958067" lon="2.5952"><ele>198.0</ele><time>2026-04-26T14:08:18.729Z</time></trkpt><trkpt lat="43.09586" lon="2.5950017"><ele>198.0</ele><time>2026-04-26T14:08:19.729Z</time></trkpt><trkpt lat="43.095915" lon="2.5948117"><ele>198.0</ele><time>2026-04-26T14:08:20.728Z</time></trkpt><trkpt lat="43.095985" lon="2.59463"><ele>198.0</ele><time>2026-04-26T14:08:21.729Z</time></trkpt><trkpt lat="43.0960717" lon="2.5944583"><ele>201.0</ele><time>2026-04-26T14:08:22.73Z</time></trkpt><trkpt lat="43.0961617" lon="2.5942983"><ele>204.0</ele><time>2026-04-26T14:08:23.728Z</time></trkpt><trkpt lat="43.096255" lon="2.5941533"><ele>207.0</ele><time>2026-04-26T14:08:24.728Z</time></trkpt><trkpt lat="43.0963567" lon="2.5940283"><ele>210.0</ele><time>2026-04-26T14:08:25.729Z</time></trkpt><trkpt lat="43.0964683" lon="2.5939317"><ele>210.0</ele><time>2026-04-26T14:08:26.729Z</time></trkpt><trkpt lat="43.0965767" lon="2.59386"><ele>210.0</ele><time>2026-04-26T14:08:27.73Z</time></trkpt><trkpt lat="43.09667" lon="2.593795"><ele>210.0</ele><time>2026-04-26T14:08:28.728Z</time></trkpt><trkpt lat="43.0967533" lon="2.5937167"><ele>210.0</ele><time>2026-04-26T14:08:29.729Z</time></trkpt><trkpt lat="43.096805" lon="2.5936217"><ele>210.0</ele><time>2026-04-26T14:08:30.729Z</time></trkpt><trkpt lat="43.0968317" lon="2.5935117"><ele>210.75</ele><time>2026-04-26T14:08:31.729Z</time></trkpt><trkpt lat="43.0968267" lon="2.593375"><ele>211.5</ele><time>2026-04-26T14:08:32.729Z</time></trkpt><trkpt lat="43.0968033" lon="2.593205"><ele>212.25</ele><time>2026-04-26T14:08:33.729Z</time></trkpt><trkpt lat="43.0967967" lon="2.5930217"><ele>213.0</ele><time>2026-04-26T14:08:34.728Z</time></trkpt><trkpt lat="43.0967967" lon="2.59285"><ele>214.60000000000002</ele><time>2026-04-26T14:08:35.728Z</time></trkpt><trkpt lat="43.0967967" lon="2.5926933"><ele>216.20000000000002</ele><time>2026-04-26T14:08:36.729Z</time></trkpt><trkpt lat="43.0968067" lon="2.5925517"><ele>217.8</ele><time>2026-04-26T14:08:37.727Z</time></trkpt><trkpt lat="43.09684" lon="2.59243"><ele>219.4</ele><time>2026-04-26T14:08:38.729Z</time></trkpt><trkpt lat="43.0968917" lon="2.5923483"><ele>221.0</ele><time>2026-04-26T14:08:39.73Z</time></trkpt><trkpt lat="43.0969567" lon="2.5922967"><ele>221.0</ele><time>2026-04-26T14:08:40.73Z</time></trkpt><trkpt lat="43.09704" lon="2.5922717"><ele>221.00000000000003</ele><time>2026-04-26T14:08:41.729Z</time></trkpt><trkpt lat="43.0971267" lon="2.5922267"><ele>221.00000000000003</ele><time>2026-04-26T14:08:42.728Z</time></trkpt><trkpt lat="43.0972233" lon="2.592145"><ele>221.0</ele><time>2026-04-26T14:08:43.728Z</time></trkpt><trkpt lat="43.097325" lon="2.5920083"><ele>221.0</ele><time>2026-04-26T14:08:44.729Z</time></trkpt><trkpt lat="43.097425" lon="2.5918717"><ele>221.75</ele><time>2026-04-26T14:08:45.727Z</time></trkpt><trkpt lat="43.09753" lon="2.5917367"><ele>222.5</ele><time>2026-04-26T14:08:46.727Z</time></trkpt><trkpt lat="43.0976333" lon="2.591605"><ele>223.25</ele><time>2026-04-26T14:08:47.727Z</time></trkpt><trkpt lat="43.097725" lon="2.5914767"><ele>224.0</ele><time>2026-04-26T14:08:48.729Z</time></trkpt><trkpt lat="43.097805" lon="2.591365"><ele>224.00000000000003</ele><time>2026-04-26T14:08:49.727Z</time></trkpt><trkpt lat="43.09788" lon="2.5912767"><ele>224.0</ele><time>2026-04-26T14:08:50.728Z</time></trkpt><trkpt lat="43.097955" lon="2.5912333"><ele>224.0</ele><time>2026-04-26T14:08:51.727Z</time></trkpt><trkpt lat="43.0980533" lon="2.5912833"><ele>224.0</ele><time>2026-04-26T14:08:53.729Z</time></trkpt><trkpt lat="43.0980283" lon="2.5913633"><ele>224.00000000000003</ele><time>2026-04-26T14:08:54.736Z</time></trkpt><trkpt lat="43.09798" lon="2.5914417"><ele>224.0</ele><time>2026-04-26T14:08:55.728Z</time></trkpt><trkpt lat="43.09794" lon="2.5915217"><ele>224.0</ele><time>2026-04-26T14:08:56.729Z</time></trkpt><trkpt lat="43.0979517" lon="2.5916317"><ele>223.99999999999997</ele><time>2026-04-26T14:08:58.727Z</time></trkpt><trkpt lat="43.098025" lon="2.59161"><ele>223.99999999999997</ele><time>2026-04-26T14:08:59.727Z</time></trkpt><trkpt lat="43.0980983" lon="2.59156"><ele>224.0</ele><time>2026-04-26T14:09:00.728Z</time></trkpt><trkpt lat="43.0981783" lon="2.591465"><ele>224.0</ele><time>2026-04-26T14:09:01.728Z</time></trkpt><trkpt lat="43.0982717" lon="2.5913633"><ele>226.75</ele><time>2026-04-26T14:09:02.738Z</time></trkpt><trkpt lat="43.0983783" lon="2.5912467"><ele>229.5</ele><time>2026-04-26T14:09:03.727Z</time></trkpt><trkpt lat="43.098495" lon="2.5911333"><ele>232.25</ele><time>2026-04-26T14:09:04.728Z</time></trkpt><trkpt lat="43.0985983" lon="2.5910233"><ele>235.0</ele><time>2026-04-26T14:09:05.727Z</time></trkpt><trkpt lat="43.098685" lon="2.5909267"><ele>235.0</ele><time>2026-04-26T14:09:06.728Z</time></trkpt><trkpt lat="43.0987633" lon="2.5908483"><ele>235.0</ele><time>2026-04-26T14:09:07.728Z</time></trkpt><trkpt lat="43.098835" lon="2.5908"><ele>235.0</ele><time>2026-04-26T14:09:08.729Z</time></trkpt><trkpt lat="43.09894" lon="2.590855"><ele>235.0</ele><time>2026-04-26T14:09:10.727Z</time></trkpt><trkpt lat="43.098945" lon="2.59096"><ele>235.0</ele><time>2026-04-26T14:09:11.728Z</time></trkpt><trkpt lat="43.0989167" lon="2.5910783"><ele>236.0</ele><time>2026-04-26T14:09:12.729Z</time></trkpt><trkpt lat="43.0988767" lon="2.5912"><ele>237.0</ele><time>2026-04-26T14:09:13.727Z</time></trkpt><trkpt lat="43.0988233" lon="2.59135"><ele>238.0</ele><time>2026-04-26T14:09:14.731Z</time></trkpt><trkpt lat="43.09877" lon="2.591495"><ele>239.0</ele><time>2026-04-26T14:09:15.728Z</time></trkpt><trkpt lat="43.09872" lon="2.5916367"><ele>239.00000000000003</ele><time>2026-04-26T14:09:16.728Z</time></trkpt><trkpt lat="43.09867" lon="2.5917617"><ele>239.0</ele><time>2026-04-26T14:09:17.729Z</time></trkpt><trkpt lat="43.0986417" lon="2.5918717"><ele>239.0</ele><time>2026-04-26T14:09:18.729Z</time></trkpt><trkpt lat="43.09863" lon="2.591965"><ele>239.0</ele><time>2026-04-26T14:09:19.728Z</time></trkpt><trkpt lat="43.0987317" lon="2.5919733"><ele>239.00000000000003</ele><time>2026-04-26T14:09:21.727Z</time></trkpt><trkpt lat="43.098785" lon="2.5919167"><ele>239.0</ele><time>2026-04-26T14:09:22.728Z</time></trkpt><trkpt lat="43.0988383" lon="2.5918233"><ele>239.00000000000003</ele><time>2026-04-26T14:09:23.729Z</time></trkpt><trkpt lat="43.0989033" lon="2.5917433"><ele>239.0</ele><time>2026-04-26T14:09:24.728Z</time></trkpt><trkpt lat="43.09897" lon="2.591685"><ele>239.0</ele><time>2026-04-26T14:09:25.728Z</time></trkpt><trkpt lat="43.099045" lon="2.59167"><ele>239.0</ele><time>2026-04-26T14:09:26.729Z</time></trkpt><trkpt lat="43.0991333" lon="2.5916867"><ele>239.00000000000003</ele><time>2026-04-26T14:09:27.728Z</time></trkpt><trkpt lat="43.099235" lon="2.5917167"><ele>239.0</ele><time>2026-04-26T14:09:28.729Z</time></trkpt><trkpt lat="43.0993367" lon="2.5917567"><ele>241.39999999999998</ele><time>2026-04-26T14:09:29.731Z</time></trkpt><trkpt lat="43.09944" lon="2.59179"><ele>243.79999999999998</ele><time>2026-04-26T14:09:30.729Z</time></trkpt><trkpt lat="43.09954" lon="2.5918183"><ele>246.20000000000002</ele><time>2026-04-26T14:09:31.728Z</time></trkpt><trkpt lat="43.09964" lon="2.59184"><ele>248.60000000000002</ele><time>2026-04-26T14:09:32.729Z</time></trkpt><trkpt lat="43.0997383" lon="2.5918517"><ele>251.0</ele><time>2026-04-26T14:09:33.729Z</time></trkpt><trkpt lat="43.09984" lon="2.591845"><ele>252.20000000000002</ele><time>2026-04-26T14:09:34.731Z</time></trkpt><trkpt lat="43.0999433" lon="2.5918233"><ele>253.40000000000003</ele><time>2026-04-26T14:09:35.728Z</time></trkpt><trkpt lat="43.1000433" lon="2.59179"><ele>254.6</ele><time>2026-04-26T14:09:36.729Z</time></trkpt><trkpt lat="43.1001517" lon="2.59175"><ele>255.8</ele><time>2026-04-26T14:09:37.729Z</time></trkpt><trkpt lat="43.1002567" lon="2.5917167"><ele>257.0</ele><time>2026-04-26T14:09:38.728Z</time></trkpt><trkpt lat="43.1003667" lon="2.591685"><ele>257.0</ele><time>2026-04-26T14:09:39.728Z</time></trkpt><trkpt lat="43.100475" lon="2.5916483"><ele>257.0</ele><time>2026-04-26T14:09:40.727Z</time></trkpt><trkpt lat="43.1005833" lon="2.5916083"><ele>257.0</ele><time>2026-04-26T14:09:41.729Z</time></trkpt><trkpt lat="43.1006917" lon="2.5915683"><ele>257.0</ele><time>2026-04-26T14:09:42.731Z</time></trkpt><trkpt lat="43.1008067" lon="2.59154"><ele>259.25</ele><time>2026-04-26T14:09:43.73Z</time></trkpt><trkpt lat="43.1009267" lon="2.5915167"><ele>261.5</ele><time>2026-04-26T14:09:44.729Z</time></trkpt><trkpt lat="43.10105" lon="2.5915083"><ele>263.75</ele><time>2026-04-26T14:09:45.728Z</time></trkpt><trkpt lat="43.101175" lon="2.5915183"><ele>266.0</ele><time>2026-04-26T14:09:46.728Z</time></trkpt><trkpt lat="43.1012983" lon="2.5915333"><ele>266.0</ele><time>2026-04-26T14:09:47.728Z</time></trkpt><trkpt lat="43.101415" lon="2.5915517"><ele>266.0</ele><time>2026-04-26T14:09:48.728Z</time></trkpt><trkpt lat="43.1015283" lon="2.5915717"><ele>266.0</ele><time>2026-04-26T14:09:49.728Z</time></trkpt><trkpt lat="43.1016267" lon="2.59158"><ele>266.0</ele><time>2026-04-26T14:09:50.727Z</time></trkpt><trkpt lat="43.1017183" lon="2.5915667"><ele>266.0</ele><time>2026-04-26T14:09:51.729Z</time></trkpt><trkpt lat="43.1018033" lon="2.591545"><ele>267.0</ele><time>2026-04-26T14:09:52.728Z</time></trkpt><trkpt lat="43.10188" lon="2.5915233"><ele>268.0</ele><time>2026-04-26T14:09:53.727Z</time></trkpt><trkpt lat="43.1019417" lon="2.5914917"><ele>269.0</ele><time>2026-04-26T14:09:54.729Z</time></trkpt><trkpt lat="43.1019983" lon="2.5914433"><ele>270.0</ele><time>2026-04-26T14:09:55.727Z</time></trkpt><trkpt lat="43.102045" lon="2.59137"><ele>271.0</ele><time>2026-04-26T14:09:56.729Z</time></trkpt><trkpt lat="43.1020767" lon="2.59126"><ele>272.0</ele><time>2026-04-26T14:09:57.73Z</time></trkpt><trkpt lat="43.1021017" lon="2.591115"><ele>272.5</ele><time>2026-04-26T14:09:58.727Z</time></trkpt><trkpt lat="43.1021283" lon="2.5909583"><ele>273.0</ele><time>2026-04-26T14:09:59.727Z</time></trkpt><trkpt lat="43.10216" lon="2.5907867"><ele>273.5</ele><time>2026-04-26T14:10:00.728Z</time></trkpt><trkpt lat="43.102185" lon="2.5906017"><ele>274.0</ele><time>2026-04-26T14:10:01.727Z</time></trkpt><trkpt lat="43.1022067" lon="2.5904017"><ele>274.66666666666663</ele><time>2026-04-26T14:10:02.727Z</time></trkpt><trkpt lat="43.1022317" lon="2.590195"><ele>275.3333333333333</ele><time>2026-04-26T14:10:03.728Z</time></trkpt><trkpt lat="43.1022583" lon="2.589985"><ele>276.0</ele><time>2026-04-26T14:10:04.728Z</time></trkpt><trkpt lat="43.10228" lon="2.5897717"><ele>276.0</ele><time>2026-04-26T14:10:05.727Z</time></trkpt><trkpt lat="43.1023" lon="2.5895567"><ele>276.0</ele><time>2026-04-26T14:10:06.729Z</time></trkpt><trkpt lat="43.1023217" lon="2.5893433"><ele>276.0</ele><time>2026-04-26T14:10:07.728Z</time></trkpt><trkpt lat="43.1023383" lon="2.5891233"><ele>276.0</ele><time>2026-04-26T14:10:08.729Z</time></trkpt><trkpt lat="43.1023433" lon="2.5888983"><ele>276.0</ele><time>2026-04-26T14:10:09.728Z</time></trkpt><trkpt lat="43.10234" lon="2.5886733"><ele>276.0</ele><time>2026-04-26T14:10:10.728Z</time></trkpt><trkpt lat="43.102325" lon="2.5884517"><ele>276.3333333333333</ele><time>2026-04-26T14:10:11.73Z</time></trkpt><trkpt lat="43.10231" lon="2.5882333"><ele>276.66666666666663</ele><time>2026-04-26T14:10:12.727Z</time></trkpt><trkpt lat="43.1022983" lon="2.5880233"><ele>277.0</ele><time>2026-04-26T14:10:13.728Z</time></trkpt><trkpt lat="43.102295" lon="2.5878233"><ele>277.75</ele><time>2026-04-26T14:10:14.729Z</time></trkpt><trkpt lat="43.1023017" lon="2.5876233"><ele>278.5</ele><time>2026-04-26T14:10:15.728Z</time></trkpt><trkpt lat="43.1023183" lon="2.58742"><ele>279.25</ele><time>2026-04-26T14:10:16.729Z</time></trkpt><trkpt lat="43.1023483" lon="2.587215"><ele>280.0</ele><time>2026-04-26T14:10:17.728Z</time></trkpt><trkpt lat="43.102385" lon="2.587005"><ele>288.0</ele><time>2026-04-26T14:10:18.733Z</time></trkpt><trkpt lat="43.102425" lon="2.58679"><ele>296.0</ele><time>2026-04-26T14:10:19.728Z</time></trkpt><trkpt lat="43.1024667" lon="2.58657"><ele>304.0</ele><time>2026-04-26T14:10:20.729Z</time></trkpt><trkpt lat="43.1025083" lon="2.58635"><ele>305.0</ele><time>2026-04-26T14:10:21.732Z</time></trkpt><trkpt lat="43.1025533" lon="2.5861317"><ele>306.0</ele><time>2026-04-26T14:10:22.728Z</time></trkpt><trkpt lat="43.102595" lon="2.5859083"><ele>307.0</ele><time>2026-04-26T14:10:23.729Z</time></trkpt><trkpt lat="43.1026317" lon="2.58569"><ele>307.0</ele><time>2026-04-26T14:10:24.729Z</time></trkpt><trkpt lat="43.1026567" lon="2.585485"><ele>307.0</ele><time>2026-04-26T14:10:25.729Z</time></trkpt><trkpt lat="43.1026717" lon="2.585295"><ele>307.0</ele><time>2026-04-26T14:10:26.731Z</time></trkpt><trkpt lat="43.1026817" lon="2.5851117"><ele>307.0</ele><time>2026-04-26T14:10:27.731Z</time></trkpt><trkpt lat="43.1027067" lon="2.58495"><ele>307.0</ele><time>2026-04-26T14:10:28.728Z</time></trkpt><trkpt lat="43.10274" lon="2.5848083"><ele>307.0</ele><time>2026-04-26T14:10:29.728Z</time></trkpt><trkpt lat="43.1027983" lon="2.584685"><ele>307.0</ele><time>2026-04-26T14:10:30.728Z</time></trkpt><trkpt lat="43.102865" lon="2.5845733"><ele>307.0</ele><time>2026-04-26T14:10:31.728Z</time></trkpt><trkpt lat="43.10295" lon="2.5844883"><ele>307.0</ele><time>2026-04-26T14:10:32.729Z</time></trkpt><trkpt lat="43.1030417" lon="2.5844067"><ele>306.0</ele><time>2026-04-26T14:10:33.728Z</time></trkpt><trkpt lat="43.1031483" lon="2.5843317"><ele>305.0</ele><time>2026-04-26T14:10:34.729Z</time></trkpt><trkpt lat="43.1032583" lon="2.5842417"><ele>304.0</ele><time>2026-04-26T14:10:35.728Z</time></trkpt><trkpt lat="43.10337" lon="2.5841233"><ele>303.0</ele><time>2026-04-26T14:10:36.729Z</time></trkpt><trkpt lat="43.103475" lon="2.5839833"><ele>306.5</ele><time>2026-04-26T14:10:37.727Z</time></trkpt><trkpt lat="43.10358" lon="2.5838383"><ele>310.0</ele><time>2026-04-26T14:10:38.734Z</time></trkpt><trkpt lat="43.1036833" lon="2.58369"><ele>313.5</ele><time>2026-04-26T14:10:39.729Z</time></trkpt><trkpt lat="43.103775" lon="2.5835533"><ele>317.0</ele><time>2026-04-26T14:10:40.728Z</time></trkpt><trkpt lat="43.1038533" lon="2.5834233"><ele>317.0</ele><time>2026-04-26T14:10:41.729Z</time></trkpt><trkpt lat="43.1039167" lon="2.58328"><ele>317.0</ele><time>2026-04-26T14:10:42.728Z</time></trkpt><trkpt lat="43.1039717" lon="2.5831183"><ele>317.0</ele><time>2026-04-26T14:10:43.73Z</time></trkpt><trkpt lat="43.1040083" lon="2.58295"><ele>317.0</ele><time>2026-04-26T14:10:44.729Z</time></trkpt><trkpt lat="43.1040333" lon="2.582795"><ele>316.75</ele><time>2026-04-26T14:10:45.728Z</time></trkpt><trkpt lat="43.10405" lon="2.5826367"><ele>316.5</ele><time>2026-04-26T14:10:46.728Z</time></trkpt><trkpt lat="43.104055" lon="2.582475"><ele>316.25</ele><time>2026-04-26T14:10:47.728Z</time></trkpt><trkpt lat="43.10405" lon="2.5823083"><ele>316.0</ele><time>2026-04-26T14:10:48.729Z</time></trkpt><trkpt lat="43.1040367" lon="2.58214"><ele>317.5</ele><time>2026-04-26T14:10:49.73Z</time></trkpt><trkpt lat="43.1040217" lon="2.5819717"><ele>319.0</ele><time>2026-04-26T14:10:50.731Z</time></trkpt><trkpt lat="43.1040017" lon="2.5818017"><ele>320.5</ele><time>2026-04-26T14:10:51.732Z</time></trkpt><trkpt lat="43.103975" lon="2.5816283"><ele>322.0</ele><time>2026-04-26T14:10:52.728Z</time></trkpt><trkpt lat="43.1039483" lon="2.5814517"><ele>322.0</ele><time>2026-04-26T14:10:53.728Z</time></trkpt><trkpt lat="43.1039183" lon="2.5812733"><ele>322.0</ele><time>2026-04-26T14:10:54.728Z</time></trkpt><trkpt lat="43.1038833" lon="2.58109"><ele>322.0</ele><time>2026-04-26T14:10:55.729Z</time></trkpt><trkpt lat="43.1038433" lon="2.5808933"><ele>322.0</ele><time>2026-04-26T14:10:56.729Z</time></trkpt><trkpt lat="43.1038017" lon="2.5806817"><ele>323.3333333333333</ele><time>2026-04-26T14:10:57.729Z</time></trkpt><trkpt lat="43.1037567" lon="2.580465"><ele>324.6666666666667</ele><time>2026-04-26T14:10:58.727Z</time></trkpt><trkpt lat="43.1037133" lon="2.5802483"><ele>326.0</ele><time>2026-04-26T14:10:59.728Z</time></trkpt><trkpt lat="43.103675" lon="2.5800367"><ele>327.25</ele><time>2026-04-26T14:11:00.727Z</time></trkpt><trkpt lat="43.1036483" lon="2.57984"><ele>328.5</ele><time>2026-04-26T14:11:01.728Z</time></trkpt><trkpt lat="43.1036267" lon="2.5796433"><ele>329.75</ele><time>2026-04-26T14:11:02.728Z</time></trkpt><trkpt lat="43.1036033" lon="2.5794367"><ele>331.0</ele><time>2026-04-26T14:11:03.729Z</time></trkpt><trkpt lat="43.1035783" lon="2.5792283"><ele>332.66666666666663</ele><time>2026-04-26T14:11:04.728Z</time></trkpt><trkpt lat="43.1035467" lon="2.5790167"><ele>334.3333333333333</ele><time>2026-04-26T14:11:05.728Z</time></trkpt><trkpt lat="43.1035033" lon="2.57881"><ele>336.0</ele><time>2026-04-26T14:11:06.73Z</time></trkpt><trkpt lat="43.1034383" lon="2.5786033"><ele>337.0</ele><time>2026-04-26T14:11:07.728Z</time></trkpt><trkpt lat="43.1033617" lon="2.5784"><ele>338.0</ele><time>2026-04-26T14:11:08.73Z</time></trkpt><trkpt lat="43.1032783" lon="2.5781967"><ele>339.0</ele><time>2026-04-26T14:11:09.727Z</time></trkpt><trkpt lat="43.1032" lon="2.5779867"><ele>341.6666666666667</ele><time>2026-04-26T14:11:10.729Z</time></trkpt><trkpt lat="43.10313" lon="2.5777733"><ele>344.33333333333337</ele><time>2026-04-26T14:11:11.728Z</time></trkpt><trkpt lat="43.1030617" lon="2.577565"><ele>347.0</ele><time>2026-04-26T14:11:12.728Z</time></trkpt><trkpt lat="43.1029883" lon="2.5773733"><ele>347.0</ele><time>2026-04-26T14:11:13.728Z</time></trkpt><trkpt lat="43.1029117" lon="2.5771967"><ele>347.0</ele><time>2026-04-26T14:11:14.729Z</time></trkpt><trkpt lat="43.1028317" lon="2.5770283"><ele>347.0</ele><time>2026-04-26T14:11:15.729Z</time></trkpt><trkpt lat="43.10276" lon="2.57686"><ele>347.0</ele><time>2026-04-26T14:11:16.728Z</time></trkpt><trkpt lat="43.1027017" lon="2.576675"><ele>347.33333333333337</ele><time>2026-04-26T14:11:17.729Z</time></trkpt><trkpt lat="43.102665" lon="2.5764767"><ele>347.6666666666667</ele><time>2026-04-26T14:11:18.73Z</time></trkpt><trkpt lat="43.1026467" lon="2.5762683"><ele>348.0</ele><time>2026-04-26T14:11:19.73Z</time></trkpt><trkpt lat="43.1026433" lon="2.5760567"><ele>348.0</ele><time>2026-04-26T14:11:20.73Z</time></trkpt><trkpt lat="43.102645" lon="2.575845"><ele>348.0</ele><time>2026-04-26T14:11:21.73Z</time></trkpt><trkpt lat="43.1026483" lon="2.5756283"><ele>348.0</ele><time>2026-04-26T14:11:22.729Z</time></trkpt><trkpt lat="43.1026533" lon="2.575415"><ele>348.0</ele><time>2026-04-26T14:11:23.729Z</time></trkpt><trkpt lat="43.102655" lon="2.57521"><ele>348.0</ele><time>2026-04-26T14:11:24.729Z</time></trkpt><trkpt lat="43.10266" lon="2.5750167"><ele>348.0</ele><time>2026-04-26T14:11:25.727Z</time></trkpt><trkpt lat="43.1026767" lon="2.574835"><ele>348.0</ele><time>2026-04-26T14:11:26.73Z</time></trkpt><trkpt lat="43.1027117" lon="2.5746633"><ele>347.75</ele><time>2026-04-26T14:11:27.728Z</time></trkpt><trkpt lat="43.1027667" lon="2.5744983"><ele>347.5</ele><time>2026-04-26T14:11:28.729Z</time></trkpt><trkpt lat="43.1028433" lon="2.5743333"><ele>347.25</ele><time>2026-04-26T14:11:29.728Z</time></trkpt><trkpt lat="43.10294" lon="2.57417"><ele>347.0</ele><time>2026-04-26T14:11:30.728Z</time></trkpt><trkpt lat="43.103055" lon="2.5740017"><ele>347.0</ele><time>2026-04-26T14:11:31.734Z</time></trkpt><trkpt lat="43.10318" lon="2.57383"><ele>347.0</ele><time>2026-04-26T14:11:32.729Z</time></trkpt><trkpt lat="43.1033133" lon="2.5736467"><ele>347.0</ele><time>2026-04-26T14:11:33.728Z</time></trkpt><trkpt lat="43.1034467" lon="2.573455"><ele>347.33333333333337</ele><time>2026-04-26T14:11:34.729Z</time></trkpt><trkpt lat="43.103585" lon="2.5732583"><ele>347.6666666666667</ele><time>2026-04-26T14:11:35.731Z</time></trkpt><trkpt lat="43.1037117" lon="2.57306"><ele>348.0</ele><time>2026-04-26T14:11:36.73Z</time></trkpt><trkpt lat="43.1038283" lon="2.57287"><ele>348.3333333333333</ele><time>2026-04-26T14:11:37.731Z</time></trkpt><trkpt lat="43.1039417" lon="2.5726967"><ele>348.66666666666663</ele><time>2026-04-26T14:11:38.729Z</time></trkpt><trkpt lat="43.1040633" lon="2.572535"><ele>349.0</ele><time>2026-04-26T14:11:39.73Z</time></trkpt><trkpt lat="43.1041883" lon="2.5723717"><ele>351.0</ele><time>2026-04-26T14:11:40.731Z</time></trkpt><trkpt lat="43.1043133" lon="2.5721967"><ele>353.0</ele><time>2026-04-26T14:11:41.729Z</time></trkpt><trkpt lat="43.104435" lon="2.5720117"><ele>355.0</ele><time>2026-04-26T14:11:42.728Z</time></trkpt><trkpt lat="43.10456" lon="2.5718233"><ele>355.66666666666663</ele><time>2026-04-26T14:11:43.729Z</time></trkpt><trkpt lat="43.104685" lon="2.571635"><ele>356.3333333333333</ele><time>2026-04-26T14:11:44.73Z</time></trkpt><trkpt lat="43.1048067" lon="2.5714483"><ele>357.0</ele><time>2026-04-26T14:11:45.728Z</time></trkpt><trkpt lat="43.104925" lon="2.571255"><ele>359.0</ele><time>2026-04-26T14:11:46.728Z</time></trkpt><trkpt lat="43.1050383" lon="2.5710533"><ele>361.0</ele><time>2026-04-26T14:11:47.73Z</time></trkpt><trkpt lat="43.1051467" lon="2.57085"><ele>363.0</ele><time>2026-04-26T14:11:48.73Z</time></trkpt><trkpt lat="43.1052583" lon="2.57065"><ele>363.0</ele><time>2026-04-26T14:11:49.729Z</time></trkpt><trkpt lat="43.1053767" lon="2.57045"><ele>363.0</ele><time>2026-04-26T14:11:50.73Z</time></trkpt><trkpt lat="43.1054983" lon="2.5702467"><ele>363.0</ele><time>2026-04-26T14:11:51.73Z</time></trkpt><trkpt lat="43.10562" lon="2.5700283"><ele>363.0</ele><time>2026-04-26T14:11:52.729Z</time></trkpt><trkpt lat="43.1057383" lon="2.5697967"><ele>363.0</ele><time>2026-04-26T14:11:53.729Z</time></trkpt><trkpt lat="43.1058567" lon="2.5695617"><ele>363.0</ele><time>2026-04-26T14:11:54.728Z</time></trkpt><trkpt lat="43.1059817" lon="2.5693217"><ele>362.6666666666667</ele><time>2026-04-26T14:11:55.729Z</time></trkpt><trkpt lat="43.1061117" lon="2.56908"><ele>362.33333333333337</ele><time>2026-04-26T14:11:56.728Z</time></trkpt><trkpt lat="43.106245" lon="2.568835"><ele>362.0</ele><time>2026-04-26T14:11:57.729Z</time></trkpt><trkpt lat="43.10638" lon="2.5685917"><ele>361.0</ele><time>2026-04-26T14:11:58.729Z</time></trkpt><trkpt lat="43.106515" lon="2.5683517"><ele>360.0</ele><time>2026-04-26T14:11:59.728Z</time></trkpt><trkpt lat="43.10665" lon="2.5681067"><ele>359.0</ele><time>2026-04-26T14:12:00.728Z</time></trkpt><trkpt lat="43.1067783" lon="2.56786"><ele>358.6666666666667</ele><time>2026-04-26T14:12:01.728Z</time></trkpt><trkpt lat="43.1068967" lon="2.567625"><ele>358.3333333333333</ele><time>2026-04-26T14:12:02.729Z</time></trkpt><trkpt lat="43.10701" lon="2.5673883"><ele>358.0</ele><time>2026-04-26T14:12:03.728Z</time></trkpt><trkpt lat="43.1071267" lon="2.5671567"><ele>358.3333333333333</ele><time>2026-04-26T14:12:04.73Z</time></trkpt><trkpt lat="43.1072433" lon="2.5669367"><ele>358.6666666666667</ele><time>2026-04-26T14:12:05.729Z</time></trkpt><trkpt lat="43.10736" lon="2.566735"><ele>359.0</ele><time>2026-04-26T14:12:06.728Z</time></trkpt><trkpt lat="43.1074783" lon="2.56656"><ele>359.0</ele><time>2026-04-26T14:12:07.729Z</time></trkpt><trkpt lat="43.1076083" lon="2.5663983"><ele>359.0</ele><time>2026-04-26T14:12:08.729Z</time></trkpt><trkpt lat="43.10775" lon="2.5662417"><ele>359.0</ele><time>2026-04-26T14:12:09.728Z</time></trkpt><trkpt lat="43.1079" lon="2.566085"><ele>359.0</ele><time>2026-04-26T14:12:10.729Z</time></trkpt><trkpt lat="43.10804" lon="2.5659217"><ele>359.0</ele><time>2026-04-26T14:12:11.728Z</time></trkpt><trkpt lat="43.108165" lon="2.5657533"><ele>359.0</ele><time>2026-04-26T14:12:12.735Z</time></trkpt><trkpt lat="43.1082733" lon="2.5655767"><ele>361.0</ele><time>2026-04-26T14:12:13.729Z</time></trkpt><trkpt lat="43.1083617" lon="2.5653933"><ele>363.0</ele><time>2026-04-26T14:12:14.729Z</time></trkpt><trkpt lat="43.10843" lon="2.5651917"><ele>365.0</ele><time>2026-04-26T14:12:15.728Z</time></trkpt><trkpt lat="43.1084817" lon="2.5649667"><ele>365.33333333333337</ele><time>2026-04-26T14:12:16.728Z</time></trkpt><trkpt lat="43.1085317" lon="2.5647317"><ele>365.6666666666667</ele><time>2026-04-26T14:12:17.729Z</time></trkpt><trkpt lat="43.108585" lon="2.564485"><ele>366.0</ele><time>2026-04-26T14:12:18.731Z</time></trkpt><trkpt lat="43.1086367" lon="2.56423"><ele>366.0</ele><time>2026-04-26T14:12:19.73Z</time></trkpt><trkpt lat="43.1086917" lon="2.5639667"><ele>366.0</ele><time>2026-04-26T14:12:20.732Z</time></trkpt><trkpt lat="43.1087483" lon="2.563695"><ele>366.0</ele><time>2026-04-26T14:12:21.729Z</time></trkpt><trkpt lat="43.108805" lon="2.5634167"><ele>365.0</ele><time>2026-04-26T14:12:22.729Z</time></trkpt><trkpt lat="43.1088517" lon="2.56314"><ele>364.0</ele><time>2026-04-26T14:12:23.728Z</time></trkpt><trkpt lat="43.1088833" lon="2.56288"><ele>363.0</ele><time>2026-04-26T14:12:24.728Z</time></trkpt><trkpt lat="43.1089017" lon="2.5626417"><ele>363.0</ele><time>2026-04-26T14:12:25.729Z</time></trkpt><trkpt lat="43.1089117" lon="2.5624233"><ele>363.0</ele><time>2026-04-26T14:12:26.729Z</time></trkpt><trkpt lat="43.108925" lon="2.5622167"><ele>363.0</ele><time>2026-04-26T14:12:27.73Z</time></trkpt><trkpt lat="43.108945" lon="2.5620117"><ele>363.6666666666667</ele><time>2026-04-26T14:12:28.729Z</time></trkpt><trkpt lat="43.1089767" lon="2.5618017"><ele>364.33333333333337</ele><time>2026-04-26T14:12:29.728Z</time></trkpt><trkpt lat="43.1090233" lon="2.561585"><ele>365.0</ele><time>2026-04-26T14:12:30.729Z</time></trkpt><trkpt lat="43.1090817" lon="2.5613617"><ele>369.0</ele><time>2026-04-26T14:12:31.73Z</time></trkpt><trkpt lat="43.109135" lon="2.5611317"><ele>373.0</ele><time>2026-04-26T14:12:32.73Z</time></trkpt><trkpt lat="43.1091767" lon="2.5608917"><ele>377.0</ele><time>2026-04-26T14:12:33.733Z</time></trkpt><trkpt lat="43.10921" lon="2.56064"><ele>377.0</ele><time>2026-04-26T14:12:34.728Z</time></trkpt><trkpt lat="43.1092383" lon="2.56038"><ele>377.0</ele><time>2026-04-26T14:12:35.729Z</time></trkpt><trkpt lat="43.1092567" lon="2.5601083"><ele>377.0</ele><time>2026-04-26T14:12:36.729Z</time></trkpt><trkpt lat="43.10927" lon="2.559825"><ele>376.6666666666667</ele><time>2026-04-26T14:12:37.728Z</time></trkpt><trkpt lat="43.1092817" lon="2.559535"><ele>376.3333333333333</ele><time>2026-04-26T14:12:38.731Z</time></trkpt><trkpt lat="43.1093017" lon="2.5592433"><ele>376.0</ele><time>2026-04-26T14:12:39.729Z</time></trkpt><trkpt lat="43.1093233" lon="2.5589517"><ele>376.3333333333333</ele><time>2026-04-26T14:12:40.729Z</time></trkpt><trkpt lat="43.1093383" lon="2.5586583"><ele>376.6666666666667</ele><time>2026-04-26T14:12:41.728Z</time></trkpt><trkpt lat="43.1093533" lon="2.55837"><ele>377.0</ele><time>2026-04-26T14:12:42.728Z</time></trkpt><trkpt lat="43.1093667" lon="2.5580867"><ele>376.6666666666667</ele><time>2026-04-26T14:12:43.728Z</time></trkpt><trkpt lat="43.1093817" lon="2.5578033"><ele>376.3333333333333</ele><time>2026-04-26T14:12:44.735Z</time></trkpt><trkpt lat="43.1093983" lon="2.5575233"><ele>376.0</ele><time>2026-04-26T14:12:45.728Z</time></trkpt><trkpt lat="43.1094117" lon="2.557265"><ele>376.3333333333333</ele><time>2026-04-26T14:12:46.73Z</time></trkpt><trkpt lat="43.10942" lon="2.5570233"><ele>376.6666666666667</ele><time>2026-04-26T14:12:47.729Z</time></trkpt><trkpt lat="43.1094217" lon="2.5568"><ele>377.0</ele><time>2026-04-26T14:12:48.729Z</time></trkpt><trkpt lat="43.109425" lon="2.5565817"><ele>377.0</ele><time>2026-04-26T14:12:49.73Z</time></trkpt><trkpt lat="43.1094317" lon="2.5563583"><ele>377.0</ele><time>2026-04-26T14:12:50.731Z</time></trkpt><trkpt lat="43.1094283" lon="2.5561233"><ele>377.0</ele><time>2026-04-26T14:12:51.73Z</time></trkpt><trkpt lat="43.1094183" lon="2.55588"><ele>376.0</ele><time>2026-04-26T14:12:52.73Z</time></trkpt><trkpt lat="43.10941" lon="2.55564"><ele>375.0</ele><time>2026-04-26T14:12:53.731Z</time></trkpt><trkpt lat="43.1094083" lon="2.55541"><ele>374.0</ele><time>2026-04-26T14:12:54.731Z</time></trkpt><trkpt lat="43.109405" lon="2.5551867"><ele>373.0</ele><time>2026-04-26T14:12:55.728Z</time></trkpt><trkpt lat="43.1093967" lon="2.55497"><ele>372.0</ele><time>2026-04-26T14:12:56.731Z</time></trkpt><trkpt lat="43.1093833" lon="2.5547633"><ele>371.0</ele><time>2026-04-26T14:12:57.728Z</time></trkpt><trkpt lat="43.1093717" lon="2.5545633"><ele>370.25</ele><time>2026-04-26T14:12:58.729Z</time></trkpt><trkpt lat="43.1093733" lon="2.554375"><ele>369.5</ele><time>2026-04-26T14:12:59.728Z</time></trkpt><trkpt lat="43.109395" lon="2.554195"><ele>368.75</ele><time>2026-04-26T14:13:00.73Z</time></trkpt><trkpt lat="43.1094383" lon="2.554015"><ele>368.0</ele><time>2026-04-26T14:13:01.728Z</time></trkpt><trkpt lat="43.1094983" lon="2.55383"><ele>367.0</ele><time>2026-04-26T14:13:02.729Z</time></trkpt><trkpt lat="43.1095733" lon="2.55364"><ele>366.0</ele><time>2026-04-26T14:13:03.729Z</time></trkpt><trkpt lat="43.1096567" lon="2.5534533"><ele>365.0</ele><time>2026-04-26T14:13:04.729Z</time></trkpt><trkpt lat="43.1097267" lon="2.5532633"><ele>365.0</ele><time>2026-04-26T14:13:05.728Z</time></trkpt><trkpt lat="43.10979" lon="2.5530767"><ele>365.0</ele><time>2026-04-26T14:13:06.728Z</time></trkpt><trkpt lat="43.1098583" lon="2.5529"><ele>365.0</ele><time>2026-04-26T14:13:07.729Z</time></trkpt><trkpt lat="43.1099383" lon="2.5527433"><ele>365.0</ele><time>2026-04-26T14:13:08.729Z</time></trkpt><trkpt lat="43.1100367" lon="2.5526017"><ele>363.0</ele><time>2026-04-26T14:13:09.73Z</time></trkpt><trkpt lat="43.1101517" lon="2.5524683"><ele>361.0</ele><time>2026-04-26T14:13:10.731Z</time></trkpt><trkpt lat="43.1102733" lon="2.5523267"><ele>359.0</ele><time>2026-04-26T14:13:11.728Z</time></trkpt><trkpt lat="43.1103917" lon="2.55216"><ele>357.6666666666667</ele><time>2026-04-26T14:13:12.728Z</time></trkpt><trkpt lat="43.1105083" lon="2.5519667"><ele>356.3333333333333</ele><time>2026-04-26T14:13:13.728Z</time></trkpt><trkpt lat="43.1106233" lon="2.551765"><ele>355.0</ele><time>2026-04-26T14:13:14.729Z</time></trkpt><trkpt lat="43.1107367" lon="2.5515567"><ele>354.3333333333333</ele><time>2026-04-26T14:13:15.729Z</time></trkpt><trkpt lat="43.1108567" lon="2.551335"><ele>353.6666666666667</ele><time>2026-04-26T14:13:16.73Z</time></trkpt><trkpt lat="43.110975" lon="2.5511033"><ele>353.0</ele><time>2026-04-26T14:13:17.73Z</time></trkpt><trkpt lat="43.1110883" lon="2.550865"><ele>352.33333333333337</ele><time>2026-04-26T14:13:18.729Z</time></trkpt><trkpt lat="43.1112" lon="2.5506383"><ele>351.6666666666667</ele><time>2026-04-26T14:13:19.728Z</time></trkpt><trkpt lat="43.1113083" lon="2.55043"><ele>351.0</ele><time>2026-04-26T14:13:20.729Z</time></trkpt><trkpt lat="43.1114117" lon="2.5502383"><ele>350.0</ele><time>2026-04-26T14:13:21.729Z</time></trkpt><trkpt lat="43.1115083" lon="2.5500583"><ele>349.0</ele><time>2026-04-26T14:13:22.729Z</time></trkpt><trkpt lat="43.1116033" lon="2.549885"><ele>348.0</ele><time>2026-04-26T14:13:23.729Z</time></trkpt><trkpt lat="43.1116917" lon="2.5497217"><ele>347.25</ele><time>2026-04-26T14:13:24.732Z</time></trkpt><trkpt lat="43.1117633" lon="2.54956"><ele>346.5</ele><time>2026-04-26T14:13:25.728Z</time></trkpt><trkpt lat="43.11181" lon="2.54939"><ele>345.75</ele><time>2026-04-26T14:13:26.729Z</time></trkpt><trkpt lat="43.1118233" lon="2.5491983"><ele>345.0</ele><time>2026-04-26T14:13:27.727Z</time></trkpt><trkpt lat="43.1118183" lon="2.5489883"><ele>344.6666666666667</ele><time>2026-04-26T14:13:28.728Z</time></trkpt><trkpt lat="43.11181" lon="2.54877"><ele>344.33333333333337</ele><time>2026-04-26T14:13:29.73Z</time></trkpt><trkpt lat="43.1118" lon="2.5485367"><ele>344.0</ele><time>2026-04-26T14:13:30.729Z</time></trkpt><trkpt lat="43.111785" lon="2.5483"><ele>343.6666666666667</ele><time>2026-04-26T14:13:31.73Z</time></trkpt><trkpt lat="43.1117683" lon="2.54805"><ele>343.3333333333333</ele><time>2026-04-26T14:13:32.728Z</time></trkpt><trkpt lat="43.1117533" lon="2.5477933"><ele>343.0</ele><time>2026-04-26T14:13:33.727Z</time></trkpt><trkpt lat="43.1117383" lon="2.54753"><ele>341.3333333333333</ele><time>2026-04-26T14:13:34.728Z</time></trkpt><trkpt lat="43.1117183" lon="2.5472617"><ele>339.6666666666667</ele><time>2026-04-26T14:13:35.727Z</time></trkpt><trkpt lat="43.1117033" lon="2.5469917"><ele>338.0</ele><time>2026-04-26T14:13:36.728Z</time></trkpt><trkpt lat="43.1116883" lon="2.546745"><ele>337.0</ele><time>2026-04-26T14:13:37.727Z</time></trkpt><trkpt lat="43.111675" lon="2.5465083"><ele>336.0</ele><time>2026-04-26T14:13:38.728Z</time></trkpt><trkpt lat="43.111665" lon="2.5462817"><ele>335.0</ele><time>2026-04-26T14:13:39.728Z</time></trkpt><trkpt lat="43.1116583" lon="2.54606"><ele>334.6666666666667</ele><time>2026-04-26T14:13:40.729Z</time></trkpt><trkpt lat="43.1116367" lon="2.545835"><ele>334.3333333333333</ele><time>2026-04-26T14:13:41.727Z</time></trkpt><trkpt lat="43.1116" lon="2.5456183"><ele>334.0</ele><time>2026-04-26T14:13:42.727Z</time></trkpt><trkpt lat="43.1115533" lon="2.5454183"><ele>332.75</ele><time>2026-04-26T14:13:43.727Z</time></trkpt><trkpt lat="43.1114983" lon="2.5452383"><ele>331.5</ele><time>2026-04-26T14:13:44.728Z</time></trkpt><trkpt lat="43.1114417" lon="2.5450917"><ele>330.25</ele><time>2026-04-26T14:13:45.727Z</time></trkpt><trkpt lat="43.1113783" lon="2.544975"><ele>329.0</ele><time>2026-04-26T14:13:46.728Z</time></trkpt><trkpt lat="43.1113" lon="2.5448767"><ele>329.0</ele><time>2026-04-26T14:13:47.728Z</time></trkpt><trkpt lat="43.1111917" lon="2.54479"><ele>329.0</ele><time>2026-04-26T14:13:48.727Z</time></trkpt><trkpt lat="43.1110667" lon="2.5447017"><ele>329.0</ele><time>2026-04-26T14:13:49.729Z</time></trkpt><trkpt lat="43.110935" lon="2.5446167"><ele>329.0</ele><time>2026-04-26T14:13:50.727Z</time></trkpt><trkpt lat="43.1108" lon="2.5445267"><ele>329.0</ele><time>2026-04-26T14:13:51.727Z</time></trkpt><trkpt lat="43.1106617" lon="2.54443"><ele>329.0</ele><time>2026-04-26T14:13:52.73Z</time></trkpt><trkpt lat="43.1105167" lon="2.5443317"><ele>329.0</ele><time>2026-04-26T14:13:53.729Z</time></trkpt><trkpt lat="43.1103683" lon="2.5442267"><ele>329.0</ele><time>2026-04-26T14:13:54.727Z</time></trkpt><trkpt lat="43.1102133" lon="2.5441267"><ele>329.0</ele><time>2026-04-26T14:13:55.727Z</time></trkpt><trkpt lat="43.1100683" lon="2.5440367"><ele>329.0</ele><time>2026-04-26T14:13:56.731Z</time></trkpt><trkpt lat="43.109935" lon="2.54395"><ele>328.75</ele><time>2026-04-26T14:13:57.727Z</time></trkpt><trkpt lat="43.1098083" lon="2.54386"><ele>328.5</ele><time>2026-04-26T14:13:58.728Z</time></trkpt><trkpt lat="43.1096933" lon="2.5437717"><ele>328.25</ele><time>2026-04-26T14:13:59.727Z</time></trkpt><trkpt lat="43.1095967" lon="2.5436733"><ele>328.0</ele><time>2026-04-26T14:14:00.728Z</time></trkpt><trkpt lat="43.1095167" lon="2.5435633"><ele>328.0</ele><time>2026-04-26T14:14:01.728Z</time></trkpt><trkpt lat="43.1094533" lon="2.5434267"><ele>328.0</ele><time>2026-04-26T14:14:02.731Z</time></trkpt><trkpt lat="43.109405" lon="2.54326"><ele>328.0</ele><time>2026-04-26T14:14:03.727Z</time></trkpt><trkpt lat="43.1093667" lon="2.5430933"><ele>328.0</ele><time>2026-04-26T14:14:04.727Z</time></trkpt><trkpt lat="43.1093317" lon="2.542935"><ele>327.25</ele><time>2026-04-26T14:14:05.729Z</time></trkpt><trkpt lat="43.1093083" lon="2.5427783"><ele>326.5</ele><time>2026-04-26T14:14:06.729Z</time></trkpt><trkpt lat="43.1093" lon="2.5426233"><ele>325.75</ele><time>2026-04-26T14:14:07.727Z</time></trkpt><trkpt lat="43.109315" lon="2.542465"><ele>325.0</ele><time>2026-04-26T14:14:08.727Z</time></trkpt><trkpt lat="43.1093467" lon="2.5422983"><ele>325.0</ele><time>2026-04-26T14:14:09.73Z</time></trkpt><trkpt lat="43.1093867" lon="2.5421133"><ele>325.0</ele><time>2026-04-26T14:14:10.729Z</time></trkpt><trkpt lat="43.1094133" lon="2.54191"><ele>325.0</ele><time>2026-04-26T14:14:11.728Z</time></trkpt><trkpt lat="43.1094383" lon="2.54171"><ele>325.0</ele><time>2026-04-26T14:14:12.728Z</time></trkpt><trkpt lat="43.109475" lon="2.5415083"><ele>323.0</ele><time>2026-04-26T14:14:13.728Z</time></trkpt><trkpt lat="43.10952" lon="2.5413083"><ele>321.0</ele><time>2026-04-26T14:14:14.73Z</time></trkpt><trkpt lat="43.109575" lon="2.5411083"><ele>319.0</ele><time>2026-04-26T14:14:15.727Z</time></trkpt><trkpt lat="43.109645" lon="2.5409067"><ele>317.0</ele><time>2026-04-26T14:14:16.728Z</time></trkpt><trkpt lat="43.1097267" lon="2.5407017"><ele>315.0</ele><time>2026-04-26T14:14:17.729Z</time></trkpt><trkpt lat="43.10982" lon="2.5404933"><ele>313.0</ele><time>2026-04-26T14:14:18.728Z</time></trkpt><trkpt lat="43.1099183" lon="2.5402817"><ele>313.0</ele><time>2026-04-26T14:14:19.73Z</time></trkpt><trkpt lat="43.1100167" lon="2.5400767"><ele>313.0</ele><time>2026-04-26T14:14:20.728Z</time></trkpt><trkpt lat="43.1101133" lon="2.5398883"><ele>313.0</ele><time>2026-04-26T14:14:21.729Z</time></trkpt><trkpt lat="43.1102017" lon="2.5397033"><ele>311.75</ele><time>2026-04-26T14:14:22.727Z</time></trkpt><trkpt lat="43.11028" lon="2.5395217"><ele>310.5</ele><time>2026-04-26T14:14:23.727Z</time></trkpt><trkpt lat="43.1103517" lon="2.5393417"><ele>309.25</ele><time>2026-04-26T14:14:24.732Z</time></trkpt><trkpt lat="43.1104267" lon="2.5391783"><ele>308.0</ele><time>2026-04-26T14:14:25.728Z</time></trkpt><trkpt lat="43.1105017" lon="2.539025"><ele>308.0</ele><time>2026-04-26T14:14:26.729Z</time></trkpt><trkpt lat="43.1105667" lon="2.5388717"><ele>308.0</ele><time>2026-04-26T14:14:27.73Z</time></trkpt><trkpt lat="43.110625" lon="2.5387183"><ele>308.0</ele><time>2026-04-26T14:14:28.728Z</time></trkpt><trkpt lat="43.1106883" lon="2.5385733"><ele>308.0</ele><time>2026-04-26T14:14:29.728Z</time></trkpt><trkpt lat="43.110775" lon="2.5384367"><ele>306.25</ele><time>2026-04-26T14:14:30.727Z</time></trkpt><trkpt lat="43.1108783" lon="2.53831"><ele>304.5</ele><time>2026-04-26T14:14:31.727Z</time></trkpt><trkpt lat="43.1109833" lon="2.5381917"><ele>302.75</ele><time>2026-04-26T14:14:32.729Z</time></trkpt><trkpt lat="43.1110783" lon="2.5380733"><ele>301.0</ele><time>2026-04-26T14:14:33.729Z</time></trkpt><trkpt lat="43.11117" lon="2.53794"><ele>300.5</ele><time>2026-04-26T14:14:34.727Z</time></trkpt><trkpt lat="43.111255" lon="2.5377917"><ele>300.0</ele><time>2026-04-26T14:14:35.728Z</time></trkpt><trkpt lat="43.1113333" lon="2.5376367"><ele>299.5</ele><time>2026-04-26T14:14:36.81Z</time></trkpt><trkpt lat="43.1114033" lon="2.53748"><ele>299.0</ele><time>2026-04-26T14:14:37.728Z</time></trkpt><trkpt lat="43.111465" lon="2.53731"><ele>299.0</ele><time>2026-04-26T14:14:38.728Z</time></trkpt><trkpt lat="43.111525" lon="2.5371317"><ele>299.0</ele><time>2026-04-26T14:14:39.728Z</time></trkpt><trkpt lat="43.111585" lon="2.5369633"><ele>299.0</ele><time>2026-04-26T14:14:40.727Z</time></trkpt><trkpt lat="43.111645" lon="2.536805"><ele>299.0</ele><time>2026-04-26T14:14:41.727Z</time></trkpt><trkpt lat="43.1117017" lon="2.5366583"><ele>296.0</ele><time>2026-04-26T14:14:42.727Z</time></trkpt><trkpt lat="43.1117483" lon="2.5365183"><ele>293.0</ele><time>2026-04-26T14:14:43.728Z</time></trkpt><trkpt lat="43.111785" lon="2.53638"><ele>290.0</ele><time>2026-04-26T14:14:44.73Z</time></trkpt><trkpt lat="43.1118" lon="2.5362383"><ele>287.0</ele><time>2026-04-26T14:14:45.728Z</time></trkpt><trkpt lat="43.111795" lon="2.5361017"><ele>284.0</ele><time>2026-04-26T14:14:46.727Z</time></trkpt><trkpt lat="43.1118" lon="2.535975"><ele>282.8</ele><time>2026-04-26T14:14:47.728Z</time></trkpt><trkpt lat="43.1118117" lon="2.5358483"><ele>281.59999999999997</ele><time>2026-04-26T14:14:48.728Z</time></trkpt><trkpt lat="43.1118367" lon="2.535725"><ele>280.4</ele><time>2026-04-26T14:14:49.729Z</time></trkpt><trkpt lat="43.111885" lon="2.5356167"><ele>279.2</ele><time>2026-04-26T14:14:50.728Z</time></trkpt><trkpt lat="43.1119567" lon="2.5355267"><ele>278.0</ele><time>2026-04-26T14:14:51.727Z</time></trkpt><trkpt lat="43.1120467" lon="2.5354617"><ele>278.0</ele><time>2026-04-26T14:14:52.728Z</time></trkpt><trkpt lat="43.1121433" lon="2.5354167"><ele>278.0</ele><time>2026-04-26T14:14:53.728Z</time></trkpt><trkpt lat="43.1122283" lon="2.5353733"><ele>278.0</ele><time>2026-04-26T14:14:54.727Z</time></trkpt><trkpt lat="43.1123083" lon="2.53534"><ele>278.0</ele><time>2026-04-26T14:14:55.727Z</time></trkpt><trkpt lat="43.1123867" lon="2.5353183"><ele>278.0</ele><time>2026-04-26T14:14:56.729Z</time></trkpt><trkpt lat="43.1124683" lon="2.5353483"><ele>278.0</ele><time>2026-04-26T14:14:57.729Z</time></trkpt><trkpt lat="43.1125467" lon="2.53541"><ele>276.5</ele><time>2026-04-26T14:14:58.727Z</time></trkpt><trkpt lat="43.1126167" lon="2.5354817"><ele>275.0</ele><time>2026-04-26T14:14:59.728Z</time></trkpt><trkpt lat="43.1126883" lon="2.535535"><ele>273.5</ele><time>2026-04-26T14:15:00.728Z</time></trkpt><trkpt lat="43.11276" lon="2.5355317"><ele>272.0</ele><time>2026-04-26T14:15:01.727Z</time></trkpt><trkpt lat="43.11283" lon="2.5354783"><ele>270.5</ele><time>2026-04-26T14:15:02.727Z</time></trkpt><trkpt lat="43.1128967" lon="2.535405"><ele>269.0</ele><time>2026-04-26T14:15:03.728Z</time></trkpt><trkpt lat="43.1129383" lon="2.5352967"><ele>268.8</ele><time>2026-04-26T14:15:04.729Z</time></trkpt><trkpt lat="43.11297" lon="2.5351867"><ele>268.59999999999997</ele><time>2026-04-26T14:15:05.728Z</time></trkpt><trkpt lat="43.1130033" lon="2.5350983"><ele>268.4</ele><time>2026-04-26T14:15:06.728Z</time></trkpt><trkpt lat="43.1130683" lon="2.5350283"><ele>268.2</ele><time>2026-04-26T14:15:08.732Z</time></trkpt><trkpt lat="43.113125" lon="2.5351"><ele>268.0</ele><time>2026-04-26T14:15:10.731Z</time></trkpt><trkpt lat="43.1130933" lon="2.5352767"><ele>268.0</ele><time>2026-04-26T14:15:12.728Z</time></trkpt><trkpt lat="43.1130817" lon="2.53537"><ele>268.0</ele><time>2026-04-26T14:15:13.728Z</time></trkpt><trkpt lat="43.1131383" lon="2.5354617"><ele>268.0</ele><time>2026-04-26T14:15:15.729Z</time></trkpt><trkpt lat="43.11326" lon="2.53537"><ele>268.0</ele><time>2026-04-26T14:15:17.727Z</time></trkpt><trkpt lat="43.1133267" lon="2.53527"><ele>268.0</ele><time>2026-04-26T14:15:18.728Z</time></trkpt><trkpt lat="43.1133883" lon="2.5351267"><ele>265.25</ele><time>2026-04-26T14:15:19.729Z</time></trkpt><trkpt lat="43.11345" lon="2.5349683"><ele>262.5</ele><time>2026-04-26T14:15:20.732Z</time></trkpt><trkpt lat="43.113495" lon="2.534785"><ele>259.75</ele><time>2026-04-26T14:15:21.728Z</time></trkpt><trkpt lat="43.1135367" lon="2.5345917"><ele>257.0</ele><time>2026-04-26T14:15:22.73Z</time></trkpt><trkpt lat="43.1135767" lon="2.5343933"><ele>255.75</ele><time>2026-04-26T14:15:23.728Z</time></trkpt><trkpt lat="43.1136183" lon="2.534195"><ele>254.5</ele><time>2026-04-26T14:15:24.731Z</time></trkpt><trkpt lat="43.11367" lon="2.5340017"><ele>253.25</ele><time>2026-04-26T14:15:25.731Z</time></trkpt><trkpt lat="43.1137283" lon="2.5338183"><ele>252.0</ele><time>2026-04-26T14:15:26.73Z</time></trkpt><trkpt lat="43.113785" lon="2.53364"><ele>251.75</ele><time>2026-04-26T14:15:27.728Z</time></trkpt><trkpt lat="43.11384" lon="2.533465"><ele>251.5</ele><time>2026-04-26T14:15:28.729Z</time></trkpt><trkpt lat="43.1138917" lon="2.533295"><ele>251.25</ele><time>2026-04-26T14:15:29.728Z</time></trkpt><trkpt lat="43.1139533" lon="2.5331383"><ele>251.0</ele><time>2026-04-26T14:15:30.728Z</time></trkpt><trkpt lat="43.1140267" lon="2.5330017"><ele>247.60000000000002</ele><time>2026-04-26T14:15:31.73Z</time></trkpt><trkpt lat="43.1140983" lon="2.5328783"><ele>244.20000000000002</ele><time>2026-04-26T14:15:32.729Z</time></trkpt><trkpt lat="43.1141667" lon="2.5327633"><ele>240.79999999999998</ele><time>2026-04-26T14:15:33.729Z</time></trkpt><trkpt lat="43.11424" lon="2.5326717"><ele>237.39999999999998</ele><time>2026-04-26T14:15:34.73Z</time></trkpt><trkpt lat="43.1143233" lon="2.5326133"><ele>234.0</ele><time>2026-04-26T14:15:35.728Z</time></trkpt><trkpt lat="43.11442" lon="2.532595"><ele>234.0</ele><time>2026-04-26T14:15:36.73Z</time></trkpt><trkpt lat="43.114525" lon="2.5326317"><ele>234.0</ele><time>2026-04-26T14:15:37.73Z</time></trkpt><trkpt lat="43.1146383" lon="2.5326967"><ele>234.0</ele><time>2026-04-26T14:15:38.73Z</time></trkpt><trkpt lat="43.11476" lon="2.5327733"><ele>234.0</ele><time>2026-04-26T14:15:39.728Z</time></trkpt><trkpt lat="43.1148933" lon="2.5328467"><ele>233.66666666666669</ele><time>2026-04-26T14:15:40.728Z</time></trkpt><trkpt lat="43.1150367" lon="2.5329133"><ele>233.33333333333334</ele><time>2026-04-26T14:15:41.728Z</time></trkpt><trkpt lat="43.1151833" lon="2.5329817"><ele>233.0</ele><time>2026-04-26T14:15:42.728Z</time></trkpt><trkpt lat="43.11532" lon="2.5330517"><ele>233.0</ele><time>2026-04-26T14:15:43.729Z</time></trkpt><trkpt lat="43.11545" lon="2.5331167"><ele>233.0</ele><time>2026-04-26T14:15:44.73Z</time></trkpt><trkpt lat="43.11558" lon="2.5331783"><ele>233.0</ele><time>2026-04-26T14:15:45.729Z</time></trkpt><trkpt lat="43.1157067" lon="2.53324"><ele>233.0</ele><time>2026-04-26T14:15:46.729Z</time></trkpt><trkpt lat="43.1158317" lon="2.5332983"><ele>231.25</ele><time>2026-04-26T14:15:47.73Z</time></trkpt><trkpt lat="43.1159567" lon="2.533355"><ele>229.5</ele><time>2026-04-26T14:15:48.728Z</time></trkpt><trkpt lat="43.1160817" lon="2.5334167"><ele>227.75</ele><time>2026-04-26T14:15:49.73Z</time></trkpt><trkpt lat="43.1162033" lon="2.5334733"><ele>226.0</ele><time>2026-04-26T14:15:50.728Z</time></trkpt><trkpt lat="43.1163217" lon="2.5335267"><ele>226.0</ele><time>2026-04-26T14:15:51.733Z</time></trkpt><trkpt lat="43.1164383" lon="2.5335817"><ele>226.00000000000003</ele><time>2026-04-26T14:15:52.728Z</time></trkpt><trkpt lat="43.1165467" lon="2.5336333"><ele>226.00000000000003</ele><time>2026-04-26T14:15:53.73Z</time></trkpt><trkpt lat="43.1166483" lon="2.5336817"><ele>226.0</ele><time>2026-04-26T14:15:54.732Z</time></trkpt><trkpt lat="43.1167433" lon="2.5337267"><ele>226.0</ele><time>2026-04-26T14:15:55.729Z</time></trkpt><trkpt lat="43.1168283" lon="2.533765"><ele>225.16666666666666</ele><time>2026-04-26T14:15:56.729Z</time></trkpt><trkpt lat="43.1168967" lon="2.5337933"><ele>224.33333333333331</ele><time>2026-04-26T14:15:57.729Z</time></trkpt><trkpt lat="43.1170033" lon="2.53381"><ele>223.5</ele><time>2026-04-26T14:15:59.727Z</time></trkpt><trkpt lat="43.1170717" lon="2.533765"><ele>222.66666666666669</ele><time>2026-04-26T14:16:01.728Z</time></trkpt><trkpt lat="43.1170967" lon="2.5336333"><ele>221.83333333333334</ele><time>2026-04-26T14:16:03.728Z</time></trkpt><trkpt lat="43.1170683" lon="2.5335483"><ele>221.0</ele><time>2026-04-26T14:16:04.729Z</time></trkpt><trkpt lat="43.1170233" lon="2.5334633"><ele>221.0</ele><time>2026-04-26T14:16:05.728Z</time></trkpt><trkpt lat="43.1169383" lon="2.53334"><ele>221.0</ele><time>2026-04-26T14:16:06.728Z</time></trkpt><trkpt lat="43.1168467" lon="2.5331917"><ele>221.0</ele><time>2026-04-26T14:16:07.727Z</time></trkpt><trkpt lat="43.1167667" lon="2.5330233"><ele>221.0</ele><time>2026-04-26T14:16:08.729Z</time></trkpt><trkpt lat="43.1166867" lon="2.5328367"><ele>220.66666666666669</ele><time>2026-04-26T14:16:09.728Z</time></trkpt><trkpt lat="43.1166067" lon="2.5326383"><ele>220.33333333333331</ele><time>2026-04-26T14:16:10.728Z</time></trkpt><trkpt lat="43.1165233" lon="2.5324283"><ele>220.0</ele><time>2026-04-26T14:16:11.729Z</time></trkpt><trkpt lat="43.1164417" lon="2.5322067"><ele>221.0</ele><time>2026-04-26T14:16:12.728Z</time></trkpt><trkpt lat="43.1163567" lon="2.5319833"><ele>222.0</ele><time>2026-04-26T14:16:13.729Z</time></trkpt><trkpt lat="43.1162683" lon="2.5317567"><ele>223.0</ele><time>2026-04-26T14:16:14.728Z</time></trkpt><trkpt lat="43.1161767" lon="2.5315233"><ele>223.0</ele><time>2026-04-26T14:16:15.728Z</time></trkpt><trkpt lat="43.1160767" lon="2.53129"><ele>223.0</ele><time>2026-04-26T14:16:16.728Z</time></trkpt><trkpt lat="43.1159667" lon="2.5310683"><ele>223.0</ele><time>2026-04-26T14:16:17.73Z</time></trkpt><trkpt lat="43.1158483" lon="2.5308767"><ele>223.33333333333331</ele><time>2026-04-26T14:16:18.729Z</time></trkpt><trkpt lat="43.1157267" lon="2.5307167"><ele>223.66666666666669</ele><time>2026-04-26T14:16:19.728Z</time></trkpt><trkpt lat="43.1156067" lon="2.5305767"><ele>224.0</ele><time>2026-04-26T14:16:20.732Z</time></trkpt><trkpt lat="43.1154933" lon="2.5304467"><ele>223.79999999999998</ele><time>2026-04-26T14:16:21.732Z</time></trkpt><trkpt lat="43.11539" lon="2.5303283"><ele>223.59999999999997</ele><time>2026-04-26T14:16:22.729Z</time></trkpt><trkpt lat="43.1153" lon="2.5302233"><ele>223.4</ele><time>2026-04-26T14:16:23.728Z</time></trkpt><trkpt lat="43.1152233" lon="2.530135"><ele>223.2</ele><time>2026-04-26T14:16:24.732Z</time></trkpt><trkpt lat="43.115165" lon="2.5300583"><ele>223.0</ele><time>2026-04-26T14:16:25.73Z</time></trkpt><trkpt lat="43.1151283" lon="2.52998"><ele>223.0</ele><time>2026-04-26T14:16:26.731Z</time></trkpt><trkpt lat="43.11511" lon="2.529885"><ele>223.0</ele><time>2026-04-26T14:16:27.728Z</time></trkpt><trkpt lat="43.11512" lon="2.5297733"><ele>223.0</ele><time>2026-04-26T14:16:28.728Z</time></trkpt><trkpt lat="43.115155" lon="2.529645"><ele>223.0</ele><time>2026-04-26T14:16:29.727Z</time></trkpt><trkpt lat="43.1152067" lon="2.5295117"><ele>223.0</ele><time>2026-04-26T14:16:30.729Z</time></trkpt><trkpt lat="43.115255" lon="2.5293633"><ele>222.0</ele><time>2026-04-26T14:16:31.729Z</time></trkpt><trkpt lat="43.1152883" lon="2.5292"><ele>221.0</ele><time>2026-04-26T14:16:32.729Z</time></trkpt><trkpt lat="43.1153067" lon="2.529005"><ele>220.0</ele><time>2026-04-26T14:16:33.728Z</time></trkpt><trkpt lat="43.1153183" lon="2.528805"><ele>219.0</ele><time>2026-04-26T14:16:34.728Z</time></trkpt><trkpt lat="43.1153267" lon="2.528615"><ele>218.79999999999998</ele><time>2026-04-26T14:16:35.727Z</time></trkpt><trkpt lat="43.115335" lon="2.5284367"><ele>218.59999999999997</ele><time>2026-04-26T14:16:36.729Z</time></trkpt><trkpt lat="43.1153417" lon="2.528275"><ele>218.4</ele><time>2026-04-26T14:16:37.729Z</time></trkpt><trkpt lat="43.1153533" lon="2.528145"><ele>218.2</ele><time>2026-04-26T14:16:38.733Z</time></trkpt><trkpt lat="43.1153733" lon="2.5280417"><ele>218.0</ele><time>2026-04-26T14:16:39.728Z</time></trkpt><trkpt lat="43.1154067" lon="2.527965"><ele>218.00000000000003</ele><time>2026-04-26T14:16:40.731Z</time></trkpt><trkpt lat="43.1154717" lon="2.5279233"><ele>218.0</ele><time>2026-04-26T14:16:41.727Z</time></trkpt><trkpt lat="43.1155617" lon="2.5279133"><ele>218.0</ele><time>2026-04-26T14:16:42.73Z</time></trkpt><trkpt lat="43.115645" lon="2.527885"><ele>218.0</ele><time>2026-04-26T14:16:43.728Z</time></trkpt><trkpt lat="43.1157267" lon="2.527845"><ele>218.00000000000003</ele><time>2026-04-26T14:16:44.732Z</time></trkpt><trkpt lat="43.115805" lon="2.5277833"><ele>218.0</ele><time>2026-04-26T14:16:45.73Z</time></trkpt><trkpt lat="43.1158733" lon="2.5276533"><ele>219.25</ele><time>2026-04-26T14:16:46.729Z</time></trkpt><trkpt lat="43.1159367" lon="2.5274967"><ele>220.5</ele><time>2026-04-26T14:16:47.73Z</time></trkpt><trkpt lat="43.116005" lon="2.527355"><ele>221.75</ele><time>2026-04-26T14:16:48.731Z</time></trkpt><trkpt lat="43.1160783" lon="2.5272117"><ele>223.0</ele><time>2026-04-26T14:16:49.729Z</time></trkpt><trkpt lat="43.1161617" lon="2.5270733"><ele>223.75</ele><time>2026-04-26T14:16:50.731Z</time></trkpt><trkpt lat="43.1162017" lon="2.5268983"><ele>224.5</ele><time>2026-04-26T14:16:51.729Z</time></trkpt><trkpt lat="43.1162317" lon="2.5267117"><ele>225.25</ele><time>2026-04-26T14:16:52.733Z</time></trkpt><trkpt lat="43.11626" lon="2.5265317"><ele>226.0</ele><time>2026-04-26T14:16:53.731Z</time></trkpt><trkpt lat="43.116305" lon="2.52637"><ele>228.5</ele><time>2026-04-26T14:16:54.73Z</time></trkpt><trkpt lat="43.1163567" lon="2.5262117"><ele>231.0</ele><time>2026-04-26T14:16:55.73Z</time></trkpt><trkpt lat="43.1164133" lon="2.52607"><ele>233.5</ele><time>2026-04-26T14:16:56.73Z</time></trkpt><trkpt lat="43.1164667" lon="2.5259333"><ele>236.0</ele><time>2026-04-26T14:16:57.731Z</time></trkpt><trkpt lat="43.1165133" lon="2.5257917"><ele>236.0</ele><time>2026-04-26T14:16:58.731Z</time></trkpt><trkpt lat="43.11654" lon="2.5256417"><ele>236.00000000000003</ele><time>2026-04-26T14:16:59.728Z</time></trkpt><trkpt lat="43.1165433" lon="2.5254817"><ele>236.00000000000003</ele><time>2026-04-26T14:17:00.728Z</time></trkpt><trkpt lat="43.1165333" lon="2.52533"><ele>236.0</ele><time>2026-04-26T14:17:01.729Z</time></trkpt><trkpt lat="43.11653" lon="2.525195"><ele>236.0</ele><time>2026-04-26T14:17:02.73Z</time></trkpt><trkpt lat="43.1165533" lon="2.5250717"><ele>236.5</ele><time>2026-04-26T14:17:03.727Z</time></trkpt><trkpt lat="43.1166" lon="2.5249567"><ele>237.0</ele><time>2026-04-26T14:17:04.73Z</time></trkpt><trkpt lat="43.116665" lon="2.5248417"><ele>237.5</ele><time>2026-04-26T14:17:05.729Z</time></trkpt><trkpt lat="43.1167467" lon="2.5247317"><ele>238.0</ele><time>2026-04-26T14:17:06.729Z</time></trkpt><trkpt lat="43.1168517" lon="2.52462"><ele>240.5</ele><time>2026-04-26T14:17:07.731Z</time></trkpt><trkpt lat="43.1169517" lon="2.5244967"><ele>243.0</ele><time>2026-04-26T14:17:08.731Z</time></trkpt><trkpt lat="43.1170483" lon="2.5243617"><ele>245.5</ele><time>2026-04-26T14:17:09.729Z</time></trkpt><trkpt lat="43.117135" lon="2.524195"><ele>248.0</ele><time>2026-04-26T14:17:10.728Z</time></trkpt><trkpt lat="43.1172017" lon="2.5240283"><ele>248.0</ele><time>2026-04-26T14:17:11.729Z</time></trkpt><trkpt lat="43.1172583" lon="2.52388"><ele>248.0</ele><time>2026-04-26T14:17:12.729Z</time></trkpt><trkpt lat="43.117315" lon="2.5237633"><ele>248.0</ele><time>2026-04-26T14:17:13.73Z</time></trkpt><trkpt lat="43.1173767" lon="2.5236783"><ele>248.0</ele><time>2026-04-26T14:17:14.728Z</time></trkpt><trkpt lat="43.1174367" lon="2.5236017"><ele>248.0</ele><time>2026-04-26T14:17:15.729Z</time></trkpt><trkpt lat="43.1175117" lon="2.5235383"><ele>247.25</ele><time>2026-04-26T14:17:16.728Z</time></trkpt><trkpt lat="43.1175867" lon="2.5234617"><ele>246.5</ele><time>2026-04-26T14:17:17.728Z</time></trkpt><trkpt lat="43.11766" lon="2.5233517"><ele>245.75</ele><time>2026-04-26T14:17:18.73Z</time></trkpt><trkpt lat="43.117735" lon="2.5232117"><ele>245.0</ele><time>2026-04-26T14:17:19.728Z</time></trkpt><trkpt lat="43.11781" lon="2.52306"><ele>245.0</ele><time>2026-04-26T14:17:20.729Z</time></trkpt><trkpt lat="43.1178933" lon="2.5229167"><ele>245.0</ele><time>2026-04-26T14:17:21.728Z</time></trkpt><trkpt lat="43.11798" lon="2.522775"><ele>245.0</ele><time>2026-04-26T14:17:22.728Z</time></trkpt><trkpt lat="43.1180633" lon="2.5226517"><ele>245.0</ele><time>2026-04-26T14:17:23.734Z</time></trkpt><trkpt lat="43.1181383" lon="2.522525"><ele>246.0</ele><time>2026-04-26T14:17:24.728Z</time></trkpt><trkpt lat="43.1181967" lon="2.52239"><ele>247.0</ele><time>2026-04-26T14:17:25.729Z</time></trkpt><trkpt lat="43.1182333" lon="2.522255"><ele>248.0</ele><time>2026-04-26T14:17:26.731Z</time></trkpt><trkpt lat="43.1182617" lon="2.52213"><ele>249.0</ele><time>2026-04-26T14:17:27.728Z</time></trkpt><trkpt lat="43.1182983" lon="2.522005"><ele>250.0</ele><time>2026-04-26T14:17:28.729Z</time></trkpt><trkpt lat="43.1183483" lon="2.5218867"><ele>250.2</ele><time>2026-04-26T14:17:29.73Z</time></trkpt><trkpt lat="43.118395" lon="2.52177"><ele>250.4</ele><time>2026-04-26T14:17:30.728Z</time></trkpt><trkpt lat="43.1184267" lon="2.521645"><ele>250.60000000000002</ele><time>2026-04-26T14:17:31.731Z</time></trkpt><trkpt lat="43.118425" lon="2.5215133"><ele>250.8</ele><time>2026-04-26T14:17:32.73Z</time></trkpt><trkpt lat="43.1183983" lon="2.521375"><ele>251.0</ele><time>2026-04-26T14:17:33.729Z</time></trkpt><trkpt lat="43.1183633" lon="2.52123"><ele>251.75</ele><time>2026-04-26T14:17:34.729Z</time></trkpt><trkpt lat="43.11833" lon="2.521085"><ele>252.5</ele><time>2026-04-26T14:17:35.729Z</time></trkpt><trkpt lat="43.1183" lon="2.52094"><ele>253.25</ele><time>2026-04-26T14:17:36.732Z</time></trkpt><trkpt lat="43.118275" lon="2.52079"><ele>254.0</ele><time>2026-04-26T14:17:37.732Z</time></trkpt><trkpt lat="43.1182683" lon="2.52063"><ele>254.0</ele><time>2026-04-26T14:17:38.73Z</time></trkpt><trkpt lat="43.1182733" lon="2.5204633"><ele>254.0</ele><time>2026-04-26T14:17:39.731Z</time></trkpt><trkpt lat="43.1182817" lon="2.520295"><ele>254.0</ele><time>2026-04-26T14:17:40.729Z</time></trkpt><trkpt lat="43.1182733" lon="2.5201233"><ele>254.0</ele><time>2026-04-26T14:17:41.728Z</time></trkpt><trkpt lat="43.11825" lon="2.519945"><ele>254.0</ele><time>2026-04-26T14:17:42.729Z</time></trkpt><trkpt lat="43.118225" lon="2.5197633"><ele>254.0</ele><time>2026-04-26T14:17:43.729Z</time></trkpt><trkpt lat="43.1182117" lon="2.5195817"><ele>254.0</ele><time>2026-04-26T14:17:44.729Z</time></trkpt><trkpt lat="43.1182033" lon="2.5193917"><ele>254.0</ele><time>2026-04-26T14:17:45.73Z</time></trkpt><trkpt lat="43.1182033" lon="2.5191967"><ele>254.0</ele><time>2026-04-26T14:17:46.729Z</time></trkpt><trkpt lat="43.11821" lon="2.5190033"><ele>254.0</ele><time>2026-04-26T14:17:47.731Z</time></trkpt><trkpt lat="43.118225" lon="2.5188067"><ele>254.0</ele><time>2026-04-26T14:17:48.729Z</time></trkpt><trkpt lat="43.1182433" lon="2.5186033"><ele>254.0</ele><time>2026-04-26T14:17:49.728Z</time></trkpt><trkpt lat="43.11826" lon="2.5183917"><ele>256.5</ele><time>2026-04-26T14:17:50.736Z</time></trkpt><trkpt lat="43.1182733" lon="2.5181783"><ele>259.0</ele><time>2026-04-26T14:17:51.728Z</time></trkpt><trkpt lat="43.118285" lon="2.517975"><ele>261.5</ele><time>2026-04-26T14:17:52.733Z</time></trkpt><trkpt lat="43.1182967" lon="2.5177833"><ele>264.0</ele><time>2026-04-26T14:17:53.73Z</time></trkpt><trkpt lat="43.118305" lon="2.517605"><ele>264.2</ele><time>2026-04-26T14:17:54.729Z</time></trkpt><trkpt lat="43.1183083" lon="2.517445"><ele>264.4</ele><time>2026-04-26T14:17:55.729Z</time></trkpt><trkpt lat="43.1183067" lon="2.5173017"><ele>264.6</ele><time>2026-04-26T14:17:56.729Z</time></trkpt><trkpt lat="43.1182967" lon="2.5171683"><ele>264.8</ele><time>2026-04-26T14:17:57.73Z</time></trkpt><trkpt lat="43.1182867" lon="2.5170467"><ele>265.0</ele><time>2026-04-26T14:17:58.728Z</time></trkpt><trkpt lat="43.1182783" lon="2.5169333"><ele>265.0</ele><time>2026-04-26T14:17:59.732Z</time></trkpt><trkpt lat="43.11828" lon="2.5168167"><ele>265.0</ele><time>2026-04-26T14:18:00.728Z</time></trkpt><trkpt lat="43.1183067" lon="2.516695"><ele>265.0</ele><time>2026-04-26T14:18:01.729Z</time></trkpt><trkpt lat="43.1183617" lon="2.5165783"><ele>265.0</ele><time>2026-04-26T14:18:02.73Z</time></trkpt><trkpt lat="43.1184267" lon="2.5164667"><ele>265.0</ele><time>2026-04-26T14:18:03.729Z</time></trkpt><trkpt lat="43.1184983" lon="2.5163567"><ele>264.75</ele><time>2026-04-26T14:18:04.728Z</time></trkpt><trkpt lat="43.1185733" lon="2.516235"><ele>264.5</ele><time>2026-04-26T14:18:05.731Z</time></trkpt><trkpt lat="43.1186383" lon="2.5161033"><ele>264.25</ele><time>2026-04-26T14:18:06.728Z</time></trkpt><trkpt lat="43.1186933" lon="2.5159717"><ele>264.0</ele><time>2026-04-26T14:18:07.729Z</time></trkpt><trkpt lat="43.11874" lon="2.5158283"><ele>264.0</ele><time>2026-04-26T14:18:08.729Z</time></trkpt><trkpt lat="43.118785" lon="2.5156917"><ele>264.0</ele><time>2026-04-26T14:18:09.732Z</time></trkpt><trkpt lat="43.1188383" lon="2.5155717"><ele>264.0</ele><time>2026-04-26T14:18:10.728Z</time></trkpt><trkpt lat="43.1189033" lon="2.5154567"><ele>264.0</ele><time>2026-04-26T14:18:11.729Z</time></trkpt><trkpt lat="43.11899" lon="2.5153483"><ele>264.0</ele><time>2026-04-26T14:18:12.728Z</time></trkpt><trkpt lat="43.1190917" lon="2.515235"><ele>266.0</ele><time>2026-04-26T14:18:13.729Z</time></trkpt><trkpt lat="43.1192067" lon="2.5151217"><ele>268.0</ele><time>2026-04-26T14:18:14.73Z</time></trkpt><trkpt lat="43.119325" lon="2.5150167"><ele>270.0</ele><time>2026-04-26T14:18:15.729Z</time></trkpt><trkpt lat="43.11944" lon="2.514925"><ele>272.0</ele><time>2026-04-26T14:18:16.728Z</time></trkpt><trkpt lat="43.1195617" lon="2.5148467"><ele>272.0</ele><time>2026-04-26T14:18:17.73Z</time></trkpt><trkpt lat="43.1196983" lon="2.5147833"><ele>272.0</ele><time>2026-04-26T14:18:18.729Z</time></trkpt><trkpt lat="43.11984" lon="2.514715"><ele>272.0</ele><time>2026-04-26T14:18:19.729Z</time></trkpt><trkpt lat="43.1199867" lon="2.514645"><ele>274.33333333333337</ele><time>2026-04-26T14:18:20.728Z</time></trkpt><trkpt lat="43.12014" lon="2.5145783"><ele>276.6666666666667</ele><time>2026-04-26T14:18:21.728Z</time></trkpt><trkpt lat="43.1202817" lon="2.514515"><ele>279.0</ele><time>2026-04-26T14:18:22.732Z</time></trkpt><trkpt lat="43.1204183" lon="2.5144517"><ele>279.0</ele><time>2026-04-26T14:18:23.729Z</time></trkpt><trkpt lat="43.12054" lon="2.5143983"><ele>279.0</ele><time>2026-04-26T14:18:24.734Z</time></trkpt><trkpt lat="43.1206517" lon="2.51436"><ele>279.0</ele><time>2026-04-26T14:18:25.728Z</time></trkpt><trkpt lat="43.120765" lon="2.5143317"><ele>279.0</ele><time>2026-04-26T14:18:26.729Z</time></trkpt><trkpt lat="43.1208883" lon="2.514305"><ele>281.2</ele><time>2026-04-26T14:18:27.731Z</time></trkpt><trkpt lat="43.1210033" lon="2.514285"><ele>283.4</ele><time>2026-04-26T14:18:28.728Z</time></trkpt><trkpt lat="43.1210983" lon="2.5142583"><ele>285.6</ele><time>2026-04-26T14:18:29.728Z</time></trkpt><trkpt lat="43.1211667" lon="2.5142233"><ele>287.8</ele><time>2026-04-26T14:18:30.73Z</time></trkpt><trkpt lat="43.12124" lon="2.5140983"><ele>290.0</ele><time>2026-04-26T14:18:32.729Z</time></trkpt><trkpt lat="43.1212233" lon="2.5140067"><ele>290.0</ele><time>2026-04-26T14:18:33.729Z</time></trkpt><trkpt lat="43.1212" lon="2.5139233"><ele>290.0</ele><time>2026-04-26T14:18:34.729Z</time></trkpt><trkpt lat="43.1211483" lon="2.5138717"><ele>290.0</ele><time>2026-04-26T14:18:35.729Z</time></trkpt><trkpt lat="43.1210683" lon="2.5138367"><ele>290.0</ele><time>2026-04-26T14:18:36.728Z</time></trkpt><trkpt lat="43.1209933" lon="2.5137833"><ele>290.0</ele><time>2026-04-26T14:18:37.727Z</time></trkpt><trkpt lat="43.1209267" lon="2.5137217"><ele>290.0</ele><time>2026-04-26T14:18:38.727Z</time></trkpt><trkpt lat="43.1208867" lon="2.5136467"><ele>290.0</ele><time>2026-04-26T14:18:39.728Z</time></trkpt><trkpt lat="43.120895" lon="2.5135567"><ele>290.2</ele><time>2026-04-26T14:18:40.731Z</time></trkpt><trkpt lat="43.1209283" lon="2.5134633"><ele>290.4</ele><time>2026-04-26T14:18:41.728Z</time></trkpt><trkpt lat="43.1209883" lon="2.5133867"><ele>290.6</ele><time>2026-04-26T14:18:42.728Z</time></trkpt><trkpt lat="43.1210633" lon="2.5133133"><ele>290.8</ele><time>2026-04-26T14:18:43.728Z</time></trkpt><trkpt lat="43.1211583" lon="2.5132483"><ele>291.0</ele><time>2026-04-26T14:18:44.729Z</time></trkpt><trkpt lat="43.1212667" lon="2.5131717"><ele>291.0</ele><time>2026-04-26T14:18:45.727Z</time></trkpt><trkpt lat="43.121355" lon="2.5130817"><ele>291.0</ele><time>2026-04-26T14:18:46.728Z</time></trkpt><trkpt lat="43.1214167" lon="2.5129633"><ele>291.0</ele><time>2026-04-26T14:18:47.728Z</time></trkpt><trkpt lat="43.1214617" lon="2.512825"><ele>291.0</ele><time>2026-04-26T14:18:48.728Z</time></trkpt><trkpt lat="43.1215" lon="2.512695"><ele>291.0</ele><time>2026-04-26T14:18:49.727Z</time></trkpt><trkpt lat="43.1215567" lon="2.51259"><ele>294.40000000000003</ele><time>2026-04-26T14:18:50.728Z</time></trkpt><trkpt lat="43.1216317" lon="2.5124983"><ele>297.8</ele><time>2026-04-26T14:18:51.728Z</time></trkpt><trkpt lat="43.12172" lon="2.5124083"><ele>301.20000000000005</ele><time>2026-04-26T14:18:52.728Z</time></trkpt><trkpt lat="43.1217983" lon="2.51231"><ele>304.6</ele><time>2026-04-26T14:18:53.728Z</time></trkpt><trkpt lat="43.1218567" lon="2.512215"><ele>308.0</ele><time>2026-04-26T14:18:54.728Z</time></trkpt><trkpt lat="43.1218983" lon="2.5121033"><ele>309.0</ele><time>2026-04-26T14:18:55.729Z</time></trkpt><trkpt lat="43.12192" lon="2.5119633"><ele>310.0</ele><time>2026-04-26T14:18:56.729Z</time></trkpt><trkpt lat="43.1219233" lon="2.5118"><ele>311.0</ele><time>2026-04-26T14:18:57.727Z</time></trkpt><trkpt lat="43.1219117" lon="2.5116283"><ele>312.0</ele><time>2026-04-26T14:18:58.73Z</time></trkpt><trkpt lat="43.1219" lon="2.51147"><ele>312.0</ele><time>2026-04-26T14:18:59.728Z</time></trkpt><trkpt lat="43.1219" lon="2.511335"><ele>312.0</ele><time>2026-04-26T14:19:00.727Z</time></trkpt><trkpt lat="43.1219117" lon="2.5112133"><ele>312.0</ele><time>2026-04-26T14:19:01.727Z</time></trkpt><trkpt lat="43.1219283" lon="2.5111133"><ele>312.0</ele><time>2026-04-26T14:19:02.727Z</time></trkpt><trkpt lat="43.1219433" lon="2.5109567"><ele>312.0</ele><time>2026-04-26T14:19:04.73Z</time></trkpt><trkpt lat="43.1219317" lon="2.51081"><ele>313.6</ele><time>2026-04-26T14:19:06.728Z</time></trkpt><trkpt lat="43.1219283" lon="2.51066"><ele>315.2</ele><time>2026-04-26T14:19:08.727Z</time></trkpt><trkpt lat="43.1219183" lon="2.5105"><ele>316.8</ele><time>2026-04-26T14:19:10.727Z</time></trkpt><trkpt lat="43.1219117" lon="2.5103517"><ele>318.4</ele><time>2026-04-26T14:19:12.727Z</time></trkpt><trkpt lat="43.1218817" lon="2.5102183"><ele>320.0</ele><time>2026-04-26T14:19:14.729Z</time></trkpt><trkpt lat="43.1218317" lon="2.51007"><ele>320.8</ele><time>2026-04-26T14:19:16.728Z</time></trkpt><trkpt lat="43.1217783" lon="2.5099317"><ele>321.6</ele><time>2026-04-26T14:19:18.73Z</time></trkpt><trkpt lat="43.1217417" lon="2.509805"><ele>322.4</ele><time>2026-04-26T14:19:20.728Z</time></trkpt><trkpt lat="43.121695" lon="2.5096917"><ele>323.2</ele><time>2026-04-26T14:19:22.728Z</time></trkpt><trkpt lat="43.1216517" lon="2.5096183"><ele>324.0</ele><time>2026-04-26T14:19:24.73Z</time></trkpt><trkpt lat="43.12158" lon="2.5095883"><ele>327.2</ele><time>2026-04-26T14:19:26.729Z</time></trkpt><trkpt lat="43.1214983" lon="2.5095117"><ele>330.4</ele><time>2026-04-26T14:19:28.728Z</time></trkpt><trkpt lat="43.1214267" lon="2.5094167"><ele>333.6</ele><time>2026-04-26T14:19:30.727Z</time></trkpt><trkpt lat="43.12136" lon="2.5093333"><ele>336.8</ele><time>2026-04-26T14:19:32.729Z</time></trkpt><trkpt lat="43.1212817" lon="2.5092567"><ele>340.0</ele><time>2026-04-26T14:19:34.727Z</time></trkpt><trkpt lat="43.12118" lon="2.5091617"><ele>340.0</ele><time>2026-04-26T14:19:36.729Z</time></trkpt><trkpt lat="43.1210883" lon="2.5090467"><ele>340.0</ele><time>2026-04-26T14:19:38.729Z</time></trkpt><trkpt lat="43.1210067" lon="2.5089017"><ele>340.0</ele><time>2026-04-26T14:19:40.729Z</time></trkpt><trkpt lat="43.1209617" lon="2.5088183"><ele>340.0</ele><time>2026-04-26T14:19:41.727Z</time></trkpt><trkpt lat="43.1209167" lon="2.508745"><ele>340.0</ele><time>2026-04-26T14:19:42.728Z</time></trkpt><trkpt lat="43.1208283" lon="2.5086517"><ele>340.2</ele><time>2026-04-26T14:19:44.731Z</time></trkpt><trkpt lat="43.1207517" lon="2.508575"><ele>340.4</ele><time>2026-04-26T14:19:46.733Z</time></trkpt><trkpt lat="43.120675" lon="2.5084583"><ele>340.6</ele><time>2026-04-26T14:19:48.728Z</time></trkpt><trkpt lat="43.12062" lon="2.5083183"><ele>340.8</ele><time>2026-04-26T14:19:50.728Z</time></trkpt><trkpt lat="43.1205967" lon="2.5081933"><ele>341.0</ele><time>2026-04-26T14:19:52.729Z</time></trkpt><trkpt lat="43.1205833" lon="2.5080283"><ele>343.0</ele><time>2026-04-26T14:19:54.727Z</time></trkpt><trkpt lat="43.12056" lon="2.5079317"><ele>345.0</ele><time>2026-04-26T14:19:55.729Z</time></trkpt><trkpt lat="43.12052" lon="2.507845"><ele>347.0</ele><time>2026-04-26T14:19:56.728Z</time></trkpt><trkpt lat="43.12048" lon="2.5077633"><ele>349.0</ele><time>2026-04-26T14:19:57.728Z</time></trkpt><trkpt lat="43.1204433" lon="2.5076833"><ele>351.0</ele><time>2026-04-26T14:19:58.734Z</time></trkpt><trkpt lat="43.120405" lon="2.5076083"><ele>353.0</ele><time>2026-04-26T14:19:59.728Z</time></trkpt><trkpt lat="43.1203617" lon="2.5075367"><ele>355.0</ele><time>2026-04-26T14:20:00.729Z</time></trkpt><trkpt lat="43.1203017" lon="2.5074167"><ele>355.1428571428571</ele><time>2026-04-26T14:20:02.73Z</time></trkpt><trkpt lat="43.1203017" lon="2.5072733"><ele>355.2857142857143</ele><time>2026-04-26T14:20:04.728Z</time></trkpt><trkpt lat="43.12032" lon="2.50719"><ele>355.42857142857144</ele><time>2026-04-26T14:20:05.728Z</time></trkpt><trkpt lat="43.12035" lon="2.5071083"><ele>355.57142857142856</ele><time>2026-04-26T14:20:06.728Z</time></trkpt><trkpt lat="43.1203883" lon="2.5070333"><ele>355.7142857142857</ele><time>2026-04-26T14:20:07.728Z</time></trkpt><trkpt lat="43.1204283" lon="2.50696"><ele>355.85714285714283</ele><time>2026-04-26T14:20:08.729Z</time></trkpt><trkpt lat="43.1204633" lon="2.5068767"><ele>356.0</ele><time>2026-04-26T14:20:09.729Z</time></trkpt><trkpt lat="43.1205017" lon="2.5067817"><ele>356.0</ele><time>2026-04-26T14:20:10.728Z</time></trkpt><trkpt lat="43.1205417" lon="2.506675"><ele>356.0</ele><time>2026-04-26T14:20:11.727Z</time></trkpt><trkpt lat="43.1205817" lon="2.506555"><ele>356.0</ele><time>2026-04-26T14:20:12.728Z</time></trkpt><trkpt lat="43.120615" lon="2.5064317"><ele>356.0</ele><time>2026-04-26T14:20:13.73Z</time></trkpt><trkpt lat="43.120645" lon="2.5063083"><ele>356.0</ele><time>2026-04-26T14:20:14.728Z</time></trkpt><trkpt lat="43.120675" lon="2.5061917"><ele>356.4</ele><time>2026-04-26T14:20:15.728Z</time></trkpt><trkpt lat="43.1206967" lon="2.5060917"><ele>356.8</ele><time>2026-04-26T14:20:16.73Z</time></trkpt><trkpt lat="43.1207083" lon="2.50594"><ele>357.2</ele><time>2026-04-26T14:20:18.728Z</time></trkpt><trkpt lat="43.1206767" lon="2.5058333"><ele>357.59999999999997</ele><time>2026-04-26T14:20:20.731Z</time></trkpt><trkpt lat="43.1206" lon="2.5057217"><ele>358.0</ele><time>2026-04-26T14:20:22.729Z</time></trkpt><trkpt lat="43.1205467" lon="2.50557"><ele>358.00000000000006</ele><time>2026-04-26T14:20:24.727Z</time></trkpt><trkpt lat="43.1205367" lon="2.5054783"><ele>358.0</ele><time>2026-04-26T14:20:25.73Z</time></trkpt><trkpt lat="43.12054" lon="2.5053867"><ele>358.0</ele><time>2026-04-26T14:20:26.728Z</time></trkpt><trkpt lat="43.1205383" lon="2.5052883"><ele>358.0</ele><time>2026-04-26T14:20:27.728Z</time></trkpt><trkpt lat="43.1205333" lon="2.5051833"><ele>358.0</ele><time>2026-04-26T14:20:28.729Z</time></trkpt><trkpt lat="43.1205267" lon="2.5050717"><ele>358.00000000000006</ele><time>2026-04-26T14:20:29.727Z</time></trkpt><trkpt lat="43.1205167" lon="2.5049667"><ele>358.0</ele><time>2026-04-26T14:20:30.727Z</time></trkpt><trkpt lat="43.1204983" lon="2.5048667"><ele>358.0</ele><time>2026-04-26T14:20:31.729Z</time></trkpt><trkpt lat="43.1204833" lon="2.5047767"><ele>358.0</ele><time>2026-04-26T14:20:32.729Z</time></trkpt><trkpt lat="43.1204933" lon="2.5046217"><ele>358.0</ele><time>2026-04-26T14:20:34.731Z</time></trkpt><trkpt lat="43.120515" lon="2.50453"><ele>358.0</ele><time>2026-04-26T14:20:35.727Z</time></trkpt><trkpt lat="43.1205417" lon="2.50443"><ele>358.0</ele><time>2026-04-26T14:20:36.728Z</time></trkpt><trkpt lat="43.1205667" lon="2.5043167"><ele>358.0</ele><time>2026-04-26T14:20:37.729Z</time></trkpt><trkpt lat="43.1205917" lon="2.5042017"><ele>358.0</ele><time>2026-04-26T14:20:38.732Z</time></trkpt><trkpt lat="43.1206133" lon="2.5040883"><ele>358.0</ele><time>2026-04-26T14:20:39.728Z</time></trkpt><trkpt lat="43.12063" lon="2.5039933"><ele>358.0</ele><time>2026-04-26T14:20:40.728Z</time></trkpt><trkpt lat="43.12063" lon="2.5038583"><ele>358.0</ele><time>2026-04-26T14:20:42.731Z</time></trkpt><trkpt lat="43.120605" lon="2.5037517"><ele>358.0</ele><time>2026-04-26T14:20:44.729Z</time></trkpt><trkpt lat="43.1206217" lon="2.5036017"><ele>358.0</ele><time>2026-04-26T14:20:46.73Z</time></trkpt><trkpt lat="43.12066" lon="2.5034533"><ele>358.4</ele><time>2026-04-26T14:20:48.728Z</time></trkpt><trkpt lat="43.1206917" lon="2.5032883"><ele>358.79999999999995</ele><time>2026-04-26T14:20:50.731Z</time></trkpt><trkpt lat="43.1207233" lon="2.503145"><ele>359.2</ele><time>2026-04-26T14:20:52.727Z</time></trkpt><trkpt lat="43.1207183" lon="2.5030333"><ele>359.6</ele><time>2026-04-26T14:20:54.728Z</time></trkpt><trkpt lat="43.1207067" lon="2.5029217"><ele>360.0</ele><time>2026-04-26T14:20:56.729Z</time></trkpt><trkpt lat="43.1207417" lon="2.50284"><ele>363.4</ele><time>2026-04-26T14:20:58.729Z</time></trkpt><trkpt lat="43.1208367" lon="2.502775"><ele>366.8</ele><time>2026-04-26T14:21:00.729Z</time></trkpt><trkpt lat="43.1209433" lon="2.5026917"><ele>370.20000000000005</ele><time>2026-04-26T14:21:02.729Z</time></trkpt><trkpt lat="43.1209967" lon="2.502645"><ele>373.6</ele><time>2026-04-26T14:21:03.729Z</time></trkpt><trkpt lat="43.1210633" lon="2.5025383"><ele>377.0</ele><time>2026-04-26T14:21:05.728Z</time></trkpt><trkpt lat="43.1210783" lon="2.5023617"><ele>377.0</ele><time>2026-04-26T14:21:07.727Z</time></trkpt><trkpt lat="43.1210783" lon="2.5022383"><ele>377.0</ele><time>2026-04-26T14:21:08.728Z</time></trkpt><trkpt lat="43.121085" lon="2.5021"><ele>377.0</ele><time>2026-04-26T14:21:09.728Z</time></trkpt><trkpt lat="43.1211083" lon="2.50196"><ele>377.0</ele><time>2026-04-26T14:21:10.728Z</time></trkpt><trkpt lat="43.1211667" lon="2.5018367"><ele>377.0</ele><time>2026-04-26T14:21:11.728Z</time></trkpt><trkpt lat="43.1212533" lon="2.5017417"><ele>378.75</ele><time>2026-04-26T14:21:12.733Z</time></trkpt><trkpt lat="43.1213567" lon="2.5016667"><ele>380.5</ele><time>2026-04-26T14:21:13.727Z</time></trkpt><trkpt lat="43.12149" lon="2.50162"><ele>382.25</ele><time>2026-04-26T14:21:14.728Z</time></trkpt><trkpt lat="43.12162" lon="2.5015733"><ele>384.0</ele><time>2026-04-26T14:21:15.728Z</time></trkpt><trkpt lat="43.1217483" lon="2.5015283"><ele>384.0</ele><time>2026-04-26T14:21:16.728Z</time></trkpt><trkpt lat="43.121875" lon="2.5014867"><ele>384.0</ele><time>2026-04-26T14:21:17.729Z</time></trkpt><trkpt lat="43.12199" lon="2.5014433"><ele>384.0</ele><time>2026-04-26T14:21:18.728Z</time></trkpt><trkpt lat="43.1220933" lon="2.5013933"><ele>384.0</ele><time>2026-04-26T14:21:19.727Z</time></trkpt><trkpt lat="43.12219" lon="2.50133"><ele>386.0</ele><time>2026-04-26T14:21:20.73Z</time></trkpt><trkpt lat="43.1222683" lon="2.5012333"><ele>388.0</ele><time>2026-04-26T14:21:21.73Z</time></trkpt><trkpt lat="43.1223183" lon="2.5011017"><ele>390.0</ele><time>2026-04-26T14:21:22.728Z</time></trkpt><trkpt lat="43.12231" lon="2.5009467"><ele>392.0</ele><time>2026-04-26T14:21:23.728Z</time></trkpt><trkpt lat="43.1222533" lon="2.5008083"><ele>394.0</ele><time>2026-04-26T14:21:24.728Z</time></trkpt><trkpt lat="43.1221583" lon="2.5007133"><ele>394.0</ele><time>2026-04-26T14:21:25.728Z</time></trkpt><trkpt lat="43.1220383" lon="2.500665"><ele>394.0</ele><time>2026-04-26T14:21:26.728Z</time></trkpt><trkpt lat="43.1219117" lon="2.50064"><ele>394.0</ele><time>2026-04-26T14:21:27.728Z</time></trkpt><trkpt lat="43.12178" lon="2.5006267"><ele>394.0</ele><time>2026-04-26T14:21:28.728Z</time></trkpt><trkpt lat="43.121645" lon="2.5006183"><ele>394.0</ele><time>2026-04-26T14:21:29.727Z</time></trkpt><trkpt lat="43.1215133" lon="2.5005983"><ele>394.0</ele><time>2026-04-26T14:21:30.733Z</time></trkpt><trkpt lat="43.1213933" lon="2.50055"><ele>394.0</ele><time>2026-04-26T14:21:31.728Z</time></trkpt><trkpt lat="43.1212933" lon="2.500465"><ele>394.0</ele><time>2026-04-26T14:21:32.728Z</time></trkpt><trkpt lat="43.121215" lon="2.5003467"><ele>396.5</ele><time>2026-04-26T14:21:33.731Z</time></trkpt><trkpt lat="43.1211767" lon="2.500195"><ele>399.0</ele><time>2026-04-26T14:21:34.729Z</time></trkpt><trkpt lat="43.1211883" lon="2.500045"><ele>401.5</ele><time>2026-04-26T14:21:35.729Z</time></trkpt><trkpt lat="43.1212483" lon="2.499915"><ele>404.0</ele><time>2026-04-26T14:21:36.729Z</time></trkpt><trkpt lat="43.121345" lon="2.4998067"><ele>404.0</ele><time>2026-04-26T14:21:37.728Z</time></trkpt><trkpt lat="43.1214567" lon="2.4997133"><ele>404.0</ele><time>2026-04-26T14:21:38.729Z</time></trkpt><trkpt lat="43.12157" lon="2.499615"><ele>404.0</ele><time>2026-04-26T14:21:39.73Z</time></trkpt><trkpt lat="43.12167" lon="2.4994883"><ele>404.0</ele><time>2026-04-26T14:21:40.728Z</time></trkpt><trkpt lat="43.1217483" lon="2.4993217"><ele>404.75</ele><time>2026-04-26T14:21:41.728Z</time></trkpt><trkpt lat="43.121815" lon="2.4991433"><ele>405.5</ele><time>2026-04-26T14:21:42.73Z</time></trkpt><trkpt lat="43.121865" lon="2.498965"><ele>406.25</ele><time>2026-04-26T14:21:43.729Z</time></trkpt><trkpt lat="43.12189" lon="2.4987883"><ele>407.0</ele><time>2026-04-26T14:21:44.732Z</time></trkpt><trkpt lat="43.121875" lon="2.49862"><ele>408.75</ele><time>2026-04-26T14:21:45.728Z</time></trkpt><trkpt lat="43.1218267" lon="2.4984667"><ele>410.5</ele><time>2026-04-26T14:21:46.728Z</time></trkpt><trkpt lat="43.1217883" lon="2.4983167"><ele>412.25</ele><time>2026-04-26T14:21:47.728Z</time></trkpt><trkpt lat="43.1217967" lon="2.49816"><ele>414.0</ele><time>2026-04-26T14:21:48.728Z</time></trkpt><trkpt lat="43.1218483" lon="2.4980067"><ele>416.75</ele><time>2026-04-26T14:21:49.727Z</time></trkpt><trkpt lat="43.1219333" lon="2.4978633"><ele>419.5</ele><time>2026-04-26T14:21:50.73Z</time></trkpt><trkpt lat="43.1220433" lon="2.4977283"><ele>422.25</ele><time>2026-04-26T14:21:51.728Z</time></trkpt><trkpt lat="43.1221683" lon="2.4976067"><ele>425.0</ele><time>2026-04-26T14:21:52.729Z</time></trkpt><trkpt lat="43.1223" lon="2.4974967"><ele>421.0</ele><time>2026-04-26T14:21:53.728Z</time></trkpt><trkpt lat="43.1224383" lon="2.4973933"><ele>417.0</ele><time>2026-04-26T14:21:54.728Z</time></trkpt><trkpt lat="43.1225783" lon="2.49729"><ele>413.0</ele><time>2026-04-26T14:21:55.729Z</time></trkpt><trkpt lat="43.1227067" lon="2.4971683"><ele>419.0</ele><time>2026-04-26T14:21:56.728Z</time></trkpt><trkpt lat="43.1228183" lon="2.4970117"><ele>425.0</ele><time>2026-04-26T14:21:57.73Z</time></trkpt><trkpt lat="43.1229167" lon="2.4968317"><ele>431.0</ele><time>2026-04-26T14:21:58.728Z</time></trkpt><trkpt lat="43.1230017" lon="2.4966267"><ele>431.0</ele><time>2026-04-26T14:21:59.728Z</time></trkpt><trkpt lat="43.12308" lon="2.4964233"><ele>431.0</ele><time>2026-04-26T14:22:00.73Z</time></trkpt><trkpt lat="43.1231467" lon="2.49622"><ele>431.0</ele><time>2026-04-26T14:22:01.729Z</time></trkpt><trkpt lat="43.1231933" lon="2.4960033"><ele>430.0</ele><time>2026-04-26T14:22:02.73Z</time></trkpt><trkpt lat="43.1232267" lon="2.495775"><ele>429.0</ele><time>2026-04-26T14:22:03.729Z</time></trkpt><trkpt lat="43.1232467" lon="2.4955333"><ele>428.0</ele><time>2026-04-26T14:22:04.73Z</time></trkpt><trkpt lat="43.1232717" lon="2.49529"><ele>428.0</ele><time>2026-04-26T14:22:05.731Z</time></trkpt><trkpt lat="43.1233" lon="2.49505"><ele>428.0</ele><time>2026-04-26T14:22:06.73Z</time></trkpt><trkpt lat="43.1233283" lon="2.49482"><ele>428.0</ele><time>2026-04-26T14:22:07.729Z</time></trkpt><trkpt lat="43.1233533" lon="2.4946033"><ele>428.3333333333333</ele><time>2026-04-26T14:22:08.732Z</time></trkpt><trkpt lat="43.123375" lon="2.4943933"><ele>428.66666666666663</ele><time>2026-04-26T14:22:09.731Z</time></trkpt><trkpt lat="43.123385" lon="2.4941817"><ele>429.0</ele><time>2026-04-26T14:22:10.73Z</time></trkpt><trkpt lat="43.1233817" lon="2.4939667"><ele>427.66666666666663</ele><time>2026-04-26T14:22:11.731Z</time></trkpt><trkpt lat="43.123365" lon="2.4937467"><ele>426.3333333333333</ele><time>2026-04-26T14:22:12.73Z</time></trkpt><trkpt lat="43.12333" lon="2.4935183"><ele>425.0</ele><time>2026-04-26T14:22:13.732Z</time></trkpt><trkpt lat="43.1232883" lon="2.4932933"><ele>425.0</ele><time>2026-04-26T14:22:14.731Z</time></trkpt><trkpt lat="43.123245" lon="2.4930733"><ele>425.0</ele><time>2026-04-26T14:22:15.729Z</time></trkpt><trkpt lat="43.1232033" lon="2.492865"><ele>425.0</ele><time>2026-04-26T14:22:16.728Z</time></trkpt><trkpt lat="43.1231633" lon="2.4926633"><ele>424.3333333333333</ele><time>2026-04-26T14:22:17.729Z</time></trkpt><trkpt lat="43.1231333" lon="2.4924617"><ele>423.66666666666663</ele><time>2026-04-26T14:22:18.729Z</time></trkpt><trkpt lat="43.12312" lon="2.4922517"><ele>423.0</ele><time>2026-04-26T14:22:19.729Z</time></trkpt><trkpt lat="43.123125" lon="2.492035"><ele>422.0</ele><time>2026-04-26T14:22:20.729Z</time></trkpt><trkpt lat="43.12314" lon="2.4918117"><ele>421.0</ele><time>2026-04-26T14:22:21.728Z</time></trkpt><trkpt lat="43.1231617" lon="2.4915833"><ele>420.0</ele><time>2026-04-26T14:22:22.729Z</time></trkpt><trkpt lat="43.1231817" lon="2.4913467"><ele>419.66666666666663</ele><time>2026-04-26T14:22:23.729Z</time></trkpt><trkpt lat="43.123205" lon="2.49111"><ele>419.3333333333333</ele><time>2026-04-26T14:22:24.728Z</time></trkpt><trkpt lat="43.1232267" lon="2.490865"><ele>419.0</ele><time>2026-04-26T14:22:25.729Z</time></trkpt><trkpt lat="43.1232467" lon="2.4906217"><ele>417.66666666666663</ele><time>2026-04-26T14:22:26.73Z</time></trkpt><trkpt lat="43.1232683" lon="2.4903917"><ele>416.33333333333337</ele><time>2026-04-26T14:22:27.729Z</time></trkpt><trkpt lat="43.1232867" lon="2.4901667"><ele>415.0</ele><time>2026-04-26T14:22:28.736Z</time></trkpt><trkpt lat="43.1233017" lon="2.4899433"><ele>415.0</ele><time>2026-04-26T14:22:29.728Z</time></trkpt><trkpt lat="43.1233233" lon="2.4897233"><ele>415.0</ele><time>2026-04-26T14:22:30.728Z</time></trkpt><trkpt lat="43.1233567" lon="2.4894983"><ele>415.0</ele><time>2026-04-26T14:22:31.728Z</time></trkpt><trkpt lat="43.123405" lon="2.489275"><ele>414.6666666666667</ele><time>2026-04-26T14:22:32.73Z</time></trkpt><trkpt lat="43.1234667" lon="2.489055"><ele>414.33333333333337</ele><time>2026-04-26T14:22:33.728Z</time></trkpt><trkpt lat="43.12352" lon="2.4888233"><ele>414.0</ele><time>2026-04-26T14:22:34.728Z</time></trkpt><trkpt lat="43.1235533" lon="2.4885883"><ele>413.0</ele><time>2026-04-26T14:22:35.728Z</time></trkpt><trkpt lat="43.123575" lon="2.48835"><ele>412.0</ele><time>2026-04-26T14:22:36.73Z</time></trkpt><trkpt lat="43.1236033" lon="2.4881117"><ele>411.0</ele><time>2026-04-26T14:22:37.728Z</time></trkpt><trkpt lat="43.12364" lon="2.4878767"><ele>409.33333333333337</ele><time>2026-04-26T14:22:38.732Z</time></trkpt><trkpt lat="43.1236933" lon="2.487645"><ele>407.6666666666667</ele><time>2026-04-26T14:22:39.728Z</time></trkpt><trkpt lat="43.1237517" lon="2.4874133"><ele>406.0</ele><time>2026-04-26T14:22:40.736Z</time></trkpt><trkpt lat="43.12381" lon="2.4871833"><ele>404.6666666666667</ele><time>2026-04-26T14:22:41.728Z</time></trkpt><trkpt lat="43.1238683" lon="2.4869667"><ele>403.33333333333337</ele><time>2026-04-26T14:22:42.729Z</time></trkpt><trkpt lat="43.12393" lon="2.4867617"><ele>402.0</ele><time>2026-04-26T14:22:43.728Z</time></trkpt><trkpt lat="43.1239833" lon="2.4865617"><ele>402.0</ele><time>2026-04-26T14:22:44.729Z</time></trkpt><trkpt lat="43.124035" lon="2.4863617"><ele>402.0</ele><time>2026-04-26T14:22:45.728Z</time></trkpt><trkpt lat="43.1240833" lon="2.4861633"><ele>402.0</ele><time>2026-04-26T14:22:46.728Z</time></trkpt><trkpt lat="43.124135" lon="2.485975"><ele>402.25</ele><time>2026-04-26T14:22:47.728Z</time></trkpt><trkpt lat="43.124195" lon="2.4858083"><ele>402.5</ele><time>2026-04-26T14:22:48.728Z</time></trkpt><trkpt lat="43.12426" lon="2.4856517"><ele>402.75</ele><time>2026-04-26T14:22:49.729Z</time></trkpt><trkpt lat="43.124305" lon="2.4854933"><ele>403.0</ele><time>2026-04-26T14:22:50.729Z</time></trkpt><trkpt lat="43.1243133" lon="2.4853117"><ele>402.5</ele><time>2026-04-26T14:22:51.728Z</time></trkpt><trkpt lat="43.1242917" lon="2.4851233"><ele>402.0</ele><time>2026-04-26T14:22:52.731Z</time></trkpt><trkpt lat="43.1242417" lon="2.4849333"><ele>401.5</ele><time>2026-04-26T14:22:53.729Z</time></trkpt><trkpt lat="43.1241667" lon="2.4847433"><ele>401.0</ele><time>2026-04-26T14:22:54.728Z</time></trkpt><trkpt lat="43.124075" lon="2.4845717"><ele>397.25</ele><time>2026-04-26T14:22:55.728Z</time></trkpt><trkpt lat="43.12398" lon="2.4844133"><ele>393.5</ele><time>2026-04-26T14:22:56.729Z</time></trkpt><trkpt lat="43.123885" lon="2.4842617"><ele>389.75</ele><time>2026-04-26T14:22:57.727Z</time></trkpt><trkpt lat="43.123795" lon="2.4841133"><ele>386.0</ele><time>2026-04-26T14:22:58.728Z</time></trkpt><trkpt lat="43.1237117" lon="2.483965"><ele>386.0</ele><time>2026-04-26T14:22:59.733Z</time></trkpt><trkpt lat="43.12365" lon="2.483795"><ele>386.0</ele><time>2026-04-26T14:23:00.729Z</time></trkpt><trkpt lat="43.1236033" lon="2.4836117"><ele>386.0</ele><time>2026-04-26T14:23:01.729Z</time></trkpt><trkpt lat="43.1235683" lon="2.48341"><ele>386.0</ele><time>2026-04-26T14:23:02.729Z</time></trkpt><trkpt lat="43.1235417" lon="2.4832067"><ele>385.0</ele><time>2026-04-26T14:23:03.729Z</time></trkpt><trkpt lat="43.1235167" lon="2.4830167"><ele>384.0</ele><time>2026-04-26T14:23:04.729Z</time></trkpt><trkpt lat="43.1235" lon="2.4828267"><ele>383.0</ele><time>2026-04-26T14:23:05.728Z</time></trkpt><trkpt lat="43.1235033" lon="2.4826333"><ele>382.0</ele><time>2026-04-26T14:23:06.73Z</time></trkpt><trkpt lat="43.1235217" lon="2.4824417"><ele>381.75</ele><time>2026-04-26T14:23:07.728Z</time></trkpt><trkpt lat="43.1235217" lon="2.48225"><ele>381.5</ele><time>2026-04-26T14:23:08.728Z</time></trkpt><trkpt lat="43.1234783" lon="2.4820717"><ele>381.25</ele><time>2026-04-26T14:23:09.729Z</time></trkpt><trkpt lat="43.1234067" lon="2.481915"><ele>381.0</ele><time>2026-04-26T14:23:10.729Z</time></trkpt><trkpt lat="43.123335" lon="2.48177"><ele>380.0</ele><time>2026-04-26T14:23:11.729Z</time></trkpt><trkpt lat="43.123285" lon="2.4816017"><ele>379.0</ele><time>2026-04-26T14:23:12.729Z</time></trkpt><trkpt lat="43.1232583" lon="2.4814167"><ele>378.0</ele><time>2026-04-26T14:23:13.731Z</time></trkpt><trkpt lat="43.123255" lon="2.48122"><ele>377.0</ele><time>2026-04-26T14:23:14.736Z</time></trkpt><trkpt lat="43.1232617" lon="2.481025"><ele>376.0</ele><time>2026-04-26T14:23:15.728Z</time></trkpt><trkpt lat="43.1232767" lon="2.4808383"><ele>375.0</ele><time>2026-04-26T14:23:16.728Z</time></trkpt><trkpt lat="43.123315" lon="2.4806633"><ele>374.0</ele><time>2026-04-26T14:23:17.73Z</time></trkpt><trkpt lat="43.1233917" lon="2.4805017"><ele>373.0</ele><time>2026-04-26T14:23:18.731Z</time></trkpt><trkpt lat="43.123495" lon="2.480355"><ele>371.3333333333333</ele><time>2026-04-26T14:23:19.732Z</time></trkpt><trkpt lat="43.1236033" lon="2.4802"><ele>369.6666666666667</ele><time>2026-04-26T14:23:20.731Z</time></trkpt><trkpt lat="43.1237" lon="2.4800217"><ele>368.0</ele><time>2026-04-26T14:23:21.732Z</time></trkpt><trkpt lat="43.1237733" lon="2.4798267"><ele>368.0</ele><time>2026-04-26T14:23:22.729Z</time></trkpt><trkpt lat="43.12383" lon="2.4796267"><ele>368.0</ele><time>2026-04-26T14:23:23.73Z</time></trkpt><trkpt lat="43.1238783" lon="2.4794217"><ele>368.0</ele><time>2026-04-26T14:23:24.728Z</time></trkpt><trkpt lat="43.1239233" lon="2.4792133"><ele>365.0</ele><time>2026-04-26T14:23:25.728Z</time></trkpt><trkpt lat="43.123955" lon="2.4790033"><ele>362.0</ele><time>2026-04-26T14:23:26.729Z</time></trkpt><trkpt lat="43.1239683" lon="2.4787833"><ele>359.0</ele><time>2026-04-26T14:23:27.729Z</time></trkpt><trkpt lat="43.12396" lon="2.4785617"><ele>356.33333333333337</ele><time>2026-04-26T14:23:28.73Z</time></trkpt><trkpt lat="43.123935" lon="2.4783417"><ele>353.6666666666667</ele><time>2026-04-26T14:23:29.729Z</time></trkpt><trkpt lat="43.1239017" lon="2.4781217"><ele>351.0</ele><time>2026-04-26T14:23:30.73Z</time></trkpt><trkpt lat="43.1238667" lon="2.4779"><ele>349.6666666666667</ele><time>2026-04-26T14:23:31.73Z</time></trkpt><trkpt lat="43.1238467" lon="2.4776783"><ele>348.33333333333337</ele><time>2026-04-26T14:23:32.729Z</time></trkpt><trkpt lat="43.12384" lon="2.477455"><ele>347.0</ele><time>2026-04-26T14:23:33.728Z</time></trkpt><trkpt lat="43.1238533" lon="2.4772283"><ele>346.33333333333337</ele><time>2026-04-26T14:23:34.728Z</time></trkpt><trkpt lat="43.123875" lon="2.4769917"><ele>345.6666666666667</ele><time>2026-04-26T14:23:35.728Z</time></trkpt><trkpt lat="43.1238817" lon="2.4767467"><ele>345.0</ele><time>2026-04-26T14:23:36.729Z</time></trkpt><trkpt lat="43.12386" lon="2.4765033"><ele>345.0</ele><time>2026-04-26T14:23:37.729Z</time></trkpt><trkpt lat="43.1238217" lon="2.4762717"><ele>345.0</ele><time>2026-04-26T14:23:38.729Z</time></trkpt><trkpt lat="43.1237833" lon="2.4760467"><ele>345.0</ele><time>2026-04-26T14:23:39.729Z</time></trkpt><trkpt lat="43.1237467" lon="2.4758233"><ele>344.0</ele><time>2026-04-26T14:23:40.728Z</time></trkpt><trkpt lat="43.1237183" lon="2.4756067"><ele>343.0</ele><time>2026-04-26T14:23:41.728Z</time></trkpt><trkpt lat="43.123705" lon="2.4753983"><ele>342.0</ele><time>2026-04-26T14:23:42.729Z</time></trkpt><trkpt lat="43.123705" lon="2.4752017"><ele>341.5</ele><time>2026-04-26T14:23:43.728Z</time></trkpt><trkpt lat="43.1237183" lon="2.475005"><ele>341.0</ele><time>2026-04-26T14:23:44.731Z</time></trkpt><trkpt lat="43.1237367" lon="2.4748083"><ele>340.5</ele><time>2026-04-26T14:23:45.73Z</time></trkpt><trkpt lat="43.1237517" lon="2.4746"><ele>340.0</ele><time>2026-04-26T14:23:46.728Z</time></trkpt><trkpt lat="43.1237683" lon="2.47439"><ele>339.66666666666663</ele><time>2026-04-26T14:23:47.728Z</time></trkpt><trkpt lat="43.1237783" lon="2.474185"><ele>339.3333333333333</ele><time>2026-04-26T14:23:48.73Z</time></trkpt><trkpt lat="43.12377" lon="2.4739717"><ele>339.0</ele><time>2026-04-26T14:23:49.729Z</time></trkpt><trkpt lat="43.1237467" lon="2.4737583"><ele>339.0</ele><time>2026-04-26T14:23:50.73Z</time></trkpt><trkpt lat="43.1237083" lon="2.4735483"><ele>339.0</ele><time>2026-04-26T14:23:51.731Z</time></trkpt><trkpt lat="43.1236533" lon="2.4733383"><ele>339.0</ele><time>2026-04-26T14:23:52.728Z</time></trkpt><trkpt lat="43.123595" lon="2.4731483"><ele>339.0</ele><time>2026-04-26T14:23:53.728Z</time></trkpt><trkpt lat="43.1235367" lon="2.47296"><ele>339.0</ele><time>2026-04-26T14:23:54.729Z</time></trkpt><trkpt lat="43.1234783" lon="2.4727683"><ele>339.0</ele><time>2026-04-26T14:23:55.731Z</time></trkpt><trkpt lat="43.1234267" lon="2.47257"><ele>339.0</ele><time>2026-04-26T14:23:56.728Z</time></trkpt><trkpt lat="43.1233917" lon="2.4723617"><ele>339.0</ele><time>2026-04-26T14:23:57.728Z</time></trkpt><trkpt lat="43.1233783" lon="2.472145"><ele>339.0</ele><time>2026-04-26T14:23:58.73Z</time></trkpt><trkpt lat="43.1233767" lon="2.4719283"><ele>338.0</ele><time>2026-04-26T14:23:59.728Z</time></trkpt><trkpt lat="43.123385" lon="2.4717233"><ele>337.0</ele><time>2026-04-26T14:24:00.729Z</time></trkpt><trkpt lat="43.123405" lon="2.4715217"><ele>336.0</ele><time>2026-04-26T14:24:01.729Z</time></trkpt><trkpt lat="43.1234483" lon="2.4713183"><ele>334.6666666666667</ele><time>2026-04-26T14:24:02.728Z</time></trkpt><trkpt lat="43.1235133" lon="2.471115"><ele>333.33333333333337</ele><time>2026-04-26T14:24:03.729Z</time></trkpt><trkpt lat="43.1235867" lon="2.4709117"><ele>332.0</ele><time>2026-04-26T14:24:04.734Z</time></trkpt><trkpt lat="43.1236633" lon="2.4707033"><ele>332.0</ele><time>2026-04-26T14:24:05.73Z</time></trkpt><trkpt lat="43.123735" lon="2.4704883"><ele>332.0</ele><time>2026-04-26T14:24:06.727Z</time></trkpt><trkpt lat="43.1238017" lon="2.47026"><ele>332.0</ele><time>2026-04-26T14:24:07.727Z</time></trkpt><trkpt lat="43.1238683" lon="2.4700267"><ele>331.6666666666667</ele><time>2026-04-26T14:24:08.727Z</time></trkpt><trkpt lat="43.12394" lon="2.4697967"><ele>331.3333333333333</ele><time>2026-04-26T14:24:09.728Z</time></trkpt><trkpt lat="43.1240133" lon="2.4695633"><ele>331.0</ele><time>2026-04-26T14:24:10.732Z</time></trkpt><trkpt lat="43.1240667" lon="2.469325"><ele>332.0</ele><time>2026-04-26T14:24:11.727Z</time></trkpt><trkpt lat="43.1241033" lon="2.469075"><ele>333.0</ele><time>2026-04-26T14:24:12.728Z</time></trkpt><trkpt lat="43.12413" lon="2.4688183"><ele>334.0</ele><time>2026-04-26T14:24:13.727Z</time></trkpt><trkpt lat="43.1241567" lon="2.46856"><ele>334.0</ele><time>2026-04-26T14:24:14.73Z</time></trkpt><trkpt lat="43.1241933" lon="2.4682983"><ele>334.0</ele><time>2026-04-26T14:24:15.728Z</time></trkpt><trkpt lat="43.1242367" lon="2.468035"><ele>334.0</ele><time>2026-04-26T14:24:16.73Z</time></trkpt><trkpt lat="43.1242833" lon="2.4677717"><ele>332.0</ele><time>2026-04-26T14:24:17.727Z</time></trkpt><trkpt lat="43.124325" lon="2.46751"><ele>330.0</ele><time>2026-04-26T14:24:18.729Z</time></trkpt><trkpt lat="43.1244017" lon="2.4670267"><ele>329.0</ele><time>2026-04-26T14:24:20.728Z</time></trkpt><trkpt lat="43.1244133" lon="2.4668033"><ele>328.0</ele><time>2026-04-26T14:24:21.728Z</time></trkpt><trkpt lat="43.12441" lon="2.4665833"><ele>327.0</ele><time>2026-04-26T14:24:22.73Z</time></trkpt><trkpt lat="43.1244017" lon="2.4663683"><ele>326.0</ele><time>2026-04-26T14:24:23.729Z</time></trkpt><trkpt lat="43.124435" lon="2.4661433"><ele>325.0</ele><time>2026-04-26T14:24:24.73Z</time></trkpt><trkpt lat="43.1244867" lon="2.4659183"><ele>324.0</ele><time>2026-04-26T14:24:25.727Z</time></trkpt><trkpt lat="43.124555" lon="2.4656933"><ele>324.0</ele><time>2026-04-26T14:24:26.728Z</time></trkpt><trkpt lat="43.1246267" lon="2.4654633"><ele>324.0</ele><time>2026-04-26T14:24:27.728Z</time></trkpt><trkpt lat="43.12469" lon="2.465235"><ele>324.0</ele><time>2026-04-26T14:24:28.73Z</time></trkpt><trkpt lat="43.1247483" lon="2.46502"><ele>324.3333333333333</ele><time>2026-04-26T14:24:29.729Z</time></trkpt><trkpt lat="43.124805" lon="2.4648183"><ele>324.66666666666663</ele><time>2026-04-26T14:24:30.728Z</time></trkpt><trkpt lat="43.1248667" lon="2.4646217"><ele>325.0</ele><time>2026-04-26T14:24:31.728Z</time></trkpt><trkpt lat="43.124945" lon="2.464445"><ele>325.25</ele><time>2026-04-26T14:24:32.728Z</time></trkpt><trkpt lat="43.125035" lon="2.4642867"><ele>325.5</ele><time>2026-04-26T14:24:33.729Z</time></trkpt><trkpt lat="43.1251217" lon="2.464135"><ele>325.75</ele><time>2026-04-26T14:24:34.729Z</time></trkpt><trkpt lat="43.1251867" lon="2.4639767"><ele>326.0</ele><time>2026-04-26T14:24:35.728Z</time></trkpt><trkpt lat="43.125245" lon="2.4638267"><ele>326.0</ele><time>2026-04-26T14:24:36.727Z</time></trkpt><trkpt lat="43.12532" lon="2.4636933"><ele>326.0</ele><time>2026-04-26T14:24:37.728Z</time></trkpt><trkpt lat="43.12542" lon="2.4635783"><ele>326.0</ele><time>2026-04-26T14:24:38.73Z</time></trkpt><trkpt lat="43.1255367" lon="2.4634767"><ele>326.0</ele><time>2026-04-26T14:24:39.73Z</time></trkpt><trkpt lat="43.1256633" lon="2.4633683"><ele>325.6666666666667</ele><time>2026-04-26T14:24:40.728Z</time></trkpt><trkpt lat="43.1257883" lon="2.4632417"><ele>325.3333333333333</ele><time>2026-04-26T14:24:41.729Z</time></trkpt><trkpt lat="43.125915" lon="2.4631017"><ele>325.0</ele><time>2026-04-26T14:24:42.733Z</time></trkpt><trkpt lat="43.1260467" lon="2.4629567"><ele>323.3333333333333</ele><time>2026-04-26T14:24:43.728Z</time></trkpt><trkpt lat="43.1261783" lon="2.46281"><ele>321.6666666666667</ele><time>2026-04-26T14:24:44.729Z</time></trkpt><trkpt lat="43.126305" lon="2.4626633"><ele>320.0</ele><time>2026-04-26T14:24:45.729Z</time></trkpt><trkpt lat="43.12642" lon="2.46251"><ele>320.0</ele><time>2026-04-26T14:24:46.728Z</time></trkpt><trkpt lat="43.1265133" lon="2.46233"><ele>320.0</ele><time>2026-04-26T14:24:47.729Z</time></trkpt><trkpt lat="43.1265717" lon="2.4621383"><ele>320.0</ele><time>2026-04-26T14:24:48.73Z</time></trkpt><trkpt lat="43.1265967" lon="2.461945"><ele>319.75</ele><time>2026-04-26T14:24:49.729Z</time></trkpt><trkpt lat="43.1265967" lon="2.4617533"><ele>319.5</ele><time>2026-04-26T14:24:50.732Z</time></trkpt><trkpt lat="43.126595" lon="2.4615767"><ele>319.25</ele><time>2026-04-26T14:24:51.729Z</time></trkpt><trkpt lat="43.126605" lon="2.4614083"><ele>319.0</ele><time>2026-04-26T14:24:52.73Z</time></trkpt><trkpt lat="43.126635" lon="2.461245"><ele>319.0</ele><time>2026-04-26T14:24:53.729Z</time></trkpt><trkpt lat="43.1266967" lon="2.4610833"><ele>319.0</ele><time>2026-04-26T14:24:54.728Z</time></trkpt><trkpt lat="43.1267717" lon="2.4609233"><ele>319.0</ele><time>2026-04-26T14:24:55.729Z</time></trkpt><trkpt lat="43.1268567" lon="2.460755"><ele>319.0</ele><time>2026-04-26T14:24:56.728Z</time></trkpt><trkpt lat="43.1269533" lon="2.46059"><ele>319.0</ele><time>2026-04-26T14:24:57.728Z</time></trkpt><trkpt lat="43.1270633" lon="2.4604317"><ele>319.0</ele><time>2026-04-26T14:24:58.728Z</time></trkpt><trkpt lat="43.12719" lon="2.4602867"><ele>319.0</ele><time>2026-04-26T14:24:59.728Z</time></trkpt><trkpt lat="43.1273233" lon="2.4601567"><ele>319.5</ele><time>2026-04-26T14:25:00.729Z</time></trkpt><trkpt lat="43.12745" lon="2.4600367"><ele>320.0</ele><time>2026-04-26T14:25:01.728Z</time></trkpt><trkpt lat="43.12757" lon="2.4599233"><ele>320.5</ele><time>2026-04-26T14:25:02.728Z</time></trkpt><trkpt lat="43.1276733" lon="2.4597983"><ele>321.0</ele><time>2026-04-26T14:25:03.729Z</time></trkpt><trkpt lat="43.1277533" lon="2.4596483"><ele>320.3333333333333</ele><time>2026-04-26T14:25:04.728Z</time></trkpt><trkpt lat="43.1278117" lon="2.4594667"><ele>319.66666666666663</ele><time>2026-04-26T14:25:05.729Z</time></trkpt><trkpt lat="43.12786" lon="2.4592583"><ele>319.0</ele><time>2026-04-26T14:25:06.729Z</time></trkpt><trkpt lat="43.12791" lon="2.45904"><ele>319.0</ele><time>2026-04-26T14:25:07.734Z</time></trkpt><trkpt lat="43.1279617" lon="2.4588067"><ele>319.0</ele><time>2026-04-26T14:25:08.727Z</time></trkpt><trkpt lat="43.1280033" lon="2.45857"><ele>319.0</ele><time>2026-04-26T14:25:09.728Z</time></trkpt><trkpt lat="43.1280283" lon="2.458325"><ele>319.0</ele><time>2026-04-26T14:25:10.728Z</time></trkpt><trkpt lat="43.1280383" lon="2.45809"><ele>319.0</ele><time>2026-04-26T14:25:11.73Z</time></trkpt><trkpt lat="43.1280383" lon="2.45787"><ele>319.0</ele><time>2026-04-26T14:25:12.729Z</time></trkpt><trkpt lat="43.12802" lon="2.4576667"><ele>318.75</ele><time>2026-04-26T14:25:13.727Z</time></trkpt><trkpt lat="43.1279633" lon="2.4574817"><ele>318.5</ele><time>2026-04-26T14:25:14.727Z</time></trkpt><trkpt lat="43.1278833" lon="2.4573167"><ele>318.25</ele><time>2026-04-26T14:25:15.728Z</time></trkpt><trkpt lat="43.12781" lon="2.45715"><ele>318.0</ele><time>2026-04-26T14:25:16.727Z</time></trkpt><trkpt lat="43.1277567" lon="2.456965"><ele>318.0</ele><time>2026-04-26T14:25:17.727Z</time></trkpt><trkpt lat="43.1277217" lon="2.4567617"><ele>318.0</ele><time>2026-04-26T14:25:18.729Z</time></trkpt><trkpt lat="43.1277067" lon="2.4565517"><ele>318.0</ele><time>2026-04-26T14:25:19.728Z</time></trkpt><trkpt lat="43.127715" lon="2.4563333"><ele>317.6666666666667</ele><time>2026-04-26T14:25:20.728Z</time></trkpt><trkpt lat="43.12774" lon="2.4561167"><ele>317.33333333333337</ele><time>2026-04-26T14:25:21.729Z</time></trkpt><trkpt lat="43.12777" lon="2.4559133"><ele>317.0</ele><time>2026-04-26T14:25:22.731Z</time></trkpt><trkpt lat="43.1278033" lon="2.455725"><ele>317.0</ele><time>2026-04-26T14:25:23.729Z</time></trkpt><trkpt lat="43.127855" lon="2.4555483"><ele>317.0</ele><time>2026-04-26T14:25:24.729Z</time></trkpt><trkpt lat="43.1279383" lon="2.455385"><ele>317.0</ele><time>2026-04-26T14:25:25.728Z</time></trkpt><trkpt lat="43.1280333" lon="2.4552267"><ele>317.0</ele><time>2026-04-26T14:25:26.729Z</time></trkpt><trkpt lat="43.12812" lon="2.4550533"><ele>317.0</ele><time>2026-04-26T14:25:27.727Z</time></trkpt><trkpt lat="43.1282067" lon="2.4548683"><ele>317.0</ele><time>2026-04-26T14:25:28.727Z</time></trkpt><trkpt lat="43.1283" lon="2.4546817"><ele>317.0</ele><time>2026-04-26T14:25:29.729Z</time></trkpt><trkpt lat="43.1283917" lon="2.4544967"><ele>317.0</ele><time>2026-04-26T14:25:30.727Z</time></trkpt><trkpt lat="43.12847" lon="2.454305"><ele>317.0</ele><time>2026-04-26T14:25:31.728Z</time></trkpt><trkpt lat="43.12853" lon="2.4540983"><ele>317.0</ele><time>2026-04-26T14:25:32.729Z</time></trkpt><trkpt lat="43.1285733" lon="2.4538817"><ele>316.6666666666667</ele><time>2026-04-26T14:25:33.727Z</time></trkpt><trkpt lat="43.128595" lon="2.4536583"><ele>316.3333333333333</ele><time>2026-04-26T14:25:34.729Z</time></trkpt><trkpt lat="43.1285983" lon="2.453425"><ele>316.0</ele><time>2026-04-26T14:25:35.729Z</time></trkpt><trkpt lat="43.1285883" lon="2.4531983"><ele>316.0</ele><time>2026-04-26T14:25:36.733Z</time></trkpt><trkpt lat="43.1285683" lon="2.4529783"><ele>316.0</ele><time>2026-04-26T14:25:37.728Z</time></trkpt><trkpt lat="43.1285283" lon="2.4527683"><ele>316.0</ele><time>2026-04-26T14:25:38.729Z</time></trkpt><trkpt lat="43.1284633" lon="2.4525733"><ele>317.0</ele><time>2026-04-26T14:25:39.728Z</time></trkpt><trkpt lat="43.128385" lon="2.4524"><ele>318.0</ele><time>2026-04-26T14:25:40.728Z</time></trkpt><trkpt lat="43.1282917" lon="2.4522483"><ele>319.0</ele><time>2026-04-26T14:25:41.728Z</time></trkpt><trkpt lat="43.128195" lon="2.4521133"><ele>320.0</ele><time>2026-04-26T14:25:42.727Z</time></trkpt><trkpt lat="43.1281017" lon="2.45199"><ele>317.75</ele><time>2026-04-26T14:25:43.728Z</time></trkpt><trkpt lat="43.1280067" lon="2.451875"><ele>315.5</ele><time>2026-04-26T14:25:44.728Z</time></trkpt><trkpt lat="43.1279217" lon="2.4517567"><ele>313.25</ele><time>2026-04-26T14:25:45.729Z</time></trkpt><trkpt lat="43.1278633" lon="2.451615"><ele>311.0</ele><time>2026-04-26T14:25:46.729Z</time></trkpt><trkpt lat="43.12783" lon="2.4514583"><ele>311.0</ele><time>2026-04-26T14:25:47.729Z</time></trkpt><trkpt lat="43.1278233" lon="2.4513033"><ele>311.0</ele><time>2026-04-26T14:25:48.729Z</time></trkpt><trkpt lat="43.127835" lon="2.451145"><ele>311.0</ele><time>2026-04-26T14:25:49.73Z</time></trkpt><trkpt lat="43.1278883" lon="2.4509983"><ele>311.0</ele><time>2026-04-26T14:25:50.728Z</time></trkpt><trkpt lat="43.127975" lon="2.4508767"><ele>310.6</ele><time>2026-04-26T14:25:51.729Z</time></trkpt><trkpt lat="43.1280667" lon="2.4507833"><ele>310.20000000000005</ele><time>2026-04-26T14:25:52.732Z</time></trkpt><trkpt lat="43.1281383" lon="2.4506767"><ele>309.79999999999995</ele><time>2026-04-26T14:25:53.728Z</time></trkpt><trkpt lat="43.1281767" lon="2.4505433"><ele>309.4</ele><time>2026-04-26T14:25:54.73Z</time></trkpt><trkpt lat="43.1281783" lon="2.45039"><ele>309.0</ele><time>2026-04-26T14:25:55.727Z</time></trkpt><trkpt lat="43.1281667" lon="2.4502333"><ele>309.0</ele><time>2026-04-26T14:25:56.733Z</time></trkpt><trkpt lat="43.1281817" lon="2.4500767"><ele>309.0</ele><time>2026-04-26T14:25:57.728Z</time></trkpt><trkpt lat="43.1282217" lon="2.449925"><ele>309.0</ele><time>2026-04-26T14:25:58.729Z</time></trkpt><trkpt lat="43.1283117" lon="2.4497917"><ele>309.0</ele><time>2026-04-26T14:25:59.731Z</time></trkpt><trkpt lat="43.12842" lon="2.4496883"><ele>308.75</ele><time>2026-04-26T14:26:00.728Z</time></trkpt><trkpt lat="43.1285117" lon="2.4495783"><ele>308.5</ele><time>2026-04-26T14:26:01.728Z</time></trkpt><trkpt lat="43.12858" lon="2.4494467"><ele>308.25</ele><time>2026-04-26T14:26:02.728Z</time></trkpt><trkpt lat="43.1286317" lon="2.4492767"><ele>308.0</ele><time>2026-04-26T14:26:03.729Z</time></trkpt><trkpt lat="43.1286633" lon="2.44907"><ele>308.0</ele><time>2026-04-26T14:26:04.73Z</time></trkpt><trkpt lat="43.1286967" lon="2.4488533"><ele>308.0</ele><time>2026-04-26T14:26:05.728Z</time></trkpt><trkpt lat="43.128735" lon="2.448645"><ele>308.0</ele><time>2026-04-26T14:26:06.728Z</time></trkpt><trkpt lat="43.1287817" lon="2.448445"><ele>308.0</ele><time>2026-04-26T14:26:07.729Z</time></trkpt><trkpt lat="43.1288483" lon="2.4482483"><ele>308.0</ele><time>2026-04-26T14:26:08.729Z</time></trkpt><trkpt lat="43.1289183" lon="2.4480417"><ele>308.0</ele><time>2026-04-26T14:26:09.728Z</time></trkpt><trkpt lat="43.1289883" lon="2.4478317"><ele>308.0</ele><time>2026-04-26T14:26:10.728Z</time></trkpt><trkpt lat="43.1290517" lon="2.4476367"><ele>308.0</ele><time>2026-04-26T14:26:11.728Z</time></trkpt><trkpt lat="43.1290983" lon="2.447435"><ele>308.0</ele><time>2026-04-26T14:26:12.728Z</time></trkpt><trkpt lat="43.12912" lon="2.4472167"><ele>308.0</ele><time>2026-04-26T14:26:13.809Z</time></trkpt><trkpt lat="43.1291283" lon="2.4469883"><ele>308.0</ele><time>2026-04-26T14:26:14.73Z</time></trkpt><trkpt lat="43.1291367" lon="2.44676"><ele>308.0</ele><time>2026-04-26T14:26:15.729Z</time></trkpt><trkpt lat="43.1291433" lon="2.446525"><ele>308.33333333333337</ele><time>2026-04-26T14:26:16.727Z</time></trkpt><trkpt lat="43.1291467" lon="2.44629"><ele>308.6666666666667</ele><time>2026-04-26T14:26:17.73Z</time></trkpt><trkpt lat="43.1291333" lon="2.4460717"><ele>309.0</ele><time>2026-04-26T14:26:18.727Z</time></trkpt><trkpt lat="43.1291067" lon="2.4458717"><ele>309.0</ele><time>2026-04-26T14:26:19.728Z</time></trkpt><trkpt lat="43.129085" lon="2.4456767"><ele>309.0</ele><time>2026-04-26T14:26:20.728Z</time></trkpt><trkpt lat="43.129095" lon="2.4454783"><ele>309.0</ele><time>2026-04-26T14:26:21.729Z</time></trkpt><trkpt lat="43.1291183" lon="2.4452733"><ele>309.0</ele><time>2026-04-26T14:26:22.727Z</time></trkpt><trkpt lat="43.1291767" lon="2.4450783"><ele>308.75</ele><time>2026-04-26T14:26:23.727Z</time></trkpt><trkpt lat="43.1292583" lon="2.44492"><ele>308.5</ele><time>2026-04-26T14:26:24.727Z</time></trkpt><trkpt lat="43.1293617" lon="2.4447567"><ele>308.25</ele><time>2026-04-26T14:26:25.729Z</time></trkpt><trkpt lat="43.1294467" lon="2.44459"><ele>308.0</ele><time>2026-04-26T14:26:26.728Z</time></trkpt><trkpt lat="43.1295117" lon="2.444415"><ele>308.0</ele><time>2026-04-26T14:26:27.727Z</time></trkpt><trkpt lat="43.129575" lon="2.4442467"><ele>308.0</ele><time>2026-04-26T14:26:28.727Z</time></trkpt><trkpt lat="43.1296483" lon="2.444075"><ele>308.0</ele><time>2026-04-26T14:26:29.727Z</time></trkpt><trkpt lat="43.1297533" lon="2.443935"><ele>308.0</ele><time>2026-04-26T14:26:30.728Z</time></trkpt><trkpt lat="43.129875" lon="2.443815"><ele>306.25</ele><time>2026-04-26T14:26:31.729Z</time></trkpt><trkpt lat="43.129995" lon="2.4437"><ele>304.5</ele><time>2026-04-26T14:26:32.73Z</time></trkpt><trkpt lat="43.1301083" lon="2.4435733"><ele>302.75</ele><time>2026-04-26T14:26:33.728Z</time></trkpt><trkpt lat="43.1302067" lon="2.4434167"><ele>301.0</ele><time>2026-04-26T14:26:34.73Z</time></trkpt><trkpt lat="43.1302833" lon="2.44323"><ele>301.0</ele><time>2026-04-26T14:26:35.728Z</time></trkpt><trkpt lat="43.13034" lon="2.4430167"><ele>301.0</ele><time>2026-04-26T14:26:36.727Z</time></trkpt><trkpt lat="43.1303967" lon="2.4427933"><ele>301.0</ele><time>2026-04-26T14:26:37.729Z</time></trkpt><trkpt lat="43.1304567" lon="2.44258"><ele>300.0</ele><time>2026-04-26T14:26:38.729Z</time></trkpt><trkpt lat="43.1305083" lon="2.4423617"><ele>299.0</ele><time>2026-04-26T14:26:39.731Z</time></trkpt><trkpt lat="43.1305517" lon="2.4421383"><ele>298.0</ele><time>2026-04-26T14:26:40.73Z</time></trkpt><trkpt lat="43.13058" lon="2.4419117"><ele>298.0</ele><time>2026-04-26T14:26:41.731Z</time></trkpt><trkpt lat="43.1305867" lon="2.44168"><ele>298.0</ele><time>2026-04-26T14:26:42.73Z</time></trkpt><trkpt lat="43.1305667" lon="2.441445"><ele>298.0</ele><time>2026-04-26T14:26:43.728Z</time></trkpt><trkpt lat="43.1305183" lon="2.4412183"><ele>298.3333333333333</ele><time>2026-04-26T14:26:44.728Z</time></trkpt><trkpt lat="43.13045" lon="2.4409917"><ele>298.6666666666667</ele><time>2026-04-26T14:26:45.728Z</time></trkpt><trkpt lat="43.1303817" lon="2.440785"><ele>299.0</ele><time>2026-04-26T14:26:46.728Z</time></trkpt><trkpt lat="43.130315" lon="2.440595"><ele>300.0</ele><time>2026-04-26T14:26:47.728Z</time></trkpt><trkpt lat="43.13025" lon="2.44042"><ele>301.0</ele><time>2026-04-26T14:26:48.73Z</time></trkpt><trkpt lat="43.1301683" lon="2.4402783"><ele>302.0</ele><time>2026-04-26T14:26:49.728Z</time></trkpt><trkpt lat="43.13006" lon="2.4401767"><ele>303.0</ele><time>2026-04-26T14:26:50.729Z</time></trkpt><trkpt lat="43.1299267" lon="2.4401033"><ele>301.25</ele><time>2026-04-26T14:26:51.728Z</time></trkpt><trkpt lat="43.1297917" lon="2.4400483"><ele>299.5</ele><time>2026-04-26T14:26:52.731Z</time></trkpt><trkpt lat="43.1296683" lon="2.44"><ele>297.75</ele><time>2026-04-26T14:26:53.727Z</time></trkpt><trkpt lat="43.1295517" lon="2.4399567"><ele>296.0</ele><time>2026-04-26T14:26:54.731Z</time></trkpt><trkpt lat="43.129455" lon="2.4399083"><ele>296.0</ele><time>2026-04-26T14:26:55.727Z</time></trkpt><trkpt lat="43.1293817" lon="2.4398283"><ele>296.0</ele><time>2026-04-26T14:26:56.73Z</time></trkpt><trkpt lat="43.1293433" lon="2.439725"><ele>296.0</ele><time>2026-04-26T14:26:57.729Z</time></trkpt><trkpt lat="43.129325" lon="2.4396017"><ele>296.0</ele><time>2026-04-26T14:26:58.729Z</time></trkpt><trkpt lat="43.129355" lon="2.4394567"><ele>296.0</ele><time>2026-04-26T14:26:59.728Z</time></trkpt><trkpt lat="43.129415" lon="2.439285"><ele>296.33333333333337</ele><time>2026-04-26T14:27:00.729Z</time></trkpt><trkpt lat="43.129475" lon="2.4391017"><ele>296.6666666666667</ele><time>2026-04-26T14:27:01.728Z</time></trkpt><trkpt lat="43.1295417" lon="2.43891"><ele>297.0</ele><time>2026-04-26T14:27:02.729Z</time></trkpt><trkpt lat="43.1296083" lon="2.4387083"><ele>298.6666666666667</ele><time>2026-04-26T14:27:03.729Z</time></trkpt><trkpt lat="43.12968" lon="2.438495"><ele>300.33333333333337</ele><time>2026-04-26T14:27:04.729Z</time></trkpt><trkpt lat="43.1297533" lon="2.4382733"><ele>302.0</ele><time>2026-04-26T14:27:05.728Z</time></trkpt><trkpt lat="43.129825" lon="2.438045"><ele>301.0</ele><time>2026-04-26T14:27:06.729Z</time></trkpt><trkpt lat="43.1298967" lon="2.4378217"><ele>300.0</ele><time>2026-04-26T14:27:07.728Z</time></trkpt><trkpt lat="43.1299633" lon="2.4376133"><ele>299.0</ele><time>2026-04-26T14:27:08.729Z</time></trkpt><trkpt lat="43.1300283" lon="2.4374183"><ele>299.0</ele><time>2026-04-26T14:27:09.73Z</time></trkpt><trkpt lat="43.1300867" lon="2.437235"><ele>299.0</ele><time>2026-04-26T14:27:10.73Z</time></trkpt><trkpt lat="43.1301417" lon="2.4370617"><ele>299.0</ele><time>2026-04-26T14:27:11.73Z</time></trkpt><trkpt lat="43.1301883" lon="2.4368967"><ele>299.0</ele><time>2026-04-26T14:27:12.728Z</time></trkpt><trkpt lat="43.1302317" lon="2.4367567"><ele>297.8</ele><time>2026-04-26T14:27:13.728Z</time></trkpt><trkpt lat="43.13029" lon="2.43669"><ele>296.59999999999997</ele><time>2026-04-26T14:27:14.73Z</time></trkpt><trkpt lat="43.1303617" lon="2.4366517"><ele>295.4</ele><time>2026-04-26T14:27:15.728Z</time></trkpt><trkpt lat="43.1304483" lon="2.4366533"><ele>294.2</ele><time>2026-04-26T14:27:16.734Z</time></trkpt><trkpt lat="43.1305567" lon="2.4366867"><ele>293.0</ele><time>2026-04-26T14:27:17.729Z</time></trkpt><trkpt lat="43.1306783" lon="2.4366983"><ele>294.25</ele><time>2026-04-26T14:27:18.731Z</time></trkpt><trkpt lat="43.130805" lon="2.4366717"><ele>295.5</ele><time>2026-04-26T14:27:19.728Z</time></trkpt><trkpt lat="43.1309333" lon="2.4366117"><ele>296.75</ele><time>2026-04-26T14:27:20.729Z</time></trkpt><trkpt lat="43.1310683" lon="2.4365433"><ele>298.0</ele><time>2026-04-26T14:27:21.728Z</time></trkpt><trkpt lat="43.131205" lon="2.4364567"><ele>298.0</ele><time>2026-04-26T14:27:22.728Z</time></trkpt><trkpt lat="43.13133" lon="2.43633"><ele>298.0</ele><time>2026-04-26T14:27:23.73Z</time></trkpt><trkpt lat="43.1314417" lon="2.4361633"><ele>298.0</ele><time>2026-04-26T14:27:24.73Z</time></trkpt><trkpt lat="43.1315433" lon="2.4359783"><ele>297.3333333333333</ele><time>2026-04-26T14:27:25.729Z</time></trkpt><trkpt lat="43.1316367" lon="2.4357967"><ele>296.6666666666667</ele><time>2026-04-26T14:27:26.728Z</time></trkpt><trkpt lat="43.1317167" lon="2.4355983"><ele>296.0</ele><time>2026-04-26T14:27:27.73Z</time></trkpt><trkpt lat="43.1317867" lon="2.4353933"><ele>296.0</ele><time>2026-04-26T14:27:28.735Z</time></trkpt><trkpt lat="43.131855" lon="2.435185"><ele>296.0</ele><time>2026-04-26T14:27:29.728Z</time></trkpt><trkpt lat="43.1319283" lon="2.43498"><ele>296.0</ele><time>2026-04-26T14:27:30.733Z</time></trkpt><trkpt lat="43.1319967" lon="2.43479"><ele>295.5</ele><time>2026-04-26T14:27:31.728Z</time></trkpt><trkpt lat="43.1320667" lon="2.434615"><ele>295.0</ele><time>2026-04-26T14:27:32.729Z</time></trkpt><trkpt lat="43.1321417" lon="2.4344633"><ele>294.5</ele><time>2026-04-26T14:27:33.729Z</time></trkpt><trkpt lat="43.13222" lon="2.434345"><ele>294.0</ele><time>2026-04-26T14:27:34.727Z</time></trkpt><trkpt lat="43.1323067" lon="2.4342717"><ele>296.5</ele><time>2026-04-26T14:27:35.728Z</time></trkpt><trkpt lat="43.1324033" lon="2.4342433"><ele>299.0</ele><time>2026-04-26T14:27:36.728Z</time></trkpt><trkpt lat="43.1325133" lon="2.4342667"><ele>301.5</ele><time>2026-04-26T14:27:37.73Z</time></trkpt><trkpt lat="43.1326317" lon="2.434325"><ele>304.0</ele><time>2026-04-26T14:27:38.728Z</time></trkpt><trkpt lat="43.1327583" lon="2.434385"><ele>304.0</ele><time>2026-04-26T14:27:39.727Z</time></trkpt><trkpt lat="43.132895" lon="2.4344317"><ele>304.0</ele><time>2026-04-26T14:27:40.728Z</time></trkpt><trkpt lat="43.1330233" lon="2.4344833"><ele>304.0</ele><time>2026-04-26T14:27:41.727Z</time></trkpt><trkpt lat="43.1331333" lon="2.4345517"><ele>304.0</ele><time>2026-04-26T14:27:42.73Z</time></trkpt><trkpt lat="43.1332383" lon="2.4346033"><ele>304.5</ele><time>2026-04-26T14:27:43.727Z</time></trkpt><trkpt lat="43.1333483" lon="2.43461"><ele>305.0</ele><time>2026-04-26T14:27:44.729Z</time></trkpt><trkpt lat="43.1334617" lon="2.4345483"><ele>305.5</ele><time>2026-04-26T14:27:45.728Z</time></trkpt><trkpt lat="43.133555" lon="2.43445"><ele>306.0</ele><time>2026-04-26T14:27:46.73Z</time></trkpt><trkpt lat="43.1336167" lon="2.434325"><ele>306.0</ele><time>2026-04-26T14:27:47.729Z</time></trkpt><trkpt lat="43.1336367" lon="2.4341817"><ele>306.0</ele><time>2026-04-26T14:27:48.729Z</time></trkpt><trkpt lat="43.1336067" lon="2.434035"><ele>306.0</ele><time>2026-04-26T14:27:49.728Z</time></trkpt><trkpt lat="43.1335117" lon="2.4339117"><ele>306.0</ele><time>2026-04-26T14:27:50.729Z</time></trkpt><trkpt lat="43.1333817" lon="2.4338033"><ele>307.0</ele><time>2026-04-26T14:27:51.73Z</time></trkpt><trkpt lat="43.1332467" lon="2.4336967"><ele>308.0</ele><time>2026-04-26T14:27:52.728Z</time></trkpt><trkpt lat="43.1331033" lon="2.4336067"><ele>309.0</ele><time>2026-04-26T14:27:53.73Z</time></trkpt><trkpt lat="43.1329533" lon="2.4335367"><ele>309.0</ele><time>2026-04-26T14:27:54.731Z</time></trkpt><trkpt lat="43.132805" lon="2.433485"><ele>309.0</ele><time>2026-04-26T14:27:55.729Z</time></trkpt><trkpt lat="43.1326667" lon="2.4334267"><ele>309.0</ele><time>2026-04-26T14:27:56.729Z</time></trkpt><trkpt lat="43.1325467" lon="2.433335"><ele>309.0</ele><time>2026-04-26T14:27:57.729Z</time></trkpt><trkpt lat="43.1324467" lon="2.4332017"><ele>304.75</ele><time>2026-04-26T14:27:58.729Z</time></trkpt><trkpt lat="43.1323633" lon="2.4330633"><ele>300.5</ele><time>2026-04-26T14:27:59.728Z</time></trkpt><trkpt lat="43.1323017" lon="2.432925"><ele>296.25</ele><time>2026-04-26T14:28:00.729Z</time></trkpt><trkpt lat="43.1322783" lon="2.4327817"><ele>292.0</ele><time>2026-04-26T14:28:01.73Z</time></trkpt><trkpt lat="43.132295" lon="2.43264"><ele>291.5</ele><time>2026-04-26T14:28:02.729Z</time></trkpt><trkpt lat="43.1323617" lon="2.4325067"><ele>291.0</ele><time>2026-04-26T14:28:03.728Z</time></trkpt><trkpt lat="43.1324467" lon="2.4323717"><ele>290.5</ele><time>2026-04-26T14:28:04.728Z</time></trkpt><trkpt lat="43.1325483" lon="2.4322217"><ele>290.0</ele><time>2026-04-26T14:28:05.727Z</time></trkpt><trkpt lat="43.1326517" lon="2.4320583"><ele>295.33333333333337</ele><time>2026-04-26T14:28:06.729Z</time></trkpt><trkpt lat="43.13276" lon="2.43188"><ele>300.6666666666667</ele><time>2026-04-26T14:28:07.729Z</time></trkpt><trkpt lat="43.1328667" lon="2.4317067"><ele>306.0</ele><time>2026-04-26T14:28:08.732Z</time></trkpt><trkpt lat="43.1329683" lon="2.4315333"><ele>306.0</ele><time>2026-04-26T14:28:09.727Z</time></trkpt><trkpt lat="43.133075" lon="2.431355"><ele>306.0</ele><time>2026-04-26T14:28:10.729Z</time></trkpt><trkpt lat="43.1331817" lon="2.43117"><ele>306.0</ele><time>2026-04-26T14:28:11.729Z</time></trkpt><trkpt lat="43.133295" lon="2.430975"><ele>309.0</ele><time>2026-04-26T14:28:12.728Z</time></trkpt><trkpt lat="43.1334083" lon="2.4307733"><ele>312.0</ele><time>2026-04-26T14:28:13.73Z</time></trkpt><trkpt lat="43.1335217" lon="2.430565"><ele>315.0</ele><time>2026-04-26T14:28:14.728Z</time></trkpt><trkpt lat="43.1336383" lon="2.4303533"><ele>315.0</ele><time>2026-04-26T14:28:15.729Z</time></trkpt><trkpt lat="43.1337483" lon="2.430135"><ele>315.0</ele><time>2026-04-26T14:28:16.729Z</time></trkpt><trkpt lat="43.133855" lon="2.4299067"><ele>315.0</ele><time>2026-04-26T14:28:17.729Z</time></trkpt><trkpt lat="43.1339583" lon="2.4296783"><ele>319.0</ele><time>2026-04-26T14:28:18.729Z</time></trkpt><trkpt lat="43.1340633" lon="2.429455"><ele>323.0</ele><time>2026-04-26T14:28:19.728Z</time></trkpt><trkpt lat="43.1341733" lon="2.429235"><ele>327.0</ele><time>2026-04-26T14:28:20.729Z</time></trkpt><trkpt lat="43.1342917" lon="2.429015"><ele>326.3333333333333</ele><time>2026-04-26T14:28:21.729Z</time></trkpt><trkpt lat="43.1344117" lon="2.4287917"><ele>325.66666666666663</ele><time>2026-04-26T14:28:22.73Z</time></trkpt><trkpt lat="43.13453" lon="2.4285683"><ele>325.0</ele><time>2026-04-26T14:28:23.73Z</time></trkpt><trkpt lat="43.1346467" lon="2.4283483"><ele>325.0</ele><time>2026-04-26T14:28:24.729Z</time></trkpt><trkpt lat="43.1347583" lon="2.4281333"><ele>325.0</ele><time>2026-04-26T14:28:25.73Z</time></trkpt><trkpt lat="43.1348617" lon="2.42793"><ele>325.0</ele><time>2026-04-26T14:28:26.729Z</time></trkpt><trkpt lat="43.1349583" lon="2.427745"><ele>329.3333333333333</ele><time>2026-04-26T14:28:27.729Z</time></trkpt><trkpt lat="43.1350367" lon="2.4275633"><ele>333.6666666666667</ele><time>2026-04-26T14:28:28.729Z</time></trkpt><trkpt lat="43.1350883" lon="2.427365"><ele>338.0</ele><time>2026-04-26T14:28:29.729Z</time></trkpt><trkpt lat="43.135115" lon="2.427155"><ele>338.33333333333337</ele><time>2026-04-26T14:28:30.729Z</time></trkpt><trkpt lat="43.1351483" lon="2.4269533"><ele>338.6666666666667</ele><time>2026-04-26T14:28:31.729Z</time></trkpt><trkpt lat="43.1352067" lon="2.4267617"><ele>339.0</ele><time>2026-04-26T14:28:32.729Z</time></trkpt><trkpt lat="43.135285" lon="2.4265867"><ele>339.0</ele><time>2026-04-26T14:28:33.728Z</time></trkpt><trkpt lat="43.1353683" lon="2.42643"><ele>339.0</ele><time>2026-04-26T14:28:34.729Z</time></trkpt><trkpt lat="43.135465" lon="2.4262917"><ele>339.0</ele><time>2026-04-26T14:28:35.731Z</time></trkpt><trkpt lat="43.135585" lon="2.4261783"><ele>339.0</ele><time>2026-04-26T14:28:36.728Z</time></trkpt><trkpt lat="43.135715" lon="2.4260717"><ele>340.3333333333333</ele><time>2026-04-26T14:28:37.729Z</time></trkpt><trkpt lat="43.135845" lon="2.4259567"><ele>341.66666666666663</ele><time>2026-04-26T14:28:38.728Z</time></trkpt><trkpt lat="43.1359583" lon="2.4258133"><ele>343.0</ele><time>2026-04-26T14:28:39.729Z</time></trkpt><trkpt lat="43.13605" lon="2.42565"><ele>343.0</ele><time>2026-04-26T14:28:40.728Z</time></trkpt><trkpt lat="43.136125" lon="2.4254883"><ele>343.0</ele><time>2026-04-26T14:28:41.728Z</time></trkpt><trkpt lat="43.1361967" lon="2.4253383"><ele>343.0</ele><time>2026-04-26T14:28:42.73Z</time></trkpt><trkpt lat="43.13627" lon="2.4252133"><ele>343.0</ele><time>2026-04-26T14:28:43.729Z</time></trkpt><trkpt lat="43.1363567" lon="2.4251267"><ele>341.25</ele><time>2026-04-26T14:28:44.728Z</time></trkpt><trkpt lat="43.1364583" lon="2.4250933"><ele>339.5</ele><time>2026-04-26T14:28:45.73Z</time></trkpt><trkpt lat="43.1365667" lon="2.42513"><ele>337.75</ele><time>2026-04-26T14:28:46.73Z</time></trkpt><trkpt lat="43.13668" lon="2.42522"><ele>336.0</ele><time>2026-04-26T14:28:47.729Z</time></trkpt><trkpt lat="43.1367933" lon="2.42533"><ele>335.5</ele><time>2026-04-26T14:28:48.728Z</time></trkpt><trkpt lat="43.1369083" lon="2.4254317"><ele>335.0</ele><time>2026-04-26T14:28:49.729Z</time></trkpt><trkpt lat="43.137035" lon="2.4255083"><ele>334.5</ele><time>2026-04-26T14:28:50.729Z</time></trkpt><trkpt lat="43.137175" lon="2.425545"><ele>334.0</ele><time>2026-04-26T14:28:51.73Z</time></trkpt><trkpt lat="43.13732" lon="2.4255683"><ele>337.0</ele><time>2026-04-26T14:28:52.728Z</time></trkpt><trkpt lat="43.1374717" lon="2.4256083"><ele>340.0</ele><time>2026-04-26T14:28:53.73Z</time></trkpt><trkpt lat="43.1376133" lon="2.4256683"><ele>343.0</ele><time>2026-04-26T14:28:54.73Z</time></trkpt><trkpt lat="43.1377417" lon="2.42574"><ele>346.0</ele><time>2026-04-26T14:28:55.729Z</time></trkpt><trkpt lat="43.1378533" lon="2.425845"><ele>346.0</ele><time>2026-04-26T14:28:56.731Z</time></trkpt><trkpt lat="43.137945" lon="2.4259817"><ele>346.0</ele><time>2026-04-26T14:28:57.73Z</time></trkpt><trkpt lat="43.1380167" lon="2.4261317"><ele>346.0</ele><time>2026-04-26T14:28:58.73Z</time></trkpt><trkpt lat="43.13807" lon="2.426275"><ele>346.0</ele><time>2026-04-26T14:28:59.729Z</time></trkpt><trkpt lat="43.1381617" lon="2.4263717"><ele>348.0</ele><time>2026-04-26T14:29:00.731Z</time></trkpt><trkpt lat="43.1383017" lon="2.4264333"><ele>350.0</ele><time>2026-04-26T14:29:01.728Z</time></trkpt><trkpt lat="43.1384417" lon="2.426495"><ele>352.0</ele><time>2026-04-26T14:29:02.73Z</time></trkpt><trkpt lat="43.1385867" lon="2.426575"><ele>352.0</ele><time>2026-04-26T14:29:03.728Z</time></trkpt><trkpt lat="43.13872" lon="2.4266733"><ele>352.0</ele><time>2026-04-26T14:29:04.731Z</time></trkpt><trkpt lat="43.1388417" lon="2.426775"><ele>352.0</ele><time>2026-04-26T14:29:05.732Z</time></trkpt><trkpt lat="43.1389583" lon="2.426875"><ele>352.0</ele><time>2026-04-26T14:29:06.729Z</time></trkpt><trkpt lat="43.1390567" lon="2.4269667"><ele>351.20000000000005</ele><time>2026-04-26T14:29:07.728Z</time></trkpt><trkpt lat="43.139145" lon="2.427015"><ele>350.4</ele><time>2026-04-26T14:29:08.729Z</time></trkpt><trkpt lat="43.1392383" lon="2.4270033"><ele>349.6</ele><time>2026-04-26T14:29:09.728Z</time></trkpt><trkpt lat="43.139325" lon="2.426925"><ele>348.79999999999995</ele><time>2026-04-26T14:29:10.73Z</time></trkpt><trkpt lat="43.1393933" lon="2.426795"><ele>348.0</ele><time>2026-04-26T14:29:11.728Z</time></trkpt><trkpt lat="43.139455" lon="2.4266483"><ele>348.0</ele><time>2026-04-26T14:29:12.729Z</time></trkpt><trkpt lat="43.13952" lon="2.4265033"><ele>348.0</ele><time>2026-04-26T14:29:13.728Z</time></trkpt><trkpt lat="43.1396033" lon="2.4263867"><ele>348.0</ele><time>2026-04-26T14:29:14.73Z</time></trkpt><trkpt lat="43.1397067" lon="2.4263083"><ele>348.0</ele><time>2026-04-26T14:29:15.729Z</time></trkpt><trkpt lat="43.1398333" lon="2.4262733"><ele>349.75</ele><time>2026-04-26T14:29:16.729Z</time></trkpt><trkpt lat="43.1399733" lon="2.4262867"><ele>351.5</ele><time>2026-04-26T14:29:17.73Z</time></trkpt><trkpt lat="43.1401183" lon="2.42633"><ele>353.25</ele><time>2026-04-26T14:29:18.732Z</time></trkpt><trkpt lat="43.1402617" lon="2.4263717"><ele>355.0</ele><time>2026-04-26T14:29:19.729Z</time></trkpt><trkpt lat="43.1404133" lon="2.4264017"><ele>357.0</ele><time>2026-04-26T14:29:20.73Z</time></trkpt><trkpt lat="43.1405717" lon="2.42643"><ele>359.0</ele><time>2026-04-26T14:29:21.731Z</time></trkpt><trkpt lat="43.1407333" lon="2.4264733"><ele>361.0</ele><time>2026-04-26T14:29:22.728Z</time></trkpt><trkpt lat="43.1408883" lon="2.426525"><ele>362.3333333333333</ele><time>2026-04-26T14:29:23.729Z</time></trkpt><trkpt lat="43.1410383" lon="2.4265767"><ele>363.6666666666667</ele><time>2026-04-26T14:29:24.729Z</time></trkpt><trkpt lat="43.1411867" lon="2.4266283"><ele>365.0</ele><time>2026-04-26T14:29:25.732Z</time></trkpt><trkpt lat="43.1413267" lon="2.4267017"><ele>365.0</ele><time>2026-04-26T14:29:26.736Z</time></trkpt><trkpt lat="43.1414617" lon="2.4268133"><ele>365.0</ele><time>2026-04-26T14:29:27.729Z</time></trkpt><trkpt lat="43.1415767" lon="2.4269267"><ele>365.0</ele><time>2026-04-26T14:29:28.729Z</time></trkpt><trkpt lat="43.1416867" lon="2.42704"><ele>365.0</ele><time>2026-04-26T14:29:29.729Z</time></trkpt><trkpt lat="43.14178" lon="2.42718"><ele>366.5</ele><time>2026-04-26T14:29:30.734Z</time></trkpt><trkpt lat="43.1418467" lon="2.4273533"><ele>368.0</ele><time>2026-04-26T14:29:31.729Z</time></trkpt><trkpt lat="43.14189" lon="2.4275467"><ele>369.5</ele><time>2026-04-26T14:29:32.729Z</time></trkpt><trkpt lat="43.1419183" lon="2.4277533"><ele>371.0</ele><time>2026-04-26T14:29:33.729Z</time></trkpt><trkpt lat="43.141935" lon="2.42797"><ele>373.33333333333337</ele><time>2026-04-26T14:29:34.728Z</time></trkpt><trkpt lat="43.1419433" lon="2.4281917"><ele>375.6666666666667</ele><time>2026-04-26T14:29:35.731Z</time></trkpt><trkpt lat="43.1419567" lon="2.4284133"><ele>378.0</ele><time>2026-04-26T14:29:36.73Z</time></trkpt><trkpt lat="43.141995" lon="2.4286233"><ele>379.5</ele><time>2026-04-26T14:29:37.729Z</time></trkpt><trkpt lat="43.1420667" lon="2.42881"><ele>381.0</ele><time>2026-04-26T14:29:38.732Z</time></trkpt><trkpt lat="43.1421617" lon="2.4289567"><ele>382.5</ele><time>2026-04-26T14:29:39.729Z</time></trkpt><trkpt lat="43.1422583" lon="2.429085"><ele>384.0</ele><time>2026-04-26T14:29:40.729Z</time></trkpt><trkpt lat="43.1423367" lon="2.4292317"><ele>382.75</ele><time>2026-04-26T14:29:41.729Z</time></trkpt><trkpt lat="43.1423817" lon="2.4294133"><ele>381.5</ele><time>2026-04-26T14:29:42.729Z</time></trkpt><trkpt lat="43.1423983" lon="2.4296033"><ele>380.25</ele><time>2026-04-26T14:29:43.729Z</time></trkpt><trkpt lat="43.1424033" lon="2.4297867"><ele>379.0</ele><time>2026-04-26T14:29:44.73Z</time></trkpt><trkpt lat="43.1424117" lon="2.4299517"><ele>379.0</ele><time>2026-04-26T14:29:45.729Z</time></trkpt><trkpt lat="43.1424333" lon="2.4301017"><ele>379.0</ele><time>2026-04-26T14:29:46.728Z</time></trkpt><trkpt lat="43.1424867" lon="2.4302217"><ele>379.0</ele><time>2026-04-26T14:29:47.736Z</time></trkpt><trkpt lat="43.1425667" lon="2.4303033"><ele>379.0</ele><time>2026-04-26T14:29:48.733Z</time></trkpt><trkpt lat="43.1426717" lon="2.4303333"><ele>379.0</ele><time>2026-04-26T14:29:49.73Z</time></trkpt><trkpt lat="43.14278" lon="2.4303383"><ele>379.0</ele><time>2026-04-26T14:29:50.729Z</time></trkpt><trkpt lat="43.14288" lon="2.4303283"><ele>379.0</ele><time>2026-04-26T14:29:51.733Z</time></trkpt><trkpt lat="43.1429683" lon="2.4303133"><ele>379.0</ele><time>2026-04-26T14:29:52.729Z</time></trkpt><trkpt lat="43.1430767" lon="2.4303067"><ele>379.0</ele><time>2026-04-26T14:29:54.729Z</time></trkpt><trkpt lat="43.1431683" lon="2.43042"><ele>379.0</ele><time>2026-04-26T14:29:56.733Z</time></trkpt><trkpt lat="43.1432117" lon="2.43049"><ele>380.5</ele><time>2026-04-26T14:29:57.729Z</time></trkpt><trkpt lat="43.1432667" lon="2.4305517"><ele>382.0</ele><time>2026-04-26T14:29:58.731Z</time></trkpt><trkpt lat="43.1433367" lon="2.4306217"><ele>383.5</ele><time>2026-04-26T14:29:59.728Z</time></trkpt><trkpt lat="43.1434183" lon="2.4306917"><ele>385.0</ele><time>2026-04-26T14:30:00.729Z</time></trkpt><trkpt lat="43.1435033" lon="2.4307617"><ele>386.50000000000006</ele><time>2026-04-26T14:30:01.729Z</time></trkpt><trkpt lat="43.1435767" lon="2.4308367"><ele>388.0</ele><time>2026-04-26T14:30:02.729Z</time></trkpt><trkpt lat="43.1436283" lon="2.4309133"><ele>388.0</ele><time>2026-04-26T14:30:03.729Z</time></trkpt><trkpt lat="43.1436683" lon="2.4310667"><ele>388.0</ele><time>2026-04-26T14:30:05.729Z</time></trkpt><trkpt lat="43.1436683" lon="2.4311583"><ele>388.0</ele><time>2026-04-26T14:30:06.731Z</time></trkpt><trkpt lat="43.1436583" lon="2.4312667"><ele>388.0</ele><time>2026-04-26T14:30:07.728Z</time></trkpt><trkpt lat="43.1436383" lon="2.4313967"><ele>388.0</ele><time>2026-04-26T14:30:08.73Z</time></trkpt><trkpt lat="43.1436267" lon="2.4315467"><ele>389.5</ele><time>2026-04-26T14:30:09.728Z</time></trkpt><trkpt lat="43.1436117" lon="2.4317033"><ele>391.0</ele><time>2026-04-26T14:30:10.729Z</time></trkpt><trkpt lat="43.14359" lon="2.4318717"><ele>392.5</ele><time>2026-04-26T14:30:11.729Z</time></trkpt><trkpt lat="43.1435567" lon="2.43205"><ele>394.0</ele><time>2026-04-26T14:30:12.727Z</time></trkpt><trkpt lat="43.14352" lon="2.4322317"><ele>395.75</ele><time>2026-04-26T14:30:13.727Z</time></trkpt><trkpt lat="43.143485" lon="2.432405"><ele>397.5</ele><time>2026-04-26T14:30:14.728Z</time></trkpt><trkpt lat="43.1434567" lon="2.43257"><ele>399.25</ele><time>2026-04-26T14:30:15.727Z</time></trkpt><trkpt lat="43.1434233" lon="2.4327233"><ele>401.0</ele><time>2026-04-26T14:30:16.727Z</time></trkpt><trkpt lat="43.1433867" lon="2.4328617"><ele>400.99999999999994</ele><time>2026-04-26T14:30:17.729Z</time></trkpt><trkpt lat="43.1433517" lon="2.4329733"><ele>401.0</ele><time>2026-04-26T14:30:18.728Z</time></trkpt><trkpt lat="43.1433267" lon="2.433065"><ele>401.0</ele><time>2026-04-26T14:30:19.728Z</time></trkpt><trkpt lat="43.143305" lon="2.4331667"><ele>401.0</ele><time>2026-04-26T14:30:21.729Z</time></trkpt><trkpt lat="43.14337" lon="2.4331467"><ele>400.99999999999994</ele><time>2026-04-26T14:30:23.727Z</time></trkpt><trkpt lat="43.14344" lon="2.4330117"><ele>401.0</ele><time>2026-04-26T14:30:25.727Z</time></trkpt><trkpt lat="43.1434883" lon="2.432895"><ele>401.0</ele><time>2026-04-26T14:30:26.734Z</time></trkpt><trkpt lat="43.1435517" lon="2.4327567"><ele>401.0</ele><time>2026-04-26T14:30:27.728Z</time></trkpt><trkpt lat="43.1436283" lon="2.4326067"><ele>401.0</ele><time>2026-04-26T14:30:28.729Z</time></trkpt><trkpt lat="43.143705" lon="2.4324417"><ele>401.0</ele><time>2026-04-26T14:30:29.729Z</time></trkpt><trkpt lat="43.1437833" lon="2.4322717"><ele>402.25</ele><time>2026-04-26T14:30:30.73Z</time></trkpt><trkpt lat="43.1438633" lon="2.4321017"><ele>403.5</ele><time>2026-04-26T14:30:31.728Z</time></trkpt><trkpt lat="43.1439383" lon="2.431935"><ele>404.75</ele><time>2026-04-26T14:30:32.732Z</time></trkpt><trkpt lat="43.1440083" lon="2.431775"><ele>406.0</ele><time>2026-04-26T14:30:33.727Z</time></trkpt><trkpt lat="43.1440833" lon="2.4316317"><ele>406.0</ele><time>2026-04-26T14:30:34.728Z</time></trkpt><trkpt lat="43.144165" lon="2.431495"><ele>406.0</ele><time>2026-04-26T14:30:35.728Z</time></trkpt><trkpt lat="43.1442483" lon="2.43135"><ele>406.0</ele><time>2026-04-26T14:30:36.733Z</time></trkpt><trkpt lat="43.144325" lon="2.4311983"><ele>406.0</ele><time>2026-04-26T14:30:37.727Z</time></trkpt><trkpt lat="43.1443933" lon="2.4310417"><ele>404.75</ele><time>2026-04-26T14:30:38.73Z</time></trkpt><trkpt lat="43.144465" lon="2.4308867"><ele>403.5</ele><time>2026-04-26T14:30:39.73Z</time></trkpt><trkpt lat="43.1445417" lon="2.4307333"><ele>402.25</ele><time>2026-04-26T14:30:40.728Z</time></trkpt><trkpt lat="43.1446217" lon="2.4305733"><ele>401.0</ele><time>2026-04-26T14:30:41.727Z</time></trkpt><trkpt lat="43.1446917" lon="2.4304167"><ele>401.0</ele><time>2026-04-26T14:30:42.729Z</time></trkpt><trkpt lat="43.1447583" lon="2.43028"><ele>401.0</ele><time>2026-04-26T14:30:43.729Z</time></trkpt><trkpt lat="43.1448233" lon="2.430155"><ele>401.0</ele><time>2026-04-26T14:30:44.728Z</time></trkpt><trkpt lat="43.1448733" lon="2.4300267"><ele>401.0</ele><time>2026-04-26T14:30:45.728Z</time></trkpt><trkpt lat="43.144905" lon="2.4298983"><ele>401.0</ele><time>2026-04-26T14:30:46.728Z</time></trkpt><trkpt lat="43.1449167" lon="2.429775"><ele>401.16666666666663</ele><time>2026-04-26T14:30:47.729Z</time></trkpt><trkpt lat="43.144915" lon="2.4296583"><ele>401.3333333333333</ele><time>2026-04-26T14:30:48.728Z</time></trkpt><trkpt lat="43.1449017" lon="2.4295567"><ele>401.5</ele><time>2026-04-26T14:30:49.728Z</time></trkpt><trkpt lat="43.1448567" lon="2.429475"><ele>401.66666666666663</ele><time>2026-04-26T14:30:50.73Z</time></trkpt><trkpt lat="43.144785" lon="2.4294217"><ele>401.8333333333333</ele><time>2026-04-26T14:30:51.728Z</time></trkpt><trkpt lat="43.1446983" lon="2.4293867"><ele>402.0</ele><time>2026-04-26T14:30:52.73Z</time></trkpt><trkpt lat="43.1446233" lon="2.429355"><ele>402.0</ele><time>2026-04-26T14:30:53.727Z</time></trkpt><trkpt lat="43.1445333" lon="2.4292683"><ele>402.0</ele><time>2026-04-26T14:30:55.729Z</time></trkpt><trkpt lat="43.1445517" lon="2.4291383"><ele>402.0</ele><time>2026-04-26T14:30:57.727Z</time></trkpt><trkpt lat="43.1445933" lon="2.4290567"><ele>402.0</ele><time>2026-04-26T14:30:58.73Z</time></trkpt><trkpt lat="43.144645" lon="2.4289517"><ele>402.0</ele><time>2026-04-26T14:30:59.728Z</time></trkpt><trkpt lat="43.144705" lon="2.4288267"><ele>401.5</ele><time>2026-04-26T14:31:00.729Z</time></trkpt><trkpt lat="43.1447667" lon="2.4286867"><ele>401.0</ele><time>2026-04-26T14:31:01.73Z</time></trkpt><trkpt lat="43.144825" lon="2.4285417"><ele>400.5</ele><time>2026-04-26T14:31:02.728Z</time></trkpt><trkpt lat="43.1448817" lon="2.4284017"><ele>400.0</ele><time>2026-04-26T14:31:03.731Z</time></trkpt><trkpt lat="43.1449283" lon="2.4282783"><ele>402.6</ele><time>2026-04-26T14:31:04.728Z</time></trkpt><trkpt lat="43.1449667" lon="2.4281583"><ele>405.2</ele><time>2026-04-26T14:31:05.729Z</time></trkpt><trkpt lat="43.14499" lon="2.428025"><ele>407.79999999999995</ele><time>2026-04-26T14:31:06.728Z</time></trkpt><trkpt lat="43.1449983" lon="2.42789"><ele>410.4</ele><time>2026-04-26T14:31:07.73Z</time></trkpt><trkpt lat="43.1449933" lon="2.427765"><ele>413.0</ele><time>2026-04-26T14:31:08.728Z</time></trkpt><trkpt lat="43.1449733" lon="2.4276583"><ele>413.57142857142856</ele><time>2026-04-26T14:31:09.73Z</time></trkpt><trkpt lat="43.14494" lon="2.4275683"><ele>414.1428571428571</ele><time>2026-04-26T14:31:10.729Z</time></trkpt><trkpt lat="43.14489" lon="2.4275117"><ele>414.7142857142857</ele><time>2026-04-26T14:31:11.729Z</time></trkpt><trkpt lat="43.1448283" lon="2.42747"><ele>415.2857142857143</ele><time>2026-04-26T14:31:12.727Z</time></trkpt><trkpt lat="43.1447467" lon="2.4274417"><ele>415.85714285714283</ele><time>2026-04-26T14:31:13.728Z</time></trkpt><trkpt lat="43.1446767" lon="2.427395"><ele>416.42857142857144</ele><time>2026-04-26T14:31:14.728Z</time></trkpt><trkpt lat="43.14462" lon="2.4273217"><ele>417.0</ele><time>2026-04-26T14:31:15.729Z</time></trkpt><trkpt lat="43.1445817" lon="2.427225"><ele>413.40000000000003</ele><time>2026-04-26T14:31:16.728Z</time></trkpt><trkpt lat="43.1445683" lon="2.427105"><ele>409.8</ele><time>2026-04-26T14:31:17.728Z</time></trkpt><trkpt lat="43.1445667" lon="2.4269717"><ele>406.2</ele><time>2026-04-26T14:31:18.729Z</time></trkpt><trkpt lat="43.144575" lon="2.426835"><ele>402.6</ele><time>2026-04-26T14:31:19.728Z</time></trkpt><trkpt lat="43.14459" lon="2.4267"><ele>399.0</ele><time>2026-04-26T14:31:20.729Z</time></trkpt><trkpt lat="43.1446233" lon="2.42656"><ele>399.0</ele><time>2026-04-26T14:31:21.727Z</time></trkpt><trkpt lat="43.1446717" lon="2.42642"><ele>399.0</ele><time>2026-04-26T14:31:22.729Z</time></trkpt><trkpt lat="43.1447167" lon="2.4262817"><ele>399.0</ele><time>2026-04-26T14:31:23.728Z</time></trkpt><trkpt lat="43.1447517" lon="2.4261617"><ele>399.0</ele><time>2026-04-26T14:31:24.729Z</time></trkpt><trkpt lat="43.144785" lon="2.42607"><ele>399.0</ele><time>2026-04-26T14:31:25.727Z</time></trkpt><trkpt lat="43.14489" lon="2.4259617"><ele>401.1666666666667</ele><time>2026-04-26T14:31:27.729Z</time></trkpt><trkpt lat="43.1449467" lon="2.4259033"><ele>403.33333333333337</ele><time>2026-04-26T14:31:28.728Z</time></trkpt><trkpt lat="43.144985" lon="2.42583"><ele>405.5</ele><time>2026-04-26T14:31:29.73Z</time></trkpt><trkpt lat="43.1450083" lon="2.4257483"><ele>407.6666666666667</ele><time>2026-04-26T14:31:30.729Z</time></trkpt><trkpt lat="43.1449767" lon="2.4255783"><ele>409.83333333333337</ele><time>2026-04-26T14:31:32.729Z</time></trkpt><trkpt lat="43.1449467" lon="2.4254783"><ele>412.0</ele><time>2026-04-26T14:31:33.729Z</time></trkpt><trkpt lat="43.1449183" lon="2.42538"><ele>412.20000000000005</ele><time>2026-04-26T14:31:34.73Z</time></trkpt><trkpt lat="43.14491" lon="2.425255"><ele>412.4</ele><time>2026-04-26T14:31:35.729Z</time></trkpt><trkpt lat="43.1449417" lon="2.42513"><ele>412.6</ele><time>2026-04-26T14:31:36.728Z</time></trkpt><trkpt lat="43.1449717" lon="2.4249967"><ele>412.79999999999995</ele><time>2026-04-26T14:31:37.729Z</time></trkpt><trkpt lat="43.1449883" lon="2.4248567"><ele>413.0</ele><time>2026-04-26T14:31:38.728Z</time></trkpt><trkpt lat="43.1449933" lon="2.424705"><ele>413.25</ele><time>2026-04-26T14:31:39.73Z</time></trkpt><trkpt lat="43.1449833" lon="2.4245433"><ele>413.5</ele><time>2026-04-26T14:31:40.731Z</time></trkpt><trkpt lat="43.1449717" lon="2.42439"><ele>413.75</ele><time>2026-04-26T14:31:41.728Z</time></trkpt><trkpt lat="43.14497" lon="2.4242333"><ele>414.0</ele><time>2026-04-26T14:31:42.729Z</time></trkpt><trkpt lat="43.1449833" lon="2.4240783"><ele>414.0</ele><time>2026-04-26T14:31:43.729Z</time></trkpt><trkpt lat="43.1449933" lon="2.4239317"><ele>414.0</ele><time>2026-04-26T14:31:44.728Z</time></trkpt><trkpt lat="43.144995" lon="2.4237983"><ele>414.0</ele><time>2026-04-26T14:31:45.728Z</time></trkpt><trkpt lat="43.14499" lon="2.423675"><ele>414.0</ele><time>2026-04-26T14:31:46.729Z</time></trkpt><trkpt lat="43.1449767" lon="2.42355"><ele>414.0</ele><time>2026-04-26T14:31:47.728Z</time></trkpt><trkpt lat="43.144955" lon="2.4234083"><ele>414.25</ele><time>2026-04-26T14:31:48.728Z</time></trkpt><trkpt lat="43.1449367" lon="2.423245"><ele>414.5</ele><time>2026-04-26T14:31:49.728Z</time></trkpt><trkpt lat="43.1449283" lon="2.423065"><ele>414.75</ele><time>2026-04-26T14:31:50.728Z</time></trkpt><trkpt lat="43.144925" lon="2.4228717"><ele>415.0</ele><time>2026-04-26T14:31:51.728Z</time></trkpt><trkpt lat="43.144915" lon="2.4226717"><ele>415.0</ele><time>2026-04-26T14:31:52.729Z</time></trkpt><trkpt lat="43.14489" lon="2.422465"><ele>415.0</ele><time>2026-04-26T14:31:53.728Z</time></trkpt><trkpt lat="43.1448467" lon="2.4222583"><ele>415.0</ele><time>2026-04-26T14:31:54.728Z</time></trkpt><trkpt lat="43.144785" lon="2.4220483"><ele>415.0</ele><time>2026-04-26T14:31:55.727Z</time></trkpt><trkpt lat="43.144725" lon="2.421825"><ele>415.0</ele><time>2026-04-26T14:31:56.728Z</time></trkpt><trkpt lat="43.1446783" lon="2.4215983"><ele>415.0</ele><time>2026-04-26T14:31:57.728Z</time></trkpt><trkpt lat="43.1446467" lon="2.4213867"><ele>415.6666666666667</ele><time>2026-04-26T14:31:58.728Z</time></trkpt><trkpt lat="43.144655" lon="2.4211683"><ele>416.33333333333337</ele><time>2026-04-26T14:31:59.728Z</time></trkpt><trkpt lat="43.14469" lon="2.4209517"><ele>417.0</ele><time>2026-04-26T14:32:00.733Z</time></trkpt><trkpt lat="43.144755" lon="2.4207383"><ele>417.0</ele><time>2026-04-26T14:32:01.73Z</time></trkpt><trkpt lat="43.1448267" lon="2.4205183"><ele>417.0</ele><time>2026-04-26T14:32:02.729Z</time></trkpt><trkpt lat="43.144905" lon="2.4203017"><ele>417.0</ele><time>2026-04-26T14:32:03.729Z</time></trkpt><trkpt lat="43.1449983" lon="2.420105"><ele>413.66666666666663</ele><time>2026-04-26T14:32:04.731Z</time></trkpt><trkpt lat="43.14509" lon="2.4199183"><ele>410.3333333333333</ele><time>2026-04-26T14:32:05.729Z</time></trkpt><trkpt lat="43.1451667" lon="2.4197283"><ele>407.0</ele><time>2026-04-26T14:32:06.729Z</time></trkpt><trkpt lat="43.1452233" lon="2.41953"><ele>407.0</ele><time>2026-04-26T14:32:07.73Z</time></trkpt><trkpt lat="43.1452683" lon="2.4193267"><ele>407.0</ele><time>2026-04-26T14:32:08.732Z</time></trkpt><trkpt lat="43.1453217" lon="2.4191233"><ele>407.0</ele><time>2026-04-26T14:32:09.729Z</time></trkpt><trkpt lat="43.145395" lon="2.4189283"><ele>411.0</ele><time>2026-04-26T14:32:10.728Z</time></trkpt><trkpt lat="43.1454883" lon="2.4187467"><ele>415.0</ele><time>2026-04-26T14:32:11.73Z</time></trkpt><trkpt lat="43.1456017" lon="2.4185767"><ele>419.0</ele><time>2026-04-26T14:32:12.729Z</time></trkpt><trkpt lat="43.1457283" lon="2.4184133"><ele>416.0</ele><time>2026-04-26T14:32:13.729Z</time></trkpt><trkpt lat="43.1458667" lon="2.4182567"><ele>413.0</ele><time>2026-04-26T14:32:14.73Z</time></trkpt><trkpt lat="43.1460133" lon="2.4181033"><ele>410.0</ele><time>2026-04-26T14:32:15.729Z</time></trkpt><trkpt lat="43.1461667" lon="2.4179517"><ele>410.0</ele><time>2026-04-26T14:32:16.729Z</time></trkpt><trkpt lat="43.1463167" lon="2.4177967"><ele>410.0</ele><time>2026-04-26T14:32:17.729Z</time></trkpt><trkpt lat="43.1464533" lon="2.41764"><ele>410.0</ele><time>2026-04-26T14:32:18.729Z</time></trkpt><trkpt lat="43.1465833" lon="2.417485"><ele>406.0</ele><time>2026-04-26T14:32:19.729Z</time></trkpt><trkpt lat="43.14671" lon="2.4173367"><ele>402.0</ele><time>2026-04-26T14:32:20.728Z</time></trkpt><trkpt lat="43.1468333" lon="2.4171933"><ele>398.0</ele><time>2026-04-26T14:32:21.729Z</time></trkpt><trkpt lat="43.1469517" lon="2.4170533"><ele>398.0</ele><time>2026-04-26T14:32:22.729Z</time></trkpt><trkpt lat="43.1470667" lon="2.41692"><ele>398.0</ele><time>2026-04-26T14:32:23.728Z</time></trkpt><trkpt lat="43.14717" lon="2.4167767"><ele>398.0</ele><time>2026-04-26T14:32:24.728Z</time></trkpt><trkpt lat="43.1472533" lon="2.416615"><ele>398.0</ele><time>2026-04-26T14:32:25.731Z</time></trkpt><trkpt lat="43.1473067" lon="2.4164283"><ele>402.0</ele><time>2026-04-26T14:32:26.73Z</time></trkpt><trkpt lat="43.1473333" lon="2.41622"><ele>406.0</ele><time>2026-04-26T14:32:27.728Z</time></trkpt><trkpt lat="43.1473467" lon="2.4159933"><ele>410.0</ele><time>2026-04-26T14:32:28.728Z</time></trkpt><trkpt lat="43.147355" lon="2.4157633"><ele>410.0</ele><time>2026-04-26T14:32:29.728Z</time></trkpt><trkpt lat="43.1473683" lon="2.415535"><ele>410.0</ele><time>2026-04-26T14:32:30.732Z</time></trkpt><trkpt lat="43.1473967" lon="2.4153067"><ele>410.0</ele><time>2026-04-26T14:32:31.73Z</time></trkpt><trkpt lat="43.14745" lon="2.4150817"><ele>400.3333333333333</ele><time>2026-04-26T14:32:32.73Z</time></trkpt><trkpt lat="43.1475283" lon="2.4148633"><ele>390.66666666666663</ele><time>2026-04-26T14:32:33.729Z</time></trkpt><trkpt lat="43.14762" lon="2.41465"><ele>381.0</ele><time>2026-04-26T14:32:34.728Z</time></trkpt><trkpt lat="43.147715" lon="2.4144383"><ele>381.0</ele><time>2026-04-26T14:32:35.729Z</time></trkpt><trkpt lat="43.1478033" lon="2.41423"><ele>381.0</ele><time>2026-04-26T14:32:36.731Z</time></trkpt><trkpt lat="43.1478883" lon="2.4140283"><ele>381.0</ele><time>2026-04-26T14:32:37.729Z</time></trkpt><trkpt lat="43.14797" lon="2.4138333"><ele>382.33333333333337</ele><time>2026-04-26T14:32:38.729Z</time></trkpt><trkpt lat="43.1480417" lon="2.4136367"><ele>383.6666666666667</ele><time>2026-04-26T14:32:39.732Z</time></trkpt><trkpt lat="43.1480883" lon="2.41343"><ele>385.0</ele><time>2026-04-26T14:32:40.731Z</time></trkpt><trkpt lat="43.14812" lon="2.4132117"><ele>385.0</ele><time>2026-04-26T14:32:41.73Z</time></trkpt><trkpt lat="43.1481517" lon="2.4129933"><ele>385.0</ele><time>2026-04-26T14:32:42.731Z</time></trkpt><trkpt lat="43.1481983" lon="2.4127817"><ele>385.0</ele><time>2026-04-26T14:32:43.728Z</time></trkpt><trkpt lat="43.1482583" lon="2.412585"><ele>382.5</ele><time>2026-04-26T14:32:44.733Z</time></trkpt><trkpt lat="43.148325" lon="2.412405"><ele>380.0</ele><time>2026-04-26T14:32:45.728Z</time></trkpt><trkpt lat="43.148405" lon="2.4122467"><ele>377.5</ele><time>2026-04-26T14:32:46.734Z</time></trkpt><trkpt lat="43.14851" lon="2.412125"><ele>375.0</ele><time>2026-04-26T14:32:47.737Z</time></trkpt><trkpt lat="43.1486367" lon="2.4120583"><ele>375.0</ele><time>2026-04-26T14:32:48.729Z</time></trkpt><trkpt lat="43.148785" lon="2.4120233"><ele>375.0</ele><time>2026-04-26T14:32:49.729Z</time></trkpt><trkpt lat="43.148935" lon="2.4119867"><ele>375.0</ele><time>2026-04-26T14:32:50.731Z</time></trkpt><trkpt lat="43.1490767" lon="2.41195"><ele>375.0</ele><time>2026-04-26T14:32:51.728Z</time></trkpt><trkpt lat="43.14921" lon="2.4119033"><ele>371.0</ele><time>2026-04-26T14:32:52.73Z</time></trkpt><trkpt lat="43.1493383" lon="2.4118283"><ele>367.0</ele><time>2026-04-26T14:32:53.728Z</time></trkpt><trkpt lat="43.1494483" lon="2.411705"><ele>363.0</ele><time>2026-04-26T14:32:54.732Z</time></trkpt><trkpt lat="43.14955" lon="2.4115517"><ele>359.0</ele><time>2026-04-26T14:32:55.728Z</time></trkpt><trkpt lat="43.1496617" lon="2.4113867"><ele>355.6666666666667</ele><time>2026-04-26T14:32:56.729Z</time></trkpt><trkpt lat="43.1497817" lon="2.4112333"><ele>352.3333333333333</ele><time>2026-04-26T14:32:57.728Z</time></trkpt><trkpt lat="43.1499017" lon="2.4110917"><ele>349.0</ele><time>2026-04-26T14:32:58.729Z</time></trkpt><trkpt lat="43.15002" lon="2.4109483"><ele>349.0</ele><time>2026-04-26T14:32:59.729Z</time></trkpt><trkpt lat="43.1501283" lon="2.410795"><ele>349.0</ele><time>2026-04-26T14:33:00.73Z</time></trkpt><trkpt lat="43.1502133" lon="2.4106167"><ele>349.0</ele><time>2026-04-26T14:33:01.729Z</time></trkpt><trkpt lat="43.15028" lon="2.4104117"><ele>349.66666666666663</ele><time>2026-04-26T14:33:02.729Z</time></trkpt><trkpt lat="43.150315" lon="2.41018"><ele>350.3333333333333</ele><time>2026-04-26T14:33:03.728Z</time></trkpt><trkpt lat="43.150335" lon="2.4099333"><ele>351.0</ele><time>2026-04-26T14:33:04.729Z</time></trkpt><trkpt lat="43.1503617" lon="2.4096833"><ele>351.6666666666667</ele><time>2026-04-26T14:33:05.73Z</time></trkpt><trkpt lat="43.150405" lon="2.4094433"><ele>352.33333333333337</ele><time>2026-04-26T14:33:06.728Z</time></trkpt><trkpt lat="43.1504683" lon="2.4092217"><ele>353.0</ele><time>2026-04-26T14:33:07.73Z</time></trkpt><trkpt lat="43.1505517" lon="2.40903"><ele>353.0</ele><time>2026-04-26T14:33:08.729Z</time></trkpt><trkpt lat="43.15065" lon="2.4088583"><ele>353.0</ele><time>2026-04-26T14:33:09.728Z</time></trkpt><trkpt lat="43.1507533" lon="2.4087083"><ele>353.0</ele><time>2026-04-26T14:33:10.729Z</time></trkpt><trkpt lat="43.1508583" lon="2.408575"><ele>349.75</ele><time>2026-04-26T14:33:11.733Z</time></trkpt><trkpt lat="43.1509583" lon="2.4084483"><ele>346.5</ele><time>2026-04-26T14:33:12.729Z</time></trkpt><trkpt lat="43.1510383" lon="2.4083067"><ele>343.25</ele><time>2026-04-26T14:33:13.729Z</time></trkpt><trkpt lat="43.1510817" lon="2.40814"><ele>340.0</ele><time>2026-04-26T14:33:14.73Z</time></trkpt><trkpt lat="43.1510867" lon="2.407945"><ele>340.0</ele><time>2026-04-26T14:33:15.729Z</time></trkpt><trkpt lat="43.1510667" lon="2.407745"><ele>340.0</ele><time>2026-04-26T14:33:16.729Z</time></trkpt><trkpt lat="43.1510367" lon="2.4075417"><ele>340.0</ele><time>2026-04-26T14:33:17.728Z</time></trkpt><trkpt lat="43.1510033" lon="2.407335"><ele>336.66666666666663</ele><time>2026-04-26T14:33:18.729Z</time></trkpt><trkpt lat="43.1509583" lon="2.4071317"><ele>333.3333333333333</ele><time>2026-04-26T14:33:19.728Z</time></trkpt><trkpt lat="43.1508883" lon="2.406935"><ele>330.0</ele><time>2026-04-26T14:33:20.731Z</time></trkpt><trkpt lat="43.1507983" lon="2.4067483"><ele>331.0</ele><time>2026-04-26T14:33:21.729Z</time></trkpt><trkpt lat="43.1507" lon="2.40656"><ele>332.0</ele><time>2026-04-26T14:33:22.731Z</time></trkpt><trkpt lat="43.1506017" lon="2.4063633"><ele>333.0</ele><time>2026-04-26T14:33:23.73Z</time></trkpt><trkpt lat="43.1505017" lon="2.4061683"><ele>333.0</ele><time>2026-04-26T14:33:24.734Z</time></trkpt><trkpt lat="43.1504117" lon="2.4059717"><ele>333.0</ele><time>2026-04-26T14:33:25.729Z</time></trkpt><trkpt lat="43.1503233" lon="2.4057833"><ele>333.0</ele><time>2026-04-26T14:33:26.731Z</time></trkpt><trkpt lat="43.1502233" lon="2.40562"><ele>333.0</ele><time>2026-04-26T14:33:27.728Z</time></trkpt><trkpt lat="43.1501" lon="2.4054867"><ele>333.0</ele><time>2026-04-26T14:33:28.729Z</time></trkpt><trkpt lat="43.1499617" lon="2.4053833"><ele>333.0</ele><time>2026-04-26T14:33:29.729Z</time></trkpt><trkpt lat="43.1498283" lon="2.4052983"><ele>333.0</ele><time>2026-04-26T14:33:30.728Z</time></trkpt><trkpt lat="43.1497017" lon="2.405215"><ele>333.0</ele><time>2026-04-26T14:33:31.73Z</time></trkpt><trkpt lat="43.1495833" lon="2.4051367"><ele>333.0</ele><time>2026-04-26T14:33:32.729Z</time></trkpt><trkpt lat="43.1494717" lon="2.4050533"><ele>333.0</ele><time>2026-04-26T14:33:33.729Z</time></trkpt><trkpt lat="43.1493783" lon="2.404965"><ele>333.0</ele><time>2026-04-26T14:33:34.729Z</time></trkpt><trkpt lat="43.149315" lon="2.404855"><ele>333.0</ele><time>2026-04-26T14:33:35.731Z</time></trkpt><trkpt lat="43.1492967" lon="2.4047233"><ele>333.0</ele><time>2026-04-26T14:33:36.73Z</time></trkpt><trkpt lat="43.1493333" lon="2.4045833"><ele>333.0</ele><time>2026-04-26T14:33:37.734Z</time></trkpt><trkpt lat="43.1494233" lon="2.4044667"><ele>333.0</ele><time>2026-04-26T14:33:38.729Z</time></trkpt><trkpt lat="43.14953" lon="2.4043683"><ele>335.0</ele><time>2026-04-26T14:33:39.731Z</time></trkpt><trkpt lat="43.1496633" lon="2.4043033"><ele>337.0</ele><time>2026-04-26T14:33:40.729Z</time></trkpt><trkpt lat="43.1498067" lon="2.40425"><ele>339.0</ele><time>2026-04-26T14:33:41.73Z</time></trkpt><trkpt lat="43.1499533" lon="2.4041983"><ele>341.0</ele><time>2026-04-26T14:33:42.729Z</time></trkpt><trkpt lat="43.1500883" lon="2.404145"><ele>338.5</ele><time>2026-04-26T14:33:43.73Z</time></trkpt><trkpt lat="43.15021" lon="2.4040767"><ele>336.0</ele><time>2026-04-26T14:33:44.73Z</time></trkpt><trkpt lat="43.150315" lon="2.4039717"><ele>333.5</ele><time>2026-04-26T14:33:45.729Z</time></trkpt><trkpt lat="43.1503933" lon="2.403815"><ele>331.0</ele><time>2026-04-26T14:33:46.729Z</time></trkpt><trkpt lat="43.15045" lon="2.403625"><ele>331.0</ele><time>2026-04-26T14:33:47.729Z</time></trkpt><trkpt lat="43.1504983" lon="2.4034167"><ele>331.0</ele><time>2026-04-26T14:33:48.73Z</time></trkpt><trkpt lat="43.1505517" lon="2.403195"><ele>331.0</ele><time>2026-04-26T14:33:49.729Z</time></trkpt><trkpt lat="43.1506" lon="2.402975"><ele>332.0</ele><time>2026-04-26T14:33:50.729Z</time></trkpt><trkpt lat="43.1506433" lon="2.40277"><ele>333.0</ele><time>2026-04-26T14:33:51.728Z</time></trkpt><trkpt lat="43.150685" lon="2.4025717"><ele>334.0</ele><time>2026-04-26T14:33:52.736Z</time></trkpt><trkpt lat="43.15073" lon="2.4023867"><ele>335.0</ele><time>2026-04-26T14:33:53.73Z</time></trkpt><trkpt lat="43.1507933" lon="2.4022233"><ele>331.25</ele><time>2026-04-26T14:33:54.728Z</time></trkpt><trkpt lat="43.1508867" lon="2.402095"><ele>327.5</ele><time>2026-04-26T14:33:55.73Z</time></trkpt><trkpt lat="43.1509933" lon="2.402015"><ele>323.75</ele><time>2026-04-26T14:33:56.73Z</time></trkpt><trkpt lat="43.1510917" lon="2.4019433"><ele>320.0</ele><time>2026-04-26T14:33:57.729Z</time></trkpt><trkpt lat="43.1511567" lon="2.4018333"><ele>320.0</ele><time>2026-04-26T14:33:58.733Z</time></trkpt><trkpt lat="43.1511833" lon="2.4016817"><ele>320.0</ele><time>2026-04-26T14:33:59.729Z</time></trkpt><trkpt lat="43.15118" lon="2.4015133"><ele>320.0</ele><time>2026-04-26T14:34:00.729Z</time></trkpt><trkpt lat="43.15115" lon="2.4013417"><ele>320.0</ele><time>2026-04-26T14:34:01.729Z</time></trkpt><trkpt lat="43.1511167" lon="2.4011667"><ele>320.25</ele><time>2026-04-26T14:34:02.73Z</time></trkpt><trkpt lat="43.1511083" lon="2.4009867"><ele>320.5</ele><time>2026-04-26T14:34:03.729Z</time></trkpt><trkpt lat="43.1511367" lon="2.4008033"><ele>320.75</ele><time>2026-04-26T14:34:04.729Z</time></trkpt><trkpt lat="43.1511967" lon="2.4006283"><ele>321.0</ele><time>2026-04-26T14:34:05.729Z</time></trkpt><trkpt lat="43.15127" lon="2.400465"><ele>323.0</ele><time>2026-04-26T14:34:06.731Z</time></trkpt><trkpt lat="43.15134" lon="2.40031"><ele>325.0</ele><time>2026-04-26T14:34:07.729Z</time></trkpt><trkpt lat="43.151395" lon="2.4001567"><ele>327.0</ele><time>2026-04-26T14:34:08.731Z</time></trkpt><trkpt lat="43.1514417" lon="2.40001"><ele>329.0</ele><time>2026-04-26T14:34:09.728Z</time></trkpt><trkpt lat="43.1514883" lon="2.399875"><ele>329.0</ele><time>2026-04-26T14:34:10.728Z</time></trkpt><trkpt lat="43.15154" lon="2.3997433"><ele>329.0</ele><time>2026-04-26T14:34:11.729Z</time></trkpt><trkpt lat="43.151605" lon="2.39962"><ele>329.0</ele><time>2026-04-26T14:34:12.728Z</time></trkpt><trkpt lat="43.15169" lon="2.3995067"><ele>329.0</ele><time>2026-04-26T14:34:13.728Z</time></trkpt><trkpt lat="43.1517833" lon="2.399425"><ele>329.0</ele><time>2026-04-26T14:34:14.732Z</time></trkpt><trkpt lat="43.151895" lon="2.3994"><ele>327.25</ele><time>2026-04-26T14:34:15.73Z</time></trkpt><trkpt lat="43.1520083" lon="2.3994433"><ele>325.5</ele><time>2026-04-26T14:34:16.73Z</time></trkpt><trkpt lat="43.15211" lon="2.39954"><ele>323.75</ele><time>2026-04-26T14:34:17.729Z</time></trkpt><trkpt lat="43.152185" lon="2.3996717"><ele>322.0</ele><time>2026-04-26T14:34:18.732Z</time></trkpt><trkpt lat="43.15224" lon="2.3998283"><ele>319.0</ele><time>2026-04-26T14:34:19.729Z</time></trkpt><trkpt lat="43.1522833" lon="2.4000133"><ele>316.0</ele><time>2026-04-26T14:34:20.731Z</time></trkpt><trkpt lat="43.1523233" lon="2.4002183"><ele>313.0</ele><time>2026-04-26T14:34:21.728Z</time></trkpt><trkpt lat="43.1523717" lon="2.4004283"><ele>313.0</ele><time>2026-04-26T14:34:22.729Z</time></trkpt><trkpt lat="43.152425" lon="2.400645"><ele>313.0</ele><time>2026-04-26T14:34:23.732Z</time></trkpt><trkpt lat="43.1524717" lon="2.400865"><ele>313.0</ele><time>2026-04-26T14:34:24.729Z</time></trkpt><trkpt lat="43.1525183" lon="2.40108"><ele>313.0</ele><time>2026-04-26T14:34:25.729Z</time></trkpt><trkpt lat="43.1525583" lon="2.40128"><ele>313.0</ele><time>2026-04-26T14:34:26.729Z</time></trkpt><trkpt lat="43.152595" lon="2.4014683"><ele>313.0</ele><time>2026-04-26T14:34:27.729Z</time></trkpt><trkpt lat="43.1526333" lon="2.4016467"><ele>313.0</ele><time>2026-04-26T14:34:28.728Z</time></trkpt><trkpt lat="43.1527017" lon="2.4018083"><ele>310.75</ele><time>2026-04-26T14:34:29.729Z</time></trkpt><trkpt lat="43.1528" lon="2.4019317"><ele>308.5</ele><time>2026-04-26T14:34:30.731Z</time></trkpt><trkpt lat="43.1529267" lon="2.4020083"><ele>306.25</ele><time>2026-04-26T14:34:31.728Z</time></trkpt><trkpt lat="43.1530633" lon="2.4020283"><ele>304.0</ele><time>2026-04-26T14:34:32.73Z</time></trkpt><trkpt lat="43.1531933" lon="2.401985"><ele>307.0</ele><time>2026-04-26T14:34:33.735Z</time></trkpt><trkpt lat="43.1533133" lon="2.401905"><ele>310.0</ele><time>2026-04-26T14:34:34.729Z</time></trkpt><trkpt lat="43.153435" lon="2.4018483"><ele>313.0</ele><time>2026-04-26T14:34:35.732Z</time></trkpt><trkpt lat="43.1535667" lon="2.4018417"><ele>316.0</ele><time>2026-04-26T14:34:36.731Z</time></trkpt><trkpt lat="43.1536983" lon="2.4018833"><ele>316.0</ele><time>2026-04-26T14:34:37.73Z</time></trkpt><trkpt lat="43.1538267" lon="2.4019617"><ele>316.0</ele><time>2026-04-26T14:34:38.73Z</time></trkpt><trkpt lat="43.1539517" lon="2.4020467"><ele>316.0</ele><time>2026-04-26T14:34:39.73Z</time></trkpt><trkpt lat="43.1540933" lon="2.40211"><ele>316.0</ele><time>2026-04-26T14:34:40.728Z</time></trkpt><trkpt lat="43.1542417" lon="2.4021567"><ele>309.0</ele><time>2026-04-26T14:34:41.728Z</time></trkpt><trkpt lat="43.1543967" lon="2.4022067"><ele>302.0</ele><time>2026-04-26T14:34:42.732Z</time></trkpt><trkpt lat="43.1545583" lon="2.4022567"><ele>295.0</ele><time>2026-04-26T14:34:43.73Z</time></trkpt><trkpt lat="43.1547217" lon="2.402305"><ele>296.0</ele><time>2026-04-26T14:34:44.729Z</time></trkpt><trkpt lat="43.1548783" lon="2.4023483"><ele>297.0</ele><time>2026-04-26T14:34:45.733Z</time></trkpt><trkpt lat="43.155025" lon="2.4023933"><ele>298.0</ele><time>2026-04-26T14:34:46.733Z</time></trkpt><trkpt lat="43.1551633" lon="2.402445"><ele>298.0</ele><time>2026-04-26T14:34:47.73Z</time></trkpt><trkpt lat="43.15529" lon="2.402495"><ele>298.0</ele><time>2026-04-26T14:34:48.737Z</time></trkpt><trkpt lat="43.155405" lon="2.402535"><ele>298.0</ele><time>2026-04-26T14:34:49.734Z</time></trkpt><trkpt lat="43.1555133" lon="2.4025433"><ele>298.0</ele><time>2026-04-26T14:34:50.729Z</time></trkpt><trkpt lat="43.1556167" lon="2.4024933"><ele>298.0</ele><time>2026-04-26T14:34:51.729Z</time></trkpt><trkpt lat="43.1556883" lon="2.40239"><ele>298.0</ele><time>2026-04-26T14:34:52.729Z</time></trkpt><trkpt lat="43.15571" lon="2.4022583"><ele>298.0</ele><time>2026-04-26T14:34:53.73Z</time></trkpt><trkpt lat="43.1556733" lon="2.4021183"><ele>298.0</ele><time>2026-04-26T14:34:54.732Z</time></trkpt><trkpt lat="43.1555917" lon="2.4019817"><ele>298.0</ele><time>2026-04-26T14:34:55.732Z</time></trkpt><trkpt lat="43.155495" lon="2.4018383"><ele>302.0</ele><time>2026-04-26T14:34:56.729Z</time></trkpt><trkpt lat="43.1554067" lon="2.40167"><ele>306.0</ele><time>2026-04-26T14:34:57.73Z</time></trkpt><trkpt lat="43.155345" lon="2.40147"><ele>310.0</ele><time>2026-04-26T14:34:58.729Z</time></trkpt><trkpt lat="43.1553217" lon="2.401245"><ele>310.0</ele><time>2026-04-26T14:34:59.729Z</time></trkpt><trkpt lat="43.1553283" lon="2.4010083"><ele>310.0</ele><time>2026-04-26T14:35:00.731Z</time></trkpt><trkpt lat="43.1553417" lon="2.4007633"><ele>310.0</ele><time>2026-04-26T14:35:01.729Z</time></trkpt><trkpt lat="43.15535" lon="2.40052"><ele>308.66666666666663</ele><time>2026-04-26T14:35:02.731Z</time></trkpt><trkpt lat="43.1553567" lon="2.4002833"><ele>307.3333333333333</ele><time>2026-04-26T14:35:03.729Z</time></trkpt><trkpt lat="43.155365" lon="2.4000567"><ele>306.0</ele><time>2026-04-26T14:35:04.73Z</time></trkpt><trkpt lat="43.15538" lon="2.399835"><ele>307.3333333333333</ele><time>2026-04-26T14:35:05.731Z</time></trkpt><trkpt lat="43.1554267" lon="2.3996383"><ele>308.66666666666663</ele><time>2026-04-26T14:35:06.735Z</time></trkpt><trkpt lat="43.1555017" lon="2.3994567"><ele>310.0</ele><time>2026-04-26T14:35:07.729Z</time></trkpt><trkpt lat="43.1555967" lon="2.3992833"><ele>310.0</ele><time>2026-04-26T14:35:08.731Z</time></trkpt><trkpt lat="43.1557" lon="2.3991067"><ele>310.0</ele><time>2026-04-26T14:35:09.73Z</time></trkpt><trkpt lat="43.1558067" lon="2.398935"><ele>310.0</ele><time>2026-04-26T14:35:10.731Z</time></trkpt><trkpt lat="43.1559183" lon="2.3987833"><ele>310.0</ele><time>2026-04-26T14:35:11.728Z</time></trkpt><trkpt lat="43.1560433" lon="2.3986617"><ele>310.0</ele><time>2026-04-26T14:35:12.73Z</time></trkpt><trkpt lat="43.1561883" lon="2.3985833"><ele>310.0</ele><time>2026-04-26T14:35:13.73Z</time></trkpt><trkpt lat="43.1563367" lon="2.39855"><ele>310.0</ele><time>2026-04-26T14:35:14.73Z</time></trkpt><trkpt lat="43.1564783" lon="2.39855"><ele>310.0</ele><time>2026-04-26T14:35:15.73Z</time></trkpt><trkpt lat="43.15661" lon="2.398545"><ele>310.0</ele><time>2026-04-26T14:35:16.728Z</time></trkpt><trkpt lat="43.1567367" lon="2.3985"><ele>310.0</ele><time>2026-04-26T14:35:17.73Z</time></trkpt><trkpt lat="43.156855" lon="2.3984067"><ele>307.0</ele><time>2026-04-26T14:35:18.731Z</time></trkpt><trkpt lat="43.1569717" lon="2.3983033"><ele>304.0</ele><time>2026-04-26T14:35:19.729Z</time></trkpt><trkpt lat="43.1570967" lon="2.39823"><ele>301.0</ele><time>2026-04-26T14:35:20.735Z</time></trkpt><trkpt lat="43.1572333" lon="2.39821"><ele>298.0</ele><time>2026-04-26T14:35:21.729Z</time></trkpt><trkpt lat="43.1573683" lon="2.3982533"><ele>295.25</ele><time>2026-04-26T14:35:22.729Z</time></trkpt><trkpt lat="43.1574933" lon="2.39833"><ele>292.5</ele><time>2026-04-26T14:35:23.729Z</time></trkpt><trkpt lat="43.1576183" lon="2.3984033"><ele>289.75</ele><time>2026-04-26T14:35:24.73Z</time></trkpt><trkpt lat="43.1577417" lon="2.398455"><ele>287.0</ele><time>2026-04-26T14:35:25.73Z</time></trkpt><trkpt lat="43.1578567" lon="2.3984717"><ele>287.0</ele><time>2026-04-26T14:35:26.731Z</time></trkpt><trkpt lat="43.1579633" lon="2.398435"><ele>287.0</ele><time>2026-04-26T14:35:27.728Z</time></trkpt><trkpt lat="43.158035" lon="2.3983267"><ele>287.0</ele><time>2026-04-26T14:35:28.729Z</time></trkpt><trkpt lat="43.158085" lon="2.39818"><ele>287.0</ele><time>2026-04-26T14:35:29.729Z</time></trkpt><trkpt lat="43.1581183" lon="2.397995"><ele>285.0</ele><time>2026-04-26T14:35:30.73Z</time></trkpt><trkpt lat="43.1581583" lon="2.397805"><ele>283.0</ele><time>2026-04-26T14:35:31.729Z</time></trkpt><trkpt lat="43.158215" lon="2.39764"><ele>281.0</ele><time>2026-04-26T14:35:32.73Z</time></trkpt><trkpt lat="43.1582767" lon="2.39749"><ele>279.0</ele><time>2026-04-26T14:35:33.729Z</time></trkpt><trkpt lat="43.1583017" lon="2.3973367"><ele>279.0</ele><time>2026-04-26T14:35:34.73Z</time></trkpt><trkpt lat="43.1582783" lon="2.39719"><ele>279.0</ele><time>2026-04-26T14:35:35.729Z</time></trkpt><trkpt lat="43.1582033" lon="2.397085"><ele>279.0</ele><time>2026-04-26T14:35:36.728Z</time></trkpt><trkpt lat="43.1581" lon="2.3970067"><ele>279.0</ele><time>2026-04-26T14:35:37.731Z</time></trkpt><trkpt lat="43.1579983" lon="2.396905"><ele>278.75</ele><time>2026-04-26T14:35:38.73Z</time></trkpt><trkpt lat="43.157925" lon="2.39676"><ele>278.5</ele><time>2026-04-26T14:35:39.729Z</time></trkpt><trkpt lat="43.1578783" lon="2.3965867"><ele>278.25</ele><time>2026-04-26T14:35:40.733Z</time></trkpt><trkpt lat="43.157825" lon="2.3964167"><ele>278.0</ele><time>2026-04-26T14:35:41.728Z</time></trkpt><trkpt lat="43.157765" lon="2.3962517"><ele>278.0</ele><time>2026-04-26T14:35:42.727Z</time></trkpt><trkpt lat="43.1577233" lon="2.39608"><ele>278.0</ele><time>2026-04-26T14:35:43.733Z</time></trkpt><trkpt lat="43.1576967" lon="2.3959117"><ele>278.0</ele><time>2026-04-26T14:35:44.729Z</time></trkpt><trkpt lat="43.1576617" lon="2.3957533"><ele>278.0</ele><time>2026-04-26T14:35:45.729Z</time></trkpt><trkpt lat="43.1576117" lon="2.395615"><ele>277.6</ele><time>2026-04-26T14:35:46.729Z</time></trkpt><trkpt lat="43.157555" lon="2.395495"><ele>277.20000000000005</ele><time>2026-04-26T14:35:47.728Z</time></trkpt><trkpt lat="43.1575117" lon="2.395375"><ele>276.8</ele><time>2026-04-26T14:35:48.729Z</time></trkpt><trkpt lat="43.157485" lon="2.395255"><ele>276.40000000000003</ele><time>2026-04-26T14:35:49.728Z</time></trkpt><trkpt lat="43.15749" lon="2.395135"><ele>276.0</ele><time>2026-04-26T14:35:50.729Z</time></trkpt><trkpt lat="43.1575183" lon="2.3950283"><ele>276.0</ele><time>2026-04-26T14:35:51.732Z</time></trkpt><trkpt lat="43.1575683" lon="2.39494"><ele>276.0</ele><time>2026-04-26T14:35:52.732Z</time></trkpt><trkpt lat="43.1576517" lon="2.3949133"><ele>276.0</ele><time>2026-04-26T14:35:53.728Z</time></trkpt><trkpt lat="43.1577467" lon="2.394915"><ele>276.0</ele><time>2026-04-26T14:35:54.73Z</time></trkpt><trkpt lat="43.15785" lon="2.39492"><ele>276.0</ele><time>2026-04-26T14:35:55.728Z</time></trkpt><trkpt lat="43.1579533" lon="2.3949233"><ele>276.0</ele><time>2026-04-26T14:35:56.729Z</time></trkpt><trkpt lat="43.15806" lon="2.39492"><ele>276.0</ele><time>2026-04-26T14:35:57.734Z</time></trkpt><trkpt lat="43.1581617" lon="2.3948917"><ele>276.0</ele><time>2026-04-26T14:35:58.729Z</time></trkpt><trkpt lat="43.15826" lon="2.3948333"><ele>276.0</ele><time>2026-04-26T14:35:59.733Z</time></trkpt><trkpt lat="43.1583567" lon="2.394755"><ele>276.0</ele><time>2026-04-26T14:36:00.732Z</time></trkpt><trkpt lat="43.1584433" lon="2.3946683"><ele>276.0</ele><time>2026-04-26T14:36:01.727Z</time></trkpt><trkpt lat="43.1585317" lon="2.3945767"><ele>276.0</ele><time>2026-04-26T14:36:02.729Z</time></trkpt><trkpt lat="43.1586217" lon="2.3944917"><ele>276.0</ele><time>2026-04-26T14:36:03.73Z</time></trkpt><trkpt lat="43.1587117" lon="2.394405"><ele>276.0</ele><time>2026-04-26T14:36:04.729Z</time></trkpt><trkpt lat="43.1587933" lon="2.3943017"><ele>276.0</ele><time>2026-04-26T14:36:05.728Z</time></trkpt><trkpt lat="43.15886" lon="2.39419"><ele>276.0</ele><time>2026-04-26T14:36:06.731Z</time></trkpt><trkpt lat="43.1589233" lon="2.3940633"><ele>276.0</ele><time>2026-04-26T14:36:07.727Z</time></trkpt><trkpt lat="43.15898" lon="2.3939183"><ele>276.0</ele><time>2026-04-26T14:36:08.728Z</time></trkpt><trkpt lat="43.1590317" lon="2.39377"><ele>276.0</ele><time>2026-04-26T14:36:09.729Z</time></trkpt><trkpt lat="43.159065" lon="2.3936183"><ele>277.6</ele><time>2026-04-26T14:36:10.728Z</time></trkpt><trkpt lat="43.1590767" lon="2.393465"><ele>279.20000000000005</ele><time>2026-04-26T14:36:11.734Z</time></trkpt><trkpt lat="43.1590667" lon="2.3933133"><ele>280.79999999999995</ele><time>2026-04-26T14:36:12.731Z</time></trkpt><trkpt lat="43.1590483" lon="2.39317"><ele>282.4</ele><time>2026-04-26T14:36:13.729Z</time></trkpt><trkpt lat="43.1590317" lon="2.3930317"><ele>284.0</ele><time>2026-04-26T14:36:14.73Z</time></trkpt><trkpt lat="43.159055" lon="2.3929033"><ele>279.2</ele><time>2026-04-26T14:36:15.732Z</time></trkpt><trkpt lat="43.1591167" lon="2.392795"><ele>274.4</ele><time>2026-04-26T14:36:16.728Z</time></trkpt><trkpt lat="43.159205" lon="2.3927183"><ele>269.6</ele><time>2026-04-26T14:36:17.729Z</time></trkpt><trkpt lat="43.159315" lon="2.3926883"><ele>264.8</ele><time>2026-04-26T14:36:18.731Z</time></trkpt><trkpt lat="43.1594333" lon="2.3926517"><ele>260.0</ele><time>2026-04-26T14:36:19.729Z</time></trkpt><trkpt lat="43.15955" lon="2.392585"><ele>260.0</ele><time>2026-04-26T14:36:20.731Z</time></trkpt><trkpt lat="43.159675" lon="2.39248"><ele>260.0</ele><time>2026-04-26T14:36:21.729Z</time></trkpt><trkpt lat="43.1597983" lon="2.39236"><ele>260.0</ele><time>2026-04-26T14:36:22.73Z</time></trkpt><trkpt lat="43.15992" lon="2.3922483"><ele>260.0</ele><time>2026-04-26T14:36:23.73Z</time></trkpt><trkpt lat="43.1600467" lon="2.3921767"><ele>258.75</ele><time>2026-04-26T14:36:24.73Z</time></trkpt><trkpt lat="43.1601783" lon="2.3921667"><ele>257.5</ele><time>2026-04-26T14:36:25.727Z</time></trkpt><trkpt lat="43.1603033" lon="2.39223"><ele>256.25</ele><time>2026-04-26T14:36:26.73Z</time></trkpt><trkpt lat="43.1604033" lon="2.3923433"><ele>255.0</ele><time>2026-04-26T14:36:27.728Z</time></trkpt><trkpt lat="43.160465" lon="2.3924933"><ele>253.0</ele><time>2026-04-26T14:36:28.73Z</time></trkpt><trkpt lat="43.1604933" lon="2.3926483"><ele>251.0</ele><time>2026-04-26T14:36:29.728Z</time></trkpt><trkpt lat="43.1605367" lon="2.392785"><ele>249.0</ele><time>2026-04-26T14:36:30.729Z</time></trkpt><trkpt lat="43.1606133" lon="2.3928767"><ele>247.0</ele><time>2026-04-26T14:36:31.728Z</time></trkpt><trkpt lat="43.160715" lon="2.392905"><ele>245.0</ele><time>2026-04-26T14:36:32.734Z</time></trkpt><trkpt lat="43.1608267" lon="2.39286"><ele>244.0</ele><time>2026-04-26T14:36:33.728Z</time></trkpt><trkpt lat="43.1609367" lon="2.3927467"><ele>243.0</ele><time>2026-04-26T14:36:34.728Z</time></trkpt><trkpt lat="43.1610317" lon="2.3925783"><ele>242.0</ele><time>2026-04-26T14:36:35.728Z</time></trkpt><trkpt lat="43.1611183" lon="2.3924017"><ele>241.0</ele><time>2026-04-26T14:36:36.73Z</time></trkpt><trkpt lat="43.161205" lon="2.3922333"><ele>239.75</ele><time>2026-04-26T14:36:37.728Z</time></trkpt><trkpt lat="43.16131" lon="2.3921"><ele>238.5</ele><time>2026-04-26T14:36:38.73Z</time></trkpt><trkpt lat="43.1614317" lon="2.3920233"><ele>237.25</ele><time>2026-04-26T14:36:39.728Z</time></trkpt><trkpt lat="43.1615667" lon="2.3920183"><ele>236.0</ele><time>2026-04-26T14:36:40.736Z</time></trkpt><trkpt lat="43.1617033" lon="2.3920067"><ele>236.0</ele><time>2026-04-26T14:36:41.728Z</time></trkpt><trkpt lat="43.161835" lon="2.3919417"><ele>236.0</ele><time>2026-04-26T14:36:42.729Z</time></trkpt><trkpt lat="43.16195" lon="2.3918167"><ele>236.0</ele><time>2026-04-26T14:36:43.729Z</time></trkpt><trkpt lat="43.1620583" lon="2.3916533"><ele>236.0</ele><time>2026-04-26T14:36:44.728Z</time></trkpt><trkpt lat="43.162165" lon="2.3914967"><ele>238.33333333333334</ele><time>2026-04-26T14:36:45.729Z</time></trkpt><trkpt lat="43.16227" lon="2.3913383"><ele>240.66666666666669</ele><time>2026-04-26T14:36:46.73Z</time></trkpt><trkpt lat="43.1623883" lon="2.3912017"><ele>243.0</ele><time>2026-04-26T14:36:47.729Z</time></trkpt><trkpt lat="43.1625217" lon="2.3911067"><ele>237.66666666666669</ele><time>2026-04-26T14:36:48.729Z</time></trkpt><trkpt lat="43.1626733" lon="2.39107"><ele>232.33333333333334</ele><time>2026-04-26T14:36:49.73Z</time></trkpt><trkpt lat="43.1628333" lon="2.391095"><ele>227.0</ele><time>2026-04-26T14:36:50.731Z</time></trkpt><trkpt lat="43.162995" lon="2.3911467"><ele>227.0</ele><time>2026-04-26T14:36:51.731Z</time></trkpt><trkpt lat="43.1631433" lon="2.3912183"><ele>227.0</ele><time>2026-04-26T14:36:52.737Z</time></trkpt><trkpt lat="43.163295" lon="2.39128"><ele>227.0</ele><time>2026-04-26T14:36:53.729Z</time></trkpt><trkpt lat="43.1634483" lon="2.3913033"><ele>224.0</ele><time>2026-04-26T14:36:54.732Z</time></trkpt><trkpt lat="43.1636217" lon="2.3912733"><ele>221.0</ele><time>2026-04-26T14:36:55.728Z</time></trkpt><trkpt lat="43.1637967" lon="2.3912133"><ele>218.0</ele><time>2026-04-26T14:36:56.73Z</time></trkpt><trkpt lat="43.1639767" lon="2.3911267"><ele>219.0</ele><time>2026-04-26T14:36:57.728Z</time></trkpt><trkpt lat="43.164155" lon="2.3910183"><ele>220.0</ele><time>2026-04-26T14:36:58.728Z</time></trkpt><trkpt lat="43.1643217" lon="2.3908917"><ele>221.0</ele><time>2026-04-26T14:36:59.727Z</time></trkpt><trkpt lat="43.1644783" lon="2.3907517"><ele>221.0</ele><time>2026-04-26T14:37:00.728Z</time></trkpt><trkpt lat="43.164625" lon="2.390605"><ele>221.0</ele><time>2026-04-26T14:37:01.728Z</time></trkpt><trkpt lat="43.1647683" lon="2.3904683"><ele>221.0</ele><time>2026-04-26T14:37:02.728Z</time></trkpt><trkpt lat="43.1649067" lon="2.3903333"><ele>221.0</ele><time>2026-04-26T14:37:03.729Z</time></trkpt><trkpt lat="43.1650467" lon="2.3902067"><ele>221.0</ele><time>2026-04-26T14:37:04.727Z</time></trkpt><trkpt lat="43.1651783" lon="2.3900933"><ele>221.0</ele><time>2026-04-26T14:37:05.729Z</time></trkpt><trkpt lat="43.1652983" lon="2.3900033"><ele>221.0</ele><time>2026-04-26T14:37:06.729Z</time></trkpt><trkpt lat="43.16541" lon="2.3899283"><ele>221.0</ele><time>2026-04-26T14:37:07.728Z</time></trkpt><trkpt lat="43.1655133" lon="2.3898617"><ele>221.0</ele><time>2026-04-26T14:37:08.729Z</time></trkpt><trkpt lat="43.1656133" lon="2.3897883"><ele>221.0</ele><time>2026-04-26T14:37:09.729Z</time></trkpt><trkpt lat="43.1657083" lon="2.38969"><ele>221.25</ele><time>2026-04-26T14:37:10.729Z</time></trkpt><trkpt lat="43.1657767" lon="2.3895467"><ele>221.5</ele><time>2026-04-26T14:37:11.729Z</time></trkpt><trkpt lat="43.1658283" lon="2.389375"><ele>221.75</ele><time>2026-04-26T14:37:12.73Z</time></trkpt><trkpt lat="43.1658733" lon="2.3891833"><ele>222.0</ele><time>2026-04-26T14:37:13.728Z</time></trkpt><trkpt lat="43.1659183" lon="2.3889767"><ele>219.33333333333331</ele><time>2026-04-26T14:37:14.736Z</time></trkpt><trkpt lat="43.16596" lon="2.3887683"><ele>216.66666666666666</ele><time>2026-04-26T14:37:15.728Z</time></trkpt><trkpt lat="43.166" lon="2.3885517"><ele>214.0</ele><time>2026-04-26T14:37:16.73Z</time></trkpt><trkpt lat="43.1660283" lon="2.3883233"><ele>214.0</ele><time>2026-04-26T14:37:17.729Z</time></trkpt><trkpt lat="43.1660367" lon="2.3881"><ele>214.0</ele><time>2026-04-26T14:37:18.732Z</time></trkpt><trkpt lat="43.1660383" lon="2.3878783"><ele>214.0</ele><time>2026-04-26T14:37:19.731Z</time></trkpt><trkpt lat="43.1660417" lon="2.3876767"><ele>212.75</ele><time>2026-04-26T14:37:20.729Z</time></trkpt><trkpt lat="43.1660667" lon="2.3874917"><ele>211.5</ele><time>2026-04-26T14:37:21.729Z</time></trkpt><trkpt lat="43.1661133" lon="2.387315"><ele>210.25</ele><time>2026-04-26T14:37:22.728Z</time></trkpt><trkpt lat="43.1662" lon="2.3871467"><ele>209.0</ele><time>2026-04-26T14:37:23.728Z</time></trkpt><trkpt lat="43.1663167" lon="2.3870083"><ele>209.0</ele><time>2026-04-26T14:37:24.728Z</time></trkpt><trkpt lat="43.1664383" lon="2.3868867"><ele>209.0</ele><time>2026-04-26T14:37:25.728Z</time></trkpt><trkpt lat="43.1665567" lon="2.3867733"><ele>209.0</ele><time>2026-04-26T14:37:26.73Z</time></trkpt><trkpt lat="43.1666717" lon="2.3866583"><ele>209.0</ele><time>2026-04-26T14:37:27.729Z</time></trkpt><trkpt lat="43.1667817" lon="2.386545"><ele>209.0</ele><time>2026-04-26T14:37:28.731Z</time></trkpt><trkpt lat="43.1668833" lon="2.3864367"><ele>209.0</ele><time>2026-04-26T14:37:29.729Z</time></trkpt><trkpt lat="43.1669783" lon="2.3863567"><ele>209.0</ele><time>2026-04-26T14:37:30.729Z</time></trkpt><trkpt lat="43.1670717" lon="2.386325"><ele>209.0</ele><time>2026-04-26T14:37:31.731Z</time></trkpt><trkpt lat="43.1671617" lon="2.38634"><ele>209.0</ele><time>2026-04-26T14:37:32.729Z</time></trkpt><trkpt lat="43.1672383" lon="2.38642"><ele>209.0</ele><time>2026-04-26T14:37:33.731Z</time></trkpt><trkpt lat="43.1672717" lon="2.3865533"><ele>209.0</ele><time>2026-04-26T14:37:34.73Z</time></trkpt><trkpt lat="43.1672683" lon="2.386725"><ele>209.0</ele><time>2026-04-26T14:37:35.728Z</time></trkpt><trkpt lat="43.167245" lon="2.38691"><ele>209.0</ele><time>2026-04-26T14:37:36.729Z</time></trkpt><trkpt lat="43.1672317" lon="2.3871033"><ele>211.0</ele><time>2026-04-26T14:37:37.73Z</time></trkpt><trkpt lat="43.16723" lon="2.3873017"><ele>213.0</ele><time>2026-04-26T14:37:38.731Z</time></trkpt><trkpt lat="43.1672467" lon="2.38751"><ele>215.0</ele><time>2026-04-26T14:37:39.728Z</time></trkpt><trkpt lat="43.167295" lon="2.3877233"><ele>209.66666666666669</ele><time>2026-04-26T14:37:40.73Z</time></trkpt><trkpt lat="43.1673717" lon="2.387935"><ele>204.33333333333331</ele><time>2026-04-26T14:37:41.728Z</time></trkpt><trkpt lat="43.1674533" lon="2.38815"><ele>199.0</ele><time>2026-04-26T14:37:42.736Z</time></trkpt><trkpt lat="43.167535" lon="2.3883633"><ele>199.0</ele><time>2026-04-26T14:37:43.73Z</time></trkpt><trkpt lat="43.1676083" lon="2.38857"><ele>199.0</ele><time>2026-04-26T14:37:44.73Z</time></trkpt><trkpt lat="43.1676817" lon="2.3887783"><ele>199.0</ele><time>2026-04-26T14:37:45.728Z</time></trkpt><trkpt lat="43.16776" lon="2.3889767"><ele>200.33333333333331</ele><time>2026-04-26T14:37:46.728Z</time></trkpt><trkpt lat="43.1678517" lon="2.3891583"><ele>201.66666666666669</ele><time>2026-04-26T14:37:47.73Z</time></trkpt><trkpt lat="43.1679567" lon="2.3893167"><ele>203.0</ele><time>2026-04-26T14:37:48.728Z</time></trkpt><trkpt lat="43.168085" lon="2.3894433"><ele>198.33333333333334</ele><time>2026-04-26T14:37:49.728Z</time></trkpt><trkpt lat="43.1682317" lon="2.3895317"><ele>193.66666666666669</ele><time>2026-04-26T14:37:50.728Z</time></trkpt><trkpt lat="43.1683917" lon="2.389575"><ele>189.0</ele><time>2026-04-26T14:37:51.73Z</time></trkpt><trkpt lat="43.1685583" lon="2.389585"><ele>189.0</ele><time>2026-04-26T14:37:52.73Z</time></trkpt><trkpt lat="43.1687283" lon="2.3895667"><ele>189.0</ele><time>2026-04-26T14:37:53.728Z</time></trkpt><trkpt lat="43.1688967" lon="2.3895133"><ele>189.0</ele><time>2026-04-26T14:37:54.729Z</time></trkpt><trkpt lat="43.16906" lon="2.3894333"><ele>187.0</ele><time>2026-04-26T14:37:55.729Z</time></trkpt><trkpt lat="43.1692167" lon="2.389335"><ele>185.0</ele><time>2026-04-26T14:37:56.729Z</time></trkpt><trkpt lat="43.16937" lon="2.38923"><ele>183.0</ele><time>2026-04-26T14:37:57.728Z</time></trkpt><trkpt lat="43.1695083" lon="2.38913"><ele>183.0</ele><time>2026-04-26T14:37:58.73Z</time></trkpt><trkpt lat="43.1696317" lon="2.3890283"><ele>183.0</ele><time>2026-04-26T14:37:59.727Z</time></trkpt><trkpt lat="43.1697467" lon="2.3889217"><ele>183.0</ele><time>2026-04-26T14:38:00.727Z</time></trkpt><trkpt lat="43.1698633" lon="2.3888383"><ele>183.0</ele><time>2026-04-26T14:38:01.729Z</time></trkpt><trkpt lat="43.1699917" lon="2.3887967"><ele>182.66666666666666</ele><time>2026-04-26T14:38:02.728Z</time></trkpt><trkpt lat="43.17013" lon="2.3888"><ele>182.33333333333331</ele><time>2026-04-26T14:38:03.727Z</time></trkpt><trkpt lat="43.17028" lon="2.3888233"><ele>182.0</ele><time>2026-04-26T14:38:04.728Z</time></trkpt><trkpt lat="43.17044" lon="2.3888417"><ele>182.66666666666666</ele><time>2026-04-26T14:38:05.728Z</time></trkpt><trkpt lat="43.1706067" lon="2.3888517"><ele>183.33333333333334</ele><time>2026-04-26T14:38:06.729Z</time></trkpt><trkpt lat="43.170775" lon="2.3888617"><ele>184.0</ele><time>2026-04-26T14:38:07.73Z</time></trkpt><trkpt lat="43.1709383" lon="2.388875"><ele>182.66666666666669</ele><time>2026-04-26T14:38:08.728Z</time></trkpt><trkpt lat="43.171095" lon="2.3888933"><ele>181.33333333333334</ele><time>2026-04-26T14:38:09.728Z</time></trkpt><trkpt lat="43.1712483" lon="2.388915"><ele>180.0</ele><time>2026-04-26T14:38:10.731Z</time></trkpt><trkpt lat="43.1713933" lon="2.3889217"><ele>179.0</ele><time>2026-04-26T14:38:11.73Z</time></trkpt><trkpt lat="43.1715283" lon="2.38889"><ele>178.0</ele><time>2026-04-26T14:38:12.731Z</time></trkpt><trkpt lat="43.1716483" lon="2.3888133"><ele>177.0</ele><time>2026-04-26T14:38:13.731Z</time></trkpt><trkpt lat="43.1717517" lon="2.38869"><ele>176.0</ele><time>2026-04-26T14:38:14.728Z</time></trkpt><trkpt lat="43.17185" lon="2.3885383"><ele>176.0</ele><time>2026-04-26T14:38:15.728Z</time></trkpt><trkpt lat="43.17194" lon="2.3883883"><ele>176.0</ele><time>2026-04-26T14:38:16.728Z</time></trkpt><trkpt lat="43.17203" lon="2.388245"><ele>176.0</ele><time>2026-04-26T14:38:17.728Z</time></trkpt><trkpt lat="43.1721167" lon="2.3881067"><ele>176.0</ele><time>2026-04-26T14:38:18.731Z</time></trkpt><trkpt lat="43.1722017" lon="2.3879783"><ele>176.0</ele><time>2026-04-26T14:38:19.727Z</time></trkpt><trkpt lat="43.1723033" lon="2.3878883"><ele>176.0</ele><time>2026-04-26T14:38:20.729Z</time></trkpt><trkpt lat="43.1724217" lon="2.3878433"><ele>176.0</ele><time>2026-04-26T14:38:21.728Z</time></trkpt><trkpt lat="43.1725533" lon="2.3878583"><ele>176.0</ele><time>2026-04-26T14:38:22.729Z</time></trkpt><trkpt lat="43.1726967" lon="2.387895"><ele>174.75</ele><time>2026-04-26T14:38:23.729Z</time></trkpt><trkpt lat="43.1728333" lon="2.387925"><ele>173.5</ele><time>2026-04-26T14:38:24.728Z</time></trkpt><trkpt lat="43.1729683" lon="2.38793"><ele>172.25</ele><time>2026-04-26T14:38:25.732Z</time></trkpt><trkpt lat="43.173095" lon="2.3879217"><ele>171.0</ele><time>2026-04-26T14:38:26.729Z</time></trkpt><trkpt lat="43.1732183" lon="2.38792"><ele>170.5</ele><time>2026-04-26T14:38:27.73Z</time></trkpt><trkpt lat="43.1733233" lon="2.387965"><ele>170.0</ele><time>2026-04-26T14:38:28.729Z</time></trkpt><trkpt lat="43.1734067" lon="2.3880083"><ele>169.5</ele><time>2026-04-26T14:38:29.729Z</time></trkpt><trkpt lat="43.17349" lon="2.3880033"><ele>169.0</ele><time>2026-04-26T14:38:30.728Z</time></trkpt><trkpt lat="43.1735633" lon="2.3879617"><ele>168.5</ele><time>2026-04-26T14:38:31.732Z</time></trkpt><trkpt lat="43.1736183" lon="2.3878833"><ele>168.0</ele><time>2026-04-26T14:38:32.731Z</time></trkpt><trkpt lat="43.1736183" lon="2.387735"><ele>168.0</ele><time>2026-04-26T14:38:33.729Z</time></trkpt><trkpt lat="43.1736067" lon="2.38757"><ele>168.0</ele><time>2026-04-26T14:38:34.729Z</time></trkpt><trkpt lat="43.173605" lon="2.38739"><ele>168.0</ele><time>2026-04-26T14:38:35.728Z</time></trkpt><trkpt lat="43.1736333" lon="2.387195"><ele>168.0</ele><time>2026-04-26T14:38:36.729Z</time></trkpt><trkpt lat="43.17369" lon="2.387"><ele>168.66666666666666</ele><time>2026-04-26T14:38:37.728Z</time></trkpt><trkpt lat="43.1737633" lon="2.3867933"><ele>169.33333333333331</ele><time>2026-04-26T14:38:38.733Z</time></trkpt><trkpt lat="43.1738483" lon="2.3865733"><ele>170.0</ele><time>2026-04-26T14:38:39.728Z</time></trkpt><trkpt lat="43.1739333" lon="2.3863533"><ele>171.33333333333331</ele><time>2026-04-26T14:38:40.728Z</time></trkpt><trkpt lat="43.1740183" lon="2.3861367"><ele>172.66666666666666</ele><time>2026-04-26T14:38:41.732Z</time></trkpt><trkpt lat="43.1741083" lon="2.3859167"><ele>174.0</ele><time>2026-04-26T14:38:42.729Z</time></trkpt><trkpt lat="43.1741967" lon="2.3856933"><ele>172.33333333333334</ele><time>2026-04-26T14:38:43.728Z</time></trkpt><trkpt lat="43.1742883" lon="2.3854683"><ele>170.66666666666669</ele><time>2026-04-26T14:38:44.731Z</time></trkpt><trkpt lat="43.17439" lon="2.385255"><ele>169.0</ele><time>2026-04-26T14:38:45.732Z</time></trkpt><trkpt lat="43.1744983" lon="2.3850517"><ele>169.0</ele><time>2026-04-26T14:38:46.73Z</time></trkpt><trkpt lat="43.17462" lon="2.3848667"><ele>169.0</ele><time>2026-04-26T14:38:47.729Z</time></trkpt><trkpt lat="43.1747417" lon="2.3846967"><ele>169.0</ele><time>2026-04-26T14:38:48.728Z</time></trkpt><trkpt lat="43.1748567" lon="2.3845283"><ele>167.66666666666669</ele><time>2026-04-26T14:38:49.729Z</time></trkpt><trkpt lat="43.17496" lon="2.3843617"><ele>166.33333333333334</ele><time>2026-04-26T14:38:50.73Z</time></trkpt><trkpt lat="43.1750533" lon="2.3842017"><ele>165.0</ele><time>2026-04-26T14:38:51.732Z</time></trkpt><trkpt lat="43.1751367" lon="2.3840433"><ele>165.0</ele><time>2026-04-26T14:38:52.729Z</time></trkpt><trkpt lat="43.17521" lon="2.3838933"><ele>165.0</ele><time>2026-04-26T14:38:53.73Z</time></trkpt><trkpt lat="43.1752767" lon="2.3837467"><ele>165.0</ele><time>2026-04-26T14:38:54.729Z</time></trkpt><trkpt lat="43.1753417" lon="2.38361"><ele>165.0</ele><time>2026-04-26T14:38:55.729Z</time></trkpt><trkpt lat="43.1754117" lon="2.3834933"><ele>165.2</ele><time>2026-04-26T14:38:56.729Z</time></trkpt><trkpt lat="43.1754917" lon="2.3834067"><ele>165.4</ele><time>2026-04-26T14:38:57.73Z</time></trkpt><trkpt lat="43.17558" lon="2.3833483"><ele>165.60000000000002</ele><time>2026-04-26T14:38:58.73Z</time></trkpt><trkpt lat="43.1756667" lon="2.3832883"><ele>165.8</ele><time>2026-04-26T14:38:59.73Z</time></trkpt><trkpt lat="43.175725" lon="2.38319"><ele>166.0</ele><time>2026-04-26T14:39:00.732Z</time></trkpt><trkpt lat="43.175785" lon="2.3830717"><ele>164.5</ele><time>2026-04-26T14:39:01.73Z</time></trkpt><trkpt lat="43.1758633" lon="2.3829433"><ele>163.0</ele><time>2026-04-26T14:39:02.729Z</time></trkpt><trkpt lat="43.1759617" lon="2.3828"><ele>161.5</ele><time>2026-04-26T14:39:03.729Z</time></trkpt><trkpt lat="43.17606" lon="2.3826367"><ele>160.0</ele><time>2026-04-26T14:39:04.731Z</time></trkpt><trkpt lat="43.176165" lon="2.3824683"><ele>160.0</ele><time>2026-04-26T14:39:05.73Z</time></trkpt><trkpt lat="43.1762717" lon="2.3822967"><ele>160.0</ele><time>2026-04-26T14:39:06.732Z</time></trkpt><trkpt lat="43.1763767" lon="2.3821167"><ele>160.0</ele><time>2026-04-26T14:39:07.729Z</time></trkpt><trkpt lat="43.1764867" lon="2.3819333"><ele>159.66666666666669</ele><time>2026-04-26T14:39:08.728Z</time></trkpt><trkpt lat="43.1766017" lon="2.3817417"><ele>159.33333333333334</ele><time>2026-04-26T14:39:09.731Z</time></trkpt><trkpt lat="43.1767217" lon="2.3815467"><ele>159.0</ele><time>2026-04-26T14:39:10.731Z</time></trkpt><trkpt lat="43.1768317" lon="2.3813367"><ele>159.0</ele><time>2026-04-26T14:39:11.729Z</time></trkpt><trkpt lat="43.176935" lon="2.3811167"><ele>159.0</ele><time>2026-04-26T14:39:12.733Z</time></trkpt><trkpt lat="43.1770267" lon="2.3808833"><ele>159.0</ele><time>2026-04-26T14:39:13.729Z</time></trkpt><trkpt lat="43.17712" lon="2.3806483"><ele>158.0</ele><time>2026-04-26T14:39:14.731Z</time></trkpt><trkpt lat="43.1772133" lon="2.3804133"><ele>157.0</ele><time>2026-04-26T14:39:15.731Z</time></trkpt><trkpt lat="43.1773" lon="2.38018"><ele>156.0</ele><time>2026-04-26T14:39:16.731Z</time></trkpt><trkpt lat="43.17739" lon="2.3799517"><ele>156.66666666666666</ele><time>2026-04-26T14:39:17.731Z</time></trkpt><trkpt lat="43.1774833" lon="2.379725"><ele>157.33333333333331</ele><time>2026-04-26T14:39:18.734Z</time></trkpt><trkpt lat="43.177575" lon="2.3795"><ele>158.0</ele><time>2026-04-26T14:39:19.729Z</time></trkpt><trkpt lat="43.1776683" lon="2.3792717"><ele>158.0</ele><time>2026-04-26T14:39:20.728Z</time></trkpt><trkpt lat="43.1777617" lon="2.3790417"><ele>158.0</ele><time>2026-04-26T14:39:21.73Z</time></trkpt><trkpt lat="43.1778567" lon="2.37881"><ele>158.0</ele><time>2026-04-26T14:39:22.729Z</time></trkpt><trkpt lat="43.1779483" lon="2.378575"><ele>157.0</ele><time>2026-04-26T14:39:23.729Z</time></trkpt><trkpt lat="43.1780383" lon="2.3783417"><ele>156.0</ele><time>2026-04-26T14:39:24.729Z</time></trkpt><trkpt lat="43.178125" lon="2.37811"><ele>155.0</ele><time>2026-04-26T14:39:25.729Z</time></trkpt><trkpt lat="43.1782167" lon="2.37788"><ele>154.66666666666666</ele><time>2026-04-26T14:39:26.735Z</time></trkpt><trkpt lat="43.178315" lon="2.3776533"><ele>154.33333333333334</ele><time>2026-04-26T14:39:27.73Z</time></trkpt><trkpt lat="43.1784233" lon="2.3774333"><ele>154.0</ele><time>2026-04-26T14:39:28.729Z</time></trkpt><trkpt lat="43.1785433" lon="2.3772217"><ele>153.33333333333334</ele><time>2026-04-26T14:39:29.73Z</time></trkpt><trkpt lat="43.1786683" lon="2.37701"><ele>152.66666666666666</ele><time>2026-04-26T14:39:30.728Z</time></trkpt><trkpt lat="43.1787933" lon="2.3768"><ele>152.0</ele><time>2026-04-26T14:39:31.73Z</time></trkpt><trkpt lat="43.1789183" lon="2.37659"><ele>151.33333333333331</ele><time>2026-04-26T14:39:32.737Z</time></trkpt><trkpt lat="43.179045" lon="2.37638"><ele>150.66666666666666</ele><time>2026-04-26T14:39:33.731Z</time></trkpt><trkpt lat="43.1791717" lon="2.37617"><ele>150.0</ele><time>2026-04-26T14:39:34.734Z</time></trkpt><trkpt lat="43.1792967" lon="2.37596"><ele>150.0</ele><time>2026-04-26T14:39:35.73Z</time></trkpt><trkpt lat="43.1794217" lon="2.37575"><ele>150.0</ele><time>2026-04-26T14:39:36.731Z</time></trkpt><trkpt lat="43.1795467" lon="2.3755417"><ele>150.0</ele><time>2026-04-26T14:39:37.729Z</time></trkpt><trkpt lat="43.1796717" lon="2.375335"><ele>149.0</ele><time>2026-04-26T14:39:38.73Z</time></trkpt><trkpt lat="43.1797967" lon="2.3751267"><ele>148.0</ele><time>2026-04-26T14:39:39.73Z</time></trkpt><trkpt lat="43.1799233" lon="2.3749167"><ele>147.0</ele><time>2026-04-26T14:39:40.731Z</time></trkpt><trkpt lat="43.18005" lon="2.3747067"><ele>146.33333333333334</ele><time>2026-04-26T14:39:41.729Z</time></trkpt><trkpt lat="43.180175" lon="2.3744933"><ele>145.66666666666669</ele><time>2026-04-26T14:39:42.729Z</time></trkpt><trkpt lat="43.1803017" lon="2.37428"><ele>145.0</ele><time>2026-04-26T14:39:43.73Z</time></trkpt><trkpt lat="43.18043" lon="2.37407"><ele>145.0</ele><time>2026-04-26T14:39:44.731Z</time></trkpt><trkpt lat="43.1805583" lon="2.3738617"><ele>145.0</ele><time>2026-04-26T14:39:45.73Z</time></trkpt><trkpt lat="43.1806833" lon="2.3736567"><ele>145.0</ele><time>2026-04-26T14:39:46.728Z</time></trkpt><trkpt lat="43.1808083" lon="2.3734517"><ele>144.66666666666669</ele><time>2026-04-26T14:39:47.729Z</time></trkpt><trkpt lat="43.18093" lon="2.3732417"><ele>144.33333333333334</ele><time>2026-04-26T14:39:48.729Z</time></trkpt><trkpt lat="43.1810533" lon="2.37303"><ele>144.0</ele><time>2026-04-26T14:39:49.732Z</time></trkpt><trkpt lat="43.1811767" lon="2.3728217"><ele>144.0</ele><time>2026-04-26T14:39:50.732Z</time></trkpt><trkpt lat="43.1813033" lon="2.372615"><ele>144.0</ele><time>2026-04-26T14:39:51.729Z</time></trkpt><trkpt lat="43.18143" lon="2.3724067"><ele>144.0</ele><time>2026-04-26T14:39:52.73Z</time></trkpt><trkpt lat="43.181555" lon="2.3722"><ele>143.66666666666666</ele><time>2026-04-26T14:39:53.729Z</time></trkpt><trkpt lat="43.1816767" lon="2.372"><ele>143.33333333333331</ele><time>2026-04-26T14:39:54.732Z</time></trkpt><trkpt lat="43.1817933" lon="2.3718067"><ele>143.0</ele><time>2026-04-26T14:39:55.729Z</time></trkpt><trkpt lat="43.1819117" lon="2.3716183"><ele>143.0</ele><time>2026-04-26T14:39:56.739Z</time></trkpt><trkpt lat="43.1820333" lon="2.3714317"><ele>143.0</ele><time>2026-04-26T14:39:57.73Z</time></trkpt><trkpt lat="43.1821633" lon="2.37125"><ele>143.0</ele><time>2026-04-26T14:39:58.73Z</time></trkpt><trkpt lat="43.182295" lon="2.3710667"><ele>144.0</ele><time>2026-04-26T14:39:59.73Z</time></trkpt><trkpt lat="43.1824317" lon="2.3708833"><ele>145.0</ele><time>2026-04-26T14:40:00.73Z</time></trkpt><trkpt lat="43.1825667" lon="2.3707033"><ele>146.0</ele><time>2026-04-26T14:40:01.731Z</time></trkpt><trkpt lat="43.18269" lon="2.3705317"><ele>144.66666666666666</ele><time>2026-04-26T14:40:02.731Z</time></trkpt><trkpt lat="43.1828083" lon="2.370365"><ele>143.33333333333334</ele><time>2026-04-26T14:40:03.73Z</time></trkpt><trkpt lat="43.1829233" lon="2.3702067"><ele>142.0</ele><time>2026-04-26T14:40:04.729Z</time></trkpt><trkpt lat="43.183035" lon="2.37006"><ele>142.0</ele><time>2026-04-26T14:40:05.731Z</time></trkpt><trkpt lat="43.1831383" lon="2.3699167"><ele>142.0</ele><time>2026-04-26T14:40:06.731Z</time></trkpt><trkpt lat="43.1832433" lon="2.369785"><ele>142.0</ele><time>2026-04-26T14:40:07.731Z</time></trkpt><trkpt lat="43.1833383" lon="2.36965"><ele>142.0</ele><time>2026-04-26T14:40:08.731Z</time></trkpt><trkpt lat="43.1834283" lon="2.36953"><ele>142.2</ele><time>2026-04-26T14:40:09.73Z</time></trkpt><trkpt lat="43.1835183" lon="2.3694267"><ele>142.39999999999998</ele><time>2026-04-26T14:40:10.73Z</time></trkpt><trkpt lat="43.1836033" lon="2.36934"><ele>142.60000000000002</ele><time>2026-04-26T14:40:11.73Z</time></trkpt><trkpt lat="43.1836783" lon="2.3692733"><ele>142.8</ele><time>2026-04-26T14:40:12.73Z</time></trkpt><trkpt lat="43.18374" lon="2.3692383"><ele>143.0</ele><time>2026-04-26T14:40:13.732Z</time></trkpt><trkpt lat="43.1838433" lon="2.3692517"><ele>143.0</ele><time>2026-04-26T14:40:15.731Z</time></trkpt><trkpt lat="43.1839417" lon="2.3693667"><ele>143.0</ele><time>2026-04-26T14:40:17.731Z</time></trkpt><trkpt lat="43.1840033" lon="2.3694367"><ele>143.0</ele><time>2026-04-26T14:40:18.73Z</time></trkpt><trkpt lat="43.1840783" lon="2.3694867"><ele>143.0</ele><time>2026-04-26T14:40:19.731Z</time></trkpt><trkpt lat="43.1841783" lon="2.369495"><ele>143.0</ele><time>2026-04-26T14:40:20.729Z</time></trkpt><trkpt lat="43.1842967" lon="2.3694633"><ele>143.5</ele><time>2026-04-26T14:40:21.729Z</time></trkpt><trkpt lat="43.1844217" lon="2.3694233"><ele>144.0</ele><time>2026-04-26T14:40:22.73Z</time></trkpt><trkpt lat="43.1845533" lon="2.36938"><ele>144.5</ele><time>2026-04-26T14:40:23.733Z</time></trkpt><trkpt lat="43.1846767" lon="2.3693467"><ele>145.0</ele><time>2026-04-26T14:40:24.73Z</time></trkpt><trkpt lat="43.1847833" lon="2.36932"><ele>145.8</ele><time>2026-04-26T14:40:25.73Z</time></trkpt><trkpt lat="43.1848833" lon="2.369305"><ele>146.6</ele><time>2026-04-26T14:40:26.73Z</time></trkpt><trkpt lat="43.1849817" lon="2.369305"><ele>147.4</ele><time>2026-04-26T14:40:27.732Z</time></trkpt><trkpt lat="43.1850933" lon="2.36932"><ele>148.2</ele><time>2026-04-26T14:40:28.73Z</time></trkpt><trkpt lat="43.1852117" lon="2.369355"><ele>149.0</ele><time>2026-04-26T14:40:29.729Z</time></trkpt><trkpt lat="43.185325" lon="2.36939"><ele>149.0</ele><time>2026-04-26T14:40:30.73Z</time></trkpt><trkpt lat="43.1854233" lon="2.369425"><ele>149.0</ele><time>2026-04-26T14:40:31.729Z</time></trkpt><trkpt lat="43.1855083" lon="2.3694683"><ele>149.0</ele><time>2026-04-26T14:40:32.731Z</time></trkpt><trkpt lat="43.1855733" lon="2.3695267"><ele>149.0</ele><time>2026-04-26T14:40:33.731Z</time></trkpt><trkpt lat="43.1856183" lon="2.369605"><ele>149.0</ele><time>2026-04-26T14:40:34.731Z</time></trkpt><trkpt lat="43.1856433" lon="2.3697017"><ele>149.0</ele><time>2026-04-26T14:40:35.729Z</time></trkpt><trkpt lat="43.1856567" lon="2.3698283"><ele>149.25</ele><time>2026-04-26T14:40:36.729Z</time></trkpt><trkpt lat="43.1856783" lon="2.36998"><ele>149.5</ele><time>2026-04-26T14:40:37.729Z</time></trkpt><trkpt lat="43.18572" lon="2.3701383"><ele>149.75</ele><time>2026-04-26T14:40:38.731Z</time></trkpt><trkpt lat="43.1857917" lon="2.370295"><ele>150.0</ele><time>2026-04-26T14:40:39.73Z</time></trkpt><trkpt lat="43.1858833" lon="2.3704533"><ele>151.0</ele><time>2026-04-26T14:40:40.729Z</time></trkpt><trkpt lat="43.1859767" lon="2.370625"><ele>152.0</ele><time>2026-04-26T14:40:41.729Z</time></trkpt><trkpt lat="43.18606" lon="2.3708117"><ele>153.0</ele><time>2026-04-26T14:40:42.729Z</time></trkpt><trkpt lat="43.1861417" lon="2.3710017"><ele>153.0</ele><time>2026-04-26T14:40:43.729Z</time></trkpt><trkpt lat="43.1862217" lon="2.371185"><ele>153.0</ele><time>2026-04-26T14:40:44.729Z</time></trkpt><trkpt lat="43.186295" lon="2.3713633"><ele>153.0</ele><time>2026-04-26T14:40:45.73Z</time></trkpt><trkpt lat="43.1863617" lon="2.37153"><ele>153.0</ele><time>2026-04-26T14:40:46.728Z</time></trkpt><trkpt lat="43.186425" lon="2.3716767"><ele>153.33333333333334</ele><time>2026-04-26T14:40:47.73Z</time></trkpt><trkpt lat="43.1864867" lon="2.371805"><ele>153.66666666666666</ele><time>2026-04-26T14:40:48.729Z</time></trkpt><trkpt lat="43.1865417" lon="2.371915"><ele>154.0</ele><time>2026-04-26T14:40:49.731Z</time></trkpt><trkpt lat="43.1865817" lon="2.3720117"><ele>154.33333333333331</ele><time>2026-04-26T14:40:50.731Z</time></trkpt><trkpt lat="43.186615" lon="2.3721033"><ele>154.66666666666666</ele><time>2026-04-26T14:40:51.73Z</time></trkpt><trkpt lat="43.1866433" lon="2.372195"><ele>155.0</ele><time>2026-04-26T14:40:52.729Z</time></trkpt><trkpt lat="43.186675" lon="2.37229"><ele>157.2</ele><time>2026-04-26T14:40:53.729Z</time></trkpt><trkpt lat="43.186715" lon="2.3723883"><ele>159.4</ele><time>2026-04-26T14:40:54.73Z</time></trkpt><trkpt lat="43.1867617" lon="2.3724883"><ele>161.60000000000002</ele><time>2026-04-26T14:40:55.733Z</time></trkpt><trkpt lat="43.1868117" lon="2.3726017"><ele>163.8</ele><time>2026-04-26T14:40:56.729Z</time></trkpt><trkpt lat="43.186865" lon="2.3727183"><ele>166.0</ele><time>2026-04-26T14:40:57.729Z</time></trkpt><trkpt lat="43.1869217" lon="2.37283"><ele>166.0</ele><time>2026-04-26T14:40:58.733Z</time></trkpt><trkpt lat="43.186985" lon="2.372935"><ele>166.0</ele><time>2026-04-26T14:40:59.727Z</time></trkpt><trkpt lat="43.1870517" lon="2.3730283"><ele>166.0</ele><time>2026-04-26T14:41:00.728Z</time></trkpt><trkpt lat="43.187115" lon="2.3731267"><ele>166.0</ele><time>2026-04-26T14:41:01.729Z</time></trkpt><trkpt lat="43.1871667" lon="2.37323"><ele>166.0</ele><time>2026-04-26T14:41:02.727Z</time></trkpt><trkpt lat="43.18721" lon="2.3733333"><ele>166.0</ele><time>2026-04-26T14:41:03.729Z</time></trkpt><trkpt lat="43.1872483" lon="2.37343"><ele>166.0</ele><time>2026-04-26T14:41:04.732Z</time></trkpt><trkpt lat="43.1873017" lon="2.37352"><ele>166.0</ele><time>2026-04-26T14:41:05.731Z</time></trkpt><trkpt lat="43.1873633" lon="2.373605"><ele>166.0</ele><time>2026-04-26T14:41:06.728Z</time></trkpt><trkpt lat="43.1874317" lon="2.373705"><ele>166.0</ele><time>2026-04-26T14:41:07.728Z</time></trkpt><trkpt lat="43.1875" lon="2.3738083"><ele>168.0</ele><time>2026-04-26T14:41:08.729Z</time></trkpt><trkpt lat="43.1875583" lon="2.3739083"><ele>170.0</ele><time>2026-04-26T14:41:09.727Z</time></trkpt><trkpt lat="43.1876" lon="2.3740083"><ele>172.0</ele><time>2026-04-26T14:41:10.738Z</time></trkpt><trkpt lat="43.1876333" lon="2.3741017"><ele>174.0</ele><time>2026-04-26T14:41:11.729Z</time></trkpt><trkpt lat="43.187665" lon="2.3741917"><ele>176.0</ele><time>2026-04-26T14:41:12.727Z</time></trkpt><trkpt lat="43.1876933" lon="2.3742967"><ele>178.0</ele><time>2026-04-26T14:41:13.728Z</time></trkpt><trkpt lat="43.1877167" lon="2.3744083"><ele>178.0</ele><time>2026-04-26T14:41:14.729Z</time></trkpt><trkpt lat="43.18774" lon="2.3745117"><ele>178.0</ele><time>2026-04-26T14:41:15.73Z</time></trkpt><trkpt lat="43.1877633" lon="2.3746117"><ele>178.0</ele><time>2026-04-26T14:41:16.728Z</time></trkpt><trkpt lat="43.1877883" lon="2.3747183"><ele>178.0</ele><time>2026-04-26T14:41:17.728Z</time></trkpt><trkpt lat="43.1878133" lon="2.3748333"><ele>178.0</ele><time>2026-04-26T14:41:18.73Z</time></trkpt><trkpt lat="43.1878417" lon="2.3749583"><ele>178.0</ele><time>2026-04-26T14:41:19.728Z</time></trkpt><trkpt lat="43.18787" lon="2.375085"><ele>178.2</ele><time>2026-04-26T14:41:20.73Z</time></trkpt><trkpt lat="43.1879" lon="2.3752133"><ele>178.4</ele><time>2026-04-26T14:41:21.729Z</time></trkpt><trkpt lat="43.1879317" lon="2.3753433"><ele>178.6</ele><time>2026-04-26T14:41:22.73Z</time></trkpt><trkpt lat="43.187965" lon="2.3754817"><ele>178.79999999999998</ele><time>2026-04-26T14:41:23.728Z</time></trkpt><trkpt lat="43.188" lon="2.375615"><ele>179.0</ele><time>2026-04-26T14:41:24.729Z</time></trkpt><trkpt lat="43.188035" lon="2.3757383"><ele>179.16666666666666</ele><time>2026-04-26T14:41:25.727Z</time></trkpt><trkpt lat="43.1880617" lon="2.37585"><ele>179.33333333333331</ele><time>2026-04-26T14:41:26.728Z</time></trkpt><trkpt lat="43.1880917" lon="2.3759467"><ele>179.5</ele><time>2026-04-26T14:41:27.729Z</time></trkpt><trkpt lat="43.1881317" lon="2.3760317"><ele>179.66666666666666</ele><time>2026-04-26T14:41:28.728Z</time></trkpt><trkpt lat="43.18819" lon="2.3760967"><ele>179.83333333333334</ele><time>2026-04-26T14:41:29.729Z</time></trkpt><trkpt lat="43.1882633" lon="2.3761483"><ele>180.0</ele><time>2026-04-26T14:41:30.729Z</time></trkpt><trkpt lat="43.18836" lon="2.37619"><ele>181.5</ele><time>2026-04-26T14:41:31.731Z</time></trkpt><trkpt lat="43.1884533" lon="2.3762267"><ele>183.0</ele><time>2026-04-26T14:41:32.728Z</time></trkpt><trkpt lat="43.1885417" lon="2.376255"><ele>184.5</ele><time>2026-04-26T14:41:33.728Z</time></trkpt><trkpt lat="43.1886233" lon="2.3762933"><ele>186.0</ele><time>2026-04-26T14:41:34.727Z</time></trkpt><trkpt lat="43.1887017" lon="2.376335"><ele>187.5</ele><time>2026-04-26T14:41:35.727Z</time></trkpt><trkpt lat="43.1887683" lon="2.3763883"><ele>189.0</ele><time>2026-04-26T14:41:36.728Z</time></trkpt><trkpt lat="43.188825" lon="2.3764517"><ele>189.0</ele><time>2026-04-26T14:41:37.727Z</time></trkpt><trkpt lat="43.1888783" lon="2.3765267"><ele>189.0</ele><time>2026-04-26T14:41:38.729Z</time></trkpt><trkpt lat="43.1889467" lon="2.376605"><ele>189.0</ele><time>2026-04-26T14:41:39.729Z</time></trkpt><trkpt lat="43.1890183" lon="2.3766817"><ele>189.0</ele><time>2026-04-26T14:41:40.728Z</time></trkpt><trkpt lat="43.1890983" lon="2.376755"><ele>189.0</ele><time>2026-04-26T14:41:41.727Z</time></trkpt><trkpt lat="43.1891833" lon="2.3768133"><ele>189.0</ele><time>2026-04-26T14:41:42.729Z</time></trkpt><trkpt lat="43.189285" lon="2.3768517"><ele>191.75</ele><time>2026-04-26T14:41:43.731Z</time></trkpt><trkpt lat="43.1894017" lon="2.3768733"><ele>194.5</ele><time>2026-04-26T14:41:44.728Z</time></trkpt><trkpt lat="43.1895217" lon="2.3768817"><ele>197.25</ele><time>2026-04-26T14:41:45.731Z</time></trkpt><trkpt lat="43.18963" lon="2.3768867"><ele>200.0</ele><time>2026-04-26T14:41:46.73Z</time></trkpt><trkpt lat="43.1897333" lon="2.37689"><ele>200.0</ele><time>2026-04-26T14:41:47.728Z</time></trkpt><trkpt lat="43.1898283" lon="2.3769033"><ele>200.0</ele><time>2026-04-26T14:41:48.735Z</time></trkpt><trkpt lat="43.1899117" lon="2.37693"><ele>200.0</ele><time>2026-04-26T14:41:49.728Z</time></trkpt><trkpt lat="43.1899883" lon="2.376975"><ele>200.0</ele><time>2026-04-26T14:41:50.741Z</time></trkpt><trkpt lat="43.190065" lon="2.37704"><ele>200.0</ele><time>2026-04-26T14:41:51.73Z</time></trkpt><trkpt lat="43.1901333" lon="2.3771367"><ele>199.4</ele><time>2026-04-26T14:41:52.728Z</time></trkpt><trkpt lat="43.190195" lon="2.377255"><ele>198.8</ele><time>2026-04-26T14:41:53.728Z</time></trkpt><trkpt lat="43.1902433" lon="2.3773883"><ele>198.2</ele><time>2026-04-26T14:41:54.728Z</time></trkpt><trkpt lat="43.190285" lon="2.3775283"><ele>197.6</ele><time>2026-04-26T14:41:55.73Z</time></trkpt><trkpt lat="43.19033" lon="2.3776683"><ele>197.0</ele><time>2026-04-26T14:41:56.731Z</time></trkpt><trkpt lat="43.1903917" lon="2.3777933"><ele>197.0</ele><time>2026-04-26T14:41:57.728Z</time></trkpt><trkpt lat="43.1904717" lon="2.37791"><ele>197.0</ele><time>2026-04-26T14:41:58.733Z</time></trkpt><trkpt lat="43.1905633" lon="2.3780267"><ele>197.0</ele><time>2026-04-26T14:41:59.729Z</time></trkpt><trkpt lat="43.1906617" lon="2.3781483"><ele>197.0</ele><time>2026-04-26T14:42:00.729Z</time></trkpt><trkpt lat="43.1907617" lon="2.378275"><ele>199.0</ele><time>2026-04-26T14:42:01.729Z</time></trkpt><trkpt lat="43.1908617" lon="2.3783967"><ele>201.0</ele><time>2026-04-26T14:42:02.728Z</time></trkpt><trkpt lat="43.1909617" lon="2.3785167"><ele>203.0</ele><time>2026-04-26T14:42:03.733Z</time></trkpt><trkpt lat="43.191065" lon="2.378635"><ele>205.0</ele><time>2026-04-26T14:42:04.728Z</time></trkpt><trkpt lat="43.1911633" lon="2.3787467"><ele>205.0</ele><time>2026-04-26T14:42:05.732Z</time></trkpt><trkpt lat="43.1912617" lon="2.3788383"><ele>205.0</ele><time>2026-04-26T14:42:06.729Z</time></trkpt><trkpt lat="43.1913617" lon="2.3789133"><ele>205.0</ele><time>2026-04-26T14:42:07.73Z</time></trkpt><trkpt lat="43.1914667" lon="2.37897"><ele>205.0</ele><time>2026-04-26T14:42:08.729Z</time></trkpt><trkpt lat="43.1915867" lon="2.3790067"><ele>206.75</ele><time>2026-04-26T14:42:09.729Z</time></trkpt><trkpt lat="43.191715" lon="2.379015"><ele>208.5</ele><time>2026-04-26T14:42:10.728Z</time></trkpt><trkpt lat="43.191845" lon="2.379"><ele>210.25</ele><time>2026-04-26T14:42:11.731Z</time></trkpt><trkpt lat="43.1919717" lon="2.37897"><ele>212.0</ele><time>2026-04-26T14:42:12.728Z</time></trkpt><trkpt lat="43.1920867" lon="2.3789283"><ele>212.0</ele><time>2026-04-26T14:42:13.728Z</time></trkpt><trkpt lat="43.19219" lon="2.3788867"><ele>212.0</ele><time>2026-04-26T14:42:14.729Z</time></trkpt><trkpt lat="43.1922867" lon="2.3788333"><ele>212.0</ele><time>2026-04-26T14:42:15.729Z</time></trkpt><trkpt lat="43.1923783" lon="2.3787633"><ele>212.0</ele><time>2026-04-26T14:42:16.728Z</time></trkpt><trkpt lat="43.1924733" lon="2.3786767"><ele>212.0</ele><time>2026-04-26T14:42:17.73Z</time></trkpt><trkpt lat="43.1925683" lon="2.3785717"><ele>211.5</ele><time>2026-04-26T14:42:18.728Z</time></trkpt><trkpt lat="43.19266" lon="2.37846"><ele>211.0</ele><time>2026-04-26T14:42:19.731Z</time></trkpt><trkpt lat="43.19275" lon="2.378345"><ele>210.5</ele><time>2026-04-26T14:42:20.73Z</time></trkpt><trkpt lat="43.19284" lon="2.3782317"><ele>210.0</ele><time>2026-04-26T14:42:21.728Z</time></trkpt><trkpt lat="43.19293" lon="2.3781133"><ele>209.5</ele><time>2026-04-26T14:42:22.729Z</time></trkpt><trkpt lat="43.193015" lon="2.37799"><ele>209.0</ele><time>2026-04-26T14:42:23.727Z</time></trkpt><trkpt lat="43.1930983" lon="2.3778683"><ele>208.5</ele><time>2026-04-26T14:42:24.731Z</time></trkpt><trkpt lat="43.1931817" lon="2.3777533"><ele>208.0</ele><time>2026-04-26T14:42:25.727Z</time></trkpt><trkpt lat="43.193265" lon="2.37764"><ele>205.75</ele><time>2026-04-26T14:42:26.728Z</time></trkpt><trkpt lat="43.1933583" lon="2.3775467"><ele>203.5</ele><time>2026-04-26T14:42:27.728Z</time></trkpt><trkpt lat="43.19347" lon="2.377475"><ele>201.25</ele><time>2026-04-26T14:42:28.729Z</time></trkpt><trkpt lat="43.193585" lon="2.37742"><ele>199.0</ele><time>2026-04-26T14:42:29.727Z</time></trkpt><trkpt lat="43.1936933" lon="2.377365"><ele>199.0</ele><time>2026-04-26T14:42:30.727Z</time></trkpt><trkpt lat="43.1937917" lon="2.3772967"><ele>199.0</ele><time>2026-04-26T14:42:31.727Z</time></trkpt><trkpt lat="43.19389" lon="2.377215"><ele>199.0</ele><time>2026-04-26T14:42:32.728Z</time></trkpt><trkpt lat="43.1939933" lon="2.37712"><ele>199.0</ele><time>2026-04-26T14:42:33.729Z</time></trkpt><trkpt lat="43.1941033" lon="2.3770183"><ele>196.25</ele><time>2026-04-26T14:42:34.727Z</time></trkpt><trkpt lat="43.1942117" lon="2.37691"><ele>193.5</ele><time>2026-04-26T14:42:35.728Z</time></trkpt><trkpt lat="43.1943233" lon="2.3767967"><ele>190.75</ele><time>2026-04-26T14:42:36.728Z</time></trkpt><trkpt lat="43.194435" lon="2.3766867"><ele>188.0</ele><time>2026-04-26T14:42:37.728Z</time></trkpt><trkpt lat="43.19455" lon="2.3765717"><ele>188.0</ele><time>2026-04-26T14:42:38.731Z</time></trkpt><trkpt lat="43.1946683" lon="2.3764533"><ele>188.0</ele><time>2026-04-26T14:42:39.728Z</time></trkpt><trkpt lat="43.1947867" lon="2.3763383"><ele>188.0</ele><time>2026-04-26T14:42:40.734Z</time></trkpt><trkpt lat="43.1949083" lon="2.3762233"><ele>188.0</ele><time>2026-04-26T14:42:41.731Z</time></trkpt><trkpt lat="43.1950317" lon="2.3761133"><ele>185.5</ele><time>2026-04-26T14:42:42.729Z</time></trkpt><trkpt lat="43.1951483" lon="2.3760017"><ele>183.0</ele><time>2026-04-26T14:42:43.728Z</time></trkpt><trkpt lat="43.19526" lon="2.3758883"><ele>180.5</ele><time>2026-04-26T14:42:44.729Z</time></trkpt><trkpt lat="43.195355" lon="2.3757817"><ele>178.0</ele><time>2026-04-26T14:42:45.728Z</time></trkpt><trkpt lat="43.1954517" lon="2.37568"><ele>178.0</ele><time>2026-04-26T14:42:46.732Z</time></trkpt><trkpt lat="43.1955433" lon="2.3755783"><ele>178.0</ele><time>2026-04-26T14:42:47.728Z</time></trkpt><trkpt lat="43.1956367" lon="2.3754683"><ele>178.0</ele><time>2026-04-26T14:42:48.733Z</time></trkpt><trkpt lat="43.195745" lon="2.3753567"><ele>178.0</ele><time>2026-04-26T14:42:49.728Z</time></trkpt><trkpt lat="43.195865" lon="2.3752533"><ele>175.33333333333334</ele><time>2026-04-26T14:42:50.731Z</time></trkpt><trkpt lat="43.1960033" lon="2.3751567"><ele>172.66666666666666</ele><time>2026-04-26T14:42:51.73Z</time></trkpt><trkpt lat="43.1961517" lon="2.3750567"><ele>170.0</ele><time>2026-04-26T14:42:52.729Z</time></trkpt><trkpt lat="43.1963017" lon="2.3749367"><ele>170.0</ele><time>2026-04-26T14:42:53.728Z</time></trkpt><trkpt lat="43.1964533" lon="2.3748067"><ele>170.0</ele><time>2026-04-26T14:42:54.731Z</time></trkpt><trkpt lat="43.196605" lon="2.3746617"><ele>170.0</ele><time>2026-04-26T14:42:55.729Z</time></trkpt><trkpt lat="43.1967483" lon="2.37452"><ele>168.0</ele><time>2026-04-26T14:42:56.729Z</time></trkpt><trkpt lat="43.196885" lon="2.3743867"><ele>166.0</ele><time>2026-04-26T14:42:57.728Z</time></trkpt><trkpt lat="43.19702" lon="2.3742567"><ele>164.0</ele><time>2026-04-26T14:42:58.73Z</time></trkpt><trkpt lat="43.1971583" lon="2.3741233"><ele>164.0</ele><time>2026-04-26T14:42:59.729Z</time></trkpt><trkpt lat="43.1973017" lon="2.3740033"><ele>164.0</ele><time>2026-04-26T14:43:00.728Z</time></trkpt><trkpt lat="43.1974467" lon="2.3738817"><ele>164.0</ele><time>2026-04-26T14:43:01.73Z</time></trkpt><trkpt lat="43.1975833" lon="2.373765"><ele>163.0</ele><time>2026-04-26T14:43:02.73Z</time></trkpt><trkpt lat="43.19771" lon="2.3736317"><ele>162.0</ele><time>2026-04-26T14:43:03.729Z</time></trkpt><trkpt lat="43.1978283" lon="2.3734733"><ele>161.0</ele><time>2026-04-26T14:43:04.729Z</time></trkpt><trkpt lat="43.19794" lon="2.3733"><ele>161.0</ele><time>2026-04-26T14:43:05.728Z</time></trkpt><trkpt lat="43.1980467" lon="2.3731317"><ele>161.0</ele><time>2026-04-26T14:43:06.728Z</time></trkpt><trkpt lat="43.1981517" lon="2.3729717"><ele>161.0</ele><time>2026-04-26T14:43:07.732Z</time></trkpt><trkpt lat="43.19825" lon="2.3728217"><ele>160.25</ele><time>2026-04-26T14:43:08.731Z</time></trkpt><trkpt lat="43.1983483" lon="2.3726817"><ele>159.5</ele><time>2026-04-26T14:43:09.728Z</time></trkpt><trkpt lat="43.1984467" lon="2.3725517"><ele>158.75</ele><time>2026-04-26T14:43:10.731Z</time></trkpt><trkpt lat="43.19855" lon="2.3724333"><ele>158.0</ele><time>2026-04-26T14:43:11.73Z</time></trkpt><trkpt lat="43.1986633" lon="2.372325"><ele>158.0</ele><time>2026-04-26T14:43:12.736Z</time></trkpt><trkpt lat="43.198785" lon="2.372225"><ele>158.0</ele><time>2026-04-26T14:43:13.73Z</time></trkpt><trkpt lat="43.198915" lon="2.372125"><ele>158.0</ele><time>2026-04-26T14:43:14.731Z</time></trkpt><trkpt lat="43.19905" lon="2.3720133"><ele>158.0</ele><time>2026-04-26T14:43:15.729Z</time></trkpt><trkpt lat="43.1991833" lon="2.3718933"><ele>156.66666666666666</ele><time>2026-04-26T14:43:16.731Z</time></trkpt><trkpt lat="43.1993167" lon="2.371775"><ele>155.33333333333334</ele><time>2026-04-26T14:43:17.73Z</time></trkpt><trkpt lat="43.1994433" lon="2.371675"><ele>154.0</ele><time>2026-04-26T14:43:18.729Z</time></trkpt><trkpt lat="43.1995783" lon="2.37159"><ele>154.0</ele><time>2026-04-26T14:43:19.73Z</time></trkpt><trkpt lat="43.1997217" lon="2.371515"><ele>154.0</ele><time>2026-04-26T14:43:20.73Z</time></trkpt><trkpt lat="43.19987" lon="2.371445"><ele>154.0</ele><time>2026-04-26T14:43:21.728Z</time></trkpt><trkpt lat="43.2000167" lon="2.3713717"><ele>153.33333333333334</ele><time>2026-04-26T14:43:22.729Z</time></trkpt><trkpt lat="43.200165" lon="2.37128"><ele>152.66666666666666</ele><time>2026-04-26T14:43:23.729Z</time></trkpt><trkpt lat="43.2003083" lon="2.37118"><ele>152.0</ele><time>2026-04-26T14:43:24.73Z</time></trkpt><trkpt lat="43.2004483" lon="2.3710767"><ele>152.0</ele><time>2026-04-26T14:43:25.729Z</time></trkpt><trkpt lat="43.2005783" lon="2.3709783"><ele>152.0</ele><time>2026-04-26T14:43:26.729Z</time></trkpt><trkpt lat="43.200705" lon="2.3708767"><ele>152.0</ele><time>2026-04-26T14:43:27.729Z</time></trkpt><trkpt lat="43.2008317" lon="2.3707717"><ele>152.0</ele><time>2026-04-26T14:43:28.728Z</time></trkpt><trkpt lat="43.2009533" lon="2.3706783"><ele>152.4</ele><time>2026-04-26T14:43:29.73Z</time></trkpt><trkpt lat="43.201065" lon="2.3706017"><ele>152.79999999999998</ele><time>2026-04-26T14:43:30.729Z</time></trkpt><trkpt lat="43.2011683" lon="2.3705517"><ele>153.2</ele><time>2026-04-26T14:43:31.728Z</time></trkpt><trkpt lat="43.2012583" lon="2.3705517"><ele>153.6</ele><time>2026-04-26T14:43:32.73Z</time></trkpt><trkpt lat="43.2013383" lon="2.370595"><ele>154.0</ele><time>2026-04-26T14:43:33.728Z</time></trkpt><trkpt lat="43.2014033" lon="2.37068"><ele>154.0</ele><time>2026-04-26T14:43:34.728Z</time></trkpt><trkpt lat="43.2014633" lon="2.3707633"><ele>154.0</ele><time>2026-04-26T14:43:35.728Z</time></trkpt><trkpt lat="43.20154" lon="2.3708283"><ele>154.0</ele><time>2026-04-26T14:43:36.728Z</time></trkpt><trkpt lat="43.2016417" lon="2.3708533"><ele>154.0</ele><time>2026-04-26T14:43:37.73Z</time></trkpt><trkpt lat="43.2017417" lon="2.3708633"><ele>154.0</ele><time>2026-04-26T14:43:38.731Z</time></trkpt><trkpt lat="43.2018333" lon="2.370865"><ele>155.2</ele><time>2026-04-26T14:43:39.729Z</time></trkpt><trkpt lat="43.2019267" lon="2.3708517"><ele>156.4</ele><time>2026-04-26T14:43:40.733Z</time></trkpt><trkpt lat="43.2020217" lon="2.3708333"><ele>157.6</ele><time>2026-04-26T14:43:41.73Z</time></trkpt><trkpt lat="43.202125" lon="2.3708133"><ele>158.8</ele><time>2026-04-26T14:43:42.738Z</time></trkpt><trkpt lat="43.2022333" lon="2.3707667"><ele>160.0</ele><time>2026-04-26T14:43:43.728Z</time></trkpt><trkpt lat="43.2023483" lon="2.3706933"><ele>160.25</ele><time>2026-04-26T14:43:44.729Z</time></trkpt><trkpt lat="43.2024633" lon="2.3705917"><ele>160.5</ele><time>2026-04-26T14:43:45.729Z</time></trkpt><trkpt lat="43.2025767" lon="2.37047"><ele>160.75</ele><time>2026-04-26T14:43:46.728Z</time></trkpt><trkpt lat="43.2026883" lon="2.3703417"><ele>161.0</ele><time>2026-04-26T14:43:47.729Z</time></trkpt><trkpt lat="43.2027967" lon="2.3702083"><ele>159.66666666666666</ele><time>2026-04-26T14:43:48.73Z</time></trkpt><trkpt lat="43.2029117" lon="2.3700683"><ele>158.33333333333334</ele><time>2026-04-26T14:43:49.73Z</time></trkpt><trkpt lat="43.2030267" lon="2.3699217"><ele>157.0</ele><time>2026-04-26T14:43:50.735Z</time></trkpt><trkpt lat="43.2031417" lon="2.3697617"><ele>156.0</ele><time>2026-04-26T14:43:51.729Z</time></trkpt><trkpt lat="43.2032483" lon="2.3695933"><ele>155.0</ele><time>2026-04-26T14:43:52.732Z</time></trkpt><trkpt lat="43.203345" lon="2.3694117"><ele>154.0</ele><time>2026-04-26T14:43:53.728Z</time></trkpt><trkpt lat="43.2034333" lon="2.3692217"><ele>154.0</ele><time>2026-04-26T14:43:54.728Z</time></trkpt><trkpt lat="43.203515" lon="2.36902"><ele>154.0</ele><time>2026-04-26T14:43:55.731Z</time></trkpt><trkpt lat="43.2035967" lon="2.36882"><ele>154.0</ele><time>2026-04-26T14:43:56.736Z</time></trkpt><trkpt lat="43.203675" lon="2.3686183"><ele>153.33333333333334</ele><time>2026-04-26T14:43:57.729Z</time></trkpt><trkpt lat="43.203745" lon="2.36841"><ele>152.66666666666666</ele><time>2026-04-26T14:43:58.728Z</time></trkpt><trkpt lat="43.2038083" lon="2.3682017"><ele>152.0</ele><time>2026-04-26T14:43:59.729Z</time></trkpt><trkpt lat="43.2038667" lon="2.367995"><ele>152.33333333333331</ele><time>2026-04-26T14:44:00.729Z</time></trkpt><trkpt lat="43.2039233" lon="2.3677967"><ele>152.66666666666666</ele><time>2026-04-26T14:44:01.728Z</time></trkpt><trkpt lat="43.20398" lon="2.3676033"><ele>153.0</ele><time>2026-04-26T14:44:02.73Z</time></trkpt><trkpt lat="43.2040383" lon="2.3674117"><ele>153.0</ele><time>2026-04-26T14:44:03.729Z</time></trkpt><trkpt lat="43.2040933" lon="2.3672233"><ele>153.0</ele><time>2026-04-26T14:44:04.728Z</time></trkpt><trkpt lat="43.2041367" lon="2.367045"><ele>153.0</ele><time>2026-04-26T14:44:05.728Z</time></trkpt><trkpt lat="43.20417" lon="2.36687"><ele>153.0</ele><time>2026-04-26T14:44:06.728Z</time></trkpt><trkpt lat="43.2042" lon="2.3667083"><ele>152.0</ele><time>2026-04-26T14:44:07.728Z</time></trkpt><trkpt lat="43.2042317" lon="2.3665583"><ele>151.0</ele><time>2026-04-26T14:44:08.73Z</time></trkpt><trkpt lat="43.20426" lon="2.3664167"><ele>150.0</ele><time>2026-04-26T14:44:09.728Z</time></trkpt><trkpt lat="43.204285" lon="2.3662867"><ele>149.0</ele><time>2026-04-26T14:44:10.729Z</time></trkpt><trkpt lat="43.2043183" lon="2.3661683"><ele>148.0</ele><time>2026-04-26T14:44:11.73Z</time></trkpt><trkpt lat="43.204365" lon="2.3660583"><ele>147.33333333333334</ele><time>2026-04-26T14:44:12.729Z</time></trkpt><trkpt lat="43.2044217" lon="2.365955"><ele>146.66666666666669</ele><time>2026-04-26T14:44:13.73Z</time></trkpt><trkpt lat="43.2044817" lon="2.3658583"><ele>146.0</ele><time>2026-04-26T14:44:14.729Z</time></trkpt><trkpt lat="43.2045483" lon="2.3657783"><ele>145.33333333333334</ele><time>2026-04-26T14:44:15.728Z</time></trkpt><trkpt lat="43.2046167" lon="2.3657117"><ele>144.66666666666666</ele><time>2026-04-26T14:44:16.729Z</time></trkpt><trkpt lat="43.2046917" lon="2.3656617"><ele>144.0</ele><time>2026-04-26T14:44:17.728Z</time></trkpt><trkpt lat="43.20477" lon="2.3656333"><ele>144.33333333333334</ele><time>2026-04-26T14:44:18.731Z</time></trkpt><trkpt lat="43.20485" lon="2.3656183"><ele>144.66666666666666</ele><time>2026-04-26T14:44:19.729Z</time></trkpt><trkpt lat="43.20492" lon="2.3656233"><ele>145.0</ele><time>2026-04-26T14:44:20.729Z</time></trkpt><trkpt lat="43.204985" lon="2.36566"><ele>145.33333333333331</ele><time>2026-04-26T14:44:21.73Z</time></trkpt><trkpt lat="43.2050517" lon="2.36572"><ele>145.66666666666666</ele><time>2026-04-26T14:44:22.733Z</time></trkpt><trkpt lat="43.2051183" lon="2.365795"><ele>146.0</ele><time>2026-04-26T14:44:23.728Z</time></trkpt><trkpt lat="43.2051967" lon="2.3658917"><ele>146.0</ele><time>2026-04-26T14:44:24.729Z</time></trkpt><trkpt lat="43.20528" lon="2.3659883"><ele>146.0</ele><time>2026-04-26T14:44:25.73Z</time></trkpt><trkpt lat="43.205355" lon="2.3661067"><ele>146.0</ele><time>2026-04-26T14:44:26.731Z</time></trkpt><trkpt lat="43.2054133" lon="2.3662483"><ele>146.0</ele><time>2026-04-26T14:44:27.729Z</time></trkpt><trkpt lat="43.20545" lon="2.3663983"><ele>145.8</ele><time>2026-04-26T14:44:28.73Z</time></trkpt><trkpt lat="43.2054867" lon="2.3665417"><ele>145.6</ele><time>2026-04-26T14:44:29.728Z</time></trkpt><trkpt lat="43.2055367" lon="2.366665"><ele>145.4</ele><time>2026-04-26T14:44:30.728Z</time></trkpt><trkpt lat="43.2056133" lon="2.36675"><ele>145.2</ele><time>2026-04-26T14:44:31.728Z</time></trkpt><trkpt lat="43.20571" lon="2.3667967"><ele>145.0</ele><time>2026-04-26T14:44:32.73Z</time></trkpt><trkpt lat="43.2058117" lon="2.3668083"><ele>145.0</ele><time>2026-04-26T14:44:33.732Z</time></trkpt><trkpt lat="43.205905" lon="2.3667983"><ele>145.0</ele><time>2026-04-26T14:44:34.731Z</time></trkpt><trkpt lat="43.2059817" lon="2.366785"><ele>145.0</ele><time>2026-04-26T14:44:35.729Z</time></trkpt><trkpt lat="43.206055" lon="2.3667717"><ele>145.0</ele><time>2026-04-26T14:44:36.732Z</time></trkpt><trkpt lat="43.2061467" lon="2.366745"><ele>145.0</ele><time>2026-04-26T14:44:38.732Z</time></trkpt><trkpt lat="43.20624" lon="2.366735"><ele>145.0</ele><time>2026-04-26T14:44:41.729Z</time></trkpt><trkpt lat="43.2063217" lon="2.3667483"><ele>145.0</ele><time>2026-04-26T14:44:44.73Z</time></trkpt><trkpt lat="43.20638" lon="2.3667033"><ele>145.0</ele><time>2026-04-26T14:44:47.728Z</time></trkpt><trkpt lat="43.2064433" lon="2.3666183"><ele>145.0</ele><time>2026-04-26T14:44:50.731Z</time></trkpt><trkpt lat="43.2065583" lon="2.3665433"><ele>145.0</ele><time>2026-04-26T14:44:52.729Z</time></trkpt><trkpt lat="43.2066367" lon="2.3665317"><ele>145.0</ele><time>2026-04-26T14:44:53.729Z</time></trkpt><trkpt lat="43.20673" lon="2.3665283"><ele>143.0</ele><time>2026-04-26T14:44:54.73Z</time></trkpt><trkpt lat="43.2068217" lon="2.3665267"><ele>141.0</ele><time>2026-04-26T14:44:55.731Z</time></trkpt><trkpt lat="43.2069217" lon="2.3665083"><ele>139.0</ele><time>2026-04-26T14:44:56.73Z</time></trkpt><trkpt lat="43.207035" lon="2.3664817"><ele>137.0</ele><time>2026-04-26T14:44:57.729Z</time></trkpt><trkpt lat="43.20715" lon="2.3664533"><ele>135.0</ele><time>2026-04-26T14:44:58.733Z</time></trkpt><trkpt lat="43.2072617" lon="2.3664367"><ele>133.8</ele><time>2026-04-26T14:44:59.729Z</time></trkpt><trkpt lat="43.2073667" lon="2.3664417"><ele>132.6</ele><time>2026-04-26T14:45:00.728Z</time></trkpt><trkpt lat="43.2074633" lon="2.3664783"><ele>131.4</ele><time>2026-04-26T14:45:01.729Z</time></trkpt><trkpt lat="43.2075467" lon="2.3665533"><ele>130.2</ele><time>2026-04-26T14:45:02.73Z</time></trkpt><trkpt lat="43.2076317" lon="2.3666567"><ele>129.0</ele><time>2026-04-26T14:45:03.73Z</time></trkpt><trkpt lat="43.2077233" lon="2.3667633"><ele>129.0</ele><time>2026-04-26T14:45:04.728Z</time></trkpt><trkpt lat="43.2078233" lon="2.3668633"><ele>129.0</ele><time>2026-04-26T14:45:05.732Z</time></trkpt><trkpt lat="43.207925" lon="2.3669583"><ele>129.0</ele><time>2026-04-26T14:45:06.732Z</time></trkpt><trkpt lat="43.2080283" lon="2.3670567"><ele>129.0</ele><time>2026-04-26T14:45:07.731Z</time></trkpt><trkpt lat="43.2080933" lon="2.3671533"><ele>127.6</ele><time>2026-04-26T14:45:08.731Z</time></trkpt><trkpt lat="43.2081767" lon="2.3672483"><ele>126.2</ele><time>2026-04-26T14:45:09.728Z</time></trkpt><trkpt lat="43.2082567" lon="2.3673383"><ele>124.79999999999998</ele><time>2026-04-26T14:45:10.728Z</time></trkpt><trkpt lat="43.208335" lon="2.3674183"><ele>123.39999999999999</ele><time>2026-04-26T14:45:11.729Z</time></trkpt><trkpt lat="43.2083967" lon="2.3674767"><ele>122.0</ele><time>2026-04-26T14:45:12.728Z</time></trkpt><trkpt lat="43.2085017" lon="2.367535"><ele>121.99999999999999</ele><time>2026-04-26T14:45:14.729Z</time></trkpt><trkpt lat="43.2085717" lon="2.3675067"><ele>122.0</ele><time>2026-04-26T14:45:16.736Z</time></trkpt><trkpt lat="43.2085867" lon="2.3674167"><ele>122.0</ele><time>2026-04-26T14:45:17.733Z</time></trkpt><trkpt lat="43.2086067" lon="2.3673133"><ele>122.0</ele><time>2026-04-26T14:45:18.729Z</time></trkpt><trkpt lat="43.2086317" lon="2.36718"><ele>121.99999999999999</ele><time>2026-04-26T14:45:19.734Z</time></trkpt><trkpt lat="43.20865" lon="2.3670117"><ele>122.0</ele><time>2026-04-26T14:45:20.729Z</time></trkpt><trkpt lat="43.208675" lon="2.3668483"><ele>122.19999999999999</ele><time>2026-04-26T14:45:21.73Z</time></trkpt><trkpt lat="43.2087117" lon="2.36669"><ele>122.39999999999999</ele><time>2026-04-26T14:45:22.728Z</time></trkpt><trkpt lat="43.208765" lon="2.366545"><ele>122.60000000000001</ele><time>2026-04-26T14:45:23.73Z</time></trkpt><trkpt lat="43.2088167" lon="2.36642"><ele>122.80000000000001</ele><time>2026-04-26T14:45:24.732Z</time></trkpt><trkpt lat="43.208855" lon="2.3663067"><ele>123.0</ele><time>2026-04-26T14:45:25.728Z</time></trkpt><trkpt lat="43.2088967" lon="2.3662083"><ele>123.5</ele><time>2026-04-26T14:45:26.73Z</time></trkpt><trkpt lat="43.208935" lon="2.3661167"><ele>124.0</ele><time>2026-04-26T14:45:27.73Z</time></trkpt><trkpt lat="43.2089717" lon="2.3660167"><ele>124.5</ele><time>2026-04-26T14:45:28.728Z</time></trkpt><trkpt lat="43.2090117" lon="2.365905"><ele>125.0</ele><time>2026-04-26T14:45:29.73Z</time></trkpt><trkpt lat="43.2090617" lon="2.3657983"><ele>125.5</ele><time>2026-04-26T14:45:30.729Z</time></trkpt><trkpt lat="43.20912" lon="2.3656817"><ele>126.0</ele><time>2026-04-26T14:45:31.728Z</time></trkpt><trkpt lat="43.2091817" lon="2.3655433"><ele>123.8</ele><time>2026-04-26T14:45:32.73Z</time></trkpt><trkpt lat="43.2092383" lon="2.365405"><ele>121.6</ele><time>2026-04-26T14:45:33.729Z</time></trkpt><trkpt lat="43.2092917" lon="2.3652633"><ele>119.4</ele><time>2026-04-26T14:45:34.729Z</time></trkpt><trkpt lat="43.2093383" lon="2.3651283"><ele>117.2</ele><time>2026-04-26T14:45:35.73Z</time></trkpt><trkpt lat="43.2093767" lon="2.364995"><ele>115.0</ele><time>2026-04-26T14:45:36.728Z</time></trkpt><trkpt lat="43.209405" lon="2.3648717"><ele>115.0</ele><time>2026-04-26T14:45:37.729Z</time></trkpt><trkpt lat="43.2094233" lon="2.3647583"><ele>115.0</ele><time>2026-04-26T14:45:38.73Z</time></trkpt><trkpt lat="43.2094317" lon="2.36467"><ele>115.0</ele><time>2026-04-26T14:45:39.728Z</time></trkpt><trkpt lat="43.209445" lon="2.36453"><ele>115.0</ele><time>2026-04-26T14:45:41.731Z</time></trkpt><trkpt lat="43.2095083" lon="2.3644267"><ele>115.0</ele><time>2026-04-26T14:45:43.733Z</time></trkpt><trkpt lat="43.2096333" lon="2.3643933"><ele>114.0</ele><time>2026-04-26T14:45:45.729Z</time></trkpt><trkpt lat="43.2097217" lon="2.3644133"><ele>113.0</ele><time>2026-04-26T14:45:46.727Z</time></trkpt><trkpt lat="43.209795" lon="2.3644117"><ele>112.0</ele><time>2026-04-26T14:45:47.728Z</time></trkpt><trkpt lat="43.20987" lon="2.3644133"><ele>111.0</ele><time>2026-04-26T14:45:48.729Z</time></trkpt><trkpt lat="43.2099817" lon="2.3644333"><ele>110.0</ele><time>2026-04-26T14:45:50.728Z</time></trkpt><trkpt lat="43.2100883" lon="2.3644633"><ele>109.6</ele><time>2026-04-26T14:46:31.727Z</time></trkpt><trkpt lat="43.2102017" lon="2.3644317"><ele>109.2</ele><time>2026-04-26T14:46:33.728Z</time></trkpt><trkpt lat="43.210255" lon="2.364365"><ele>108.80000000000001</ele><time>2026-04-26T14:46:34.729Z</time></trkpt><trkpt lat="43.21029" lon="2.3642617"><ele>108.4</ele><time>2026-04-26T14:46:35.728Z</time></trkpt><trkpt lat="43.2103183" lon="2.364155"><ele>108.0</ele><time>2026-04-26T14:46:36.728Z</time></trkpt><trkpt lat="43.2103467" lon="2.3640233"><ele>108.0</ele><time>2026-04-26T14:46:37.727Z</time></trkpt><trkpt lat="43.2103767" lon="2.3639133"><ele>108.00000000000001</ele><time>2026-04-26T14:46:38.728Z</time></trkpt><trkpt lat="43.2104" lon="2.3637867"><ele>108.00000000000001</ele><time>2026-04-26T14:46:39.728Z</time></trkpt><trkpt lat="43.2104283" lon="2.363655"><ele>108.0</ele><time>2026-04-26T14:46:40.73Z</time></trkpt><trkpt lat="43.2104633" lon="2.3635183"><ele>108.0</ele><time>2026-04-26T14:46:41.728Z</time></trkpt><trkpt lat="43.2105" lon="2.36338"><ele>107.5</ele><time>2026-04-26T14:46:42.728Z</time></trkpt><trkpt lat="43.21054" lon="2.3632333"><ele>107.0</ele><time>2026-04-26T14:46:43.729Z</time></trkpt><trkpt lat="43.2105817" lon="2.36308"><ele>106.5</ele><time>2026-04-26T14:46:44.73Z</time></trkpt><trkpt lat="43.2106283" lon="2.362915"><ele>106.0</ele><time>2026-04-26T14:46:45.727Z</time></trkpt><trkpt lat="43.2106783" lon="2.3627383"><ele>106.0</ele><time>2026-04-26T14:46:46.728Z</time></trkpt><trkpt lat="43.210725" lon="2.3625467"><ele>106.0</ele><time>2026-04-26T14:46:47.729Z</time></trkpt><trkpt lat="43.2107717" lon="2.3623417"><ele>106.0</ele><time>2026-04-26T14:46:48.729Z</time></trkpt><trkpt lat="43.2108233" lon="2.3621333"><ele>106.33333333333334</ele><time>2026-04-26T14:46:49.728Z</time></trkpt><trkpt lat="43.21088" lon="2.361925"><ele>106.66666666666666</ele><time>2026-04-26T14:46:50.733Z</time></trkpt><trkpt lat="43.2109383" lon="2.36171"><ele>107.0</ele><time>2026-04-26T14:46:51.73Z</time></trkpt><trkpt lat="43.2109967" lon="2.361495"><ele>106.0</ele><time>2026-04-26T14:46:52.729Z</time></trkpt><trkpt lat="43.2110567" lon="2.3612767"><ele>105.0</ele><time>2026-04-26T14:46:53.731Z</time></trkpt><trkpt lat="43.2111167" lon="2.36106"><ele>104.0</ele><time>2026-04-26T14:46:54.729Z</time></trkpt><trkpt lat="43.2111733" lon="2.36084"><ele>104.0</ele><time>2026-04-26T14:46:55.728Z</time></trkpt><trkpt lat="43.2112317" lon="2.3606183"><ele>104.0</ele><time>2026-04-26T14:46:56.728Z</time></trkpt><trkpt lat="43.21129" lon="2.3603967"><ele>104.0</ele><time>2026-04-26T14:46:57.731Z</time></trkpt><trkpt lat="43.21135" lon="2.360175"><ele>104.33333333333333</ele><time>2026-04-26T14:46:58.73Z</time></trkpt><trkpt lat="43.2114117" lon="2.359955"><ele>104.66666666666666</ele><time>2026-04-26T14:46:59.728Z</time></trkpt><trkpt lat="43.2114733" lon="2.3597367"><ele>105.0</ele><time>2026-04-26T14:47:00.73Z</time></trkpt><trkpt lat="43.2115317" lon="2.3595167"><ele>105.0</ele><time>2026-04-26T14:47:01.73Z</time></trkpt><trkpt lat="43.2115883" lon="2.3593017"><ele>105.0</ele><time>2026-04-26T14:47:02.729Z</time></trkpt><trkpt lat="43.2116433" lon="2.3591017"><ele>105.0</ele><time>2026-04-26T14:47:03.729Z</time></trkpt><trkpt lat="43.211695" lon="2.3589117"><ele>105.5</ele><time>2026-04-26T14:47:04.73Z</time></trkpt><trkpt lat="43.211745" lon="2.3587283"><ele>106.0</ele><time>2026-04-26T14:47:05.729Z</time></trkpt><trkpt lat="43.211795" lon="2.3585517"><ele>106.5</ele><time>2026-04-26T14:47:06.732Z</time></trkpt><trkpt lat="43.2118467" lon="2.35838"><ele>107.0</ele><time>2026-04-26T14:47:07.728Z</time></trkpt><trkpt lat="43.2118917" lon="2.3582133"><ele>107.0</ele><time>2026-04-26T14:47:08.729Z</time></trkpt><trkpt lat="43.2119367" lon="2.358065"><ele>106.99999999999999</ele><time>2026-04-26T14:47:09.728Z</time></trkpt><trkpt lat="43.2119933" lon="2.3579367"><ele>106.99999999999999</ele><time>2026-04-26T14:47:10.73Z</time></trkpt><trkpt lat="43.2120717" lon="2.35784"><ele>107.0</ele><time>2026-04-26T14:47:11.729Z</time></trkpt><trkpt lat="43.2121533" lon="2.3577633"><ele>107.0</ele><time>2026-04-26T14:47:12.73Z</time></trkpt><trkpt lat="43.2122367" lon="2.3577083"><ele>107.0</ele><time>2026-04-26T14:47:13.728Z</time></trkpt><trkpt lat="43.21231" lon="2.357625"><ele>106.99999999999999</ele><time>2026-04-26T14:47:14.729Z</time></trkpt><trkpt lat="43.2123683" lon="2.3575183"><ele>106.99999999999999</ele><time>2026-04-26T14:47:15.729Z</time></trkpt><trkpt lat="43.212405" lon="2.3574033"><ele>107.0</ele><time>2026-04-26T14:47:16.73Z</time></trkpt><trkpt lat="43.212435" lon="2.3572683"><ele>107.0</ele><time>2026-04-26T14:47:17.729Z</time></trkpt><trkpt lat="43.2124583" lon="2.357115"><ele>107.0</ele><time>2026-04-26T14:47:18.729Z</time></trkpt><trkpt lat="43.21248" lon="2.356955"><ele>107.0</ele><time>2026-04-26T14:47:19.728Z</time></trkpt><trkpt lat="43.2125033" lon="2.3567933"><ele>107.0</ele><time>2026-04-26T14:47:20.731Z</time></trkpt><trkpt lat="43.2125283" lon="2.3566167"><ele>107.0</ele><time>2026-04-26T14:47:21.731Z</time></trkpt><trkpt lat="43.212555" lon="2.3564483"><ele>107.19999999999999</ele><time>2026-04-26T14:47:22.73Z</time></trkpt><trkpt lat="43.2125817" lon="2.3562817"><ele>107.39999999999999</ele><time>2026-04-26T14:47:23.731Z</time></trkpt><trkpt lat="43.2126033" lon="2.3561317"><ele>107.60000000000001</ele><time>2026-04-26T14:47:24.729Z</time></trkpt><trkpt lat="43.212625" lon="2.356005"><ele>107.80000000000001</ele><time>2026-04-26T14:47:25.729Z</time></trkpt><trkpt lat="43.2126367" lon="2.3558933"><ele>108.0</ele><time>2026-04-26T14:47:26.73Z</time></trkpt><trkpt lat="43.2126417" lon="2.3557833"><ele>108.0</ele><time>2026-04-26T14:47:27.728Z</time></trkpt><trkpt lat="43.212645" lon="2.35569"><ele>108.0</ele><time>2026-04-26T14:47:28.727Z</time></trkpt><trkpt lat="43.212655" lon="2.3555667"><ele>108.0</ele><time>2026-04-26T14:47:30.73Z</time></trkpt><trkpt lat="43.212675" lon="2.3554017"><ele>108.0</ele><time>2026-04-26T14:47:32.73Z</time></trkpt><trkpt lat="43.2126783" lon="2.3553033"><ele>108.0</ele><time>2026-04-26T14:47:33.73Z</time></trkpt><trkpt lat="43.2126867" lon="2.355205"><ele>108.0</ele><time>2026-04-26T14:47:34.728Z</time></trkpt><trkpt lat="43.2126967" lon="2.355105"><ele>108.2</ele><time>2026-04-26T14:47:35.729Z</time></trkpt><trkpt lat="43.2127117" lon="2.3549967"><ele>108.4</ele><time>2026-04-26T14:47:36.731Z</time></trkpt><trkpt lat="43.21274" lon="2.3548483"><ele>108.60000000000001</ele><time>2026-04-26T14:47:38.73Z</time></trkpt><trkpt lat="43.21273" lon="2.3547017"><ele>108.80000000000001</ele><time>2026-04-26T14:47:40.729Z</time></trkpt><trkpt lat="43.2127317" lon="2.354585"><ele>109.0</ele><time>2026-04-26T14:47:42.729Z</time></trkpt><trkpt lat="43.21273" lon="2.3544783"><ele>109.2</ele><time>2026-04-26T14:47:44.733Z</time></trkpt><trkpt lat="43.21272" lon="2.3543717"><ele>109.4</ele><time>2026-04-26T14:47:53.728Z</time></trkpt><trkpt lat="43.2127133" lon="2.3542667"><ele>109.6</ele><time>2026-04-26T14:47:55.728Z</time></trkpt><trkpt lat="43.2127117" lon="2.3541167"><ele>109.8</ele><time>2026-04-26T14:47:57.729Z</time></trkpt><trkpt lat="43.21271" lon="2.3539467"><ele>110.0</ele><time>2026-04-26T14:47:59.729Z</time></trkpt><trkpt lat="43.2127167" lon="2.35379"><ele>110.33333333333333</ele><time>2026-04-26T14:48:01.73Z</time></trkpt><trkpt lat="43.2127183" lon="2.353645"><ele>110.66666666666666</ele><time>2026-04-26T14:48:03.73Z</time></trkpt><trkpt lat="43.2127133" lon="2.3535233"><ele>111.0</ele><time>2026-04-26T14:48:05.73Z</time></trkpt><trkpt lat="43.212705" lon="2.3534"><ele>111.33333333333334</ele><time>2026-04-26T14:48:07.729Z</time></trkpt><trkpt lat="43.212695" lon="2.3533117"><ele>111.66666666666667</ele><time>2026-04-26T14:48:08.735Z</time></trkpt><trkpt lat="43.2126867" lon="2.353215"><ele>112.0</ele><time>2026-04-26T14:48:09.729Z</time></trkpt><trkpt lat="43.2126917" lon="2.3531"><ele>112.33333333333334</ele><time>2026-04-26T14:48:10.73Z</time></trkpt><trkpt lat="43.21269" lon="2.3529817"><ele>112.66666666666667</ele><time>2026-04-26T14:48:11.73Z</time></trkpt><trkpt lat="43.212685" lon="2.3528617"><ele>113.0</ele><time>2026-04-26T14:48:12.729Z</time></trkpt><trkpt lat="43.21268" lon="2.352755"><ele>113.33333333333334</ele><time>2026-04-26T14:48:13.729Z</time></trkpt><trkpt lat="43.2126783" lon="2.3526617"><ele>113.66666666666667</ele><time>2026-04-26T14:48:14.735Z</time></trkpt><trkpt lat="43.2126817" lon="2.3525"><ele>114.0</ele><time>2026-04-26T14:48:16.728Z</time></trkpt><trkpt lat="43.212685" lon="2.352385"><ele>114.0</ele><time>2026-04-26T14:48:18.732Z</time></trkpt><trkpt lat="43.212675" lon="2.3522667"><ele>114.0</ele><time>2026-04-26T14:48:20.73Z</time></trkpt><trkpt lat="43.2126717" lon="2.352135"><ele>114.0</ele><time>2026-04-26T14:48:22.731Z</time></trkpt><trkpt lat="43.2126683" lon="2.351965"><ele>114.0</ele><time>2026-04-26T14:48:24.73Z</time></trkpt><trkpt lat="43.21266" lon="2.3517983"><ele>114.0</ele><time>2026-04-26T14:48:26.729Z</time></trkpt><trkpt lat="43.21265" lon="2.3516367"><ele>114.16666666666667</ele><time>2026-04-26T14:48:28.733Z</time></trkpt><trkpt lat="43.2126533" lon="2.3515117"><ele>114.33333333333334</ele><time>2026-04-26T14:48:30.729Z</time></trkpt><trkpt lat="43.2126533" lon="2.3514233"><ele>114.5</ele><time>2026-04-26T14:48:32.729Z</time></trkpt><trkpt lat="43.2126533" lon="2.351325"><ele>114.66666666666667</ele><time>2026-04-26T14:48:34.729Z</time></trkpt><trkpt lat="43.2126517" lon="2.351195"><ele>114.83333333333334</ele><time>2026-04-26T14:48:36.731Z</time></trkpt><trkpt lat="43.2126633" lon="2.3510333"><ele>115.0</ele><time>2026-04-26T14:48:38.731Z</time></trkpt><trkpt lat="43.2126667" lon="2.35088"><ele>115.16666666666667</ele><time>2026-04-26T14:48:40.729Z</time></trkpt><trkpt lat="43.2126767" lon="2.3507483"><ele>115.33333333333334</ele><time>2026-04-26T14:48:42.732Z</time></trkpt><trkpt lat="43.2126867" lon="2.3506533"><ele>115.5</ele><time>2026-04-26T14:48:44.731Z</time></trkpt><trkpt lat="43.2126917" lon="2.3505183"><ele>115.66666666666666</ele><time>2026-04-26T14:48:47.728Z</time></trkpt><trkpt lat="43.2126867" lon="2.3503733"><ele>115.83333333333333</ele><time>2026-04-26T14:48:49.729Z</time></trkpt><trkpt lat="43.212675" lon="2.3502833"><ele>116.0</ele><time>2026-04-26T14:48:50.731Z</time></trkpt><trkpt lat="43.2126717" lon="2.3501933"><ele>116.19999999999999</ele><time>2026-04-26T14:48:51.73Z</time></trkpt><trkpt lat="43.2126667" lon="2.35002"><ele>116.39999999999999</ele><time>2026-04-26T14:48:53.729Z</time></trkpt><trkpt lat="43.2126783" lon="2.3498717"><ele>116.6</ele><time>2026-04-26T14:48:55.734Z</time></trkpt><trkpt lat="43.2126767" lon="2.3497433"><ele>116.8</ele><time>2026-04-26T14:48:57.729Z</time></trkpt><trkpt lat="43.2126833" lon="2.3496433"><ele>117.0</ele><time>2026-04-26T14:48:59.729Z</time></trkpt><trkpt lat="43.2126867" lon="2.349545"><ele>117.33333333333333</ele><time>2026-04-26T14:49:01.729Z</time></trkpt><trkpt lat="43.2126967" lon="2.3493983"><ele>117.66666666666666</ele><time>2026-04-26T14:49:03.73Z</time></trkpt><trkpt lat="43.2127" lon="2.349225"><ele>118.0</ele><time>2026-04-26T14:49:05.729Z</time></trkpt><trkpt lat="43.21269" lon="2.3491333"><ele>118.33333333333333</ele><time>2026-04-26T14:49:06.732Z</time></trkpt><trkpt lat="43.21267" lon="2.3490417"><ele>118.66666666666666</ele><time>2026-04-26T14:49:07.73Z</time></trkpt><trkpt lat="43.2126633" lon="2.3489517"><ele>119.0</ele><time>2026-04-26T14:49:08.728Z</time></trkpt><trkpt lat="43.2126717" lon="2.348785"><ele>119.2</ele><time>2026-04-26T14:49:10.73Z</time></trkpt><trkpt lat="43.2126783" lon="2.3486517"><ele>119.4</ele><time>2026-04-26T14:49:12.729Z</time></trkpt><trkpt lat="43.2126683" lon="2.3485483"><ele>119.6</ele><time>2026-04-26T14:49:14.73Z</time></trkpt><trkpt lat="43.212685" lon="2.3483833"><ele>119.8</ele><time>2026-04-26T14:49:21.729Z</time></trkpt><trkpt lat="43.21268" lon="2.3482183"><ele>120.0</ele><time>2026-04-26T14:49:23.729Z</time></trkpt><trkpt lat="43.2126967" lon="2.34805"><ele>120.0</ele><time>2026-04-26T14:49:25.729Z</time></trkpt><trkpt lat="43.2127083" lon="2.347885"><ele>120.0</ele><time>2026-04-26T14:49:27.73Z</time></trkpt><trkpt lat="43.2127133" lon="2.34774"><ele>120.0</ele><time>2026-04-26T14:49:29.728Z</time></trkpt><trkpt lat="43.212705" lon="2.3476133"><ele>120.0</ele><time>2026-04-26T14:49:31.728Z</time></trkpt><trkpt lat="43.2127017" lon="2.3475217"><ele>120.0</ele><time>2026-04-26T14:49:33.729Z</time></trkpt><trkpt lat="43.2127067" lon="2.3474167"><ele>120.0</ele><time>2026-04-26T14:49:35.729Z</time></trkpt><trkpt lat="43.212705" lon="2.34722"><ele>120.0</ele><time>2026-04-26T14:49:37.732Z</time></trkpt><trkpt lat="43.21271" lon="2.3470883"><ele>120.0</ele><time>2026-04-26T14:49:38.73Z</time></trkpt><trkpt lat="43.21271" lon="2.34694"><ele>120.0</ele><time>2026-04-26T14:49:39.73Z</time></trkpt><trkpt lat="43.2127067" lon="2.346795"><ele>120.5</ele><time>2026-04-26T14:49:40.729Z</time></trkpt><trkpt lat="43.2127" lon="2.34667"><ele>121.0</ele><time>2026-04-26T14:49:41.729Z</time></trkpt><trkpt lat="43.2126833" lon="2.3465633"><ele>121.5</ele><time>2026-04-26T14:49:42.729Z</time></trkpt><trkpt lat="43.2126483" lon="2.3464367"><ele>122.0</ele><time>2026-04-26T14:49:44.733Z</time></trkpt><trkpt lat="43.2126517" lon="2.346345"><ele>122.5</ele><time>2026-04-26T14:50:22.728Z</time></trkpt><trkpt lat="43.2126383" lon="2.3462483"><ele>123.0</ele><time>2026-04-26T14:50:23.728Z</time></trkpt><trkpt lat="43.2125667" lon="2.3459133"><ele>123.0</ele><time>2026-04-26T14:50:25.73Z</time></trkpt><trkpt lat="43.2125367" lon="2.345725"><ele>123.0</ele><time>2026-04-26T14:50:26.727Z</time></trkpt><trkpt lat="43.212505" lon="2.3455217"><ele>123.0</ele><time>2026-04-26T14:50:27.731Z</time></trkpt><trkpt lat="43.2124733" lon="2.34531"><ele>123.0</ele><time>2026-04-26T14:50:28.729Z</time></trkpt><trkpt lat="43.2124367" lon="2.3450817"><ele>123.0</ele><time>2026-04-26T14:50:29.727Z</time></trkpt><trkpt lat="43.2123983" lon="2.34484"><ele>123.0</ele><time>2026-04-26T14:50:30.728Z</time></trkpt><trkpt lat="43.2123583" lon="2.3445883"><ele>123.0</ele><time>2026-04-26T14:50:31.727Z</time></trkpt><trkpt lat="43.21232" lon="2.344345"><ele>123.0</ele><time>2026-04-26T14:50:32.728Z</time></trkpt><trkpt lat="43.2122833" lon="2.3441133"><ele>123.0</ele><time>2026-04-26T14:50:33.729Z</time></trkpt><trkpt lat="43.21224" lon="2.3438833"><ele>123.0</ele><time>2026-04-26T14:50:34.728Z</time></trkpt><trkpt lat="43.2121833" lon="2.34366"><ele>123.0</ele><time>2026-04-26T14:50:35.727Z</time></trkpt><trkpt lat="43.2121" lon="2.3434417"><ele>123.0</ele><time>2026-04-26T14:50:36.729Z</time></trkpt><trkpt lat="43.2120017" lon="2.343235"><ele>123.0</ele><time>2026-04-26T14:50:37.729Z</time></trkpt><trkpt lat="43.2118967" lon="2.343035"><ele>122.33333333333334</ele><time>2026-04-26T14:50:38.731Z</time></trkpt><trkpt lat="43.21178" lon="2.3428383"><ele>121.66666666666667</ele><time>2026-04-26T14:50:39.728Z</time></trkpt><trkpt lat="43.2116633" lon="2.342645"><ele>121.0</ele><time>2026-04-26T14:50:40.728Z</time></trkpt><trkpt lat="43.21156" lon="2.3424617"><ele>120.66666666666667</ele><time>2026-04-26T14:50:41.728Z</time></trkpt><trkpt lat="43.2114633" lon="2.3422683"><ele>120.33333333333334</ele><time>2026-04-26T14:50:42.728Z</time></trkpt><trkpt lat="43.21137" lon="2.3420783"><ele>120.0</ele><time>2026-04-26T14:50:43.727Z</time></trkpt><trkpt lat="43.2112783" lon="2.3419"><ele>119.5</ele><time>2026-04-26T14:50:44.73Z</time></trkpt><trkpt lat="43.2111883" lon="2.3417367"><ele>119.0</ele><time>2026-04-26T14:50:45.729Z</time></trkpt><trkpt lat="43.2111017" lon="2.341575"><ele>118.5</ele><time>2026-04-26T14:50:46.731Z</time></trkpt><trkpt lat="43.2110233" lon="2.3414067"><ele>118.0</ele><time>2026-04-26T14:50:47.727Z</time></trkpt><trkpt lat="43.210955" lon="2.3412383"><ele>117.75</ele><time>2026-04-26T14:50:48.729Z</time></trkpt><trkpt lat="43.2109067" lon="2.3410667"><ele>117.5</ele><time>2026-04-26T14:50:49.731Z</time></trkpt><trkpt lat="43.2108867" lon="2.3408733"><ele>117.25</ele><time>2026-04-26T14:50:50.728Z</time></trkpt><trkpt lat="43.210885" lon="2.34067"><ele>117.0</ele><time>2026-04-26T14:50:51.73Z</time></trkpt><trkpt lat="43.2108867" lon="2.3404567"><ele>117.0</ele><time>2026-04-26T14:50:52.727Z</time></trkpt><trkpt lat="43.2108867" lon="2.3402317"><ele>117.0</ele><time>2026-04-26T14:50:53.728Z</time></trkpt><trkpt lat="43.2108967" lon="2.3399967"><ele>117.0</ele><time>2026-04-26T14:50:54.728Z</time></trkpt><trkpt lat="43.2109117" lon="2.339745"><ele>117.0</ele><time>2026-04-26T14:50:55.728Z</time></trkpt><trkpt lat="43.2109317" lon="2.3394883"><ele>117.0</ele><time>2026-04-26T14:50:56.728Z</time></trkpt><trkpt lat="43.2109433" lon="2.3392183"><ele>117.0</ele><time>2026-04-26T14:50:57.734Z</time></trkpt><trkpt lat="43.21095" lon="2.3389467"><ele>117.66666666666666</ele><time>2026-04-26T14:50:58.729Z</time></trkpt><trkpt lat="43.2109583" lon="2.3386733"><ele>118.33333333333333</ele><time>2026-04-26T14:50:59.73Z</time></trkpt><trkpt lat="43.21097" lon="2.338395"><ele>119.0</ele><time>2026-04-26T14:51:00.731Z</time></trkpt><trkpt lat="43.2109817" lon="2.3381183"><ele>118.66666666666666</ele><time>2026-04-26T14:51:01.728Z</time></trkpt><trkpt lat="43.210995" lon="2.337845"><ele>118.33333333333334</ele><time>2026-04-26T14:51:02.73Z</time></trkpt><trkpt lat="43.2110017" lon="2.3375717"><ele>118.0</ele><time>2026-04-26T14:51:03.73Z</time></trkpt><trkpt lat="43.21101" lon="2.3372967"><ele>118.66666666666667</ele><time>2026-04-26T14:51:04.729Z</time></trkpt><trkpt lat="43.211015" lon="2.3370383"><ele>119.33333333333334</ele><time>2026-04-26T14:51:05.728Z</time></trkpt><trkpt lat="43.2110117" lon="2.3367767"><ele>120.0</ele><time>2026-04-26T14:51:06.728Z</time></trkpt><trkpt lat="43.211015" lon="2.3365317"><ele>120.33333333333334</ele><time>2026-04-26T14:51:07.728Z</time></trkpt><trkpt lat="43.21103" lon="2.3363067"><ele>120.66666666666667</ele><time>2026-04-26T14:51:08.731Z</time></trkpt><trkpt lat="43.2110383" lon="2.33609"><ele>121.0</ele><time>2026-04-26T14:51:09.728Z</time></trkpt><trkpt lat="43.21104" lon="2.3358733"><ele>121.0</ele><time>2026-04-26T14:51:10.728Z</time></trkpt><trkpt lat="43.2110433" lon="2.335655"><ele>121.0</ele><time>2026-04-26T14:51:11.728Z</time></trkpt><trkpt lat="43.2110533" lon="2.335435"><ele>121.0</ele><time>2026-04-26T14:51:12.727Z</time></trkpt><trkpt lat="43.2110633" lon="2.3352017"><ele>121.0</ele><time>2026-04-26T14:51:13.729Z</time></trkpt><trkpt lat="43.2110683" lon="2.3349667"><ele>121.0</ele><time>2026-04-26T14:51:14.73Z</time></trkpt><trkpt lat="43.2110733" lon="2.3347333"><ele>121.0</ele><time>2026-04-26T14:51:15.729Z</time></trkpt><trkpt lat="43.2110767" lon="2.3345133"><ele>121.25</ele><time>2026-04-26T14:51:16.728Z</time></trkpt><trkpt lat="43.2110867" lon="2.3343083"><ele>121.5</ele><time>2026-04-26T14:51:17.729Z</time></trkpt><trkpt lat="43.211095" lon="2.3341133"><ele>121.75</ele><time>2026-04-26T14:51:18.729Z</time></trkpt><trkpt lat="43.21111" lon="2.333925"><ele>122.0</ele><time>2026-04-26T14:51:19.728Z</time></trkpt><trkpt lat="43.21113" lon="2.3337383"><ele>122.0</ele><time>2026-04-26T14:51:20.73Z</time></trkpt><trkpt lat="43.21115" lon="2.3335583"><ele>121.99999999999999</ele><time>2026-04-26T14:51:21.729Z</time></trkpt><trkpt lat="43.2111733" lon="2.3333933"><ele>121.99999999999999</ele><time>2026-04-26T14:51:22.728Z</time></trkpt><trkpt lat="43.2111867" lon="2.3332567"><ele>122.0</ele><time>2026-04-26T14:51:23.73Z</time></trkpt><trkpt lat="43.2112017" lon="2.3331483"><ele>122.0</ele><time>2026-04-26T14:51:24.729Z</time></trkpt><trkpt lat="43.2112283" lon="2.33301"><ele>121.39999999999999</ele><time>2026-04-26T14:51:26.731Z</time></trkpt><trkpt lat="43.2112483" lon="2.3328917"><ele>120.79999999999998</ele><time>2026-04-26T14:52:08.73Z</time></trkpt><trkpt lat="43.2112817" lon="2.3327183"><ele>120.2</ele><time>2026-04-26T14:52:10.728Z</time></trkpt><trkpt lat="43.2112983" lon="2.3326183"><ele>119.6</ele><time>2026-04-26T14:52:11.729Z</time></trkpt><trkpt lat="43.2113217" lon="2.3325133"><ele>119.0</ele><time>2026-04-26T14:52:12.732Z</time></trkpt><trkpt lat="43.211345" lon="2.3324"><ele>119.0</ele><time>2026-04-26T14:52:13.728Z</time></trkpt><trkpt lat="43.21137" lon="2.3322817"><ele>119.0</ele><time>2026-04-26T14:52:14.729Z</time></trkpt><trkpt lat="43.2114033" lon="2.3321533"><ele>119.0</ele><time>2026-04-26T14:52:15.729Z</time></trkpt><trkpt lat="43.2114417" lon="2.332015"><ele>119.0</ele><time>2026-04-26T14:52:16.728Z</time></trkpt><trkpt lat="43.2114883" lon="2.33186"><ele>119.0</ele><time>2026-04-26T14:52:17.729Z</time></trkpt><trkpt lat="43.21154" lon="2.3316833"><ele>118.75</ele><time>2026-04-26T14:52:18.729Z</time></trkpt><trkpt lat="43.2116" lon="2.3314867"><ele>118.5</ele><time>2026-04-26T14:52:19.73Z</time></trkpt><trkpt lat="43.2116583" lon="2.3312983"><ele>118.25</ele><time>2026-04-26T14:52:20.73Z</time></trkpt><trkpt lat="43.211715" lon="2.3311333"><ele>118.0</ele><time>2026-04-26T14:52:21.733Z</time></trkpt><trkpt lat="43.211765" lon="2.3309917"><ele>117.83333333333334</ele><time>2026-04-26T14:52:22.729Z</time></trkpt><trkpt lat="43.211805" lon="2.33087"><ele>117.66666666666667</ele><time>2026-04-26T14:52:23.729Z</time></trkpt><trkpt lat="43.211835" lon="2.33076"><ele>117.5</ele><time>2026-04-26T14:52:24.729Z</time></trkpt><trkpt lat="43.2118633" lon="2.3306567"><ele>117.33333333333334</ele><time>2026-04-26T14:52:25.73Z</time></trkpt><trkpt lat="43.2118867" lon="2.3305583"><ele>117.16666666666667</ele><time>2026-04-26T14:52:26.729Z</time></trkpt><trkpt lat="43.211925" lon="2.33042"><ele>117.0</ele><time>2026-04-26T14:52:28.728Z</time></trkpt><trkpt lat="43.2119533" lon="2.33032"><ele>116.8</ele><time>2026-04-26T14:52:30.728Z</time></trkpt><trkpt lat="43.21199" lon="2.3302217"><ele>116.6</ele><time>2026-04-26T14:52:33.73Z</time></trkpt><trkpt lat="43.2120317" lon="2.330155"><ele>116.39999999999999</ele><time>2026-04-26T14:52:35.728Z</time></trkpt><trkpt lat="43.2121217" lon="2.3300317"><ele>116.19999999999999</ele><time>2026-04-26T14:52:37.729Z</time></trkpt><trkpt lat="43.21213" lon="2.3299067"><ele>116.0</ele><time>2026-04-26T14:52:38.73Z</time></trkpt><trkpt lat="43.2121283" lon="2.32976"><ele>116.0</ele><time>2026-04-26T14:52:39.728Z</time></trkpt><trkpt lat="43.2121233" lon="2.3296"><ele>116.0</ele><time>2026-04-26T14:52:40.728Z</time></trkpt><trkpt lat="43.2121567" lon="2.32944"><ele>116.0</ele><time>2026-04-26T14:52:41.728Z</time></trkpt><trkpt lat="43.2122" lon="2.3292783"><ele>116.0</ele><time>2026-04-26T14:52:42.731Z</time></trkpt><trkpt lat="43.212245" lon="2.3291033"><ele>116.0</ele><time>2026-04-26T14:52:43.729Z</time></trkpt><trkpt lat="43.212295" lon="2.3289133"><ele>116.0</ele><time>2026-04-26T14:52:44.729Z</time></trkpt><trkpt lat="43.2123467" lon="2.3287067"><ele>116.0</ele><time>2026-04-26T14:52:45.729Z</time></trkpt><trkpt lat="43.212405" lon="2.328495"><ele>116.0</ele><time>2026-04-26T14:52:46.73Z</time></trkpt><trkpt lat="43.212455" lon="2.3282683"><ele>116.0</ele><time>2026-04-26T14:52:47.729Z</time></trkpt><trkpt lat="43.2124983" lon="2.3280383"><ele>116.0</ele><time>2026-04-26T14:52:48.729Z</time></trkpt><trkpt lat="43.2125367" lon="2.32782"><ele>116.0</ele><time>2026-04-26T14:52:49.73Z</time></trkpt><trkpt lat="43.2125717" lon="2.3276133"><ele>116.0</ele><time>2026-04-26T14:52:50.73Z</time></trkpt><trkpt lat="43.2126033" lon="2.3274183"><ele>116.0</ele><time>2026-04-26T14:52:51.731Z</time></trkpt><trkpt lat="43.2126383" lon="2.3272467"><ele>116.0</ele><time>2026-04-26T14:52:52.729Z</time></trkpt><trkpt lat="43.212675" lon="2.32709"><ele>115.4</ele><time>2026-04-26T14:52:53.729Z</time></trkpt><trkpt lat="43.2127" lon="2.3269567"><ele>114.8</ele><time>2026-04-26T14:52:54.73Z</time></trkpt><trkpt lat="43.212695" lon="2.3268383"><ele>114.20000000000002</ele><time>2026-04-26T14:52:55.729Z</time></trkpt><trkpt lat="43.2126533" lon="2.32675"><ele>113.60000000000001</ele><time>2026-04-26T14:52:56.731Z</time></trkpt><trkpt lat="43.2125867" lon="2.3266883"><ele>113.0</ele><time>2026-04-26T14:52:57.731Z</time></trkpt><trkpt lat="43.212475" lon="2.326665"><ele>113.0</ele><time>2026-04-26T14:52:58.73Z</time></trkpt><trkpt lat="43.21235" lon="2.3266467"><ele>113.0</ele><time>2026-04-26T14:52:59.728Z</time></trkpt><trkpt lat="43.2122133" lon="2.32662"><ele>113.0</ele><time>2026-04-26T14:53:00.728Z</time></trkpt><trkpt lat="43.2120667" lon="2.32659"><ele>113.0</ele><time>2026-04-26T14:53:01.728Z</time></trkpt><trkpt lat="43.2119167" lon="2.3265617"><ele>112.75</ele><time>2026-04-26T14:53:02.729Z</time></trkpt><trkpt lat="43.211775" lon="2.3265317"><ele>112.5</ele><time>2026-04-26T14:53:03.729Z</time></trkpt><trkpt lat="43.2116417" lon="2.32651"><ele>112.25</ele><time>2026-04-26T14:53:04.728Z</time></trkpt><trkpt lat="43.2115183" lon="2.326485"><ele>112.0</ele><time>2026-04-26T14:53:05.728Z</time></trkpt><trkpt lat="43.21141" lon="2.32644"><ele>111.5</ele><time>2026-04-26T14:53:06.728Z</time></trkpt><trkpt lat="43.21133" lon="2.3263567"><ele>111.0</ele><time>2026-04-26T14:53:07.728Z</time></trkpt><trkpt lat="43.21128" lon="2.3262283"><ele>110.5</ele><time>2026-04-26T14:53:08.73Z</time></trkpt><trkpt lat="43.2112667" lon="2.32606"><ele>110.0</ele><time>2026-04-26T14:53:09.728Z</time></trkpt><trkpt lat="43.21128" lon="2.3258617"><ele>110.0</ele><time>2026-04-26T14:53:10.729Z</time></trkpt><trkpt lat="43.2112983" lon="2.3256417"><ele>110.0</ele><time>2026-04-26T14:53:11.728Z</time></trkpt><trkpt lat="43.211305" lon="2.3254183"><ele>110.0</ele><time>2026-04-26T14:53:12.728Z</time></trkpt><trkpt lat="43.211305" lon="2.3252117"><ele>110.0</ele><time>2026-04-26T14:53:13.728Z</time></trkpt><trkpt lat="43.2113067" lon="2.3250233"><ele>110.0</ele><time>2026-04-26T14:53:14.728Z</time></trkpt><trkpt lat="43.2113183" lon="2.3248417"><ele>110.0</ele><time>2026-04-26T14:53:15.729Z</time></trkpt><trkpt lat="43.211345" lon="2.324675"><ele>110.0</ele><time>2026-04-26T14:53:16.733Z</time></trkpt><trkpt lat="43.2113967" lon="2.3245333"><ele>110.4</ele><time>2026-04-26T14:53:17.729Z</time></trkpt><trkpt lat="43.2114417" lon="2.3243967"><ele>110.8</ele><time>2026-04-26T14:53:18.728Z</time></trkpt><trkpt lat="43.2114583" lon="2.324255"><ele>111.19999999999999</ele><time>2026-04-26T14:53:19.732Z</time></trkpt><trkpt lat="43.2114483" lon="2.32411"><ele>111.6</ele><time>2026-04-26T14:53:20.729Z</time></trkpt><trkpt lat="43.2114033" lon="2.323945"><ele>112.0</ele><time>2026-04-26T14:53:21.73Z</time></trkpt><trkpt lat="43.2113583" lon="2.32376"><ele>112.66666666666667</ele><time>2026-04-26T14:53:22.73Z</time></trkpt><trkpt lat="43.2113483" lon="2.323555"><ele>113.33333333333334</ele><time>2026-04-26T14:53:23.729Z</time></trkpt><trkpt lat="43.2113617" lon="2.3233317"><ele>114.0</ele><time>2026-04-26T14:53:24.734Z</time></trkpt><trkpt lat="43.211375" lon="2.3231033"><ele>114.33333333333334</ele><time>2026-04-26T14:53:25.729Z</time></trkpt><trkpt lat="43.211385" lon="2.32286"><ele>114.66666666666667</ele><time>2026-04-26T14:53:26.732Z</time></trkpt><trkpt lat="43.2113883" lon="2.3226"><ele>115.0</ele><time>2026-04-26T14:53:27.729Z</time></trkpt><trkpt lat="43.2113917" lon="2.322325"><ele>115.33333333333334</ele><time>2026-04-26T14:53:28.732Z</time></trkpt><trkpt lat="43.2114017" lon="2.32205"><ele>115.66666666666666</ele><time>2026-04-26T14:53:29.729Z</time></trkpt><trkpt lat="43.211405" lon="2.321775"><ele>116.0</ele><time>2026-04-26T14:53:30.73Z</time></trkpt><trkpt lat="43.21141" lon="2.321515"><ele>116.33333333333333</ele><time>2026-04-26T14:53:31.729Z</time></trkpt><trkpt lat="43.2114283" lon="2.3212617"><ele>116.66666666666666</ele><time>2026-04-26T14:53:32.73Z</time></trkpt><trkpt lat="43.211455" lon="2.3210117"><ele>117.0</ele><time>2026-04-26T14:53:33.729Z</time></trkpt><trkpt lat="43.2114817" lon="2.32078"><ele>117.0</ele><time>2026-04-26T14:53:34.728Z</time></trkpt><trkpt lat="43.211505" lon="2.3205633"><ele>117.0</ele><time>2026-04-26T14:53:35.729Z</time></trkpt><trkpt lat="43.2115367" lon="2.3203567"><ele>117.0</ele><time>2026-04-26T14:53:36.729Z</time></trkpt><trkpt lat="43.21158" lon="2.320155"><ele>117.0</ele><time>2026-04-26T14:53:37.729Z</time></trkpt><trkpt lat="43.21164" lon="2.3199733"><ele>117.0</ele><time>2026-04-26T14:53:38.729Z</time></trkpt><trkpt lat="43.2117117" lon="2.319845"><ele>117.0</ele><time>2026-04-26T14:53:39.73Z</time></trkpt><trkpt lat="43.2117417" lon="2.319705"><ele>117.0</ele><time>2026-04-26T14:53:40.729Z</time></trkpt><trkpt lat="43.2117333" lon="2.319565"><ele>117.0</ele><time>2026-04-26T14:53:41.731Z</time></trkpt><trkpt lat="43.2116867" lon="2.3194617"><ele>116.99999999999999</ele><time>2026-04-26T14:53:42.731Z</time></trkpt><trkpt lat="43.2116183" lon="2.3193867"><ele>116.99999999999999</ele><time>2026-04-26T14:53:43.728Z</time></trkpt><trkpt lat="43.2115083" lon="2.3193783"><ele>117.0</ele><time>2026-04-26T14:53:44.732Z</time></trkpt><trkpt lat="43.21139" lon="2.3194317"><ele>117.0</ele><time>2026-04-26T14:53:45.728Z</time></trkpt><trkpt lat="43.2112817" lon="2.3195333"><ele>117.0</ele><time>2026-04-26T14:53:46.729Z</time></trkpt><trkpt lat="43.211175" lon="2.3196333"><ele>117.0</ele><time>2026-04-26T14:53:47.731Z</time></trkpt><trkpt lat="43.2110617" lon="2.3196933"><ele>117.0</ele><time>2026-04-26T14:53:48.73Z</time></trkpt><trkpt lat="43.210945" lon="2.3197133"><ele>117.0</ele><time>2026-04-26T14:53:49.729Z</time></trkpt><trkpt lat="43.210835" lon="2.3197067"><ele>117.0</ele><time>2026-04-26T14:53:50.73Z</time></trkpt><trkpt lat="43.210735" lon="2.3196933"><ele>117.0</ele><time>2026-04-26T14:53:51.729Z</time></trkpt><trkpt lat="43.21065" lon="2.3196617"><ele>118.0</ele><time>2026-04-26T14:53:52.729Z</time></trkpt><trkpt lat="43.2105833" lon="2.3196067"><ele>118.0</ele><time>2026-04-26T14:53:53.729Z</time></trkpt><trkpt lat="43.2104917" lon="2.3195217"><ele>118.0</ele><time>2026-04-26T14:53:55.728Z</time></trkpt></trkseg></trk></gpx>